<?xml version="1.0" encoding="utf-8" standalone="yes"?>
<gpx version="1.1" creator="GPS Visualizer https://www.gpsvisualizer.com/" xmlns="http://www.topografix.com/GPX/1/1" xmlns:xsi="http://www.w3.org/2001/XMLSchema-instance" xsi:schemaLocation="http://www.topografix.com/GPX/1/1 http://www.topografix.com/GPX/1/1/gpx.xsd">
<trk>
  <name>CUT 2021</name>
  <trkseg>
    <trkpt lat="38.631073008" lon="34.909601078">
      <ele>1082.886</ele>
      <time>2021-10-12T09:34:52Z</time>
    </trkpt>
    <trkpt lat="38.631247893" lon="34.909340217">
      <ele>1081.123</ele>
      <time>2021-10-12T09:35:01Z</time>
    </trkpt>
    <trkpt lat="38.631425" lon="34.90921">
      <ele>1081.161</ele>
      <time>2021-10-12T09:35:09Z</time>
    </trkpt>
    <trkpt lat="38.631586" lon="34.909165">
      <ele>1084.987</ele>
      <time>2021-10-12T09:35:15Z</time>
    </trkpt>
    <trkpt lat="38.63173" lon="34.909169">
      <ele>1087.906</ele>
      <time>2021-10-12T09:35:20Z</time>
    </trkpt>
    <trkpt lat="38.631862" lon="34.909207">
      <ele>1089.77</ele>
      <time>2021-10-12T09:35:25Z</time>
    </trkpt>
    <trkpt lat="38.6322" lon="34.909372">
      <ele>1093.76</ele>
      <time>2021-10-12T09:35:39Z</time>
    </trkpt>
    <trkpt lat="38.632314" lon="34.909383">
      <ele>1095.468</ele>
      <time>2021-10-12T09:35:43Z</time>
    </trkpt>
    <trkpt lat="38.632407" lon="34.909345">
      <ele>1097.137</ele>
      <time>2021-10-12T09:35:47Z</time>
    </trkpt>
    <trkpt lat="38.63247" lon="34.90926">
      <ele>1098.753</ele>
      <time>2021-10-12T09:35:50Z</time>
    </trkpt>
    <trkpt lat="38.632518" lon="34.909143">
      <ele>1100.554</ele>
      <time>2021-10-12T09:35:54Z</time>
    </trkpt>
    <trkpt lat="38.632529" lon="34.908997">
      <ele>1101.784</ele>
      <time>2021-10-12T09:35:58Z</time>
    </trkpt>
    <trkpt lat="38.632491" lon="34.908841">
      <ele>1102.426</ele>
      <time>2021-10-12T09:36:03Z</time>
    </trkpt>
    <trkpt lat="38.63247" lon="34.908651">
      <ele>1104.338</ele>
      <time>2021-10-12T09:36:09Z</time>
    </trkpt>
    <trkpt lat="38.632484" lon="34.908544">
      <ele>1105.368</ele>
      <time>2021-10-12T09:36:12Z</time>
    </trkpt>
    <trkpt lat="38.632545" lon="34.908439">
      <ele>1106.887</ele>
      <time>2021-10-12T09:36:15Z</time>
    </trkpt>
    <trkpt lat="38.632703" lon="34.908327">
      <ele>1109.923</ele>
      <time>2021-10-12T09:36:22Z</time>
    </trkpt>
    <trkpt lat="38.632765962" lon="34.908176009">
      <ele>1110.83</ele>
      <time>2021-10-12T09:36:27Z</time>
    </trkpt>
    <trkpt lat="38.632774008" lon="34.908109959">
      <ele>1110.946</ele>
      <time>2021-10-12T09:36:29Z</time>
    </trkpt>
    <trkpt lat="38.63277996" lon="34.90805204">
      <ele>1111.039</ele>
      <time>2021-10-12T09:36:31Z</time>
    </trkpt>
    <trkpt lat="38.632782977" lon="34.907922959">
      <ele>1111.085</ele>
      <time>2021-10-12T09:36:34Z</time>
    </trkpt>
    <trkpt lat="38.632787" lon="34.907885995">
      <ele>1111.146</ele>
      <time>2021-10-12T09:36:36Z</time>
    </trkpt>
    <trkpt lat="38.632791024" lon="34.907849031">
      <ele>1111.203</ele>
      <time>2021-10-12T09:36:37Z</time>
    </trkpt>
    <trkpt lat="38.632799992" lon="34.907698995">
      <ele>1111.036</ele>
      <time>2021-10-12T09:36:41Z</time>
    </trkpt>
    <trkpt lat="38.632811978" lon="34.907581983">
      <ele>1110.788</ele>
      <time>2021-10-12T09:36:44Z</time>
    </trkpt>
    <trkpt lat="38.632847015" lon="34.907439994">
      <ele>1110.835</ele>
      <time>2021-10-12T09:36:49Z</time>
    </trkpt>
    <trkpt lat="38.632861013" lon="34.907406969">
      <ele>1110.964</ele>
      <time>2021-10-12T09:36:50Z</time>
    </trkpt>
    <trkpt lat="38.632877022" lon="34.907373022">
      <ele>1111.135</ele>
      <time>2021-10-12T09:36:51Z</time>
    </trkpt>
    <trkpt lat="38.632910969" lon="34.907304961">
      <ele>1111.552</ele>
      <time>2021-10-12T09:36:53Z</time>
    </trkpt>
    <trkpt lat="38.632923961" lon="34.907275038">
      <ele>1111.721</ele>
      <time>2021-10-12T09:36:54Z</time>
    </trkpt>
    <trkpt lat="38.632940976" lon="34.907246036">
      <ele>1111.973</ele>
      <time>2021-10-12T09:36:55Z</time>
    </trkpt>
    <trkpt lat="38.63295204" lon="34.907216029">
      <ele>1112.128</ele>
      <time>2021-10-12T09:36:56Z</time>
    </trkpt>
    <trkpt lat="38.632985987" lon="34.907154003">
      <ele>1112.686</ele>
      <time>2021-10-12T09:36:59Z</time>
    </trkpt>
    <trkpt lat="38.633004008" lon="34.907117961">
      <ele>1113.002</ele>
      <time>2021-10-12T09:37:00Z</time>
    </trkpt>
    <trkpt lat="38.633023035" lon="34.907077979">
      <ele>1113.354</ele>
      <time>2021-10-12T09:37:01Z</time>
    </trkpt>
    <trkpt lat="38.633035021" lon="34.907045038">
      <ele>1113.583</ele>
      <time>2021-10-12T09:37:02Z</time>
    </trkpt>
    <trkpt lat="38.633052958" lon="34.907012014">
      <ele>1113.946</ele>
      <time>2021-10-12T09:37:03Z</time>
    </trkpt>
    <trkpt lat="38.633068968" lon="34.906977983">
      <ele>1114.247</ele>
      <time>2021-10-12T09:37:05Z</time>
    </trkpt>
    <trkpt lat="38.633083971" lon="34.906944958">
      <ele>1114.512</ele>
      <time>2021-10-12T09:37:06Z</time>
    </trkpt>
    <trkpt lat="38.633129988" lon="34.906816967">
      <ele>1115.004</ele>
      <time>2021-10-12T09:37:10Z</time>
    </trkpt>
    <trkpt lat="38.633173993" lon="34.906691993">
      <ele>1115.611</ele>
      <time>2021-10-12T09:37:14Z</time>
    </trkpt>
    <trkpt lat="38.633210035" lon="34.906554027">
      <ele>1116.382</ele>
      <time>2021-10-12T09:37:18Z</time>
    </trkpt>
    <trkpt lat="38.633251023" lon="34.906416982">
      <ele>1117.588</ele>
      <time>2021-10-12T09:37:22Z</time>
    </trkpt>
    <trkpt lat="38.633273989" lon="34.906336013">
      <ele>1118.413</ele>
      <time>2021-10-12T09:37:25Z</time>
    </trkpt>
    <trkpt lat="38.633287987" lon="34.906300977">
      <ele>1118.849</ele>
      <time>2021-10-12T09:37:26Z</time>
    </trkpt>
    <trkpt lat="38.633294022" lon="34.906260995">
      <ele>1119.063</ele>
      <time>2021-10-12T09:37:27Z</time>
    </trkpt>
    <trkpt lat="38.633294022" lon="34.906224031">
      <ele>1119.12</ele>
      <time>2021-10-12T09:37:28Z</time>
    </trkpt>
    <trkpt lat="38.633300979" lon="34.90615597">
      <ele>1119.361</ele>
      <time>2021-10-12T09:37:30Z</time>
    </trkpt>
    <trkpt lat="38.633305002" lon="34.906123029">
      <ele>1119.477</ele>
      <time>2021-10-12T09:37:31Z</time>
    </trkpt>
    <trkpt lat="38.633310031" lon="34.906093022">
      <ele>1119.657</ele>
      <time>2021-10-12T09:37:32Z</time>
    </trkpt>
    <trkpt lat="38.633310031" lon="34.906062009">
      <ele>1119.787</ele>
      <time>2021-10-12T09:37:33Z</time>
    </trkpt>
    <trkpt lat="38.633310031" lon="34.906026972">
      <ele>1119.934</ele>
      <time>2021-10-12T09:37:34Z</time>
    </trkpt>
    <trkpt lat="38.633303996" lon="34.905993026">
      <ele>1119.987</ele>
      <time>2021-10-12T09:37:35Z</time>
    </trkpt>
    <trkpt lat="38.63330299" lon="34.905954972">
      <ele>1120.139</ele>
      <time>2021-10-12T09:37:36Z</time>
    </trkpt>
    <trkpt lat="38.633300979" lon="34.905922031">
      <ele>1120.257</ele>
      <time>2021-10-12T09:37:37Z</time>
    </trkpt>
    <trkpt lat="38.633296033" lon="34.905885989">
      <ele>1120.357</ele>
      <time>2021-10-12T09:37:38Z</time>
    </trkpt>
    <trkpt lat="38.633288993" lon="34.90585003">
      <ele>1120.442</ele>
      <time>2021-10-12T09:37:39Z</time>
    </trkpt>
    <trkpt lat="38.633272983" lon="34.905774007">
      <ele>1121.035</ele>
      <time>2021-10-12T09:37:41Z</time>
    </trkpt>
    <trkpt lat="38.633252028" lon="34.905625982">
      <ele>1122.58</ele>
      <time>2021-10-12T09:37:46Z</time>
    </trkpt>
    <trkpt lat="38.633225961" lon="34.905496985">
      <ele>1123.73</ele>
      <time>2021-10-12T09:37:50Z</time>
    </trkpt>
    <trkpt lat="38.63319302" lon="34.905385002">
      <ele>1124.528</ele>
      <time>2021-10-12T09:37:53Z</time>
    </trkpt>
    <trkpt lat="38.633159995" lon="34.905264974">
      <ele>1125.543</ele>
      <time>2021-10-12T09:37:57Z</time>
    </trkpt>
    <trkpt lat="38.633127976" lon="34.905175036">
      <ele>1126.644</ele>
      <time>2021-10-12T09:38:00Z</time>
    </trkpt>
    <trkpt lat="38.633119008" lon="34.905146034">
      <ele>1127.017</ele>
      <time>2021-10-12T09:38:00Z</time>
    </trkpt>
    <trkpt lat="38.63306106" lon="34.905036811">
      <ele>1128.473</ele>
      <time>2021-10-12T09:38:04Z</time>
    </trkpt>
    <trkpt lat="38.632994301" lon="34.904873545">
      <ele>1130.466</ele>
      <time>2021-10-12T09:38:10Z</time>
    </trkpt>
    <trkpt lat="38.632947466" lon="34.90476139">
      <ele>1131.911</ele>
      <time>2021-10-12T09:38:13Z</time>
    </trkpt>
    <trkpt lat="38.632939996" lon="34.904617964">
      <ele>1133.167</ele>
      <time>2021-10-12T09:38:18Z</time>
    </trkpt>
    <trkpt lat="38.632955478" lon="34.904371573">
      <ele>1134.266</ele>
      <time>2021-10-12T09:38:25Z</time>
    </trkpt>
    <trkpt lat="38.632981963" lon="34.904143978">
      <ele>1134.022</ele>
      <time>2021-10-12T09:38:31Z</time>
    </trkpt>
    <trkpt lat="38.632986993" lon="34.904025039">
      <ele>1134.126</ele>
      <time>2021-10-12T09:38:35Z</time>
    </trkpt>
    <trkpt lat="38.632996967" lon="34.903873997">
      <ele>1134.265</ele>
      <time>2021-10-12T09:38:39Z</time>
    </trkpt>
    <trkpt lat="38.633023035" lon="34.903725972">
      <ele>1134.704</ele>
      <time>2021-10-12T09:38:44Z</time>
    </trkpt>
    <trkpt lat="38.633047007" lon="34.903605022">
      <ele>1135.074</ele>
      <time>2021-10-12T09:38:47Z</time>
    </trkpt>
    <trkpt lat="38.633065028" lon="34.903458003">
      <ele>1136.189</ele>
      <time>2021-10-12T09:38:52Z</time>
    </trkpt>
    <trkpt lat="38.633089" lon="34.903334035">
      <ele>1137.356</ele>
      <time>2021-10-12T09:38:55Z</time>
    </trkpt>
    <trkpt lat="38.633107021" lon="34.903191039">
      <ele>1138.58</ele>
      <time>2021-10-12T09:38:59Z</time>
    </trkpt>
    <trkpt lat="38.633114984" lon="34.903119039">
      <ele>1139.185</ele>
      <time>2021-10-12T09:39:02Z</time>
    </trkpt>
    <trkpt lat="38.633114984" lon="34.903050978">
      <ele>1139.655</ele>
      <time>2021-10-12T09:39:04Z</time>
    </trkpt>
    <trkpt lat="38.633039966" lon="34.90300999">
      <ele>1139.099</ele>
      <time>2021-10-12T09:39:07Z</time>
    </trkpt>
    <trkpt lat="38.632966038" lon="34.902994987">
      <ele>1138.826</ele>
      <time>2021-10-12T09:39:09Z</time>
    </trkpt>
    <trkpt lat="38.632926978" lon="34.902990041">
      <ele>1138.664</ele>
      <time>2021-10-12T09:39:11Z</time>
    </trkpt>
    <trkpt lat="38.632893031" lon="34.902985012">
      <ele>1138.52</ele>
      <time>2021-10-12T09:39:12Z</time>
    </trkpt>
    <trkpt lat="38.632854978" lon="34.902979983">
      <ele>1138.354</ele>
      <time>2021-10-12T09:39:13Z</time>
    </trkpt>
    <trkpt lat="38.632822959" lon="34.902977971">
      <ele>1138.208</ele>
      <time>2021-10-12T09:39:15Z</time>
    </trkpt>
    <trkpt lat="38.632787" lon="34.902975038">
      <ele>1138.043</ele>
      <time>2021-10-12T09:39:16Z</time>
    </trkpt>
    <trkpt lat="38.632754982" lon="34.902970009">
      <ele>1138.025</ele>
      <time>2021-10-12T09:39:17Z</time>
    </trkpt>
    <trkpt lat="38.632721035" lon="34.902961962">
      <ele>1138.069</ele>
      <time>2021-10-12T09:39:18Z</time>
    </trkpt>
    <trkpt lat="38.63268801" lon="34.902949976">
      <ele>1138.123</ele>
      <time>2021-10-12T09:39:20Z</time>
    </trkpt>
    <trkpt lat="38.632655991" lon="34.902942013">
      <ele>1138.179</ele>
      <time>2021-10-12T09:39:21Z</time>
    </trkpt>
    <trkpt lat="38.632621961" lon="34.902932039">
      <ele>1138.249</ele>
      <time>2021-10-12T09:39:22Z</time>
    </trkpt>
    <trkpt lat="38.632587008" lon="34.902928015">
      <ele>1138.315</ele>
      <time>2021-10-12T09:39:24Z</time>
    </trkpt>
    <trkpt lat="38.632485" lon="34.902918041">
      <ele>1138.441</ele>
      <time>2021-10-12T09:39:27Z</time>
    </trkpt>
    <trkpt lat="38.63238601" lon="34.902903959">
      <ele>1138.135</ele>
      <time>2021-10-12T09:39:31Z</time>
    </trkpt>
    <trkpt lat="38.632282997" lon="34.902876969">
      <ele>1137.862</ele>
      <time>2021-10-12T09:39:35Z</time>
    </trkpt>
    <trkpt lat="38.632249972" lon="34.902868001">
      <ele>1137.775</ele>
      <time>2021-10-12T09:39:36Z</time>
    </trkpt>
    <trkpt lat="38.632218959" lon="34.902860038">
      <ele>1137.724</ele>
      <time>2021-10-12T09:39:37Z</time>
    </trkpt>
    <trkpt lat="38.632187024" lon="34.902855009">
      <ele>1137.94</ele>
      <time>2021-10-12T09:39:39Z</time>
    </trkpt>
    <trkpt lat="38.632156011" lon="34.902846962">
      <ele>1138.168</ele>
      <time>2021-10-12T09:39:40Z</time>
    </trkpt>
    <trkpt lat="38.632123992" lon="34.902841011">
      <ele>1138.399</ele>
      <time>2021-10-12T09:39:41Z</time>
    </trkpt>
    <trkpt lat="38.632092979" lon="34.902827013">
      <ele>1138.671</ele>
      <time>2021-10-12T09:39:42Z</time>
    </trkpt>
    <trkpt lat="38.63206096" lon="34.902818967">
      <ele>1138.927</ele>
      <time>2021-10-12T09:39:43Z</time>
    </trkpt>
    <trkpt lat="38.632030031" lon="34.902808992">
      <ele>1139.194</ele>
      <time>2021-10-12T09:39:44Z</time>
    </trkpt>
    <trkpt lat="38.631999018" lon="34.902800024">
      <ele>1139.463</ele>
      <time>2021-10-12T09:39:46Z</time>
    </trkpt>
    <trkpt lat="38.631965993" lon="34.902788959">
      <ele>1139.767</ele>
      <time>2021-10-12T09:39:47Z</time>
    </trkpt>
    <trkpt lat="38.631937997" lon="34.902783008">
      <ele>1140.008</ele>
      <time>2021-10-12T09:39:48Z</time>
    </trkpt>
    <trkpt lat="38.631908996" lon="34.902774962">
      <ele>1140.265</ele>
      <time>2021-10-12T09:39:49Z</time>
    </trkpt>
    <trkpt lat="38.631882006" lon="34.902760964">
      <ele>1140.51</ele>
      <time>2021-10-12T09:39:50Z</time>
    </trkpt>
    <trkpt lat="38.631856022" lon="34.902744032">
      <ele>1140.758</ele>
      <time>2021-10-12T09:39:51Z</time>
    </trkpt>
    <trkpt lat="38.631840013" lon="34.902721988">
      <ele>1140.953</ele>
      <time>2021-10-12T09:39:52Z</time>
    </trkpt>
    <trkpt lat="38.631827021" lon="34.902689969">
      <ele>1141.162</ele>
      <time>2021-10-12T09:39:53Z</time>
    </trkpt>
    <trkpt lat="38.631817969" lon="34.902645964">
      <ele>1141.385</ele>
      <time>2021-10-12T09:39:54Z</time>
    </trkpt>
    <trkpt lat="38.631811012" lon="34.902601037">
      <ele>1141.597</ele>
      <time>2021-10-12T09:39:56Z</time>
    </trkpt>
    <trkpt lat="38.631807994" lon="34.902558038">
      <ele>1141.774</ele>
      <time>2021-10-12T09:39:57Z</time>
    </trkpt>
    <trkpt lat="38.631809" lon="34.902514033">
      <ele>1141.925</ele>
      <time>2021-10-12T09:39:58Z</time>
    </trkpt>
    <trkpt lat="38.631812017" lon="34.902475979">
      <ele>1142.044</ele>
      <time>2021-10-12T09:39:59Z</time>
    </trkpt>
    <trkpt lat="38.631841019" lon="34.902359974">
      <ele>1142.377</ele>
      <time>2021-10-12T09:40:03Z</time>
    </trkpt>
    <trkpt lat="38.631875971" lon="34.902268024">
      <ele>1142.752</ele>
      <time>2021-10-12T09:40:06Z</time>
    </trkpt>
    <trkpt lat="38.631891981" lon="34.902223013">
      <ele>1142.995</ele>
      <time>2021-10-12T09:40:07Z</time>
    </trkpt>
    <trkpt lat="38.63190799" lon="34.902178003">
      <ele>1143.138</ele>
      <time>2021-10-12T09:40:09Z</time>
    </trkpt>
    <trkpt lat="38.631925005" lon="34.902135003">
      <ele>1143.292</ele>
      <time>2021-10-12T09:40:10Z</time>
    </trkpt>
    <trkpt lat="38.631939003" lon="34.902092004">
      <ele>1143.46</ele>
      <time>2021-10-12T09:40:12Z</time>
    </trkpt>
    <trkpt lat="38.631954007" lon="34.902051017">
      <ele>1143.569</ele>
      <time>2021-10-12T09:40:13Z</time>
    </trkpt>
    <trkpt lat="38.631970016" lon="34.902010029">
      <ele>1143.65</ele>
      <time>2021-10-12T09:40:14Z</time>
    </trkpt>
    <trkpt lat="38.631978985" lon="34.901972981">
      <ele>1143.76</ele>
      <time>2021-10-12T09:40:15Z</time>
    </trkpt>
    <trkpt lat="38.631987032" lon="34.901929982">
      <ele>1143.943</ele>
      <time>2021-10-12T09:40:17Z</time>
    </trkpt>
    <trkpt lat="38.631987032" lon="34.901887989">
      <ele>1144.222</ele>
      <time>2021-10-12T09:40:18Z</time>
    </trkpt>
    <trkpt lat="38.631988959" lon="34.901849013">
      <ele>1144.472</ele>
      <time>2021-10-12T09:40:19Z</time>
    </trkpt>
    <trkpt lat="38.631991977" lon="34.901810037">
      <ele>1144.714</ele>
      <time>2021-10-12T09:40:20Z</time>
    </trkpt>
    <trkpt lat="38.631997006" lon="34.90176796">
      <ele>1144.961</ele>
      <time>2021-10-12T09:40:21Z</time>
    </trkpt>
    <trkpt lat="38.632007986" lon="34.901722027">
      <ele>1145.189</ele>
      <time>2021-10-12T09:40:23Z</time>
    </trkpt>
    <trkpt lat="38.632016033" lon="34.901680034">
      <ele>1145.401</ele>
      <time>2021-10-12T09:40:24Z</time>
    </trkpt>
    <trkpt lat="38.632023996" lon="34.901642986">
      <ele>1145.512</ele>
      <time>2021-10-12T09:40:25Z</time>
    </trkpt>
    <trkpt lat="38.632036988" lon="34.90160401">
      <ele>1145.559</ele>
      <time>2021-10-12T09:40:26Z</time>
    </trkpt>
    <trkpt lat="38.63204998" lon="34.901564028">
      <ele>1145.61</ele>
      <time>2021-10-12T09:40:28Z</time>
    </trkpt>
    <trkpt lat="38.632065989" lon="34.901524968">
      <ele>1145.635</ele>
      <time>2021-10-12T09:40:29Z</time>
    </trkpt>
    <trkpt lat="38.63208401" lon="34.901486998">
      <ele>1145.642</ele>
      <time>2021-10-12T09:40:30Z</time>
    </trkpt>
    <trkpt lat="38.632102031" lon="34.901448023">
      <ele>1145.652</ele>
      <time>2021-10-12T09:40:31Z</time>
    </trkpt>
    <trkpt lat="38.632118963" lon="34.90141198">
      <ele>1145.66</ele>
      <time>2021-10-12T09:40:33Z</time>
    </trkpt>
    <trkpt lat="38.632133966" lon="34.901377028">
      <ele>1145.721</ele>
      <time>2021-10-12T09:40:34Z</time>
    </trkpt>
    <trkpt lat="38.63214503" lon="34.901336962">
      <ele>1145.93</ele>
      <time>2021-10-12T09:40:35Z</time>
    </trkpt>
    <trkpt lat="38.632151987" lon="34.901294969">
      <ele>1146.182</ele>
      <time>2021-10-12T09:40:36Z</time>
    </trkpt>
    <trkpt lat="38.632157017" lon="34.901253982">
      <ele>1146.441</ele>
      <time>2021-10-12T09:40:38Z</time>
    </trkpt>
    <trkpt lat="38.632164979" lon="34.901212994">
      <ele>1146.679</ele>
      <time>2021-10-12T09:40:39Z</time>
    </trkpt>
    <trkpt lat="38.632166991" lon="34.901173012">
      <ele>1146.952</ele>
      <time>2021-10-12T09:40:40Z</time>
    </trkpt>
    <trkpt lat="38.63217202" lon="34.901134036">
      <ele>1147.196</ele>
      <time>2021-10-12T09:40:41Z</time>
    </trkpt>
    <trkpt lat="38.63217202" lon="34.901094977">
      <ele>1147.478</ele>
      <time>2021-10-12T09:40:42Z</time>
    </trkpt>
    <trkpt lat="38.632174032" lon="34.901059018">
      <ele>1147.722</ele>
      <time>2021-10-12T09:40:43Z</time>
    </trkpt>
    <trkpt lat="38.63217596" lon="34.901019037">
      <ele>1147.996</ele>
      <time>2021-10-12T09:40:44Z</time>
    </trkpt>
    <trkpt lat="38.632180989" lon="34.900980983">
      <ele>1148.234</ele>
      <time>2021-10-12T09:40:46Z</time>
    </trkpt>
    <trkpt lat="38.632187024" lon="34.900943013">
      <ele>1148.464</ele>
      <time>2021-10-12T09:40:47Z</time>
    </trkpt>
    <trkpt lat="38.632192975" lon="34.900909988">
      <ele>1148.659</ele>
      <time>2021-10-12T09:40:48Z</time>
    </trkpt>
    <trkpt lat="38.632201022" lon="34.900875036">
      <ele>1148.852</ele>
      <time>2021-10-12T09:40:49Z</time>
    </trkpt>
    <trkpt lat="38.632213008" lon="34.900842011">
      <ele>1149.004</ele>
      <time>2021-10-12T09:40:50Z</time>
    </trkpt>
    <trkpt lat="38.632227005" lon="34.900812004">
      <ele>1148.858</ele>
      <time>2021-10-12T09:40:51Z</time>
    </trkpt>
    <trkpt lat="38.632239997" lon="34.900779985">
      <ele>1148.589</ele>
      <time>2021-10-12T09:40:52Z</time>
    </trkpt>
    <trkpt lat="38.632248966" lon="34.900747966">
      <ele>1148.396</ele>
      <time>2021-10-12T09:40:53Z</time>
    </trkpt>
    <trkpt lat="38.632259024" lon="34.900712008">
      <ele>1148.207</ele>
      <time>2021-10-12T09:40:54Z</time>
    </trkpt>
    <trkpt lat="38.63226397" lon="34.900678983">
      <ele>1148.094</ele>
      <time>2021-10-12T09:40:55Z</time>
    </trkpt>
    <trkpt lat="38.632242009" lon="34.900531964">
      <ele>1147.85</ele>
      <time>2021-10-12T09:40:59Z</time>
    </trkpt>
    <trkpt lat="38.63219901" lon="34.900407996">
      <ele>1147.714</ele>
      <time>2021-10-12T09:41:03Z</time>
    </trkpt>
    <trkpt lat="38.632158022" lon="34.900276987">
      <ele>1147.458</ele>
      <time>2021-10-12T09:41:07Z</time>
    </trkpt>
    <trkpt lat="38.632105971" lon="34.900152013">
      <ele>1147.005</ele>
      <time>2021-10-12T09:41:11Z</time>
    </trkpt>
    <trkpt lat="38.632091973" lon="34.900110019">
      <ele>1146.768</ele>
      <time>2021-10-12T09:41:13Z</time>
    </trkpt>
    <trkpt lat="38.63206096" lon="34.900026033">
      <ele>1146.203</ele>
      <time>2021-10-12T09:41:15Z</time>
    </trkpt>
    <trkpt lat="38.63204604" lon="34.899986973">
      <ele>1145.923</ele>
      <time>2021-10-12T09:41:17Z</time>
    </trkpt>
    <trkpt lat="38.632029025" lon="34.899945986">
      <ele>1145.67</ele>
      <time>2021-10-12T09:41:18Z</time>
    </trkpt>
    <trkpt lat="38.632009998" lon="34.899910027">
      <ele>1145.429</ele>
      <time>2021-10-12T09:41:19Z</time>
    </trkpt>
    <trkpt lat="38.631988959" lon="34.899867028">
      <ele>1145.119</ele>
      <time>2021-10-12T09:41:21Z</time>
    </trkpt>
    <trkpt lat="38.631968005" lon="34.899828974">
      <ele>1144.821</ele>
      <time>2021-10-12T09:41:22Z</time>
    </trkpt>
    <trkpt lat="38.631949984" lon="34.899786981">
      <ele>1144.482</ele>
      <time>2021-10-12T09:41:23Z</time>
    </trkpt>
    <trkpt lat="38.631930035" lon="34.899748005">
      <ele>1144.186</ele>
      <time>2021-10-12T09:41:25Z</time>
    </trkpt>
    <trkpt lat="38.631908996" lon="34.899709029">
      <ele>1143.994</ele>
      <time>2021-10-12T09:41:26Z</time>
    </trkpt>
    <trkpt lat="38.631885024" lon="34.899669969">
      <ele>1143.96</ele>
      <time>2021-10-12T09:41:28Z</time>
    </trkpt>
    <trkpt lat="38.631860968" lon="34.899635017">
      <ele>1143.906</ele>
      <time>2021-10-12T09:41:29Z</time>
    </trkpt>
    <trkpt lat="38.631838001" lon="34.899590006">
      <ele>1143.818</ele>
      <time>2021-10-12T09:41:31Z</time>
    </trkpt>
    <trkpt lat="38.631817969" lon="34.899544995">
      <ele>1143.71</ele>
      <time>2021-10-12T09:41:32Z</time>
    </trkpt>
    <trkpt lat="38.631801037" lon="34.899504008">
      <ele>1143.594</ele>
      <time>2021-10-12T09:41:33Z</time>
    </trkpt>
    <trkpt lat="38.631781004" lon="34.899458997">
      <ele>1143.442</ele>
      <time>2021-10-12T09:41:35Z</time>
    </trkpt>
    <trkpt lat="38.631760972" lon="34.899421027">
      <ele>1143.395</ele>
      <time>2021-10-12T09:41:36Z</time>
    </trkpt>
    <trkpt lat="38.631738005" lon="34.899382973">
      <ele>1143.421</ele>
      <time>2021-10-12T09:41:38Z</time>
    </trkpt>
    <trkpt lat="38.631711015" lon="34.899349026">
      <ele>1143.448</ele>
      <time>2021-10-12T09:41:39Z</time>
    </trkpt>
    <trkpt lat="38.631691989" lon="34.89931399">
      <ele>1143.518</ele>
      <time>2021-10-12T09:41:40Z</time>
    </trkpt>
    <trkpt lat="38.631673967" lon="34.899270991">
      <ele>1143.634</ele>
      <time>2021-10-12T09:41:42Z</time>
    </trkpt>
    <trkpt lat="38.631658042" lon="34.899217011">
      <ele>1143.788</ele>
      <time>2021-10-12T09:41:43Z</time>
    </trkpt>
    <trkpt lat="38.631643038" lon="34.899165966">
      <ele>1143.915</ele>
      <time>2021-10-12T09:41:45Z</time>
    </trkpt>
    <trkpt lat="38.631629962" lon="34.899116009">
      <ele>1143.892</ele>
      <time>2021-10-12T09:41:46Z</time>
    </trkpt>
    <trkpt lat="38.631615965" lon="34.899067981">
      <ele>1143.882</ele>
      <time>2021-10-12T09:41:48Z</time>
    </trkpt>
    <trkpt lat="38.631601967" lon="34.899023976">
      <ele>1143.887</ele>
      <time>2021-10-12T09:41:49Z</time>
    </trkpt>
    <trkpt lat="38.631589981" lon="34.898980977">
      <ele>1143.908</ele>
      <time>2021-10-12T09:41:51Z</time>
    </trkpt>
    <trkpt lat="38.631579001" lon="34.898943007">
      <ele>1143.939</ele>
      <time>2021-10-12T09:41:52Z</time>
    </trkpt>
    <trkpt lat="38.63156802" lon="34.898902019">
      <ele>1143.983</ele>
      <time>2021-10-12T09:41:53Z</time>
    </trkpt>
    <trkpt lat="38.631555028" lon="34.898860026">
      <ele>1144.104</ele>
      <time>2021-10-12T09:41:54Z</time>
    </trkpt>
    <trkpt lat="38.631546982" lon="34.898820966">
      <ele>1144.245</ele>
      <time>2021-10-12T09:41:56Z</time>
    </trkpt>
    <trkpt lat="38.631539019" lon="34.898782996">
      <ele>1144.381</ele>
      <time>2021-10-12T09:41:57Z</time>
    </trkpt>
    <trkpt lat="38.631528961" lon="34.89874796">
      <ele>1144.507</ele>
      <time>2021-10-12T09:41:58Z</time>
    </trkpt>
    <trkpt lat="38.631520998" lon="34.898714013">
      <ele>1144.63</ele>
      <time>2021-10-12T09:41:59Z</time>
    </trkpt>
    <trkpt lat="38.631511023" lon="34.898677971">
      <ele>1144.759</ele>
      <time>2021-10-12T09:42:00Z</time>
    </trkpt>
    <trkpt lat="38.631497025" lon="34.898644025">
      <ele>1144.882</ele>
      <time>2021-10-12T09:42:01Z</time>
    </trkpt>
    <trkpt lat="38.631484034" lon="34.898607982">
      <ele>1145.004</ele>
      <time>2021-10-12T09:42:02Z</time>
    </trkpt>
    <trkpt lat="38.631475987" lon="34.898569006">
      <ele>1145.048</ele>
      <time>2021-10-12T09:42:03Z</time>
    </trkpt>
    <trkpt lat="38.631462995" lon="34.89853397">
      <ele>1145.074</ele>
      <time>2021-10-12T09:42:04Z</time>
    </trkpt>
    <trkpt lat="38.631450003" lon="34.898501029">
      <ele>1145.087</ele>
      <time>2021-10-12T09:42:06Z</time>
    </trkpt>
    <trkpt lat="38.631434999" lon="34.898466999">
      <ele>1145.086</ele>
      <time>2021-10-12T09:42:07Z</time>
    </trkpt>
    <trkpt lat="38.631422007" lon="34.89843498">
      <ele>1145.076</ele>
      <time>2021-10-12T09:42:08Z</time>
    </trkpt>
    <trkpt lat="38.631410021" lon="34.898403967">
      <ele>1145.057</ele>
      <time>2021-10-12T09:42:09Z</time>
    </trkpt>
    <trkpt lat="38.631388983" lon="34.89837002">
      <ele>1145.0</ele>
      <time>2021-10-12T09:42:10Z</time>
    </trkpt>
    <trkpt lat="38.631352019" lon="34.898310006">
      <ele>1144.867</ele>
      <time>2021-10-12T09:42:12Z</time>
    </trkpt>
    <trkpt lat="38.631329974" lon="34.898279998">
      <ele>1144.788</ele>
      <time>2021-10-12T09:42:13Z</time>
    </trkpt>
    <trkpt lat="38.631312959" lon="34.898252003">
      <ele>1144.727</ele>
      <time>2021-10-12T09:42:14Z</time>
    </trkpt>
    <trkpt lat="38.63129301" lon="34.898217972">
      <ele>1144.655</ele>
      <time>2021-10-12T09:42:16Z</time>
    </trkpt>
    <trkpt lat="38.631274989" lon="34.898184026">
      <ele>1144.59</ele>
      <time>2021-10-12T09:42:17Z</time>
    </trkpt>
    <trkpt lat="38.631259985" lon="34.898143038">
      <ele>1144.536</ele>
      <time>2021-10-12T09:42:18Z</time>
    </trkpt>
    <trkpt lat="38.631249005" lon="34.898104984">
      <ele>1144.496</ele>
      <time>2021-10-12T09:42:19Z</time>
    </trkpt>
    <trkpt lat="38.631240036" lon="34.898065003">
      <ele>1144.464</ele>
      <time>2021-10-12T09:42:21Z</time>
    </trkpt>
    <trkpt lat="38.63123199" lon="34.898024015">
      <ele>1144.435</ele>
      <time>2021-10-12T09:42:22Z</time>
    </trkpt>
    <trkpt lat="38.631222015" lon="34.897984033">
      <ele>1144.399</ele>
      <time>2021-10-12T09:42:23Z</time>
    </trkpt>
    <trkpt lat="38.631212963" lon="34.89794204">
      <ele>1144.367</ele>
      <time>2021-10-12T09:42:24Z</time>
    </trkpt>
    <trkpt lat="38.631207012" lon="34.897901975">
      <ele>1144.345</ele>
      <time>2021-10-12T09:42:25Z</time>
    </trkpt>
    <trkpt lat="38.631203994" lon="34.89785797">
      <ele>1144.334</ele>
      <time>2021-10-12T09:42:27Z</time>
    </trkpt>
    <trkpt lat="38.631200977" lon="34.897813965">
      <ele>1144.324</ele>
      <time>2021-10-12T09:42:28Z</time>
    </trkpt>
    <trkpt lat="38.63119402" lon="34.897772977">
      <ele>1144.292</ele>
      <time>2021-10-12T09:42:29Z</time>
    </trkpt>
    <trkpt lat="38.631192008" lon="34.89773199">
      <ele>1144.222</ele>
      <time>2021-10-12T09:42:30Z</time>
    </trkpt>
    <trkpt lat="38.631196031" lon="34.89768899">
      <ele>1144.182</ele>
      <time>2021-10-12T09:42:32Z</time>
    </trkpt>
    <trkpt lat="38.631197037" lon="34.897645991">
      <ele>1144.128</ele>
      <time>2021-10-12T09:42:33Z</time>
    </trkpt>
    <trkpt lat="38.631196031" lon="34.897603998">
      <ele>1144.063</ele>
      <time>2021-10-12T09:42:34Z</time>
    </trkpt>
    <trkpt lat="38.631193014" lon="34.897557981">
      <ele>1143.97</ele>
      <time>2021-10-12T09:42:35Z</time>
    </trkpt>
    <trkpt lat="38.63119402" lon="34.897514982">
      <ele>1143.917</ele>
      <time>2021-10-12T09:42:37Z</time>
    </trkpt>
    <trkpt lat="38.631196031" lon="34.897469971">
      <ele>1143.917</ele>
      <time>2021-10-12T09:42:38Z</time>
    </trkpt>
    <trkpt lat="38.631197959" lon="34.897424038">
      <ele>1143.938</ele>
      <time>2021-10-12T09:42:39Z</time>
    </trkpt>
    <trkpt lat="38.631197037" lon="34.897380034">
      <ele>1143.928</ele>
      <time>2021-10-12T09:42:41Z</time>
    </trkpt>
    <trkpt lat="38.631200977" lon="34.897337034">
      <ele>1143.971</ele>
      <time>2021-10-12T09:42:42Z</time>
    </trkpt>
    <trkpt lat="38.631200977" lon="34.897295963">
      <ele>1143.971</ele>
      <time>2021-10-12T09:42:43Z</time>
    </trkpt>
    <trkpt lat="38.631198965" lon="34.897256987">
      <ele>1143.949</ele>
      <time>2021-10-12T09:42:44Z</time>
    </trkpt>
    <trkpt lat="38.631200977" lon="34.897214994">
      <ele>1144.005</ele>
      <time>2021-10-12T09:42:45Z</time>
    </trkpt>
    <trkpt lat="38.631210029" lon="34.897132013">
      <ele>1144.509</ele>
      <time>2021-10-12T09:42:48Z</time>
    </trkpt>
    <trkpt lat="38.631220004" lon="34.89709002">
      <ele>1144.839</ele>
      <time>2021-10-12T09:42:49Z</time>
    </trkpt>
    <trkpt lat="38.631232996" lon="34.897051966">
      <ele>1145.198</ele>
      <time>2021-10-12T09:42:50Z</time>
    </trkpt>
    <trkpt lat="38.631245987" lon="34.897015002">
      <ele>1145.565</ele>
      <time>2021-10-12T09:42:52Z</time>
    </trkpt>
    <trkpt lat="38.631264009" lon="34.896978037">
      <ele>1146.014</ele>
      <time>2021-10-12T09:42:53Z</time>
    </trkpt>
    <trkpt lat="38.631278006" lon="34.896937972">
      <ele>1146.422</ele>
      <time>2021-10-12T09:42:54Z</time>
    </trkpt>
    <trkpt lat="38.631295022" lon="34.89689799">
      <ele>1146.761</ele>
      <time>2021-10-12T09:42:55Z</time>
    </trkpt>
    <trkpt lat="38.631308014" lon="34.896855997">
      <ele>1147.021</ele>
      <time>2021-10-12T09:42:57Z</time>
    </trkpt>
    <trkpt lat="38.631313965" lon="34.896811992">
      <ele>1147.178</ele>
      <time>2021-10-12T09:42:58Z</time>
    </trkpt>
    <trkpt lat="38.631312959" lon="34.896769999">
      <ele>1147.25</ele>
      <time>2021-10-12T09:42:59Z</time>
    </trkpt>
    <trkpt lat="38.631302984" lon="34.896634966">
      <ele>1147.531</ele>
      <time>2021-10-12T09:43:03Z</time>
    </trkpt>
    <trkpt lat="38.63129301" lon="34.896515021">
      <ele>1148.044</ele>
      <time>2021-10-12T09:43:07Z</time>
    </trkpt>
    <trkpt lat="38.631275995" lon="34.896377977">
      <ele>1148.672</ele>
      <time>2021-10-12T09:43:11Z</time>
    </trkpt>
    <trkpt lat="38.63126602" lon="34.896250991">
      <ele>1149.551</ele>
      <time>2021-10-12T09:43:14Z</time>
    </trkpt>
    <trkpt lat="38.631243976" lon="34.896129034">
      <ele>1150.349</ele>
      <time>2021-10-12T09:43:18Z</time>
    </trkpt>
    <trkpt lat="38.631214974" lon="34.896015963">
      <ele>1150.931</ele>
      <time>2021-10-12T09:43:21Z</time>
    </trkpt>
    <trkpt lat="38.631162001" lon="34.895902975">
      <ele>1151.545</ele>
      <time>2021-10-12T09:43:25Z</time>
    </trkpt>
    <trkpt lat="38.631151021" lon="34.89588202">
      <ele>1151.675</ele>
      <time>2021-10-12T09:43:26Z</time>
    </trkpt>
    <trkpt lat="38.631135011" lon="34.895861987">
      <ele>1151.803</ele>
      <time>2021-10-12T09:43:27Z</time>
    </trkpt>
    <trkpt lat="38.631080026" lon="34.895770038">
      <ele>1152.34</ele>
      <time>2021-10-12T09:43:30Z</time>
    </trkpt>
    <trkpt lat="38.631063011" lon="34.89574397">
      <ele>1152.495</ele>
      <time>2021-10-12T09:43:31Z</time>
    </trkpt>
    <trkpt lat="38.631045995" lon="34.89571698">
      <ele>1152.653</ele>
      <time>2021-10-12T09:43:32Z</time>
    </trkpt>
    <trkpt lat="38.631035015" lon="34.895684961">
      <ele>1152.808</ele>
      <time>2021-10-12T09:43:33Z</time>
    </trkpt>
    <trkpt lat="38.631022023" lon="34.895655038">
      <ele>1152.963</ele>
      <time>2021-10-12T09:43:34Z</time>
    </trkpt>
    <trkpt lat="38.631008025" lon="34.895626036">
      <ele>1153.117</ele>
      <time>2021-10-12T09:43:35Z</time>
    </trkpt>
    <trkpt lat="38.630996961" lon="34.895598963">
      <ele>1153.255</ele>
      <time>2021-10-12T09:43:36Z</time>
    </trkpt>
    <trkpt lat="38.63099101" lon="34.895569962">
      <ele>1153.381</ele>
      <time>2021-10-12T09:43:37Z</time>
    </trkpt>
    <trkpt lat="38.630983969" lon="34.89554096">
      <ele>1153.534</ele>
      <time>2021-10-12T09:43:38Z</time>
    </trkpt>
    <trkpt lat="38.630982041" lon="34.895511037">
      <ele>1153.699</ele>
      <time>2021-10-12T09:43:39Z</time>
    </trkpt>
    <trkpt lat="38.630981036" lon="34.895479018">
      <ele>1153.873</ele>
      <time>2021-10-12T09:43:40Z</time>
    </trkpt>
    <trkpt lat="38.63098003" lon="34.895449011">
      <ele>1154.036</ele>
      <time>2021-10-12T09:43:40Z</time>
    </trkpt>
    <trkpt lat="38.630978018" lon="34.895415986">
      <ele>1154.222</ele>
      <time>2021-10-12T09:43:41Z</time>
    </trkpt>
    <trkpt lat="38.630971983" lon="34.895384973">
      <ele>1154.423</ele>
      <time>2021-10-12T09:43:42Z</time>
    </trkpt>
    <trkpt lat="38.630969971" lon="34.895352032">
      <ele>1154.613</ele>
      <time>2021-10-12T09:43:43Z</time>
    </trkpt>
    <trkpt lat="38.630969971" lon="34.895320013">
      <ele>1154.787</ele>
      <time>2021-10-12T09:43:44Z</time>
    </trkpt>
    <trkpt lat="38.630969971" lon="34.895289">
      <ele>1154.955</ele>
      <time>2021-10-12T09:43:45Z</time>
    </trkpt>
    <trkpt lat="38.630966032" lon="34.895255975">
      <ele>1155.198</ele>
      <time>2021-10-12T09:43:46Z</time>
    </trkpt>
    <trkpt lat="38.630958991" lon="34.895225968">
      <ele>1155.451</ele>
      <time>2021-10-12T09:43:47Z</time>
    </trkpt>
    <trkpt lat="38.630947005" lon="34.895198978">
      <ele>1155.697</ele>
      <time>2021-10-12T09:43:48Z</time>
    </trkpt>
    <trkpt lat="38.630935019" lon="34.895171989">
      <ele>1155.928</ele>
      <time>2021-10-12T09:43:49Z</time>
    </trkpt>
    <trkpt lat="38.630925966" lon="34.895146005">
      <ele>1156.124</ele>
      <time>2021-10-12T09:43:50Z</time>
    </trkpt>
    <trkpt lat="38.630916998" lon="34.895123038">
      <ele>1156.29</ele>
      <time>2021-10-12T09:43:50Z</time>
    </trkpt>
    <trkpt lat="38.630908029" lon="34.895102">
      <ele>1156.435</ele>
      <time>2021-10-12T09:43:51Z</time>
    </trkpt>
    <trkpt lat="38.630899983" lon="34.895079033">
      <ele>1156.579</ele>
      <time>2021-10-12T09:43:52Z</time>
    </trkpt>
    <trkpt lat="38.630899983" lon="34.89504802">
      <ele>1156.744</ele>
      <time>2021-10-12T09:43:53Z</time>
    </trkpt>
    <trkpt lat="38.630896965" lon="34.895021031">
      <ele>1156.89</ele>
      <time>2021-10-12T09:43:54Z</time>
    </trkpt>
    <trkpt lat="38.63089202" lon="34.894994041">
      <ele>1157.031</ele>
      <time>2021-10-12T09:43:54Z</time>
    </trkpt>
    <trkpt lat="38.630883973" lon="34.894957999">
      <ele>1157.206</ele>
      <time>2021-10-12T09:43:55Z</time>
    </trkpt>
    <trkpt lat="38.630885985" lon="34.89492204">
      <ele>1157.387</ele>
      <time>2021-10-12T09:43:56Z</time>
    </trkpt>
    <trkpt lat="38.630880034" lon="34.894883987">
      <ele>1157.558</ele>
      <time>2021-10-12T09:43:58Z</time>
    </trkpt>
    <trkpt lat="38.630830999" lon="34.894767981">
      <ele>1157.879</ele>
      <time>2021-10-12T09:44:01Z</time>
    </trkpt>
    <trkpt lat="38.630820019" lon="34.894744009">
      <ele>1158.165</ele>
      <time>2021-10-12T09:44:02Z</time>
    </trkpt>
    <trkpt lat="38.630809961" lon="34.894716013">
      <ele>1158.437</ele>
      <time>2021-10-12T09:44:03Z</time>
    </trkpt>
    <trkpt lat="38.630800992" lon="34.894692963">
      <ele>1158.651</ele>
      <time>2021-10-12T09:44:04Z</time>
    </trkpt>
    <trkpt lat="38.630790012" lon="34.894648036">
      <ele>1158.922</ele>
      <time>2021-10-12T09:44:05Z</time>
    </trkpt>
    <trkpt lat="38.630783977" lon="34.894619035">
      <ele>1159.062</ele>
      <time>2021-10-12T09:44:06Z</time>
    </trkpt>
    <trkpt lat="38.630780037" lon="34.894591961">
      <ele>1159.158</ele>
      <time>2021-10-12T09:44:07Z</time>
    </trkpt>
    <trkpt lat="38.63077702" lon="34.894564971">
      <ele>1159.235</ele>
      <time>2021-10-12T09:44:08Z</time>
    </trkpt>
    <trkpt lat="38.630779032" lon="34.894533958">
      <ele>1159.258</ele>
      <time>2021-10-12T09:44:09Z</time>
    </trkpt>
    <trkpt lat="38.630783977" lon="34.894499006">
      <ele>1159.264</ele>
      <time>2021-10-12T09:44:10Z</time>
    </trkpt>
    <trkpt lat="38.630785989" lon="34.894464975">
      <ele>1159.305</ele>
      <time>2021-10-12T09:44:11Z</time>
    </trkpt>
    <trkpt lat="38.630792024" lon="34.894427005">
      <ele>1159.414</ele>
      <time>2021-10-12T09:44:12Z</time>
    </trkpt>
    <trkpt lat="38.630805016" lon="34.894393981">
      <ele>1159.549</ele>
      <time>2021-10-12T09:44:13Z</time>
    </trkpt>
    <trkpt lat="38.630811973" lon="34.89436104">
      <ele>1159.731</ele>
      <time>2021-10-12T09:44:14Z</time>
    </trkpt>
    <trkpt lat="38.630826976" lon="34.894331032">
      <ele>1159.853</ele>
      <time>2021-10-12T09:44:15Z</time>
    </trkpt>
    <trkpt lat="38.63083804" lon="34.894302031">
      <ele>1160.042</ele>
      <time>2021-10-12T09:44:16Z</time>
    </trkpt>
    <trkpt lat="38.630853966" lon="34.894268">
      <ele>1160.345</ele>
      <time>2021-10-12T09:44:17Z</time>
    </trkpt>
    <trkpt lat="38.630866036" lon="34.894234976">
      <ele>1160.626</ele>
      <time>2021-10-12T09:44:18Z</time>
    </trkpt>
    <trkpt lat="38.630881961" lon="34.894196">
      <ele>1160.964</ele>
      <time>2021-10-12T09:44:19Z</time>
    </trkpt>
    <trkpt lat="38.630897971" lon="34.894159036">
      <ele>1161.315</ele>
      <time>2021-10-12T09:44:20Z</time>
    </trkpt>
    <trkpt lat="38.630909035" lon="34.894126011">
      <ele>1161.712</ele>
      <time>2021-10-12T09:44:22Z</time>
    </trkpt>
    <trkpt lat="38.630924039" lon="34.894088041">
      <ele>1162.176</ele>
      <time>2021-10-12T09:44:23Z</time>
    </trkpt>
    <trkpt lat="38.630932001" lon="34.894049987">
      <ele>1162.615</ele>
      <time>2021-10-12T09:44:24Z</time>
    </trkpt>
    <trkpt lat="38.630941976" lon="34.894014029">
      <ele>1163.04</ele>
      <time>2021-10-12T09:44:25Z</time>
    </trkpt>
    <trkpt lat="38.630944993" lon="34.893981004">
      <ele>1163.407</ele>
      <time>2021-10-12T09:44:26Z</time>
    </trkpt>
    <trkpt lat="38.630949017" lon="34.893946974">
      <ele>1163.789</ele>
      <time>2021-10-12T09:44:27Z</time>
    </trkpt>
    <trkpt lat="38.630959997" lon="34.893912021">
      <ele>1164.206</ele>
      <time>2021-10-12T09:44:28Z</time>
    </trkpt>
    <trkpt lat="38.630966032" lon="34.893876985">
      <ele>1164.563</ele>
      <time>2021-10-12T09:44:29Z</time>
    </trkpt>
    <trkpt lat="38.630971983" lon="34.89384396">
      <ele>1164.823</ele>
      <time>2021-10-12T09:44:30Z</time>
    </trkpt>
    <trkpt lat="38.63098003" lon="34.893813031">
      <ele>1165.074</ele>
      <time>2021-10-12T09:44:31Z</time>
    </trkpt>
    <trkpt lat="38.630985981" lon="34.893777994">
      <ele>1165.348</ele>
      <time>2021-10-12T09:44:32Z</time>
    </trkpt>
    <trkpt lat="38.631013976" lon="34.893713035">
      <ele>1165.916</ele>
      <time>2021-10-12T09:44:34Z</time>
    </trkpt>
    <trkpt lat="38.631025963" lon="34.893679004">
      <ele>1166.205</ele>
      <time>2021-10-12T09:44:35Z</time>
    </trkpt>
    <trkpt lat="38.631030992" lon="34.893652014">
      <ele>1166.417</ele>
      <time>2021-10-12T09:44:36Z</time>
    </trkpt>
    <trkpt lat="38.631035015" lon="34.893622007">
      <ele>1166.648</ele>
      <time>2021-10-12T09:44:37Z</time>
    </trkpt>
    <trkpt lat="38.631011965" lon="34.893499967">
      <ele>1167.443</ele>
      <time>2021-10-12T09:44:41Z</time>
    </trkpt>
    <trkpt lat="38.630961003" lon="34.893389996">
      <ele>1168.052</ele>
      <time>2021-10-12T09:44:44Z</time>
    </trkpt>
    <trkpt lat="38.630911969" lon="34.893288994">
      <ele>1168.602</ele>
      <time>2021-10-12T09:44:48Z</time>
    </trkpt>
    <trkpt lat="38.630873999" lon="34.893234009">
      <ele>1168.862</ele>
      <time>2021-10-12T09:44:50Z</time>
    </trkpt>
    <trkpt lat="38.630849021" lon="34.893211965">
      <ele>1168.93</ele>
      <time>2021-10-12T09:44:51Z</time>
    </trkpt>
    <trkpt lat="38.630829994" lon="34.893193021">
      <ele>1169.01</ele>
      <time>2021-10-12T09:44:52Z</time>
    </trkpt>
    <trkpt lat="38.630812978" lon="34.893172989">
      <ele>1169.154</ele>
      <time>2021-10-12T09:44:53Z</time>
    </trkpt>
    <trkpt lat="38.630795041" lon="34.893156979">
      <ele>1169.27</ele>
      <time>2021-10-12T09:44:54Z</time>
    </trkpt>
    <trkpt lat="38.630779032" lon="34.89313703">
      <ele>1169.413</ele>
      <time>2021-10-12T09:44:54Z</time>
    </trkpt>
    <trkpt lat="38.630763022" lon="34.893114986">
      <ele>1169.572</ele>
      <time>2021-10-12T09:44:55Z</time>
    </trkpt>
    <trkpt lat="38.630739972" lon="34.89307601">
      <ele>1169.853</ele>
      <time>2021-10-12T09:44:57Z</time>
    </trkpt>
    <trkpt lat="38.630723963" lon="34.893056983">
      <ele>1169.99</ele>
      <time>2021-10-12T09:44:58Z</time>
    </trkpt>
    <trkpt lat="38.630708037" lon="34.89304198">
      <ele>1170.049</ele>
      <time>2021-10-12T09:44:58Z</time>
    </trkpt>
    <trkpt lat="38.630684987" lon="34.893029993">
      <ele>1170.092</ele>
      <time>2021-10-12T09:44:59Z</time>
    </trkpt>
    <trkpt lat="38.630666966" lon="34.893021025">
      <ele>1170.124</ele>
      <time>2021-10-12T09:45:00Z</time>
    </trkpt>
    <trkpt lat="38.630646011" lon="34.893018007">
      <ele>1170.135</ele>
      <time>2021-10-12T09:45:01Z</time>
    </trkpt>
    <trkpt lat="38.630621033" lon="34.893009039">
      <ele>1170.167</ele>
      <time>2021-10-12T09:45:02Z</time>
    </trkpt>
    <trkpt lat="38.630594965" lon="34.893003004">
      <ele>1170.189</ele>
      <time>2021-10-12T09:45:03Z</time>
    </trkpt>
    <trkpt lat="38.630564036" lon="34.892997975">
      <ele>1170.207</ele>
      <time>2021-10-12T09:45:04Z</time>
    </trkpt>
    <trkpt lat="38.63053604" lon="34.892995041">
      <ele>1170.077</ele>
      <time>2021-10-12T09:45:05Z</time>
    </trkpt>
    <trkpt lat="38.630504021" lon="34.892984983">
      <ele>1169.883</ele>
      <time>2021-10-12T09:45:06Z</time>
    </trkpt>
    <trkpt lat="38.630474014" lon="34.892979031">
      <ele>1169.688</ele>
      <time>2021-10-12T09:45:07Z</time>
    </trkpt>
    <trkpt lat="38.630443001" lon="34.892972996">
      <ele>1169.487</ele>
      <time>2021-10-12T09:45:08Z</time>
    </trkpt>
    <trkpt lat="38.630411988" lon="34.892966961">
      <ele>1169.285</ele>
      <time>2021-10-12T09:45:09Z</time>
    </trkpt>
    <trkpt lat="38.630379969" lon="34.89296101">
      <ele>1169.076</ele>
      <time>2021-10-12T09:45:11Z</time>
    </trkpt>
    <trkpt lat="38.630348034" lon="34.892954975">
      <ele>1168.868</ele>
      <time>2021-10-12T09:45:12Z</time>
    </trkpt>
    <trkpt lat="38.630314004" lon="34.89295003">
      <ele>1168.641</ele>
      <time>2021-10-12T09:45:13Z</time>
    </trkpt>
    <trkpt lat="38.630276034" lon="34.892942989">
      <ele>1168.399</ele>
      <time>2021-10-12T09:45:15Z</time>
    </trkpt>
    <trkpt lat="38.630243009" lon="34.892938966">
      <ele>1168.295</ele>
      <time>2021-10-12T09:45:16Z</time>
    </trkpt>
    <trkpt lat="38.630205961" lon="34.892934021">
      <ele>1168.179</ele>
      <time>2021-10-12T09:45:17Z</time>
    </trkpt>
    <trkpt lat="38.63017696" lon="34.89293796">
      <ele>1168.06</ele>
      <time>2021-10-12T09:45:18Z</time>
    </trkpt>
    <trkpt lat="38.630141001" lon="34.892939972">
      <ele>1167.924</ele>
      <time>2021-10-12T09:45:20Z</time>
    </trkpt>
    <trkpt lat="38.630112" lon="34.892946007">
      <ele>1167.798</ele>
      <time>2021-10-12T09:45:21Z</time>
    </trkpt>
    <trkpt lat="38.630077969" lon="34.892952042">
      <ele>1167.653</ele>
      <time>2021-10-12T09:45:22Z</time>
    </trkpt>
    <trkpt lat="38.630045028" lon="34.892958999">
      <ele>1167.51</ele>
      <time>2021-10-12T09:45:23Z</time>
    </trkpt>
    <trkpt lat="38.630016027" lon="34.892967967">
      <ele>1167.373</ele>
      <time>2021-10-12T09:45:24Z</time>
    </trkpt>
    <trkpt lat="38.629981996" lon="34.892980037">
      <ele>1167.319</ele>
      <time>2021-10-12T09:45:26Z</time>
    </trkpt>
    <trkpt lat="38.629947966" lon="34.892990012">
      <ele>1167.379</ele>
      <time>2021-10-12T09:45:27Z</time>
    </trkpt>
    <trkpt lat="38.629917959" lon="34.89300401">
      <ele>1167.426</ele>
      <time>2021-10-12T09:45:28Z</time>
    </trkpt>
    <trkpt lat="38.629880995" lon="34.89301499">
      <ele>1167.512</ele>
      <time>2021-10-12T09:45:29Z</time>
    </trkpt>
    <trkpt lat="38.62984797" lon="34.893027982">
      <ele>1167.592</ele>
      <time>2021-10-12T09:45:31Z</time>
    </trkpt>
    <trkpt lat="38.629813017" lon="34.893044997">
      <ele>1167.686</ele>
      <time>2021-10-12T09:45:32Z</time>
    </trkpt>
    <trkpt lat="38.62978301" lon="34.893061006">
      <ele>1167.762</ele>
      <time>2021-10-12T09:45:33Z</time>
    </trkpt>
    <trkpt lat="38.629749985" lon="34.893078022">
      <ele>1167.819</ele>
      <time>2021-10-12T09:45:35Z</time>
    </trkpt>
    <trkpt lat="38.629719978" lon="34.893098976">
      <ele>1167.838</ele>
      <time>2021-10-12T09:45:36Z</time>
    </trkpt>
    <trkpt lat="38.629685026" lon="34.893120015">
      <ele>1167.696</ele>
      <time>2021-10-12T09:45:37Z</time>
    </trkpt>
    <trkpt lat="38.629652001" lon="34.893144993">
      <ele>1167.588</ele>
      <time>2021-10-12T09:45:39Z</time>
    </trkpt>
    <trkpt lat="38.629620988" lon="34.893172989">
      <ele>1167.521</ele>
      <time>2021-10-12T09:45:40Z</time>
    </trkpt>
    <trkpt lat="38.629587041" lon="34.89320199">
      <ele>1167.499</ele>
      <time>2021-10-12T09:45:42Z</time>
    </trkpt>
    <trkpt lat="38.629556028" lon="34.893230991">
      <ele>1167.526</ele>
      <time>2021-10-12T09:45:43Z</time>
    </trkpt>
    <trkpt lat="38.629525015" lon="34.89325597">
      <ele>1167.593</ele>
      <time>2021-10-12T09:45:44Z</time>
    </trkpt>
    <trkpt lat="38.629498025" lon="34.893281031">
      <ele>1167.691</ele>
      <time>2021-10-12T09:45:46Z</time>
    </trkpt>
    <trkpt lat="38.629468018" lon="34.893303998">
      <ele>1167.827</ele>
      <time>2021-10-12T09:45:47Z</time>
    </trkpt>
    <trkpt lat="38.629440023" lon="34.893331993">
      <ele>1167.932</ele>
      <time>2021-10-12T09:45:48Z</time>
    </trkpt>
    <trkpt lat="38.629413033" lon="34.893354038">
      <ele>1167.407</ele>
      <time>2021-10-12T09:45:49Z</time>
    </trkpt>
    <trkpt lat="38.62938202" lon="34.893374993">
      <ele>1166.835</ele>
      <time>2021-10-12T09:45:51Z</time>
    </trkpt>
    <trkpt lat="38.629356036" lon="34.893397037">
      <ele>1166.341</ele>
      <time>2021-10-12T09:45:52Z</time>
    </trkpt>
    <trkpt lat="38.629324017" lon="34.893420003">
      <ele>1165.777</ele>
      <time>2021-10-12T09:45:53Z</time>
    </trkpt>
    <trkpt lat="38.629295016" lon="34.89344297">
      <ele>1165.271</ele>
      <time>2021-10-12T09:45:55Z</time>
    </trkpt>
    <trkpt lat="38.629266014" lon="34.893469959">
      <ele>1164.763</ele>
      <time>2021-10-12T09:45:56Z</time>
    </trkpt>
    <trkpt lat="38.629233995" lon="34.89349301">
      <ele>1164.255</ele>
      <time>2021-10-12T09:45:57Z</time>
    </trkpt>
    <trkpt lat="38.629203988" lon="34.893512037">
      <ele>1163.808</ele>
      <time>2021-10-12T09:45:58Z</time>
    </trkpt>
    <trkpt lat="38.629170964" lon="34.893528968">
      <ele>1163.347</ele>
      <time>2021-10-12T09:46:00Z</time>
    </trkpt>
    <trkpt lat="38.629136011" lon="34.893545983">
      <ele>1163.014</ele>
      <time>2021-10-12T09:46:01Z</time>
    </trkpt>
    <trkpt lat="38.62910198" lon="34.893559981">
      <ele>1162.718</ele>
      <time>2021-10-12T09:46:03Z</time>
    </trkpt>
    <trkpt lat="38.629066022" lon="34.893571967">
      <ele>1162.416</ele>
      <time>2021-10-12T09:46:04Z</time>
    </trkpt>
    <trkpt lat="38.629027968" lon="34.893579008">
      <ele>1162.117</ele>
      <time>2021-10-12T09:46:05Z</time>
    </trkpt>
    <trkpt lat="38.62899201" lon="34.893586971">
      <ele>1161.829</ele>
      <time>2021-10-12T09:46:07Z</time>
    </trkpt>
    <trkpt lat="38.628956974" lon="34.893598035">
      <ele>1161.537</ele>
      <time>2021-10-12T09:46:08Z</time>
    </trkpt>
    <trkpt lat="38.628921015" lon="34.893616978">
      <ele>1161.208</ele>
      <time>2021-10-12T09:46:09Z</time>
    </trkpt>
    <trkpt lat="38.628881034" lon="34.893638017">
      <ele>1160.824</ele>
      <time>2021-10-12T09:46:11Z</time>
    </trkpt>
    <trkpt lat="38.62884298" lon="34.893659977">
      <ele>1160.386</ele>
      <time>2021-10-12T09:46:13Z</time>
    </trkpt>
    <trkpt lat="38.628809033" lon="34.893685039">
      <ele>1160.024</ele>
      <time>2021-10-12T09:46:14Z</time>
    </trkpt>
    <trkpt lat="38.628781037" lon="34.893711023">
      <ele>1159.755</ele>
      <time>2021-10-12T09:46:15Z</time>
    </trkpt>
    <trkpt lat="38.628747007" lon="34.893738013">
      <ele>1159.478</ele>
      <time>2021-10-12T09:46:17Z</time>
    </trkpt>
    <trkpt lat="38.628714988" lon="34.893763997">
      <ele>1159.261</ele>
      <time>2021-10-12T09:46:18Z</time>
    </trkpt>
    <trkpt lat="38.628684981" lon="34.893786963">
      <ele>1159.094</ele>
      <time>2021-10-12T09:46:20Z</time>
    </trkpt>
    <trkpt lat="38.628649022" lon="34.893809007">
      <ele>1158.927</ele>
      <time>2021-10-12T09:46:21Z</time>
    </trkpt>
    <trkpt lat="38.62861298" lon="34.893825017">
      <ele>1158.78</ele>
      <time>2021-10-12T09:46:22Z</time>
    </trkpt>
    <trkpt lat="38.628580961" lon="34.89384396">
      <ele>1158.73</ele>
      <time>2021-10-12T09:46:24Z</time>
    </trkpt>
    <trkpt lat="38.628549026" lon="34.893861981">
      <ele>1158.68</ele>
      <time>2021-10-12T09:46:25Z</time>
    </trkpt>
    <trkpt lat="38.628511978" lon="34.893878996">
      <ele>1158.608</ele>
      <time>2021-10-12T09:46:26Z</time>
    </trkpt>
    <trkpt lat="38.628479037" lon="34.893890982">
      <ele>1158.528</ele>
      <time>2021-10-12T09:46:28Z</time>
    </trkpt>
    <trkpt lat="38.628450036" lon="34.893901041">
      <ele>1158.445</ele>
      <time>2021-10-12T09:46:29Z</time>
    </trkpt>
    <trkpt lat="38.628418017" lon="34.893912021">
      <ele>1158.363</ele>
      <time>2021-10-12T09:46:30Z</time>
    </trkpt>
    <trkpt lat="38.628387004" lon="34.893917972">
      <ele>1158.278</ele>
      <time>2021-10-12T09:46:31Z</time>
    </trkpt>
    <trkpt lat="38.628351968" lon="34.893929958">
      <ele>1158.205</ele>
      <time>2021-10-12T09:46:33Z</time>
    </trkpt>
    <trkpt lat="38.628313998" lon="34.89394404">
      <ele>1158.059</ele>
      <time>2021-10-12T09:46:34Z</time>
    </trkpt>
    <trkpt lat="38.628279967" lon="34.893960971">
      <ele>1157.875</ele>
      <time>2021-10-12T09:46:35Z</time>
    </trkpt>
    <trkpt lat="38.628253983" lon="34.893981004">
      <ele>1157.76</ele>
      <time>2021-10-12T09:46:36Z</time>
    </trkpt>
    <trkpt lat="38.628235962" lon="34.894007994">
      <ele>1157.728</ele>
      <time>2021-10-12T09:46:38Z</time>
    </trkpt>
    <trkpt lat="38.628220959" lon="34.894041019">
      <ele>1157.739</ele>
      <time>2021-10-12T09:46:39Z</time>
    </trkpt>
    <trkpt lat="38.628207967" lon="34.894074965">
      <ele>1157.767</ele>
      <time>2021-10-12T09:46:40Z</time>
    </trkpt>
    <trkpt lat="38.628203021" lon="34.894113019">
      <ele>1157.869</ele>
      <time>2021-10-12T09:46:41Z</time>
    </trkpt>
    <trkpt lat="38.628197992" lon="34.894153001">
      <ele>1157.976</ele>
      <time>2021-10-12T09:46:42Z</time>
    </trkpt>
    <trkpt lat="38.628197992" lon="34.894191977">
      <ele>1158.161</ele>
      <time>2021-10-12T09:46:43Z</time>
    </trkpt>
    <trkpt lat="38.628198998" lon="34.89423397">
      <ele>1158.392</ele>
      <time>2021-10-12T09:46:44Z</time>
    </trkpt>
    <trkpt lat="38.628190029" lon="34.894374032">
      <ele>1159.1</ele>
      <time>2021-10-12T09:46:48Z</time>
    </trkpt>
    <trkpt lat="38.628177037" lon="34.894418959">
      <ele>1159.294</ele>
      <time>2021-10-12T09:46:50Z</time>
    </trkpt>
    <trkpt lat="38.628152981" lon="34.894470004">
      <ele>1159.41</ele>
      <time>2021-10-12T09:46:52Z</time>
    </trkpt>
    <trkpt lat="38.628130015" lon="34.894515015">
      <ele>1159.454</ele>
      <time>2021-10-12T09:46:53Z</time>
    </trkpt>
    <trkpt lat="38.628102019" lon="34.894550974">
      <ele>1159.487</ele>
      <time>2021-10-12T09:46:55Z</time>
    </trkpt>
    <trkpt lat="38.628074024" lon="34.89458601">
      <ele>1159.542</ele>
      <time>2021-10-12T09:46:56Z</time>
    </trkpt>
    <trkpt lat="38.628043011" lon="34.894621968">
      <ele>1159.491</ele>
      <time>2021-10-12T09:46:58Z</time>
    </trkpt>
    <trkpt lat="38.628014009" lon="34.894657005">
      <ele>1159.237</ele>
      <time>2021-10-12T09:46:59Z</time>
    </trkpt>
    <trkpt lat="38.627984002" lon="34.894692041">
      <ele>1158.917</ele>
      <time>2021-10-12T09:47:01Z</time>
    </trkpt>
    <trkpt lat="38.627951983" lon="34.894727999">
      <ele>1158.467</ele>
      <time>2021-10-12T09:47:02Z</time>
    </trkpt>
    <trkpt lat="38.627924994" lon="34.894763036">
      <ele>1157.826</ele>
      <time>2021-10-12T09:47:04Z</time>
    </trkpt>
    <trkpt lat="38.627893981" lon="34.894802012">
      <ele>1157.099</ele>
      <time>2021-10-12T09:47:05Z</time>
    </trkpt>
    <trkpt lat="38.627866991" lon="34.894835036">
      <ele>1156.472</ele>
      <time>2021-10-12T09:47:07Z</time>
    </trkpt>
    <trkpt lat="38.627835978" lon="34.894875018">
      <ele>1155.738</ele>
      <time>2021-10-12T09:47:08Z</time>
    </trkpt>
    <trkpt lat="38.627806976" lon="34.894907037">
      <ele>1155.09</ele>
      <time>2021-10-12T09:47:10Z</time>
    </trkpt>
    <trkpt lat="38.62777303" lon="34.894937966">
      <ele>1154.392</ele>
      <time>2021-10-12T09:47:11Z</time>
    </trkpt>
    <trkpt lat="38.627743023" lon="34.894962022">
      <ele>1153.881</ele>
      <time>2021-10-12T09:47:12Z</time>
    </trkpt>
    <trkpt lat="38.627712009" lon="34.894988006">
      <ele>1153.366</ele>
      <time>2021-10-12T09:47:14Z</time>
    </trkpt>
    <trkpt lat="38.627675967" lon="34.895010972">
      <ele>1152.875</ele>
      <time>2021-10-12T09:47:15Z</time>
    </trkpt>
    <trkpt lat="38.627640009" lon="34.895031005">
      <ele>1152.456</ele>
      <time>2021-10-12T09:47:17Z</time>
    </trkpt>
    <trkpt lat="38.627603967" lon="34.895047015">
      <ele>1152.059</ele>
      <time>2021-10-12T09:47:18Z</time>
    </trkpt>
    <trkpt lat="38.627568008" lon="34.895057995">
      <ele>1151.683</ele>
      <time>2021-10-12T09:47:20Z</time>
    </trkpt>
    <trkpt lat="38.627531966" lon="34.895069981">
      <ele>1151.316</ele>
      <time>2021-10-12T09:47:21Z</time>
    </trkpt>
    <trkpt lat="38.627498019" lon="34.895092025">
      <ele>1150.979</ele>
      <time>2021-10-12T09:47:22Z</time>
    </trkpt>
    <trkpt lat="38.627470024" lon="34.895119015">
      <ele>1150.676</ele>
      <time>2021-10-12T09:47:24Z</time>
    </trkpt>
    <trkpt lat="38.627442028" lon="34.895153968">
      <ele>1150.374</ele>
      <time>2021-10-12T09:47:25Z</time>
    </trkpt>
    <trkpt lat="38.627415039" lon="34.895189004">
      <ele>1150.082</ele>
      <time>2021-10-12T09:47:27Z</time>
    </trkpt>
    <trkpt lat="38.627386037" lon="34.895222029">
      <ele>1149.769</ele>
      <time>2021-10-12T09:47:28Z</time>
    </trkpt>
    <trkpt lat="38.62735603" lon="34.895249018">
      <ele>1149.445</ele>
      <time>2021-10-12T09:47:29Z</time>
    </trkpt>
    <trkpt lat="38.627323005" lon="34.895270979">
      <ele>1149.088</ele>
      <time>2021-10-12T09:47:31Z</time>
    </trkpt>
    <trkpt lat="38.627288975" lon="34.895295035">
      <ele>1148.83</ele>
      <time>2021-10-12T09:47:32Z</time>
    </trkpt>
    <trkpt lat="38.627247987" lon="34.895320013">
      <ele>1148.568</ele>
      <time>2021-10-12T09:47:34Z</time>
    </trkpt>
    <trkpt lat="38.627212029" lon="34.895340968">
      <ele>1148.353</ele>
      <time>2021-10-12T09:47:35Z</time>
    </trkpt>
    <trkpt lat="38.627177998" lon="34.89536603">
      <ele>1148.208</ele>
      <time>2021-10-12T09:47:37Z</time>
    </trkpt>
    <trkpt lat="38.62714204" lon="34.895386985">
      <ele>1148.034</ele>
      <time>2021-10-12T09:47:38Z</time>
    </trkpt>
    <trkpt lat="38.627104992" lon="34.895402994">
      <ele>1147.826</ele>
      <time>2021-10-12T09:47:40Z</time>
    </trkpt>
    <trkpt lat="38.627067022" lon="34.895415986">
      <ele>1147.597</ele>
      <time>2021-10-12T09:47:41Z</time>
    </trkpt>
    <trkpt lat="38.627028968" lon="34.89542596">
      <ele>1147.351</ele>
      <time>2021-10-12T09:47:43Z</time>
    </trkpt>
    <trkpt lat="38.626989992" lon="34.895431995">
      <ele>1147.066</ele>
      <time>2021-10-12T09:47:44Z</time>
    </trkpt>
    <trkpt lat="38.626954034" lon="34.895439036">
      <ele>1146.825</ele>
      <time>2021-10-12T09:47:45Z</time>
    </trkpt>
    <trkpt lat="38.626916986" lon="34.895445993">
      <ele>1146.619</ele>
      <time>2021-10-12T09:47:47Z</time>
    </trkpt>
    <trkpt lat="38.626881028" lon="34.895457979">
      <ele>1146.49</ele>
      <time>2021-10-12T09:47:48Z</time>
    </trkpt>
    <trkpt lat="38.626845991" lon="34.895477006">
      <ele>1146.443</ele>
      <time>2021-10-12T09:47:50Z</time>
    </trkpt>
    <trkpt lat="38.626812967" lon="34.895500978">
      <ele>1146.464</ele>
      <time>2021-10-12T09:47:51Z</time>
    </trkpt>
    <trkpt lat="38.626774997" lon="34.89552998">
      <ele>1146.504</ele>
      <time>2021-10-12T09:47:53Z</time>
    </trkpt>
    <trkpt lat="38.626740966" lon="34.895554036">
      <ele>1146.519</ele>
      <time>2021-10-12T09:47:54Z</time>
    </trkpt>
    <trkpt lat="38.626711965" lon="34.89558002">
      <ele>1146.414</ele>
      <time>2021-10-12T09:47:55Z</time>
    </trkpt>
    <trkpt lat="38.626678018" lon="34.895600975">
      <ele>1146.245</ele>
      <time>2021-10-12T09:47:57Z</time>
    </trkpt>
    <trkpt lat="38.626648011" lon="34.895621007">
      <ele>1145.967</ele>
      <time>2021-10-12T09:47:58Z</time>
    </trkpt>
    <trkpt lat="38.626615992" lon="34.895645985">
      <ele>1145.596</ele>
      <time>2021-10-12T09:47:59Z</time>
    </trkpt>
    <trkpt lat="38.626583973" lon="34.895670041">
      <ele>1145.221</ele>
      <time>2021-10-12T09:48:01Z</time>
    </trkpt>
    <trkpt lat="38.626552038" lon="34.89569502">
      <ele>1144.851</ele>
      <time>2021-10-12T09:48:02Z</time>
    </trkpt>
    <trkpt lat="38.626522031" lon="34.895714968">
      <ele>1144.491</ele>
      <time>2021-10-12T09:48:03Z</time>
    </trkpt>
    <trkpt lat="38.626489006" lon="34.895729972">
      <ele>1144.07</ele>
      <time>2021-10-12T09:48:05Z</time>
    </trkpt>
    <trkpt lat="38.626451036" lon="34.895738019">
      <ele>1143.552</ele>
      <time>2021-10-12T09:48:06Z</time>
    </trkpt>
    <trkpt lat="38.62641097" lon="34.895741036">
      <ele>1142.986</ele>
      <time>2021-10-12T09:48:08Z</time>
    </trkpt>
    <trkpt lat="38.626370989" lon="34.895729972">
      <ele>1142.313</ele>
      <time>2021-10-12T09:48:09Z</time>
    </trkpt>
    <trkpt lat="38.62633503" lon="34.895713963">
      <ele>1141.657</ele>
      <time>2021-10-12T09:48:11Z</time>
    </trkpt>
    <trkpt lat="38.62626303" lon="34.895669036">
      <ele>1140.494</ele>
      <time>2021-10-12T09:48:13Z</time>
    </trkpt>
    <trkpt lat="38.62622397" lon="34.89564498">
      <ele>1139.967</ele>
      <time>2021-10-12T09:48:15Z</time>
    </trkpt>
    <trkpt lat="38.626190023" lon="34.895620001">
      <ele>1139.586</ele>
      <time>2021-10-12T09:48:17Z</time>
    </trkpt>
    <trkpt lat="38.626152975" lon="34.895594018">
      <ele>1139.238</ele>
      <time>2021-10-12T09:48:18Z</time>
    </trkpt>
    <trkpt lat="38.626086004" lon="34.895543978">
      <ele>1138.725</ele>
      <time>2021-10-12T09:48:21Z</time>
    </trkpt>
    <trkpt lat="38.626055997" lon="34.895517994">
      <ele>1138.378</ele>
      <time>2021-10-12T09:48:22Z</time>
    </trkpt>
    <trkpt lat="38.62602599" lon="34.895496033">
      <ele>1138.015</ele>
      <time>2021-10-12T09:48:24Z</time>
    </trkpt>
    <trkpt lat="38.625996988" lon="34.895476">
      <ele>1137.65</ele>
      <time>2021-10-12T09:48:25Z</time>
    </trkpt>
    <trkpt lat="38.625967987" lon="34.895463008">
      <ele>1137.283</ele>
      <time>2021-10-12T09:48:26Z</time>
    </trkpt>
    <trkpt lat="38.625934962" lon="34.895455968">
      <ele>1136.87</ele>
      <time>2021-10-12T09:48:27Z</time>
    </trkpt>
    <trkpt lat="38.625890035" lon="34.895455968">
      <ele>1136.327</ele>
      <time>2021-10-12T09:48:29Z</time>
    </trkpt>
    <trkpt lat="38.625845024" lon="34.895460997">
      <ele>1135.8</ele>
      <time>2021-10-12T09:48:31Z</time>
    </trkpt>
    <trkpt lat="38.625804037" lon="34.895462003">
      <ele>1135.277</ele>
      <time>2021-10-12T09:48:32Z</time>
    </trkpt>
    <trkpt lat="38.625764977" lon="34.895458985">
      <ele>1134.754</ele>
      <time>2021-10-12T09:48:33Z</time>
    </trkpt>
    <trkpt lat="38.625728013" lon="34.895455968">
      <ele>1134.261</ele>
      <time>2021-10-12T09:48:35Z</time>
    </trkpt>
    <trkpt lat="38.625689959" lon="34.89545404">
      <ele>1133.759</ele>
      <time>2021-10-12T09:48:36Z</time>
    </trkpt>
    <trkpt lat="38.625655007" lon="34.895454962">
      <ele>1133.302</ele>
      <time>2021-10-12T09:48:38Z</time>
    </trkpt>
    <trkpt lat="38.625617037" lon="34.895453034">
      <ele>1132.804</ele>
      <time>2021-10-12T09:48:39Z</time>
    </trkpt>
    <trkpt lat="38.625578983" lon="34.895446999">
      <ele>1132.304</ele>
      <time>2021-10-12T09:48:40Z</time>
    </trkpt>
    <trkpt lat="38.625540007" lon="34.895437025">
      <ele>1131.832</ele>
      <time>2021-10-12T09:48:42Z</time>
    </trkpt>
    <trkpt lat="38.625504971" lon="34.895411963">
      <ele>1131.454</ele>
      <time>2021-10-12T09:48:43Z</time>
    </trkpt>
    <trkpt lat="38.625476975" lon="34.895381033">
      <ele>1131.151</ele>
      <time>2021-10-12T09:48:45Z</time>
    </trkpt>
    <trkpt lat="38.625454009" lon="34.89533904">
      <ele>1130.903</ele>
      <time>2021-10-12T09:48:46Z</time>
    </trkpt>
    <trkpt lat="38.625402963" lon="34.895219011">
      <ele>1130.468</ele>
      <time>2021-10-12T09:48:50Z</time>
    </trkpt>
    <trkpt lat="38.625378991" lon="34.895180035">
      <ele>1130.317</ele>
      <time>2021-10-12T09:48:52Z</time>
    </trkpt>
    <trkpt lat="38.625355018" lon="34.89515204">
      <ele>1130.161</ele>
      <time>2021-10-12T09:48:53Z</time>
    </trkpt>
    <trkpt lat="38.625328029" lon="34.89512396">
      <ele>1129.996</ele>
      <time>2021-10-12T09:48:54Z</time>
    </trkpt>
    <trkpt lat="38.625302967" lon="34.89509102">
      <ele>1129.883</ele>
      <time>2021-10-12T09:48:55Z</time>
    </trkpt>
    <trkpt lat="38.625277989" lon="34.89505196">
      <ele>1129.815</ele>
      <time>2021-10-12T09:48:57Z</time>
    </trkpt>
    <trkpt lat="38.625255022" lon="34.895014996">
      <ele>1129.773</ele>
      <time>2021-10-12T09:48:58Z</time>
    </trkpt>
    <trkpt lat="38.625229038" lon="34.894987">
      <ele>1129.657</ele>
      <time>2021-10-12T09:49:00Z</time>
    </trkpt>
    <trkpt lat="38.625200037" lon="34.894954981">
      <ele>1129.486</ele>
      <time>2021-10-12T09:49:01Z</time>
    </trkpt>
    <trkpt lat="38.625167012" lon="34.894927992">
      <ele>1129.306</ele>
      <time>2021-10-12T09:49:02Z</time>
    </trkpt>
    <trkpt lat="38.625132982" lon="34.894903013">
      <ele>1129.139</ele>
      <time>2021-10-12T09:49:04Z</time>
    </trkpt>
    <trkpt lat="38.625098029" lon="34.894879041">
      <ele>1128.988</ele>
      <time>2021-10-12T09:49:05Z</time>
    </trkpt>
    <trkpt lat="38.625062993" lon="34.894848028">
      <ele>1128.877</ele>
      <time>2021-10-12T09:49:07Z</time>
    </trkpt>
    <trkpt lat="38.625028962" lon="34.894820033">
      <ele>1128.789</ele>
      <time>2021-10-12T09:49:08Z</time>
    </trkpt>
    <trkpt lat="38.624997027" lon="34.894794971">
      <ele>1128.722</ele>
      <time>2021-10-12T09:49:10Z</time>
    </trkpt>
    <trkpt lat="38.62496702" lon="34.894770999">
      <ele>1128.664</ele>
      <time>2021-10-12T09:49:11Z</time>
    </trkpt>
    <trkpt lat="38.624931984" lon="34.894749038">
      <ele>1128.611</ele>
      <time>2021-10-12T09:49:13Z</time>
    </trkpt>
    <trkpt lat="38.624895019" lon="34.894732023">
      <ele>1128.56</ele>
      <time>2021-10-12T09:49:14Z</time>
    </trkpt>
    <trkpt lat="38.624860989" lon="34.894708972">
      <ele>1128.5</ele>
      <time>2021-10-12T09:49:15Z</time>
    </trkpt>
    <trkpt lat="38.624827964" lon="34.894682989">
      <ele>1128.414</ele>
      <time>2021-10-12T09:49:17Z</time>
    </trkpt>
    <trkpt lat="38.624767028" lon="34.894615011">
      <ele>1128.423</ele>
      <time>2021-10-12T09:49:20Z</time>
    </trkpt>
    <trkpt lat="38.624741966" lon="34.894583998">
      <ele>1128.498</ele>
      <time>2021-10-12T09:49:21Z</time>
    </trkpt>
    <trkpt lat="38.62471397" lon="34.894551979">
      <ele>1128.638</ele>
      <time>2021-10-12T09:49:23Z</time>
    </trkpt>
    <trkpt lat="38.62464197" lon="34.894464975">
      <ele>1129.44</ele>
      <time>2021-10-12T09:49:26Z</time>
    </trkpt>
    <trkpt lat="38.624623027" lon="34.894431029">
      <ele>1129.714</ele>
      <time>2021-10-12T09:49:27Z</time>
    </trkpt>
    <trkpt lat="38.624604" lon="34.894404039">
      <ele>1129.851</ele>
      <time>2021-10-12T09:49:28Z</time>
    </trkpt>
    <trkpt lat="38.624543985" lon="34.894302031">
      <ele>1130.283</ele>
      <time>2021-10-12T09:49:32Z</time>
    </trkpt>
    <trkpt lat="38.62447802" lon="34.894220978">
      <ele>1130.758</ele>
      <time>2021-10-12T09:49:36Z</time>
    </trkpt>
    <trkpt lat="38.624456981" lon="34.894191977">
      <ele>1130.91</ele>
      <time>2021-10-12T09:49:37Z</time>
    </trkpt>
    <trkpt lat="38.624439966" lon="34.894157024">
      <ele>1130.934</ele>
      <time>2021-10-12T09:49:38Z</time>
    </trkpt>
    <trkpt lat="38.624423034" lon="34.894114025">
      <ele>1130.671</ele>
      <time>2021-10-12T09:49:39Z</time>
    </trkpt>
    <trkpt lat="38.624409959" lon="34.894068008">
      <ele>1130.441</ele>
      <time>2021-10-12T09:49:41Z</time>
    </trkpt>
    <trkpt lat="38.624389004" lon="34.894031966">
      <ele>1130.213</ele>
      <time>2021-10-12T09:49:42Z</time>
    </trkpt>
    <trkpt lat="38.624314992" lon="34.893984022">
      <ele>1129.717</ele>
      <time>2021-10-12T09:49:45Z</time>
    </trkpt>
    <trkpt lat="38.624280961" lon="34.893963989">
      <ele>1129.523</ele>
      <time>2021-10-12T09:49:46Z</time>
    </trkpt>
    <trkpt lat="38.624247015" lon="34.89394404">
      <ele>1129.347</ele>
      <time>2021-10-12T09:49:48Z</time>
    </trkpt>
    <trkpt lat="38.624156993" lon="34.893900035">
      <ele>1128.826</ele>
      <time>2021-10-12T09:49:51Z</time>
    </trkpt>
    <trkpt lat="38.624101002" lon="34.893852007">
      <ele>1127.615</ele>
      <time>2021-10-12T09:49:54Z</time>
    </trkpt>
    <trkpt lat="38.624006035" lon="34.893808002">
      <ele>1125.863</ele>
      <time>2021-10-12T09:49:58Z</time>
    </trkpt>
    <trkpt lat="38.623977033" lon="34.893810013">
      <ele>1125.406</ele>
      <time>2021-10-12T09:49:59Z</time>
    </trkpt>
    <trkpt lat="38.623947026" lon="34.893823005">
      <ele>1124.947</ele>
      <time>2021-10-12T09:50:00Z</time>
    </trkpt>
    <trkpt lat="38.623921964" lon="34.893838009">
      <ele>1124.552</ele>
      <time>2021-10-12T09:50:01Z</time>
    </trkpt>
    <trkpt lat="38.62389598" lon="34.89385603">
      <ele>1124.122</ele>
      <time>2021-10-12T09:50:02Z</time>
    </trkpt>
    <trkpt lat="38.623865973" lon="34.893872039">
      <ele>1123.753</ele>
      <time>2021-10-12T09:50:03Z</time>
    </trkpt>
    <trkpt lat="38.623835966" lon="34.893889977">
      <ele>1123.429</ele>
      <time>2021-10-12T09:50:04Z</time>
    </trkpt>
    <trkpt lat="38.623804031" lon="34.893899029">
      <ele>1123.095</ele>
      <time>2021-10-12T09:50:06Z</time>
    </trkpt>
    <trkpt lat="38.623765977" lon="34.893900035">
      <ele>1122.69</ele>
      <time>2021-10-12T09:50:07Z</time>
    </trkpt>
    <trkpt lat="38.623731025" lon="34.893909004">
      <ele>1122.336</ele>
      <time>2021-10-12T09:50:08Z</time>
    </trkpt>
    <trkpt lat="38.623703029" lon="34.893932976">
      <ele>1122.099</ele>
      <time>2021-10-12T09:50:10Z</time>
    </trkpt>
    <trkpt lat="38.623676961" lon="34.893953009">
      <ele>1121.887</ele>
      <time>2021-10-12T09:50:11Z</time>
    </trkpt>
    <trkpt lat="38.623646032" lon="34.893946974">
      <ele>1121.56</ele>
      <time>2021-10-12T09:50:12Z</time>
    </trkpt>
    <trkpt lat="38.623618037" lon="34.89393197">
      <ele>1121.226</ele>
      <time>2021-10-12T09:50:13Z</time>
    </trkpt>
    <trkpt lat="38.623590963" lon="34.893927025">
      <ele>1120.92</ele>
      <time>2021-10-12T09:50:14Z</time>
    </trkpt>
    <trkpt lat="38.623560034" lon="34.893929958">
      <ele>1120.596</ele>
      <time>2021-10-12T09:50:15Z</time>
    </trkpt>
    <trkpt lat="38.623530027" lon="34.893925013">
      <ele>1120.254</ele>
      <time>2021-10-12T09:50:16Z</time>
    </trkpt>
    <trkpt lat="38.623500019" lon="34.893907998">
      <ele>1119.869</ele>
      <time>2021-10-12T09:50:18Z</time>
    </trkpt>
    <trkpt lat="38.623474035" lon="34.893898023">
      <ele>1119.552</ele>
      <time>2021-10-12T09:50:19Z</time>
    </trkpt>
    <trkpt lat="38.623449979" lon="34.893899029">
      <ele>1119.296</ele>
      <time>2021-10-12T09:50:19Z</time>
    </trkpt>
    <trkpt lat="38.623425001" lon="34.893907998">
      <ele>1119.059</ele>
      <time>2021-10-12T09:50:20Z</time>
    </trkpt>
    <trkpt lat="38.623399017" lon="34.89390498">
      <ele>1118.767</ele>
      <time>2021-10-12T09:50:21Z</time>
    </trkpt>
    <trkpt lat="38.623378985" lon="34.893877991">
      <ele>1118.46</ele>
      <time>2021-10-12T09:50:22Z</time>
    </trkpt>
    <trkpt lat="38.62335803" lon="34.893840021">
      <ele>1118.106</ele>
      <time>2021-10-12T09:50:24Z</time>
    </trkpt>
    <trkpt lat="38.623331962" lon="34.893809007">
      <ele>1117.691</ele>
      <time>2021-10-12T09:50:25Z</time>
    </trkpt>
    <trkpt lat="38.623265997" lon="34.893749999">
      <ele>1116.409</ele>
      <time>2021-10-12T09:50:28Z</time>
    </trkpt>
    <trkpt lat="38.623163989" lon="34.893681016">
      <ele>1114.357</ele>
      <time>2021-10-12T09:50:32Z</time>
    </trkpt>
    <trkpt lat="38.623129958" lon="34.893659977">
      <ele>1113.644</ele>
      <time>2021-10-12T09:50:34Z</time>
    </trkpt>
    <trkpt lat="38.623098023" lon="34.893643968">
      <ele>1112.983</ele>
      <time>2021-10-12T09:50:35Z</time>
    </trkpt>
    <trkpt lat="38.623061981" lon="34.893625025">
      <ele>1112.215</ele>
      <time>2021-10-12T09:50:36Z</time>
    </trkpt>
    <trkpt lat="38.62302904" lon="34.893608009">
      <ele>1111.808</ele>
      <time>2021-10-12T09:50:38Z</time>
    </trkpt>
    <trkpt lat="38.62299501" lon="34.893594012">
      <ele>1111.551</ele>
      <time>2021-10-12T09:50:39Z</time>
    </trkpt>
    <trkpt lat="38.622963997" lon="34.893582026">
      <ele>1111.306</ele>
      <time>2021-10-12T09:50:40Z</time>
    </trkpt>
    <trkpt lat="38.622927032" lon="34.893576996">
      <ele>1111.018</ele>
      <time>2021-10-12T09:50:42Z</time>
    </trkpt>
    <trkpt lat="38.622891996" lon="34.893575991">
      <ele>1110.748</ele>
      <time>2021-10-12T09:50:43Z</time>
    </trkpt>
    <trkpt lat="38.622858971" lon="34.893570039">
      <ele>1110.48</ele>
      <time>2021-10-12T09:50:44Z</time>
    </trkpt>
    <trkpt lat="38.622830976" lon="34.893568028">
      <ele>1110.258</ele>
      <time>2021-10-12T09:50:45Z</time>
    </trkpt>
    <trkpt lat="38.622804992" lon="34.893570039">
      <ele>1110.063</ele>
      <time>2021-10-12T09:50:46Z</time>
    </trkpt>
    <trkpt lat="38.622779008" lon="34.893566016">
      <ele>1109.847</ele>
      <time>2021-10-12T09:50:47Z</time>
    </trkpt>
    <trkpt lat="38.622745983" lon="34.893560987">
      <ele>1109.611</ele>
      <time>2021-10-12T09:50:48Z</time>
    </trkpt>
    <trkpt lat="38.622712959" lon="34.89355403">
      <ele>1109.376</ele>
      <time>2021-10-12T09:50:50Z</time>
    </trkpt>
    <trkpt lat="38.622679012" lon="34.893543972">
      <ele>1109.133</ele>
      <time>2021-10-12T09:50:51Z</time>
    </trkpt>
    <trkpt lat="38.62264297" lon="34.893536009">
      <ele>1108.89</ele>
      <time>2021-10-12T09:50:52Z</time>
    </trkpt>
    <trkpt lat="38.622605" lon="34.893524023">
      <ele>1108.637</ele>
      <time>2021-10-12T09:50:54Z</time>
    </trkpt>
    <trkpt lat="38.622568035" lon="34.893511031">
      <ele>1108.402</ele>
      <time>2021-10-12T09:50:55Z</time>
    </trkpt>
    <trkpt lat="38.622531993" lon="34.893496027">
      <ele>1108.183</ele>
      <time>2021-10-12T09:50:57Z</time>
    </trkpt>
    <trkpt lat="38.622493017" lon="34.893477">
      <ele>1107.975</ele>
      <time>2021-10-12T09:50:58Z</time>
    </trkpt>
    <trkpt lat="38.622455969" lon="34.893460991">
      <ele>1107.841</ele>
      <time>2021-10-12T09:51:00Z</time>
    </trkpt>
    <trkpt lat="38.622421017" lon="34.893446993">
      <ele>1107.716</ele>
      <time>2021-10-12T09:51:01Z</time>
    </trkpt>
    <trkpt lat="38.622387992" lon="34.893429978">
      <ele>1107.597</ele>
      <time>2021-10-12T09:51:02Z</time>
    </trkpt>
    <trkpt lat="38.622350022" lon="34.893410029">
      <ele>1107.46</ele>
      <time>2021-10-12T09:51:04Z</time>
    </trkpt>
    <trkpt lat="38.622314986" lon="34.893399971">
      <ele>1107.334</ele>
      <time>2021-10-12T09:51:05Z</time>
    </trkpt>
    <trkpt lat="38.62227601" lon="34.893389996">
      <ele>1107.194</ele>
      <time>2021-10-12T09:51:07Z</time>
    </trkpt>
    <trkpt lat="38.622241979" lon="34.893377004">
      <ele>1107.071</ele>
      <time>2021-10-12T09:51:08Z</time>
    </trkpt>
    <trkpt lat="38.622211972" lon="34.893363006">
      <ele>1106.889</ele>
      <time>2021-10-12T09:51:09Z</time>
    </trkpt>
    <trkpt lat="38.622178026" lon="34.893341968">
      <ele>1106.523</ele>
      <time>2021-10-12T09:51:10Z</time>
    </trkpt>
    <trkpt lat="38.622151036" lon="34.893321013">
      <ele>1106.154</ele>
      <time>2021-10-12T09:51:12Z</time>
    </trkpt>
    <trkpt lat="38.622125974" lon="34.893292012">
      <ele>1105.715</ele>
      <time>2021-10-12T09:51:13Z</time>
    </trkpt>
    <trkpt lat="38.622098984" lon="34.893267034">
      <ele>1105.298</ele>
      <time>2021-10-12T09:51:14Z</time>
    </trkpt>
    <trkpt lat="38.622065959" lon="34.893249013">
      <ele>1104.876</ele>
      <time>2021-10-12T09:51:15Z</time>
    </trkpt>
    <trkpt lat="38.62203503" lon="34.893235015">
      <ele>1104.509</ele>
      <time>2021-10-12T09:51:17Z</time>
    </trkpt>
    <trkpt lat="38.622002006" lon="34.893214982">
      <ele>1104.107</ele>
      <time>2021-10-12T09:51:18Z</time>
    </trkpt>
    <trkpt lat="38.621975016" lon="34.893193021">
      <ele>1103.769</ele>
      <time>2021-10-12T09:51:19Z</time>
    </trkpt>
    <trkpt lat="38.621942997" lon="34.893169971">
      <ele>1103.401</ele>
      <time>2021-10-12T09:51:21Z</time>
    </trkpt>
    <trkpt lat="38.621907961" lon="34.893148011">
      <ele>1103.07</ele>
      <time>2021-10-12T09:51:22Z</time>
    </trkpt>
    <trkpt lat="38.621874014" lon="34.893126972">
      <ele>1102.75</ele>
      <time>2021-10-12T09:51:23Z</time>
    </trkpt>
    <trkpt lat="38.621841995" lon="34.893108029">
      <ele>1102.451</ele>
      <time>2021-10-12T09:51:25Z</time>
    </trkpt>
    <trkpt lat="38.621807965" lon="34.893083973">
      <ele>1102.12</ele>
      <time>2021-10-12T09:51:26Z</time>
    </trkpt>
    <trkpt lat="38.621778041" lon="34.893067041">
      <ele>1101.843</ele>
      <time>2021-10-12T09:51:27Z</time>
    </trkpt>
    <trkpt lat="38.621749962" lon="34.893043991">
      <ele>1101.629</ele>
      <time>2021-10-12T09:51:29Z</time>
    </trkpt>
    <trkpt lat="38.621720038" lon="34.893017001">
      <ele>1101.496</ele>
      <time>2021-10-12T09:51:30Z</time>
    </trkpt>
    <trkpt lat="38.621688019" lon="34.89299898">
      <ele>1101.342</ele>
      <time>2021-10-12T09:51:31Z</time>
    </trkpt>
    <trkpt lat="38.621657006" lon="34.893000992">
      <ele>1101.155</ele>
      <time>2021-10-12T09:51:32Z</time>
    </trkpt>
    <trkpt lat="38.621626999" lon="34.893007027">
      <ele>1101.007</ele>
      <time>2021-10-12T09:51:34Z</time>
    </trkpt>
    <trkpt lat="38.621593975" lon="34.893012978">
      <ele>1100.851</ele>
      <time>2021-10-12T09:51:35Z</time>
    </trkpt>
    <trkpt lat="38.621560028" lon="34.893013984">
      <ele>1100.708</ele>
      <time>2021-10-12T09:51:36Z</time>
    </trkpt>
    <trkpt lat="38.62152298" lon="34.893009039">
      <ele>1100.564</ele>
      <time>2021-10-12T09:51:37Z</time>
    </trkpt>
    <trkpt lat="38.621493978" lon="34.892999986">
      <ele>1100.454</ele>
      <time>2021-10-12T09:51:38Z</time>
    </trkpt>
    <trkpt lat="38.621460032" lon="34.892996969">
      <ele>1100.31</ele>
      <time>2021-10-12T09:51:40Z</time>
    </trkpt>
    <trkpt lat="38.621432036" lon="34.893003004">
      <ele>1100.185</ele>
      <time>2021-10-12T09:51:41Z</time>
    </trkpt>
    <trkpt lat="38.621400017" lon="34.893003004">
      <ele>1100.048</ele>
      <time>2021-10-12T09:51:42Z</time>
    </trkpt>
    <trkpt lat="38.621372022" lon="34.892990012">
      <ele>1099.893</ele>
      <time>2021-10-12T09:51:43Z</time>
    </trkpt>
    <trkpt lat="38.62134302" lon="34.892962016">
      <ele>1099.725</ele>
      <time>2021-10-12T09:51:44Z</time>
    </trkpt>
    <trkpt lat="38.621317958" lon="34.892913988">
      <ele>1099.619</ele>
      <time>2021-10-12T09:51:46Z</time>
    </trkpt>
    <trkpt lat="38.621289963" lon="34.892869983">
      <ele>1099.526</ele>
      <time>2021-10-12T09:51:48Z</time>
    </trkpt>
    <trkpt lat="38.621261967" lon="34.892832013">
      <ele>1099.454</ele>
      <time>2021-10-12T09:51:49Z</time>
    </trkpt>
    <trkpt lat="38.621169012" lon="34.892738974">
      <ele>1099.098</ele>
      <time>2021-10-12T09:51:54Z</time>
    </trkpt>
    <trkpt lat="38.62107899" lon="34.892641995">
      <ele>1098.627</ele>
      <time>2021-10-12T09:51:58Z</time>
    </trkpt>
    <trkpt lat="38.621035991" lon="34.892518027">
      <ele>1098.335</ele>
      <time>2021-10-12T09:52:02Z</time>
    </trkpt>
    <trkpt lat="38.621007996" lon="34.89239498">
      <ele>1098.371</ele>
      <time>2021-10-12T09:52:06Z</time>
    </trkpt>
    <trkpt lat="38.620993998" lon="34.892260032">
      <ele>1098.422</ele>
      <time>2021-10-12T09:52:10Z</time>
    </trkpt>
    <trkpt lat="38.62098" lon="34.892134974">
      <ele>1098.49</ele>
      <time>2021-10-12T09:52:13Z</time>
    </trkpt>
    <trkpt lat="38.620984023" lon="34.89201704">
      <ele>1098.52</ele>
      <time>2021-10-12T09:52:17Z</time>
    </trkpt>
    <trkpt lat="38.62099098" lon="34.891867004">
      <ele>1098.846</ele>
      <time>2021-10-12T09:52:21Z</time>
    </trkpt>
    <trkpt lat="38.621055018" lon="34.891752005">
      <ele>1099.491</ele>
      <time>2021-10-12T09:52:25Z</time>
    </trkpt>
    <trkpt lat="38.621083014" lon="34.891716968">
      <ele>1099.718</ele>
      <time>2021-10-12T09:52:27Z</time>
    </trkpt>
    <trkpt lat="38.62110598" lon="34.891686039">
      <ele>1099.912</ele>
      <time>2021-10-12T09:52:28Z</time>
    </trkpt>
    <trkpt lat="38.621130958" lon="34.891652009">
      <ele>1100.192</ele>
      <time>2021-10-12T09:52:29Z</time>
    </trkpt>
    <trkpt lat="38.621205976" lon="34.891562993">
      <ele>1100.929</ele>
      <time>2021-10-12T09:52:33Z</time>
    </trkpt>
    <trkpt lat="38.621259034" lon="34.891507002">
      <ele>1101.334</ele>
      <time>2021-10-12T09:52:36Z</time>
    </trkpt>
    <trkpt lat="38.621285018" lon="34.891478">
      <ele>1101.506</ele>
      <time>2021-10-12T09:52:37Z</time>
    </trkpt>
    <trkpt lat="38.621327011" lon="34.891411029">
      <ele>1101.759</ele>
      <time>2021-10-12T09:52:39Z</time>
    </trkpt>
    <trkpt lat="38.621347966" lon="34.891373981">
      <ele>1101.914</ele>
      <time>2021-10-12T09:52:41Z</time>
    </trkpt>
    <trkpt lat="38.621372022" lon="34.891344979">
      <ele>1102.107</ele>
      <time>2021-10-12T09:52:42Z</time>
    </trkpt>
    <trkpt lat="38.621398006" lon="34.891313966">
      <ele>1102.359</ele>
      <time>2021-10-12T09:52:43Z</time>
    </trkpt>
    <trkpt lat="38.621426001" lon="34.891284965">
      <ele>1102.725</ele>
      <time>2021-10-12T09:52:45Z</time>
    </trkpt>
    <trkpt lat="38.621455003" lon="34.891256969">
      <ele>1103.076</ele>
      <time>2021-10-12T09:52:46Z</time>
    </trkpt>
    <trkpt lat="38.621504959" lon="34.891197039">
      <ele>1103.656</ele>
      <time>2021-10-12T09:52:48Z</time>
    </trkpt>
    <trkpt lat="38.621523986" lon="34.891168037">
      <ele>1103.867</ele>
      <time>2021-10-12T09:52:49Z</time>
    </trkpt>
    <trkpt lat="38.621579977" lon="34.891070975">
      <ele>1104.276</ele>
      <time>2021-10-12T09:52:53Z</time>
    </trkpt>
    <trkpt lat="38.62164502" lon="34.890990006">
      <ele>1104.442</ele>
      <time>2021-10-12T09:52:56Z</time>
    </trkpt>
    <trkpt lat="38.62172599" lon="34.890905013">
      <ele>1104.527</ele>
      <time>2021-10-12T09:53:00Z</time>
    </trkpt>
    <trkpt lat="38.621819029" lon="34.890848016">
      <ele>1104.63</ele>
      <time>2021-10-12T09:53:04Z</time>
    </trkpt>
    <trkpt lat="38.621850042" lon="34.890824966">
      <ele>1104.62</ele>
      <time>2021-10-12T09:53:05Z</time>
    </trkpt>
    <trkpt lat="38.621913996" lon="34.890743997">
      <ele>1104.318</ele>
      <time>2021-10-12T09:53:09Z</time>
    </trkpt>
    <trkpt lat="38.621980967" lon="34.890620029">
      <ele>1103.495</ele>
      <time>2021-10-12T09:53:13Z</time>
    </trkpt>
    <trkpt lat="38.622018015" lon="34.890488014">
      <ele>1102.514</ele>
      <time>2021-10-12T09:53:17Z</time>
    </trkpt>
    <trkpt lat="38.622063026" lon="34.89035097">
      <ele>1101.527</ele>
      <time>2021-10-12T09:53:21Z</time>
    </trkpt>
    <trkpt lat="38.622070989" lon="34.890214009">
      <ele>1101.0</ele>
      <time>2021-10-12T09:53:25Z</time>
    </trkpt>
    <trkpt lat="38.622057997" lon="34.890070008">
      <ele>1101.0</ele>
      <time>2021-10-12T09:53:30Z</time>
    </trkpt>
    <trkpt lat="38.622047016" lon="34.889937993">
      <ele>1101.141</ele>
      <time>2021-10-12T09:53:34Z</time>
    </trkpt>
    <trkpt lat="38.62203897" lon="34.889806984">
      <ele>1101.458</ele>
      <time>2021-10-12T09:53:37Z</time>
    </trkpt>
    <trkpt lat="38.622054979" lon="34.889686033">
      <ele>1101.759</ele>
      <time>2021-10-12T09:53:41Z</time>
    </trkpt>
    <trkpt lat="38.62208901" lon="34.889570028">
      <ele>1102.005</ele>
      <time>2021-10-12T09:53:44Z</time>
    </trkpt>
    <trkpt lat="38.622127986" lon="34.889460979">
      <ele>1101.977</ele>
      <time>2021-10-12T09:53:48Z</time>
    </trkpt>
    <trkpt lat="38.622172996" lon="34.889331982">
      <ele>1102.008</ele>
      <time>2021-10-12T09:53:52Z</time>
    </trkpt>
    <trkpt lat="38.622184983" lon="34.889198961">
      <ele>1102.404</ele>
      <time>2021-10-12T09:53:56Z</time>
    </trkpt>
    <trkpt lat="38.622176014" lon="34.889052026">
      <ele>1103.835</ele>
      <time>2021-10-12T09:54:00Z</time>
    </trkpt>
    <trkpt lat="38.622180959" lon="34.889001986">
      <ele>1104.285</ele>
      <time>2021-10-12T09:54:02Z</time>
    </trkpt>
    <trkpt lat="38.622179031" lon="34.888950018">
      <ele>1104.84</ele>
      <time>2021-10-12T09:54:03Z</time>
    </trkpt>
    <trkpt lat="38.622213984" lon="34.888803">
      <ele>1105.407</ele>
      <time>2021-10-12T09:54:08Z</time>
    </trkpt>
    <trkpt lat="38.622262012" lon="34.888692023">
      <ele>1105.667</ele>
      <time>2021-10-12T09:54:11Z</time>
    </trkpt>
    <trkpt lat="38.622321021" lon="34.88859999">
      <ele>1106.026</ele>
      <time>2021-10-12T09:54:15Z</time>
    </trkpt>
    <trkpt lat="38.62239101" lon="34.888482979">
      <ele>1106.181</ele>
      <time>2021-10-12T09:54:19Z</time>
    </trkpt>
    <trkpt lat="38.622464016" lon="34.888388012">
      <ele>1106.104</ele>
      <time>2021-10-12T09:54:23Z</time>
    </trkpt>
    <trkpt lat="38.62254004" lon="34.888293967">
      <ele>1106.144</ele>
      <time>2021-10-12T09:54:27Z</time>
    </trkpt>
    <trkpt lat="38.622607011" lon="34.888176033">
      <ele>1106.385</ele>
      <time>2021-10-12T09:54:31Z</time>
    </trkpt>
    <trkpt lat="38.622657973" lon="34.888051981">
      <ele>1106.58</ele>
      <time>2021-10-12T09:54:35Z</time>
    </trkpt>
    <trkpt lat="38.622701978" lon="34.887938993">
      <ele>1106.956</ele>
      <time>2021-10-12T09:54:39Z</time>
    </trkpt>
    <trkpt lat="38.622743972" lon="34.887815025">
      <ele>1107.089</ele>
      <time>2021-10-12T09:54:43Z</time>
    </trkpt>
    <trkpt lat="38.622772973" lon="34.887679992">
      <ele>1107.721</ele>
      <time>2021-10-12T09:54:47Z</time>
    </trkpt>
    <trkpt lat="38.622808009" lon="34.88754102">
      <ele>1108.737</ele>
      <time>2021-10-12T09:54:51Z</time>
    </trkpt>
    <trkpt lat="38.622838017" lon="34.887411017">
      <ele>1109.32</ele>
      <time>2021-10-12T09:54:55Z</time>
    </trkpt>
    <trkpt lat="38.622855032" lon="34.887291994">
      <ele>1109.749</ele>
      <time>2021-10-12T09:54:58Z</time>
    </trkpt>
    <trkpt lat="38.622845979" lon="34.887150005">
      <ele>1110.456</ele>
      <time>2021-10-12T09:55:03Z</time>
    </trkpt>
    <trkpt lat="38.622850003" lon="34.887031987">
      <ele>1111.192</ele>
      <time>2021-10-12T09:55:06Z</time>
    </trkpt>
    <trkpt lat="38.622844974" lon="34.886914976">
      <ele>1111.839</ele>
      <time>2021-10-12T09:55:09Z</time>
    </trkpt>
    <trkpt lat="38.622871041" lon="34.886780027">
      <ele>1112.057</ele>
      <time>2021-10-12T09:55:13Z</time>
    </trkpt>
    <trkpt lat="38.62292896" lon="34.886686988">
      <ele>1111.878</ele>
      <time>2021-10-12T09:55:17Z</time>
    </trkpt>
    <trkpt lat="38.622972965" lon="34.886554973">
      <ele>1111.432</ele>
      <time>2021-10-12T09:55:21Z</time>
    </trkpt>
    <trkpt lat="38.623025017" lon="34.886420025">
      <ele>1110.527</ele>
      <time>2021-10-12T09:55:25Z</time>
    </trkpt>
    <trkpt lat="38.623086037" lon="34.886310976">
      <ele>1110.079</ele>
      <time>2021-10-12T09:55:29Z</time>
    </trkpt>
    <trkpt lat="38.623164995" lon="34.88619497">
      <ele>1110.119</ele>
      <time>2021-10-12T09:55:34Z</time>
    </trkpt>
    <trkpt lat="38.623245042" lon="34.886088017">
      <ele>1110.083</ele>
      <time>2021-10-12T09:55:38Z</time>
    </trkpt>
    <trkpt lat="38.623316959" lon="34.885963965">
      <ele>1110.53</ele>
      <time>2021-10-12T09:55:43Z</time>
    </trkpt>
    <trkpt lat="38.623388037" lon="34.88584796">
      <ele>1111.352</ele>
      <time>2021-10-12T09:55:47Z</time>
    </trkpt>
    <trkpt lat="38.623448974" lon="34.885744024">
      <ele>1111.966</ele>
      <time>2021-10-12T09:55:51Z</time>
    </trkpt>
    <trkpt lat="38.623518962" lon="34.885642016">
      <ele>1112.797</ele>
      <time>2021-10-12T09:55:55Z</time>
    </trkpt>
    <trkpt lat="38.623558022" lon="34.88551503">
      <ele>1113.455</ele>
      <time>2021-10-12T09:55:58Z</time>
    </trkpt>
    <trkpt lat="38.623590041" lon="34.885385027">
      <ele>1113.819</ele>
      <time>2021-10-12T09:56:02Z</time>
    </trkpt>
    <trkpt lat="38.623619964" lon="34.885261981">
      <ele>1113.977</ele>
      <time>2021-10-12T09:56:06Z</time>
    </trkpt>
    <trkpt lat="38.623652989" lon="34.88515201">
      <ele>1113.766</ele>
      <time>2021-10-12T09:56:10Z</time>
    </trkpt>
    <trkpt lat="38.623696994" lon="34.885010021">
      <ele>1113.643</ele>
      <time>2021-10-12T09:56:14Z</time>
    </trkpt>
    <trkpt lat="38.623691965" lon="34.884855039">
      <ele>1113.8</ele>
      <time>2021-10-12T09:56:19Z</time>
    </trkpt>
    <trkpt lat="38.623629017" lon="34.884723024">
      <ele>1113.997</ele>
      <time>2021-10-12T09:56:23Z</time>
    </trkpt>
    <trkpt lat="38.623566991" lon="34.884590004">
      <ele>1113.758</ele>
      <time>2021-10-12T09:56:28Z</time>
    </trkpt>
    <trkpt lat="38.623498008" lon="34.884463018">
      <ele>1113.854</ele>
      <time>2021-10-12T09:56:32Z</time>
    </trkpt>
    <trkpt lat="38.623442017" lon="34.884337038">
      <ele>1114.369</ele>
      <time>2021-10-12T09:56:36Z</time>
    </trkpt>
    <trkpt lat="38.623401029" lon="34.884197982">
      <ele>1114.729</ele>
      <time>2021-10-12T09:56:41Z</time>
    </trkpt>
    <trkpt lat="38.623345038" lon="34.884078037">
      <ele>1114.985</ele>
      <time>2021-10-12T09:56:45Z</time>
    </trkpt>
    <trkpt lat="38.623292986" lon="34.883972006">
      <ele>1115.29</ele>
      <time>2021-10-12T09:56:48Z</time>
    </trkpt>
    <trkpt lat="38.623235989" lon="34.883865975">
      <ele>1115.672</ele>
      <time>2021-10-12T09:56:52Z</time>
    </trkpt>
    <trkpt lat="38.623173963" lon="34.883763967">
      <ele>1115.889</ele>
      <time>2021-10-12T09:56:56Z</time>
    </trkpt>
    <trkpt lat="38.623146974" lon="34.883644022">
      <ele>1115.75</ele>
      <time>2021-10-12T09:56:59Z</time>
    </trkpt>
    <trkpt lat="38.62315502" lon="34.883509995">
      <ele>1115.539</ele>
      <time>2021-10-12T09:57:03Z</time>
    </trkpt>
    <trkpt lat="38.623147979" lon="34.883372029">
      <ele>1115.379</ele>
      <time>2021-10-12T09:57:07Z</time>
    </trkpt>
    <trkpt lat="38.623134987" lon="34.883239008">
      <ele>1115.626</ele>
      <time>2021-10-12T09:57:11Z</time>
    </trkpt>
    <trkpt lat="38.623119984" lon="34.883110011">
      <ele>1116.036</ele>
      <time>2021-10-12T09:57:15Z</time>
    </trkpt>
    <trkpt lat="38.623101963" lon="34.882990988">
      <ele>1116.438</ele>
      <time>2021-10-12T09:57:18Z</time>
    </trkpt>
    <trkpt lat="38.62308302" lon="34.882874982">
      <ele>1116.813</ele>
      <time>2021-10-12T09:57:22Z</time>
    </trkpt>
    <trkpt lat="38.62303298" lon="34.882747997">
      <ele>1117.244</ele>
      <time>2021-10-12T09:57:26Z</time>
    </trkpt>
    <trkpt lat="38.622971959" lon="34.882639032">
      <ele>1117.65</ele>
      <time>2021-10-12T09:57:30Z</time>
    </trkpt>
    <trkpt lat="38.622902976" lon="34.882540964">
      <ele>1117.546</ele>
      <time>2021-10-12T09:57:34Z</time>
    </trkpt>
    <trkpt lat="38.622833993" lon="34.882418001">
      <ele>1117.382</ele>
      <time>2021-10-12T09:57:38Z</time>
    </trkpt>
    <trkpt lat="38.622782025" lon="34.882303001">
      <ele>1117.048</ele>
      <time>2021-10-12T09:57:42Z</time>
    </trkpt>
    <trkpt lat="38.622731986" lon="34.882164029">
      <ele>1117.645</ele>
      <time>2021-10-12T09:57:46Z</time>
    </trkpt>
    <trkpt lat="38.622671971" lon="34.882038971">
      <ele>1118.327</ele>
      <time>2021-10-12T09:57:51Z</time>
    </trkpt>
    <trkpt lat="38.622617992" lon="34.881932018">
      <ele>1118.514</ele>
      <time>2021-10-12T09:57:54Z</time>
    </trkpt>
    <trkpt lat="38.622568035" lon="34.881817019">
      <ele>1119.162</ele>
      <time>2021-10-12T09:57:58Z</time>
    </trkpt>
    <trkpt lat="38.62252797" lon="34.881666983">
      <ele>1120.098</ele>
      <time>2021-10-12T09:58:03Z</time>
    </trkpt>
    <trkpt lat="38.622491006" lon="34.881548965">
      <ele>1120.461</ele>
      <time>2021-10-12T09:58:06Z</time>
    </trkpt>
    <trkpt lat="38.622429986" lon="34.88142902">
      <ele>1120.928</ele>
      <time>2021-10-12T09:58:11Z</time>
    </trkpt>
    <trkpt lat="38.622383969" lon="34.881293988">
      <ele>1121.143</ele>
      <time>2021-10-12T09:58:15Z</time>
    </trkpt>
    <trkpt lat="38.622336024" lon="34.881177982">
      <ele>1121.448</ele>
      <time>2021-10-12T09:58:19Z</time>
    </trkpt>
    <trkpt lat="38.622247009" lon="34.881069018">
      <ele>1121.635</ele>
      <time>2021-10-12T09:58:23Z</time>
    </trkpt>
    <trkpt lat="38.622155981" lon="34.880953012">
      <ele>1122.325</ele>
      <time>2021-10-12T09:58:28Z</time>
    </trkpt>
    <trkpt lat="38.622079035" lon="34.88082896">
      <ele>1123.616</ele>
      <time>2021-10-12T09:58:33Z</time>
    </trkpt>
    <trkpt lat="38.622018015" lon="34.880711026">
      <ele>1125.263</ele>
      <time>2021-10-12T09:58:37Z</time>
    </trkpt>
    <trkpt lat="38.621995971" lon="34.880582029">
      <ele>1125.869</ele>
      <time>2021-10-12T09:58:40Z</time>
    </trkpt>
    <trkpt lat="38.622042993" lon="34.880459988">
      <ele>1126.691</ele>
      <time>2021-10-12T09:58:44Z</time>
    </trkpt>
    <trkpt lat="38.622064032" lon="34.880422018">
      <ele>1126.887</ele>
      <time>2021-10-12T09:58:46Z</time>
    </trkpt>
    <trkpt lat="38.622088004" lon="34.880395029">
      <ele>1126.769</ele>
      <time>2021-10-12T09:58:47Z</time>
    </trkpt>
    <trkpt lat="38.622111976" lon="34.880367033">
      <ele>1126.635</ele>
      <time>2021-10-12T09:58:48Z</time>
    </trkpt>
    <trkpt lat="38.622136032" lon="34.880342977">
      <ele>1126.398</ele>
      <time>2021-10-12T09:58:49Z</time>
    </trkpt>
    <trkpt lat="38.62216101" lon="34.880322022">
      <ele>1126.056</ele>
      <time>2021-10-12T09:58:50Z</time>
    </trkpt>
    <trkpt lat="38.622188" lon="34.880307019">
      <ele>1125.539</ele>
      <time>2021-10-12T09:58:51Z</time>
    </trkpt>
    <trkpt lat="38.622220019" lon="34.880291009">
      <ele>1124.872</ele>
      <time>2021-10-12T09:58:53Z</time>
    </trkpt>
    <trkpt lat="38.622253966" lon="34.880279023">
      <ele>1124.755</ele>
      <time>2021-10-12T09:58:54Z</time>
    </trkpt>
    <trkpt lat="38.622290008" lon="34.880265025">
      <ele>1124.765</ele>
      <time>2021-10-12T09:58:55Z</time>
    </trkpt>
    <trkpt lat="38.622329989" lon="34.88025899">
      <ele>1124.577</ele>
      <time>2021-10-12T09:58:57Z</time>
    </trkpt>
    <trkpt lat="38.622363014" lon="34.880250022">
      <ele>1124.485</ele>
      <time>2021-10-12T09:58:58Z</time>
    </trkpt>
    <trkpt lat="38.622396039" lon="34.880245999">
      <ele>1124.292</ele>
      <time>2021-10-12T09:58:59Z</time>
    </trkpt>
    <trkpt lat="38.622430991" lon="34.880242981">
      <ele>1124.06</ele>
      <time>2021-10-12T09:59:01Z</time>
    </trkpt>
    <trkpt lat="38.622459993" lon="34.880238036">
      <ele>1123.902</ele>
      <time>2021-10-12T09:59:02Z</time>
    </trkpt>
    <trkpt lat="38.622495029" lon="34.880235018">
      <ele>1123.657</ele>
      <time>2021-10-12T09:59:03Z</time>
    </trkpt>
    <trkpt lat="38.622524031" lon="34.880228983">
      <ele>1123.759</ele>
      <time>2021-10-12T09:59:04Z</time>
    </trkpt>
    <trkpt lat="38.622559989" lon="34.880220015">
      <ele>1123.958</ele>
      <time>2021-10-12T09:59:06Z</time>
    </trkpt>
    <trkpt lat="38.622592008" lon="34.880208028">
      <ele>1124.169</ele>
      <time>2021-10-12T09:59:07Z</time>
    </trkpt>
    <trkpt lat="38.622629978" lon="34.880192019">
      <ele>1124.414</ele>
      <time>2021-10-12T09:59:08Z</time>
    </trkpt>
    <trkpt lat="38.622657973" lon="34.880168969">
      <ele>1124.69</ele>
      <time>2021-10-12T09:59:10Z</time>
    </trkpt>
    <trkpt lat="38.622685969" lon="34.880144997">
      <ele>1124.941</ele>
      <time>2021-10-12T09:59:11Z</time>
    </trkpt>
    <trkpt lat="38.622712037" lon="34.880118007">
      <ele>1125.186</ele>
      <time>2021-10-12T09:59:12Z</time>
    </trkpt>
    <trkpt lat="38.622737015" lon="34.880090011">
      <ele>1125.404</ele>
      <time>2021-10-12T09:59:13Z</time>
    </trkpt>
    <trkpt lat="38.622759981" lon="34.880058998">
      <ele>1125.612</ele>
      <time>2021-10-12T09:59:14Z</time>
    </trkpt>
    <trkpt lat="38.62278102" lon="34.880032009">
      <ele>1125.792</ele>
      <time>2021-10-12T09:59:16Z</time>
    </trkpt>
    <trkpt lat="38.622804992" lon="34.880008958">
      <ele>1126.128</ele>
      <time>2021-10-12T09:59:17Z</time>
    </trkpt>
    <trkpt lat="38.622828964" lon="34.879982974">
      <ele>1126.43</ele>
      <time>2021-10-12T09:59:18Z</time>
    </trkpt>
    <trkpt lat="38.622856038" lon="34.879955985">
      <ele>1126.722</ele>
      <time>2021-10-12T09:59:19Z</time>
    </trkpt>
    <trkpt lat="38.622872969" lon="34.87993503">
      <ele>1126.919</ele>
      <time>2021-10-12T09:59:20Z</time>
    </trkpt>
    <trkpt lat="38.622887973" lon="34.879916003">
      <ele>1127.096</ele>
      <time>2021-10-12T09:59:21Z</time>
    </trkpt>
    <trkpt lat="38.622898031" lon="34.879893959">
      <ele>1127.248</ele>
      <time>2021-10-12T09:59:22Z</time>
    </trkpt>
    <trkpt lat="38.622903982" lon="34.879871998">
      <ele>1127.369</ele>
      <time>2021-10-12T09:59:22Z</time>
    </trkpt>
    <trkpt lat="38.622915968" lon="34.879850037">
      <ele>1127.535</ele>
      <time>2021-10-12T09:59:23Z</time>
    </trkpt>
    <trkpt lat="38.62292896" lon="34.879830005">
      <ele>1127.7</ele>
      <time>2021-10-12T09:59:24Z</time>
    </trkpt>
    <trkpt lat="38.622947987" lon="34.879798992">
      <ele>1127.949</ele>
      <time>2021-10-12T09:59:25Z</time>
    </trkpt>
    <trkpt lat="38.622969026" lon="34.87976999">
      <ele>1128.205</ele>
      <time>2021-10-12T09:59:26Z</time>
    </trkpt>
    <trkpt lat="38.622994004" lon="34.879741995">
      <ele>1128.486</ele>
      <time>2021-10-12T09:59:27Z</time>
    </trkpt>
    <trkpt lat="38.623013031" lon="34.879709976">
      <ele>1128.701</ele>
      <time>2021-10-12T09:59:28Z</time>
    </trkpt>
    <trkpt lat="38.623030968" lon="34.879674017">
      <ele>1128.838</ele>
      <time>2021-10-12T09:59:30Z</time>
    </trkpt>
    <trkpt lat="38.623049995" lon="34.879639987">
      <ele>1128.966</ele>
      <time>2021-10-12T09:59:31Z</time>
    </trkpt>
    <trkpt lat="38.623071034" lon="34.879602017">
      <ele>1129.104</ele>
      <time>2021-10-12T09:59:32Z</time>
    </trkpt>
    <trkpt lat="38.623089977" lon="34.879568992">
      <ele>1129.261</ele>
      <time>2021-10-12T09:59:33Z</time>
    </trkpt>
    <trkpt lat="38.623100035" lon="34.879549965">
      <ele>1129.359</ele>
      <time>2021-10-12T09:59:34Z</time>
    </trkpt>
    <trkpt lat="38.623123001" lon="34.879516019">
      <ele>1129.603</ele>
      <time>2021-10-12T09:59:35Z</time>
    </trkpt>
    <trkpt lat="38.623135993" lon="34.87949498">
      <ele>1129.763</ele>
      <time>2021-10-12T09:59:36Z</time>
    </trkpt>
    <trkpt lat="38.623153009" lon="34.879477965">
      <ele>1129.968</ele>
      <time>2021-10-12T09:59:37Z</time>
    </trkpt>
    <trkpt lat="38.623169018" lon="34.87945701">
      <ele>1130.188</ele>
      <time>2021-10-12T09:59:38Z</time>
    </trkpt>
    <trkpt lat="38.623185027" lon="34.879437983">
      <ele>1130.422</ele>
      <time>2021-10-12T09:59:39Z</time>
    </trkpt>
    <trkpt lat="38.623201037" lon="34.879418034">
      <ele>1130.666</ele>
      <time>2021-10-12T09:59:39Z</time>
    </trkpt>
    <trkpt lat="38.623218974" lon="34.879398001">
      <ele>1130.932</ele>
      <time>2021-10-12T09:59:40Z</time>
    </trkpt>
    <trkpt lat="38.623233978" lon="34.879378974">
      <ele>1131.163</ele>
      <time>2021-10-12T09:59:41Z</time>
    </trkpt>
    <trkpt lat="38.623249987" lon="34.879357014">
      <ele>1131.415</ele>
      <time>2021-10-12T09:59:42Z</time>
    </trkpt>
    <trkpt lat="38.623264991" lon="34.879332036">
      <ele>1131.667</ele>
      <time>2021-10-12T09:59:43Z</time>
    </trkpt>
    <trkpt lat="38.623275971" lon="34.879304962">
      <ele>1131.883</ele>
      <time>2021-10-12T09:59:44Z</time>
    </trkpt>
    <trkpt lat="38.623287035" lon="34.879279984">
      <ele>1132.092</ele>
      <time>2021-10-12T09:59:45Z</time>
    </trkpt>
    <trkpt lat="38.62329701" lon="34.879258024">
      <ele>1132.279</ele>
      <time>2021-10-12T09:59:45Z</time>
    </trkpt>
    <trkpt lat="38.623311007" lon="34.879233968">
      <ele>1132.517</ele>
      <time>2021-10-12T09:59:46Z</time>
    </trkpt>
    <trkpt lat="38.623326011" lon="34.879205972">
      <ele>1132.779</ele>
      <time>2021-10-12T09:59:47Z</time>
    </trkpt>
    <trkpt lat="38.623337997" lon="34.879179988">
      <ele>1133.018</ele>
      <time>2021-10-12T09:59:48Z</time>
    </trkpt>
    <trkpt lat="38.623351995" lon="34.879157022">
      <ele>1133.306</ele>
      <time>2021-10-12T09:59:49Z</time>
    </trkpt>
    <trkpt lat="38.623364987" lon="34.879135983">
      <ele>1133.579</ele>
      <time>2021-10-12T09:59:50Z</time>
    </trkpt>
    <trkpt lat="38.623380996" lon="34.879114022">
      <ele>1133.908</ele>
      <time>2021-10-12T09:59:51Z</time>
    </trkpt>
    <trkpt lat="38.623397006" lon="34.87909399">
      <ele>1134.238</ele>
      <time>2021-10-12T09:59:51Z</time>
    </trkpt>
    <trkpt lat="38.623414021" lon="34.879072029">
      <ele>1134.602</ele>
      <time>2021-10-12T09:59:52Z</time>
    </trkpt>
    <trkpt lat="38.62343003" lon="34.879046967">
      <ele>1134.973</ele>
      <time>2021-10-12T09:59:53Z</time>
    </trkpt>
    <trkpt lat="38.623443022" lon="34.879020983">
      <ele>1135.311</ele>
      <time>2021-10-12T09:59:54Z</time>
    </trkpt>
    <trkpt lat="38.62345702" lon="34.878994999">
      <ele>1135.674</ele>
      <time>2021-10-12T09:59:55Z</time>
    </trkpt>
    <trkpt lat="38.623470012" lon="34.878971027">
      <ele>1136.019</ele>
      <time>2021-10-12T09:59:56Z</time>
    </trkpt>
    <trkpt lat="38.623485016" lon="34.878948983">
      <ele>1136.396</ele>
      <time>2021-10-12T09:59:57Z</time>
    </trkpt>
    <trkpt lat="38.623498008" lon="34.878924005">
      <ele>1136.763</ele>
      <time>2021-10-12T09:59:58Z</time>
    </trkpt>
    <trkpt lat="38.623508988" lon="34.878899027">
      <ele>1137.102</ele>
      <time>2021-10-12T09:59:58Z</time>
    </trkpt>
    <trkpt lat="38.623519968" lon="34.878872959">
      <ele>1137.436</ele>
      <time>2021-10-12T09:59:59Z</time>
    </trkpt>
    <trkpt lat="38.623532038" lon="34.878844963">
      <ele>1137.78</ele>
      <time>2021-10-12T10:00:00Z</time>
    </trkpt>
    <trkpt lat="38.623542013" lon="34.878816968">
      <ele>1138.08</ele>
      <time>2021-10-12T10:00:01Z</time>
    </trkpt>
    <trkpt lat="38.623549975" lon="34.878788972">
      <ele>1138.338</ele>
      <time>2021-10-12T10:00:02Z</time>
    </trkpt>
    <trkpt lat="38.623560034" lon="34.878761983">
      <ele>1138.621</ele>
      <time>2021-10-12T10:00:03Z</time>
    </trkpt>
    <trkpt lat="38.62357202" lon="34.878735999">
      <ele>1138.924</ele>
      <time>2021-10-12T10:00:04Z</time>
    </trkpt>
    <trkpt lat="38.623581994" lon="34.878712026">
      <ele>1139.179</ele>
      <time>2021-10-12T10:00:04Z</time>
    </trkpt>
    <trkpt lat="38.623601021" lon="34.878692999">
      <ele>1139.549</ele>
      <time>2021-10-12T10:00:05Z</time>
    </trkpt>
    <trkpt lat="38.623622982" lon="34.87867699">
      <ele>1139.838</ele>
      <time>2021-10-12T10:00:06Z</time>
    </trkpt>
    <trkpt lat="38.623642009" lon="34.878660981">
      <ele>1140.023</ele>
      <time>2021-10-12T10:00:07Z</time>
    </trkpt>
    <trkpt lat="38.623659024" lon="34.878647989">
      <ele>1140.189</ele>
      <time>2021-10-12T10:00:08Z</time>
    </trkpt>
    <trkpt lat="38.623679979" lon="34.878638014">
      <ele>1140.375</ele>
      <time>2021-10-12T10:00:09Z</time>
    </trkpt>
    <trkpt lat="38.623705963" lon="34.87862804">
      <ele>1140.601</ele>
      <time>2021-10-12T10:00:10Z</time>
    </trkpt>
    <trkpt lat="38.623730019" lon="34.878617981">
      <ele>1140.821</ele>
      <time>2021-10-12T10:00:11Z</time>
    </trkpt>
    <trkpt lat="38.623756003" lon="34.878611024">
      <ele>1141.044</ele>
      <time>2021-10-12T10:00:12Z</time>
    </trkpt>
    <trkpt lat="38.623785004" lon="34.878609013">
      <ele>1141.26</ele>
      <time>2021-10-12T10:00:13Z</time>
    </trkpt>
    <trkpt lat="38.623814005" lon="34.878605995">
      <ele>1141.479</ele>
      <time>2021-10-12T10:00:14Z</time>
    </trkpt>
    <trkpt lat="38.623842001" lon="34.87859996">
      <ele>1141.703</ele>
      <time>2021-10-12T10:00:15Z</time>
    </trkpt>
    <trkpt lat="38.623868991" lon="34.878594009">
      <ele>1141.918</ele>
      <time>2021-10-12T10:00:16Z</time>
    </trkpt>
    <trkpt lat="38.623889023" lon="34.878586968">
      <ele>1142.086</ele>
      <time>2021-10-12T10:00:17Z</time>
    </trkpt>
    <trkpt lat="38.62391199" lon="34.878578">
      <ele>1142.046</ele>
      <time>2021-10-12T10:00:18Z</time>
    </trkpt>
    <trkpt lat="38.623936968" lon="34.878570959">
      <ele>1141.996</ele>
      <time>2021-10-12T10:00:18Z</time>
    </trkpt>
    <trkpt lat="38.623964963" lon="34.878566014">
      <ele>1141.933</ele>
      <time>2021-10-12T10:00:20Z</time>
    </trkpt>
    <trkpt lat="38.623991031" lon="34.878562996">
      <ele>1141.869</ele>
      <time>2021-10-12T10:00:20Z</time>
    </trkpt>
    <trkpt lat="38.624016009" lon="34.878559979">
      <ele>1141.811</ele>
      <time>2021-10-12T10:00:21Z</time>
    </trkpt>
    <trkpt lat="38.624047022" lon="34.878556961">
      <ele>1141.737</ele>
      <time>2021-10-12T10:00:23Z</time>
    </trkpt>
    <trkpt lat="38.624079041" lon="34.878555033">
      <ele>1141.656</ele>
      <time>2021-10-12T10:00:24Z</time>
    </trkpt>
    <trkpt lat="38.62410997" lon="34.87855101">
      <ele>1141.593</ele>
      <time>2021-10-12T10:00:25Z</time>
    </trkpt>
    <trkpt lat="38.624147018" lon="34.878546987">
      <ele>1141.516</ele>
      <time>2021-10-12T10:00:26Z</time>
    </trkpt>
    <trkpt lat="38.62417602" lon="34.878542041">
      <ele>1141.539</ele>
      <time>2021-10-12T10:00:27Z</time>
    </trkpt>
    <trkpt lat="38.624208039" lon="34.878539024">
      <ele>1141.707</ele>
      <time>2021-10-12T10:00:29Z</time>
    </trkpt>
    <trkpt lat="38.62423704" lon="34.878536006">
      <ele>1141.863</ele>
      <time>2021-10-12T10:00:30Z</time>
    </trkpt>
    <trkpt lat="38.624261012" lon="34.878532989">
      <ele>1141.998</ele>
      <time>2021-10-12T10:00:31Z</time>
    </trkpt>
    <trkpt lat="38.624289008" lon="34.87852796">
      <ele>1142.171</ele>
      <time>2021-10-12T10:00:32Z</time>
    </trkpt>
    <trkpt lat="38.624315998" lon="34.878521003">
      <ele>1142.361</ele>
      <time>2021-10-12T10:00:33Z</time>
    </trkpt>
    <trkpt lat="38.624338964" lon="34.878513962">
      <ele>1142.537</ele>
      <time>2021-10-12T10:00:33Z</time>
    </trkpt>
    <trkpt lat="38.62436302" lon="34.878504993">
      <ele>1142.741</ele>
      <time>2021-10-12T10:00:34Z</time>
    </trkpt>
    <trkpt lat="38.624385986" lon="34.878496025">
      <ele>1142.945</ele>
      <time>2021-10-12T10:00:35Z</time>
    </trkpt>
    <trkpt lat="38.624412976" lon="34.878487978">
      <ele>1143.166</ele>
      <time>2021-10-12T10:00:36Z</time>
    </trkpt>
    <trkpt lat="38.624439966" lon="34.87847398">
      <ele>1143.457</ele>
      <time>2021-10-12T10:00:37Z</time>
    </trkpt>
    <trkpt lat="38.624463016" lon="34.878455959">
      <ele>1143.876</ele>
      <time>2021-10-12T10:00:38Z</time>
    </trkpt>
    <trkpt lat="38.624486988" lon="34.878437016">
      <ele>1144.34</ele>
      <time>2021-10-12T10:00:39Z</time>
    </trkpt>
    <trkpt lat="38.624508027" lon="34.878417989">
      <ele>1144.772</ele>
      <time>2021-10-12T10:00:40Z</time>
    </trkpt>
    <trkpt lat="38.624527976" lon="34.878399968">
      <ele>1145.182</ele>
      <time>2021-10-12T10:00:41Z</time>
    </trkpt>
    <trkpt lat="38.624554966" lon="34.878381025">
      <ele>1145.679</ele>
      <time>2021-10-12T10:00:42Z</time>
    </trkpt>
    <trkpt lat="38.624574998" lon="34.878365016">
      <ele>1146.068</ele>
      <time>2021-10-12T10:00:43Z</time>
    </trkpt>
    <trkpt lat="38.624596959" lon="34.878344983">
      <ele>1146.521</ele>
      <time>2021-10-12T10:00:44Z</time>
    </trkpt>
    <trkpt lat="38.624613974" lon="34.878323022">
      <ele>1146.965</ele>
      <time>2021-10-12T10:00:45Z</time>
    </trkpt>
    <trkpt lat="38.624636019" lon="34.878300978">
      <ele>1147.499</ele>
      <time>2021-10-12T10:00:46Z</time>
    </trkpt>
    <trkpt lat="38.624657979" lon="34.878279017">
      <ele>1148.043</ele>
      <time>2021-10-12T10:00:47Z</time>
    </trkpt>
    <trkpt lat="38.624679018" lon="34.878254039">
      <ele>1148.631</ele>
      <time>2021-10-12T10:00:48Z</time>
    </trkpt>
    <trkpt lat="38.624699973" lon="34.878228977">
      <ele>1149.232</ele>
      <time>2021-10-12T10:00:49Z</time>
    </trkpt>
    <trkpt lat="38.624720005" lon="34.878202993">
      <ele>1149.849</ele>
      <time>2021-10-12T10:00:50Z</time>
    </trkpt>
    <trkpt lat="38.624741966" lon="34.878180027">
      <ele>1150.46</ele>
      <time>2021-10-12T10:00:51Z</time>
    </trkpt>
    <trkpt lat="38.624761999" lon="34.878156977">
      <ele>1151.06</ele>
      <time>2021-10-12T10:00:52Z</time>
    </trkpt>
    <trkpt lat="38.624781026" lon="34.878135016">
      <ele>1151.642</ele>
      <time>2021-10-12T10:00:53Z</time>
    </trkpt>
    <trkpt lat="38.624799969" lon="34.878108026">
      <ele>1152.311</ele>
      <time>2021-10-12T10:00:54Z</time>
    </trkpt>
    <trkpt lat="38.624813966" lon="34.878077013">
      <ele>1152.987</ele>
      <time>2021-10-12T10:00:56Z</time>
    </trkpt>
    <trkpt lat="38.624824025" lon="34.878041977">
      <ele>1153.6</ele>
      <time>2021-10-12T10:00:57Z</time>
    </trkpt>
    <trkpt lat="38.624815978" lon="34.877923038">
      <ele>1154.626</ele>
      <time>2021-10-12T10:01:00Z</time>
    </trkpt>
    <trkpt lat="38.624795023" lon="34.877803009">
      <ele>1155.343</ele>
      <time>2021-10-12T10:01:04Z</time>
    </trkpt>
    <trkpt lat="38.624767028" lon="34.877676023">
      <ele>1155.641</ele>
      <time>2021-10-12T10:01:07Z</time>
    </trkpt>
    <trkpt lat="38.62475303" lon="34.877632018">
      <ele>1155.657</ele>
      <time>2021-10-12T10:01:09Z</time>
    </trkpt>
    <trkpt lat="38.624743978" lon="34.877592037">
      <ele>1155.755</ele>
      <time>2021-10-12T10:01:10Z</time>
    </trkpt>
    <trkpt lat="38.624738026" lon="34.877549959">
      <ele>1155.935</ele>
      <time>2021-10-12T10:01:11Z</time>
    </trkpt>
    <trkpt lat="38.624730986" lon="34.877511989">
      <ele>1156.073</ele>
      <time>2021-10-12T10:01:12Z</time>
    </trkpt>
    <trkpt lat="38.62472604" lon="34.877472008">
      <ele>1156.07</ele>
      <time>2021-10-12T10:01:14Z</time>
    </trkpt>
    <trkpt lat="38.624717994" lon="34.877433032">
      <ele>1155.943</ele>
      <time>2021-10-12T10:01:15Z</time>
    </trkpt>
    <trkpt lat="38.624693016" lon="34.877321972">
      <ele>1155.647</ele>
      <time>2021-10-12T10:01:18Z</time>
    </trkpt>
    <trkpt lat="38.624653034" lon="34.877186017">
      <ele>1155.22</ele>
      <time>2021-10-12T10:01:22Z</time>
    </trkpt>
    <trkpt lat="38.624624033" lon="34.877040004">
      <ele>1154.708</ele>
      <time>2021-10-12T10:01:27Z</time>
    </trkpt>
    <trkpt lat="38.624646999" lon="34.876927016">
      <ele>1154.808</ele>
      <time>2021-10-12T10:01:30Z</time>
    </trkpt>
    <trkpt lat="38.624695027" lon="34.876860967">
      <ele>1155.037</ele>
      <time>2021-10-12T10:01:33Z</time>
    </trkpt>
    <trkpt lat="38.624718999" lon="34.876839006">
      <ele>1155.199</ele>
      <time>2021-10-12T10:01:34Z</time>
    </trkpt>
    <trkpt lat="38.624742972" lon="34.87682702">
      <ele>1155.56</ele>
      <time>2021-10-12T10:01:35Z</time>
    </trkpt>
    <trkpt lat="38.624845985" lon="34.87680397">
      <ele>1157.442</ele>
      <time>2021-10-12T10:01:39Z</time>
    </trkpt>
    <trkpt lat="38.624941958" lon="34.876832971">
      <ele>1159.47</ele>
      <time>2021-10-12T10:01:42Z</time>
    </trkpt>
    <trkpt lat="38.625039021" lon="34.876879994">
      <ele>1161.297</ele>
      <time>2021-10-12T10:01:46Z</time>
    </trkpt>
    <trkpt lat="38.625131976" lon="34.876940008">
      <ele>1162.877</ele>
      <time>2021-10-12T10:01:50Z</time>
    </trkpt>
    <trkpt lat="38.625240019" lon="34.876978984">
      <ele>1164.581</ele>
      <time>2021-10-12T10:01:54Z</time>
    </trkpt>
    <trkpt lat="38.625336997" lon="34.876986025">
      <ele>1165.363</ele>
      <time>2021-10-12T10:01:58Z</time>
    </trkpt>
    <trkpt lat="38.625440011" lon="34.876951994">
      <ele>1165.611</ele>
      <time>2021-10-12T10:02:02Z</time>
    </trkpt>
    <trkpt lat="38.625537995" lon="34.876930034">
      <ele>1165.882</ele>
      <time>2021-10-12T10:02:05Z</time>
    </trkpt>
    <trkpt lat="38.625634974" lon="34.876913019">
      <ele>1166.205</ele>
      <time>2021-10-12T10:02:09Z</time>
    </trkpt>
    <trkpt lat="38.625719966" lon="34.876870019">
      <ele>1166.483</ele>
      <time>2021-10-12T10:02:12Z</time>
    </trkpt>
    <trkpt lat="38.625772018" lon="34.876829032">
      <ele>1166.688</ele>
      <time>2021-10-12T10:02:15Z</time>
    </trkpt>
    <trkpt lat="38.625852987" lon="34.876725012">
      <ele>1166.844</ele>
      <time>2021-10-12T10:02:19Z</time>
    </trkpt>
    <trkpt lat="38.625870002" lon="34.876697017">
      <ele>1166.722</ele>
      <time>2021-10-12T10:02:20Z</time>
    </trkpt>
    <trkpt lat="38.625889029" lon="34.876672039">
      <ele>1166.595</ele>
      <time>2021-10-12T10:02:21Z</time>
    </trkpt>
    <trkpt lat="38.625904033" lon="34.876646977">
      <ele>1166.527</ele>
      <time>2021-10-12T10:02:22Z</time>
    </trkpt>
    <trkpt lat="38.625920964" lon="34.876627028">
      <ele>1166.459</ele>
      <time>2021-10-12T10:02:23Z</time>
    </trkpt>
    <trkpt lat="38.625942003" lon="34.876604984">
      <ele>1166.391</ele>
      <time>2021-10-12T10:02:24Z</time>
    </trkpt>
    <trkpt lat="38.625965975" lon="34.876587968">
      <ele>1166.316</ele>
      <time>2021-10-12T10:02:25Z</time>
    </trkpt>
    <trkpt lat="38.625991959" lon="34.876573971">
      <ele>1166.239</ele>
      <time>2021-10-12T10:02:26Z</time>
    </trkpt>
    <trkpt lat="38.626043005" lon="34.876557961">
      <ele>1166.081</ele>
      <time>2021-10-12T10:02:28Z</time>
    </trkpt>
    <trkpt lat="38.626074018" lon="34.876556033">
      <ele>1165.957</ele>
      <time>2021-10-12T10:02:29Z</time>
    </trkpt>
    <trkpt lat="38.62609799" lon="34.876551004">
      <ele>1165.888</ele>
      <time>2021-10-12T10:02:30Z</time>
    </trkpt>
    <trkpt lat="38.626127997" lon="34.876546981">
      <ele>1165.576</ele>
      <time>2021-10-12T10:02:31Z</time>
    </trkpt>
    <trkpt lat="38.626158005" lon="34.876536001">
      <ele>1165.166</ele>
      <time>2021-10-12T10:02:32Z</time>
    </trkpt>
    <trkpt lat="38.626183989" lon="34.876523009">
      <ele>1164.867</ele>
      <time>2021-10-12T10:02:33Z</time>
    </trkpt>
    <trkpt lat="38.626207961" lon="34.876506999">
      <ele>1164.659</ele>
      <time>2021-10-12T10:02:34Z</time>
    </trkpt>
    <trkpt lat="38.626231011" lon="34.876484033">
      <ele>1164.577</ele>
      <time>2021-10-12T10:02:35Z</time>
    </trkpt>
    <trkpt lat="38.626261018" lon="34.876464">
      <ele>1164.402</ele>
      <time>2021-10-12T10:02:36Z</time>
    </trkpt>
    <trkpt lat="38.626281973" lon="34.876442961">
      <ele>1164.406</ele>
      <time>2021-10-12T10:02:37Z</time>
    </trkpt>
    <trkpt lat="38.626305023" lon="34.876421001">
      <ele>1164.432</ele>
      <time>2021-10-12T10:02:38Z</time>
    </trkpt>
    <trkpt lat="38.626326984" lon="34.876399962">
      <ele>1164.496</ele>
      <time>2021-10-12T10:02:39Z</time>
    </trkpt>
    <trkpt lat="38.626350034" lon="34.876378002">
      <ele>1164.565</ele>
      <time>2021-10-12T10:02:41Z</time>
    </trkpt>
    <trkpt lat="38.626376018" lon="34.876358975">
      <ele>1164.56</ele>
      <time>2021-10-12T10:02:42Z</time>
    </trkpt>
    <trkpt lat="38.626397979" lon="34.876337014">
      <ele>1164.616</ele>
      <time>2021-10-12T10:02:43Z</time>
    </trkpt>
    <trkpt lat="38.626417005" lon="34.876309019">
      <ele>1164.745</ele>
      <time>2021-10-12T10:02:44Z</time>
    </trkpt>
    <trkpt lat="38.626429997" lon="34.876275994">
      <ele>1165.034</ele>
      <time>2021-10-12T10:02:45Z</time>
    </trkpt>
    <trkpt lat="38.626452964" lon="34.876242969">
      <ele>1165.179</ele>
      <time>2021-10-12T10:02:46Z</time>
    </trkpt>
    <trkpt lat="38.626463022" lon="34.876210028">
      <ele>1165.508</ele>
      <time>2021-10-12T10:02:47Z</time>
    </trkpt>
    <trkpt lat="38.626466962" lon="34.876177004">
      <ele>1165.927</ele>
      <time>2021-10-12T10:02:48Z</time>
    </trkpt>
    <trkpt lat="38.62646604" lon="34.876148002">
      <ele>1166.358</ele>
      <time>2021-10-12T10:02:49Z</time>
    </trkpt>
    <trkpt lat="38.626462016" lon="34.876120007">
      <ele>1166.819</ele>
      <time>2021-10-12T10:02:50Z</time>
    </trkpt>
    <trkpt lat="38.626458999" lon="34.876087988">
      <ele>1167.282</ele>
      <time>2021-10-12T10:02:51Z</time>
    </trkpt>
    <trkpt lat="38.626455981" lon="34.876054963">
      <ele>1167.738</ele>
      <time>2021-10-12T10:02:52Z</time>
    </trkpt>
    <trkpt lat="38.626460005" lon="34.876017999">
      <ele>1168.153</ele>
      <time>2021-10-12T10:02:53Z</time>
    </trkpt>
    <trkpt lat="38.626465034" lon="34.875983968">
      <ele>1168.528</ele>
      <time>2021-10-12T10:02:54Z</time>
    </trkpt>
    <trkpt lat="38.626474002" lon="34.875945998">
      <ele>1168.922</ele>
      <time>2021-10-12T10:02:55Z</time>
    </trkpt>
    <trkpt lat="38.626481965" lon="34.875908028">
      <ele>1169.343</ele>
      <time>2021-10-12T10:02:56Z</time>
    </trkpt>
    <trkpt lat="38.626491018" lon="34.875873998">
      <ele>1169.718</ele>
      <time>2021-10-12T10:02:57Z</time>
    </trkpt>
    <trkpt lat="38.626503004" lon="34.875841979">
      <ele>1170.059</ele>
      <time>2021-10-12T10:02:58Z</time>
    </trkpt>
    <trkpt lat="38.626520019" lon="34.875810966">
      <ele>1170.25</ele>
      <time>2021-10-12T10:02:59Z</time>
    </trkpt>
    <trkpt lat="38.626548015" lon="34.87578297">
      <ele>1170.347</ele>
      <time>2021-10-12T10:03:01Z</time>
    </trkpt>
    <trkpt lat="38.62657601" lon="34.875762016">
      <ele>1170.428</ele>
      <time>2021-10-12T10:03:02Z</time>
    </trkpt>
    <trkpt lat="38.626603" lon="34.875738965">
      <ele>1170.584</ele>
      <time>2021-10-12T10:03:03Z</time>
    </trkpt>
    <trkpt lat="38.626632001" lon="34.875711976">
      <ele>1170.834</ele>
      <time>2021-10-12T10:03:04Z</time>
    </trkpt>
    <trkpt lat="38.626655973" lon="34.875681968">
      <ele>1171.194</ele>
      <time>2021-10-12T10:03:05Z</time>
    </trkpt>
    <trkpt lat="38.626678018" lon="34.875648022">
      <ele>1171.532</ele>
      <time>2021-10-12T10:03:07Z</time>
    </trkpt>
    <trkpt lat="38.626694027" lon="34.875613991">
      <ele>1171.842</ele>
      <time>2021-10-12T10:03:08Z</time>
    </trkpt>
    <trkpt lat="38.626710037" lon="34.875579039">
      <ele>1172.18</ele>
      <time>2021-10-12T10:03:09Z</time>
    </trkpt>
    <trkpt lat="38.626723029" lon="34.875545008">
      <ele>1172.475</ele>
      <time>2021-10-12T10:03:10Z</time>
    </trkpt>
    <trkpt lat="38.626733003" lon="34.875512989">
      <ele>1172.627</ele>
      <time>2021-10-12T10:03:11Z</time>
    </trkpt>
    <trkpt lat="38.62673996" lon="34.875479965">
      <ele>1172.824</ele>
      <time>2021-10-12T10:03:12Z</time>
    </trkpt>
    <trkpt lat="38.626743983" lon="34.875446018">
      <ele>1173.063</ele>
      <time>2021-10-12T10:03:13Z</time>
    </trkpt>
    <trkpt lat="38.626745995" lon="34.875411987">
      <ele>1173.325</ele>
      <time>2021-10-12T10:03:14Z</time>
    </trkpt>
    <trkpt lat="38.626742978" lon="34.87538198">
      <ele>1173.597</ele>
      <time>2021-10-12T10:03:15Z</time>
    </trkpt>
    <trkpt lat="38.626738032" lon="34.875349961">
      <ele>1173.9</ele>
      <time>2021-10-12T10:03:16Z</time>
    </trkpt>
    <trkpt lat="38.626731997" lon="34.875314003">
      <ele>1174.238</ele>
      <time>2021-10-12T10:03:17Z</time>
    </trkpt>
    <trkpt lat="38.626719005" lon="34.875281984">
      <ele>1174.59</ele>
      <time>2021-10-12T10:03:18Z</time>
    </trkpt>
    <trkpt lat="38.626709031" lon="34.875248037">
      <ele>1174.925</ele>
      <time>2021-10-12T10:03:19Z</time>
    </trkpt>
    <trkpt lat="38.626696039" lon="34.875216018">
      <ele>1175.257</ele>
      <time>2021-10-12T10:03:20Z</time>
    </trkpt>
    <trkpt lat="38.62668003" lon="34.875181988">
      <ele>1175.61</ele>
      <time>2021-10-12T10:03:21Z</time>
    </trkpt>
    <trkpt lat="38.626658991" lon="34.875151981">
      <ele>1175.85</ele>
      <time>2021-10-12T10:03:23Z</time>
    </trkpt>
    <trkpt lat="38.62663703" lon="34.875124991">
      <ele>1175.887</ele>
      <time>2021-10-12T10:03:24Z</time>
    </trkpt>
    <trkpt lat="38.626612974" lon="34.875100013">
      <ele>1175.893</ele>
      <time>2021-10-12T10:03:25Z</time>
    </trkpt>
    <trkpt lat="38.626587996" lon="34.875074029">
      <ele>1175.901</ele>
      <time>2021-10-12T10:03:26Z</time>
    </trkpt>
    <trkpt lat="38.626560001" lon="34.875055002">
      <ele>1175.836</ele>
      <time>2021-10-12T10:03:27Z</time>
    </trkpt>
    <trkpt lat="38.626535023" lon="34.875034969">
      <ele>1175.8</ele>
      <time>2021-10-12T10:03:28Z</time>
    </trkpt>
    <trkpt lat="38.626505015" lon="34.875013009">
      <ele>1175.742</ele>
      <time>2021-10-12T10:03:30Z</time>
    </trkpt>
    <trkpt lat="38.62647702" lon="34.874996999">
      <ele>1175.66</ele>
      <time>2021-10-12T10:03:31Z</time>
    </trkpt>
    <trkpt lat="38.626448018" lon="34.874978978">
      <ele>1175.621</ele>
      <time>2021-10-12T10:03:32Z</time>
    </trkpt>
    <trkpt lat="38.626422035" lon="34.874960035">
      <ele>1175.636</ele>
      <time>2021-10-12T10:03:33Z</time>
    </trkpt>
    <trkpt lat="38.626396973" lon="34.874944026">
      <ele>1175.651</ele>
      <time>2021-10-12T10:03:34Z</time>
    </trkpt>
    <trkpt lat="38.626371995" lon="34.874921981">
      <ele>1175.782</ele>
      <time>2021-10-12T10:03:35Z</time>
    </trkpt>
    <trkpt lat="38.626357997" lon="34.874902032">
      <ele>1175.947</ele>
      <time>2021-10-12T10:03:36Z</time>
    </trkpt>
    <trkpt lat="38.626342993" lon="34.874879988">
      <ele>1176.131</ele>
      <time>2021-10-12T10:03:37Z</time>
    </trkpt>
    <trkpt lat="38.626328995" lon="34.87485501">
      <ele>1176.35</ele>
      <time>2021-10-12T10:03:38Z</time>
    </trkpt>
    <trkpt lat="38.626318015" lon="34.874820979">
      <ele>1176.678</ele>
      <time>2021-10-12T10:03:39Z</time>
    </trkpt>
    <trkpt lat="38.626314998" lon="34.874787033">
      <ele>1177.034</ele>
      <time>2021-10-12T10:03:40Z</time>
    </trkpt>
    <trkpt lat="38.62631198" lon="34.874753002">
      <ele>1177.391</ele>
      <time>2021-10-12T10:03:41Z</time>
    </trkpt>
    <trkpt lat="38.626309969" lon="34.874717966">
      <ele>1177.773</ele>
      <time>2021-10-12T10:03:42Z</time>
    </trkpt>
    <trkpt lat="38.626306029" lon="34.874683013">
      <ele>1178.224</ele>
      <time>2021-10-12T10:03:43Z</time>
    </trkpt>
    <trkpt lat="38.626305023" lon="34.874643032">
      <ele>1178.752</ele>
      <time>2021-10-12T10:03:44Z</time>
    </trkpt>
    <trkpt lat="38.626307035" lon="34.874605983">
      <ele>1179.256</ele>
      <time>2021-10-12T10:03:45Z</time>
    </trkpt>
    <trkpt lat="38.626305023" lon="34.874572959">
      <ele>1179.685</ele>
      <time>2021-10-12T10:03:46Z</time>
    </trkpt>
    <trkpt lat="38.626302006" lon="34.874540018">
      <ele>1180.106</ele>
      <time>2021-10-12T10:03:47Z</time>
    </trkpt>
    <trkpt lat="38.626303012" lon="34.874509005">
      <ele>1180.524</ele>
      <time>2021-10-12T10:03:48Z</time>
    </trkpt>
    <trkpt lat="38.626306029" lon="34.874472041">
      <ele>1181.036</ele>
      <time>2021-10-12T10:03:49Z</time>
    </trkpt>
    <trkpt lat="38.626307035" lon="34.874441028">
      <ele>1181.43</ele>
      <time>2021-10-12T10:03:50Z</time>
    </trkpt>
    <trkpt lat="38.626308963" lon="34.874405991">
      <ele>1181.643</ele>
      <time>2021-10-12T10:03:51Z</time>
    </trkpt>
    <trkpt lat="38.626301" lon="34.874380007">
      <ele>1181.746</ele>
      <time>2021-10-12T10:03:52Z</time>
    </trkpt>
    <trkpt lat="38.626294965" lon="34.87435">
      <ele>1181.894</ele>
      <time>2021-10-12T10:03:53Z</time>
    </trkpt>
    <trkpt lat="38.626289014" lon="34.874318987">
      <ele>1182.057</ele>
      <time>2021-10-12T10:03:53Z</time>
    </trkpt>
    <trkpt lat="38.62628499" lon="34.87428898">
      <ele>1182.23</ele>
      <time>2021-10-12T10:03:54Z</time>
    </trkpt>
    <trkpt lat="38.626283985" lon="34.874256961">
      <ele>1182.429</ele>
      <time>2021-10-12T10:03:55Z</time>
    </trkpt>
    <trkpt lat="38.626283985" lon="34.874227038">
      <ele>1182.619</ele>
      <time>2021-10-12T10:03:56Z</time>
    </trkpt>
    <trkpt lat="38.626283985" lon="34.874194013">
      <ele>1182.827</ele>
      <time>2021-10-12T10:03:57Z</time>
    </trkpt>
    <trkpt lat="38.626285996" lon="34.874161994">
      <ele>1183.011</ele>
      <time>2021-10-12T10:03:58Z</time>
    </trkpt>
    <trkpt lat="38.626282979" lon="34.874131987">
      <ele>1183.077</ele>
      <time>2021-10-12T10:03:59Z</time>
    </trkpt>
    <trkpt lat="38.626281973" lon="34.874099968">
      <ele>1183.148</ele>
      <time>2021-10-12T10:04:00Z</time>
    </trkpt>
    <trkpt lat="38.626282979" lon="34.874070967">
      <ele>1183.213</ele>
      <time>2021-10-12T10:04:01Z</time>
    </trkpt>
    <trkpt lat="38.626282979" lon="34.874041965">
      <ele>1183.278</ele>
      <time>2021-10-12T10:04:02Z</time>
    </trkpt>
    <trkpt lat="38.626287002" lon="34.874012964">
      <ele>1183.35</ele>
      <time>2021-10-12T10:04:02Z</time>
    </trkpt>
    <trkpt lat="38.626289014" lon="34.873983962">
      <ele>1183.421</ele>
      <time>2021-10-12T10:04:03Z</time>
    </trkpt>
    <trkpt lat="38.626293959" lon="34.873955967">
      <ele>1183.499</ele>
      <time>2021-10-12T10:04:04Z</time>
    </trkpt>
    <trkpt lat="38.626299994" lon="34.873929983">
      <ele>1183.579</ele>
      <time>2021-10-12T10:04:05Z</time>
    </trkpt>
    <trkpt lat="38.626310974" lon="34.87389897">
      <ele>1183.693</ele>
      <time>2021-10-12T10:04:06Z</time>
    </trkpt>
    <trkpt lat="38.626322038" lon="34.873868963">
      <ele>1183.831</ele>
      <time>2021-10-12T10:04:07Z</time>
    </trkpt>
    <trkpt lat="38.626330001" lon="34.873838034">
      <ele>1183.971</ele>
      <time>2021-10-12T10:04:08Z</time>
    </trkpt>
    <trkpt lat="38.626336958" lon="34.873804003">
      <ele>1184.119</ele>
      <time>2021-10-12T10:04:09Z</time>
    </trkpt>
    <trkpt lat="38.626346011" lon="34.873769972">
      <ele>1184.274</ele>
      <time>2021-10-12T10:04:10Z</time>
    </trkpt>
    <trkpt lat="38.626354979" lon="34.87373502">
      <ele>1184.432</ele>
      <time>2021-10-12T10:04:11Z</time>
    </trkpt>
    <trkpt lat="38.626366965" lon="34.873703001">
      <ele>1184.59</ele>
      <time>2021-10-12T10:04:12Z</time>
    </trkpt>
    <trkpt lat="38.626376018" lon="34.873670982">
      <ele>1184.738</ele>
      <time>2021-10-12T10:04:13Z</time>
    </trkpt>
    <trkpt lat="38.626388004" lon="34.873639969">
      <ele>1184.893</ele>
      <time>2021-10-12T10:04:14Z</time>
    </trkpt>
    <trkpt lat="38.626398984" lon="34.873606022">
      <ele>1185.127</ele>
      <time>2021-10-12T10:04:15Z</time>
    </trkpt>
    <trkpt lat="38.626406025" lon="34.873570986">
      <ele>1185.548</ele>
      <time>2021-10-12T10:04:16Z</time>
    </trkpt>
    <trkpt lat="38.626408037" lon="34.873538967">
      <ele>1185.899</ele>
      <time>2021-10-12T10:04:17Z</time>
    </trkpt>
    <trkpt lat="38.626408037" lon="34.873504015">
      <ele>1186.268</ele>
      <time>2021-10-12T10:04:18Z</time>
    </trkpt>
    <trkpt lat="38.626407031" lon="34.873469984">
      <ele>1186.622</ele>
      <time>2021-10-12T10:04:19Z</time>
    </trkpt>
    <trkpt lat="38.626406025" lon="34.873434026">
      <ele>1186.997</ele>
      <time>2021-10-12T10:04:20Z</time>
    </trkpt>
    <trkpt lat="38.626407031" lon="34.873398989">
      <ele>1187.372</ele>
      <time>2021-10-12T10:04:21Z</time>
    </trkpt>
    <trkpt lat="38.626408037" lon="34.873362025">
      <ele>1187.766</ele>
      <time>2021-10-12T10:04:22Z</time>
    </trkpt>
    <trkpt lat="38.62641097" lon="34.873327995">
      <ele>1188.155</ele>
      <time>2021-10-12T10:04:23Z</time>
    </trkpt>
    <trkpt lat="38.626414994" lon="34.873292958">
      <ele>1188.662</ele>
      <time>2021-10-12T10:04:24Z</time>
    </trkpt>
    <trkpt lat="38.626417005" lon="34.873257">
      <ele>1189.173</ele>
      <time>2021-10-12T10:04:25Z</time>
    </trkpt>
    <trkpt lat="38.626418011" lon="34.873221042">
      <ele>1189.679</ele>
      <time>2021-10-12T10:04:26Z</time>
    </trkpt>
    <trkpt lat="38.626421029" lon="34.873186005">
      <ele>1190.176</ele>
      <time>2021-10-12T10:04:27Z</time>
    </trkpt>
    <trkpt lat="38.626427986" lon="34.873149963">
      <ele>1190.688</ele>
      <time>2021-10-12T10:04:28Z</time>
    </trkpt>
    <trkpt lat="38.626433015" lon="34.873118028">
      <ele>1191.136</ele>
      <time>2021-10-12T10:04:29Z</time>
    </trkpt>
    <trkpt lat="38.626438966" lon="34.873085003">
      <ele>1191.595</ele>
      <time>2021-10-12T10:04:30Z</time>
    </trkpt>
    <trkpt lat="38.626440978" lon="34.873052984">
      <ele>1192.019</ele>
      <time>2021-10-12T10:04:31Z</time>
    </trkpt>
    <trkpt lat="38.626446007" lon="34.87301996">
      <ele>1192.256</ele>
      <time>2021-10-12T10:04:32Z</time>
    </trkpt>
    <trkpt lat="38.62645397" lon="34.872990036">
      <ele>1192.472</ele>
      <time>2021-10-12T10:04:33Z</time>
    </trkpt>
    <trkpt lat="38.626464028" lon="34.872956006">
      <ele>1192.717</ele>
      <time>2021-10-12T10:04:34Z</time>
    </trkpt>
    <trkpt lat="38.626475008" lon="34.87292097">
      <ele>1192.969</ele>
      <time>2021-10-12T10:04:35Z</time>
    </trkpt>
    <trkpt lat="38.626483977" lon="34.872888029">
      <ele>1193.206</ele>
      <time>2021-10-12T10:04:36Z</time>
    </trkpt>
    <trkpt lat="38.626494035" lon="34.87285601">
      <ele>1193.437</ele>
      <time>2021-10-12T10:04:37Z</time>
    </trkpt>
    <trkpt lat="38.626503004" lon="34.872818962">
      <ele>1193.703</ele>
      <time>2021-10-12T10:04:38Z</time>
    </trkpt>
    <trkpt lat="38.626510967" lon="34.872781998">
      <ele>1193.97</ele>
      <time>2021-10-12T10:04:39Z</time>
    </trkpt>
    <trkpt lat="38.626510967" lon="34.872747967">
      <ele>1194.228</ele>
      <time>2021-10-12T10:04:40Z</time>
    </trkpt>
    <trkpt lat="38.62650401" lon="34.872715026">
      <ele>1194.49</ele>
      <time>2021-10-12T10:04:41Z</time>
    </trkpt>
    <trkpt lat="38.626480959" lon="34.872684013">
      <ele>1194.789</ele>
      <time>2021-10-12T10:04:43Z</time>
    </trkpt>
    <trkpt lat="38.626446007" lon="34.87266398">
      <ele>1195.061</ele>
      <time>2021-10-12T10:04:44Z</time>
    </trkpt>
    <trkpt lat="38.626398984" lon="34.872657023">
      <ele>1195.273</ele>
      <time>2021-10-12T10:04:46Z</time>
    </trkpt>
    <trkpt lat="38.626351962" lon="34.872658029">
      <ele>1194.952</ele>
      <time>2021-10-12T10:04:48Z</time>
    </trkpt>
    <trkpt lat="38.626305023" lon="34.872662975">
      <ele>1194.459</ele>
      <time>2021-10-12T10:04:49Z</time>
    </trkpt>
    <trkpt lat="38.626265042" lon="34.872665992">
      <ele>1194.049</ele>
      <time>2021-10-12T10:04:51Z</time>
    </trkpt>
    <trkpt lat="38.626222964" lon="34.872669009">
      <ele>1193.617</ele>
      <time>2021-10-12T10:04:52Z</time>
    </trkpt>
    <trkpt lat="38.626183989" lon="34.872672027">
      <ele>1193.21</ele>
      <time>2021-10-12T10:04:54Z</time>
    </trkpt>
    <trkpt lat="38.626146019" lon="34.872662975">
      <ele>1192.978</ele>
      <time>2021-10-12T10:04:55Z</time>
    </trkpt>
    <trkpt lat="38.626106959" lon="34.872654006">
      <ele>1192.724</ele>
      <time>2021-10-12T10:04:57Z</time>
    </trkpt>
    <trkpt lat="38.626067983" lon="34.87264202">
      <ele>1192.337</ele>
      <time>2021-10-12T10:04:58Z</time>
    </trkpt>
    <trkpt lat="38.626032025" lon="34.87262601">
      <ele>1192.02</ele>
      <time>2021-10-12T10:05:00Z</time>
    </trkpt>
    <trkpt lat="38.625995982" lon="34.87260296">
      <ele>1191.752</ele>
      <time>2021-10-12T10:05:01Z</time>
    </trkpt>
    <trkpt lat="38.625959018" lon="34.872572031">
      <ele>1191.509</ele>
      <time>2021-10-12T10:05:03Z</time>
    </trkpt>
    <trkpt lat="38.625925994" lon="34.872546969">
      <ele>1191.217</ele>
      <time>2021-10-12T10:05:04Z</time>
    </trkpt>
    <trkpt lat="38.625891963" lon="34.872520985">
      <ele>1190.872</ele>
      <time>2021-10-12T10:05:06Z</time>
    </trkpt>
    <trkpt lat="38.625860028" lon="34.872501036">
      <ele>1190.472</ele>
      <time>2021-10-12T10:05:07Z</time>
    </trkpt>
    <trkpt lat="38.625829015" lon="34.872485027">
      <ele>1190.1</ele>
      <time>2021-10-12T10:05:08Z</time>
    </trkpt>
    <trkpt lat="38.625794984" lon="34.872469017">
      <ele>1189.798</ele>
      <time>2021-10-12T10:05:10Z</time>
    </trkpt>
    <trkpt lat="38.625760032" lon="34.872454014">
      <ele>1189.485</ele>
      <time>2021-10-12T10:05:11Z</time>
    </trkpt>
    <trkpt lat="38.625722984" lon="34.872441022">
      <ele>1189.132</ele>
      <time>2021-10-12T10:05:12Z</time>
    </trkpt>
    <trkpt lat="38.625685014" lon="34.872431969">
      <ele>1188.73</ele>
      <time>2021-10-12T10:05:14Z</time>
    </trkpt>
    <trkpt lat="38.625648972" lon="34.872431969">
      <ele>1188.242</ele>
      <time>2021-10-12T10:05:15Z</time>
    </trkpt>
    <trkpt lat="38.625611002" lon="34.872427024">
      <ele>1187.797</ele>
      <time>2021-10-12T10:05:16Z</time>
    </trkpt>
    <trkpt lat="38.625573032" lon="34.872429036">
      <ele>1187.257</ele>
      <time>2021-10-12T10:05:18Z</time>
    </trkpt>
    <trkpt lat="38.625530032" lon="34.87242803">
      <ele>1186.669</ele>
      <time>2021-10-12T10:05:19Z</time>
    </trkpt>
    <trkpt lat="38.625494996" lon="34.872434987">
      <ele>1186.064</ele>
      <time>2021-10-12T10:05:21Z</time>
    </trkpt>
    <trkpt lat="38.625459038" lon="34.872434987">
      <ele>1185.546</ele>
      <time>2021-10-12T10:05:22Z</time>
    </trkpt>
    <trkpt lat="38.625416961" lon="34.872436998">
      <ele>1184.911</ele>
      <time>2021-10-12T10:05:24Z</time>
    </trkpt>
    <trkpt lat="38.625376979" lon="34.872445967">
      <ele>1184.207</ele>
      <time>2021-10-12T10:05:25Z</time>
    </trkpt>
    <trkpt lat="38.625339009" lon="34.872452002">
      <ele>1183.573</ele>
      <time>2021-10-12T10:05:27Z</time>
    </trkpt>
    <trkpt lat="38.625301961" lon="34.872456025">
      <ele>1182.981</ele>
      <time>2021-10-12T10:05:28Z</time>
    </trkpt>
    <trkpt lat="38.625263991" lon="34.872457031">
      <ele>1182.355</ele>
      <time>2021-10-12T10:05:29Z</time>
    </trkpt>
    <trkpt lat="38.625226021" lon="34.872458037">
      <ele>1181.616</ele>
      <time>2021-10-12T10:05:31Z</time>
    </trkpt>
    <trkpt lat="38.625187967" lon="34.872453008">
      <ele>1180.951</ele>
      <time>2021-10-12T10:05:32Z</time>
    </trkpt>
    <trkpt lat="38.625151003" lon="34.872444961">
      <ele>1180.33</ele>
      <time>2021-10-12T10:05:34Z</time>
    </trkpt>
    <trkpt lat="38.625114961" lon="34.872429036">
      <ele>1179.792</ele>
      <time>2021-10-12T10:05:35Z</time>
    </trkpt>
    <trkpt lat="38.625080008" lon="34.872405985">
      <ele>1179.312</ele>
      <time>2021-10-12T10:05:36Z</time>
    </trkpt>
    <trkpt lat="38.625050001" lon="34.872375978">
      <ele>1178.954</ele>
      <time>2021-10-12T10:05:38Z</time>
    </trkpt>
    <trkpt lat="38.625023011" lon="34.872338008">
      <ele>1178.677</ele>
      <time>2021-10-12T10:05:39Z</time>
    </trkpt>
    <trkpt lat="38.625000967" lon="34.87230096">
      <ele>1178.455</ele>
      <time>2021-10-12T10:05:41Z</time>
    </trkpt>
    <trkpt lat="38.624980012" lon="34.872260978">
      <ele>1178.299</ele>
      <time>2021-10-12T10:05:42Z</time>
    </trkpt>
    <trkpt lat="38.624960985" lon="34.87221404">
      <ele>1178.212</ele>
      <time>2021-10-12T10:05:44Z</time>
    </trkpt>
    <trkpt lat="38.624945981" lon="34.872158971">
      <ele>1178.244</ele>
      <time>2021-10-12T10:05:45Z</time>
    </trkpt>
    <trkpt lat="38.624939024" lon="34.872105997">
      <ele>1178.428</ele>
      <time>2021-10-12T10:05:47Z</time>
    </trkpt>
    <trkpt lat="38.624936007" lon="34.872054029">
      <ele>1178.689</ele>
      <time>2021-10-12T10:05:48Z</time>
    </trkpt>
    <trkpt lat="38.624936007" lon="34.872002983">
      <ele>1179.014</ele>
      <time>2021-10-12T10:05:50Z</time>
    </trkpt>
    <trkpt lat="38.624937013" lon="34.87195001">
      <ele>1179.377</ele>
      <time>2021-10-12T10:05:51Z</time>
    </trkpt>
    <trkpt lat="38.624941036" lon="34.87189603">
      <ele>1179.688</ele>
      <time>2021-10-12T10:05:53Z</time>
    </trkpt>
    <trkpt lat="38.62494397" lon="34.871843979">
      <ele>1179.95</ele>
      <time>2021-10-12T10:05:55Z</time>
    </trkpt>
    <trkpt lat="38.624942964" lon="34.871793017">
      <ele>1180.108</ele>
      <time>2021-10-12T10:05:56Z</time>
    </trkpt>
    <trkpt lat="38.624942964" lon="34.871744988">
      <ele>1180.281</ele>
      <time>2021-10-12T10:05:57Z</time>
    </trkpt>
    <trkpt lat="38.62494397" lon="34.871697966">
      <ele>1180.475</ele>
      <time>2021-10-12T10:05:59Z</time>
    </trkpt>
    <trkpt lat="38.624942964" lon="34.871653039">
      <ele>1180.671</ele>
      <time>2021-10-12T10:06:00Z</time>
    </trkpt>
    <trkpt lat="38.624941036" lon="34.87161004">
      <ele>1180.965</ele>
      <time>2021-10-12T10:06:01Z</time>
    </trkpt>
    <trkpt lat="38.624938019" lon="34.871569974">
      <ele>1181.212</ele>
      <time>2021-10-12T10:06:02Z</time>
    </trkpt>
    <trkpt lat="38.624933995" lon="34.871525969">
      <ele>1181.47</ele>
      <time>2021-10-12T10:06:04Z</time>
    </trkpt>
    <trkpt lat="38.624928966" lon="34.87148297">
      <ele>1181.702</ele>
      <time>2021-10-12T10:06:05Z</time>
    </trkpt>
    <trkpt lat="38.624918992" lon="34.871437959">
      <ele>1181.845</ele>
      <time>2021-10-12T10:06:06Z</time>
    </trkpt>
    <trkpt lat="38.624908011" lon="34.871399989">
      <ele>1181.92</ele>
      <time>2021-10-12T10:06:08Z</time>
    </trkpt>
    <trkpt lat="38.624896025" lon="34.871361014">
      <ele>1182.168</ele>
      <time>2021-10-12T10:06:09Z</time>
    </trkpt>
    <trkpt lat="38.624880016" lon="34.871326983">
      <ele>1182.366</ele>
      <time>2021-10-12T10:06:10Z</time>
    </trkpt>
    <trkpt lat="38.624865012" lon="34.871290019">
      <ele>1182.671</ele>
      <time>2021-10-12T10:06:11Z</time>
    </trkpt>
    <trkpt lat="38.624842968" lon="34.871260012">
      <ele>1182.787</ele>
      <time>2021-10-12T10:06:12Z</time>
    </trkpt>
    <trkpt lat="38.624820001" lon="34.871227993">
      <ele>1182.976</ele>
      <time>2021-10-12T10:06:14Z</time>
    </trkpt>
    <trkpt lat="38.624794018" lon="34.871203015">
      <ele>1183.047</ele>
      <time>2021-10-12T10:06:15Z</time>
    </trkpt>
    <trkpt lat="38.62476401" lon="34.871176025">
      <ele>1183.155</ele>
      <time>2021-10-12T10:06:16Z</time>
    </trkpt>
    <trkpt lat="38.624737021" lon="34.871152975">
      <ele>1183.28</ele>
      <time>2021-10-12T10:06:17Z</time>
    </trkpt>
    <trkpt lat="38.624711037" lon="34.871133026">
      <ele>1183.366</ele>
      <time>2021-10-12T10:06:18Z</time>
    </trkpt>
    <trkpt lat="38.624684969" lon="34.871115005">
      <ele>1183.379</ele>
      <time>2021-10-12T10:06:20Z</time>
    </trkpt>
    <trkpt lat="38.624656973" lon="34.871097989">
      <ele>1183.224</ele>
      <time>2021-10-12T10:06:21Z</time>
    </trkpt>
    <trkpt lat="38.624631995" lon="34.871080974">
      <ele>1183.097</ele>
      <time>2021-10-12T10:06:22Z</time>
    </trkpt>
    <trkpt lat="38.624605006" lon="34.871064965">
      <ele>1182.951</ele>
      <time>2021-10-12T10:06:23Z</time>
    </trkpt>
    <trkpt lat="38.624576004" lon="34.871048033">
      <ele>1182.815</ele>
      <time>2021-10-12T10:06:24Z</time>
    </trkpt>
    <trkpt lat="38.624548009" lon="34.871029006">
      <ele>1182.749</ele>
      <time>2021-10-12T10:06:25Z</time>
    </trkpt>
    <trkpt lat="38.624521019" lon="34.871007968">
      <ele>1182.755</ele>
      <time>2021-10-12T10:06:26Z</time>
    </trkpt>
    <trkpt lat="38.624495035" lon="34.870991036">
      <ele>1182.732</ele>
      <time>2021-10-12T10:06:27Z</time>
    </trkpt>
    <trkpt lat="38.624469973" lon="34.870971004">
      <ele>1182.797</ele>
      <time>2021-10-12T10:06:29Z</time>
    </trkpt>
    <trkpt lat="38.624450024" lon="34.870951977">
      <ele>1182.922</ele>
      <time>2021-10-12T10:06:29Z</time>
    </trkpt>
    <trkpt lat="38.624426974" lon="34.870934039">
      <ele>1183.102</ele>
      <time>2021-10-12T10:06:30Z</time>
    </trkpt>
    <trkpt lat="38.624406019" lon="34.870915012">
      <ele>1183.351</ele>
      <time>2021-10-12T10:06:31Z</time>
    </trkpt>
    <trkpt lat="38.624391016" lon="34.870900009">
      <ele>1183.561</ele>
      <time>2021-10-12T10:06:32Z</time>
    </trkpt>
    <trkpt lat="38.624370983" lon="34.870882994">
      <ele>1183.794</ele>
      <time>2021-10-12T10:06:33Z</time>
    </trkpt>
    <trkpt lat="38.624352962" lon="34.870872013">
      <ele>1183.929</ele>
      <time>2021-10-12T10:06:34Z</time>
    </trkpt>
    <trkpt lat="38.624332007" lon="34.870859021">
      <ele>1184.095</ele>
      <time>2021-10-12T10:06:35Z</time>
    </trkpt>
    <trkpt lat="38.624311974" lon="34.870847035">
      <ele>1184.253</ele>
      <time>2021-10-12T10:06:35Z</time>
    </trkpt>
    <trkpt lat="38.624292025" lon="34.870834965">
      <ele>1184.419</ele>
      <time>2021-10-12T10:06:36Z</time>
    </trkpt>
    <trkpt lat="38.624269981" lon="34.870825997">
      <ele>1184.425</ele>
      <time>2021-10-12T10:06:37Z</time>
    </trkpt>
    <trkpt lat="38.624249026" lon="34.870817028">
      <ele>1184.414</ele>
      <time>2021-10-12T10:06:38Z</time>
    </trkpt>
    <trkpt lat="38.624223964" lon="34.870809987">
      <ele>1184.374</ele>
      <time>2021-10-12T10:06:39Z</time>
    </trkpt>
    <trkpt lat="38.624198986" lon="34.870805964">
      <ele>1184.313</ele>
      <time>2021-10-12T10:06:40Z</time>
    </trkpt>
    <trkpt lat="38.624173002" lon="34.87080303">
      <ele>1184.241</ele>
      <time>2021-10-12T10:06:41Z</time>
    </trkpt>
    <trkpt lat="38.624142995" lon="34.870799007">
      <ele>1184.172</ele>
      <time>2021-10-12T10:06:42Z</time>
    </trkpt>
    <trkpt lat="38.624113994" lon="34.870789032">
      <ele>1184.16</ele>
      <time>2021-10-12T10:06:43Z</time>
    </trkpt>
    <trkpt lat="38.624083987" lon="34.870785009">
      <ele>1184.102</ele>
      <time>2021-10-12T10:06:44Z</time>
    </trkpt>
    <trkpt lat="38.624055991" lon="34.870785009">
      <ele>1184.019</ele>
      <time>2021-10-12T10:06:45Z</time>
    </trkpt>
    <trkpt lat="38.62402196" lon="34.870780986">
      <ele>1183.954</ele>
      <time>2021-10-12T10:06:46Z</time>
    </trkpt>
    <trkpt lat="38.623991031" lon="34.870781992">
      <ele>1183.854</ele>
      <time>2021-10-12T10:06:48Z</time>
    </trkpt>
    <trkpt lat="38.623958007" lon="34.870787021">
      <ele>1183.708</ele>
      <time>2021-10-12T10:06:49Z</time>
    </trkpt>
    <trkpt lat="38.623924982" lon="34.870782997">
      <ele>1183.65</ele>
      <time>2021-10-12T10:06:50Z</time>
    </trkpt>
    <trkpt lat="38.623894975" lon="34.870780986">
      <ele>1183.583</ele>
      <time>2021-10-12T10:06:51Z</time>
    </trkpt>
    <trkpt lat="38.62386304" lon="34.870772017">
      <ele>1183.528</ele>
      <time>2021-10-12T10:06:52Z</time>
    </trkpt>
    <trkpt lat="38.623830015" lon="34.870763971">
      <ele>1183.431</ele>
      <time>2021-10-12T10:06:54Z</time>
    </trkpt>
    <trkpt lat="38.623797996" lon="34.870748967">
      <ele>1183.385</ele>
      <time>2021-10-12T10:06:55Z</time>
    </trkpt>
    <trkpt lat="38.623766983" lon="34.870730024">
      <ele>1183.35</ele>
      <time>2021-10-12T10:06:56Z</time>
    </trkpt>
    <trkpt lat="38.623733958" lon="34.870705968">
      <ele>1183.306</ele>
      <time>2021-10-12T10:06:58Z</time>
    </trkpt>
    <trkpt lat="38.623701017" lon="34.870678978">
      <ele>1183.239</ele>
      <time>2021-10-12T10:06:59Z</time>
    </trkpt>
    <trkpt lat="38.623668998" lon="34.870652994">
      <ele>1183.128</ele>
      <time>2021-10-12T10:07:00Z</time>
    </trkpt>
    <trkpt lat="38.623635974" lon="34.870629022">
      <ele>1182.957</ele>
      <time>2021-10-12T10:07:02Z</time>
    </trkpt>
    <trkpt lat="38.623604039" lon="34.87060396">
      <ele>1182.703</ele>
      <time>2021-10-12T10:07:03Z</time>
    </trkpt>
    <trkpt lat="38.623567997" lon="34.870578982">
      <ele>1182.153</ele>
      <time>2021-10-12T10:07:05Z</time>
    </trkpt>
    <trkpt lat="38.623532038" lon="34.870554004">
      <ele>1181.56</ele>
      <time>2021-10-12T10:07:06Z</time>
    </trkpt>
    <trkpt lat="38.623493984" lon="34.870536989">
      <ele>1180.691</ele>
      <time>2021-10-12T10:07:08Z</time>
    </trkpt>
    <trkpt lat="38.62345702" lon="34.870519973">
      <ele>1179.842</ele>
      <time>2021-10-12T10:07:09Z</time>
    </trkpt>
    <trkpt lat="38.62341796" lon="34.870505976">
      <ele>1178.988</ele>
      <time>2021-10-12T10:07:11Z</time>
    </trkpt>
    <trkpt lat="38.62337999" lon="34.870497007">
      <ele>1178.208</ele>
      <time>2021-10-12T10:07:12Z</time>
    </trkpt>
    <trkpt lat="38.623340009" lon="34.870492984">
      <ele>1177.444</ele>
      <time>2021-10-12T10:07:14Z</time>
    </trkpt>
    <trkpt lat="38.623300027" lon="34.870489966">
      <ele>1176.96</ele>
      <time>2021-10-12T10:07:15Z</time>
    </trkpt>
    <trkpt lat="38.623261973" lon="34.870493989">
      <ele>1176.621</ele>
      <time>2021-10-12T10:07:16Z</time>
    </trkpt>
    <trkpt lat="38.623216962" lon="34.87050103">
      <ele>1176.237</ele>
      <time>2021-10-12T10:07:18Z</time>
    </trkpt>
    <trkpt lat="38.623176981" lon="34.870507987">
      <ele>1175.894</ele>
      <time>2021-10-12T10:07:20Z</time>
    </trkpt>
    <trkpt lat="38.623139011" lon="34.870520979">
      <ele>1175.615</ele>
      <time>2021-10-12T10:07:21Z</time>
    </trkpt>
    <trkpt lat="38.623097017" lon="34.870529026">
      <ele>1175.243</ele>
      <time>2021-10-12T10:07:23Z</time>
    </trkpt>
    <trkpt lat="38.623058042" lon="34.870544029">
      <ele>1174.943</ele>
      <time>2021-10-12T10:07:24Z</time>
    </trkpt>
    <trkpt lat="38.623020994" lon="34.870564984">
      <ele>1175.03</ele>
      <time>2021-10-12T10:07:26Z</time>
    </trkpt>
    <trkpt lat="38.622986041" lon="34.870587029">
      <ele>1175.085</ele>
      <time>2021-10-12T10:07:27Z</time>
    </trkpt>
    <trkpt lat="38.622947987" lon="34.870604966">
      <ele>1175.109</ele>
      <time>2021-10-12T10:07:29Z</time>
    </trkpt>
    <trkpt lat="38.622911023" lon="34.870623993">
      <ele>1175.118</ele>
      <time>2021-10-12T10:07:30Z</time>
    </trkpt>
    <trkpt lat="38.622873975" lon="34.87064302">
      <ele>1175.109</ele>
      <time>2021-10-12T10:07:32Z</time>
    </trkpt>
    <trkpt lat="38.622840028" lon="34.870661041">
      <ele>1175.085</ele>
      <time>2021-10-12T10:07:33Z</time>
    </trkpt>
    <trkpt lat="38.622801974" lon="34.870684007">
      <ele>1175.04</ele>
      <time>2021-10-12T10:07:34Z</time>
    </trkpt>
    <trkpt lat="38.62276501" lon="34.870704962">
      <ele>1174.975</ele>
      <time>2021-10-12T10:07:36Z</time>
    </trkpt>
    <trkpt lat="38.622727962" lon="34.870724995">
      <ele>1174.891</ele>
      <time>2021-10-12T10:07:37Z</time>
    </trkpt>
    <trkpt lat="38.622689992" lon="34.870743016">
      <ele>1174.787</ele>
      <time>2021-10-12T10:07:39Z</time>
    </trkpt>
    <trkpt lat="38.622654034" lon="34.870756008">
      <ele>1174.679</ele>
      <time>2021-10-12T10:07:40Z</time>
    </trkpt>
    <trkpt lat="38.622618997" lon="34.870759025">
      <ele>1174.581</ele>
      <time>2021-10-12T10:07:42Z</time>
    </trkpt>
    <trkpt lat="38.622585973" lon="34.870743016">
      <ele>1174.534</ele>
      <time>2021-10-12T10:07:43Z</time>
    </trkpt>
    <trkpt lat="38.622556971" lon="34.870714014">
      <ele>1174.547</ele>
      <time>2021-10-12T10:07:44Z</time>
    </trkpt>
    <trkpt lat="38.622528976" lon="34.870677972">
      <ele>1174.605</ele>
      <time>2021-10-12T10:07:46Z</time>
    </trkpt>
    <trkpt lat="38.622503998" lon="34.870636985">
      <ele>1174.711</ele>
      <time>2021-10-12T10:07:47Z</time>
    </trkpt>
    <trkpt lat="38.622482959" lon="34.870593986">
      <ele>1174.915</ele>
      <time>2021-10-12T10:07:49Z</time>
    </trkpt>
    <trkpt lat="38.622458987" lon="34.870557021">
      <ele>1175.142</ele>
      <time>2021-10-12T10:07:50Z</time>
    </trkpt>
    <trkpt lat="38.622431997" lon="34.870521985">
      <ele>1175.062</ele>
      <time>2021-10-12T10:07:52Z</time>
    </trkpt>
    <trkpt lat="38.622408025" lon="34.870479992">
      <ele>1174.967</ele>
      <time>2021-10-12T10:07:53Z</time>
    </trkpt>
    <trkpt lat="38.622387992" lon="34.870433975">
      <ele>1174.881</ele>
      <time>2021-10-12T10:07:55Z</time>
    </trkpt>
    <trkpt lat="38.622356979" lon="34.870393993">
      <ele>1174.951</ele>
      <time>2021-10-12T10:07:56Z</time>
    </trkpt>
    <trkpt lat="38.622328984" lon="34.870348983">
      <ele>1175.044</ele>
      <time>2021-10-12T10:07:58Z</time>
    </trkpt>
    <trkpt lat="38.622301994" lon="34.870303972">
      <ele>1175.193</ele>
      <time>2021-10-12T10:08:00Z</time>
    </trkpt>
    <trkpt lat="38.622275004" lon="34.870259967">
      <ele>1175.122</ele>
      <time>2021-10-12T10:08:01Z</time>
    </trkpt>
    <trkpt lat="38.622246003" lon="34.870215962">
      <ele>1174.65</ele>
      <time>2021-10-12T10:08:03Z</time>
    </trkpt>
    <trkpt lat="38.622223958" lon="34.870176986">
      <ele>1174.169</ele>
      <time>2021-10-12T10:08:04Z</time>
    </trkpt>
    <trkpt lat="38.622200992" lon="34.870129041">
      <ele>1173.282</ele>
      <time>2021-10-12T10:08:06Z</time>
    </trkpt>
    <trkpt lat="38.622185988" lon="34.870084031">
      <ele>1172.422</ele>
      <time>2021-10-12T10:08:07Z</time>
    </trkpt>
    <trkpt lat="38.622170985" lon="34.870036002">
      <ele>1171.487</ele>
      <time>2021-10-12T10:08:09Z</time>
    </trkpt>
    <trkpt lat="38.622158999" lon="34.869995015">
      <ele>1170.637</ele>
      <time>2021-10-12T10:08:10Z</time>
    </trkpt>
    <trkpt lat="38.62215003" lon="34.86995101">
      <ele>1169.421</ele>
      <time>2021-10-12T10:08:11Z</time>
    </trkpt>
    <trkpt lat="38.622139972" lon="34.869902981">
      <ele>1168.117</ele>
      <time>2021-10-12T10:08:13Z</time>
    </trkpt>
    <trkpt lat="38.622134021" lon="34.869860988">
      <ele>1166.997</ele>
      <time>2021-10-12T10:08:14Z</time>
    </trkpt>
    <trkpt lat="38.622133015" lon="34.869813966">
      <ele>1165.751</ele>
      <time>2021-10-12T10:08:15Z</time>
    </trkpt>
    <trkpt lat="38.622134021" lon="34.869770966">
      <ele>1164.61</ele>
      <time>2021-10-12T10:08:17Z</time>
    </trkpt>
    <trkpt lat="38.622142989" lon="34.869732996">
      <ele>1163.573</ele>
      <time>2021-10-12T10:08:18Z</time>
    </trkpt>
    <trkpt lat="38.622162016" lon="34.86969796">
      <ele>1162.936</ele>
      <time>2021-10-12T10:08:19Z</time>
    </trkpt>
    <trkpt lat="38.622192023" lon="34.869668959">
      <ele>1162.513</ele>
      <time>2021-10-12T10:08:20Z</time>
    </trkpt>
    <trkpt lat="38.622224964" lon="34.869650016">
      <ele>1162.23</ele>
      <time>2021-10-12T10:08:22Z</time>
    </trkpt>
    <trkpt lat="38.62226503" lon="34.869640963">
      <ele>1162.277</ele>
      <time>2021-10-12T10:08:23Z</time>
    </trkpt>
    <trkpt lat="38.622307023" lon="34.869648004">
      <ele>1162.504</ele>
      <time>2021-10-12T10:08:25Z</time>
    </trkpt>
    <trkpt lat="38.622342981" lon="34.869671976">
      <ele>1162.892</ele>
      <time>2021-10-12T10:08:26Z</time>
    </trkpt>
    <trkpt lat="38.622373994" lon="34.869702989">
      <ele>1163.339</ele>
      <time>2021-10-12T10:08:28Z</time>
    </trkpt>
    <trkpt lat="38.622406013" lon="34.869741965">
      <ele>1164.089</ele>
      <time>2021-10-12T10:08:29Z</time>
    </trkpt>
    <trkpt lat="38.622438032" lon="34.869789993">
      <ele>1165.16</ele>
      <time>2021-10-12T10:08:31Z</time>
    </trkpt>
    <trkpt lat="38.622462004" lon="34.869837016">
      <ele>1166.099</ele>
      <time>2021-10-12T10:08:33Z</time>
    </trkpt>
    <trkpt lat="38.622492012" lon="34.869876998">
      <ele>1166.805</ele>
      <time>2021-10-12T10:08:35Z</time>
    </trkpt>
    <trkpt lat="38.622517996" lon="34.869908011">
      <ele>1167.387</ele>
      <time>2021-10-12T10:08:36Z</time>
    </trkpt>
    <trkpt lat="38.622544985" lon="34.869942041">
      <ele>1168.024</ele>
      <time>2021-10-12T10:08:37Z</time>
    </trkpt>
    <trkpt lat="38.622568035" lon="34.869960984">
      <ele>1168.367</ele>
      <time>2021-10-12T10:08:38Z</time>
    </trkpt>
    <trkpt lat="38.622601982" lon="34.869954027">
      <ele>1168.294</ele>
      <time>2021-10-12T10:08:40Z</time>
    </trkpt>
    <trkpt lat="38.622638024" lon="34.869942963">
      <ele>1168.177</ele>
      <time>2021-10-12T10:08:41Z</time>
    </trkpt>
    <trkpt lat="38.62266602" lon="34.869922008">
      <ele>1167.932</ele>
      <time>2021-10-12T10:08:42Z</time>
    </trkpt>
    <trkpt lat="38.622695021" lon="34.869896024">
      <ele>1167.654</ele>
      <time>2021-10-12T10:08:43Z</time>
    </trkpt>
    <trkpt lat="38.622725029" lon="34.869860988">
      <ele>1167.309</ele>
      <time>2021-10-12T10:08:45Z</time>
    </trkpt>
    <trkpt lat="38.622749001" lon="34.869813966">
      <ele>1166.852</ele>
      <time>2021-10-12T10:08:47Z</time>
    </trkpt>
    <trkpt lat="38.622796023" lon="34.869663008">
      <ele>1165.733</ele>
      <time>2021-10-12T10:08:51Z</time>
    </trkpt>
    <trkpt lat="38.622757969" lon="34.869524036">
      <ele>1164.38</ele>
      <time>2021-10-12T10:08:56Z</time>
    </trkpt>
    <trkpt lat="38.622718994" lon="34.86938104">
      <ele>1164.278</ele>
      <time>2021-10-12T10:09:00Z</time>
    </trkpt>
    <trkpt lat="38.622698961" lon="34.869245002">
      <ele>1166.021</ele>
      <time>2021-10-12T10:09:04Z</time>
    </trkpt>
    <trkpt lat="38.622682029" lon="34.869123967">
      <ele>1167.835</ele>
      <time>2021-10-12T10:09:08Z</time>
    </trkpt>
    <trkpt lat="38.622674989" lon="34.869080968">
      <ele>1168.627</ele>
      <time>2021-10-12T10:09:09Z</time>
    </trkpt>
    <trkpt lat="38.622668032" lon="34.869044004">
      <ele>1169.29</ele>
      <time>2021-10-12T10:09:10Z</time>
    </trkpt>
    <trkpt lat="38.622658979" lon="34.869009973">
      <ele>1169.86</ele>
      <time>2021-10-12T10:09:11Z</time>
    </trkpt>
    <trkpt lat="38.622650011" lon="34.868969992">
      <ele>1170.543</ele>
      <time>2021-10-12T10:09:12Z</time>
    </trkpt>
    <trkpt lat="38.622617992" lon="34.868846023">
      <ele>1172.316</ele>
      <time>2021-10-12T10:09:16Z</time>
    </trkpt>
    <trkpt lat="38.622609023" lon="34.868816016">
      <ele>1172.619</ele>
      <time>2021-10-12T10:09:17Z</time>
    </trkpt>
    <trkpt lat="38.622598965" lon="34.868785003">
      <ele>1172.921</ele>
      <time>2021-10-12T10:09:18Z</time>
    </trkpt>
    <trkpt lat="38.62258899" lon="34.86875399">
      <ele>1173.224</ele>
      <time>2021-10-12T10:09:19Z</time>
    </trkpt>
    <trkpt lat="38.62257801" lon="34.868720965">
      <ele>1173.541</ele>
      <time>2021-10-12T10:09:20Z</time>
    </trkpt>
    <trkpt lat="38.622564012" lon="34.868686013">
      <ele>1173.843</ele>
      <time>2021-10-12T10:09:21Z</time>
    </trkpt>
    <trkpt lat="38.622553032" lon="34.868655">
      <ele>1174.132</ele>
      <time>2021-10-12T10:09:22Z</time>
    </trkpt>
    <trkpt lat="38.622550014" lon="34.868630022">
      <ele>1174.448</ele>
      <time>2021-10-12T10:09:23Z</time>
    </trkpt>
    <trkpt lat="38.622542974" lon="34.868602026">
      <ele>1174.75</ele>
      <time>2021-10-12T10:09:24Z</time>
    </trkpt>
    <trkpt lat="38.62254004" lon="34.868575959">
      <ele>1175.083</ele>
      <time>2021-10-12T10:09:24Z</time>
    </trkpt>
    <trkpt lat="38.622534005" lon="34.86855098">
      <ele>1175.356</ele>
      <time>2021-10-12T10:09:25Z</time>
    </trkpt>
    <trkpt lat="38.622529982" lon="34.868521979">
      <ele>1175.715</ele>
      <time>2021-10-12T10:09:26Z</time>
    </trkpt>
    <trkpt lat="38.622485977" lon="34.86841796">
      <ele>1176.7</ele>
      <time>2021-10-12T10:09:29Z</time>
    </trkpt>
    <trkpt lat="38.622458987" lon="34.868372027">
      <ele>1177.254</ele>
      <time>2021-10-12T10:09:31Z</time>
    </trkpt>
    <trkpt lat="38.622444989" lon="34.868353">
      <ele>1177.491</ele>
      <time>2021-10-12T10:09:32Z</time>
    </trkpt>
    <trkpt lat="38.622427974" lon="34.868339002">
      <ele>1177.648</ele>
      <time>2021-10-12T10:09:33Z</time>
    </trkpt>
    <trkpt lat="38.622404002" lon="34.868323999">
      <ele>1177.8</ele>
      <time>2021-10-12T10:09:34Z</time>
    </trkpt>
    <trkpt lat="38.622381035" lon="34.868314024">
      <ele>1177.88</ele>
      <time>2021-10-12T10:09:34Z</time>
    </trkpt>
    <trkpt lat="38.622357985" lon="34.868308995">
      <ele>1177.884</ele>
      <time>2021-10-12T10:09:35Z</time>
    </trkpt>
    <trkpt lat="38.622336024" lon="34.868303966">
      <ele>1177.895</ele>
      <time>2021-10-12T10:09:36Z</time>
    </trkpt>
    <trkpt lat="38.622311968" lon="34.868301032">
      <ele>1177.867</ele>
      <time>2021-10-12T10:09:37Z</time>
    </trkpt>
    <trkpt lat="38.622291014" lon="34.86830296">
      <ele>1177.767</ele>
      <time>2021-10-12T10:09:38Z</time>
    </trkpt>
    <trkpt lat="38.622273998" lon="34.868306983">
      <ele>1177.643</ele>
      <time>2021-10-12T10:09:38Z</time>
    </trkpt>
    <trkpt lat="38.62225296" lon="34.868312012">
      <ele>1177.486</ele>
      <time>2021-10-12T10:09:39Z</time>
    </trkpt>
    <trkpt lat="38.622229993" lon="34.868311007">
      <ele>1177.428</ele>
      <time>2021-10-12T10:09:40Z</time>
    </trkpt>
    <trkpt lat="38.622209961" lon="34.868308995">
      <ele>1177.526</ele>
      <time>2021-10-12T10:09:41Z</time>
    </trkpt>
    <trkpt lat="38.62217702" lon="34.868293991">
      <ele>1178.034</ele>
      <time>2021-10-12T10:09:42Z</time>
    </trkpt>
    <trkpt lat="38.622157993" lon="34.868277982">
      <ele>1178.459</ele>
      <time>2021-10-12T10:09:43Z</time>
    </trkpt>
    <trkpt lat="38.622135026" lon="34.86824898">
      <ele>1179.146</ele>
      <time>2021-10-12T10:09:44Z</time>
    </trkpt>
    <trkpt lat="38.62212304" lon="34.868226014">
      <ele>1179.646</ele>
      <time>2021-10-12T10:09:45Z</time>
    </trkpt>
    <trkpt lat="38.622114994" lon="34.868202964">
      <ele>1180.119</ele>
      <time>2021-10-12T10:09:46Z</time>
    </trkpt>
    <trkpt lat="38.622104013" lon="34.868181003">
      <ele>1180.593</ele>
      <time>2021-10-12T10:09:46Z</time>
    </trkpt>
    <trkpt lat="38.62209999" lon="34.868157031">
      <ele>1181.054</ele>
      <time>2021-10-12T10:09:47Z</time>
    </trkpt>
    <trkpt lat="38.622092027" lon="34.868131969">
      <ele>1181.562</ele>
      <time>2021-10-12T10:09:48Z</time>
    </trkpt>
    <trkpt lat="38.622084986" lon="34.868107997">
      <ele>1182.044</ele>
      <time>2021-10-12T10:09:49Z</time>
    </trkpt>
    <trkpt lat="38.622070989" lon="34.868080001">
      <ele>1182.649</ele>
      <time>2021-10-12T10:09:50Z</time>
    </trkpt>
    <trkpt lat="38.622064032" lon="34.868054017">
      <ele>1183.152</ele>
      <time>2021-10-12T10:09:50Z</time>
    </trkpt>
    <trkpt lat="38.622053973" lon="34.868029039">
      <ele>1183.44</ele>
      <time>2021-10-12T10:09:51Z</time>
    </trkpt>
    <trkpt lat="38.622042993" lon="34.868001966">
      <ele>1183.745</ele>
      <time>2021-10-12T10:09:52Z</time>
    </trkpt>
    <trkpt lat="38.62203503" lon="34.867976988">
      <ele>1184.006</ele>
      <time>2021-10-12T10:09:53Z</time>
    </trkpt>
    <trkpt lat="38.622030001" lon="34.86795201">
      <ele>1184.244</ele>
      <time>2021-10-12T10:09:54Z</time>
    </trkpt>
    <trkpt lat="38.622019021" lon="34.867927032">
      <ele>1184.513</ele>
      <time>2021-10-12T10:09:55Z</time>
    </trkpt>
    <trkpt lat="38.622021032" lon="34.86790197">
      <ele>1184.707</ele>
      <time>2021-10-12T10:09:55Z</time>
    </trkpt>
    <trkpt lat="38.622020027" lon="34.867876992">
      <ele>1184.916</ele>
      <time>2021-10-12T10:09:56Z</time>
    </trkpt>
    <trkpt lat="38.622021032" lon="34.867833992">
      <ele>1185.264</ele>
      <time>2021-10-12T10:09:57Z</time>
    </trkpt>
    <trkpt lat="38.62202296" lon="34.867809014">
      <ele>1185.461</ele>
      <time>2021-10-12T10:09:58Z</time>
    </trkpt>
    <trkpt lat="38.622028995" lon="34.867780013">
      <ele>1185.677</ele>
      <time>2021-10-12T10:09:59Z</time>
    </trkpt>
    <trkpt lat="38.622034024" lon="34.867752017">
      <ele>1185.956</ele>
      <time>2021-10-12T10:10:00Z</time>
    </trkpt>
    <trkpt lat="38.622039976" lon="34.867727961">
      <ele>1186.194</ele>
      <time>2021-10-12T10:10:00Z</time>
    </trkpt>
    <trkpt lat="38.622046011" lon="34.867702983">
      <ele>1186.442</ele>
      <time>2021-10-12T10:10:01Z</time>
    </trkpt>
    <trkpt lat="38.622068977" lon="34.867644981">
      <ele>1186.986</ele>
      <time>2021-10-12T10:10:03Z</time>
    </trkpt>
    <trkpt lat="38.622080041" lon="34.867615979">
      <ele>1187.259</ele>
      <time>2021-10-12T10:10:04Z</time>
    </trkpt>
    <trkpt lat="38.622088004" lon="34.867591001">
      <ele>1187.5</ele>
      <time>2021-10-12T10:10:05Z</time>
    </trkpt>
    <trkpt lat="38.622094961" lon="34.867568035">
      <ele>1187.723</ele>
      <time>2021-10-12T10:10:05Z</time>
    </trkpt>
    <trkpt lat="38.622105019" lon="34.86754599">
      <ele>1187.925</ele>
      <time>2021-10-12T10:10:06Z</time>
    </trkpt>
    <trkpt lat="38.622109964" lon="34.867494022">
      <ele>1188.451</ele>
      <time>2021-10-12T10:10:08Z</time>
    </trkpt>
    <trkpt lat="38.622109964" lon="34.867464015">
      <ele>1188.688</ele>
      <time>2021-10-12T10:10:09Z</time>
    </trkpt>
    <trkpt lat="38.622112982" lon="34.867434008">
      <ele>1188.919</ele>
      <time>2021-10-12T10:10:10Z</time>
    </trkpt>
    <trkpt lat="38.622118011" lon="34.867314985">
      <ele>1189.874</ele>
      <time>2021-10-12T10:10:13Z</time>
    </trkpt>
    <trkpt lat="38.62212698" lon="34.867282966">
      <ele>1190.151</ele>
      <time>2021-10-12T10:10:14Z</time>
    </trkpt>
    <trkpt lat="38.622146007" lon="34.867224041">
      <ele>1190.71</ele>
      <time>2021-10-12T10:10:16Z</time>
    </trkpt>
    <trkpt lat="38.622153969" lon="34.867198979">
      <ele>1190.901</ele>
      <time>2021-10-12T10:10:17Z</time>
    </trkpt>
    <trkpt lat="38.622158999" lon="34.867168972">
      <ele>1191.112</ele>
      <time>2021-10-12T10:10:17Z</time>
    </trkpt>
    <trkpt lat="38.622176014" lon="34.867109964">
      <ele>1191.575</ele>
      <time>2021-10-12T10:10:19Z</time>
    </trkpt>
    <trkpt lat="38.622180959" lon="34.867080962">
      <ele>1191.793</ele>
      <time>2021-10-12T10:10:20Z</time>
    </trkpt>
    <trkpt lat="38.622185988" lon="34.867053973">
      <ele>1192.002</ele>
      <time>2021-10-12T10:10:21Z</time>
    </trkpt>
    <trkpt lat="38.622190012" lon="34.86703">
      <ele>1192.188</ele>
      <time>2021-10-12T10:10:22Z</time>
    </trkpt>
    <trkpt lat="38.62219898" lon="34.867000999">
      <ele>1192.443</ele>
      <time>2021-10-12T10:10:23Z</time>
    </trkpt>
    <trkpt lat="38.622204009" lon="34.866973003">
      <ele>1192.67</ele>
      <time>2021-10-12T10:10:23Z</time>
    </trkpt>
    <trkpt lat="38.622211972" lon="34.866910977">
      <ele>1193.283</ele>
      <time>2021-10-12T10:10:25Z</time>
    </trkpt>
    <trkpt lat="38.62221499" lon="34.866881976">
      <ele>1193.617</ele>
      <time>2021-10-12T10:10:26Z</time>
    </trkpt>
    <trkpt lat="38.622213984" lon="34.866855992">
      <ele>1193.887</ele>
      <time>2021-10-12T10:10:27Z</time>
    </trkpt>
    <trkpt lat="38.62221499" lon="34.86683202">
      <ele>1194.152</ele>
      <time>2021-10-12T10:10:28Z</time>
    </trkpt>
    <trkpt lat="38.622211972" lon="34.866807042">
      <ele>1194.392</ele>
      <time>2021-10-12T10:10:28Z</time>
    </trkpt>
    <trkpt lat="38.622166039" lon="34.86669003">
      <ele>1195.158</ele>
      <time>2021-10-12T10:10:32Z</time>
    </trkpt>
    <trkpt lat="38.622145001" lon="34.866673015">
      <ele>1195.104</ele>
      <time>2021-10-12T10:10:33Z</time>
    </trkpt>
    <trkpt lat="38.622118011" lon="34.866660023">
      <ele>1194.922</ele>
      <time>2021-10-12T10:10:34Z</time>
    </trkpt>
    <trkpt lat="38.622067971" lon="34.866633033">
      <ele>1194.576</ele>
      <time>2021-10-12T10:10:36Z</time>
    </trkpt>
    <trkpt lat="38.622026984" lon="34.866562961">
      <ele>1194.638</ele>
      <time>2021-10-12T10:10:39Z</time>
    </trkpt>
    <trkpt lat="38.62202296" lon="34.866534965">
      <ele>1194.796</ele>
      <time>2021-10-12T10:10:39Z</time>
    </trkpt>
    <trkpt lat="38.622017009" lon="34.86650697">
      <ele>1194.934</ele>
      <time>2021-10-12T10:10:40Z</time>
    </trkpt>
    <trkpt lat="38.622016003" lon="34.866476962">
      <ele>1195.139</ele>
      <time>2021-10-12T10:10:41Z</time>
    </trkpt>
    <trkpt lat="38.622019021" lon="34.866449973">
      <ele>1195.366</ele>
      <time>2021-10-12T10:10:42Z</time>
    </trkpt>
    <trkpt lat="38.622021032" lon="34.866418038">
      <ele>1195.617</ele>
      <time>2021-10-12T10:10:43Z</time>
    </trkpt>
    <trkpt lat="38.622019021" lon="34.86638803">
      <ele>1195.817</ele>
      <time>2021-10-12T10:10:44Z</time>
    </trkpt>
    <trkpt lat="38.622012986" lon="34.866356011">
      <ele>1196.184</ele>
      <time>2021-10-12T10:10:45Z</time>
    </trkpt>
    <trkpt lat="38.622010974" lon="34.866324998">
      <ele>1196.583</ele>
      <time>2021-10-12T10:10:46Z</time>
    </trkpt>
    <trkpt lat="38.622010974" lon="34.866294991">
      <ele>1196.99</ele>
      <time>2021-10-12T10:10:46Z</time>
    </trkpt>
    <trkpt lat="38.622008963" lon="34.866256015">
      <ele>1197.499</ele>
      <time>2021-10-12T10:10:48Z</time>
    </trkpt>
    <trkpt lat="38.622004017" lon="34.866220979">
      <ele>1197.932</ele>
      <time>2021-10-12T10:10:49Z</time>
    </trkpt>
    <trkpt lat="38.622004017" lon="34.866183009">
      <ele>1198.449</ele>
      <time>2021-10-12T10:10:50Z</time>
    </trkpt>
    <trkpt lat="38.622028995" lon="34.866054012">
      <ele>1200.637</ele>
      <time>2021-10-12T10:10:54Z</time>
    </trkpt>
    <trkpt lat="38.622060008" lon="34.865932977">
      <ele>1203.038</ele>
      <time>2021-10-12T10:10:57Z</time>
    </trkpt>
    <trkpt lat="38.62206202" lon="34.865909005">
      <ele>1203.484</ele>
      <time>2021-10-12T10:10:58Z</time>
    </trkpt>
    <trkpt lat="38.622066965" lon="34.865882015">
      <ele>1204.006</ele>
      <time>2021-10-12T10:10:59Z</time>
    </trkpt>
    <trkpt lat="38.622069983" lon="34.86584899">
      <ele>1204.622</ele>
      <time>2021-10-12T10:11:00Z</time>
    </trkpt>
    <trkpt lat="38.622066965" lon="34.865818983">
      <ele>1205.095</ele>
      <time>2021-10-12T10:11:01Z</time>
    </trkpt>
    <trkpt lat="38.622065037" lon="34.865790987">
      <ele>1205.498</ele>
      <time>2021-10-12T10:11:01Z</time>
    </trkpt>
    <trkpt lat="38.62203503" lon="34.865680011">
      <ele>1207.052</ele>
      <time>2021-10-12T10:11:05Z</time>
    </trkpt>
    <trkpt lat="38.622013992" lon="34.865660984">
      <ele>1207.292</ele>
      <time>2021-10-12T10:11:06Z</time>
    </trkpt>
    <trkpt lat="38.621921958" lon="34.865622008">
      <ele>1207.823</ele>
      <time>2021-10-12T10:11:09Z</time>
    </trkpt>
    <trkpt lat="38.621830009" lon="34.865611028">
      <ele>1208.084</ele>
      <time>2021-10-12T10:11:13Z</time>
    </trkpt>
    <trkpt lat="38.621802013" lon="34.865607005">
      <ele>1208.169</ele>
      <time>2021-10-12T10:11:14Z</time>
    </trkpt>
    <trkpt lat="38.621774018" lon="34.865599964">
      <ele>1208.299</ele>
      <time>2021-10-12T10:11:15Z</time>
    </trkpt>
    <trkpt lat="38.621745016" lon="34.865589989">
      <ele>1208.469</ele>
      <time>2021-10-12T10:11:16Z</time>
    </trkpt>
    <trkpt lat="38.621715009" lon="34.865581021">
      <ele>1208.617</ele>
      <time>2021-10-12T10:11:17Z</time>
    </trkpt>
    <trkpt lat="38.621686008" lon="34.865570962">
      <ele>1208.774</ele>
      <time>2021-10-12T10:11:18Z</time>
    </trkpt>
    <trkpt lat="38.621656001" lon="34.865559982">
      <ele>1208.936</ele>
      <time>2021-10-12T10:11:19Z</time>
    </trkpt>
    <trkpt lat="38.621633034" lon="34.865533998">
      <ele>1209.146</ele>
      <time>2021-10-12T10:11:21Z</time>
    </trkpt>
    <trkpt lat="38.621569499" lon="34.865513043">
      <ele>1209.253</ele>
      <time>2021-10-12T10:11:23Z</time>
    </trkpt>
    <trkpt lat="38.621492637" lon="34.86549695">
      <ele>1209.29</ele>
      <time>2021-10-12T10:11:26Z</time>
    </trkpt>
    <trkpt lat="38.621415775" lon="34.865483874">
      <ele>1209.283</ele>
      <time>2021-10-12T10:11:29Z</time>
    </trkpt>
    <trkpt lat="38.621334387" lon="34.865465937">
      <ele>1209.057</ele>
      <time>2021-10-12T10:11:32Z</time>
    </trkpt>
    <trkpt lat="38.62126532" lon="34.865461327">
      <ele>1208.751</ele>
      <time>2021-10-12T10:11:34Z</time>
    </trkpt>
    <trkpt lat="38.621199857" lon="34.865454203">
      <ele>1208.5</ele>
      <time>2021-10-12T10:11:37Z</time>
    </trkpt>
    <trkpt lat="38.621128276" lon="34.865434589">
      <ele>1208.376</ele>
      <time>2021-10-12T10:11:40Z</time>
    </trkpt>
    <trkpt lat="38.621063232" lon="34.865422938">
      <ele>1207.915</ele>
      <time>2021-10-12T10:11:42Z</time>
    </trkpt>
    <trkpt lat="38.621020904" lon="34.865407012">
      <ele>1207.63</ele>
      <time>2021-10-12T10:11:44Z</time>
    </trkpt>
    <trkpt lat="38.620968768" lon="34.865375413">
      <ele>1207.408</ele>
      <time>2021-10-12T10:11:46Z</time>
    </trkpt>
    <trkpt lat="38.620926104" lon="34.865341634">
      <ele>1207.312</ele>
      <time>2021-10-12T10:11:48Z</time>
    </trkpt>
    <trkpt lat="38.620886039" lon="34.865305843">
      <ele>1207.266</ele>
      <time>2021-10-12T10:11:49Z</time>
    </trkpt>
    <trkpt lat="38.620844465" lon="34.865270639">
      <ele>1207.194</ele>
      <time>2021-10-12T10:11:51Z</time>
    </trkpt>
    <trkpt lat="38.620824097" lon="34.865232585">
      <ele>1207.388</ele>
      <time>2021-10-12T10:11:53Z</time>
    </trkpt>
    <trkpt lat="38.620795347" lon="34.865188161">
      <ele>1207.558</ele>
      <time>2021-10-12T10:11:54Z</time>
    </trkpt>
    <trkpt lat="38.620751007" lon="34.865150023">
      <ele>1207.491</ele>
      <time>2021-10-12T10:11:56Z</time>
    </trkpt>
    <trkpt lat="38.620712282" lon="34.865133427">
      <ele>1207.252</ele>
      <time>2021-10-12T10:11:58Z</time>
    </trkpt>
    <trkpt lat="38.620666685" lon="34.86512932">
      <ele>1206.804</ele>
      <time>2021-10-12T10:11:59Z</time>
    </trkpt>
    <trkpt lat="38.620610526" lon="34.865132924">
      <ele>1206.158</ele>
      <time>2021-10-12T10:12:02Z</time>
    </trkpt>
    <trkpt lat="38.620553864" lon="34.865148095">
      <ele>1205.385</ele>
      <time>2021-10-12T10:12:04Z</time>
    </trkpt>
    <trkpt lat="38.620502232" lon="34.8651719">
      <ele>1204.641</ele>
      <time>2021-10-12T10:12:06Z</time>
    </trkpt>
    <trkpt lat="38.620450012" lon="34.865207523">
      <ele>1203.715</ele>
      <time>2021-10-12T10:12:08Z</time>
    </trkpt>
    <trkpt lat="38.620407348" lon="34.865226215">
      <ele>1203.055</ele>
      <time>2021-10-12T10:12:10Z</time>
    </trkpt>
    <trkpt lat="38.620351693" lon="34.865255468">
      <ele>1202.098</ele>
      <time>2021-10-12T10:12:12Z</time>
    </trkpt>
    <trkpt lat="38.620308191" lon="34.865266448">
      <ele>1201.487</ele>
      <time>2021-10-12T10:12:13Z</time>
    </trkpt>
    <trkpt lat="38.62025178" lon="34.865285475">
      <ele>1200.581</ele>
      <time>2021-10-12T10:12:16Z</time>
    </trkpt>
    <trkpt lat="38.620191934" lon="34.865292935">
      <ele>1199.8</ele>
      <time>2021-10-12T10:12:18Z</time>
    </trkpt>
    <trkpt lat="38.620146001" lon="34.865294443">
      <ele>1199.277</ele>
      <time>2021-10-12T10:12:19Z</time>
    </trkpt>
    <trkpt lat="38.620098559" lon="34.865289163">
      <ele>1198.86</ele>
      <time>2021-10-12T10:12:21Z</time>
    </trkpt>
    <trkpt lat="38.620048435" lon="34.865291175">
      <ele>1198.282</ele>
      <time>2021-10-12T10:12:23Z</time>
    </trkpt>
    <trkpt lat="38.620013231" lon="34.865282709">
      <ele>1198.054</ele>
      <time>2021-10-12T10:12:24Z</time>
    </trkpt>
    <trkpt lat="38.619969646" lon="34.865282038">
      <ele>1197.595</ele>
      <time>2021-10-12T10:12:26Z</time>
    </trkpt>
    <trkpt lat="38.619919186" lon="34.865272986">
      <ele>1197.226</ele>
      <time>2021-10-12T10:12:28Z</time>
    </trkpt>
    <trkpt lat="38.619874427" lon="34.865267202">
      <ele>1196.855</ele>
      <time>2021-10-12T10:12:30Z</time>
    </trkpt>
    <trkpt lat="38.619826231" lon="34.865268962">
      <ele>1196.294</ele>
      <time>2021-10-12T10:12:31Z</time>
    </trkpt>
    <trkpt lat="38.619770408" lon="34.865268962">
      <ele>1195.685</ele>
      <time>2021-10-12T10:12:33Z</time>
    </trkpt>
    <trkpt lat="38.619715506" lon="34.865271393">
      <ele>1195.041</ele>
      <time>2021-10-12T10:12:35Z</time>
    </trkpt>
    <trkpt lat="38.619667562" lon="34.865265777">
      <ele>1194.609</ele>
      <time>2021-10-12T10:12:37Z</time>
    </trkpt>
    <trkpt lat="38.619634369" lon="34.865263598">
      <ele>1194.274</ele>
      <time>2021-10-12T10:12:38Z</time>
    </trkpt>
    <trkpt lat="38.619601596" lon="34.865263766">
      <ele>1193.906</ele>
      <time>2021-10-12T10:12:40Z</time>
    </trkpt>
    <trkpt lat="38.619547952" lon="34.865279188">
      <ele>1193.092</ele>
      <time>2021-10-12T10:12:42Z</time>
    </trkpt>
    <trkpt lat="38.619495984" lon="34.865270974">
      <ele>1192.639</ele>
      <time>2021-10-12T10:12:44Z</time>
    </trkpt>
    <trkpt lat="38.619458014" lon="34.865264017">
      <ele>1192.3</ele>
      <time>2021-10-12T10:12:45Z</time>
    </trkpt>
    <trkpt lat="38.619418032" lon="34.865253037">
      <ele>1191.593</ele>
      <time>2021-10-12T10:12:47Z</time>
    </trkpt>
    <trkpt lat="38.619376039" lon="34.865237027">
      <ele>1190.68</ele>
      <time>2021-10-12T10:12:48Z</time>
    </trkpt>
    <trkpt lat="38.619339997" lon="34.865221018">
      <ele>1189.904</ele>
      <time>2021-10-12T10:12:50Z</time>
    </trkpt>
    <trkpt lat="38.619303033" lon="34.865206014">
      <ele>1189.08</ele>
      <time>2021-10-12T10:12:51Z</time>
    </trkpt>
    <trkpt lat="38.619264979" lon="34.865192017">
      <ele>1188.204</ele>
      <time>2021-10-12T10:12:53Z</time>
    </trkpt>
    <trkpt lat="38.619144028" lon="34.865235016">
      <ele>1184.656</ele>
      <time>2021-10-12T10:12:57Z</time>
    </trkpt>
    <trkpt lat="38.619114021" lon="34.865267035">
      <ele>1183.561</ele>
      <time>2021-10-12T10:12:59Z</time>
    </trkpt>
    <trkpt lat="38.61907999" lon="34.865374994">
      <ele>1181.563</ele>
      <time>2021-10-12T10:13:02Z</time>
    </trkpt>
    <trkpt lat="38.619100023" lon="34.86543199">
      <ele>1181.548</ele>
      <time>2021-10-12T10:13:04Z</time>
    </trkpt>
    <trkpt lat="38.619108992" lon="34.865484964">
      <ele>1181.256</ele>
      <time>2021-10-12T10:13:05Z</time>
    </trkpt>
    <trkpt lat="38.619122989" lon="34.86553601">
      <ele>1181.099</ele>
      <time>2021-10-12T10:13:07Z</time>
    </trkpt>
    <trkpt lat="38.61913003" lon="34.865585966">
      <ele>1180.734</ele>
      <time>2021-10-12T10:13:08Z</time>
    </trkpt>
    <trkpt lat="38.619141011" lon="34.865629971">
      <ele>1180.525</ele>
      <time>2021-10-12T10:13:10Z</time>
    </trkpt>
    <trkpt lat="38.619149979" lon="34.865679005">
      <ele>1180.22</ele>
      <time>2021-10-12T10:13:11Z</time>
    </trkpt>
    <trkpt lat="38.619161965" lon="34.86572301">
      <ele>1180.063</ele>
      <time>2021-10-12T10:13:13Z</time>
    </trkpt>
    <trkpt lat="38.619172024" lon="34.865769027">
      <ele>1179.761</ele>
      <time>2021-10-12T10:13:14Z</time>
    </trkpt>
    <trkpt lat="38.619216029" lon="34.865890983">
      <ele>1178.532</ele>
      <time>2021-10-12T10:13:18Z</time>
    </trkpt>
    <trkpt lat="38.619260034" lon="34.866015036">
      <ele>1176.958</ele>
      <time>2021-10-12T10:13:22Z</time>
    </trkpt>
    <trkpt lat="38.619355862" lon="34.866140867">
      <ele>1176.296</ele>
      <time>2021-10-12T10:13:27Z</time>
    </trkpt>
    <trkpt lat="38.61946244" lon="34.866285123">
      <ele>1175.583</ele>
      <time>2021-10-12T10:13:33Z</time>
    </trkpt>
    <trkpt lat="38.619435847" lon="34.866345162">
      <ele>1174.506</ele>
      <time>2021-10-12T10:13:35Z</time>
    </trkpt>
    <trkpt lat="38.619351862" lon="34.866366586">
      <ele>1172.988</ele>
      <time>2021-10-12T10:13:38Z</time>
    </trkpt>
    <trkpt lat="38.619303369" lon="34.866340376">
      <ele>1172.667</ele>
      <time>2021-10-12T10:13:40Z</time>
    </trkpt>
    <trkpt lat="38.619263406" lon="34.866313893">
      <ele>1172.473</ele>
      <time>2021-10-12T10:13:41Z</time>
    </trkpt>
    <trkpt lat="38.61923424" lon="34.866396496">
      <ele>1170.905</ele>
      <time>2021-10-12T10:13:44Z</time>
    </trkpt>
    <trkpt lat="38.619178298" lon="34.866472762">
      <ele>1169.538</ele>
      <time>2021-10-12T10:13:47Z</time>
    </trkpt>
    <trkpt lat="38.619164564" lon="34.866523972">
      <ele>1169.008</ele>
      <time>2021-10-12T10:13:49Z</time>
    </trkpt>
    <trkpt lat="38.619176969" lon="34.866548041">
      <ele>1168.96</ele>
      <time>2021-10-12T10:13:50Z</time>
    </trkpt>
    <trkpt lat="38.619162971" lon="34.866664968">
      <ele>1168.012</ele>
      <time>2021-10-12T10:13:53Z</time>
    </trkpt>
    <trkpt lat="38.619097006" lon="34.86674401">
      <ele>1169.045</ele>
      <time>2021-10-12T10:13:56Z</time>
    </trkpt>
    <trkpt lat="38.619002961" lon="34.866839983">
      <ele>1170.975</ele>
      <time>2021-10-12T10:14:01Z</time>
    </trkpt>
    <trkpt lat="38.618884021" lon="34.866835959">
      <ele>1171.794</ele>
      <time>2021-10-12T10:14:05Z</time>
    </trkpt>
    <trkpt lat="38.618789976" lon="34.866728">
      <ele>1171.697</ele>
      <time>2021-10-12T10:14:10Z</time>
    </trkpt>
    <trkpt lat="38.618754018" lon="34.866610989">
      <ele>1169.825</ele>
      <time>2021-10-12T10:14:14Z</time>
    </trkpt>
    <trkpt lat="38.61877799" lon="34.866464976">
      <ele>1166.768</ele>
      <time>2021-10-12T10:14:18Z</time>
    </trkpt>
    <trkpt lat="38.618801963" lon="34.86632701">
      <ele>1165.257</ele>
      <time>2021-10-12T10:14:22Z</time>
    </trkpt>
    <trkpt lat="38.618830964" lon="34.866165994">
      <ele>1165.342</ele>
      <time>2021-10-12T10:14:27Z</time>
    </trkpt>
    <trkpt lat="38.618863989" lon="34.866024004">
      <ele>1167.215</ele>
      <time>2021-10-12T10:14:31Z</time>
    </trkpt>
    <trkpt lat="38.618809003" lon="34.865929959">
      <ele>1167.835</ele>
      <time>2021-10-12T10:14:34Z</time>
    </trkpt>
    <trkpt lat="38.618703978" lon="34.865887966">
      <ele>1166.415</ele>
      <time>2021-10-12T10:14:39Z</time>
    </trkpt>
    <trkpt lat="38.618598031" lon="34.86582703">
      <ele>1165.203</ele>
      <time>2021-10-12T10:14:43Z</time>
    </trkpt>
    <trkpt lat="38.618496023" lon="34.865751006">
      <ele>1166.395</ele>
      <time>2021-10-12T10:14:47Z</time>
    </trkpt>
    <trkpt lat="38.618400972" lon="34.865640029">
      <ele>1166.199</ele>
      <time>2021-10-12T10:14:52Z</time>
    </trkpt>
    <trkpt lat="38.618331989" lon="34.865512038">
      <ele>1164.899</ele>
      <time>2021-10-12T10:14:56Z</time>
    </trkpt>
    <trkpt lat="38.618264012" lon="34.865395026">
      <ele>1166.224</ele>
      <time>2021-10-12T10:15:01Z</time>
    </trkpt>
    <trkpt lat="38.618243979" lon="34.865357978">
      <ele>1166.182</ele>
      <time>2021-10-12T10:15:02Z</time>
    </trkpt>
    <trkpt lat="38.61822797" lon="34.865312967">
      <ele>1165.745</ele>
      <time>2021-10-12T10:15:03Z</time>
    </trkpt>
    <trkpt lat="38.618219001" lon="34.865264017">
      <ele>1165.112</ele>
      <time>2021-10-12T10:15:05Z</time>
    </trkpt>
    <trkpt lat="38.618209027" lon="34.865214983">
      <ele>1164.736</ele>
      <time>2021-10-12T10:15:06Z</time>
    </trkpt>
    <trkpt lat="38.618202992" lon="34.865165027">
      <ele>1164.265</ele>
      <time>2021-10-12T10:15:08Z</time>
    </trkpt>
    <trkpt lat="38.618168961" lon="34.865031">
      <ele>1162.621</ele>
      <time>2021-10-12T10:15:12Z</time>
    </trkpt>
    <trkpt lat="38.61812898" lon="34.864918012">
      <ele>1161.715</ele>
      <time>2021-10-12T10:15:16Z</time>
    </trkpt>
    <trkpt lat="38.618039042" lon="34.864808042">
      <ele>1161.988</ele>
      <time>2021-10-12T10:15:20Z</time>
    </trkpt>
    <trkpt lat="38.617978022" lon="34.864701005">
      <ele>1165.533</ele>
      <time>2021-10-12T10:15:24Z</time>
    </trkpt>
    <trkpt lat="38.617926976" lon="34.864546023">
      <ele>1168.5</ele>
      <time>2021-10-12T10:15:29Z</time>
    </trkpt>
    <trkpt lat="38.617915995" lon="34.864439992">
      <ele>1169.005</ele>
      <time>2021-10-12T10:15:32Z</time>
    </trkpt>
    <trkpt lat="38.617911972" lon="34.86438903">
      <ele>1168.88</ele>
      <time>2021-10-12T10:15:33Z</time>
    </trkpt>
    <trkpt lat="38.617904009" lon="34.864252992">
      <ele>1168.293</ele>
      <time>2021-10-12T10:15:37Z</time>
    </trkpt>
    <trkpt lat="38.617901998" lon="34.864117038">
      <ele>1167.825</ele>
      <time>2021-10-12T10:15:41Z</time>
    </trkpt>
    <trkpt lat="38.617882971" lon="34.863978988">
      <ele>1168.198</ele>
      <time>2021-10-12T10:15:45Z</time>
    </trkpt>
    <trkpt lat="38.617852964" lon="34.863858959">
      <ele>1168.517</ele>
      <time>2021-10-12T10:15:49Z</time>
    </trkpt>
    <trkpt lat="38.617814993" lon="34.863738008">
      <ele>1168.878</ele>
      <time>2021-10-12T10:15:53Z</time>
    </trkpt>
    <trkpt lat="38.617776018" lon="34.863603981">
      <ele>1169.108</ele>
      <time>2021-10-12T10:15:57Z</time>
    </trkpt>
    <trkpt lat="38.617791021" lon="34.863460986">
      <ele>1170.081</ele>
      <time>2021-10-12T10:16:01Z</time>
    </trkpt>
    <trkpt lat="38.617824968" lon="34.863353027">
      <ele>1170.858</ele>
      <time>2021-10-12T10:16:05Z</time>
    </trkpt>
    <trkpt lat="38.617843995" lon="34.863227969">
      <ele>1172.138</ele>
      <time>2021-10-12T10:16:08Z</time>
    </trkpt>
    <trkpt lat="38.617853969" lon="34.863111041">
      <ele>1173.401</ele>
      <time>2021-10-12T10:16:12Z</time>
    </trkpt>
    <trkpt lat="38.617847012" lon="34.862980032">
      <ele>1174.34</ele>
      <time>2021-10-12T10:16:16Z</time>
    </trkpt>
    <trkpt lat="38.617860004" lon="34.862831002">
      <ele>1175.048</ele>
      <time>2021-10-12T10:16:20Z</time>
    </trkpt>
    <trkpt lat="38.617846007" lon="34.862683984">
      <ele>1175.329</ele>
      <time>2021-10-12T10:16:24Z</time>
    </trkpt>
    <trkpt lat="38.617786998" lon="34.862587005">
      <ele>1175.056</ele>
      <time>2021-10-12T10:16:28Z</time>
    </trkpt>
    <trkpt lat="38.61771198" lon="34.862469994">
      <ele>1176.236</ele>
      <time>2021-10-12T10:16:32Z</time>
    </trkpt>
    <trkpt lat="38.617641991" lon="34.862376032">
      <ele>1176.832</ele>
      <time>2021-10-12T10:16:36Z</time>
    </trkpt>
    <trkpt lat="38.617533026" lon="34.862320041">
      <ele>1177.926</ele>
      <time>2021-10-12T10:16:40Z</time>
    </trkpt>
    <trkpt lat="38.617439987" lon="34.862222979">
      <ele>1178.74</ele>
      <time>2021-10-12T10:16:45Z</time>
    </trkpt>
    <trkpt lat="38.617373016" lon="34.862114014">
      <ele>1178.387</ele>
      <time>2021-10-12T10:16:49Z</time>
    </trkpt>
    <trkpt lat="38.617322976" lon="34.862001026">
      <ele>1176.883</ele>
      <time>2021-10-12T10:16:52Z</time>
    </trkpt>
    <trkpt lat="38.617251981" lon="34.861893989">
      <ele>1175.702</ele>
      <time>2021-10-12T10:16:57Z</time>
    </trkpt>
    <trkpt lat="38.617172018" lon="34.861808997">
      <ele>1175.92</ele>
      <time>2021-10-12T10:17:00Z</time>
    </trkpt>
    <trkpt lat="38.617102029" lon="34.861724004">
      <ele>1176.15</ele>
      <time>2021-10-12T10:17:04Z</time>
    </trkpt>
    <trkpt lat="38.617015025" lon="34.861624008">
      <ele>1176.878</ele>
      <time>2021-10-12T10:17:08Z</time>
    </trkpt>
    <trkpt lat="38.616932966" lon="34.861517977">
      <ele>1177.537</ele>
      <time>2021-10-12T10:17:13Z</time>
    </trkpt>
    <trkpt lat="38.616870018" lon="34.86142301">
      <ele>1177.205</ele>
      <time>2021-10-12T10:17:16Z</time>
    </trkpt>
    <trkpt lat="38.61680598" lon="34.861329971">
      <ele>1177.178</ele>
      <time>2021-10-12T10:17:20Z</time>
    </trkpt>
    <trkpt lat="38.616744038" lon="34.861240033">
      <ele>1177.242</ele>
      <time>2021-10-12T10:17:23Z</time>
    </trkpt>
    <trkpt lat="38.616670026" lon="34.861157974">
      <ele>1177.311</ele>
      <time>2021-10-12T10:17:27Z</time>
    </trkpt>
    <trkpt lat="38.616589978" lon="34.861096032">
      <ele>1177.315</ele>
      <time>2021-10-12T10:17:30Z</time>
    </trkpt>
    <trkpt lat="38.616480008" lon="34.86104398">
      <ele>1177.751</ele>
      <time>2021-10-12T10:17:35Z</time>
    </trkpt>
    <trkpt lat="38.616372971" lon="34.861015985">
      <ele>1177.982</ele>
      <time>2021-10-12T10:17:39Z</time>
    </trkpt>
    <trkpt lat="38.616264006" lon="34.861007016">
      <ele>1177.887</ele>
      <time>2021-10-12T10:17:43Z</time>
    </trkpt>
    <trkpt lat="38.616159987" lon="34.861001987">
      <ele>1177.823</ele>
      <time>2021-10-12T10:17:47Z</time>
    </trkpt>
    <trkpt lat="38.616064014" lon="34.860990001">
      <ele>1178.063</ele>
      <time>2021-10-12T10:17:50Z</time>
    </trkpt>
    <trkpt lat="38.615961" lon="34.860985978">
      <ele>1178.495</ele>
      <time>2021-10-12T10:17:54Z</time>
    </trkpt>
    <trkpt lat="38.615842983" lon="34.861012967">
      <ele>1178.955</ele>
      <time>2021-10-12T10:17:58Z</time>
    </trkpt>
    <trkpt lat="38.615722032" lon="34.861029983">
      <ele>1179.284</ele>
      <time>2021-10-12T10:18:03Z</time>
    </trkpt>
    <trkpt lat="38.61561399" lon="34.860997964">
      <ele>1179.468</ele>
      <time>2021-10-12T10:18:07Z</time>
    </trkpt>
    <trkpt lat="38.615518017" lon="34.86090702">
      <ele>1179.643</ele>
      <time>2021-10-12T10:18:12Z</time>
    </trkpt>
    <trkpt lat="38.61544501" lon="34.860809036">
      <ele>1179.691</ele>
      <time>2021-10-12T10:18:15Z</time>
    </trkpt>
    <trkpt lat="38.615381978" lon="34.860714991">
      <ele>1179.451</ele>
      <time>2021-10-12T10:18:19Z</time>
    </trkpt>
    <trkpt lat="38.61531199" lon="34.860625975">
      <ele>1178.79</ele>
      <time>2021-10-12T10:18:23Z</time>
    </trkpt>
    <trkpt lat="38.615225991" lon="34.860544">
      <ele>1177.764</ele>
      <time>2021-10-12T10:18:27Z</time>
    </trkpt>
    <trkpt lat="38.615149967" lon="34.860469988">
      <ele>1177.09</ele>
      <time>2021-10-12T10:18:30Z</time>
    </trkpt>
    <trkpt lat="38.615082996" lon="34.860380972">
      <ele>1176.23</ele>
      <time>2021-10-12T10:18:34Z</time>
    </trkpt>
    <trkpt lat="38.615019964" lon="34.86027603">
      <ele>1175.127</ele>
      <time>2021-10-12T10:18:38Z</time>
    </trkpt>
    <trkpt lat="38.614955004" lon="34.86016497">
      <ele>1173.488</ele>
      <time>2021-10-12T10:18:42Z</time>
    </trkpt>
    <trkpt lat="38.614883004" lon="34.860062962">
      <ele>1171.607</ele>
      <time>2021-10-12T10:18:46Z</time>
    </trkpt>
    <trkpt lat="38.614814021" lon="34.859944023">
      <ele>1170.394</ele>
      <time>2021-10-12T10:18:50Z</time>
    </trkpt>
    <trkpt lat="38.614789965" lon="34.85991301">
      <ele>1170.358</ele>
      <time>2021-10-12T10:18:51Z</time>
    </trkpt>
    <trkpt lat="38.614726011" lon="34.859832041">
      <ele>1170.25</ele>
      <time>2021-10-12T10:18:55Z</time>
    </trkpt>
    <trkpt lat="38.614629032" lon="34.859755011">
      <ele>1170.468</ele>
      <time>2021-10-12T10:18:59Z</time>
    </trkpt>
    <trkpt lat="38.614518978" lon="34.859776972">
      <ele>1170.018</ele>
      <time>2021-10-12T10:19:03Z</time>
    </trkpt>
    <trkpt lat="38.614400038" lon="34.859807985">
      <ele>1169.9</ele>
      <time>2021-10-12T10:19:07Z</time>
    </trkpt>
    <trkpt lat="38.614285961" lon="34.859820977">
      <ele>1170.418</ele>
      <time>2021-10-12T10:19:12Z</time>
    </trkpt>
    <trkpt lat="38.614193005" lon="34.859883003">
      <ele>1170.85</ele>
      <time>2021-10-12T10:19:15Z</time>
    </trkpt>
    <trkpt lat="38.614094015" lon="34.859927008">
      <ele>1172.625</ele>
      <time>2021-10-12T10:19:19Z</time>
    </trkpt>
    <trkpt lat="38.613995025" lon="34.859961038">
      <ele>1175.065</ele>
      <time>2021-10-12T10:19:23Z</time>
    </trkpt>
    <trkpt lat="38.613962" lon="34.859969001">
      <ele>1175.911</ele>
      <time>2021-10-12T10:19:24Z</time>
    </trkpt>
    <trkpt lat="38.613865022" lon="34.859976964">
      <ele>1178.081</ele>
      <time>2021-10-12T10:19:28Z</time>
    </trkpt>
    <trkpt lat="38.613753039" lon="34.859963972">
      <ele>1179.44</ele>
      <time>2021-10-12T10:19:32Z</time>
    </trkpt>
    <trkpt lat="38.613647008" lon="34.859952992">
      <ele>1180.681</ele>
      <time>2021-10-12T10:19:36Z</time>
    </trkpt>
    <trkpt lat="38.613563022" lon="34.859901024">
      <ele>1180.218</ele>
      <time>2021-10-12T10:19:40Z</time>
    </trkpt>
    <trkpt lat="38.613457996" lon="34.85983598">
      <ele>1179.048</ele>
      <time>2021-10-12T10:19:44Z</time>
    </trkpt>
    <trkpt lat="38.613362024" lon="34.859794993">
      <ele>1178.31</ele>
      <time>2021-10-12T10:19:48Z</time>
    </trkpt>
    <trkpt lat="38.61325901" lon="34.859751994">
      <ele>1177.622</ele>
      <time>2021-10-12T10:19:52Z</time>
    </trkpt>
    <trkpt lat="38.613169994" lon="34.859725004">
      <ele>1177.068</ele>
      <time>2021-10-12T10:19:55Z</time>
    </trkpt>
    <trkpt lat="38.613063041" lon="34.859694997">
      <ele>1176.804</ele>
      <time>2021-10-12T10:19:59Z</time>
    </trkpt>
    <trkpt lat="38.612961033" lon="34.859671025">
      <ele>1178.145</ele>
      <time>2021-10-12T10:20:03Z</time>
    </trkpt>
    <trkpt lat="38.612853996" lon="34.859631965">
      <ele>1179.271</ele>
      <time>2021-10-12T10:20:07Z</time>
    </trkpt>
    <trkpt lat="38.612760035" lon="34.859586032">
      <ele>1179.902</ele>
      <time>2021-10-12T10:20:11Z</time>
    </trkpt>
    <trkpt lat="38.612662973" lon="34.859511014">
      <ele>1180.149</ele>
      <time>2021-10-12T10:20:15Z</time>
    </trkpt>
    <trkpt lat="38.612572029" lon="34.859421998">
      <ele>1179.804</ele>
      <time>2021-10-12T10:20:19Z</time>
    </trkpt>
    <trkpt lat="38.61248997" lon="34.859354021">
      <ele>1180.012</ele>
      <time>2021-10-12T10:20:23Z</time>
    </trkpt>
    <trkpt lat="38.61239098" lon="34.859291995">
      <ele>1179.138</ele>
      <time>2021-10-12T10:20:27Z</time>
    </trkpt>
    <trkpt lat="38.61230297" lon="34.859226029">
      <ele>1178.083</ele>
      <time>2021-10-12T10:20:31Z</time>
    </trkpt>
    <trkpt lat="38.612217978" lon="34.859158974">
      <ele>1177.003</ele>
      <time>2021-10-12T10:20:34Z</time>
    </trkpt>
    <trkpt lat="38.612120999" lon="34.859110024">
      <ele>1177.525</ele>
      <time>2021-10-12T10:20:38Z</time>
    </trkpt>
    <trkpt lat="38.61201304" lon="34.859038023">
      <ele>1178.043</ele>
      <time>2021-10-12T10:20:43Z</time>
    </trkpt>
    <trkpt lat="38.61193601" lon="34.858926963">
      <ele>1178.219</ele>
      <time>2021-10-12T10:20:47Z</time>
    </trkpt>
    <trkpt lat="38.611916984" lon="34.858786985">
      <ele>1178.125</ele>
      <time>2021-10-12T10:20:51Z</time>
    </trkpt>
    <trkpt lat="38.611870967" lon="34.858665029">
      <ele>1178.103</ele>
      <time>2021-10-12T10:20:55Z</time>
    </trkpt>
    <trkpt lat="38.611808019" lon="34.858570984">
      <ele>1178.221</ele>
      <time>2021-10-12T10:20:59Z</time>
    </trkpt>
    <trkpt lat="38.611727972" lon="34.858490014">
      <ele>1178.289</ele>
      <time>2021-10-12T10:21:02Z</time>
    </trkpt>
    <trkpt lat="38.611628981" lon="34.858422959">
      <ele>1178.131</ele>
      <time>2021-10-12T10:21:07Z</time>
    </trkpt>
    <trkpt lat="38.61152404" lon="34.858382978">
      <ele>1178.275</ele>
      <time>2021-10-12T10:21:11Z</time>
    </trkpt>
    <trkpt lat="38.611424966" lon="34.858349031">
      <ele>1178.148</ele>
      <time>2021-10-12T10:21:14Z</time>
    </trkpt>
    <trkpt lat="38.611323964" lon="34.858348025">
      <ele>1178.626</ele>
      <time>2021-10-12T10:21:18Z</time>
    </trkpt>
    <trkpt lat="38.61120997" lon="34.858364034">
      <ele>1179.62</ele>
      <time>2021-10-12T10:21:22Z</time>
    </trkpt>
    <trkpt lat="38.611115003" lon="34.858355988">
      <ele>1180.217</ele>
      <time>2021-10-12T10:21:26Z</time>
    </trkpt>
    <trkpt lat="38.611006038" lon="34.858357999">
      <ele>1181.813</ele>
      <time>2021-10-12T10:21:30Z</time>
    </trkpt>
    <trkpt lat="38.610906964" lon="34.858342996">
      <ele>1183.07</ele>
      <time>2021-10-12T10:21:34Z</time>
    </trkpt>
    <trkpt lat="38.610807974" lon="34.858322041">
      <ele>1184.28</ele>
      <time>2021-10-12T10:21:37Z</time>
    </trkpt>
    <trkpt lat="38.61069398" lon="34.858297985">
      <ele>1185.688</ele>
      <time>2021-10-12T10:21:42Z</time>
    </trkpt>
    <trkpt lat="38.610588033" lon="34.858268984">
      <ele>1186.864</ele>
      <time>2021-10-12T10:21:46Z</time>
    </trkpt>
    <trkpt lat="38.610482002" lon="34.858247023">
      <ele>1188.145</ele>
      <time>2021-10-12T10:21:50Z</time>
    </trkpt>
    <trkpt lat="38.610392986" lon="34.858182985">
      <ele>1188.352</ele>
      <time>2021-10-12T10:21:53Z</time>
    </trkpt>
    <trkpt lat="38.610348981" lon="34.858051976">
      <ele>1186.442</ele>
      <time>2021-10-12T10:21:58Z</time>
    </trkpt>
    <trkpt lat="38.610321991" lon="34.857898001">
      <ele>1184.593</ele>
      <time>2021-10-12T10:22:02Z</time>
    </trkpt>
    <trkpt lat="38.610340012" lon="34.857752994">
      <ele>1183.06</ele>
      <time>2021-10-12T10:22:06Z</time>
    </trkpt>
    <trkpt lat="38.610363984" lon="34.857617039">
      <ele>1183.539</ele>
      <time>2021-10-12T10:22:10Z</time>
    </trkpt>
    <trkpt lat="38.610375971" lon="34.85748997">
      <ele>1184.254</ele>
      <time>2021-10-12T10:22:14Z</time>
    </trkpt>
    <trkpt lat="38.610399021" lon="34.857362984">
      <ele>1186.991</ele>
      <time>2021-10-12T10:22:18Z</time>
    </trkpt>
    <trkpt lat="38.610359039" lon="34.857235998">
      <ele>1188.908</ele>
      <time>2021-10-12T10:22:22Z</time>
    </trkpt>
    <trkpt lat="38.610263988" lon="34.857214959">
      <ele>1188.081</ele>
      <time>2021-10-12T10:22:25Z</time>
    </trkpt>
    <trkpt lat="38.610146977" lon="34.857222">
      <ele>1187.063</ele>
      <time>2021-10-12T10:22:30Z</time>
    </trkpt>
    <trkpt lat="38.610114036" lon="34.857227029">
      <ele>1186.765</ele>
      <time>2021-10-12T10:22:31Z</time>
    </trkpt>
    <trkpt lat="38.610077994" lon="34.857237004">
      <ele>1186.41</ele>
      <time>2021-10-12T10:22:32Z</time>
    </trkpt>
    <trkpt lat="38.610043041" lon="34.857249996">
      <ele>1186.063</ele>
      <time>2021-10-12T10:22:34Z</time>
    </trkpt>
    <trkpt lat="38.610012028" lon="34.857262988">
      <ele>1185.774</ele>
      <time>2021-10-12T10:22:35Z</time>
    </trkpt>
    <trkpt lat="38.609981015" lon="34.857273968">
      <ele>1185.61</ele>
      <time>2021-10-12T10:22:36Z</time>
    </trkpt>
    <trkpt lat="38.609946985" lon="34.857284026">
      <ele>1185.534</ele>
      <time>2021-10-12T10:22:37Z</time>
    </trkpt>
    <trkpt lat="38.60991396" lon="34.857300036">
      <ele>1185.477</ele>
      <time>2021-10-12T10:22:39Z</time>
    </trkpt>
    <trkpt lat="38.609884959" lon="34.85731001">
      <ele>1185.477</ele>
      <time>2021-10-12T10:22:40Z</time>
    </trkpt>
    <trkpt lat="38.609858975" lon="34.857316967">
      <ele>1185.503</ele>
      <time>2021-10-12T10:22:41Z</time>
    </trkpt>
    <trkpt lat="38.609769037" lon="34.857338006">
      <ele>1185.721</ele>
      <time>2021-10-12T10:22:44Z</time>
    </trkpt>
    <trkpt lat="38.609660994" lon="34.857354015">
      <ele>1186.494</ele>
      <time>2021-10-12T10:22:48Z</time>
    </trkpt>
    <trkpt lat="38.609551024" lon="34.857350998">
      <ele>1187.446</ele>
      <time>2021-10-12T10:22:52Z</time>
    </trkpt>
    <trkpt lat="38.609450022" lon="34.857352003">
      <ele>1188.352</ele>
      <time>2021-10-12T10:22:56Z</time>
    </trkpt>
    <trkpt lat="38.60933301" lon="34.857358038">
      <ele>1191.266</ele>
      <time>2021-10-12T10:23:00Z</time>
    </trkpt>
    <trkpt lat="38.60923796" lon="34.85732602">
      <ele>1193.137</ele>
      <time>2021-10-12T10:23:04Z</time>
    </trkpt>
    <trkpt lat="38.609178029" lon="34.857240021">
      <ele>1193.07</ele>
      <time>2021-10-12T10:23:07Z</time>
    </trkpt>
    <trkpt lat="38.609125977" lon="34.857079005">
      <ele>1192.251</ele>
      <time>2021-10-12T10:23:12Z</time>
    </trkpt>
    <trkpt lat="38.609102005" lon="34.85693098">
      <ele>1190.683</ele>
      <time>2021-10-12T10:23:17Z</time>
    </trkpt>
    <trkpt lat="38.609109968" lon="34.856789997">
      <ele>1188.624</ele>
      <time>2021-10-12T10:23:21Z</time>
    </trkpt>
    <trkpt lat="38.609096976" lon="34.856657982">
      <ele>1187.309</ele>
      <time>2021-10-12T10:23:25Z</time>
    </trkpt>
    <trkpt lat="38.609055988" lon="34.856555974">
      <ele>1188.394</ele>
      <time>2021-10-12T10:23:28Z</time>
    </trkpt>
    <trkpt lat="38.608995974" lon="34.856434017">
      <ele>1189.012</ele>
      <time>2021-10-12T10:23:32Z</time>
    </trkpt>
    <trkpt lat="38.608920034" lon="34.856343996">
      <ele>1189.359</ele>
      <time>2021-10-12T10:23:36Z</time>
    </trkpt>
    <trkpt lat="38.608823977" lon="34.856303008">
      <ele>1189.869</ele>
      <time>2021-10-12T10:23:40Z</time>
    </trkpt>
    <trkpt lat="38.60872197" lon="34.856295967">
      <ele>1190.268</ele>
      <time>2021-10-12T10:23:44Z</time>
    </trkpt>
    <trkpt lat="38.608617028" lon="34.856286999">
      <ele>1190.614</ele>
      <time>2021-10-12T10:23:48Z</time>
    </trkpt>
    <trkpt lat="38.608516026" lon="34.856256992">
      <ele>1191.244</ele>
      <time>2021-10-12T10:23:51Z</time>
    </trkpt>
    <trkpt lat="38.608446959" lon="34.856236037">
      <ele>1191.513</ele>
      <time>2021-10-12T10:23:54Z</time>
    </trkpt>
    <trkpt lat="38.608407984" lon="34.856233019">
      <ele>1191.723</ele>
      <time>2021-10-12T10:23:55Z</time>
    </trkpt>
    <trkpt lat="38.608374037" lon="34.856237965">
      <ele>1192.016</ele>
      <time>2021-10-12T10:23:57Z</time>
    </trkpt>
    <trkpt lat="38.608307987" lon="34.856241988">
      <ele>1192.538</ele>
      <time>2021-10-12T10:23:59Z</time>
    </trkpt>
    <trkpt lat="38.608272029" lon="34.856246011">
      <ele>1192.87</ele>
      <time>2021-10-12T10:24:01Z</time>
    </trkpt>
    <trkpt lat="38.608163986" lon="34.856252968">
      <ele>1193.773</ele>
      <time>2021-10-12T10:24:05Z</time>
    </trkpt>
    <trkpt lat="38.608132973" lon="34.856248023">
      <ele>1193.907</ele>
      <time>2021-10-12T10:24:06Z</time>
    </trkpt>
    <trkpt lat="38.608101038" lon="34.856244">
      <ele>1194.065</ele>
      <time>2021-10-12T10:24:07Z</time>
    </trkpt>
    <trkpt lat="38.608069019" lon="34.856233019">
      <ele>1194.097</ele>
      <time>2021-10-12T10:24:08Z</time>
    </trkpt>
    <trkpt lat="38.608041024" lon="34.856222961">
      <ele>1194.087</ele>
      <time>2021-10-12T10:24:09Z</time>
    </trkpt>
    <trkpt lat="38.608003976" lon="34.856207035">
      <ele>1193.976</ele>
      <time>2021-10-12T10:24:11Z</time>
    </trkpt>
    <trkpt lat="38.607972963" lon="34.856196977">
      <ele>1193.935</ele>
      <time>2021-10-12T10:24:12Z</time>
    </trkpt>
    <trkpt lat="38.607870033" lon="34.856142998">
      <ele>1193.319</ele>
      <time>2021-10-12T10:24:16Z</time>
    </trkpt>
    <trkpt lat="38.607769031" lon="34.856117014">
      <ele>1193.128</ele>
      <time>2021-10-12T10:24:20Z</time>
    </trkpt>
    <trkpt lat="38.607668029" lon="34.856096981">
      <ele>1192.929</ele>
      <time>2021-10-12T10:24:24Z</time>
    </trkpt>
    <trkpt lat="38.607566021" lon="34.856075021">
      <ele>1192.771</ele>
      <time>2021-10-12T10:24:27Z</time>
    </trkpt>
    <trkpt lat="38.607465019" lon="34.85606404">
      <ele>1192.849</ele>
      <time>2021-10-12T10:24:31Z</time>
    </trkpt>
    <trkpt lat="38.607368963" lon="34.856075021">
      <ele>1193.5</ele>
      <time>2021-10-12T10:24:35Z</time>
    </trkpt>
    <trkpt lat="38.607336022" lon="34.856076026">
      <ele>1193.704</ele>
      <time>2021-10-12T10:24:36Z</time>
    </trkpt>
    <trkpt lat="38.607306015" lon="34.856074015">
      <ele>1193.85</ele>
      <time>2021-10-12T10:24:37Z</time>
    </trkpt>
    <trkpt lat="38.607207024" lon="34.856047025">
      <ele>1194.053</ele>
      <time>2021-10-12T10:24:41Z</time>
    </trkpt>
    <trkpt lat="38.607123038" lon="34.855955997">
      <ele>1193.437</ele>
      <time>2021-10-12T10:24:45Z</time>
    </trkpt>
    <trkpt lat="38.607039973" lon="34.855869999">
      <ele>1192.715</ele>
      <time>2021-10-12T10:24:49Z</time>
    </trkpt>
    <trkpt lat="38.606956992" lon="34.855785007">
      <ele>1192.366</ele>
      <time>2021-10-12T10:24:53Z</time>
    </trkpt>
    <trkpt lat="38.606879963" lon="34.85569004">
      <ele>1192.374</ele>
      <time>2021-10-12T10:24:57Z</time>
    </trkpt>
    <trkpt lat="38.606803017" lon="34.855599012">
      <ele>1192.156</ele>
      <time>2021-10-12T10:25:01Z</time>
    </trkpt>
    <trkpt lat="38.606717018" lon="34.855517959">
      <ele>1192.235</ele>
      <time>2021-10-12T10:25:05Z</time>
    </trkpt>
    <trkpt lat="38.606624985" lon="34.855485018">
      <ele>1192.904</ele>
      <time>2021-10-12T10:25:08Z</time>
    </trkpt>
    <trkpt lat="38.606534041" lon="34.85547496">
      <ele>1193.714</ele>
      <time>2021-10-12T10:25:11Z</time>
    </trkpt>
    <trkpt lat="38.606504034" lon="34.855479989">
      <ele>1194.053</ele>
      <time>2021-10-12T10:25:13Z</time>
    </trkpt>
    <trkpt lat="38.606468998" lon="34.855485018">
      <ele>1194.446</ele>
      <time>2021-10-12T10:25:14Z</time>
    </trkpt>
    <trkpt lat="38.606443014" lon="34.855493987">
      <ele>1194.794</ele>
      <time>2021-10-12T10:25:15Z</time>
    </trkpt>
    <trkpt lat="38.606414013" lon="34.855501028">
      <ele>1195.158</ele>
      <time>2021-10-12T10:25:16Z</time>
    </trkpt>
    <trkpt lat="38.606386017" lon="34.855509996">
      <ele>1195.539</ele>
      <time>2021-10-12T10:25:17Z</time>
    </trkpt>
    <trkpt lat="38.60635601" lon="34.855515026">
      <ele>1195.917</ele>
      <time>2021-10-12T10:25:18Z</time>
    </trkpt>
    <trkpt lat="38.606268" lon="34.855543021">
      <ele>1197.17</ele>
      <time>2021-10-12T10:25:22Z</time>
    </trkpt>
    <trkpt lat="38.606160963" lon="34.855574034">
      <ele>1198.697</ele>
      <time>2021-10-12T10:25:26Z</time>
    </trkpt>
    <trkpt lat="38.606060967" lon="34.855575962">
      <ele>1199.595</ele>
      <time>2021-10-12T10:25:29Z</time>
    </trkpt>
    <trkpt lat="38.605971029" lon="34.855600018">
      <ele>1200.57</ele>
      <time>2021-10-12T10:25:33Z</time>
    </trkpt>
    <trkpt lat="38.605845971" lon="34.85558602">
      <ele>1201.343</ele>
      <time>2021-10-12T10:25:37Z</time>
    </trkpt>
    <trkpt lat="38.605746981" lon="34.855594989">
      <ele>1201.568</ele>
      <time>2021-10-12T10:25:41Z</time>
    </trkpt>
    <trkpt lat="38.60565302" lon="34.855592977">
      <ele>1201.539</ele>
      <time>2021-10-12T10:25:44Z</time>
    </trkpt>
    <trkpt lat="38.605546989" lon="34.855587026">
      <ele>1201.457</ele>
      <time>2021-10-12T10:25:48Z</time>
    </trkpt>
    <trkpt lat="38.605447998" lon="34.855591971">
      <ele>1201.575</ele>
      <time>2021-10-12T10:25:52Z</time>
    </trkpt>
    <trkpt lat="38.605350014" lon="34.855612004">
      <ele>1201.963</ele>
      <time>2021-10-12T10:25:56Z</time>
    </trkpt>
    <trkpt lat="38.605249012" lon="34.855633965">
      <ele>1202.456</ele>
      <time>2021-10-12T10:26:00Z</time>
    </trkpt>
    <trkpt lat="38.605153039" lon="34.855672019">
      <ele>1203.169</ele>
      <time>2021-10-12T10:26:03Z</time>
    </trkpt>
    <trkpt lat="38.605056982" lon="34.855695991">
      <ele>1203.519</ele>
      <time>2021-10-12T10:26:07Z</time>
    </trkpt>
    <trkpt lat="38.604964027" lon="34.855665984">
      <ele>1203.425</ele>
      <time>2021-10-12T10:26:10Z</time>
    </trkpt>
    <trkpt lat="38.604860008" lon="34.855588032">
      <ele>1202.973</ele>
      <time>2021-10-12T10:26:15Z</time>
    </trkpt>
    <trkpt lat="38.604750037" lon="34.855511002">
      <ele>1202.756</ele>
      <time>2021-10-12T10:26:20Z</time>
    </trkpt>
    <trkpt lat="38.604672002" lon="34.855425004">
      <ele>1203.541</ele>
      <time>2021-10-12T10:26:23Z</time>
    </trkpt>
    <trkpt lat="38.604601007" lon="34.855307993">
      <ele>1203.997</ele>
      <time>2021-10-12T10:26:28Z</time>
    </trkpt>
    <trkpt lat="38.604561025" lon="34.855187964">
      <ele>1204.353</ele>
      <time>2021-10-12T10:26:31Z</time>
    </trkpt>
    <trkpt lat="38.604524983" lon="34.85507003">
      <ele>1204.429</ele>
      <time>2021-10-12T10:26:35Z</time>
    </trkpt>
    <trkpt lat="38.604478966" lon="34.854953019">
      <ele>1204.674</ele>
      <time>2021-10-12T10:26:39Z</time>
    </trkpt>
    <trkpt lat="38.604422975" lon="34.854861991">
      <ele>1205.453</ele>
      <time>2021-10-12T10:26:42Z</time>
    </trkpt>
    <trkpt lat="38.604313005" lon="34.85481103">
      <ele>1205.378</ele>
      <time>2021-10-12T10:26:47Z</time>
    </trkpt>
    <trkpt lat="38.604222983" lon="34.854789991">
      <ele>1204.849</ele>
      <time>2021-10-12T10:26:50Z</time>
    </trkpt>
    <trkpt lat="38.604122987" lon="34.85479896">
      <ele>1204.439</ele>
      <time>2021-10-12T10:26:54Z</time>
    </trkpt>
    <trkpt lat="38.604023997" lon="34.854841037">
      <ele>1204.562</ele>
      <time>2021-10-12T10:26:58Z</time>
    </trkpt>
    <trkpt lat="38.603903968" lon="34.854849">
      <ele>1204.399</ele>
      <time>2021-10-12T10:27:02Z</time>
    </trkpt>
    <trkpt lat="38.603788968" lon="34.854838019">
      <ele>1205.21</ele>
      <time>2021-10-12T10:27:06Z</time>
    </trkpt>
    <trkpt lat="38.603696013" lon="34.85479896">
      <ele>1205.29</ele>
      <time>2021-10-12T10:27:10Z</time>
    </trkpt>
    <trkpt lat="38.603624012" lon="34.854712961">
      <ele>1203.955</ele>
      <time>2021-10-12T10:27:14Z</time>
    </trkpt>
    <trkpt lat="38.603579002" lon="34.854602991">
      <ele>1204.743</ele>
      <time>2021-10-12T10:27:17Z</time>
    </trkpt>
    <trkpt lat="38.603542959" lon="34.85446997">
      <ele>1204.871</ele>
      <time>2021-10-12T10:27:21Z</time>
    </trkpt>
    <trkpt lat="38.603519993" lon="34.854339967">
      <ele>1205.113</ele>
      <time>2021-10-12T10:27:25Z</time>
    </trkpt>
    <trkpt lat="38.603497026" lon="34.854202">
      <ele>1205.388</ele>
      <time>2021-10-12T10:27:29Z</time>
    </trkpt>
    <trkpt lat="38.60348504" lon="34.85407996">
      <ele>1206.277</ele>
      <time>2021-10-12T10:27:33Z</time>
    </trkpt>
    <trkpt lat="38.603466013" lon="34.853959009">
      <ele>1207.341</ele>
      <time>2021-10-12T10:27:36Z</time>
    </trkpt>
    <trkpt lat="38.603443969" lon="34.853839986">
      <ele>1208.289</ele>
      <time>2021-10-12T10:27:40Z</time>
    </trkpt>
    <trkpt lat="38.60342402" lon="34.853715012">
      <ele>1209.314</ele>
      <time>2021-10-12T10:27:44Z</time>
    </trkpt>
    <trkpt lat="38.60339703" lon="34.853593977">
      <ele>1210.178</ele>
      <time>2021-10-12T10:27:47Z</time>
    </trkpt>
    <trkpt lat="38.603300974" lon="34.853522982">
      <ele>1210.275</ele>
      <time>2021-10-12T10:27:51Z</time>
    </trkpt>
    <trkpt lat="38.603199972" lon="34.85348803">
      <ele>1210.614</ele>
      <time>2021-10-12T10:27:55Z</time>
    </trkpt>
    <trkpt lat="38.603091007" lon="34.853447964">
      <ele>1210.685</ele>
      <time>2021-10-12T10:27:59Z</time>
    </trkpt>
    <trkpt lat="38.603054965" lon="34.853430027">
      <ele>1210.653</ele>
      <time>2021-10-12T10:28:01Z</time>
    </trkpt>
    <trkpt lat="38.603022024" lon="34.853412006">
      <ele>1210.785</ele>
      <time>2021-10-12T10:28:02Z</time>
    </trkpt>
    <trkpt lat="38.60298397" lon="34.853393985">
      <ele>1210.894</ele>
      <time>2021-10-12T10:28:04Z</time>
    </trkpt>
    <trkpt lat="38.602943989" lon="34.853372024">
      <ele>1210.973</ele>
      <time>2021-10-12T10:28:05Z</time>
    </trkpt>
    <trkpt lat="38.602841981" lon="34.853339">
      <ele>1211.011</ele>
      <time>2021-10-12T10:28:09Z</time>
    </trkpt>
    <trkpt lat="38.602741985" lon="34.853313016">
      <ele>1211.064</ele>
      <time>2021-10-12T10:28:13Z</time>
    </trkpt>
    <trkpt lat="38.602641989" lon="34.853289966">
      <ele>1211.08</ele>
      <time>2021-10-12T10:28:17Z</time>
    </trkpt>
    <trkpt lat="38.60253403" lon="34.85332299">
      <ele>1211.005</ele>
      <time>2021-10-12T10:28:21Z</time>
    </trkpt>
    <trkpt lat="38.60249497" lon="34.853336988">
      <ele>1211.068</ele>
      <time>2021-10-12T10:28:22Z</time>
    </trkpt>
    <trkpt lat="38.602468986" lon="34.853351992">
      <ele>1211.417</ele>
      <time>2021-10-12T10:28:23Z</time>
    </trkpt>
    <trkpt lat="38.602444008" lon="34.853366995">
      <ele>1211.775</ele>
      <time>2021-10-12T10:28:24Z</time>
    </trkpt>
    <trkpt lat="38.602389023" lon="34.853411">
      <ele>1212.702</ele>
      <time>2021-10-12T10:28:27Z</time>
    </trkpt>
    <trkpt lat="38.602283997" lon="34.853413012">
      <ele>1214.066</ele>
      <time>2021-10-12T10:28:31Z</time>
    </trkpt>
    <trkpt lat="38.602194982" lon="34.853340006">
      <ele>1214.567</ele>
      <time>2021-10-12T10:28:35Z</time>
    </trkpt>
    <trkpt lat="38.602114012" lon="34.853254007">
      <ele>1215.551</ele>
      <time>2021-10-12T10:28:39Z</time>
    </trkpt>
    <trkpt lat="38.602050981" lon="34.853171026">
      <ele>1216.138</ele>
      <time>2021-10-12T10:28:42Z</time>
    </trkpt>
    <trkpt lat="38.601991972" lon="34.853083016">
      <ele>1216.496</ele>
      <time>2021-10-12T10:28:45Z</time>
    </trkpt>
    <trkpt lat="38.601946961" lon="34.852978997">
      <ele>1217.242</ele>
      <time>2021-10-12T10:28:49Z</time>
    </trkpt>
    <trkpt lat="38.601873033" lon="34.852887969">
      <ele>1217.86</ele>
      <time>2021-10-12T10:28:52Z</time>
    </trkpt>
    <trkpt lat="38.601856017" lon="34.852872966">
      <ele>1217.976</ele>
      <time>2021-10-12T10:28:53Z</time>
    </trkpt>
    <trkpt lat="38.60182601" lon="34.852870032">
      <ele>1218.094</ele>
      <time>2021-10-12T10:28:54Z</time>
    </trkpt>
    <trkpt lat="38.60180296" lon="34.852883024">
      <ele>1218.13</ele>
      <time>2021-10-12T10:28:55Z</time>
    </trkpt>
    <trkpt lat="38.601788962" lon="34.852899034">
      <ele>1218.123</ele>
      <time>2021-10-12T10:28:56Z</time>
    </trkpt>
    <trkpt lat="38.601767002" lon="34.852917977">
      <ele>1218.134</ele>
      <time>2021-10-12T10:28:57Z</time>
    </trkpt>
    <trkpt lat="38.601682009" lon="34.85298302">
      <ele>1218.206</ele>
      <time>2021-10-12T10:29:01Z</time>
    </trkpt>
    <trkpt lat="38.601609003" lon="34.853059966">
      <ele>1217.84</ele>
      <time>2021-10-12T10:29:04Z</time>
    </trkpt>
    <trkpt lat="38.601521999" lon="34.853132972">
      <ele>1218.315</ele>
      <time>2021-10-12T10:29:08Z</time>
    </trkpt>
    <trkpt lat="38.601446981" lon="34.853228023">
      <ele>1219.072</ele>
      <time>2021-10-12T10:29:12Z</time>
    </trkpt>
    <trkpt lat="38.601339441" lon="34.853203548">
      <ele>1218.883</ele>
      <time>2021-10-12T10:29:16Z</time>
    </trkpt>
    <trkpt lat="38.601231063" lon="34.853212684">
      <ele>1219.661</ele>
      <time>2021-10-12T10:29:20Z</time>
    </trkpt>
    <trkpt lat="38.601191668" lon="34.853189299">
      <ele>1219.47</ele>
      <time>2021-10-12T10:29:22Z</time>
    </trkpt>
    <trkpt lat="38.601154368" lon="34.853259036">
      <ele>1221.053</ele>
      <time>2021-10-12T10:29:24Z</time>
    </trkpt>
    <trkpt lat="38.601110699" lon="34.853311591">
      <ele>1222.545</ele>
      <time>2021-10-12T10:29:26Z</time>
    </trkpt>
    <trkpt lat="38.601051439" lon="34.853322571">
      <ele>1224.891</ele>
      <time>2021-10-12T10:29:28Z</time>
    </trkpt>
    <trkpt lat="38.600982707" lon="34.853320979">
      <ele>1227.294</ele>
      <time>2021-10-12T10:29:31Z</time>
    </trkpt>
    <trkpt lat="38.600944066" lon="34.853259204">
      <ele>1226.931</ele>
      <time>2021-10-12T10:29:33Z</time>
    </trkpt>
    <trkpt lat="38.600918418" lon="34.853210002">
      <ele>1226.349</ele>
      <time>2021-10-12T10:29:35Z</time>
    </trkpt>
    <trkpt lat="38.600905929" lon="34.853099361">
      <ele>1223.466</ele>
      <time>2021-10-12T10:29:38Z</time>
    </trkpt>
    <trkpt lat="38.600890255" lon="34.852921832">
      <ele>1221.121</ele>
      <time>2021-10-12T10:29:43Z</time>
    </trkpt>
    <trkpt lat="38.600900732" lon="34.852746567">
      <ele>1219.302</ele>
      <time>2021-10-12T10:29:49Z</time>
    </trkpt>
    <trkpt lat="38.600917496" lon="34.852632992">
      <ele>1218.879</ele>
      <time>2021-10-12T10:29:52Z</time>
    </trkpt>
    <trkpt lat="38.600947503" lon="34.85250609">
      <ele>1218.123</ele>
      <time>2021-10-12T10:29:56Z</time>
    </trkpt>
    <trkpt lat="38.600980528" lon="34.852429982">
      <ele>1217.928</ele>
      <time>2021-10-12T10:29:58Z</time>
    </trkpt>
    <trkpt lat="38.601020258" lon="34.852324035">
      <ele>1217.983</ele>
      <time>2021-10-12T10:30:02Z</time>
    </trkpt>
    <trkpt lat="38.60104356" lon="34.852268798">
      <ele>1217.997</ele>
      <time>2021-10-12T10:30:04Z</time>
    </trkpt>
    <trkpt lat="38.601103406" lon="34.852238121">
      <ele>1216.996</ele>
      <time>2021-10-12T10:30:06Z</time>
    </trkpt>
    <trkpt lat="38.601143472" lon="34.852211885">
      <ele>1217.369</ele>
      <time>2021-10-12T10:30:08Z</time>
    </trkpt>
    <trkpt lat="38.601203403" lon="34.852185734">
      <ele>1218.059</ele>
      <time>2021-10-12T10:30:10Z</time>
    </trkpt>
    <trkpt lat="38.601243133" lon="34.852109542">
      <ele>1218.995</ele>
      <time>2021-10-12T10:30:13Z</time>
    </trkpt>
    <trkpt lat="38.601252772" lon="34.852050701">
      <ele>1219.545</ele>
      <time>2021-10-12T10:30:14Z</time>
    </trkpt>
    <trkpt lat="38.601245731" lon="34.851962524">
      <ele>1220.35</ele>
      <time>2021-10-12T10:30:17Z</time>
    </trkpt>
    <trkpt lat="38.601235589" lon="34.851908041">
      <ele>1220.611</ele>
      <time>2021-10-12T10:30:19Z</time>
    </trkpt>
    <trkpt lat="38.601251934" lon="34.851861857">
      <ele>1220.644</ele>
      <time>2021-10-12T10:30:20Z</time>
    </trkpt>
    <trkpt lat="38.601301387" lon="34.851819696">
      <ele>1220.623</ele>
      <time>2021-10-12T10:30:22Z</time>
    </trkpt>
    <trkpt lat="38.601354109" lon="34.851777619">
      <ele>1220.651</ele>
      <time>2021-10-12T10:30:24Z</time>
    </trkpt>
    <trkpt lat="38.601383446" lon="34.851689525">
      <ele>1220.919</ele>
      <time>2021-10-12T10:30:27Z</time>
    </trkpt>
    <trkpt lat="38.601402724" lon="34.851610316">
      <ele>1221.263</ele>
      <time>2021-10-12T10:30:30Z</time>
    </trkpt>
    <trkpt lat="38.601427954" lon="34.851532532">
      <ele>1221.691</ele>
      <time>2021-10-12T10:30:32Z</time>
    </trkpt>
    <trkpt lat="38.601453099" lon="34.851459023">
      <ele>1222.151</ele>
      <time>2021-10-12T10:30:34Z</time>
    </trkpt>
    <trkpt lat="38.601419404" lon="34.851381071">
      <ele>1222.304</ele>
      <time>2021-10-12T10:30:37Z</time>
    </trkpt>
    <trkpt lat="38.601373304" lon="34.851347962">
      <ele>1222.409</ele>
      <time>2021-10-12T10:30:39Z</time>
    </trkpt>
    <trkpt lat="38.601324186" lon="34.851335138">
      <ele>1222.4</ele>
      <time>2021-10-12T10:30:41Z</time>
    </trkpt>
    <trkpt lat="38.601268698" lon="34.851338658">
      <ele>1222.23</ele>
      <time>2021-10-12T10:30:43Z</time>
    </trkpt>
    <trkpt lat="38.601223016" lon="34.851350309">
      <ele>1222.085</ele>
      <time>2021-10-12T10:30:45Z</time>
    </trkpt>
    <trkpt lat="38.601190243" lon="34.851345867">
      <ele>1222.022</ele>
      <time>2021-10-12T10:30:46Z</time>
    </trkpt>
    <trkpt lat="38.601157386" lon="34.851337401">
      <ele>1221.938</ele>
      <time>2021-10-12T10:30:47Z</time>
    </trkpt>
    <trkpt lat="38.601111369" lon="34.851329187">
      <ele>1221.786</ele>
      <time>2021-10-12T10:30:49Z</time>
    </trkpt>
    <trkpt lat="38.601065185" lon="34.851309154">
      <ele>1221.831</ele>
      <time>2021-10-12T10:30:51Z</time>
    </trkpt>
    <trkpt lat="38.601038782" lon="34.851280572">
      <ele>1221.769</ele>
      <time>2021-10-12T10:30:52Z</time>
    </trkpt>
    <trkpt lat="38.601028891" lon="34.851264143">
      <ele>1221.714</ele>
      <time>2021-10-12T10:30:52Z</time>
    </trkpt>
    <trkpt lat="38.60102227" lon="34.851247715">
      <ele>1221.649</ele>
      <time>2021-10-12T10:30:53Z</time>
    </trkpt>
    <trkpt lat="38.600995783" lon="34.851203039">
      <ele>1221.468</ele>
      <time>2021-10-12T10:30:55Z</time>
    </trkpt>
    <trkpt lat="38.600966027" lon="34.851130117">
      <ele>1221.104</ele>
      <time>2021-10-12T10:30:57Z</time>
    </trkpt>
    <trkpt lat="38.600955801" lon="34.851041185">
      <ele>1222.199</ele>
      <time>2021-10-12T10:31:00Z</time>
    </trkpt>
    <trkpt lat="38.600952281" lon="34.850984355">
      <ele>1223.151</ele>
      <time>2021-10-12T10:31:01Z</time>
    </trkpt>
    <trkpt lat="38.600958483" lon="34.850889891">
      <ele>1224.824</ele>
      <time>2021-10-12T10:31:04Z</time>
    </trkpt>
    <trkpt lat="38.600954628" lon="34.85075905">
      <ele>1228.304</ele>
      <time>2021-10-12T10:31:08Z</time>
    </trkpt>
    <trkpt lat="38.600941217" lon="34.850674225">
      <ele>1231.059</ele>
      <time>2021-10-12T10:31:10Z</time>
    </trkpt>
    <trkpt lat="38.600911461" lon="34.850591999">
      <ele>1233.569</ele>
      <time>2021-10-12T10:31:13Z</time>
    </trkpt>
    <trkpt lat="38.600904588" lon="34.8505376">
      <ele>1235.335</ele>
      <time>2021-10-12T10:31:15Z</time>
    </trkpt>
    <trkpt lat="38.600865612" lon="34.850475742">
      <ele>1236.901</ele>
      <time>2021-10-12T10:31:17Z</time>
    </trkpt>
    <trkpt lat="38.600842897" lon="34.850414386">
      <ele>1238.66</ele>
      <time>2021-10-12T10:31:19Z</time>
    </trkpt>
    <trkpt lat="38.600801239" lon="34.850395275">
      <ele>1238.913</ele>
      <time>2021-10-12T10:31:21Z</time>
    </trkpt>
    <trkpt lat="38.600766119" lon="34.850422014">
      <ele>1237.717</ele>
      <time>2021-10-12T10:31:22Z</time>
    </trkpt>
    <trkpt lat="38.600785397" lon="34.850487392">
      <ele>1235.733</ele>
      <time>2021-10-12T10:31:24Z</time>
    </trkpt>
    <trkpt lat="38.600817751" lon="34.850560902">
      <ele>1233.644</ele>
      <time>2021-10-12T10:31:27Z</time>
    </trkpt>
    <trkpt lat="38.60083418" lon="34.850634998">
      <ele>1231.15</ele>
      <time>2021-10-12T10:31:29Z</time>
    </trkpt>
    <trkpt lat="38.600840969" lon="34.850755027">
      <ele>1226.921</ele>
      <time>2021-10-12T10:31:32Z</time>
    </trkpt>
    <trkpt lat="38.600815069" lon="34.850824513">
      <ele>1224.375</ele>
      <time>2021-10-12T10:31:34Z</time>
    </trkpt>
    <trkpt lat="38.600795707" lon="34.850939177">
      <ele>1223.147</ele>
      <time>2021-10-12T10:31:38Z</time>
    </trkpt>
    <trkpt lat="38.60076637" lon="34.851030121">
      <ele>1222.628</ele>
      <time>2021-10-12T10:31:41Z</time>
    </trkpt>
    <trkpt lat="38.600720689" lon="34.851105558">
      <ele>1222.658</ele>
      <time>2021-10-12T10:31:43Z</time>
    </trkpt>
    <trkpt lat="38.600671822" lon="34.851180995">
      <ele>1224.121</ele>
      <time>2021-10-12T10:31:46Z</time>
    </trkpt>
    <trkpt lat="38.600629494" lon="34.85123137">
      <ele>1225.437</ele>
      <time>2021-10-12T10:31:48Z</time>
    </trkpt>
    <trkpt lat="38.600600241" lon="34.851306472">
      <ele>1226.943</ele>
      <time>2021-10-12T10:31:51Z</time>
    </trkpt>
    <trkpt lat="38.600596972" lon="34.851393979">
      <ele>1228.145</ele>
      <time>2021-10-12T10:31:53Z</time>
    </trkpt>
    <trkpt lat="38.60059035" lon="34.851502273">
      <ele>1229.116</ele>
      <time>2021-10-12T10:31:57Z</time>
    </trkpt>
    <trkpt lat="38.600571072" lon="34.851590116">
      <ele>1230.154</ele>
      <time>2021-10-12T10:31:59Z</time>
    </trkpt>
    <trkpt lat="38.600525893" lon="34.851632025">
      <ele>1231.071</ele>
      <time>2021-10-12T10:32:01Z</time>
    </trkpt>
    <trkpt lat="38.600440985" lon="34.85165298">
      <ele>1232.139</ele>
      <time>2021-10-12T10:32:05Z</time>
    </trkpt>
    <trkpt lat="38.600343" lon="34.851611992">
      <ele>1232.902</ele>
      <time>2021-10-12T10:32:08Z</time>
    </trkpt>
    <trkpt lat="38.600322967" lon="34.85160403">
      <ele>1233.061</ele>
      <time>2021-10-12T10:32:09Z</time>
    </trkpt>
    <trkpt lat="38.60030503" lon="34.851596989">
      <ele>1233.204</ele>
      <time>2021-10-12T10:32:10Z</time>
    </trkpt>
    <trkpt lat="38.600287009" lon="34.851587014">
      <ele>1233.327</ele>
      <time>2021-10-12T10:32:11Z</time>
    </trkpt>
    <trkpt lat="38.600257002" lon="34.851569999">
      <ele>1233.655</ele>
      <time>2021-10-12T10:32:12Z</time>
    </trkpt>
    <trkpt lat="38.600237975" lon="34.851560025">
      <ele>1233.915</ele>
      <time>2021-10-12T10:32:13Z</time>
    </trkpt>
    <trkpt lat="38.600216014" lon="34.851549966">
      <ele>1234.236</ele>
      <time>2021-10-12T10:32:13Z</time>
    </trkpt>
    <trkpt lat="38.600195982" lon="34.85153798">
      <ele>1234.524</ele>
      <time>2021-10-12T10:32:14Z</time>
    </trkpt>
    <trkpt lat="38.600177038" lon="34.851530017">
      <ele>1234.824</ele>
      <time>2021-10-12T10:32:15Z</time>
    </trkpt>
    <trkpt lat="38.60013999" lon="34.851519037">
      <ele>1235.448</ele>
      <time>2021-10-12T10:32:16Z</time>
    </trkpt>
    <trkpt lat="38.600120964" lon="34.851507973">
      <ele>1235.761</ele>
      <time>2021-10-12T10:32:17Z</time>
    </trkpt>
    <trkpt lat="38.600103026" lon="34.851497998">
      <ele>1236.066</ele>
      <time>2021-10-12T10:32:18Z</time>
    </trkpt>
    <trkpt lat="38.600081988" lon="34.851488024">
      <ele>1236.44</ele>
      <time>2021-10-12T10:32:19Z</time>
    </trkpt>
    <trkpt lat="38.600061033" lon="34.851481989">
      <ele>1236.829</ele>
      <time>2021-10-12T10:32:19Z</time>
    </trkpt>
    <trkpt lat="38.600042006" lon="34.851472015">
      <ele>1237.183</ele>
      <time>2021-10-12T10:32:20Z</time>
    </trkpt>
    <trkpt lat="38.600020967" lon="34.851461034">
      <ele>1237.586</ele>
      <time>2021-10-12T10:32:21Z</time>
    </trkpt>
    <trkpt lat="38.600002024" lon="34.851447036">
      <ele>1237.959</ele>
      <time>2021-10-12T10:32:22Z</time>
    </trkpt>
    <trkpt lat="38.599980986" lon="34.851435972">
      <ele>1238.342</ele>
      <time>2021-10-12T10:32:23Z</time>
    </trkpt>
    <trkpt lat="38.599960031" lon="34.85142298">
      <ele>1238.719</ele>
      <time>2021-10-12T10:32:24Z</time>
    </trkpt>
    <trkpt lat="38.599938992" lon="34.851415018">
      <ele>1239.098</ele>
      <time>2021-10-12T10:32:24Z</time>
    </trkpt>
    <trkpt lat="38.599917032" lon="34.851409988">
      <ele>1239.493</ele>
      <time>2021-10-12T10:32:25Z</time>
    </trkpt>
    <trkpt lat="38.599894987" lon="34.851398002">
      <ele>1239.89</ele>
      <time>2021-10-12T10:32:26Z</time>
    </trkpt>
    <trkpt lat="38.599870009" lon="34.851390962">
      <ele>1240.34</ele>
      <time>2021-10-12T10:32:27Z</time>
    </trkpt>
    <trkpt lat="38.599846037" lon="34.85138501">
      <ele>1240.717</ele>
      <time>2021-10-12T10:32:28Z</time>
    </trkpt>
    <trkpt lat="38.599824999" lon="34.851381993">
      <ele>1241.057</ele>
      <time>2021-10-12T10:32:29Z</time>
    </trkpt>
    <trkpt lat="38.599801026" lon="34.851371013">
      <ele>1241.352</ele>
      <time>2021-10-12T10:32:30Z</time>
    </trkpt>
    <trkpt lat="38.599777976" lon="34.851362966">
      <ele>1241.679</ele>
      <time>2021-10-12T10:32:31Z</time>
    </trkpt>
    <trkpt lat="38.599758027" lon="34.851349974">
      <ele>1241.899</ele>
      <time>2021-10-12T10:32:31Z</time>
    </trkpt>
    <trkpt lat="38.599735983" lon="34.85134">
      <ele>1242.207</ele>
      <time>2021-10-12T10:32:32Z</time>
    </trkpt>
    <trkpt lat="38.599688038" lon="34.851321978">
      <ele>1242.863</ele>
      <time>2021-10-12T10:32:34Z</time>
    </trkpt>
    <trkpt lat="38.599670017" lon="34.851307981">
      <ele>1243.011</ele>
      <time>2021-10-12T10:32:35Z</time>
    </trkpt>
    <trkpt lat="38.599649984" lon="34.851293983">
      <ele>1243.186</ele>
      <time>2021-10-12T10:32:36Z</time>
    </trkpt>
    <trkpt lat="38.599628024" lon="34.851276968">
      <ele>1243.35</ele>
      <time>2021-10-12T10:32:37Z</time>
    </trkpt>
    <trkpt lat="38.599611009" lon="34.85125903">
      <ele>1243.412</ele>
      <time>2021-10-12T10:32:38Z</time>
    </trkpt>
    <trkpt lat="38.599587958" lon="34.851232041">
      <ele>1243.45</ele>
      <time>2021-10-12T10:32:39Z</time>
    </trkpt>
    <trkpt lat="38.599569015" lon="34.851202033">
      <ele>1243.369</ele>
      <time>2021-10-12T10:32:40Z</time>
    </trkpt>
    <trkpt lat="38.599545965" lon="34.851177977">
      <ele>1243.413</ele>
      <time>2021-10-12T10:32:41Z</time>
    </trkpt>
    <trkpt lat="38.599524004" lon="34.851146964">
      <ele>1243.334</ele>
      <time>2021-10-12T10:32:42Z</time>
    </trkpt>
    <trkpt lat="38.599507995" lon="34.851115029">
      <ele>1243.138</ele>
      <time>2021-10-12T10:32:43Z</time>
    </trkpt>
    <trkpt lat="38.599492991" lon="34.85107597">
      <ele>1242.415</ele>
      <time>2021-10-12T10:32:44Z</time>
    </trkpt>
    <trkpt lat="38.599477988" lon="34.851038">
      <ele>1241.675</ele>
      <time>2021-10-12T10:32:46Z</time>
    </trkpt>
    <trkpt lat="38.59946399" lon="34.851005981">
      <ele>1241.069</ele>
      <time>2021-10-12T10:32:47Z</time>
    </trkpt>
    <trkpt lat="38.599449992" lon="34.850967005">
      <ele>1240.289</ele>
      <time>2021-10-12T10:32:48Z</time>
    </trkpt>
    <trkpt lat="38.599437" lon="34.850931969">
      <ele>1239.62</ele>
      <time>2021-10-12T10:32:49Z</time>
    </trkpt>
    <trkpt lat="38.599423002" lon="34.850893999">
      <ele>1238.915</ele>
      <time>2021-10-12T10:32:50Z</time>
    </trkpt>
    <trkpt lat="38.599404981" lon="34.850849994">
      <ele>1238.13</ele>
      <time>2021-10-12T10:32:52Z</time>
    </trkpt>
    <trkpt lat="38.599392995" lon="34.850808">
      <ele>1237.436</ele>
      <time>2021-10-12T10:32:53Z</time>
    </trkpt>
    <trkpt lat="38.59937598" lon="34.850762989">
      <ele>1236.841</ele>
      <time>2021-10-12T10:32:55Z</time>
    </trkpt>
    <trkpt lat="38.599360976" lon="34.850722002">
      <ele>1236.258</ele>
      <time>2021-10-12T10:32:56Z</time>
    </trkpt>
    <trkpt lat="38.599351002" lon="34.850679003">
      <ele>1235.53</ele>
      <time>2021-10-12T10:32:57Z</time>
    </trkpt>
    <trkpt lat="38.599340022" lon="34.850632986">
      <ele>1234.731</ele>
      <time>2021-10-12T10:32:59Z</time>
    </trkpt>
    <trkpt lat="38.599317977" lon="34.850588981">
      <ele>1234.077</ele>
      <time>2021-10-12T10:33:00Z</time>
    </trkpt>
    <trkpt lat="38.599298028" lon="34.850541959">
      <ele>1233.409</ele>
      <time>2021-10-12T10:33:02Z</time>
    </trkpt>
    <trkpt lat="38.59926098" lon="34.850460989">
      <ele>1232.735</ele>
      <time>2021-10-12T10:33:04Z</time>
    </trkpt>
    <trkpt lat="38.59923902" lon="34.850421008">
      <ele>1232.407</ele>
      <time>2021-10-12T10:33:06Z</time>
    </trkpt>
    <trkpt lat="38.599222004" lon="34.850377003">
      <ele>1231.959</ele>
      <time>2021-10-12T10:33:07Z</time>
    </trkpt>
    <trkpt lat="38.599205995" lon="34.850334004">
      <ele>1231.498</ele>
      <time>2021-10-12T10:33:09Z</time>
    </trkpt>
    <trkpt lat="38.599184034" lon="34.850286981">
      <ele>1231.005</ele>
      <time>2021-10-12T10:33:10Z</time>
    </trkpt>
    <trkpt lat="38.599124128" lon="34.849791429">
      <ele>1234.946</ele>
      <time>2021-10-12T10:33:25Z</time>
    </trkpt>
    <trkpt lat="38.59906424" lon="34.84972022">
      <ele>1236.443</ele>
      <time>2021-10-12T10:33:28Z</time>
    </trkpt>
    <trkpt lat="38.599013966" lon="34.849674013">
      <ele>1238.268</ele>
      <time>2021-10-12T10:33:30Z</time>
    </trkpt>
    <trkpt lat="38.59899804" lon="34.849648029">
      <ele>1239.221</ele>
      <time>2021-10-12T10:33:31Z</time>
    </trkpt>
    <trkpt lat="38.598973984" lon="34.849593965">
      <ele>1241.132</ele>
      <time>2021-10-12T10:33:33Z</time>
    </trkpt>
    <trkpt lat="38.598960992" lon="34.849566976">
      <ele>1242.061</ele>
      <time>2021-10-12T10:33:34Z</time>
    </trkpt>
    <trkpt lat="38.598961998" lon="34.849541998">
      <ele>1242.918</ele>
      <time>2021-10-12T10:33:34Z</time>
    </trkpt>
    <trkpt lat="38.598963004" lon="34.849516014">
      <ele>1243.81</ele>
      <time>2021-10-12T10:33:35Z</time>
    </trkpt>
    <trkpt lat="38.599029975" lon="34.849407971">
      <ele>1248.019</ele>
      <time>2021-10-12T10:33:39Z</time>
    </trkpt>
    <trkpt lat="38.599127959" lon="34.849374024">
      <ele>1249.867</ele>
      <time>2021-10-12T10:33:43Z</time>
    </trkpt>
    <trkpt lat="38.599242959" lon="34.849367989">
      <ele>1251.278</ele>
      <time>2021-10-12T10:33:47Z</time>
    </trkpt>
    <trkpt lat="38.599332981" lon="34.84937503">
      <ele>1252.094</ele>
      <time>2021-10-12T10:33:51Z</time>
    </trkpt>
    <trkpt lat="38.599437" lon="34.849406965">
      <ele>1251.801</ele>
      <time>2021-10-12T10:33:55Z</time>
    </trkpt>
    <trkpt lat="38.599538002" lon="34.849437978">
      <ele>1251.313</ele>
      <time>2021-10-12T10:33:58Z</time>
    </trkpt>
    <trkpt lat="38.599635987" lon="34.849435966">
      <ele>1252.433</ele>
      <time>2021-10-12T10:34:02Z</time>
    </trkpt>
    <trkpt lat="38.59974998" lon="34.849437978">
      <ele>1253.449</ele>
      <time>2021-10-12T10:34:06Z</time>
    </trkpt>
    <trkpt lat="38.599856012" lon="34.849462034">
      <ele>1253.454</ele>
      <time>2021-10-12T10:34:10Z</time>
    </trkpt>
    <trkpt lat="38.599957014" lon="34.849489024">
      <ele>1253.517</ele>
      <time>2021-10-12T10:34:14Z</time>
    </trkpt>
    <trkpt lat="38.600047035" lon="34.849514002">
      <ele>1253.332</ele>
      <time>2021-10-12T10:34:17Z</time>
    </trkpt>
    <trkpt lat="38.600148959" lon="34.849555995">
      <ele>1252.62</ele>
      <time>2021-10-12T10:34:21Z</time>
    </trkpt>
    <trkpt lat="38.600261025" lon="34.84956203">
      <ele>1252.832</ele>
      <time>2021-10-12T10:34:26Z</time>
    </trkpt>
    <trkpt lat="38.600376025" lon="34.849558007">
      <ele>1253.454</ele>
      <time>2021-10-12T10:34:30Z</time>
    </trkpt>
    <trkpt lat="38.600469986" lon="34.849540992">
      <ele>1254.195</ele>
      <time>2021-10-12T10:34:33Z</time>
    </trkpt>
    <trkpt lat="38.600551039" lon="34.849492041">
      <ele>1255.296</ele>
      <time>2021-10-12T10:34:37Z</time>
    </trkpt>
    <trkpt lat="38.600640977" lon="34.849480977">
      <ele>1255.781</ele>
      <time>2021-10-12T10:34:40Z</time>
    </trkpt>
    <trkpt lat="38.60074399" lon="34.849492041">
      <ele>1255.993</ele>
      <time>2021-10-12T10:34:44Z</time>
    </trkpt>
    <trkpt lat="38.600836024" lon="34.849485001">
      <ele>1256.411</ele>
      <time>2021-10-12T10:34:47Z</time>
    </trkpt>
    <trkpt lat="38.600925962" lon="34.849438984">
      <ele>1256.667</ele>
      <time>2021-10-12T10:34:51Z</time>
    </trkpt>
    <trkpt lat="38.600927973" lon="34.849349968">
      <ele>1256.652</ele>
      <time>2021-10-12T10:34:53Z</time>
    </trkpt>
    <trkpt lat="38.60090903" lon="34.849333037">
      <ele>1256.801</ele>
      <time>2021-10-12T10:34:54Z</time>
    </trkpt>
    <trkpt lat="38.600891009" lon="34.849315016">
      <ele>1256.968</ele>
      <time>2021-10-12T10:34:55Z</time>
    </trkpt>
    <trkpt lat="38.600865025" lon="34.849295989">
      <ele>1257.237</ele>
      <time>2021-10-12T10:34:56Z</time>
    </trkpt>
    <trkpt lat="38.600835018" lon="34.849276962">
      <ele>1257.586</ele>
      <time>2021-10-12T10:34:57Z</time>
    </trkpt>
    <trkpt lat="38.600802999" lon="34.849253995">
      <ele>1257.876</ele>
      <time>2021-10-12T10:34:59Z</time>
    </trkpt>
    <trkpt lat="38.600773998" lon="34.849231029">
      <ele>1258.211</ele>
      <time>2021-10-12T10:35:00Z</time>
    </trkpt>
    <trkpt lat="38.600742985" lon="34.849216025">
      <ele>1258.567</ele>
      <time>2021-10-12T10:35:01Z</time>
    </trkpt>
    <trkpt lat="38.600712977" lon="34.849166991">
      <ele>1259.297</ele>
      <time>2021-10-12T10:35:03Z</time>
    </trkpt>
    <trkpt lat="38.60070602" lon="34.849144025">
      <ele>1259.443</ele>
      <time>2021-10-12T10:35:04Z</time>
    </trkpt>
    <trkpt lat="38.600689005" lon="34.84910002">
      <ele>1259.817</ele>
      <time>2021-10-12T10:35:05Z</time>
    </trkpt>
    <trkpt lat="38.600669978" lon="34.849068001">
      <ele>1260.245</ele>
      <time>2021-10-12T10:35:06Z</time>
    </trkpt>
    <trkpt lat="38.600652041" lon="34.849036988">
      <ele>1260.71</ele>
      <time>2021-10-12T10:35:08Z</time>
    </trkpt>
    <trkpt lat="38.600573" lon="34.848931963">
      <ele>1263.134</ele>
      <time>2021-10-12T10:35:12Z</time>
    </trkpt>
    <trkpt lat="38.600485995" lon="34.848869015">
      <ele>1264.948</ele>
      <time>2021-10-12T10:35:15Z</time>
    </trkpt>
    <trkpt lat="38.600397985" lon="34.848763989">
      <ele>1266.074</ele>
      <time>2021-10-12T10:35:20Z</time>
    </trkpt>
    <trkpt lat="38.600307964" lon="34.848671034">
      <ele>1267.48</ele>
      <time>2021-10-12T10:35:24Z</time>
    </trkpt>
    <trkpt lat="38.600232024" lon="34.84857196">
      <ele>1268.235</ele>
      <time>2021-10-12T10:35:28Z</time>
    </trkpt>
    <trkpt lat="38.600140996" lon="34.848491997">
      <ele>1268.831</ele>
      <time>2021-10-12T10:35:32Z</time>
    </trkpt>
    <trkpt lat="38.600116018" lon="34.848466013">
      <ele>1269.006</ele>
      <time>2021-10-12T10:35:33Z</time>
    </trkpt>
    <trkpt lat="38.600037983" lon="34.848365011">
      <ele>1269.583</ele>
      <time>2021-10-12T10:35:38Z</time>
    </trkpt>
    <trkpt lat="38.599971011" lon="34.848278007">
      <ele>1270.239</ele>
      <time>2021-10-12T10:35:41Z</time>
    </trkpt>
    <trkpt lat="38.599764935" lon="34.847656157">
      <ele>1275.059</ele>
      <time>2021-10-12T10:36:01Z</time>
    </trkpt>
    <trkpt lat="38.599388037" lon="34.846742607">
      <ele>1279.329</ele>
      <time>2021-10-12T10:36:31Z</time>
    </trkpt>
    <trkpt lat="38.599095957" lon="34.846006038">
      <ele>1281.887</ele>
      <time>2021-10-12T10:36:55Z</time>
    </trkpt>
    <trkpt lat="38.598746117" lon="34.845001231">
      <ele>1287.993</ele>
      <time>2021-10-12T10:37:27Z</time>
    </trkpt>
    <trkpt lat="38.598493114" lon="34.844261901">
      <ele>1288.704</ele>
      <time>2021-10-12T10:37:50Z</time>
    </trkpt>
    <trkpt lat="38.598470567" lon="34.844191493">
      <ele>1288.967</ele>
      <time>2021-10-12T10:37:52Z</time>
    </trkpt>
    <trkpt lat="38.598427543" lon="34.84404344">
      <ele>1289.765</ele>
      <time>2021-10-12T10:37:57Z</time>
    </trkpt>
    <trkpt lat="38.598379017" lon="34.843946195">
      <ele>1290.465</ele>
      <time>2021-10-12T10:38:00Z</time>
    </trkpt>
    <trkpt lat="38.598304639" lon="34.843872169">
      <ele>1291.163</ele>
      <time>2021-10-12T10:38:04Z</time>
    </trkpt>
    <trkpt lat="38.598109074" lon="34.843667677">
      <ele>1292.604</ele>
      <time>2021-10-12T10:38:13Z</time>
    </trkpt>
    <trkpt lat="38.597780378" lon="34.84326219">
      <ele>1296.237</ele>
      <time>2021-10-12T10:38:30Z</time>
    </trkpt>
    <trkpt lat="38.597555843" lon="34.842949806">
      <ele>1299.701</ele>
      <time>2021-10-12T10:38:42Z</time>
    </trkpt>
    <trkpt lat="38.597354013" lon="34.842558917">
      <ele>1302.465</ele>
      <time>2021-10-12T10:38:56Z</time>
    </trkpt>
    <trkpt lat="38.597183603" lon="34.841946391">
      <ele>1309.125</ele>
      <time>2021-10-12T10:39:15Z</time>
    </trkpt>
    <trkpt lat="38.597030602" lon="34.841311749">
      <ele>1312.399</ele>
      <time>2021-10-12T10:39:34Z</time>
    </trkpt>
    <trkpt lat="38.596880667" lon="34.840823174">
      <ele>1313.037</ele>
      <time>2021-10-12T10:39:49Z</time>
    </trkpt>
    <trkpt lat="38.596708419" lon="34.839893719">
      <ele>1316.407</ele>
      <time>2021-10-12T10:40:17Z</time>
    </trkpt>
    <trkpt lat="38.596642943" lon="34.839789567">
      <ele>1317.686</ele>
      <time>2021-10-12T10:40:21Z</time>
    </trkpt>
    <trkpt lat="38.596560912" lon="34.839744898">
      <ele>1318.598</ele>
      <time>2021-10-12T10:40:24Z</time>
    </trkpt>
    <trkpt lat="38.596492051" lon="34.839675888">
      <ele>1319.653</ele>
      <time>2021-10-12T10:40:27Z</time>
    </trkpt>
    <trkpt lat="38.596512972" lon="34.839553323">
      <ele>1320.594</ele>
      <time>2021-10-12T10:40:31Z</time>
    </trkpt>
    <trkpt lat="38.596538112" lon="34.839395268">
      <ele>1321.817</ele>
      <time>2021-10-12T10:40:36Z</time>
    </trkpt>
    <trkpt lat="38.596570686" lon="34.839241013">
      <ele>1322.81</ele>
      <time>2021-10-12T10:40:40Z</time>
    </trkpt>
    <trkpt lat="38.596579411" lon="34.839067028">
      <ele>1324.032</ele>
      <time>2021-10-12T10:40:45Z</time>
    </trkpt>
    <trkpt lat="38.596563211" lon="34.838829142">
      <ele>1325.723</ele>
      <time>2021-10-12T10:40:52Z</time>
    </trkpt>
    <trkpt lat="38.596570072" lon="34.838683619">
      <ele>1326.569</ele>
      <time>2021-10-12T10:40:57Z</time>
    </trkpt>
    <trkpt lat="38.596565398" lon="34.838557143">
      <ele>1327.583</ele>
      <time>2021-10-12T10:41:00Z</time>
    </trkpt>
    <trkpt lat="38.596549805" lon="34.83848206">
      <ele>1328.394</ele>
      <time>2021-10-12T10:41:02Z</time>
    </trkpt>
    <trkpt lat="38.596519008" lon="34.838380991">
      <ele>1329.485</ele>
      <time>2021-10-12T10:41:06Z</time>
    </trkpt>
    <trkpt lat="38.596507022" lon="34.838348972">
      <ele>1329.831</ele>
      <time>2021-10-12T10:41:07Z</time>
    </trkpt>
    <trkpt lat="38.596496042" lon="34.838316031">
      <ele>1330.163</ele>
      <time>2021-10-12T10:41:08Z</time>
    </trkpt>
    <trkpt lat="38.596480032" lon="34.838284012">
      <ele>1330.474</ele>
      <time>2021-10-12T10:41:09Z</time>
    </trkpt>
    <trkpt lat="38.596466035" lon="34.838251993">
      <ele>1330.797</ele>
      <time>2021-10-12T10:41:10Z</time>
    </trkpt>
    <trkpt lat="38.596452959" lon="34.838219974">
      <ele>1331.13</ele>
      <time>2021-10-12T10:41:11Z</time>
    </trkpt>
    <trkpt lat="38.596438039" lon="34.838187033">
      <ele>1331.487</ele>
      <time>2021-10-12T10:41:12Z</time>
    </trkpt>
    <trkpt lat="38.59642203" lon="34.838151997">
      <ele>1331.881</ele>
      <time>2021-10-12T10:41:13Z</time>
    </trkpt>
    <trkpt lat="38.59640602" lon="34.838122996">
      <ele>1332.225</ele>
      <time>2021-10-12T10:41:14Z</time>
    </trkpt>
    <trkpt lat="38.596389005" lon="34.838093994">
      <ele>1332.585</ele>
      <time>2021-10-12T10:41:15Z</time>
    </trkpt>
    <trkpt lat="38.596374001" lon="34.838062981">
      <ele>1332.972</ele>
      <time>2021-10-12T10:41:16Z</time>
    </trkpt>
    <trkpt lat="38.596358998" lon="34.83803398">
      <ele>1333.185</ele>
      <time>2021-10-12T10:41:17Z</time>
    </trkpt>
    <trkpt lat="38.596346006" lon="34.838007996">
      <ele>1333.326</ele>
      <time>2021-10-12T10:41:18Z</time>
    </trkpt>
    <trkpt lat="38.59633402" lon="34.837977989">
      <ele>1333.477</ele>
      <time>2021-10-12T10:41:19Z</time>
    </trkpt>
    <trkpt lat="38.596322034" lon="34.837949993">
      <ele>1333.621</ele>
      <time>2021-10-12T10:41:20Z</time>
    </trkpt>
    <trkpt lat="38.596310969" lon="34.837920992">
      <ele>1333.765</ele>
      <time>2021-10-12T10:41:21Z</time>
    </trkpt>
    <trkpt lat="38.596298983" lon="34.837890984">
      <ele>1333.916</ele>
      <time>2021-10-12T10:41:22Z</time>
    </trkpt>
    <trkpt lat="38.596281968" lon="34.837859971">
      <ele>1334.089</ele>
      <time>2021-10-12T10:41:23Z</time>
    </trkpt>
    <trkpt lat="38.596265037" lon="34.83783097">
      <ele>1334.254</ele>
      <time>2021-10-12T10:41:24Z</time>
    </trkpt>
    <trkpt lat="38.596250033" lon="34.837802975">
      <ele>1334.409</ele>
      <time>2021-10-12T10:41:25Z</time>
    </trkpt>
    <trkpt lat="38.596235029" lon="34.837772967">
      <ele>1334.579</ele>
      <time>2021-10-12T10:41:26Z</time>
    </trkpt>
    <trkpt lat="38.596222037" lon="34.837742038">
      <ele>1334.781</ele>
      <time>2021-10-12T10:41:27Z</time>
    </trkpt>
    <trkpt lat="38.596209968" lon="34.837708008">
      <ele>1334.985</ele>
      <time>2021-10-12T10:41:28Z</time>
    </trkpt>
    <trkpt lat="38.596198987" lon="34.837678">
      <ele>1335.156</ele>
      <time>2021-10-12T10:41:29Z</time>
    </trkpt>
    <trkpt lat="38.596185995" lon="34.837648999">
      <ele>1335.319</ele>
      <time>2021-10-12T10:41:30Z</time>
    </trkpt>
    <trkpt lat="38.596171997" lon="34.837619998">
      <ele>1335.473</ele>
      <time>2021-10-12T10:41:31Z</time>
    </trkpt>
    <trkpt lat="38.596162023" lon="34.837583033">
      <ele>1335.646</ele>
      <time>2021-10-12T10:41:32Z</time>
    </trkpt>
    <trkpt lat="38.596151965" lon="34.83755202">
      <ele>1335.785</ele>
      <time>2021-10-12T10:41:33Z</time>
    </trkpt>
    <trkpt lat="38.596146014" lon="34.837522013">
      <ele>1335.911</ele>
      <time>2021-10-12T10:41:34Z</time>
    </trkpt>
    <trkpt lat="38.596144002" lon="34.837488988">
      <ele>1336.084</ele>
      <time>2021-10-12T10:41:35Z</time>
    </trkpt>
    <trkpt lat="38.596142996" lon="34.837455964">
      <ele>1336.335</ele>
      <time>2021-10-12T10:41:36Z</time>
    </trkpt>
    <trkpt lat="38.596142996" lon="34.837424029">
      <ele>1336.578</ele>
      <time>2021-10-12T10:41:37Z</time>
    </trkpt>
    <trkpt lat="38.596145008" lon="34.837394021">
      <ele>1336.81</ele>
      <time>2021-10-12T10:41:38Z</time>
    </trkpt>
    <trkpt lat="38.596147019" lon="34.837359991">
      <ele>1337.073</ele>
      <time>2021-10-12T10:41:39Z</time>
    </trkpt>
    <trkpt lat="38.596151965" lon="34.837327972">
      <ele>1337.33</ele>
      <time>2021-10-12T10:41:40Z</time>
    </trkpt>
    <trkpt lat="38.596163029" lon="34.837299976">
      <ele>1337.575</ele>
      <time>2021-10-12T10:41:41Z</time>
    </trkpt>
    <trkpt lat="38.596171997" lon="34.837268963">
      <ele>1337.846</ele>
      <time>2021-10-12T10:41:42Z</time>
    </trkpt>
    <trkpt lat="38.596181972" lon="34.837237028">
      <ele>1338.135</ele>
      <time>2021-10-12T10:41:43Z</time>
    </trkpt>
    <trkpt lat="38.596197981" lon="34.837206015">
      <ele>1338.429</ele>
      <time>2021-10-12T10:41:44Z</time>
    </trkpt>
    <trkpt lat="38.59620804" lon="34.837177014">
      <ele>1338.674</ele>
      <time>2021-10-12T10:41:45Z</time>
    </trkpt>
    <trkpt lat="38.596218014" lon="34.837150024">
      <ele>1338.905</ele>
      <time>2021-10-12T10:41:46Z</time>
    </trkpt>
    <trkpt lat="38.596227989" lon="34.837122029">
      <ele>1339.142</ele>
      <time>2021-10-12T10:41:47Z</time>
    </trkpt>
    <trkpt lat="38.596241986" lon="34.837095961">
      <ele>1339.38</ele>
      <time>2021-10-12T10:41:47Z</time>
    </trkpt>
    <trkpt lat="38.596254978" lon="34.837067965">
      <ele>1339.629</ele>
      <time>2021-10-12T10:41:48Z</time>
    </trkpt>
    <trkpt lat="38.596265959" lon="34.837041982">
      <ele>1339.855</ele>
      <time>2021-10-12T10:41:49Z</time>
    </trkpt>
    <trkpt lat="38.596276017" lon="34.83701298">
      <ele>1340.1</ele>
      <time>2021-10-12T10:41:50Z</time>
    </trkpt>
    <trkpt lat="38.596279034" lon="34.836980961">
      <ele>1340.342</ele>
      <time>2021-10-12T10:41:51Z</time>
    </trkpt>
    <trkpt lat="38.596277023" lon="34.83694802">
      <ele>1340.572</ele>
      <time>2021-10-12T10:41:52Z</time>
    </trkpt>
    <trkpt lat="38.596274005" lon="34.83691399">
      <ele>1340.632</ele>
      <time>2021-10-12T10:41:53Z</time>
    </trkpt>
    <trkpt lat="38.596268976" lon="34.836883983">
      <ele>1340.662</ele>
      <time>2021-10-12T10:41:54Z</time>
    </trkpt>
    <trkpt lat="38.596255984" lon="34.836853975">
      <ele>1340.677</ele>
      <time>2021-10-12T10:41:55Z</time>
    </trkpt>
    <trkpt lat="38.596239975" lon="34.836828997">
      <ele>1340.687</ele>
      <time>2021-10-12T10:41:56Z</time>
    </trkpt>
    <trkpt lat="38.596222037" lon="34.836804019">
      <ele>1340.703</ele>
      <time>2021-10-12T10:41:57Z</time>
    </trkpt>
    <trkpt lat="38.59620804" lon="34.836774012">
      <ele>1340.748</ele>
      <time>2021-10-12T10:41:58Z</time>
    </trkpt>
    <trkpt lat="38.596194042" lon="34.836744005">
      <ele>1340.805</ele>
      <time>2021-10-12T10:41:59Z</time>
    </trkpt>
    <trkpt lat="38.596178032" lon="34.836711986">
      <ele>1340.876</ele>
      <time>2021-10-12T10:42:00Z</time>
    </trkpt>
    <trkpt lat="38.596166968" lon="34.836680973">
      <ele>1340.959</ele>
      <time>2021-10-12T10:42:01Z</time>
    </trkpt>
    <trkpt lat="38.596160011" lon="34.836648032">
      <ele>1341.012</ele>
      <time>2021-10-12T10:42:02Z</time>
    </trkpt>
    <trkpt lat="38.596153976" lon="34.83661199">
      <ele>1341.03</ele>
      <time>2021-10-12T10:42:03Z</time>
    </trkpt>
    <trkpt lat="38.596151965" lon="34.836577037">
      <ele>1341.047</ele>
      <time>2021-10-12T10:42:04Z</time>
    </trkpt>
    <trkpt lat="38.596150959" lon="34.836536972">
      <ele>1341.067</ele>
      <time>2021-10-12T10:42:05Z</time>
    </trkpt>
    <trkpt lat="38.596150959" lon="34.836506965">
      <ele>1341.082</ele>
      <time>2021-10-12T10:42:06Z</time>
    </trkpt>
    <trkpt lat="38.596153976" lon="34.836472012">
      <ele>1341.108</ele>
      <time>2021-10-12T10:42:07Z</time>
    </trkpt>
    <trkpt lat="38.596159006" lon="34.836437982">
      <ele>1341.142</ele>
      <time>2021-10-12T10:42:08Z</time>
    </trkpt>
    <trkpt lat="38.596160011" lon="34.836405041">
      <ele>1341.166</ele>
      <time>2021-10-12T10:42:09Z</time>
    </trkpt>
    <trkpt lat="38.596162023" lon="34.836376039">
      <ele>1341.238</ele>
      <time>2021-10-12T10:42:10Z</time>
    </trkpt>
    <trkpt lat="38.596162023" lon="34.836343015">
      <ele>1341.379</ele>
      <time>2021-10-12T10:42:11Z</time>
    </trkpt>
    <trkpt lat="38.596164035" lon="34.836310996">
      <ele>1341.524</ele>
      <time>2021-10-12T10:42:12Z</time>
    </trkpt>
    <trkpt lat="38.596164035" lon="34.836278977">
      <ele>1341.662</ele>
      <time>2021-10-12T10:42:13Z</time>
    </trkpt>
    <trkpt lat="38.596167974" lon="34.836247042">
      <ele>1341.82</ele>
      <time>2021-10-12T10:42:14Z</time>
    </trkpt>
    <trkpt lat="38.596171997" lon="34.83621804">
      <ele>1341.969</ele>
      <time>2021-10-12T10:42:15Z</time>
    </trkpt>
    <trkpt lat="38.596176021" lon="34.836185016">
      <ele>1342.139</ele>
      <time>2021-10-12T10:42:16Z</time>
    </trkpt>
    <trkpt lat="38.59617996" lon="34.836154003">
      <ele>1342.303</ele>
      <time>2021-10-12T10:42:16Z</time>
    </trkpt>
    <trkpt lat="38.596183984" lon="34.836127013">
      <ele>1342.452</ele>
      <time>2021-10-12T10:42:17Z</time>
    </trkpt>
    <trkpt lat="38.596184989" lon="34.836096">
      <ele>1342.601</ele>
      <time>2021-10-12T10:42:18Z</time>
    </trkpt>
    <trkpt lat="38.596188007" lon="34.836066999">
      <ele>1342.756</ele>
      <time>2021-10-12T10:42:19Z</time>
    </trkpt>
    <trkpt lat="38.596194964" lon="34.836035985">
      <ele>1342.956</ele>
      <time>2021-10-12T10:42:20Z</time>
    </trkpt>
    <trkpt lat="38.596207034" lon="34.836002039">
      <ele>1343.219</ele>
      <time>2021-10-12T10:42:21Z</time>
    </trkpt>
    <trkpt lat="38.596214997" lon="34.835971026">
      <ele>1343.441</ele>
      <time>2021-10-12T10:42:22Z</time>
    </trkpt>
    <trkpt lat="38.596222959" lon="34.835939007">
      <ele>1343.674</ele>
      <time>2021-10-12T10:42:23Z</time>
    </trkpt>
    <trkpt lat="38.596232012" lon="34.835909">
      <ele>1343.915</ele>
      <time>2021-10-12T10:42:24Z</time>
    </trkpt>
    <trkpt lat="38.596240981" lon="34.835879998">
      <ele>1344.156</ele>
      <time>2021-10-12T10:42:25Z</time>
    </trkpt>
    <trkpt lat="38.596251039" lon="34.835847979">
      <ele>1344.432</ele>
      <time>2021-10-12T10:42:26Z</time>
    </trkpt>
    <trkpt lat="38.596263025" lon="34.835817972">
      <ele>1344.726</ele>
      <time>2021-10-12T10:42:27Z</time>
    </trkpt>
    <trkpt lat="38.596270988" lon="34.835788971">
      <ele>1344.978</ele>
      <time>2021-10-12T10:42:28Z</time>
    </trkpt>
    <trkpt lat="38.59628004" lon="34.835760975">
      <ele>1345.243</ele>
      <time>2021-10-12T10:42:29Z</time>
    </trkpt>
    <trkpt lat="38.596285991" lon="34.835729962">
      <ele>1345.495</ele>
      <time>2021-10-12T10:42:29Z</time>
    </trkpt>
    <trkpt lat="38.596293032" lon="34.835700961">
      <ele>1345.753</ele>
      <time>2021-10-12T10:42:30Z</time>
    </trkpt>
    <trkpt lat="38.596302001" lon="34.835672965">
      <ele>1346.036</ele>
      <time>2021-10-12T10:42:31Z</time>
    </trkpt>
    <trkpt lat="38.596311975" lon="34.835643964">
      <ele>1346.344</ele>
      <time>2021-10-12T10:42:32Z</time>
    </trkpt>
    <trkpt lat="38.59631801" lon="34.83561404">
      <ele>1346.612</ele>
      <time>2021-10-12T10:42:33Z</time>
    </trkpt>
    <trkpt lat="38.596321028" lon="34.835582022">
      <ele>1346.856</ele>
      <time>2021-10-12T10:42:34Z</time>
    </trkpt>
    <trkpt lat="38.596324967" lon="34.835552014">
      <ele>1347.086</ele>
      <time>2021-10-12T10:42:35Z</time>
    </trkpt>
    <trkpt lat="38.596328991" lon="34.835523013">
      <ele>1347.204</ele>
      <time>2021-10-12T10:42:36Z</time>
    </trkpt>
    <trkpt lat="38.596333014" lon="34.835492">
      <ele>1347.332</ele>
      <time>2021-10-12T10:42:37Z</time>
    </trkpt>
    <trkpt lat="38.596337037" lon="34.835460987">
      <ele>1347.467</ele>
      <time>2021-10-12T10:42:38Z</time>
    </trkpt>
    <trkpt lat="38.596338965" lon="34.835427962">
      <ele>1347.575</ele>
      <time>2021-10-12T10:42:38Z</time>
    </trkpt>
    <trkpt lat="38.596338965" lon="34.835397033">
      <ele>1347.647</ele>
      <time>2021-10-12T10:42:39Z</time>
    </trkpt>
    <trkpt lat="38.596342988" lon="34.835367026">
      <ele>1347.793</ele>
      <time>2021-10-12T10:42:40Z</time>
    </trkpt>
    <trkpt lat="38.596345" lon="34.835335007">
      <ele>1347.911</ele>
      <time>2021-10-12T10:42:41Z</time>
    </trkpt>
    <trkpt lat="38.596346006" lon="34.835305">
      <ele>1348.006</ele>
      <time>2021-10-12T10:42:42Z</time>
    </trkpt>
    <trkpt lat="38.596346006" lon="34.835274993">
      <ele>1348.072</ele>
      <time>2021-10-12T10:42:43Z</time>
    </trkpt>
    <trkpt lat="38.596343994" lon="34.835249009">
      <ele>1348.014</ele>
      <time>2021-10-12T10:42:44Z</time>
    </trkpt>
    <trkpt lat="38.596348017" lon="34.835222019">
      <ele>1348.088</ele>
      <time>2021-10-12T10:42:45Z</time>
    </trkpt>
    <trkpt lat="38.596352963" lon="34.835194023">
      <ele>1348.185</ele>
      <time>2021-10-12T10:42:45Z</time>
    </trkpt>
    <trkpt lat="38.596357992" lon="34.835167034">
      <ele>1348.288</ele>
      <time>2021-10-12T10:42:46Z</time>
    </trkpt>
    <trkpt lat="38.596362015" lon="34.835137026">
      <ele>1348.371</ele>
      <time>2021-10-12T10:42:47Z</time>
    </trkpt>
    <trkpt lat="38.596364027" lon="34.835106013">
      <ele>1348.408</ele>
      <time>2021-10-12T10:42:48Z</time>
    </trkpt>
    <trkpt lat="38.596365033" lon="34.835080029">
      <ele>1348.424</ele>
      <time>2021-10-12T10:42:49Z</time>
    </trkpt>
    <trkpt lat="38.596374001" lon="34.835050022">
      <ele>1348.634</ele>
      <time>2021-10-12T10:42:50Z</time>
    </trkpt>
    <trkpt lat="38.596387999" lon="34.835001994">
      <ele>1348.978</ele>
      <time>2021-10-12T10:42:51Z</time>
    </trkpt>
    <trkpt lat="38.596393028" lon="34.83497601">
      <ele>1349.319</ele>
      <time>2021-10-12T10:42:52Z</time>
    </trkpt>
    <trkpt lat="38.596399985" lon="34.83495296">
      <ele>1349.668</ele>
      <time>2021-10-12T10:42:53Z</time>
    </trkpt>
    <trkpt lat="38.596409038" lon="34.834926976">
      <ele>1350.079</ele>
      <time>2021-10-12T10:42:53Z</time>
    </trkpt>
    <trkpt lat="38.596415995" lon="34.834903004">
      <ele>1350.438</ele>
      <time>2021-10-12T10:42:54Z</time>
    </trkpt>
    <trkpt lat="38.596421024" lon="34.83487702">
      <ele>1350.791</ele>
      <time>2021-10-12T10:42:55Z</time>
    </trkpt>
    <trkpt lat="38.596423035" lon="34.83485003">
      <ele>1351.111</ele>
      <time>2021-10-12T10:42:56Z</time>
    </trkpt>
    <trkpt lat="38.59642203" lon="34.834822034">
      <ele>1351.399</ele>
      <time>2021-10-12T10:42:57Z</time>
    </trkpt>
    <trkpt lat="38.596429992" lon="34.834793033">
      <ele>1351.827</ele>
      <time>2021-10-12T10:42:57Z</time>
    </trkpt>
    <trkpt lat="38.596436027" lon="34.834763026">
      <ele>1352.238</ele>
      <time>2021-10-12T10:42:58Z</time>
    </trkpt>
    <trkpt lat="38.596439967" lon="34.834733019">
      <ele>1352.619</ele>
      <time>2021-10-12T10:42:59Z</time>
    </trkpt>
    <trkpt lat="38.596446002" lon="34.834702006">
      <ele>1352.968</ele>
      <time>2021-10-12T10:43:00Z</time>
    </trkpt>
    <trkpt lat="38.596448014" lon="34.834670993">
      <ele>1353.22</ele>
      <time>2021-10-12T10:43:01Z</time>
    </trkpt>
    <trkpt lat="38.596452959" lon="34.834638974">
      <ele>1353.522</ele>
      <time>2021-10-12T10:43:02Z</time>
    </trkpt>
    <trkpt lat="38.596456982" lon="34.834608966">
      <ele>1353.796</ele>
      <time>2021-10-12T10:43:03Z</time>
    </trkpt>
    <trkpt lat="38.596458994" lon="34.834579965">
      <ele>1354.034</ele>
      <time>2021-10-12T10:43:04Z</time>
    </trkpt>
    <trkpt lat="38.596463017" lon="34.83454803">
      <ele>1354.322</ele>
      <time>2021-10-12T10:43:05Z</time>
    </trkpt>
    <trkpt lat="38.596469974" lon="34.834496984">
      <ele>1354.789</ele>
      <time>2021-10-12T10:43:06Z</time>
    </trkpt>
    <trkpt lat="38.596472992" lon="34.834469995">
      <ele>1355.027</ele>
      <time>2021-10-12T10:43:07Z</time>
    </trkpt>
    <trkpt lat="38.596483972" lon="34.834445016">
      <ele>1355.365</ele>
      <time>2021-10-12T10:43:08Z</time>
    </trkpt>
    <trkpt lat="38.596496042" lon="34.834411992">
      <ele>1355.354</ele>
      <time>2021-10-12T10:43:09Z</time>
    </trkpt>
    <trkpt lat="38.596507022" lon="34.834377961">
      <ele>1355.324</ele>
      <time>2021-10-12T10:43:10Z</time>
    </trkpt>
    <trkpt lat="38.596518002" lon="34.834347032">
      <ele>1355.321</ele>
      <time>2021-10-12T10:43:11Z</time>
    </trkpt>
    <trkpt lat="38.596528983" lon="34.834317025">
      <ele>1355.331</ele>
      <time>2021-10-12T10:43:12Z</time>
    </trkpt>
    <trkpt lat="38.596540969" lon="34.834281988">
      <ele>1355.34</ele>
      <time>2021-10-12T10:43:13Z</time>
    </trkpt>
    <trkpt lat="38.596553961" lon="34.83424997">
      <ele>1355.393</ele>
      <time>2021-10-12T10:43:14Z</time>
    </trkpt>
    <trkpt lat="38.596564019" lon="34.83421904">
      <ele>1355.411</ele>
      <time>2021-10-12T10:43:15Z</time>
    </trkpt>
    <trkpt lat="38.596571982" lon="34.83418501">
      <ele>1355.384</ele>
      <time>2021-10-12T10:43:16Z</time>
    </trkpt>
    <trkpt lat="38.596581034" lon="34.834151985">
      <ele>1355.426</ele>
      <time>2021-10-12T10:43:17Z</time>
    </trkpt>
    <trkpt lat="38.596590003" lon="34.834119966">
      <ele>1355.527</ele>
      <time>2021-10-12T10:43:18Z</time>
    </trkpt>
    <trkpt lat="38.596604001" lon="34.834089037">
      <ele>1355.746</ele>
      <time>2021-10-12T10:43:19Z</time>
    </trkpt>
    <trkpt lat="38.596613975" lon="34.834056012">
      <ele>1355.9</ele>
      <time>2021-10-12T10:43:20Z</time>
    </trkpt>
    <trkpt lat="38.596630991" lon="34.834022988">
      <ele>1356.225</ele>
      <time>2021-10-12T10:43:21Z</time>
    </trkpt>
    <trkpt lat="38.596648006" lon="34.833989963">
      <ele>1356.579</ele>
      <time>2021-10-12T10:43:22Z</time>
    </trkpt>
    <trkpt lat="38.596660998" lon="34.833958028">
      <ele>1356.867</ele>
      <time>2021-10-12T10:43:23Z</time>
    </trkpt>
    <trkpt lat="38.596676001" lon="34.833926009">
      <ele>1357.193</ele>
      <time>2021-10-12T10:43:25Z</time>
    </trkpt>
    <trkpt lat="38.596694022" lon="34.833892984">
      <ele>1357.588</ele>
      <time>2021-10-12T10:43:26Z</time>
    </trkpt>
    <trkpt lat="38.59671196" lon="34.83385996">
      <ele>1357.787</ele>
      <time>2021-10-12T10:43:27Z</time>
    </trkpt>
    <trkpt lat="38.596730987" lon="34.833833976">
      <ele>1358.04</ele>
      <time>2021-10-12T10:43:28Z</time>
    </trkpt>
    <trkpt lat="38.596750014" lon="34.83380598">
      <ele>1358.293</ele>
      <time>2021-10-12T10:43:29Z</time>
    </trkpt>
    <trkpt lat="38.59676904" lon="34.833777985">
      <ele>1358.56</ele>
      <time>2021-10-12T10:43:30Z</time>
    </trkpt>
    <trkpt lat="38.596793013" lon="34.833747977">
      <ele>1358.945</ele>
      <time>2021-10-12T10:43:31Z</time>
    </trkpt>
    <trkpt lat="38.596813967" lon="34.833715959">
      <ele>1359.267</ele>
      <time>2021-10-12T10:43:32Z</time>
    </trkpt>
    <trkpt lat="38.596836012" lon="34.833685029">
      <ele>1359.637</ele>
      <time>2021-10-12T10:43:34Z</time>
    </trkpt>
    <trkpt lat="38.596857972" lon="34.833650999">
      <ele>1360.009</ele>
      <time>2021-10-12T10:43:35Z</time>
    </trkpt>
    <trkpt lat="38.596875994" lon="34.833619986">
      <ele>1360.315</ele>
      <time>2021-10-12T10:43:36Z</time>
    </trkpt>
    <trkpt lat="38.59689896" lon="34.833586039">
      <ele>1360.508</ele>
      <time>2021-10-12T10:43:37Z</time>
    </trkpt>
    <trkpt lat="38.596924022" lon="34.833555026">
      <ele>1360.693</ele>
      <time>2021-10-12T10:43:39Z</time>
    </trkpt>
    <trkpt lat="38.596945982" lon="34.833523007">
      <ele>1360.763</ele>
      <time>2021-10-12T10:43:40Z</time>
    </trkpt>
    <trkpt lat="38.596968027" lon="34.833489982">
      <ele>1360.754</ele>
      <time>2021-10-12T10:43:41Z</time>
    </trkpt>
    <trkpt lat="38.596987976" lon="34.833453018">
      <ele>1360.685</ele>
      <time>2021-10-12T10:43:42Z</time>
    </trkpt>
    <trkpt lat="38.597012032" lon="34.83341597">
      <ele>1360.748</ele>
      <time>2021-10-12T10:43:44Z</time>
    </trkpt>
    <trkpt lat="38.597036004" lon="34.833380012">
      <ele>1360.869</ele>
      <time>2021-10-12T10:43:45Z</time>
    </trkpt>
    <trkpt lat="38.597057965" lon="34.833342964">
      <ele>1360.971</ele>
      <time>2021-10-12T10:43:47Z</time>
    </trkpt>
    <trkpt lat="38.597076992" lon="34.833311029">
      <ele>1361.264</ele>
      <time>2021-10-12T10:43:48Z</time>
    </trkpt>
    <trkpt lat="38.597095013" lon="34.833280016">
      <ele>1361.586</ele>
      <time>2021-10-12T10:43:49Z</time>
    </trkpt>
    <trkpt lat="38.597113034" lon="34.833249003">
      <ele>1361.88</ele>
      <time>2021-10-12T10:43:50Z</time>
    </trkpt>
    <trkpt lat="38.597131977" lon="34.833220001">
      <ele>1362.175</ele>
      <time>2021-10-12T10:43:51Z</time>
    </trkpt>
    <trkpt lat="38.597151004" lon="34.833186977">
      <ele>1362.422</ele>
      <time>2021-10-12T10:43:52Z</time>
    </trkpt>
    <trkpt lat="38.597169025" lon="34.833155964">
      <ele>1362.627</ele>
      <time>2021-10-12T10:43:53Z</time>
    </trkpt>
    <trkpt lat="38.597186962" lon="34.833120005">
      <ele>1362.77</ele>
      <time>2021-10-12T10:43:55Z</time>
    </trkpt>
    <trkpt lat="38.597202972" lon="34.833081029">
      <ele>1362.824</ele>
      <time>2021-10-12T10:43:56Z</time>
    </trkpt>
    <trkpt lat="38.597216969" lon="34.833042976">
      <ele>1362.905</ele>
      <time>2021-10-12T10:43:57Z</time>
    </trkpt>
    <trkpt lat="38.597228033" lon="34.833006011">
      <ele>1363.063</ele>
      <time>2021-10-12T10:43:58Z</time>
    </trkpt>
    <trkpt lat="38.597241025" lon="34.832969969">
      <ele>1363.203</ele>
      <time>2021-10-12T10:43:59Z</time>
    </trkpt>
    <trkpt lat="38.597251" lon="34.832933005">
      <ele>1363.311</ele>
      <time>2021-10-12T10:44:01Z</time>
    </trkpt>
    <trkpt lat="38.597260974" lon="34.832895035">
      <ele>1363.419</ele>
      <time>2021-10-12T10:44:02Z</time>
    </trkpt>
    <trkpt lat="38.597271033" lon="34.832855975">
      <ele>1363.527</ele>
      <time>2021-10-12T10:44:03Z</time>
    </trkpt>
    <trkpt lat="38.59727799" lon="34.832819011">
      <ele>1363.602</ele>
      <time>2021-10-12T10:44:04Z</time>
    </trkpt>
    <trkpt lat="38.597284025" lon="34.832780035">
      <ele>1363.667</ele>
      <time>2021-10-12T10:44:05Z</time>
    </trkpt>
    <trkpt lat="38.597287964" lon="34.832738964">
      <ele>1363.71</ele>
      <time>2021-10-12T10:44:06Z</time>
    </trkpt>
    <trkpt lat="38.597297017" lon="34.832696971">
      <ele>1363.808</ele>
      <time>2021-10-12T10:44:08Z</time>
    </trkpt>
    <trkpt lat="38.597306991" lon="34.832652966">
      <ele>1363.916</ele>
      <time>2021-10-12T10:44:09Z</time>
    </trkpt>
    <trkpt lat="38.597315038" lon="34.832608961">
      <ele>1364.002</ele>
      <time>2021-10-12T10:44:10Z</time>
    </trkpt>
    <trkpt lat="38.597326018" lon="34.832567973">
      <ele>1364.121</ele>
      <time>2021-10-12T10:44:12Z</time>
    </trkpt>
    <trkpt lat="38.59733901" lon="34.832531009">
      <ele>1364.261</ele>
      <time>2021-10-12T10:44:13Z</time>
    </trkpt>
    <trkpt lat="38.597356025" lon="34.832496978">
      <ele>1364.429</ele>
      <time>2021-10-12T10:44:14Z</time>
    </trkpt>
    <trkpt lat="38.597375974" lon="34.832470994">
      <ele>1364.509</ele>
      <time>2021-10-12T10:44:15Z</time>
    </trkpt>
    <trkpt lat="38.59740003" lon="34.832450962">
      <ele>1364.68</ele>
      <time>2021-10-12T10:44:16Z</time>
    </trkpt>
    <trkpt lat="38.597425008" lon="34.832436964">
      <ele>1364.902</ele>
      <time>2021-10-12T10:44:17Z</time>
    </trkpt>
    <trkpt lat="38.59744898" lon="34.832420032">
      <ele>1365.108</ele>
      <time>2021-10-12T10:44:18Z</time>
    </trkpt>
    <trkpt lat="38.597473036" lon="34.832407963">
      <ele>1365.345</ele>
      <time>2021-10-12T10:44:19Z</time>
    </trkpt>
    <trkpt lat="38.597500026" lon="34.832394971">
      <ele>1365.622</ele>
      <time>2021-10-12T10:44:20Z</time>
    </trkpt>
    <trkpt lat="38.597522993" lon="34.832384996">
      <ele>1366.0</ele>
      <time>2021-10-12T10:44:21Z</time>
    </trkpt>
    <trkpt lat="38.597550988" lon="34.832378961">
      <ele>1366.482</ele>
      <time>2021-10-12T10:44:22Z</time>
    </trkpt>
    <trkpt lat="38.597577978" lon="34.832372004">
      <ele>1366.943</ele>
      <time>2021-10-12T10:44:23Z</time>
    </trkpt>
    <trkpt lat="38.597606979" lon="34.832364041">
      <ele>1367.436</ele>
      <time>2021-10-12T10:44:24Z</time>
    </trkpt>
    <trkpt lat="38.597635981" lon="34.832354989">
      <ele>1367.926</ele>
      <time>2021-10-12T10:44:25Z</time>
    </trkpt>
    <trkpt lat="38.597666994" lon="34.832347026">
      <ele>1368.455</ele>
      <time>2021-10-12T10:44:26Z</time>
    </trkpt>
    <trkpt lat="38.597699013" lon="34.832338979">
      <ele>1369.003</ele>
      <time>2021-10-12T10:44:28Z</time>
    </trkpt>
    <trkpt lat="38.597728014" lon="34.832329005">
      <ele>1369.489</ele>
      <time>2021-10-12T10:44:29Z</time>
    </trkpt>
    <trkpt lat="38.597758021" lon="34.832320036">
      <ele>1369.997</ele>
      <time>2021-10-12T10:44:30Z</time>
    </trkpt>
    <trkpt lat="38.597782999" lon="34.832309978">
      <ele>1370.391</ele>
      <time>2021-10-12T10:44:31Z</time>
    </trkpt>
    <trkpt lat="38.597808983" lon="34.832304027">
      <ele>1370.744</ele>
      <time>2021-10-12T10:44:32Z</time>
    </trkpt>
    <trkpt lat="38.597835973" lon="34.832296986">
      <ele>1371.107</ele>
      <time>2021-10-12T10:44:33Z</time>
    </trkpt>
    <trkpt lat="38.597862041" lon="34.832290029">
      <ele>1371.457</ele>
      <time>2021-10-12T10:44:34Z</time>
    </trkpt>
    <trkpt lat="38.597891964" lon="34.832286006">
      <ele>1371.874</ele>
      <time>2021-10-12T10:44:35Z</time>
    </trkpt>
    <trkpt lat="38.597920965" lon="34.832277959">
      <ele>1372.263</ele>
      <time>2021-10-12T10:44:36Z</time>
    </trkpt>
    <trkpt lat="38.597948039" lon="34.832262034">
      <ele>1372.595</ele>
      <time>2021-10-12T10:44:37Z</time>
    </trkpt>
    <trkpt lat="38.597976035" lon="34.832248036">
      <ele>1372.948</ele>
      <time>2021-10-12T10:44:38Z</time>
    </trkpt>
    <trkpt lat="38.59800403" lon="34.832230015">
      <ele>1373.286</ele>
      <time>2021-10-12T10:44:39Z</time>
    </trkpt>
    <trkpt lat="38.598030014" lon="34.832205959">
      <ele>1373.462</ele>
      <time>2021-10-12T10:44:41Z</time>
    </trkpt>
    <trkpt lat="38.598053986" lon="34.832178969">
      <ele>1373.511</ele>
      <time>2021-10-12T10:44:42Z</time>
    </trkpt>
    <trkpt lat="38.598074019" lon="34.832151979">
      <ele>1373.441</ele>
      <time>2021-10-12T10:44:43Z</time>
    </trkpt>
    <trkpt lat="38.598094974" lon="34.832122978">
      <ele>1373.354</ele>
      <time>2021-10-12T10:44:44Z</time>
    </trkpt>
    <trkpt lat="38.598115006" lon="34.832093976">
      <ele>1373.257</ele>
      <time>2021-10-12T10:44:45Z</time>
    </trkpt>
    <trkpt lat="38.598132022" lon="34.832067993">
      <ele>1373.16</ele>
      <time>2021-10-12T10:44:46Z</time>
    </trkpt>
    <trkpt lat="38.598152976" lon="34.832043014">
      <ele>1373.117</ele>
      <time>2021-10-12T10:44:47Z</time>
    </trkpt>
    <trkpt lat="38.598174015" lon="34.832018958">
      <ele>1373.084</ele>
      <time>2021-10-12T10:44:48Z</time>
    </trkpt>
    <trkpt lat="38.598197987" lon="34.832002027">
      <ele>1373.16</ele>
      <time>2021-10-12T10:44:49Z</time>
    </trkpt>
    <trkpt lat="38.598222965" lon="34.831988029">
      <ele>1373.279</ele>
      <time>2021-10-12T10:44:50Z</time>
    </trkpt>
    <trkpt lat="38.598249033" lon="34.831975959">
      <ele>1373.43</ele>
      <time>2021-10-12T10:44:51Z</time>
    </trkpt>
    <trkpt lat="38.598277029" lon="34.831970008">
      <ele>1373.668</ele>
      <time>2021-10-12T10:44:52Z</time>
    </trkpt>
    <trkpt lat="38.598307036" lon="34.831967996">
      <ele>1373.97</ele>
      <time>2021-10-12T10:44:53Z</time>
    </trkpt>
    <trkpt lat="38.598336959" lon="34.831967996">
      <ele>1374.303</ele>
      <time>2021-10-12T10:44:55Z</time>
    </trkpt>
    <trkpt lat="38.598365961" lon="34.831969002">
      <ele>1374.704</ele>
      <time>2021-10-12T10:44:56Z</time>
    </trkpt>
    <trkpt lat="38.59839404" lon="34.83197202">
      <ele>1375.107</ele>
      <time>2021-10-12T10:44:57Z</time>
    </trkpt>
    <trkpt lat="38.598422036" lon="34.831973026">
      <ele>1375.487</ele>
      <time>2021-10-12T10:44:58Z</time>
    </trkpt>
    <trkpt lat="38.598451037" lon="34.831971014">
      <ele>1375.86</ele>
      <time>2021-10-12T10:44:59Z</time>
    </trkpt>
    <trkpt lat="38.598478027" lon="34.831967996">
      <ele>1376.205</ele>
      <time>2021-10-12T10:45:00Z</time>
    </trkpt>
    <trkpt lat="38.598505016" lon="34.831966991">
      <ele>1376.565</ele>
      <time>2021-10-12T10:45:01Z</time>
    </trkpt>
    <trkpt lat="38.598531" lon="34.831962967">
      <ele>1376.904</ele>
      <time>2021-10-12T10:45:02Z</time>
    </trkpt>
    <trkpt lat="38.598556984" lon="34.831961961">
      <ele>1377.257</ele>
      <time>2021-10-12T10:45:03Z</time>
    </trkpt>
    <trkpt lat="38.598585986" lon="34.831957016">
      <ele>1377.65</ele>
      <time>2021-10-12T10:45:04Z</time>
    </trkpt>
    <trkpt lat="38.598614987" lon="34.831950981">
      <ele>1378.028</ele>
      <time>2021-10-12T10:45:05Z</time>
    </trkpt>
    <trkpt lat="38.598641977" lon="34.831940001">
      <ele>1378.192</ele>
      <time>2021-10-12T10:45:06Z</time>
    </trkpt>
    <trkpt lat="38.598668966" lon="34.831928015">
      <ele>1378.311</ele>
      <time>2021-10-12T10:45:07Z</time>
    </trkpt>
    <trkpt lat="38.598696962" lon="34.831918962">
      <ele>1378.463</ele>
      <time>2021-10-12T10:45:08Z</time>
    </trkpt>
    <trkpt lat="38.598726969" lon="34.831904965">
      <ele>1378.609</ele>
      <time>2021-10-12T10:45:09Z</time>
    </trkpt>
    <trkpt lat="38.598756976" lon="34.831893984">
      <ele>1378.782</ele>
      <time>2021-10-12T10:45:10Z</time>
    </trkpt>
    <trkpt lat="38.598788995" lon="34.831883004">
      <ele>1378.98</ele>
      <time>2021-10-12T10:45:12Z</time>
    </trkpt>
    <trkpt lat="38.598824032" lon="34.831877975">
      <ele>1379.238</ele>
      <time>2021-10-12T10:45:13Z</time>
    </trkpt>
    <trkpt lat="38.598855967" lon="34.831869006">
      <ele>1379.459</ele>
      <time>2021-10-12T10:45:14Z</time>
    </trkpt>
    <trkpt lat="38.59888698" lon="34.83186096">
      <ele>1379.684</ele>
      <time>2021-10-12T10:45:15Z</time>
    </trkpt>
    <trkpt lat="38.598918999" lon="34.831852997">
      <ele>1379.742</ele>
      <time>2021-10-12T10:45:17Z</time>
    </trkpt>
    <trkpt lat="38.598952023" lon="34.831842016">
      <ele>1379.799</ele>
      <time>2021-10-12T10:45:18Z</time>
    </trkpt>
    <trkpt lat="38.598983036" lon="34.83183003">
      <ele>1379.867</ele>
      <time>2021-10-12T10:45:19Z</time>
    </trkpt>
    <trkpt lat="38.599014971" lon="34.83181796">
      <ele>1379.958</ele>
      <time>2021-10-12T10:45:20Z</time>
    </trkpt>
    <trkpt lat="38.599053025" lon="34.831801029">
      <ele>1380.094</ele>
      <time>2021-10-12T10:45:22Z</time>
    </trkpt>
    <trkpt lat="38.599090995" lon="34.831782002">
      <ele>1380.266</ele>
      <time>2021-10-12T10:45:23Z</time>
    </trkpt>
    <trkpt lat="38.599125026" lon="34.831763981">
      <ele>1380.455</ele>
      <time>2021-10-12T10:45:25Z</time>
    </trkpt>
    <trkpt lat="38.599157967" lon="34.831745038">
      <ele>1380.673</ele>
      <time>2021-10-12T10:45:26Z</time>
    </trkpt>
    <trkpt lat="38.599189986" lon="34.831726011">
      <ele>1380.75</ele>
      <time>2021-10-12T10:45:27Z</time>
    </trkpt>
    <trkpt lat="38.599218987" lon="34.831708996">
      <ele>1380.79</ele>
      <time>2021-10-12T10:45:28Z</time>
    </trkpt>
    <trkpt lat="38.599246982" lon="34.831693992">
      <ele>1380.845</ele>
      <time>2021-10-12T10:45:30Z</time>
    </trkpt>
    <trkpt lat="38.599275984" lon="34.831676977">
      <ele>1380.934</ele>
      <time>2021-10-12T10:45:31Z</time>
    </trkpt>
    <trkpt lat="38.599309009" lon="34.831659961">
      <ele>1381.012</ele>
      <time>2021-10-12T10:45:32Z</time>
    </trkpt>
    <trkpt lat="38.599341027" lon="34.831644036">
      <ele>1381.051</ele>
      <time>2021-10-12T10:45:33Z</time>
    </trkpt>
    <trkpt lat="38.599369023" lon="34.831630038">
      <ele>1381.096</ele>
      <time>2021-10-12T10:45:34Z</time>
    </trkpt>
    <trkpt lat="38.599396013" lon="34.831612017">
      <ele>1381.162</ele>
      <time>2021-10-12T10:45:36Z</time>
    </trkpt>
    <trkpt lat="38.599420991" lon="34.831593996">
      <ele>1381.24</ele>
      <time>2021-10-12T10:45:37Z</time>
    </trkpt>
    <trkpt lat="38.599445969" lon="34.831576981">
      <ele>1381.319</ele>
      <time>2021-10-12T10:45:38Z</time>
    </trkpt>
    <trkpt lat="38.599472959" lon="34.83155896">
      <ele>1381.325</ele>
      <time>2021-10-12T10:45:39Z</time>
    </trkpt>
    <trkpt lat="38.599496009" lon="34.831541022">
      <ele>1381.351</ele>
      <time>2021-10-12T10:45:40Z</time>
    </trkpt>
    <trkpt lat="38.599521993" lon="34.831515038">
      <ele>1381.419</ele>
      <time>2021-10-12T10:45:41Z</time>
    </trkpt>
    <trkpt lat="38.599544037" lon="34.831488971">
      <ele>1381.511</ele>
      <time>2021-10-12T10:45:42Z</time>
    </trkpt>
    <trkpt lat="38.599570021" lon="34.831466004">
      <ele>1381.597</ele>
      <time>2021-10-12T10:45:43Z</time>
    </trkpt>
    <trkpt lat="38.599587958" lon="34.831444966">
      <ele>1381.694</ele>
      <time>2021-10-12T10:45:44Z</time>
    </trkpt>
    <trkpt lat="38.599605979" lon="34.831421999">
      <ele>1381.811</ele>
      <time>2021-10-12T10:45:45Z</time>
    </trkpt>
    <trkpt lat="38.59961696" lon="34.831394004">
      <ele>1381.97</ele>
      <time>2021-10-12T10:45:46Z</time>
    </trkpt>
    <trkpt lat="38.599631963" lon="34.83136802">
      <ele>1382.051</ele>
      <time>2021-10-12T10:45:47Z</time>
    </trkpt>
    <trkpt lat="38.599642022" lon="34.831340024">
      <ele>1382.125</ele>
      <time>2021-10-12T10:45:48Z</time>
    </trkpt>
    <trkpt lat="38.599654008" lon="34.831311023">
      <ele>1382.211</ele>
      <time>2021-10-12T10:45:49Z</time>
    </trkpt>
    <trkpt lat="38.599661971" lon="34.83128001">
      <ele>1382.307</ele>
      <time>2021-10-12T10:45:50Z</time>
    </trkpt>
    <trkpt lat="38.599668005" lon="34.831248997">
      <ele>1382.405</ele>
      <time>2021-10-12T10:45:51Z</time>
    </trkpt>
    <trkpt lat="38.599671023" lon="34.831216978">
      <ele>1382.505</ele>
      <time>2021-10-12T10:45:52Z</time>
    </trkpt>
    <trkpt lat="38.599672029" lon="34.831184037">
      <ele>1382.604</ele>
      <time>2021-10-12T10:45:53Z</time>
    </trkpt>
    <trkpt lat="38.599671023" lon="34.831146989">
      <ele>1382.71</ele>
      <time>2021-10-12T10:45:54Z</time>
    </trkpt>
    <trkpt lat="38.599665994" lon="34.831108013">
      <ele>1382.815</ele>
      <time>2021-10-12T10:45:55Z</time>
    </trkpt>
    <trkpt lat="38.599661971" lon="34.831069959">
      <ele>1383.015</ele>
      <time>2021-10-12T10:45:56Z</time>
    </trkpt>
    <trkpt lat="38.599655014" lon="34.831034001">
      <ele>1383.179</ele>
      <time>2021-10-12T10:45:57Z</time>
    </trkpt>
    <trkpt lat="38.599648979" lon="34.83099997">
      <ele>1383.326</ele>
      <time>2021-10-12T10:45:58Z</time>
    </trkpt>
    <trkpt lat="38.599643027" lon="34.830964012">
      <ele>1383.472</ele>
      <time>2021-10-12T10:45:59Z</time>
    </trkpt>
    <trkpt lat="38.599642022" lon="34.830926964">
      <ele>1383.654</ele>
      <time>2021-10-12T10:46:00Z</time>
    </trkpt>
    <trkpt lat="38.599645039" lon="34.830886982">
      <ele>1383.887</ele>
      <time>2021-10-12T10:46:01Z</time>
    </trkpt>
    <trkpt lat="38.599647973" lon="34.83085203">
      <ele>1384.099</ele>
      <time>2021-10-12T10:46:02Z</time>
    </trkpt>
    <trkpt lat="38.599656019" lon="34.830815988">
      <ele>1384.428</ele>
      <time>2021-10-12T10:46:03Z</time>
    </trkpt>
    <trkpt lat="38.599669011" lon="34.830782041">
      <ele>1384.873</ele>
      <time>2021-10-12T10:46:05Z</time>
    </trkpt>
    <trkpt lat="38.599679992" lon="34.830751028">
      <ele>1385.298</ele>
      <time>2021-10-12T10:46:06Z</time>
    </trkpt>
    <trkpt lat="38.599694995" lon="34.830720015">
      <ele>1385.81</ele>
      <time>2021-10-12T10:46:07Z</time>
    </trkpt>
    <trkpt lat="38.599706981" lon="34.830690008">
      <ele>1386.298</ele>
      <time>2021-10-12T10:46:08Z</time>
    </trkpt>
    <trkpt lat="38.599722991" lon="34.830656983">
      <ele>1386.905</ele>
      <time>2021-10-12T10:46:09Z</time>
    </trkpt>
    <trkpt lat="38.599734977" lon="34.830626976">
      <ele>1387.251</ele>
      <time>2021-10-12T10:46:10Z</time>
    </trkpt>
    <trkpt lat="38.599746041" lon="34.830596969">
      <ele>1387.613</ele>
      <time>2021-10-12T10:46:11Z</time>
    </trkpt>
    <trkpt lat="38.599757021" lon="34.830564028">
      <ele>1388.026</ele>
      <time>2021-10-12T10:46:12Z</time>
    </trkpt>
    <trkpt lat="38.599768002" lon="34.830533015">
      <ele>1388.34</ele>
      <time>2021-10-12T10:46:13Z</time>
    </trkpt>
    <trkpt lat="38.59977697" lon="34.83049999">
      <ele>1388.637</ele>
      <time>2021-10-12T10:46:14Z</time>
    </trkpt>
    <trkpt lat="38.599787029" lon="34.830467971">
      <ele>1388.937</ele>
      <time>2021-10-12T10:46:15Z</time>
    </trkpt>
    <trkpt lat="38.599795997" lon="34.830432013">
      <ele>1389.273</ele>
      <time>2021-10-12T10:46:16Z</time>
    </trkpt>
    <trkpt lat="38.599806977" lon="34.830399994">
      <ele>1389.596</ele>
      <time>2021-10-12T10:46:17Z</time>
    </trkpt>
    <trkpt lat="38.599814018" lon="34.830366969">
      <ele>1389.913</ele>
      <time>2021-10-12T10:46:18Z</time>
    </trkpt>
    <trkpt lat="38.599819969" lon="34.830333022">
      <ele>1390.236</ele>
      <time>2021-10-12T10:46:19Z</time>
    </trkpt>
    <trkpt lat="38.599826004" lon="34.830301004">
      <ele>1390.549</ele>
      <time>2021-10-12T10:46:20Z</time>
    </trkpt>
    <trkpt lat="38.599832961" lon="34.830265967">
      <ele>1390.831</ele>
      <time>2021-10-12T10:46:21Z</time>
    </trkpt>
    <trkpt lat="38.599840002" lon="34.830234032">
      <ele>1390.982</ele>
      <time>2021-10-12T10:46:22Z</time>
    </trkpt>
    <trkpt lat="38.599846959" lon="34.830202013">
      <ele>1391.143</ele>
      <time>2021-10-12T10:46:23Z</time>
    </trkpt>
    <trkpt lat="38.599851988" lon="34.830172006">
      <ele>1391.29</ele>
      <time>2021-10-12T10:46:24Z</time>
    </trkpt>
    <trkpt lat="38.599860035" lon="34.830139987">
      <ele>1391.484</ele>
      <time>2021-10-12T10:46:25Z</time>
    </trkpt>
    <trkpt lat="38.599866992" lon="34.830108974">
      <ele>1391.676</ele>
      <time>2021-10-12T10:46:26Z</time>
    </trkpt>
    <trkpt lat="38.599873027" lon="34.830078967">
      <ele>1391.863</ele>
      <time>2021-10-12T10:46:26Z</time>
    </trkpt>
    <trkpt lat="38.599879984" lon="34.830048038">
      <ele>1392.075</ele>
      <time>2021-10-12T10:46:27Z</time>
    </trkpt>
    <trkpt lat="38.59989197" lon="34.830017025">
      <ele>1392.369</ele>
      <time>2021-10-12T10:46:28Z</time>
    </trkpt>
    <trkpt lat="38.599898005" lon="34.829990035">
      <ele>1392.567</ele>
      <time>2021-10-12T10:46:29Z</time>
    </trkpt>
    <trkpt lat="38.599908985" lon="34.829958016">
      <ele>1392.841</ele>
      <time>2021-10-12T10:46:30Z</time>
    </trkpt>
    <trkpt lat="38.599919965" lon="34.829928009">
      <ele>1393.107</ele>
      <time>2021-10-12T10:46:31Z</time>
    </trkpt>
    <trkpt lat="38.599933041" lon="34.829900013">
      <ele>1393.396</ele>
      <time>2021-10-12T10:46:32Z</time>
    </trkpt>
    <trkpt lat="38.599946033" lon="34.829871012">
      <ele>1393.687</ele>
      <time>2021-10-12T10:46:33Z</time>
    </trkpt>
    <trkpt lat="38.599956008" lon="34.829845028">
      <ele>1393.924</ele>
      <time>2021-10-12T10:46:34Z</time>
    </trkpt>
    <trkpt lat="38.599967994" lon="34.829818038">
      <ele>1394.194</ele>
      <time>2021-10-12T10:46:35Z</time>
    </trkpt>
    <trkpt lat="38.599980986" lon="34.829791971">
      <ele>1394.475</ele>
      <time>2021-10-12T10:46:36Z</time>
    </trkpt>
    <trkpt lat="38.599994984" lon="34.829765987">
      <ele>1394.77</ele>
      <time>2021-10-12T10:46:37Z</time>
    </trkpt>
    <trkpt lat="38.600008981" lon="34.829740003">
      <ele>1395.001</ele>
      <time>2021-10-12T10:46:38Z</time>
    </trkpt>
    <trkpt lat="38.600021973" lon="34.829707984">
      <ele>1395.214</ele>
      <time>2021-10-12T10:46:39Z</time>
    </trkpt>
    <trkpt lat="38.600038989" lon="34.829675965">
      <ele>1395.471</ele>
      <time>2021-10-12T10:46:40Z</time>
    </trkpt>
    <trkpt lat="38.600056004" lon="34.829647969">
      <ele>1395.724</ele>
      <time>2021-10-12T10:46:41Z</time>
    </trkpt>
    <trkpt lat="38.60007897" lon="34.829619974">
      <ele>1396.041</ele>
      <time>2021-10-12T10:46:42Z</time>
    </trkpt>
    <trkpt lat="38.600101015" lon="34.829588039">
      <ele>1396.386</ele>
      <time>2021-10-12T10:46:43Z</time>
    </trkpt>
    <trkpt lat="38.600119036" lon="34.829553002">
      <ele>1396.727</ele>
      <time>2021-10-12T10:46:44Z</time>
    </trkpt>
    <trkpt lat="38.600140996" lon="34.829518972">
      <ele>1397.118</ele>
      <time>2021-10-12T10:46:46Z</time>
    </trkpt>
    <trkpt lat="38.600156" lon="34.829486031">
      <ele>1397.451</ele>
      <time>2021-10-12T10:46:47Z</time>
    </trkpt>
    <trkpt lat="38.600172009" lon="34.829452001">
      <ele>1397.814</ele>
      <time>2021-10-12T10:46:48Z</time>
    </trkpt>
    <trkpt lat="38.600185001" lon="34.829419982">
      <ele>1398.086</ele>
      <time>2021-10-12T10:46:49Z</time>
    </trkpt>
    <trkpt lat="38.60019397" lon="34.829386035">
      <ele>1398.305</ele>
      <time>2021-10-12T10:46:50Z</time>
    </trkpt>
    <trkpt lat="38.600207968" lon="34.829355022">
      <ele>1398.568</ele>
      <time>2021-10-12T10:46:51Z</time>
    </trkpt>
    <trkpt lat="38.60022096" lon="34.829321997">
      <ele>1398.827</ele>
      <time>2021-10-12T10:46:52Z</time>
    </trkpt>
    <trkpt lat="38.600235041" lon="34.829288973">
      <ele>1399.098</ele>
      <time>2021-10-12T10:46:53Z</time>
    </trkpt>
    <trkpt lat="38.600248033" lon="34.829259971">
      <ele>1399.343</ele>
      <time>2021-10-12T10:46:54Z</time>
    </trkpt>
    <trkpt lat="38.600262031" lon="34.829228958">
      <ele>1399.606</ele>
      <time>2021-10-12T10:46:55Z</time>
    </trkpt>
    <trkpt lat="38.600277035" lon="34.829200041">
      <ele>1399.872</ele>
      <time>2021-10-12T10:46:56Z</time>
    </trkpt>
    <trkpt lat="38.600292038" lon="34.829171961">
      <ele>1399.979</ele>
      <time>2021-10-12T10:46:57Z</time>
    </trkpt>
    <trkpt lat="38.60030897" lon="34.829141032">
      <ele>1400.092</ele>
      <time>2021-10-12T10:46:58Z</time>
    </trkpt>
    <trkpt lat="38.600324979" lon="34.829113958">
      <ele>1400.19</ele>
      <time>2021-10-12T10:46:59Z</time>
    </trkpt>
    <trkpt lat="38.600338977" lon="34.829086969">
      <ele>1400.287</ele>
      <time>2021-10-12T10:47:00Z</time>
    </trkpt>
    <trkpt lat="38.600354986" lon="34.829061991">
      <ele>1400.377</ele>
      <time>2021-10-12T10:47:01Z</time>
    </trkpt>
    <trkpt lat="38.600372002" lon="34.829036007">
      <ele>1400.47</ele>
      <time>2021-10-12T10:47:02Z</time>
    </trkpt>
    <trkpt lat="38.600390023" lon="34.829012034">
      <ele>1400.557</ele>
      <time>2021-10-12T10:47:03Z</time>
    </trkpt>
    <trkpt lat="38.600409972" lon="34.828987978">
      <ele>1400.643</ele>
      <time>2021-10-12T10:47:04Z</time>
    </trkpt>
    <trkpt lat="38.600423969" lon="34.828963">
      <ele>1400.733</ele>
      <time>2021-10-12T10:47:05Z</time>
    </trkpt>
    <trkpt lat="38.600439979" lon="34.828933999">
      <ele>1400.838</ele>
      <time>2021-10-12T10:47:06Z</time>
    </trkpt>
    <trkpt lat="38.600456994" lon="34.828910027">
      <ele>1400.924</ele>
      <time>2021-10-12T10:47:07Z</time>
    </trkpt>
    <trkpt lat="38.600469986" lon="34.828885971">
      <ele>1401.011</ele>
      <time>2021-10-12T10:47:08Z</time>
    </trkpt>
    <trkpt lat="38.60048499" lon="34.828861998">
      <ele>1401.12</ele>
      <time>2021-10-12T10:47:09Z</time>
    </trkpt>
    <trkpt lat="38.600497982" lon="34.828836014">
      <ele>1401.262</ele>
      <time>2021-10-12T10:47:10Z</time>
    </trkpt>
    <trkpt lat="38.600510973" lon="34.828809025">
      <ele>1401.437</ele>
      <time>2021-10-12T10:47:11Z</time>
    </trkpt>
    <trkpt lat="38.600523965" lon="34.828782035">
      <ele>1401.638</ele>
      <time>2021-10-12T10:47:11Z</time>
    </trkpt>
    <trkpt lat="38.600537963" lon="34.828753034">
      <ele>1401.885</ele>
      <time>2021-10-12T10:47:12Z</time>
    </trkpt>
    <trkpt lat="38.600550033" lon="34.828722021">
      <ele>1402.166</ele>
      <time>2021-10-12T10:47:13Z</time>
    </trkpt>
    <trkpt lat="38.600560008" lon="34.828692013">
      <ele>1402.44</ele>
      <time>2021-10-12T10:47:14Z</time>
    </trkpt>
    <trkpt lat="38.600574005" lon="34.828659995">
      <ele>1402.758</ele>
      <time>2021-10-12T10:47:15Z</time>
    </trkpt>
    <trkpt lat="38.600585992" lon="34.82862697">
      <ele>1403.092</ele>
      <time>2021-10-12T10:47:16Z</time>
    </trkpt>
    <trkpt lat="38.600597978" lon="34.828594029">
      <ele>1403.395</ele>
      <time>2021-10-12T10:47:18Z</time>
    </trkpt>
    <trkpt lat="38.600612981" lon="34.82856201">
      <ele>1403.7</ele>
      <time>2021-10-12T10:47:19Z</time>
    </trkpt>
    <trkpt lat="38.600627985" lon="34.828529991">
      <ele>1404.042</ele>
      <time>2021-10-12T10:47:20Z</time>
    </trkpt>
    <trkpt lat="38.600642988" lon="34.828499984">
      <ele>1404.407</ele>
      <time>2021-10-12T10:47:21Z</time>
    </trkpt>
    <trkpt lat="38.600654975" lon="34.828468971">
      <ele>1404.777</ele>
      <time>2021-10-12T10:47:22Z</time>
    </trkpt>
    <trkpt lat="38.600666039" lon="34.82843997">
      <ele>1405.147</ele>
      <time>2021-10-12T10:47:23Z</time>
    </trkpt>
    <trkpt lat="38.600678025" lon="34.828409962">
      <ele>1405.564</ele>
      <time>2021-10-12T10:47:24Z</time>
    </trkpt>
    <trkpt lat="38.600687999" lon="34.828380961">
      <ele>1405.967</ele>
      <time>2021-10-12T10:47:25Z</time>
    </trkpt>
    <trkpt lat="38.600697974" lon="34.828351038">
      <ele>1406.402</ele>
      <time>2021-10-12T10:47:26Z</time>
    </trkpt>
    <trkpt lat="38.600710966" lon="34.82832103">
      <ele>1406.866</ele>
      <time>2021-10-12T10:47:27Z</time>
    </trkpt>
    <trkpt lat="38.600723036" lon="34.828290017">
      <ele>1407.265</ele>
      <time>2021-10-12T10:47:28Z</time>
    </trkpt>
    <trkpt lat="38.600736028" lon="34.828257998">
      <ele>1407.696</ele>
      <time>2021-10-12T10:47:29Z</time>
    </trkpt>
    <trkpt lat="38.600746002" lon="34.82822598">
      <ele>1408.079</ele>
      <time>2021-10-12T10:47:30Z</time>
    </trkpt>
    <trkpt lat="38.600758994" lon="34.828194967">
      <ele>1408.525</ele>
      <time>2021-10-12T10:47:31Z</time>
    </trkpt>
    <trkpt lat="38.600773998" lon="34.828162026">
      <ele>1409.034</ele>
      <time>2021-10-12T10:47:32Z</time>
    </trkpt>
    <trkpt lat="38.600791013" lon="34.828130007">
      <ele>1409.591</ele>
      <time>2021-10-12T10:47:33Z</time>
    </trkpt>
    <trkpt lat="38.600809034" lon="34.828096982">
      <ele>1410.19</ele>
      <time>2021-10-12T10:47:34Z</time>
    </trkpt>
    <trkpt lat="38.600823032" lon="34.828065969">
      <ele>1410.704</ele>
      <time>2021-10-12T10:47:35Z</time>
    </trkpt>
    <trkpt lat="38.600836024" lon="34.828036968">
      <ele>1411.029</ele>
      <time>2021-10-12T10:47:36Z</time>
    </trkpt>
    <trkpt lat="38.600852033" lon="34.828010984">
      <ele>1411.202</ele>
      <time>2021-10-12T10:47:37Z</time>
    </trkpt>
    <trkpt lat="38.600868965" lon="34.827977959">
      <ele>1411.385</ele>
      <time>2021-10-12T10:47:38Z</time>
    </trkpt>
    <trkpt lat="38.60088598" lon="34.827946024">
      <ele>1411.569</ele>
      <time>2021-10-12T10:47:39Z</time>
    </trkpt>
    <trkpt lat="38.600904001" lon="34.827910988">
      <ele>1411.763</ele>
      <time>2021-10-12T10:47:40Z</time>
    </trkpt>
    <trkpt lat="38.600914981" lon="34.827877041">
      <ele>1411.882</ele>
      <time>2021-10-12T10:47:42Z</time>
    </trkpt>
    <trkpt lat="38.600927973" lon="34.827845022">
      <ele>1412.022</ele>
      <time>2021-10-12T10:47:43Z</time>
    </trkpt>
    <trkpt lat="38.600938031" lon="34.827811997">
      <ele>1412.131</ele>
      <time>2021-10-12T10:47:44Z</time>
    </trkpt>
    <trkpt lat="38.600944988" lon="34.827777967">
      <ele>1412.206</ele>
      <time>2021-10-12T10:47:45Z</time>
    </trkpt>
    <trkpt lat="38.600949012" lon="34.827745026">
      <ele>1412.318</ele>
      <time>2021-10-12T10:47:46Z</time>
    </trkpt>
    <trkpt lat="38.600951023" lon="34.827713007">
      <ele>1412.405</ele>
      <time>2021-10-12T10:47:46Z</time>
    </trkpt>
    <trkpt lat="38.600954041" lon="34.827681994">
      <ele>1412.499</ele>
      <time>2021-10-12T10:47:47Z</time>
    </trkpt>
    <trkpt lat="38.600962004" lon="34.827652993">
      <ele>1412.631</ele>
      <time>2021-10-12T10:47:48Z</time>
    </trkpt>
    <trkpt lat="38.600967033" lon="34.827623991">
      <ele>1412.731</ele>
      <time>2021-10-12T10:47:49Z</time>
    </trkpt>
    <trkpt lat="38.600977007" lon="34.827593984">
      <ele>1412.871</ele>
      <time>2021-10-12T10:47:50Z</time>
    </trkpt>
    <trkpt lat="38.600986982" lon="34.827564983">
      <ele>1413.002</ele>
      <time>2021-10-12T10:47:51Z</time>
    </trkpt>
    <trkpt lat="38.600995028" lon="34.827535981">
      <ele>1413.11</ele>
      <time>2021-10-12T10:47:52Z</time>
    </trkpt>
    <trkpt lat="38.601003997" lon="34.827505974">
      <ele>1413.22</ele>
      <time>2021-10-12T10:47:53Z</time>
    </trkpt>
    <trkpt lat="38.601019001" lon="34.827476973">
      <ele>1413.337</ele>
      <time>2021-10-12T10:47:54Z</time>
    </trkpt>
    <trkpt lat="38.601031993" lon="34.827448977">
      <ele>1413.43</ele>
      <time>2021-10-12T10:47:55Z</time>
    </trkpt>
    <trkpt lat="38.601044985" lon="34.827419976">
      <ele>1413.524</ele>
      <time>2021-10-12T10:47:56Z</time>
    </trkpt>
    <trkpt lat="38.601056971" lon="34.82739198">
      <ele>1413.61</ele>
      <time>2021-10-12T10:47:57Z</time>
    </trkpt>
    <trkpt lat="38.601069041" lon="34.82736499">
      <ele>1413.697</ele>
      <time>2021-10-12T10:47:58Z</time>
    </trkpt>
    <trkpt lat="38.601080021" lon="34.827342024">
      <ele>1413.776</ele>
      <time>2021-10-12T10:47:58Z</time>
    </trkpt>
    <trkpt lat="38.601094019" lon="34.82731604">
      <ele>1413.877</ele>
      <time>2021-10-12T10:47:59Z</time>
    </trkpt>
    <trkpt lat="38.601112962" lon="34.827289972">
      <ele>1414.005</ele>
      <time>2021-10-12T10:48:00Z</time>
    </trkpt>
    <trkpt lat="38.601129977" lon="34.827262983">
      <ele>1414.058</ele>
      <time>2021-10-12T10:48:01Z</time>
    </trkpt>
    <trkpt lat="38.601147998" lon="34.827236999">
      <ele>1414.126</ele>
      <time>2021-10-12T10:48:02Z</time>
    </trkpt>
    <trkpt lat="38.601164008" lon="34.827212021">
      <ele>1414.278</ele>
      <time>2021-10-12T10:48:03Z</time>
    </trkpt>
    <trkpt lat="38.601183034" lon="34.827186037">
      <ele>1414.587</ele>
      <time>2021-10-12T10:48:04Z</time>
    </trkpt>
    <trkpt lat="38.60119896" lon="34.827161981">
      <ele>1414.887</ele>
      <time>2021-10-12T10:48:05Z</time>
    </trkpt>
    <trkpt lat="38.601221005" lon="34.827134991">
      <ele>1415.272</ele>
      <time>2021-10-12T10:48:06Z</time>
    </trkpt>
    <trkpt lat="38.601241037" lon="34.827112025">
      <ele>1415.632</ele>
      <time>2021-10-12T10:48:07Z</time>
    </trkpt>
    <trkpt lat="38.601268027" lon="34.82708998">
      <ele>1416.055</ele>
      <time>2021-10-12T10:48:09Z</time>
    </trkpt>
    <trkpt lat="38.601293005" lon="34.827071037">
      <ele>1416.456</ele>
      <time>2021-10-12T10:48:10Z</time>
    </trkpt>
    <trkpt lat="38.601315971" lon="34.82705201">
      <ele>1416.867</ele>
      <time>2021-10-12T10:48:11Z</time>
    </trkpt>
    <trkpt lat="38.601341033" lon="34.827034995">
      <ele>1417.292</ele>
      <time>2021-10-12T10:48:12Z</time>
    </trkpt>
    <trkpt lat="38.601364" lon="34.827015968">
      <ele>1417.747</ele>
      <time>2021-10-12T10:48:13Z</time>
    </trkpt>
    <trkpt lat="38.601387972" lon="34.826998031">
      <ele>1418.22</ele>
      <time>2021-10-12T10:48:14Z</time>
    </trkpt>
    <trkpt lat="38.601411022" lon="34.826977998">
      <ele>1418.616</ele>
      <time>2021-10-12T10:48:15Z</time>
    </trkpt>
    <trkpt lat="38.601432983" lon="34.826956959">
      <ele>1418.993</ele>
      <time>2021-10-12T10:48:16Z</time>
    </trkpt>
    <trkpt lat="38.60145201" lon="34.826938016">
      <ele>1419.279</ele>
      <time>2021-10-12T10:48:17Z</time>
    </trkpt>
    <trkpt lat="38.601471037" lon="34.826919995">
      <ele>1419.498</ele>
      <time>2021-10-12T10:48:18Z</time>
    </trkpt>
    <trkpt lat="38.60148998" lon="34.826898035">
      <ele>1419.759</ele>
      <time>2021-10-12T10:48:18Z</time>
    </trkpt>
    <trkpt lat="38.601509007" lon="34.826880014">
      <ele>1419.997</ele>
      <time>2021-10-12T10:48:19Z</time>
    </trkpt>
    <trkpt lat="38.601529961" lon="34.826860987">
      <ele>1420.261</ele>
      <time>2021-10-12T10:48:20Z</time>
    </trkpt>
    <trkpt lat="38.601547983" lon="34.826837014">
      <ele>1420.568</ele>
      <time>2021-10-12T10:48:21Z</time>
    </trkpt>
    <trkpt lat="38.601567009" lon="34.826815976">
      <ele>1420.863</ele>
      <time>2021-10-12T10:48:22Z</time>
    </trkpt>
    <trkpt lat="38.601586958" lon="34.826793009">
      <ele>1421.192</ele>
      <time>2021-10-12T10:48:23Z</time>
    </trkpt>
    <trkpt lat="38.601604979" lon="34.826772977">
      <ele>1421.493</ele>
      <time>2021-10-12T10:48:24Z</time>
    </trkpt>
    <trkpt lat="38.601626018" lon="34.826749004">
      <ele>1421.861</ele>
      <time>2021-10-12T10:48:25Z</time>
    </trkpt>
    <trkpt lat="38.601644961" lon="34.826727966">
      <ele>1422.199</ele>
      <time>2021-10-12T10:48:26Z</time>
    </trkpt>
    <trkpt lat="38.601663988" lon="34.826706005">
      <ele>1422.557</ele>
      <time>2021-10-12T10:48:27Z</time>
    </trkpt>
    <trkpt lat="38.601685027" lon="34.826685973">
      <ele>1422.994</ele>
      <time>2021-10-12T10:48:28Z</time>
    </trkpt>
    <trkpt lat="38.601704976" lon="34.826662">
      <ele>1423.431</ele>
      <time>2021-10-12T10:48:29Z</time>
    </trkpt>
    <trkpt lat="38.601724003" lon="34.826639034">
      <ele>1423.719</ele>
      <time>2021-10-12T10:48:30Z</time>
    </trkpt>
    <trkpt lat="38.601741018" lon="34.826613972">
      <ele>1423.993</ele>
      <time>2021-10-12T10:48:31Z</time>
    </trkpt>
    <trkpt lat="38.601758033" lon="34.826586982">
      <ele>1424.274</ele>
      <time>2021-10-12T10:48:32Z</time>
    </trkpt>
    <trkpt lat="38.601777982" lon="34.826559993">
      <ele>1424.586</ele>
      <time>2021-10-12T10:48:33Z</time>
    </trkpt>
    <trkpt lat="38.601799021" lon="34.826530991">
      <ele>1424.918</ele>
      <time>2021-10-12T10:48:34Z</time>
    </trkpt>
    <trkpt lat="38.601823999" lon="34.826502996">
      <ele>1425.288</ele>
      <time>2021-10-12T10:48:35Z</time>
    </trkpt>
    <trkpt lat="38.601846965" lon="34.826471983">
      <ele>1425.648</ele>
      <time>2021-10-12T10:48:37Z</time>
    </trkpt>
    <trkpt lat="38.601864986" lon="34.826443987">
      <ele>1425.943</ele>
      <time>2021-10-12T10:48:38Z</time>
    </trkpt>
    <trkpt lat="38.601884013" lon="34.82641398">
      <ele>1426.257</ele>
      <time>2021-10-12T10:48:39Z</time>
    </trkpt>
    <trkpt lat="38.601902034" lon="34.826384978">
      <ele>1426.546</ele>
      <time>2021-10-12T10:48:40Z</time>
    </trkpt>
    <trkpt lat="38.601915026" lon="34.826357989">
      <ele>1426.706</ele>
      <time>2021-10-12T10:48:41Z</time>
    </trkpt>
    <trkpt lat="38.601929024" lon="34.826329993">
      <ele>1426.857</ele>
      <time>2021-10-12T10:48:42Z</time>
    </trkpt>
    <trkpt lat="38.601944027" lon="34.826299986">
      <ele>1426.996</ele>
      <time>2021-10-12T10:48:43Z</time>
    </trkpt>
    <trkpt lat="38.601958025" lon="34.826270984">
      <ele>1427.077</ele>
      <time>2021-10-12T10:48:44Z</time>
    </trkpt>
    <trkpt lat="38.601973029" lon="34.826243995">
      <ele>1427.152</ele>
      <time>2021-10-12T10:48:45Z</time>
    </trkpt>
    <trkpt lat="38.601987027" lon="34.826214993">
      <ele>1427.211</ele>
      <time>2021-10-12T10:48:46Z</time>
    </trkpt>
    <trkpt lat="38.602001024" lon="34.826186998">
      <ele>1427.259</ele>
      <time>2021-10-12T10:48:47Z</time>
    </trkpt>
    <trkpt lat="38.602015022" lon="34.826159002">
      <ele>1427.298</ele>
      <time>2021-10-12T10:48:48Z</time>
    </trkpt>
    <trkpt lat="38.602027008" lon="34.826128995">
      <ele>1427.316</ele>
      <time>2021-10-12T10:48:49Z</time>
    </trkpt>
    <trkpt lat="38.602038994" lon="34.826098988">
      <ele>1427.413</ele>
      <time>2021-10-12T10:48:50Z</time>
    </trkpt>
    <trkpt lat="38.602052992" lon="34.826067975">
      <ele>1427.641</ele>
      <time>2021-10-12T10:48:51Z</time>
    </trkpt>
    <trkpt lat="38.602064978" lon="34.826036962">
      <ele>1427.852</ele>
      <time>2021-10-12T10:48:52Z</time>
    </trkpt>
    <trkpt lat="38.60207797" lon="34.826007038">
      <ele>1428.05</ele>
      <time>2021-10-12T10:48:53Z</time>
    </trkpt>
    <trkpt lat="38.602090962" lon="34.825975019">
      <ele>1428.249</ele>
      <time>2021-10-12T10:48:54Z</time>
    </trkpt>
    <trkpt lat="38.602104038" lon="34.825944006">
      <ele>1428.432</ele>
      <time>2021-10-12T10:48:55Z</time>
    </trkpt>
    <trkpt lat="38.60211703" lon="34.825911988">
      <ele>1428.61</ele>
      <time>2021-10-12T10:48:56Z</time>
    </trkpt>
    <trkpt lat="38.602129016" lon="34.825880975">
      <ele>1428.771</ele>
      <time>2021-10-12T10:48:57Z</time>
    </trkpt>
    <trkpt lat="38.602142008" lon="34.825852979">
      <ele>1428.909</ele>
      <time>2021-10-12T10:48:58Z</time>
    </trkpt>
    <trkpt lat="38.602153994" lon="34.825825989">
      <ele>1429.033</ele>
      <time>2021-10-12T10:48:59Z</time>
    </trkpt>
    <trkpt lat="38.602167992" lon="34.825797994">
      <ele>1429.152</ele>
      <time>2021-10-12T10:49:00Z</time>
    </trkpt>
    <trkpt lat="38.602182996" lon="34.825771004">
      <ele>1429.256</ele>
      <time>2021-10-12T10:49:01Z</time>
    </trkpt>
    <trkpt lat="38.602197999" lon="34.825740997">
      <ele>1429.361</ele>
      <time>2021-10-12T10:49:02Z</time>
    </trkpt>
    <trkpt lat="38.602210991" lon="34.825711995">
      <ele>1429.454</ele>
      <time>2021-10-12T10:49:03Z</time>
    </trkpt>
    <trkpt lat="38.602222977" lon="34.825681988">
      <ele>1429.542</ele>
      <time>2021-10-12T10:49:04Z</time>
    </trkpt>
    <trkpt lat="38.602235969" lon="34.825656004">
      <ele>1429.575</ele>
      <time>2021-10-12T10:49:04Z</time>
    </trkpt>
    <trkpt lat="38.602248039" lon="34.825624991">
      <ele>1429.611</ele>
      <time>2021-10-12T10:49:05Z</time>
    </trkpt>
    <trkpt lat="38.602257008" lon="34.825592972">
      <ele>1429.649</ele>
      <time>2021-10-12T10:49:06Z</time>
    </trkpt>
    <trkpt lat="38.602264971" lon="34.825560031">
      <ele>1429.681</ele>
      <time>2021-10-12T10:49:07Z</time>
    </trkpt>
    <trkpt lat="38.602266982" lon="34.82553103">
      <ele>1429.826</ele>
      <time>2021-10-12T10:49:08Z</time>
    </trkpt>
    <trkpt lat="38.602272011" lon="34.825503035">
      <ele>1429.952</ele>
      <time>2021-10-12T10:49:09Z</time>
    </trkpt>
    <trkpt lat="38.602272011" lon="34.825469004">
      <ele>1430.153</ele>
      <time>2021-10-12T10:49:10Z</time>
    </trkpt>
    <trkpt lat="38.602274023" lon="34.825435979">
      <ele>1430.327</ele>
      <time>2021-10-12T10:49:11Z</time>
    </trkpt>
    <trkpt lat="38.60227704" lon="34.825404966">
      <ele>1430.476</ele>
      <time>2021-10-12T10:49:12Z</time>
    </trkpt>
    <trkpt lat="38.602279974" lon="34.825374037">
      <ele>1430.619</ele>
      <time>2021-10-12T10:49:13Z</time>
    </trkpt>
    <trkpt lat="38.602279974" lon="34.82534403">
      <ele>1430.791</ele>
      <time>2021-10-12T10:49:14Z</time>
    </trkpt>
    <trkpt lat="38.602278968" lon="34.825312011">
      <ele>1430.987</ele>
      <time>2021-10-12T10:49:15Z</time>
    </trkpt>
    <trkpt lat="38.602279974" lon="34.825279992">
      <ele>1431.156</ele>
      <time>2021-10-12T10:49:16Z</time>
    </trkpt>
    <trkpt lat="38.602277962" lon="34.825247973">
      <ele>1431.455</ele>
      <time>2021-10-12T10:49:17Z</time>
    </trkpt>
    <trkpt lat="38.602271006" lon="34.825220983">
      <ele>1431.803</ele>
      <time>2021-10-12T10:49:17Z</time>
    </trkpt>
    <trkpt lat="38.602254996" lon="34.825198017">
      <ele>1432.288</ele>
      <time>2021-10-12T10:49:18Z</time>
    </trkpt>
    <trkpt lat="38.602236975" lon="34.825179996">
      <ele>1432.788</ele>
      <time>2021-10-12T10:49:19Z</time>
    </trkpt>
    <trkpt lat="38.602217026" lon="34.825167004">
      <ele>1433.26</ele>
      <time>2021-10-12T10:49:20Z</time>
    </trkpt>
    <trkpt lat="38.60219297" lon="34.825162981">
      <ele>1433.599</ele>
      <time>2021-10-12T10:49:21Z</time>
    </trkpt>
    <trkpt lat="38.602171009" lon="34.825154012">
      <ele>1433.972</ele>
      <time>2021-10-12T10:49:22Z</time>
    </trkpt>
    <trkpt lat="38.602148965" lon="34.825144038">
      <ele>1434.363</ele>
      <time>2021-10-12T10:49:23Z</time>
    </trkpt>
    <trkpt lat="38.602125999" lon="34.825138003">
      <ele>1434.723</ele>
      <time>2021-10-12T10:49:23Z</time>
    </trkpt>
    <trkpt lat="38.602104038" lon="34.825130962">
      <ele>1435.087</ele>
      <time>2021-10-12T10:49:24Z</time>
    </trkpt>
    <trkpt lat="38.60207797" lon="34.825124005">
      <ele>1435.506</ele>
      <time>2021-10-12T10:49:25Z</time>
    </trkpt>
    <trkpt lat="38.602051986" lon="34.82511797">
      <ele>1435.917</ele>
      <time>2021-10-12T10:49:26Z</time>
    </trkpt>
    <trkpt lat="38.60202902" lon="34.825113025">
      <ele>1436.278</ele>
      <time>2021-10-12T10:49:27Z</time>
    </trkpt>
    <trkpt lat="38.60200203" lon="34.82510699">
      <ele>1436.71</ele>
      <time>2021-10-12T10:49:28Z</time>
    </trkpt>
    <trkpt lat="38.601980992" lon="34.82510699">
      <ele>1436.984</ele>
      <time>2021-10-12T10:49:29Z</time>
    </trkpt>
    <trkpt lat="38.601957019" lon="34.825098021">
      <ele>1437.423</ele>
      <time>2021-10-12T10:49:30Z</time>
    </trkpt>
    <trkpt lat="38.601932041" lon="34.825091986">
      <ele>1437.675</ele>
      <time>2021-10-12T10:49:31Z</time>
    </trkpt>
    <trkpt lat="38.601904968" lon="34.825087041">
      <ele>1437.747</ele>
      <time>2021-10-12T10:49:32Z</time>
    </trkpt>
    <trkpt lat="38.601877978" lon="34.825077988">
      <ele>1437.877</ele>
      <time>2021-10-12T10:49:33Z</time>
    </trkpt>
    <trkpt lat="38.601853" lon="34.825070025">
      <ele>1437.992</ele>
      <time>2021-10-12T10:49:34Z</time>
    </trkpt>
    <trkpt lat="38.601828022" lon="34.825059967">
      <ele>1438.136</ele>
      <time>2021-10-12T10:49:35Z</time>
    </trkpt>
    <trkpt lat="38.60180296" lon="34.825048987">
      <ele>1438.295</ele>
      <time>2021-10-12T10:49:36Z</time>
    </trkpt>
    <trkpt lat="38.601777982" lon="34.825038007">
      <ele>1438.453</ele>
      <time>2021-10-12T10:49:37Z</time>
    </trkpt>
    <trkpt lat="38.601750992" lon="34.825023003">
      <ele>1438.669</ele>
      <time>2021-10-12T10:49:38Z</time>
    </trkpt>
    <trkpt lat="38.601728026" lon="34.825009005">
      <ele>1438.87</ele>
      <time>2021-10-12T10:49:39Z</time>
    </trkpt>
    <trkpt lat="38.601704976" lon="34.824987967">
      <ele>1439.136</ele>
      <time>2021-10-12T10:49:40Z</time>
    </trkpt>
    <trkpt lat="38.601681003" lon="34.824967012">
      <ele>1439.362</ele>
      <time>2021-10-12T10:49:41Z</time>
    </trkpt>
    <trkpt lat="38.601657031" lon="34.824945973">
      <ele>1439.514</ele>
      <time>2021-10-12T10:49:42Z</time>
    </trkpt>
    <trkpt lat="38.601630041" lon="34.824923007">
      <ele>1439.568</ele>
      <time>2021-10-12T10:49:43Z</time>
    </trkpt>
    <trkpt lat="38.601605985" lon="34.82490398">
      <ele>1439.6</ele>
      <time>2021-10-12T10:49:44Z</time>
    </trkpt>
    <trkpt lat="38.601582013" lon="34.824885037">
      <ele>1439.632</ele>
      <time>2021-10-12T10:49:45Z</time>
    </trkpt>
    <trkpt lat="38.60156198" lon="34.824858969">
      <ele>1439.769</ele>
      <time>2021-10-12T10:49:46Z</time>
    </trkpt>
    <trkpt lat="38.601544965" lon="34.824834997">
      <ele>1439.906</ele>
      <time>2021-10-12T10:49:47Z</time>
    </trkpt>
    <trkpt lat="38.601535996" lon="34.824799038">
      <ele>1440.23</ele>
      <time>2021-10-12T10:49:48Z</time>
    </trkpt>
    <trkpt lat="38.601529039" lon="34.82476702">
      <ele>1440.525</ele>
      <time>2021-10-12T10:49:49Z</time>
    </trkpt>
    <trkpt lat="38.601523004" lon="34.824736007">
      <ele>1440.817</ele>
      <time>2021-10-12T10:49:50Z</time>
    </trkpt>
    <trkpt lat="38.601517975" lon="34.824701976">
      <ele>1441.041</ele>
      <time>2021-10-12T10:49:51Z</time>
    </trkpt>
    <trkpt lat="38.601515964" lon="34.824669035">
      <ele>1441.21</ele>
      <time>2021-10-12T10:49:52Z</time>
    </trkpt>
    <trkpt lat="38.601518981" lon="34.82463601">
      <ele>1441.412</ele>
      <time>2021-10-12T10:49:53Z</time>
    </trkpt>
    <trkpt lat="38.601528034" lon="34.824607009">
      <ele>1441.624</ele>
      <time>2021-10-12T10:49:54Z</time>
    </trkpt>
    <trkpt lat="38.601534991" lon="34.824575996">
      <ele>1441.828</ele>
      <time>2021-10-12T10:49:55Z</time>
    </trkpt>
    <trkpt lat="38.601542031" lon="34.824541965">
      <ele>1442.043</ele>
      <time>2021-10-12T10:49:56Z</time>
    </trkpt>
    <trkpt lat="38.601547983" lon="34.824511958">
      <ele>1442.226</ele>
      <time>2021-10-12T10:49:57Z</time>
    </trkpt>
    <trkpt lat="38.601558041" lon="34.824480023">
      <ele>1442.431</ele>
      <time>2021-10-12T10:49:58Z</time>
    </trkpt>
    <trkpt lat="38.601567009" lon="34.824450016">
      <ele>1442.614</ele>
      <time>2021-10-12T10:49:59Z</time>
    </trkpt>
    <trkpt lat="38.60157799" lon="34.824425038">
      <ele>1442.773</ele>
      <time>2021-10-12T10:50:00Z</time>
    </trkpt>
    <trkpt lat="38.601584025" lon="34.824396959">
      <ele>1442.924</ele>
      <time>2021-10-12T10:50:00Z</time>
    </trkpt>
    <trkpt lat="38.601589976" lon="34.824366029">
      <ele>1443.084</ele>
      <time>2021-10-12T10:50:01Z</time>
    </trkpt>
    <trkpt lat="38.60160104" lon="34.824335016">
      <ele>1443.251</ele>
      <time>2021-10-12T10:50:02Z</time>
    </trkpt>
    <trkpt lat="38.60161202" lon="34.824304003">
      <ele>1443.408</ele>
      <time>2021-10-12T10:50:03Z</time>
    </trkpt>
    <trkpt lat="38.601623001" lon="34.824275002">
      <ele>1443.549</ele>
      <time>2021-10-12T10:50:04Z</time>
    </trkpt>
    <trkpt lat="38.601634987" lon="34.824244995">
      <ele>1443.686</ele>
      <time>2021-10-12T10:50:05Z</time>
    </trkpt>
    <trkpt lat="38.601644039" lon="34.824213982">
      <ele>1443.816</ele>
      <time>2021-10-12T10:50:06Z</time>
    </trkpt>
    <trkpt lat="38.601655019" lon="34.824181041">
      <ele>1443.946</ele>
      <time>2021-10-12T10:50:07Z</time>
    </trkpt>
    <trkpt lat="38.601664994" lon="34.824150028">
      <ele>1444.06</ele>
      <time>2021-10-12T10:50:08Z</time>
    </trkpt>
    <trkpt lat="38.601675974" lon="34.824118009">
      <ele>1444.181</ele>
      <time>2021-10-12T10:50:09Z</time>
    </trkpt>
    <trkpt lat="38.601684021" lon="34.824083978">
      <ele>1444.316</ele>
      <time>2021-10-12T10:50:10Z</time>
    </trkpt>
    <trkpt lat="38.601691984" lon="34.824050032">
      <ele>1444.458</ele>
      <time>2021-10-12T10:50:11Z</time>
    </trkpt>
    <trkpt lat="38.601702964" lon="34.824013989">
      <ele>1444.621</ele>
      <time>2021-10-12T10:50:12Z</time>
    </trkpt>
    <trkpt lat="38.601715034" lon="34.823981971">
      <ele>1444.781</ele>
      <time>2021-10-12T10:50:13Z</time>
    </trkpt>
    <trkpt lat="38.60172702" lon="34.823950035">
      <ele>1444.949</ele>
      <time>2021-10-12T10:50:14Z</time>
    </trkpt>
    <trkpt lat="38.601742024" lon="34.823917011">
      <ele>1445.143</ele>
      <time>2021-10-12T10:50:16Z</time>
    </trkpt>
    <trkpt lat="38.60175401" lon="34.823885998">
      <ele>1445.328</ele>
      <time>2021-10-12T10:50:17Z</time>
    </trkpt>
    <trkpt lat="38.601769013" lon="34.823856996">
      <ele>1445.526</ele>
      <time>2021-10-12T10:50:18Z</time>
    </trkpt>
    <trkpt lat="38.601783011" lon="34.823832018">
      <ele>1445.709</ele>
      <time>2021-10-12T10:50:19Z</time>
    </trkpt>
    <trkpt lat="38.601802038" lon="34.82381098">
      <ele>1445.904</ele>
      <time>2021-10-12T10:50:19Z</time>
    </trkpt>
    <trkpt lat="38.601821987" lon="34.823789019">
      <ele>1446.12</ele>
      <time>2021-10-12T10:50:20Z</time>
    </trkpt>
    <trkpt lat="38.601840008" lon="34.823768986">
      <ele>1446.325</ele>
      <time>2021-10-12T10:50:21Z</time>
    </trkpt>
    <trkpt lat="38.601857023" lon="34.823749959">
      <ele>1446.528</ele>
      <time>2021-10-12T10:50:22Z</time>
    </trkpt>
    <trkpt lat="38.601874039" lon="34.823732022">
      <ele>1446.733</ele>
      <time>2021-10-12T10:50:23Z</time>
    </trkpt>
    <trkpt lat="38.60189097" lon="34.823712995">
      <ele>1446.952</ele>
      <time>2021-10-12T10:50:24Z</time>
    </trkpt>
    <trkpt lat="38.601906979" lon="34.823691035">
      <ele>1447.194</ele>
      <time>2021-10-12T10:50:25Z</time>
    </trkpt>
    <trkpt lat="38.601923995" lon="34.823663961">
      <ele>1447.486</ele>
      <time>2021-10-12T10:50:26Z</time>
    </trkpt>
    <trkpt lat="38.601940004" lon="34.823637977">
      <ele>1447.776</ele>
      <time>2021-10-12T10:50:27Z</time>
    </trkpt>
    <trkpt lat="38.601952996" lon="34.82360797">
      <ele>1448.053</ele>
      <time>2021-10-12T10:50:28Z</time>
    </trkpt>
    <trkpt lat="38.601960037" lon="34.823577963">
      <ele>1448.295</ele>
      <time>2021-10-12T10:50:29Z</time>
    </trkpt>
    <trkpt lat="38.601966994" lon="34.823544016">
      <ele>1448.564</ele>
      <time>2021-10-12T10:50:30Z</time>
    </trkpt>
    <trkpt lat="38.601974035" lon="34.82350898">
      <ele>1448.842</ele>
      <time>2021-10-12T10:50:31Z</time>
    </trkpt>
    <trkpt lat="38.601980992" lon="34.823473021">
      <ele>1449.126</ele>
      <time>2021-10-12T10:50:32Z</time>
    </trkpt>
    <trkpt lat="38.601985015" lon="34.823438991">
      <ele>1449.385</ele>
      <time>2021-10-12T10:50:33Z</time>
    </trkpt>
    <trkpt lat="38.601988032" lon="34.823400015">
      <ele>1449.677</ele>
      <time>2021-10-12T10:50:34Z</time>
    </trkpt>
    <trkpt lat="38.601991972" lon="34.823361961">
      <ele>1449.965</ele>
      <time>2021-10-12T10:50:35Z</time>
    </trkpt>
    <trkpt lat="38.601998007" lon="34.823330026">
      <ele>1450.238</ele>
      <time>2021-10-12T10:50:36Z</time>
    </trkpt>
    <trkpt lat="38.602004964" lon="34.823293984">
      <ele>1450.754</ele>
      <time>2021-10-12T10:50:37Z</time>
    </trkpt>
    <trkpt lat="38.602010999" lon="34.823265988">
      <ele>1451.151</ele>
      <time>2021-10-12T10:50:38Z</time>
    </trkpt>
    <trkpt lat="38.602022985" lon="34.82323397">
      <ele>1451.612</ele>
      <time>2021-10-12T10:50:39Z</time>
    </trkpt>
    <trkpt lat="38.602033965" lon="34.823203962">
      <ele>1452.035</ele>
      <time>2021-10-12T10:50:40Z</time>
    </trkpt>
    <trkpt lat="38.602044024" lon="34.823176973">
      <ele>1452.408</ele>
      <time>2021-10-12T10:50:41Z</time>
    </trkpt>
    <trkpt lat="38.602055004" lon="34.823147971">
      <ele>1452.802</ele>
      <time>2021-10-12T10:50:42Z</time>
    </trkpt>
    <trkpt lat="38.602065984" lon="34.82311897">
      <ele>1453.187</ele>
      <time>2021-10-12T10:50:43Z</time>
    </trkpt>
    <trkpt lat="38.602078976" lon="34.82309198">
      <ele>1453.539</ele>
      <time>2021-10-12T10:50:43Z</time>
    </trkpt>
    <trkpt lat="38.60209398" lon="34.823063985">
      <ele>1453.895</ele>
      <time>2021-10-12T10:50:44Z</time>
    </trkpt>
    <trkpt lat="38.602110995" lon="34.823038001">
      <ele>1454.19</ele>
      <time>2021-10-12T10:50:45Z</time>
    </trkpt>
    <trkpt lat="38.602130022" lon="34.823012017">
      <ele>1454.47</ele>
      <time>2021-10-12T10:50:46Z</time>
    </trkpt>
    <trkpt lat="38.602146031" lon="34.822990978">
      <ele>1454.697</ele>
      <time>2021-10-12T10:50:47Z</time>
    </trkpt>
    <trkpt lat="38.602163969" lon="34.822971029">
      <ele>1454.913</ele>
      <time>2021-10-12T10:50:48Z</time>
    </trkpt>
    <trkpt lat="38.602188025" lon="34.822953008">
      <ele>1455.108</ele>
      <time>2021-10-12T10:50:49Z</time>
    </trkpt>
    <trkpt lat="38.602208979" lon="34.82293901">
      <ele>1455.259</ele>
      <time>2021-10-12T10:50:50Z</time>
    </trkpt>
    <trkpt lat="38.60223203" lon="34.822930042">
      <ele>1455.336</ele>
      <time>2021-10-12T10:50:51Z</time>
    </trkpt>
    <trkpt lat="38.602258014" lon="34.822921995">
      <ele>1455.376</ele>
      <time>2021-10-12T10:50:52Z</time>
    </trkpt>
    <trkpt lat="38.602287015" lon="34.822920989">
      <ele>1455.333</ele>
      <time>2021-10-12T10:50:53Z</time>
    </trkpt>
    <trkpt lat="38.602316016" lon="34.822917972">
      <ele>1455.315</ele>
      <time>2021-10-12T10:50:54Z</time>
    </trkpt>
    <trkpt lat="38.602346024" lon="34.822912021">
      <ele>1455.335</ele>
      <time>2021-10-12T10:50:55Z</time>
    </trkpt>
    <trkpt lat="38.602373013" lon="34.822900034">
      <ele>1455.441</ele>
      <time>2021-10-12T10:50:56Z</time>
    </trkpt>
    <trkpt lat="38.602402015" lon="34.822884025">
      <ele>1455.605</ele>
      <time>2021-10-12T10:50:57Z</time>
    </trkpt>
    <trkpt lat="38.602425987" lon="34.822859969">
      <ele>1455.895</ele>
      <time>2021-10-12T10:50:59Z</time>
    </trkpt>
    <trkpt lat="38.602449959" lon="34.822833985">
      <ele>1456.227</ele>
      <time>2021-10-12T10:51:00Z</time>
    </trkpt>
    <trkpt lat="38.60246798" lon="34.822804984">
      <ele>1456.62</ele>
      <time>2021-10-12T10:51:01Z</time>
    </trkpt>
    <trkpt lat="38.602487007" lon="34.822775982">
      <ele>1457.019</ele>
      <time>2021-10-12T10:51:02Z</time>
    </trkpt>
    <trkpt lat="38.602496982" lon="34.822743963">
      <ele>1457.365</ele>
      <time>2021-10-12T10:51:03Z</time>
    </trkpt>
    <trkpt lat="38.602507962" lon="34.822713034">
      <ele>1457.556</ele>
      <time>2021-10-12T10:51:04Z</time>
    </trkpt>
    <trkpt lat="38.602517014" lon="34.822683027">
      <ele>1457.717</ele>
      <time>2021-10-12T10:51:05Z</time>
    </trkpt>
    <trkpt lat="38.602521038" lon="34.82265302">
      <ele>1457.969</ele>
      <time>2021-10-12T10:51:06Z</time>
    </trkpt>
    <trkpt lat="38.602522966" lon="34.822622007">
      <ele>1458.269</ele>
      <time>2021-10-12T10:51:07Z</time>
    </trkpt>
    <trkpt lat="38.602530006" lon="34.822590994">
      <ele>1458.477</ele>
      <time>2021-10-12T10:51:08Z</time>
    </trkpt>
    <trkpt lat="38.602531012" lon="34.822560987">
      <ele>1458.783</ele>
      <time>2021-10-12T10:51:08Z</time>
    </trkpt>
    <trkpt lat="38.602532018" lon="34.822529973">
      <ele>1459.1</ele>
      <time>2021-10-12T10:51:09Z</time>
    </trkpt>
    <trkpt lat="38.602533024" lon="34.822497033">
      <ele>1459.448</ele>
      <time>2021-10-12T10:51:10Z</time>
    </trkpt>
    <trkpt lat="38.602536041" lon="34.82246602">
      <ele>1459.841</ele>
      <time>2021-10-12T10:51:11Z</time>
    </trkpt>
    <trkpt lat="38.602541992" lon="34.822437018">
      <ele>1460.151</ele>
      <time>2021-10-12T10:51:12Z</time>
    </trkpt>
    <trkpt lat="38.602550039" lon="34.822411034">
      <ele>1460.38</ele>
      <time>2021-10-12T10:51:13Z</time>
    </trkpt>
    <trkpt lat="38.602552973" lon="34.822383961">
      <ele>1460.717</ele>
      <time>2021-10-12T10:51:14Z</time>
    </trkpt>
    <trkpt lat="38.602553979" lon="34.822354037">
      <ele>1461.13</ele>
      <time>2021-10-12T10:51:15Z</time>
    </trkpt>
    <trkpt lat="38.602556996" lon="34.822326042">
      <ele>1461.479</ele>
      <time>2021-10-12T10:51:15Z</time>
    </trkpt>
    <trkpt lat="38.602564037" lon="34.822292011">
      <ele>1461.842</ele>
      <time>2021-10-12T10:51:16Z</time>
    </trkpt>
    <trkpt lat="38.602568982" lon="34.822264016">
      <ele>1462.156</ele>
      <time>2021-10-12T10:51:17Z</time>
    </trkpt>
    <trkpt lat="38.602574011" lon="34.822235014">
      <ele>1462.484</ele>
      <time>2021-10-12T10:51:18Z</time>
    </trkpt>
    <trkpt lat="38.602579962" lon="34.822206013">
      <ele>1462.819</ele>
      <time>2021-10-12T10:51:19Z</time>
    </trkpt>
    <trkpt lat="38.602583986" lon="34.822177012">
      <ele>1463.204</ele>
      <time>2021-10-12T10:51:20Z</time>
    </trkpt>
    <trkpt lat="38.602590021" lon="34.822143987">
      <ele>1463.605</ele>
      <time>2021-10-12T10:51:21Z</time>
    </trkpt>
    <trkpt lat="38.602594966" lon="34.822111968">
      <ele>1464.004</ele>
      <time>2021-10-12T10:51:22Z</time>
    </trkpt>
    <trkpt lat="38.602598989" lon="34.822081039">
      <ele>1464.397</ele>
      <time>2021-10-12T10:51:23Z</time>
    </trkpt>
    <trkpt lat="38.602607036" lon="34.822048014">
      <ele>1464.726</ele>
      <time>2021-10-12T10:51:24Z</time>
    </trkpt>
    <trkpt lat="38.602611981" lon="34.822014989">
      <ele>1465.113</ele>
      <time>2021-10-12T10:51:25Z</time>
    </trkpt>
    <trkpt lat="38.602618016" lon="34.821981965">
      <ele>1465.465</ele>
      <time>2021-10-12T10:51:26Z</time>
    </trkpt>
    <trkpt lat="38.602626985" lon="34.821947012">
      <ele>1465.762</ele>
      <time>2021-10-12T10:51:27Z</time>
    </trkpt>
    <trkpt lat="38.602638971" lon="34.821913987">
      <ele>1465.717</ele>
      <time>2021-10-12T10:51:28Z</time>
    </trkpt>
    <trkpt lat="38.602646012" lon="34.821877023">
      <ele>1465.806</ele>
      <time>2021-10-12T10:51:29Z</time>
    </trkpt>
    <trkpt lat="38.602653975" lon="34.821839975">
      <ele>1465.872</ele>
      <time>2021-10-12T10:51:30Z</time>
    </trkpt>
    <trkpt lat="38.602659004" lon="34.821800999">
      <ele>1466.026</ele>
      <time>2021-10-12T10:51:31Z</time>
    </trkpt>
    <trkpt lat="38.602665961" lon="34.821765041">
      <ele>1466.109</ele>
      <time>2021-10-12T10:51:32Z</time>
    </trkpt>
    <trkpt lat="38.602674007" lon="34.821733022">
      <ele>1466.137</ele>
      <time>2021-10-12T10:51:33Z</time>
    </trkpt>
    <trkpt lat="38.60268197" lon="34.821697986">
      <ele>1466.189</ele>
      <time>2021-10-12T10:51:34Z</time>
    </trkpt>
    <trkpt lat="38.602688005" lon="34.821661022">
      <ele>1466.262</ele>
      <time>2021-10-12T10:51:35Z</time>
    </trkpt>
    <trkpt lat="38.602695968" lon="34.821626991">
      <ele>1466.062</ele>
      <time>2021-10-12T10:51:36Z</time>
    </trkpt>
    <trkpt lat="38.60269798" lon="34.821592961">
      <ele>1466.011</ele>
      <time>2021-10-12T10:51:37Z</time>
    </trkpt>
    <trkpt lat="38.602699991" lon="34.821558008">
      <ele>1465.96</ele>
      <time>2021-10-12T10:51:38Z</time>
    </trkpt>
    <trkpt lat="38.602700997" lon="34.821520038">
      <ele>1465.935</ele>
      <time>2021-10-12T10:51:39Z</time>
    </trkpt>
    <trkpt lat="38.602699991" lon="34.82148299">
      <ele>1465.96</ele>
      <time>2021-10-12T10:51:41Z</time>
    </trkpt>
    <trkpt lat="38.602699991" lon="34.821444014">
      <ele>1465.96</ele>
      <time>2021-10-12T10:51:42Z</time>
    </trkpt>
    <trkpt lat="38.602695968" lon="34.821410989">
      <ele>1466.062</ele>
      <time>2021-10-12T10:51:43Z</time>
    </trkpt>
    <trkpt lat="38.602689011" lon="34.82136799">
      <ele>1466.288</ele>
      <time>2021-10-12T10:51:44Z</time>
    </trkpt>
    <trkpt lat="38.602680964" lon="34.821331026">
      <ele>1466.575</ele>
      <time>2021-10-12T10:51:45Z</time>
    </trkpt>
    <trkpt lat="38.602669984" lon="34.821292972">
      <ele>1466.928</ele>
      <time>2021-10-12T10:51:46Z</time>
    </trkpt>
    <trkpt lat="38.602659004" lon="34.821256008">
      <ele>1467.267</ele>
      <time>2021-10-12T10:51:47Z</time>
    </trkpt>
    <trkpt lat="38.602649029" lon="34.821220972">
      <ele>1467.569</ele>
      <time>2021-10-12T10:51:48Z</time>
    </trkpt>
    <trkpt lat="38.602639977" lon="34.821185013">
      <ele>1467.842</ele>
      <time>2021-10-12T10:51:50Z</time>
    </trkpt>
    <trkpt lat="38.602630002" lon="34.821148971">
      <ele>1468.128</ele>
      <time>2021-10-12T10:51:51Z</time>
    </trkpt>
    <trkpt lat="38.602623967" lon="34.821107984">
      <ele>1468.345</ele>
      <time>2021-10-12T10:51:52Z</time>
    </trkpt>
    <trkpt lat="38.60262204" lon="34.821066996">
      <ele>1468.682</ele>
      <time>2021-10-12T10:51:53Z</time>
    </trkpt>
    <trkpt lat="38.602620028" lon="34.82102802">
      <ele>1469.006</ele>
      <time>2021-10-12T10:51:54Z</time>
    </trkpt>
    <trkpt lat="38.60261701" lon="34.820986027">
      <ele>1469.373</ele>
      <time>2021-10-12T10:51:55Z</time>
    </trkpt>
    <trkpt lat="38.602618016" lon="34.820950991">
      <ele>1469.604</ele>
      <time>2021-10-12T10:51:56Z</time>
    </trkpt>
    <trkpt lat="38.602616005" lon="34.820912015">
      <ele>1469.928</ele>
      <time>2021-10-12T10:51:58Z</time>
    </trkpt>
    <trkpt lat="38.602613993" lon="34.820873961">
      <ele>1470.245</ele>
      <time>2021-10-12T10:51:59Z</time>
    </trkpt>
    <trkpt lat="38.602608042" lon="34.820831968">
      <ele>1470.663</ele>
      <time>2021-10-12T10:52:00Z</time>
    </trkpt>
    <trkpt lat="38.602602007" lon="34.820789974">
      <ele>1470.698</ele>
      <time>2021-10-12T10:52:01Z</time>
    </trkpt>
    <trkpt lat="38.602597984" lon="34.82075301">
      <ele>1470.696</ele>
      <time>2021-10-12T10:52:02Z</time>
    </trkpt>
    <trkpt lat="38.602595972" lon="34.820714034">
      <ele>1470.646</ele>
      <time>2021-10-12T10:52:03Z</time>
    </trkpt>
    <trkpt lat="38.60259396" lon="34.820678998">
      <ele>1470.603</ele>
      <time>2021-10-12T10:52:04Z</time>
    </trkpt>
    <trkpt lat="38.602587003" lon="34.820641028">
      <ele>1470.645</ele>
      <time>2021-10-12T10:52:06Z</time>
    </trkpt>
    <trkpt lat="38.602579962" lon="34.82060398">
      <ele>1470.685</ele>
      <time>2021-10-12T10:52:07Z</time>
    </trkpt>
    <trkpt lat="38.602568982" lon="34.820562992">
      <ele>1470.778</ele>
      <time>2021-10-12T10:52:08Z</time>
    </trkpt>
    <trkpt lat="38.602560014" lon="34.820524016">
      <ele>1470.92</ele>
      <time>2021-10-12T10:52:09Z</time>
    </trkpt>
    <trkpt lat="38.602550039" lon="34.820486968">
      <ele>1471.099</ele>
      <time>2021-10-12T10:52:10Z</time>
    </trkpt>
    <trkpt lat="38.602537969" lon="34.820448998">
      <ele>1471.317</ele>
      <time>2021-10-12T10:52:11Z</time>
    </trkpt>
    <trkpt lat="38.602524977" lon="34.820412034">
      <ele>1471.55</ele>
      <time>2021-10-12T10:52:13Z</time>
    </trkpt>
    <trkpt lat="38.602508968" lon="34.820370963">
      <ele>1471.839</ele>
      <time>2021-10-12T10:52:14Z</time>
    </trkpt>
    <trkpt lat="38.602492958" lon="34.820338022">
      <ele>1472.082</ele>
      <time>2021-10-12T10:52:15Z</time>
    </trkpt>
    <trkpt lat="38.602470998" lon="34.820302986">
      <ele>1472.323</ele>
      <time>2021-10-12T10:52:16Z</time>
    </trkpt>
    <trkpt lat="38.602449037" lon="34.820268033">
      <ele>1472.55</ele>
      <time>2021-10-12T10:52:18Z</time>
    </trkpt>
    <trkpt lat="38.602427999" lon="34.820228973">
      <ele>1472.778</ele>
      <time>2021-10-12T10:52:19Z</time>
    </trkpt>
    <trkpt lat="38.602408972" lon="34.820184968">
      <ele>1472.983</ele>
      <time>2021-10-12T10:52:20Z</time>
    </trkpt>
    <trkpt lat="38.602392962" lon="34.820141969">
      <ele>1473.156</ele>
      <time>2021-10-12T10:52:22Z</time>
    </trkpt>
    <trkpt lat="38.602384999" lon="34.820096036">
      <ele>1473.242</ele>
      <time>2021-10-12T10:52:23Z</time>
    </trkpt>
    <trkpt lat="38.602382988" lon="34.820047002">
      <ele>1473.264</ele>
      <time>2021-10-12T10:52:25Z</time>
    </trkpt>
    <trkpt lat="38.602388017" lon="34.81999998">
      <ele>1473.209</ele>
      <time>2021-10-12T10:52:26Z</time>
    </trkpt>
    <trkpt lat="38.602402015" lon="34.819959998">
      <ele>1473.007</ele>
      <time>2021-10-12T10:52:27Z</time>
    </trkpt>
    <trkpt lat="38.602417018" lon="34.819920016">
      <ele>1472.81</ele>
      <time>2021-10-12T10:52:29Z</time>
    </trkpt>
    <trkpt lat="38.602432022" lon="34.819880035">
      <ele>1472.628</ele>
      <time>2021-10-12T10:52:30Z</time>
    </trkpt>
    <trkpt lat="38.602447025" lon="34.819838963">
      <ele>1472.462</ele>
      <time>2021-10-12T10:52:31Z</time>
    </trkpt>
    <trkpt lat="38.602465969" lon="34.819799988">
      <ele>1472.279</ele>
      <time>2021-10-12T10:52:33Z</time>
    </trkpt>
    <trkpt lat="38.602484995" lon="34.819762018">
      <ele>1472.116</ele>
      <time>2021-10-12T10:52:34Z</time>
    </trkpt>
    <trkpt lat="38.602499999" lon="34.819722036">
      <ele>1472.0</ele>
      <time>2021-10-12T10:52:35Z</time>
    </trkpt>
    <trkpt lat="38.602515003" lon="34.819687">
      <ele>1471.899</ele>
      <time>2021-10-12T10:52:36Z</time>
    </trkpt>
    <trkpt lat="38.60253403" lon="34.819648024">
      <ele>1471.788</ele>
      <time>2021-10-12T10:52:38Z</time>
    </trkpt>
    <trkpt lat="38.602550039" lon="34.819607958">
      <ele>1471.714</ele>
      <time>2021-10-12T10:52:39Z</time>
    </trkpt>
    <trkpt lat="38.602564959" lon="34.819568982">
      <ele>1471.661</ele>
      <time>2021-10-12T10:52:40Z</time>
    </trkpt>
    <trkpt lat="38.602574011" lon="34.819530006">
      <ele>1471.651</ele>
      <time>2021-10-12T10:52:41Z</time>
    </trkpt>
    <trkpt lat="38.602588009" lon="34.819492958">
      <ele>1471.628</ele>
      <time>2021-10-12T10:52:43Z</time>
    </trkpt>
    <trkpt lat="38.602603013" lon="34.819452977">
      <ele>1471.618</ele>
      <time>2021-10-12T10:52:44Z</time>
    </trkpt>
    <trkpt lat="38.60261701" lon="34.819410983">
      <ele>1471.699</ele>
      <time>2021-10-12T10:52:45Z</time>
    </trkpt>
    <trkpt lat="38.602632014" lon="34.81936899">
      <ele>1471.796</ele>
      <time>2021-10-12T10:52:46Z</time>
    </trkpt>
    <trkpt lat="38.602647018" lon="34.819326997">
      <ele>1471.894</ele>
      <time>2021-10-12T10:52:48Z</time>
    </trkpt>
    <trkpt lat="38.602662021" lon="34.819288021">
      <ele>1471.98</ele>
      <time>2021-10-12T10:52:49Z</time>
    </trkpt>
    <trkpt lat="38.602669984" lon="34.819244016">
      <ele>1472.11</ele>
      <time>2021-10-12T10:52:50Z</time>
    </trkpt>
    <trkpt lat="38.602674007" lon="34.819203028">
      <ele>1472.243</ele>
      <time>2021-10-12T10:52:52Z</time>
    </trkpt>
    <trkpt lat="38.602675013" lon="34.819157012">
      <ele>1472.322</ele>
      <time>2021-10-12T10:52:53Z</time>
    </trkpt>
    <trkpt lat="38.602676019" lon="34.819114013">
      <ele>1472.107</ele>
      <time>2021-10-12T10:52:54Z</time>
    </trkpt>
    <trkpt lat="38.602676019" lon="34.819067996">
      <ele>1471.881</ele>
      <time>2021-10-12T10:52:56Z</time>
    </trkpt>
    <trkpt lat="38.602673002" lon="34.819021979">
      <ele>1471.66</ele>
      <time>2021-10-12T10:52:57Z</time>
    </trkpt>
    <trkpt lat="38.602671996" lon="34.818973029">
      <ele>1471.418</ele>
      <time>2021-10-12T10:52:58Z</time>
    </trkpt>
    <trkpt lat="38.602669984" lon="34.818926007">
      <ele>1471.185</ele>
      <time>2021-10-12T10:53:00Z</time>
    </trkpt>
    <trkpt lat="38.60267099" lon="34.81887999">
      <ele>1470.936</ele>
      <time>2021-10-12T10:53:01Z</time>
    </trkpt>
    <trkpt lat="38.602671996" lon="34.818828022">
      <ele>1470.562</ele>
      <time>2021-10-12T10:53:02Z</time>
    </trkpt>
    <trkpt lat="38.602676019" lon="34.818785023">
      <ele>1470.252</ele>
      <time>2021-10-12T10:53:04Z</time>
    </trkpt>
    <trkpt lat="38.602679959" lon="34.818742024">
      <ele>1469.943</ele>
      <time>2021-10-12T10:53:05Z</time>
    </trkpt>
    <trkpt lat="38.602683982" lon="34.818696007">
      <ele>1469.611</ele>
      <time>2021-10-12T10:53:06Z</time>
    </trkpt>
    <trkpt lat="38.602686999" lon="34.818652002">
      <ele>1469.294</ele>
      <time>2021-10-12T10:53:08Z</time>
    </trkpt>
    <trkpt lat="38.602691023" lon="34.818607997">
      <ele>1468.985</ele>
      <time>2021-10-12T10:53:09Z</time>
    </trkpt>
    <trkpt lat="38.602695968" lon="34.818564998">
      <ele>1468.785</ele>
      <time>2021-10-12T10:53:10Z</time>
    </trkpt>
    <trkpt lat="38.602702003" lon="34.818519987">
      <ele>1468.582</ele>
      <time>2021-10-12T10:53:12Z</time>
    </trkpt>
    <trkpt lat="38.602707032" lon="34.818482017">
      <ele>1468.417</ele>
      <time>2021-10-12T10:53:13Z</time>
    </trkpt>
    <trkpt lat="38.602710972" lon="34.818443041">
      <ele>1468.249</ele>
      <time>2021-10-12T10:53:14Z</time>
    </trkpt>
    <trkpt lat="38.602716001" lon="34.818399958">
      <ele>1468.071</ele>
      <time>2021-10-12T10:53:15Z</time>
    </trkpt>
    <trkpt lat="38.602720024" lon="34.818354025">
      <ele>1467.882</ele>
      <time>2021-10-12T10:53:16Z</time>
    </trkpt>
    <trkpt lat="38.602723042" lon="34.818309015">
      <ele>1467.768</ele>
      <time>2021-10-12T10:53:18Z</time>
    </trkpt>
    <trkpt lat="38.602723964" lon="34.818266015">
      <ele>1467.712</ele>
      <time>2021-10-12T10:53:19Z</time>
    </trkpt>
    <trkpt lat="38.602724969" lon="34.818216981">
      <ele>1467.651</ele>
      <time>2021-10-12T10:53:20Z</time>
    </trkpt>
    <trkpt lat="38.602726981" lon="34.818166019">
      <ele>1467.597</ele>
      <time>2021-10-12T10:53:22Z</time>
    </trkpt>
    <trkpt lat="38.602724969" lon="34.818115979">
      <ele>1467.512</ele>
      <time>2021-10-12T10:53:23Z</time>
    </trkpt>
    <trkpt lat="38.602718012" lon="34.818067029">
      <ele>1467.372</ele>
      <time>2021-10-12T10:53:25Z</time>
    </trkpt>
    <trkpt lat="38.60270896" lon="34.818017995">
      <ele>1467.494</ele>
      <time>2021-10-12T10:53:26Z</time>
    </trkpt>
    <trkpt lat="38.60269798" lon="34.817971978">
      <ele>1467.654</ele>
      <time>2021-10-12T10:53:28Z</time>
    </trkpt>
    <trkpt lat="38.60268197" lon="34.817928979">
      <ele>1467.719</ele>
      <time>2021-10-12T10:53:29Z</time>
    </trkpt>
    <trkpt lat="38.602665961" lon="34.817882041">
      <ele>1467.79</ele>
      <time>2021-10-12T10:53:30Z</time>
    </trkpt>
    <trkpt lat="38.602652969" lon="34.817839041">
      <ele>1467.861</ele>
      <time>2021-10-12T10:53:32Z</time>
    </trkpt>
    <trkpt lat="38.602637965" lon="34.81779797">
      <ele>1467.878</ele>
      <time>2021-10-12T10:53:33Z</time>
    </trkpt>
    <trkpt lat="38.602623967" lon="34.817754971">
      <ele>1467.822</ele>
      <time>2021-10-12T10:53:34Z</time>
    </trkpt>
    <trkpt lat="38.602612987" lon="34.817709038">
      <ele>1467.728</ele>
      <time>2021-10-12T10:53:36Z</time>
    </trkpt>
    <trkpt lat="38.602613993" lon="34.817660004">
      <ele>1467.815</ele>
      <time>2021-10-12T10:53:37Z</time>
    </trkpt>
    <trkpt lat="38.602621034" lon="34.817611976">
      <ele>1468.003</ele>
      <time>2021-10-12T10:53:39Z</time>
    </trkpt>
    <trkpt lat="38.602632014" lon="34.817564031">
      <ele>1468.267</ele>
      <time>2021-10-12T10:53:40Z</time>
    </trkpt>
    <trkpt lat="38.60263302" lon="34.81751902">
      <ele>1468.362</ele>
      <time>2021-10-12T10:53:41Z</time>
    </trkpt>
    <trkpt lat="38.602560014" lon="34.817410978">
      <ele>1467.219</ele>
      <time>2021-10-12T10:53:46Z</time>
    </trkpt>
    <trkpt lat="38.602529" lon="34.817387005">
      <ele>1466.607</ele>
      <time>2021-10-12T10:53:47Z</time>
    </trkpt>
    <trkpt lat="38.602499999" lon="34.817360016">
      <ele>1466.0</ele>
      <time>2021-10-12T10:53:48Z</time>
    </trkpt>
    <trkpt lat="38.602475021" lon="34.817330008">
      <ele>1465.64</ele>
      <time>2021-10-12T10:53:50Z</time>
    </trkpt>
    <trkpt lat="38.602454988" lon="34.817298995">
      <ele>1465.352</ele>
      <time>2021-10-12T10:53:51Z</time>
    </trkpt>
    <trkpt lat="38.602431016" lon="34.817264965">
      <ele>1465.007</ele>
      <time>2021-10-12T10:53:52Z</time>
    </trkpt>
    <trkpt lat="38.602411989" lon="34.817232024">
      <ele>1464.733</ele>
      <time>2021-10-12T10:53:53Z</time>
    </trkpt>
    <trkpt lat="38.602397991" lon="34.81719397">
      <ele>1464.568</ele>
      <time>2021-10-12T10:53:54Z</time>
    </trkpt>
    <trkpt lat="38.602388017" lon="34.817154994">
      <ele>1464.485</ele>
      <time>2021-10-12T10:53:56Z</time>
    </trkpt>
    <trkpt lat="38.60237997" lon="34.817111995">
      <ele>1464.443</ele>
      <time>2021-10-12T10:53:57Z</time>
    </trkpt>
    <trkpt lat="38.602376031" lon="34.817066984">
      <ele>1464.464</ele>
      <time>2021-10-12T10:53:58Z</time>
    </trkpt>
    <trkpt lat="38.602372007" lon="34.817027003">
      <ele>1464.481</ele>
      <time>2021-10-12T10:53:59Z</time>
    </trkpt>
    <trkpt lat="38.602367984" lon="34.816978974">
      <ele>1464.515</ele>
      <time>2021-10-12T10:54:01Z</time>
    </trkpt>
    <trkpt lat="38.602364967" lon="34.816936981">
      <ele>1464.542</ele>
      <time>2021-10-12T10:54:02Z</time>
    </trkpt>
    <trkpt lat="38.602362033" lon="34.816889958">
      <ele>1464.51</ele>
      <time>2021-10-12T10:54:03Z</time>
    </trkpt>
    <trkpt lat="38.60235801" lon="34.816848971">
      <ele>1464.467</ele>
      <time>2021-10-12T10:54:05Z</time>
    </trkpt>
    <trkpt lat="38.602360021" lon="34.816803038">
      <ele>1464.488</ele>
      <time>2021-10-12T10:54:06Z</time>
    </trkpt>
    <trkpt lat="38.602360021" lon="34.816761967">
      <ele>1464.488</ele>
      <time>2021-10-12T10:54:07Z</time>
    </trkpt>
    <trkpt lat="38.602359015" lon="34.816719973">
      <ele>1464.477</ele>
      <time>2021-10-12T10:54:08Z</time>
    </trkpt>
    <trkpt lat="38.602363039" lon="34.81667798">
      <ele>1464.521</ele>
      <time>2021-10-12T10:54:10Z</time>
    </trkpt>
    <trkpt lat="38.60236899" lon="34.816635987">
      <ele>1464.585</ele>
      <time>2021-10-12T10:54:11Z</time>
    </trkpt>
    <trkpt lat="38.602380976" lon="34.816594999">
      <ele>1464.715</ele>
      <time>2021-10-12T10:54:12Z</time>
    </trkpt>
    <trkpt lat="38.602396986" lon="34.816556023">
      <ele>1464.887</ele>
      <time>2021-10-12T10:54:13Z</time>
    </trkpt>
    <trkpt lat="38.602420036" lon="34.816519981">
      <ele>1465.136</ele>
      <time>2021-10-12T10:54:15Z</time>
    </trkpt>
    <trkpt lat="38.602435961" lon="34.81648">
      <ele>1465.308</ele>
      <time>2021-10-12T10:54:16Z</time>
    </trkpt>
    <trkpt lat="38.602447025" lon="34.816441024">
      <ele>1465.428</ele>
      <time>2021-10-12T10:54:17Z</time>
    </trkpt>
    <trkpt lat="38.602464041" lon="34.816400958">
      <ele>1465.612</ele>
      <time>2021-10-12T10:54:19Z</time>
    </trkpt>
    <trkpt lat="38.602477033" lon="34.816355025">
      <ele>1465.976</ele>
      <time>2021-10-12T10:54:20Z</time>
    </trkpt>
    <trkpt lat="38.602492036" lon="34.816309009">
      <ele>1466.473</ele>
      <time>2021-10-12T10:54:21Z</time>
    </trkpt>
    <trkpt lat="38.602506034" lon="34.81626601">
      <ele>1467.039</ele>
      <time>2021-10-12T10:54:23Z</time>
    </trkpt>
    <trkpt lat="38.602507962" lon="34.816219993">
      <ele>1467.41</ele>
      <time>2021-10-12T10:54:24Z</time>
    </trkpt>
    <trkpt lat="38.602501005" lon="34.816173976">
      <ele>1467.571</ele>
      <time>2021-10-12T10:54:25Z</time>
    </trkpt>
    <trkpt lat="38.602489019" lon="34.816130977">
      <ele>1467.665</ele>
      <time>2021-10-12T10:54:27Z</time>
    </trkpt>
    <trkpt lat="38.602476027" lon="34.816092001">
      <ele>1467.631</ele>
      <time>2021-10-12T10:54:28Z</time>
    </trkpt>
    <trkpt lat="38.602465969" lon="34.816051014">
      <ele>1467.577</ele>
      <time>2021-10-12T10:54:29Z</time>
    </trkpt>
    <trkpt lat="38.602457" lon="34.816002985">
      <ele>1467.555</ele>
      <time>2021-10-12T10:54:31Z</time>
    </trkpt>
    <trkpt lat="38.602453982" lon="34.815963004">
      <ele>1467.617</ele>
      <time>2021-10-12T10:54:32Z</time>
    </trkpt>
    <trkpt lat="38.602452977" lon="34.815920005">
      <ele>1467.725</ele>
      <time>2021-10-12T10:54:33Z</time>
    </trkpt>
    <trkpt lat="38.602455994" lon="34.815872982">
      <ele>1467.929</ele>
      <time>2021-10-12T10:54:34Z</time>
    </trkpt>
    <trkpt lat="38.602462029" lon="34.815823026">
      <ele>1468.063</ele>
      <time>2021-10-12T10:54:36Z</time>
    </trkpt>
    <trkpt lat="38.602473009" lon="34.815777009">
      <ele>1467.789</ele>
      <time>2021-10-12T10:54:37Z</time>
    </trkpt>
    <trkpt lat="38.602489019" lon="34.815738034">
      <ele>1467.72</ele>
      <time>2021-10-12T10:54:39Z</time>
    </trkpt>
    <trkpt lat="38.602508968" lon="34.815701991">
      <ele>1467.806</ele>
      <time>2021-10-12T10:54:40Z</time>
    </trkpt>
    <trkpt lat="38.602529" lon="34.815666033">
      <ele>1467.945</ele>
      <time>2021-10-12T10:54:41Z</time>
    </trkpt>
    <trkpt lat="38.602549033" lon="34.815625967">
      <ele>1468.083</ele>
      <time>2021-10-12T10:54:43Z</time>
    </trkpt>
    <trkpt lat="38.602569988" lon="34.815589003">
      <ele>1468.316</ele>
      <time>2021-10-12T10:54:44Z</time>
    </trkpt>
    <trkpt lat="38.602584992" lon="34.815551033">
      <ele>1468.399</ele>
      <time>2021-10-12T10:54:45Z</time>
    </trkpt>
    <trkpt lat="38.602608042" lon="34.815507028">
      <ele>1468.588</ele>
      <time>2021-10-12T10:54:47Z</time>
    </trkpt>
    <trkpt lat="38.60263302" lon="34.815466963">
      <ele>1468.874</ele>
      <time>2021-10-12T10:54:48Z</time>
    </trkpt>
    <trkpt lat="38.602656992" lon="34.815428993">
      <ele>1469.154</ele>
      <time>2021-10-12T10:54:50Z</time>
    </trkpt>
    <trkpt lat="38.602676019" lon="34.815385994">
      <ele>1469.238</ele>
      <time>2021-10-12T10:54:51Z</time>
    </trkpt>
    <trkpt lat="38.602688005" lon="34.815340983">
      <ele>1469.097</ele>
      <time>2021-10-12T10:54:52Z</time>
    </trkpt>
    <trkpt lat="38.602696974" lon="34.815303013">
      <ele>1468.945</ele>
      <time>2021-10-12T10:54:54Z</time>
    </trkpt>
    <trkpt lat="38.60269404" lon="34.815263031">
      <ele>1468.482</ele>
      <time>2021-10-12T10:54:55Z</time>
    </trkpt>
    <trkpt lat="38.602674007" lon="34.815124981">
      <ele>1466.911</ele>
      <time>2021-10-12T10:54:59Z</time>
    </trkpt>
    <trkpt lat="38.602668978" lon="34.81507997">
      <ele>1466.442</ele>
      <time>2021-10-12T10:55:00Z</time>
    </trkpt>
    <trkpt lat="38.602668978" lon="34.815030014">
      <ele>1466.083</ele>
      <time>2021-10-12T10:55:02Z</time>
    </trkpt>
    <trkpt lat="38.602678031" lon="34.814979974">
      <ele>1466.076</ele>
      <time>2021-10-12T10:55:03Z</time>
    </trkpt>
    <trkpt lat="38.602677025" lon="34.814927001">
      <ele>1465.908</ele>
      <time>2021-10-12T10:55:05Z</time>
    </trkpt>
    <trkpt lat="38.602674007" lon="34.814872015">
      <ele>1465.667</ele>
      <time>2021-10-12T10:55:06Z</time>
    </trkpt>
    <trkpt lat="38.602676019" lon="34.814820969">
      <ele>1465.597</ele>
      <time>2021-10-12T10:55:08Z</time>
    </trkpt>
    <trkpt lat="38.602675013" lon="34.814774031">
      <ele>1465.438</ele>
      <time>2021-10-12T10:55:09Z</time>
    </trkpt>
    <trkpt lat="38.602677025" lon="34.814724997">
      <ele>1465.38</ele>
      <time>2021-10-12T10:55:10Z</time>
    </trkpt>
    <trkpt lat="38.602678031" lon="34.814681998">
      <ele>1465.119</ele>
      <time>2021-10-12T10:55:12Z</time>
    </trkpt>
    <trkpt lat="38.602682976" lon="34.814635981">
      <ele>1464.966</ele>
      <time>2021-10-12T10:55:13Z</time>
    </trkpt>
    <trkpt lat="38.602691023" lon="34.814591976">
      <ele>1464.939</ele>
      <time>2021-10-12T10:55:14Z</time>
    </trkpt>
    <trkpt lat="38.60269404" lon="34.814543026">
      <ele>1464.695</ele>
      <time>2021-10-12T10:55:16Z</time>
    </trkpt>
    <trkpt lat="38.602700997" lon="34.814498015">
      <ele>1464.622</ele>
      <time>2021-10-12T10:55:17Z</time>
    </trkpt>
    <trkpt lat="38.602709966" lon="34.814455016">
      <ele>1464.635</ele>
      <time>2021-10-12T10:55:18Z</time>
    </trkpt>
    <trkpt lat="38.602723042" lon="34.814406987">
      <ele>1464.868</ele>
      <time>2021-10-12T10:55:20Z</time>
    </trkpt>
    <trkpt lat="38.602731004" lon="34.814359965">
      <ele>1464.961</ele>
      <time>2021-10-12T10:55:21Z</time>
    </trkpt>
    <trkpt lat="38.602733016" lon="34.814319983">
      <ele>1464.868</ele>
      <time>2021-10-12T10:55:22Z</time>
    </trkpt>
    <trkpt lat="38.602736033" lon="34.814286036">
      <ele>1464.841</ele>
      <time>2021-10-12T10:55:23Z</time>
    </trkpt>
    <trkpt lat="38.602739973" lon="34.814245971">
      <ele>1464.827</ele>
      <time>2021-10-12T10:55:25Z</time>
    </trkpt>
    <trkpt lat="38.602750031" lon="34.814206995">
      <ele>1465.061</ele>
      <time>2021-10-12T10:55:26Z</time>
    </trkpt>
    <trkpt lat="38.602763023" lon="34.814169025">
      <ele>1465.425</ele>
      <time>2021-10-12T10:55:27Z</time>
    </trkpt>
    <trkpt lat="38.602783978" lon="34.814136">
      <ele>1465.579</ele>
      <time>2021-10-12T10:55:28Z</time>
    </trkpt>
    <trkpt lat="38.602799987" lon="34.81409803">
      <ele>1465.225</ele>
      <time>2021-10-12T10:55:29Z</time>
    </trkpt>
    <trkpt lat="38.60282002" lon="34.81405302">
      <ele>1464.805</ele>
      <time>2021-10-12T10:55:31Z</time>
    </trkpt>
    <trkpt lat="38.602835024" lon="34.81401002">
      <ele>1464.301</ele>
      <time>2021-10-12T10:55:32Z</time>
    </trkpt>
    <trkpt lat="38.602850027" lon="34.813969033">
      <ele>1463.818</ele>
      <time>2021-10-12T10:55:34Z</time>
    </trkpt>
    <trkpt lat="38.602864025" lon="34.813929973">
      <ele>1463.338</ele>
      <time>2021-10-12T10:55:35Z</time>
    </trkpt>
    <trkpt lat="38.602887997" lon="34.813889991">
      <ele>1463.005</ele>
      <time>2021-10-12T10:55:36Z</time>
    </trkpt>
    <trkpt lat="38.602915993" lon="34.813857973">
      <ele>1462.709</ele>
      <time>2021-10-12T10:55:38Z</time>
    </trkpt>
    <trkpt lat="38.602941977" lon="34.813828971">
      <ele>1462.406</ele>
      <time>2021-10-12T10:55:39Z</time>
    </trkpt>
    <trkpt lat="38.602973996" lon="34.813811034">
      <ele>1462.454</ele>
      <time>2021-10-12T10:55:40Z</time>
    </trkpt>
    <trkpt lat="38.603006015" lon="34.813791001">
      <ele>1462.415</ele>
      <time>2021-10-12T10:55:42Z</time>
    </trkpt>
    <trkpt lat="38.603038033" lon="34.81377298">
      <ele>1462.399</ele>
      <time>2021-10-12T10:55:43Z</time>
    </trkpt>
    <trkpt lat="38.603074998" lon="34.813762">
      <ele>1462.581</ele>
      <time>2021-10-12T10:55:44Z</time>
    </trkpt>
    <trkpt lat="38.603113974" lon="34.813757977">
      <ele>1462.948</ele>
      <time>2021-10-12T10:55:46Z</time>
    </trkpt>
    <trkpt lat="38.603154039" lon="34.813758982">
      <ele>1463.465</ele>
      <time>2021-10-12T10:55:47Z</time>
    </trkpt>
    <trkpt lat="38.603196032" lon="34.813755965">
      <ele>1463.909</ele>
      <time>2021-10-12T10:55:49Z</time>
    </trkpt>
    <trkpt lat="38.603235008" lon="34.813759988">
      <ele>1464.479</ele>
      <time>2021-10-12T10:55:50Z</time>
    </trkpt>
    <trkpt lat="38.603269961" lon="34.813762">
      <ele>1464.947</ele>
      <time>2021-10-12T10:55:52Z</time>
    </trkpt>
    <trkpt lat="38.60330902" lon="34.813758982">
      <ele>1465.364</ele>
      <time>2021-10-12T10:55:53Z</time>
    </trkpt>
    <trkpt lat="38.603344979" lon="34.813752025">
      <ele>1465.725</ele>
      <time>2021-10-12T10:55:54Z</time>
    </trkpt>
    <trkpt lat="38.603375992" lon="34.813739033">
      <ele>1466.0</ele>
      <time>2021-10-12T10:55:56Z</time>
    </trkpt>
    <trkpt lat="38.603398958" lon="34.813706009">
      <ele>1465.809</ele>
      <time>2021-10-12T10:55:57Z</time>
    </trkpt>
    <trkpt lat="38.603415973" lon="34.813671978">
      <ele>1465.518</ele>
      <time>2021-10-12T10:55:58Z</time>
    </trkpt>
    <trkpt lat="38.603419997" lon="34.81363602">
      <ele>1464.98</ele>
      <time>2021-10-12T10:55:59Z</time>
    </trkpt>
    <trkpt lat="38.603417985" lon="34.813598972">
      <ele>1464.362</ele>
      <time>2021-10-12T10:56:00Z</time>
    </trkpt>
    <trkpt lat="38.603421003" lon="34.813555973">
      <ele>1463.847</ele>
      <time>2021-10-12T10:56:01Z</time>
    </trkpt>
    <trkpt lat="38.603425026" lon="34.813513979">
      <ele>1463.367</ele>
      <time>2021-10-12T10:56:03Z</time>
    </trkpt>
    <trkpt lat="38.603429971" lon="34.813467041">
      <ele>1462.845</ele>
      <time>2021-10-12T10:56:04Z</time>
    </trkpt>
    <trkpt lat="38.603435" lon="34.813420018">
      <ele>1462.33</ele>
      <time>2021-10-12T10:56:05Z</time>
    </trkpt>
    <trkpt lat="38.603441035" lon="34.813372996">
      <ele>1461.842</ele>
      <time>2021-10-12T10:56:07Z</time>
    </trkpt>
    <trkpt lat="38.603445981" lon="34.813323962">
      <ele>1461.318</ele>
      <time>2021-10-12T10:56:08Z</time>
    </trkpt>
    <trkpt lat="38.603447992" lon="34.813277023">
      <ele>1460.785</ele>
      <time>2021-10-12T10:56:10Z</time>
    </trkpt>
    <trkpt lat="38.603447992" lon="34.81323">
      <ele>1460.207</ele>
      <time>2021-10-12T10:56:11Z</time>
    </trkpt>
    <trkpt lat="38.603443969" lon="34.813191025">
      <ele>1459.649</ele>
      <time>2021-10-12T10:56:12Z</time>
    </trkpt>
    <trkpt lat="38.603444975" lon="34.813148025">
      <ele>1459.142</ele>
      <time>2021-10-12T10:56:13Z</time>
    </trkpt>
    <trkpt lat="38.603445981" lon="34.813106032">
      <ele>1458.646</ele>
      <time>2021-10-12T10:56:15Z</time>
    </trkpt>
    <trkpt lat="38.603446987" lon="34.813063033">
      <ele>1458.138</ele>
      <time>2021-10-12T10:56:16Z</time>
    </trkpt>
    <trkpt lat="38.60345101" lon="34.81301601">
      <ele>1457.713</ele>
      <time>2021-10-12T10:56:17Z</time>
    </trkpt>
    <trkpt lat="38.603455033" lon="34.812969994">
      <ele>1457.305</ele>
      <time>2021-10-12T10:56:19Z</time>
    </trkpt>
    <trkpt lat="38.60346199" lon="34.812928">
      <ele>1456.972</ele>
      <time>2021-10-12T10:56:20Z</time>
    </trkpt>
    <trkpt lat="38.603470037" lon="34.812881984">
      <ele>1456.596</ele>
      <time>2021-10-12T10:56:21Z</time>
    </trkpt>
    <trkpt lat="38.603481017" lon="34.812838985">
      <ele>1456.27</ele>
      <time>2021-10-12T10:56:22Z</time>
    </trkpt>
    <trkpt lat="38.603496021" lon="34.812793974">
      <ele>1455.942</ele>
      <time>2021-10-12T10:56:24Z</time>
    </trkpt>
    <trkpt lat="38.603510018" lon="34.81275198">
      <ele>1455.748</ele>
      <time>2021-10-12T10:56:25Z</time>
    </trkpt>
    <trkpt lat="38.603525022" lon="34.812705964">
      <ele>1455.651</ele>
      <time>2021-10-12T10:56:27Z</time>
    </trkpt>
    <trkpt lat="38.603542037" lon="34.812665982">
      <ele>1455.651</ele>
      <time>2021-10-12T10:56:28Z</time>
    </trkpt>
    <trkpt lat="38.603565004" lon="34.812629018">
      <ele>1455.789</ele>
      <time>2021-10-12T10:56:29Z</time>
    </trkpt>
    <trkpt lat="38.603596017" lon="34.812593982">
      <ele>1456.103</ele>
      <time>2021-10-12T10:56:31Z</time>
    </trkpt>
    <trkpt lat="38.603625018" lon="34.812561963">
      <ele>1456.234</ele>
      <time>2021-10-12T10:56:32Z</time>
    </trkpt>
    <trkpt lat="38.603651002" lon="34.812532961">
      <ele>1456.136</ele>
      <time>2021-10-12T10:56:34Z</time>
    </trkpt>
    <trkpt lat="38.603677992" lon="34.812499015">
      <ele>1455.989</ele>
      <time>2021-10-12T10:56:35Z</time>
    </trkpt>
    <trkpt lat="38.603703976" lon="34.812460961">
      <ele>1455.626</ele>
      <time>2021-10-12T10:56:36Z</time>
    </trkpt>
    <trkpt lat="38.603732977" lon="34.81242802">
      <ele>1455.418</ele>
      <time>2021-10-12T10:56:38Z</time>
    </trkpt>
    <trkpt lat="38.603757033" lon="34.812391978">
      <ele>1455.262</ele>
      <time>2021-10-12T10:56:39Z</time>
    </trkpt>
    <trkpt lat="38.603775976" lon="34.812351996">
      <ele>1455.134</ele>
      <time>2021-10-12T10:56:41Z</time>
    </trkpt>
    <trkpt lat="38.603795003" lon="34.81231302">
      <ele>1455.09</ele>
      <time>2021-10-12T10:56:42Z</time>
    </trkpt>
    <trkpt lat="38.603815036" lon="34.812271027">
      <ele>1455.123</ele>
      <time>2021-10-12T10:56:43Z</time>
    </trkpt>
    <trkpt lat="38.603833979" lon="34.812229034">
      <ele>1455.229</ele>
      <time>2021-10-12T10:56:45Z</time>
    </trkpt>
    <trkpt lat="38.603850994" lon="34.812189974">
      <ele>1454.99</ele>
      <time>2021-10-12T10:56:46Z</time>
    </trkpt>
    <trkpt lat="38.603870021" lon="34.812147981">
      <ele>1454.659</ele>
      <time>2021-10-12T10:56:47Z</time>
    </trkpt>
    <trkpt lat="38.60388997" lon="34.812110011">
      <ele>1454.38</ele>
      <time>2021-10-12T10:56:49Z</time>
    </trkpt>
    <trkpt lat="38.603919977" lon="34.812073968">
      <ele>1453.753</ele>
      <time>2021-10-12T10:56:50Z</time>
    </trkpt>
    <trkpt lat="38.603953002" lon="34.812042033">
      <ele>1453.174</ele>
      <time>2021-10-12T10:56:52Z</time>
    </trkpt>
    <trkpt lat="38.603989966" lon="34.812010014">
      <ele>1452.58</ele>
      <time>2021-10-12T10:56:54Z</time>
    </trkpt>
    <trkpt lat="38.604026008" lon="34.811979001">
      <ele>1452.004</ele>
      <time>2021-10-12T10:56:55Z</time>
    </trkpt>
    <trkpt lat="38.604063978" lon="34.811952012">
      <ele>1451.479</ele>
      <time>2021-10-12T10:56:57Z</time>
    </trkpt>
    <trkpt lat="38.604102032" lon="34.811922004">
      <ele>1450.891</ele>
      <time>2021-10-12T10:56:58Z</time>
    </trkpt>
    <trkpt lat="38.604140002" lon="34.811896021">
      <ele>1450.382</ele>
      <time>2021-10-12T10:57:00Z</time>
    </trkpt>
    <trkpt lat="38.604175961" lon="34.81187297">
      <ele>1449.937</ele>
      <time>2021-10-12T10:57:01Z</time>
    </trkpt>
    <trkpt lat="38.604209991" lon="34.811853021">
      <ele>1449.528</ele>
      <time>2021-10-12T10:57:03Z</time>
    </trkpt>
    <trkpt lat="38.604249973" lon="34.811835">
      <ele>1449.124</ele>
      <time>2021-10-12T10:57:04Z</time>
    </trkpt>
    <trkpt lat="38.604286015" lon="34.811821003">
      <ele>1448.793</ele>
      <time>2021-10-12T10:57:06Z</time>
    </trkpt>
    <trkpt lat="38.604320968" lon="34.81180097">
      <ele>1448.378</ele>
      <time>2021-10-12T10:57:07Z</time>
    </trkpt>
    <trkpt lat="38.604353992" lon="34.811782027">
      <ele>1447.987</ele>
      <time>2021-10-12T10:57:09Z</time>
    </trkpt>
    <trkpt lat="38.604383999" lon="34.811758976">
      <ele>1447.547</ele>
      <time>2021-10-12T10:57:10Z</time>
    </trkpt>
    <trkpt lat="38.604409983" lon="34.811728969">
      <ele>1447.021</ele>
      <time>2021-10-12T10:57:11Z</time>
    </trkpt>
    <trkpt lat="38.604431022" lon="34.811690999">
      <ele>1446.399</ele>
      <time>2021-10-12T10:57:13Z</time>
    </trkpt>
    <trkpt lat="38.604454994" lon="34.81165898">
      <ele>1445.929</ele>
      <time>2021-10-12T10:57:14Z</time>
    </trkpt>
    <trkpt lat="38.604480978" lon="34.811628973">
      <ele>1445.624</ele>
      <time>2021-10-12T10:57:15Z</time>
    </trkpt>
    <trkpt lat="38.604509979" lon="34.811602989">
      <ele>1445.427</ele>
      <time>2021-10-12T10:57:16Z</time>
    </trkpt>
    <trkpt lat="38.604543004" lon="34.811575999">
      <ele>1445.281</ele>
      <time>2021-10-12T10:57:18Z</time>
    </trkpt>
    <trkpt lat="38.604578963" lon="34.811550016">
      <ele>1445.211</ele>
      <time>2021-10-12T10:57:19Z</time>
    </trkpt>
    <trkpt lat="38.604612993" lon="34.811527971">
      <ele>1445.215</ele>
      <time>2021-10-12T10:57:21Z</time>
    </trkpt>
    <trkpt lat="38.604647024" lon="34.811503999">
      <ele>1445.241</ele>
      <time>2021-10-12T10:57:22Z</time>
    </trkpt>
    <trkpt lat="38.604677031" lon="34.811484972">
      <ele>1445.316</ele>
      <time>2021-10-12T10:57:23Z</time>
    </trkpt>
    <trkpt lat="38.604715001" lon="34.811473992">
      <ele>1445.551</ele>
      <time>2021-10-12T10:57:25Z</time>
    </trkpt>
    <trkpt lat="38.604752971" lon="34.811459994">
      <ele>1445.762</ele>
      <time>2021-10-12T10:57:26Z</time>
    </trkpt>
    <trkpt lat="38.604793036" lon="34.811447002">
      <ele>1445.982</ele>
      <time>2021-10-12T10:57:28Z</time>
    </trkpt>
    <trkpt lat="38.604832012" lon="34.811437028">
      <ele>1446.206</ele>
      <time>2021-10-12T10:57:29Z</time>
    </trkpt>
    <trkpt lat="38.604865037" lon="34.811425963">
      <ele>1446.364</ele>
      <time>2021-10-12T10:57:31Z</time>
    </trkpt>
    <trkpt lat="38.604897978" lon="34.81140702">
      <ele>1446.437</ele>
      <time>2021-10-12T10:57:32Z</time>
    </trkpt>
    <trkpt lat="38.604925973" lon="34.811384976">
      <ele>1446.432</ele>
      <time>2021-10-12T10:57:33Z</time>
    </trkpt>
    <trkpt lat="38.604956986" lon="34.811364021">
      <ele>1446.449</ele>
      <time>2021-10-12T10:57:35Z</time>
    </trkpt>
    <trkpt lat="38.60498297" lon="34.811344994">
      <ele>1446.423</ele>
      <time>2021-10-12T10:57:36Z</time>
    </trkpt>
    <trkpt lat="38.605008032" lon="34.811324961">
      <ele>1446.21</ele>
      <time>2021-10-12T10:57:37Z</time>
    </trkpt>
    <trkpt lat="38.60503301" lon="34.811301995">
      <ele>1445.631</ele>
      <time>2021-10-12T10:57:38Z</time>
    </trkpt>
    <trkpt lat="38.605052037" lon="34.811277017">
      <ele>1445.079</ele>
      <time>2021-10-12T10:57:39Z</time>
    </trkpt>
    <trkpt lat="38.605069974" lon="34.811251033">
      <ele>1444.505</ele>
      <time>2021-10-12T10:57:40Z</time>
    </trkpt>
    <trkpt lat="38.60508699" lon="34.81122396">
      <ele>1443.907</ele>
      <time>2021-10-12T10:57:41Z</time>
    </trkpt>
    <trkpt lat="38.605110962" lon="34.811199987">
      <ele>1443.218</ele>
      <time>2021-10-12T10:57:42Z</time>
    </trkpt>
    <trkpt lat="38.605135018" lon="34.811174003">
      <ele>1442.469</ele>
      <time>2021-10-12T10:57:43Z</time>
    </trkpt>
    <trkpt lat="38.605152033" lon="34.811140979">
      <ele>1441.704</ele>
      <time>2021-10-12T10:57:44Z</time>
    </trkpt>
    <trkpt lat="38.605166031" lon="34.811103009">
      <ele>1440.994</ele>
      <time>2021-10-12T10:57:46Z</time>
    </trkpt>
    <trkpt lat="38.605176006" lon="34.811059004">
      <ele>1440.713</ele>
      <time>2021-10-12T10:57:47Z</time>
    </trkpt>
    <trkpt lat="38.605183968" lon="34.811011981">
      <ele>1440.452</ele>
      <time>2021-10-12T10:57:48Z</time>
    </trkpt>
    <trkpt lat="38.60518598" lon="34.810974011">
      <ele>1440.322</ele>
      <time>2021-10-12T10:57:49Z</time>
    </trkpt>
    <trkpt lat="38.605199978" lon="34.810935035">
      <ele>1439.944</ele>
      <time>2021-10-12T10:57:51Z</time>
    </trkpt>
    <trkpt lat="38.605223028" lon="34.810902011">
      <ele>1439.381</ele>
      <time>2021-10-12T10:57:52Z</time>
    </trkpt>
    <trkpt lat="38.605248006" lon="34.810870998">
      <ele>1438.764</ele>
      <time>2021-10-12T10:57:53Z</time>
    </trkpt>
    <trkpt lat="38.605291005" lon="34.81080302">
      <ele>1438.042</ele>
      <time>2021-10-12T10:57:56Z</time>
    </trkpt>
    <trkpt lat="38.605297962" lon="34.810777958">
      <ele>1438.162</ele>
      <time>2021-10-12T10:57:57Z</time>
    </trkpt>
    <trkpt lat="38.605299974" lon="34.810748035">
      <ele>1438.442</ele>
      <time>2021-10-12T10:57:57Z</time>
    </trkpt>
    <trkpt lat="38.605323024" lon="34.810726997">
      <ele>1438.171</ele>
      <time>2021-10-12T10:57:58Z</time>
    </trkpt>
    <trkpt lat="38.605387984" lon="34.81063203">
      <ele>1437.794</ele>
      <time>2021-10-12T10:58:02Z</time>
    </trkpt>
    <trkpt lat="38.605453027" lon="34.810530022">
      <ele>1437.742</ele>
      <time>2021-10-12T10:58:06Z</time>
    </trkpt>
    <trkpt lat="38.605523016" lon="34.810441006">
      <ele>1437.861</ele>
      <time>2021-10-12T10:58:10Z</time>
    </trkpt>
    <trkpt lat="38.605551012" lon="34.810422985">
      <ele>1437.5</ele>
      <time>2021-10-12T10:58:11Z</time>
    </trkpt>
    <trkpt lat="38.605576996" lon="34.810401024">
      <ele>1437.387</ele>
      <time>2021-10-12T10:58:12Z</time>
    </trkpt>
    <trkpt lat="38.605607003" lon="34.810387027">
      <ele>1437.068</ele>
      <time>2021-10-12T10:58:13Z</time>
    </trkpt>
    <trkpt lat="38.605655031" lon="34.81036297">
      <ele>1436.538</ele>
      <time>2021-10-12T10:58:15Z</time>
    </trkpt>
    <trkpt lat="38.605675986" lon="34.810354002">
      <ele>1436.265</ele>
      <time>2021-10-12T10:58:16Z</time>
    </trkpt>
    <trkpt lat="38.605694007" lon="34.810340004">
      <ele>1436.113</ele>
      <time>2021-10-12T10:58:17Z</time>
    </trkpt>
    <trkpt lat="38.605710017" lon="34.810322989">
      <ele>1436.031</ele>
      <time>2021-10-12T10:58:17Z</time>
    </trkpt>
    <trkpt lat="38.605728038" lon="34.810305974">
      <ele>1435.893</ele>
      <time>2021-10-12T10:58:18Z</time>
    </trkpt>
    <trkpt lat="38.605743963" lon="34.810289964">
      <ele>1435.771</ele>
      <time>2021-10-12T10:58:19Z</time>
    </trkpt>
    <trkpt lat="38.60576299" lon="34.810280995">
      <ele>1435.479</ele>
      <time>2021-10-12T10:58:20Z</time>
    </trkpt>
    <trkpt lat="38.605781011" lon="34.810266998">
      <ele>1435.261</ele>
      <time>2021-10-12T10:58:20Z</time>
    </trkpt>
    <trkpt lat="38.605796015" lon="34.810251994">
      <ele>1435.109</ele>
      <time>2021-10-12T10:58:21Z</time>
    </trkpt>
    <trkpt lat="38.605801966" lon="34.810228022">
      <ele>1435.255</ele>
      <time>2021-10-12T10:58:22Z</time>
    </trkpt>
    <trkpt lat="38.605797021" lon="34.810204972">
      <ele>1435.639</ele>
      <time>2021-10-12T10:58:23Z</time>
    </trkpt>
    <trkpt lat="38.605795009" lon="34.810174964">
      <ele>1436.04</ele>
      <time>2021-10-12T10:58:23Z</time>
    </trkpt>
    <trkpt lat="38.60578604" lon="34.810146969">
      <ele>1436.595</ele>
      <time>2021-10-12T10:58:24Z</time>
    </trkpt>
    <trkpt lat="38.605786962" lon="34.810120985">
      <ele>1436.883</ele>
      <time>2021-10-12T10:58:25Z</time>
    </trkpt>
    <trkpt lat="38.60578998" lon="34.810097013">
      <ele>1437.092</ele>
      <time>2021-10-12T10:58:26Z</time>
    </trkpt>
    <trkpt lat="38.60578998" lon="34.810072035">
      <ele>1437.39</ele>
      <time>2021-10-12T10:58:27Z</time>
    </trkpt>
    <trkpt lat="38.605784029" lon="34.810042027">
      <ele>1437.912</ele>
      <time>2021-10-12T10:58:27Z</time>
    </trkpt>
    <trkpt lat="38.605790986" lon="34.810017971">
      <ele>1438.006</ele>
      <time>2021-10-12T10:58:28Z</time>
    </trkpt>
    <trkpt lat="38.605794003" lon="34.809990982">
      <ele>1438.3</ele>
      <time>2021-10-12T10:58:29Z</time>
    </trkpt>
    <trkpt lat="38.605796015" lon="34.809967009">
      <ele>1438.685</ele>
      <time>2021-10-12T10:58:30Z</time>
    </trkpt>
    <trkpt lat="38.605805989" lon="34.809932979">
      <ele>1439.018</ele>
      <time>2021-10-12T10:58:31Z</time>
    </trkpt>
    <trkpt lat="38.605814036" lon="34.809911018">
      <ele>1439.18</ele>
      <time>2021-10-12T10:58:31Z</time>
    </trkpt>
    <trkpt lat="38.605815042" lon="34.80988604">
      <ele>1439.605</ele>
      <time>2021-10-12T10:58:32Z</time>
    </trkpt>
    <trkpt lat="38.605819987" lon="34.809861984">
      <ele>1439.893</ele>
      <time>2021-10-12T10:58:33Z</time>
    </trkpt>
    <trkpt lat="38.605823005" lon="34.809834994">
      <ele>1440.29</ele>
      <time>2021-10-12T10:58:34Z</time>
    </trkpt>
    <trkpt lat="38.605825016" lon="34.809811022">
      <ele>1440.661</ele>
      <time>2021-10-12T10:58:34Z</time>
    </trkpt>
    <trkpt lat="38.605826022" lon="34.809784032">
      <ele>1441.118</ele>
      <time>2021-10-12T10:58:35Z</time>
    </trkpt>
    <trkpt lat="38.605826022" lon="34.809758971">
      <ele>1441.572</ele>
      <time>2021-10-12T10:58:36Z</time>
    </trkpt>
    <trkpt lat="38.605825016" lon="34.809736004">
      <ele>1442.02</ele>
      <time>2021-10-12T10:58:37Z</time>
    </trkpt>
    <trkpt lat="38.605823005" lon="34.809707003">
      <ele>1442.607</ele>
      <time>2021-10-12T10:58:37Z</time>
    </trkpt>
    <trkpt lat="38.60582401" lon="34.809671966">
      <ele>1443.201</ele>
      <time>2021-10-12T10:58:38Z</time>
    </trkpt>
    <trkpt lat="38.60582904" lon="34.809643971">
      <ele>1443.543</ele>
      <time>2021-10-12T10:58:39Z</time>
    </trkpt>
    <trkpt lat="38.605835997" lon="34.809619999">
      <ele>1443.757</ele>
      <time>2021-10-12T10:58:40Z</time>
    </trkpt>
    <trkpt lat="38.605849994" lon="34.809588986">
      <ele>1443.887</ele>
      <time>2021-10-12T10:58:41Z</time>
    </trkpt>
    <trkpt lat="38.605858963" lon="34.80956099">
      <ele>1444.125</ele>
      <time>2021-10-12T10:58:42Z</time>
    </trkpt>
    <trkpt lat="38.605871033" lon="34.809529977">
      <ele>1444.333</ele>
      <time>2021-10-12T10:58:43Z</time>
    </trkpt>
    <trkpt lat="38.605882013" lon="34.809502987">
      <ele>1444.507</ele>
      <time>2021-10-12T10:58:44Z</time>
    </trkpt>
    <trkpt lat="38.605899028" lon="34.809473986">
      <ele>1444.551</ele>
      <time>2021-10-12T10:58:45Z</time>
    </trkpt>
    <trkpt lat="38.605911015" lon="34.809446996">
      <ele>1444.714</ele>
      <time>2021-10-12T10:58:46Z</time>
    </trkpt>
    <trkpt lat="38.605921995" lon="34.809423024">
      <ele>1444.758</ele>
      <time>2021-10-12T10:58:47Z</time>
    </trkpt>
    <trkpt lat="38.605933981" lon="34.809393017">
      <ele>1444.826</ele>
      <time>2021-10-12T10:58:48Z</time>
    </trkpt>
    <trkpt lat="38.605944039" lon="34.809348006">
      <ele>1445.132</ele>
      <time>2021-10-12T10:58:49Z</time>
    </trkpt>
    <trkpt lat="38.605945967" lon="34.809334008">
      <ele>1445.26</ele>
      <time>2021-10-12T10:58:49Z</time>
    </trkpt>
    <trkpt lat="38.605952002" lon="34.809307018">
      <ele>1445.422</ele>
      <time>2021-10-12T10:58:50Z</time>
    </trkpt>
    <trkpt lat="38.605958037" lon="34.809279023">
      <ele>1445.584</ele>
      <time>2021-10-12T10:58:51Z</time>
    </trkpt>
    <trkpt lat="38.605958959" lon="34.80924801">
      <ele>1445.958</ele>
      <time>2021-10-12T10:58:52Z</time>
    </trkpt>
    <trkpt lat="38.605962982" lon="34.809216997">
      <ele>1446.214</ele>
      <time>2021-10-12T10:58:53Z</time>
    </trkpt>
    <trkpt lat="38.605963988" lon="34.809193024">
      <ele>1446.486</ele>
      <time>2021-10-12T10:58:53Z</time>
    </trkpt>
    <trkpt lat="38.605969017" lon="34.809162011">
      <ele>1446.652</ele>
      <time>2021-10-12T10:58:54Z</time>
    </trkpt>
    <trkpt lat="38.605971029" lon="34.809134016">
      <ele>1446.724</ele>
      <time>2021-10-12T10:58:55Z</time>
    </trkpt>
    <trkpt lat="38.605970023" lon="34.809108032">
      <ele>1446.905</ele>
      <time>2021-10-12T10:58:56Z</time>
    </trkpt>
    <trkpt lat="38.605964994" lon="34.809080036">
      <ele>1447.262</ele>
      <time>2021-10-12T10:58:57Z</time>
    </trkpt>
    <trkpt lat="38.605957031" lon="34.809053969">
      <ele>1447.732</ele>
      <time>2021-10-12T10:58:58Z</time>
    </trkpt>
    <trkpt lat="38.60594999" lon="34.809033014">
      <ele>1448.141</ele>
      <time>2021-10-12T10:58:58Z</time>
    </trkpt>
    <trkpt lat="38.605942028" lon="34.808985991">
      <ele>1448.742</ele>
      <time>2021-10-12T10:59:00Z</time>
    </trkpt>
    <trkpt lat="38.605941022" lon="34.808972999">
      <ele>1448.86</ele>
      <time>2021-10-12T10:59:00Z</time>
    </trkpt>
    <trkpt lat="38.605935993" lon="34.80894601">
      <ele>1449.23</ele>
      <time>2021-10-12T10:59:01Z</time>
    </trkpt>
    <trkpt lat="38.605930964" lon="34.80891902">
      <ele>1449.604</ele>
      <time>2021-10-12T10:59:02Z</time>
    </trkpt>
    <trkpt lat="38.605925012" lon="34.808890019">
      <ele>1450.033</ele>
      <time>2021-10-12T10:59:03Z</time>
    </trkpt>
    <trkpt lat="38.605921995" lon="34.808859006">
      <ele>1450.204</ele>
      <time>2021-10-12T10:59:03Z</time>
    </trkpt>
    <trkpt lat="38.605916966" lon="34.808828998">
      <ele>1450.452</ele>
      <time>2021-10-12T10:59:04Z</time>
    </trkpt>
    <trkpt lat="38.60591596" lon="34.808803014">
      <ele>1450.522</ele>
      <time>2021-10-12T10:59:05Z</time>
    </trkpt>
    <trkpt lat="38.60591596" lon="34.808775019">
      <ele>1450.552</ele>
      <time>2021-10-12T10:59:06Z</time>
    </trkpt>
    <trkpt lat="38.605916966" lon="34.808741994">
      <ele>1450.546</ele>
      <time>2021-10-12T10:59:07Z</time>
    </trkpt>
    <trkpt lat="38.605910009" lon="34.808712993">
      <ele>1450.862</ele>
      <time>2021-10-12T10:59:08Z</time>
    </trkpt>
    <trkpt lat="38.605909003" lon="34.808673011">
      <ele>1450.943</ele>
      <time>2021-10-12T10:59:09Z</time>
    </trkpt>
    <trkpt lat="38.605909003" lon="34.808655996">
      <ele>1450.959</ele>
      <time>2021-10-12T10:59:09Z</time>
    </trkpt>
    <trkpt lat="38.605911015" lon="34.808618026">
      <ele>1450.917</ele>
      <time>2021-10-12T10:59:10Z</time>
    </trkpt>
    <trkpt lat="38.60591202" lon="34.808582989">
      <ele>1450.941</ele>
      <time>2021-10-12T10:59:11Z</time>
    </trkpt>
    <trkpt lat="38.60591202" lon="34.808548037">
      <ele>1451.013</ele>
      <time>2021-10-12T10:59:13Z</time>
    </trkpt>
    <trkpt lat="38.60591596" lon="34.808513001">
      <ele>1450.938</ele>
      <time>2021-10-12T10:59:14Z</time>
    </trkpt>
    <trkpt lat="38.605924007" lon="34.80847897">
      <ele>1450.72</ele>
      <time>2021-10-12T10:59:15Z</time>
    </trkpt>
    <trkpt lat="38.605929036" lon="34.808442006">
      <ele>1450.63</ele>
      <time>2021-10-12T10:59:16Z</time>
    </trkpt>
    <trkpt lat="38.605938004" lon="34.808409987">
      <ele>1450.401</ele>
      <time>2021-10-12T10:59:17Z</time>
    </trkpt>
    <trkpt lat="38.605944961" lon="34.80837998">
      <ele>1450.248</ele>
      <time>2021-10-12T10:59:18Z</time>
    </trkpt>
    <trkpt lat="38.605950996" lon="34.80834201">
      <ele>1450.161</ele>
      <time>2021-10-12T10:59:19Z</time>
    </trkpt>
    <trkpt lat="38.605956025" lon="34.808306973">
      <ele>1449.782</ele>
      <time>2021-10-12T10:59:20Z</time>
    </trkpt>
    <trkpt lat="38.605954014" lon="34.808281995">
      <ele>1449.616</ele>
      <time>2021-10-12T10:59:20Z</time>
    </trkpt>
    <trkpt lat="38.605947979" lon="34.808256011">
      <ele>1449.565</ele>
      <time>2021-10-12T10:59:21Z</time>
    </trkpt>
    <trkpt lat="38.605956025" lon="34.808232961">
      <ele>1449.1</ele>
      <time>2021-10-12T10:59:22Z</time>
    </trkpt>
    <trkpt lat="38.605975974" lon="34.808221981">
      <ele>1448.382</ele>
      <time>2021-10-12T10:59:23Z</time>
    </trkpt>
    <trkpt lat="38.60600397" lon="34.808204966">
      <ele>1447.369</ele>
      <time>2021-10-12T10:59:24Z</time>
    </trkpt>
    <trkpt lat="38.606025008" lon="34.808180993">
      <ele>1446.523</ele>
      <time>2021-10-12T10:59:25Z</time>
    </trkpt>
    <trkpt lat="38.606049987" lon="34.80815501">
      <ele>1445.555</ele>
      <time>2021-10-12T10:59:26Z</time>
    </trkpt>
    <trkpt lat="38.606073959" lon="34.808135983">
      <ele>1444.688</ele>
      <time>2021-10-12T10:59:27Z</time>
    </trkpt>
    <trkpt lat="38.606084017" lon="34.808116034">
      <ele>1444.237</ele>
      <time>2021-10-12T10:59:28Z</time>
    </trkpt>
    <trkpt lat="38.60608804" lon="34.808087032">
      <ele>1443.9</ele>
      <time>2021-10-12T10:59:29Z</time>
    </trkpt>
    <trkpt lat="38.606102038" lon="34.808072029">
      <ele>1443.382</ele>
      <time>2021-10-12T10:59:29Z</time>
    </trkpt>
    <trkpt lat="38.606117042" lon="34.808053002">
      <ele>1442.845</ele>
      <time>2021-10-12T10:59:30Z</time>
    </trkpt>
    <trkpt lat="38.606148977" lon="34.808026012">
      <ele>1441.892</ele>
      <time>2021-10-12T10:59:32Z</time>
    </trkpt>
    <trkpt lat="38.606170015" lon="34.808015032">
      <ele>1441.352</ele>
      <time>2021-10-12T10:59:32Z</time>
    </trkpt>
    <trkpt lat="38.606182002" lon="34.808007991">
      <ele>1441.042</ele>
      <time>2021-10-12T10:59:33Z</time>
    </trkpt>
    <trkpt lat="38.606203962" lon="34.807993993">
      <ele>1440.478</ele>
      <time>2021-10-12T10:59:34Z</time>
    </trkpt>
    <trkpt lat="38.606228018" lon="34.80798603">
      <ele>1439.935</ele>
      <time>2021-10-12T10:59:35Z</time>
    </trkpt>
    <trkpt lat="38.606249979" lon="34.807975972">
      <ele>1439.427</ele>
      <time>2021-10-12T10:59:36Z</time>
    </trkpt>
    <trkpt lat="38.606266994" lon="34.807959963">
      <ele>1438.987</ele>
      <time>2021-10-12T10:59:36Z</time>
    </trkpt>
    <trkpt lat="38.606288033" lon="34.807944037">
      <ele>1438.485</ele>
      <time>2021-10-12T10:59:37Z</time>
    </trkpt>
    <trkpt lat="38.606312005" lon="34.807938002">
      <ele>1438.003</ele>
      <time>2021-10-12T10:59:38Z</time>
    </trkpt>
    <trkpt lat="38.606334971" lon="34.807930961">
      <ele>1437.542</ele>
      <time>2021-10-12T10:59:39Z</time>
    </trkpt>
    <trkpt lat="38.606352992" lon="34.80792501">
      <ele>1437.184</ele>
      <time>2021-10-12T10:59:40Z</time>
    </trkpt>
    <trkpt lat="38.606364978" lon="34.807904977">
      <ele>1436.881</ele>
      <time>2021-10-12T10:59:41Z</time>
    </trkpt>
    <trkpt lat="38.606352992" lon="34.80787497">
      <ele>1436.957</ele>
      <time>2021-10-12T10:59:41Z</time>
    </trkpt>
    <trkpt lat="38.606337989" lon="34.807854015">
      <ele>1437.108</ele>
      <time>2021-10-12T10:59:42Z</time>
    </trkpt>
    <trkpt lat="38.606316028" lon="34.807827026">
      <ele>1437.319</ele>
      <time>2021-10-12T10:59:43Z</time>
    </trkpt>
    <trkpt lat="38.606293984" lon="34.807805987">
      <ele>1437.538</ele>
      <time>2021-10-12T10:59:44Z</time>
    </trkpt>
    <trkpt lat="38.606272023" lon="34.807790983">
      <ele>1437.77</ele>
      <time>2021-10-12T10:59:45Z</time>
    </trkpt>
    <trkpt lat="38.606250985" lon="34.807767011">
      <ele>1437.87</ele>
      <time>2021-10-12T10:59:46Z</time>
    </trkpt>
    <trkpt lat="38.606235981" lon="34.807741027">
      <ele>1437.805</ele>
      <time>2021-10-12T10:59:47Z</time>
    </trkpt>
    <trkpt lat="38.606229024" lon="34.807719989">
      <ele>1437.678</ele>
      <time>2021-10-12T10:59:48Z</time>
    </trkpt>
    <trkpt lat="38.606220977" lon="34.807698028">
      <ele>1437.557</ele>
      <time>2021-10-12T10:59:49Z</time>
    </trkpt>
    <trkpt lat="38.606212009" lon="34.807673972">
      <ele>1437.426</ele>
      <time>2021-10-12T10:59:50Z</time>
    </trkpt>
    <trkpt lat="38.606198011" lon="34.807655029">
      <ele>1437.423</ele>
      <time>2021-10-12T10:59:50Z</time>
    </trkpt>
    <trkpt lat="38.606180996" lon="34.807640025">
      <ele>1437.506</ele>
      <time>2021-10-12T10:59:51Z</time>
    </trkpt>
    <trkpt lat="38.606162975" lon="34.807617981">
      <ele>1437.527</ele>
      <time>2021-10-12T10:59:52Z</time>
    </trkpt>
    <trkpt lat="38.606144032" lon="34.807597026">
      <ele>1437.574</ele>
      <time>2021-10-12T10:59:53Z</time>
    </trkpt>
    <trkpt lat="38.606133973" lon="34.807570959">
      <ele>1437.437</ele>
      <time>2021-10-12T10:59:54Z</time>
    </trkpt>
    <trkpt lat="38.606135985" lon="34.807542041">
      <ele>1437.096</ele>
      <time>2021-10-12T10:59:55Z</time>
    </trkpt>
    <trkpt lat="38.606127016" lon="34.80749703">
      <ele>1436.74</ele>
      <time>2021-10-12T10:59:56Z</time>
    </trkpt>
    <trkpt lat="38.606135985" lon="34.807444979">
      <ele>1436.065</ele>
      <time>2021-10-12T10:59:57Z</time>
    </trkpt>
    <trkpt lat="38.606144032" lon="34.807412038">
      <ele>1435.613</ele>
      <time>2021-10-12T10:59:58Z</time>
    </trkpt>
    <trkpt lat="38.606149983" lon="34.807373984">
      <ele>1435.143</ele>
      <time>2021-10-12T11:00:00Z</time>
    </trkpt>
    <trkpt lat="38.606153" lon="34.807330985">
      <ele>1434.663</ele>
      <time>2021-10-12T11:00:01Z</time>
    </trkpt>
    <trkpt lat="38.606155012" lon="34.807287985">
      <ele>1434.199</ele>
      <time>2021-10-12T11:00:02Z</time>
    </trkpt>
    <trkpt lat="38.606154006" lon="34.807254039">
      <ele>1433.863</ele>
      <time>2021-10-12T11:00:03Z</time>
    </trkpt>
    <trkpt lat="38.606157023" lon="34.80722202">
      <ele>1433.503</ele>
      <time>2021-10-12T11:00:04Z</time>
    </trkpt>
    <trkpt lat="38.606159035" lon="34.807196036">
      <ele>1433.326</ele>
      <time>2021-10-12T11:00:05Z</time>
    </trkpt>
    <trkpt lat="38.606162975" lon="34.807170974">
      <ele>1433.14</ele>
      <time>2021-10-12T11:00:06Z</time>
    </trkpt>
    <trkpt lat="38.606170015" lon="34.807140967">
      <ele>1432.903</ele>
      <time>2021-10-12T11:00:06Z</time>
    </trkpt>
    <trkpt lat="38.606176972" lon="34.807096962">
      <ele>1432.601</ele>
      <time>2021-10-12T11:00:08Z</time>
    </trkpt>
    <trkpt lat="38.606188037" lon="34.807069972">
      <ele>1432.377</ele>
      <time>2021-10-12T11:00:09Z</time>
    </trkpt>
    <trkpt lat="38.60620304" lon="34.807041977">
      <ele>1432.139</ele>
      <time>2021-10-12T11:00:10Z</time>
    </trkpt>
    <trkpt lat="38.606217038" lon="34.807014987">
      <ele>1431.933</ele>
      <time>2021-10-12T11:00:11Z</time>
    </trkpt>
    <trkpt lat="38.60623003" lon="34.806986991">
      <ele>1431.747</ele>
      <time>2021-10-12T11:00:11Z</time>
    </trkpt>
    <trkpt lat="38.606234975" lon="34.806962013">
      <ele>1431.624</ele>
      <time>2021-10-12T11:00:12Z</time>
    </trkpt>
    <trkpt lat="38.606232964" lon="34.806936029">
      <ele>1431.514</ele>
      <time>2021-10-12T11:00:13Z</time>
    </trkpt>
    <trkpt lat="38.606221983" lon="34.806915997">
      <ele>1431.437</ele>
      <time>2021-10-12T11:00:14Z</time>
    </trkpt>
    <trkpt lat="38.60620698" lon="34.806894036">
      <ele>1431.355</ele>
      <time>2021-10-12T11:00:15Z</time>
    </trkpt>
    <trkpt lat="38.606176972" lon="34.806848019">
      <ele>1431.151</ele>
      <time>2021-10-12T11:00:16Z</time>
    </trkpt>
    <trkpt lat="38.606166998" lon="34.806824969">
      <ele>1431.025</ele>
      <time>2021-10-12T11:00:17Z</time>
    </trkpt>
    <trkpt lat="38.606159035" lon="34.806800997">
      <ele>1430.884</ele>
      <time>2021-10-12T11:00:18Z</time>
    </trkpt>
    <trkpt lat="38.60614202" lon="34.806760009">
      <ele>1430.635</ele>
      <time>2021-10-12T11:00:19Z</time>
    </trkpt>
    <trkpt lat="38.606134979" lon="34.806736959">
      <ele>1430.484</ele>
      <time>2021-10-12T11:00:20Z</time>
    </trkpt>
    <trkpt lat="38.606141014" lon="34.806708964">
      <ele>1430.288</ele>
      <time>2021-10-12T11:00:21Z</time>
    </trkpt>
    <trkpt lat="38.606171021" lon="34.806701001">
      <ele>1430.221</ele>
      <time>2021-10-12T11:00:22Z</time>
    </trkpt>
    <trkpt lat="38.606203962" lon="34.806703012">
      <ele>1430.218</ele>
      <time>2021-10-12T11:00:23Z</time>
    </trkpt>
    <trkpt lat="38.606229024" lon="34.806709969">
      <ele>1430.246</ele>
      <time>2021-10-12T11:00:24Z</time>
    </trkpt>
    <trkpt lat="38.606256014" lon="34.806704018">
      <ele>1430.199</ele>
      <time>2021-10-12T11:00:25Z</time>
    </trkpt>
    <trkpt lat="38.606279986" lon="34.806691026">
      <ele>1430.122</ele>
      <time>2021-10-12T11:00:26Z</time>
    </trkpt>
    <trkpt lat="38.606300019" lon="34.806677029">
      <ele>1430.049</ele>
      <time>2021-10-12T11:00:27Z</time>
    </trkpt>
    <trkpt lat="38.606314017" lon="34.806661019">
      <ele>1429.928</ele>
      <time>2021-10-12T11:00:28Z</time>
    </trkpt>
    <trkpt lat="38.606328014" lon="34.806646015">
      <ele>1429.744</ele>
      <time>2021-10-12T11:00:28Z</time>
    </trkpt>
    <trkpt lat="38.606342012" lon="34.806629">
      <ele>1429.547</ele>
      <time>2021-10-12T11:00:29Z</time>
    </trkpt>
    <trkpt lat="38.606346035" lon="34.806606034">
      <ele>1429.278</ele>
      <time>2021-10-12T11:00:30Z</time>
    </trkpt>
    <trkpt lat="38.606350981" lon="34.806582984">
      <ele>1429.014</ele>
      <time>2021-10-12T11:00:30Z</time>
    </trkpt>
    <trkpt lat="38.606363973" lon="34.806549959">
      <ele>1428.664</ele>
      <time>2021-10-12T11:00:31Z</time>
    </trkpt>
    <trkpt lat="38.606374031" lon="34.806514001">
      <ele>1428.292</ele>
      <time>2021-10-12T11:00:32Z</time>
    </trkpt>
    <trkpt lat="38.606379982" lon="34.806484999">
      <ele>1427.996</ele>
      <time>2021-10-12T11:00:33Z</time>
    </trkpt>
    <trkpt lat="38.606384005" lon="34.80645298">
      <ele>1427.665</ele>
      <time>2021-10-12T11:00:34Z</time>
    </trkpt>
    <trkpt lat="38.606386017" lon="34.806421967">
      <ele>1427.339</ele>
      <time>2021-10-12T11:00:35Z</time>
    </trkpt>
    <trkpt lat="38.606389035" lon="34.806390032">
      <ele>1427.013</ele>
      <time>2021-10-12T11:00:36Z</time>
    </trkpt>
    <trkpt lat="38.60639398" lon="34.806357007">
      <ele>1426.559</ele>
      <time>2021-10-12T11:00:37Z</time>
    </trkpt>
    <trkpt lat="38.606405966" lon="34.806328006">
      <ele>1426.185</ele>
      <time>2021-10-12T11:00:38Z</time>
    </trkpt>
    <trkpt lat="38.606414013" lon="34.806294981">
      <ele>1425.738</ele>
      <time>2021-10-12T11:00:39Z</time>
    </trkpt>
    <trkpt lat="38.606419964" lon="34.806259023">
      <ele>1425.242</ele>
      <time>2021-10-12T11:00:40Z</time>
    </trkpt>
    <trkpt lat="38.606425999" lon="34.806227004">
      <ele>1424.802</ele>
      <time>2021-10-12T11:00:41Z</time>
    </trkpt>
    <trkpt lat="38.606429016" lon="34.806192974">
      <ele>1424.323</ele>
      <time>2021-10-12T11:00:42Z</time>
    </trkpt>
    <trkpt lat="38.606423987" lon="34.806157015">
      <ele>1423.787</ele>
      <time>2021-10-12T11:00:43Z</time>
    </trkpt>
    <trkpt lat="38.606421975" lon="34.806122985">
      <ele>1423.29</ele>
      <time>2021-10-12T11:00:44Z</time>
    </trkpt>
    <trkpt lat="38.60641703" lon="34.80608996">
      <ele>1422.797</ele>
      <time>2021-10-12T11:00:45Z</time>
    </trkpt>
    <trkpt lat="38.606414013" lon="34.806061964">
      <ele>1422.383</ele>
      <time>2021-10-12T11:00:46Z</time>
    </trkpt>
    <trkpt lat="38.606412001" lon="34.806032963">
      <ele>1421.958</ele>
      <time>2021-10-12T11:00:47Z</time>
    </trkpt>
    <trkpt lat="38.606412001" lon="34.805999016">
      <ele>1421.469</ele>
      <time>2021-10-12T11:00:48Z</time>
    </trkpt>
    <trkpt lat="38.606414013" lon="34.80596398">
      <ele>1420.972</ele>
      <time>2021-10-12T11:00:49Z</time>
    </trkpt>
    <trkpt lat="38.606421975" lon="34.805929027">
      <ele>1420.497</ele>
      <time>2021-10-12T11:00:50Z</time>
    </trkpt>
    <trkpt lat="38.606431028" lon="34.80589902">
      <ele>1420.098</ele>
      <time>2021-10-12T11:00:51Z</time>
    </trkpt>
    <trkpt lat="38.606442008" lon="34.805873036">
      <ele>1419.763</ele>
      <time>2021-10-12T11:00:52Z</time>
    </trkpt>
    <trkpt lat="38.606458018" lon="34.805834983">
      <ele>1419.273</ele>
      <time>2021-10-12T11:00:53Z</time>
    </trkpt>
    <trkpt lat="38.606464975" lon="34.805819979">
      <ele>1419.082</ele>
      <time>2021-10-12T11:00:53Z</time>
    </trkpt>
    <trkpt lat="38.60648199" lon="34.805793995">
      <ele>1418.769</ele>
      <time>2021-10-12T11:00:54Z</time>
    </trkpt>
    <trkpt lat="38.606503028" lon="34.805781003">
      <ele>1418.657</ele>
      <time>2021-10-12T11:00:55Z</time>
    </trkpt>
    <trkpt lat="38.60651996" lon="34.80576097">
      <ele>1418.43</ele>
      <time>2021-10-12T11:00:56Z</time>
    </trkpt>
    <trkpt lat="38.606537981" lon="34.805745967">
      <ele>1418.279</ele>
      <time>2021-10-12T11:00:57Z</time>
    </trkpt>
    <trkpt lat="38.606556002" lon="34.805719983">
      <ele>1417.969</ele>
      <time>2021-10-12T11:00:58Z</time>
    </trkpt>
    <trkpt lat="38.606566982" lon="34.805698022">
      <ele>1417.693</ele>
      <time>2021-10-12T11:00:59Z</time>
    </trkpt>
    <trkpt lat="38.606582992" lon="34.805682013">
      <ele>1417.52</ele>
      <time>2021-10-12T11:00:59Z</time>
    </trkpt>
    <trkpt lat="38.606595984" lon="34.805663992">
      <ele>1417.307</ele>
      <time>2021-10-12T11:01:00Z</time>
    </trkpt>
    <trkpt lat="38.606611993" lon="34.805638008">
      <ele>1416.99</ele>
      <time>2021-10-12T11:01:01Z</time>
    </trkpt>
    <trkpt lat="38.606630014" lon="34.805615041">
      <ele>1416.725</ele>
      <time>2021-10-12T11:01:02Z</time>
    </trkpt>
    <trkpt lat="38.606657004" lon="34.805584028">
      <ele>1416.375</ele>
      <time>2021-10-12T11:01:03Z</time>
    </trkpt>
    <trkpt lat="38.606666978" lon="34.805575982">
      <ele>1416.29</ele>
      <time>2021-10-12T11:01:04Z</time>
    </trkpt>
    <trkpt lat="38.606683994" lon="34.805556033">
      <ele>1415.757</ele>
      <time>2021-10-12T11:01:05Z</time>
    </trkpt>
    <trkpt lat="38.606702015" lon="34.805540023">
      <ele>1415.282</ele>
      <time>2021-10-12T11:01:05Z</time>
    </trkpt>
    <trkpt lat="38.60671903" lon="34.80552502">
      <ele>1414.848</ele>
      <time>2021-10-12T11:01:06Z</time>
    </trkpt>
    <trkpt lat="38.606731016" lon="34.80550197">
      <ele>1414.391</ele>
      <time>2021-10-12T11:01:07Z</time>
    </trkpt>
    <trkpt lat="38.606740991" lon="34.805473974">
      <ele>1413.912</ele>
      <time>2021-10-12T11:01:08Z</time>
    </trkpt>
    <trkpt lat="38.606750965" lon="34.805448996">
      <ele>1413.484</ele>
      <time>2021-10-12T11:01:09Z</time>
    </trkpt>
    <trkpt lat="38.606760018" lon="34.805426029">
      <ele>1413.104</ele>
      <time>2021-10-12T11:01:09Z</time>
    </trkpt>
    <trkpt lat="38.606766975" lon="34.805402979">
      <ele>1412.755</ele>
      <time>2021-10-12T11:01:10Z</time>
    </trkpt>
    <trkpt lat="38.606768986" lon="34.80537599">
      <ele>1412.417</ele>
      <time>2021-10-12T11:01:11Z</time>
    </trkpt>
    <trkpt lat="38.606768986" lon="34.805353023">
      <ele>1412.147</ele>
      <time>2021-10-12T11:01:12Z</time>
    </trkpt>
    <trkpt lat="38.606766975" lon="34.805317987">
      <ele>1411.752</ele>
      <time>2021-10-12T11:01:13Z</time>
    </trkpt>
    <trkpt lat="38.606768986" lon="34.805290997">
      <ele>1411.419</ele>
      <time>2021-10-12T11:01:13Z</time>
    </trkpt>
    <trkpt lat="38.606769992" lon="34.805251015">
      <ele>1411.039</ele>
      <time>2021-10-12T11:01:15Z</time>
    </trkpt>
    <trkpt lat="38.606769992" lon="34.805235006">
      <ele>1410.909</ele>
      <time>2021-10-12T11:01:15Z</time>
    </trkpt>
    <trkpt lat="38.60677301" lon="34.805204999">
      <ele>1410.649</ele>
      <time>2021-10-12T11:01:16Z</time>
    </trkpt>
    <trkpt lat="38.606778039" lon="34.805173986">
      <ele>1410.377</ele>
      <time>2021-10-12T11:01:17Z</time>
    </trkpt>
    <trkpt lat="38.606784996" lon="34.805144984">
      <ele>1410.121</ele>
      <time>2021-10-12T11:01:18Z</time>
    </trkpt>
    <trkpt lat="38.606796982" lon="34.805116989">
      <ele>1409.868</ele>
      <time>2021-10-12T11:01:19Z</time>
    </trkpt>
    <trkpt lat="38.606807962" lon="34.805088993">
      <ele>1409.635</ele>
      <time>2021-10-12T11:01:20Z</time>
    </trkpt>
    <trkpt lat="38.606819026" lon="34.80505798">
      <ele>1409.397</ele>
      <time>2021-10-12T11:01:21Z</time>
    </trkpt>
    <trkpt lat="38.606830006" lon="34.805029985">
      <ele>1409.197</ele>
      <time>2021-10-12T11:01:22Z</time>
    </trkpt>
    <trkpt lat="38.606850039" lon="34.805001989">
      <ele>1409.012</ele>
      <time>2021-10-12T11:01:23Z</time>
    </trkpt>
    <trkpt lat="38.606870994" lon="34.80498204">
      <ele>1408.966</ele>
      <time>2021-10-12T11:01:24Z</time>
    </trkpt>
    <trkpt lat="38.60688298" lon="34.804962007">
      <ele>1408.939</ele>
      <time>2021-10-12T11:01:24Z</time>
    </trkpt>
    <trkpt lat="38.606901001" lon="34.804943986">
      <ele>1408.937</ele>
      <time>2021-10-12T11:01:25Z</time>
    </trkpt>
    <trkpt lat="38.606919022" lon="34.804919008">
      <ele>1408.947</ele>
      <time>2021-10-12T11:01:26Z</time>
    </trkpt>
    <trkpt lat="38.606936038" lon="34.804883972">
      <ele>1408.975</ele>
      <time>2021-10-12T11:01:27Z</time>
    </trkpt>
    <trkpt lat="38.606948024" lon="34.804852037">
      <ele>1408.993</ele>
      <time>2021-10-12T11:01:28Z</time>
    </trkpt>
    <trkpt lat="38.606962021" lon="34.804818006">
      <ele>1408.959</ele>
      <time>2021-10-12T11:01:29Z</time>
    </trkpt>
    <trkpt lat="38.606980965" lon="34.804785987">
      <ele>1408.899</ele>
      <time>2021-10-12T11:01:31Z</time>
    </trkpt>
    <trkpt lat="38.606999991" lon="34.804757992">
      <ele>1408.826</ele>
      <time>2021-10-12T11:01:32Z</time>
    </trkpt>
    <trkpt lat="38.60702103" lon="34.804735025">
      <ele>1408.737</ele>
      <time>2021-10-12T11:01:33Z</time>
    </trkpt>
    <trkpt lat="38.607042991" lon="34.804713987">
      <ele>1408.616</ele>
      <time>2021-10-12T11:01:34Z</time>
    </trkpt>
    <trkpt lat="38.607067969" lon="34.80469496">
      <ele>1408.457</ele>
      <time>2021-10-12T11:01:35Z</time>
    </trkpt>
    <trkpt lat="38.607089007" lon="34.804671993">
      <ele>1408.299</ele>
      <time>2021-10-12T11:01:36Z</time>
    </trkpt>
    <trkpt lat="38.607107028" lon="34.80464601">
      <ele>1408.14</ele>
      <time>2021-10-12T11:01:37Z</time>
    </trkpt>
    <trkpt lat="38.607121026" lon="34.804618014">
      <ele>1407.989</ele>
      <time>2021-10-12T11:01:38Z</time>
    </trkpt>
    <trkpt lat="38.607138963" lon="34.804588007">
      <ele>1407.817</ele>
      <time>2021-10-12T11:01:39Z</time>
    </trkpt>
    <trkpt lat="38.607158996" lon="34.804562023">
      <ele>1407.651</ele>
      <time>2021-10-12T11:01:40Z</time>
    </trkpt>
    <trkpt lat="38.607177017" lon="34.804538973">
      <ele>1407.503</ele>
      <time>2021-10-12T11:01:41Z</time>
    </trkpt>
    <trkpt lat="38.607203001" lon="34.804517012">
      <ele>1407.33</ele>
      <time>2021-10-12T11:01:42Z</time>
    </trkpt>
    <trkpt lat="38.607230997" lon="34.804502008">
      <ele>1407.144</ele>
      <time>2021-10-12T11:01:43Z</time>
    </trkpt>
    <trkpt lat="38.607253963" lon="34.804485999">
      <ele>1406.921</ele>
      <time>2021-10-12T11:01:44Z</time>
    </trkpt>
    <trkpt lat="38.607280031" lon="34.80446999">
      <ele>1406.676</ele>
      <time>2021-10-12T11:01:45Z</time>
    </trkpt>
    <trkpt lat="38.607308026" lon="34.804452974">
      <ele>1406.413</ele>
      <time>2021-10-12T11:01:46Z</time>
    </trkpt>
    <trkpt lat="38.607331999" lon="34.804434031">
      <ele>1406.149</ele>
      <time>2021-10-12T11:01:47Z</time>
    </trkpt>
    <trkpt lat="38.607356977" lon="34.804417016">
      <ele>1405.88</ele>
      <time>2021-10-12T11:01:48Z</time>
    </trkpt>
    <trkpt lat="38.607381033" lon="34.804402012">
      <ele>1405.638</ele>
      <time>2021-10-12T11:01:49Z</time>
    </trkpt>
    <trkpt lat="38.607407017" lon="34.804382985">
      <ele>1405.374</ele>
      <time>2021-10-12T11:01:51Z</time>
    </trkpt>
    <trkpt lat="38.607423026" lon="34.804369994">
      <ele>1405.212</ele>
      <time>2021-10-12T11:01:51Z</time>
    </trkpt>
    <trkpt lat="38.607445993" lon="34.804348033">
      <ele>1404.974</ele>
      <time>2021-10-12T11:01:52Z</time>
    </trkpt>
    <trkpt lat="38.607468959" lon="34.804326994">
      <ele>1404.753</ele>
      <time>2021-10-12T11:01:53Z</time>
    </trkpt>
    <trkpt lat="38.607496032" lon="34.804316014">
      <ele>1404.56</ele>
      <time>2021-10-12T11:01:54Z</time>
    </trkpt>
    <trkpt lat="38.607520005" lon="34.804305034">
      <ele>1404.426</ele>
      <time>2021-10-12T11:01:55Z</time>
    </trkpt>
    <trkpt lat="38.607546994" lon="34.804289024">
      <ele>1404.271</ele>
      <time>2021-10-12T11:01:56Z</time>
    </trkpt>
    <trkpt lat="38.607570967" lon="34.804267986">
      <ele>1404.109</ele>
      <time>2021-10-12T11:01:58Z</time>
    </trkpt>
    <trkpt lat="38.607599968" lon="34.804257005">
      <ele>1403.965</ele>
      <time>2021-10-12T11:01:59Z</time>
    </trkpt>
    <trkpt lat="38.607630981" lon="34.804251976">
      <ele>1403.836</ele>
      <time>2021-10-12T11:02:00Z</time>
    </trkpt>
    <trkpt lat="38.607659983" lon="34.804252982">
      <ele>1403.735</ele>
      <time>2021-10-12T11:02:01Z</time>
    </trkpt>
    <trkpt lat="38.607690996" lon="34.804251976">
      <ele>1403.62</ele>
      <time>2021-10-12T11:02:02Z</time>
    </trkpt>
    <trkpt lat="38.607717985" lon="34.804247031">
      <ele>1403.505</ele>
      <time>2021-10-12T11:02:03Z</time>
    </trkpt>
    <trkpt lat="38.607742041" lon="34.804230016">
      <ele>1403.357</ele>
      <time>2021-10-12T11:02:04Z</time>
    </trkpt>
    <trkpt lat="38.607767019" lon="34.804208977">
      <ele>1403.191</ele>
      <time>2021-10-12T11:02:05Z</time>
    </trkpt>
    <trkpt lat="38.607793003" lon="34.804189028">
      <ele>1402.975</ele>
      <time>2021-10-12T11:02:06Z</time>
    </trkpt>
    <trkpt lat="38.607816976" lon="34.804171007">
      <ele>1402.736</ele>
      <time>2021-10-12T11:02:07Z</time>
    </trkpt>
    <trkpt lat="38.607840026" lon="34.804150974">
      <ele>1402.483</ele>
      <time>2021-10-12T11:02:08Z</time>
    </trkpt>
    <trkpt lat="38.607870033" lon="34.804135971">
      <ele>1402.189</ele>
      <time>2021-10-12T11:02:10Z</time>
    </trkpt>
    <trkpt lat="38.607898029" lon="34.804129014">
      <ele>1401.94</ele>
      <time>2021-10-12T11:02:11Z</time>
    </trkpt>
    <trkpt lat="38.607926024" lon="34.804122979">
      <ele>1401.691</ele>
      <time>2021-10-12T11:02:12Z</time>
    </trkpt>
    <trkpt lat="38.607955026" lon="34.804113004">
      <ele>1401.407</ele>
      <time>2021-10-12T11:02:13Z</time>
    </trkpt>
    <trkpt lat="38.607982015" lon="34.804106969">
      <ele>1401.157</ele>
      <time>2021-10-12T11:02:14Z</time>
    </trkpt>
    <trkpt lat="38.608009005" lon="34.804095989">
      <ele>1400.869</ele>
      <time>2021-10-12T11:02:15Z</time>
    </trkpt>
    <trkpt lat="38.608037001" lon="34.804090038">
      <ele>1400.6</ele>
      <time>2021-10-12T11:02:16Z</time>
    </trkpt>
    <trkpt lat="38.608062984" lon="34.804078974">
      <ele>1400.315</ele>
      <time>2021-10-12T11:02:17Z</time>
    </trkpt>
    <trkpt lat="38.608087962" lon="34.804071011">
      <ele>1400.078</ele>
      <time>2021-10-12T11:02:18Z</time>
    </trkpt>
    <trkpt lat="38.608113024" lon="34.804061959">
      <ele>1399.832</ele>
      <time>2021-10-12T11:02:19Z</time>
    </trkpt>
    <trkpt lat="38.608138002" lon="34.804046033">
      <ele>1399.538</ele>
      <time>2021-10-12T11:02:20Z</time>
    </trkpt>
    <trkpt lat="38.608160969" lon="34.804031029">
      <ele>1399.264</ele>
      <time>2021-10-12T11:02:21Z</time>
    </trkpt>
    <trkpt lat="38.608182007" lon="34.804013008">
      <ele>1398.983</ele>
      <time>2021-10-12T11:02:22Z</time>
    </trkpt>
    <trkpt lat="38.60820598" lon="34.803993981">
      <ele>1398.674</ele>
      <time>2021-10-12T11:02:23Z</time>
    </trkpt>
    <trkpt lat="38.608231042" lon="34.803972021">
      <ele>1398.335</ele>
      <time>2021-10-12T11:02:24Z</time>
    </trkpt>
    <trkpt lat="38.608254008" lon="34.803952994">
      <ele>1398.033</ele>
      <time>2021-10-12T11:02:25Z</time>
    </trkpt>
    <trkpt lat="38.60827798" lon="34.803930027">
      <ele>1397.695</ele>
      <time>2021-10-12T11:02:26Z</time>
    </trkpt>
    <trkpt lat="38.608298013" lon="34.803913012">
      <ele>1397.428</ele>
      <time>2021-10-12T11:02:27Z</time>
    </trkpt>
    <trkpt lat="38.608317962" lon="34.803891974">
      <ele>1397.133</ele>
      <time>2021-10-12T11:02:28Z</time>
    </trkpt>
    <trkpt lat="38.608339" lon="34.80386599">
      <ele>1396.897</ele>
      <time>2021-10-12T11:02:29Z</time>
    </trkpt>
    <trkpt lat="38.608358027" lon="34.803845035">
      <ele>1396.753</ele>
      <time>2021-10-12T11:02:30Z</time>
    </trkpt>
    <trkpt lat="38.608377976" lon="34.803823996">
      <ele>1396.606</ele>
      <time>2021-10-12T11:02:31Z</time>
    </trkpt>
    <trkpt lat="38.608400021" lon="34.803805975">
      <ele>1396.461</ele>
      <time>2021-10-12T11:02:32Z</time>
    </trkpt>
    <trkpt lat="38.608426005" lon="34.803787032">
      <ele>1396.3</ele>
      <time>2021-10-12T11:02:33Z</time>
    </trkpt>
    <trkpt lat="38.608445032" lon="34.803770017">
      <ele>1396.17</ele>
      <time>2021-10-12T11:02:34Z</time>
    </trkpt>
    <trkpt lat="38.608465986" lon="34.803749984">
      <ele>1396.022</ele>
      <time>2021-10-12T11:02:35Z</time>
    </trkpt>
    <trkpt lat="38.608486019" lon="34.803728024">
      <ele>1395.871</ele>
      <time>2021-10-12T11:02:36Z</time>
    </trkpt>
    <trkpt lat="38.608502029" lon="34.803707991">
      <ele>1395.741</ele>
      <time>2021-10-12T11:02:37Z</time>
    </trkpt>
    <trkpt lat="38.608519966" lon="34.803677984">
      <ele>1395.569</ele>
      <time>2021-10-12T11:02:38Z</time>
    </trkpt>
    <trkpt lat="38.608538993" lon="34.803653006">
      <ele>1395.41</ele>
      <time>2021-10-12T11:02:39Z</time>
    </trkpt>
    <trkpt lat="38.608561037" lon="34.803631967">
      <ele>1395.255</ele>
      <time>2021-10-12T11:02:40Z</time>
    </trkpt>
    <trkpt lat="38.608581992" lon="34.803606989">
      <ele>1395.075</ele>
      <time>2021-10-12T11:02:41Z</time>
    </trkpt>
    <trkpt lat="38.608601019" lon="34.803582011">
      <ele>1394.827</ele>
      <time>2021-10-12T11:02:42Z</time>
    </trkpt>
    <trkpt lat="38.608620968" lon="34.803559966">
      <ele>1394.525</ele>
      <time>2021-10-12T11:02:43Z</time>
    </trkpt>
    <trkpt lat="38.608644018" lon="34.803538006">
      <ele>1394.118</ele>
      <time>2021-10-12T11:02:44Z</time>
    </trkpt>
    <trkpt lat="38.608664973" lon="34.803516967">
      <ele>1393.74</ele>
      <time>2021-10-12T11:02:45Z</time>
    </trkpt>
    <trkpt lat="38.608687017" lon="34.803496012">
      <ele>1393.352</ele>
      <time>2021-10-12T11:02:46Z</time>
    </trkpt>
    <trkpt lat="38.608710989" lon="34.803476986">
      <ele>1392.956</ele>
      <time>2021-10-12T11:02:47Z</time>
    </trkpt>
    <trkpt lat="38.608734962" lon="34.803460976">
      <ele>1392.581</ele>
      <time>2021-10-12T11:02:48Z</time>
    </trkpt>
    <trkpt lat="38.608761029" lon="34.803446978">
      <ele>1392.199</ele>
      <time>2021-10-12T11:02:49Z</time>
    </trkpt>
    <trkpt lat="38.608787013" lon="34.803433986">
      <ele>1391.825</ele>
      <time>2021-10-12T11:02:50Z</time>
    </trkpt>
    <trkpt lat="38.60881702" lon="34.803419989">
      <ele>1391.4</ele>
      <time>2021-10-12T11:02:51Z</time>
    </trkpt>
    <trkpt lat="38.608845016" lon="34.803408002">
      <ele>1391.011</ele>
      <time>2021-10-12T11:02:52Z</time>
    </trkpt>
    <trkpt lat="38.608874017" lon="34.803399034">
      <ele>1390.634</ele>
      <time>2021-10-12T11:02:53Z</time>
    </trkpt>
    <trkpt lat="38.608906036" lon="34.803395011">
      <ele>1390.321</ele>
      <time>2021-10-12T11:02:55Z</time>
    </trkpt>
    <trkpt lat="38.60893596" lon="34.803396016">
      <ele>1390.112</ele>
      <time>2021-10-12T11:02:56Z</time>
    </trkpt>
    <trkpt lat="38.608967979" lon="34.803399034">
      <ele>1389.904</ele>
      <time>2021-10-12T11:02:57Z</time>
    </trkpt>
    <trkpt lat="38.608999997" lon="34.803402973">
      <ele>1389.701</ele>
      <time>2021-10-12T11:02:58Z</time>
    </trkpt>
    <trkpt lat="38.609034028" lon="34.803410014">
      <ele>1389.507</ele>
      <time>2021-10-12T11:02:59Z</time>
    </trkpt>
    <trkpt lat="38.609065963" lon="34.803416971">
      <ele>1389.327</ele>
      <time>2021-10-12T11:03:00Z</time>
    </trkpt>
    <trkpt lat="38.60909597" lon="34.803420994">
      <ele>1389.14</ele>
      <time>2021-10-12T11:03:02Z</time>
    </trkpt>
    <trkpt lat="38.609123966" lon="34.803418983">
      <ele>1388.924</ele>
      <time>2021-10-12T11:03:03Z</time>
    </trkpt>
    <trkpt lat="38.609151961" lon="34.803418983">
      <ele>1388.723</ele>
      <time>2021-10-12T11:03:04Z</time>
    </trkpt>
    <trkpt lat="38.609179035" lon="34.803417977">
      <ele>1388.596</ele>
      <time>2021-10-12T11:03:05Z</time>
    </trkpt>
    <trkpt lat="38.609208036" lon="34.803415965">
      <ele>1388.551</ele>
      <time>2021-10-12T11:03:06Z</time>
    </trkpt>
    <trkpt lat="38.609237038" lon="34.803414959">
      <ele>1388.513</ele>
      <time>2021-10-12T11:03:07Z</time>
    </trkpt>
    <trkpt lat="38.609266039" lon="34.803415965">
      <ele>1388.489</ele>
      <time>2021-10-12T11:03:08Z</time>
    </trkpt>
    <trkpt lat="38.609295962" lon="34.803422">
      <ele>1388.49</ele>
      <time>2021-10-12T11:03:09Z</time>
    </trkpt>
    <trkpt lat="38.60932597" lon="34.803427029">
      <ele>1388.481</ele>
      <time>2021-10-12T11:03:10Z</time>
    </trkpt>
    <trkpt lat="38.609355977" lon="34.803430969">
      <ele>1388.463</ele>
      <time>2021-10-12T11:03:11Z</time>
    </trkpt>
    <trkpt lat="38.609382967" lon="34.803433986">
      <ele>1388.443</ele>
      <time>2021-10-12T11:03:12Z</time>
    </trkpt>
    <trkpt lat="38.609411968" lon="34.803439016">
      <ele>1388.425</ele>
      <time>2021-10-12T11:03:13Z</time>
    </trkpt>
    <trkpt lat="38.609441975" lon="34.803441027">
      <ele>1388.391</ele>
      <time>2021-10-12T11:03:14Z</time>
    </trkpt>
    <trkpt lat="38.609468965" lon="34.803446978">
      <ele>1388.409</ele>
      <time>2021-10-12T11:03:15Z</time>
    </trkpt>
    <trkpt lat="38.609498972" lon="34.803453013">
      <ele>1388.431</ele>
      <time>2021-10-12T11:03:17Z</time>
    </trkpt>
    <trkpt lat="38.609527973" lon="34.803460976">
      <ele>1388.46</ele>
      <time>2021-10-12T11:03:18Z</time>
    </trkpt>
    <trkpt lat="38.609556975" lon="34.803467011">
      <ele>1388.481</ele>
      <time>2021-10-12T11:03:19Z</time>
    </trkpt>
    <trkpt lat="38.609586982" lon="34.803473968">
      <ele>1388.506</ele>
      <time>2021-10-12T11:03:20Z</time>
    </trkpt>
    <trkpt lat="38.609616989" lon="34.803478997">
      <ele>1388.524</ele>
      <time>2021-10-12T11:03:21Z</time>
    </trkpt>
    <trkpt lat="38.609646996" lon="34.803487966">
      <ele>1388.557</ele>
      <time>2021-10-12T11:03:22Z</time>
    </trkpt>
    <trkpt lat="38.609677004" lon="34.803498024">
      <ele>1388.593</ele>
      <time>2021-10-12T11:03:23Z</time>
    </trkpt>
    <trkpt lat="38.609708017" lon="34.803509004">
      <ele>1388.632</ele>
      <time>2021-10-12T11:03:25Z</time>
    </trkpt>
    <trkpt lat="38.609736012" lon="34.803514034">
      <ele>1388.633</ele>
      <time>2021-10-12T11:03:26Z</time>
    </trkpt>
    <trkpt lat="38.609765014" lon="34.803521996">
      <ele>1388.63</ele>
      <time>2021-10-12T11:03:27Z</time>
    </trkpt>
    <trkpt lat="38.609792003" lon="34.803531971">
      <ele>1388.644</ele>
      <time>2021-10-12T11:03:28Z</time>
    </trkpt>
    <trkpt lat="38.609817987" lon="34.803537">
      <ele>1388.641</ele>
      <time>2021-10-12T11:03:29Z</time>
    </trkpt>
    <trkpt lat="38.609846989" lon="34.803542029">
      <ele>1388.64</ele>
      <time>2021-10-12T11:03:30Z</time>
    </trkpt>
    <trkpt lat="38.609873978" lon="34.803545969">
      <ele>1388.637</ele>
      <time>2021-10-12T11:03:31Z</time>
    </trkpt>
    <trkpt lat="38.609901974" lon="34.803553009">
      <ele>1388.655</ele>
      <time>2021-10-12T11:03:32Z</time>
    </trkpt>
    <trkpt lat="38.609928964" lon="34.803559966">
      <ele>1388.679</ele>
      <time>2021-10-12T11:03:33Z</time>
    </trkpt>
    <trkpt lat="38.609957965" lon="34.803559966">
      <ele>1388.66</ele>
      <time>2021-10-12T11:03:34Z</time>
    </trkpt>
    <trkpt lat="38.609986966" lon="34.80356399">
      <ele>1388.669</ele>
      <time>2021-10-12T11:03:35Z</time>
    </trkpt>
    <trkpt lat="38.610015968" lon="34.803572036">
      <ele>1388.727</ele>
      <time>2021-10-12T11:03:36Z</time>
    </trkpt>
    <trkpt lat="38.61004103" lon="34.803577987">
      <ele>1388.779</ele>
      <time>2021-10-12T11:03:37Z</time>
    </trkpt>
    <trkpt lat="38.610066008" lon="34.803585028">
      <ele>1388.835</ele>
      <time>2021-10-12T11:03:38Z</time>
    </trkpt>
    <trkpt lat="38.610092998" lon="34.803597014">
      <ele>1388.915</ele>
      <time>2021-10-12T11:03:39Z</time>
    </trkpt>
    <trkpt lat="38.610119987" lon="34.803607995">
      <ele>1388.982</ele>
      <time>2021-10-12T11:03:40Z</time>
    </trkpt>
    <trkpt lat="38.610147983" lon="34.803619981">
      <ele>1389.049</ele>
      <time>2021-10-12T11:03:41Z</time>
    </trkpt>
    <trkpt lat="38.610174973" lon="34.803630039">
      <ele>1389.111</ele>
      <time>2021-10-12T11:03:42Z</time>
    </trkpt>
    <trkpt lat="38.610196011" lon="34.803636996">
      <ele>1389.159</ele>
      <time>2021-10-12T11:03:43Z</time>
    </trkpt>
    <trkpt lat="38.610217972" lon="34.803644037">
      <ele>1389.212</ele>
      <time>2021-10-12T11:03:44Z</time>
    </trkpt>
    <trkpt lat="38.610245967" lon="34.803650994">
      <ele>1389.271</ele>
      <time>2021-10-12T11:03:45Z</time>
    </trkpt>
    <trkpt lat="38.610275974" lon="34.803664992">
      <ele>1389.387</ele>
      <time>2021-10-12T11:03:46Z</time>
    </trkpt>
    <trkpt lat="38.61030397" lon="34.803681001">
      <ele>1389.456</ele>
      <time>2021-10-12T11:03:47Z</time>
    </trkpt>
    <trkpt lat="38.610332971" lon="34.803699022">
      <ele>1389.507</ele>
      <time>2021-10-12T11:03:48Z</time>
    </trkpt>
    <trkpt lat="38.610360967" lon="34.803712014">
      <ele>1389.509</ele>
      <time>2021-10-12T11:03:50Z</time>
    </trkpt>
    <trkpt lat="38.610387035" lon="34.803725006">
      <ele>1389.498</ele>
      <time>2021-10-12T11:03:51Z</time>
    </trkpt>
    <trkpt lat="38.610411007" lon="34.803744033">
      <ele>1389.498</ele>
      <time>2021-10-12T11:03:52Z</time>
    </trkpt>
    <trkpt lat="38.610441014" lon="34.803759959">
      <ele>1389.442</ele>
      <time>2021-10-12T11:03:53Z</time>
    </trkpt>
    <trkpt lat="38.610474039" lon="34.803769011">
      <ele>1389.334</ele>
      <time>2021-10-12T11:03:54Z</time>
    </trkpt>
    <trkpt lat="38.610502034" lon="34.803780997">
      <ele>1389.236</ele>
      <time>2021-10-12T11:03:55Z</time>
    </trkpt>
    <trkpt lat="38.610532042" lon="34.803790972">
      <ele>1389.11</ele>
      <time>2021-10-12T11:03:56Z</time>
    </trkpt>
    <trkpt lat="38.610559031" lon="34.80380103">
      <ele>1388.987</ele>
      <time>2021-10-12T11:03:57Z</time>
    </trkpt>
    <trkpt lat="38.610589961" lon="34.803807987">
      <ele>1388.876</ele>
      <time>2021-10-12T11:03:58Z</time>
    </trkpt>
    <trkpt lat="38.610619968" lon="34.803817961">
      <ele>1388.768</ele>
      <time>2021-10-12T11:04:00Z</time>
    </trkpt>
    <trkpt lat="38.610647963" lon="34.803826008">
      <ele>1388.667</ele>
      <time>2021-10-12T11:04:01Z</time>
    </trkpt>
    <trkpt lat="38.610676965" lon="34.803831037">
      <ele>1388.563</ele>
      <time>2021-10-12T11:04:02Z</time>
    </trkpt>
    <trkpt lat="38.610708984" lon="34.803837994">
      <ele>1388.448</ele>
      <time>2021-10-12T11:04:03Z</time>
    </trkpt>
    <trkpt lat="38.610735973" lon="34.803839">
      <ele>1388.35</ele>
      <time>2021-10-12T11:04:04Z</time>
    </trkpt>
    <trkpt lat="38.610767992" lon="34.803843023">
      <ele>1388.235</ele>
      <time>2021-10-12T11:04:05Z</time>
    </trkpt>
    <trkpt lat="38.610796994" lon="34.803846041">
      <ele>1388.131</ele>
      <time>2021-10-12T11:04:06Z</time>
    </trkpt>
    <trkpt lat="38.610825995" lon="34.80384998">
      <ele>1388.026</ele>
      <time>2021-10-12T11:04:07Z</time>
    </trkpt>
    <trkpt lat="38.610856002" lon="34.803848974">
      <ele>1387.918</ele>
      <time>2021-10-12T11:04:08Z</time>
    </trkpt>
    <trkpt lat="38.610883998" lon="34.803848974">
      <ele>1387.818</ele>
      <time>2021-10-12T11:04:09Z</time>
    </trkpt>
    <trkpt lat="38.610912999" lon="34.803847969">
      <ele>1387.713</ele>
      <time>2021-10-12T11:04:11Z</time>
    </trkpt>
    <trkpt lat="38.610945018" lon="34.803847969">
      <ele>1387.598</ele>
      <time>2021-10-12T11:04:12Z</time>
    </trkpt>
    <trkpt lat="38.610977037" lon="34.803851992">
      <ele>1387.483</ele>
      <time>2021-10-12T11:04:13Z</time>
    </trkpt>
    <trkpt lat="38.611006038" lon="34.803857021">
      <ele>1387.378</ele>
      <time>2021-10-12T11:04:14Z</time>
    </trkpt>
    <trkpt lat="38.611035962" lon="34.803863978">
      <ele>1387.271</ele>
      <time>2021-10-12T11:04:15Z</time>
    </trkpt>
    <trkpt lat="38.611064041" lon="34.80386599">
      <ele>1387.169</ele>
      <time>2021-10-12T11:04:16Z</time>
    </trkpt>
    <trkpt lat="38.611092037" lon="34.803872025">
      <ele>1387.069</ele>
      <time>2021-10-12T11:04:17Z</time>
    </trkpt>
    <trkpt lat="38.611120032" lon="34.803881999">
      <ele>1386.968</ele>
      <time>2021-10-12T11:04:18Z</time>
    </trkpt>
    <trkpt lat="38.611147022" lon="34.803891974">
      <ele>1386.869</ele>
      <time>2021-10-12T11:04:19Z</time>
    </trkpt>
    <trkpt lat="38.611172" lon="34.80390002">
      <ele>1386.772</ele>
      <time>2021-10-12T11:04:20Z</time>
    </trkpt>
    <trkpt lat="38.61119899" lon="34.803903038">
      <ele>1386.668</ele>
      <time>2021-10-12T11:04:21Z</time>
    </trkpt>
    <trkpt lat="38.611226985" lon="34.80391603">
      <ele>1386.542</ele>
      <time>2021-10-12T11:04:22Z</time>
    </trkpt>
    <trkpt lat="38.611253975" lon="34.803928016">
      <ele>1386.413</ele>
      <time>2021-10-12T11:04:23Z</time>
    </trkpt>
    <trkpt lat="38.611281971" lon="34.803932039">
      <ele>1386.289</ele>
      <time>2021-10-12T11:04:25Z</time>
    </trkpt>
    <trkpt lat="38.611312984" lon="34.803935979">
      <ele>1386.15</ele>
      <time>2021-10-12T11:04:26Z</time>
    </trkpt>
    <trkpt lat="38.611339973" lon="34.803942014">
      <ele>1386.019</ele>
      <time>2021-10-12T11:04:27Z</time>
    </trkpt>
    <trkpt lat="38.611366963" lon="34.803954">
      <ele>1385.863</ele>
      <time>2021-10-12T11:04:28Z</time>
    </trkpt>
    <trkpt lat="38.611394037" lon="34.803966992">
      <ele>1385.706</ele>
      <time>2021-10-12T11:04:29Z</time>
    </trkpt>
    <trkpt lat="38.611422032" lon="34.803978978">
      <ele>1385.595</ele>
      <time>2021-10-12T11:04:30Z</time>
    </trkpt>
    <trkpt lat="38.611448016" lon="34.803990042">
      <ele>1385.501</ele>
      <time>2021-10-12T11:04:31Z</time>
    </trkpt>
    <trkpt lat="38.611474" lon="34.804000016">
      <ele>1385.416</ele>
      <time>2021-10-12T11:04:32Z</time>
    </trkpt>
    <trkpt lat="38.611503001" lon="34.804012002">
      <ele>1385.328</ele>
      <time>2021-10-12T11:04:33Z</time>
    </trkpt>
    <trkpt lat="38.611530997" lon="34.804018037">
      <ele>1385.261</ele>
      <time>2021-10-12T11:04:34Z</time>
    </trkpt>
    <trkpt lat="38.611561004" lon="34.804030024">
      <ele>1385.187</ele>
      <time>2021-10-12T11:04:35Z</time>
    </trkpt>
    <trkpt lat="38.611589" lon="34.804038992">
      <ele>1385.129</ele>
      <time>2021-10-12T11:04:36Z</time>
    </trkpt>
    <trkpt lat="38.611618001" lon="34.804049972">
      <ele>1385.074</ele>
      <time>2021-10-12T11:04:37Z</time>
    </trkpt>
    <trkpt lat="38.611645997" lon="34.804060031">
      <ele>1385.029</ele>
      <time>2021-10-12T11:04:39Z</time>
    </trkpt>
    <trkpt lat="38.611673992" lon="34.804070005">
      <ele>1385.0</ele>
      <time>2021-10-12T11:04:40Z</time>
    </trkpt>
    <trkpt lat="38.611701988" lon="34.80408702">
      <ele>1385.0</ele>
      <time>2021-10-12T11:04:41Z</time>
    </trkpt>
    <trkpt lat="38.611728977" lon="34.804098001">
      <ele>1385.0</ele>
      <time>2021-10-12T11:04:42Z</time>
    </trkpt>
    <trkpt lat="38.611755967" lon="34.804106969">
      <ele>1385.0</ele>
      <time>2021-10-12T11:04:43Z</time>
    </trkpt>
    <trkpt lat="38.611783963" lon="34.804118033">
      <ele>1385.0</ele>
      <time>2021-10-12T11:04:44Z</time>
    </trkpt>
    <trkpt lat="38.611812964" lon="34.804128008">
      <ele>1385.0</ele>
      <time>2021-10-12T11:04:45Z</time>
    </trkpt>
    <trkpt lat="38.611842971" lon="34.804143012">
      <ele>1385.0</ele>
      <time>2021-10-12T11:04:46Z</time>
    </trkpt>
    <trkpt lat="38.611868033" lon="34.804154998">
      <ele>1385.0</ele>
      <time>2021-10-12T11:04:47Z</time>
    </trkpt>
    <trkpt lat="38.611883959" lon="34.804183999">
      <ele>1384.986</ele>
      <time>2021-10-12T11:04:48Z</time>
    </trkpt>
    <trkpt lat="38.611886976" lon="34.80421803">
      <ele>1384.962</ele>
      <time>2021-10-12T11:04:49Z</time>
    </trkpt>
    <trkpt lat="38.611883037" lon="34.804258011">
      <ele>1384.927</ele>
      <time>2021-10-12T11:04:50Z</time>
    </trkpt>
    <trkpt lat="38.611875996" lon="34.804298999">
      <ele>1384.883</ele>
      <time>2021-10-12T11:04:52Z</time>
    </trkpt>
    <trkpt lat="38.611871973" lon="34.804341998">
      <ele>1384.835</ele>
      <time>2021-10-12T11:04:53Z</time>
    </trkpt>
    <trkpt lat="38.611868033" lon="34.804384997">
      <ele>1384.784</ele>
      <time>2021-10-12T11:04:54Z</time>
    </trkpt>
    <trkpt lat="38.611859987" lon="34.804421961">
      <ele>1384.721</ele>
      <time>2021-10-12T11:04:55Z</time>
    </trkpt>
    <trkpt lat="38.61185303" lon="34.804459009">
      <ele>1384.758</ele>
      <time>2021-10-12T11:04:56Z</time>
    </trkpt>
    <trkpt lat="38.611844983" lon="34.804497985">
      <ele>1384.973</ele>
      <time>2021-10-12T11:04:58Z</time>
    </trkpt>
    <trkpt lat="38.61184096" lon="34.804537967">
      <ele>1385.215</ele>
      <time>2021-10-12T11:04:59Z</time>
    </trkpt>
    <trkpt lat="38.611834003" lon="34.804574009">
      <ele>1385.44</ele>
      <time>2021-10-12T11:05:00Z</time>
    </trkpt>
    <trkpt lat="38.61182604" lon="34.80460804">
      <ele>1385.665</ele>
      <time>2021-10-12T11:05:01Z</time>
    </trkpt>
    <trkpt lat="38.611815982" lon="34.804639975">
      <ele>1385.893</ele>
      <time>2021-10-12T11:05:02Z</time>
    </trkpt>
    <trkpt lat="38.611800978" lon="34.804663025">
      <ele>1386.083</ele>
      <time>2021-10-12T11:05:03Z</time>
    </trkpt>
    <trkpt lat="38.611773988" lon="34.804680962">
      <ele>1386.283</ele>
      <time>2021-10-12T11:05:04Z</time>
    </trkpt>
    <trkpt lat="38.611746999" lon="34.804696972">
      <ele>1386.491</ele>
      <time>2021-10-12T11:05:05Z</time>
    </trkpt>
    <trkpt lat="38.611725038" lon="34.804722033">
      <ele>1386.788</ele>
      <time>2021-10-12T11:05:06Z</time>
    </trkpt>
    <trkpt lat="38.611705005" lon="34.804749023">
      <ele>1386.972</ele>
      <time>2021-10-12T11:05:07Z</time>
    </trkpt>
    <trkpt lat="38.611688996" lon="34.804780958">
      <ele>1387.148</ele>
      <time>2021-10-12T11:05:08Z</time>
    </trkpt>
    <trkpt lat="38.611676004" lon="34.804815995">
      <ele>1387.315</ele>
      <time>2021-10-12T11:05:09Z</time>
    </trkpt>
    <trkpt lat="38.611669969" lon="34.804852037">
      <ele>1387.461</ele>
      <time>2021-10-12T11:05:10Z</time>
    </trkpt>
    <trkpt lat="38.611667035" lon="34.804891013">
      <ele>1387.607</ele>
      <time>2021-10-12T11:05:11Z</time>
    </trkpt>
    <trkpt lat="38.611665023" lon="34.804927977">
      <ele>1387.739</ele>
      <time>2021-10-12T11:05:13Z</time>
    </trkpt>
    <trkpt lat="38.611661" lon="34.804966031">
      <ele>1387.875</ele>
      <time>2021-10-12T11:05:14Z</time>
    </trkpt>
    <trkpt lat="38.611653037" lon="34.805002995">
      <ele>1388.011</ele>
      <time>2021-10-12T11:05:15Z</time>
    </trkpt>
    <trkpt lat="38.611645997" lon="34.805039959">
      <ele>1388.144</ele>
      <time>2021-10-12T11:05:16Z</time>
    </trkpt>
    <trkpt lat="38.611635016" lon="34.805076001">
      <ele>1388.274</ele>
      <time>2021-10-12T11:05:17Z</time>
    </trkpt>
    <trkpt lat="38.61162697" lon="34.805106008">
      <ele>1388.382</ele>
      <time>2021-10-12T11:05:18Z</time>
    </trkpt>
    <trkpt lat="38.611622024" lon="34.805152025">
      <ele>1388.547</ele>
      <time>2021-10-12T11:05:19Z</time>
    </trkpt>
    <trkpt lat="38.611619007" lon="34.80516904">
      <ele>1388.609</ele>
      <time>2021-10-12T11:05:20Z</time>
    </trkpt>
    <trkpt lat="38.611613978" lon="34.805203993">
      <ele>1388.734</ele>
      <time>2021-10-12T11:05:21Z</time>
    </trkpt>
    <trkpt lat="38.611607021" lon="34.805240035">
      <ele>1388.864</ele>
      <time>2021-10-12T11:05:22Z</time>
    </trkpt>
    <trkpt lat="38.611604003" lon="34.805275993">
      <ele>1388.994</ele>
      <time>2021-10-12T11:05:23Z</time>
    </trkpt>
    <trkpt lat="38.611608027" lon="34.80531103">
      <ele>1388.786</ele>
      <time>2021-10-12T11:05:24Z</time>
    </trkpt>
    <trkpt lat="38.611606015" lon="34.805343971">
      <ele>1388.575</ele>
      <time>2021-10-12T11:05:25Z</time>
    </trkpt>
    <trkpt lat="38.611610038" lon="34.805372972">
      <ele>1388.384</ele>
      <time>2021-10-12T11:05:26Z</time>
    </trkpt>
    <trkpt lat="38.611613978" lon="34.805407003">
      <ele>1388.158</ele>
      <time>2021-10-12T11:05:27Z</time>
    </trkpt>
    <trkpt lat="38.611616995" lon="34.805442961">
      <ele>1387.917</ele>
      <time>2021-10-12T11:05:28Z</time>
    </trkpt>
    <trkpt lat="38.611620013" lon="34.805481015">
      <ele>1387.66</ele>
      <time>2021-10-12T11:05:29Z</time>
    </trkpt>
    <trkpt lat="38.611625042" lon="34.805517979">
      <ele>1387.4</ele>
      <time>2021-10-12T11:05:30Z</time>
    </trkpt>
    <trkpt lat="38.611630993" lon="34.805555027">
      <ele>1387.132</ele>
      <time>2021-10-12T11:05:31Z</time>
    </trkpt>
    <trkpt lat="38.61163401" lon="34.805594003">
      <ele>1386.979</ele>
      <time>2021-10-12T11:05:32Z</time>
    </trkpt>
    <trkpt lat="38.611635016" lon="34.805631973">
      <ele>1386.839</ele>
      <time>2021-10-12T11:05:33Z</time>
    </trkpt>
    <trkpt lat="38.611636022" lon="34.805670027">
      <ele>1386.698</ele>
      <time>2021-10-12T11:05:34Z</time>
    </trkpt>
    <trkpt lat="38.611637028" lon="34.805707997">
      <ele>1386.558</ele>
      <time>2021-10-12T11:05:36Z</time>
    </trkpt>
    <trkpt lat="38.61163904" lon="34.805744961">
      <ele>1386.418</ele>
      <time>2021-10-12T11:05:37Z</time>
    </trkpt>
    <trkpt lat="38.611637028" lon="34.805783015">
      <ele>1386.288</ele>
      <time>2021-10-12T11:05:38Z</time>
    </trkpt>
    <trkpt lat="38.611644991" lon="34.805816039">
      <ele>1386.14</ele>
      <time>2021-10-12T11:05:39Z</time>
    </trkpt>
    <trkpt lat="38.611649014" lon="34.80584898">
      <ele>1386.116</ele>
      <time>2021-10-12T11:05:40Z</time>
    </trkpt>
    <trkpt lat="38.611649014" lon="34.80588804">
      <ele>1386.248</ele>
      <time>2021-10-12T11:05:41Z</time>
    </trkpt>
    <trkpt lat="38.611648008" lon="34.805928022">
      <ele>1386.385</ele>
      <time>2021-10-12T11:05:42Z</time>
    </trkpt>
    <trkpt lat="38.611648008" lon="34.805965992">
      <ele>1386.513</ele>
      <time>2021-10-12T11:05:43Z</time>
    </trkpt>
    <trkpt lat="38.611644991" lon="34.80600304">
      <ele>1386.641</ele>
      <time>2021-10-12T11:05:44Z</time>
    </trkpt>
    <trkpt lat="38.611645997" lon="34.806038998">
      <ele>1386.76</ele>
      <time>2021-10-12T11:05:45Z</time>
    </trkpt>
    <trkpt lat="38.611643985" lon="34.806075962">
      <ele>1386.884</ele>
      <time>2021-10-12T11:05:46Z</time>
    </trkpt>
    <trkpt lat="38.611639962" lon="34.806115022">
      <ele>1387.0</ele>
      <time>2021-10-12T11:05:47Z</time>
    </trkpt>
    <trkpt lat="38.611631999" lon="34.806151986">
      <ele>1387.0</ele>
      <time>2021-10-12T11:05:49Z</time>
    </trkpt>
    <trkpt lat="38.611625042" lon="34.806188028">
      <ele>1387.0</ele>
      <time>2021-10-12T11:05:50Z</time>
    </trkpt>
    <trkpt lat="38.611618001" lon="34.806224992">
      <ele>1387.0</ele>
      <time>2021-10-12T11:05:51Z</time>
    </trkpt>
    <trkpt lat="38.611604003" lon="34.806257011">
      <ele>1387.0</ele>
      <time>2021-10-12T11:05:52Z</time>
    </trkpt>
    <trkpt lat="38.611591011" lon="34.806290036">
      <ele>1387.0</ele>
      <time>2021-10-12T11:05:53Z</time>
    </trkpt>
    <trkpt lat="38.611578019" lon="34.806321971">
      <ele>1387.0</ele>
      <time>2021-10-12T11:05:54Z</time>
    </trkpt>
    <trkpt lat="38.611567039" lon="34.806357007">
      <ele>1387.0</ele>
      <time>2021-10-12T11:05:55Z</time>
    </trkpt>
    <trkpt lat="38.611553963" lon="34.806392966">
      <ele>1386.985</ele>
      <time>2021-10-12T11:05:56Z</time>
    </trkpt>
    <trkpt lat="38.611544995" lon="34.806421967">
      <ele>1386.881</ele>
      <time>2021-10-12T11:05:57Z</time>
    </trkpt>
    <trkpt lat="38.611527979" lon="34.806458009">
      <ele>1386.751</ele>
      <time>2021-10-12T11:05:58Z</time>
    </trkpt>
    <trkpt lat="38.611513982" lon="34.806492962">
      <ele>1386.625</ele>
      <time>2021-10-12T11:05:59Z</time>
    </trkpt>
    <trkpt lat="38.611501995" lon="34.806523975">
      <ele>1386.514</ele>
      <time>2021-10-12T11:06:00Z</time>
    </trkpt>
    <trkpt lat="38.611487998" lon="34.806560017">
      <ele>1386.384</ele>
      <time>2021-10-12T11:06:02Z</time>
    </trkpt>
    <trkpt lat="38.611471988" lon="34.806595976">
      <ele>1386.254</ele>
      <time>2021-10-12T11:06:03Z</time>
    </trkpt>
    <trkpt lat="38.611456985" lon="34.806626989">
      <ele>1386.143</ele>
      <time>2021-10-12T11:06:04Z</time>
    </trkpt>
    <trkpt lat="38.611444999" lon="34.806656996">
      <ele>1386.035</ele>
      <time>2021-10-12T11:06:05Z</time>
    </trkpt>
    <trkpt lat="38.611425972" lon="34.806685997">
      <ele>1385.921</ele>
      <time>2021-10-12T11:06:06Z</time>
    </trkpt>
    <trkpt lat="38.61140904" lon="34.806711981">
      <ele>1385.825</ele>
      <time>2021-10-12T11:06:07Z</time>
    </trkpt>
    <trkpt lat="38.611388002" lon="34.806736959">
      <ele>1385.747</ele>
      <time>2021-10-12T11:06:08Z</time>
    </trkpt>
    <trkpt lat="38.611370986" lon="34.806761015">
      <ele>1385.66</ele>
      <time>2021-10-12T11:06:09Z</time>
    </trkpt>
    <trkpt lat="38.61134802" lon="34.806788005">
      <ele>1385.563</ele>
      <time>2021-10-12T11:06:10Z</time>
    </trkpt>
    <trkpt lat="38.611323042" lon="34.806810971">
      <ele>1385.481</ele>
      <time>2021-10-12T11:06:11Z</time>
    </trkpt>
    <trkpt lat="38.61129404" lon="34.806831004">
      <ele>1385.408</ele>
      <time>2021-10-12T11:06:12Z</time>
    </trkpt>
    <trkpt lat="38.611268979" lon="34.806846008">
      <ele>1385.354</ele>
      <time>2021-10-12T11:06:14Z</time>
    </trkpt>
    <trkpt lat="38.611241989" lon="34.806865035">
      <ele>1385.286</ele>
      <time>2021-10-12T11:06:15Z</time>
    </trkpt>
    <trkpt lat="38.611217011" lon="34.806883978">
      <ele>1385.218</ele>
      <time>2021-10-12T11:06:16Z</time>
    </trkpt>
    <trkpt lat="38.611194966" lon="34.806903005">
      <ele>1385.149</ele>
      <time>2021-10-12T11:06:17Z</time>
    </trkpt>
    <trkpt lat="38.611174012" lon="34.806926977">
      <ele>1385.063</ele>
      <time>2021-10-12T11:06:18Z</time>
    </trkpt>
    <trkpt lat="38.61116102" lon="34.806955978">
      <ele>1385.0</ele>
      <time>2021-10-12T11:06:19Z</time>
    </trkpt>
    <trkpt lat="38.61116102" lon="34.806989003">
      <ele>1385.0</ele>
      <time>2021-10-12T11:06:20Z</time>
    </trkpt>
    <trkpt lat="38.611172" lon="34.807018004">
      <ele>1385.0</ele>
      <time>2021-10-12T11:06:21Z</time>
    </trkpt>
    <trkpt lat="38.611188009" lon="34.807042982">
      <ele>1385.0</ele>
      <time>2021-10-12T11:06:22Z</time>
    </trkpt>
    <trkpt lat="38.611207958" lon="34.807065027">
      <ele>1385.0</ele>
      <time>2021-10-12T11:06:23Z</time>
    </trkpt>
    <trkpt lat="38.611230003" lon="34.807084976">
      <ele>1385.0</ele>
      <time>2021-10-12T11:06:24Z</time>
    </trkpt>
    <trkpt lat="38.611253975" lon="34.807100985">
      <ele>1385.0</ele>
      <time>2021-10-12T11:06:25Z</time>
    </trkpt>
    <trkpt lat="38.611278031" lon="34.807116995">
      <ele>1385.0</ele>
      <time>2021-10-12T11:06:26Z</time>
    </trkpt>
    <trkpt lat="38.611304015" lon="34.807137027">
      <ele>1385.0</ele>
      <time>2021-10-12T11:06:27Z</time>
    </trkpt>
    <trkpt lat="38.611329999" lon="34.807153037">
      <ele>1385.0</ele>
      <time>2021-10-12T11:06:28Z</time>
    </trkpt>
    <trkpt lat="38.611353971" lon="34.807170974">
      <ele>1385.0</ele>
      <time>2021-10-12T11:06:29Z</time>
    </trkpt>
    <trkpt lat="38.611377021" lon="34.807187989">
      <ele>1385.0</ele>
      <time>2021-10-12T11:06:30Z</time>
    </trkpt>
    <trkpt lat="38.611400994" lon="34.807207016">
      <ele>1384.915</ele>
      <time>2021-10-12T11:06:31Z</time>
    </trkpt>
    <trkpt lat="38.61142396" lon="34.807225037">
      <ele>1384.728</ele>
      <time>2021-10-12T11:06:32Z</time>
    </trkpt>
    <trkpt lat="38.611446004" lon="34.807238029">
      <ele>1384.487</ele>
      <time>2021-10-12T11:06:33Z</time>
    </trkpt>
    <trkpt lat="38.611470982" lon="34.807256972">
      <ele>1384.196</ele>
      <time>2021-10-12T11:06:34Z</time>
    </trkpt>
    <trkpt lat="38.611495961" lon="34.807274994">
      <ele>1383.922</ele>
      <time>2021-10-12T11:06:35Z</time>
    </trkpt>
    <trkpt lat="38.611516999" lon="34.807296032">
      <ele>1383.669</ele>
      <time>2021-10-12T11:06:36Z</time>
    </trkpt>
    <trkpt lat="38.611534014" lon="34.807314975">
      <ele>1383.462</ele>
      <time>2021-10-12T11:06:37Z</time>
    </trkpt>
    <trkpt lat="38.611552035" lon="34.807334002">
      <ele>1383.257</ele>
      <time>2021-10-12T11:06:38Z</time>
    </trkpt>
    <trkpt lat="38.611578019" lon="34.807350012">
      <ele>1383.031</ele>
      <time>2021-10-12T11:06:39Z</time>
    </trkpt>
    <trkpt lat="38.611608027" lon="34.807365015">
      <ele>1382.8</ele>
      <time>2021-10-12T11:06:40Z</time>
    </trkpt>
    <trkpt lat="38.611635016" lon="34.80738203">
      <ele>1382.587</ele>
      <time>2021-10-12T11:06:41Z</time>
    </trkpt>
    <trkpt lat="38.611659994" lon="34.80739804">
      <ele>1382.4</ele>
      <time>2021-10-12T11:06:42Z</time>
    </trkpt>
    <trkpt lat="38.611682039" lon="34.807414971">
      <ele>1382.289</ele>
      <time>2021-10-12T11:06:43Z</time>
    </trkpt>
    <trkpt lat="38.611707017" lon="34.807438022">
      <ele>1382.191</ele>
      <time>2021-10-12T11:06:44Z</time>
    </trkpt>
    <trkpt lat="38.611734007" lon="34.807465011">
      <ele>1382.095</ele>
      <time>2021-10-12T11:06:45Z</time>
    </trkpt>
    <trkpt lat="38.611754039" lon="34.807487978">
      <ele>1382.03</ele>
      <time>2021-10-12T11:06:46Z</time>
    </trkpt>
    <trkpt lat="38.611773988" lon="34.807510022">
      <ele>1381.964</ele>
      <time>2021-10-12T11:06:47Z</time>
    </trkpt>
    <trkpt lat="38.611793015" lon="34.807531983">
      <ele>1381.885</ele>
      <time>2021-10-12T11:06:48Z</time>
    </trkpt>
    <trkpt lat="38.61181397" lon="34.807554027">
      <ele>1381.806</ele>
      <time>2021-10-12T11:06:49Z</time>
    </trkpt>
    <trkpt lat="38.611825034" lon="34.807573976">
      <ele>1381.734</ele>
      <time>2021-10-12T11:06:50Z</time>
    </trkpt>
    <trkpt lat="38.611841965" lon="34.807598032">
      <ele>1381.647</ele>
      <time>2021-10-12T11:06:51Z</time>
    </trkpt>
    <trkpt lat="38.611858981" lon="34.807622004">
      <ele>1381.561</ele>
      <time>2021-10-12T11:06:52Z</time>
    </trkpt>
    <trkpt lat="38.611883037" lon="34.807640025">
      <ele>1381.496</ele>
      <time>2021-10-12T11:06:53Z</time>
    </trkpt>
    <trkpt lat="38.611906003" lon="34.807657041">
      <ele>1381.435</ele>
      <time>2021-10-12T11:06:54Z</time>
    </trkpt>
    <trkpt lat="38.611922013" lon="34.807671038">
      <ele>1381.384</ele>
      <time>2021-10-12T11:06:55Z</time>
    </trkpt>
    <trkpt lat="38.611942967" lon="34.807691993">
      <ele>1381.309</ele>
      <time>2021-10-12T11:06:56Z</time>
    </trkpt>
    <trkpt lat="38.611961994" lon="34.807713032">
      <ele>1381.155</ele>
      <time>2021-10-12T11:06:56Z</time>
    </trkpt>
    <trkpt lat="38.611982027" lon="34.807731975">
      <ele>1381.007</ele>
      <time>2021-10-12T11:06:57Z</time>
    </trkpt>
    <trkpt lat="38.612001976" lon="34.807753013">
      <ele>1380.864</ele>
      <time>2021-10-12T11:06:58Z</time>
    </trkpt>
    <trkpt lat="38.612023015" lon="34.807769023">
      <ele>1380.74</ele>
      <time>2021-10-12T11:06:59Z</time>
    </trkpt>
    <trkpt lat="38.612047993" lon="34.807788972">
      <ele>1380.506</ele>
      <time>2021-10-12T11:07:00Z</time>
    </trkpt>
    <trkpt lat="38.612074982" lon="34.80781001">
      <ele>1380.182</ele>
      <time>2021-10-12T11:07:02Z</time>
    </trkpt>
    <trkpt lat="38.612100966" lon="34.807833983">
      <ele>1379.83</ele>
      <time>2021-10-12T11:07:03Z</time>
    </trkpt>
    <trkpt lat="38.612124017" lon="34.807858039">
      <ele>1379.487</ele>
      <time>2021-10-12T11:07:04Z</time>
    </trkpt>
    <trkpt lat="38.612147989" lon="34.807881005">
      <ele>1379.152</ele>
      <time>2021-10-12T11:07:05Z</time>
    </trkpt>
    <trkpt lat="38.612171039" lon="34.807904977">
      <ele>1378.811</ele>
      <time>2021-10-12T11:07:06Z</time>
    </trkpt>
    <trkpt lat="38.612196017" lon="34.807930039">
      <ele>1378.45</ele>
      <time>2021-10-12T11:07:07Z</time>
    </trkpt>
    <trkpt lat="38.61221496" lon="34.807956023">
      <ele>1378.101</ele>
      <time>2021-10-12T11:07:08Z</time>
    </trkpt>
    <trkpt lat="38.612235999" lon="34.80797899">
      <ele>1377.8</ele>
      <time>2021-10-12T11:07:09Z</time>
    </trkpt>
    <trkpt lat="38.612257959" lon="34.808002962">
      <ele>1377.519</ele>
      <time>2021-10-12T11:07:10Z</time>
    </trkpt>
    <trkpt lat="38.612280004" lon="34.808027018">
      <ele>1377.265</ele>
      <time>2021-10-12T11:07:11Z</time>
    </trkpt>
    <trkpt lat="38.612300958" lon="34.808047973">
      <ele>1377.066</ele>
      <time>2021-10-12T11:07:12Z</time>
    </trkpt>
    <trkpt lat="38.612323003" lon="34.808065994">
      <ele>1376.925</ele>
      <time>2021-10-12T11:07:13Z</time>
    </trkpt>
    <trkpt lat="38.612344963" lon="34.808087032">
      <ele>1376.773</ele>
      <time>2021-10-12T11:07:14Z</time>
    </trkpt>
    <trkpt lat="38.612366002" lon="34.808105975">
      <ele>1376.637</ele>
      <time>2021-10-12T11:07:15Z</time>
    </trkpt>
    <trkpt lat="38.612389974" lon="34.80812802">
      <ele>1376.478</ele>
      <time>2021-10-12T11:07:16Z</time>
    </trkpt>
    <trkpt lat="38.612413025" lon="34.808148975">
      <ele>1376.327</ele>
      <time>2021-10-12T11:07:17Z</time>
    </trkpt>
    <trkpt lat="38.612436997" lon="34.808173031">
      <ele>1376.154</ele>
      <time>2021-10-12T11:07:19Z</time>
    </trkpt>
    <trkpt lat="38.612458035" lon="34.808195997">
      <ele>1375.989</ele>
      <time>2021-10-12T11:07:20Z</time>
    </trkpt>
    <trkpt lat="38.612473961" lon="34.808221981">
      <ele>1375.802</ele>
      <time>2021-10-12T11:07:21Z</time>
    </trkpt>
    <trkpt lat="38.612504974" lon="34.808260035">
      <ele>1375.541</ele>
      <time>2021-10-12T11:07:22Z</time>
    </trkpt>
    <trkpt lat="38.612517966" lon="34.808274033">
      <ele>1375.478</ele>
      <time>2021-10-12T11:07:23Z</time>
    </trkpt>
    <trkpt lat="38.612536993" lon="34.808298005">
      <ele>1375.371</ele>
      <time>2021-10-12T11:07:24Z</time>
    </trkpt>
    <trkpt lat="38.61255602" lon="34.808323989">
      <ele>1375.262</ele>
      <time>2021-10-12T11:07:25Z</time>
    </trkpt>
    <trkpt lat="38.612579992" lon="34.808345027">
      <ele>1375.246</ele>
      <time>2021-10-12T11:07:26Z</time>
    </trkpt>
    <trkpt lat="38.612602036" lon="34.808370005">
      <ele>1375.235</ele>
      <time>2021-10-12T11:07:27Z</time>
    </trkpt>
    <trkpt lat="38.612625003" lon="34.80839096">
      <ele>1375.243</ele>
      <time>2021-10-12T11:07:28Z</time>
    </trkpt>
    <trkpt lat="38.612646963" lon="34.80841401">
      <ele>1375.239</ele>
      <time>2021-10-12T11:07:29Z</time>
    </trkpt>
    <trkpt lat="38.612670014" lon="34.808435971">
      <ele>1375.243</ele>
      <time>2021-10-12T11:07:30Z</time>
    </trkpt>
    <trkpt lat="38.612694992" lon="34.808457009">
      <ele>1375.257</ele>
      <time>2021-10-12T11:07:31Z</time>
    </trkpt>
    <trkpt lat="38.612717958" lon="34.80847897">
      <ele>1375.26</ele>
      <time>2021-10-12T11:07:32Z</time>
    </trkpt>
    <trkpt lat="38.612738997" lon="34.808500009">
      <ele>1375.26</ele>
      <time>2021-10-12T11:07:33Z</time>
    </trkpt>
    <trkpt lat="38.612760035" lon="34.808521969">
      <ele>1375.257</ele>
      <time>2021-10-12T11:07:34Z</time>
    </trkpt>
    <trkpt lat="38.61278099" lon="34.808538985">
      <ele>1375.245</ele>
      <time>2021-10-12T11:07:35Z</time>
    </trkpt>
    <trkpt lat="38.612794988" lon="34.808557006">
      <ele>1375.121</ele>
      <time>2021-10-12T11:07:36Z</time>
    </trkpt>
    <trkpt lat="38.612812003" lon="34.808574021">
      <ele>1374.994</ele>
      <time>2021-10-12T11:07:37Z</time>
    </trkpt>
    <trkpt lat="38.612832036" lon="34.80859397">
      <ele>1374.854</ele>
      <time>2021-10-12T11:07:38Z</time>
    </trkpt>
    <trkpt lat="38.612853996" lon="34.808607968">
      <ele>1374.734</ele>
      <time>2021-10-12T11:07:39Z</time>
    </trkpt>
    <trkpt lat="38.612876041" lon="34.808626994">
      <ele>1374.609</ele>
      <time>2021-10-12T11:07:40Z</time>
    </trkpt>
    <trkpt lat="38.612901019" lon="34.808645016">
      <ele>1374.488</ele>
      <time>2021-10-12T11:07:41Z</time>
    </trkpt>
    <trkpt lat="38.612923985" lon="34.808662031">
      <ele>1374.387</ele>
      <time>2021-10-12T11:07:42Z</time>
    </trkpt>
    <trkpt lat="38.61294603" lon="34.808678962">
      <ele>1374.298</ele>
      <time>2021-10-12T11:07:43Z</time>
    </trkpt>
    <trkpt lat="38.612966985" lon="34.80869296">
      <ele>1374.225</ele>
      <time>2021-10-12T11:07:43Z</time>
    </trkpt>
    <trkpt lat="38.612989029" lon="34.80870897">
      <ele>1374.155</ele>
      <time>2021-10-12T11:07:44Z</time>
    </trkpt>
    <trkpt lat="38.613013001" lon="34.808726991">
      <ele>1374.089</ele>
      <time>2021-10-12T11:07:45Z</time>
    </trkpt>
    <trkpt lat="38.613037979" lon="34.808745012">
      <ele>1374.033</ele>
      <time>2021-10-12T11:07:46Z</time>
    </trkpt>
    <trkpt lat="38.613063963" lon="34.808759009">
      <ele>1373.97</ele>
      <time>2021-10-12T11:07:48Z</time>
    </trkpt>
    <trkpt lat="38.613090031" lon="34.808779964">
      <ele>1373.876</ele>
      <time>2021-10-12T11:07:49Z</time>
    </trkpt>
    <trkpt lat="38.613115009" lon="34.808796979">
      <ele>1373.786</ele>
      <time>2021-10-12T11:07:50Z</time>
    </trkpt>
    <trkpt lat="38.613139987" lon="34.808812989">
      <ele>1373.696</ele>
      <time>2021-10-12T11:07:51Z</time>
    </trkpt>
    <trkpt lat="38.613164965" lon="34.80883101">
      <ele>1373.606</ele>
      <time>2021-10-12T11:07:52Z</time>
    </trkpt>
    <trkpt lat="38.613187009" lon="34.808852971">
      <ele>1373.527</ele>
      <time>2021-10-12T11:07:53Z</time>
    </trkpt>
    <trkpt lat="38.613209976" lon="34.808874009">
      <ele>1373.444</ele>
      <time>2021-10-12T11:07:54Z</time>
    </trkpt>
    <trkpt lat="38.61323202" lon="34.80889203">
      <ele>1373.361</ele>
      <time>2021-10-12T11:07:55Z</time>
    </trkpt>
    <trkpt lat="38.613258004" lon="34.808912985">
      <ele>1373.248</ele>
      <time>2021-10-12T11:07:56Z</time>
    </trkpt>
    <trkpt lat="38.613283988" lon="34.80893">
      <ele>1373.151</ele>
      <time>2021-10-12T11:07:57Z</time>
    </trkpt>
    <trkpt lat="38.613308966" lon="34.808950033">
      <ele>1373.068</ele>
      <time>2021-10-12T11:07:58Z</time>
    </trkpt>
    <trkpt lat="38.613325981" lon="34.808972999">
      <ele>1373.018</ele>
      <time>2021-10-12T11:07:59Z</time>
    </trkpt>
    <trkpt lat="38.61334702" lon="34.80899496">
      <ele>1372.883</ele>
      <time>2021-10-12T11:08:00Z</time>
    </trkpt>
    <trkpt lat="38.61337401" lon="34.809012981">
      <ele>1372.642</ele>
      <time>2021-10-12T11:08:01Z</time>
    </trkpt>
    <trkpt lat="38.61339597" lon="34.809032008">
      <ele>1372.433</ele>
      <time>2021-10-12T11:08:02Z</time>
    </trkpt>
    <trkpt lat="38.613420026" lon="34.809047012">
      <ele>1372.198</ele>
      <time>2021-10-12T11:08:03Z</time>
    </trkpt>
    <trkpt lat="38.613448022" lon="34.809066961">
      <ele>1371.91</ele>
      <time>2021-10-12T11:08:04Z</time>
    </trkpt>
    <trkpt lat="38.613473" lon="34.809093028">
      <ele>1371.625</ele>
      <time>2021-10-12T11:08:06Z</time>
    </trkpt>
    <trkpt lat="38.613497978" lon="34.809113983">
      <ele>1371.334</ele>
      <time>2021-10-12T11:08:07Z</time>
    </trkpt>
    <trkpt lat="38.613521028" lon="34.809128987">
      <ele>1371.065</ele>
      <time>2021-10-12T11:08:08Z</time>
    </trkpt>
    <trkpt lat="38.613556987" lon="34.809155976">
      <ele>1370.616</ele>
      <time>2021-10-12T11:08:09Z</time>
    </trkpt>
    <trkpt lat="38.613567967" lon="34.809166035">
      <ele>1370.468</ele>
      <time>2021-10-12T11:08:10Z</time>
    </trkpt>
    <trkpt lat="38.613586994" lon="34.809189001">
      <ele>1370.253</ele>
      <time>2021-10-12T11:08:11Z</time>
    </trkpt>
    <trkpt lat="38.613608032" lon="34.809211968">
      <ele>1370.031</ele>
      <time>2021-10-12T11:08:12Z</time>
    </trkpt>
    <trkpt lat="38.613626976" lon="34.809232">
      <ele>1369.886</ele>
      <time>2021-10-12T11:08:13Z</time>
    </trkpt>
    <trkpt lat="38.613646002" lon="34.809252033">
      <ele>1369.749</ele>
      <time>2021-10-12T11:08:14Z</time>
    </trkpt>
    <trkpt lat="38.613667041" lon="34.809268964">
      <ele>1369.597</ele>
      <time>2021-10-12T11:08:14Z</time>
    </trkpt>
    <trkpt lat="38.613690007" lon="34.809286986">
      <ele>1369.432</ele>
      <time>2021-10-12T11:08:15Z</time>
    </trkpt>
    <trkpt lat="38.613708029" lon="34.809302995">
      <ele>1369.302</ele>
      <time>2021-10-12T11:08:16Z</time>
    </trkpt>
    <trkpt lat="38.613728983" lon="34.809319004">
      <ele>1369.151</ele>
      <time>2021-10-12T11:08:17Z</time>
    </trkpt>
    <trkpt lat="38.613742981" lon="34.809335014">
      <ele>1369.051</ele>
      <time>2021-10-12T11:08:18Z</time>
    </trkpt>
    <trkpt lat="38.613766031" lon="34.809351023">
      <ele>1368.885</ele>
      <time>2021-10-12T11:08:19Z</time>
    </trkpt>
    <trkpt lat="38.613791009" lon="34.809364015">
      <ele>1368.705</ele>
      <time>2021-10-12T11:08:20Z</time>
    </trkpt>
    <trkpt lat="38.613816993" lon="34.809376001">
      <ele>1368.518</ele>
      <time>2021-10-12T11:08:21Z</time>
    </trkpt>
    <trkpt lat="38.613840966" lon="34.809386982">
      <ele>1368.345</ele>
      <time>2021-10-12T11:08:22Z</time>
    </trkpt>
    <trkpt lat="38.613868039" lon="34.809398968">
      <ele>1368.15</ele>
      <time>2021-10-12T11:08:23Z</time>
    </trkpt>
    <trkpt lat="38.613894023" lon="34.809409026">
      <ele>1367.986</ele>
      <time>2021-10-12T11:08:24Z</time>
    </trkpt>
    <trkpt lat="38.613929981" lon="34.809423024">
      <ele>1367.875</ele>
      <time>2021-10-12T11:08:25Z</time>
    </trkpt>
    <trkpt lat="38.613955965" lon="34.809429981">
      <ele>1367.784</ele>
      <time>2021-10-12T11:08:26Z</time>
    </trkpt>
    <trkpt lat="38.613969041" lon="34.809434004">
      <ele>1367.733</ele>
      <time>2021-10-12T11:08:27Z</time>
    </trkpt>
    <trkpt lat="38.613997959" lon="34.809440039">
      <ele>1367.62</ele>
      <time>2021-10-12T11:08:28Z</time>
    </trkpt>
    <trkpt lat="38.614026038" lon="34.809443979">
      <ele>1367.508</ele>
      <time>2021-10-12T11:08:29Z</time>
    </trkpt>
    <trkpt lat="38.614054034" lon="34.809448002">
      <ele>1367.393</ele>
      <time>2021-10-12T11:08:30Z</time>
    </trkpt>
    <trkpt lat="38.614081023" lon="34.809451019">
      <ele>1367.285</ele>
      <time>2021-10-12T11:08:31Z</time>
    </trkpt>
    <trkpt lat="38.614108013" lon="34.809448002">
      <ele>1367.198</ele>
      <time>2021-10-12T11:08:32Z</time>
    </trkpt>
    <trkpt lat="38.614133997" lon="34.809448002">
      <ele>1367.105</ele>
      <time>2021-10-12T11:08:33Z</time>
    </trkpt>
    <trkpt lat="38.614157969" lon="34.809444984">
      <ele>1367.029</ele>
      <time>2021-10-12T11:08:34Z</time>
    </trkpt>
    <trkpt lat="38.614183031" lon="34.809439033">
      <ele>1367.097</ele>
      <time>2021-10-12T11:08:35Z</time>
    </trkpt>
    <trkpt lat="38.614213038" lon="34.809436016">
      <ele>1367.223</ele>
      <time>2021-10-12T11:08:36Z</time>
    </trkpt>
    <trkpt lat="38.614243967" lon="34.809434004">
      <ele>1367.343</ele>
      <time>2021-10-12T11:08:37Z</time>
    </trkpt>
    <trkpt lat="38.614275986" lon="34.809431992">
      <ele>1367.466</ele>
      <time>2021-10-12T11:08:38Z</time>
    </trkpt>
    <trkpt lat="38.614305994" lon="34.809429981">
      <ele>1367.58</ele>
      <time>2021-10-12T11:08:39Z</time>
    </trkpt>
    <trkpt lat="38.614336001" lon="34.809430987">
      <ele>1367.677</ele>
      <time>2021-10-12T11:08:40Z</time>
    </trkpt>
    <trkpt lat="38.614382017" lon="34.809440039">
      <ele>1367.795</ele>
      <time>2021-10-12T11:08:42Z</time>
    </trkpt>
    <trkpt lat="38.614397021" lon="34.809440961">
      <ele>1367.844</ele>
      <time>2021-10-12T11:08:43Z</time>
    </trkpt>
    <trkpt lat="38.614426022" lon="34.809442973">
      <ele>1367.939</ele>
      <time>2021-10-12T11:08:44Z</time>
    </trkpt>
    <trkpt lat="38.614453012" lon="34.809440039">
      <ele>1368.077</ele>
      <time>2021-10-12T11:08:45Z</time>
    </trkpt>
    <trkpt lat="38.614480002" lon="34.80943501">
      <ele>1368.281</ele>
      <time>2021-10-12T11:08:46Z</time>
    </trkpt>
    <trkpt lat="38.614510009" lon="34.809434004">
      <ele>1368.492</ele>
      <time>2021-10-12T11:08:47Z</time>
    </trkpt>
    <trkpt lat="38.614536999" lon="34.80943501">
      <ele>1368.678</ele>
      <time>2021-10-12T11:08:48Z</time>
    </trkpt>
    <trkpt lat="38.614569018" lon="34.809430987">
      <ele>1368.902</ele>
      <time>2021-10-12T11:08:49Z</time>
    </trkpt>
    <trkpt lat="38.614595002" lon="34.809427969">
      <ele>1369.079</ele>
      <time>2021-10-12T11:08:50Z</time>
    </trkpt>
    <trkpt lat="38.614622997" lon="34.809416989">
      <ele>1369.257</ele>
      <time>2021-10-12T11:08:51Z</time>
    </trkpt>
    <trkpt lat="38.614651999" lon="34.809411038">
      <ele>1369.435</ele>
      <time>2021-10-12T11:08:52Z</time>
    </trkpt>
    <trkpt lat="38.614678988" lon="34.80940802">
      <ele>1369.598</ele>
      <time>2021-10-12T11:08:53Z</time>
    </trkpt>
    <trkpt lat="38.614708995" lon="34.809400979">
      <ele>1369.763</ele>
      <time>2021-10-12T11:08:54Z</time>
    </trkpt>
    <trkpt lat="38.614737997" lon="34.80939704">
      <ele>1369.829</ele>
      <time>2021-10-12T11:08:55Z</time>
    </trkpt>
    <trkpt lat="38.614768004" lon="34.809389999">
      <ele>1369.804</ele>
      <time>2021-10-12T11:08:56Z</time>
    </trkpt>
    <trkpt lat="38.614796" lon="34.80938497">
      <ele>1369.786</ele>
      <time>2021-10-12T11:08:58Z</time>
    </trkpt>
    <trkpt lat="38.614822989" lon="34.809376001">
      <ele>1369.754</ele>
      <time>2021-10-12T11:08:59Z</time>
    </trkpt>
    <trkpt lat="38.614848973" lon="34.809364015">
      <ele>1369.71</ele>
      <time>2021-10-12T11:09:00Z</time>
    </trkpt>
    <trkpt lat="38.614877975" lon="34.809359992">
      <ele>1369.696</ele>
      <time>2021-10-12T11:09:01Z</time>
    </trkpt>
    <trkpt lat="38.614908988" lon="34.809356974">
      <ele>1369.685</ele>
      <time>2021-10-12T11:09:02Z</time>
    </trkpt>
    <trkpt lat="38.614940001" lon="34.809355969">
      <ele>1369.681</ele>
      <time>2021-10-12T11:09:03Z</time>
    </trkpt>
    <trkpt lat="38.614969002" lon="34.809355969">
      <ele>1369.681</ele>
      <time>2021-10-12T11:09:04Z</time>
    </trkpt>
    <trkpt lat="38.614996998" lon="34.809363009">
      <ele>1369.707</ele>
      <time>2021-10-12T11:09:05Z</time>
    </trkpt>
    <trkpt lat="38.615021976" lon="34.809376001">
      <ele>1369.694</ele>
      <time>2021-10-12T11:09:06Z</time>
    </trkpt>
    <trkpt lat="38.615045026" lon="34.809392011">
      <ele>1369.68</ele>
      <time>2021-10-12T11:09:07Z</time>
    </trkpt>
    <trkpt lat="38.615066987" lon="34.809401985">
      <ele>1369.643</ele>
      <time>2021-10-12T11:09:08Z</time>
    </trkpt>
    <trkpt lat="38.615089031" lon="34.809413971">
      <ele>1369.605</ele>
      <time>2021-10-12T11:09:09Z</time>
    </trkpt>
    <trkpt lat="38.615113003" lon="34.809426963">
      <ele>1369.556</ele>
      <time>2021-10-12T11:09:10Z</time>
    </trkpt>
    <trkpt lat="38.61513597" lon="34.809453031">
      <ele>1369.511</ele>
      <time>2021-10-12T11:09:11Z</time>
    </trkpt>
    <trkpt lat="38.615160026" lon="34.809475997">
      <ele>1369.424</ele>
      <time>2021-10-12T11:09:12Z</time>
    </trkpt>
    <trkpt lat="38.615181986" lon="34.809495024">
      <ele>1369.345</ele>
      <time>2021-10-12T11:09:13Z</time>
    </trkpt>
    <trkpt lat="38.615204031" lon="34.809514973">
      <ele>1369.265</ele>
      <time>2021-10-12T11:09:14Z</time>
    </trkpt>
    <trkpt lat="38.615228003" lon="34.809539029">
      <ele>1369.179</ele>
      <time>2021-10-12T11:09:15Z</time>
    </trkpt>
    <trkpt lat="38.615265973" lon="34.809565013">
      <ele>1369.042</ele>
      <time>2021-10-12T11:09:17Z</time>
    </trkpt>
    <trkpt lat="38.615277959" lon="34.809575994">
      <ele>1368.999</ele>
      <time>2021-10-12T11:09:17Z</time>
    </trkpt>
    <trkpt lat="38.615298998" lon="34.809596026">
      <ele>1368.917</ele>
      <time>2021-10-12T11:09:18Z</time>
    </trkpt>
    <trkpt lat="38.615320958" lon="34.809613964">
      <ele>1368.81</ele>
      <time>2021-10-12T11:09:19Z</time>
    </trkpt>
    <trkpt lat="38.615341997" lon="34.809629973">
      <ele>1368.691</ele>
      <time>2021-10-12T11:09:20Z</time>
    </trkpt>
    <trkpt lat="38.61536203" lon="34.809652017">
      <ele>1368.547</ele>
      <time>2021-10-12T11:09:21Z</time>
    </trkpt>
    <trkpt lat="38.61538399" lon="34.809670961">
      <ele>1368.376</ele>
      <time>2021-10-12T11:09:22Z</time>
    </trkpt>
    <trkpt lat="38.615407962" lon="34.809691999">
      <ele>1368.165</ele>
      <time>2021-10-12T11:09:23Z</time>
    </trkpt>
    <trkpt lat="38.615431013" lon="34.809715971">
      <ele>1367.922</ele>
      <time>2021-10-12T11:09:24Z</time>
    </trkpt>
    <trkpt lat="38.615452973" lon="34.809740027">
      <ele>1367.57</ele>
      <time>2021-10-12T11:09:25Z</time>
    </trkpt>
    <trkpt lat="38.615477029" lon="34.809761988">
      <ele>1367.176</ele>
      <time>2021-10-12T11:09:26Z</time>
    </trkpt>
    <trkpt lat="38.615502007" lon="34.80978596">
      <ele>1366.741</ele>
      <time>2021-10-12T11:09:28Z</time>
    </trkpt>
    <trkpt lat="38.61552204" lon="34.80980197">
      <ele>1366.415</ele>
      <time>2021-10-12T11:09:28Z</time>
    </trkpt>
    <trkpt lat="38.61553696" lon="34.809824014">
      <ele>1366.059</ele>
      <time>2021-10-12T11:09:29Z</time>
    </trkpt>
    <trkpt lat="38.615554981" lon="34.809844969">
      <ele>1365.679</ele>
      <time>2021-10-12T11:09:30Z</time>
    </trkpt>
    <trkpt lat="38.615577025" lon="34.809863996">
      <ele>1365.392</ele>
      <time>2021-10-12T11:09:31Z</time>
    </trkpt>
    <trkpt lat="38.615596974" lon="34.809882017">
      <ele>1365.125</ele>
      <time>2021-10-12T11:09:32Z</time>
    </trkpt>
    <trkpt lat="38.615619019" lon="34.80990096">
      <ele>1364.841</ele>
      <time>2021-10-12T11:09:33Z</time>
    </trkpt>
    <trkpt lat="38.615647014" lon="34.809919987">
      <ele>1364.535</ele>
      <time>2021-10-12T11:09:34Z</time>
    </trkpt>
    <trkpt lat="38.61567501" lon="34.80994002">
      <ele>1364.218</ele>
      <time>2021-10-12T11:09:35Z</time>
    </trkpt>
    <trkpt lat="38.615697976" lon="34.809958041">
      <ele>1363.94</ele>
      <time>2021-10-12T11:09:36Z</time>
    </trkpt>
    <trkpt lat="38.615723038" lon="34.809973966">
      <ele>1363.678</ele>
      <time>2021-10-12T11:09:37Z</time>
    </trkpt>
    <trkpt lat="38.615749022" lon="34.809990982">
      <ele>1363.401</ele>
      <time>2021-10-12T11:09:39Z</time>
    </trkpt>
    <trkpt lat="38.615778023" lon="34.810006991">
      <ele>1363.119</ele>
      <time>2021-10-12T11:09:40Z</time>
    </trkpt>
    <trkpt lat="38.615805013" lon="34.810023">
      <ele>1362.845</ele>
      <time>2021-10-12T11:09:41Z</time>
    </trkpt>
    <trkpt lat="38.615828985" lon="34.810041022">
      <ele>1362.57</ele>
      <time>2021-10-12T11:09:42Z</time>
    </trkpt>
    <trkpt lat="38.61585103" lon="34.810063988">
      <ele>1362.436</ele>
      <time>2021-10-12T11:09:43Z</time>
    </trkpt>
    <trkpt lat="38.615884976" lon="34.810098018">
      <ele>1362.313</ele>
      <time>2021-10-12T11:09:45Z</time>
    </trkpt>
    <trkpt lat="38.615894029" lon="34.810108999">
      <ele>1362.26</ele>
      <time>2021-10-12T11:09:45Z</time>
    </trkpt>
    <trkpt lat="38.615910038" lon="34.810130959">
      <ele>1362.138</ele>
      <time>2021-10-12T11:09:46Z</time>
    </trkpt>
    <trkpt lat="38.615924958" lon="34.810151998">
      <ele>1362.018</ele>
      <time>2021-10-12T11:09:47Z</time>
    </trkpt>
    <trkpt lat="38.615944991" lon="34.810174964">
      <ele>1361.914</ele>
      <time>2021-10-12T11:09:48Z</time>
    </trkpt>
    <trkpt lat="38.615964018" lon="34.810204972">
      <ele>1361.727</ele>
      <time>2021-10-12T11:09:49Z</time>
    </trkpt>
    <trkpt lat="38.615979021" lon="34.810232967">
      <ele>1361.533</ele>
      <time>2021-10-12T11:09:50Z</time>
    </trkpt>
    <trkpt lat="38.615996959" lon="34.810262974">
      <ele>1361.338</ele>
      <time>2021-10-12T11:09:51Z</time>
    </trkpt>
    <trkpt lat="38.616017997" lon="34.810291976">
      <ele>1361.261</ele>
      <time>2021-10-12T11:09:52Z</time>
    </trkpt>
    <trkpt lat="38.616035013" lon="34.810316032">
      <ele>1361.277</ele>
      <time>2021-10-12T11:09:53Z</time>
    </trkpt>
    <trkpt lat="38.616051022" lon="34.81034101">
      <ele>1361.29</ele>
      <time>2021-10-12T11:09:54Z</time>
    </trkpt>
    <trkpt lat="38.61606502" lon="34.810368">
      <ele>1361.289</ele>
      <time>2021-10-12T11:09:55Z</time>
    </trkpt>
    <trkpt lat="38.616077006" lon="34.810397001">
      <ele>1361.273</ele>
      <time>2021-10-12T11:09:56Z</time>
    </trkpt>
    <trkpt lat="38.616094021" lon="34.810426002">
      <ele>1361.311</ele>
      <time>2021-10-12T11:09:57Z</time>
    </trkpt>
    <trkpt lat="38.616108019" lon="34.810453998">
      <ele>1361.336</ele>
      <time>2021-10-12T11:09:58Z</time>
    </trkpt>
    <trkpt lat="38.616126962" lon="34.810482999">
      <ele>1361.375</ele>
      <time>2021-10-12T11:09:59Z</time>
    </trkpt>
    <trkpt lat="38.616145989" lon="34.810514012">
      <ele>1361.401</ele>
      <time>2021-10-12T11:10:00Z</time>
    </trkpt>
    <trkpt lat="38.616166022" lon="34.810545025">
      <ele>1361.433</ele>
      <time>2021-10-12T11:10:01Z</time>
    </trkpt>
    <trkpt lat="38.616180019" lon="34.810576038">
      <ele>1361.496</ele>
      <time>2021-10-12T11:10:02Z</time>
    </trkpt>
    <trkpt lat="38.616193011" lon="34.810606968">
      <ele>1361.59</ele>
      <time>2021-10-12T11:10:03Z</time>
    </trkpt>
    <trkpt lat="38.616203992" lon="34.810639992">
      <ele>1361.669</ele>
      <time>2021-10-12T11:10:04Z</time>
    </trkpt>
    <trkpt lat="38.616206003" lon="34.810676035">
      <ele>1361.683</ele>
      <time>2021-10-12T11:10:05Z</time>
    </trkpt>
    <trkpt lat="38.616200974" lon="34.810706042">
      <ele>1361.647</ele>
      <time>2021-10-12T11:10:06Z</time>
    </trkpt>
    <trkpt lat="38.616196029" lon="34.810737977">
      <ele>1361.611</ele>
      <time>2021-10-12T11:10:07Z</time>
    </trkpt>
    <trkpt lat="38.616189994" lon="34.810769996">
      <ele>1361.568</ele>
      <time>2021-10-12T11:10:08Z</time>
    </trkpt>
    <trkpt lat="38.616183959" lon="34.81080696">
      <ele>1361.525</ele>
      <time>2021-10-12T11:10:09Z</time>
    </trkpt>
    <trkpt lat="38.616183037" lon="34.810848031">
      <ele>1361.465</ele>
      <time>2021-10-12T11:10:10Z</time>
    </trkpt>
    <trkpt lat="38.616180019" lon="34.810887007">
      <ele>1361.303</ele>
      <time>2021-10-12T11:10:12Z</time>
    </trkpt>
    <trkpt lat="38.616178008" lon="34.810929">
      <ele>1361.137</ele>
      <time>2021-10-12T11:10:13Z</time>
    </trkpt>
    <trkpt lat="38.616179014" lon="34.810967976">
      <ele>1361.004</ele>
      <time>2021-10-12T11:10:14Z</time>
    </trkpt>
    <trkpt lat="38.616189994" lon="34.811002007">
      <ele>1360.961</ele>
      <time>2021-10-12T11:10:15Z</time>
    </trkpt>
    <trkpt lat="38.616191" lon="34.811032014">
      <ele>1360.86</ele>
      <time>2021-10-12T11:10:16Z</time>
    </trkpt>
    <trkpt lat="38.616185971" lon="34.811065961">
      <ele>1360.702</ele>
      <time>2021-10-12T11:10:17Z</time>
    </trkpt>
    <trkpt lat="38.616182031" lon="34.81110502">
      <ele>1360.533</ele>
      <time>2021-10-12T11:10:18Z</time>
    </trkpt>
    <trkpt lat="38.616173984" lon="34.811141985">
      <ele>1360.205</ele>
      <time>2021-10-12T11:10:19Z</time>
    </trkpt>
    <trkpt lat="38.61616401" lon="34.811177021">
      <ele>1359.861</ele>
      <time>2021-10-12T11:10:20Z</time>
    </trkpt>
    <trkpt lat="38.616149006" lon="34.811206022">
      <ele>1359.543</ele>
      <time>2021-10-12T11:10:21Z</time>
    </trkpt>
    <trkpt lat="38.616129979" lon="34.811228989">
      <ele>1359.258</ele>
      <time>2021-10-12T11:10:22Z</time>
    </trkpt>
    <trkpt lat="38.616112964" lon="34.811249021">
      <ele>1359.017</ele>
      <time>2021-10-12T11:10:23Z</time>
    </trkpt>
    <trkpt lat="38.616097961" lon="34.811272994">
      <ele>1358.598</ele>
      <time>2021-10-12T11:10:24Z</time>
    </trkpt>
    <trkpt lat="38.616082035" lon="34.811300989">
      <ele>1358.11</ele>
      <time>2021-10-12T11:10:25Z</time>
    </trkpt>
    <trkpt lat="38.616068037" lon="34.811328985">
      <ele>1357.656</ele>
      <time>2021-10-12T11:10:26Z</time>
    </trkpt>
    <trkpt lat="38.616053034" lon="34.811362009">
      <ele>1357.148</ele>
      <time>2021-10-12T11:10:27Z</time>
    </trkpt>
    <trkpt lat="38.616046999" lon="34.811392017">
      <ele>1356.806</ele>
      <time>2021-10-12T11:10:28Z</time>
    </trkpt>
    <trkpt lat="38.616034007" lon="34.81142303">
      <ele>1356.189</ele>
      <time>2021-10-12T11:10:29Z</time>
    </trkpt>
    <trkpt lat="38.616021015" lon="34.811455971">
      <ele>1355.569</ele>
      <time>2021-10-12T11:10:30Z</time>
    </trkpt>
    <trkpt lat="38.616009029" lon="34.811485978">
      <ele>1355.021</ele>
      <time>2021-10-12T11:10:31Z</time>
    </trkpt>
    <trkpt lat="38.615996959" lon="34.81152202">
      <ele>1354.422</ele>
      <time>2021-10-12T11:10:32Z</time>
    </trkpt>
    <trkpt lat="38.615986984" lon="34.811555967">
      <ele>1353.897</ele>
      <time>2021-10-12T11:10:33Z</time>
    </trkpt>
    <trkpt lat="38.615978016" lon="34.811583962">
      <ele>1353.468</ele>
      <time>2021-10-12T11:10:34Z</time>
    </trkpt>
    <trkpt lat="38.615965024" lon="34.81161397">
      <ele>1352.982</ele>
      <time>2021-10-12T11:10:35Z</time>
    </trkpt>
    <trkpt lat="38.61595002" lon="34.811642971">
      <ele>1352.502</ele>
      <time>2021-10-12T11:10:36Z</time>
    </trkpt>
    <trkpt lat="38.615941973" lon="34.811672978">
      <ele>1352.096</ele>
      <time>2021-10-12T11:10:37Z</time>
    </trkpt>
    <trkpt lat="38.615934011" lon="34.811706003">
      <ele>1351.611</ele>
      <time>2021-10-12T11:10:38Z</time>
    </trkpt>
    <trkpt lat="38.615925964" lon="34.811740033">
      <ele>1351.12</ele>
      <time>2021-10-12T11:10:39Z</time>
    </trkpt>
    <trkpt lat="38.615924036" lon="34.811776998">
      <ele>1350.658</ele>
      <time>2021-10-12T11:10:40Z</time>
    </trkpt>
    <trkpt lat="38.615922024" lon="34.811810022">
      <ele>1350.245</ele>
      <time>2021-10-12T11:10:41Z</time>
    </trkpt>
    <trkpt lat="38.615916995" lon="34.811842963">
      <ele>1349.808</ele>
      <time>2021-10-12T11:10:42Z</time>
    </trkpt>
    <trkpt lat="38.61591096" lon="34.811871964">
      <ele>1349.415</ele>
      <time>2021-10-12T11:10:43Z</time>
    </trkpt>
    <trkpt lat="38.615891011" lon="34.81188898">
      <ele>1349.056</ele>
      <time>2021-10-12T11:10:44Z</time>
    </trkpt>
    <trkpt lat="38.615867961" lon="34.811911024">
      <ele>1348.625</ele>
      <time>2021-10-12T11:10:45Z</time>
    </trkpt>
    <trkpt lat="38.615852036" lon="34.811942959">
      <ele>1348.151</ele>
      <time>2021-10-12T11:10:46Z</time>
    </trkpt>
    <trkpt lat="38.615849018" lon="34.811972966">
      <ele>1347.999</ele>
      <time>2021-10-12T11:10:47Z</time>
    </trkpt>
    <trkpt lat="38.615853041" lon="34.811999034">
      <ele>1347.917</ele>
      <time>2021-10-12T11:10:48Z</time>
    </trkpt>
    <trkpt lat="38.615859998" lon="34.812029963">
      <ele>1347.825</ele>
      <time>2021-10-12T11:10:49Z</time>
    </trkpt>
    <trkpt lat="38.615864022" lon="34.812059971">
      <ele>1347.713</ele>
      <time>2021-10-12T11:10:49Z</time>
    </trkpt>
    <trkpt lat="38.615865028" lon="34.812098024">
      <ele>1347.549</ele>
      <time>2021-10-12T11:10:51Z</time>
    </trkpt>
    <trkpt lat="38.615865028" lon="34.812134989">
      <ele>1347.386</ele>
      <time>2021-10-12T11:10:52Z</time>
    </trkpt>
    <trkpt lat="38.615863016" lon="34.812170025">
      <ele>1347.228</ele>
      <time>2021-10-12T11:10:53Z</time>
    </trkpt>
    <trkpt lat="38.615863016" lon="34.812204977">
      <ele>1347.075</ele>
      <time>2021-10-12T11:10:54Z</time>
    </trkpt>
    <trkpt lat="38.615864022" lon="34.812238002">
      <ele>1346.893</ele>
      <time>2021-10-12T11:10:55Z</time>
    </trkpt>
    <trkpt lat="38.615864022" lon="34.812271027">
      <ele>1346.668</ele>
      <time>2021-10-12T11:10:56Z</time>
    </trkpt>
    <trkpt lat="38.615867039" lon="34.81230204">
      <ele>1346.46</ele>
      <time>2021-10-12T11:10:56Z</time>
    </trkpt>
    <trkpt lat="38.615865028" lon="34.812326012">
      <ele>1346.295</ele>
      <time>2021-10-12T11:10:57Z</time>
    </trkpt>
    <trkpt lat="38.615868967" lon="34.812358031">
      <ele>1346.085</ele>
      <time>2021-10-12T11:10:58Z</time>
    </trkpt>
    <trkpt lat="38.615864022" lon="34.812388038">
      <ele>1345.872</ele>
      <time>2021-10-12T11:10:59Z</time>
    </trkpt>
    <trkpt lat="38.61586201" lon="34.812421985">
      <ele>1345.636</ele>
      <time>2021-10-12T11:11:00Z</time>
    </trkpt>
    <trkpt lat="38.615859998" lon="34.812459033">
      <ele>1345.377</ele>
      <time>2021-10-12T11:11:01Z</time>
    </trkpt>
    <trkpt lat="38.615850024" lon="34.812494991">
      <ele>1345.095</ele>
      <time>2021-10-12T11:11:02Z</time>
    </trkpt>
    <trkpt lat="38.615843989" lon="34.812530028">
      <ele>1344.818</ele>
      <time>2021-10-12T11:11:03Z</time>
    </trkpt>
    <trkpt lat="38.615844995" lon="34.812560035">
      <ele>1344.601</ele>
      <time>2021-10-12T11:11:04Z</time>
    </trkpt>
    <trkpt lat="38.615840971" lon="34.812589958">
      <ele>1344.371</ele>
      <time>2021-10-12T11:11:05Z</time>
    </trkpt>
    <trkpt lat="38.615834014" lon="34.81261896">
      <ele>1344.145</ele>
      <time>2021-10-12T11:11:06Z</time>
    </trkpt>
    <trkpt lat="38.615822028" lon="34.812657014">
      <ele>1343.893</ele>
      <time>2021-10-12T11:11:07Z</time>
    </trkpt>
    <trkpt lat="38.615814988" lon="34.81269096">
      <ele>1343.67</ele>
      <time>2021-10-12T11:11:08Z</time>
    </trkpt>
    <trkpt lat="38.615808031" lon="34.812724991">
      <ele>1343.454</ele>
      <time>2021-10-12T11:11:09Z</time>
    </trkpt>
    <trkpt lat="38.615807025" lon="34.812762039">
      <ele>1343.203</ele>
      <time>2021-10-12T11:11:10Z</time>
    </trkpt>
    <trkpt lat="38.615808031" lon="34.812795985">
      <ele>1342.841</ele>
      <time>2021-10-12T11:11:11Z</time>
    </trkpt>
    <trkpt lat="38.615809958" lon="34.812831022">
      <ele>1342.35</ele>
      <time>2021-10-12T11:11:12Z</time>
    </trkpt>
    <trkpt lat="38.615822028" lon="34.812862035">
      <ele>1341.852</ele>
      <time>2021-10-12T11:11:13Z</time>
    </trkpt>
    <trkpt lat="38.615833009" lon="34.812892964">
      <ele>1341.343</ele>
      <time>2021-10-12T11:11:14Z</time>
    </trkpt>
    <trkpt lat="38.615848012" lon="34.812919032">
      <ele>1340.993</ele>
      <time>2021-10-12T11:11:15Z</time>
    </trkpt>
    <trkpt lat="38.615856981" lon="34.812940992">
      <ele>1340.7</ele>
      <time>2021-10-12T11:11:16Z</time>
    </trkpt>
    <trkpt lat="38.615842983" lon="34.812961025">
      <ele>1340.384</ele>
      <time>2021-10-12T11:11:17Z</time>
    </trkpt>
    <trkpt lat="38.61582404" lon="34.812975023">
      <ele>1340.241</ele>
      <time>2021-10-12T11:11:17Z</time>
    </trkpt>
    <trkpt lat="38.615795961" lon="34.812988015">
      <ele>1340.311</ele>
      <time>2021-10-12T11:11:18Z</time>
    </trkpt>
    <trkpt lat="38.615766959" lon="34.813002013">
      <ele>1340.396</ele>
      <time>2021-10-12T11:11:20Z</time>
    </trkpt>
    <trkpt lat="38.615755979" lon="34.813024979">
      <ele>1340.214</ele>
      <time>2021-10-12T11:11:20Z</time>
    </trkpt>
    <trkpt lat="38.615733013" lon="34.813024979">
      <ele>1340.444</ele>
      <time>2021-10-12T11:11:21Z</time>
    </trkpt>
    <trkpt lat="38.615708034" lon="34.813026991">
      <ele>1340.672</ele>
      <time>2021-10-12T11:11:22Z</time>
    </trkpt>
    <trkpt lat="38.615671992" lon="34.813029002">
      <ele>1341.014</ele>
      <time>2021-10-12T11:11:24Z</time>
    </trkpt>
    <trkpt lat="38.615656989" lon="34.813030008">
      <ele>1341.156</ele>
      <time>2021-10-12T11:11:24Z</time>
    </trkpt>
    <trkpt lat="38.615563028" lon="34.813044006">
      <ele>1342.005</ele>
      <time>2021-10-12T11:11:28Z</time>
    </trkpt>
    <trkpt lat="38.615551041" lon="34.813119024">
      <ele>1341.09</ele>
      <time>2021-10-12T11:11:30Z</time>
    </trkpt>
    <trkpt lat="38.615552969" lon="34.813145008">
      <ele>1340.715</ele>
      <time>2021-10-12T11:11:31Z</time>
    </trkpt>
    <trkpt lat="38.615557998" lon="34.813171998">
      <ele>1340.301</ele>
      <time>2021-10-12T11:11:31Z</time>
    </trkpt>
    <trkpt lat="38.615550036" lon="34.81319597">
      <ele>1339.988</ele>
      <time>2021-10-12T11:11:32Z</time>
    </trkpt>
    <trkpt lat="38.615537966" lon="34.813221032">
      <ele>1339.655</ele>
      <time>2021-10-12T11:11:33Z</time>
    </trkpt>
    <trkpt lat="38.61552204" lon="34.813255984">
      <ele>1339.201</ele>
      <time>2021-10-12T11:11:34Z</time>
    </trkpt>
    <trkpt lat="38.615516005" lon="34.813271994">
      <ele>1338.994</ele>
      <time>2021-10-12T11:11:35Z</time>
    </trkpt>
    <trkpt lat="38.615507958" lon="34.81330703">
      <ele>1338.534</ele>
      <time>2021-10-12T11:11:36Z</time>
    </trkpt>
    <trkpt lat="38.615503013" lon="34.813338965">
      <ele>1338.088</ele>
      <time>2021-10-12T11:11:37Z</time>
    </trkpt>
    <trkpt lat="38.615495972" lon="34.813363021">
      <ele>1337.68</ele>
      <time>2021-10-12T11:11:37Z</time>
    </trkpt>
    <trkpt lat="38.615493961" lon="34.813386993">
      <ele>1337.256</ele>
      <time>2021-10-12T11:11:38Z</time>
    </trkpt>
    <trkpt lat="38.61548298" lon="34.813409038">
      <ele>1336.899</ele>
      <time>2021-10-12T11:11:39Z</time>
    </trkpt>
    <trkpt lat="38.615468983" lon="34.813439967">
      <ele>1336.392</ele>
      <time>2021-10-12T11:11:40Z</time>
    </trkpt>
    <trkpt lat="38.615464959" lon="34.813469974">
      <ele>1335.867</ele>
      <time>2021-10-12T11:11:41Z</time>
    </trkpt>
    <trkpt lat="38.615464037" lon="34.813502999">
      <ele>1335.275</ele>
      <time>2021-10-12T11:11:42Z</time>
    </trkpt>
    <trkpt lat="38.615463031" lon="34.813529989">
      <ele>1334.793</ele>
      <time>2021-10-12T11:11:43Z</time>
    </trkpt>
    <trkpt lat="38.615467977" lon="34.813562008">
      <ele>1334.199</ele>
      <time>2021-10-12T11:11:43Z</time>
    </trkpt>
    <trkpt lat="38.615464037" lon="34.813590003">
      <ele>1333.709</ele>
      <time>2021-10-12T11:11:44Z</time>
    </trkpt>
    <trkpt lat="38.615455991" lon="34.813630991">
      <ele>1332.975</ele>
      <time>2021-10-12T11:11:46Z</time>
    </trkpt>
    <trkpt lat="38.615450962" lon="34.813643983">
      <ele>1332.74</ele>
      <time>2021-10-12T11:11:46Z</time>
    </trkpt>
    <trkpt lat="38.61544501" lon="34.81367399">
      <ele>1332.176</ele>
      <time>2021-10-12T11:11:47Z</time>
    </trkpt>
    <trkpt lat="38.615438975" lon="34.813706009">
      <ele>1331.568</ele>
      <time>2021-10-12T11:11:48Z</time>
    </trkpt>
    <trkpt lat="38.615432018" lon="34.813732998">
      <ele>1331.056</ele>
      <time>2021-10-12T11:11:49Z</time>
    </trkpt>
    <trkpt lat="38.615422966" lon="34.813765017">
      <ele>1330.443</ele>
      <time>2021-10-12T11:11:50Z</time>
    </trkpt>
    <trkpt lat="38.615416009" lon="34.813791001">
      <ele>1329.939</ele>
      <time>2021-10-12T11:11:50Z</time>
    </trkpt>
    <trkpt lat="38.6154" lon="34.81382302">
      <ele>1329.318</ele>
      <time>2021-10-12T11:11:52Z</time>
    </trkpt>
    <trkpt lat="38.615390025" lon="34.813853027">
      <ele>1328.722</ele>
      <time>2021-10-12T11:11:52Z</time>
    </trkpt>
    <trkpt lat="38.615381978" lon="34.813884962">
      <ele>1328.08</ele>
      <time>2021-10-12T11:11:53Z</time>
    </trkpt>
    <trkpt lat="38.615372004" lon="34.813912036">
      <ele>1327.695</ele>
      <time>2021-10-12T11:11:54Z</time>
    </trkpt>
    <trkpt lat="38.615355995" lon="34.81393802">
      <ele>1327.342</ele>
      <time>2021-10-12T11:11:55Z</time>
    </trkpt>
    <trkpt lat="38.615343003" lon="34.813957969">
      <ele>1327.064</ele>
      <time>2021-10-12T11:11:56Z</time>
    </trkpt>
    <trkpt lat="38.615325987" lon="34.813991999">
      <ele>1326.58</ele>
      <time>2021-10-12T11:11:57Z</time>
    </trkpt>
    <trkpt lat="38.615306038" lon="34.814027036">
      <ele>1326.061</ele>
      <time>2021-10-12T11:11:58Z</time>
    </trkpt>
    <trkpt lat="38.615286006" lon="34.814058971">
      <ele>1325.569</ele>
      <time>2021-10-12T11:12:00Z</time>
    </trkpt>
    <trkpt lat="38.61527402" lon="34.81408596">
      <ele>1325.145</ele>
      <time>2021-10-12T11:12:01Z</time>
    </trkpt>
    <trkpt lat="38.615276031" lon="34.814110016">
      <ele>1324.808</ele>
      <time>2021-10-12T11:12:01Z</time>
    </trkpt>
    <trkpt lat="38.61529598" lon="34.814132983">
      <ele>1324.543</ele>
      <time>2021-10-12T11:12:02Z</time>
    </trkpt>
    <trkpt lat="38.615309978" lon="34.814159973">
      <ele>1324.21</ele>
      <time>2021-10-12T11:12:03Z</time>
    </trkpt>
    <trkpt lat="38.61531903" lon="34.814191991">
      <ele>1323.797</ele>
      <time>2021-10-12T11:12:04Z</time>
    </trkpt>
    <trkpt lat="38.61532297" lon="34.814217975">
      <ele>1323.454</ele>
      <time>2021-10-12T11:12:05Z</time>
    </trkpt>
    <trkpt lat="38.615321964" lon="34.814244965">
      <ele>1323.076</ele>
      <time>2021-10-12T11:12:06Z</time>
    </trkpt>
    <trkpt lat="38.615318025" lon="34.814270027">
      <ele>1322.71</ele>
      <time>2021-10-12T11:12:06Z</time>
    </trkpt>
    <trkpt lat="38.615317019" lon="34.814300034">
      <ele>1322.289</ele>
      <time>2021-10-12T11:12:07Z</time>
    </trkpt>
    <trkpt lat="38.615312995" lon="34.814330041">
      <ele>1321.849</ele>
      <time>2021-10-12T11:12:08Z</time>
    </trkpt>
    <trkpt lat="38.615297992" lon="34.81434999">
      <ele>1321.481</ele>
      <time>2021-10-12T11:12:09Z</time>
    </trkpt>
    <trkpt lat="38.61527402" lon="34.814347979">
      <ele>1321.367</ele>
      <time>2021-10-12T11:12:10Z</time>
    </trkpt>
    <trkpt lat="38.615254993" lon="34.814367006">
      <ele>1320.974</ele>
      <time>2021-10-12T11:12:11Z</time>
    </trkpt>
    <trkpt lat="38.615229009" lon="34.814404976">
      <ele>1320.242</ele>
      <time>2021-10-12T11:12:12Z</time>
    </trkpt>
    <trkpt lat="38.615233032" lon="34.814416962">
      <ele>1320.09</ele>
      <time>2021-10-12T11:12:13Z</time>
    </trkpt>
    <trkpt lat="38.615214005" lon="34.814419979">
      <ele>1319.913</ele>
      <time>2021-10-12T11:12:13Z</time>
    </trkpt>
    <trkpt lat="38.615212999" lon="34.814451998">
      <ele>1319.418</ele>
      <time>2021-10-12T11:12:14Z</time>
    </trkpt>
    <trkpt lat="38.61522004" lon="34.814482005">
      <ele>1319.015</ele>
      <time>2021-10-12T11:12:15Z</time>
    </trkpt>
    <trkpt lat="38.615230015" lon="34.814513018">
      <ele>1318.626</ele>
      <time>2021-10-12T11:12:16Z</time>
    </trkpt>
    <trkpt lat="38.61523496" lon="34.814543026">
      <ele>1318.217</ele>
      <time>2021-10-12T11:12:17Z</time>
    </trkpt>
    <trkpt lat="38.615232026" lon="34.814566998">
      <ele>1317.833</ele>
      <time>2021-10-12T11:12:18Z</time>
    </trkpt>
    <trkpt lat="38.615211993" lon="34.814582001">
      <ele>1317.428</ele>
      <time>2021-10-12T11:12:19Z</time>
    </trkpt>
    <trkpt lat="38.615194978" lon="34.814592982">
      <ele>1317.106</ele>
      <time>2021-10-12T11:12:19Z</time>
    </trkpt>
    <trkpt lat="38.615140999" lon="34.81468996">
      <ele>1315.045</ele>
      <time>2021-10-12T11:12:23Z</time>
    </trkpt>
    <trkpt lat="38.615121972" lon="34.814708987">
      <ele>1314.535</ele>
      <time>2021-10-12T11:12:24Z</time>
    </trkpt>
    <trkpt lat="38.615107974" lon="34.814736983">
      <ele>1313.921</ele>
      <time>2021-10-12T11:12:25Z</time>
    </trkpt>
    <trkpt lat="38.615109986" lon="34.814762967">
      <ele>1313.513</ele>
      <time>2021-10-12T11:12:25Z</time>
    </trkpt>
    <trkpt lat="38.615124989" lon="34.814784005">
      <ele>1313.338</ele>
      <time>2021-10-12T11:12:26Z</time>
    </trkpt>
    <trkpt lat="38.615136975" lon="34.814806972">
      <ele>1313.104</ele>
      <time>2021-10-12T11:12:27Z</time>
    </trkpt>
    <trkpt lat="38.615142005" lon="34.814839996">
      <ele>1312.63</ele>
      <time>2021-10-12T11:12:28Z</time>
    </trkpt>
    <trkpt lat="38.615128007" lon="34.814862041">
      <ele>1312.098</ele>
      <time>2021-10-12T11:12:29Z</time>
    </trkpt>
    <trkpt lat="38.615109986" lon="34.814878972">
      <ele>1311.59</ele>
      <time>2021-10-12T11:12:30Z</time>
    </trkpt>
    <trkpt lat="38.615091965" lon="34.814868998">
      <ele>1311.526</ele>
      <time>2021-10-12T11:12:30Z</time>
    </trkpt>
    <trkpt lat="38.61508199" lon="34.814893976">
      <ele>1310.976</ele>
      <time>2021-10-12T11:12:31Z</time>
    </trkpt>
    <trkpt lat="38.61508199" lon="34.814922977">
      <ele>1310.485</ele>
      <time>2021-10-12T11:12:32Z</time>
    </trkpt>
    <trkpt lat="38.615072016" lon="34.814944016">
      <ele>1309.992</ele>
      <time>2021-10-12T11:12:33Z</time>
    </trkpt>
    <trkpt lat="38.615075033" lon="34.814966982">
      <ele>1309.643</ele>
      <time>2021-10-12T11:12:33Z</time>
    </trkpt>
    <trkpt lat="38.615080984" lon="34.814992966">
      <ele>1309.285</ele>
      <time>2021-10-12T11:12:34Z</time>
    </trkpt>
    <trkpt lat="38.615093976" lon="34.815115007">
      <ele>1307.971</ele>
      <time>2021-10-12T11:12:38Z</time>
    </trkpt>
    <trkpt lat="38.615053995" lon="34.815175021">
      <ele>1306.765</ele>
      <time>2021-10-12T11:12:40Z</time>
    </trkpt>
    <trkpt lat="38.615050977" lon="34.815202011">
      <ele>1306.419</ele>
      <time>2021-10-12T11:12:41Z</time>
    </trkpt>
    <trkpt lat="38.61506003" lon="34.815222966">
      <ele>1306.283</ele>
      <time>2021-10-12T11:12:42Z</time>
    </trkpt>
    <trkpt lat="38.615076039" lon="34.815351041">
      <ele>1304.838</ele>
      <time>2021-10-12T11:12:45Z</time>
    </trkpt>
    <trkpt lat="38.615098" lon="34.815466963">
      <ele>1303.574</ele>
      <time>2021-10-12T11:12:49Z</time>
    </trkpt>
    <trkpt lat="38.614992974" lon="34.815541981">
      <ele>1301.069</ele>
      <time>2021-10-12T11:12:53Z</time>
    </trkpt>
    <trkpt lat="38.614931032" lon="34.815521026">
      <ele>1300.256</ele>
      <time>2021-10-12T11:12:56Z</time>
    </trkpt>
    <trkpt lat="38.614904964" lon="34.815563019">
      <ele>1299.164</ele>
      <time>2021-10-12T11:12:57Z</time>
    </trkpt>
    <trkpt lat="38.614889961" lon="34.815580035">
      <ele>1298.614</ele>
      <time>2021-10-12T11:12:58Z</time>
    </trkpt>
    <trkpt lat="38.614869006" lon="34.815560002">
      <ele>1298.57</ele>
      <time>2021-10-12T11:12:59Z</time>
    </trkpt>
    <trkpt lat="38.614848973" lon="34.815555979">
      <ele>1298.275</ele>
      <time>2021-10-12T11:13:00Z</time>
    </trkpt>
    <trkpt lat="38.614837993" lon="34.815574">
      <ele>1297.791</ele>
      <time>2021-10-12T11:13:00Z</time>
    </trkpt>
    <trkpt lat="38.614819972" lon="34.815597972">
      <ele>1297.095</ele>
      <time>2021-10-12T11:13:01Z</time>
    </trkpt>
    <trkpt lat="38.614803962" lon="34.815615993">
      <ele>1296.537</ele>
      <time>2021-10-12T11:13:02Z</time>
    </trkpt>
    <trkpt lat="38.61481796" lon="34.815633008">
      <ele>1296.512</ele>
      <time>2021-10-12T11:13:03Z</time>
    </trkpt>
    <trkpt lat="38.614832964" lon="34.815648012">
      <ele>1296.529</ele>
      <time>2021-10-12T11:13:03Z</time>
    </trkpt>
    <trkpt lat="38.614850985" lon="34.815668967">
      <ele>1296.495</ele>
      <time>2021-10-12T11:13:04Z</time>
    </trkpt>
    <trkpt lat="38.614863977" lon="34.815694029">
      <ele>1296.303</ele>
      <time>2021-10-12T11:13:05Z</time>
    </trkpt>
    <trkpt lat="38.614875041" lon="34.81572303">
      <ele>1296.007</ele>
      <time>2021-10-12T11:13:06Z</time>
    </trkpt>
    <trkpt lat="38.61488401" lon="34.815745996">
      <ele>1295.771</ele>
      <time>2021-10-12T11:13:07Z</time>
    </trkpt>
    <trkpt lat="38.614897002" lon="34.815774998">
      <ele>1295.489</ele>
      <time>2021-10-12T11:13:08Z</time>
    </trkpt>
    <trkpt lat="38.614909993" lon="34.815800982">
      <ele>1295.249</ele>
      <time>2021-10-12T11:13:09Z</time>
    </trkpt>
    <trkpt lat="38.614920974" lon="34.815820009">
      <ele>1295.088</ele>
      <time>2021-10-12T11:13:09Z</time>
    </trkpt>
    <trkpt lat="38.614932038" lon="34.815851022">
      <ele>1294.798</ele>
      <time>2021-10-12T11:13:10Z</time>
    </trkpt>
    <trkpt lat="38.614947964" lon="34.815873988">
      <ele>1294.72</ele>
      <time>2021-10-12T11:13:11Z</time>
    </trkpt>
    <trkpt lat="38.614961039" lon="34.815899972">
      <ele>1294.547</ele>
      <time>2021-10-12T11:13:12Z</time>
    </trkpt>
    <trkpt lat="38.614977971" lon="34.815926962">
      <ele>1294.388</ele>
      <time>2021-10-12T11:13:13Z</time>
    </trkpt>
    <trkpt lat="38.614990963" lon="34.815952023">
      <ele>1294.189</ele>
      <time>2021-10-12T11:13:14Z</time>
    </trkpt>
    <trkpt lat="38.615005966" lon="34.815969961">
      <ele>1294.108</ele>
      <time>2021-10-12T11:13:15Z</time>
    </trkpt>
    <trkpt lat="38.615018958" lon="34.815987982">
      <ele>1294.008</ele>
      <time>2021-10-12T11:13:16Z</time>
    </trkpt>
    <trkpt lat="38.61503304" lon="34.816012038">
      <ele>1293.826</ele>
      <time>2021-10-12T11:13:16Z</time>
    </trkpt>
    <trkpt lat="38.615043014" lon="34.816043973">
      <ele>1293.469</ele>
      <time>2021-10-12T11:13:17Z</time>
    </trkpt>
    <trkpt lat="38.615062963" lon="34.816078003">
      <ele>1293.184</ele>
      <time>2021-10-12T11:13:19Z</time>
    </trkpt>
    <trkpt lat="38.615067992" lon="34.816092001">
      <ele>1293.026</ele>
      <time>2021-10-12T11:13:19Z</time>
    </trkpt>
    <trkpt lat="38.615075033" lon="34.816116979">
      <ele>1292.705</ele>
      <time>2021-10-12T11:13:20Z</time>
    </trkpt>
    <trkpt lat="38.615076039" lon="34.816145981">
      <ele>1292.194</ele>
      <time>2021-10-12T11:13:21Z</time>
    </trkpt>
    <trkpt lat="38.615077967" lon="34.816184035">
      <ele>1291.529</ele>
      <time>2021-10-12T11:13:22Z</time>
    </trkpt>
    <trkpt lat="38.615077967" lon="34.816222005">
      <ele>1290.846</ele>
      <time>2021-10-12T11:13:23Z</time>
    </trkpt>
    <trkpt lat="38.615079978" lon="34.816254023">
      <ele>1290.291</ele>
      <time>2021-10-12T11:13:24Z</time>
    </trkpt>
    <trkpt lat="38.615084002" lon="34.816286964">
      <ele>1289.742</ele>
      <time>2021-10-12T11:13:25Z</time>
    </trkpt>
    <trkpt lat="38.615091965" lon="34.81631496">
      <ele>1289.324</ele>
      <time>2021-10-12T11:13:26Z</time>
    </trkpt>
    <trkpt lat="38.615096994" lon="34.816345973">
      <ele>1288.82</ele>
      <time>2021-10-12T11:13:27Z</time>
    </trkpt>
    <trkpt lat="38.615103029" lon="34.816372041">
      <ele>1288.416</ele>
      <time>2021-10-12T11:13:27Z</time>
    </trkpt>
    <trkpt lat="38.615104035" lon="34.81639903">
      <ele>1288.023</ele>
      <time>2021-10-12T11:13:28Z</time>
    </trkpt>
    <trkpt lat="38.615101017" lon="34.816427026">
      <ele>1287.717</ele>
      <time>2021-10-12T11:13:29Z</time>
    </trkpt>
    <trkpt lat="38.615101017" lon="34.81645301">
      <ele>1287.461</ele>
      <time>2021-10-12T11:13:30Z</time>
    </trkpt>
    <trkpt lat="38.615094982" lon="34.81648">
      <ele>1287.146</ele>
      <time>2021-10-12T11:13:31Z</time>
    </trkpt>
    <trkpt lat="38.61507101" lon="34.816493997">
      <ele>1286.817</ele>
      <time>2021-10-12T11:13:32Z</time>
    </trkpt>
    <trkpt lat="38.615051983" lon="34.816488968">
      <ele>1286.706</ele>
      <time>2021-10-12T11:13:32Z</time>
    </trkpt>
    <trkpt lat="38.615056006" lon="34.816530962">
      <ele>1286.376</ele>
      <time>2021-10-12T11:13:34Z</time>
    </trkpt>
    <trkpt lat="38.615061035" lon="34.816544959">
      <ele>1286.289</ele>
      <time>2021-10-12T11:13:34Z</time>
    </trkpt>
    <trkpt lat="38.615063969" lon="34.816571027">
      <ele>1286.077</ele>
      <time>2021-10-12T11:13:35Z</time>
    </trkpt>
    <trkpt lat="38.615067992" lon="34.816598017">
      <ele>1285.86</ele>
      <time>2021-10-12T11:13:36Z</time>
    </trkpt>
    <trkpt lat="38.615067992" lon="34.81662903">
      <ele>1285.582</ele>
      <time>2021-10-12T11:13:36Z</time>
    </trkpt>
    <trkpt lat="38.615067992" lon="34.816659037">
      <ele>1285.313</ele>
      <time>2021-10-12T11:13:37Z</time>
    </trkpt>
    <trkpt lat="38.615064975" lon="34.816684015">
      <ele>1285.157</ele>
      <time>2021-10-12T11:13:38Z</time>
    </trkpt>
    <trkpt lat="38.615056006" lon="34.816712011">
      <ele>1285.005</ele>
      <time>2021-10-12T11:13:39Z</time>
    </trkpt>
    <trkpt lat="38.615049971" lon="34.816733971">
      <ele>1284.894</ele>
      <time>2021-10-12T11:13:40Z</time>
    </trkpt>
    <trkpt lat="38.61504796" lon="34.81676599">
      <ele>1284.753</ele>
      <time>2021-10-12T11:13:41Z</time>
    </trkpt>
    <trkpt lat="38.615052989" lon="34.816799015">
      <ele>1284.623</ele>
      <time>2021-10-12T11:13:42Z</time>
    </trkpt>
    <trkpt lat="38.615068998" lon="34.816815024">
      <ele>1284.582</ele>
      <time>2021-10-12T11:13:42Z</time>
    </trkpt>
    <trkpt lat="38.615080984" lon="34.816832962">
      <ele>1284.518</ele>
      <time>2021-10-12T11:13:43Z</time>
    </trkpt>
    <trkpt lat="38.615090959" lon="34.816865986">
      <ele>1284.375</ele>
      <time>2021-10-12T11:13:44Z</time>
    </trkpt>
    <trkpt lat="38.615104035" lon="34.816890964">
      <ele>1284.265</ele>
      <time>2021-10-12T11:13:45Z</time>
    </trkpt>
    <trkpt lat="38.615105962" lon="34.816918038">
      <ele>1284.131</ele>
      <time>2021-10-12T11:13:46Z</time>
    </trkpt>
    <trkpt lat="38.61510898" lon="34.816947961">
      <ele>1284.056</ele>
      <time>2021-10-12T11:13:47Z</time>
    </trkpt>
    <trkpt lat="38.615114009" lon="34.816976963">
      <ele>1284.51</ele>
      <time>2021-10-12T11:13:47Z</time>
    </trkpt>
    <trkpt lat="38.615134964" lon="34.816987021">
      <ele>1284.622</ele>
      <time>2021-10-12T11:13:48Z</time>
    </trkpt>
    <trkpt lat="38.615152985" lon="34.817010993">
      <ele>1284.91</ele>
      <time>2021-10-12T11:13:49Z</time>
    </trkpt>
    <trkpt lat="38.615211993" lon="34.817053992">
      <ele>1285.162</ele>
      <time>2021-10-12T11:13:52Z</time>
    </trkpt>
    <trkpt lat="38.61523102" lon="34.817062039">
      <ele>1285.132</ele>
      <time>2021-10-12T11:13:52Z</time>
    </trkpt>
    <trkpt lat="38.615287011" lon="34.81709498">
      <ele>1285.051</ele>
      <time>2021-10-12T11:13:55Z</time>
    </trkpt>
    <trkpt lat="38.61548801" lon="34.817085005">
      <ele>1284.255</ele>
      <time>2021-10-12T11:14:02Z</time>
    </trkpt>
    <trkpt lat="38.615569985" lon="34.817148959">
      <ele>1284.437</ele>
      <time>2021-10-12T11:14:06Z</time>
    </trkpt>
    <trkpt lat="38.615584988" lon="34.817207968">
      <ele>1284.713</ele>
      <time>2021-10-12T11:14:08Z</time>
    </trkpt>
    <trkpt lat="38.615594041" lon="34.817240993">
      <ele>1285.014</ele>
      <time>2021-10-12T11:14:09Z</time>
    </trkpt>
    <trkpt lat="38.615640979" lon="34.817303019">
      <ele>1285.392</ele>
      <time>2021-10-12T11:14:11Z</time>
    </trkpt>
    <trkpt lat="38.615695965" lon="34.817413995">
      <ele>1285.696</ele>
      <time>2021-10-12T11:14:15Z</time>
    </trkpt>
    <trkpt lat="38.615742987" lon="34.817564031">
      <ele>1285.727</ele>
      <time>2021-10-12T11:14:20Z</time>
    </trkpt>
    <trkpt lat="38.615790009" lon="34.817676013">
      <ele>1284.685</ele>
      <time>2021-10-12T11:14:23Z</time>
    </trkpt>
    <trkpt lat="38.615807025" lon="34.817812974">
      <ele>1284.509</ele>
      <time>2021-10-12T11:14:27Z</time>
    </trkpt>
    <trkpt lat="38.61583896" lon="34.817937026">
      <ele>1283.95</ele>
      <time>2021-10-12T11:14:31Z</time>
    </trkpt>
    <trkpt lat="38.615897968" lon="34.818050014">
      <ele>1282.414</ele>
      <time>2021-10-12T11:14:35Z</time>
    </trkpt>
    <trkpt lat="38.615943985" lon="34.818151016">
      <ele>1283.094</ele>
      <time>2021-10-12T11:14:38Z</time>
    </trkpt>
    <trkpt lat="38.616063008" lon="34.818134001">
      <ele>1277.697</ele>
      <time>2021-10-12T11:14:43Z</time>
    </trkpt>
    <trkpt lat="38.616154036" lon="34.818083961">
      <ele>1274.519</ele>
      <time>2021-10-12T11:14:46Z</time>
    </trkpt>
    <trkpt lat="38.616270041" lon="34.818104999">
      <ele>1274.457</ele>
      <time>2021-10-12T11:14:51Z</time>
    </trkpt>
    <trkpt lat="38.616391998" lon="34.818202984">
      <ele>1274.032</ele>
      <time>2021-10-12T11:14:56Z</time>
    </trkpt>
    <trkpt lat="38.616470033" lon="34.818269033">
      <ele>1274.406</ele>
      <time>2021-10-12T11:15:00Z</time>
    </trkpt>
    <trkpt lat="38.616561983" lon="34.818323012">
      <ele>1274.139</ele>
      <time>2021-10-12T11:15:03Z</time>
    </trkpt>
    <trkpt lat="38.616638007" lon="34.818439018">
      <ele>1272.976</ele>
      <time>2021-10-12T11:15:08Z</time>
    </trkpt>
    <trkpt lat="38.616697015" lon="34.818585031">
      <ele>1271.729</ele>
      <time>2021-10-12T11:15:12Z</time>
    </trkpt>
    <trkpt lat="38.616713025" lon="34.818634987">
      <ele>1271.567</ele>
      <time>2021-10-12T11:15:14Z</time>
    </trkpt>
    <trkpt lat="38.616725011" lon="34.818685027">
      <ele>1271.518</ele>
      <time>2021-10-12T11:15:16Z</time>
    </trkpt>
    <trkpt lat="38.61674496" lon="34.818843026">
      <ele>1271.057</ele>
      <time>2021-10-12T11:15:20Z</time>
    </trkpt>
    <trkpt lat="38.616769016" lon="34.819003036">
      <ele>1270.392</ele>
      <time>2021-10-12T11:15:25Z</time>
    </trkpt>
    <trkpt lat="38.616786031" lon="34.819148965">
      <ele>1269.548</ele>
      <time>2021-10-12T11:15:29Z</time>
    </trkpt>
    <trkpt lat="38.616834981" lon="34.819300007">
      <ele>1268.253</ele>
      <time>2021-10-12T11:15:34Z</time>
    </trkpt>
    <trkpt lat="38.616901031" lon="34.819412995">
      <ele>1266.712</ele>
      <time>2021-10-12T11:15:38Z</time>
    </trkpt>
    <trkpt lat="38.616956016" lon="34.819540987">
      <ele>1265.472</ele>
      <time>2021-10-12T11:15:42Z</time>
    </trkpt>
    <trkpt lat="38.616952999" lon="34.819676019">
      <ele>1264.456</ele>
      <time>2021-10-12T11:15:46Z</time>
    </trkpt>
    <trkpt lat="38.616957022" lon="34.819794036">
      <ele>1263.911</ele>
      <time>2021-10-12T11:15:50Z</time>
    </trkpt>
    <trkpt lat="38.616956016" lon="34.819846004">
      <ele>1263.702</ele>
      <time>2021-10-12T11:15:51Z</time>
    </trkpt>
    <trkpt lat="38.616947969" lon="34.819897972">
      <ele>1263.41</ele>
      <time>2021-10-12T11:15:53Z</time>
    </trkpt>
    <trkpt lat="38.616930032" lon="34.81993896">
      <ele>1263.427</ele>
      <time>2021-10-12T11:15:54Z</time>
    </trkpt>
    <trkpt lat="38.616901031" lon="34.819973996">
      <ele>1263.719</ele>
      <time>2021-10-12T11:15:56Z</time>
    </trkpt>
    <trkpt lat="38.616899019" lon="34.820103999">
      <ele>1262.905</ele>
      <time>2021-10-12T11:15:59Z</time>
    </trkpt>
    <trkpt lat="38.616909999" lon="34.820142975">
      <ele>1262.467</ele>
      <time>2021-10-12T11:16:01Z</time>
    </trkpt>
    <trkpt lat="38.616913017" lon="34.820182035">
      <ele>1262.142</ele>
      <time>2021-10-12T11:16:02Z</time>
    </trkpt>
    <trkpt lat="38.616894996" lon="34.820222016">
      <ele>1262.114</ele>
      <time>2021-10-12T11:16:03Z</time>
    </trkpt>
    <trkpt lat="38.616880998" lon="34.820261998">
      <ele>1262.027</ele>
      <time>2021-10-12T11:16:04Z</time>
    </trkpt>
    <trkpt lat="38.616872029" lon="34.820302986">
      <ele>1261.952</ele>
      <time>2021-10-12T11:16:06Z</time>
    </trkpt>
    <trkpt lat="38.616871024" lon="34.820354031">
      <ele>1261.783</ele>
      <time>2021-10-12T11:16:07Z</time>
    </trkpt>
    <trkpt lat="38.616872029" lon="34.820403988">
      <ele>1261.588</ele>
      <time>2021-10-12T11:16:08Z</time>
    </trkpt>
    <trkpt lat="38.616870018" lon="34.820457967">
      <ele>1261.423</ele>
      <time>2021-10-12T11:16:10Z</time>
    </trkpt>
    <trkpt lat="38.616872029" lon="34.820509013">
      <ele>1261.21</ele>
      <time>2021-10-12T11:16:11Z</time>
    </trkpt>
    <trkpt lat="38.616877981" lon="34.820557041">
      <ele>1260.96</ele>
      <time>2021-10-12T11:16:13Z</time>
    </trkpt>
    <trkpt lat="38.616887033" lon="34.82060398">
      <ele>1260.899</ele>
      <time>2021-10-12T11:16:14Z</time>
    </trkpt>
    <trkpt lat="38.616899019" lon="34.820649996">
      <ele>1260.765</ele>
      <time>2021-10-12T11:16:16Z</time>
    </trkpt>
    <trkpt lat="38.616912011" lon="34.820697019">
      <ele>1260.586</ele>
      <time>2021-10-12T11:16:17Z</time>
    </trkpt>
    <trkpt lat="38.616919974" lon="34.820744041">
      <ele>1260.472</ele>
      <time>2021-10-12T11:16:19Z</time>
    </trkpt>
    <trkpt lat="38.616931038" lon="34.820798021">
      <ele>1260.277</ele>
      <time>2021-10-12T11:16:20Z</time>
    </trkpt>
    <trkpt lat="38.616932966" lon="34.820847977">
      <ele>1260.252</ele>
      <time>2021-10-12T11:16:22Z</time>
    </trkpt>
    <trkpt lat="38.616934977" lon="34.82090204">
      <ele>1260.221</ele>
      <time>2021-10-12T11:16:23Z</time>
    </trkpt>
    <trkpt lat="38.61693196" lon="34.820954008">
      <ele>1260.309</ele>
      <time>2021-10-12T11:16:25Z</time>
    </trkpt>
    <trkpt lat="38.616932966" lon="34.821002036">
      <ele>1260.298</ele>
      <time>2021-10-12T11:16:26Z</time>
    </trkpt>
    <trkpt lat="38.616932966" lon="34.821056016">
      <ele>1260.314</ele>
      <time>2021-10-12T11:16:28Z</time>
    </trkpt>
    <trkpt lat="38.616935983" lon="34.82110396">
      <ele>1260.242</ele>
      <time>2021-10-12T11:16:29Z</time>
    </trkpt>
    <trkpt lat="38.616943024" lon="34.821154">
      <ele>1260.35</ele>
      <time>2021-10-12T11:16:31Z</time>
    </trkpt>
    <trkpt lat="38.616948975" lon="34.821201023">
      <ele>1260.588</ele>
      <time>2021-10-12T11:16:32Z</time>
    </trkpt>
    <trkpt lat="38.616962973" lon="34.821244022">
      <ele>1260.664</ele>
      <time>2021-10-12T11:16:33Z</time>
    </trkpt>
    <trkpt lat="38.616998009" lon="34.821325997">
      <ele>1260.416</ele>
      <time>2021-10-12T11:16:36Z</time>
    </trkpt>
    <trkpt lat="38.617062969" lon="34.821458012">
      <ele>1259.119</ele>
      <time>2021-10-12T11:16:41Z</time>
    </trkpt>
    <trkpt lat="38.617069004" lon="34.821502017">
      <ele>1259.044</ele>
      <time>2021-10-12T11:16:42Z</time>
    </trkpt>
    <trkpt lat="38.617071016" lon="34.821623974">
      <ele>1259.196</ele>
      <time>2021-10-12T11:16:45Z</time>
    </trkpt>
    <trkpt lat="38.617083002" lon="34.821656998">
      <ele>1258.99</ele>
      <time>2021-10-12T11:16:46Z</time>
    </trkpt>
    <trkpt lat="38.61710798" lon="34.821688011">
      <ele>1258.468</ele>
      <time>2021-10-12T11:16:48Z</time>
    </trkpt>
    <trkpt lat="38.617138993" lon="34.82170796">
      <ele>1257.798</ele>
      <time>2021-10-12T11:16:49Z</time>
    </trkpt>
    <trkpt lat="38.617162965" lon="34.821719024">
      <ele>1257.28</ele>
      <time>2021-10-12T11:16:50Z</time>
    </trkpt>
    <trkpt lat="38.617229015" lon="34.821742997">
      <ele>1255.969</ele>
      <time>2021-10-12T11:16:52Z</time>
    </trkpt>
    <trkpt lat="38.617261034" lon="34.821753977">
      <ele>1255.816</ele>
      <time>2021-10-12T11:16:54Z</time>
    </trkpt>
    <trkpt lat="38.617301015" lon="34.821765041">
      <ele>1255.616</ele>
      <time>2021-10-12T11:16:55Z</time>
    </trkpt>
    <trkpt lat="38.617336974" lon="34.821781972">
      <ele>1255.415</ele>
      <time>2021-10-12T11:16:57Z</time>
    </trkpt>
    <trkpt lat="38.617376033" lon="34.821812985">
      <ele>1255.155</ele>
      <time>2021-10-12T11:16:58Z</time>
    </trkpt>
    <trkpt lat="38.617411992" lon="34.821848022">
      <ele>1254.871</ele>
      <time>2021-10-12T11:17:00Z</time>
    </trkpt>
    <trkpt lat="38.617440993" lon="34.821881969">
      <ele>1254.602</ele>
      <time>2021-10-12T11:17:01Z</time>
    </trkpt>
    <trkpt lat="38.617462032" lon="34.82192304">
      <ele>1254.34</ele>
      <time>2021-10-12T11:17:03Z</time>
    </trkpt>
    <trkpt lat="38.617510982" lon="34.822067041">
      <ele>1253.739</ele>
      <time>2021-10-12T11:17:07Z</time>
    </trkpt>
    <trkpt lat="38.617512994" lon="34.82211398">
      <ele>1253.595</ele>
      <time>2021-10-12T11:17:09Z</time>
    </trkpt>
    <trkpt lat="38.617516011" lon="34.822165025">
      <ele>1253.448</ele>
      <time>2021-10-12T11:17:10Z</time>
    </trkpt>
    <trkpt lat="38.617520034" lon="34.822211964">
      <ele>1253.328</ele>
      <time>2021-10-12T11:17:12Z</time>
    </trkpt>
    <trkpt lat="38.617522968" lon="34.822255969">
      <ele>1253.078</ele>
      <time>2021-10-12T11:17:13Z</time>
    </trkpt>
    <trkpt lat="38.617521962" lon="34.822301986">
      <ele>1252.719</ele>
      <time>2021-10-12T11:17:14Z</time>
    </trkpt>
    <trkpt lat="38.617523974" lon="34.82235102">
      <ele>1252.378</ele>
      <time>2021-10-12T11:17:16Z</time>
    </trkpt>
    <trkpt lat="38.617527997" lon="34.822402988">
      <ele>1252.036</ele>
      <time>2021-10-12T11:17:17Z</time>
    </trkpt>
    <trkpt lat="38.61753202" lon="34.822451016">
      <ele>1251.719</ele>
      <time>2021-10-12T11:17:19Z</time>
    </trkpt>
    <trkpt lat="38.61752498" lon="34.822500972">
      <ele>1251.262</ele>
      <time>2021-10-12T11:17:20Z</time>
    </trkpt>
    <trkpt lat="38.617511988" lon="34.82255403">
      <ele>1250.732</ele>
      <time>2021-10-12T11:17:22Z</time>
    </trkpt>
    <trkpt lat="38.617506959" lon="34.822599962">
      <ele>1250.346</ele>
      <time>2021-10-12T11:17:23Z</time>
    </trkpt>
    <trkpt lat="38.617506037" lon="34.82264204">
      <ele>1250.031</ele>
      <time>2021-10-12T11:17:24Z</time>
    </trkpt>
    <trkpt lat="38.617505031" lon="34.822675986">
      <ele>1249.776</ele>
      <time>2021-10-12T11:17:25Z</time>
    </trkpt>
    <trkpt lat="38.617521962" lon="34.822792998">
      <ele>1249.095</ele>
      <time>2021-10-12T11:17:29Z</time>
    </trkpt>
    <trkpt lat="38.617526991" lon="34.82284396">
      <ele>1248.91</ele>
      <time>2021-10-12T11:17:30Z</time>
    </trkpt>
    <trkpt lat="38.617523974" lon="34.822875978">
      <ele>1248.758</ele>
      <time>2021-10-12T11:17:31Z</time>
    </trkpt>
    <trkpt lat="38.617525985" lon="34.822906991">
      <ele>1248.635</ele>
      <time>2021-10-12T11:17:32Z</time>
    </trkpt>
    <trkpt lat="38.617545012" lon="34.822940016">
      <ele>1248.551</ele>
      <time>2021-10-12T11:17:33Z</time>
    </trkpt>
    <trkpt lat="38.617572002" lon="34.822961977">
      <ele>1248.512</ele>
      <time>2021-10-12T11:17:34Z</time>
    </trkpt>
    <trkpt lat="38.617601003" lon="34.822978992">
      <ele>1248.476</ele>
      <time>2021-10-12T11:17:36Z</time>
    </trkpt>
    <trkpt lat="38.617625982" lon="34.822993996">
      <ele>1248.423</ele>
      <time>2021-10-12T11:17:37Z</time>
    </trkpt>
    <trkpt lat="38.61765096" lon="34.823022997">
      <ele>1248.245</ele>
      <time>2021-10-12T11:17:38Z</time>
    </trkpt>
    <trkpt lat="38.617678033" lon="34.823067002">
      <ele>1248.033</ele>
      <time>2021-10-12T11:17:40Z</time>
    </trkpt>
    <trkpt lat="38.617680967" lon="34.823215026">
      <ele>1248.426</ele>
      <time>2021-10-12T11:17:44Z</time>
    </trkpt>
    <trkpt lat="38.617731007" lon="34.823342012">
      <ele>1247.931</ele>
      <time>2021-10-12T11:17:48Z</time>
    </trkpt>
    <trkpt lat="38.617743999" lon="34.823373025">
      <ele>1247.981</ele>
      <time>2021-10-12T11:17:49Z</time>
    </trkpt>
    <trkpt lat="38.617812982" lon="34.823495988">
      <ele>1247.979</ele>
      <time>2021-10-12T11:17:53Z</time>
    </trkpt>
    <trkpt lat="38.617841983" lon="34.823538987">
      <ele>1247.916</ele>
      <time>2021-10-12T11:17:55Z</time>
    </trkpt>
    <trkpt lat="38.617875008" lon="34.823575029">
      <ele>1247.613</ele>
      <time>2021-10-12T11:17:57Z</time>
    </trkpt>
    <trkpt lat="38.617897974" lon="34.823591039">
      <ele>1247.312</ele>
      <time>2021-10-12T11:17:58Z</time>
    </trkpt>
    <trkpt lat="38.617996965" lon="34.823663039">
      <ele>1245.588</ele>
      <time>2021-10-12T11:18:02Z</time>
    </trkpt>
    <trkpt lat="38.618008029" lon="34.82370696">
      <ele>1245.171</ele>
      <time>2021-10-12T11:18:03Z</time>
    </trkpt>
    <trkpt lat="38.618045999" lon="34.823830007">
      <ele>1243.643</ele>
      <time>2021-10-12T11:18:07Z</time>
    </trkpt>
    <trkpt lat="38.618111964" lon="34.82396001">
      <ele>1242.995</ele>
      <time>2021-10-12T11:18:11Z</time>
    </trkpt>
    <trkpt lat="38.618183965" lon="34.82407501">
      <ele>1242.223</ele>
      <time>2021-10-12T11:18:16Z</time>
    </trkpt>
    <trkpt lat="38.618237022" lon="34.824206019">
      <ele>1241.144</ele>
      <time>2021-10-12T11:18:20Z</time>
    </trkpt>
    <trkpt lat="38.618283039" lon="34.824354965">
      <ele>1240.479</ele>
      <time>2021-10-12T11:18:25Z</time>
    </trkpt>
    <trkpt lat="38.618300976" lon="34.824396037">
      <ele>1240.005</ele>
      <time>2021-10-12T11:18:26Z</time>
    </trkpt>
    <trkpt lat="38.618364008" lon="34.824503995">
      <ele>1239.113</ele>
      <time>2021-10-12T11:18:30Z</time>
    </trkpt>
    <trkpt lat="38.618458975" lon="34.824582031">
      <ele>1238.19</ele>
      <time>2021-10-12T11:18:34Z</time>
    </trkpt>
    <trkpt lat="38.618543968" lon="34.824646991">
      <ele>1236.73</ele>
      <time>2021-10-12T11:18:38Z</time>
    </trkpt>
    <trkpt lat="38.618627032" lon="34.824671969">
      <ele>1235.278</ele>
      <time>2021-10-12T11:18:41Z</time>
    </trkpt>
    <trkpt lat="38.618671037" lon="34.82468999">
      <ele>1234.876</ele>
      <time>2021-10-12T11:18:43Z</time>
    </trkpt>
    <trkpt lat="38.618710013" lon="34.824705999">
      <ele>1234.467</ele>
      <time>2021-10-12T11:18:44Z</time>
    </trkpt>
    <trkpt lat="38.618746977" lon="34.824715974">
      <ele>1234.1</ele>
      <time>2021-10-12T11:18:46Z</time>
    </trkpt>
    <trkpt lat="38.618786037" lon="34.824717985">
      <ele>1233.8</ele>
      <time>2021-10-12T11:18:47Z</time>
    </trkpt>
    <trkpt lat="38.618823001" lon="34.824710023">
      <ele>1233.663</ele>
      <time>2021-10-12T11:18:48Z</time>
    </trkpt>
    <trkpt lat="38.618862983" lon="34.824703988">
      <ele>1233.496</ele>
      <time>2021-10-12T11:18:50Z</time>
    </trkpt>
    <trkpt lat="38.618905982" lon="34.824697031">
      <ele>1233.577</ele>
      <time>2021-10-12T11:18:51Z</time>
    </trkpt>
    <trkpt lat="38.618947975" lon="34.824686972">
      <ele>1234.06</ele>
      <time>2021-10-12T11:18:53Z</time>
    </trkpt>
    <trkpt lat="38.619070016" lon="34.824728966">
      <ele>1234.257</ele>
      <time>2021-10-12T11:18:58Z</time>
    </trkpt>
    <trkpt lat="38.619122989" lon="34.824799038">
      <ele>1233.986</ele>
      <time>2021-10-12T11:19:01Z</time>
    </trkpt>
    <trkpt lat="38.619145034" lon="34.824853018">
      <ele>1233.542</ele>
      <time>2021-10-12T11:19:02Z</time>
    </trkpt>
    <trkpt lat="38.619188033" lon="34.824953014">
      <ele>1232.738</ele>
      <time>2021-10-12T11:19:06Z</time>
    </trkpt>
    <trkpt lat="38.619204964" lon="34.825001964">
      <ele>1232.415</ele>
      <time>2021-10-12T11:19:07Z</time>
    </trkpt>
    <trkpt lat="38.619255004" lon="34.825148983">
      <ele>1232.467</ele>
      <time>2021-10-12T11:19:12Z</time>
    </trkpt>
    <trkpt lat="38.619292974" lon="34.825284015">
      <ele>1231.66</ele>
      <time>2021-10-12T11:19:16Z</time>
    </trkpt>
    <trkpt lat="38.619312001" lon="34.825361967">
      <ele>1231.719</ele>
      <time>2021-10-12T11:19:18Z</time>
    </trkpt>
    <trkpt lat="38.61934796" lon="34.825475961">
      <ele>1231.538</ele>
      <time>2021-10-12T11:19:22Z</time>
    </trkpt>
    <trkpt lat="38.619363969" lon="34.825514015">
      <ele>1231.362</ele>
      <time>2021-10-12T11:19:23Z</time>
    </trkpt>
    <trkpt lat="38.619386014" lon="34.825551985">
      <ele>1231.046</ele>
      <time>2021-10-12T11:19:25Z</time>
    </trkpt>
    <trkpt lat="38.619405963" lon="34.82558501">
      <ele>1230.919</ele>
      <time>2021-10-12T11:19:26Z</time>
    </trkpt>
    <trkpt lat="38.619516017" lon="34.82562298">
      <ele>1229.587</ele>
      <time>2021-10-12T11:19:30Z</time>
    </trkpt>
    <trkpt lat="38.619544012" lon="34.825645024">
      <ele>1229.338</ele>
      <time>2021-10-12T11:19:31Z</time>
    </trkpt>
    <trkpt lat="38.619571002" lon="34.825674025">
      <ele>1229.098</ele>
      <time>2021-10-12T11:19:33Z</time>
    </trkpt>
    <trkpt lat="38.619594974" lon="34.82571803">
      <ele>1228.91</ele>
      <time>2021-10-12T11:19:34Z</time>
    </trkpt>
    <trkpt lat="38.619612996" lon="34.825761029">
      <ele>1228.761</ele>
      <time>2021-10-12T11:19:35Z</time>
    </trkpt>
    <trkpt lat="38.619627999" lon="34.825803023">
      <ele>1228.622</ele>
      <time>2021-10-12T11:19:37Z</time>
    </trkpt>
    <trkpt lat="38.61964602" lon="34.825847028">
      <ele>1228.56</ele>
      <time>2021-10-12T11:19:38Z</time>
    </trkpt>
    <trkpt lat="38.619672004" lon="34.825890027">
      <ele>1228.627</ele>
      <time>2021-10-12T11:19:40Z</time>
    </trkpt>
    <trkpt lat="38.619695976" lon="34.825925985">
      <ele>1228.568</ele>
      <time>2021-10-12T11:19:41Z</time>
    </trkpt>
    <trkpt lat="38.619779963" lon="34.82602397">
      <ele>1227.787</ele>
      <time>2021-10-12T11:19:45Z</time>
    </trkpt>
    <trkpt lat="38.619892029" lon="34.82600796">
      <ele>1225.358</ele>
      <time>2021-10-12T11:19:50Z</time>
    </trkpt>
    <trkpt lat="38.619942991" lon="34.825968985">
      <ele>1224.547</ele>
      <time>2021-10-12T11:19:52Z</time>
    </trkpt>
    <trkpt lat="38.619994037" lon="34.825949036">
      <ele>1223.847</ele>
      <time>2021-10-12T11:19:54Z</time>
    </trkpt>
    <trkpt lat="38.620013986" lon="34.825958004">
      <ele>1223.681</ele>
      <time>2021-10-12T11:19:55Z</time>
    </trkpt>
    <trkpt lat="38.620035024" lon="34.825987006">
      <ele>1223.397</ele>
      <time>2021-10-12T11:19:56Z</time>
    </trkpt>
    <trkpt lat="38.620053967" lon="34.82601299">
      <ele>1223.128</ele>
      <time>2021-10-12T11:19:57Z</time>
    </trkpt>
    <trkpt lat="38.620072994" lon="34.826042997">
      <ele>1222.8</ele>
      <time>2021-10-12T11:19:58Z</time>
    </trkpt>
    <trkpt lat="38.620095039" lon="34.826082978">
      <ele>1222.338</ele>
      <time>2021-10-12T11:19:59Z</time>
    </trkpt>
    <trkpt lat="38.620118005" lon="34.826130001">
      <ele>1222.02</ele>
      <time>2021-10-12T11:20:01Z</time>
    </trkpt>
    <trkpt lat="38.620138038" lon="34.826184986">
      <ele>1222.003</ele>
      <time>2021-10-12T11:20:03Z</time>
    </trkpt>
    <trkpt lat="38.620153042" lon="34.826236032">
      <ele>1221.908</ele>
      <time>2021-10-12T11:20:04Z</time>
    </trkpt>
    <trkpt lat="38.620166034" lon="34.826289006">
      <ele>1221.75</ele>
      <time>2021-10-12T11:20:06Z</time>
    </trkpt>
    <trkpt lat="38.620181959" lon="34.826334016">
      <ele>1221.502</ele>
      <time>2021-10-12T11:20:07Z</time>
    </trkpt>
    <trkpt lat="38.620189" lon="34.826382967">
      <ele>1221.294</ele>
      <time>2021-10-12T11:20:09Z</time>
    </trkpt>
    <trkpt lat="38.620196963" lon="34.826490004">
      <ele>1221.74</ele>
      <time>2021-10-12T11:20:12Z</time>
    </trkpt>
    <trkpt lat="38.620196963" lon="34.826550018">
      <ele>1222.081</ele>
      <time>2021-10-12T11:20:14Z</time>
    </trkpt>
    <trkpt lat="38.620196041" lon="34.826603997">
      <ele>1222.407</ele>
      <time>2021-10-12T11:20:15Z</time>
    </trkpt>
    <trkpt lat="38.620194029" lon="34.826653032">
      <ele>1222.73</ele>
      <time>2021-10-12T11:20:17Z</time>
    </trkpt>
    <trkpt lat="38.620191012" lon="34.826703994">
      <ele>1223.134</ele>
      <time>2021-10-12T11:20:18Z</time>
    </trkpt>
    <trkpt lat="38.620192017" lon="34.826796027">
      <ele>1223.749</ele>
      <time>2021-10-12T11:20:21Z</time>
    </trkpt>
    <trkpt lat="38.620198974" lon="34.826839026">
      <ele>1223.851</ele>
      <time>2021-10-12T11:20:22Z</time>
    </trkpt>
    <trkpt lat="38.620211966" lon="34.826880014">
      <ele>1223.735</ele>
      <time>2021-10-12T11:20:23Z</time>
    </trkpt>
    <trkpt lat="38.620220013" lon="34.826923013">
      <ele>1223.746</ele>
      <time>2021-10-12T11:20:25Z</time>
    </trkpt>
    <trkpt lat="38.620224958" lon="34.826964">
      <ele>1223.795</ele>
      <time>2021-10-12T11:20:26Z</time>
    </trkpt>
    <trkpt lat="38.620233005" lon="34.827005994">
      <ele>1223.708</ele>
      <time>2021-10-12T11:20:27Z</time>
    </trkpt>
    <trkpt lat="38.620240968" lon="34.827044969">
      <ele>1223.602</ele>
      <time>2021-10-12T11:20:28Z</time>
    </trkpt>
    <trkpt lat="38.620252032" lon="34.827081012">
      <ele>1223.371</ele>
      <time>2021-10-12T11:20:29Z</time>
    </trkpt>
    <trkpt lat="38.620265024" lon="34.82711697">
      <ele>1223.063</ele>
      <time>2021-10-12T11:20:30Z</time>
    </trkpt>
    <trkpt lat="38.620283967" lon="34.827146977">
      <ele>1222.691</ele>
      <time>2021-10-12T11:20:32Z</time>
    </trkpt>
    <trkpt lat="38.620306011" lon="34.827173967">
      <ele>1222.641</ele>
      <time>2021-10-12T11:20:33Z</time>
    </trkpt>
    <trkpt lat="38.620326966" lon="34.827192994">
      <ele>1222.559</ele>
      <time>2021-10-12T11:20:34Z</time>
    </trkpt>
    <trkpt lat="38.620346999" lon="34.827217972">
      <ele>1222.49</ele>
      <time>2021-10-12T11:20:35Z</time>
    </trkpt>
    <trkpt lat="38.620367032" lon="34.827242028">
      <ele>1222.48</ele>
      <time>2021-10-12T11:20:36Z</time>
    </trkpt>
    <trkpt lat="38.620393015" lon="34.827271029">
      <ele>1222.406</ele>
      <time>2021-10-12T11:20:37Z</time>
    </trkpt>
    <trkpt lat="38.620414976" lon="34.827312017">
      <ele>1222.343</ele>
      <time>2021-10-12T11:20:38Z</time>
    </trkpt>
    <trkpt lat="38.620438026" lon="34.827357028">
      <ele>1222.182</ele>
      <time>2021-10-12T11:20:40Z</time>
    </trkpt>
    <trkpt lat="38.620455964" lon="34.827399021">
      <ele>1221.993</ele>
      <time>2021-10-12T11:20:41Z</time>
    </trkpt>
    <trkpt lat="38.620470967" lon="34.827444032">
      <ele>1221.783</ele>
      <time>2021-10-12T11:20:43Z</time>
    </trkpt>
    <trkpt lat="38.620526958" lon="34.827565989">
      <ele>1220.405</ele>
      <time>2021-10-12T11:20:47Z</time>
    </trkpt>
    <trkpt lat="38.620587979" lon="34.827684006">
      <ele>1219.339</ele>
      <time>2021-10-12T11:20:51Z</time>
    </trkpt>
    <trkpt lat="38.620661991" lon="34.827779979">
      <ele>1218.608</ele>
      <time>2021-10-12T11:20:55Z</time>
    </trkpt>
    <trkpt lat="38.620697027" lon="34.827847034">
      <ele>1218.11</ele>
      <time>2021-10-12T11:20:57Z</time>
    </trkpt>
    <trkpt lat="38.62071597" lon="34.827894978">
      <ele>1217.692</ele>
      <time>2021-10-12T11:20:59Z</time>
    </trkpt>
    <trkpt lat="38.620729968" lon="34.827937977">
      <ele>1217.286</ele>
      <time>2021-10-12T11:21:00Z</time>
    </trkpt>
    <trkpt lat="38.620740026" lon="34.827986006">
      <ele>1216.842</ele>
      <time>2021-10-12T11:21:02Z</time>
    </trkpt>
    <trkpt lat="38.620750001" lon="34.828036968">
      <ele>1216.341</ele>
      <time>2021-10-12T11:21:03Z</time>
    </trkpt>
    <trkpt lat="38.620767016" lon="34.828087008">
      <ele>1215.783</ele>
      <time>2021-10-12T11:21:05Z</time>
    </trkpt>
    <trkpt lat="38.62078202" lon="34.828133024">
      <ele>1215.284</ele>
      <time>2021-10-12T11:21:06Z</time>
    </trkpt>
    <trkpt lat="38.620791994" lon="34.828176023">
      <ele>1214.857</ele>
      <time>2021-10-12T11:21:07Z</time>
    </trkpt>
    <trkpt lat="38.620802974" lon="34.828212988">
      <ele>1214.428</ele>
      <time>2021-10-12T11:21:09Z</time>
    </trkpt>
    <trkpt lat="38.62081496" lon="34.828251963">
      <ele>1213.944</ele>
      <time>2021-10-12T11:21:10Z</time>
    </trkpt>
    <trkpt lat="38.620828958" lon="34.828292029">
      <ele>1213.387</ele>
      <time>2021-10-12T11:21:11Z</time>
    </trkpt>
    <trkpt lat="38.620833987" lon="34.828335028">
      <ele>1213.009</ele>
      <time>2021-10-12T11:21:12Z</time>
    </trkpt>
    <trkpt lat="38.620838011" lon="34.828376016">
      <ele>1213.062</ele>
      <time>2021-10-12T11:21:14Z</time>
    </trkpt>
    <trkpt lat="38.620844968" lon="34.828423038">
      <ele>1213.14</ele>
      <time>2021-10-12T11:21:15Z</time>
    </trkpt>
    <trkpt lat="38.62085796" lon="34.828553041">
      <ele>1213.214</ele>
      <time>2021-10-12T11:21:19Z</time>
    </trkpt>
    <trkpt lat="38.620866006" lon="34.828702994">
      <ele>1212.866</ele>
      <time>2021-10-12T11:21:23Z</time>
    </trkpt>
    <trkpt lat="38.620848991" lon="34.828817993">
      <ele>1212.326</ele>
      <time>2021-10-12T11:21:27Z</time>
    </trkpt>
    <trkpt lat="38.620832982" lon="34.828935005">
      <ele>1212.176</ele>
      <time>2021-10-12T11:21:30Z</time>
    </trkpt>
    <trkpt lat="38.620908" lon="34.829001976">
      <ele>1212.348</ele>
      <time>2021-10-12T11:21:33Z</time>
    </trkpt>
    <trkpt lat="38.621018976" lon="34.829061991">
      <ele>1212.042</ele>
      <time>2021-10-12T11:21:38Z</time>
    </trkpt>
    <trkpt lat="38.621062981" lon="34.829181014">
      <ele>1211.27</ele>
      <time>2021-10-12T11:21:42Z</time>
    </trkpt>
    <trkpt lat="38.621072033" lon="34.829320991">
      <ele>1210.405</ele>
      <time>2021-10-12T11:21:46Z</time>
    </trkpt>
    <trkpt lat="38.621099023" lon="34.829449989">
      <ele>1209.217</ele>
      <time>2021-10-12T11:21:50Z</time>
    </trkpt>
    <trkpt lat="38.621124001" lon="34.829525007">
      <ele>1209.192</ele>
      <time>2021-10-12T11:21:52Z</time>
    </trkpt>
    <trkpt lat="38.621212011" lon="34.829609999">
      <ele>1210.167</ele>
      <time>2021-10-12T11:21:56Z</time>
    </trkpt>
    <trkpt lat="38.621290969" lon="34.829693986">
      <ele>1210.492</ele>
      <time>2021-10-12T11:22:00Z</time>
    </trkpt>
    <trkpt lat="38.621323993" lon="34.829741009">
      <ele>1210.377</ele>
      <time>2021-10-12T11:22:02Z</time>
    </trkpt>
    <trkpt lat="38.62135903" lon="34.829850979">
      <ele>1209.544</ele>
      <time>2021-10-12T11:22:05Z</time>
    </trkpt>
    <trkpt lat="38.621360036" lon="34.829989029">
      <ele>1208.21</ele>
      <time>2021-10-12T11:22:09Z</time>
    </trkpt>
    <trkpt lat="38.621324999" lon="34.83010604">
      <ele>1207.73</ele>
      <time>2021-10-12T11:22:13Z</time>
    </trkpt>
    <trkpt lat="38.621300021" lon="34.830227997">
      <ele>1207.466</ele>
      <time>2021-10-12T11:22:16Z</time>
    </trkpt>
    <trkpt lat="38.621312007" lon="34.830309972">
      <ele>1207.184</ele>
      <time>2021-10-12T11:22:19Z</time>
    </trkpt>
    <trkpt lat="38.621317958" lon="34.830349032">
      <ele>1207.158</ele>
      <time>2021-10-12T11:22:20Z</time>
    </trkpt>
    <trkpt lat="38.621321982" lon="34.830371998">
      <ele>1207.114</ele>
      <time>2021-10-12T11:22:21Z</time>
    </trkpt>
    <trkpt lat="38.621323993" lon="34.830394965">
      <ele>1207.104</ele>
      <time>2021-10-12T11:22:21Z</time>
    </trkpt>
    <trkpt lat="38.621321982" lon="34.830441987">
      <ele>1207.227</ele>
      <time>2021-10-12T11:22:23Z</time>
    </trkpt>
    <trkpt lat="38.621283006" lon="34.830551036">
      <ele>1208.791</ele>
      <time>2021-10-12T11:22:26Z</time>
    </trkpt>
    <trkpt lat="38.621357018" lon="34.830657989">
      <ele>1206.685</ele>
      <time>2021-10-12T11:22:30Z</time>
    </trkpt>
    <trkpt lat="38.621444022" lon="34.830711968">
      <ele>1204.384</ele>
      <time>2021-10-12T11:22:34Z</time>
    </trkpt>
    <trkpt lat="38.62153396" lon="34.830790004">
      <ele>1201.714</ele>
      <time>2021-10-12T11:22:38Z</time>
    </trkpt>
    <trkpt lat="38.62162197" lon="34.830811964">
      <ele>1198.823</ele>
      <time>2021-10-12T11:22:41Z</time>
    </trkpt>
    <trkpt lat="38.621640997" lon="34.830854964">
      <ele>1197.811</ele>
      <time>2021-10-12T11:22:43Z</time>
    </trkpt>
    <trkpt lat="38.621721966" lon="34.830935011">
      <ele>1197.61</ele>
      <time>2021-10-12T11:22:46Z</time>
    </trkpt>
    <trkpt lat="38.621768989" lon="34.831052022">
      <ele>1197.553</ele>
      <time>2021-10-12T11:22:50Z</time>
    </trkpt>
    <trkpt lat="38.621846018" lon="34.83112704">
      <ele>1198.177</ele>
      <time>2021-10-12T11:22:54Z</time>
    </trkpt>
    <trkpt lat="38.621954983" lon="34.831182025">
      <ele>1199.33</ele>
      <time>2021-10-12T11:22:58Z</time>
    </trkpt>
    <trkpt lat="38.622054979" lon="34.831240028">
      <ele>1199.919</ele>
      <time>2021-10-12T11:23:02Z</time>
    </trkpt>
    <trkpt lat="38.622141983" lon="34.831324015">
      <ele>1199.72</ele>
      <time>2021-10-12T11:23:06Z</time>
    </trkpt>
    <trkpt lat="38.622215996" lon="34.831429962">
      <ele>1198.74</ele>
      <time>2021-10-12T11:23:10Z</time>
    </trkpt>
    <trkpt lat="38.622262012" lon="34.831560971">
      <ele>1197.925</ele>
      <time>2021-10-12T11:23:15Z</time>
    </trkpt>
    <trkpt lat="38.622312974" lon="34.831686029">
      <ele>1196.841</ele>
      <time>2021-10-12T11:23:19Z</time>
    </trkpt>
    <trkpt lat="38.622369971" lon="34.831796">
      <ele>1195.266</ele>
      <time>2021-10-12T11:23:23Z</time>
    </trkpt>
    <trkpt lat="38.622417999" lon="34.831900019">
      <ele>1192.855</ele>
      <time>2021-10-12T11:23:26Z</time>
    </trkpt>
    <trkpt lat="38.622478014" lon="34.832000015">
      <ele>1190.417</ele>
      <time>2021-10-12T11:23:30Z</time>
    </trkpt>
    <trkpt lat="38.622564012" lon="34.832046032">
      <ele>1189.927</ele>
      <time>2021-10-12T11:23:33Z</time>
    </trkpt>
    <trkpt lat="38.622665014" lon="34.832025999">
      <ele>1190.546</ele>
      <time>2021-10-12T11:23:37Z</time>
    </trkpt>
    <trkpt lat="38.62273098" lon="34.832111998">
      <ele>1190.057</ele>
      <time>2021-10-12T11:23:40Z</time>
    </trkpt>
    <trkpt lat="38.622764004" lon="34.832221968">
      <ele>1189.003</ele>
      <time>2021-10-12T11:23:44Z</time>
    </trkpt>
    <trkpt lat="38.622848997" lon="34.832323976">
      <ele>1188.356</ele>
      <time>2021-10-12T11:23:48Z</time>
    </trkpt>
    <trkpt lat="38.62292896" lon="34.83243797">
      <ele>1187.415</ele>
      <time>2021-10-12T11:23:53Z</time>
    </trkpt>
    <trkpt lat="38.622981012" lon="34.832575014">
      <ele>1185.379</ele>
      <time>2021-10-12T11:23:57Z</time>
    </trkpt>
    <trkpt lat="38.623017976" lon="34.832694959">
      <ele>1183.343</ele>
      <time>2021-10-12T11:24:01Z</time>
    </trkpt>
    <trkpt lat="38.623044966" lon="34.832820017">
      <ele>1181.587</ele>
      <time>2021-10-12T11:24:05Z</time>
    </trkpt>
    <trkpt lat="38.623063993" lon="34.832952032">
      <ele>1180.912</ele>
      <time>2021-10-12T11:24:08Z</time>
    </trkpt>
    <trkpt lat="38.623053012" lon="34.833084969">
      <ele>1179.879</ele>
      <time>2021-10-12T11:24:12Z</time>
    </trkpt>
    <trkpt lat="38.623014037" lon="34.833220001">
      <ele>1179.375</ele>
      <time>2021-10-12T11:24:16Z</time>
    </trkpt>
    <trkpt lat="38.623001967" lon="34.833373977">
      <ele>1179.953</ele>
      <time>2021-10-12T11:24:21Z</time>
    </trkpt>
    <trkpt lat="38.622984029" lon="34.833495012">
      <ele>1182.318</ele>
      <time>2021-10-12T11:24:25Z</time>
    </trkpt>
    <trkpt lat="38.623017976" lon="34.83353097">
      <ele>1182.789</ele>
      <time>2021-10-12T11:24:26Z</time>
    </trkpt>
    <trkpt lat="38.623051001" lon="34.833513033">
      <ele>1182.262</ele>
      <time>2021-10-12T11:24:28Z</time>
    </trkpt>
    <trkpt lat="38.623068016" lon="34.833523007">
      <ele>1182.306</ele>
      <time>2021-10-12T11:24:28Z</time>
    </trkpt>
    <trkpt lat="38.623113027" lon="34.833610011">
      <ele>1183.157</ele>
      <time>2021-10-12T11:24:31Z</time>
    </trkpt>
    <trkpt lat="38.623216962" lon="34.833649993">
      <ele>1182.62</ele>
      <time>2021-10-12T11:24:35Z</time>
    </trkpt>
    <trkpt lat="38.623337997" lon="34.833685029">
      <ele>1182.1</ele>
      <time>2021-10-12T11:24:40Z</time>
    </trkpt>
    <trkpt lat="38.623455008" lon="34.83371797">
      <ele>1182.37</ele>
      <time>2021-10-12T11:24:44Z</time>
    </trkpt>
    <trkpt lat="38.623579983" lon="34.83374496">
      <ele>1182.507</ele>
      <time>2021-10-12T11:24:49Z</time>
    </trkpt>
    <trkpt lat="38.623679979" lon="34.833758036">
      <ele>1182.324</ele>
      <time>2021-10-12T11:24:53Z</time>
    </trkpt>
    <trkpt lat="38.623781987" lon="34.833760969">
      <ele>1181.714</ele>
      <time>2021-10-12T11:24:56Z</time>
    </trkpt>
    <trkpt lat="38.623904027" lon="34.833802041">
      <ele>1180.649</ele>
      <time>2021-10-12T11:25:01Z</time>
    </trkpt>
    <trkpt lat="38.623994971" lon="34.833880998">
      <ele>1177.999</ele>
      <time>2021-10-12T11:25:05Z</time>
    </trkpt>
    <trkpt lat="38.624093039" lon="34.833974037">
      <ele>1174.995</ele>
      <time>2021-10-12T11:25:10Z</time>
    </trkpt>
    <trkpt lat="38.62416504" lon="34.834048972">
      <ele>1171.915</ele>
      <time>2021-10-12T11:25:13Z</time>
    </trkpt>
    <trkpt lat="38.624247015" lon="34.834109992">
      <ele>1170.369</ele>
      <time>2021-10-12T11:25:17Z</time>
    </trkpt>
    <trkpt lat="38.62431298" lon="34.834237983">
      <ele>1169.744</ele>
      <time>2021-10-12T11:25:21Z</time>
    </trkpt>
    <trkpt lat="38.624394033" lon="34.834290035">
      <ele>1168.29</ele>
      <time>2021-10-12T11:25:24Z</time>
    </trkpt>
    <trkpt lat="38.624446001" lon="34.834420038">
      <ele>1166.996</ele>
      <time>2021-10-12T11:25:29Z</time>
    </trkpt>
    <trkpt lat="38.624471985" lon="34.83455197">
      <ele>1169.963</ele>
      <time>2021-10-12T11:25:33Z</time>
    </trkpt>
    <trkpt lat="38.624508027" lon="34.834670993">
      <ele>1172.058</ele>
      <time>2021-10-12T11:25:36Z</time>
    </trkpt>
    <trkpt lat="38.624601988" lon="34.83476202">
      <ele>1170.035</ele>
      <time>2021-10-12T11:25:41Z</time>
    </trkpt>
    <trkpt lat="38.624695027" lon="34.834835026">
      <ele>1167.285</ele>
      <time>2021-10-12T11:25:45Z</time>
    </trkpt>
    <trkpt lat="38.624759987" lon="34.834933011">
      <ele>1167.283</ele>
      <time>2021-10-12T11:25:48Z</time>
    </trkpt>
    <trkpt lat="38.624850009" lon="34.834909961">
      <ele>1165.688</ele>
      <time>2021-10-12T11:25:52Z</time>
    </trkpt>
    <trkpt lat="38.62494003" lon="34.834922031">
      <ele>1164.68</ele>
      <time>2021-10-12T11:25:55Z</time>
    </trkpt>
    <trkpt lat="38.625046983" lon="34.834961006">
      <ele>1163.979</ele>
      <time>2021-10-12T11:25:59Z</time>
    </trkpt>
    <trkpt lat="38.625139017" lon="34.834981961">
      <ele>1163.304</ele>
      <time>2021-10-12T11:26:03Z</time>
    </trkpt>
    <trkpt lat="38.625247981" lon="34.834911972">
      <ele>1161.62</ele>
      <time>2021-10-12T11:26:07Z</time>
    </trkpt>
    <trkpt lat="38.625336997" lon="34.834876014">
      <ele>1160.54</ele>
      <time>2021-10-12T11:26:11Z</time>
    </trkpt>
    <trkpt lat="38.625445962" lon="34.834857993">
      <ele>1159.484</ele>
      <time>2021-10-12T11:26:15Z</time>
    </trkpt>
    <trkpt lat="38.62557102" lon="34.83487702">
      <ele>1158.412</ele>
      <time>2021-10-12T11:26:20Z</time>
    </trkpt>
    <trkpt lat="38.625652995" lon="34.834937034">
      <ele>1157.955</ele>
      <time>2021-10-12T11:26:23Z</time>
    </trkpt>
    <trkpt lat="38.625727007" lon="34.835041976">
      <ele>1158.219</ele>
      <time>2021-10-12T11:26:27Z</time>
    </trkpt>
    <trkpt lat="38.625784004" lon="34.835136021">
      <ele>1159.484</ele>
      <time>2021-10-12T11:26:31Z</time>
    </trkpt>
    <trkpt lat="38.625814011" lon="34.83521699">
      <ele>1160.412</ele>
      <time>2021-10-12T11:26:33Z</time>
    </trkpt>
    <trkpt lat="38.625830021" lon="34.835254038">
      <ele>1160.714</ele>
      <time>2021-10-12T11:26:34Z</time>
    </trkpt>
    <trkpt lat="38.625839995" lon="34.835291002">
      <ele>1161.446</ele>
      <time>2021-10-12T11:26:36Z</time>
    </trkpt>
    <trkpt lat="38.62584997" lon="34.83532696">
      <ele>1162.658</ele>
      <time>2021-10-12T11:26:37Z</time>
    </trkpt>
    <trkpt lat="38.62591099" lon="34.835394016">
      <ele>1164.32</ele>
      <time>2021-10-12T11:26:40Z</time>
    </trkpt>
    <trkpt lat="38.625940997" lon="34.835400973">
      <ele>1164.188</ele>
      <time>2021-10-12T11:26:41Z</time>
    </trkpt>
    <trkpt lat="38.625976034" lon="34.835412037">
      <ele>1164.078</ele>
      <time>2021-10-12T11:26:42Z</time>
    </trkpt>
    <trkpt lat="38.626003023" lon="34.835413964">
      <ele>1163.794</ele>
      <time>2021-10-12T11:26:43Z</time>
    </trkpt>
    <trkpt lat="38.62603303" lon="34.835415976">
      <ele>1163.468</ele>
      <time>2021-10-12T11:26:44Z</time>
    </trkpt>
    <trkpt lat="38.626051974" lon="34.83540399">
      <ele>1162.968</ele>
      <time>2021-10-12T11:26:45Z</time>
    </trkpt>
    <trkpt lat="38.626069995" lon="34.835372977">
      <ele>1162.115</ele>
      <time>2021-10-12T11:26:46Z</time>
    </trkpt>
    <trkpt lat="38.62608701" lon="34.835364008">
      <ele>1161.774</ele>
      <time>2021-10-12T11:26:47Z</time>
    </trkpt>
    <trkpt lat="38.626107965" lon="34.835378006">
      <ele>1161.836</ele>
      <time>2021-10-12T11:26:48Z</time>
    </trkpt>
    <trkpt lat="38.626126992" lon="34.835406002">
      <ele>1162.26</ele>
      <time>2021-10-12T11:26:49Z</time>
    </trkpt>
    <trkpt lat="38.626150042" lon="34.835440032">
      <ele>1162.733</ele>
      <time>2021-10-12T11:26:50Z</time>
    </trkpt>
    <trkpt lat="38.62620201" lon="34.835510021">
      <ele>1163.413</ele>
      <time>2021-10-12T11:26:53Z</time>
    </trkpt>
    <trkpt lat="38.626231011" lon="34.835547991">
      <ele>1163.616</ele>
      <time>2021-10-12T11:26:54Z</time>
    </trkpt>
    <trkpt lat="38.626253977" lon="34.835585039">
      <ele>1164.303</ele>
      <time>2021-10-12T11:26:56Z</time>
    </trkpt>
    <trkpt lat="38.626270993" lon="34.835605994">
      <ele>1164.698</ele>
      <time>2021-10-12T11:26:57Z</time>
    </trkpt>
    <trkpt lat="38.626289014" lon="34.835615968">
      <ele>1164.757</ele>
      <time>2021-10-12T11:26:57Z</time>
    </trkpt>
    <trkpt lat="38.62632296" lon="34.835630972">
      <ele>1164.741</ele>
      <time>2021-10-12T11:26:59Z</time>
    </trkpt>
    <trkpt lat="38.626346011" lon="34.835643042">
      <ele>1164.765</ele>
      <time>2021-10-12T11:27:00Z</time>
    </trkpt>
    <trkpt lat="38.626408037" lon="34.83574396">
      <ele>1166.354</ele>
      <time>2021-10-12T11:27:03Z</time>
    </trkpt>
    <trkpt lat="38.626513984" lon="34.835770028">
      <ele>1164.663</ele>
      <time>2021-10-12T11:27:07Z</time>
    </trkpt>
    <trkpt lat="38.626544997" lon="34.835766004">
      <ele>1163.914</ele>
      <time>2021-10-12T11:27:08Z</time>
    </trkpt>
    <trkpt lat="38.626651028" lon="34.835771034">
      <ele>1161.671</ele>
      <time>2021-10-12T11:27:12Z</time>
    </trkpt>
    <trkpt lat="38.626765022" lon="34.835770028">
      <ele>1159.707</ele>
      <time>2021-10-12T11:27:17Z</time>
    </trkpt>
    <trkpt lat="38.626892008" lon="34.835810009">
      <ele>1157.828</ele>
      <time>2021-10-12T11:27:21Z</time>
    </trkpt>
    <trkpt lat="38.627000973" lon="34.835832976">
      <ele>1156.593</ele>
      <time>2021-10-12T11:27:26Z</time>
    </trkpt>
    <trkpt lat="38.627103986" lon="34.835884022">
      <ele>1156.189</ele>
      <time>2021-10-12T11:27:30Z</time>
    </trkpt>
    <trkpt lat="38.627198031" lon="34.83597002">
      <ele>1155.752</ele>
      <time>2021-10-12T11:27:34Z</time>
    </trkpt>
    <trkpt lat="38.627304984" lon="34.836011007">
      <ele>1154.77</ele>
      <time>2021-10-12T11:27:38Z</time>
    </trkpt>
    <trkpt lat="38.627400035" lon="34.836087031">
      <ele>1153.519</ele>
      <time>2021-10-12T11:27:42Z</time>
    </trkpt>
    <trkpt lat="38.627476981" lon="34.836155009">
      <ele>1152.819</ele>
      <time>2021-10-12T11:27:46Z</time>
    </trkpt>
    <trkpt lat="38.627536995" lon="34.836250981">
      <ele>1153.111</ele>
      <time>2021-10-12T11:27:49Z</time>
    </trkpt>
    <trkpt lat="38.627601033" lon="34.83634402">
      <ele>1153.424</ele>
      <time>2021-10-12T11:27:53Z</time>
    </trkpt>
    <trkpt lat="38.627679991" lon="34.83642499">
      <ele>1153.843</ele>
      <time>2021-10-12T11:27:57Z</time>
    </trkpt>
    <trkpt lat="38.627793984" lon="34.83640898">
      <ele>1151.949</ele>
      <time>2021-10-12T11:28:01Z</time>
    </trkpt>
    <trkpt lat="38.627871014" lon="34.83634796">
      <ele>1149.406</ele>
      <time>2021-10-12T11:28:04Z</time>
    </trkpt>
    <trkpt lat="38.627976039" lon="34.836265985">
      <ele>1146.94</ele>
      <time>2021-10-12T11:28:09Z</time>
    </trkpt>
    <trkpt lat="38.628078969" lon="34.836195996">
      <ele>1145.643</ele>
      <time>2021-10-12T11:28:13Z</time>
    </trkpt>
    <trkpt lat="38.628206039" lon="34.836207982">
      <ele>1145.273</ele>
      <time>2021-10-12T11:28:18Z</time>
    </trkpt>
    <trkpt lat="38.62824996" lon="34.836237989">
      <ele>1144.904</ele>
      <time>2021-10-12T11:28:20Z</time>
    </trkpt>
    <trkpt lat="38.628288014" lon="34.836270008">
      <ele>1144.471</ele>
      <time>2021-10-12T11:28:21Z</time>
    </trkpt>
    <trkpt lat="38.628397984" lon="34.836356007">
      <ele>1143.671</ele>
      <time>2021-10-12T11:28:26Z</time>
    </trkpt>
    <trkpt lat="38.628504016" lon="34.836395988">
      <ele>1143.666</ele>
      <time>2021-10-12T11:28:30Z</time>
    </trkpt>
    <trkpt lat="38.628622033" lon="34.83638199">
      <ele>1144.189</ele>
      <time>2021-10-12T11:28:35Z</time>
    </trkpt>
    <trkpt lat="38.628733009" lon="34.836312002">
      <ele>1146.221</ele>
      <time>2021-10-12T11:28:39Z</time>
    </trkpt>
    <trkpt lat="38.628845997" lon="34.836277971">
      <ele>1147.579</ele>
      <time>2021-10-12T11:28:43Z</time>
    </trkpt>
    <trkpt lat="38.628949011" lon="34.836358018">
      <ele>1146.427</ele>
      <time>2021-10-12T11:28:48Z</time>
    </trkpt>
    <trkpt lat="38.629027968" lon="34.836467989">
      <ele>1145.647</ele>
      <time>2021-10-12T11:28:52Z</time>
    </trkpt>
    <trkpt lat="38.629113967" lon="34.836592963">
      <ele>1144.315</ele>
      <time>2021-10-12T11:28:57Z</time>
    </trkpt>
    <trkpt lat="38.629161995" lon="34.836701006">
      <ele>1143.509</ele>
      <time>2021-10-12T11:29:01Z</time>
    </trkpt>
    <trkpt lat="38.629224021" lon="34.836823968">
      <ele>1145.534</ele>
      <time>2021-10-12T11:29:05Z</time>
    </trkpt>
    <trkpt lat="38.629309013" lon="34.83687602">
      <ele>1146.393</ele>
      <time>2021-10-12T11:29:08Z</time>
    </trkpt>
    <trkpt lat="38.629423007" lon="34.836874008">
      <ele>1146.688</ele>
      <time>2021-10-12T11:29:13Z</time>
    </trkpt>
    <trkpt lat="38.629531972" lon="34.836857999">
      <ele>1146.472</ele>
      <time>2021-10-12T11:29:17Z</time>
    </trkpt>
    <trkpt lat="38.629628029" lon="34.836824974">
      <ele>1146.193</ele>
      <time>2021-10-12T11:29:20Z</time>
    </trkpt>
    <trkpt lat="38.629731964" lon="34.836779963">
      <ele>1145.868</ele>
      <time>2021-10-12T11:29:24Z</time>
    </trkpt>
    <trkpt lat="38.629827015" lon="34.83676102">
      <ele>1144.498</ele>
      <time>2021-10-12T11:29:28Z</time>
    </trkpt>
    <trkpt lat="38.629940003" lon="34.836733025">
      <ele>1142.642</ele>
      <time>2021-10-12T11:29:32Z</time>
    </trkpt>
    <trkpt lat="38.630052991" lon="34.836706035">
      <ele>1140.963</ele>
      <time>2021-10-12T11:29:36Z</time>
    </trkpt>
    <trkpt lat="38.630158016" lon="34.836669993">
      <ele>1139.878</ele>
      <time>2021-10-12T11:29:40Z</time>
    </trkpt>
    <trkpt lat="38.630191041" lon="34.836653983">
      <ele>1139.759</ele>
      <time>2021-10-12T11:29:42Z</time>
    </trkpt>
    <trkpt lat="38.630229011" lon="34.836644009">
      <ele>1139.557</ele>
      <time>2021-10-12T11:29:43Z</time>
    </trkpt>
    <trkpt lat="38.630323978" lon="34.836620959">
      <ele>1139.163</ele>
      <time>2021-10-12T11:29:47Z</time>
    </trkpt>
    <trkpt lat="38.63044099" lon="34.836597992">
      <ele>1138.907</ele>
      <time>2021-10-12T11:29:51Z</time>
    </trkpt>
    <trkpt lat="38.630567975" lon="34.836580977">
      <ele>1138.631</ele>
      <time>2021-10-12T11:29:56Z</time>
    </trkpt>
    <trkpt lat="38.630690016" lon="34.836559016">
      <ele>1138.963</ele>
      <time>2021-10-12T11:30:00Z</time>
    </trkpt>
    <trkpt lat="38.630817002" lon="34.836548036">
      <ele>1139.256</ele>
      <time>2021-10-12T11:30:05Z</time>
    </trkpt>
    <trkpt lat="38.630912974" lon="34.836563962">
      <ele>1139.29</ele>
      <time>2021-10-12T11:30:09Z</time>
    </trkpt>
    <trkpt lat="38.631027974" lon="34.83655801">
      <ele>1139.6</ele>
      <time>2021-10-12T11:30:13Z</time>
    </trkpt>
    <trkpt lat="38.631148003" lon="34.836587012">
      <ele>1139.403</ele>
      <time>2021-10-12T11:30:18Z</time>
    </trkpt>
    <trkpt lat="38.631245987" lon="34.836626993">
      <ele>1138.731</ele>
      <time>2021-10-12T11:30:21Z</time>
    </trkpt>
    <trkpt lat="38.631332992" lon="34.836681979">
      <ele>1138.245</ele>
      <time>2021-10-12T11:30:25Z</time>
    </trkpt>
    <trkpt lat="38.631432988" lon="34.836735036">
      <ele>1138.126</ele>
      <time>2021-10-12T11:30:29Z</time>
    </trkpt>
    <trkpt lat="38.631559974" lon="34.836782981">
      <ele>1138.061</ele>
      <time>2021-10-12T11:30:34Z</time>
    </trkpt>
    <trkpt lat="38.631638009" lon="34.836847018">
      <ele>1138.335</ele>
      <time>2021-10-12T11:30:37Z</time>
    </trkpt>
    <trkpt lat="38.63172099" lon="34.836904015">
      <ele>1138.346</ele>
      <time>2021-10-12T11:30:41Z</time>
    </trkpt>
    <trkpt lat="38.631826015" lon="34.83697501">
      <ele>1138.45</ele>
      <time>2021-10-12T11:30:45Z</time>
    </trkpt>
    <trkpt lat="38.63194596" lon="34.837042987">
      <ele>1138.77</ele>
      <time>2021-10-12T11:30:50Z</time>
    </trkpt>
    <trkpt lat="38.63204604" lon="34.83707903">
      <ele>1139.234</ele>
      <time>2021-10-12T11:30:54Z</time>
    </trkpt>
    <trkpt lat="38.632160034" lon="34.837065032">
      <ele>1138.731</ele>
      <time>2021-10-12T11:30:58Z</time>
    </trkpt>
    <trkpt lat="38.632253995" lon="34.837032007">
      <ele>1137.434</ele>
      <time>2021-10-12T11:31:02Z</time>
    </trkpt>
    <trkpt lat="38.632320967" lon="34.836981967">
      <ele>1135.389</ele>
      <time>2021-10-12T11:31:05Z</time>
    </trkpt>
    <trkpt lat="38.632350974" lon="34.836954977">
      <ele>1134.373</ele>
      <time>2021-10-12T11:31:06Z</time>
    </trkpt>
    <trkpt lat="38.632381987" lon="34.836922958">
      <ele>1133.545</ele>
      <time>2021-10-12T11:31:07Z</time>
    </trkpt>
    <trkpt lat="38.632413" lon="34.836887">
      <ele>1132.839</ele>
      <time>2021-10-12T11:31:09Z</time>
    </trkpt>
    <trkpt lat="38.632442001" lon="34.836851042">
      <ele>1132.163</ele>
      <time>2021-10-12T11:31:10Z</time>
    </trkpt>
    <trkpt lat="38.632475026" lon="34.836826986">
      <ele>1131.514</ele>
      <time>2021-10-12T11:31:12Z</time>
    </trkpt>
    <trkpt lat="38.632507967" lon="34.836815">
      <ele>1131.035</ele>
      <time>2021-10-12T11:31:13Z</time>
    </trkpt>
    <trkpt lat="38.632545015" lon="34.836811982">
      <ele>1130.869</ele>
      <time>2021-10-12T11:31:15Z</time>
    </trkpt>
    <trkpt lat="38.632583991" lon="34.836813994">
      <ele>1130.722</ele>
      <time>2021-10-12T11:31:16Z</time>
    </trkpt>
    <trkpt lat="38.63262699" lon="34.836819023">
      <ele>1130.551</ele>
      <time>2021-10-12T11:31:18Z</time>
    </trkpt>
    <trkpt lat="38.632668983" lon="34.836826986">
      <ele>1130.358</ele>
      <time>2021-10-12T11:31:19Z</time>
    </trkpt>
    <trkpt lat="38.632707959" lon="34.836837966">
      <ele>1130.135</ele>
      <time>2021-10-12T11:31:21Z</time>
    </trkpt>
    <trkpt lat="38.632745007" lon="34.836838972">
      <ele>1129.934</ele>
      <time>2021-10-12T11:31:22Z</time>
    </trkpt>
    <trkpt lat="38.632777026" lon="34.83683696">
      <ele>1129.778</ele>
      <time>2021-10-12T11:31:23Z</time>
    </trkpt>
    <trkpt lat="38.632805021" lon="34.836836038">
      <ele>1129.917</ele>
      <time>2021-10-12T11:31:24Z</time>
    </trkpt>
    <trkpt lat="38.632836035" lon="34.836840983">
      <ele>1130.033</ele>
      <time>2021-10-12T11:31:25Z</time>
    </trkpt>
    <trkpt lat="38.632866964" lon="34.83684903">
      <ele>1130.118</ele>
      <time>2021-10-12T11:31:27Z</time>
    </trkpt>
    <trkpt lat="38.632894959" lon="34.836862022">
      <ele>1130.14</ele>
      <time>2021-10-12T11:31:28Z</time>
    </trkpt>
    <trkpt lat="38.632925972" lon="34.836873002">
      <ele>1130.185</ele>
      <time>2021-10-12T11:31:29Z</time>
    </trkpt>
    <trkpt lat="38.63302798" lon="34.836925976">
      <ele>1130.094</ele>
      <time>2021-10-12T11:31:33Z</time>
    </trkpt>
    <trkpt lat="38.633106016" lon="34.83701298">
      <ele>1130.52</ele>
      <time>2021-10-12T11:31:37Z</time>
    </trkpt>
    <trkpt lat="38.633183967" lon="34.837144995">
      <ele>1130.979</ele>
      <time>2021-10-12T11:31:42Z</time>
    </trkpt>
    <trkpt lat="38.633256974" lon="34.837273993">
      <ele>1131.34</ele>
      <time>2021-10-12T11:31:46Z</time>
    </trkpt>
    <trkpt lat="38.633317994" lon="34.837357979">
      <ele>1131.57</ele>
      <time>2021-10-12T11:31:49Z</time>
    </trkpt>
    <trkpt lat="38.633378008" lon="34.837448001">
      <ele>1131.29</ele>
      <time>2021-10-12T11:31:53Z</time>
    </trkpt>
    <trkpt lat="38.633411033" lon="34.837491">
      <ele>1130.885</ele>
      <time>2021-10-12T11:31:55Z</time>
    </trkpt>
    <trkpt lat="38.633442968" lon="34.837527964">
      <ele>1130.482</ele>
      <time>2021-10-12T11:31:56Z</time>
    </trkpt>
    <trkpt lat="38.633473981" lon="34.83755596">
      <ele>1130.074</ele>
      <time>2021-10-12T11:31:58Z</time>
    </trkpt>
    <trkpt lat="38.633499965" lon="34.837584039">
      <ele>1129.722</ele>
      <time>2021-10-12T11:31:59Z</time>
    </trkpt>
    <trkpt lat="38.633526033" lon="34.837603988">
      <ele>1129.34</ele>
      <time>2021-10-12T11:32:00Z</time>
    </trkpt>
    <trkpt lat="38.633552017" lon="34.837622009">
      <ele>1128.944</ele>
      <time>2021-10-12T11:32:01Z</time>
    </trkpt>
    <trkpt lat="38.633581018" lon="34.837636007">
      <ele>1128.486</ele>
      <time>2021-10-12T11:32:02Z</time>
    </trkpt>
    <trkpt lat="38.633611025" lon="34.837645981">
      <ele>1128.001</ele>
      <time>2021-10-12T11:32:03Z</time>
    </trkpt>
    <trkpt lat="38.633645978" lon="34.837648999">
      <ele>1128.0</ele>
      <time>2021-10-12T11:32:05Z</time>
    </trkpt>
    <trkpt lat="38.633680008" lon="34.837655034">
      <ele>1128.0</ele>
      <time>2021-10-12T11:32:06Z</time>
    </trkpt>
    <trkpt lat="38.633713033" lon="34.837664003">
      <ele>1128.0</ele>
      <time>2021-10-12T11:32:07Z</time>
    </trkpt>
    <trkpt lat="38.633753015" lon="34.837657968">
      <ele>1128.0</ele>
      <time>2021-10-12T11:32:09Z</time>
    </trkpt>
    <trkpt lat="38.633789979" lon="34.837660985">
      <ele>1128.0</ele>
      <time>2021-10-12T11:32:10Z</time>
    </trkpt>
    <trkpt lat="38.633827027" lon="34.837658973">
      <ele>1128.0</ele>
      <time>2021-10-12T11:32:11Z</time>
    </trkpt>
    <trkpt lat="38.633866003" lon="34.837664003">
      <ele>1128.0</ele>
      <time>2021-10-12T11:32:13Z</time>
    </trkpt>
    <trkpt lat="38.633940015" lon="34.837648999">
      <ele>1128.184</ele>
      <time>2021-10-12T11:32:16Z</time>
    </trkpt>
    <trkpt lat="38.633987037" lon="34.837648999">
      <ele>1128.353</ele>
      <time>2021-10-12T11:32:17Z</time>
    </trkpt>
    <trkpt lat="38.634080999" lon="34.837641036">
      <ele>1128.692</ele>
      <time>2021-10-12T11:32:21Z</time>
    </trkpt>
    <trkpt lat="38.634200022" lon="34.837601976">
      <ele>1128.716</ele>
      <time>2021-10-12T11:32:25Z</time>
    </trkpt>
    <trkpt lat="38.634265987" lon="34.837585967">
      <ele>1128.174</ele>
      <time>2021-10-12T11:32:28Z</time>
    </trkpt>
    <trkpt lat="38.634303035" lon="34.837569036">
      <ele>1127.896</ele>
      <time>2021-10-12T11:32:29Z</time>
    </trkpt>
    <trkpt lat="38.634376042" lon="34.837529976">
      <ele>1127.411</ele>
      <time>2021-10-12T11:32:32Z</time>
    </trkpt>
    <trkpt lat="38.634408982" lon="34.837506004">
      <ele>1127.236</ele>
      <time>2021-10-12T11:32:34Z</time>
    </trkpt>
    <trkpt lat="38.634439996" lon="34.837487983">
      <ele>1127.248</ele>
      <time>2021-10-12T11:32:35Z</time>
    </trkpt>
    <trkpt lat="38.634475032" lon="34.837471973">
      <ele>1127.284</ele>
      <time>2021-10-12T11:32:36Z</time>
    </trkpt>
    <trkpt lat="38.634509984" lon="34.83746401">
      <ele>1127.176</ele>
      <time>2021-10-12T11:32:38Z</time>
    </trkpt>
    <trkpt lat="38.634548038" lon="34.837463005">
      <ele>1126.92</ele>
      <time>2021-10-12T11:32:39Z</time>
    </trkpt>
    <trkpt lat="38.634587014" lon="34.837473985">
      <ele>1126.442</ele>
      <time>2021-10-12T11:32:41Z</time>
    </trkpt>
    <trkpt lat="38.634630013" lon="34.837498041">
      <ele>1125.699</ele>
      <time>2021-10-12T11:32:42Z</time>
    </trkpt>
    <trkpt lat="38.634667983" lon="34.837520001">
      <ele>1125.319</ele>
      <time>2021-10-12T11:32:44Z</time>
    </trkpt>
    <trkpt lat="38.634706037" lon="34.837539028">
      <ele>1124.976</ele>
      <time>2021-10-12T11:32:45Z</time>
    </trkpt>
    <trkpt lat="38.634744007" lon="34.83755202">
      <ele>1124.798</ele>
      <time>2021-10-12T11:32:47Z</time>
    </trkpt>
    <trkpt lat="38.634788012" lon="34.837569036">
      <ele>1124.693</ele>
      <time>2021-10-12T11:32:49Z</time>
    </trkpt>
    <trkpt lat="38.634831011" lon="34.837585967">
      <ele>1124.569</ele>
      <time>2021-10-12T11:32:50Z</time>
    </trkpt>
    <trkpt lat="38.634875016" lon="34.837601976">
      <ele>1124.431</ele>
      <time>2021-10-12T11:32:52Z</time>
    </trkpt>
    <trkpt lat="38.634912986" lon="34.837610023">
      <ele>1124.332</ele>
      <time>2021-10-12T11:32:53Z</time>
    </trkpt>
    <trkpt lat="38.634946011" lon="34.837619998">
      <ele>1124.22</ele>
      <time>2021-10-12T11:32:55Z</time>
    </trkpt>
    <trkpt lat="38.634985993" lon="34.837633995">
      <ele>1124.06</ele>
      <time>2021-10-12T11:32:56Z</time>
    </trkpt>
    <trkpt lat="38.635031004" lon="34.837652016">
      <ele>1123.956</ele>
      <time>2021-10-12T11:32:58Z</time>
    </trkpt>
    <trkpt lat="38.635074003" lon="34.837661991">
      <ele>1123.945</ele>
      <time>2021-10-12T11:32:59Z</time>
    </trkpt>
    <trkpt lat="38.635120019" lon="34.837680012">
      <ele>1123.856</ele>
      <time>2021-10-12T11:33:01Z</time>
    </trkpt>
    <trkpt lat="38.63521398" lon="34.837712031">
      <ele>1123.656</ele>
      <time>2021-10-12T11:33:05Z</time>
    </trkpt>
    <trkpt lat="38.635331998" lon="34.837761987">
      <ele>1122.998</ele>
      <time>2021-10-12T11:33:09Z</time>
    </trkpt>
    <trkpt lat="38.635454038" lon="34.837796018">
      <ele>1122.389</ele>
      <time>2021-10-12T11:33:14Z</time>
    </trkpt>
    <trkpt lat="38.635543976" lon="34.837809009">
      <ele>1122.046</ele>
      <time>2021-10-12T11:33:17Z</time>
    </trkpt>
    <trkpt lat="38.635611031" lon="34.837822001">
      <ele>1121.968</ele>
      <time>2021-10-12T11:33:20Z</time>
    </trkpt>
    <trkpt lat="38.635712033" lon="34.837852009">
      <ele>1121.849</ele>
      <time>2021-10-12T11:33:24Z</time>
    </trkpt>
    <trkpt lat="38.635813035" lon="34.83788101">
      <ele>1121.656</ele>
      <time>2021-10-12T11:33:28Z</time>
    </trkpt>
    <trkpt lat="38.635931974" lon="34.837869024">
      <ele>1120.956</ele>
      <time>2021-10-12T11:33:32Z</time>
    </trkpt>
    <trkpt lat="38.63604798" lon="34.837852009">
      <ele>1120.034</ele>
      <time>2021-10-12T11:33:36Z</time>
    </trkpt>
    <trkpt lat="38.636148982" lon="34.837848991">
      <ele>1119.341</ele>
      <time>2021-10-12T11:33:40Z</time>
    </trkpt>
    <trkpt lat="38.636177983" lon="34.837847985">
      <ele>1119.204</ele>
      <time>2021-10-12T11:33:41Z</time>
    </trkpt>
    <trkpt lat="38.636210002" lon="34.83784304">
      <ele>1119.03</ele>
      <time>2021-10-12T11:33:42Z</time>
    </trkpt>
    <trkpt lat="38.636269011" lon="34.837841028">
      <ele>1118.758</ele>
      <time>2021-10-12T11:33:45Z</time>
    </trkpt>
    <trkpt lat="38.636303041" lon="34.837831976">
      <ele>1118.564</ele>
      <time>2021-10-12T11:33:46Z</time>
    </trkpt>
    <trkpt lat="38.636340005" lon="34.837813033">
      <ele>1118.325</ele>
      <time>2021-10-12T11:33:47Z</time>
    </trkpt>
    <trkpt lat="38.636375964" lon="34.837794006">
      <ele>1118.108</ele>
      <time>2021-10-12T11:33:49Z</time>
    </trkpt>
    <trkpt lat="38.636411" lon="34.837776991">
      <ele>1118.082</ele>
      <time>2021-10-12T11:33:50Z</time>
    </trkpt>
    <trkpt lat="38.636446036" lon="34.837757964">
      <ele>1118.248</ele>
      <time>2021-10-12T11:33:52Z</time>
    </trkpt>
    <trkpt lat="38.636478977" lon="34.837738015">
      <ele>1118.375</ele>
      <time>2021-10-12T11:33:53Z</time>
    </trkpt>
    <trkpt lat="38.63650999" lon="34.83771597">
      <ele>1118.464</ele>
      <time>2021-10-12T11:33:54Z</time>
    </trkpt>
    <trkpt lat="38.636539998" lon="34.837687975">
      <ele>1118.516</ele>
      <time>2021-10-12T11:33:56Z</time>
    </trkpt>
    <trkpt lat="38.636572016" lon="34.837661991">
      <ele>1118.526</ele>
      <time>2021-10-12T11:33:57Z</time>
    </trkpt>
    <trkpt lat="38.636592971" lon="34.837630978">
      <ele>1118.487</ele>
      <time>2021-10-12T11:33:58Z</time>
    </trkpt>
    <trkpt lat="38.636617027" lon="34.837598037">
      <ele>1118.405</ele>
      <time>2021-10-12T11:33:59Z</time>
    </trkpt>
    <trkpt lat="38.636642005" lon="34.837561995">
      <ele>1118.272</ele>
      <time>2021-10-12T11:34:01Z</time>
    </trkpt>
    <trkpt lat="38.636664972" lon="34.837526958">
      <ele>1118.102</ele>
      <time>2021-10-12T11:34:02Z</time>
    </trkpt>
    <trkpt lat="38.636691039" lon="34.837483959">
      <ele>1118.013</ele>
      <time>2021-10-12T11:34:04Z</time>
    </trkpt>
    <trkpt lat="38.636713" lon="34.837446995">
      <ele>1118.119</ele>
      <time>2021-10-12T11:34:05Z</time>
    </trkpt>
    <trkpt lat="38.636745019" lon="34.837412965">
      <ele>1118.079</ele>
      <time>2021-10-12T11:34:07Z</time>
    </trkpt>
    <trkpt lat="38.636835041" lon="34.837291008">
      <ele>1117.53</ele>
      <time>2021-10-12T11:34:11Z</time>
    </trkpt>
    <trkpt lat="38.636921039" lon="34.837185983">
      <ele>1116.761</ele>
      <time>2021-10-12T11:34:16Z</time>
    </trkpt>
    <trkpt lat="38.637006031" lon="34.83709001">
      <ele>1116.89</ele>
      <time>2021-10-12T11:34:20Z</time>
    </trkpt>
    <trkpt lat="38.637099992" lon="34.837000994">
      <ele>1116.491</ele>
      <time>2021-10-12T11:34:24Z</time>
    </trkpt>
    <trkpt lat="38.637199989" lon="34.83693704">
      <ele>1115.484</ele>
      <time>2021-10-12T11:34:29Z</time>
    </trkpt>
    <trkpt lat="38.637300991" lon="34.836867973">
      <ele>1116.212</ele>
      <time>2021-10-12T11:34:33Z</time>
    </trkpt>
    <trkpt lat="38.637401992" lon="34.836826986">
      <ele>1116.343</ele>
      <time>2021-10-12T11:34:37Z</time>
    </trkpt>
    <trkpt lat="38.637525961" lon="34.836793961">
      <ele>1116.167</ele>
      <time>2021-10-12T11:34:41Z</time>
    </trkpt>
    <trkpt lat="38.637650013" lon="34.836792033">
      <ele>1116.195</ele>
      <time>2021-10-12T11:34:46Z</time>
    </trkpt>
    <trkpt lat="38.637747997" lon="34.836806031">
      <ele>1115.993</ele>
      <time>2021-10-12T11:34:50Z</time>
    </trkpt>
    <trkpt lat="38.637818992" lon="34.836802008">
      <ele>1116.047</ele>
      <time>2021-10-12T11:34:52Z</time>
    </trkpt>
    <trkpt lat="38.637850005" lon="34.836801002">
      <ele>1116.057</ele>
      <time>2021-10-12T11:34:53Z</time>
    </trkpt>
    <trkpt lat="38.63788303" lon="34.836799996">
      <ele>1116.065</ele>
      <time>2021-10-12T11:34:55Z</time>
    </trkpt>
    <trkpt lat="38.637911025" lon="34.836797984">
      <ele>1116.083</ele>
      <time>2021-10-12T11:34:56Z</time>
    </trkpt>
    <trkpt lat="38.63794296" lon="34.836795973">
      <ele>1116.097</ele>
      <time>2021-10-12T11:34:57Z</time>
    </trkpt>
    <trkpt lat="38.637981014" lon="34.836799996">
      <ele>1116.051</ele>
      <time>2021-10-12T11:34:58Z</time>
    </trkpt>
    <trkpt lat="38.638014039" lon="34.836804019">
      <ele>1116.013</ele>
      <time>2021-10-12T11:35:00Z</time>
    </trkpt>
    <trkpt lat="38.638128033" lon="34.836837966">
      <ele>1115.245</ele>
      <time>2021-10-12T11:35:04Z</time>
    </trkpt>
    <trkpt lat="38.638243033" lon="34.83687602">
      <ele>1114.143</ele>
      <time>2021-10-12T11:35:08Z</time>
    </trkpt>
    <trkpt lat="38.638359038" lon="34.836894963">
      <ele>1113.171</ele>
      <time>2021-10-12T11:35:13Z</time>
    </trkpt>
    <trkpt lat="38.638401031" lon="34.836900998">
      <ele>1112.825</ele>
      <time>2021-10-12T11:35:14Z</time>
    </trkpt>
    <trkpt lat="38.638431961" lon="34.836908039">
      <ele>1112.552</ele>
      <time>2021-10-12T11:35:15Z</time>
    </trkpt>
    <trkpt lat="38.638469009" lon="34.836919019">
      <ele>1112.206</ele>
      <time>2021-10-12T11:35:17Z</time>
    </trkpt>
    <trkpt lat="38.638503961" lon="34.836927988">
      <ele>1111.89</ele>
      <time>2021-10-12T11:35:18Z</time>
    </trkpt>
    <trkpt lat="38.638538998" lon="34.83694098">
      <ele>1111.544</ele>
      <time>2021-10-12T11:35:19Z</time>
    </trkpt>
    <trkpt lat="38.638574034" lon="34.836960007">
      <ele>1111.33</ele>
      <time>2021-10-12T11:35:21Z</time>
    </trkpt>
    <trkpt lat="38.638606975" lon="34.836980039">
      <ele>1111.16</ele>
      <time>2021-10-12T11:35:22Z</time>
    </trkpt>
    <trkpt lat="38.638647962" lon="34.837004011">
      <ele>1110.816</ele>
      <time>2021-10-12T11:35:24Z</time>
    </trkpt>
    <trkpt lat="38.638688028" lon="34.837034019">
      <ele>1110.492</ele>
      <time>2021-10-12T11:35:26Z</time>
    </trkpt>
    <trkpt lat="38.638764974" lon="34.837094033">
      <ele>1109.877</ele>
      <time>2021-10-12T11:35:29Z</time>
    </trkpt>
    <trkpt lat="38.638820965" lon="34.837155975">
      <ele>1109.495</ele>
      <time>2021-10-12T11:35:32Z</time>
    </trkpt>
    <trkpt lat="38.638846027" lon="34.837185983">
      <ele>1109.332</ele>
      <time>2021-10-12T11:35:33Z</time>
    </trkpt>
    <trkpt lat="38.638872011" lon="34.837212972">
      <ele>1109.149</ele>
      <time>2021-10-12T11:35:34Z</time>
    </trkpt>
    <trkpt lat="38.638897995" lon="34.837235017">
      <ele>1109.102</ele>
      <time>2021-10-12T11:35:35Z</time>
    </trkpt>
    <trkpt lat="38.638923978" lon="34.837251026">
      <ele>1109.159</ele>
      <time>2021-10-12T11:35:36Z</time>
    </trkpt>
    <trkpt lat="38.638953986" lon="34.837265024">
      <ele>1109.156</ele>
      <time>2021-10-12T11:35:38Z</time>
    </trkpt>
    <trkpt lat="38.638988016" lon="34.837270975">
      <ele>1109.044</ele>
      <time>2021-10-12T11:35:39Z</time>
    </trkpt>
    <trkpt lat="38.639021041" lon="34.837280028">
      <ele>1108.951</ele>
      <time>2021-10-12T11:35:40Z</time>
    </trkpt>
    <trkpt lat="38.639090024" lon="34.837283967">
      <ele>1108.621</ele>
      <time>2021-10-12T11:35:43Z</time>
    </trkpt>
    <trkpt lat="38.639124976" lon="34.837280028">
      <ele>1108.421</ele>
      <time>2021-10-12T11:35:44Z</time>
    </trkpt>
    <trkpt lat="38.639162024" lon="34.837276004">
      <ele>1108.217</ele>
      <time>2021-10-12T11:35:45Z</time>
    </trkpt>
    <trkpt lat="38.639202006" lon="34.837259995">
      <ele>1108.026</ele>
      <time>2021-10-12T11:35:47Z</time>
    </trkpt>
    <trkpt lat="38.639237965" lon="34.83724298">
      <ele>1107.837</ele>
      <time>2021-10-12T11:35:48Z</time>
    </trkpt>
    <trkpt lat="38.639273001" lon="34.837224036">
      <ele>1107.626</ele>
      <time>2021-10-12T11:35:50Z</time>
    </trkpt>
    <trkpt lat="38.639316" lon="34.837207021">
      <ele>1107.462</ele>
      <time>2021-10-12T11:35:51Z</time>
    </trkpt>
    <trkpt lat="38.639349025" lon="34.837196963">
      <ele>1107.344</ele>
      <time>2021-10-12T11:35:53Z</time>
    </trkpt>
    <trkpt lat="38.63938096" lon="34.837177014">
      <ele>1107.229</ele>
      <time>2021-10-12T11:35:54Z</time>
    </trkpt>
    <trkpt lat="38.63941499" lon="34.837158993">
      <ele>1107.106</ele>
      <time>2021-10-12T11:35:55Z</time>
    </trkpt>
    <trkpt lat="38.639446003" lon="34.837142983">
      <ele>1107.0</ele>
      <time>2021-10-12T11:35:56Z</time>
    </trkpt>
    <trkpt lat="38.639481962" lon="34.837123035">
      <ele>1107.0</ele>
      <time>2021-10-12T11:35:58Z</time>
    </trkpt>
    <trkpt lat="38.639520016" lon="34.837106019">
      <ele>1107.0</ele>
      <time>2021-10-12T11:35:59Z</time>
    </trkpt>
    <trkpt lat="38.639553962" lon="34.837091016">
      <ele>1107.0</ele>
      <time>2021-10-12T11:36:01Z</time>
    </trkpt>
    <trkpt lat="38.639584975" lon="34.837080035">
      <ele>1107.0</ele>
      <time>2021-10-12T11:36:02Z</time>
    </trkpt>
    <trkpt lat="38.639619006" lon="34.83706696">
      <ele>1107.0</ele>
      <time>2021-10-12T11:36:03Z</time>
    </trkpt>
    <trkpt lat="38.63965597" lon="34.837048016">
      <ele>1107.0</ele>
      <time>2021-10-12T11:36:05Z</time>
    </trkpt>
    <trkpt lat="38.639686983" lon="34.837034019">
      <ele>1107.0</ele>
      <time>2021-10-12T11:36:06Z</time>
    </trkpt>
    <trkpt lat="38.639721014" lon="34.837019015">
      <ele>1107.0</ele>
      <time>2021-10-12T11:36:07Z</time>
    </trkpt>
    <trkpt lat="38.639756972" lon="34.837009041">
      <ele>1106.779</ele>
      <time>2021-10-12T11:36:09Z</time>
    </trkpt>
    <trkpt lat="38.639791002" lon="34.836996971">
      <ele>1106.552</ele>
      <time>2021-10-12T11:36:10Z</time>
    </trkpt>
    <trkpt lat="38.639826039" lon="34.83698599">
      <ele>1106.308</ele>
      <time>2021-10-12T11:36:11Z</time>
    </trkpt>
    <trkpt lat="38.639859986" lon="34.836976016">
      <ele>1106.064</ele>
      <time>2021-10-12T11:36:13Z</time>
    </trkpt>
    <trkpt lat="38.639892004" lon="34.836966041">
      <ele>1105.825</ele>
      <time>2021-10-12T11:36:14Z</time>
    </trkpt>
    <trkpt lat="38.639929974" lon="34.836953972">
      <ele>1105.53</ele>
      <time>2021-10-12T11:36:15Z</time>
    </trkpt>
    <trkpt lat="38.639965011" lon="34.836937962">
      <ele>1105.255</ele>
      <time>2021-10-12T11:36:17Z</time>
    </trkpt>
    <trkpt lat="38.640003987" lon="34.836927988">
      <ele>1104.986</ele>
      <time>2021-10-12T11:36:18Z</time>
    </trkpt>
    <trkpt lat="38.640038017" lon="34.836908039">
      <ele>1104.863</ele>
      <time>2021-10-12T11:36:19Z</time>
    </trkpt>
    <trkpt lat="38.640067019" lon="34.836885994">
      <ele>1104.759</ele>
      <time>2021-10-12T11:36:21Z</time>
    </trkpt>
    <trkpt lat="38.640099959" lon="34.836862022">
      <ele>1104.64</ele>
      <time>2021-10-12T11:36:22Z</time>
    </trkpt>
    <trkpt lat="38.640126027" lon="34.836836038">
      <ele>1104.546</ele>
      <time>2021-10-12T11:36:23Z</time>
    </trkpt>
    <trkpt lat="38.640154023" lon="34.836808965">
      <ele>1104.446</ele>
      <time>2021-10-12T11:36:25Z</time>
    </trkpt>
    <trkpt lat="38.640180007" lon="34.836780969">
      <ele>1104.352</ele>
      <time>2021-10-12T11:36:26Z</time>
    </trkpt>
    <trkpt lat="38.640213031" lon="34.836753979">
      <ele>1104.233</ele>
      <time>2021-10-12T11:36:27Z</time>
    </trkpt>
    <trkpt lat="38.640241027" lon="34.836731013">
      <ele>1104.132</ele>
      <time>2021-10-12T11:36:29Z</time>
    </trkpt>
    <trkpt lat="38.640270028" lon="34.836706035">
      <ele>1104.028</ele>
      <time>2021-10-12T11:36:30Z</time>
    </trkpt>
    <trkpt lat="38.640295006" lon="34.836674016">
      <ele>1104.121</ele>
      <time>2021-10-12T11:36:31Z</time>
    </trkpt>
    <trkpt lat="38.640318979" lon="34.836647026">
      <ele>1104.428</ele>
      <time>2021-10-12T11:36:32Z</time>
    </trkpt>
    <trkpt lat="38.640338005" lon="34.836624982">
      <ele>1104.701</ele>
      <time>2021-10-12T11:36:33Z</time>
    </trkpt>
    <trkpt lat="38.640357032" lon="34.836592041">
      <ele>1105.031</ele>
      <time>2021-10-12T11:36:35Z</time>
    </trkpt>
    <trkpt lat="38.64037497" lon="34.836555999">
      <ele>1105.357</ele>
      <time>2021-10-12T11:36:36Z</time>
    </trkpt>
    <trkpt lat="38.640388967" lon="34.836526997">
      <ele>1105.605</ele>
      <time>2021-10-12T11:36:37Z</time>
    </trkpt>
    <trkpt lat="38.640410006" lon="34.836503025">
      <ele>1105.85</ele>
      <time>2021-10-12T11:36:38Z</time>
    </trkpt>
    <trkpt lat="38.640436996" lon="34.836479975">
      <ele>1106.105</ele>
      <time>2021-10-12T11:36:39Z</time>
    </trkpt>
    <trkpt lat="38.640463986" lon="34.836466983">
      <ele>1106.297</ele>
      <time>2021-10-12T11:36:40Z</time>
    </trkpt>
    <trkpt lat="38.64048603" lon="34.836454997">
      <ele>1106.452</ele>
      <time>2021-10-12T11:36:41Z</time>
    </trkpt>
    <trkpt lat="38.640515031" lon="34.836427001">
      <ele>1106.697</ele>
      <time>2021-10-12T11:36:42Z</time>
    </trkpt>
    <trkpt lat="38.640526012" lon="34.836402023">
      <ele>1106.841</ele>
      <time>2021-10-12T11:36:43Z</time>
    </trkpt>
    <trkpt lat="38.640535986" lon="34.836376039">
      <ele>1107.025</ele>
      <time>2021-10-12T11:36:44Z</time>
    </trkpt>
    <trkpt lat="38.640554007" lon="34.836348966">
      <ele>1107.283</ele>
      <time>2021-10-12T11:36:45Z</time>
    </trkpt>
    <trkpt lat="38.64057404" lon="34.836322982">
      <ele>1107.392</ele>
      <time>2021-10-12T11:36:46Z</time>
    </trkpt>
    <trkpt lat="38.640590971" lon="34.83629398">
      <ele>1107.512</ele>
      <time>2021-10-12T11:36:47Z</time>
    </trkpt>
    <trkpt lat="38.640614022" lon="34.836266991">
      <ele>1107.575</ele>
      <time>2021-10-12T11:36:48Z</time>
    </trkpt>
    <trkpt lat="38.640630031" lon="34.836241007">
      <ele>1107.654</ele>
      <time>2021-10-12T11:36:49Z</time>
    </trkpt>
    <trkpt lat="38.640641011" lon="34.836209994">
      <ele>1107.782</ele>
      <time>2021-10-12T11:36:50Z</time>
    </trkpt>
    <trkpt lat="38.640656015" lon="34.836181998">
      <ele>1107.859</ele>
      <time>2021-10-12T11:36:51Z</time>
    </trkpt>
    <trkpt lat="38.640666995" lon="34.836142017">
      <ele>1108.02</ele>
      <time>2021-10-12T11:36:52Z</time>
    </trkpt>
    <trkpt lat="38.640675042" lon="34.836104969">
      <ele>1108.184</ele>
      <time>2021-10-12T11:36:54Z</time>
    </trkpt>
    <trkpt lat="38.640681999" lon="34.836071022">
      <ele>1108.378</ele>
      <time>2021-10-12T11:36:55Z</time>
    </trkpt>
    <trkpt lat="38.640687028" lon="34.836036991">
      <ele>1108.587</ele>
      <time>2021-10-12T11:36:56Z</time>
    </trkpt>
    <trkpt lat="38.640690967" lon="34.836004972">
      <ele>1108.789</ele>
      <time>2021-10-12T11:36:57Z</time>
    </trkpt>
    <trkpt lat="38.640691973" lon="34.835969014">
      <ele>1109.041</ele>
      <time>2021-10-12T11:36:58Z</time>
    </trkpt>
    <trkpt lat="38.640683005" lon="34.835932972">
      <ele>1109.365</ele>
      <time>2021-10-12T11:36:59Z</time>
    </trkpt>
    <trkpt lat="38.640668001" lon="34.835896008">
      <ele>1109.739</ele>
      <time>2021-10-12T11:37:00Z</time>
    </trkpt>
    <trkpt lat="38.640651992" lon="34.835860971">
      <ele>1110.107</ele>
      <time>2021-10-12T11:37:01Z</time>
    </trkpt>
    <trkpt lat="38.640639" lon="34.835825013">
      <ele>1110.417</ele>
      <time>2021-10-12T11:37:02Z</time>
    </trkpt>
    <trkpt lat="38.640628019" lon="34.835786959">
      <ele>1110.565</ele>
      <time>2021-10-12T11:37:03Z</time>
    </trkpt>
    <trkpt lat="38.640618967" lon="34.835744966">
      <ele>1110.689</ele>
      <time>2021-10-12T11:37:05Z</time>
    </trkpt>
    <trkpt lat="38.640615027" lon="34.835703978">
      <ele>1110.771</ele>
      <time>2021-10-12T11:37:06Z</time>
    </trkpt>
    <trkpt lat="38.640614022" lon="34.835663997">
      <ele>1110.836</ele>
      <time>2021-10-12T11:37:07Z</time>
    </trkpt>
    <trkpt lat="38.640613016" lon="34.835622003">
      <ele>1110.901</ele>
      <time>2021-10-12T11:37:08Z</time>
    </trkpt>
    <trkpt lat="38.640613016" lon="34.83558001">
      <ele>1110.964</ele>
      <time>2021-10-12T11:37:09Z</time>
    </trkpt>
    <trkpt lat="38.640617961" lon="34.835541034">
      <ele>1111.012</ele>
      <time>2021-10-12T11:37:11Z</time>
    </trkpt>
    <trkpt lat="38.64063397" lon="34.835505998">
      <ele>1111.05</ele>
      <time>2021-10-12T11:37:12Z</time>
    </trkpt>
    <trkpt lat="38.64066096" lon="34.835482026">
      <ele>1111.1</ele>
      <time>2021-10-12T11:37:13Z</time>
    </trkpt>
    <trkpt lat="38.640688034" lon="34.835459981">
      <ele>1111.164</ele>
      <time>2021-10-12T11:37:14Z</time>
    </trkpt>
    <trkpt lat="38.640718041" lon="34.835445983">
      <ele>1111.231</ele>
      <time>2021-10-12T11:37:15Z</time>
    </trkpt>
    <trkpt lat="38.64074897" lon="34.835435003">
      <ele>1111.302</ele>
      <time>2021-10-12T11:37:17Z</time>
    </trkpt>
    <trkpt lat="38.640776966" lon="34.835418994">
      <ele>1111.392</ele>
      <time>2021-10-12T11:37:18Z</time>
    </trkpt>
    <trkpt lat="38.640800016" lon="34.835404996">
      <ele>1111.477</ele>
      <time>2021-10-12T11:37:19Z</time>
    </trkpt>
    <trkpt lat="38.640824994" lon="34.835381024">
      <ele>1111.609</ele>
      <time>2021-10-12T11:37:20Z</time>
    </trkpt>
    <trkpt lat="38.640881237" lon="34.835391082">
      <ele>1111.247</ele>
      <time>2021-10-12T11:37:22Z</time>
    </trkpt>
    <trkpt lat="38.640943347" lon="34.835411869">
      <ele>1110.725</ele>
      <time>2021-10-12T11:37:24Z</time>
    </trkpt>
    <trkpt lat="38.640997997" lon="34.835435925">
      <ele>1110.245</ele>
      <time>2021-10-12T11:37:26Z</time>
    </trkpt>
    <trkpt lat="38.641040074" lon="34.835450761">
      <ele>1109.889</ele>
      <time>2021-10-12T11:37:28Z</time>
    </trkpt>
    <trkpt lat="38.641067315" lon="34.835446905">
      <ele>1109.706</ele>
      <time>2021-10-12T11:37:29Z</time>
    </trkpt>
    <trkpt lat="38.641119534" lon="34.835477415">
      <ele>1109.221</ele>
      <time>2021-10-12T11:37:31Z</time>
    </trkpt>
    <trkpt lat="38.641166808" lon="34.835504908">
      <ele>1108.781</ele>
      <time>2021-10-12T11:37:33Z</time>
    </trkpt>
    <trkpt lat="38.641206622" lon="34.835513541">
      <ele>1108.464</ele>
      <time>2021-10-12T11:37:35Z</time>
    </trkpt>
    <trkpt lat="38.641256494" lon="34.835541034">
      <ele>1108.006</ele>
      <time>2021-10-12T11:37:37Z</time>
    </trkpt>
    <trkpt lat="38.641299075" lon="34.835565509">
      <ele>1107.563</ele>
      <time>2021-10-12T11:37:38Z</time>
    </trkpt>
    <trkpt lat="38.641339308" lon="34.835606078">
      <ele>1106.961</ele>
      <time>2021-10-12T11:37:40Z</time>
    </trkpt>
    <trkpt lat="38.641374512" lon="34.835637258">
      <ele>1106.5</ele>
      <time>2021-10-12T11:37:42Z</time>
    </trkpt>
    <trkpt lat="38.641409883" lon="34.835681347">
      <ele>1106.211</ele>
      <time>2021-10-12T11:37:44Z</time>
    </trkpt>
    <trkpt lat="38.641440561" lon="34.835741697">
      <ele>1105.907</ele>
      <time>2021-10-12T11:37:46Z</time>
    </trkpt>
    <trkpt lat="38.641463611" lon="34.83578302">
      <ele>1105.68</ele>
      <time>2021-10-12T11:37:47Z</time>
    </trkpt>
    <trkpt lat="38.641496971" lon="34.835843621">
      <ele>1105.338</ele>
      <time>2021-10-12T11:37:49Z</time>
    </trkpt>
    <trkpt lat="38.641527649" lon="34.835885027">
      <ele>1105.22</ele>
      <time>2021-10-12T11:37:51Z</time>
    </trkpt>
    <trkpt lat="38.641568301" lon="34.835916543">
      <ele>1105.153</ele>
      <time>2021-10-12T11:37:53Z</time>
    </trkpt>
    <trkpt lat="38.641616413" lon="34.835938253">
      <ele>1105.132</ele>
      <time>2021-10-12T11:37:55Z</time>
    </trkpt>
    <trkpt lat="38.641654467" lon="34.835953759">
      <ele>1105.108</ele>
      <time>2021-10-12T11:37:56Z</time>
    </trkpt>
    <trkpt lat="38.641702663" lon="34.83596893">
      <ele>1104.831</ele>
      <time>2021-10-12T11:37:58Z</time>
    </trkpt>
    <trkpt lat="38.641753457" lon="34.83598737">
      <ele>1104.405</ele>
      <time>2021-10-12T11:38:00Z</time>
    </trkpt>
    <trkpt lat="38.641791511" lon="34.835999608">
      <ele>1104.084</ele>
      <time>2021-10-12T11:38:01Z</time>
    </trkpt>
    <trkpt lat="38.641827134" lon="34.836011846">
      <ele>1103.766</ele>
      <time>2021-10-12T11:38:03Z</time>
    </trkpt>
    <trkpt lat="38.641870385" lon="34.836027268">
      <ele>1103.358</ele>
      <time>2021-10-12T11:38:04Z</time>
    </trkpt>
    <trkpt lat="38.641907936" lon="34.8360069">
      <ele>1103.339</ele>
      <time>2021-10-12T11:38:06Z</time>
    </trkpt>
    <trkpt lat="38.641952947" lon="34.835983096">
      <ele>1103.352</ele>
      <time>2021-10-12T11:38:08Z</time>
    </trkpt>
    <trkpt lat="38.641990079" lon="34.835946551">
      <ele>1103.613</ele>
      <time>2021-10-12T11:38:09Z</time>
    </trkpt>
    <trkpt lat="38.642017236" lon="34.835923081">
      <ele>1103.769</ele>
      <time>2021-10-12T11:38:11Z</time>
    </trkpt>
    <trkpt lat="38.642044226" lon="34.835899612">
      <ele>1103.925</ele>
      <time>2021-10-12T11:38:12Z</time>
    </trkpt>
    <trkpt lat="38.642080771" lon="34.835862899">
      <ele>1104.19</ele>
      <time>2021-10-12T11:38:14Z</time>
    </trkpt>
    <trkpt lat="38.64210248" lon="34.835836412">
      <ele>1104.398</ele>
      <time>2021-10-12T11:38:15Z</time>
    </trkpt>
    <trkpt lat="38.642124021" lon="34.835803555">
      <ele>1105.028</ele>
      <time>2021-10-12T11:38:16Z</time>
    </trkpt>
    <trkpt lat="38.642160483" lon="34.835773548">
      <ele>1105.633</ele>
      <time>2021-10-12T11:38:18Z</time>
    </trkpt>
    <trkpt lat="38.642187305" lon="34.835753515">
      <ele>1106.065</ele>
      <time>2021-10-12T11:38:19Z</time>
    </trkpt>
    <trkpt lat="38.642221168" lon="34.83572376">
      <ele>1106.762</ele>
      <time>2021-10-12T11:38:20Z</time>
    </trkpt>
    <trkpt lat="38.642251426" lon="34.835665254">
      <ele>1108.277</ele>
      <time>2021-10-12T11:38:22Z</time>
    </trkpt>
    <trkpt lat="38.642217647" lon="34.835621249">
      <ele>1109.336</ele>
      <time>2021-10-12T11:38:24Z</time>
    </trkpt>
    <trkpt lat="38.642164171" lon="34.835581016">
      <ele>1110.188</ele>
      <time>2021-10-12T11:38:26Z</time>
    </trkpt>
    <trkpt lat="38.642135924" lon="34.835543381">
      <ele>1110.851</ele>
      <time>2021-10-12T11:38:28Z</time>
    </trkpt>
    <trkpt lat="38.642075323" lon="34.835503399">
      <ele>1111.123</ele>
      <time>2021-10-12T11:38:30Z</time>
    </trkpt>
    <trkpt lat="38.642039951" lon="34.835478757">
      <ele>1111.268</ele>
      <time>2021-10-12T11:38:32Z</time>
    </trkpt>
    <trkpt lat="38.642042968" lon="34.835452018">
      <ele>1111.605</ele>
      <time>2021-10-12T11:38:33Z</time>
    </trkpt>
    <trkpt lat="38.642056966" lon="34.835424023">
      <ele>1112.017</ele>
      <time>2021-10-12T11:38:34Z</time>
    </trkpt>
    <trkpt lat="38.642075993" lon="34.835397033">
      <ele>1112.456</ele>
      <time>2021-10-12T11:38:35Z</time>
    </trkpt>
    <trkpt lat="38.64209502" lon="34.835368032">
      <ele>1112.933</ele>
      <time>2021-10-12T11:38:36Z</time>
    </trkpt>
    <trkpt lat="38.642113963" lon="34.835340036">
      <ele>1113.411</ele>
      <time>2021-10-12T11:38:37Z</time>
    </trkpt>
    <trkpt lat="38.642135002" lon="34.835316986">
      <ele>1113.852</ele>
      <time>2021-10-12T11:38:38Z</time>
    </trkpt>
    <trkpt lat="38.64215604" lon="34.835296031">
      <ele>1114.276</ele>
      <time>2021-10-12T11:38:39Z</time>
    </trkpt>
    <trkpt lat="38.642175989" lon="34.835271975">
      <ele>1114.744</ele>
      <time>2021-10-12T11:38:40Z</time>
    </trkpt>
    <trkpt lat="38.642199039" lon="34.835246997">
      <ele>1115.258</ele>
      <time>2021-10-12T11:38:41Z</time>
    </trkpt>
    <trkpt lat="38.642218988" lon="34.835222019">
      <ele>1115.775</ele>
      <time>2021-10-12T11:38:42Z</time>
    </trkpt>
    <trkpt lat="38.642237009" lon="34.835196035">
      <ele>1116.284</ele>
      <time>2021-10-12T11:38:43Z</time>
    </trkpt>
    <trkpt lat="38.642252013" lon="34.835164016">
      <ele>1116.853</ele>
      <time>2021-10-12T11:38:44Z</time>
    </trkpt>
    <trkpt lat="38.642265005" lon="34.835136021">
      <ele>1117.349</ele>
      <time>2021-10-12T11:38:45Z</time>
    </trkpt>
    <trkpt lat="38.642280009" lon="34.835111964">
      <ele>1117.804</ele>
      <time>2021-10-12T11:38:46Z</time>
    </trkpt>
    <trkpt lat="38.642293001" lon="34.835082963">
      <ele>1118.315</ele>
      <time>2021-10-12T11:38:47Z</time>
    </trkpt>
    <trkpt lat="38.642304987" lon="34.835053962">
      <ele>1118.819</ele>
      <time>2021-10-12T11:38:48Z</time>
    </trkpt>
    <trkpt lat="38.642315967" lon="34.83502496">
      <ele>1119.316</ele>
      <time>2021-10-12T11:38:49Z</time>
    </trkpt>
    <trkpt lat="38.642329965" lon="34.834998976">
      <ele>1119.788</ele>
      <time>2021-10-12T11:38:50Z</time>
    </trkpt>
    <trkpt lat="38.642343041" lon="34.834970981">
      <ele>1120.229</ele>
      <time>2021-10-12T11:38:51Z</time>
    </trkpt>
    <trkpt lat="38.642356033" lon="34.834946003">
      <ele>1120.64</ele>
      <time>2021-10-12T11:38:51Z</time>
    </trkpt>
    <trkpt lat="38.642367013" lon="34.834919013">
      <ele>1121.069</ele>
      <time>2021-10-12T11:38:52Z</time>
    </trkpt>
    <trkpt lat="38.642377993" lon="34.834892023">
      <ele>1121.506</ele>
      <time>2021-10-12T11:38:53Z</time>
    </trkpt>
    <trkpt lat="38.642387968" lon="34.834862016">
      <ele>1121.98</ele>
      <time>2021-10-12T11:38:54Z</time>
    </trkpt>
    <trkpt lat="38.642399032" lon="34.834828991">
      <ele>1122.512</ele>
      <time>2021-10-12T11:38:55Z</time>
    </trkpt>
    <trkpt lat="38.642408" lon="34.83479999">
      <ele>1122.979</ele>
      <time>2021-10-12T11:38:56Z</time>
    </trkpt>
    <trkpt lat="38.642418981" lon="34.834775012">
      <ele>1123.42</ele>
      <time>2021-10-12T11:38:57Z</time>
    </trkpt>
    <trkpt lat="38.642431973" lon="34.834743999">
      <ele>1123.971</ele>
      <time>2021-10-12T11:38:58Z</time>
    </trkpt>
    <trkpt lat="38.642442031" lon="34.834714998">
      <ele>1124.478</ele>
      <time>2021-10-12T11:38:59Z</time>
    </trkpt>
    <trkpt lat="38.642452005" lon="34.83468499">
      <ele>1125.018</ele>
      <time>2021-10-12T11:39:00Z</time>
    </trkpt>
    <trkpt lat="38.642460974" lon="34.834655989">
      <ele>1125.532</ele>
      <time>2021-10-12T11:39:01Z</time>
    </trkpt>
    <trkpt lat="38.642470026" lon="34.834626988">
      <ele>1126.048</ele>
      <time>2021-10-12T11:39:02Z</time>
    </trkpt>
    <trkpt lat="38.642478995" lon="34.83459698">
      <ele>1126.577</ele>
      <time>2021-10-12T11:39:03Z</time>
    </trkpt>
    <trkpt lat="38.642478995" lon="34.834568985">
      <ele>1126.98</ele>
      <time>2021-10-12T11:39:03Z</time>
    </trkpt>
    <trkpt lat="38.642478995" lon="34.834538978">
      <ele>1127.412</ele>
      <time>2021-10-12T11:39:04Z</time>
    </trkpt>
    <trkpt lat="38.642478995" lon="34.83450897">
      <ele>1127.844</ele>
      <time>2021-10-12T11:39:05Z</time>
    </trkpt>
    <trkpt lat="38.642480001" lon="34.834479969">
      <ele>1128.272</ele>
      <time>2021-10-12T11:39:06Z</time>
    </trkpt>
    <trkpt lat="38.642482013" lon="34.834449962">
      <ele>1128.726</ele>
      <time>2021-10-12T11:39:07Z</time>
    </trkpt>
    <trkpt lat="38.642483018" lon="34.834424984">
      <ele>1129.027</ele>
      <time>2021-10-12T11:39:08Z</time>
    </trkpt>
    <trkpt lat="38.642497016" lon="34.834391037">
      <ele>1129.545</ele>
      <time>2021-10-12T11:39:09Z</time>
    </trkpt>
    <trkpt lat="38.64251202" lon="34.834363963">
      <ele>1129.986</ele>
      <time>2021-10-12T11:39:10Z</time>
    </trkpt>
    <trkpt lat="38.642516965" lon="34.834329011">
      <ele>1130.405</ele>
      <time>2021-10-12T11:39:11Z</time>
    </trkpt>
    <trkpt lat="38.642526018" lon="34.834293975">
      <ele>1130.855</ele>
      <time>2021-10-12T11:39:12Z</time>
    </trkpt>
    <trkpt lat="38.642536998" lon="34.834276959">
      <ele>1131.128</ele>
      <time>2021-10-12T11:39:12Z</time>
    </trkpt>
    <trkpt lat="38.642550996" lon="34.83425701">
      <ele>1131.451</ele>
      <time>2021-10-12T11:39:13Z</time>
    </trkpt>
    <trkpt lat="38.642581003" lon="34.834248964">
      <ele>1131.781</ele>
      <time>2021-10-12T11:39:14Z</time>
    </trkpt>
    <trkpt lat="38.642601036" lon="34.834243013">
      <ele>1132.003</ele>
      <time>2021-10-12T11:39:15Z</time>
    </trkpt>
    <trkpt lat="38.642628025" lon="34.834248964">
      <ele>1132.17</ele>
      <time>2021-10-12T11:39:16Z</time>
    </trkpt>
    <trkpt lat="38.642660966" lon="34.834266985">
      <ele>1132.285</ele>
      <time>2021-10-12T11:39:17Z</time>
    </trkpt>
    <trkpt lat="38.642683011" lon="34.834289029">
      <ele>1132.286</ele>
      <time>2021-10-12T11:39:18Z</time>
    </trkpt>
    <trkpt lat="38.642704971" lon="34.834320964">
      <ele>1132.219</ele>
      <time>2021-10-12T11:39:20Z</time>
    </trkpt>
    <trkpt lat="38.642728021" lon="34.834346026">
      <ele>1132.235</ele>
      <time>2021-10-12T11:39:21Z</time>
    </trkpt>
    <trkpt lat="38.642748976" lon="34.834360024">
      <ele>1132.328</ele>
      <time>2021-10-12T11:39:22Z</time>
    </trkpt>
    <trkpt lat="38.642775966" lon="34.834381985">
      <ele>1132.432</ele>
      <time>2021-10-12T11:39:23Z</time>
    </trkpt>
    <trkpt lat="38.642795999" lon="34.834394976">
      <ele>1132.148</ele>
      <time>2021-10-12T11:39:24Z</time>
    </trkpt>
    <trkpt lat="38.642829023" lon="34.834402017">
      <ele>1131.724</ele>
      <time>2021-10-12T11:39:25Z</time>
    </trkpt>
    <trkpt lat="38.642859031" lon="34.834418027">
      <ele>1131.285</ele>
      <time>2021-10-12T11:39:26Z</time>
    </trkpt>
    <trkpt lat="38.642890966" lon="34.834430013">
      <ele>1130.86</ele>
      <time>2021-10-12T11:39:27Z</time>
    </trkpt>
    <trkpt lat="38.642909992" lon="34.834426995">
      <ele>1130.668</ele>
      <time>2021-10-12T11:39:28Z</time>
    </trkpt>
    <trkpt lat="38.642931031" lon="34.834392965">
      <ele>1130.613</ele>
      <time>2021-10-12T11:39:29Z</time>
    </trkpt>
    <trkpt lat="38.642960032" lon="34.834379973">
      <ele>1130.344</ele>
      <time>2021-10-12T11:39:30Z</time>
    </trkpt>
    <trkpt lat="38.642986016" lon="34.834366981">
      <ele>1130.1</ele>
      <time>2021-10-12T11:39:32Z</time>
    </trkpt>
    <trkpt lat="38.643006971" lon="34.834336974">
      <ele>1129.979</ele>
      <time>2021-10-12T11:39:33Z</time>
    </trkpt>
    <trkpt lat="38.643007977" lon="34.834299004">
      <ele>1130.127</ele>
      <time>2021-10-12T11:39:34Z</time>
    </trkpt>
    <trkpt lat="38.643002026" lon="34.834261034">
      <ele>1130.366</ele>
      <time>2021-10-12T11:39:35Z</time>
    </trkpt>
    <trkpt lat="38.643003032" lon="34.834220968">
      <ele>1130.524</ele>
      <time>2021-10-12T11:39:36Z</time>
    </trkpt>
    <trkpt lat="38.643004959" lon="34.834198002">
      <ele>1130.595</ele>
      <time>2021-10-12T11:39:37Z</time>
    </trkpt>
    <trkpt lat="38.643007977" lon="34.834167995">
      <ele>1130.68</ele>
      <time>2021-10-12T11:39:38Z</time>
    </trkpt>
    <trkpt lat="38.643009989" lon="34.834143016">
      <ele>1130.528</ele>
      <time>2021-10-12T11:39:38Z</time>
    </trkpt>
    <trkpt lat="38.642995991" lon="34.834118038">
      <ele>1130.62</ele>
      <time>2021-10-12T11:39:39Z</time>
    </trkpt>
    <trkpt lat="38.642971013" lon="34.83408602">
      <ele>1130.902</ele>
      <time>2021-10-12T11:39:41Z</time>
    </trkpt>
    <trkpt lat="38.642951986" lon="34.834066993">
      <ele>1131.175</ele>
      <time>2021-10-12T11:39:41Z</time>
    </trkpt>
    <trkpt lat="38.642932959" lon="34.834045032">
      <ele>1131.469</ele>
      <time>2021-10-12T11:39:42Z</time>
    </trkpt>
    <trkpt lat="38.642910998" lon="34.834020976">
      <ele>1131.851</ele>
      <time>2021-10-12T11:39:43Z</time>
    </trkpt>
    <trkpt lat="38.642887026" lon="34.83399298">
      <ele>1132.314</ele>
      <time>2021-10-12T11:39:45Z</time>
    </trkpt>
    <trkpt lat="38.64286297" lon="34.833964985">
      <ele>1132.831</ele>
      <time>2021-10-12T11:39:46Z</time>
    </trkpt>
    <trkpt lat="38.642842015" lon="34.833933972">
      <ele>1133.332</ele>
      <time>2021-10-12T11:39:47Z</time>
    </trkpt>
    <trkpt lat="38.642819971" lon="34.833903965">
      <ele>1133.907</ele>
      <time>2021-10-12T11:39:48Z</time>
    </trkpt>
    <trkpt lat="38.642799016" lon="34.833874041">
      <ele>1134.403</ele>
      <time>2021-10-12T11:39:49Z</time>
    </trkpt>
    <trkpt lat="38.642778983" lon="34.833848979">
      <ele>1134.825</ele>
      <time>2021-10-12T11:39:50Z</time>
    </trkpt>
    <trkpt lat="38.642761968" lon="34.83382903">
      <ele>1134.809</ele>
      <time>2021-10-12T11:39:51Z</time>
    </trkpt>
    <trkpt lat="38.642745037" lon="34.833804974">
      <ele>1134.769</ele>
      <time>2021-10-12T11:39:52Z</time>
    </trkpt>
    <trkpt lat="38.642727016" lon="34.83377899">
      <ele>1134.749</ele>
      <time>2021-10-12T11:39:53Z</time>
    </trkpt>
    <trkpt lat="38.642711006" lon="34.833753007">
      <ele>1134.746</ele>
      <time>2021-10-12T11:39:54Z</time>
    </trkpt>
    <trkpt lat="38.642693991" lon="34.833726017">
      <ele>1134.767</ele>
      <time>2021-10-12T11:39:55Z</time>
    </trkpt>
    <trkpt lat="38.642677981" lon="34.833700033">
      <ele>1134.809</ele>
      <time>2021-10-12T11:39:56Z</time>
    </trkpt>
    <trkpt lat="38.642664989" lon="34.833678994">
      <ele>1134.858</ele>
      <time>2021-10-12T11:39:57Z</time>
    </trkpt>
    <trkpt lat="38.642651998" lon="34.833656028">
      <ele>1134.921</ele>
      <time>2021-10-12T11:39:58Z</time>
    </trkpt>
    <trkpt lat="38.642638" lon="34.833635995">
      <ele>1135.006</ele>
      <time>2021-10-12T11:39:59Z</time>
    </trkpt>
    <trkpt lat="38.642626014" lon="34.83361504">
      <ele>1135.091</ele>
      <time>2021-10-12T11:39:59Z</time>
    </trkpt>
    <trkpt lat="38.642613022" lon="34.83359199">
      <ele>1134.952</ele>
      <time>2021-10-12T11:40:00Z</time>
    </trkpt>
    <trkpt lat="38.642599024" lon="34.833571035">
      <ele>1134.803</ele>
      <time>2021-10-12T11:40:01Z</time>
    </trkpt>
    <trkpt lat="38.642586032" lon="34.833544968">
      <ele>1134.592</ele>
      <time>2021-10-12T11:40:02Z</time>
    </trkpt>
    <trkpt lat="38.642569017" lon="34.833518984">
      <ele>1134.426</ele>
      <time>2021-10-12T11:40:03Z</time>
    </trkpt>
    <trkpt lat="38.642550996" lon="34.833489982">
      <ele>1134.245</ele>
      <time>2021-10-12T11:40:04Z</time>
    </trkpt>
    <trkpt lat="38.64253398" lon="34.833458969">
      <ele>1134.045</ele>
      <time>2021-10-12T11:40:05Z</time>
    </trkpt>
    <trkpt lat="38.642514031" lon="34.833429968">
      <ele>1133.91</ele>
      <time>2021-10-12T11:40:06Z</time>
    </trkpt>
    <trkpt lat="38.642491987" lon="34.833398033">
      <ele>1133.65</ele>
      <time>2021-10-12T11:40:07Z</time>
    </trkpt>
    <trkpt lat="38.642472038" lon="34.833366014">
      <ele>1133.217</ele>
      <time>2021-10-12T11:40:09Z</time>
    </trkpt>
    <trkpt lat="38.642453011" lon="34.833333995">
      <ele>1132.837</ele>
      <time>2021-10-12T11:40:10Z</time>
    </trkpt>
    <trkpt lat="38.642431973" lon="34.83330097">
      <ele>1132.23</ele>
      <time>2021-10-12T11:40:11Z</time>
    </trkpt>
    <trkpt lat="38.642405989" lon="34.833270041">
      <ele>1131.677</ele>
      <time>2021-10-12T11:40:12Z</time>
    </trkpt>
    <trkpt lat="38.642380005" lon="34.833242968">
      <ele>1131.222</ele>
      <time>2021-10-12T11:40:13Z</time>
    </trkpt>
    <trkpt lat="38.64234698" lon="34.83322503">
      <ele>1130.929</ele>
      <time>2021-10-12T11:40:15Z</time>
    </trkpt>
    <trkpt lat="38.642311022" lon="34.833213966">
      <ele>1130.756</ele>
      <time>2021-10-12T11:40:16Z</time>
    </trkpt>
    <trkpt lat="38.642273974" lon="34.833204998">
      <ele>1130.628</ele>
      <time>2021-10-12T11:40:18Z</time>
    </trkpt>
    <trkpt lat="38.642238015" lon="34.833198041">
      <ele>1130.54</ele>
      <time>2021-10-12T11:40:19Z</time>
    </trkpt>
    <trkpt lat="38.642203985" lon="34.833193012">
      <ele>1130.584</ele>
      <time>2021-10-12T11:40:20Z</time>
    </trkpt>
    <trkpt lat="38.642171966" lon="34.833185971">
      <ele>1130.696</ele>
      <time>2021-10-12T11:40:21Z</time>
    </trkpt>
    <trkpt lat="38.642139025" lon="34.833171973">
      <ele>1130.779</ele>
      <time>2021-10-12T11:40:23Z</time>
    </trkpt>
    <trkpt lat="38.642103989" lon="34.833161999">
      <ele>1130.937</ele>
      <time>2021-10-12T11:40:24Z</time>
    </trkpt>
    <trkpt lat="38.642066019" lon="34.833152024">
      <ele>1131.143</ele>
      <time>2021-10-12T11:40:25Z</time>
    </trkpt>
    <trkpt lat="38.642030982" lon="34.833144983">
      <ele>1131.366</ele>
      <time>2021-10-12T11:40:27Z</time>
    </trkpt>
    <trkpt lat="38.641988989" lon="34.833136015">
      <ele>1131.658</ele>
      <time>2021-10-12T11:40:28Z</time>
    </trkpt>
    <trkpt lat="38.641954958" lon="34.833127968">
      <ele>1131.916</ele>
      <time>2021-10-12T11:40:30Z</time>
    </trkpt>
    <trkpt lat="38.641920006" lon="34.833114976">
      <ele>1132.522</ele>
      <time>2021-10-12T11:40:31Z</time>
    </trkpt>
    <trkpt lat="38.641886981" lon="34.833108019">
      <ele>1133.253</ele>
      <time>2021-10-12T11:40:32Z</time>
    </trkpt>
    <trkpt lat="38.641855968" lon="34.833097961">
      <ele>1133.986</ele>
      <time>2021-10-12T11:40:33Z</time>
    </trkpt>
    <trkpt lat="38.641825039" lon="34.833086981">
      <ele>1134.766</ele>
      <time>2021-10-12T11:40:35Z</time>
    </trkpt>
    <trkpt lat="38.641797965" lon="34.833083041">
      <ele>1135.43</ele>
      <time>2021-10-12T11:40:36Z</time>
    </trkpt>
    <trkpt lat="38.641771981" lon="34.833079018">
      <ele>1136.084</ele>
      <time>2021-10-12T11:40:37Z</time>
    </trkpt>
    <trkpt lat="38.641749015" lon="34.833078012">
      <ele>1136.64</ele>
      <time>2021-10-12T11:40:37Z</time>
    </trkpt>
    <trkpt lat="38.641727977" lon="34.833067032">
      <ele>1137.294</ele>
      <time>2021-10-12T11:40:38Z</time>
    </trkpt>
    <trkpt lat="38.641704004" lon="34.833055967">
      <ele>1138.053</ele>
      <time>2021-10-12T11:40:39Z</time>
    </trkpt>
    <trkpt lat="38.641677015" lon="34.833040964">
      <ele>1138.835</ele>
      <time>2021-10-12T11:40:40Z</time>
    </trkpt>
    <trkpt lat="38.641652036" lon="34.833012968">
      <ele>1139.339</ele>
      <time>2021-10-12T11:40:42Z</time>
    </trkpt>
    <trkpt lat="38.641634015" lon="34.832978016">
      <ele>1139.69</ele>
      <time>2021-10-12T11:40:43Z</time>
    </trkpt>
    <trkpt lat="38.641624041" lon="34.832938034">
      <ele>1140.106</ele>
      <time>2021-10-12T11:40:44Z</time>
    </trkpt>
    <trkpt lat="38.641613983" lon="34.832902998">
      <ele>1140.515</ele>
      <time>2021-10-12T11:40:45Z</time>
    </trkpt>
    <trkpt lat="38.641604008" lon="34.832869973">
      <ele>1140.939</ele>
      <time>2021-10-12T11:40:46Z</time>
    </trkpt>
    <trkpt lat="38.641595962" lon="34.832838038">
      <ele>1141.363</ele>
      <time>2021-10-12T11:40:47Z</time>
    </trkpt>
    <trkpt lat="38.641591016" lon="34.83280099">
      <ele>1141.831</ele>
      <time>2021-10-12T11:40:48Z</time>
    </trkpt>
    <trkpt lat="38.641589005" lon="34.83276302">
      <ele>1142.163</ele>
      <time>2021-10-12T11:40:49Z</time>
    </trkpt>
    <trkpt lat="38.641587999" lon="34.832725972">
      <ele>1142.291</ele>
      <time>2021-10-12T11:40:50Z</time>
    </trkpt>
    <trkpt lat="38.641584981" lon="34.832690014">
      <ele>1142.455</ele>
      <time>2021-10-12T11:40:51Z</time>
    </trkpt>
    <trkpt lat="38.641581964" lon="34.832654977">
      <ele>1142.624</ele>
      <time>2021-10-12T11:40:52Z</time>
    </trkpt>
    <trkpt lat="38.641580036" lon="34.832622036">
      <ele>1142.772</ele>
      <time>2021-10-12T11:40:53Z</time>
    </trkpt>
    <trkpt lat="38.641576013" lon="34.832584988">
      <ele>1142.985</ele>
      <time>2021-10-12T11:40:54Z</time>
    </trkpt>
    <trkpt lat="38.641570983" lon="34.832553975">
      <ele>1143.21</ele>
      <time>2021-10-12T11:40:55Z</time>
    </trkpt>
    <trkpt lat="38.641566038" lon="34.832521034">
      <ele>1143.454</ele>
      <time>2021-10-12T11:40:56Z</time>
    </trkpt>
    <trkpt lat="38.641562015" lon="34.832493961">
      <ele>1143.615</ele>
      <time>2021-10-12T11:40:57Z</time>
    </trkpt>
    <trkpt lat="38.64155598" lon="34.832463032">
      <ele>1143.656</ele>
      <time>2021-10-12T11:40:58Z</time>
    </trkpt>
    <trkpt lat="38.641550029" lon="34.832435036">
      <ele>1143.705</ele>
      <time>2021-10-12T11:40:59Z</time>
    </trkpt>
    <trkpt lat="38.641540976" lon="34.83241098">
      <ele>1143.847</ele>
      <time>2021-10-12T11:41:00Z</time>
    </trkpt>
    <trkpt lat="38.641524967" lon="34.832392037">
      <ele>1144.182</ele>
      <time>2021-10-12T11:41:00Z</time>
    </trkpt>
    <trkpt lat="38.64150703" lon="34.832378039">
      <ele>1144.584</ele>
      <time>2021-10-12T11:41:01Z</time>
    </trkpt>
    <trkpt lat="38.641484985" lon="34.832364963">
      <ele>1145.092</ele>
      <time>2021-10-12T11:41:02Z</time>
    </trkpt>
    <trkpt lat="38.641457995" lon="34.832354989">
      <ele>1145.736</ele>
      <time>2021-10-12T11:41:03Z</time>
    </trkpt>
    <trkpt lat="38.641431006" lon="34.83234602">
      <ele>1146.384</ele>
      <time>2021-10-12T11:41:04Z</time>
    </trkpt>
    <trkpt lat="38.64140301" lon="34.83233504">
      <ele>1147.05</ele>
      <time>2021-10-12T11:41:05Z</time>
    </trkpt>
    <trkpt lat="38.641374009" lon="34.832323976">
      <ele>1147.293</ele>
      <time>2021-10-12T11:41:06Z</time>
    </trkpt>
    <trkpt lat="38.641344002" lon="34.832310984">
      <ele>1147.106</ele>
      <time>2021-10-12T11:41:08Z</time>
    </trkpt>
    <trkpt lat="38.641317012" lon="34.832300004">
      <ele>1146.949</ele>
      <time>2021-10-12T11:41:09Z</time>
    </trkpt>
    <trkpt lat="38.64128801" lon="34.832292963">
      <ele>1146.799</ele>
      <time>2021-10-12T11:41:10Z</time>
    </trkpt>
    <trkpt lat="38.641255992" lon="34.832291035">
      <ele>1146.651</ele>
      <time>2021-10-12T11:41:11Z</time>
    </trkpt>
    <trkpt lat="38.641222967" lon="34.832293969">
      <ele>1146.507</ele>
      <time>2021-10-12T11:41:12Z</time>
    </trkpt>
    <trkpt lat="38.641188014" lon="34.832296986">
      <ele>1146.351</ele>
      <time>2021-10-12T11:41:13Z</time>
    </trkpt>
    <trkpt lat="38.64115499" lon="34.832303021">
      <ele>1146.204</ele>
      <time>2021-10-12T11:41:15Z</time>
    </trkpt>
    <trkpt lat="38.641122971" lon="34.832306039">
      <ele>1146.056</ele>
      <time>2021-10-12T11:41:16Z</time>
    </trkpt>
    <trkpt lat="38.64109003" lon="34.832309978">
      <ele>1145.88</ele>
      <time>2021-10-12T11:41:17Z</time>
    </trkpt>
    <trkpt lat="38.641060023" lon="34.832317019">
      <ele>1145.686</ele>
      <time>2021-10-12T11:41:18Z</time>
    </trkpt>
    <trkpt lat="38.641031021" lon="34.832323976">
      <ele>1145.472</ele>
      <time>2021-10-12T11:41:19Z</time>
    </trkpt>
    <trkpt lat="38.641011994" lon="34.832335962">
      <ele>1145.269</ele>
      <time>2021-10-12T11:41:20Z</time>
    </trkpt>
    <trkpt lat="38.640993973" lon="34.832378039">
      <ele>1144.817</ele>
      <time>2021-10-12T11:41:21Z</time>
    </trkpt>
    <trkpt lat="38.640971007" lon="34.832396982">
      <ele>1144.413</ele>
      <time>2021-10-12T11:41:22Z</time>
    </trkpt>
    <trkpt lat="38.640941" lon="34.832397988">
      <ele>1144.062</ele>
      <time>2021-10-12T11:41:24Z</time>
    </trkpt>
    <trkpt lat="38.640906969" lon="34.832390025">
      <ele>1143.78</ele>
      <time>2021-10-12T11:41:25Z</time>
    </trkpt>
    <trkpt lat="38.640872017" lon="34.832372004">
      <ele>1143.679</ele>
      <time>2021-10-12T11:41:26Z</time>
    </trkpt>
    <trkpt lat="38.640835974" lon="34.832351971">
      <ele>1143.687</ele>
      <time>2021-10-12T11:41:28Z</time>
    </trkpt>
    <trkpt lat="38.640804039" lon="34.832330011">
      <ele>1143.784</ele>
      <time>2021-10-12T11:41:29Z</time>
    </trkpt>
    <trkpt lat="38.64077596" lon="34.832305033">
      <ele>1143.951</ele>
      <time>2021-10-12T11:41:30Z</time>
    </trkpt>
    <trkpt lat="38.640752994" lon="34.832281983">
      <ele>1144.119</ele>
      <time>2021-10-12T11:41:31Z</time>
    </trkpt>
    <trkpt lat="38.640744025" lon="34.832252981">
      <ele>1144.517</ele>
      <time>2021-10-12T11:41:32Z</time>
    </trkpt>
    <trkpt lat="38.640757017" lon="34.832221968">
      <ele>1145.173</ele>
      <time>2021-10-12T11:41:33Z</time>
    </trkpt>
    <trkpt lat="38.640791969" lon="34.832202019">
      <ele>1145.295</ele>
      <time>2021-10-12T11:41:35Z</time>
    </trkpt>
    <trkpt lat="38.640833963" lon="34.832197996">
      <ele>1145.651</ele>
      <time>2021-10-12T11:41:36Z</time>
    </trkpt>
    <trkpt lat="38.640872017" lon="34.832193973">
      <ele>1145.607</ele>
      <time>2021-10-12T11:41:38Z</time>
    </trkpt>
    <trkpt lat="38.640913004" lon="34.832191039">
      <ele>1145.583</ele>
      <time>2021-10-12T11:41:39Z</time>
    </trkpt>
    <trkpt lat="38.640949968" lon="34.832182992">
      <ele>1145.494</ele>
      <time>2021-10-12T11:41:41Z</time>
    </trkpt>
    <trkpt lat="38.640981987" lon="34.832168994">
      <ele>1145.336</ele>
      <time>2021-10-12T11:41:42Z</time>
    </trkpt>
    <trkpt lat="38.641014006" lon="34.83214804">
      <ele>1145.105</ele>
      <time>2021-10-12T11:41:43Z</time>
    </trkpt>
    <trkpt lat="38.641043007" lon="34.832124989">
      <ele>1144.864</ele>
      <time>2021-10-12T11:41:44Z</time>
    </trkpt>
    <trkpt lat="38.641071003" lon="34.832095988">
      <ele>1144.571</ele>
      <time>2021-10-12T11:41:46Z</time>
    </trkpt>
    <trkpt lat="38.641098998" lon="34.832064975">
      <ele>1144.277</ele>
      <time>2021-10-12T11:41:47Z</time>
    </trkpt>
    <trkpt lat="38.641128" lon="34.832031028">
      <ele>1143.954</ele>
      <time>2021-10-12T11:41:49Z</time>
    </trkpt>
    <trkpt lat="38.641155995" lon="34.831999009">
      <ele>1143.621</ele>
      <time>2021-10-12T11:41:50Z</time>
    </trkpt>
    <trkpt lat="38.641183991" lon="34.831965985">
      <ele>1143.253</ele>
      <time>2021-10-12T11:41:51Z</time>
    </trkpt>
    <trkpt lat="38.64121601" lon="34.831932038">
      <ele>1142.794</ele>
      <time>2021-10-12T11:41:53Z</time>
    </trkpt>
    <trkpt lat="38.641246017" lon="34.831903959">
      <ele>1142.342</ele>
      <time>2021-10-12T11:41:54Z</time>
    </trkpt>
    <trkpt lat="38.641279964" lon="34.831878981">
      <ele>1141.965</ele>
      <time>2021-10-12T11:41:56Z</time>
    </trkpt>
    <trkpt lat="38.64136898" lon="34.831811003">
      <ele>1141.044</ele>
      <time>2021-10-12T11:42:00Z</time>
    </trkpt>
    <trkpt lat="38.641414996" lon="34.831747971">
      <ele>1139.806</ele>
      <time>2021-10-12T11:42:02Z</time>
    </trkpt>
    <trkpt lat="38.641425977" lon="34.831711007">
      <ele>1139.174</ele>
      <time>2021-10-12T11:42:03Z</time>
    </trkpt>
    <trkpt lat="38.641420025" lon="34.831659961">
      <ele>1138.564</ele>
      <time>2021-10-12T11:42:05Z</time>
    </trkpt>
    <trkpt lat="38.641395969" lon="34.831624003">
      <ele>1138.305</ele>
      <time>2021-10-12T11:42:06Z</time>
    </trkpt>
    <trkpt lat="38.641367974" lon="34.831591984">
      <ele>1137.849</ele>
      <time>2021-10-12T11:42:08Z</time>
    </trkpt>
    <trkpt lat="38.641339978" lon="34.831568012">
      <ele>1137.403</ele>
      <time>2021-10-12T11:42:09Z</time>
    </trkpt>
    <trkpt lat="38.641307037" lon="34.831548985">
      <ele>1137.011</ele>
      <time>2021-10-12T11:42:10Z</time>
    </trkpt>
    <trkpt lat="38.641270995" lon="34.83152803">
      <ele>1136.579</ele>
      <time>2021-10-12T11:42:12Z</time>
    </trkpt>
    <trkpt lat="38.64123797" lon="34.831506992">
      <ele>1136.157</ele>
      <time>2021-10-12T11:42:13Z</time>
    </trkpt>
    <trkpt lat="38.641202012" lon="34.831490982">
      <ele>1135.797</ele>
      <time>2021-10-12T11:42:14Z</time>
    </trkpt>
    <trkpt lat="38.641092042" lon="34.83146701">
      <ele>1134.938</ele>
      <time>2021-10-12T11:42:19Z</time>
    </trkpt>
    <trkpt lat="38.641044013" lon="34.831475979">
      <ele>1134.605</ele>
      <time>2021-10-12T11:42:20Z</time>
    </trkpt>
    <trkpt lat="38.64100202" lon="34.831472039">
      <ele>1134.137</ele>
      <time>2021-10-12T11:42:22Z</time>
    </trkpt>
    <trkpt lat="38.640956003" lon="34.831471033">
      <ele>1133.673</ele>
      <time>2021-10-12T11:42:24Z</time>
    </trkpt>
    <trkpt lat="38.640911998" lon="34.831471033">
      <ele>1133.244</ele>
      <time>2021-10-12T11:42:25Z</time>
    </trkpt>
    <trkpt lat="38.640871011" lon="34.831463993">
      <ele>1132.722</ele>
      <time>2021-10-12T11:42:27Z</time>
    </trkpt>
    <trkpt lat="38.640833963" lon="34.831446977">
      <ele>1132.052</ele>
      <time>2021-10-12T11:42:28Z</time>
    </trkpt>
    <trkpt lat="38.640801022" lon="34.831426023">
      <ele>1131.668</ele>
      <time>2021-10-12T11:42:30Z</time>
    </trkpt>
    <trkpt lat="38.640761962" lon="34.831410013">
      <ele>1131.38</ele>
      <time>2021-10-12T11:42:31Z</time>
    </trkpt>
    <trkpt lat="38.640657021" lon="34.831356034">
      <ele>1130.645</ele>
      <time>2021-10-12T11:42:35Z</time>
    </trkpt>
    <trkpt lat="38.640626008" lon="34.83132896">
      <ele>1130.353</ele>
      <time>2021-10-12T11:42:37Z</time>
    </trkpt>
    <trkpt lat="38.640592983" lon="34.831307">
      <ele>1130.116</ele>
      <time>2021-10-12T11:42:38Z</time>
    </trkpt>
    <trkpt lat="38.640559958" lon="34.831281016">
      <ele>1129.835</ele>
      <time>2021-10-12T11:42:39Z</time>
    </trkpt>
    <trkpt lat="38.640521988" lon="34.831243968">
      <ele>1129.918</ele>
      <time>2021-10-12T11:42:41Z</time>
    </trkpt>
    <trkpt lat="38.640489969" lon="34.831204992">
      <ele>1129.958</ele>
      <time>2021-10-12T11:42:43Z</time>
    </trkpt>
    <trkpt lat="38.640459962" lon="34.831156963">
      <ele>1129.872</ele>
      <time>2021-10-12T11:42:45Z</time>
    </trkpt>
    <trkpt lat="38.640430961" lon="34.831113964">
      <ele>1129.825</ele>
      <time>2021-10-12T11:42:46Z</time>
    </trkpt>
    <trkpt lat="38.640417969" lon="34.831074988">
      <ele>1129.721</ele>
      <time>2021-10-12T11:42:48Z</time>
    </trkpt>
    <trkpt lat="38.640404977" lon="34.831035007">
      <ele>1129.62</ele>
      <time>2021-10-12T11:42:49Z</time>
    </trkpt>
    <trkpt lat="38.64038704" lon="34.830997959">
      <ele>1129.612</ele>
      <time>2021-10-12T11:42:50Z</time>
    </trkpt>
    <trkpt lat="38.640375976" lon="34.830952026">
      <ele>1129.441</ele>
      <time>2021-10-12T11:42:51Z</time>
    </trkpt>
    <trkpt lat="38.640369019" lon="34.830905003">
      <ele>1129.202</ele>
      <time>2021-10-12T11:42:53Z</time>
    </trkpt>
    <trkpt lat="38.640362984" lon="34.830849012">
      <ele>1128.886</ele>
      <time>2021-10-12T11:42:54Z</time>
    </trkpt>
    <trkpt lat="38.640360972" lon="34.830790004">
      <ele>1128.225</ele>
      <time>2021-10-12T11:42:56Z</time>
    </trkpt>
    <trkpt lat="38.640368013" lon="34.830716997">
      <ele>1127.161</ele>
      <time>2021-10-12T11:42:58Z</time>
    </trkpt>
    <trkpt lat="38.64038201" lon="34.83066">
      <ele>1126.237</ele>
      <time>2021-10-12T11:43:00Z</time>
    </trkpt>
    <trkpt lat="38.640401959" lon="34.830604009">
      <ele>1125.279</ele>
      <time>2021-10-12T11:43:02Z</time>
    </trkpt>
    <trkpt lat="38.640428027" lon="34.830553969">
      <ele>1124.366</ele>
      <time>2021-10-12T11:43:04Z</time>
    </trkpt>
    <trkpt lat="38.640450994" lon="34.830508037">
      <ele>1123.787</ele>
      <time>2021-10-12T11:43:05Z</time>
    </trkpt>
    <trkpt lat="38.640496004" lon="34.830424972">
      <ele>1122.703</ele>
      <time>2021-10-12T11:43:08Z</time>
    </trkpt>
    <trkpt lat="38.640503967" lon="34.830380967">
      <ele>1122.3</ele>
      <time>2021-10-12T11:43:09Z</time>
    </trkpt>
    <trkpt lat="38.640514025" lon="34.830339979">
      <ele>1121.896</ele>
      <time>2021-10-12T11:43:11Z</time>
    </trkpt>
    <trkpt lat="38.640524" lon="34.830294969">
      <ele>1121.465</ele>
      <time>2021-10-12T11:43:12Z</time>
    </trkpt>
    <trkpt lat="38.640530035" lon="34.830249036">
      <ele>1121.069</ele>
      <time>2021-10-12T11:43:13Z</time>
    </trkpt>
    <trkpt lat="38.640530035" lon="34.830210982">
      <ele>1120.795</ele>
      <time>2021-10-12T11:43:14Z</time>
    </trkpt>
    <trkpt lat="38.640531963" lon="34.830163959">
      <ele>1120.435</ele>
      <time>2021-10-12T11:43:16Z</time>
    </trkpt>
    <trkpt lat="38.640537998" lon="34.830118027">
      <ele>1120.039</ele>
      <time>2021-10-12T11:43:17Z</time>
    </trkpt>
    <trkpt lat="38.640545961" lon="34.83007201">
      <ele>1119.622</ele>
      <time>2021-10-12T11:43:19Z</time>
    </trkpt>
    <trkpt lat="38.640555013" lon="34.830028005">
      <ele>1119.207</ele>
      <time>2021-10-12T11:43:20Z</time>
    </trkpt>
    <trkpt lat="38.640569011" lon="34.829986012">
      <ele>1118.942</ele>
      <time>2021-10-12T11:43:21Z</time>
    </trkpt>
    <trkpt lat="38.640589966" lon="34.829939995">
      <ele>1118.704</ele>
      <time>2021-10-12T11:43:23Z</time>
    </trkpt>
    <trkpt lat="38.640608992" lon="34.82989599">
      <ele>1118.409</ele>
      <time>2021-10-12T11:43:24Z</time>
    </trkpt>
    <trkpt lat="38.640630031" lon="34.829861037">
      <ele>1118.097</ele>
      <time>2021-10-12T11:43:25Z</time>
    </trkpt>
    <trkpt lat="38.640656015" lon="34.829826001">
      <ele>1117.694</ele>
      <time>2021-10-12T11:43:27Z</time>
    </trkpt>
    <trkpt lat="38.640686022" lon="34.829785014">
      <ele>1117.136</ele>
      <time>2021-10-12T11:43:29Z</time>
    </trkpt>
    <trkpt lat="38.640718041" lon="34.829745032">
      <ele>1116.471</ele>
      <time>2021-10-12T11:43:30Z</time>
    </trkpt>
    <trkpt lat="38.640747964" lon="34.829707984">
      <ele>1115.717</ele>
      <time>2021-10-12T11:43:32Z</time>
    </trkpt>
    <trkpt lat="38.640776966" lon="34.829663979">
      <ele>1114.77</ele>
      <time>2021-10-12T11:43:33Z</time>
    </trkpt>
    <trkpt lat="38.640818959" lon="34.829637995">
      <ele>1113.942</ele>
      <time>2021-10-12T11:43:35Z</time>
    </trkpt>
    <trkpt lat="38.640851984" lon="34.829605976">
      <ele>1113.192</ele>
      <time>2021-10-12T11:43:37Z</time>
    </trkpt>
    <trkpt lat="38.640880985" lon="34.829570018">
      <ele>1112.465</ele>
      <time>2021-10-12T11:43:38Z</time>
    </trkpt>
    <trkpt lat="38.640915016" lon="34.829541016">
      <ele>1111.803</ele>
      <time>2021-10-12T11:43:40Z</time>
    </trkpt>
    <trkpt lat="38.640944017" lon="34.829508997">
      <ele>1111.133</ele>
      <time>2021-10-12T11:43:41Z</time>
    </trkpt>
    <trkpt lat="38.640977964" lon="34.829476979">
      <ele>1110.427</ele>
      <time>2021-10-12T11:43:43Z</time>
    </trkpt>
    <trkpt lat="38.641013" lon="34.829439009">
      <ele>1109.68</ele>
      <time>2021-10-12T11:43:44Z</time>
    </trkpt>
    <trkpt lat="38.641048037" lon="34.829409001">
      <ele>1109.298</ele>
      <time>2021-10-12T11:43:46Z</time>
    </trkpt>
    <trkpt lat="38.641078966" lon="34.829374971">
      <ele>1108.952</ele>
      <time>2021-10-12T11:43:47Z</time>
    </trkpt>
    <trkpt lat="38.641107967" lon="34.829340018">
      <ele>1108.642</ele>
      <time>2021-10-12T11:43:49Z</time>
    </trkpt>
    <trkpt lat="38.641135041" lon="34.829303976">
      <ele>1108.408</ele>
      <time>2021-10-12T11:43:50Z</time>
    </trkpt>
    <trkpt lat="38.641158007" lon="34.829268018">
      <ele>1108.196</ele>
      <time>2021-10-12T11:43:52Z</time>
    </trkpt>
    <trkpt lat="38.641181979" lon="34.829228958">
      <ele>1107.969</ele>
      <time>2021-10-12T11:43:53Z</time>
    </trkpt>
    <trkpt lat="38.641207963" lon="34.829189982">
      <ele>1107.735</ele>
      <time>2021-10-12T11:43:55Z</time>
    </trkpt>
    <trkpt lat="38.641235959" lon="34.829147989">
      <ele>1107.611</ele>
      <time>2021-10-12T11:43:56Z</time>
    </trkpt>
    <trkpt lat="38.641261021" lon="34.829108007">
      <ele>1107.688</ele>
      <time>2021-10-12T11:43:58Z</time>
    </trkpt>
    <trkpt lat="38.64128801" lon="34.829065008">
      <ele>1107.829</ele>
      <time>2021-10-12T11:43:59Z</time>
    </trkpt>
    <trkpt lat="38.641316006" lon="34.829024021">
      <ele>1108.02</ele>
      <time>2021-10-12T11:44:01Z</time>
    </trkpt>
    <trkpt lat="38.641340984" lon="34.828988984">
      <ele>1108.231</ele>
      <time>2021-10-12T11:44:02Z</time>
    </trkpt>
    <trkpt lat="38.641371997" lon="34.828964006">
      <ele>1108.431</ele>
      <time>2021-10-12T11:44:04Z</time>
    </trkpt>
    <trkpt lat="38.641404016" lon="34.828938022">
      <ele>1108.547</ele>
      <time>2021-10-12T11:44:05Z</time>
    </trkpt>
    <trkpt lat="38.64144098" lon="34.828945985">
      <ele>1108.252</ele>
      <time>2021-10-12T11:44:06Z</time>
    </trkpt>
    <trkpt lat="38.641483979" lon="34.828942968">
      <ele>1107.993</ele>
      <time>2021-10-12T11:44:08Z</time>
    </trkpt>
    <trkpt lat="38.641523961" lon="34.828942968">
      <ele>1107.733</ele>
      <time>2021-10-12T11:44:09Z</time>
    </trkpt>
    <trkpt lat="38.641557992" lon="34.828943973">
      <ele>1107.507</ele>
      <time>2021-10-12T11:44:11Z</time>
    </trkpt>
    <trkpt lat="38.641593028" lon="34.828954032">
      <ele>1107.234</ele>
      <time>2021-10-12T11:44:12Z</time>
    </trkpt>
    <trkpt lat="38.641629992" lon="34.828955038">
      <ele>1106.994</ele>
      <time>2021-10-12T11:44:13Z</time>
    </trkpt>
    <trkpt lat="38.641668968" lon="34.828956965">
      <ele>1106.738</ele>
      <time>2021-10-12T11:44:15Z</time>
    </trkpt>
    <trkpt lat="38.64171599" lon="34.828982027">
      <ele>1106.31</ele>
      <time>2021-10-12T11:44:17Z</time>
    </trkpt>
    <trkpt lat="38.641763013" lon="34.829012034">
      <ele>1105.863</ele>
      <time>2021-10-12T11:44:19Z</time>
    </trkpt>
    <trkpt lat="38.641808024" lon="34.829045981">
      <ele>1105.417</ele>
      <time>2021-10-12T11:44:21Z</time>
    </trkpt>
    <trkpt lat="38.641854962" lon="34.829081018">
      <ele>1104.953</ele>
      <time>2021-10-12T11:44:23Z</time>
    </trkpt>
    <trkpt lat="38.641900979" lon="34.829101972">
      <ele>1104.546</ele>
      <time>2021-10-12T11:44:24Z</time>
    </trkpt>
    <trkpt lat="38.641944984" lon="34.829124017">
      <ele>1104.153</ele>
      <time>2021-10-12T11:44:26Z</time>
    </trkpt>
    <trkpt lat="38.641987983" lon="34.829145977">
      <ele>1104.063</ele>
      <time>2021-10-12T11:44:28Z</time>
    </trkpt>
    <trkpt lat="38.642030982" lon="34.829167016">
      <ele>1104.002</ele>
      <time>2021-10-12T11:44:30Z</time>
    </trkpt>
    <trkpt lat="38.642069036" lon="34.829175984">
      <ele>1104.052</ele>
      <time>2021-10-12T11:44:31Z</time>
    </trkpt>
    <trkpt lat="38.642102983" lon="34.829183025">
      <ele>1104.084</ele>
      <time>2021-10-12T11:44:32Z</time>
    </trkpt>
    <trkpt lat="38.642141037" lon="34.829198029">
      <ele>1104.146</ele>
      <time>2021-10-12T11:44:34Z</time>
    </trkpt>
    <trkpt lat="38.642179007" lon="34.829212027">
      <ele>1104.189</ele>
      <time>2021-10-12T11:44:35Z</time>
    </trkpt>
    <trkpt lat="38.642213037" lon="34.829217978">
      <ele>1104.191</ele>
      <time>2021-10-12T11:44:37Z</time>
    </trkpt>
    <trkpt lat="38.642250001" lon="34.829226024">
      <ele>1104.092</ele>
      <time>2021-10-12T11:44:38Z</time>
    </trkpt>
    <trkpt lat="38.642287971" lon="34.829237005">
      <ele>1103.957</ele>
      <time>2021-10-12T11:44:39Z</time>
    </trkpt>
    <trkpt lat="38.642326025" lon="34.829253014">
      <ele>1103.821</ele>
      <time>2021-10-12T11:44:41Z</time>
    </trkpt>
    <trkpt lat="38.642363995" lon="34.829270029">
      <ele>1103.672</ele>
      <time>2021-10-12T11:44:42Z</time>
    </trkpt>
    <trkpt lat="38.642399032" lon="34.82928101">
      <ele>1103.513</ele>
      <time>2021-10-12T11:44:44Z</time>
    </trkpt>
    <trkpt lat="38.642428033" lon="34.829292996">
      <ele>1103.377</ele>
      <time>2021-10-12T11:44:45Z</time>
    </trkpt>
    <trkpt lat="38.64245804" lon="34.829304982">
      <ele>1103.226</ele>
      <time>2021-10-12T11:44:46Z</time>
    </trkpt>
    <trkpt lat="38.64249601" lon="34.829304982">
      <ele>1103.022</ele>
      <time>2021-10-12T11:44:47Z</time>
    </trkpt>
    <trkpt lat="38.642538004" lon="34.829296013">
      <ele>1102.873</ele>
      <time>2021-10-12T11:44:49Z</time>
    </trkpt>
    <trkpt lat="38.642581003" lon="34.829284027">
      <ele>1102.754</ele>
      <time>2021-10-12T11:44:51Z</time>
    </trkpt>
    <trkpt lat="38.642615033" lon="34.829265">
      <ele>1102.707</ele>
      <time>2021-10-12T11:44:52Z</time>
    </trkpt>
    <trkpt lat="38.642647974" lon="34.829240022">
      <ele>1102.719</ele>
      <time>2021-10-12T11:44:53Z</time>
    </trkpt>
    <trkpt lat="38.642674964" lon="34.829209009">
      <ele>1102.808</ele>
      <time>2021-10-12T11:44:55Z</time>
    </trkpt>
    <trkpt lat="38.642712012" lon="34.829186965">
      <ele>1102.888</ele>
      <time>2021-10-12T11:44:56Z</time>
    </trkpt>
    <trkpt lat="38.642746964" lon="34.829168022">
      <ele>1102.991</ele>
      <time>2021-10-12T11:44:58Z</time>
    </trkpt>
    <trkpt lat="38.642785018" lon="34.829157963">
      <ele>1103.005</ele>
      <time>2021-10-12T11:44:59Z</time>
    </trkpt>
    <trkpt lat="38.642823994" lon="34.829151006">
      <ele>1102.89</ele>
      <time>2021-10-12T11:45:01Z</time>
    </trkpt>
    <trkpt lat="38.642863976" lon="34.82914296">
      <ele>1102.775</ele>
      <time>2021-10-12T11:45:02Z</time>
    </trkpt>
    <trkpt lat="38.64290203" lon="34.829126028">
      <ele>1102.699</ele>
      <time>2021-10-12T11:45:03Z</time>
    </trkpt>
    <trkpt lat="38.642936982" lon="34.829110019">
      <ele>1102.631</ele>
      <time>2021-10-12T11:45:05Z</time>
    </trkpt>
    <trkpt lat="38.642973024" lon="34.829099961">
      <ele>1102.537</ele>
      <time>2021-10-12T11:45:06Z</time>
    </trkpt>
    <trkpt lat="38.643005965" lon="34.82908898">
      <ele>1102.458</ele>
      <time>2021-10-12T11:45:07Z</time>
    </trkpt>
    <trkpt lat="38.643041002" lon="34.829076994">
      <ele>1102.375</ele>
      <time>2021-10-12T11:45:09Z</time>
    </trkpt>
    <trkpt lat="38.64307696" lon="34.829070037">
      <ele>1102.348</ele>
      <time>2021-10-12T11:45:10Z</time>
    </trkpt>
    <trkpt lat="38.643115014" lon="34.829072971">
      <ele>1102.337</ele>
      <time>2021-10-12T11:45:12Z</time>
    </trkpt>
    <trkpt lat="38.643217022" lon="34.829073977">
      <ele>1102.334</ele>
      <time>2021-10-12T11:45:15Z</time>
    </trkpt>
    <trkpt lat="38.643293967" lon="34.829072971">
      <ele>1102.337</ele>
      <time>2021-10-12T11:45:18Z</time>
    </trkpt>
    <trkpt lat="38.64333001" lon="34.829064002">
      <ele>1102.37</ele>
      <time>2021-10-12T11:45:20Z</time>
    </trkpt>
    <trkpt lat="38.64335197" lon="34.82904397">
      <ele>1102.442</ele>
      <time>2021-10-12T11:45:21Z</time>
    </trkpt>
    <trkpt lat="38.643368986" lon="34.829005999">
      <ele>1102.578</ele>
      <time>2021-10-12T11:45:22Z</time>
    </trkpt>
    <trkpt lat="38.64337502" lon="34.828966018">
      <ele>1102.722</ele>
      <time>2021-10-12T11:45:23Z</time>
    </trkpt>
    <trkpt lat="38.643379966" lon="34.82892897">
      <ele>1102.856</ele>
      <time>2021-10-12T11:45:24Z</time>
    </trkpt>
    <trkpt lat="38.643380972" lon="34.828892006">
      <ele>1102.989</ele>
      <time>2021-10-12T11:45:25Z</time>
    </trkpt>
    <trkpt lat="38.643384995" lon="34.828848001">
      <ele>1103.0</ele>
      <time>2021-10-12T11:45:26Z</time>
    </trkpt>
    <trkpt lat="38.643377032" lon="34.828708023">
      <ele>1103.0</ele>
      <time>2021-10-12T11:45:31Z</time>
    </trkpt>
    <trkpt lat="38.643359011" lon="34.828571985">
      <ele>1103.013</ele>
      <time>2021-10-12T11:45:35Z</time>
    </trkpt>
    <trkpt lat="38.643353982" lon="34.828528985">
      <ele>1103.022</ele>
      <time>2021-10-12T11:45:36Z</time>
    </trkpt>
    <trkpt lat="38.643349959" lon="34.828487998">
      <ele>1103.027</ele>
      <time>2021-10-12T11:45:37Z</time>
    </trkpt>
    <trkpt lat="38.643346019" lon="34.828442987">
      <ele>1103.028</ele>
      <time>2021-10-12T11:45:38Z</time>
    </trkpt>
    <trkpt lat="38.643341996" lon="34.828395965">
      <ele>1103.024</ele>
      <time>2021-10-12T11:45:40Z</time>
    </trkpt>
    <trkpt lat="38.643337972" lon="34.828347014">
      <ele>1103.016</ele>
      <time>2021-10-12T11:45:41Z</time>
    </trkpt>
    <trkpt lat="38.643333027" lon="34.828299992">
      <ele>1103.241</ele>
      <time>2021-10-12T11:45:43Z</time>
    </trkpt>
    <trkpt lat="38.643324981" lon="34.828256993">
      <ele>1103.58</ele>
      <time>2021-10-12T11:45:44Z</time>
    </trkpt>
    <trkpt lat="38.643320035" lon="34.828216005">
      <ele>1103.893</ele>
      <time>2021-10-12T11:45:45Z</time>
    </trkpt>
    <trkpt lat="38.643314" lon="34.828176023">
      <ele>1104.202</ele>
      <time>2021-10-12T11:45:46Z</time>
    </trkpt>
    <trkpt lat="38.643306959" lon="34.828132018">
      <ele>1104.544</ele>
      <time>2021-10-12T11:45:47Z</time>
    </trkpt>
    <trkpt lat="38.643295979" lon="34.828087008">
      <ele>1104.908</ele>
      <time>2021-10-12T11:45:49Z</time>
    </trkpt>
    <trkpt lat="38.64328701" lon="34.828040991">
      <ele>1105.272</ele>
      <time>2021-10-12T11:45:50Z</time>
    </trkpt>
    <trkpt lat="38.643280976" lon="34.827998998">
      <ele>1105.596</ele>
      <time>2021-10-12T11:45:51Z</time>
    </trkpt>
    <trkpt lat="38.643278042" lon="34.827962033">
      <ele>1105.872</ele>
      <time>2021-10-12T11:45:53Z</time>
    </trkpt>
    <trkpt lat="38.643278042" lon="34.827921968">
      <ele>1106.161</ele>
      <time>2021-10-12T11:45:54Z</time>
    </trkpt>
    <trkpt lat="38.643277036" lon="34.82788098">
      <ele>1106.46</ele>
      <time>2021-10-12T11:45:55Z</time>
    </trkpt>
    <trkpt lat="38.643274019" lon="34.827758018">
      <ele>1107.269</ele>
      <time>2021-10-12T11:45:58Z</time>
    </trkpt>
    <trkpt lat="38.64326396" lon="34.82763296">
      <ele>1107.641</ele>
      <time>2021-10-12T11:46:02Z</time>
    </trkpt>
    <trkpt lat="38.643257003" lon="34.827499017">
      <ele>1108.0</ele>
      <time>2021-10-12T11:46:06Z</time>
    </trkpt>
    <trkpt lat="38.643251974" lon="34.827450989">
      <ele>1108.0</ele>
      <time>2021-10-12T11:46:07Z</time>
    </trkpt>
    <trkpt lat="38.643250968" lon="34.827404972">
      <ele>1108.0</ele>
      <time>2021-10-12T11:46:09Z</time>
    </trkpt>
    <trkpt lat="38.64324904" lon="34.827359961">
      <ele>1108.0</ele>
      <time>2021-10-12T11:46:10Z</time>
    </trkpt>
    <trkpt lat="38.643243005" lon="34.827318974">
      <ele>1108.0</ele>
      <time>2021-10-12T11:46:11Z</time>
    </trkpt>
    <trkpt lat="38.643244011" lon="34.827277986">
      <ele>1108.0</ele>
      <time>2021-10-12T11:46:12Z</time>
    </trkpt>
    <trkpt lat="38.643240994" lon="34.827233981">
      <ele>1108.0</ele>
      <time>2021-10-12T11:46:14Z</time>
    </trkpt>
    <trkpt lat="38.643242" lon="34.827192994">
      <ele>1108.0</ele>
      <time>2021-10-12T11:46:15Z</time>
    </trkpt>
    <trkpt lat="38.643239988" lon="34.82715603">
      <ele>1108.0</ele>
      <time>2021-10-12T11:46:16Z</time>
    </trkpt>
    <trkpt lat="38.643238982" lon="34.827119987">
      <ele>1108.0</ele>
      <time>2021-10-12T11:46:17Z</time>
    </trkpt>
    <trkpt lat="38.643233031" lon="34.827082017">
      <ele>1108.0</ele>
      <time>2021-10-12T11:46:18Z</time>
    </trkpt>
    <trkpt lat="38.643229008" lon="34.827042036">
      <ele>1108.0</ele>
      <time>2021-10-12T11:46:19Z</time>
    </trkpt>
    <trkpt lat="38.64322599" lon="34.827002976">
      <ele>1108.0</ele>
      <time>2021-10-12T11:46:20Z</time>
    </trkpt>
    <trkpt lat="38.643224984" lon="34.826964">
      <ele>1108.0</ele>
      <time>2021-10-12T11:46:22Z</time>
    </trkpt>
    <trkpt lat="38.643221967" lon="34.826880014">
      <ele>1108.232</ele>
      <time>2021-10-12T11:46:24Z</time>
    </trkpt>
    <trkpt lat="38.643220039" lon="34.826844977">
      <ele>1108.358</ele>
      <time>2021-10-12T11:46:25Z</time>
    </trkpt>
    <trkpt lat="38.643218027" lon="34.826804996">
      <ele>1108.502</ele>
      <time>2021-10-12T11:46:26Z</time>
    </trkpt>
    <trkpt lat="38.643216016" lon="34.826767026">
      <ele>1108.639</ele>
      <time>2021-10-12T11:46:27Z</time>
    </trkpt>
    <trkpt lat="38.64321501" lon="34.826727966">
      <ele>1108.779</ele>
      <time>2021-10-12T11:46:28Z</time>
    </trkpt>
    <trkpt lat="38.643216016" lon="34.826669963">
      <ele>1108.988</ele>
      <time>2021-10-12T11:46:30Z</time>
    </trkpt>
    <trkpt lat="38.643211992" lon="34.826622019">
      <ele>1109.14</ele>
      <time>2021-10-12T11:46:32Z</time>
    </trkpt>
    <trkpt lat="38.643208975" lon="34.826577008">
      <ele>1109.289</ele>
      <time>2021-10-12T11:46:33Z</time>
    </trkpt>
    <trkpt lat="38.643205035" lon="34.826530991">
      <ele>1109.451</ele>
      <time>2021-10-12T11:46:34Z</time>
    </trkpt>
    <trkpt lat="38.643200006" lon="34.82648598">
      <ele>1109.624</ele>
      <time>2021-10-12T11:46:36Z</time>
    </trkpt>
    <trkpt lat="38.643191038" lon="34.826449016">
      <ele>1109.803</ele>
      <time>2021-10-12T11:46:37Z</time>
    </trkpt>
    <trkpt lat="38.643183997" lon="34.82641004">
      <ele>1109.993</ele>
      <time>2021-10-12T11:46:38Z</time>
    </trkpt>
    <trkpt lat="38.643176034" lon="34.826369975">
      <ele>1110.133</ele>
      <time>2021-10-12T11:46:39Z</time>
    </trkpt>
    <trkpt lat="38.643172011" lon="34.826332005">
      <ele>1110.162</ele>
      <time>2021-10-12T11:46:40Z</time>
    </trkpt>
    <trkpt lat="38.643167987" lon="34.826294035">
      <ele>1110.19</ele>
      <time>2021-10-12T11:46:41Z</time>
    </trkpt>
    <trkpt lat="38.643151978" lon="34.826174006">
      <ele>1110.306</ele>
      <time>2021-10-12T11:46:45Z</time>
    </trkpt>
    <trkpt lat="38.643132029" lon="34.826092031">
      <ele>1110.419</ele>
      <time>2021-10-12T11:46:47Z</time>
    </trkpt>
    <trkpt lat="38.643122977" lon="34.826050038">
      <ele>1110.401</ele>
      <time>2021-10-12T11:46:49Z</time>
    </trkpt>
    <trkpt lat="38.643111996" lon="34.826013995">
      <ele>1110.386</ele>
      <time>2021-10-12T11:46:50Z</time>
    </trkpt>
    <trkpt lat="38.643099004" lon="34.825979965">
      <ele>1110.363</ele>
      <time>2021-10-12T11:46:51Z</time>
    </trkpt>
    <trkpt lat="38.643086012" lon="34.825946018">
      <ele>1110.317</ele>
      <time>2021-10-12T11:46:52Z</time>
    </trkpt>
    <trkpt lat="38.643067991" lon="34.825911988">
      <ele>1110.258</ele>
      <time>2021-10-12T11:46:53Z</time>
    </trkpt>
    <trkpt lat="38.643047959" lon="34.825879969">
      <ele>1110.204</ele>
      <time>2021-10-12T11:46:54Z</time>
    </trkpt>
    <trkpt lat="38.643025998" lon="34.825846022">
      <ele>1110.162</ele>
      <time>2021-10-12T11:46:55Z</time>
    </trkpt>
    <trkpt lat="38.643007977" lon="34.825812997">
      <ele>1110.219</ele>
      <time>2021-10-12T11:46:57Z</time>
    </trkpt>
    <trkpt lat="38.642987022" lon="34.825777961">
      <ele>1110.348</ele>
      <time>2021-10-12T11:46:58Z</time>
    </trkpt>
    <trkpt lat="38.642969001" lon="34.825747032">
      <ele>1110.429</ele>
      <time>2021-10-12T11:46:59Z</time>
    </trkpt>
    <trkpt lat="38.64294704" lon="34.825716019">
      <ele>1110.483</ele>
      <time>2021-10-12T11:47:00Z</time>
    </trkpt>
    <trkpt lat="38.642927008" lon="34.825681988">
      <ele>1110.503</ele>
      <time>2021-10-12T11:47:02Z</time>
    </trkpt>
    <trkpt lat="38.642906975" lon="34.825650975">
      <ele>1110.489</ele>
      <time>2021-10-12T11:47:03Z</time>
    </trkpt>
    <trkpt lat="38.642834974" lon="34.825565983">
      <ele>1110.228</ele>
      <time>2021-10-12T11:47:06Z</time>
    </trkpt>
    <trkpt lat="38.642751994" lon="34.825492976">
      <ele>1110.186</ele>
      <time>2021-10-12T11:47:10Z</time>
    </trkpt>
    <trkpt lat="38.64272601" lon="34.825467998">
      <ele>1110.373</ele>
      <time>2021-10-12T11:47:11Z</time>
    </trkpt>
    <trkpt lat="38.642698014" lon="34.82544302">
      <ele>1110.574</ele>
      <time>2021-10-12T11:47:13Z</time>
    </trkpt>
    <trkpt lat="38.64267203" lon="34.825414019">
      <ele>1110.761</ele>
      <time>2021-10-12T11:47:14Z</time>
    </trkpt>
    <trkpt lat="38.642645963" lon="34.825388035">
      <ele>1110.949</ele>
      <time>2021-10-12T11:47:15Z</time>
    </trkpt>
    <trkpt lat="38.642617967" lon="34.825363979">
      <ele>1111.151</ele>
      <time>2021-10-12T11:47:16Z</time>
    </trkpt>
    <trkpt lat="38.642590977" lon="34.825343024">
      <ele>1111.345</ele>
      <time>2021-10-12T11:47:17Z</time>
    </trkpt>
    <trkpt lat="38.642559964" lon="34.825316034">
      <ele>1111.568</ele>
      <time>2021-10-12T11:47:19Z</time>
    </trkpt>
    <trkpt lat="38.642530963" lon="34.825291978">
      <ele>1111.777</ele>
      <time>2021-10-12T11:47:20Z</time>
    </trkpt>
    <trkpt lat="38.642499028" lon="34.825268006">
      <ele>1112.01</ele>
      <time>2021-10-12T11:47:21Z</time>
    </trkpt>
    <trkpt lat="38.642473966" lon="34.825249985">
      <ele>1112.272</ele>
      <time>2021-10-12T11:47:23Z</time>
    </trkpt>
    <trkpt lat="38.64244597" lon="34.825235987">
      <ele>1112.554</ele>
      <time>2021-10-12T11:47:24Z</time>
    </trkpt>
    <trkpt lat="38.642420992" lon="34.825216038">
      <ele>1112.79</ele>
      <time>2021-10-12T11:47:25Z</time>
    </trkpt>
    <trkpt lat="38.642396014" lon="34.825196005">
      <ele>1113.013</ele>
      <time>2021-10-12T11:47:26Z</time>
    </trkpt>
    <trkpt lat="38.64237003" lon="34.825174967">
      <ele>1113.23</ele>
      <time>2021-10-12T11:47:27Z</time>
    </trkpt>
    <trkpt lat="38.642343041" lon="34.825154012">
      <ele>1113.443</ele>
      <time>2021-10-12T11:47:28Z</time>
    </trkpt>
    <trkpt lat="38.642313033" lon="34.82513004">
      <ele>1113.661</ele>
      <time>2021-10-12T11:47:29Z</time>
    </trkpt>
    <trkpt lat="38.642284032" lon="34.825110007">
      <ele>1113.863</ele>
      <time>2021-10-12T11:47:31Z</time>
    </trkpt>
    <trkpt lat="38.642253019" lon="34.825092992">
      <ele>1114.076</ele>
      <time>2021-10-12T11:47:32Z</time>
    </trkpt>
    <trkpt lat="38.642224018" lon="34.825072959">
      <ele>1114.248</ele>
      <time>2021-10-12T11:47:33Z</time>
    </trkpt>
    <trkpt lat="38.64219401" lon="34.825055022">
      <ele>1114.543</ele>
      <time>2021-10-12T11:47:34Z</time>
    </trkpt>
    <trkpt lat="38.642166015" lon="34.825031972">
      <ele>1114.769</ele>
      <time>2021-10-12T11:47:36Z</time>
    </trkpt>
    <trkpt lat="38.642137013" lon="34.825012023">
      <ele>1114.99</ele>
      <time>2021-10-12T11:47:37Z</time>
    </trkpt>
    <trkpt lat="38.642108012" lon="34.824994002">
      <ele>1115.225</ele>
      <time>2021-10-12T11:47:38Z</time>
    </trkpt>
    <trkpt lat="38.642081022" lon="34.824973969">
      <ele>1115.477</ele>
      <time>2021-10-12T11:47:39Z</time>
    </trkpt>
    <trkpt lat="38.642050009" lon="34.824957959">
      <ele>1115.766</ele>
      <time>2021-10-12T11:47:40Z</time>
    </trkpt>
    <trkpt lat="38.642020002" lon="34.824942034">
      <ele>1116.032</ele>
      <time>2021-10-12T11:47:42Z</time>
    </trkpt>
    <trkpt lat="38.641992006" lon="34.824924013">
      <ele>1116.26</ele>
      <time>2021-10-12T11:47:43Z</time>
    </trkpt>
    <trkpt lat="38.641961999" lon="34.824904986">
      <ele>1116.49</ele>
      <time>2021-10-12T11:47:44Z</time>
    </trkpt>
    <trkpt lat="38.641930986" lon="34.824885959">
      <ele>1116.792</ele>
      <time>2021-10-12T11:47:45Z</time>
    </trkpt>
    <trkpt lat="38.641897039" lon="34.824871961">
      <ele>1117.235</ele>
      <time>2021-10-12T11:47:47Z</time>
    </trkpt>
    <trkpt lat="38.641866026" lon="34.824854024">
      <ele>1117.589</ele>
      <time>2021-10-12T11:47:48Z</time>
    </trkpt>
    <trkpt lat="38.641834008" lon="34.824837008">
      <ele>1117.935</ele>
      <time>2021-10-12T11:47:49Z</time>
    </trkpt>
    <trkpt lat="38.641802995" lon="34.82481597">
      <ele>1118.209</ele>
      <time>2021-10-12T11:47:50Z</time>
    </trkpt>
    <trkpt lat="38.641776005" lon="34.824796021">
      <ele>1118.407</ele>
      <time>2021-10-12T11:47:52Z</time>
    </trkpt>
    <trkpt lat="38.641747003" lon="34.824778">
      <ele>1118.619</ele>
      <time>2021-10-12T11:47:53Z</time>
    </trkpt>
    <trkpt lat="38.641720014" lon="34.824762996">
      <ele>1118.808</ele>
      <time>2021-10-12T11:47:54Z</time>
    </trkpt>
    <trkpt lat="38.641692018" lon="34.824750004">
      <ele>1119.008</ele>
      <time>2021-10-12T11:47:55Z</time>
    </trkpt>
    <trkpt lat="38.641663017" lon="34.824730977">
      <ele>1119.134</ele>
      <time>2021-10-12T11:47:56Z</time>
    </trkpt>
    <trkpt lat="38.641635021" lon="34.824709017">
      <ele>1119.199</ele>
      <time>2021-10-12T11:47:57Z</time>
    </trkpt>
    <trkpt lat="38.64160602" lon="34.824687978">
      <ele>1119.285</ele>
      <time>2021-10-12T11:47:59Z</time>
    </trkpt>
    <trkpt lat="38.641577018" lon="34.824663">
      <ele>1119.329</ele>
      <time>2021-10-12T11:48:00Z</time>
    </trkpt>
    <trkpt lat="38.641548017" lon="34.824639028">
      <ele>1119.383</ele>
      <time>2021-10-12T11:48:01Z</time>
    </trkpt>
    <trkpt lat="38.641523039" lon="34.824617989">
      <ele>1119.425</ele>
      <time>2021-10-12T11:48:02Z</time>
    </trkpt>
    <trkpt lat="38.64149496" lon="34.824589994">
      <ele>1119.426</ele>
      <time>2021-10-12T11:48:04Z</time>
    </trkpt>
    <trkpt lat="38.641465958" lon="34.824560992">
      <ele>1119.426</ele>
      <time>2021-10-12T11:48:05Z</time>
    </trkpt>
    <trkpt lat="38.64144098" lon="34.824530985">
      <ele>1119.372</ele>
      <time>2021-10-12T11:48:06Z</time>
    </trkpt>
    <trkpt lat="38.641417008" lon="34.824507013">
      <ele>1119.372</ele>
      <time>2021-10-12T11:48:07Z</time>
    </trkpt>
    <trkpt lat="38.64139203" lon="34.824479017">
      <ele>1119.339</ele>
      <time>2021-10-12T11:48:09Z</time>
    </trkpt>
    <trkpt lat="38.641369985" lon="34.824450016">
      <ele>1119.06</ele>
      <time>2021-10-12T11:48:10Z</time>
    </trkpt>
    <trkpt lat="38.641346013" lon="34.824415985">
      <ele>1118.811</ele>
      <time>2021-10-12T11:48:11Z</time>
    </trkpt>
    <trkpt lat="38.641322963" lon="34.82437701">
      <ele>1118.572</ele>
      <time>2021-10-12T11:48:13Z</time>
    </trkpt>
    <trkpt lat="38.641302008" lon="34.824340967">
      <ele>1118.371</ele>
      <time>2021-10-12T11:48:14Z</time>
    </trkpt>
    <trkpt lat="38.641282981" lon="34.824308027">
      <ele>1118.205</ele>
      <time>2021-10-12T11:48:15Z</time>
    </trkpt>
    <trkpt lat="38.641267978" lon="34.824270979">
      <ele>1118.023</ele>
      <time>2021-10-12T11:48:16Z</time>
    </trkpt>
    <trkpt lat="38.64125004" lon="34.824237032">
      <ele>1117.88</ele>
      <time>2021-10-12T11:48:17Z</time>
    </trkpt>
    <trkpt lat="38.641230008" lon="34.82420099">
      <ele>1117.748</ele>
      <time>2021-10-12T11:48:19Z</time>
    </trkpt>
    <trkpt lat="38.641212992" lon="34.824167965">
      <ele>1117.64</ele>
      <time>2021-10-12T11:48:20Z</time>
    </trkpt>
    <trkpt lat="38.641195977" lon="34.824128989">
      <ele>1117.642</ele>
      <time>2021-10-12T11:48:21Z</time>
    </trkpt>
    <trkpt lat="38.641181979" lon="34.824092025">
      <ele>1117.613</ele>
      <time>2021-10-12T11:48:22Z</time>
    </trkpt>
    <trkpt lat="38.641168987" lon="34.824053971">
      <ele>1117.555</ele>
      <time>2021-10-12T11:48:24Z</time>
    </trkpt>
    <trkpt lat="38.641153984" lon="34.824016001">
      <ele>1117.471</ele>
      <time>2021-10-12T11:48:25Z</time>
    </trkpt>
    <trkpt lat="38.64113898" lon="34.823979037">
      <ele>1117.36</ele>
      <time>2021-10-12T11:48:26Z</time>
    </trkpt>
    <trkpt lat="38.641123977" lon="34.823939977">
      <ele>1117.213</ele>
      <time>2021-10-12T11:48:27Z</time>
    </trkpt>
    <trkpt lat="38.641106039" lon="34.823903013">
      <ele>1117.051</ele>
      <time>2021-10-12T11:48:29Z</time>
    </trkpt>
    <trkpt lat="38.641087012" lon="34.823864959">
      <ele>1117.172</ele>
      <time>2021-10-12T11:48:30Z</time>
    </trkpt>
    <trkpt lat="38.641073015" lon="34.823825983">
      <ele>1117.453</ele>
      <time>2021-10-12T11:48:31Z</time>
    </trkpt>
    <trkpt lat="38.641058011" lon="34.823788013">
      <ele>1117.726</ele>
      <time>2021-10-12T11:48:32Z</time>
    </trkpt>
    <trkpt lat="38.641044013" lon="34.823750965">
      <ele>1117.993</ele>
      <time>2021-10-12T11:48:34Z</time>
    </trkpt>
    <trkpt lat="38.641031021" lon="34.823717019">
      <ele>1118.237</ele>
      <time>2021-10-12T11:48:35Z</time>
    </trkpt>
    <trkpt lat="38.641017023" lon="34.823680976">
      <ele>1118.497</ele>
      <time>2021-10-12T11:48:36Z</time>
    </trkpt>
    <trkpt lat="38.641001014" lon="34.823637977">
      <ele>1118.807</ele>
      <time>2021-10-12T11:48:37Z</time>
    </trkpt>
    <trkpt lat="38.640987016" lon="34.823604031">
      <ele>1119.088</ele>
      <time>2021-10-12T11:48:38Z</time>
    </trkpt>
    <trkpt lat="38.640968995" lon="34.823563965">
      <ele>1119.596</ele>
      <time>2021-10-12T11:48:40Z</time>
    </trkpt>
    <trkpt lat="38.640953992" lon="34.823529013">
      <ele>1120.054</ele>
      <time>2021-10-12T11:48:41Z</time>
    </trkpt>
    <trkpt lat="38.64093597" lon="34.823490037">
      <ele>1120.582</ele>
      <time>2021-10-12T11:48:42Z</time>
    </trkpt>
    <trkpt lat="38.640920967" lon="34.823457012">
      <ele>1121.044</ele>
      <time>2021-10-12T11:48:43Z</time>
    </trkpt>
    <trkpt lat="38.640902024" lon="34.823422981">
      <ele>1121.542</ele>
      <time>2021-10-12T11:48:44Z</time>
    </trkpt>
    <trkpt lat="38.640880985" lon="34.823392974">
      <ele>1122.006</ele>
      <time>2021-10-12T11:48:46Z</time>
    </trkpt>
    <trkpt lat="38.640858019" lon="34.823364979">
      <ele>1122.466</ele>
      <time>2021-10-12T11:48:47Z</time>
    </trkpt>
    <trkpt lat="38.640834969" lon="34.823332038">
      <ele>1123.003</ele>
      <time>2021-10-12T11:48:48Z</time>
    </trkpt>
    <trkpt lat="38.640816025" lon="34.823303958">
      <ele>1123.267</ele>
      <time>2021-10-12T11:48:49Z</time>
    </trkpt>
    <trkpt lat="38.640790042" lon="34.823275041">
      <ele>1123.543</ele>
      <time>2021-10-12T11:48:50Z</time>
    </trkpt>
    <trkpt lat="38.640763974" lon="34.823249979">
      <ele>1123.775</ele>
      <time>2021-10-12T11:48:52Z</time>
    </trkpt>
    <trkpt lat="38.64073799" lon="34.823226007">
      <ele>1123.983</ele>
      <time>2021-10-12T11:48:53Z</time>
    </trkpt>
    <trkpt lat="38.640713012" lon="34.82320304">
      <ele>1124.168</ele>
      <time>2021-10-12T11:48:54Z</time>
    </trkpt>
    <trkpt lat="38.640686022" lon="34.82317999">
      <ele>1124.342</ele>
      <time>2021-10-12T11:48:55Z</time>
    </trkpt>
    <trkpt lat="38.640659032" lon="34.823153">
      <ele>1124.519</ele>
      <time>2021-10-12T11:48:56Z</time>
    </trkpt>
    <trkpt lat="38.64063397" lon="34.823129028">
      <ele>1124.661</ele>
      <time>2021-10-12T11:48:58Z</time>
    </trkpt>
    <trkpt lat="38.640611004" lon="34.82310296">
      <ele>1124.795</ele>
      <time>2021-10-12T11:48:59Z</time>
    </trkpt>
    <trkpt lat="38.64058502" lon="34.823078988">
      <ele>1124.907</ele>
      <time>2021-10-12T11:49:00Z</time>
    </trkpt>
    <trkpt lat="38.640559036" lon="34.823056022">
      <ele>1124.998</ele>
      <time>2021-10-12T11:49:01Z</time>
    </trkpt>
    <trkpt lat="38.640530035" lon="34.823031966">
      <ele>1125.415</ele>
      <time>2021-10-12T11:49:02Z</time>
    </trkpt>
    <trkpt lat="38.640504973" lon="34.823008999">
      <ele>1125.775</ele>
      <time>2021-10-12T11:49:03Z</time>
    </trkpt>
    <trkpt lat="38.640483012" lon="34.822984021">
      <ele>1126.093</ele>
      <time>2021-10-12T11:49:05Z</time>
    </trkpt>
    <trkpt lat="38.64045904" lon="34.822959965">
      <ele>1126.369</ele>
      <time>2021-10-12T11:49:06Z</time>
    </trkpt>
    <trkpt lat="38.640433978" lon="34.822938005">
      <ele>1126.589</ele>
      <time>2021-10-12T11:49:07Z</time>
    </trkpt>
    <trkpt lat="38.640409" lon="34.822916966">
      <ele>1126.762</ele>
      <time>2021-10-12T11:49:08Z</time>
    </trkpt>
    <trkpt lat="38.640386034" lon="34.822892994">
      <ele>1126.905</ele>
      <time>2021-10-12T11:49:09Z</time>
    </trkpt>
    <trkpt lat="38.64035896" lon="34.822871033">
      <ele>1126.998</ele>
      <time>2021-10-12T11:49:10Z</time>
    </trkpt>
    <trkpt lat="38.640333982" lon="34.822846977">
      <ele>1127.051</ele>
      <time>2021-10-12T11:49:11Z</time>
    </trkpt>
    <trkpt lat="38.640312022" lon="34.822824011">
      <ele>1127.062</ele>
      <time>2021-10-12T11:49:12Z</time>
    </trkpt>
    <trkpt lat="38.640286038" lon="34.822802972">
      <ele>1127.022</ele>
      <time>2021-10-12T11:49:14Z</time>
    </trkpt>
    <trkpt lat="38.640257958" lon="34.822786963">
      <ele>1126.933</ele>
      <time>2021-10-12T11:49:15Z</time>
    </trkpt>
    <trkpt lat="38.640228035" lon="34.822773971">
      <ele>1126.818</ele>
      <time>2021-10-12T11:49:16Z</time>
    </trkpt>
    <trkpt lat="38.640196016" lon="34.822761985">
      <ele>1126.689</ele>
      <time>2021-10-12T11:49:17Z</time>
    </trkpt>
    <trkpt lat="38.640166009" lon="34.822753016">
      <ele>1126.562</ele>
      <time>2021-10-12T11:49:18Z</time>
    </trkpt>
    <trkpt lat="38.64013399" lon="34.822742036">
      <ele>1126.416</ele>
      <time>2021-10-12T11:49:19Z</time>
    </trkpt>
    <trkpt lat="38.640105994" lon="34.82272502">
      <ele>1126.264</ele>
      <time>2021-10-12T11:49:21Z</time>
    </trkpt>
    <trkpt lat="38.640081016" lon="34.822705993">
      <ele>1126.109</ele>
      <time>2021-10-12T11:49:22Z</time>
    </trkpt>
    <trkpt lat="38.640056038" lon="34.822685961">
      <ele>1125.938</ele>
      <time>2021-10-12T11:49:23Z</time>
    </trkpt>
    <trkpt lat="38.640027959" lon="34.822668023">
      <ele>1125.745</ele>
      <time>2021-10-12T11:49:24Z</time>
    </trkpt>
    <trkpt lat="38.639998036" lon="34.822651008">
      <ele>1125.558</ele>
      <time>2021-10-12T11:49:25Z</time>
    </trkpt>
    <trkpt lat="38.639973979" lon="34.822631981">
      <ele>1125.662</ele>
      <time>2021-10-12T11:49:26Z</time>
    </trkpt>
    <trkpt lat="38.639947996" lon="34.822613038">
      <ele>1125.781</ele>
      <time>2021-10-12T11:49:27Z</time>
    </trkpt>
    <trkpt lat="38.639918994" lon="34.822598035">
      <ele>1125.936</ele>
      <time>2021-10-12T11:49:28Z</time>
    </trkpt>
    <trkpt lat="38.639888987" lon="34.822584959">
      <ele>1126.105</ele>
      <time>2021-10-12T11:49:30Z</time>
    </trkpt>
    <trkpt lat="38.639857974" lon="34.822572973">
      <ele>1126.285</ele>
      <time>2021-10-12T11:49:31Z</time>
    </trkpt>
    <trkpt lat="38.639827967" lon="34.822561992">
      <ele>1126.462</ele>
      <time>2021-10-12T11:49:32Z</time>
    </trkpt>
    <trkpt lat="38.639801983" lon="34.822544977">
      <ele>1126.588</ele>
      <time>2021-10-12T11:49:33Z</time>
    </trkpt>
    <trkpt lat="38.639774993" lon="34.82252704">
      <ele>1126.717</ele>
      <time>2021-10-12T11:49:34Z</time>
    </trkpt>
    <trkpt lat="38.639750015" lon="34.822499966">
      <ele>1126.8</ele>
      <time>2021-10-12T11:49:35Z</time>
    </trkpt>
    <trkpt lat="38.639725959" lon="34.822484041">
      <ele>1127.088</ele>
      <time>2021-10-12T11:49:36Z</time>
    </trkpt>
    <trkpt lat="38.639701987" lon="34.82246602">
      <ele>1127.518</ele>
      <time>2021-10-12T11:49:37Z</time>
    </trkpt>
    <trkpt lat="38.639678014" lon="34.822438024">
      <ele>1128.012</ele>
      <time>2021-10-12T11:49:39Z</time>
    </trkpt>
    <trkpt lat="38.639658988" lon="34.822395025">
      <ele>1128.494</ele>
      <time>2021-10-12T11:49:40Z</time>
    </trkpt>
    <trkpt lat="38.639641972" lon="34.822355965">
      <ele>1128.893</ele>
      <time>2021-10-12T11:49:41Z</time>
    </trkpt>
    <trkpt lat="38.639634009" lon="34.822322018">
      <ele>1129.145</ele>
      <time>2021-10-12T11:49:42Z</time>
    </trkpt>
    <trkpt lat="38.639623029" lon="34.822274996">
      <ele>1129.47</ele>
      <time>2021-10-12T11:49:44Z</time>
    </trkpt>
    <trkpt lat="38.639614983" lon="34.822221017">
      <ele>1129.785</ele>
      <time>2021-10-12T11:49:45Z</time>
    </trkpt>
    <trkpt lat="38.639576007" lon="34.822093025">
      <ele>1131.448</ele>
      <time>2021-10-12T11:49:49Z</time>
    </trkpt>
    <trkpt lat="38.639538037" lon="34.822029993">
      <ele>1132.402</ele>
      <time>2021-10-12T11:49:52Z</time>
    </trkpt>
    <trkpt lat="38.639451033" lon="34.821939971">
      <ele>1134.049</ele>
      <time>2021-10-12T11:49:56Z</time>
    </trkpt>
    <trkpt lat="38.639397975" lon="34.821926979">
      <ele>1134.545</ele>
      <time>2021-10-12T11:49:58Z</time>
    </trkpt>
    <trkpt lat="38.63932698" lon="34.821922034">
      <ele>1134.907</ele>
      <time>2021-10-12T11:50:00Z</time>
    </trkpt>
    <trkpt lat="38.639296973" lon="34.821937038">
      <ele>1134.691</ele>
      <time>2021-10-12T11:50:02Z</time>
    </trkpt>
    <trkpt lat="38.639269983" lon="34.821955981">
      <ele>1134.53</ele>
      <time>2021-10-12T11:50:03Z</time>
    </trkpt>
    <trkpt lat="38.639247017" lon="34.821977019">
      <ele>1134.442</ele>
      <time>2021-10-12T11:50:04Z</time>
    </trkpt>
    <trkpt lat="38.639224973" lon="34.822003003">
      <ele>1134.324</ele>
      <time>2021-10-12T11:50:05Z</time>
    </trkpt>
    <trkpt lat="38.639204018" lon="34.82202203">
      <ele>1134.269</ele>
      <time>2021-10-12T11:50:06Z</time>
    </trkpt>
    <trkpt lat="38.639179962" lon="34.822041979">
      <ele>1134.233</ele>
      <time>2021-10-12T11:50:07Z</time>
    </trkpt>
    <trkpt lat="38.639153978" lon="34.82206">
      <ele>1134.252</ele>
      <time>2021-10-12T11:50:08Z</time>
    </trkpt>
    <trkpt lat="38.639120031" lon="34.822071986">
      <ele>1134.404</ele>
      <time>2021-10-12T11:50:09Z</time>
    </trkpt>
    <trkpt lat="38.639088012" lon="34.822082967">
      <ele>1134.568</ele>
      <time>2021-10-12T11:50:11Z</time>
    </trkpt>
    <trkpt lat="38.639056999" lon="34.822087996">
      <ele>1134.769</ele>
      <time>2021-10-12T11:50:12Z</time>
    </trkpt>
    <trkpt lat="38.63897603" lon="34.822085984">
      <ele>1135.367</ele>
      <time>2021-10-12T11:50:15Z</time>
    </trkpt>
    <trkpt lat="38.63893697" lon="34.822082967">
      <ele>1135.654</ele>
      <time>2021-10-12T11:50:16Z</time>
    </trkpt>
    <trkpt lat="38.638821971" lon="34.822046002">
      <ele>1136.176</ele>
      <time>2021-10-12T11:50:21Z</time>
    </trkpt>
    <trkpt lat="38.638718035" lon="34.821980959">
      <ele>1136.162</ele>
      <time>2021-10-12T11:50:25Z</time>
    </trkpt>
    <trkpt lat="38.638632037" lon="34.821918011">
      <ele>1136.219</ele>
      <time>2021-10-12T11:50:29Z</time>
    </trkpt>
    <trkpt lat="38.638561964" lon="34.82182296">
      <ele>1136.819</ele>
      <time>2021-10-12T11:50:32Z</time>
    </trkpt>
    <trkpt lat="38.638489041" lon="34.821738973">
      <ele>1136.944</ele>
      <time>2021-10-12T11:50:36Z</time>
    </trkpt>
    <trkpt lat="38.638431039" lon="34.821643">
      <ele>1137.104</ele>
      <time>2021-10-12T11:50:39Z</time>
    </trkpt>
    <trkpt lat="38.638354009" lon="34.821555996">
      <ele>1137.802</ele>
      <time>2021-10-12T11:50:43Z</time>
    </trkpt>
    <trkpt lat="38.638286032" lon="34.821402021">
      <ele>1139.503</ele>
      <time>2021-10-12T11:50:48Z</time>
    </trkpt>
    <trkpt lat="38.638143959" lon="34.821150983">
      <ele>1142.335</ele>
      <time>2021-10-12T11:50:57Z</time>
    </trkpt>
    <trkpt lat="38.638076987" lon="34.821069008">
      <ele>1142.849</ele>
      <time>2021-10-12T11:51:01Z</time>
    </trkpt>
    <trkpt lat="38.638004987" lon="34.820988961">
      <ele>1143.359</ele>
      <time>2021-10-12T11:51:04Z</time>
    </trkpt>
    <trkpt lat="38.637907002" lon="34.820918972">
      <ele>1142.917</ele>
      <time>2021-10-12T11:51:09Z</time>
    </trkpt>
    <trkpt lat="38.637829972" lon="34.820859963">
      <ele>1141.945</ele>
      <time>2021-10-12T11:51:12Z</time>
    </trkpt>
    <trkpt lat="38.637731988" lon="34.820829034">
      <ele>1141.526</ele>
      <time>2021-10-12T11:51:16Z</time>
    </trkpt>
    <trkpt lat="38.637644984" lon="34.820799027">
      <ele>1142.45</ele>
      <time>2021-10-12T11:51:19Z</time>
    </trkpt>
    <trkpt lat="38.637555968" lon="34.820728032">
      <ele>1142.717</ele>
      <time>2021-10-12T11:51:23Z</time>
    </trkpt>
    <trkpt lat="38.637506012" lon="34.820604986">
      <ele>1141.576</ele>
      <time>2021-10-12T11:51:27Z</time>
    </trkpt>
    <trkpt lat="38.637454966" lon="34.820494009">
      <ele>1141.726</ele>
      <time>2021-10-12T11:51:31Z</time>
    </trkpt>
    <trkpt lat="38.637414984" lon="34.820390996">
      <ele>1142.091</ele>
      <time>2021-10-12T11:51:34Z</time>
    </trkpt>
    <trkpt lat="38.637355976" lon="34.820289994">
      <ele>1142.047</ele>
      <time>2021-10-12T11:51:38Z</time>
    </trkpt>
    <trkpt lat="38.637269977" lon="34.820192009">
      <ele>1142.574</ele>
      <time>2021-10-12T11:51:42Z</time>
    </trkpt>
    <trkpt lat="38.637185991" lon="34.82011498">
      <ele>1142.878</ele>
      <time>2021-10-12T11:51:46Z</time>
    </trkpt>
    <trkpt lat="38.637155984" lon="34.82008799">
      <ele>1143.148</ele>
      <time>2021-10-12T11:51:47Z</time>
    </trkpt>
    <trkpt lat="38.637106027" lon="34.820047002">
      <ele>1143.461</ele>
      <time>2021-10-12T11:51:49Z</time>
    </trkpt>
    <trkpt lat="38.637078032" lon="34.820031999">
      <ele>1143.583</ele>
      <time>2021-10-12T11:51:50Z</time>
    </trkpt>
    <trkpt lat="38.637050036" lon="34.820009032">
      <ele>1143.648</ele>
      <time>2021-10-12T11:51:52Z</time>
    </trkpt>
    <trkpt lat="38.637023969" lon="34.81998397">
      <ele>1143.829</ele>
      <time>2021-10-12T11:51:53Z</time>
    </trkpt>
    <trkpt lat="38.636967978" lon="34.819882968">
      <ele>1144.165</ele>
      <time>2021-10-12T11:51:56Z</time>
    </trkpt>
    <trkpt lat="38.636923973" lon="34.81976998">
      <ele>1144.013</ele>
      <time>2021-10-12T11:52:00Z</time>
    </trkpt>
    <trkpt lat="38.636821965" lon="34.819704015">
      <ele>1144.175</ele>
      <time>2021-10-12T11:52:04Z</time>
    </trkpt>
    <trkpt lat="38.636731021" lon="34.819676019">
      <ele>1144.282</ele>
      <time>2021-10-12T11:52:08Z</time>
    </trkpt>
    <trkpt lat="38.636637982" lon="34.819680965">
      <ele>1144.149</ele>
      <time>2021-10-12T11:52:11Z</time>
    </trkpt>
    <trkpt lat="38.636520971" lon="34.819688005">
      <ele>1144.123</ele>
      <time>2021-10-12T11:52:15Z</time>
    </trkpt>
    <trkpt lat="38.63648803" lon="34.819692029">
      <ele>1144.109</ele>
      <time>2021-10-12T11:52:17Z</time>
    </trkpt>
    <trkpt lat="38.636378981" lon="34.819705021">
      <ele>1144.131</ele>
      <time>2021-10-12T11:52:21Z</time>
    </trkpt>
    <trkpt lat="38.636346962" lon="34.819708038">
      <ele>1144.345</ele>
      <time>2021-10-12T11:52:22Z</time>
    </trkpt>
    <trkpt lat="38.636309998" lon="34.819713989">
      <ele>1144.589</ele>
      <time>2021-10-12T11:52:23Z</time>
    </trkpt>
    <trkpt lat="38.636273034" lon="34.81972103">
      <ele>1144.837</ele>
      <time>2021-10-12T11:52:25Z</time>
    </trkpt>
    <trkpt lat="38.63623498" lon="34.819725975">
      <ele>1145.2</ele>
      <time>2021-10-12T11:52:26Z</time>
    </trkpt>
    <trkpt lat="38.636202961" lon="34.819733016">
      <ele>1145.624</ele>
      <time>2021-10-12T11:52:27Z</time>
    </trkpt>
    <trkpt lat="38.636174966" lon="34.819739973">
      <ele>1146.042</ele>
      <time>2021-10-12T11:52:28Z</time>
    </trkpt>
    <trkpt lat="38.636145964" lon="34.819750031">
      <ele>1146.587</ele>
      <time>2021-10-12T11:52:30Z</time>
    </trkpt>
    <trkpt lat="38.636107994" lon="34.819763023">
      <ele>1147.327</ele>
      <time>2021-10-12T11:52:31Z</time>
    </trkpt>
    <trkpt lat="38.636073042" lon="34.819774004">
      <ele>1147.713</ele>
      <time>2021-10-12T11:52:32Z</time>
    </trkpt>
    <trkpt lat="38.636042029" lon="34.819782972">
      <ele>1147.999</ele>
      <time>2021-10-12T11:52:33Z</time>
    </trkpt>
    <trkpt lat="38.63601001" lon="34.819791019">
      <ele>1148.232</ele>
      <time>2021-10-12T11:52:35Z</time>
    </trkpt>
    <trkpt lat="38.635975979" lon="34.819804011">
      <ele>1148.563</ele>
      <time>2021-10-12T11:52:36Z</time>
    </trkpt>
    <trkpt lat="38.63594396" lon="34.819815997">
      <ele>1148.827</ele>
      <time>2021-10-12T11:52:37Z</time>
    </trkpt>
    <trkpt lat="38.635912025" lon="34.819818009">
      <ele>1148.832</ele>
      <time>2021-10-12T11:52:38Z</time>
    </trkpt>
    <trkpt lat="38.635879001" lon="34.819822032">
      <ele>1148.868</ele>
      <time>2021-10-12T11:52:40Z</time>
    </trkpt>
    <trkpt lat="38.635847988" lon="34.819824966">
      <ele>1148.875</ele>
      <time>2021-10-12T11:52:41Z</time>
    </trkpt>
    <trkpt lat="38.635815969" lon="34.819827983">
      <ele>1148.85</ele>
      <time>2021-10-12T11:52:42Z</time>
    </trkpt>
    <trkpt lat="38.635786967" lon="34.819828989">
      <ele>1148.78</ele>
      <time>2021-10-12T11:52:43Z</time>
    </trkpt>
    <trkpt lat="38.635757966" lon="34.819831001">
      <ele>1148.734</ele>
      <time>2021-10-12T11:52:44Z</time>
    </trkpt>
    <trkpt lat="38.635733994" lon="34.819828989">
      <ele>1148.619</ele>
      <time>2021-10-12T11:52:45Z</time>
    </trkpt>
    <trkpt lat="38.63570801" lon="34.819839969">
      <ele>1148.791</ele>
      <time>2021-10-12T11:52:46Z</time>
    </trkpt>
    <trkpt lat="38.63568102" lon="34.81984701">
      <ele>1148.889</ele>
      <time>2021-10-12T11:52:47Z</time>
    </trkpt>
    <trkpt lat="38.63565403" lon="34.819848016">
      <ele>1148.85</ele>
      <time>2021-10-12T11:52:48Z</time>
    </trkpt>
    <trkpt lat="38.635626035" lon="34.819840975">
      <ele>1148.602</ele>
      <time>2021-10-12T11:52:49Z</time>
    </trkpt>
    <trkpt lat="38.635596028" lon="34.81983603">
      <ele>1148.39</ele>
      <time>2021-10-12T11:52:50Z</time>
    </trkpt>
    <trkpt lat="38.635567026" lon="34.81982396">
      <ele>1147.967</ele>
      <time>2021-10-12T11:52:51Z</time>
    </trkpt>
    <trkpt lat="38.635540036" lon="34.819808034">
      <ele>1147.785</ele>
      <time>2021-10-12T11:52:52Z</time>
    </trkpt>
    <trkpt lat="38.635511035" lon="34.819783978">
      <ele>1147.651</ele>
      <time>2021-10-12T11:52:54Z</time>
    </trkpt>
    <trkpt lat="38.63548304" lon="34.819765035">
      <ele>1147.619</ele>
      <time>2021-10-12T11:52:55Z</time>
    </trkpt>
    <trkpt lat="38.63544398" lon="34.819742991">
      <ele>1147.667</ele>
      <time>2021-10-12T11:52:56Z</time>
    </trkpt>
    <trkpt lat="38.635417996" lon="34.819711978">
      <ele>1147.458</ele>
      <time>2021-10-12T11:52:58Z</time>
    </trkpt>
    <trkpt lat="38.63539503" lon="34.819683982">
      <ele>1147.81</ele>
      <time>2021-10-12T11:52:59Z</time>
    </trkpt>
    <trkpt lat="38.635308025" lon="34.819607036">
      <ele>1149.086</ele>
      <time>2021-10-12T11:53:03Z</time>
    </trkpt>
    <trkpt lat="38.63521398" lon="34.819535036">
      <ele>1151.463</ele>
      <time>2021-10-12T11:53:07Z</time>
    </trkpt>
    <trkpt lat="38.635132005" lon="34.819470998">
      <ele>1153.494</ele>
      <time>2021-10-12T11:53:11Z</time>
    </trkpt>
    <trkpt lat="38.635105016" lon="34.819449959">
      <ele>1154.045</ele>
      <time>2021-10-12T11:53:12Z</time>
    </trkpt>
    <trkpt lat="38.635080038" lon="34.819424981">
      <ele>1154.586</ele>
      <time>2021-10-12T11:53:13Z</time>
    </trkpt>
    <trkpt lat="38.635020023" lon="34.819332026">
      <ele>1155.355</ele>
      <time>2021-10-12T11:53:16Z</time>
    </trkpt>
    <trkpt lat="38.634976018" lon="34.819197999">
      <ele>1154.895</ele>
      <time>2021-10-12T11:53:21Z</time>
    </trkpt>
    <trkpt lat="38.634931007" lon="34.81907797">
      <ele>1155.814</ele>
      <time>2021-10-12T11:53:24Z</time>
    </trkpt>
    <trkpt lat="38.634883985" lon="34.818960959">
      <ele>1156.253</ele>
      <time>2021-10-12T11:53:28Z</time>
    </trkpt>
    <trkpt lat="38.634769991" lon="34.818949057">
      <ele>1156.129</ele>
      <time>2021-10-12T11:53:32Z</time>
    </trkpt>
    <trkpt lat="38.634708133" lon="34.81891226">
      <ele>1155.628</ele>
      <time>2021-10-12T11:53:35Z</time>
    </trkpt>
    <trkpt lat="38.634638395" lon="34.818875799">
      <ele>1156.48</ele>
      <time>2021-10-12T11:53:38Z</time>
    </trkpt>
    <trkpt lat="38.634603024" lon="34.818828441">
      <ele>1157.866</ele>
      <time>2021-10-12T11:53:40Z</time>
    </trkpt>
    <trkpt lat="38.634548122" lon="34.818799524">
      <ele>1158.952</ele>
      <time>2021-10-12T11:53:42Z</time>
    </trkpt>
    <trkpt lat="38.63450571" lon="34.81878561">
      <ele>1159.561</ele>
      <time>2021-10-12T11:53:44Z</time>
    </trkpt>
    <trkpt lat="38.634449048" lon="34.8187494">
      <ele>1160.473</ele>
      <time>2021-10-12T11:53:46Z</time>
    </trkpt>
    <trkpt lat="38.634400684" lon="34.818723332">
      <ele>1161.17</ele>
      <time>2021-10-12T11:53:48Z</time>
    </trkpt>
    <trkpt lat="38.634358356" lon="34.818694666">
      <ele>1161.657</ele>
      <time>2021-10-12T11:53:50Z</time>
    </trkpt>
    <trkpt lat="38.634318374" lon="34.818671197">
      <ele>1161.94</ele>
      <time>2021-10-12T11:53:51Z</time>
    </trkpt>
    <trkpt lat="38.634270681" lon="34.818653259">
      <ele>1162.114</ele>
      <time>2021-10-12T11:53:53Z</time>
    </trkpt>
    <trkpt lat="38.634231454" lon="34.818662815">
      <ele>1162.298</ele>
      <time>2021-10-12T11:53:55Z</time>
    </trkpt>
    <trkpt lat="38.634178983" lon="34.818680501">
      <ele>1162.683</ele>
      <time>2021-10-12T11:53:57Z</time>
    </trkpt>
    <trkpt lat="38.634128189" lon="34.818657953">
      <ele>1162.83</ele>
      <time>2021-10-12T11:53:59Z</time>
    </trkpt>
    <trkpt lat="38.634083346" lon="34.81864186">
      <ele>1162.998</ele>
      <time>2021-10-12T11:54:00Z</time>
    </trkpt>
    <trkpt lat="38.634030791" lon="34.818645464">
      <ele>1163.47</ele>
      <time>2021-10-12T11:54:02Z</time>
    </trkpt>
    <trkpt lat="38.633970777" lon="34.818666838">
      <ele>1164.295</ele>
      <time>2021-10-12T11:54:04Z</time>
    </trkpt>
    <trkpt lat="38.633928364" lon="34.818692738">
      <ele>1165.102</ele>
      <time>2021-10-12T11:54:06Z</time>
    </trkpt>
    <trkpt lat="38.633874049" lon="34.818706401">
      <ele>1165.698</ele>
      <time>2021-10-12T11:54:08Z</time>
    </trkpt>
    <trkpt lat="38.633836918" lon="34.818699695">
      <ele>1165.527</ele>
      <time>2021-10-12T11:54:10Z</time>
    </trkpt>
    <trkpt lat="38.633807832" lon="34.81871034">
      <ele>1165.703</ele>
      <time>2021-10-12T11:54:11Z</time>
    </trkpt>
    <trkpt lat="38.633791152" lon="34.818750741">
      <ele>1166.515</ele>
      <time>2021-10-12T11:54:12Z</time>
    </trkpt>
    <trkpt lat="38.633757625" lon="34.818787035">
      <ele>1167.293</ele>
      <time>2021-10-12T11:54:14Z</time>
    </trkpt>
    <trkpt lat="38.633752428" lon="34.818797344">
      <ele>1167.52</ele>
      <time>2021-10-12T11:54:14Z</time>
    </trkpt>
    <trkpt lat="38.63372854" lon="34.818810923">
      <ele>1167.85</ele>
      <time>2021-10-12T11:54:15Z</time>
    </trkpt>
    <trkpt lat="38.633695515" lon="34.818753926">
      <ele>1166.59</ele>
      <time>2021-10-12T11:54:17Z</time>
    </trkpt>
    <trkpt lat="38.633667435" lon="34.8186862">
      <ele>1164.985</ele>
      <time>2021-10-12T11:54:19Z</time>
    </trkpt>
    <trkpt lat="38.633609852" lon="34.818593916">
      <ele>1163.313</ele>
      <time>2021-10-12T11:54:23Z</time>
    </trkpt>
    <trkpt lat="38.633572971" lon="34.818526693">
      <ele>1164.49</ele>
      <time>2021-10-12T11:54:25Z</time>
    </trkpt>
    <trkpt lat="38.633563416" lon="34.818456117">
      <ele>1165.578</ele>
      <time>2021-10-12T11:54:27Z</time>
    </trkpt>
    <trkpt lat="38.633576659" lon="34.818393672">
      <ele>1166.65</ele>
      <time>2021-10-12T11:54:29Z</time>
    </trkpt>
    <trkpt lat="38.633571547" lon="34.818328125">
      <ele>1167.677</ele>
      <time>2021-10-12T11:54:31Z</time>
    </trkpt>
    <trkpt lat="38.633522931" lon="34.818307254">
      <ele>1167.522</ele>
      <time>2021-10-12T11:54:33Z</time>
    </trkpt>
    <trkpt lat="38.633502061" lon="34.818266602">
      <ele>1167.981</ele>
      <time>2021-10-12T11:54:34Z</time>
    </trkpt>
    <trkpt lat="38.633506922" lon="34.818203989">
      <ele>1169.145</ele>
      <time>2021-10-12T11:54:36Z</time>
    </trkpt>
    <trkpt lat="38.63352905" lon="34.81815814">
      <ele>1170.339</ele>
      <time>2021-10-12T11:54:38Z</time>
    </trkpt>
    <trkpt lat="38.633549334" lon="34.818091001">
      <ele>1171.985</ele>
      <time>2021-10-12T11:54:40Z</time>
    </trkpt>
    <trkpt lat="38.633553945" lon="34.818038782">
      <ele>1173.307</ele>
      <time>2021-10-12T11:54:41Z</time>
    </trkpt>
    <trkpt lat="38.633558974" lon="34.81798497">
      <ele>1175.176</ele>
      <time>2021-10-12T11:54:43Z</time>
    </trkpt>
    <trkpt lat="38.633481022" lon="34.817890003">
      <ele>1175.754</ele>
      <time>2021-10-12T11:54:47Z</time>
    </trkpt>
    <trkpt lat="38.633387983" lon="34.817811968">
      <ele>1174.428</ele>
      <time>2021-10-12T11:54:51Z</time>
    </trkpt>
    <trkpt lat="38.633366022" lon="34.817782966">
      <ele>1174.19</ele>
      <time>2021-10-12T11:54:52Z</time>
    </trkpt>
    <trkpt lat="38.633342972" lon="34.817752037">
      <ele>1174.027</ele>
      <time>2021-10-12T11:54:53Z</time>
    </trkpt>
    <trkpt lat="38.633322017" lon="34.817724042">
      <ele>1173.972</ele>
      <time>2021-10-12T11:54:55Z</time>
    </trkpt>
    <trkpt lat="38.63330299" lon="34.81769898">
      <ele>1173.941</ele>
      <time>2021-10-12T11:54:56Z</time>
    </trkpt>
    <trkpt lat="38.633282036" lon="34.817675008">
      <ele>1173.791</ele>
      <time>2021-10-12T11:54:57Z</time>
    </trkpt>
    <trkpt lat="38.633260997" lon="34.817652041">
      <ele>1173.589</ele>
      <time>2021-10-12T11:54:58Z</time>
    </trkpt>
    <trkpt lat="38.633240964" lon="34.817623962">
      <ele>1173.515</ele>
      <time>2021-10-12T11:54:59Z</time>
    </trkpt>
    <trkpt lat="38.633223027" lon="34.817592027">
      <ele>1173.576</ele>
      <time>2021-10-12T11:55:00Z</time>
    </trkpt>
    <trkpt lat="38.633207018" lon="34.817576017">
      <ele>1173.331</ele>
      <time>2021-10-12T11:55:01Z</time>
    </trkpt>
    <trkpt lat="38.633188996" lon="34.817553973">
      <ele>1173.126</ele>
      <time>2021-10-12T11:55:02Z</time>
    </trkpt>
    <trkpt lat="38.633176005" lon="34.817528995">
      <ele>1173.157</ele>
      <time>2021-10-12T11:55:02Z</time>
    </trkpt>
    <trkpt lat="38.633165024" lon="34.817502005">
      <ele>1173.293</ele>
      <time>2021-10-12T11:55:03Z</time>
    </trkpt>
    <trkpt lat="38.633151026" lon="34.817479039">
      <ele>1173.108</ele>
      <time>2021-10-12T11:55:04Z</time>
    </trkpt>
    <trkpt lat="38.633139962" lon="34.817445008">
      <ele>1173.195</ele>
      <time>2021-10-12T11:55:05Z</time>
    </trkpt>
    <trkpt lat="38.633130994" lon="34.817413995">
      <ele>1173.31</ele>
      <time>2021-10-12T11:55:06Z</time>
    </trkpt>
    <trkpt lat="38.633123031" lon="34.817387005">
      <ele>1173.398</ele>
      <time>2021-10-12T11:55:07Z</time>
    </trkpt>
    <trkpt lat="38.633111967" lon="34.817360016">
      <ele>1173.352</ele>
      <time>2021-10-12T11:55:08Z</time>
    </trkpt>
    <trkpt lat="38.633104004" lon="34.817325985">
      <ele>1173.534</ele>
      <time>2021-10-12T11:55:09Z</time>
    </trkpt>
    <trkpt lat="38.63309403" lon="34.817298995">
      <ele>1173.518</ele>
      <time>2021-10-12T11:55:10Z</time>
    </trkpt>
    <trkpt lat="38.633092018" lon="34.817266976">
      <ele>1173.91</ele>
      <time>2021-10-12T11:55:11Z</time>
    </trkpt>
    <trkpt lat="38.633095035" lon="34.817232024">
      <ele>1174.559</ele>
      <time>2021-10-12T11:55:12Z</time>
    </trkpt>
    <trkpt lat="38.633098975" lon="34.817195982">
      <ele>1175.428</ele>
      <time>2021-10-12T11:55:13Z</time>
    </trkpt>
    <trkpt lat="38.633110039" lon="34.817160023">
      <ele>1176.653</ele>
      <time>2021-10-12T11:55:14Z</time>
    </trkpt>
    <trkpt lat="38.633118002" lon="34.817131022">
      <ele>1177.594</ele>
      <time>2021-10-12T11:55:15Z</time>
    </trkpt>
    <trkpt lat="38.633127976" lon="34.817101015">
      <ele>1178.633</ele>
      <time>2021-10-12T11:55:16Z</time>
    </trkpt>
    <trkpt lat="38.633141974" lon="34.817071008">
      <ele>1179.83</ele>
      <time>2021-10-12T11:55:17Z</time>
    </trkpt>
    <trkpt lat="38.63315396" lon="34.817042006">
      <ele>1180.914</ele>
      <time>2021-10-12T11:55:18Z</time>
    </trkpt>
    <trkpt lat="38.633168964" lon="34.817011999">
      <ele>1182.131</ele>
      <time>2021-10-12T11:55:19Z</time>
    </trkpt>
    <trkpt lat="38.633182039" lon="34.816988027">
      <ele>1183.139</ele>
      <time>2021-10-12T11:55:20Z</time>
    </trkpt>
    <trkpt lat="38.633198971" lon="34.816956008">
      <ele>1184.451</ele>
      <time>2021-10-12T11:55:21Z</time>
    </trkpt>
    <trkpt lat="38.633211963" lon="34.816928012">
      <ele>1185.608</ele>
      <time>2021-10-12T11:55:22Z</time>
    </trkpt>
    <trkpt lat="38.633216992" lon="34.816900017">
      <ele>1186.512</ele>
      <time>2021-10-12T11:55:22Z</time>
    </trkpt>
    <trkpt lat="38.633197965" lon="34.816861963">
      <ele>1186.718</ele>
      <time>2021-10-12T11:55:24Z</time>
    </trkpt>
    <trkpt lat="38.633180028" lon="34.816835979">
      <ele>1186.662</ele>
      <time>2021-10-12T11:55:25Z</time>
    </trkpt>
    <trkpt lat="38.633161001" lon="34.816807983">
      <ele>1186.614</ele>
      <time>2021-10-12T11:55:26Z</time>
    </trkpt>
    <trkpt lat="38.633140968" lon="34.816783005">
      <ele>1186.451</ele>
      <time>2021-10-12T11:55:27Z</time>
    </trkpt>
    <trkpt lat="38.633124959" lon="34.816757021">
      <ele>1186.471</ele>
      <time>2021-10-12T11:55:28Z</time>
    </trkpt>
    <trkpt lat="38.633111967" lon="34.816734977">
      <ele>1186.512</ele>
      <time>2021-10-12T11:55:29Z</time>
    </trkpt>
    <trkpt lat="38.633097969" lon="34.816712011">
      <ele>1186.537</ele>
      <time>2021-10-12T11:55:30Z</time>
    </trkpt>
    <trkpt lat="38.633062011" lon="34.816603968">
      <ele>1187.82</ele>
      <time>2021-10-12T11:55:33Z</time>
    </trkpt>
    <trkpt lat="38.632998979" lon="34.816502966">
      <ele>1189.838</ele>
      <time>2021-10-12T11:55:37Z</time>
    </trkpt>
    <trkpt lat="38.632948017" lon="34.816404982">
      <ele>1192.185</ele>
      <time>2021-10-12T11:55:40Z</time>
    </trkpt>
    <trkpt lat="38.632936031" lon="34.816277996">
      <ele>1194.793</ele>
      <time>2021-10-12T11:55:44Z</time>
    </trkpt>
    <trkpt lat="38.632874005" lon="34.816171965">
      <ele>1196.522</ele>
      <time>2021-10-12T11:55:48Z</time>
    </trkpt>
    <trkpt lat="38.632851038" lon="34.816041039">
      <ele>1199.293</ele>
      <time>2021-10-12T11:55:52Z</time>
    </trkpt>
    <trkpt lat="38.632859001" lon="34.815915981">
      <ele>1202.502</ele>
      <time>2021-10-12T11:55:55Z</time>
    </trkpt>
    <trkpt lat="38.632923961" lon="34.815796036">
      <ele>1205.773</ele>
      <time>2021-10-12T11:55:59Z</time>
    </trkpt>
    <trkpt lat="38.632967966" lon="34.815694029">
      <ele>1207.665</ele>
      <time>2021-10-12T11:56:03Z</time>
    </trkpt>
    <trkpt lat="38.632981963" lon="34.815574">
      <ele>1209.508</ele>
      <time>2021-10-12T11:56:06Z</time>
    </trkpt>
    <trkpt lat="38.633011971" lon="34.815453971">
      <ele>1210.625</ele>
      <time>2021-10-12T11:56:10Z</time>
    </trkpt>
    <trkpt lat="38.633090006" lon="34.815356992">
      <ele>1211.339</ele>
      <time>2021-10-12T11:56:14Z</time>
    </trkpt>
    <trkpt lat="38.633167036" lon="34.815265965">
      <ele>1212.622</ele>
      <time>2021-10-12T11:56:18Z</time>
    </trkpt>
    <trkpt lat="38.633211963" lon="34.815160017">
      <ele>1214.629</ele>
      <time>2021-10-12T11:56:21Z</time>
    </trkpt>
    <trkpt lat="38.633185979" lon="34.815044012">
      <ele>1216.729</ele>
      <time>2021-10-12T11:56:25Z</time>
    </trkpt>
    <trkpt lat="38.633178016" lon="34.814923983">
      <ele>1218.533</ele>
      <time>2021-10-12T11:56:28Z</time>
    </trkpt>
    <trkpt lat="38.633245993" lon="34.814819964">
      <ele>1219.463</ele>
      <time>2021-10-12T11:56:32Z</time>
    </trkpt>
    <trkpt lat="38.633274995" lon="34.814695995">
      <ele>1220.499</ele>
      <time>2021-10-12T11:56:36Z</time>
    </trkpt>
    <trkpt lat="38.633321011" lon="34.81459097">
      <ele>1220.173</ele>
      <time>2021-10-12T11:56:40Z</time>
    </trkpt>
    <trkpt lat="38.633331992" lon="34.814462978">
      <ele>1220.028</ele>
      <time>2021-10-12T11:56:43Z</time>
    </trkpt>
    <trkpt lat="38.633273989" lon="34.814356025">
      <ele>1221.668</ele>
      <time>2021-10-12T11:56:47Z</time>
    </trkpt>
    <trkpt lat="38.633245993" lon="34.814238008">
      <ele>1222.863</ele>
      <time>2021-10-12T11:56:51Z</time>
    </trkpt>
    <trkpt lat="38.633231996" lon="34.814116973">
      <ele>1224.221</ele>
      <time>2021-10-12T11:56:54Z</time>
    </trkpt>
    <trkpt lat="38.633219004" lon="34.813998034">
      <ele>1226.202</ele>
      <time>2021-10-12T11:56:58Z</time>
    </trkpt>
    <trkpt lat="38.633228978" lon="34.813881023">
      <ele>1227.494</ele>
      <time>2021-10-12T11:57:01Z</time>
    </trkpt>
    <trkpt lat="38.633331992" lon="34.813840035">
      <ele>1224.747</ele>
      <time>2021-10-12T11:57:05Z</time>
    </trkpt>
    <trkpt lat="38.633415978" lon="34.81377298">
      <ele>1225.247</ele>
      <time>2021-10-12T11:57:09Z</time>
    </trkpt>
    <trkpt lat="38.633482028" lon="34.813665021">
      <ele>1226.257</ele>
      <time>2021-10-12T11:57:13Z</time>
    </trkpt>
    <trkpt lat="38.633523015" lon="34.81354801">
      <ele>1226.922</ele>
      <time>2021-10-12T11:57:16Z</time>
    </trkpt>
    <trkpt lat="38.633526033" lon="34.813418007">
      <ele>1227.464</ele>
      <time>2021-10-12T11:57:20Z</time>
    </trkpt>
    <trkpt lat="38.633529972" lon="34.813277023">
      <ele>1228.302</ele>
      <time>2021-10-12T11:57:24Z</time>
    </trkpt>
    <trkpt lat="38.633525027" lon="34.813139979">
      <ele>1229.732</ele>
      <time>2021-10-12T11:57:28Z</time>
    </trkpt>
    <trkpt lat="38.633525027" lon="34.813108966">
      <ele>1230.032</ele>
      <time>2021-10-12T11:57:29Z</time>
    </trkpt>
    <trkpt lat="38.633523015" lon="34.813077031">
      <ele>1230.378</ele>
      <time>2021-10-12T11:57:30Z</time>
    </trkpt>
    <trkpt lat="38.633523015" lon="34.813047023">
      <ele>1230.657</ele>
      <time>2021-10-12T11:57:31Z</time>
    </trkpt>
    <trkpt lat="38.633527039" lon="34.813019028">
      <ele>1230.816</ele>
      <time>2021-10-12T11:57:32Z</time>
    </trkpt>
    <trkpt lat="38.633530978" lon="34.812987009">
      <ele>1231.007</ele>
      <time>2021-10-12T11:57:33Z</time>
    </trkpt>
    <trkpt lat="38.633533996" lon="34.812958008">
      <ele>1231.188</ele>
      <time>2021-10-12T11:57:34Z</time>
    </trkpt>
    <trkpt lat="38.633533996" lon="34.812932024">
      <ele>1231.401</ele>
      <time>2021-10-12T11:57:34Z</time>
    </trkpt>
    <trkpt lat="38.63353299" lon="34.812901011">
      <ele>1231.675</ele>
      <time>2021-10-12T11:57:35Z</time>
    </trkpt>
    <trkpt lat="38.63353299" lon="34.812869998">
      <ele>1231.93</ele>
      <time>2021-10-12T11:57:36Z</time>
    </trkpt>
    <trkpt lat="38.633533996" lon="34.812813001">
      <ele>1232.377</ele>
      <time>2021-10-12T11:57:38Z</time>
    </trkpt>
    <trkpt lat="38.63353299" lon="34.812779976">
      <ele>1232.669</ele>
      <time>2021-10-12T11:57:39Z</time>
    </trkpt>
    <trkpt lat="38.633536007" lon="34.81275198">
      <ele>1232.826</ele>
      <time>2021-10-12T11:57:40Z</time>
    </trkpt>
    <trkpt lat="38.633538019" lon="34.812719962">
      <ele>1233.039</ele>
      <time>2021-10-12T11:57:41Z</time>
    </trkpt>
    <trkpt lat="38.633541958" lon="34.812690038">
      <ele>1233.205</ele>
      <time>2021-10-12T11:57:41Z</time>
    </trkpt>
    <trkpt lat="38.633548999" lon="34.812655002">
      <ele>1233.371</ele>
      <time>2021-10-12T11:57:42Z</time>
    </trkpt>
    <trkpt lat="38.633556962" lon="34.812627006">
      <ele>1233.481</ele>
      <time>2021-10-12T11:57:43Z</time>
    </trkpt>
    <trkpt lat="38.633564003" lon="34.812595993">
      <ele>1233.648</ele>
      <time>2021-10-12T11:57:44Z</time>
    </trkpt>
    <trkpt lat="38.633568026" lon="34.812565986">
      <ele>1233.863</ele>
      <time>2021-10-12T11:57:45Z</time>
    </trkpt>
    <trkpt lat="38.633576995" lon="34.812541008">
      <ele>1233.98</ele>
      <time>2021-10-12T11:57:46Z</time>
    </trkpt>
    <trkpt lat="38.633582024" lon="34.812515024">
      <ele>1234.169</ele>
      <time>2021-10-12T11:57:47Z</time>
    </trkpt>
    <trkpt lat="38.633585963" lon="34.812488034">
      <ele>1234.35</ele>
      <time>2021-10-12T11:57:48Z</time>
    </trkpt>
    <trkpt lat="38.633598033" lon="34.812461967">
      <ele>1234.402</ele>
      <time>2021-10-12T11:57:48Z</time>
    </trkpt>
    <trkpt lat="38.633608008" lon="34.812434977">
      <ele>1234.496</ele>
      <time>2021-10-12T11:57:49Z</time>
    </trkpt>
    <trkpt lat="38.633610019" lon="34.812317966">
      <ele>1235.317</ele>
      <time>2021-10-12T11:57:53Z</time>
    </trkpt>
    <trkpt lat="38.633613037" lon="34.81228997">
      <ele>1235.519</ele>
      <time>2021-10-12T11:57:53Z</time>
    </trkpt>
    <trkpt lat="38.633584036" lon="34.812152004">
      <ele>1236.326</ele>
      <time>2021-10-12T11:57:58Z</time>
    </trkpt>
    <trkpt lat="38.633544976" lon="34.812040022">
      <ele>1236.738</ele>
      <time>2021-10-12T11:58:01Z</time>
    </trkpt>
    <trkpt lat="38.633533996" lon="34.811911024">
      <ele>1237.087</ele>
      <time>2021-10-12T11:58:05Z</time>
    </trkpt>
    <trkpt lat="38.633548999" lon="34.811787978">
      <ele>1237.437</ele>
      <time>2021-10-12T11:58:09Z</time>
    </trkpt>
    <trkpt lat="38.63356702" lon="34.811673984">
      <ele>1237.819</ele>
      <time>2021-10-12T11:58:12Z</time>
    </trkpt>
    <trkpt lat="38.633560985" lon="34.811649006">
      <ele>1237.883</ele>
      <time>2021-10-12T11:58:13Z</time>
    </trkpt>
    <trkpt lat="38.633548999" lon="34.811627967">
      <ele>1237.916</ele>
      <time>2021-10-12T11:58:13Z</time>
    </trkpt>
    <trkpt lat="38.633526033" lon="34.811579017">
      <ele>1238.009</ele>
      <time>2021-10-12T11:58:15Z</time>
    </trkpt>
    <trkpt lat="38.633512035" lon="34.811558984">
      <ele>1238.031</ele>
      <time>2021-10-12T11:58:16Z</time>
    </trkpt>
    <trkpt lat="38.633498037" lon="34.811531994">
      <ele>1238.078</ele>
      <time>2021-10-12T11:58:17Z</time>
    </trkpt>
    <trkpt lat="38.633484961" lon="34.811503999">
      <ele>1238.131</ele>
      <time>2021-10-12T11:58:18Z</time>
    </trkpt>
    <trkpt lat="38.633469036" lon="34.811477009">
      <ele>1238.171</ele>
      <time>2021-10-12T11:58:19Z</time>
    </trkpt>
    <trkpt lat="38.633452021" lon="34.811447002">
      <ele>1238.218</ele>
      <time>2021-10-12T11:58:20Z</time>
    </trkpt>
    <trkpt lat="38.633436011" lon="34.811419006">
      <ele>1238.261</ele>
      <time>2021-10-12T11:58:21Z</time>
    </trkpt>
    <trkpt lat="38.633418996" lon="34.811397968">
      <ele>1238.276</ele>
      <time>2021-10-12T11:58:22Z</time>
    </trkpt>
    <trkpt lat="38.633403992" lon="34.811367039">
      <ele>1238.412</ele>
      <time>2021-10-12T11:58:23Z</time>
    </trkpt>
    <trkpt lat="38.633391" lon="34.811341977">
      <ele>1238.545</ele>
      <time>2021-10-12T11:58:24Z</time>
    </trkpt>
    <trkpt lat="38.63338002" lon="34.81130803">
      <ele>1238.75</ele>
      <time>2021-10-12T11:58:25Z</time>
    </trkpt>
    <trkpt lat="38.633369962" lon="34.811278023">
      <ele>1238.93</ele>
      <time>2021-10-12T11:58:26Z</time>
    </trkpt>
    <trkpt lat="38.633354036" lon="34.811246004">
      <ele>1239.103</ele>
      <time>2021-10-12T11:58:27Z</time>
    </trkpt>
    <trkpt lat="38.63334096" lon="34.811213985">
      <ele>1239.287</ele>
      <time>2021-10-12T11:58:28Z</time>
    </trkpt>
    <trkpt lat="38.63332998" lon="34.811186995">
      <ele>1239.472</ele>
      <time>2021-10-12T11:58:29Z</time>
    </trkpt>
    <trkpt lat="38.633316988" lon="34.811153971">
      <ele>1239.768</ele>
      <time>2021-10-12T11:58:30Z</time>
    </trkpt>
    <trkpt lat="38.633301985" lon="34.811123041">
      <ele>1240.037</ele>
      <time>2021-10-12T11:58:31Z</time>
    </trkpt>
    <trkpt lat="38.633291004" lon="34.811090017">
      <ele>1240.433</ele>
      <time>2021-10-12T11:58:32Z</time>
    </trkpt>
    <trkpt lat="38.633279018" lon="34.81106001">
      <ele>1240.859</ele>
      <time>2021-10-12T11:58:33Z</time>
    </trkpt>
    <trkpt lat="38.633269966" lon="34.811028996">
      <ele>1241.276</ele>
      <time>2021-10-12T11:58:34Z</time>
    </trkpt>
    <trkpt lat="38.633259991" lon="34.810999995">
      <ele>1241.653</ele>
      <time>2021-10-12T11:58:35Z</time>
    </trkpt>
    <trkpt lat="38.63325404" lon="34.810969988">
      <ele>1242.028</ele>
      <time>2021-10-12T11:58:36Z</time>
    </trkpt>
    <trkpt lat="38.633246999" lon="34.810941992">
      <ele>1242.368</ele>
      <time>2021-10-12T11:58:36Z</time>
    </trkpt>
    <trkpt lat="38.633239036" lon="34.810920032">
      <ele>1242.624</ele>
      <time>2021-10-12T11:58:37Z</time>
    </trkpt>
    <trkpt lat="38.633231996" lon="34.810890025">
      <ele>1242.968</ele>
      <time>2021-10-12T11:58:38Z</time>
    </trkpt>
    <trkpt lat="38.633210035" lon="34.810832022">
      <ele>1243.573</ele>
      <time>2021-10-12T11:58:40Z</time>
    </trkpt>
    <trkpt lat="38.633199977" lon="34.810802015">
      <ele>1243.921</ele>
      <time>2021-10-12T11:58:41Z</time>
    </trkpt>
    <trkpt lat="38.633191008" lon="34.81076899">
      <ele>1244.29</ele>
      <time>2021-10-12T11:58:42Z</time>
    </trkpt>
    <trkpt lat="38.633179022" lon="34.810734037">
      <ele>1244.636</ele>
      <time>2021-10-12T11:58:43Z</time>
    </trkpt>
    <trkpt lat="38.63316603" lon="34.810706042">
      <ele>1244.861</ele>
      <time>2021-10-12T11:58:44Z</time>
    </trkpt>
    <trkpt lat="38.633149015" lon="34.810678968">
      <ele>1245.009</ele>
      <time>2021-10-12T11:58:45Z</time>
    </trkpt>
    <trkpt lat="38.633125965" lon="34.810658013">
      <ele>1244.996</ele>
      <time>2021-10-12T11:58:46Z</time>
    </trkpt>
    <trkpt lat="38.633100986" lon="34.810642004">
      <ele>1244.879</ele>
      <time>2021-10-12T11:58:47Z</time>
    </trkpt>
    <trkpt lat="38.633075003" lon="34.810637981">
      <ele>1244.624</ele>
      <time>2021-10-12T11:58:48Z</time>
    </trkpt>
    <trkpt lat="38.633048013" lon="34.810644016">
      <ele>1244.353</ele>
      <time>2021-10-12T11:58:49Z</time>
    </trkpt>
    <trkpt lat="38.633024041" lon="34.81064301">
      <ele>1244.328</ele>
      <time>2021-10-12T11:58:50Z</time>
    </trkpt>
    <trkpt lat="38.632999985" lon="34.810642004">
      <ele>1244.302</ele>
      <time>2021-10-12T11:58:51Z</time>
    </trkpt>
    <trkpt lat="38.632976012" lon="34.810647033">
      <ele>1244.244</ele>
      <time>2021-10-12T11:58:52Z</time>
    </trkpt>
    <trkpt lat="38.63295598" lon="34.810658013">
      <ele>1244.168</ele>
      <time>2021-10-12T11:58:53Z</time>
    </trkpt>
    <trkpt lat="38.632937958" lon="34.81066497">
      <ele>1244.122</ele>
      <time>2021-10-12T11:58:53Z</time>
    </trkpt>
    <trkpt lat="38.632920021" lon="34.810676035">
      <ele>1244.068</ele>
      <time>2021-10-12T11:58:54Z</time>
    </trkpt>
    <trkpt lat="38.632900994" lon="34.810691038">
      <ele>1244.011</ele>
      <time>2021-10-12T11:58:55Z</time>
    </trkpt>
    <trkpt lat="38.632881967" lon="34.810706042">
      <ele>1243.969</ele>
      <time>2021-10-12T11:58:56Z</time>
    </trkpt>
    <trkpt lat="38.632853972" lon="34.810723979">
      <ele>1243.942</ele>
      <time>2021-10-12T11:58:57Z</time>
    </trkpt>
    <trkpt lat="38.63283" lon="34.810748035">
      <ele>1243.927</ele>
      <time>2021-10-12T11:58:58Z</time>
    </trkpt>
    <trkpt lat="38.632808961" lon="34.81076899">
      <ele>1243.94</ele>
      <time>2021-10-12T11:58:59Z</time>
    </trkpt>
    <trkpt lat="38.632793035" lon="34.810788017">
      <ele>1243.963</ele>
      <time>2021-10-12T11:59:00Z</time>
    </trkpt>
    <trkpt lat="38.632777026" lon="34.81080302">
      <ele>1244.008</ele>
      <time>2021-10-12T11:59:00Z</time>
    </trkpt>
    <trkpt lat="38.632759005" lon="34.810818024">
      <ele>1244.199</ele>
      <time>2021-10-12T11:59:01Z</time>
    </trkpt>
    <trkpt lat="38.632742995" lon="34.810835039">
      <ele>1244.383</ele>
      <time>2021-10-12T11:59:02Z</time>
    </trkpt>
    <trkpt lat="38.632727992" lon="34.810852977">
      <ele>1244.621</ele>
      <time>2021-10-12T11:59:03Z</time>
    </trkpt>
    <trkpt lat="38.632713994" lon="34.810868986">
      <ele>1244.847</ele>
      <time>2021-10-12T11:59:03Z</time>
    </trkpt>
    <trkpt lat="38.632697985" lon="34.810888013">
      <ele>1245.115</ele>
      <time>2021-10-12T11:59:04Z</time>
    </trkpt>
    <trkpt lat="38.632683987" lon="34.810904022">
      <ele>1245.353</ele>
      <time>2021-10-12T11:59:05Z</time>
    </trkpt>
    <trkpt lat="38.632664038" lon="34.810937969">
      <ele>1245.759</ele>
      <time>2021-10-12T11:59:06Z</time>
    </trkpt>
    <trkpt lat="38.632651968" lon="34.810974011">
      <ele>1246.095</ele>
      <time>2021-10-12T11:59:07Z</time>
    </trkpt>
    <trkpt lat="38.632634031" lon="34.811007036">
      <ele>1246.501</ele>
      <time>2021-10-12T11:59:08Z</time>
    </trkpt>
    <trkpt lat="38.632623972" lon="34.811044">
      <ele>1246.839</ele>
      <time>2021-10-12T11:59:10Z</time>
    </trkpt>
    <trkpt lat="38.6326" lon="34.811069984">
      <ele>1247.317</ele>
      <time>2021-10-12T11:59:11Z</time>
    </trkpt>
    <trkpt lat="38.632579967" lon="34.811084988">
      <ele>1247.687</ele>
      <time>2021-10-12T11:59:12Z</time>
    </trkpt>
    <trkpt lat="38.632560018" lon="34.811106026">
      <ele>1248.103</ele>
      <time>2021-10-12T11:59:13Z</time>
    </trkpt>
    <trkpt lat="38.632536968" lon="34.811122036">
      <ele>1248.541</ele>
      <time>2021-10-12T11:59:14Z</time>
    </trkpt>
    <trkpt lat="38.632509978" lon="34.811137961">
      <ele>1249.046</ele>
      <time>2021-10-12T11:59:15Z</time>
    </trkpt>
    <trkpt lat="38.632477038" lon="34.811156988">
      <ele>1249.565</ele>
      <time>2021-10-12T11:59:16Z</time>
    </trkpt>
    <trkpt lat="38.632461028" lon="34.811168974">
      <ele>1249.808</ele>
      <time>2021-10-12T11:59:17Z</time>
    </trkpt>
    <trkpt lat="38.632426998" lon="34.811184984">
      <ele>1250.25</ele>
      <time>2021-10-12T11:59:18Z</time>
    </trkpt>
    <trkpt lat="38.632394979" lon="34.811197976">
      <ele>1250.641</ele>
      <time>2021-10-12T11:59:19Z</time>
    </trkpt>
    <trkpt lat="38.632363966" lon="34.811194958">
      <ele>1250.925</ele>
      <time>2021-10-12T11:59:20Z</time>
    </trkpt>
    <trkpt lat="38.632330019" lon="34.811176015">
      <ele>1251.16</ele>
      <time>2021-10-12T11:59:22Z</time>
    </trkpt>
    <trkpt lat="38.632305041" lon="34.811140979">
      <ele>1251.245</ele>
      <time>2021-10-12T11:59:23Z</time>
    </trkpt>
    <trkpt lat="38.632291965" lon="34.811120024">
      <ele>1251.287</ele>
      <time>2021-10-12T11:59:24Z</time>
    </trkpt>
    <trkpt lat="38.632278973" lon="34.81109404">
      <ele>1251.313</ele>
      <time>2021-10-12T11:59:25Z</time>
    </trkpt>
    <trkpt lat="38.63226397" lon="34.811065039">
      <ele>1251.358</ele>
      <time>2021-10-12T11:59:26Z</time>
    </trkpt>
    <trkpt lat="38.632246032" lon="34.811038971">
      <ele>1251.461</ele>
      <time>2021-10-12T11:59:27Z</time>
    </trkpt>
    <trkpt lat="38.632230023" lon="34.811012987">
      <ele>1251.553</ele>
      <time>2021-10-12T11:59:28Z</time>
    </trkpt>
    <trkpt lat="38.632216025" lon="34.810991026">
      <ele>1251.632</ele>
      <time>2021-10-12T11:59:29Z</time>
    </trkpt>
    <trkpt lat="38.632201022" lon="34.810972">
      <ele>1251.728</ele>
      <time>2021-10-12T11:59:29Z</time>
    </trkpt>
    <trkpt lat="38.632173026" lon="34.810941992">
      <ele>1251.961</ele>
      <time>2021-10-12T11:59:31Z</time>
    </trkpt>
    <trkpt lat="38.632157017" lon="34.810922965">
      <ele>1252.11</ele>
      <time>2021-10-12T11:59:32Z</time>
    </trkpt>
    <trkpt lat="38.63213799" lon="34.810899999">
      <ele>1252.307</ele>
      <time>2021-10-12T11:59:33Z</time>
    </trkpt>
    <trkpt lat="38.632116029" lon="34.810877033">
      <ele>1252.566</ele>
      <time>2021-10-12T11:59:34Z</time>
    </trkpt>
    <trkpt lat="38.632093985" lon="34.810860017">
      <ele>1252.854</ele>
      <time>2021-10-12T11:59:35Z</time>
    </trkpt>
    <trkpt lat="38.632062972" lon="34.810849959">
      <ele>1253.284</ele>
      <time>2021-10-12T11:59:36Z</time>
    </trkpt>
    <trkpt lat="38.632027013" lon="34.810850965">
      <ele>1253.785</ele>
      <time>2021-10-12T11:59:37Z</time>
    </trkpt>
    <trkpt lat="38.631988037" lon="34.810861023">
      <ele>1254.304</ele>
      <time>2021-10-12T11:59:39Z</time>
    </trkpt>
    <trkpt lat="38.631949984" lon="34.810875021">
      <ele>1254.776</ele>
      <time>2021-10-12T11:59:40Z</time>
    </trkpt>
    <trkpt lat="38.631916037" lon="34.810887007">
      <ele>1254.807</ele>
      <time>2021-10-12T11:59:41Z</time>
    </trkpt>
    <trkpt lat="38.631881" lon="34.810892036">
      <ele>1254.789</ele>
      <time>2021-10-12T11:59:43Z</time>
    </trkpt>
    <trkpt lat="38.63184697" lon="34.810892036">
      <ele>1254.789</ele>
      <time>2021-10-12T11:59:44Z</time>
    </trkpt>
    <trkpt lat="38.631814029" lon="34.810890025">
      <ele>1254.796</ele>
      <time>2021-10-12T11:59:45Z</time>
    </trkpt>
    <trkpt lat="38.631776981" lon="34.810882984">
      <ele>1254.821</ele>
      <time>2021-10-12T11:59:46Z</time>
    </trkpt>
    <trkpt lat="38.631740017" lon="34.810876027">
      <ele>1254.846</ele>
      <time>2021-10-12T11:59:48Z</time>
    </trkpt>
    <trkpt lat="38.631703975" lon="34.810870998">
      <ele>1254.864</ele>
      <time>2021-10-12T11:59:49Z</time>
    </trkpt>
    <trkpt lat="38.631669022" lon="34.810866974">
      <ele>1254.879</ele>
      <time>2021-10-12T11:59:51Z</time>
    </trkpt>
    <trkpt lat="38.631639015" lon="34.810864963">
      <ele>1254.986</ele>
      <time>2021-10-12T11:59:52Z</time>
    </trkpt>
    <trkpt lat="38.631611019" lon="34.810865968">
      <ele>1255.083</ele>
      <time>2021-10-12T11:59:53Z</time>
    </trkpt>
    <trkpt lat="38.631585035" lon="34.810865968">
      <ele>1255.176</ele>
      <time>2021-10-12T11:59:54Z</time>
    </trkpt>
    <trkpt lat="38.631559974" lon="34.810866974">
      <ele>1255.263</ele>
      <time>2021-10-12T11:59:55Z</time>
    </trkpt>
    <trkpt lat="38.631539019" lon="34.810877033">
      <ele>1255.302</ele>
      <time>2021-10-12T11:59:55Z</time>
    </trkpt>
    <trkpt lat="38.631516974" lon="34.810889019">
      <ele>1255.338</ele>
      <time>2021-10-12T11:59:56Z</time>
    </trkpt>
    <trkpt lat="38.631495014" lon="34.810899999">
      <ele>1255.378</ele>
      <time>2021-10-12T11:59:57Z</time>
    </trkpt>
    <trkpt lat="38.631473975" lon="34.810909973">
      <ele>1255.418</ele>
      <time>2021-10-12T11:59:58Z</time>
    </trkpt>
    <trkpt lat="38.631452015" lon="34.810913997">
      <ele>1255.482</ele>
      <time>2021-10-12T11:59:59Z</time>
    </trkpt>
    <trkpt lat="38.631430976" lon="34.810916008">
      <ele>1255.551</ele>
      <time>2021-10-12T12:00:00Z</time>
    </trkpt>
    <trkpt lat="38.631395018" lon="34.810908968">
      <ele>1255.706</ele>
      <time>2021-10-12T12:00:01Z</time>
    </trkpt>
    <trkpt lat="38.631371967" lon="34.810904022">
      <ele>1255.669</ele>
      <time>2021-10-12T12:00:02Z</time>
    </trkpt>
    <trkpt lat="38.631349001" lon="34.810912991">
      <ele>1255.528</ele>
      <time>2021-10-12T12:00:03Z</time>
    </trkpt>
    <trkpt lat="38.63132704" lon="34.810930006">
      <ele>1255.352</ele>
      <time>2021-10-12T12:00:04Z</time>
    </trkpt>
    <trkpt lat="38.63130399" lon="34.81095599">
      <ele>1255.118</ele>
      <time>2021-10-12T12:00:05Z</time>
    </trkpt>
    <trkpt lat="38.631281024" lon="34.81097904">
      <ele>1254.883</ele>
      <time>2021-10-12T12:00:06Z</time>
    </trkpt>
    <trkpt lat="38.631256968" lon="34.811008042">
      <ele>1254.597</ele>
      <time>2021-10-12T12:00:07Z</time>
    </trkpt>
    <trkpt lat="38.631230984" lon="34.811037965">
      <ele>1254.276</ele>
      <time>2021-10-12T12:00:08Z</time>
    </trkpt>
    <trkpt lat="38.631201982" lon="34.811063027">
      <ele>1253.944</ele>
      <time>2021-10-12T12:00:10Z</time>
    </trkpt>
    <trkpt lat="38.631174993" lon="34.811082976">
      <ele>1253.639</ele>
      <time>2021-10-12T12:00:11Z</time>
    </trkpt>
    <trkpt lat="38.631140962" lon="34.811098985">
      <ele>1253.298</ele>
      <time>2021-10-12T12:00:12Z</time>
    </trkpt>
    <trkpt lat="38.631108021" lon="34.811107032">
      <ele>1252.985</ele>
      <time>2021-10-12T12:00:13Z</time>
    </trkpt>
    <trkpt lat="38.631070973" lon="34.811107032">
      <ele>1252.454</ele>
      <time>2021-10-12T12:00:15Z</time>
    </trkpt>
    <trkpt lat="38.631036021" lon="34.811103009">
      <ele>1251.985</ele>
      <time>2021-10-12T12:00:16Z</time>
    </trkpt>
    <trkpt lat="38.630994027" lon="34.81110502">
      <ele>1251.367</ele>
      <time>2021-10-12T12:00:18Z</time>
    </trkpt>
    <trkpt lat="38.630955974" lon="34.811114995">
      <ele>1250.73</ele>
      <time>2021-10-12T12:00:19Z</time>
    </trkpt>
    <trkpt lat="38.630920015" lon="34.811125975">
      <ele>1250.104</ele>
      <time>2021-10-12T12:00:20Z</time>
    </trkpt>
    <trkpt lat="38.630890008" lon="34.811137961">
      <ele>1249.546</ele>
      <time>2021-10-12T12:00:22Z</time>
    </trkpt>
    <trkpt lat="38.630858995" lon="34.811152965">
      <ele>1248.931</ele>
      <time>2021-10-12T12:00:23Z</time>
    </trkpt>
    <trkpt lat="38.630826976" lon="34.811162017">
      <ele>1248.354</ele>
      <time>2021-10-12T12:00:24Z</time>
    </trkpt>
    <trkpt lat="38.630795963" lon="34.811172998">
      <ele>1247.764</ele>
      <time>2021-10-12T12:00:25Z</time>
    </trkpt>
    <trkpt lat="38.630762016" lon="34.81116998">
      <ele>1247.283</ele>
      <time>2021-10-12T12:00:26Z</time>
    </trkpt>
    <trkpt lat="38.630727986" lon="34.811162017">
      <ele>1246.864</ele>
      <time>2021-10-12T12:00:28Z</time>
    </trkpt>
    <trkpt lat="38.630694039" lon="34.81114802">
      <ele>1246.529</ele>
      <time>2021-10-12T12:00:29Z</time>
    </trkpt>
    <trkpt lat="38.630660009" lon="34.811122036">
      <ele>1246.362</ele>
      <time>2021-10-12T12:00:31Z</time>
    </trkpt>
    <trkpt lat="38.630630001" lon="34.811088005">
      <ele>1246.322</ele>
      <time>2021-10-12T12:00:32Z</time>
    </trkpt>
    <trkpt lat="38.630606029" lon="34.811051041">
      <ele>1246.376</ele>
      <time>2021-10-12T12:00:33Z</time>
    </trkpt>
    <trkpt lat="38.630588008" lon="34.811005024">
      <ele>1246.613</ele>
      <time>2021-10-12T12:00:35Z</time>
    </trkpt>
    <trkpt lat="38.630576022" lon="34.810961019">
      <ele>1246.916</ele>
      <time>2021-10-12T12:00:36Z</time>
    </trkpt>
    <trkpt lat="38.630571999" lon="34.810919026">
      <ele>1247.311</ele>
      <time>2021-10-12T12:00:38Z</time>
    </trkpt>
    <trkpt lat="38.630565964" lon="34.810884995">
      <ele>1247.592</ele>
      <time>2021-10-12T12:00:39Z</time>
    </trkpt>
    <trkpt lat="38.630554983" lon="34.810861023">
      <ele>1247.698</ele>
      <time>2021-10-12T12:00:39Z</time>
    </trkpt>
    <trkpt lat="38.63053604" lon="34.810852977">
      <ele>1247.708</ele>
      <time>2021-10-12T12:00:40Z</time>
    </trkpt>
    <trkpt lat="38.630517013" lon="34.810864041">
      <ele>1247.499</ele>
      <time>2021-10-12T12:00:41Z</time>
    </trkpt>
    <trkpt lat="38.630497986" lon="34.810880972">
      <ele>1247.207</ele>
      <time>2021-10-12T12:00:42Z</time>
    </trkpt>
    <trkpt lat="38.63047502" lon="34.810909973">
      <ele>1246.722</ele>
      <time>2021-10-12T12:00:43Z</time>
    </trkpt>
    <trkpt lat="38.630444007" lon="34.810953978">
      <ele>1245.947</ele>
      <time>2021-10-12T12:00:45Z</time>
    </trkpt>
    <trkpt lat="38.630421963" lon="34.810991026">
      <ele>1245.27</ele>
      <time>2021-10-12T12:00:46Z</time>
    </trkpt>
    <trkpt lat="38.630401008" lon="34.811024973">
      <ele>1244.606</ele>
      <time>2021-10-12T12:00:47Z</time>
    </trkpt>
    <trkpt lat="38.630345017" lon="34.811076019">
      <ele>1243.297</ele>
      <time>2021-10-12T12:00:50Z</time>
    </trkpt>
    <trkpt lat="38.63030998" lon="34.81109404">
      <ele>1242.641</ele>
      <time>2021-10-12T12:00:51Z</time>
    </trkpt>
    <trkpt lat="38.630274022" lon="34.81110896">
      <ele>1241.971</ele>
      <time>2021-10-12T12:00:53Z</time>
    </trkpt>
    <trkpt lat="38.63023798" lon="34.811123963">
      <ele>1241.013</ele>
      <time>2021-10-12T12:00:54Z</time>
    </trkpt>
    <trkpt lat="38.630205961" lon="34.811135028">
      <ele>1240.213</ele>
      <time>2021-10-12T12:00:55Z</time>
    </trkpt>
    <trkpt lat="38.63017302" lon="34.811137961">
      <ele>1239.571</ele>
      <time>2021-10-12T12:00:56Z</time>
    </trkpt>
    <trkpt lat="38.630141001" lon="34.811137039">
      <ele>1239.024</ele>
      <time>2021-10-12T12:00:58Z</time>
    </trkpt>
    <trkpt lat="38.630114011" lon="34.811137039">
      <ele>1238.547</ele>
      <time>2021-10-12T12:00:59Z</time>
    </trkpt>
    <trkpt lat="38.63008501" lon="34.811135028">
      <ele>1238.073</ele>
      <time>2021-10-12T12:01:00Z</time>
    </trkpt>
    <trkpt lat="38.630053997" lon="34.811131004">
      <ele>1237.6</ele>
      <time>2021-10-12T12:01:01Z</time>
    </trkpt>
    <trkpt lat="38.630022984" lon="34.811127987">
      <ele>1237.105</ele>
      <time>2021-10-12T12:01:02Z</time>
    </trkpt>
    <trkpt lat="38.629992977" lon="34.811126981">
      <ele>1236.667</ele>
      <time>2021-10-12T12:01:03Z</time>
    </trkpt>
    <trkpt lat="38.629960036" lon="34.811129998">
      <ele>1236.392</ele>
      <time>2021-10-12T12:01:04Z</time>
    </trkpt>
    <trkpt lat="38.629930029" lon="34.811133016">
      <ele>1236.142</ele>
      <time>2021-10-12T12:01:05Z</time>
    </trkpt>
    <trkpt lat="38.629897004" lon="34.811135028">
      <ele>1235.892</ele>
      <time>2021-10-12T12:01:07Z</time>
    </trkpt>
    <trkpt lat="38.629864985" lon="34.811134022">
      <ele>1235.696</ele>
      <time>2021-10-12T12:01:08Z</time>
    </trkpt>
    <trkpt lat="38.62983196" lon="34.811125975">
      <ele>1235.587</ele>
      <time>2021-10-12T12:01:09Z</time>
    </trkpt>
    <trkpt lat="38.62979902" lon="34.811112983">
      <ele>1235.529</ele>
      <time>2021-10-12T12:01:10Z</time>
    </trkpt>
    <trkpt lat="38.629770018" lon="34.811091023">
      <ele>1235.586</ele>
      <time>2021-10-12T12:01:12Z</time>
    </trkpt>
    <trkpt lat="38.629740011" lon="34.811065039">
      <ele>1235.647</ele>
      <time>2021-10-12T12:01:13Z</time>
    </trkpt>
    <trkpt lat="38.629710004" lon="34.811036037">
      <ele>1235.787</ele>
      <time>2021-10-12T12:01:14Z</time>
    </trkpt>
    <trkpt lat="38.629683014" lon="34.81100603">
      <ele>1236.028</ele>
      <time>2021-10-12T12:01:16Z</time>
    </trkpt>
    <trkpt lat="38.62965703" lon="34.810969988">
      <ele>1236.286</ele>
      <time>2021-10-12T12:01:17Z</time>
    </trkpt>
    <trkpt lat="38.629629035" lon="34.810927995">
      <ele>1236.535</ele>
      <time>2021-10-12T12:01:19Z</time>
    </trkpt>
    <trkpt lat="38.629597016" lon="34.810895976">
      <ele>1236.625</ele>
      <time>2021-10-12T12:01:20Z</time>
    </trkpt>
    <trkpt lat="38.629564997" lon="34.810872003">
      <ele>1236.608</ele>
      <time>2021-10-12T12:01:22Z</time>
    </trkpt>
    <trkpt lat="38.629528033" lon="34.810870998">
      <ele>1236.385</ele>
      <time>2021-10-12T12:01:23Z</time>
    </trkpt>
    <trkpt lat="38.629489979" lon="34.810878038">
      <ele>1236.114</ele>
      <time>2021-10-12T12:01:24Z</time>
    </trkpt>
    <trkpt lat="38.62944698" lon="34.810886001">
      <ele>1235.825</ele>
      <time>2021-10-12T12:01:26Z</time>
    </trkpt>
    <trkpt lat="38.629408004" lon="34.81089103">
      <ele>1235.896</ele>
      <time>2021-10-12T12:01:27Z</time>
    </trkpt>
    <trkpt lat="38.629370034" lon="34.810895976">
      <ele>1235.982</ele>
      <time>2021-10-12T12:01:29Z</time>
    </trkpt>
    <trkpt lat="38.629334997" lon="34.810902011">
      <ele>1236.049</ele>
      <time>2021-10-12T12:01:30Z</time>
    </trkpt>
    <trkpt lat="38.629299961" lon="34.81091802">
      <ele>1236.057</ele>
      <time>2021-10-12T12:01:31Z</time>
    </trkpt>
    <trkpt lat="38.629270038" lon="34.810938975">
      <ele>1236.009</ele>
      <time>2021-10-12T12:01:33Z</time>
    </trkpt>
    <trkpt lat="38.629241958" lon="34.810967976">
      <ele>1235.891</ele>
      <time>2021-10-12T12:01:34Z</time>
    </trkpt>
    <trkpt lat="38.629212035" lon="34.811002007">
      <ele>1235.721</ele>
      <time>2021-10-12T12:01:36Z</time>
    </trkpt>
    <trkpt lat="38.629175993" lon="34.811025979">
      <ele>1235.603</ele>
      <time>2021-10-12T12:01:37Z</time>
    </trkpt>
    <trkpt lat="38.629138023" lon="34.811039977">
      <ele>1235.666</ele>
      <time>2021-10-12T12:01:39Z</time>
    </trkpt>
    <trkpt lat="38.629106004" lon="34.811046012">
      <ele>1235.803</ele>
      <time>2021-10-12T12:01:40Z</time>
    </trkpt>
    <trkpt lat="38.629071973" lon="34.811048023">
      <ele>1235.981</ele>
      <time>2021-10-12T12:01:41Z</time>
    </trkpt>
    <trkpt lat="38.629037021" lon="34.811042994">
      <ele>1236.195</ele>
      <time>2021-10-12T12:01:42Z</time>
    </trkpt>
    <trkpt lat="38.629010031" lon="34.811034026">
      <ele>1236.37</ele>
      <time>2021-10-12T12:01:43Z</time>
    </trkpt>
    <trkpt lat="38.628982035" lon="34.811020028">
      <ele>1236.549</ele>
      <time>2021-10-12T12:01:44Z</time>
    </trkpt>
    <trkpt lat="38.628954962" lon="34.811003013">
      <ele>1236.709</ele>
      <time>2021-10-12T12:01:46Z</time>
    </trkpt>
    <trkpt lat="38.62893099" lon="34.810983986">
      <ele>1236.836</ele>
      <time>2021-10-12T12:01:47Z</time>
    </trkpt>
    <trkpt lat="38.628913974" lon="34.810963031">
      <ele>1236.916</ele>
      <time>2021-10-12T12:01:47Z</time>
    </trkpt>
    <trkpt lat="38.62889302" lon="34.810942998">
      <ele>1236.988</ele>
      <time>2021-10-12T12:01:48Z</time>
    </trkpt>
    <trkpt lat="38.628870975" lon="34.810921038">
      <ele>1237.238</ele>
      <time>2021-10-12T12:01:49Z</time>
    </trkpt>
    <trkpt lat="38.628849015" lon="34.810896982">
      <ele>1237.541</ele>
      <time>2021-10-12T12:01:51Z</time>
    </trkpt>
    <trkpt lat="38.628825964" lon="34.810874015">
      <ele>1237.873</ele>
      <time>2021-10-12T12:01:52Z</time>
    </trkpt>
    <trkpt lat="38.628806015" lon="34.810845014">
      <ele>1238.181</ele>
      <time>2021-10-12T12:01:53Z</time>
    </trkpt>
    <trkpt lat="38.628783971" lon="34.81081903">
      <ele>1238.42</ele>
      <time>2021-10-12T12:01:54Z</time>
    </trkpt>
    <trkpt lat="38.628764022" lon="34.810794974">
      <ele>1238.536</ele>
      <time>2021-10-12T12:01:55Z</time>
    </trkpt>
    <trkpt lat="38.628746001" lon="34.810767984">
      <ele>1238.58</ele>
      <time>2021-10-12T12:01:56Z</time>
    </trkpt>
    <trkpt lat="38.628724962" lon="34.810743006">
      <ele>1238.652</ele>
      <time>2021-10-12T12:01:57Z</time>
    </trkpt>
    <trkpt lat="38.628705014" lon="34.810718028">
      <ele>1238.683</ele>
      <time>2021-10-12T12:01:58Z</time>
    </trkpt>
    <trkpt lat="38.628682969" lon="34.810692966">
      <ele>1238.711</ele>
      <time>2021-10-12T12:01:59Z</time>
    </trkpt>
    <trkpt lat="38.628661009" lon="34.810675029">
      <ele>1238.777</ele>
      <time>2021-10-12T12:02:00Z</time>
    </trkpt>
    <trkpt lat="38.628637958" lon="34.810662037">
      <ele>1238.883</ele>
      <time>2021-10-12T12:02:01Z</time>
    </trkpt>
    <trkpt lat="38.628613986" lon="34.81064301">
      <ele>1238.917</ele>
      <time>2021-10-12T12:02:02Z</time>
    </trkpt>
    <trkpt lat="38.628593031" lon="34.810621971">
      <ele>1239.157</ele>
      <time>2021-10-12T12:02:03Z</time>
    </trkpt>
    <trkpt lat="38.628568975" lon="34.810597999">
      <ele>1239.497</ele>
      <time>2021-10-12T12:02:04Z</time>
    </trkpt>
    <trkpt lat="38.628550032" lon="34.810561035">
      <ele>1239.594</ele>
      <time>2021-10-12T12:02:05Z</time>
    </trkpt>
    <trkpt lat="38.628534023" lon="34.810522981">
      <ele>1239.76</ele>
      <time>2021-10-12T12:02:07Z</time>
    </trkpt>
    <trkpt lat="38.628523964" lon="34.810484005">
      <ele>1239.777</ele>
      <time>2021-10-12T12:02:08Z</time>
    </trkpt>
    <trkpt lat="38.628509967" lon="34.810451986">
      <ele>1239.904</ele>
      <time>2021-10-12T12:02:09Z</time>
    </trkpt>
    <trkpt lat="38.628500998" lon="34.81041301">
      <ele>1239.855</ele>
      <time>2021-10-12T12:02:10Z</time>
    </trkpt>
    <trkpt lat="38.628495969" lon="34.81037504">
      <ele>1239.713</ele>
      <time>2021-10-12T12:02:11Z</time>
    </trkpt>
    <trkpt lat="38.628490018" lon="34.810342016">
      <ele>1239.613</ele>
      <time>2021-10-12T12:02:12Z</time>
    </trkpt>
    <trkpt lat="38.628489012" lon="34.810309997">
      <ele>1239.416</ele>
      <time>2021-10-12T12:02:13Z</time>
    </trkpt>
    <trkpt lat="38.628487" lon="34.81027999">
      <ele>1239.249</ele>
      <time>2021-10-12T12:02:14Z</time>
    </trkpt>
    <trkpt lat="38.628480965" lon="34.81024202">
      <ele>1239.222</ele>
      <time>2021-10-12T12:02:15Z</time>
    </trkpt>
    <trkpt lat="38.628469985" lon="34.81021503">
      <ele>1239.311</ele>
      <time>2021-10-12T12:02:16Z</time>
    </trkpt>
    <trkpt lat="38.628453976" lon="34.810190974">
      <ele>1239.475</ele>
      <time>2021-10-12T12:02:17Z</time>
    </trkpt>
    <trkpt lat="38.628436038" lon="34.810165996">
      <ele>1239.644</ele>
      <time>2021-10-12T12:02:18Z</time>
    </trkpt>
    <trkpt lat="38.628418017" lon="34.810136994">
      <ele>1239.771</ele>
      <time>2021-10-12T12:02:19Z</time>
    </trkpt>
    <trkpt lat="38.62839899" lon="34.810104975">
      <ele>1239.868</ele>
      <time>2021-10-12T12:02:20Z</time>
    </trkpt>
    <trkpt lat="38.628381975" lon="34.810066">
      <ele>1239.867</ele>
      <time>2021-10-12T12:02:21Z</time>
    </trkpt>
    <trkpt lat="38.628358003" lon="34.810032975">
      <ele>1239.95</ele>
      <time>2021-10-12T12:02:23Z</time>
    </trkpt>
    <trkpt lat="38.628334031" lon="34.81000104">
      <ele>1240.0</ele>
      <time>2021-10-12T12:02:24Z</time>
    </trkpt>
    <trkpt lat="38.628308969" lon="34.809966004">
      <ele>1240.792</ele>
      <time>2021-10-12T12:02:25Z</time>
    </trkpt>
    <trkpt lat="38.628287008" lon="34.809929961">
      <ele>1241.46</ele>
      <time>2021-10-12T12:02:27Z</time>
    </trkpt>
    <trkpt lat="38.628264964" lon="34.809898026">
      <ele>1242.065</ele>
      <time>2021-10-12T12:02:28Z</time>
    </trkpt>
    <trkpt lat="38.628245015" lon="34.809860978">
      <ele>1242.567</ele>
      <time>2021-10-12T12:02:29Z</time>
    </trkpt>
    <trkpt lat="38.628227999" lon="34.80982502">
      <ele>1242.947</ele>
      <time>2021-10-12T12:02:31Z</time>
    </trkpt>
    <trkpt lat="38.628216013" lon="34.809784032">
      <ele>1243.171</ele>
      <time>2021-10-12T12:02:32Z</time>
    </trkpt>
    <trkpt lat="38.628209978" lon="34.809742039">
      <ele>1243.244</ele>
      <time>2021-10-12T12:02:33Z</time>
    </trkpt>
    <trkpt lat="38.628200004" lon="34.809701974">
      <ele>1243.479</ele>
      <time>2021-10-12T12:02:34Z</time>
    </trkpt>
    <trkpt lat="38.628192963" lon="34.80965998">
      <ele>1243.746</ele>
      <time>2021-10-12T12:02:36Z</time>
    </trkpt>
    <trkpt lat="38.628185" lon="34.809613042">
      <ele>1244.01</ele>
      <time>2021-10-12T12:02:37Z</time>
    </trkpt>
    <trkpt lat="38.628177037" lon="34.809570964">
      <ele>1244.221</ele>
      <time>2021-10-12T12:02:38Z</time>
    </trkpt>
    <trkpt lat="38.628171002" lon="34.809531989">
      <ele>1244.376</ele>
      <time>2021-10-12T12:02:39Z</time>
    </trkpt>
    <trkpt lat="38.628165973" lon="34.809492007">
      <ele>1244.501</ele>
      <time>2021-10-12T12:02:40Z</time>
    </trkpt>
    <trkpt lat="38.62816304" lon="34.809448002">
      <ele>1244.606</ele>
      <time>2021-10-12T12:02:42Z</time>
    </trkpt>
    <trkpt lat="38.628154993" lon="34.809406009">
      <ele>1244.919</ele>
      <time>2021-10-12T12:02:43Z</time>
    </trkpt>
    <trkpt lat="38.628149042" lon="34.809364015">
      <ele>1245.243</ele>
      <time>2021-10-12T12:02:44Z</time>
    </trkpt>
    <trkpt lat="38.628144013" lon="34.809325039">
      <ele>1245.541</ele>
      <time>2021-10-12T12:02:45Z</time>
    </trkpt>
    <trkpt lat="38.628137978" lon="34.809287991">
      <ele>1245.83</ele>
      <time>2021-10-12T12:02:47Z</time>
    </trkpt>
    <trkpt lat="38.628135966" lon="34.809255973">
      <ele>1246.068</ele>
      <time>2021-10-12T12:02:47Z</time>
    </trkpt>
    <trkpt lat="38.628134038" lon="34.809227977">
      <ele>1246.276</ele>
      <time>2021-10-12T12:02:48Z</time>
    </trkpt>
    <trkpt lat="38.628131021" lon="34.809196964">
      <ele>1246.51</ele>
      <time>2021-10-12T12:02:49Z</time>
    </trkpt>
    <trkpt lat="38.628122974" lon="34.809164023">
      <ele>1246.79</ele>
      <time>2021-10-12T12:02:50Z</time>
    </trkpt>
    <trkpt lat="38.628117023" lon="34.809134016">
      <ele>1247.183</ele>
      <time>2021-10-12T12:02:51Z</time>
    </trkpt>
    <trkpt lat="38.628109982" lon="34.809105014">
      <ele>1247.557</ele>
      <time>2021-10-12T12:02:52Z</time>
    </trkpt>
    <trkpt lat="38.628102019" lon="34.809080036">
      <ele>1247.873</ele>
      <time>2021-10-12T12:02:53Z</time>
    </trkpt>
    <trkpt lat="38.628091961" lon="34.809052963">
      <ele>1248.204</ele>
      <time>2021-10-12T12:02:54Z</time>
    </trkpt>
    <trkpt lat="38.628077963" lon="34.80903402">
      <ele>1248.429</ele>
      <time>2021-10-12T12:02:54Z</time>
    </trkpt>
    <trkpt lat="38.628064971" lon="34.809012981">
      <ele>1248.663</ele>
      <time>2021-10-12T12:02:55Z</time>
    </trkpt>
    <trkpt lat="38.628048962" lon="34.808997978">
      <ele>1248.793</ele>
      <time>2021-10-12T12:02:56Z</time>
    </trkpt>
    <trkpt lat="38.628021972" lon="34.808972999">
      <ele>1248.923</ele>
      <time>2021-10-12T12:02:57Z</time>
    </trkpt>
    <trkpt lat="38.627999006" lon="34.808945004">
      <ele>1249.069</ele>
      <time>2021-10-12T12:02:58Z</time>
    </trkpt>
    <trkpt lat="38.627980985" lon="34.808910973">
      <ele>1249.267</ele>
      <time>2021-10-12T12:02:59Z</time>
    </trkpt>
    <trkpt lat="38.62797101" lon="34.808875015">
      <ele>1249.661</ele>
      <time>2021-10-12T12:03:01Z</time>
    </trkpt>
    <trkpt lat="38.62797101" lon="34.808836961">
      <ele>1250.399</ele>
      <time>2021-10-12T12:03:02Z</time>
    </trkpt>
    <trkpt lat="38.627978973" lon="34.808811983">
      <ele>1250.957</ele>
      <time>2021-10-12T12:03:02Z</time>
    </trkpt>
    <trkpt lat="38.627990037" lon="34.808788011">
      <ele>1251.536</ele>
      <time>2021-10-12T12:03:03Z</time>
    </trkpt>
    <trkpt lat="38.628006969" lon="34.80876999">
      <ele>1252.069</ele>
      <time>2021-10-12T12:03:04Z</time>
    </trkpt>
    <trkpt lat="38.628027001" lon="34.808760015">
      <ele>1252.483</ele>
      <time>2021-10-12T12:03:05Z</time>
    </trkpt>
    <trkpt lat="38.628048962" lon="34.808759009">
      <ele>1252.736</ele>
      <time>2021-10-12T12:03:06Z</time>
    </trkpt>
    <trkpt lat="38.628072012" lon="34.808761021">
      <ele>1252.848</ele>
      <time>2021-10-12T12:03:07Z</time>
    </trkpt>
    <trkpt lat="38.628097996" lon="34.808770996">
      <ele>1252.764</ele>
      <time>2021-10-12T12:03:08Z</time>
    </trkpt>
    <trkpt lat="38.628120041" lon="34.808778958">
      <ele>1252.699</ele>
      <time>2021-10-12T12:03:08Z</time>
    </trkpt>
    <trkpt lat="38.628140995" lon="34.808789017">
      <ele>1252.575</ele>
      <time>2021-10-12T12:03:09Z</time>
    </trkpt>
    <trkpt lat="38.62816304" lon="34.808802009">
      <ele>1252.385</ele>
      <time>2021-10-12T12:03:10Z</time>
    </trkpt>
    <trkpt lat="38.628185" lon="34.808812989">
      <ele>1252.233</ele>
      <time>2021-10-12T12:03:11Z</time>
    </trkpt>
    <trkpt lat="38.628208973" lon="34.808825981">
      <ele>1252.036</ele>
      <time>2021-10-12T12:03:12Z</time>
    </trkpt>
    <trkpt lat="38.628232023" lon="34.808837967">
      <ele>1251.852</ele>
      <time>2021-10-12T12:03:13Z</time>
    </trkpt>
    <trkpt lat="38.628258007" lon="34.808850037">
      <ele>1251.67</ele>
      <time>2021-10-12T12:03:14Z</time>
    </trkpt>
    <trkpt lat="38.628282985" lon="34.808863029">
      <ele>1251.454</ele>
      <time>2021-10-12T12:03:15Z</time>
    </trkpt>
    <trkpt lat="38.62831098" lon="34.808870992">
      <ele>1251.365</ele>
      <time>2021-10-12T12:03:16Z</time>
    </trkpt>
    <trkpt lat="38.628338976" lon="34.80886898">
      <ele>1251.48</ele>
      <time>2021-10-12T12:03:17Z</time>
    </trkpt>
    <trkpt lat="38.628367977" lon="34.808862023">
      <ele>1251.54</ele>
      <time>2021-10-12T12:03:18Z</time>
    </trkpt>
    <trkpt lat="38.628394967" lon="34.808851965">
      <ele>1251.679</ele>
      <time>2021-10-12T12:03:19Z</time>
    </trkpt>
    <trkpt lat="38.628422963" lon="34.808836961">
      <ele>1251.926</ele>
      <time>2021-10-12T12:03:20Z</time>
    </trkpt>
    <trkpt lat="38.628446013" lon="34.808823969">
      <ele>1252.136</ele>
      <time>2021-10-12T12:03:21Z</time>
    </trkpt>
    <trkpt lat="38.628473002" lon="34.808809971">
      <ele>1252.343</ele>
      <time>2021-10-12T12:03:22Z</time>
    </trkpt>
    <trkpt lat="38.628502004" lon="34.808794968">
      <ele>1252.554</ele>
      <time>2021-10-12T12:03:23Z</time>
    </trkpt>
    <trkpt lat="38.628527988" lon="34.80878097">
      <ele>1252.747</ele>
      <time>2021-10-12T12:03:24Z</time>
    </trkpt>
    <trkpt lat="38.628556989" lon="34.808766972">
      <ele>1252.914</ele>
      <time>2021-10-12T12:03:26Z</time>
    </trkpt>
    <trkpt lat="38.628588002" lon="34.808755992">
      <ele>1252.994</ele>
      <time>2021-10-12T12:03:27Z</time>
    </trkpt>
    <trkpt lat="38.628623039" lon="34.808747023">
      <ele>1253.129</ele>
      <time>2021-10-12T12:03:28Z</time>
    </trkpt>
    <trkpt lat="38.628651034" lon="34.808750963">
      <ele>1253.194</ele>
      <time>2021-10-12T12:03:29Z</time>
    </trkpt>
    <trkpt lat="38.62867903" lon="34.808762027">
      <ele>1253.096</ele>
      <time>2021-10-12T12:03:30Z</time>
    </trkpt>
    <trkpt lat="38.628711971" lon="34.808785999">
      <ele>1252.72</ele>
      <time>2021-10-12T12:03:32Z</time>
    </trkpt>
    <trkpt lat="38.628739966" lon="34.808815001">
      <ele>1252.183</ele>
      <time>2021-10-12T12:03:33Z</time>
    </trkpt>
    <trkpt lat="38.628759999" lon="34.808839979">
      <ele>1251.687</ele>
      <time>2021-10-12T12:03:34Z</time>
    </trkpt>
    <trkpt lat="38.628776008" lon="34.80886898">
      <ele>1251.066</ele>
      <time>2021-10-12T12:03:35Z</time>
    </trkpt>
    <trkpt lat="38.628792018" lon="34.80889597">
      <ele>1250.498</ele>
      <time>2021-10-12T12:03:36Z</time>
    </trkpt>
    <trkpt lat="38.62880501" lon="34.808922959">
      <ele>1249.962</ele>
      <time>2021-10-12T12:03:37Z</time>
    </trkpt>
    <trkpt lat="38.628820013" lon="34.808947016">
      <ele>1249.497</ele>
      <time>2021-10-12T12:03:38Z</time>
    </trkpt>
    <trkpt lat="38.628831999" lon="34.808969982">
      <ele>1249.044</ele>
      <time>2021-10-12T12:03:39Z</time>
    </trkpt>
    <trkpt lat="38.628847003" lon="34.808991021">
      <ele>1248.643</ele>
      <time>2021-10-12T12:03:39Z</time>
    </trkpt>
    <trkpt lat="38.628879022" lon="34.808996972">
      <ele>1248.63</ele>
      <time>2021-10-12T12:03:41Z</time>
    </trkpt>
    <trkpt lat="38.628898971" lon="34.808988003">
      <ele>1249.004</ele>
      <time>2021-10-12T12:03:41Z</time>
    </trkpt>
    <trkpt lat="38.628917998" lon="34.808977023">
      <ele>1249.515</ele>
      <time>2021-10-12T12:03:42Z</time>
    </trkpt>
    <trkpt lat="38.628937025" lon="34.808961013">
      <ele>1250.135</ele>
      <time>2021-10-12T12:03:43Z</time>
    </trkpt>
    <trkpt lat="38.628954962" lon="34.808943998">
      <ele>1250.761</ele>
      <time>2021-10-12T12:03:44Z</time>
    </trkpt>
    <trkpt lat="38.62896896" lon="34.808922959">
      <ele>1251.417</ele>
      <time>2021-10-12T12:03:45Z</time>
    </trkpt>
    <trkpt lat="38.62898103" lon="34.808902005">
      <ele>1252.044</ele>
      <time>2021-10-12T12:03:45Z</time>
    </trkpt>
    <trkpt lat="38.628988992" lon="34.808877027">
      <ele>1252.74</ele>
      <time>2021-10-12T12:03:46Z</time>
    </trkpt>
    <trkpt lat="38.628995027" lon="34.808845008">
      <ele>1253.634</ele>
      <time>2021-10-12T12:03:47Z</time>
    </trkpt>
    <trkpt lat="38.628995027" lon="34.808810977">
      <ele>1254.492</ele>
      <time>2021-10-12T12:03:48Z</time>
    </trkpt>
    <trkpt lat="38.62899201" lon="34.808781976">
      <ele>1255.179</ele>
      <time>2021-10-12T12:03:49Z</time>
    </trkpt>
    <trkpt lat="38.628987987" lon="34.808752974">
      <ele>1255.852</ele>
      <time>2021-10-12T12:03:50Z</time>
    </trkpt>
    <trkpt lat="38.628983963" lon="34.808719028">
      <ele>1256.65</ele>
      <time>2021-10-12T12:03:51Z</time>
    </trkpt>
    <trkpt lat="38.62898103" lon="34.808688015">
      <ele>1257.389</ele>
      <time>2021-10-12T12:03:52Z</time>
    </trkpt>
    <trkpt lat="38.628974995" lon="34.808651973">
      <ele>1258.21</ele>
      <time>2021-10-12T12:03:53Z</time>
    </trkpt>
    <trkpt lat="38.628971977" lon="34.808620038">
      <ele>1258.972</ele>
      <time>2021-10-12T12:03:54Z</time>
    </trkpt>
    <trkpt lat="38.628969966" lon="34.808589024">
      <ele>1259.621</ele>
      <time>2021-10-12T12:03:55Z</time>
    </trkpt>
    <trkpt lat="38.628967032" lon="34.808561029">
      <ele>1260.156</ele>
      <time>2021-10-12T12:03:56Z</time>
    </trkpt>
    <trkpt lat="38.628966026" lon="34.808531022">
      <ele>1260.761</ele>
      <time>2021-10-12T12:03:56Z</time>
    </trkpt>
    <trkpt lat="38.628966026" lon="34.808499003">
      <ele>1261.42</ele>
      <time>2021-10-12T12:03:57Z</time>
    </trkpt>
    <trkpt lat="38.628969966" lon="34.808466984">
      <ele>1262.129</ele>
      <time>2021-10-12T12:03:58Z</time>
    </trkpt>
    <trkpt lat="38.628978012" lon="34.808437983">
      <ele>1262.823</ele>
      <time>2021-10-12T12:03:59Z</time>
    </trkpt>
    <trkpt lat="38.628986981" lon="34.80841401">
      <ele>1263.419</ele>
      <time>2021-10-12T12:04:00Z</time>
    </trkpt>
    <trkpt lat="38.628998967" lon="34.808392972">
      <ele>1263.986</ele>
      <time>2021-10-12T12:04:01Z</time>
    </trkpt>
    <trkpt lat="38.629011037" lon="34.808372017">
      <ele>1264.545</ele>
      <time>2021-10-12T12:04:01Z</time>
    </trkpt>
    <trkpt lat="38.629022017" lon="34.808353996">
      <ele>1265.027</ele>
      <time>2021-10-12T12:04:02Z</time>
    </trkpt>
    <trkpt lat="38.629044984" lon="34.808320971">
      <ele>1265.992</ele>
      <time>2021-10-12T12:04:03Z</time>
    </trkpt>
    <trkpt lat="38.629069962" lon="34.80828803">
      <ele>1267.048</ele>
      <time>2021-10-12T12:04:05Z</time>
    </trkpt>
    <trkpt lat="38.629081026" lon="34.808269003">
      <ele>1267.607</ele>
      <time>2021-10-12T12:04:05Z</time>
    </trkpt>
    <trkpt lat="38.629098041" lon="34.808242014">
      <ele>1268.394</ele>
      <time>2021-10-12T12:04:06Z</time>
    </trkpt>
    <trkpt lat="38.629114972" lon="34.808209995">
      <ele>1269.271</ele>
      <time>2021-10-12T12:04:08Z</time>
    </trkpt>
    <trkpt lat="38.629133999" lon="34.808180993">
      <ele>1270.067</ele>
      <time>2021-10-12T12:04:09Z</time>
    </trkpt>
    <trkpt lat="38.629159983" lon="34.808151992">
      <ele>1270.876</ele>
      <time>2021-10-12T12:04:10Z</time>
    </trkpt>
    <trkpt lat="38.629187979" lon="34.808132965">
      <ele>1271.767</ele>
      <time>2021-10-12T12:04:11Z</time>
    </trkpt>
    <trkpt lat="38.629204994" lon="34.808123996">
      <ele>1272.316</ele>
      <time>2021-10-12T12:04:12Z</time>
    </trkpt>
    <trkpt lat="38.629217986" lon="34.808106981">
      <ele>1272.964</ele>
      <time>2021-10-12T12:04:12Z</time>
    </trkpt>
    <trkpt lat="38.629229972" lon="34.80808896">
      <ele>1273.618</ele>
      <time>2021-10-12T12:04:13Z</time>
    </trkpt>
    <trkpt lat="38.629245982" lon="34.808075968">
      <ele>1274.251</ele>
      <time>2021-10-12T12:04:14Z</time>
    </trkpt>
    <trkpt lat="38.629258974" lon="34.808058031">
      <ele>1274.937</ele>
      <time>2021-10-12T12:04:15Z</time>
    </trkpt>
    <trkpt lat="38.629281018" lon="34.808028024">
      <ele>1276.56</ele>
      <time>2021-10-12T12:04:16Z</time>
    </trkpt>
    <trkpt lat="38.629295016" lon="34.808014026">
      <ele>1277.417</ele>
      <time>2021-10-12T12:04:16Z</time>
    </trkpt>
    <trkpt lat="38.629308008" lon="34.807997011">
      <ele>1278.371</ele>
      <time>2021-10-12T12:04:17Z</time>
    </trkpt>
    <trkpt lat="38.62932804" lon="34.807985025">
      <ele>1279.279</ele>
      <time>2021-10-12T12:04:18Z</time>
    </trkpt>
    <trkpt lat="38.629346984" lon="34.807975972">
      <ele>1280.046</ele>
      <time>2021-10-12T12:04:19Z</time>
    </trkpt>
    <trkpt lat="38.629368022" lon="34.807968009">
      <ele>1280.816</ele>
      <time>2021-10-12T12:04:19Z</time>
    </trkpt>
    <trkpt lat="38.629388977" lon="34.807957029">
      <ele>1281.704</ele>
      <time>2021-10-12T12:04:20Z</time>
    </trkpt>
    <trkpt lat="38.629413033" lon="34.807949988">
      <ele>1282.502</ele>
      <time>2021-10-12T12:04:21Z</time>
    </trkpt>
    <trkpt lat="38.629431976" lon="34.807945965">
      <ele>1283.07</ele>
      <time>2021-10-12T12:04:22Z</time>
    </trkpt>
    <trkpt lat="38.62945796" lon="34.807945965">
      <ele>1283.739</ele>
      <time>2021-10-12T12:04:23Z</time>
    </trkpt>
    <trkpt lat="38.629478998" lon="34.807944959">
      <ele>1284.4</ele>
      <time>2021-10-12T12:04:24Z</time>
    </trkpt>
    <trkpt lat="38.629504982" lon="34.807950994">
      <ele>1284.938</ele>
      <time>2021-10-12T12:04:25Z</time>
    </trkpt>
    <trkpt lat="38.629527027" lon="34.807960968">
      <ele>1285.219</ele>
      <time>2021-10-12T12:04:26Z</time>
    </trkpt>
    <trkpt lat="38.629547982" lon="34.807970021">
      <ele>1285.512</ele>
      <time>2021-10-12T12:04:26Z</time>
    </trkpt>
    <trkpt lat="38.629560973" lon="34.80798603">
      <ele>1285.319</ele>
      <time>2021-10-12T12:04:27Z</time>
    </trkpt>
    <trkpt lat="38.629575977" lon="34.807999022">
      <ele>1285.308</ele>
      <time>2021-10-12T12:04:28Z</time>
    </trkpt>
    <trkpt lat="38.629604978" lon="34.808031041">
      <ele>1285.07</ele>
      <time>2021-10-12T12:04:29Z</time>
    </trkpt>
    <trkpt lat="38.629620988" lon="34.808045961">
      <ele>1285.056</ele>
      <time>2021-10-12T12:04:30Z</time>
    </trkpt>
    <trkpt lat="38.629642026" lon="34.808063982">
      <ele>1285.146</ele>
      <time>2021-10-12T12:04:31Z</time>
    </trkpt>
    <trkpt lat="38.629658036" lon="34.808078986">
      <ele>1285.2</ele>
      <time>2021-10-12T12:04:31Z</time>
    </trkpt>
    <trkpt lat="38.629673962" lon="34.808092983">
      <ele>1285.271</ele>
      <time>2021-10-12T12:04:32Z</time>
    </trkpt>
    <trkpt lat="38.629687959" lon="34.808111005">
      <ele>1285.143</ele>
      <time>2021-10-12T12:04:33Z</time>
    </trkpt>
    <trkpt lat="38.629702041" lon="34.808126008">
      <ele>1285.1</ele>
      <time>2021-10-12T12:04:34Z</time>
    </trkpt>
    <trkpt lat="38.629715033" lon="34.808145035">
      <ele>1284.885</ele>
      <time>2021-10-12T12:04:34Z</time>
    </trkpt>
    <trkpt lat="38.629739005" lon="34.808173031">
      <ele>1284.763</ele>
      <time>2021-10-12T12:04:36Z</time>
    </trkpt>
    <trkpt lat="38.629761972" lon="34.808199015">
      <ele>1284.714</ele>
      <time>2021-10-12T12:04:37Z</time>
    </trkpt>
    <trkpt lat="38.629779993" lon="34.808212006">
      <ele>1284.92</ele>
      <time>2021-10-12T12:04:37Z</time>
    </trkpt>
    <trkpt lat="38.629805977" lon="34.808204966">
      <ele>1286.035</ele>
      <time>2021-10-12T12:04:38Z</time>
    </trkpt>
    <trkpt lat="38.62982098" lon="34.808177976">
      <ele>1287.39</ele>
      <time>2021-10-12T12:04:39Z</time>
    </trkpt>
    <trkpt lat="38.629817963" lon="34.808154004">
      <ele>1288.034</ele>
      <time>2021-10-12T12:04:40Z</time>
    </trkpt>
    <trkpt lat="38.629828021" lon="34.808131037">
      <ele>1289.086</ele>
      <time>2021-10-12T12:04:41Z</time>
    </trkpt>
    <trkpt lat="38.629840007" lon="34.808084015">
      <ele>1290.938</ele>
      <time>2021-10-12T12:04:42Z</time>
    </trkpt>
    <trkpt lat="38.62984403" lon="34.808027018">
      <ele>1292.781</ele>
      <time>2021-10-12T12:04:44Z</time>
    </trkpt>
    <trkpt lat="38.629839001" lon="34.807996005">
      <ele>1293.533</ele>
      <time>2021-10-12T12:04:45Z</time>
    </trkpt>
    <trkpt lat="38.629833972" lon="34.807960968">
      <ele>1294.411</ele>
      <time>2021-10-12T12:04:46Z</time>
    </trkpt>
    <trkpt lat="38.629830033" lon="34.807938002">
      <ele>1294.973</ele>
      <time>2021-10-12T12:04:47Z</time>
    </trkpt>
    <trkpt lat="38.629823998" lon="34.807911012">
      <ele>1295.599</ele>
      <time>2021-10-12T12:04:47Z</time>
    </trkpt>
    <trkpt lat="38.62982098" lon="34.80788704">
      <ele>1296.228</ele>
      <time>2021-10-12T12:04:48Z</time>
    </trkpt>
    <trkpt lat="38.629805977" lon="34.807789978">
      <ele>1298.742</ele>
      <time>2021-10-12T12:04:51Z</time>
    </trkpt>
    <trkpt lat="38.629771024" lon="34.807682019">
      <ele>1300.927</ele>
      <time>2021-10-12T12:04:54Z</time>
    </trkpt>
    <trkpt lat="38.629747974" lon="34.807620998">
      <ele>1302.112</ele>
      <time>2021-10-12T12:04:56Z</time>
    </trkpt>
    <trkpt lat="38.629744034" lon="34.807579005">
      <ele>1303.218</ele>
      <time>2021-10-12T12:04:58Z</time>
    </trkpt>
    <trkpt lat="38.629734982" lon="34.807540029">
      <ele>1304.129</ele>
      <time>2021-10-12T12:04:59Z</time>
    </trkpt>
    <trkpt lat="38.629718972" lon="34.80750097">
      <ele>1304.902</ele>
      <time>2021-10-12T12:05:00Z</time>
    </trkpt>
    <trkpt lat="38.629706986" lon="34.807484038">
      <ele>1305.127</ele>
      <time>2021-10-12T12:05:01Z</time>
    </trkpt>
    <trkpt lat="38.629681002" lon="34.80745797">
      <ele>1305.298</ele>
      <time>2021-10-12T12:05:02Z</time>
    </trkpt>
    <trkpt lat="38.629665999" lon="34.807444979">
      <ele>1305.33</ele>
      <time>2021-10-12T12:05:03Z</time>
    </trkpt>
    <trkpt lat="38.629648983" lon="34.807430981">
      <ele>1305.34</ele>
      <time>2021-10-12T12:05:03Z</time>
    </trkpt>
    <trkpt lat="38.62963004" lon="34.807423018">
      <ele>1305.134</ele>
      <time>2021-10-12T12:05:04Z</time>
    </trkpt>
    <trkpt lat="38.629602967" lon="34.807422012">
      <ele>1304.55</ele>
      <time>2021-10-12T12:05:05Z</time>
    </trkpt>
    <trkpt lat="38.629570026" lon="34.807422012">
      <ele>1303.805</ele>
      <time>2021-10-12T12:05:06Z</time>
    </trkpt>
    <trkpt lat="38.629535995" lon="34.807426035">
      <ele>1302.929</ele>
      <time>2021-10-12T12:05:08Z</time>
    </trkpt>
    <trkpt lat="38.62949702" lon="34.807426035">
      <ele>1302.05</ele>
      <time>2021-10-12T12:05:09Z</time>
    </trkpt>
    <trkpt lat="38.629459972" lon="34.807412038">
      <ele>1301.57</ele>
      <time>2021-10-12T12:05:10Z</time>
    </trkpt>
    <trkpt lat="38.629424013" lon="34.807397034">
      <ele>1301.254</ele>
      <time>2021-10-12T12:05:12Z</time>
    </trkpt>
    <trkpt lat="38.629395012" lon="34.807373984">
      <ele>1301.367</ele>
      <time>2021-10-12T12:05:13Z</time>
    </trkpt>
    <trkpt lat="38.629372967" lon="34.807349006">
      <ele>1301.658</ele>
      <time>2021-10-12T12:05:14Z</time>
    </trkpt>
    <trkpt lat="38.629356036" lon="34.807317993">
      <ele>1302.204</ele>
      <time>2021-10-12T12:05:15Z</time>
    </trkpt>
    <trkpt lat="38.629341032" lon="34.80729402">
      <ele>1302.605</ele>
      <time>2021-10-12T12:05:16Z</time>
    </trkpt>
    <trkpt lat="38.629327035" lon="34.807273988">
      <ele>1302.926</ele>
      <time>2021-10-12T12:05:17Z</time>
    </trkpt>
    <trkpt lat="38.629316976" lon="34.80724901">
      <ele>1303.445</ele>
      <time>2021-10-12T12:05:18Z</time>
    </trkpt>
    <trkpt lat="38.629302979" lon="34.807230989">
      <ele>1303.726</ele>
      <time>2021-10-12T12:05:19Z</time>
    </trkpt>
    <trkpt lat="38.629287975" lon="34.80721104">
      <ele>1304.064</ele>
      <time>2021-10-12T12:05:19Z</time>
    </trkpt>
    <trkpt lat="38.629270038" lon="34.807193018">
      <ele>1304.303</ele>
      <time>2021-10-12T12:05:20Z</time>
    </trkpt>
    <trkpt lat="38.629253022" lon="34.807173992">
      <ele>1304.567</ele>
      <time>2021-10-12T12:05:21Z</time>
    </trkpt>
    <trkpt lat="38.629237013" lon="34.807161">
      <ele>1304.667</ele>
      <time>2021-10-12T12:05:22Z</time>
    </trkpt>
    <trkpt lat="38.629219998" lon="34.807142979">
      <ele>1304.874</ele>
      <time>2021-10-12T12:05:23Z</time>
    </trkpt>
    <trkpt lat="38.629200971" lon="34.80712303">
      <ele>1305.082</ele>
      <time>2021-10-12T12:05:23Z</time>
    </trkpt>
    <trkpt lat="38.629182028" lon="34.807098974">
      <ele>1305.376</ele>
      <time>2021-10-12T12:05:24Z</time>
    </trkpt>
    <trkpt lat="38.629163001" lon="34.807077013">
      <ele>1305.626</ele>
      <time>2021-10-12T12:05:25Z</time>
    </trkpt>
    <trkpt lat="38.629145985" lon="34.80705698">
      <ele>1305.971</ele>
      <time>2021-10-12T12:05:26Z</time>
    </trkpt>
    <trkpt lat="38.62912897" lon="34.80703502">
      <ele>1306.355</ele>
      <time>2021-10-12T12:05:27Z</time>
    </trkpt>
    <trkpt lat="38.629112039" lon="34.807011969">
      <ele>1306.756</ele>
      <time>2021-10-12T12:05:28Z</time>
    </trkpt>
    <trkpt lat="38.629093012" lon="34.80699202">
      <ele>1307.051</ele>
      <time>2021-10-12T12:05:29Z</time>
    </trkpt>
    <trkpt lat="38.629075997" lon="34.806973999">
      <ele>1307.311</ele>
      <time>2021-10-12T12:05:30Z</time>
    </trkpt>
    <trkpt lat="38.629057975" lon="34.806954972">
      <ele>1307.576</ele>
      <time>2021-10-12T12:05:31Z</time>
    </trkpt>
    <trkpt lat="38.629040038" lon="34.806936029">
      <ele>1307.787</ele>
      <time>2021-10-12T12:05:31Z</time>
    </trkpt>
    <trkpt lat="38.629020005" lon="34.806917002">
      <ele>1307.904</ele>
      <time>2021-10-12T12:05:32Z</time>
    </trkpt>
    <trkpt lat="38.628998967" lon="34.806899987">
      <ele>1307.956</ele>
      <time>2021-10-12T12:05:33Z</time>
    </trkpt>
    <trkpt lat="38.628984969" lon="34.806876015">
      <ele>1308.193</ele>
      <time>2021-10-12T12:05:34Z</time>
    </trkpt>
    <trkpt lat="38.628972983" lon="34.806855982">
      <ele>1308.375</ele>
      <time>2021-10-12T12:05:35Z</time>
    </trkpt>
    <trkpt lat="38.628958985" lon="34.806837961">
      <ele>1308.484</ele>
      <time>2021-10-12T12:05:36Z</time>
    </trkpt>
    <trkpt lat="38.628946999" lon="34.806820024">
      <ele>1308.607</ele>
      <time>2021-10-12T12:05:36Z</time>
    </trkpt>
    <trkpt lat="38.628924033" lon="34.806790017">
      <ele>1308.744</ele>
      <time>2021-10-12T12:05:38Z</time>
    </trkpt>
    <trkpt lat="38.628908023" lon="34.80675498">
      <ele>1309.029</ele>
      <time>2021-10-12T12:05:39Z</time>
    </trkpt>
    <trkpt lat="38.628895031" lon="34.806721034">
      <ele>1309.319</ele>
      <time>2021-10-12T12:05:40Z</time>
    </trkpt>
    <trkpt lat="38.628886985" lon="34.80668298">
      <ele>1309.745</ele>
      <time>2021-10-12T12:05:41Z</time>
    </trkpt>
    <trkpt lat="38.628897965" lon="34.806636041">
      <ele>1310.505</ele>
      <time>2021-10-12T12:05:42Z</time>
    </trkpt>
    <trkpt lat="38.628924033" lon="34.806625983">
      <ele>1311.128</ele>
      <time>2021-10-12T12:05:43Z</time>
    </trkpt>
    <trkpt lat="38.628939958" lon="34.806644004">
      <ele>1311.209</ele>
      <time>2021-10-12T12:05:44Z</time>
    </trkpt>
    <trkpt lat="38.628971977" lon="34.806675017">
      <ele>1311.357</ele>
      <time>2021-10-12T12:05:46Z</time>
    </trkpt>
    <trkpt lat="38.628994022" lon="34.806695972">
      <ele>1311.391</ele>
      <time>2021-10-12T12:05:47Z</time>
    </trkpt>
    <trkpt lat="38.62901397" lon="34.806713993">
      <ele>1311.417</ele>
      <time>2021-10-12T12:05:48Z</time>
    </trkpt>
    <trkpt lat="38.62904096" lon="34.806735031">
      <ele>1311.483</ele>
      <time>2021-10-12T12:05:49Z</time>
    </trkpt>
    <trkpt lat="38.629071973" lon="34.806756992">
      <ele>1311.566</ele>
      <time>2021-10-12T12:05:50Z</time>
    </trkpt>
    <trkpt lat="38.62910198" lon="34.806780964">
      <ele>1311.558</ele>
      <time>2021-10-12T12:05:51Z</time>
    </trkpt>
    <trkpt lat="38.629131988" lon="34.80680502">
      <ele>1311.512</ele>
      <time>2021-10-12T12:05:53Z</time>
    </trkpt>
    <trkpt lat="38.629163001" lon="34.80683201">
      <ele>1311.378</ele>
      <time>2021-10-12T12:05:54Z</time>
    </trkpt>
    <trkpt lat="38.629192002" lon="34.806852965">
      <ele>1311.583</ele>
      <time>2021-10-12T12:05:55Z</time>
    </trkpt>
    <trkpt lat="38.629218992" lon="34.806874003">
      <ele>1311.747</ele>
      <time>2021-10-12T12:05:57Z</time>
    </trkpt>
    <trkpt lat="38.629247993" lon="34.806894036">
      <ele>1311.952</ele>
      <time>2021-10-12T12:05:58Z</time>
    </trkpt>
    <trkpt lat="38.629278" lon="34.806911973">
      <ele>1312.2</ele>
      <time>2021-10-12T12:05:59Z</time>
    </trkpt>
    <trkpt lat="38.629305996" lon="34.806928989">
      <ele>1312.399</ele>
      <time>2021-10-12T12:06:00Z</time>
    </trkpt>
    <trkpt lat="38.629333992" lon="34.806949021">
      <ele>1312.479</ele>
      <time>2021-10-12T12:06:01Z</time>
    </trkpt>
    <trkpt lat="38.629363999" lon="34.806961007">
      <ele>1312.76</ele>
      <time>2021-10-12T12:06:02Z</time>
    </trkpt>
    <trkpt lat="38.629388977" lon="34.806979029">
      <ele>1312.731</ele>
      <time>2021-10-12T12:06:04Z</time>
    </trkpt>
    <trkpt lat="38.629414039" lon="34.807005012">
      <ele>1312.429</ele>
      <time>2021-10-12T12:06:05Z</time>
    </trkpt>
    <trkpt lat="38.629439017" lon="34.807022028">
      <ele>1312.38</ele>
      <time>2021-10-12T12:06:06Z</time>
    </trkpt>
    <trkpt lat="38.629459972" lon="34.807039965">
      <ele>1312.223</ele>
      <time>2021-10-12T12:06:07Z</time>
    </trkpt>
    <trkpt lat="38.629482016" lon="34.807062009">
      <ele>1311.982</ele>
      <time>2021-10-12T12:06:08Z</time>
    </trkpt>
    <trkpt lat="38.629504982" lon="34.807082964">
      <ele>1311.819</ele>
      <time>2021-10-12T12:06:09Z</time>
    </trkpt>
    <trkpt lat="38.62952996" lon="34.807102997">
      <ele>1311.754</ele>
      <time>2021-10-12T12:06:10Z</time>
    </trkpt>
    <trkpt lat="38.629549993" lon="34.807118">
      <ele>1311.751</ele>
      <time>2021-10-12T12:06:11Z</time>
    </trkpt>
    <trkpt lat="38.629572038" lon="34.807130992">
      <ele>1311.869</ele>
      <time>2021-10-12T12:06:12Z</time>
    </trkpt>
    <trkpt lat="38.629598022" lon="34.807149014">
      <ele>1311.951</ele>
      <time>2021-10-12T12:06:13Z</time>
    </trkpt>
    <trkpt lat="38.629616965" lon="34.807167035">
      <ele>1311.889</ele>
      <time>2021-10-12T12:06:14Z</time>
    </trkpt>
    <trkpt lat="38.62963398" lon="34.807184972">
      <ele>1311.8</ele>
      <time>2021-10-12T12:06:14Z</time>
    </trkpt>
    <trkpt lat="38.629654013" lon="34.807202993">
      <ele>1311.8</ele>
      <time>2021-10-12T12:06:15Z</time>
    </trkpt>
    <trkpt lat="38.62967304" lon="34.807217997">
      <ele>1311.872</ele>
      <time>2021-10-12T12:06:16Z</time>
    </trkpt>
    <trkpt lat="38.629701035" lon="34.807233">
      <ele>1312.159</ele>
      <time>2021-10-12T12:06:17Z</time>
    </trkpt>
    <trkpt lat="38.629724002" lon="34.807244986">
      <ele>1312.377</ele>
      <time>2021-10-12T12:06:18Z</time>
    </trkpt>
    <trkpt lat="38.629807988" lon="34.807268037">
      <ele>1313.275</ele>
      <time>2021-10-12T12:06:21Z</time>
    </trkpt>
    <trkpt lat="38.629877977" lon="34.807318999">
      <ele>1313.212</ele>
      <time>2021-10-12T12:06:24Z</time>
    </trkpt>
    <trkpt lat="38.62989801" lon="34.807334002">
      <ele>1313.2</ele>
      <time>2021-10-12T12:06:25Z</time>
    </trkpt>
    <trkpt lat="38.629951989" lon="34.807357974">
      <ele>1313.63</ele>
      <time>2021-10-12T12:06:27Z</time>
    </trkpt>
    <trkpt lat="38.629975962" lon="34.807372978">
      <ele>1313.721</ele>
      <time>2021-10-12T12:06:28Z</time>
    </trkpt>
    <trkpt lat="38.629993983" lon="34.807380019">
      <ele>1313.903</ele>
      <time>2021-10-12T12:06:29Z</time>
    </trkpt>
    <trkpt lat="38.630018039" lon="34.807360992">
      <ele>1314.698</ele>
      <time>2021-10-12T12:06:30Z</time>
    </trkpt>
    <trkpt lat="38.63001301" lon="34.807313969">
      <ele>1315.828</ele>
      <time>2021-10-12T12:06:31Z</time>
    </trkpt>
    <trkpt lat="38.630001023" lon="34.80728698">
      <ele>1316.379</ele>
      <time>2021-10-12T12:06:32Z</time>
    </trkpt>
    <trkpt lat="38.62998602" lon="34.80725999">
      <ele>1316.79</ele>
      <time>2021-10-12T12:06:33Z</time>
    </trkpt>
    <trkpt lat="38.62997001" lon="34.807230989">
      <ele>1317.236</ele>
      <time>2021-10-12T12:06:34Z</time>
    </trkpt>
    <trkpt lat="38.629956013" lon="34.80719897">
      <ele>1317.865</ele>
      <time>2021-10-12T12:06:35Z</time>
    </trkpt>
    <trkpt lat="38.629941009" lon="34.80716804">
      <ele>1318.457</ele>
      <time>2021-10-12T12:06:36Z</time>
    </trkpt>
    <trkpt lat="38.629922988" lon="34.807139039">
      <ele>1318.926</ele>
      <time>2021-10-12T12:06:38Z</time>
    </trkpt>
    <trkpt lat="38.629906978" lon="34.80710702">
      <ele>1319.505</ele>
      <time>2021-10-12T12:06:39Z</time>
    </trkpt>
    <trkpt lat="38.629892981" lon="34.80708003">
      <ele>1319.972</ele>
      <time>2021-10-12T12:06:40Z</time>
    </trkpt>
    <trkpt lat="38.629878983" lon="34.80705698">
      <ele>1320.321</ele>
      <time>2021-10-12T12:06:40Z</time>
    </trkpt>
    <trkpt lat="38.629863979" lon="34.807026973">
      <ele>1320.831</ele>
      <time>2021-10-12T12:06:41Z</time>
    </trkpt>
    <trkpt lat="38.629843025" lon="34.807007024">
      <ele>1320.934</ele>
      <time>2021-10-12T12:06:42Z</time>
    </trkpt>
    <trkpt lat="38.629821986" lon="34.80698498">
      <ele>1321.081</ele>
      <time>2021-10-12T12:06:43Z</time>
    </trkpt>
    <trkpt lat="38.62979902" lon="34.806967964">
      <ele>1321.043</ele>
      <time>2021-10-12T12:06:44Z</time>
    </trkpt>
    <trkpt lat="38.629778987" lon="34.806942986">
      <ele>1321.27</ele>
      <time>2021-10-12T12:06:45Z</time>
    </trkpt>
    <trkpt lat="38.62975996" lon="34.806915997">
      <ele>1321.695</ele>
      <time>2021-10-12T12:06:47Z</time>
    </trkpt>
    <trkpt lat="38.629744034" lon="34.806885989">
      <ele>1322.316</ele>
      <time>2021-10-12T12:06:48Z</time>
    </trkpt>
    <trkpt lat="38.629729031" lon="34.806859">
      <ele>1322.893</ele>
      <time>2021-10-12T12:06:49Z</time>
    </trkpt>
    <trkpt lat="38.629713021" lon="34.806827987">
      <ele>1323.594</ele>
      <time>2021-10-12T12:06:50Z</time>
    </trkpt>
    <trkpt lat="38.629696006" lon="34.806803009">
      <ele>1324.063</ele>
      <time>2021-10-12T12:06:51Z</time>
    </trkpt>
    <trkpt lat="38.629678991" lon="34.806780964">
      <ele>1324.427</ele>
      <time>2021-10-12T12:06:51Z</time>
    </trkpt>
    <trkpt lat="38.629663987" lon="34.806762021">
      <ele>1324.725</ele>
      <time>2021-10-12T12:06:52Z</time>
    </trkpt>
    <trkpt lat="38.629647978" lon="34.806742994">
      <ele>1324.997</ele>
      <time>2021-10-12T12:06:53Z</time>
    </trkpt>
    <trkpt lat="38.629630962" lon="34.806721034">
      <ele>1325.332</ele>
      <time>2021-10-12T12:06:54Z</time>
    </trkpt>
    <trkpt lat="38.62961797" lon="34.806702007">
      <ele>1325.651</ele>
      <time>2021-10-12T12:06:55Z</time>
    </trkpt>
    <trkpt lat="38.629603973" lon="34.806685997">
      <ele>1325.849</ele>
      <time>2021-10-12T12:06:55Z</time>
    </trkpt>
    <trkpt lat="38.62957296" lon="34.806658002">
      <ele>1325.965</ele>
      <time>2021-10-12T12:06:57Z</time>
    </trkpt>
    <trkpt lat="38.629538007" lon="34.806615002">
      <ele>1326.198</ele>
      <time>2021-10-12T12:06:59Z</time>
    </trkpt>
    <trkpt lat="38.629528033" lon="34.806593042">
      <ele>1326.501</ele>
      <time>2021-10-12T12:06:59Z</time>
    </trkpt>
    <trkpt lat="38.62951898" lon="34.806568986">
      <ele>1326.883</ele>
      <time>2021-10-12T12:07:00Z</time>
    </trkpt>
    <trkpt lat="38.629509006" lon="34.806548031">
      <ele>1327.186</ele>
      <time>2021-10-12T12:07:01Z</time>
    </trkpt>
    <trkpt lat="38.629500037" lon="34.806521963">
      <ele>1327.639</ele>
      <time>2021-10-12T12:07:02Z</time>
    </trkpt>
    <trkpt lat="38.62949199" lon="34.806482987">
      <ele>1328.429</ele>
      <time>2021-10-12T12:07:03Z</time>
    </trkpt>
    <trkpt lat="38.629485033" lon="34.806457004">
      <ele>1328.94</ele>
      <time>2021-10-12T12:07:04Z</time>
    </trkpt>
    <trkpt lat="38.629482016" lon="34.806426996">
      <ele>1329.618</ele>
      <time>2021-10-12T12:07:04Z</time>
    </trkpt>
    <trkpt lat="38.629475981" lon="34.806400007">
      <ele>1330.183</ele>
      <time>2021-10-12T12:07:05Z</time>
    </trkpt>
    <trkpt lat="38.629469024" lon="34.806372011">
      <ele>1330.592</ele>
      <time>2021-10-12T12:07:06Z</time>
    </trkpt>
    <trkpt lat="38.629461983" lon="34.806346027">
      <ele>1330.86</ele>
      <time>2021-10-12T12:07:07Z</time>
    </trkpt>
    <trkpt lat="38.629457038" lon="34.806317026">
      <ele>1331.204</ele>
      <time>2021-10-12T12:07:08Z</time>
    </trkpt>
    <trkpt lat="38.629452009" lon="34.806291042">
      <ele>1331.508</ele>
      <time>2021-10-12T12:07:09Z</time>
    </trkpt>
    <trkpt lat="38.629443962" lon="34.806270003">
      <ele>1331.699</ele>
      <time>2021-10-12T12:07:09Z</time>
    </trkpt>
    <trkpt lat="38.629439017" lon="34.806246031">
      <ele>1331.911</ele>
      <time>2021-10-12T12:07:10Z</time>
    </trkpt>
    <trkpt lat="38.629427031" lon="34.80620102">
      <ele>1332.268</ele>
      <time>2021-10-12T12:07:11Z</time>
    </trkpt>
    <trkpt lat="38.62941999" lon="34.80617797">
      <ele>1332.445</ele>
      <time>2021-10-12T12:07:12Z</time>
    </trkpt>
    <trkpt lat="38.629408004" lon="34.806132959">
      <ele>1332.867</ele>
      <time>2021-10-12T12:07:13Z</time>
    </trkpt>
    <trkpt lat="38.629404986" lon="34.806108987">
      <ele>1333.18</ele>
      <time>2021-10-12T12:07:14Z</time>
    </trkpt>
    <trkpt lat="38.62940398" lon="34.806070011">
      <ele>1333.761</ele>
      <time>2021-10-12T12:07:15Z</time>
    </trkpt>
    <trkpt lat="38.62941999" lon="34.806048973">
      <ele>1334.406</ele>
      <time>2021-10-12T12:07:16Z</time>
    </trkpt>
    <trkpt lat="38.629439017" lon="34.806054002">
      <ele>1334.713</ele>
      <time>2021-10-12T12:07:17Z</time>
    </trkpt>
    <trkpt lat="38.629461983" lon="34.806065988">
      <ele>1334.839</ele>
      <time>2021-10-12T12:07:18Z</time>
    </trkpt>
    <trkpt lat="38.62948101" lon="34.806079986">
      <ele>1334.843</ele>
      <time>2021-10-12T12:07:19Z</time>
    </trkpt>
    <trkpt lat="38.62949702" lon="34.80610203">
      <ele>1334.699</ele>
      <time>2021-10-12T12:07:19Z</time>
    </trkpt>
    <trkpt lat="38.629515041" lon="34.806119967">
      <ele>1334.643</ele>
      <time>2021-10-12T12:07:20Z</time>
    </trkpt>
    <trkpt lat="38.629539013" lon="34.806138994">
      <ele>1334.654</ele>
      <time>2021-10-12T12:07:21Z</time>
    </trkpt>
    <trkpt lat="38.629563991" lon="34.806164978">
      <ele>1334.599</ele>
      <time>2021-10-12T12:07:23Z</time>
    </trkpt>
    <trkpt lat="38.629588969" lon="34.806185011">
      <ele>1334.635</ele>
      <time>2021-10-12T12:07:24Z</time>
    </trkpt>
    <trkpt lat="38.629635992" lon="34.806221975">
      <ele>1334.747</ele>
      <time>2021-10-12T12:07:26Z</time>
    </trkpt>
    <trkpt lat="38.629661975" lon="34.806242008">
      <ele>1334.833</ele>
      <time>2021-10-12T12:07:27Z</time>
    </trkpt>
    <trkpt lat="38.62968402" lon="34.806261035">
      <ele>1334.894</ele>
      <time>2021-10-12T12:07:28Z</time>
    </trkpt>
    <trkpt lat="38.629708998" lon="34.806284001">
      <ele>1334.96</ele>
      <time>2021-10-12T12:07:29Z</time>
    </trkpt>
    <trkpt lat="38.629733976" lon="34.806308979">
      <ele>1335.002</ele>
      <time>2021-10-12T12:07:30Z</time>
    </trkpt>
    <trkpt lat="38.62975602" lon="34.806334963">
      <ele>1334.971</ele>
      <time>2021-10-12T12:07:31Z</time>
    </trkpt>
    <trkpt lat="38.62984403" lon="34.806366982">
      <ele>1335.587</ele>
      <time>2021-10-12T12:07:35Z</time>
    </trkpt>
    <trkpt lat="38.629878983" lon="34.806258017">
      <ele>1337.372</ele>
      <time>2021-10-12T12:07:38Z</time>
    </trkpt>
    <trkpt lat="38.629833972" lon="34.806159027">
      <ele>1338.022</ele>
      <time>2021-10-12T12:07:41Z</time>
    </trkpt>
    <trkpt lat="38.629779993" lon="34.80606297">
      <ele>1338.669</ele>
      <time>2021-10-12T12:07:45Z</time>
    </trkpt>
    <trkpt lat="38.629792985" lon="34.805945959">
      <ele>1341.003</ele>
      <time>2021-10-12T12:07:48Z</time>
    </trkpt>
    <trkpt lat="38.629822992" lon="34.805960041">
      <ele>1341.416</ele>
      <time>2021-10-12T12:07:49Z</time>
    </trkpt>
    <trkpt lat="38.629840007" lon="34.805982001">
      <ele>1341.344</ele>
      <time>2021-10-12T12:07:50Z</time>
    </trkpt>
    <trkpt lat="38.629856016" lon="34.80600304">
      <ele>1341.232</ele>
      <time>2021-10-12T12:07:51Z</time>
    </trkpt>
    <trkpt lat="38.629903961" lon="34.806097001">
      <ele>1339.953</ele>
      <time>2021-10-12T12:07:54Z</time>
    </trkpt>
    <trkpt lat="38.629927011" lon="34.806118039">
      <ele>1339.856</ele>
      <time>2021-10-12T12:07:55Z</time>
    </trkpt>
    <trkpt lat="38.630018039" lon="34.80621703">
      <ele>1339.83</ele>
      <time>2021-10-12T12:08:00Z</time>
    </trkpt>
    <trkpt lat="38.630041005" lon="34.806234967">
      <ele>1339.987</ele>
      <time>2021-10-12T12:08:01Z</time>
    </trkpt>
    <trkpt lat="38.630144019" lon="34.806305962">
      <ele>1340.369</ele>
      <time>2021-10-12T12:08:05Z</time>
    </trkpt>
    <trkpt lat="38.630238986" lon="34.80634301">
      <ele>1340.81</ele>
      <time>2021-10-12T12:08:09Z</time>
    </trkpt>
    <trkpt lat="38.630296988" lon="34.806344016">
      <ele>1341.431</ele>
      <time>2021-10-12T12:08:11Z</time>
    </trkpt>
    <trkpt lat="38.630323978" lon="34.806337981">
      <ele>1341.799</ele>
      <time>2021-10-12T12:08:12Z</time>
    </trkpt>
    <trkpt lat="38.630353985" lon="34.806334963">
      <ele>1342.102</ele>
      <time>2021-10-12T12:08:13Z</time>
    </trkpt>
    <trkpt lat="38.630381981" lon="34.806328006">
      <ele>1342.504</ele>
      <time>2021-10-12T12:08:14Z</time>
    </trkpt>
    <trkpt lat="38.630412994" lon="34.806321971">
      <ele>1342.901</ele>
      <time>2021-10-12T12:08:15Z</time>
    </trkpt>
    <trkpt lat="38.630439984" lon="34.806307973">
      <ele>1343.498</ele>
      <time>2021-10-12T12:08:16Z</time>
    </trkpt>
    <trkpt lat="38.630467979" lon="34.806293976">
      <ele>1344.103</ele>
      <time>2021-10-12T12:08:18Z</time>
    </trkpt>
    <trkpt lat="38.630521037" lon="34.806270003">
      <ele>1345.175</ele>
      <time>2021-10-12T12:08:20Z</time>
    </trkpt>
    <trkpt lat="38.630548026" lon="34.806262963">
      <ele>1345.572</ele>
      <time>2021-10-12T12:08:21Z</time>
    </trkpt>
    <trkpt lat="38.630578034" lon="34.806252988">
      <ele>1345.673</ele>
      <time>2021-10-12T12:08:22Z</time>
    </trkpt>
    <trkpt lat="38.630591026" lon="34.806229016">
      <ele>1346.202</ele>
      <time>2021-10-12T12:08:23Z</time>
    </trkpt>
    <trkpt lat="38.630592031" lon="34.806191968">
      <ele>1347.223</ele>
      <time>2021-10-12T12:08:24Z</time>
    </trkpt>
    <trkpt lat="38.630594965" lon="34.806162966">
      <ele>1347.992</ele>
      <time>2021-10-12T12:08:25Z</time>
    </trkpt>
    <trkpt lat="38.630596977" lon="34.806137988">
      <ele>1348.658</ele>
      <time>2021-10-12T12:08:25Z</time>
    </trkpt>
    <trkpt lat="38.630594965" lon="34.806109993">
      <ele>1349.45</ele>
      <time>2021-10-12T12:08:26Z</time>
    </trkpt>
    <trkpt lat="38.630591026" lon="34.806087026">
      <ele>1349.878</ele>
      <time>2021-10-12T12:08:27Z</time>
    </trkpt>
    <trkpt lat="38.630595971" lon="34.806060037">
      <ele>1350.23</ele>
      <time>2021-10-12T12:08:28Z</time>
    </trkpt>
    <trkpt lat="38.630607035" lon="34.806040004">
      <ele>1350.349</ele>
      <time>2021-10-12T12:08:28Z</time>
    </trkpt>
    <trkpt lat="38.630623966" lon="34.806025">
      <ele>1350.259</ele>
      <time>2021-10-12T12:08:29Z</time>
    </trkpt>
    <trkpt lat="38.630641988" lon="34.806032963">
      <ele>1349.812</ele>
      <time>2021-10-12T12:08:30Z</time>
    </trkpt>
    <trkpt lat="38.630660009" lon="34.806057019">
      <ele>1349.177</ele>
      <time>2021-10-12T12:08:31Z</time>
    </trkpt>
    <trkpt lat="38.630682975" lon="34.806076968">
      <ele>1348.554</ele>
      <time>2021-10-12T12:08:32Z</time>
    </trkpt>
    <trkpt lat="38.630740978" lon="34.806070011">
      <ele>1347.675</ele>
      <time>2021-10-12T12:08:34Z</time>
    </trkpt>
    <trkpt lat="38.630768973" lon="34.806052996">
      <ele>1347.33</ele>
      <time>2021-10-12T12:08:35Z</time>
    </trkpt>
    <trkpt lat="38.630796969" lon="34.806030029">
      <ele>1346.968</ele>
      <time>2021-10-12T12:08:36Z</time>
    </trkpt>
    <trkpt lat="38.630818008" lon="34.805999016">
      <ele>1346.713</ele>
      <time>2021-10-12T12:08:37Z</time>
    </trkpt>
    <trkpt lat="38.630836029" lon="34.805966998">
      <ele>1346.412</ele>
      <time>2021-10-12T12:08:39Z</time>
    </trkpt>
    <trkpt lat="38.630852038" lon="34.805933973">
      <ele>1345.878</ele>
      <time>2021-10-12T12:08:40Z</time>
    </trkpt>
    <trkpt lat="38.630869975" lon="34.805903966">
      <ele>1345.23</ele>
      <time>2021-10-12T12:08:41Z</time>
    </trkpt>
    <trkpt lat="38.630884979" lon="34.805870019">
      <ele>1344.686</ele>
      <time>2021-10-12T12:08:42Z</time>
    </trkpt>
    <trkpt lat="38.630949017" lon="34.805816039">
      <ele>1341.847</ele>
      <time>2021-10-12T12:08:45Z</time>
    </trkpt>
    <trkpt lat="38.630976006" lon="34.80578796">
      <ele>1340.333</ele>
      <time>2021-10-12T12:08:46Z</time>
    </trkpt>
    <trkpt lat="38.630984975" lon="34.805820985">
      <ele>1340.303</ele>
      <time>2021-10-12T12:08:47Z</time>
    </trkpt>
    <trkpt lat="38.630987993" lon="34.805847974">
      <ele>1340.325</ele>
      <time>2021-10-12T12:08:48Z</time>
    </trkpt>
    <trkpt lat="38.630985981" lon="34.805871025">
      <ele>1340.419</ele>
      <time>2021-10-12T12:08:49Z</time>
    </trkpt>
    <trkpt lat="38.63099101" lon="34.805912012">
      <ele>1340.227</ele>
      <time>2021-10-12T12:08:50Z</time>
    </trkpt>
    <trkpt lat="38.630994027" lon="34.805944031">
      <ele>1340.121</ele>
      <time>2021-10-12T12:08:51Z</time>
    </trkpt>
    <trkpt lat="38.631053036" lon="34.806065988">
      <ele>1337.996</ele>
      <time>2021-10-12T12:08:55Z</time>
    </trkpt>
    <trkpt lat="38.631069968" lon="34.806105969">
      <ele>1337.468</ele>
      <time>2021-10-12T12:08:56Z</time>
    </trkpt>
    <trkpt lat="38.63107902" lon="34.806138994">
      <ele>1336.908</ele>
      <time>2021-10-12T12:08:57Z</time>
    </trkpt>
    <trkpt lat="38.631087989" lon="34.80620496">
      <ele>1336.044</ele>
      <time>2021-10-12T12:08:59Z</time>
    </trkpt>
    <trkpt lat="38.631087989" lon="34.806239996">
      <ele>1335.75</ele>
      <time>2021-10-12T12:09:00Z</time>
    </trkpt>
    <trkpt lat="38.631142974" lon="34.80631602">
      <ele>1333.686</ele>
      <time>2021-10-12T12:09:03Z</time>
    </trkpt>
    <trkpt lat="38.631160995" lon="34.806329012">
      <ele>1333.16</ele>
      <time>2021-10-12T12:09:04Z</time>
    </trkpt>
    <trkpt lat="38.631186979" lon="34.806329012">
      <ele>1332.498</ele>
      <time>2021-10-12T12:09:05Z</time>
    </trkpt>
    <trkpt lat="38.631212041" lon="34.806317026">
      <ele>1331.867</ele>
      <time>2021-10-12T12:09:06Z</time>
    </trkpt>
    <trkpt lat="38.63123199" lon="34.80630504">
      <ele>1331.336</ele>
      <time>2021-10-12T12:09:07Z</time>
    </trkpt>
    <trkpt lat="38.63125504" lon="34.806297999">
      <ele>1330.698</ele>
      <time>2021-10-12T12:09:08Z</time>
    </trkpt>
    <trkpt lat="38.63126996" lon="34.806279978">
      <ele>1330.232</ele>
      <time>2021-10-12T12:09:08Z</time>
    </trkpt>
    <trkpt lat="38.63126996" lon="34.806251982">
      <ele>1330.145</ele>
      <time>2021-10-12T12:09:09Z</time>
    </trkpt>
    <trkpt lat="38.631261997" lon="34.806216024">
      <ele>1330.295</ele>
      <time>2021-10-12T12:09:10Z</time>
    </trkpt>
    <trkpt lat="38.631257974" lon="34.806176964">
      <ele>1330.337</ele>
      <time>2021-10-12T12:09:11Z</time>
    </trkpt>
    <trkpt lat="38.631256968" lon="34.806136983">
      <ele>1330.282</ele>
      <time>2021-10-12T12:09:13Z</time>
    </trkpt>
    <trkpt lat="38.631259985" lon="34.806098007">
      <ele>1330.007</ele>
      <time>2021-10-12T12:09:14Z</time>
    </trkpt>
    <trkpt lat="38.631264009" lon="34.806058025">
      <ele>1329.544</ele>
      <time>2021-10-12T12:09:15Z</time>
    </trkpt>
    <trkpt lat="38.631267026" lon="34.806019971">
      <ele>1329.129</ele>
      <time>2021-10-12T12:09:16Z</time>
    </trkpt>
    <trkpt lat="38.63128203" lon="34.805948976">
      <ele>1327.93</ele>
      <time>2021-10-12T12:09:18Z</time>
    </trkpt>
    <trkpt lat="38.631295022" lon="34.805921987">
      <ele>1327.135</ele>
      <time>2021-10-12T12:09:19Z</time>
    </trkpt>
    <trkpt lat="38.631311031" lon="34.805905977">
      <ele>1326.282</ele>
      <time>2021-10-12T12:09:20Z</time>
    </trkpt>
    <trkpt lat="38.631412033" lon="34.805964986">
      <ele>1322.545</ele>
      <time>2021-10-12T12:09:24Z</time>
    </trkpt>
    <trkpt lat="38.631497025" lon="34.806022989">
      <ele>1320.032</ele>
      <time>2021-10-12T12:09:27Z</time>
    </trkpt>
    <trkpt lat="38.631594004" lon="34.805955011">
      <ele>1315.515</ele>
      <time>2021-10-12T12:09:32Z</time>
    </trkpt>
    <trkpt lat="38.631599033" lon="34.805802042">
      <ele>1313.2</ele>
      <time>2021-10-12T12:09:36Z</time>
    </trkpt>
    <trkpt lat="38.63160599" lon="34.805720989">
      <ele>1311.697</ele>
      <time>2021-10-12T12:09:38Z</time>
    </trkpt>
    <trkpt lat="38.631613031" lon="34.805696011">
      <ele>1311.051</ele>
      <time>2021-10-12T12:09:39Z</time>
    </trkpt>
    <trkpt lat="38.631629962" lon="34.805628033">
      <ele>1309.4</ele>
      <time>2021-10-12T12:09:41Z</time>
    </trkpt>
    <trkpt lat="38.631637003" lon="34.80550197">
      <ele>1306.869</ele>
      <time>2021-10-12T12:09:45Z</time>
    </trkpt>
    <trkpt lat="38.631644966" lon="34.80543701">
      <ele>1305.154</ele>
      <time>2021-10-12T12:09:47Z</time>
    </trkpt>
    <trkpt lat="38.631661981" lon="34.805366015">
      <ele>1303.052</ele>
      <time>2021-10-12T12:09:49Z</time>
    </trkpt>
    <trkpt lat="38.631684026" lon="34.805337014">
      <ele>1301.905</ele>
      <time>2021-10-12T12:09:50Z</time>
    </trkpt>
    <trkpt lat="38.631700035" lon="34.805303989">
      <ele>1300.845</ele>
      <time>2021-10-12T12:09:51Z</time>
    </trkpt>
    <trkpt lat="38.631711015" lon="34.805268031">
      <ele>1299.808</ele>
      <time>2021-10-12T12:09:52Z</time>
    </trkpt>
    <trkpt lat="38.631719984" lon="34.805231988">
      <ele>1298.758</ele>
      <time>2021-10-12T12:09:53Z</time>
    </trkpt>
    <trkpt lat="38.631740017" lon="34.805208016">
      <ele>1297.79</ele>
      <time>2021-10-12T12:09:54Z</time>
    </trkpt>
    <trkpt lat="38.631761977" lon="34.805218996">
      <ele>1297.605</ele>
      <time>2021-10-12T12:09:55Z</time>
    </trkpt>
    <trkpt lat="38.631781004" lon="34.805247998">
      <ele>1297.868</ele>
      <time>2021-10-12T12:09:56Z</time>
    </trkpt>
    <trkpt lat="38.631802965" lon="34.805259984">
      <ele>1297.67</ele>
      <time>2021-10-12T12:09:57Z</time>
    </trkpt>
    <trkpt lat="38.631821992" lon="34.80525001">
      <ele>1297.057</ele>
      <time>2021-10-12T12:09:58Z</time>
    </trkpt>
    <trkpt lat="38.631831966" lon="34.805225031">
      <ele>1296.326</ele>
      <time>2021-10-12T12:09:59Z</time>
    </trkpt>
    <trkpt lat="38.63187002" lon="34.80519997">
      <ele>1295.057</ele>
      <time>2021-10-12T12:10:00Z</time>
    </trkpt>
    <trkpt lat="38.631939003" lon="34.805099973">
      <ele>1291.892</ele>
      <time>2021-10-12T12:10:04Z</time>
    </trkpt>
    <trkpt lat="38.631953001" lon="34.804980028">
      <ele>1289.396</ele>
      <time>2021-10-12T12:10:08Z</time>
    </trkpt>
    <trkpt lat="38.631990971" lon="34.804908028">
      <ele>1287.239</ele>
      <time>2021-10-12T12:10:10Z</time>
    </trkpt>
    <trkpt lat="38.632061966" lon="34.804784982">
      <ele>1283.712</ele>
      <time>2021-10-12T12:10:15Z</time>
    </trkpt>
    <trkpt lat="38.632080993" lon="34.80464601">
      <ele>1280.075</ele>
      <time>2021-10-12T12:10:19Z</time>
    </trkpt>
    <trkpt lat="38.632190041" lon="34.804584989">
      <ele>1278.921</ele>
      <time>2021-10-12T12:10:23Z</time>
    </trkpt>
    <trkpt lat="38.632282997" lon="34.804544002">
      <ele>1278.369</ele>
      <time>2021-10-12T12:10:27Z</time>
    </trkpt>
    <trkpt lat="38.632330019" lon="34.80450796">
      <ele>1277.76</ele>
      <time>2021-10-12T12:10:29Z</time>
    </trkpt>
    <trkpt lat="38.63243496" lon="34.804425985">
      <ele>1276.434</ele>
      <time>2021-10-12T12:10:34Z</time>
    </trkpt>
    <trkpt lat="38.632531017" lon="34.804352978">
      <ele>1275.39</ele>
      <time>2021-10-12T12:10:38Z</time>
    </trkpt>
    <trkpt lat="38.632621961" lon="34.80429397">
      <ele>1274.529</ele>
      <time>2021-10-12T12:10:41Z</time>
    </trkpt>
    <trkpt lat="38.632697985" lon="34.804320037">
      <ele>1275.08</ele>
      <time>2021-10-12T12:10:44Z</time>
    </trkpt>
    <trkpt lat="38.632719023" lon="34.804337975">
      <ele>1275.386</ele>
      <time>2021-10-12T12:10:45Z</time>
    </trkpt>
    <trkpt lat="38.632759005" lon="34.804362031">
      <ele>1275.793</ele>
      <time>2021-10-12T12:10:47Z</time>
    </trkpt>
    <trkpt lat="38.632778032" lon="34.80438198">
      <ele>1276.099</ele>
      <time>2021-10-12T12:10:48Z</time>
    </trkpt>
    <trkpt lat="38.632796975" lon="34.804400001">
      <ele>1276.28</ele>
      <time>2021-10-12T12:10:49Z</time>
    </trkpt>
    <trkpt lat="38.63283" lon="34.804438977">
      <ele>1276.73</ele>
      <time>2021-10-12T12:10:50Z</time>
    </trkpt>
    <trkpt lat="38.632866042" lon="34.804476025">
      <ele>1277.328</ele>
      <time>2021-10-12T12:10:52Z</time>
    </trkpt>
    <trkpt lat="38.632886996" lon="34.804484993">
      <ele>1277.425</ele>
      <time>2021-10-12T12:10:53Z</time>
    </trkpt>
    <trkpt lat="38.632906023" lon="34.804482982">
      <ele>1277.307</ele>
      <time>2021-10-12T12:10:54Z</time>
    </trkpt>
    <trkpt lat="38.632934019" lon="34.804484993">
      <ele>1277.231</ele>
      <time>2021-10-12T12:10:55Z</time>
    </trkpt>
    <trkpt lat="38.632958997" lon="34.804488011">
      <ele>1277.186</ele>
      <time>2021-10-12T12:10:56Z</time>
    </trkpt>
    <trkpt lat="38.632943993" lon="34.804450041">
      <ele>1276.51</ele>
      <time>2021-10-12T12:10:57Z</time>
    </trkpt>
    <trkpt lat="38.63293997" lon="34.804415004">
      <ele>1275.93</ele>
      <time>2021-10-12T12:10:58Z</time>
    </trkpt>
    <trkpt lat="38.632942988" lon="34.804378962">
      <ele>1275.322</ele>
      <time>2021-10-12T12:10:59Z</time>
    </trkpt>
    <trkpt lat="38.632957991" lon="34.804248959">
      <ele>1273.08</ele>
      <time>2021-10-12T12:11:03Z</time>
    </trkpt>
    <trkpt lat="38.632937958" lon="34.804109987">
      <ele>1271.031</ele>
      <time>2021-10-12T12:11:07Z</time>
    </trkpt>
    <trkpt lat="38.632897977" lon="34.803989036">
      <ele>1269.577</ele>
      <time>2021-10-12T12:11:11Z</time>
    </trkpt>
    <trkpt lat="38.632960003" lon="34.803881999">
      <ele>1267.621</ele>
      <time>2021-10-12T12:11:15Z</time>
    </trkpt>
    <trkpt lat="38.633059999" lon="34.803918963">
      <ele>1267.403</ele>
      <time>2021-10-12T12:11:18Z</time>
    </trkpt>
    <trkpt lat="38.633186985" lon="34.803946959">
      <ele>1266.989</ele>
      <time>2021-10-12T12:11:23Z</time>
    </trkpt>
    <trkpt lat="38.633233001" lon="34.803938996">
      <ele>1266.559</ele>
      <time>2021-10-12T12:11:25Z</time>
    </trkpt>
    <trkpt lat="38.633277006" lon="34.80393799">
      <ele>1266.254</ele>
      <time>2021-10-12T12:11:26Z</time>
    </trkpt>
    <trkpt lat="38.633325035" lon="34.803949976">
      <ele>1266.153</ele>
      <time>2021-10-12T12:11:28Z</time>
    </trkpt>
    <trkpt lat="38.63336904" lon="34.803963974">
      <ele>1266.188</ele>
      <time>2021-10-12T12:11:30Z</time>
    </trkpt>
    <trkpt lat="38.633411033" lon="34.803973027">
      <ele>1266.15</ele>
      <time>2021-10-12T12:11:32Z</time>
    </trkpt>
    <trkpt lat="38.633445986" lon="34.803975038">
      <ele>1266.019</ele>
      <time>2021-10-12T12:11:33Z</time>
    </trkpt>
    <trkpt lat="38.633484039" lon="34.803984007">
      <ele>1265.984</ele>
      <time>2021-10-12T12:11:34Z</time>
    </trkpt>
    <trkpt lat="38.633527039" lon="34.804001022">
      <ele>1266.04</ele>
      <time>2021-10-12T12:11:36Z</time>
    </trkpt>
    <trkpt lat="38.633608008" lon="34.804051984">
      <ele>1266.366</ele>
      <time>2021-10-12T12:11:39Z</time>
    </trkpt>
    <trkpt lat="38.633644972" lon="34.80407604">
      <ele>1266.247</ele>
      <time>2021-10-12T12:11:41Z</time>
    </trkpt>
    <trkpt lat="38.633684032" lon="34.804108981">
      <ele>1266.174</ele>
      <time>2021-10-12T12:11:43Z</time>
    </trkpt>
    <trkpt lat="38.633722002" lon="34.804145023">
      <ele>1266.123</ele>
      <time>2021-10-12T12:11:44Z</time>
    </trkpt>
    <trkpt lat="38.633753015" lon="34.804177964">
      <ele>1266.098</ele>
      <time>2021-10-12T12:11:46Z</time>
    </trkpt>
    <trkpt lat="38.633787967" lon="34.804211995">
      <ele>1266.002</ele>
      <time>2021-10-12T12:11:47Z</time>
    </trkpt>
    <trkpt lat="38.633821998" lon="34.804245019">
      <ele>1265.877</ele>
      <time>2021-10-12T12:11:49Z</time>
    </trkpt>
    <trkpt lat="38.633855022" lon="34.804279972">
      <ele>1265.761</ele>
      <time>2021-10-12T12:11:51Z</time>
    </trkpt>
    <trkpt lat="38.633887963" lon="34.804318026">
      <ele>1265.65</ele>
      <time>2021-10-12T12:11:52Z</time>
    </trkpt>
    <trkpt lat="38.633923" lon="34.804353984">
      <ele>1265.572</ele>
      <time>2021-10-12T12:11:54Z</time>
    </trkpt>
    <trkpt lat="38.633958036" lon="34.804388015">
      <ele>1265.445</ele>
      <time>2021-10-12T12:11:56Z</time>
    </trkpt>
    <trkpt lat="38.633988965" lon="34.804423973">
      <ele>1265.364</ele>
      <time>2021-10-12T12:11:57Z</time>
    </trkpt>
    <trkpt lat="38.634022996" lon="34.804458003">
      <ele>1265.069</ele>
      <time>2021-10-12T12:11:59Z</time>
    </trkpt>
    <trkpt lat="38.634054009" lon="34.804490022">
      <ele>1264.622</ele>
      <time>2021-10-12T12:12:00Z</time>
    </trkpt>
    <trkpt lat="38.634084016" lon="34.804517012">
      <ele>1264.19</ele>
      <time>2021-10-12T12:12:02Z</time>
    </trkpt>
    <trkpt lat="38.634115029" lon="34.804542996">
      <ele>1263.744</ele>
      <time>2021-10-12T12:12:03Z</time>
    </trkpt>
    <trkpt lat="38.634213014" lon="34.80464098">
      <ele>1262.618</ele>
      <time>2021-10-12T12:12:07Z</time>
    </trkpt>
    <trkpt lat="38.63427504" lon="34.80470703">
      <ele>1262.198</ele>
      <time>2021-10-12T12:12:10Z</time>
    </trkpt>
    <trkpt lat="38.634303035" lon="34.804739971">
      <ele>1261.922</ele>
      <time>2021-10-12T12:12:12Z</time>
    </trkpt>
    <trkpt lat="38.634327007" lon="34.804774001">
      <ele>1261.58</ele>
      <time>2021-10-12T12:12:13Z</time>
    </trkpt>
    <trkpt lat="38.634357015" lon="34.80480996">
      <ele>1261.214</ele>
      <time>2021-10-12T12:12:15Z</time>
    </trkpt>
    <trkpt lat="38.634391967" lon="34.804849019">
      <ele>1260.835</ele>
      <time>2021-10-12T12:12:16Z</time>
    </trkpt>
    <trkpt lat="38.63442298" lon="34.804881038">
      <ele>1260.539</ele>
      <time>2021-10-12T12:12:18Z</time>
    </trkpt>
    <trkpt lat="38.634454999" lon="34.804918002">
      <ele>1260.246</ele>
      <time>2021-10-12T12:12:20Z</time>
    </trkpt>
    <trkpt lat="38.634488024" lon="34.80494801">
      <ele>1260.001</ele>
      <time>2021-10-12T12:12:21Z</time>
    </trkpt>
    <trkpt lat="38.634522976" lon="34.804979023">
      <ele>1259.771</ele>
      <time>2021-10-12T12:12:23Z</time>
    </trkpt>
    <trkpt lat="38.634560024" lon="34.805006012">
      <ele>1259.537</ele>
      <time>2021-10-12T12:12:24Z</time>
    </trkpt>
    <trkpt lat="38.634590032" lon="34.805031996">
      <ele>1259.251</ele>
      <time>2021-10-12T12:12:26Z</time>
    </trkpt>
    <trkpt lat="38.634621967" lon="34.80505798">
      <ele>1259.002</ele>
      <time>2021-10-12T12:12:27Z</time>
    </trkpt>
    <trkpt lat="38.63464904" lon="34.805088993">
      <ele>1258.774</ele>
      <time>2021-10-12T12:12:28Z</time>
    </trkpt>
    <trkpt lat="38.634675024" lon="34.805126041">
      <ele>1258.562</ele>
      <time>2021-10-12T12:12:30Z</time>
    </trkpt>
    <trkpt lat="38.634767979" lon="34.805214973">
      <ele>1258.556</ele>
      <time>2021-10-12T12:12:34Z</time>
    </trkpt>
    <trkpt lat="38.634795975" lon="34.805249004">
      <ele>1258.635</ele>
      <time>2021-10-12T12:12:35Z</time>
    </trkpt>
    <trkpt lat="38.634878034" lon="34.805358974">
      <ele>1258.502</ele>
      <time>2021-10-12T12:12:40Z</time>
    </trkpt>
    <trkpt lat="38.634899994" lon="34.805394011">
      <ele>1258.326</ele>
      <time>2021-10-12T12:12:41Z</time>
    </trkpt>
    <trkpt lat="38.634926984" lon="34.805433992">
      <ele>1258.083</ele>
      <time>2021-10-12T12:12:43Z</time>
    </trkpt>
    <trkpt lat="38.634950034" lon="34.80547104">
      <ele>1257.803</ele>
      <time>2021-10-12T12:12:44Z</time>
    </trkpt>
    <trkpt lat="38.634975012" lon="34.805514961">
      <ele>1257.412</ele>
      <time>2021-10-12T12:12:46Z</time>
    </trkpt>
    <trkpt lat="38.635004014" lon="34.805557961">
      <ele>1256.974</ele>
      <time>2021-10-12T12:12:47Z</time>
    </trkpt>
    <trkpt lat="38.635023963" lon="34.80559702">
      <ele>1256.552</ele>
      <time>2021-10-12T12:12:49Z</time>
    </trkpt>
    <trkpt lat="38.63509303" lon="34.805728029">
      <ele>1255.137</ele>
      <time>2021-10-12T12:12:53Z</time>
    </trkpt>
    <trkpt lat="38.635112979" lon="34.805774968">
      <ele>1254.63</ele>
      <time>2021-10-12T12:12:55Z</time>
    </trkpt>
    <trkpt lat="38.635131" lon="34.805821991">
      <ele>1254.123</ele>
      <time>2021-10-12T12:12:56Z</time>
    </trkpt>
    <trkpt lat="38.635144997" lon="34.805868007">
      <ele>1253.929</ele>
      <time>2021-10-12T12:12:58Z</time>
    </trkpt>
    <trkpt lat="38.635172993" lon="34.806016032">
      <ele>1253.429</ele>
      <time>2021-10-12T12:13:02Z</time>
    </trkpt>
    <trkpt lat="38.635180034" lon="34.806060037">
      <ele>1253.229</ele>
      <time>2021-10-12T12:13:03Z</time>
    </trkpt>
    <trkpt lat="38.635184979" lon="34.806107981">
      <ele>1253.013</ele>
      <time>2021-10-12T12:13:05Z</time>
    </trkpt>
    <trkpt lat="38.635186991" lon="34.806160033">
      <ele>1253.096</ele>
      <time>2021-10-12T12:13:06Z</time>
    </trkpt>
    <trkpt lat="38.635184979" lon="34.806208983">
      <ele>1253.238</ele>
      <time>2021-10-12T12:13:08Z</time>
    </trkpt>
    <trkpt lat="38.635190008" lon="34.806256006">
      <ele>1253.278</ele>
      <time>2021-10-12T12:13:09Z</time>
    </trkpt>
    <trkpt lat="38.635195037" lon="34.806303028">
      <ele>1253.305</ele>
      <time>2021-10-12T12:13:11Z</time>
    </trkpt>
    <trkpt lat="38.635199983" lon="34.806348039">
      <ele>1253.318</ele>
      <time>2021-10-12T12:13:12Z</time>
    </trkpt>
    <trkpt lat="38.635204006" lon="34.806397995">
      <ele>1253.31</ele>
      <time>2021-10-12T12:13:13Z</time>
    </trkpt>
    <trkpt lat="38.635206018" lon="34.806449963">
      <ele>1253.178</ele>
      <time>2021-10-12T12:13:15Z</time>
    </trkpt>
    <trkpt lat="38.635210041" lon="34.806495979">
      <ele>1253.031</ele>
      <time>2021-10-12T12:13:16Z</time>
    </trkpt>
    <trkpt lat="38.635215992" lon="34.806548031">
      <ele>1252.857</ele>
      <time>2021-10-12T12:13:18Z</time>
    </trkpt>
    <trkpt lat="38.635224961" lon="34.806596981">
      <ele>1252.666</ele>
      <time>2021-10-12T12:13:19Z</time>
    </trkpt>
    <trkpt lat="38.635237031" lon="34.806644004">
      <ele>1252.464</ele>
      <time>2021-10-12T12:13:21Z</time>
    </trkpt>
    <trkpt lat="38.635249017" lon="34.806688009">
      <ele>1252.072</ele>
      <time>2021-10-12T12:13:22Z</time>
    </trkpt>
    <trkpt lat="38.635261003" lon="34.806732014">
      <ele>1251.461</ele>
      <time>2021-10-12T12:13:23Z</time>
    </trkpt>
    <trkpt lat="38.635279024" lon="34.806773001">
      <ele>1250.821</ele>
      <time>2021-10-12T12:13:25Z</time>
    </trkpt>
    <trkpt lat="38.635294028" lon="34.806809966">
      <ele>1250.075</ele>
      <time>2021-10-12T12:13:26Z</time>
    </trkpt>
    <trkpt lat="38.635311965" lon="34.806840979">
      <ele>1249.365</ele>
      <time>2021-10-12T12:13:27Z</time>
    </trkpt>
    <trkpt lat="38.635331998" lon="34.80686998">
      <ele>1248.671</ele>
      <time>2021-10-12T12:13:28Z</time>
    </trkpt>
    <trkpt lat="38.635363011" lon="34.806884984">
      <ele>1247.911</ele>
      <time>2021-10-12T12:13:29Z</time>
    </trkpt>
    <trkpt lat="38.635402992" lon="34.806888001">
      <ele>1247.081</ele>
      <time>2021-10-12T12:13:31Z</time>
    </trkpt>
    <trkpt lat="38.635441968" lon="34.806894036">
      <ele>1246.267</ele>
      <time>2021-10-12T12:13:32Z</time>
    </trkpt>
    <trkpt lat="38.635474993" lon="34.806905016">
      <ele>1245.574</ele>
      <time>2021-10-12T12:13:34Z</time>
    </trkpt>
    <trkpt lat="38.635508018" lon="34.806926977">
      <ele>1244.888</ele>
      <time>2021-10-12T12:13:35Z</time>
    </trkpt>
    <trkpt lat="38.635541964" lon="34.806952039">
      <ele>1244.213</ele>
      <time>2021-10-12T12:13:36Z</time>
    </trkpt>
    <trkpt lat="38.635578007" lon="34.806969976">
      <ele>1243.688</ele>
      <time>2021-10-12T12:13:38Z</time>
    </trkpt>
    <trkpt lat="38.635621006" lon="34.806987997">
      <ele>1243.247</ele>
      <time>2021-10-12T12:13:39Z</time>
    </trkpt>
    <trkpt lat="38.635659982" lon="34.807001995">
      <ele>1242.899</ele>
      <time>2021-10-12T12:13:41Z</time>
    </trkpt>
    <trkpt lat="38.635699963" lon="34.807016999">
      <ele>1242.587</ele>
      <time>2021-10-12T12:13:43Z</time>
    </trkpt>
    <trkpt lat="38.63574598" lon="34.807032002">
      <ele>1242.276</ele>
      <time>2021-10-12T12:13:44Z</time>
    </trkpt>
    <trkpt lat="38.635788979" lon="34.807051029">
      <ele>1242.063</ele>
      <time>2021-10-12T12:13:46Z</time>
    </trkpt>
    <trkpt lat="38.635824015" lon="34.807066033">
      <ele>1241.932</ele>
      <time>2021-10-12T12:13:47Z</time>
    </trkpt>
    <trkpt lat="38.635859974" lon="34.807090005">
      <ele>1241.952</ele>
      <time>2021-10-12T12:13:49Z</time>
    </trkpt>
    <trkpt lat="38.635892998" lon="34.807110038">
      <ele>1241.977</ele>
      <time>2021-10-12T12:13:50Z</time>
    </trkpt>
    <trkpt lat="38.635920994" lon="34.807129987">
      <ele>1242.02</ele>
      <time>2021-10-12T12:13:51Z</time>
    </trkpt>
    <trkpt lat="38.635944966" lon="34.807148008">
      <ele>1242.064</ele>
      <time>2021-10-12T12:13:52Z</time>
    </trkpt>
    <trkpt lat="38.63597204" lon="34.807166029">
      <ele>1242.096</ele>
      <time>2021-10-12T12:13:54Z</time>
    </trkpt>
    <trkpt lat="38.63599903" lon="34.807174997">
      <ele>1242.063</ele>
      <time>2021-10-12T12:13:55Z</time>
    </trkpt>
    <trkpt lat="38.636025013" lon="34.807179021">
      <ele>1241.999</ele>
      <time>2021-10-12T12:13:56Z</time>
    </trkpt>
    <trkpt lat="38.636058038" lon="34.807182038">
      <ele>1241.902</ele>
      <time>2021-10-12T12:13:57Z</time>
    </trkpt>
    <trkpt lat="38.636093996" lon="34.807188995">
      <ele>1241.822</ele>
      <time>2021-10-12T12:13:58Z</time>
    </trkpt>
    <trkpt lat="38.636126015" lon="34.807213973">
      <ele>1241.941</ele>
      <time>2021-10-12T12:13:59Z</time>
    </trkpt>
    <trkpt lat="38.636148982" lon="34.807255967">
      <ele>1242.226</ele>
      <time>2021-10-12T12:14:01Z</time>
    </trkpt>
    <trkpt lat="38.63617002" lon="34.807306007">
      <ele>1242.539</ele>
      <time>2021-10-12T12:14:03Z</time>
    </trkpt>
    <trkpt lat="38.636188041" lon="34.807351017">
      <ele>1242.799</ele>
      <time>2021-10-12T12:14:04Z</time>
    </trkpt>
    <trkpt lat="38.63620799" lon="34.807397034">
      <ele>1243.039</ele>
      <time>2021-10-12T12:14:06Z</time>
    </trkpt>
    <trkpt lat="38.636225006" lon="34.807437016">
      <ele>1243.229</ele>
      <time>2021-10-12T12:14:07Z</time>
    </trkpt>
    <trkpt lat="38.63625099" lon="34.807470962">
      <ele>1243.34</ele>
      <time>2021-10-12T12:14:08Z</time>
    </trkpt>
    <trkpt lat="38.636288038" lon="34.807493007">
      <ele>1243.329</ele>
      <time>2021-10-12T12:14:10Z</time>
    </trkpt>
    <trkpt lat="38.63632299" lon="34.807503987">
      <ele>1243.223</ele>
      <time>2021-10-12T12:14:11Z</time>
    </trkpt>
    <trkpt lat="38.636361966" lon="34.80750801">
      <ele>1243.068</ele>
      <time>2021-10-12T12:14:13Z</time>
    </trkpt>
    <trkpt lat="38.636402031" lon="34.807502981">
      <ele>1242.989</ele>
      <time>2021-10-12T12:14:14Z</time>
    </trkpt>
    <trkpt lat="38.636436984" lon="34.807499964">
      <ele>1243.0</ele>
      <time>2021-10-12T12:14:15Z</time>
    </trkpt>
    <trkpt lat="38.636474032" lon="34.807505999">
      <ele>1242.972</ele>
      <time>2021-10-12T12:14:17Z</time>
    </trkpt>
    <trkpt lat="38.636508984" lon="34.807515973">
      <ele>1242.918</ele>
      <time>2021-10-12T12:14:18Z</time>
    </trkpt>
    <trkpt lat="38.636539998" lon="34.807537012">
      <ele>1242.794</ele>
      <time>2021-10-12T12:14:19Z</time>
    </trkpt>
    <trkpt lat="38.636564976" lon="34.807574982">
      <ele>1242.559</ele>
      <time>2021-10-12T12:14:21Z</time>
    </trkpt>
    <trkpt lat="38.636582997" lon="34.807629967">
      <ele>1242.205</ele>
      <time>2021-10-12T12:14:23Z</time>
    </trkpt>
    <trkpt lat="38.636590037" lon="34.80768797">
      <ele>1241.833</ele>
      <time>2021-10-12T12:14:24Z</time>
    </trkpt>
    <trkpt lat="38.63659096" lon="34.807745973">
      <ele>1241.47</ele>
      <time>2021-10-12T12:14:26Z</time>
    </trkpt>
    <trkpt lat="38.63658702" lon="34.80780297">
      <ele>1240.989</ele>
      <time>2021-10-12T12:14:28Z</time>
    </trkpt>
    <trkpt lat="38.636579979" lon="34.807856027">
      <ele>1240.379</ele>
      <time>2021-10-12T12:14:29Z</time>
    </trkpt>
    <trkpt lat="38.636572016" lon="34.807910006">
      <ele>1239.75</ele>
      <time>2021-10-12T12:14:31Z</time>
    </trkpt>
    <trkpt lat="38.636565981" lon="34.807964992">
      <ele>1239.096</ele>
      <time>2021-10-12T12:14:32Z</time>
    </trkpt>
    <trkpt lat="38.636567993" lon="34.808008997">
      <ele>1238.562</ele>
      <time>2021-10-12T12:14:34Z</time>
    </trkpt>
    <trkpt lat="38.636570005" lon="34.808057025">
      <ele>1237.986</ele>
      <time>2021-10-12T12:14:35Z</time>
    </trkpt>
    <trkpt lat="38.63657604" lon="34.808103964">
      <ele>1237.534</ele>
      <time>2021-10-12T12:14:36Z</time>
    </trkpt>
    <trkpt lat="38.636584003" lon="34.808151992">
      <ele>1237.062</ele>
      <time>2021-10-12T12:14:38Z</time>
    </trkpt>
    <trkpt lat="38.636593977" lon="34.80818904">
      <ele>1236.684</ele>
      <time>2021-10-12T12:14:39Z</time>
    </trkpt>
    <trkpt lat="38.636608981" lon="34.808230028">
      <ele>1236.246</ele>
      <time>2021-10-12T12:14:40Z</time>
    </trkpt>
    <trkpt lat="38.636633037" lon="34.808263974">
      <ele>1235.84</ele>
      <time>2021-10-12T12:14:42Z</time>
    </trkpt>
    <trkpt lat="38.63666296" lon="34.808281995">
      <ele>1235.565</ele>
      <time>2021-10-12T12:14:43Z</time>
    </trkpt>
    <trkpt lat="38.636703026" lon="34.80829197">
      <ele>1235.146</ele>
      <time>2021-10-12T12:14:44Z</time>
    </trkpt>
    <trkpt lat="38.636738984" lon="34.808295993">
      <ele>1234.813</ele>
      <time>2021-10-12T12:14:46Z</time>
    </trkpt>
    <trkpt lat="38.636779971" lon="34.808302028">
      <ele>1234.43</ele>
      <time>2021-10-12T12:14:47Z</time>
    </trkpt>
    <trkpt lat="38.636816014" lon="34.808310997">
      <ele>1234.079</ele>
      <time>2021-10-12T12:14:49Z</time>
    </trkpt>
    <trkpt lat="38.636852978" lon="34.808328012">
      <ele>1233.69</ele>
      <time>2021-10-12T12:14:50Z</time>
    </trkpt>
    <trkpt lat="38.63688902" lon="34.808351984">
      <ele>1233.184</ele>
      <time>2021-10-12T12:14:52Z</time>
    </trkpt>
    <trkpt lat="38.636921039" lon="34.808378974">
      <ele>1232.662</ele>
      <time>2021-10-12T12:14:53Z</time>
    </trkpt>
    <trkpt lat="38.63695004" lon="34.808410993">
      <ele>1232.092</ele>
      <time>2021-10-12T12:14:54Z</time>
    </trkpt>
    <trkpt lat="38.636979042" lon="34.808447035">
      <ele>1231.376</ele>
      <time>2021-10-12T12:14:56Z</time>
    </trkpt>
    <trkpt lat="38.637002008" lon="34.808483999">
      <ele>1230.769</ele>
      <time>2021-10-12T12:14:57Z</time>
    </trkpt>
    <trkpt lat="38.637023969" lon="34.808522975">
      <ele>1230.198</ele>
      <time>2021-10-12T12:14:59Z</time>
    </trkpt>
    <trkpt lat="38.637044001" lon="34.808571003">
      <ele>1229.613</ele>
      <time>2021-10-12T12:15:00Z</time>
    </trkpt>
    <trkpt lat="38.637066968" lon="34.808678962">
      <ele>1228.277</ele>
      <time>2021-10-12T12:15:03Z</time>
    </trkpt>
    <trkpt lat="38.637074009" lon="34.808733026">
      <ele>1227.546</ele>
      <time>2021-10-12T12:15:05Z</time>
    </trkpt>
    <trkpt lat="38.637079038" lon="34.808787005">
      <ele>1226.824</ele>
      <time>2021-10-12T12:15:07Z</time>
    </trkpt>
    <trkpt lat="38.637085995" lon="34.808838973">
      <ele>1226.102</ele>
      <time>2021-10-12T12:15:08Z</time>
    </trkpt>
    <trkpt lat="38.637089012" lon="34.808885995">
      <ele>1225.475</ele>
      <time>2021-10-12T12:15:10Z</time>
    </trkpt>
    <trkpt lat="38.637093036" lon="34.808933018">
      <ele>1224.919</ele>
      <time>2021-10-12T12:15:11Z</time>
    </trkpt>
    <trkpt lat="38.637096975" lon="34.80898004">
      <ele>1224.368</ele>
      <time>2021-10-12T12:15:12Z</time>
    </trkpt>
    <trkpt lat="38.637106027" lon="34.809024967">
      <ele>1223.785</ele>
      <time>2021-10-12T12:15:14Z</time>
    </trkpt>
    <trkpt lat="38.637114996" lon="34.80907199">
      <ele>1223.181</ele>
      <time>2021-10-12T12:15:15Z</time>
    </trkpt>
    <trkpt lat="38.637119019" lon="34.809121024">
      <ele>1222.608</ele>
      <time>2021-10-12T12:15:16Z</time>
    </trkpt>
    <trkpt lat="38.637122959" lon="34.809176009">
      <ele>1221.959</ele>
      <time>2021-10-12T12:15:18Z</time>
    </trkpt>
    <trkpt lat="38.63713" lon="34.809223032">
      <ele>1221.32</ele>
      <time>2021-10-12T12:15:19Z</time>
    </trkpt>
    <trkpt lat="38.637139974" lon="34.809268964">
      <ele>1220.674</ele>
      <time>2021-10-12T12:15:21Z</time>
    </trkpt>
    <trkpt lat="38.637150032" lon="34.809313975">
      <ele>1220.051</ele>
      <time>2021-10-12T12:15:22Z</time>
    </trkpt>
    <trkpt lat="38.637159001" lon="34.809360998">
      <ele>1219.425</ele>
      <time>2021-10-12T12:15:24Z</time>
    </trkpt>
    <trkpt lat="38.637166964" lon="34.809406009">
      <ele>1218.84</ele>
      <time>2021-10-12T12:15:25Z</time>
    </trkpt>
    <trkpt lat="38.637161013" lon="34.809450014">
      <ele>1218.441</ele>
      <time>2021-10-12T12:15:26Z</time>
    </trkpt>
    <trkpt lat="38.63715196" lon="34.809498964">
      <ele>1218.506</ele>
      <time>2021-10-12T12:15:28Z</time>
    </trkpt>
    <trkpt lat="38.637126982" lon="34.809532994">
      <ele>1218.686</ele>
      <time>2021-10-12T12:15:29Z</time>
    </trkpt>
    <trkpt lat="38.637099992" lon="34.809566019">
      <ele>1218.88</ele>
      <time>2021-10-12T12:15:30Z</time>
    </trkpt>
    <trkpt lat="38.637087001" lon="34.809604995">
      <ele>1218.974</ele>
      <time>2021-10-12T12:15:32Z</time>
    </trkpt>
    <trkpt lat="38.637087001" lon="34.809639025">
      <ele>1218.974</ele>
      <time>2021-10-12T12:15:33Z</time>
    </trkpt>
    <trkpt lat="38.637097981" lon="34.809679007">
      <ele>1218.895</ele>
      <time>2021-10-12T12:15:34Z</time>
    </trkpt>
    <trkpt lat="38.637106027" lon="34.809716977">
      <ele>1218.837</ele>
      <time>2021-10-12T12:15:35Z</time>
    </trkpt>
    <trkpt lat="38.637109967" lon="34.809752014">
      <ele>1218.959</ele>
      <time>2021-10-12T12:15:36Z</time>
    </trkpt>
    <trkpt lat="38.637119019" lon="34.809782021">
      <ele>1219.038</ele>
      <time>2021-10-12T12:15:37Z</time>
    </trkpt>
    <trkpt lat="38.63714098" lon="34.809800042">
      <ele>1218.947</ele>
      <time>2021-10-12T12:15:38Z</time>
    </trkpt>
    <trkpt lat="38.637160007" lon="34.809818985">
      <ele>1218.874</ele>
      <time>2021-10-12T12:15:39Z</time>
    </trkpt>
    <trkpt lat="38.63716403" lon="34.809860978">
      <ele>1219.023</ele>
      <time>2021-10-12T12:15:40Z</time>
    </trkpt>
    <trkpt lat="38.63716403" lon="34.809901966">
      <ele>1219.202</ele>
      <time>2021-10-12T12:15:41Z</time>
    </trkpt>
    <trkpt lat="38.63716403" lon="34.80993499">
      <ele>1219.345</ele>
      <time>2021-10-12T12:15:42Z</time>
    </trkpt>
    <trkpt lat="38.63716797" lon="34.810003974">
      <ele>1219.626</ele>
      <time>2021-10-12T12:15:44Z</time>
    </trkpt>
    <trkpt lat="38.637159001" lon="34.810047979">
      <ele>1220.162</ele>
      <time>2021-10-12T12:15:46Z</time>
    </trkpt>
    <trkpt lat="38.637148021" lon="34.810075974">
      <ele>1220.549</ele>
      <time>2021-10-12T12:15:46Z</time>
    </trkpt>
    <trkpt lat="38.637143997" lon="34.810098018">
      <ele>1220.804</ele>
      <time>2021-10-12T12:15:47Z</time>
    </trkpt>
    <trkpt lat="38.637137963" lon="34.810125008">
      <ele>1221.124</ele>
      <time>2021-10-12T12:15:48Z</time>
    </trkpt>
    <trkpt lat="38.637125976" lon="34.810169013">
      <ele>1221.654</ele>
      <time>2021-10-12T12:15:49Z</time>
    </trkpt>
    <trkpt lat="38.637110973" lon="34.810189968">
      <ele>1221.979</ele>
      <time>2021-10-12T12:15:50Z</time>
    </trkpt>
    <trkpt lat="38.637097981" lon="34.810205977">
      <ele>1222.235</ele>
      <time>2021-10-12T12:15:51Z</time>
    </trkpt>
    <trkpt lat="38.637080966" lon="34.810243025">
      <ele>1222.705</ele>
      <time>2021-10-12T12:15:52Z</time>
    </trkpt>
    <trkpt lat="38.637065962" lon="34.810280995">
      <ele>1223.178</ele>
      <time>2021-10-12T12:15:53Z</time>
    </trkpt>
    <trkpt lat="38.637046013" lon="34.810407981">
      <ele>1225.441</ele>
      <time>2021-10-12T12:15:57Z</time>
    </trkpt>
    <trkpt lat="38.637036039" lon="34.810452992">
      <ele>1226.286</ele>
      <time>2021-10-12T12:15:58Z</time>
    </trkpt>
    <trkpt lat="38.637030004" lon="34.810475959">
      <ele>1226.731</ele>
      <time>2021-10-12T12:15:59Z</time>
    </trkpt>
    <trkpt lat="38.637021035" lon="34.810513007">
      <ele>1227.449</ele>
      <time>2021-10-12T12:16:00Z</time>
    </trkpt>
    <trkpt lat="38.637023969" lon="34.810545025">
      <ele>1227.962</ele>
      <time>2021-10-12T12:16:01Z</time>
    </trkpt>
    <trkpt lat="38.637031009" lon="34.810571009">
      <ele>1228.326</ele>
      <time>2021-10-12T12:16:02Z</time>
    </trkpt>
    <trkpt lat="38.637047019" lon="34.810590958">
      <ele>1228.482</ele>
      <time>2021-10-12T12:16:03Z</time>
    </trkpt>
    <trkpt lat="38.637063028" lon="34.810614008">
      <ele>1228.682</ele>
      <time>2021-10-12T12:16:04Z</time>
    </trkpt>
    <trkpt lat="38.637067974" lon="34.810662037">
      <ele>1229.412</ele>
      <time>2021-10-12T12:16:05Z</time>
    </trkpt>
    <trkpt lat="38.637075014" lon="34.810690032">
      <ele>1229.783</ele>
      <time>2021-10-12T12:16:06Z</time>
    </trkpt>
    <trkpt lat="38.637077026" lon="34.810716016">
      <ele>1230.181</ele>
      <time>2021-10-12T12:16:07Z</time>
    </trkpt>
    <trkpt lat="38.637073003" lon="34.810738983">
      <ele>1230.608</ele>
      <time>2021-10-12T12:16:07Z</time>
    </trkpt>
    <trkpt lat="38.637075014" lon="34.810767984">
      <ele>1231.054</ele>
      <time>2021-10-12T12:16:08Z</time>
    </trkpt>
    <trkpt lat="38.637084989" lon="34.810797991">
      <ele>1231.404</ele>
      <time>2021-10-12T12:16:09Z</time>
    </trkpt>
    <trkpt lat="38.63713" lon="34.81084602">
      <ele>1231.541</ele>
      <time>2021-10-12T12:16:11Z</time>
    </trkpt>
    <trkpt lat="38.637157995" lon="34.810864963">
      <ele>1231.468</ele>
      <time>2021-10-12T12:16:12Z</time>
    </trkpt>
    <trkpt lat="38.637181967" lon="34.810886001">
      <ele>1231.5</ele>
      <time>2021-10-12T12:16:14Z</time>
    </trkpt>
    <trkpt lat="38.637196971" lon="34.810899999">
      <ele>1231.542</ele>
      <time>2021-10-12T12:16:14Z</time>
    </trkpt>
    <trkpt lat="38.63721801" lon="34.81091802">
      <ele>1231.58</ele>
      <time>2021-10-12T12:16:15Z</time>
    </trkpt>
    <trkpt lat="38.637244999" lon="34.810944004">
      <ele>1231.927</ele>
      <time>2021-10-12T12:16:16Z</time>
    </trkpt>
    <trkpt lat="38.637277018" lon="34.810959008">
      <ele>1232.084</ele>
      <time>2021-10-12T12:16:18Z</time>
    </trkpt>
    <trkpt lat="38.637303002" lon="34.810980968">
      <ele>1232.348</ele>
      <time>2021-10-12T12:16:19Z</time>
    </trkpt>
    <trkpt lat="38.637322029" lon="34.811010975">
      <ele>1232.738</ele>
      <time>2021-10-12T12:16:20Z</time>
    </trkpt>
    <trkpt lat="38.637320017" lon="34.811038971">
      <ele>1233.18</ele>
      <time>2021-10-12T12:16:21Z</time>
    </trkpt>
    <trkpt lat="38.637307025" lon="34.811068978">
      <ele>1233.724</ele>
      <time>2021-10-12T12:16:22Z</time>
    </trkpt>
    <trkpt lat="38.63729001" lon="34.81109798">
      <ele>1234.299</ele>
      <time>2021-10-12T12:16:23Z</time>
    </trkpt>
    <trkpt lat="38.63726696" lon="34.811126981">
      <ele>1234.858</ele>
      <time>2021-10-12T12:16:24Z</time>
    </trkpt>
    <trkpt lat="38.63723997" lon="34.811149025">
      <ele>1235.29</ele>
      <time>2021-10-12T12:16:25Z</time>
    </trkpt>
    <trkpt lat="38.637214992" lon="34.811165035">
      <ele>1235.66</ele>
      <time>2021-10-12T12:16:26Z</time>
    </trkpt>
    <trkpt lat="38.637195965" lon="34.81118096">
      <ele>1236.038</ele>
      <time>2021-10-12T12:16:27Z</time>
    </trkpt>
    <trkpt lat="38.637196971" lon="34.811219014">
      <ele>1236.438</ele>
      <time>2021-10-12T12:16:28Z</time>
    </trkpt>
    <trkpt lat="38.637209963" lon="34.811240975">
      <ele>1236.535</ele>
      <time>2021-10-12T12:16:29Z</time>
    </trkpt>
    <trkpt lat="38.63722899" lon="34.811261008">
      <ele>1236.583</ele>
      <time>2021-10-12T12:16:30Z</time>
    </trkpt>
    <trkpt lat="38.637251034" lon="34.811280034">
      <ele>1236.68</ele>
      <time>2021-10-12T12:16:31Z</time>
    </trkpt>
    <trkpt lat="38.637278024" lon="34.811305013">
      <ele>1236.833</ele>
      <time>2021-10-12T12:16:32Z</time>
    </trkpt>
    <trkpt lat="38.637299985" lon="34.811329991">
      <ele>1237.025</ele>
      <time>2021-10-12T12:16:33Z</time>
    </trkpt>
    <trkpt lat="38.637324963" lon="34.811357986">
      <ele>1237.255</ele>
      <time>2021-10-12T12:16:34Z</time>
    </trkpt>
    <trkpt lat="38.637350025" lon="34.811392017">
      <ele>1237.562</ele>
      <time>2021-10-12T12:16:36Z</time>
    </trkpt>
    <trkpt lat="38.63737802" lon="34.811424036">
      <ele>1237.692</ele>
      <time>2021-10-12T12:16:37Z</time>
    </trkpt>
    <trkpt lat="38.637404004" lon="34.811456976">
      <ele>1237.836</ele>
      <time>2021-10-12T12:16:39Z</time>
    </trkpt>
    <trkpt lat="38.637432" lon="34.811488995">
      <ele>1237.966</ele>
      <time>2021-10-12T12:16:40Z</time>
    </trkpt>
    <trkpt lat="38.637458989" lon="34.811519003">
      <ele>1238.084</ele>
      <time>2021-10-12T12:16:41Z</time>
    </trkpt>
    <trkpt lat="38.637484973" lon="34.811552027">
      <ele>1238.229</ele>
      <time>2021-10-12T12:16:43Z</time>
    </trkpt>
    <trkpt lat="38.637511041" lon="34.811583962">
      <ele>1238.337</ele>
      <time>2021-10-12T12:16:44Z</time>
    </trkpt>
    <trkpt lat="38.637540964" lon="34.811614975">
      <ele>1238.36</ele>
      <time>2021-10-12T12:16:45Z</time>
    </trkpt>
    <trkpt lat="38.637566026" lon="34.811640037">
      <ele>1238.356</ele>
      <time>2021-10-12T12:16:47Z</time>
    </trkpt>
    <trkpt lat="38.637595028" lon="34.811666021">
      <ele>1238.312</ele>
      <time>2021-10-12T12:16:48Z</time>
    </trkpt>
    <trkpt lat="38.637624029" lon="34.811689993">
      <ele>1237.977</ele>
      <time>2021-10-12T12:16:49Z</time>
    </trkpt>
    <trkpt lat="38.637657976" lon="34.811713966">
      <ele>1237.619</ele>
      <time>2021-10-12T12:16:51Z</time>
    </trkpt>
    <trkpt lat="38.637692006" lon="34.811738022">
      <ele>1237.281</ele>
      <time>2021-10-12T12:16:52Z</time>
    </trkpt>
    <trkpt lat="38.637724025" lon="34.811759982">
      <ele>1236.986</ele>
      <time>2021-10-12T12:16:53Z</time>
    </trkpt>
    <trkpt lat="38.63775596" lon="34.811779009">
      <ele>1236.721</ele>
      <time>2021-10-12T12:16:55Z</time>
    </trkpt>
    <trkpt lat="38.637790997" lon="34.81180097">
      <ele>1236.446</ele>
      <time>2021-10-12T12:16:56Z</time>
    </trkpt>
    <trkpt lat="38.637825027" lon="34.811818991">
      <ele>1236.188</ele>
      <time>2021-10-12T12:16:57Z</time>
    </trkpt>
    <trkpt lat="38.637861991" lon="34.811837012">
      <ele>1235.898</ele>
      <time>2021-10-12T12:16:59Z</time>
    </trkpt>
    <trkpt lat="38.637898033" lon="34.811856961">
      <ele>1235.585</ele>
      <time>2021-10-12T12:17:00Z</time>
    </trkpt>
    <trkpt lat="38.637936004" lon="34.811874982">
      <ele>1235.253</ele>
      <time>2021-10-12T12:17:02Z</time>
    </trkpt>
    <trkpt lat="38.637972968" lon="34.811889986">
      <ele>1234.928</ele>
      <time>2021-10-12T12:17:03Z</time>
    </trkpt>
    <trkpt lat="38.638006998" lon="34.811900966">
      <ele>1234.635</ele>
      <time>2021-10-12T12:17:05Z</time>
    </trkpt>
    <trkpt lat="38.638044968" lon="34.811920999">
      <ele>1234.242</ele>
      <time>2021-10-12T12:17:06Z</time>
    </trkpt>
    <trkpt lat="38.638084028" lon="34.811943965">
      <ele>1233.594</ele>
      <time>2021-10-12T12:17:08Z</time>
    </trkpt>
    <trkpt lat="38.638120992" lon="34.811971039">
      <ele>1232.866</ele>
      <time>2021-10-12T12:17:09Z</time>
    </trkpt>
    <trkpt lat="38.638157034" lon="34.811999034">
      <ele>1232.146</ele>
      <time>2021-10-12T12:17:11Z</time>
    </trkpt>
    <trkpt lat="38.638195004" lon="34.81202703">
      <ele>1231.397</ele>
      <time>2021-10-12T12:17:13Z</time>
    </trkpt>
    <trkpt lat="38.638234986" lon="34.812055025">
      <ele>1230.62</ele>
      <time>2021-10-12T12:17:14Z</time>
    </trkpt>
    <trkpt lat="38.638272034" lon="34.81207598">
      <ele>1229.936</ele>
      <time>2021-10-12T12:17:16Z</time>
    </trkpt>
    <trkpt lat="38.638310004" lon="34.812095007">
      <ele>1229.252</ele>
      <time>2021-10-12T12:17:17Z</time>
    </trkpt>
    <trkpt lat="38.638344035" lon="34.812106993">
      <ele>1228.63</ele>
      <time>2021-10-12T12:17:19Z</time>
    </trkpt>
    <trkpt lat="38.63838301" lon="34.812120991">
      <ele>1227.786</ele>
      <time>2021-10-12T12:17:20Z</time>
    </trkpt>
    <trkpt lat="38.638422992" lon="34.812132977">
      <ele>1226.913</ele>
      <time>2021-10-12T12:17:22Z</time>
    </trkpt>
    <trkpt lat="38.638462974" lon="34.812147981">
      <ele>1225.984</ele>
      <time>2021-10-12T12:17:23Z</time>
    </trkpt>
    <trkpt lat="38.638503961" lon="34.812166002">
      <ele>1224.968</ele>
      <time>2021-10-12T12:17:25Z</time>
    </trkpt>
    <trkpt lat="38.638547966" lon="34.812185029">
      <ele>1223.839</ele>
      <time>2021-10-12T12:17:26Z</time>
    </trkpt>
    <trkpt lat="38.638581997" lon="34.812201038">
      <ele>1222.918</ele>
      <time>2021-10-12T12:17:28Z</time>
    </trkpt>
    <trkpt lat="38.638615021" lon="34.812219981">
      <ele>1222.06</ele>
      <time>2021-10-12T12:17:29Z</time>
    </trkpt>
    <trkpt lat="38.63865098" lon="34.81224102">
      <ele>1222.258</ele>
      <time>2021-10-12T12:17:31Z</time>
    </trkpt>
    <trkpt lat="38.638687022" lon="34.812260969">
      <ele>1222.432</ele>
      <time>2021-10-12T12:17:32Z</time>
    </trkpt>
    <trkpt lat="38.638724992" lon="34.812284019">
      <ele>1222.546</ele>
      <time>2021-10-12T12:17:34Z</time>
    </trkpt>
    <trkpt lat="38.638754999" lon="34.812304974">
      <ele>1222.573</ele>
      <time>2021-10-12T12:17:35Z</time>
    </trkpt>
    <trkpt lat="38.638782995" lon="34.812326012">
      <ele>1222.544</ele>
      <time>2021-10-12T12:17:36Z</time>
    </trkpt>
    <trkpt lat="38.638809985" lon="34.812348979">
      <ele>1222.452</ele>
      <time>2021-10-12T12:17:37Z</time>
    </trkpt>
    <trkpt lat="38.638842003" lon="34.81237404">
      <ele>1222.3</ele>
      <time>2021-10-12T12:17:39Z</time>
    </trkpt>
    <trkpt lat="38.638873016" lon="34.812398013">
      <ele>1222.096</ele>
      <time>2021-10-12T12:17:40Z</time>
    </trkpt>
    <trkpt lat="38.638903024" lon="34.812422991">
      <ele>1221.854</ele>
      <time>2021-10-12T12:17:41Z</time>
    </trkpt>
    <trkpt lat="38.63893697" lon="34.812446041">
      <ele>1221.689</ele>
      <time>2021-10-12T12:17:43Z</time>
    </trkpt>
    <trkpt lat="38.638972007" lon="34.81246599">
      <ele>1221.593</ele>
      <time>2021-10-12T12:17:44Z</time>
    </trkpt>
    <trkpt lat="38.639011988" lon="34.812486023">
      <ele>1221.55</ele>
      <time>2021-10-12T12:17:46Z</time>
    </trkpt>
    <trkpt lat="38.639049958" lon="34.812503038">
      <ele>1221.536</ele>
      <time>2021-10-12T12:17:47Z</time>
    </trkpt>
    <trkpt lat="38.639090024" lon="34.812526004">
      <ele>1221.35</ele>
      <time>2021-10-12T12:17:49Z</time>
    </trkpt>
    <trkpt lat="38.639125982" lon="34.812557017">
      <ele>1221.032</ele>
      <time>2021-10-12T12:17:50Z</time>
    </trkpt>
    <trkpt lat="38.639154984" lon="34.812596999">
      <ele>1220.561</ele>
      <time>2021-10-12T12:17:52Z</time>
    </trkpt>
    <trkpt lat="38.639178034" lon="34.812644022">
      <ele>1219.887</ele>
      <time>2021-10-12T12:17:54Z</time>
    </trkpt>
    <trkpt lat="38.639198989" lon="34.812691966">
      <ele>1219.164</ele>
      <time>2021-10-12T12:17:55Z</time>
    </trkpt>
    <trkpt lat="38.639220027" lon="34.812738989">
      <ele>1218.505</ele>
      <time>2021-10-12T12:17:57Z</time>
    </trkpt>
    <trkpt lat="38.639235031" lon="34.812781988">
      <ele>1217.928</ele>
      <time>2021-10-12T12:17:58Z</time>
    </trkpt>
    <trkpt lat="38.639250034" lon="34.81281803">
      <ele>1217.319</ele>
      <time>2021-10-12T12:17:59Z</time>
    </trkpt>
    <trkpt lat="38.639274007" lon="34.812847031">
      <ele>1216.85</ele>
      <time>2021-10-12T12:18:01Z</time>
    </trkpt>
    <trkpt lat="38.63930502" lon="34.812867986">
      <ele>1216.538</ele>
      <time>2021-10-12T12:18:02Z</time>
    </trkpt>
    <trkpt lat="38.639345001" lon="34.812877961">
      <ele>1216.428</ele>
      <time>2021-10-12T12:18:03Z</time>
    </trkpt>
    <trkpt lat="38.639383977" lon="34.812875027">
      <ele>1216.523</ele>
      <time>2021-10-12T12:18:05Z</time>
    </trkpt>
    <trkpt lat="38.639425971" lon="34.812863041">
      <ele>1216.752</ele>
      <time>2021-10-12T12:18:06Z</time>
    </trkpt>
    <trkpt lat="38.639463019" lon="34.812846025">
      <ele>1216.916</ele>
      <time>2021-10-12T12:18:08Z</time>
    </trkpt>
    <trkpt lat="38.639505012" lon="34.812831022">
      <ele>1216.881</ele>
      <time>2021-10-12T12:18:09Z</time>
    </trkpt>
    <trkpt lat="38.639548011" lon="34.812819036">
      <ele>1216.771</ele>
      <time>2021-10-12T12:18:11Z</time>
    </trkpt>
    <trkpt lat="38.639588999" lon="34.812806966">
      <ele>1216.648</ele>
      <time>2021-10-12T12:18:13Z</time>
    </trkpt>
    <trkpt lat="38.639625963" lon="34.81280596">
      <ele>1216.42</ele>
      <time>2021-10-12T12:18:14Z</time>
    </trkpt>
    <trkpt lat="38.639664017" lon="34.812807972">
      <ele>1216.156</ele>
      <time>2021-10-12T12:18:15Z</time>
    </trkpt>
    <trkpt lat="38.639702993" lon="34.812810989">
      <ele>1215.883</ele>
      <time>2021-10-12T12:18:17Z</time>
    </trkpt>
    <trkpt lat="38.639740041" lon="34.812811995">
      <ele>1215.577</ele>
      <time>2021-10-12T12:18:18Z</time>
    </trkpt>
    <trkpt lat="38.639779016" lon="34.812814007">
      <ele>1215.179</ele>
      <time>2021-10-12T12:18:20Z</time>
    </trkpt>
    <trkpt lat="38.639824027" lon="34.812820042">
      <ele>1214.708</ele>
      <time>2021-10-12T12:18:21Z</time>
    </trkpt>
    <trkpt lat="38.639864009" lon="34.812823981">
      <ele>1214.306</ele>
      <time>2021-10-12T12:18:23Z</time>
    </trkpt>
    <trkpt lat="38.639903991" lon="34.812825993">
      <ele>1213.917</ele>
      <time>2021-10-12T12:18:24Z</time>
    </trkpt>
    <trkpt lat="38.639950007" lon="34.812831022">
      <ele>1213.471</ele>
      <time>2021-10-12T12:18:26Z</time>
    </trkpt>
    <trkpt lat="38.639993006" lon="34.812837979">
      <ele>1213.065</ele>
      <time>2021-10-12T12:18:28Z</time>
    </trkpt>
    <trkpt lat="38.640031982" lon="34.812849965">
      <ele>1212.484</ele>
      <time>2021-10-12T12:18:29Z</time>
    </trkpt>
    <trkpt lat="38.640071042" lon="34.812864969">
      <ele>1211.882</ele>
      <time>2021-10-12T12:18:31Z</time>
    </trkpt>
    <trkpt lat="38.640110018" lon="34.812877961">
      <ele>1211.305</ele>
      <time>2021-10-12T12:18:32Z</time>
    </trkpt>
    <trkpt lat="38.640148994" lon="34.812895982">
      <ele>1210.775</ele>
      <time>2021-10-12T12:18:34Z</time>
    </trkpt>
    <trkpt lat="38.640188975" lon="34.812906962">
      <ele>1210.231</ele>
      <time>2021-10-12T12:18:35Z</time>
    </trkpt>
    <trkpt lat="38.640229041" lon="34.812912997">
      <ele>1209.68</ele>
      <time>2021-10-12T12:18:37Z</time>
    </trkpt>
    <trkpt lat="38.640273968" lon="34.812916014">
      <ele>1209.05</ele>
      <time>2021-10-12T12:18:38Z</time>
    </trkpt>
    <trkpt lat="38.640315961" lon="34.812914003">
      <ele>1208.636</ele>
      <time>2021-10-12T12:18:40Z</time>
    </trkpt>
    <trkpt lat="38.640355021" lon="34.812907968">
      <ele>1208.233</ele>
      <time>2021-10-12T12:18:41Z</time>
    </trkpt>
    <trkpt lat="38.640396008" lon="34.81290604">
      <ele>1207.843</ele>
      <time>2021-10-12T12:18:43Z</time>
    </trkpt>
    <trkpt lat="38.640433978" lon="34.812903022">
      <ele>1207.468</ele>
      <time>2021-10-12T12:18:44Z</time>
    </trkpt>
    <trkpt lat="38.640474966" lon="34.812905034">
      <ele>1207.112</ele>
      <time>2021-10-12T12:18:46Z</time>
    </trkpt>
    <trkpt lat="38.640516959" lon="34.812904028">
      <ele>1206.717</ele>
      <time>2021-10-12T12:18:47Z</time>
    </trkpt>
    <trkpt lat="38.640556019" lon="34.812904028">
      <ele>1206.359</ele>
      <time>2021-10-12T12:18:49Z</time>
    </trkpt>
    <trkpt lat="38.640598012" lon="34.812906962">
      <ele>1205.937</ele>
      <time>2021-10-12T12:18:50Z</time>
    </trkpt>
    <trkpt lat="38.64063397" lon="34.81290604">
      <ele>1205.538</ele>
      <time>2021-10-12T12:18:52Z</time>
    </trkpt>
    <trkpt lat="38.640677975" lon="34.812906962">
      <ele>1205.073</ele>
      <time>2021-10-12T12:18:53Z</time>
    </trkpt>
    <trkpt lat="38.640717035" lon="34.812904028">
      <ele>1204.62</ele>
      <time>2021-10-12T12:18:55Z</time>
    </trkpt>
    <trkpt lat="38.640757017" lon="34.812898999">
      <ele>1204.133</ele>
      <time>2021-10-12T12:18:56Z</time>
    </trkpt>
    <trkpt lat="38.640803033" lon="34.812894976">
      <ele>1203.593</ele>
      <time>2021-10-12T12:18:58Z</time>
    </trkpt>
    <trkpt lat="38.640838992" lon="34.812886007">
      <ele>1203.07</ele>
      <time>2021-10-12T12:18:59Z</time>
    </trkpt>
    <trkpt lat="38.640877968" lon="34.812878966">
      <ele>1202.304</ele>
      <time>2021-10-12T12:19:01Z</time>
    </trkpt>
    <trkpt lat="38.64091401" lon="34.812872009">
      <ele>1201.571</ele>
      <time>2021-10-12T12:19:02Z</time>
    </trkpt>
    <trkpt lat="38.640949968" lon="34.812872009">
      <ele>1200.926</ele>
      <time>2021-10-12T12:19:03Z</time>
    </trkpt>
    <trkpt lat="38.640979975" lon="34.812881984">
      <ele>1200.552</ele>
      <time>2021-10-12T12:19:05Z</time>
    </trkpt>
    <trkpt lat="38.641008977" lon="34.81290604">
      <ele>1200.467</ele>
      <time>2021-10-12T12:19:06Z</time>
    </trkpt>
    <trkpt lat="38.641037978" lon="34.812936969">
      <ele>1200.566</ele>
      <time>2021-10-12T12:19:07Z</time>
    </trkpt>
    <trkpt lat="38.641064968" lon="34.812967982">
      <ele>1200.764</ele>
      <time>2021-10-12T12:19:09Z</time>
    </trkpt>
    <trkpt lat="38.641097993" lon="34.813001007">
      <ele>1200.991</ele>
      <time>2021-10-12T12:19:10Z</time>
    </trkpt>
    <trkpt lat="38.641128" lon="34.813019028">
      <ele>1200.793</ele>
      <time>2021-10-12T12:19:11Z</time>
    </trkpt>
    <trkpt lat="38.641155995" lon="34.81303202">
      <ele>1200.374</ele>
      <time>2021-10-12T12:19:12Z</time>
    </trkpt>
    <trkpt lat="38.641179968" lon="34.813029002">
      <ele>1199.715</ele>
      <time>2021-10-12T12:19:13Z</time>
    </trkpt>
    <trkpt lat="38.641206035" lon="34.81301601">
      <ele>1198.802</ele>
      <time>2021-10-12T12:19:14Z</time>
    </trkpt>
    <trkpt lat="38.641222967" lon="34.812997989">
      <ele>1198.021</ele>
      <time>2021-10-12T12:19:15Z</time>
    </trkpt>
    <trkpt lat="38.641221961" lon="34.812975023">
      <ele>1197.583</ele>
      <time>2021-10-12T12:19:16Z</time>
    </trkpt>
    <trkpt lat="38.641202012" lon="34.812955996">
      <ele>1197.676</ele>
      <time>2021-10-12T12:19:17Z</time>
    </trkpt>
    <trkpt lat="38.641172005" lon="34.812947027">
      <ele>1198.207</ele>
      <time>2021-10-12T12:19:18Z</time>
    </trkpt>
    <trkpt lat="38.641152978" lon="34.812931018">
      <ele>1198.323</ele>
      <time>2021-10-12T12:19:19Z</time>
    </trkpt>
    <trkpt lat="38.641149038" lon="34.812907968">
      <ele>1197.929</ele>
      <time>2021-10-12T12:19:20Z</time>
    </trkpt>
    <trkpt lat="38.641153984" lon="34.812881984">
      <ele>1197.267</ele>
      <time>2021-10-12T12:19:20Z</time>
    </trkpt>
    <trkpt lat="38.64116203" lon="34.812814007">
      <ele>1195.659</ele>
      <time>2021-10-12T12:19:22Z</time>
    </trkpt>
    <trkpt lat="38.64117804" lon="34.812788023">
      <ele>1194.767</ele>
      <time>2021-10-12T12:19:23Z</time>
    </trkpt>
    <trkpt lat="38.64119296" lon="34.812752986">
      <ele>1193.697</ele>
      <time>2021-10-12T12:19:24Z</time>
    </trkpt>
    <trkpt lat="38.6412" lon="34.812709987">
      <ele>1192.616</ele>
      <time>2021-10-12T12:19:26Z</time>
    </trkpt>
    <trkpt lat="38.64123797" lon="34.812589036">
      <ele>1189.183</ele>
      <time>2021-10-12T12:19:29Z</time>
    </trkpt>
    <trkpt lat="38.641224978" lon="34.812550982">
      <ele>1188.642</ele>
      <time>2021-10-12T12:19:31Z</time>
    </trkpt>
    <trkpt lat="38.641215004" lon="34.812518964">
      <ele>1188.166</ele>
      <time>2021-10-12T12:19:32Z</time>
    </trkpt>
    <trkpt lat="38.641225984" lon="34.812494991">
      <ele>1187.443</ele>
      <time>2021-10-12T12:19:32Z</time>
    </trkpt>
    <trkpt lat="38.64125004" lon="34.812479988">
      <ele>1186.711</ele>
      <time>2021-10-12T12:19:33Z</time>
    </trkpt>
    <trkpt lat="38.641275018" lon="34.812478982">
      <ele>1186.171</ele>
      <time>2021-10-12T12:19:34Z</time>
    </trkpt>
    <trkpt lat="38.641307037" lon="34.812484011">
      <ele>1185.561</ele>
      <time>2021-10-12T12:19:36Z</time>
    </trkpt>
    <trkpt lat="38.641340984" lon="34.812486023">
      <ele>1184.866</ele>
      <time>2021-10-12T12:19:37Z</time>
    </trkpt>
    <trkpt lat="38.641375015" lon="34.812489962">
      <ele>1184.188</ele>
      <time>2021-10-12T12:19:38Z</time>
    </trkpt>
    <trkpt lat="38.641410973" lon="34.812486023">
      <ele>1183.611</ele>
      <time>2021-10-12T12:19:39Z</time>
    </trkpt>
    <trkpt lat="38.641442992" lon="34.812489962">
      <ele>1183.307</ele>
      <time>2021-10-12T12:19:41Z</time>
    </trkpt>
    <trkpt lat="38.641470987" lon="34.81250396">
      <ele>1183.195</ele>
      <time>2021-10-12T12:19:42Z</time>
    </trkpt>
    <trkpt lat="38.641502" lon="34.812517036">
      <ele>1183.121</ele>
      <time>2021-10-12T12:19:43Z</time>
    </trkpt>
    <trkpt lat="38.641537037" lon="34.812529022">
      <ele>1182.971</ele>
      <time>2021-10-12T12:19:44Z</time>
    </trkpt>
    <trkpt lat="38.641566038" lon="34.812538996">
      <ele>1182.84</ele>
      <time>2021-10-12T12:19:45Z</time>
    </trkpt>
    <trkpt lat="38.641593028" lon="34.812562969">
      <ele>1182.989</ele>
      <time>2021-10-12T12:19:47Z</time>
    </trkpt>
    <trkpt lat="38.641622029" lon="34.812592976">
      <ele>1183.209</ele>
      <time>2021-10-12T12:19:48Z</time>
    </trkpt>
    <trkpt lat="38.641687995" lon="34.812618038">
      <ele>1182.85</ele>
      <time>2021-10-12T12:19:51Z</time>
    </trkpt>
    <trkpt lat="38.641720014" lon="34.812633963">
      <ele>1182.736</ele>
      <time>2021-10-12T12:19:52Z</time>
    </trkpt>
    <trkpt lat="38.641744992" lon="34.81265299">
      <ele>1182.781</ele>
      <time>2021-10-12T12:19:53Z</time>
    </trkpt>
    <trkpt lat="38.641772987" lon="34.812657014">
      <ele>1182.512</ele>
      <time>2021-10-12T12:19:54Z</time>
    </trkpt>
    <trkpt lat="38.641791008" lon="34.812647039">
      <ele>1182.093</ele>
      <time>2021-10-12T12:19:55Z</time>
    </trkpt>
    <trkpt lat="38.641811041" lon="34.812629018">
      <ele>1181.485</ele>
      <time>2021-10-12T12:19:56Z</time>
    </trkpt>
    <trkpt lat="38.641838031" lon="34.812617032">
      <ele>1180.899</ele>
      <time>2021-10-12T12:19:57Z</time>
    </trkpt>
    <trkpt lat="38.641858986" lon="34.812608985">
      <ele>1180.464</ele>
      <time>2021-10-12T12:19:57Z</time>
    </trkpt>
    <trkpt lat="38.641899973" lon="34.81261896">
      <ele>1180.141</ele>
      <time>2021-10-12T12:19:59Z</time>
    </trkpt>
    <trkpt lat="38.641924029" lon="34.812626">
      <ele>1179.982</ele>
      <time>2021-10-12T12:20:00Z</time>
    </trkpt>
    <trkpt lat="38.64195697" lon="34.812630024">
      <ele>1179.583</ele>
      <time>2021-10-12T12:20:01Z</time>
    </trkpt>
    <trkpt lat="38.642030982" lon="34.812646033">
      <ele>1178.597</ele>
      <time>2021-10-12T12:20:04Z</time>
    </trkpt>
    <trkpt lat="38.64206803" lon="34.812659025">
      <ele>1178.21</ele>
      <time>2021-10-12T12:20:05Z</time>
    </trkpt>
    <trkpt lat="38.642107006" lon="34.812674029">
      <ele>1177.833</ele>
      <time>2021-10-12T12:20:07Z</time>
    </trkpt>
    <trkpt lat="38.64214397" lon="34.812696995">
      <ele>1177.664</ele>
      <time>2021-10-12T12:20:08Z</time>
    </trkpt>
    <trkpt lat="38.642170038" lon="34.812721973">
      <ele>1177.734</ele>
      <time>2021-10-12T12:20:10Z</time>
    </trkpt>
    <trkpt lat="38.642196022" lon="34.812748963">
      <ele>1177.849</ele>
      <time>2021-10-12T12:20:11Z</time>
    </trkpt>
    <trkpt lat="38.642224018" lon="34.812772013">
      <ele>1177.837</ele>
      <time>2021-10-12T12:20:12Z</time>
    </trkpt>
    <trkpt lat="38.642254025" lon="34.812800009">
      <ele>1177.784</ele>
      <time>2021-10-12T12:20:13Z</time>
    </trkpt>
    <trkpt lat="38.642281014" lon="34.812820042">
      <ele>1177.611</ele>
      <time>2021-10-12T12:20:15Z</time>
    </trkpt>
    <trkpt lat="38.642306998" lon="34.812849965">
      <ele>1177.649</ele>
      <time>2021-10-12T12:20:16Z</time>
    </trkpt>
    <trkpt lat="38.642331976" lon="34.81289397">
      <ele>1177.974</ele>
      <time>2021-10-12T12:20:17Z</time>
    </trkpt>
    <trkpt lat="38.642355027" lon="34.812926995">
      <ele>1178.098</ele>
      <time>2021-10-12T12:20:19Z</time>
    </trkpt>
    <trkpt lat="38.642382016" lon="34.812959014">
      <ele>1178.088</ele>
      <time>2021-10-12T12:20:20Z</time>
    </trkpt>
    <trkpt lat="38.642413029" lon="34.812990027">
      <ele>1177.938</ele>
      <time>2021-10-12T12:20:22Z</time>
    </trkpt>
    <trkpt lat="38.642440019" lon="34.81300503">
      <ele>1177.563</ele>
      <time>2021-10-12T12:20:23Z</time>
    </trkpt>
    <trkpt lat="38.642543033" lon="34.81303202">
      <ele>1175.248</ele>
      <time>2021-10-12T12:20:27Z</time>
    </trkpt>
    <trkpt lat="38.642614027" lon="34.813117012">
      <ele>1174.1</ele>
      <time>2021-10-12T12:20:30Z</time>
    </trkpt>
    <trkpt lat="38.642668007" lon="34.813182978">
      <ele>1173.114</ele>
      <time>2021-10-12T12:20:33Z</time>
    </trkpt>
    <trkpt lat="38.64269902" lon="34.81320804">
      <ele>1172.354</ele>
      <time>2021-10-12T12:20:34Z</time>
    </trkpt>
    <trkpt lat="38.642728021" lon="34.81321902">
      <ele>1171.483</ele>
      <time>2021-10-12T12:20:35Z</time>
    </trkpt>
    <trkpt lat="38.642754005" lon="34.813228995">
      <ele>1170.697</ele>
      <time>2021-10-12T12:20:36Z</time>
    </trkpt>
    <trkpt lat="38.642774038" lon="34.813243998">
      <ele>1170.165</ele>
      <time>2021-10-12T12:20:37Z</time>
    </trkpt>
    <trkpt lat="38.642792981" lon="34.813265959">
      <ele>1170.024</ele>
      <time>2021-10-12T12:20:38Z</time>
    </trkpt>
    <trkpt lat="38.642818965" lon="34.813280962">
      <ele>1169.712</ele>
      <time>2021-10-12T12:20:39Z</time>
    </trkpt>
    <trkpt lat="38.642843021" lon="34.813286997">
      <ele>1169.325</ele>
      <time>2021-10-12T12:20:40Z</time>
    </trkpt>
    <trkpt lat="38.642867999" lon="34.813296972">
      <ele>1168.914</ele>
      <time>2021-10-12T12:20:41Z</time>
    </trkpt>
    <trkpt lat="38.642895995" lon="34.81330703">
      <ele>1168.404</ele>
      <time>2021-10-12T12:20:42Z</time>
    </trkpt>
    <trkpt lat="38.642921979" lon="34.813312981">
      <ele>1167.894</ele>
      <time>2021-10-12T12:20:43Z</time>
    </trkpt>
    <trkpt lat="38.642948968" lon="34.813315999">
      <ele>1167.346</ele>
      <time>2021-10-12T12:20:44Z</time>
    </trkpt>
    <trkpt lat="38.642979981" lon="34.813323962">
      <ele>1166.679</ele>
      <time>2021-10-12T12:20:45Z</time>
    </trkpt>
    <trkpt lat="38.643037984" lon="34.813395962">
      <ele>1165.648</ele>
      <time>2021-10-12T12:20:48Z</time>
    </trkpt>
    <trkpt lat="38.643054999" lon="34.813448014">
      <ele>1165.427</ele>
      <time>2021-10-12T12:20:50Z</time>
    </trkpt>
    <trkpt lat="38.643064974" lon="34.81349403">
      <ele>1165.48</ele>
      <time>2021-10-12T12:20:51Z</time>
    </trkpt>
    <trkpt lat="38.643085007" lon="34.813538035">
      <ele>1165.346</ele>
      <time>2021-10-12T12:20:53Z</time>
    </trkpt>
    <trkpt lat="38.643107973" lon="34.813575">
      <ele>1165.049</ele>
      <time>2021-10-12T12:20:54Z</time>
    </trkpt>
    <trkpt lat="38.643135969" lon="34.813601989">
      <ele>1164.567</ele>
      <time>2021-10-12T12:20:55Z</time>
    </trkpt>
    <trkpt lat="38.643156001" lon="34.813629985">
      <ele>1164.279</ele>
      <time>2021-10-12T12:20:57Z</time>
    </trkpt>
    <trkpt lat="38.643178968" lon="34.813664015">
      <ele>1163.99</ele>
      <time>2021-10-12T12:20:58Z</time>
    </trkpt>
    <trkpt lat="38.643194977" lon="34.813696034">
      <ele>1163.795</ele>
      <time>2021-10-12T12:20:59Z</time>
    </trkpt>
    <trkpt lat="38.643218027" lon="34.813726041">
      <ele>1163.419</ele>
      <time>2021-10-12T12:21:00Z</time>
    </trkpt>
    <trkpt lat="38.643231019" lon="34.813764011">
      <ele>1163.247</ele>
      <time>2021-10-12T12:21:01Z</time>
    </trkpt>
    <trkpt lat="38.643242" lon="34.813804999">
      <ele>1163.103</ele>
      <time>2021-10-12T12:21:03Z</time>
    </trkpt>
    <trkpt lat="38.643257003" lon="34.813842969">
      <ele>1162.833</ele>
      <time>2021-10-12T12:21:04Z</time>
    </trkpt>
    <trkpt lat="38.643268989" lon="34.813879011">
      <ele>1162.605</ele>
      <time>2021-10-12T12:21:05Z</time>
    </trkpt>
    <trkpt lat="38.643280976" lon="34.81391103">
      <ele>1162.589</ele>
      <time>2021-10-12T12:21:06Z</time>
    </trkpt>
    <trkpt lat="38.64328701" lon="34.813951012">
      <ele>1162.913</ele>
      <time>2021-10-12T12:21:07Z</time>
    </trkpt>
    <trkpt lat="38.64328701" lon="34.81398697">
      <ele>1163.344</ele>
      <time>2021-10-12T12:21:08Z</time>
    </trkpt>
    <trkpt lat="38.64327603" lon="34.814028963">
      <ele>1164.165</ele>
      <time>2021-10-12T12:21:10Z</time>
    </trkpt>
    <trkpt lat="38.643260021" lon="34.814071041">
      <ele>1165.161</ele>
      <time>2021-10-12T12:21:11Z</time>
    </trkpt>
    <trkpt lat="38.643254992" lon="34.814110016">
      <ele>1165.811</ele>
      <time>2021-10-12T12:21:12Z</time>
    </trkpt>
    <trkpt lat="38.643259015" lon="34.814139018">
      <ele>1166.056</ele>
      <time>2021-10-12T12:21:13Z</time>
    </trkpt>
    <trkpt lat="38.643278042" lon="34.81415201">
      <ele>1165.612</ele>
      <time>2021-10-12T12:21:14Z</time>
    </trkpt>
    <trkpt lat="38.643362029" lon="34.814163996">
      <ele>1163.355</ele>
      <time>2021-10-12T12:21:17Z</time>
    </trkpt>
    <trkpt lat="38.643393964" lon="34.814161984">
      <ele>1162.655</ele>
      <time>2021-10-12T12:21:18Z</time>
    </trkpt>
    <trkpt lat="38.643429" lon="34.814153016">
      <ele>1161.854</ele>
      <time>2021-10-12T12:21:19Z</time>
    </trkpt>
    <trkpt lat="38.643461019" lon="34.814146981">
      <ele>1161.16</ele>
      <time>2021-10-12T12:21:21Z</time>
    </trkpt>
    <trkpt lat="38.64349002" lon="34.814161984">
      <ele>1160.603</ele>
      <time>2021-10-12T12:21:22Z</time>
    </trkpt>
    <trkpt lat="38.643511981" lon="34.814185034">
      <ele>1160.321</ele>
      <time>2021-10-12T12:21:23Z</time>
    </trkpt>
    <trkpt lat="38.643531008" lon="34.81421303">
      <ele>1160.16</ele>
      <time>2021-10-12T12:21:24Z</time>
    </trkpt>
    <trkpt lat="38.643552968" lon="34.81422401">
      <ele>1159.755</ele>
      <time>2021-10-12T12:21:25Z</time>
    </trkpt>
    <trkpt lat="38.643573001" lon="34.814218981">
      <ele>1159.252</ele>
      <time>2021-10-12T12:21:25Z</time>
    </trkpt>
    <trkpt lat="38.643608959" lon="34.814229039">
      <ele>1158.499</ele>
      <time>2021-10-12T12:21:27Z</time>
    </trkpt>
    <trkpt lat="38.643641984" lon="34.814233985">
      <ele>1158.293</ele>
      <time>2021-10-12T12:21:28Z</time>
    </trkpt>
    <trkpt lat="38.643678026" lon="34.814247983">
      <ele>1158.133</ele>
      <time>2021-10-12T12:21:29Z</time>
    </trkpt>
    <trkpt lat="38.643708033" lon="34.814258041">
      <ele>1157.965</ele>
      <time>2021-10-12T12:21:31Z</time>
    </trkpt>
    <trkpt lat="38.643738041" lon="34.814257035">
      <ele>1157.748</ele>
      <time>2021-10-12T12:21:32Z</time>
    </trkpt>
    <trkpt lat="38.643766036" lon="34.814268015">
      <ele>1157.562</ele>
      <time>2021-10-12T12:21:33Z</time>
    </trkpt>
    <trkpt lat="38.643798977" lon="34.814296011">
      <ele>1157.31</ele>
      <time>2021-10-12T12:21:34Z</time>
    </trkpt>
    <trkpt lat="38.643827979" lon="34.814336998">
      <ele>1157.009</ele>
      <time>2021-10-12T12:21:36Z</time>
    </trkpt>
    <trkpt lat="38.64385304" lon="34.814375974">
      <ele>1156.667</ele>
      <time>2021-10-12T12:21:37Z</time>
    </trkpt>
    <trkpt lat="38.643878018" lon="34.814417968">
      <ele>1156.241</ele>
      <time>2021-10-12T12:21:39Z</time>
    </trkpt>
    <trkpt lat="38.643896962" lon="34.814457027">
      <ele>1155.987</ele>
      <time>2021-10-12T12:21:40Z</time>
    </trkpt>
    <trkpt lat="38.643977009" lon="34.814545959">
      <ele>1155.731</ele>
      <time>2021-10-12T12:21:44Z</time>
    </trkpt>
    <trkpt lat="38.64400601" lon="34.814570015">
      <ele>1155.609</ele>
      <time>2021-10-12T12:21:45Z</time>
    </trkpt>
    <trkpt lat="38.644037023" lon="34.814585019">
      <ele>1155.44</ele>
      <time>2021-10-12T12:21:47Z</time>
    </trkpt>
    <trkpt lat="38.644069964" lon="34.814606979">
      <ele>1155.281</ele>
      <time>2021-10-12T12:21:48Z</time>
    </trkpt>
    <trkpt lat="38.644097038" lon="34.814632041">
      <ele>1155.177</ele>
      <time>2021-10-12T12:21:49Z</time>
    </trkpt>
    <trkpt lat="38.644124027" lon="34.814659031">
      <ele>1155.08</ele>
      <time>2021-10-12T12:21:51Z</time>
    </trkpt>
    <trkpt lat="38.644151017" lon="34.814675963">
      <ele>1154.946</ele>
      <time>2021-10-12T12:21:52Z</time>
    </trkpt>
    <trkpt lat="38.644181024" lon="34.814703036">
      <ele>1154.79</ele>
      <time>2021-10-12T12:21:53Z</time>
    </trkpt>
    <trkpt lat="38.644211031" lon="34.814727008">
      <ele>1154.535</ele>
      <time>2021-10-12T12:21:54Z</time>
    </trkpt>
    <trkpt lat="38.644243972" lon="34.814759027">
      <ele>1154.261</ele>
      <time>2021-10-12T12:21:56Z</time>
    </trkpt>
    <trkpt lat="38.644313961" lon="34.814861035">
      <ele>1153.644</ele>
      <time>2021-10-12T12:22:00Z</time>
    </trkpt>
    <trkpt lat="38.64437297" lon="34.814960025">
      <ele>1152.992</ele>
      <time>2021-10-12T12:22:03Z</time>
    </trkpt>
    <trkpt lat="38.644418987" lon="34.815089023">
      <ele>1154.028</ele>
      <time>2021-10-12T12:22:07Z</time>
    </trkpt>
    <trkpt lat="38.64446098" lon="34.815197987">
      <ele>1155.241</ele>
      <time>2021-10-12T12:22:11Z</time>
    </trkpt>
    <trkpt lat="38.644517977" lon="34.815295972">
      <ele>1155.932</ele>
      <time>2021-10-12T12:22:15Z</time>
    </trkpt>
    <trkpt lat="38.644535998" lon="34.815304019">
      <ele>1155.748</ele>
      <time>2021-10-12T12:22:15Z</time>
    </trkpt>
    <trkpt lat="38.644557958" lon="34.815308964">
      <ele>1155.375</ele>
      <time>2021-10-12T12:22:16Z</time>
    </trkpt>
    <trkpt lat="38.64458302" lon="34.815320028">
      <ele>1155.072</ele>
      <time>2021-10-12T12:22:17Z</time>
    </trkpt>
    <trkpt lat="38.644604981" lon="34.815347018">
      <ele>1155.2</ele>
      <time>2021-10-12T12:22:18Z</time>
    </trkpt>
    <trkpt lat="38.644613028" lon="34.815379959">
      <ele>1155.776</ele>
      <time>2021-10-12T12:22:19Z</time>
    </trkpt>
    <trkpt lat="38.64461001" lon="34.815418012">
      <ele>1156.764</ele>
      <time>2021-10-12T12:22:20Z</time>
    </trkpt>
    <trkpt lat="38.644596012" lon="34.815465035">
      <ele>1158.322</ele>
      <time>2021-10-12T12:22:22Z</time>
    </trkpt>
    <trkpt lat="38.644586038" lon="34.81550904">
      <ele>1159.737</ele>
      <time>2021-10-12T12:22:23Z</time>
    </trkpt>
    <trkpt lat="38.64458302" lon="34.815550027">
      <ele>1160.872</ele>
      <time>2021-10-12T12:22:24Z</time>
    </trkpt>
    <trkpt lat="38.644591989" lon="34.815581962">
      <ele>1161.259</ele>
      <time>2021-10-12T12:22:25Z</time>
    </trkpt>
    <trkpt lat="38.644607998" lon="34.815596966">
      <ele>1161.007</ele>
      <time>2021-10-12T12:22:26Z</time>
    </trkpt>
    <trkpt lat="38.644702965" lon="34.815620016">
      <ele>1158.086</ele>
      <time>2021-10-12T12:22:30Z</time>
    </trkpt>
    <trkpt lat="38.644801034" lon="34.81560803">
      <ele>1154.703</ele>
      <time>2021-10-12T12:22:33Z</time>
    </trkpt>
    <trkpt lat="38.64488896" lon="34.815603001">
      <ele>1151.915</ele>
      <time>2021-10-12T12:22:36Z</time>
    </trkpt>
    <trkpt lat="38.644989962" lon="34.81558498">
      <ele>1148.618</ele>
      <time>2021-10-12T12:22:40Z</time>
    </trkpt>
    <trkpt lat="38.645029021" lon="34.815587997">
      <ele>1147.908</ele>
      <time>2021-10-12T12:22:42Z</time>
    </trkpt>
    <trkpt lat="38.645060034" lon="34.815610964">
      <ele>1147.648</ele>
      <time>2021-10-12T12:22:43Z</time>
    </trkpt>
    <trkpt lat="38.645090964" lon="34.815644994">
      <ele>1147.445</ele>
      <time>2021-10-12T12:22:45Z</time>
    </trkpt>
    <trkpt lat="38.645118959" lon="34.815681959">
      <ele>1147.262</ele>
      <time>2021-10-12T12:22:46Z</time>
    </trkpt>
    <trkpt lat="38.645173023" lon="34.815766029">
      <ele>1146.838</ele>
      <time>2021-10-12T12:22:49Z</time>
    </trkpt>
    <trkpt lat="38.645204036" lon="34.815786984">
      <ele>1146.337</ele>
      <time>2021-10-12T12:22:50Z</time>
    </trkpt>
    <trkpt lat="38.645237982" lon="34.815805005">
      <ele>1145.728</ele>
      <time>2021-10-12T12:22:52Z</time>
    </trkpt>
    <trkpt lat="38.645266984" lon="34.815827971">
      <ele>1145.212</ele>
      <time>2021-10-12T12:22:53Z</time>
    </trkpt>
    <trkpt lat="38.645290034" lon="34.815866025">
      <ele>1145.44</ele>
      <time>2021-10-12T12:22:55Z</time>
    </trkpt>
    <trkpt lat="38.645308977" lon="34.815900978">
      <ele>1145.81</ele>
      <time>2021-10-12T12:22:56Z</time>
    </trkpt>
    <trkpt lat="38.645324986" lon="34.815936014">
      <ele>1146.102</ele>
      <time>2021-10-12T12:22:57Z</time>
    </trkpt>
    <trkpt lat="38.645348037" lon="34.815973984">
      <ele>1146.257</ele>
      <time>2021-10-12T12:22:58Z</time>
    </trkpt>
    <trkpt lat="38.645369997" lon="34.816000974">
      <ele>1146.212</ele>
      <time>2021-10-12T12:22:59Z</time>
    </trkpt>
    <trkpt lat="38.645385001" lon="34.816027042">
      <ele>1146.174</ele>
      <time>2021-10-12T12:23:00Z</time>
    </trkpt>
    <trkpt lat="38.645396987" lon="34.816055037">
      <ele>1146.137</ele>
      <time>2021-10-12T12:23:01Z</time>
    </trkpt>
    <trkpt lat="38.645402016" lon="34.816081021">
      <ele>1146.174</ele>
      <time>2021-10-12T12:23:02Z</time>
    </trkpt>
    <trkpt lat="38.645405034" lon="34.816103987">
      <ele>1146.219</ele>
      <time>2021-10-12T12:23:03Z</time>
    </trkpt>
    <trkpt lat="38.645408973" lon="34.816127038">
      <ele>1146.375</ele>
      <time>2021-10-12T12:23:03Z</time>
    </trkpt>
    <trkpt lat="38.645426994" lon="34.816145981">
      <ele>1146.193</ele>
      <time>2021-10-12T12:23:04Z</time>
    </trkpt>
    <trkpt lat="38.645449961" lon="34.816156039">
      <ele>1145.75</ele>
      <time>2021-10-12T12:23:05Z</time>
    </trkpt>
    <trkpt lat="38.645470999" lon="34.816178">
      <ele>1145.434</ele>
      <time>2021-10-12T12:23:06Z</time>
    </trkpt>
    <trkpt lat="38.645512993" lon="34.816226028">
      <ele>1144.65</ele>
      <time>2021-10-12T12:23:08Z</time>
    </trkpt>
    <trkpt lat="38.645538976" lon="34.816254023">
      <ele>1144.026</ele>
      <time>2021-10-12T12:23:10Z</time>
    </trkpt>
    <trkpt lat="38.645573007" lon="34.816383021">
      <ele>1143.863</ele>
      <time>2021-10-12T12:23:14Z</time>
    </trkpt>
    <trkpt lat="38.645554986" lon="34.81648704">
      <ele>1145.084</ele>
      <time>2021-10-12T12:23:17Z</time>
    </trkpt>
    <trkpt lat="38.645548029" lon="34.816571027">
      <ele>1146.301</ele>
      <time>2021-10-12T12:23:19Z</time>
    </trkpt>
    <trkpt lat="38.645548029" lon="34.816601034">
      <ele>1146.631</ele>
      <time>2021-10-12T12:23:20Z</time>
    </trkpt>
    <trkpt lat="38.645562027" lon="34.816617966">
      <ele>1146.331</ele>
      <time>2021-10-12T12:23:21Z</time>
    </trkpt>
    <trkpt lat="38.645585999" lon="34.816639004">
      <ele>1145.989</ele>
      <time>2021-10-12T12:23:22Z</time>
    </trkpt>
    <trkpt lat="38.645606032" lon="34.816658031">
      <ele>1145.663</ele>
      <time>2021-10-12T12:23:23Z</time>
    </trkpt>
    <trkpt lat="38.645636039" lon="34.816678986">
      <ele>1145.098</ele>
      <time>2021-10-12T12:23:24Z</time>
    </trkpt>
    <trkpt lat="38.645667974" lon="34.816699019">
      <ele>1144.444</ele>
      <time>2021-10-12T12:23:25Z</time>
    </trkpt>
    <trkpt lat="38.645697981" lon="34.816719973">
      <ele>1143.785</ele>
      <time>2021-10-12T12:23:26Z</time>
    </trkpt>
    <trkpt lat="38.645724971" lon="34.816743024">
      <ele>1143.16</ele>
      <time>2021-10-12T12:23:28Z</time>
    </trkpt>
    <trkpt lat="38.645750033" lon="34.816764984">
      <ele>1142.524</ele>
      <time>2021-10-12T12:23:29Z</time>
    </trkpt>
    <trkpt lat="38.645771993" lon="34.816784011">
      <ele>1141.919</ele>
      <time>2021-10-12T12:23:30Z</time>
    </trkpt>
    <trkpt lat="38.645795966" lon="34.816805972">
      <ele>1141.212</ele>
      <time>2021-10-12T12:23:31Z</time>
    </trkpt>
    <trkpt lat="38.645809963" lon="34.81683204">
      <ele>1140.789</ele>
      <time>2021-10-12T12:23:32Z</time>
    </trkpt>
    <trkpt lat="38.64580703" lon="34.816856012">
      <ele>1140.921</ele>
      <time>2021-10-12T12:23:33Z</time>
    </trkpt>
    <trkpt lat="38.645797977" lon="34.816887025">
      <ele>1141.295</ele>
      <time>2021-10-12T12:23:33Z</time>
    </trkpt>
    <trkpt lat="38.645814992" lon="34.816909991">
      <ele>1140.694</ele>
      <time>2021-10-12T12:23:34Z</time>
    </trkpt>
    <trkpt lat="38.645838965" lon="34.816945028">
      <ele>1140.024</ele>
      <time>2021-10-12T12:23:36Z</time>
    </trkpt>
    <trkpt lat="38.645854974" lon="34.816973023">
      <ele>1140.252</ele>
      <time>2021-10-12T12:23:37Z</time>
    </trkpt>
    <trkpt lat="38.645911971" lon="34.817070002">
      <ele>1140.675</ele>
      <time>2021-10-12T12:23:40Z</time>
    </trkpt>
    <trkpt lat="38.64597098" lon="34.817157006">
      <ele>1140.509</ele>
      <time>2021-10-12T12:23:44Z</time>
    </trkpt>
    <trkpt lat="38.646026971" lon="34.817258008">
      <ele>1139.948</ele>
      <time>2021-10-12T12:23:47Z</time>
    </trkpt>
    <trkpt lat="38.646073993" lon="34.817330008">
      <ele>1139.453</ele>
      <time>2021-10-12T12:23:50Z</time>
    </trkpt>
    <trkpt lat="38.646106012" lon="34.817363033">
      <ele>1139.064</ele>
      <time>2021-10-12T12:23:51Z</time>
    </trkpt>
    <trkpt lat="38.646131996" lon="34.81739304">
      <ele>1139.012</ele>
      <time>2021-10-12T12:23:53Z</time>
    </trkpt>
    <trkpt lat="38.64615798" lon="34.817418018">
      <ele>1138.981</ele>
      <time>2021-10-12T12:23:54Z</time>
    </trkpt>
    <trkpt lat="38.646185976" lon="34.817441991">
      <ele>1138.899</ele>
      <time>2021-10-12T12:23:55Z</time>
    </trkpt>
    <trkpt lat="38.646220006" lon="34.817460012">
      <ele>1138.777</ele>
      <time>2021-10-12T12:23:57Z</time>
    </trkpt>
    <trkpt lat="38.646288989" lon="34.817487001">
      <ele>1138.45</ele>
      <time>2021-10-12T12:23:59Z</time>
    </trkpt>
    <trkpt lat="38.646321008" lon="34.817506028">
      <ele>1138.25</ele>
      <time>2021-10-12T12:24:01Z</time>
    </trkpt>
    <trkpt lat="38.646341963" lon="34.817528995">
      <ele>1138.187</ele>
      <time>2021-10-12T12:24:02Z</time>
    </trkpt>
    <trkpt lat="38.646361995" lon="34.817541987">
      <ele>1138.111</ele>
      <time>2021-10-12T12:24:02Z</time>
    </trkpt>
    <trkpt lat="38.646397032" lon="34.817550033">
      <ele>1137.936</ele>
      <time>2021-10-12T12:24:04Z</time>
    </trkpt>
    <trkpt lat="38.646430979" lon="34.817562019">
      <ele>1137.663</ele>
      <time>2021-10-12T12:24:05Z</time>
    </trkpt>
    <trkpt lat="38.646462997" lon="34.817579035">
      <ele>1137.391</ele>
      <time>2021-10-12T12:24:06Z</time>
    </trkpt>
    <trkpt lat="38.646495016" lon="34.817599989">
      <ele>1137.098</ele>
      <time>2021-10-12T12:24:08Z</time>
    </trkpt>
    <trkpt lat="38.646530975" lon="34.817625973">
      <ele>1136.745</ele>
      <time>2021-10-12T12:24:09Z</time>
    </trkpt>
    <trkpt lat="38.646562994" lon="34.81766101">
      <ele>1136.383</ele>
      <time>2021-10-12T12:24:11Z</time>
    </trkpt>
    <trkpt lat="38.646596018" lon="34.817694034">
      <ele>1135.988</ele>
      <time>2021-10-12T12:24:12Z</time>
    </trkpt>
    <trkpt lat="38.646620996" lon="34.817711972">
      <ele>1135.691</ele>
      <time>2021-10-12T12:24:13Z</time>
    </trkpt>
    <trkpt lat="38.646714035" lon="34.817668973">
      <ele>1135.422</ele>
      <time>2021-10-12T12:24:17Z</time>
    </trkpt>
    <trkpt lat="38.646793999" lon="34.817686994">
      <ele>1135.318</ele>
      <time>2021-10-12T12:24:20Z</time>
    </trkpt>
    <trkpt lat="38.646892989" lon="34.817728987">
      <ele>1134.79</ele>
      <time>2021-10-12T12:24:24Z</time>
    </trkpt>
    <trkpt lat="38.646979993" lon="34.817764023">
      <ele>1134.46</ele>
      <time>2021-10-12T12:24:27Z</time>
    </trkpt>
    <trkpt lat="38.647061968" lon="34.817813979">
      <ele>1134.756</ele>
      <time>2021-10-12T12:24:31Z</time>
    </trkpt>
    <trkpt lat="38.647111002" lon="34.817935014">
      <ele>1134.408</ele>
      <time>2021-10-12T12:24:35Z</time>
    </trkpt>
    <trkpt lat="38.647219967" lon="34.817974996">
      <ele>1133.877</ele>
      <time>2021-10-12T12:24:39Z</time>
    </trkpt>
    <trkpt lat="38.647260033" lon="34.817971978">
      <ele>1133.44</ele>
      <time>2021-10-12T12:24:40Z</time>
    </trkpt>
    <trkpt lat="38.647296997" lon="34.817966027">
      <ele>1133.064</ele>
      <time>2021-10-12T12:24:42Z</time>
    </trkpt>
    <trkpt lat="38.647330021" lon="34.817957981">
      <ele>1132.774</ele>
      <time>2021-10-12T12:24:43Z</time>
    </trkpt>
    <trkpt lat="38.647348965" lon="34.817944989">
      <ele>1132.732</ele>
      <time>2021-10-12T12:24:44Z</time>
    </trkpt>
    <trkpt lat="38.647368997" lon="34.817933002">
      <ele>1132.676</ele>
      <time>2021-10-12T12:24:44Z</time>
    </trkpt>
    <trkpt lat="38.647397999" lon="34.817937026">
      <ele>1132.289</ele>
      <time>2021-10-12T12:24:46Z</time>
    </trkpt>
    <trkpt lat="38.647430018" lon="34.817949012">
      <ele>1131.732</ele>
      <time>2021-10-12T12:24:47Z</time>
    </trkpt>
    <trkpt lat="38.647463964" lon="34.817960998">
      <ele>1131.133</ele>
      <time>2021-10-12T12:24:48Z</time>
    </trkpt>
    <trkpt lat="38.647493972" lon="34.817959992">
      <ele>1130.792</ele>
      <time>2021-10-12T12:24:49Z</time>
    </trkpt>
    <trkpt lat="38.647529008" lon="34.817959992">
      <ele>1130.583</ele>
      <time>2021-10-12T12:24:50Z</time>
    </trkpt>
    <trkpt lat="38.647571001" lon="34.817965021">
      <ele>1130.285</ele>
      <time>2021-10-12T12:24:52Z</time>
    </trkpt>
    <trkpt lat="38.647607965" lon="34.817974996">
      <ele>1129.898</ele>
      <time>2021-10-12T12:24:53Z</time>
    </trkpt>
    <trkpt lat="38.647713996" lon="34.817993017">
      <ele>1128.932</ele>
      <time>2021-10-12T12:24:57Z</time>
    </trkpt>
    <trkpt lat="38.647751966" lon="34.818002991">
      <ele>1128.475</ele>
      <time>2021-10-12T12:24:59Z</time>
    </trkpt>
    <trkpt lat="38.64778298" lon="34.818010032">
      <ele>1128.163</ele>
      <time>2021-10-12T12:25:00Z</time>
    </trkpt>
    <trkpt lat="38.647842994" lon="34.818020007">
      <ele>1128.101</ele>
      <time>2021-10-12T12:25:02Z</time>
    </trkpt>
    <trkpt lat="38.64787803" lon="34.818026964">
      <ele>1128.044</ele>
      <time>2021-10-12T12:25:04Z</time>
    </trkpt>
    <trkpt lat="38.647913989" lon="34.818026964">
      <ele>1128.16</ele>
      <time>2021-10-12T12:25:05Z</time>
    </trkpt>
    <trkpt lat="38.647937039" lon="34.818021012">
      <ele>1128.373</ele>
      <time>2021-10-12T12:25:06Z</time>
    </trkpt>
    <trkpt lat="38.64796604" lon="34.818016989">
      <ele>1128.556</ele>
      <time>2021-10-12T12:25:07Z</time>
    </trkpt>
    <trkpt lat="38.648055978" lon="34.818046996">
      <ele>1128.188</ele>
      <time>2021-10-12T12:25:10Z</time>
    </trkpt>
    <trkpt lat="38.648137031" lon="34.818124026">
      <ele>1128.37</ele>
      <time>2021-10-12T12:25:14Z</time>
    </trkpt>
    <trkpt lat="38.648248008" lon="34.81815001">
      <ele>1128.679</ele>
      <time>2021-10-12T12:25:18Z</time>
    </trkpt>
    <trkpt lat="38.648346998" lon="34.818127966">
      <ele>1129.192</ele>
      <time>2021-10-12T12:25:22Z</time>
    </trkpt>
    <trkpt lat="38.648401983" lon="34.818254029">
      <ele>1127.503</ele>
      <time>2021-10-12T12:25:26Z</time>
    </trkpt>
    <trkpt lat="38.648470966" lon="34.818379004">
      <ele>1126.339</ele>
      <time>2021-10-12T12:25:31Z</time>
    </trkpt>
    <trkpt lat="38.648527963" lon="34.818442035">
      <ele>1126.224</ele>
      <time>2021-10-12T12:25:33Z</time>
    </trkpt>
    <trkpt lat="38.648592001" lon="34.818468019">
      <ele>1125.689</ele>
      <time>2021-10-12T12:25:36Z</time>
    </trkpt>
    <trkpt lat="38.648622008" lon="34.818469025">
      <ele>1125.468</ele>
      <time>2021-10-12T12:25:37Z</time>
    </trkpt>
    <trkpt lat="38.648654027" lon="34.818468019">
      <ele>1125.405</ele>
      <time>2021-10-12T12:25:38Z</time>
    </trkpt>
    <trkpt lat="38.648690991" lon="34.818466008">
      <ele>1125.327</ele>
      <time>2021-10-12T12:25:39Z</time>
    </trkpt>
    <trkpt lat="38.648728039" lon="34.818468019">
      <ele>1125.268</ele>
      <time>2021-10-12T12:25:41Z</time>
    </trkpt>
    <trkpt lat="38.648766009" lon="34.818473971">
      <ele>1125.231</ele>
      <time>2021-10-12T12:25:42Z</time>
    </trkpt>
    <trkpt lat="38.648801968" lon="34.818476988">
      <ele>1125.185</ele>
      <time>2021-10-12T12:25:44Z</time>
    </trkpt>
    <trkpt lat="38.648837004" lon="34.818477994">
      <ele>1125.131</ele>
      <time>2021-10-12T12:25:45Z</time>
    </trkpt>
    <trkpt lat="38.648866005" lon="34.818467014">
      <ele>1125.005</ele>
      <time>2021-10-12T12:25:46Z</time>
    </trkpt>
    <trkpt lat="38.648891989" lon="34.81845201">
      <ele>1124.843</ele>
      <time>2021-10-12T12:25:47Z</time>
    </trkpt>
    <trkpt lat="38.648907999" lon="34.818426026">
      <ele>1124.599</ele>
      <time>2021-10-12T12:25:48Z</time>
    </trkpt>
    <trkpt lat="38.64892602" lon="34.818387972">
      <ele>1124.26</ele>
      <time>2021-10-12T12:25:49Z</time>
    </trkpt>
    <trkpt lat="38.648953009" lon="34.818358971">
      <ele>1123.954</ele>
      <time>2021-10-12T12:25:51Z</time>
    </trkpt>
    <trkpt lat="38.648981005" lon="34.818332987">
      <ele>1123.674</ele>
      <time>2021-10-12T12:25:52Z</time>
    </trkpt>
    <trkpt lat="38.64908603" lon="34.818269033">
      <ele>1124.283</ele>
      <time>2021-10-12T12:25:56Z</time>
    </trkpt>
    <trkpt lat="38.649207987" lon="34.818261992">
      <ele>1123.844</ele>
      <time>2021-10-12T12:26:01Z</time>
    </trkpt>
    <trkpt lat="38.649304966" lon="34.81822704">
      <ele>1124.106</ele>
      <time>2021-10-12T12:26:04Z</time>
    </trkpt>
    <trkpt lat="38.649418037" lon="34.818264004">
      <ele>1122.866</ele>
      <time>2021-10-12T12:26:09Z</time>
    </trkpt>
    <trkpt lat="38.64951401" lon="34.81831002">
      <ele>1121.63</ele>
      <time>2021-10-12T12:26:13Z</time>
    </trkpt>
    <trkpt lat="38.649609983" lon="34.81839099">
      <ele>1120.836</ele>
      <time>2021-10-12T12:26:17Z</time>
    </trkpt>
    <trkpt lat="38.649692964" lon="34.818458967">
      <ele>1120.238</ele>
      <time>2021-10-12T12:26:20Z</time>
    </trkpt>
    <trkpt lat="38.649779968" lon="34.818499032">
      <ele>1119.978</ele>
      <time>2021-10-12T12:26:24Z</time>
    </trkpt>
    <trkpt lat="38.649858003" lon="34.818593999">
      <ele>1118.356</ele>
      <time>2021-10-12T12:26:28Z</time>
    </trkpt>
    <trkpt lat="38.649916006" lon="34.818629036">
      <ele>1117.728</ele>
      <time>2021-10-12T12:26:30Z</time>
    </trkpt>
    <trkpt lat="38.64994199" lon="34.818654014">
      <ele>1117.669</ele>
      <time>2021-10-12T12:26:31Z</time>
    </trkpt>
    <trkpt lat="38.649966968" lon="34.818681004">
      <ele>1117.579</ele>
      <time>2021-10-12T12:26:33Z</time>
    </trkpt>
    <trkpt lat="38.649987001" lon="34.818711011">
      <ele>1117.504</ele>
      <time>2021-10-12T12:26:34Z</time>
    </trkpt>
    <trkpt lat="38.65006797" lon="34.81877597">
      <ele>1116.967</ele>
      <time>2021-10-12T12:26:37Z</time>
    </trkpt>
    <trkpt lat="38.650178025" lon="34.818783011">
      <ele>1115.88</ele>
      <time>2021-10-12T12:26:41Z</time>
    </trkpt>
    <trkpt lat="38.650272992" lon="34.818802038">
      <ele>1114.617</ele>
      <time>2021-10-12T12:26:45Z</time>
    </trkpt>
    <trkpt lat="38.650383968" lon="34.818872027">
      <ele>1114.114</ele>
      <time>2021-10-12T12:26:50Z</time>
    </trkpt>
    <trkpt lat="38.650486981" lon="34.81890304">
      <ele>1114.441</ele>
      <time>2021-10-12T12:26:53Z</time>
    </trkpt>
    <trkpt lat="38.650584966" lon="34.81895199">
      <ele>1115.012</ele>
      <time>2021-10-12T12:26:57Z</time>
    </trkpt>
    <trkpt lat="38.650638023" lon="34.81906699">
      <ele>1114.774</ele>
      <time>2021-10-12T12:27:01Z</time>
    </trkpt>
    <trkpt lat="38.650641041" lon="34.819098003">
      <ele>1114.432</ele>
      <time>2021-10-12T12:27:02Z</time>
    </trkpt>
    <trkpt lat="38.650685968" lon="34.819203028">
      <ele>1114.502</ele>
      <time>2021-10-12T12:27:06Z</time>
    </trkpt>
    <trkpt lat="38.650776995" lon="34.81925902">
      <ele>1115.726</ele>
      <time>2021-10-12T12:27:09Z</time>
    </trkpt>
    <trkpt lat="38.650866011" lon="34.819301013">
      <ele>1116.389</ele>
      <time>2021-10-12T12:27:13Z</time>
    </trkpt>
    <trkpt lat="38.650951004" lon="34.819354992">
      <ele>1116.764</ele>
      <time>2021-10-12T12:27:16Z</time>
    </trkpt>
    <trkpt lat="38.651021998" lon="34.819436967">
      <ele>1116.449</ele>
      <time>2021-10-12T12:27:20Z</time>
    </trkpt>
    <trkpt lat="38.651064998" lon="34.819575017">
      <ele>1115.412</ele>
      <time>2021-10-12T12:27:24Z</time>
    </trkpt>
    <trkpt lat="38.651116965" lon="34.819677025">
      <ele>1113.612</ele>
      <time>2021-10-12T12:27:28Z</time>
    </trkpt>
    <trkpt lat="38.651193995" lon="34.819760006">
      <ele>1112.663</ele>
      <time>2021-10-12T12:27:32Z</time>
    </trkpt>
    <trkpt lat="38.651286028" lon="34.819838963">
      <ele>1111.569</ele>
      <time>2021-10-12T12:27:36Z</time>
    </trkpt>
    <trkpt lat="38.651314024" lon="34.819851033">
      <ele>1111.023</ele>
      <time>2021-10-12T12:27:37Z</time>
    </trkpt>
    <trkpt lat="38.651419971" lon="34.819838041">
      <ele>1109.367</ele>
      <time>2021-10-12T12:27:41Z</time>
    </trkpt>
    <trkpt lat="38.651452996" lon="34.819852039">
      <ele>1108.798</ele>
      <time>2021-10-12T12:27:42Z</time>
    </trkpt>
    <trkpt lat="38.651480991" lon="34.819867965">
      <ele>1108.257</ele>
      <time>2021-10-12T12:27:43Z</time>
    </trkpt>
    <trkpt lat="38.651514016" lon="34.819885986">
      <ele>1107.614</ele>
      <time>2021-10-12T12:27:44Z</time>
    </trkpt>
    <trkpt lat="38.651549974" lon="34.81990099">
      <ele>1106.956</ele>
      <time>2021-10-12T12:27:46Z</time>
    </trkpt>
    <trkpt lat="38.651584005" lon="34.819913981">
      <ele>1106.337</ele>
      <time>2021-10-12T12:27:47Z</time>
    </trkpt>
    <trkpt lat="38.651619041" lon="34.819927979">
      <ele>1105.678</ele>
      <time>2021-10-12T12:27:48Z</time>
    </trkpt>
    <trkpt lat="38.651658017" lon="34.819938038">
      <ele>1105.01</ele>
      <time>2021-10-12T12:27:50Z</time>
    </trkpt>
    <trkpt lat="38.651695987" lon="34.819956981">
      <ele>1104.425</ele>
      <time>2021-10-12T12:27:51Z</time>
    </trkpt>
    <trkpt lat="38.651723983" lon="34.819971984">
      <ele>1104.012</ele>
      <time>2021-10-12T12:27:53Z</time>
    </trkpt>
    <trkpt lat="38.651751978" lon="34.819984976">
      <ele>1103.619</ele>
      <time>2021-10-12T12:27:54Z</time>
    </trkpt>
    <trkpt lat="38.65178098" lon="34.819994029">
      <ele>1103.272</ele>
      <time>2021-10-12T12:27:55Z</time>
    </trkpt>
    <trkpt lat="38.651807969" lon="34.820013978">
      <ele>1102.931</ele>
      <time>2021-10-12T12:27:56Z</time>
    </trkpt>
    <trkpt lat="38.651828002" lon="34.820037028">
      <ele>1102.684</ele>
      <time>2021-10-12T12:27:57Z</time>
    </trkpt>
    <trkpt lat="38.651842" lon="34.820058988">
      <ele>1102.47</ele>
      <time>2021-10-12T12:27:58Z</time>
    </trkpt>
    <trkpt lat="38.651855998" lon="34.820074998">
      <ele>1102.269</ele>
      <time>2021-10-12T12:27:58Z</time>
    </trkpt>
    <trkpt lat="38.651873013" lon="34.82008799">
      <ele>1102.044</ele>
      <time>2021-10-12T12:27:59Z</time>
    </trkpt>
    <trkpt lat="38.651897991" lon="34.820108023">
      <ele>1101.687</ele>
      <time>2021-10-12T12:28:00Z</time>
    </trkpt>
    <trkpt lat="38.651927998" lon="34.820125038">
      <ele>1101.271</ele>
      <time>2021-10-12T12:28:01Z</time>
    </trkpt>
    <trkpt lat="38.65196404" lon="34.820136018">
      <ele>1101.198</ele>
      <time>2021-10-12T12:28:03Z</time>
    </trkpt>
    <trkpt lat="38.651999999" lon="34.820142975">
      <ele>1101.468</ele>
      <time>2021-10-12T12:28:04Z</time>
    </trkpt>
    <trkpt lat="38.652036963" lon="34.820148004">
      <ele>1101.756</ele>
      <time>2021-10-12T12:28:06Z</time>
    </trkpt>
    <trkpt lat="38.652075017" lon="34.820155967">
      <ele>1102.023</ele>
      <time>2021-10-12T12:28:07Z</time>
    </trkpt>
    <trkpt lat="38.65210603" lon="34.820173988">
      <ele>1102.128</ele>
      <time>2021-10-12T12:28:08Z</time>
    </trkpt>
    <trkpt lat="38.652132014" lon="34.820200978">
      <ele>1102.09</ele>
      <time>2021-10-12T12:28:10Z</time>
    </trkpt>
    <trkpt lat="38.652149029" lon="34.820241965">
      <ele>1101.826</ele>
      <time>2021-10-12T12:28:11Z</time>
    </trkpt>
    <trkpt lat="38.65218197" lon="34.820360988">
      <ele>1100.516</ele>
      <time>2021-10-12T12:28:15Z</time>
    </trkpt>
    <trkpt lat="38.652238967" lon="34.820466014">
      <ele>1098.793</ele>
      <time>2021-10-12T12:28:18Z</time>
    </trkpt>
    <trkpt lat="38.652358996" lon="34.820493003">
      <ele>1099.603</ele>
      <time>2021-10-12T12:28:23Z</time>
    </trkpt>
    <trkpt lat="38.652459998" lon="34.820540026">
      <ele>1099.848</ele>
      <time>2021-10-12T12:28:27Z</time>
    </trkpt>
    <trkpt lat="38.652549013" lon="34.820599034">
      <ele>1099.366</ele>
      <time>2021-10-12T12:28:30Z</time>
    </trkpt>
    <trkpt lat="38.65260601" lon="34.820723003">
      <ele>1097.138</ele>
      <time>2021-10-12T12:28:35Z</time>
    </trkpt>
    <trkpt lat="38.652688991" lon="34.820795003">
      <ele>1095.784</ele>
      <time>2021-10-12T12:28:38Z</time>
    </trkpt>
    <trkpt lat="38.652724028" lon="34.820809001">
      <ele>1095.509</ele>
      <time>2021-10-12T12:28:40Z</time>
    </trkpt>
    <trkpt lat="38.652764009" lon="34.820822999">
      <ele>1095.221</ele>
      <time>2021-10-12T12:28:41Z</time>
    </trkpt>
    <trkpt lat="38.65279804" lon="34.82083004">
      <ele>1095.218</ele>
      <time>2021-10-12T12:28:42Z</time>
    </trkpt>
    <trkpt lat="38.65283601" lon="34.820831968">
      <ele>1095.45</ele>
      <time>2021-10-12T12:28:44Z</time>
    </trkpt>
    <trkpt lat="38.652874986" lon="34.820834985">
      <ele>1095.69</ele>
      <time>2021-10-12T12:28:45Z</time>
    </trkpt>
    <trkpt lat="38.652969031" lon="34.820853006">
      <ele>1096.209</ele>
      <time>2021-10-12T12:28:49Z</time>
    </trkpt>
    <trkpt lat="38.652997026" lon="34.820863986">
      <ele>1096.294</ele>
      <time>2021-10-12T12:28:50Z</time>
    </trkpt>
    <trkpt lat="38.653061986" lon="34.820969012">
      <ele>1095.547</ele>
      <time>2021-10-12T12:28:54Z</time>
    </trkpt>
    <trkpt lat="38.653094005" lon="34.821108989">
      <ele>1094.024</ele>
      <time>2021-10-12T12:28:58Z</time>
    </trkpt>
    <trkpt lat="38.653119989" lon="34.82124201">
      <ele>1092.839</ele>
      <time>2021-10-12T12:29:02Z</time>
    </trkpt>
    <trkpt lat="38.653141027" lon="34.821360027">
      <ele>1091.656</ele>
      <time>2021-10-12T12:29:06Z</time>
    </trkpt>
    <trkpt lat="38.653197018" lon="34.821424987">
      <ele>1091.241</ele>
      <time>2021-10-12T12:29:08Z</time>
    </trkpt>
    <trkpt lat="38.653228031" lon="34.821423981">
      <ele>1091.011</ele>
      <time>2021-10-12T12:29:09Z</time>
    </trkpt>
    <trkpt lat="38.653260972" lon="34.82142197">
      <ele>1090.759</ele>
      <time>2021-10-12T12:29:11Z</time>
    </trkpt>
    <trkpt lat="38.653368009" lon="34.821434962">
      <ele>1090.561</ele>
      <time>2021-10-12T12:29:15Z</time>
    </trkpt>
    <trkpt lat="38.65340204" lon="34.821451977">
      <ele>1090.893</ele>
      <time>2021-10-12T12:29:16Z</time>
    </trkpt>
    <trkpt lat="38.653427018" lon="34.821476033">
      <ele>1091.196</ele>
      <time>2021-10-12T12:29:17Z</time>
    </trkpt>
    <trkpt lat="38.653451996" lon="34.821504029">
      <ele>1091.506</ele>
      <time>2021-10-12T12:29:18Z</time>
    </trkpt>
    <trkpt lat="38.653475968" lon="34.821534036">
      <ele>1091.804</ele>
      <time>2021-10-12T12:29:20Z</time>
    </trkpt>
    <trkpt lat="38.653494995" lon="34.821561025">
      <ele>1092.043</ele>
      <time>2021-10-12T12:29:21Z</time>
    </trkpt>
    <trkpt lat="38.653531959" lon="34.821620034">
      <ele>1092.499</ele>
      <time>2021-10-12T12:29:23Z</time>
    </trkpt>
    <trkpt lat="38.653551992" lon="34.821647024">
      <ele>1092.701</ele>
      <time>2021-10-12T12:29:24Z</time>
    </trkpt>
    <trkpt lat="38.653641008" lon="34.821703015">
      <ele>1093.64</ele>
      <time>2021-10-12T12:29:28Z</time>
    </trkpt>
    <trkpt lat="38.653746033" lon="34.821697986">
      <ele>1093.509</ele>
      <time>2021-10-12T12:29:32Z</time>
    </trkpt>
    <trkpt lat="38.653844018" lon="34.821665967">
      <ele>1092.995</ele>
      <time>2021-10-12T12:29:35Z</time>
    </trkpt>
    <trkpt lat="38.653935967" lon="34.821627997">
      <ele>1092.213</ele>
      <time>2021-10-12T12:29:39Z</time>
    </trkpt>
    <trkpt lat="38.654047027" lon="34.821578041">
      <ele>1090.654</ele>
      <time>2021-10-12T12:29:43Z</time>
    </trkpt>
    <trkpt lat="38.654086003" lon="34.821565971">
      <ele>1090.146</ele>
      <time>2021-10-12T12:29:45Z</time>
    </trkpt>
    <trkpt lat="38.654119028" lon="34.821550967">
      <ele>1089.681</ele>
      <time>2021-10-12T12:29:46Z</time>
    </trkpt>
    <trkpt lat="38.65415398" lon="34.821537975">
      <ele>1089.21</ele>
      <time>2021-10-12T12:29:47Z</time>
    </trkpt>
    <trkpt lat="38.654187005" lon="34.821518026">
      <ele>1088.828</ele>
      <time>2021-10-12T12:29:49Z</time>
    </trkpt>
    <trkpt lat="38.65427996" lon="34.821453989">
      <ele>1088.182</ele>
      <time>2021-10-12T12:29:53Z</time>
    </trkpt>
    <trkpt lat="38.654354978" lon="34.821376037">
      <ele>1088.124</ele>
      <time>2021-10-12T12:29:56Z</time>
    </trkpt>
    <trkpt lat="38.654384986" lon="34.821349969">
      <ele>1088.39</ele>
      <time>2021-10-12T12:29:58Z</time>
    </trkpt>
    <trkpt lat="38.654417004" lon="34.821318034">
      <ele>1088.74</ele>
      <time>2021-10-12T12:29:59Z</time>
    </trkpt>
    <trkpt lat="38.65445598" lon="34.821293978">
      <ele>1089.095</ele>
      <time>2021-10-12T12:30:01Z</time>
    </trkpt>
    <trkpt lat="38.654493028" lon="34.821267994">
      <ele>1089.633</ele>
      <time>2021-10-12T12:30:02Z</time>
    </trkpt>
    <trkpt lat="38.65453301" lon="34.821245028">
      <ele>1090.203</ele>
      <time>2021-10-12T12:30:04Z</time>
    </trkpt>
    <trkpt lat="38.65457098" lon="34.821230024">
      <ele>1090.692</ele>
      <time>2021-10-12T12:30:05Z</time>
    </trkpt>
    <trkpt lat="38.654610962" lon="34.821221977">
      <ele>1091.123</ele>
      <time>2021-10-12T12:30:07Z</time>
    </trkpt>
    <trkpt lat="38.654647004" lon="34.821228012">
      <ele>1091.311</ele>
      <time>2021-10-12T12:30:08Z</time>
    </trkpt>
    <trkpt lat="38.654681034" lon="34.821261959">
      <ele>1091.001</ele>
      <time>2021-10-12T12:30:10Z</time>
    </trkpt>
    <trkpt lat="38.654707018" lon="34.821305964">
      <ele>1090.405</ele>
      <time>2021-10-12T12:30:11Z</time>
    </trkpt>
    <trkpt lat="38.654768039" lon="34.821437979">
      <ele>1088.771</ele>
      <time>2021-10-12T12:30:16Z</time>
    </trkpt>
    <trkpt lat="38.654828975" lon="34.821571">
      <ele>1087.55</ele>
      <time>2021-10-12T12:30:20Z</time>
    </trkpt>
    <trkpt lat="38.654884966" lon="34.821673008">
      <ele>1086.563</ele>
      <time>2021-10-12T12:30:24Z</time>
    </trkpt>
    <trkpt lat="38.654946992" lon="34.821783984">
      <ele>1086.387</ele>
      <time>2021-10-12T12:30:28Z</time>
    </trkpt>
    <trkpt lat="38.655003989" lon="34.821896972">
      <ele>1086.216</ele>
      <time>2021-10-12T12:30:32Z</time>
    </trkpt>
    <trkpt lat="38.655074984" lon="34.822010966">
      <ele>1086.855</ele>
      <time>2021-10-12T12:30:36Z</time>
    </trkpt>
    <trkpt lat="38.655134998" lon="34.822120015">
      <ele>1087.169</ele>
      <time>2021-10-12T12:30:40Z</time>
    </trkpt>
    <trkpt lat="38.655202975" lon="34.822235014">
      <ele>1087.117</ele>
      <time>2021-10-12T12:30:44Z</time>
    </trkpt>
    <trkpt lat="38.655308001" lon="34.822285976">
      <ele>1087.434</ele>
      <time>2021-10-12T12:30:48Z</time>
    </trkpt>
    <trkpt lat="38.65534002" lon="34.822280025">
      <ele>1087.37</ele>
      <time>2021-10-12T12:30:49Z</time>
    </trkpt>
    <trkpt lat="38.655378995" lon="34.822271978">
      <ele>1087.293</ele>
      <time>2021-10-12T12:30:51Z</time>
    </trkpt>
    <trkpt lat="38.655410009" lon="34.822254963">
      <ele>1087.18</ele>
      <time>2021-10-12T12:30:52Z</time>
    </trkpt>
    <trkpt lat="38.655444039" lon="34.822238032">
      <ele>1087.08</ele>
      <time>2021-10-12T12:30:53Z</time>
    </trkpt>
    <trkpt lat="38.655545041" lon="34.822213976">
      <ele>1087.059</ele>
      <time>2021-10-12T12:30:57Z</time>
    </trkpt>
    <trkpt lat="38.655576976" lon="34.822210958">
      <ele>1086.776</ele>
      <time>2021-10-12T12:30:58Z</time>
    </trkpt>
    <trkpt lat="38.655611007" lon="34.822217999">
      <ele>1086.235</ele>
      <time>2021-10-12T12:31:00Z</time>
    </trkpt>
    <trkpt lat="38.655706979" lon="34.822264016">
      <ele>1085.052</ele>
      <time>2021-10-12T12:31:03Z</time>
    </trkpt>
    <trkpt lat="38.655816028" lon="34.822326964">
      <ele>1083.98</ele>
      <time>2021-10-12T12:31:08Z</time>
    </trkpt>
    <trkpt lat="38.655891968" lon="34.822355965">
      <ele>1083.439</ele>
      <time>2021-10-12T12:31:11Z</time>
    </trkpt>
    <trkpt lat="38.655929016" lon="34.822366023">
      <ele>1083.168</ele>
      <time>2021-10-12T12:31:12Z</time>
    </trkpt>
    <trkpt lat="38.656045021" lon="34.82237801">
      <ele>1082.17</ele>
      <time>2021-10-12T12:31:17Z</time>
    </trkpt>
    <trkpt lat="38.656160021" lon="34.822363006">
      <ele>1081.683</ele>
      <time>2021-10-12T12:31:21Z</time>
    </trkpt>
    <trkpt lat="38.656201009" lon="34.822355965">
      <ele>1081.805</ele>
      <time>2021-10-12T12:31:22Z</time>
    </trkpt>
    <trkpt lat="38.65624099" lon="34.822353031">
      <ele>1081.938</ele>
      <time>2021-10-12T12:31:24Z</time>
    </trkpt>
    <trkpt lat="38.656279966" lon="34.82235102">
      <ele>1082.072</ele>
      <time>2021-10-12T12:31:25Z</time>
    </trkpt>
    <trkpt lat="38.656315003" lon="34.822341967">
      <ele>1082.165</ele>
      <time>2021-10-12T12:31:27Z</time>
    </trkpt>
    <trkpt lat="38.656348027" lon="34.822329981">
      <ele>1082.241</ele>
      <time>2021-10-12T12:31:28Z</time>
    </trkpt>
    <trkpt lat="38.656378035" lon="34.822312966">
      <ele>1082.288</ele>
      <time>2021-10-12T12:31:29Z</time>
    </trkpt>
    <trkpt lat="38.65640603" lon="34.822295029">
      <ele>1082.2</ele>
      <time>2021-10-12T12:31:30Z</time>
    </trkpt>
    <trkpt lat="38.656430002" lon="34.822265022">
      <ele>1082.006</ele>
      <time>2021-10-12T12:31:31Z</time>
    </trkpt>
    <trkpt lat="38.656453975" lon="34.822237026">
      <ele>1081.819</ele>
      <time>2021-10-12T12:31:33Z</time>
    </trkpt>
    <trkpt lat="38.656469984" lon="34.822200984">
      <ele>1081.762</ele>
      <time>2021-10-12T12:31:34Z</time>
    </trkpt>
    <trkpt lat="38.656485993" lon="34.822168965">
      <ele>1081.775</ele>
      <time>2021-10-12T12:31:35Z</time>
    </trkpt>
    <trkpt lat="38.65650896" lon="34.822134012">
      <ele>1081.748</ele>
      <time>2021-10-12T12:31:36Z</time>
    </trkpt>
    <trkpt lat="38.65653201" lon="34.822104005">
      <ele>1081.691</ele>
      <time>2021-10-12T12:31:38Z</time>
    </trkpt>
    <trkpt lat="38.656556988" lon="34.82207601">
      <ele>1081.603</ele>
      <time>2021-10-12T12:31:39Z</time>
    </trkpt>
    <trkpt lat="38.656590013" lon="34.822048014">
      <ele>1081.449</ele>
      <time>2021-10-12T12:31:40Z</time>
    </trkpt>
    <trkpt lat="38.656621026" lon="34.822018007">
      <ele>1081.285</ele>
      <time>2021-10-12T12:31:42Z</time>
    </trkpt>
    <trkpt lat="38.656654973" lon="34.821990011">
      <ele>1081.077</ele>
      <time>2021-10-12T12:31:43Z</time>
    </trkpt>
    <trkpt lat="38.656685986" lon="34.821963022">
      <ele>1080.856</ele>
      <time>2021-10-12T12:31:45Z</time>
    </trkpt>
    <trkpt lat="38.656718004" lon="34.82193796">
      <ele>1080.667</ele>
      <time>2021-10-12T12:31:46Z</time>
    </trkpt>
    <trkpt lat="38.65675698" lon="34.821915999">
      <ele>1080.552</ele>
      <time>2021-10-12T12:31:48Z</time>
    </trkpt>
    <trkpt lat="38.656791011" lon="34.821900995">
      <ele>1080.471</ele>
      <time>2021-10-12T12:31:49Z</time>
    </trkpt>
    <trkpt lat="38.656896958" lon="34.821893033">
      <ele>1079.987</ele>
      <time>2021-10-12T12:31:53Z</time>
    </trkpt>
    <trkpt lat="38.656981029" lon="34.821979031">
      <ele>1078.859</ele>
      <time>2021-10-12T12:31:57Z</time>
    </trkpt>
    <trkpt lat="38.657052023" lon="34.822081039">
      <ele>1078.318</ele>
      <time>2021-10-12T12:32:01Z</time>
    </trkpt>
    <trkpt lat="38.657117989" lon="34.822187992">
      <ele>1077.575</ele>
      <time>2021-10-12T12:32:05Z</time>
    </trkpt>
    <trkpt lat="38.657171968" lon="34.822321013">
      <ele>1077.537</ele>
      <time>2021-10-12T12:32:09Z</time>
    </trkpt>
    <trkpt lat="38.657207005" lon="34.822459985">
      <ele>1077.911</ele>
      <time>2021-10-12T12:32:13Z</time>
    </trkpt>
    <trkpt lat="38.657280011" lon="34.822535003">
      <ele>1077.61</ele>
      <time>2021-10-12T12:32:17Z</time>
    </trkpt>
    <trkpt lat="38.657388976" lon="34.822573978">
      <ele>1076.959</ele>
      <time>2021-10-12T12:32:21Z</time>
    </trkpt>
    <trkpt lat="38.657503976" lon="34.822556041">
      <ele>1076.173</ele>
      <time>2021-10-12T12:32:25Z</time>
    </trkpt>
    <trkpt lat="38.657537" lon="34.82253802">
      <ele>1075.87</ele>
      <time>2021-10-12T12:32:27Z</time>
    </trkpt>
    <trkpt lat="38.657591986" lon="34.822478006">
      <ele>1075.259</ele>
      <time>2021-10-12T12:32:29Z</time>
    </trkpt>
    <trkpt lat="38.657654012" lon="34.822402988">
      <ele>1074.542</ele>
      <time>2021-10-12T12:32:32Z</time>
    </trkpt>
    <trkpt lat="38.657684019" lon="34.822368035">
      <ele>1074.2</ele>
      <time>2021-10-12T12:32:34Z</time>
    </trkpt>
    <trkpt lat="38.65771302" lon="34.822328975">
      <ele>1073.851</ele>
      <time>2021-10-12T12:32:35Z</time>
    </trkpt>
    <trkpt lat="38.65774001" lon="34.82228497">
      <ele>1073.498</ele>
      <time>2021-10-12T12:32:37Z</time>
    </trkpt>
    <trkpt lat="38.657761971" lon="34.822245995">
      <ele>1073.199</ele>
      <time>2021-10-12T12:32:38Z</time>
    </trkpt>
    <trkpt lat="38.657787032" lon="34.822211964">
      <ele>1073.071</ele>
      <time>2021-10-12T12:32:40Z</time>
    </trkpt>
    <trkpt lat="38.657840006" lon="34.822157985">
      <ele>1073.507</ele>
      <time>2021-10-12T12:32:42Z</time>
    </trkpt>
    <trkpt lat="38.657944025" lon="34.822102999">
      <ele>1074.285</ele>
      <time>2021-10-12T12:32:46Z</time>
    </trkpt>
    <trkpt lat="38.657975039" lon="34.822108028">
      <ele>1074.413</ele>
      <time>2021-10-12T12:32:48Z</time>
    </trkpt>
    <trkpt lat="38.658005968" lon="34.822125966">
      <ele>1074.453</ele>
      <time>2021-10-12T12:32:49Z</time>
    </trkpt>
    <trkpt lat="38.658035975" lon="34.82214801">
      <ele>1074.445</ele>
      <time>2021-10-12T12:32:50Z</time>
    </trkpt>
    <trkpt lat="38.658069" lon="34.822169971">
      <ele>1074.289</ele>
      <time>2021-10-12T12:32:52Z</time>
    </trkpt>
    <trkpt lat="38.658102024" lon="34.822193021">
      <ele>1073.893</ele>
      <time>2021-10-12T12:32:53Z</time>
    </trkpt>
    <trkpt lat="38.658129014" lon="34.822222022">
      <ele>1073.473</ele>
      <time>2021-10-12T12:32:54Z</time>
    </trkpt>
    <trkpt lat="38.658160027" lon="34.822255969">
      <ele>1073.202</ele>
      <time>2021-10-12T12:32:56Z</time>
    </trkpt>
    <trkpt lat="38.658186011" lon="34.822301986">
      <ele>1072.926</ele>
      <time>2021-10-12T12:32:57Z</time>
    </trkpt>
    <trkpt lat="38.658234039" lon="34.822437018">
      <ele>1072.218</ele>
      <time>2021-10-12T12:33:02Z</time>
    </trkpt>
    <trkpt lat="38.658277038" lon="34.822562998">
      <ele>1071.789</ele>
      <time>2021-10-12T12:33:06Z</time>
    </trkpt>
    <trkpt lat="38.658351973" lon="34.822643967">
      <ele>1071.384</ele>
      <time>2021-10-12T12:33:09Z</time>
    </trkpt>
    <trkpt lat="38.658391032" lon="34.822654026">
      <ele>1071.139</ele>
      <time>2021-10-12T12:33:11Z</time>
    </trkpt>
    <trkpt lat="38.658431014" lon="34.822658971">
      <ele>1070.869</ele>
      <time>2021-10-12T12:33:12Z</time>
    </trkpt>
    <trkpt lat="38.658468984" lon="34.822662994">
      <ele>1070.61</ele>
      <time>2021-10-12T12:33:14Z</time>
    </trkpt>
    <trkpt lat="38.658508966" lon="34.822665006">
      <ele>1070.329</ele>
      <time>2021-10-12T12:33:15Z</time>
    </trkpt>
    <trkpt lat="38.658546014" lon="34.822666012">
      <ele>1070.066</ele>
      <time>2021-10-12T12:33:17Z</time>
    </trkpt>
    <trkpt lat="38.658580966" lon="34.822666012">
      <ele>1069.815</ele>
      <time>2021-10-12T12:33:18Z</time>
    </trkpt>
    <trkpt lat="38.658618014" lon="34.822669029">
      <ele>1069.578</ele>
      <time>2021-10-12T12:33:19Z</time>
    </trkpt>
    <trkpt lat="38.658651961" lon="34.822670035">
      <ele>1069.432</ele>
      <time>2021-10-12T12:33:20Z</time>
    </trkpt>
    <trkpt lat="38.65868398" lon="34.822676992">
      <ele>1069.303</ele>
      <time>2021-10-12T12:33:22Z</time>
    </trkpt>
    <trkpt lat="38.658711975" lon="34.822691996">
      <ele>1069.189</ele>
      <time>2021-10-12T12:33:23Z</time>
    </trkpt>
    <trkpt lat="38.658818007" lon="34.822775982">
      <ele>1068.514</ele>
      <time>2021-10-12T12:33:27Z</time>
    </trkpt>
    <trkpt lat="38.658895958" lon="34.822857035">
      <ele>1068.582</ele>
      <time>2021-10-12T12:33:31Z</time>
    </trkpt>
    <trkpt lat="38.65895899" lon="34.822938005">
      <ele>1069.115</ele>
      <time>2021-10-12T12:33:34Z</time>
    </trkpt>
    <trkpt lat="38.659028979" lon="34.822974969">
      <ele>1069.208</ele>
      <time>2021-10-12T12:33:37Z</time>
    </trkpt>
    <trkpt lat="38.659067033" lon="34.822988966">
      <ele>1069.187</ele>
      <time>2021-10-12T12:33:39Z</time>
    </trkpt>
    <trkpt lat="38.659102991" lon="34.822995001">
      <ele>1069.129</ele>
      <time>2021-10-12T12:33:40Z</time>
    </trkpt>
    <trkpt lat="38.659139033" lon="34.823000031">
      <ele>1069.06</ele>
      <time>2021-10-12T12:33:41Z</time>
    </trkpt>
    <trkpt lat="38.659177003" lon="34.823008999">
      <ele>1069.0</ele>
      <time>2021-10-12T12:33:43Z</time>
    </trkpt>
    <trkpt lat="38.659222014" lon="34.823031966">
      <ele>1069.0</ele>
      <time>2021-10-12T12:33:45Z</time>
    </trkpt>
    <trkpt lat="38.65926099" lon="34.82306499">
      <ele>1069.067</ele>
      <time>2021-10-12T12:33:46Z</time>
    </trkpt>
    <trkpt lat="38.659295021" lon="34.823103966">
      <ele>1069.281</ele>
      <time>2021-10-12T12:33:48Z</time>
    </trkpt>
    <trkpt lat="38.659354029" lon="34.823192982">
      <ele>1069.483</ele>
      <time>2021-10-12T12:33:51Z</time>
    </trkpt>
    <trkpt lat="38.65937599" lon="34.823232042">
      <ele>1069.47</ele>
      <time>2021-10-12T12:33:53Z</time>
    </trkpt>
    <trkpt lat="38.65939904" lon="34.823266994">
      <ele>1069.373</ele>
      <time>2021-10-12T12:33:54Z</time>
    </trkpt>
    <trkpt lat="38.659422006" lon="34.823298007">
      <ele>1069.212</ele>
      <time>2021-10-12T12:33:55Z</time>
    </trkpt>
    <trkpt lat="38.659445979" lon="34.823327009">
      <ele>1068.995</ele>
      <time>2021-10-12T12:33:57Z</time>
    </trkpt>
    <trkpt lat="38.65947498" lon="34.823358022">
      <ele>1068.969</ele>
      <time>2021-10-12T12:33:58Z</time>
    </trkpt>
    <trkpt lat="38.65950197" lon="34.823392974">
      <ele>1068.963</ele>
      <time>2021-10-12T12:33:59Z</time>
    </trkpt>
    <trkpt lat="38.659529965" lon="34.823425999">
      <ele>1068.923</ele>
      <time>2021-10-12T12:34:01Z</time>
    </trkpt>
    <trkpt lat="38.659548992" lon="34.823451983">
      <ele>1068.89</ele>
      <time>2021-10-12T12:34:02Z</time>
    </trkpt>
    <trkpt lat="38.659571037" lon="34.823477967">
      <ele>1068.828</ele>
      <time>2021-10-12T12:34:03Z</time>
    </trkpt>
    <trkpt lat="38.659590986" lon="34.823497999">
      <ele>1068.753</ele>
      <time>2021-10-12T12:34:04Z</time>
    </trkpt>
    <trkpt lat="38.659644965" lon="34.823554996">
      <ele>1068.5</ele>
      <time>2021-10-12T12:34:07Z</time>
    </trkpt>
    <trkpt lat="38.659674972" lon="34.823577963">
      <ele>1068.32</ele>
      <time>2021-10-12T12:34:08Z</time>
    </trkpt>
    <trkpt lat="38.659702968" lon="34.823606964">
      <ele>1068.138</ele>
      <time>2021-10-12T12:34:09Z</time>
    </trkpt>
    <trkpt lat="38.659730041" lon="34.823632026">
      <ele>1068.071</ele>
      <time>2021-10-12T12:34:10Z</time>
    </trkpt>
    <trkpt lat="38.659802964" lon="34.823730011">
      <ele>1068.179</ele>
      <time>2021-10-12T12:34:14Z</time>
    </trkpt>
    <trkpt lat="38.659826014" lon="34.823763035">
      <ele>1068.138</ele>
      <time>2021-10-12T12:34:16Z</time>
    </trkpt>
    <trkpt lat="38.659848981" lon="34.823798994">
      <ele>1068.059</ele>
      <time>2021-10-12T12:34:17Z</time>
    </trkpt>
    <trkpt lat="38.65987597" lon="34.823836964">
      <ele>1067.913</ele>
      <time>2021-10-12T12:34:18Z</time>
    </trkpt>
    <trkpt lat="38.659953" lon="34.82394903">
      <ele>1067.592</ele>
      <time>2021-10-12T12:34:23Z</time>
    </trkpt>
    <trkpt lat="38.659977978" lon="34.823984988">
      <ele>1067.532</ele>
      <time>2021-10-12T12:34:24Z</time>
    </trkpt>
    <trkpt lat="38.660006979" lon="34.824018013">
      <ele>1067.428</ele>
      <time>2021-10-12T12:34:26Z</time>
    </trkpt>
    <trkpt lat="38.660036987" lon="34.824047014">
      <ele>1067.36</ele>
      <time>2021-10-12T12:34:27Z</time>
    </trkpt>
    <trkpt lat="38.660068" lon="34.824076016">
      <ele>1067.264</ele>
      <time>2021-10-12T12:34:28Z</time>
    </trkpt>
    <trkpt lat="38.660104964" lon="34.824101999">
      <ele>1067.099</ele>
      <time>2021-10-12T12:34:30Z</time>
    </trkpt>
    <trkpt lat="38.660143018" lon="34.824121026">
      <ele>1066.891</ele>
      <time>2021-10-12T12:34:31Z</time>
    </trkpt>
    <trkpt lat="38.660180988" lon="34.824135024">
      <ele>1066.657</ele>
      <time>2021-10-12T12:34:33Z</time>
    </trkpt>
    <trkpt lat="38.660222981" lon="34.824150028">
      <ele>1066.383</ele>
      <time>2021-10-12T12:34:35Z</time>
    </trkpt>
    <trkpt lat="38.66026598" lon="34.82416302">
      <ele>1066.084</ele>
      <time>2021-10-12T12:34:36Z</time>
    </trkpt>
    <trkpt lat="38.660303028" lon="34.824169977">
      <ele>1066.034</ele>
      <time>2021-10-12T12:34:38Z</time>
    </trkpt>
    <trkpt lat="38.660342004" lon="34.824176012">
      <ele>1066.085</ele>
      <time>2021-10-12T12:34:39Z</time>
    </trkpt>
    <trkpt lat="38.660381986" lon="34.824181041">
      <ele>1066.116</ele>
      <time>2021-10-12T12:34:41Z</time>
    </trkpt>
    <trkpt lat="38.660421968" lon="34.824182969">
      <ele>1066.115</ele>
      <time>2021-10-12T12:34:42Z</time>
    </trkpt>
    <trkpt lat="38.660462033" lon="34.824179029">
      <ele>1066.074</ele>
      <time>2021-10-12T12:34:43Z</time>
    </trkpt>
    <trkpt lat="38.660504026" lon="34.824172994">
      <ele>1066.031</ele>
      <time>2021-10-12T12:34:45Z</time>
    </trkpt>
    <trkpt lat="38.660541996" lon="34.824164025">
      <ele>1066.0</ele>
      <time>2021-10-12T12:34:46Z</time>
    </trkpt>
    <trkpt lat="38.660580972" lon="34.824153967">
      <ele>1065.913</ele>
      <time>2021-10-12T12:34:48Z</time>
    </trkpt>
    <trkpt lat="38.660621038" lon="34.824143993">
      <ele>1065.784</ele>
      <time>2021-10-12T12:34:49Z</time>
    </trkpt>
    <trkpt lat="38.660654984" lon="34.82412396">
      <ele>1065.697</ele>
      <time>2021-10-12T12:34:51Z</time>
    </trkpt>
    <trkpt lat="38.660685997" lon="34.824106023">
      <ele>1065.633</ele>
      <time>2021-10-12T12:34:52Z</time>
    </trkpt>
    <trkpt lat="38.66072204" lon="34.824086996">
      <ele>1065.573</ele>
      <time>2021-10-12T12:34:54Z</time>
    </trkpt>
    <trkpt lat="38.660752969" lon="34.824066041">
      <ele>1065.547</ele>
      <time>2021-10-12T12:34:55Z</time>
    </trkpt>
    <trkpt lat="38.660780964" lon="34.824046008">
      <ele>1065.541</ele>
      <time>2021-10-12T12:34:56Z</time>
    </trkpt>
    <trkpt lat="38.660810972" lon="34.824031005">
      <ele>1065.53</ele>
      <time>2021-10-12T12:34:57Z</time>
    </trkpt>
    <trkpt lat="38.660843996" lon="34.82402103">
      <ele>1065.565</ele>
      <time>2021-10-12T12:34:58Z</time>
    </trkpt>
    <trkpt lat="38.660872998" lon="34.824009966">
      <ele>1065.725</ele>
      <time>2021-10-12T12:35:00Z</time>
    </trkpt>
    <trkpt lat="38.660903005" lon="34.824005021">
      <ele>1065.874</ele>
      <time>2021-10-12T12:35:01Z</time>
    </trkpt>
    <trkpt lat="38.660935024" lon="34.823998986">
      <ele>1066.046</ele>
      <time>2021-10-12T12:35:02Z</time>
    </trkpt>
    <trkpt lat="38.660970982" lon="34.824003009">
      <ele>1066.173</ele>
      <time>2021-10-12T12:35:03Z</time>
    </trkpt>
    <trkpt lat="38.661006019" lon="34.824018013">
      <ele>1066.201</ele>
      <time>2021-10-12T12:35:05Z</time>
    </trkpt>
    <trkpt lat="38.661040971" lon="34.824039973">
      <ele>1066.138</ele>
      <time>2021-10-12T12:35:06Z</time>
    </trkpt>
    <trkpt lat="38.661076007" lon="34.824068975">
      <ele>1065.966</ele>
      <time>2021-10-12T12:35:08Z</time>
    </trkpt>
    <trkpt lat="38.66110702" lon="34.824104011">
      <ele>1065.67</ele>
      <time>2021-10-12T12:35:09Z</time>
    </trkpt>
    <trkpt lat="38.661177009" lon="34.82422404">
      <ele>1064.507</ele>
      <time>2021-10-12T12:35:13Z</time>
    </trkpt>
    <trkpt lat="38.661251022" lon="34.824308027">
      <ele>1063.731</ele>
      <time>2021-10-12T12:35:17Z</time>
    </trkpt>
    <trkpt lat="38.661330985" lon="34.82438799">
      <ele>1062.781</ele>
      <time>2021-10-12T12:35:21Z</time>
    </trkpt>
    <trkpt lat="38.661421007" lon="34.824468959">
      <ele>1061.602</ele>
      <time>2021-10-12T12:35:25Z</time>
    </trkpt>
    <trkpt lat="38.661527038" lon="34.824511036">
      <ele>1060.645</ele>
      <time>2021-10-12T12:35:29Z</time>
    </trkpt>
    <trkpt lat="38.661565008" lon="34.824532997">
      <ele>1060.296</ele>
      <time>2021-10-12T12:35:31Z</time>
    </trkpt>
    <trkpt lat="38.661641032" lon="34.824582031">
      <ele>1059.644</ele>
      <time>2021-10-12T12:35:34Z</time>
    </trkpt>
    <trkpt lat="38.661674978" lon="34.82461296">
      <ele>1059.345</ele>
      <time>2021-10-12T12:35:35Z</time>
    </trkpt>
    <trkpt lat="38.661708003" lon="34.824643973">
      <ele>1059.026</ele>
      <time>2021-10-12T12:35:37Z</time>
    </trkpt>
    <trkpt lat="38.661732981" lon="34.824676998">
      <ele>1058.724</ele>
      <time>2021-10-12T12:35:38Z</time>
    </trkpt>
    <trkpt lat="38.661760977" lon="34.824713962">
      <ele>1058.361</ele>
      <time>2021-10-12T12:35:40Z</time>
    </trkpt>
    <trkpt lat="38.66178696" lon="34.824754028">
      <ele>1058.069</ele>
      <time>2021-10-12T12:35:41Z</time>
    </trkpt>
    <trkpt lat="38.661810011" lon="34.824791998">
      <ele>1057.846</ele>
      <time>2021-10-12T12:35:43Z</time>
    </trkpt>
    <trkpt lat="38.661841024" lon="34.824828962">
      <ele>1057.602</ele>
      <time>2021-10-12T12:35:44Z</time>
    </trkpt>
    <trkpt lat="38.661871031" lon="34.824870033">
      <ele>1057.388</ele>
      <time>2021-10-12T12:35:46Z</time>
    </trkpt>
    <trkpt lat="38.661893997" lon="34.824900962">
      <ele>1057.246</ele>
      <time>2021-10-12T12:35:47Z</time>
    </trkpt>
    <trkpt lat="38.661920987" lon="34.824933987">
      <ele>1057.105</ele>
      <time>2021-10-12T12:35:48Z</time>
    </trkpt>
    <trkpt lat="38.661942026" lon="34.824963994">
      <ele>1057.01</ele>
      <time>2021-10-12T12:35:50Z</time>
    </trkpt>
    <trkpt lat="38.661964992" lon="34.824999031">
      <ele>1056.926</ele>
      <time>2021-10-12T12:35:51Z</time>
    </trkpt>
    <trkpt lat="38.661987958" lon="34.825031972">
      <ele>1056.958</ele>
      <time>2021-10-12T12:35:52Z</time>
    </trkpt>
    <trkpt lat="38.662007991" lon="34.825064996">
      <ele>1057.005</ele>
      <time>2021-10-12T12:35:53Z</time>
    </trkpt>
    <trkpt lat="38.662025006" lon="34.825098021">
      <ele>1057.063</ele>
      <time>2021-10-12T12:35:55Z</time>
    </trkpt>
    <trkpt lat="38.662041016" lon="34.825129034">
      <ele>1057.117</ele>
      <time>2021-10-12T12:35:56Z</time>
    </trkpt>
    <trkpt lat="38.66205602" lon="34.825160969">
      <ele>1057.178</ele>
      <time>2021-10-12T12:35:57Z</time>
    </trkpt>
    <trkpt lat="38.662075968" lon="34.825198017">
      <ele>1057.239</ele>
      <time>2021-10-12T12:35:58Z</time>
    </trkpt>
    <trkpt lat="38.662127014" lon="34.825286027">
      <ele>1057.383</ele>
      <time>2021-10-12T12:36:01Z</time>
    </trkpt>
    <trkpt lat="38.662154004" lon="34.825329026">
      <ele>1057.475</ele>
      <time>2021-10-12T12:36:03Z</time>
    </trkpt>
    <trkpt lat="38.662184011" lon="34.825364985">
      <ele>1057.495</ele>
      <time>2021-10-12T12:36:04Z</time>
    </trkpt>
    <trkpt lat="38.662212007" lon="34.825400021">
      <ele>1057.493</ele>
      <time>2021-10-12T12:36:06Z</time>
    </trkpt>
    <trkpt lat="38.662241008" lon="34.825430028">
      <ele>1057.413</ele>
      <time>2021-10-12T12:36:07Z</time>
    </trkpt>
    <trkpt lat="38.662271015" lon="34.825451989">
      <ele>1057.276</ele>
      <time>2021-10-12T12:36:08Z</time>
    </trkpt>
    <trkpt lat="38.662305968" lon="34.825476967">
      <ele>1057.114</ele>
      <time>2021-10-12T12:36:10Z</time>
    </trkpt>
    <trkpt lat="38.662337987" lon="34.825497">
      <ele>1056.956</ele>
      <time>2021-10-12T12:36:11Z</time>
    </trkpt>
    <trkpt lat="38.662373023" lon="34.825517032">
      <ele>1056.776</ele>
      <time>2021-10-12T12:36:13Z</time>
    </trkpt>
    <trkpt lat="38.662409987" lon="34.825529018">
      <ele>1056.553</ele>
      <time>2021-10-12T12:36:14Z</time>
    </trkpt>
    <trkpt lat="38.662443012" lon="34.825533042">
      <ele>1056.329</ele>
      <time>2021-10-12T12:36:15Z</time>
    </trkpt>
    <trkpt lat="38.662475031" lon="34.825530024">
      <ele>1056.088</ele>
      <time>2021-10-12T12:36:16Z</time>
    </trkpt>
    <trkpt lat="38.662506966" lon="34.825529018">
      <ele>1055.857</ele>
      <time>2021-10-12T12:36:18Z</time>
    </trkpt>
    <trkpt lat="38.662535967" lon="34.825524995">
      <ele>1055.645</ele>
      <time>2021-10-12T12:36:19Z</time>
    </trkpt>
    <trkpt lat="38.662563041" lon="34.82551896">
      <ele>1055.444</ele>
      <time>2021-10-12T12:36:20Z</time>
    </trkpt>
    <trkpt lat="38.662588019" lon="34.825509991">
      <ele>1055.254</ele>
      <time>2021-10-12T12:36:21Z</time>
    </trkpt>
    <trkpt lat="38.662615009" lon="34.82550798">
      <ele>1055.072</ele>
      <time>2021-10-12T12:36:22Z</time>
    </trkpt>
    <trkpt lat="38.662643004" lon="34.825509991">
      <ele>1054.891</ele>
      <time>2021-10-12T12:36:23Z</time>
    </trkpt>
    <trkpt lat="38.662671" lon="34.825521978">
      <ele>1054.722</ele>
      <time>2021-10-12T12:36:24Z</time>
    </trkpt>
    <trkpt lat="38.662704024" lon="34.82554201">
      <ele>1054.518</ele>
      <time>2021-10-12T12:36:25Z</time>
    </trkpt>
    <trkpt lat="38.66273596" lon="34.825566988">
      <ele>1054.377</ele>
      <time>2021-10-12T12:36:27Z</time>
    </trkpt>
    <trkpt lat="38.662764961" lon="34.82559599">
      <ele>1054.377</ele>
      <time>2021-10-12T12:36:28Z</time>
    </trkpt>
    <trkpt lat="38.66279698" lon="34.82563002">
      <ele>1054.43</ele>
      <time>2021-10-12T12:36:29Z</time>
    </trkpt>
    <trkpt lat="38.662822042" lon="34.825664973">
      <ele>1054.503</ele>
      <time>2021-10-12T12:36:31Z</time>
    </trkpt>
    <trkpt lat="38.662849031" lon="34.825700009">
      <ele>1054.517</ele>
      <time>2021-10-12T12:36:32Z</time>
    </trkpt>
    <trkpt lat="38.662876021" lon="34.825740997">
      <ele>1054.509</ele>
      <time>2021-10-12T12:36:34Z</time>
    </trkpt>
    <trkpt lat="38.662904017" lon="34.825781984">
      <ele>1054.435</ele>
      <time>2021-10-12T12:36:35Z</time>
    </trkpt>
    <trkpt lat="38.662932012" lon="34.825822972">
      <ele>1054.301</ele>
      <time>2021-10-12T12:36:37Z</time>
    </trkpt>
    <trkpt lat="38.662963025" lon="34.825867983">
      <ele>1054.124</ele>
      <time>2021-10-12T12:36:39Z</time>
    </trkpt>
    <trkpt lat="38.662989009" lon="34.825915005">
      <ele>1054.013</ele>
      <time>2021-10-12T12:36:40Z</time>
    </trkpt>
    <trkpt lat="38.663011976" lon="34.825960016">
      <ele>1053.927</ele>
      <time>2021-10-12T12:36:42Z</time>
    </trkpt>
    <trkpt lat="38.663036032" lon="34.82599698">
      <ele>1053.8</ele>
      <time>2021-10-12T12:36:43Z</time>
    </trkpt>
    <trkpt lat="38.663062016" lon="34.826037968">
      <ele>1053.69</ele>
      <time>2021-10-12T12:36:45Z</time>
    </trkpt>
    <trkpt lat="38.663087999" lon="34.82607401">
      <ele>1053.633</ele>
      <time>2021-10-12T12:36:46Z</time>
    </trkpt>
    <trkpt lat="38.663117001" lon="34.826110974">
      <ele>1053.557</ele>
      <time>2021-10-12T12:36:48Z</time>
    </trkpt>
    <trkpt lat="38.663141979" lon="34.826147016">
      <ele>1053.507</ele>
      <time>2021-10-12T12:36:49Z</time>
    </trkpt>
    <trkpt lat="38.663165029" lon="34.82618398">
      <ele>1053.474</ele>
      <time>2021-10-12T12:36:51Z</time>
    </trkpt>
    <trkpt lat="38.663187996" lon="34.826225974">
      <ele>1053.46</ele>
      <time>2021-10-12T12:36:52Z</time>
    </trkpt>
    <trkpt lat="38.663214985" lon="34.826266961">
      <ele>1053.413</ele>
      <time>2021-10-12T12:36:54Z</time>
    </trkpt>
    <trkpt lat="38.663236024" lon="34.826311972">
      <ele>1053.424</ele>
      <time>2021-10-12T12:36:55Z</time>
    </trkpt>
    <trkpt lat="38.663254967" lon="34.826354971">
      <ele>1053.442</ele>
      <time>2021-10-12T12:36:57Z</time>
    </trkpt>
    <trkpt lat="38.663271982" lon="34.82639797">
      <ele>1053.442</ele>
      <time>2021-10-12T12:36:58Z</time>
    </trkpt>
    <trkpt lat="38.663304001" lon="34.826533003">
      <ele>1053.211</ele>
      <time>2021-10-12T12:37:02Z</time>
    </trkpt>
    <trkpt lat="38.66331297" lon="34.826581031">
      <ele>1053.147</ele>
      <time>2021-10-12T12:37:03Z</time>
    </trkpt>
    <trkpt lat="38.663320011" lon="34.826722015">
      <ele>1052.897</ele>
      <time>2021-10-12T12:37:08Z</time>
    </trkpt>
    <trkpt lat="38.663341971" lon="34.826853024">
      <ele>1052.288</ele>
      <time>2021-10-12T12:37:11Z</time>
    </trkpt>
    <trkpt lat="38.663351024" lon="34.826897029">
      <ele>1052.096</ele>
      <time>2021-10-12T12:37:13Z</time>
    </trkpt>
    <trkpt lat="38.663365021" lon="34.82694204">
      <ele>1051.894</ele>
      <time>2021-10-12T12:37:14Z</time>
    </trkpt>
    <trkpt lat="38.663372984" lon="34.826986967">
      <ele>1051.704</ele>
      <time>2021-10-12T12:37:15Z</time>
    </trkpt>
    <trkpt lat="38.663381031" lon="34.827036001">
      <ele>1051.499</ele>
      <time>2021-10-12T12:37:17Z</time>
    </trkpt>
    <trkpt lat="38.66338497" lon="34.827082017">
      <ele>1051.319</ele>
      <time>2021-10-12T12:37:18Z</time>
    </trkpt>
    <trkpt lat="38.663387988" lon="34.827127028">
      <ele>1051.146</ele>
      <time>2021-10-12T12:37:20Z</time>
    </trkpt>
    <trkpt lat="38.663382959" lon="34.827174973">
      <ele>1050.991</ele>
      <time>2021-10-12T12:37:21Z</time>
    </trkpt>
    <trkpt lat="38.663381031" lon="34.827217972">
      <ele>1050.844</ele>
      <time>2021-10-12T12:37:22Z</time>
    </trkpt>
    <trkpt lat="38.663379019" lon="34.827260971">
      <ele>1050.952</ele>
      <time>2021-10-12T12:37:24Z</time>
    </trkpt>
    <trkpt lat="38.663370972" lon="34.827301959">
      <ele>1051.113</ele>
      <time>2021-10-12T12:37:25Z</time>
    </trkpt>
    <trkpt lat="38.663364016" lon="34.827345042">
      <ele>1051.283</ele>
      <time>2021-10-12T12:37:26Z</time>
    </trkpt>
    <trkpt lat="38.66336301" lon="34.827384017">
      <ele>1051.413</ele>
      <time>2021-10-12T12:37:27Z</time>
    </trkpt>
    <trkpt lat="38.663356975" lon="34.827426011">
      <ele>1051.586</ele>
      <time>2021-10-12T12:37:28Z</time>
    </trkpt>
    <trkpt lat="38.663348006" lon="34.827468004">
      <ele>1051.785</ele>
      <time>2021-10-12T12:37:30Z</time>
    </trkpt>
    <trkpt lat="38.663348006" lon="34.827507986">
      <ele>1051.923</ele>
      <time>2021-10-12T12:37:31Z</time>
    </trkpt>
    <trkpt lat="38.663343983" lon="34.827548973">
      <ele>1052.1</ele>
      <time>2021-10-12T12:37:32Z</time>
    </trkpt>
    <trkpt lat="38.663345994" lon="34.827590967">
      <ele>1052.236</ele>
      <time>2021-10-12T12:37:33Z</time>
    </trkpt>
    <trkpt lat="38.663348006" lon="34.827631032">
      <ele>1052.366</ele>
      <time>2021-10-12T12:37:34Z</time>
    </trkpt>
    <trkpt lat="38.663348006" lon="34.827669002">
      <ele>1052.503</ele>
      <time>2021-10-12T12:37:35Z</time>
    </trkpt>
    <trkpt lat="38.663345994" lon="34.827708984">
      <ele>1052.661</ele>
      <time>2021-10-12T12:37:37Z</time>
    </trkpt>
    <trkpt lat="38.663350018" lon="34.827746032">
      <ele>1052.766</ele>
      <time>2021-10-12T12:37:38Z</time>
    </trkpt>
    <trkpt lat="38.663353035" lon="34.827788025">
      <ele>1052.964</ele>
      <time>2021-10-12T12:37:39Z</time>
    </trkpt>
    <trkpt lat="38.663359992" lon="34.827828007">
      <ele>1053.316</ele>
      <time>2021-10-12T12:37:40Z</time>
    </trkpt>
    <trkpt lat="38.663364016" lon="34.827872012">
      <ele>1053.722</ele>
      <time>2021-10-12T12:37:41Z</time>
    </trkpt>
    <trkpt lat="38.663369967" lon="34.827915011">
      <ele>1054.088</ele>
      <time>2021-10-12T12:37:43Z</time>
    </trkpt>
    <trkpt lat="38.663377007" lon="34.827954993">
      <ele>1054.399</ele>
      <time>2021-10-12T12:37:44Z</time>
    </trkpt>
    <trkpt lat="38.663382037" lon="34.827992963">
      <ele>1054.702</ele>
      <time>2021-10-12T12:37:45Z</time>
    </trkpt>
    <trkpt lat="38.663385976" lon="34.828031017">
      <ele>1055.01</ele>
      <time>2021-10-12T12:37:46Z</time>
    </trkpt>
    <trkpt lat="38.663386982" lon="34.828068987">
      <ele>1055.354</ele>
      <time>2021-10-12T12:37:47Z</time>
    </trkpt>
    <trkpt lat="38.663391005" lon="34.828107962">
      <ele>1055.657</ele>
      <time>2021-10-12T12:37:48Z</time>
    </trkpt>
    <trkpt lat="38.663396034" lon="34.82814501">
      <ele>1055.918</ele>
      <time>2021-10-12T12:37:49Z</time>
    </trkpt>
    <trkpt lat="38.663399974" lon="34.828183986">
      <ele>1056.206</ele>
      <time>2021-10-12T12:37:51Z</time>
    </trkpt>
    <trkpt lat="38.663407015" lon="34.828221034">
      <ele>1056.41</ele>
      <time>2021-10-12T12:37:52Z</time>
    </trkpt>
    <trkpt lat="38.663409026" lon="34.82826001">
      <ele>1056.717</ele>
      <time>2021-10-12T12:37:53Z</time>
    </trkpt>
    <trkpt lat="38.663410032" lon="34.82829798">
      <ele>1057.032</ele>
      <time>2021-10-12T12:37:54Z</time>
    </trkpt>
    <trkpt lat="38.663410032" lon="34.828332011">
      <ele>1057.332</ele>
      <time>2021-10-12T12:37:55Z</time>
    </trkpt>
    <trkpt lat="38.663409026" lon="34.828366963">
      <ele>1057.42</ele>
      <time>2021-10-12T12:37:56Z</time>
    </trkpt>
    <trkpt lat="38.663403997" lon="34.828402">
      <ele>1057.595</ele>
      <time>2021-10-12T12:37:57Z</time>
    </trkpt>
    <trkpt lat="38.663398968" lon="34.828438042">
      <ele>1057.781</ele>
      <time>2021-10-12T12:37:58Z</time>
    </trkpt>
    <trkpt lat="38.663388994" lon="34.828467965">
      <ele>1058.088</ele>
      <time>2021-10-12T12:37:59Z</time>
    </trkpt>
    <trkpt lat="38.663377007" lon="34.828495039">
      <ele>1058.456</ele>
      <time>2021-10-12T12:38:00Z</time>
    </trkpt>
    <trkpt lat="38.663364016" lon="34.828524962">
      <ele>1058.875</ele>
      <time>2021-10-12T12:38:01Z</time>
    </trkpt>
    <trkpt lat="38.663351024" lon="34.828554969">
      <ele>1059.314</ele>
      <time>2021-10-12T12:38:02Z</time>
    </trkpt>
    <trkpt lat="38.663338032" lon="34.828584976">
      <ele>1059.774</ele>
      <time>2021-10-12T12:38:03Z</time>
    </trkpt>
    <trkpt lat="38.663328979" lon="34.828611966">
      <ele>1060.138</ele>
      <time>2021-10-12T12:38:04Z</time>
    </trkpt>
    <trkpt lat="38.663315987" lon="34.828640968">
      <ele>1060.455</ele>
      <time>2021-10-12T12:38:05Z</time>
    </trkpt>
    <trkpt lat="38.663304001" lon="34.828670975">
      <ele>1060.735</ele>
      <time>2021-10-12T12:38:06Z</time>
    </trkpt>
    <trkpt lat="38.663294027" lon="34.828699976">
      <ele>1060.954</ele>
      <time>2021-10-12T12:38:07Z</time>
    </trkpt>
    <trkpt lat="38.663282041" lon="34.828729983">
      <ele>1061.234</ele>
      <time>2021-10-12T12:38:08Z</time>
    </trkpt>
    <trkpt lat="38.663275" lon="34.828760996">
      <ele>1061.35</ele>
      <time>2021-10-12T12:38:08Z</time>
    </trkpt>
    <trkpt lat="38.663267037" lon="34.828796033">
      <ele>1061.482</ele>
      <time>2021-10-12T12:38:10Z</time>
    </trkpt>
    <trkpt lat="38.663254967" lon="34.828834003">
      <ele>1061.737</ele>
      <time>2021-10-12T12:38:11Z</time>
    </trkpt>
    <trkpt lat="38.663245998" lon="34.828868033">
      <ele>1061.905</ele>
      <time>2021-10-12T12:38:12Z</time>
    </trkpt>
    <trkpt lat="38.66323703" lon="34.82890198">
      <ele>1062.024</ele>
      <time>2021-10-12T12:38:13Z</time>
    </trkpt>
    <trkpt lat="38.663233006" lon="34.828937016">
      <ele>1061.89</ele>
      <time>2021-10-12T12:38:14Z</time>
    </trkpt>
    <trkpt lat="38.663225966" lon="34.828975992">
      <ele>1061.802</ele>
      <time>2021-10-12T12:38:15Z</time>
    </trkpt>
    <trkpt lat="38.663218003" lon="34.829014968">
      <ele>1061.717</ele>
      <time>2021-10-12T12:38:16Z</time>
    </trkpt>
    <trkpt lat="38.66321004" lon="34.829054028">
      <ele>1061.609</ele>
      <time>2021-10-12T12:38:17Z</time>
    </trkpt>
    <trkpt lat="38.663206017" lon="34.829093004">
      <ele>1061.38</ele>
      <time>2021-10-12T12:38:18Z</time>
    </trkpt>
    <trkpt lat="38.663202999" lon="34.829130974">
      <ele>1061.125</ele>
      <time>2021-10-12T12:38:20Z</time>
    </trkpt>
    <trkpt lat="38.663205011" lon="34.829171039">
      <ele>1060.75</ele>
      <time>2021-10-12T12:38:21Z</time>
    </trkpt>
    <trkpt lat="38.663206017" lon="34.829213032">
      <ele>1060.521</ele>
      <time>2021-10-12T12:38:22Z</time>
    </trkpt>
    <trkpt lat="38.663209034" lon="34.82925402">
      <ele>1060.263</ele>
      <time>2021-10-12T12:38:23Z</time>
    </trkpt>
    <trkpt lat="38.663215991" lon="34.829294002">
      <ele>1059.954</ele>
      <time>2021-10-12T12:38:24Z</time>
    </trkpt>
    <trkpt lat="38.663225966" lon="34.82932996">
      <ele>1059.637</ele>
      <time>2021-10-12T12:38:25Z</time>
    </trkpt>
    <trkpt lat="38.663238036" lon="34.829372959">
      <ele>1059.294</ele>
      <time>2021-10-12T12:38:27Z</time>
    </trkpt>
    <trkpt lat="38.663251027" lon="34.829412019">
      <ele>1058.993</ele>
      <time>2021-10-12T12:38:28Z</time>
    </trkpt>
    <trkpt lat="38.663267959" lon="34.829450995">
      <ele>1058.706</ele>
      <time>2021-10-12T12:38:29Z</time>
    </trkpt>
    <trkpt lat="38.663287992" lon="34.829490976">
      <ele>1058.49</ele>
      <time>2021-10-12T12:38:31Z</time>
    </trkpt>
    <trkpt lat="38.663308024" lon="34.829531964">
      <ele>1058.273</ele>
      <time>2021-10-12T12:38:32Z</time>
    </trkpt>
    <trkpt lat="38.663329985" lon="34.829574963">
      <ele>1058.036</ele>
      <time>2021-10-12T12:38:34Z</time>
    </trkpt>
    <trkpt lat="38.663345994" lon="34.829618968">
      <ele>1057.921</ele>
      <time>2021-10-12T12:38:35Z</time>
    </trkpt>
    <trkpt lat="38.663357981" lon="34.829668002">
      <ele>1057.877</ele>
      <time>2021-10-12T12:38:36Z</time>
    </trkpt>
    <trkpt lat="38.663369967" lon="34.82971997">
      <ele>1057.866</ele>
      <time>2021-10-12T12:38:38Z</time>
    </trkpt>
    <trkpt lat="38.66337399" lon="34.829772022">
      <ele>1057.88</ele>
      <time>2021-10-12T12:38:40Z</time>
    </trkpt>
    <trkpt lat="38.663376002" lon="34.829820972">
      <ele>1057.901</ele>
      <time>2021-10-12T12:38:41Z</time>
    </trkpt>
    <trkpt lat="38.663365021" lon="34.829870006">
      <ele>1057.947</ele>
      <time>2021-10-12T12:38:42Z</time>
    </trkpt>
    <trkpt lat="38.663354041" lon="34.82991904">
      <ele>1057.978</ele>
      <time>2021-10-12T12:38:44Z</time>
    </trkpt>
    <trkpt lat="38.663339037" lon="34.829962961">
      <ele>1057.997</ele>
      <time>2021-10-12T12:38:45Z</time>
    </trkpt>
    <trkpt lat="38.663317999" lon="34.830003027">
      <ele>1058.099</ele>
      <time>2021-10-12T12:38:47Z</time>
    </trkpt>
    <trkpt lat="38.663295032" lon="34.830038985">
      <ele>1058.116</ele>
      <time>2021-10-12T12:38:48Z</time>
    </trkpt>
    <trkpt lat="38.663272988" lon="34.830071004">
      <ele>1058.123</ele>
      <time>2021-10-12T12:38:49Z</time>
    </trkpt>
    <trkpt lat="38.663255973" lon="34.830104029">
      <ele>1058.078</ele>
      <time>2021-10-12T12:38:50Z</time>
    </trkpt>
    <trkpt lat="38.66323703" lon="34.830135964">
      <ele>1058.034</ele>
      <time>2021-10-12T12:38:52Z</time>
    </trkpt>
    <trkpt lat="38.663216997" lon="34.830169994">
      <ele>1057.969</ele>
      <time>2021-10-12T12:38:53Z</time>
    </trkpt>
    <trkpt lat="38.66319797" lon="34.830209976">
      <ele>1057.85</ele>
      <time>2021-10-12T12:38:54Z</time>
    </trkpt>
    <trkpt lat="38.663177015" lon="34.830247024">
      <ele>1057.736</ele>
      <time>2021-10-12T12:38:56Z</time>
    </trkpt>
    <trkpt lat="38.663153965" lon="34.830281977">
      <ele>1057.621</ele>
      <time>2021-10-12T12:38:57Z</time>
    </trkpt>
    <trkpt lat="38.663129993" lon="34.830319025">
      <ele>1057.475</ele>
      <time>2021-10-12T12:38:58Z</time>
    </trkpt>
    <trkpt lat="38.663108032" lon="34.830354983">
      <ele>1057.308</ele>
      <time>2021-10-12T12:39:00Z</time>
    </trkpt>
    <trkpt lat="38.663083976" lon="34.830389014">
      <ele>1057.138</ele>
      <time>2021-10-12T12:39:01Z</time>
    </trkpt>
    <trkpt lat="38.66306101" lon="34.830423966">
      <ele>1056.938</ele>
      <time>2021-10-12T12:39:02Z</time>
    </trkpt>
    <trkpt lat="38.663037959" lon="34.830457997">
      <ele>1056.829</ele>
      <time>2021-10-12T12:39:04Z</time>
    </trkpt>
    <trkpt lat="38.663015999" lon="34.830492027">
      <ele>1056.742</ele>
      <time>2021-10-12T12:39:05Z</time>
    </trkpt>
    <trkpt lat="38.66299496" lon="34.830524968">
      <ele>1056.657</ele>
      <time>2021-10-12T12:39:06Z</time>
    </trkpt>
    <trkpt lat="38.662967971" lon="34.830554975">
      <ele>1056.635</ele>
      <time>2021-10-12T12:39:07Z</time>
    </trkpt>
    <trkpt lat="38.662939975" lon="34.830580959">
      <ele>1056.687</ele>
      <time>2021-10-12T12:39:09Z</time>
    </trkpt>
    <trkpt lat="38.662907034" lon="34.830599986">
      <ele>1056.835</ele>
      <time>2021-10-12T12:39:10Z</time>
    </trkpt>
    <trkpt lat="38.662873004" lon="34.830613984">
      <ele>1057.032</ele>
      <time>2021-10-12T12:39:11Z</time>
    </trkpt>
    <trkpt lat="38.662841991" lon="34.830624964">
      <ele>1057.23</ele>
      <time>2021-10-12T12:39:13Z</time>
    </trkpt>
    <trkpt lat="38.662809972" lon="34.830626976">
      <ele>1057.481</ele>
      <time>2021-10-12T12:39:14Z</time>
    </trkpt>
    <trkpt lat="38.662778959" lon="34.830615995">
      <ele>1057.773</ele>
      <time>2021-10-12T12:39:15Z</time>
    </trkpt>
    <trkpt lat="38.662749035" lon="34.83059898">
      <ele>1058.313</ele>
      <time>2021-10-12T12:39:16Z</time>
    </trkpt>
    <trkpt lat="38.662719028" lon="34.830580037">
      <ele>1058.913</ele>
      <time>2021-10-12T12:39:17Z</time>
    </trkpt>
    <trkpt lat="38.662690027" lon="34.830558999">
      <ele>1059.555</ele>
      <time>2021-10-12T12:39:19Z</time>
    </trkpt>
    <trkpt lat="38.662664965" lon="34.830537038">
      <ele>1060.164</ele>
      <time>2021-10-12T12:39:20Z</time>
    </trkpt>
    <trkpt lat="38.662638981" lon="34.830518011">
      <ele>1060.769</ele>
      <time>2021-10-12T12:39:21Z</time>
    </trkpt>
    <trkpt lat="38.662615009" lon="34.830494961">
      <ele>1061.366</ele>
      <time>2021-10-12T12:39:22Z</time>
    </trkpt>
    <trkpt lat="38.66259397" lon="34.830474006">
      <ele>1061.896</ele>
      <time>2021-10-12T12:39:23Z</time>
    </trkpt>
    <trkpt lat="38.662573015" lon="34.830449028">
      <ele>1062.453</ele>
      <time>2021-10-12T12:39:24Z</time>
    </trkpt>
    <trkpt lat="38.662557006" lon="34.830421032">
      <ele>1062.942</ele>
      <time>2021-10-12T12:39:25Z</time>
    </trkpt>
    <trkpt lat="38.662543008" lon="34.830394965">
      <ele>1063.382</ele>
      <time>2021-10-12T12:39:26Z</time>
    </trkpt>
    <trkpt lat="38.662525993" lon="34.830373004">
      <ele>1063.847</ele>
      <time>2021-10-12T12:39:27Z</time>
    </trkpt>
    <trkpt lat="38.662515013" lon="34.830352971">
      <ele>1064.188</ele>
      <time>2021-10-12T12:39:27Z</time>
    </trkpt>
    <trkpt lat="38.662501015" lon="34.830330005">
      <ele>1064.606</ele>
      <time>2021-10-12T12:39:28Z</time>
    </trkpt>
    <trkpt lat="38.662487017" lon="34.830310978">
      <ele>1064.942</ele>
      <time>2021-10-12T12:39:29Z</time>
    </trkpt>
    <trkpt lat="38.662476037" lon="34.830292035">
      <ele>1065.238</ele>
      <time>2021-10-12T12:39:30Z</time>
    </trkpt>
    <trkpt lat="38.662463967" lon="34.830270996">
      <ele>1065.498</ele>
      <time>2021-10-12T12:39:31Z</time>
    </trkpt>
    <trkpt lat="38.662450975" lon="34.830251969">
      <ele>1065.629</ele>
      <time>2021-10-12T12:39:31Z</time>
    </trkpt>
    <trkpt lat="38.662434965" lon="34.830234032">
      <ele>1065.816</ele>
      <time>2021-10-12T12:39:32Z</time>
    </trkpt>
    <trkpt lat="38.662421973" lon="34.830215005">
      <ele>1065.961</ele>
      <time>2021-10-12T12:39:33Z</time>
    </trkpt>
    <trkpt lat="38.662399007" lon="34.830178963">
      <ele>1066.228</ele>
      <time>2021-10-12T12:39:34Z</time>
    </trkpt>
    <trkpt lat="38.662386015" lon="34.830159014">
      <ele>1066.389</ele>
      <time>2021-10-12T12:39:35Z</time>
    </trkpt>
    <trkpt lat="38.662372017" lon="34.830143005">
      <ele>1066.581</ele>
      <time>2021-10-12T12:39:36Z</time>
    </trkpt>
    <trkpt lat="38.662356008" lon="34.830129007">
      <ele>1066.816</ele>
      <time>2021-10-12T12:39:36Z</time>
    </trkpt>
    <trkpt lat="38.662345028" lon="34.830107968">
      <ele>1066.961</ele>
      <time>2021-10-12T12:39:37Z</time>
    </trkpt>
    <trkpt lat="38.662330024" lon="34.830089025">
      <ele>1067.184</ele>
      <time>2021-10-12T12:39:38Z</time>
    </trkpt>
    <trkpt lat="38.662316026" lon="34.83007201">
      <ele>1067.399</ele>
      <time>2021-10-12T12:39:39Z</time>
    </trkpt>
    <trkpt lat="38.66229197" lon="34.830042003">
      <ele>1067.783</ele>
      <time>2021-10-12T12:39:40Z</time>
    </trkpt>
    <trkpt lat="38.662277972" lon="34.830026999">
      <ele>1068.016</ele>
      <time>2021-10-12T12:39:40Z</time>
    </trkpt>
    <trkpt lat="38.662263975" lon="34.830007972">
      <ele>1068.253</ele>
      <time>2021-10-12T12:39:41Z</time>
    </trkpt>
    <trkpt lat="38.662248971" lon="34.829993974">
      <ele>1068.519</ele>
      <time>2021-10-12T12:39:42Z</time>
    </trkpt>
    <trkpt lat="38.662232039" lon="34.829976959">
      <ele>1068.823</ele>
      <time>2021-10-12T12:39:43Z</time>
    </trkpt>
    <trkpt lat="38.66220396" lon="34.829954999">
      <ele>1069.416</ele>
      <time>2021-10-12T12:39:44Z</time>
    </trkpt>
    <trkpt lat="38.662186023" lon="34.829943012">
      <ele>1069.835</ele>
      <time>2021-10-12T12:39:45Z</time>
    </trkpt>
    <trkpt lat="38.662156016" lon="34.829924991">
      <ele>1070.559</ele>
      <time>2021-10-12T12:39:46Z</time>
    </trkpt>
    <trkpt lat="38.662140006" lon="34.829914011">
      <ele>1070.959</ele>
      <time>2021-10-12T12:39:47Z</time>
    </trkpt>
    <trkpt lat="38.662108993" lon="34.829890039">
      <ele>1071.768</ele>
      <time>2021-10-12T12:39:48Z</time>
    </trkpt>
    <trkpt lat="38.662076974" lon="34.829870006">
      <ele>1072.627</ele>
      <time>2021-10-12T12:39:49Z</time>
    </trkpt>
    <trkpt lat="38.662057025" lon="34.82985802">
      <ele>1073.176</ele>
      <time>2021-10-12T12:39:50Z</time>
    </trkpt>
    <trkpt lat="38.662039004" lon="34.829846034">
      <ele>1073.689</ele>
      <time>2021-10-12T12:39:51Z</time>
    </trkpt>
    <trkpt lat="38.662003968" lon="34.829818038">
      <ele>1074.744</ele>
      <time>2021-10-12T12:39:52Z</time>
    </trkpt>
    <trkpt lat="38.661985025" lon="34.829801023">
      <ele>1075.347</ele>
      <time>2021-10-12T12:39:53Z</time>
    </trkpt>
    <trkpt lat="38.661969015" lon="34.829786019">
      <ele>1075.874</ele>
      <time>2021-10-12T12:39:54Z</time>
    </trkpt>
    <trkpt lat="38.661947977" lon="34.829762969">
      <ele>1076.609</ele>
      <time>2021-10-12T12:39:55Z</time>
    </trkpt>
    <trkpt lat="38.66191797" lon="34.829735979">
      <ele>1077.087</ele>
      <time>2021-10-12T12:39:56Z</time>
    </trkpt>
    <trkpt lat="38.661891986" lon="34.829706978">
      <ele>1077.487</ele>
      <time>2021-10-12T12:39:58Z</time>
    </trkpt>
    <trkpt lat="38.661870025" lon="34.829672026">
      <ele>1077.897</ele>
      <time>2021-10-12T12:39:59Z</time>
    </trkpt>
    <trkpt lat="38.661858961" lon="34.829651993">
      <ele>1078.121</ele>
      <time>2021-10-12T12:40:00Z</time>
    </trkpt>
    <trkpt lat="38.661849992" lon="34.82963196">
      <ele>1078.33</ele>
      <time>2021-10-12T12:40:00Z</time>
    </trkpt>
    <trkpt lat="38.661839012" lon="34.829613017">
      <ele>1078.545</ele>
      <time>2021-10-12T12:40:01Z</time>
    </trkpt>
    <trkpt lat="38.661834989" lon="34.829588039">
      <ele>1078.754</ele>
      <time>2021-10-12T12:40:02Z</time>
    </trkpt>
    <trkpt lat="38.661828032" lon="34.829551997">
      <ele>1079.064</ele>
      <time>2021-10-12T12:40:03Z</time>
    </trkpt>
    <trkpt lat="38.661821997" lon="34.829518972">
      <ele>1079.345</ele>
      <time>2021-10-12T12:40:04Z</time>
    </trkpt>
    <trkpt lat="38.661821997" lon="34.829482008">
      <ele>1079.611</ele>
      <time>2021-10-12T12:40:05Z</time>
    </trkpt>
    <trkpt lat="38.661821997" lon="34.829430962">
      <ele>1080.054</ele>
      <time>2021-10-12T12:40:06Z</time>
    </trkpt>
    <trkpt lat="38.661823003" lon="34.829399027">
      <ele>1080.457</ele>
      <time>2021-10-12T12:40:07Z</time>
    </trkpt>
    <trkpt lat="38.661824008" lon="34.829364996">
      <ele>1080.887</ele>
      <time>2021-10-12T12:40:08Z</time>
    </trkpt>
    <trkpt lat="38.661824008" lon="34.829329038">
      <ele>1081.349</ele>
      <time>2021-10-12T12:40:09Z</time>
    </trkpt>
    <trkpt lat="38.661825014" lon="34.829296013">
      <ele>1081.768</ele>
      <time>2021-10-12T12:40:10Z</time>
    </trkpt>
    <trkpt lat="38.661823003" lon="34.829263994">
      <ele>1082.189</ele>
      <time>2021-10-12T12:40:11Z</time>
    </trkpt>
    <trkpt lat="38.661819985" lon="34.82923097">
      <ele>1082.626</ele>
      <time>2021-10-12T12:40:12Z</time>
    </trkpt>
    <trkpt lat="38.661817973" lon="34.829201968">
      <ele>1083.005</ele>
      <time>2021-10-12T12:40:13Z</time>
    </trkpt>
    <trkpt lat="38.661818979" lon="34.829173973">
      <ele>1083.358</ele>
      <time>2021-10-12T12:40:14Z</time>
    </trkpt>
    <trkpt lat="38.661817973" lon="34.829146983">
      <ele>1083.855</ele>
      <time>2021-10-12T12:40:15Z</time>
    </trkpt>
    <trkpt lat="38.661817973" lon="34.829120999">
      <ele>1084.382</ele>
      <time>2021-10-12T12:40:15Z</time>
    </trkpt>
    <trkpt lat="38.661819985" lon="34.829098033">
      <ele>1084.846</ele>
      <time>2021-10-12T12:40:16Z</time>
    </trkpt>
    <trkpt lat="38.66181504" lon="34.829050004">
      <ele>1085.819</ele>
      <time>2021-10-12T12:40:17Z</time>
    </trkpt>
    <trkpt lat="38.661809005" lon="34.829025026">
      <ele>1086.311</ele>
      <time>2021-10-12T12:40:18Z</time>
    </trkpt>
    <trkpt lat="38.661801964" lon="34.828999965">
      <ele>1086.79</ele>
      <time>2021-10-12T12:40:19Z</time>
    </trkpt>
    <trkpt lat="38.661796013" lon="34.828976998">
      <ele>1087.219</ele>
      <time>2021-10-12T12:40:20Z</time>
    </trkpt>
    <trkpt lat="38.661789978" lon="34.82895202">
      <ele>1087.676</ele>
      <time>2021-10-12T12:40:20Z</time>
    </trkpt>
    <trkpt lat="38.661781009" lon="34.828927964">
      <ele>1088.087</ele>
      <time>2021-10-12T12:40:21Z</time>
    </trkpt>
    <trkpt lat="38.661768017" lon="34.828907009">
      <ele>1088.397</ele>
      <time>2021-10-12T12:40:22Z</time>
    </trkpt>
    <trkpt lat="38.661756031" lon="34.828883959">
      <ele>1088.691</ele>
      <time>2021-10-12T12:40:23Z</time>
    </trkpt>
    <trkpt lat="38.661744967" lon="34.828858981">
      <ele>1088.856</ele>
      <time>2021-10-12T12:40:24Z</time>
    </trkpt>
    <trkpt lat="38.661728036" lon="34.828824028">
      <ele>1089.091</ele>
      <time>2021-10-12T12:40:25Z</time>
    </trkpt>
    <trkpt lat="38.661706997" lon="34.82878698">
      <ele>1089.338</ele>
      <time>2021-10-12T12:40:26Z</time>
    </trkpt>
    <trkpt lat="38.661696017" lon="34.828766026">
      <ele>1089.492</ele>
      <time>2021-10-12T12:40:27Z</time>
    </trkpt>
    <trkpt lat="38.661683025" lon="34.828743981">
      <ele>1089.652</ele>
      <time>2021-10-12T12:40:28Z</time>
    </trkpt>
    <trkpt lat="38.661669027" lon="34.828721015">
      <ele>1089.825</ele>
      <time>2021-10-12T12:40:28Z</time>
    </trkpt>
    <trkpt lat="38.661655029" lon="34.828700982">
      <ele>1089.89</ele>
      <time>2021-10-12T12:40:29Z</time>
    </trkpt>
    <trkpt lat="38.661640026" lon="34.828680027">
      <ele>1089.944</ele>
      <time>2021-10-12T12:40:30Z</time>
    </trkpt>
    <trkpt lat="38.661625022" lon="34.828655971">
      <ele>1090.042</ele>
      <time>2021-10-12T12:40:31Z</time>
    </trkpt>
    <trkpt lat="38.66161203" lon="34.828633005">
      <ele>1090.158</ele>
      <time>2021-10-12T12:40:32Z</time>
    </trkpt>
    <trkpt lat="38.661597027" lon="34.828608027">
      <ele>1090.27</ele>
      <time>2021-10-12T12:40:33Z</time>
    </trkpt>
    <trkpt lat="38.661583029" lon="34.828583971">
      <ele>1090.312</ele>
      <time>2021-10-12T12:40:34Z</time>
    </trkpt>
    <trkpt lat="38.661569031" lon="34.82856201">
      <ele>1090.371</ele>
      <time>2021-10-12T12:40:34Z</time>
    </trkpt>
    <trkpt lat="38.661552016" lon="34.82853896">
      <ele>1090.45</ele>
      <time>2021-10-12T12:40:35Z</time>
    </trkpt>
    <trkpt lat="38.661536006" lon="34.828522028">
      <ele>1090.513</ele>
      <time>2021-10-12T12:40:36Z</time>
    </trkpt>
    <trkpt lat="38.661517985" lon="34.828503001">
      <ele>1090.617</ele>
      <time>2021-10-12T12:40:37Z</time>
    </trkpt>
    <trkpt lat="38.661498958" lon="34.828491015">
      <ele>1090.665</ele>
      <time>2021-10-12T12:40:38Z</time>
    </trkpt>
    <trkpt lat="38.661478003" lon="34.828483975">
      <ele>1090.664</ele>
      <time>2021-10-12T12:40:39Z</time>
    </trkpt>
    <trkpt lat="38.661458977" lon="34.828474">
      <ele>1090.727</ele>
      <time>2021-10-12T12:40:39Z</time>
    </trkpt>
    <trkpt lat="38.661439028" lon="34.828464026">
      <ele>1090.807</ele>
      <time>2021-10-12T12:40:40Z</time>
    </trkpt>
    <trkpt lat="38.661420001" lon="34.828452962">
      <ele>1090.928</ele>
      <time>2021-10-12T12:40:41Z</time>
    </trkpt>
    <trkpt lat="38.661399968" lon="34.828440975">
      <ele>1091.084</ele>
      <time>2021-10-12T12:40:42Z</time>
    </trkpt>
    <trkpt lat="38.661380019" lon="34.828429995">
      <ele>1091.238</ele>
      <time>2021-10-12T12:40:42Z</time>
    </trkpt>
    <trkpt lat="38.661359986" lon="34.828424966">
      <ele>1091.282</ele>
      <time>2021-10-12T12:40:43Z</time>
    </trkpt>
    <trkpt lat="38.66133702" lon="34.828420021">
      <ele>1091.323</ele>
      <time>2021-10-12T12:40:44Z</time>
    </trkpt>
    <trkpt lat="38.661314975" lon="34.828414991">
      <ele>1091.374</ele>
      <time>2021-10-12T12:40:45Z</time>
    </trkpt>
    <trkpt lat="38.661294021" lon="34.828408035">
      <ele>1091.472</ele>
      <time>2021-10-12T12:40:46Z</time>
    </trkpt>
    <trkpt lat="38.661269965" lon="34.828399988">
      <ele>1091.595</ele>
      <time>2021-10-12T12:40:47Z</time>
    </trkpt>
    <trkpt lat="38.661248004" lon="34.828389008">
      <ele>1091.795</ele>
      <time>2021-10-12T12:40:47Z</time>
    </trkpt>
    <trkpt lat="38.661223026" lon="34.828376016">
      <ele>1092.048</ele>
      <time>2021-10-12T12:40:48Z</time>
    </trkpt>
    <trkpt lat="38.661203999" lon="34.828365035">
      <ele>1092.277</ele>
      <time>2021-10-12T12:40:49Z</time>
    </trkpt>
    <trkpt lat="38.661182038" lon="34.828356989">
      <ele>1092.447</ele>
      <time>2021-10-12T12:40:50Z</time>
    </trkpt>
    <trkpt lat="38.661165023" lon="34.828349026">
      <ele>1092.626</ele>
      <time>2021-10-12T12:40:51Z</time>
    </trkpt>
    <trkpt lat="38.661142979" lon="34.828336034">
      <ele>1092.934</ele>
      <time>2021-10-12T12:40:52Z</time>
    </trkpt>
    <trkpt lat="38.661118001" lon="34.828323964">
      <ele>1093.133</ele>
      <time>2021-10-12T12:40:53Z</time>
    </trkpt>
    <trkpt lat="38.66109604" lon="34.828314995">
      <ele>1093.423</ele>
      <time>2021-10-12T12:40:54Z</time>
    </trkpt>
    <trkpt lat="38.661078019" lon="34.828306027">
      <ele>1093.739</ele>
      <time>2021-10-12T12:40:54Z</time>
    </trkpt>
    <trkpt lat="38.661057986" lon="34.82829798">
      <ele>1094.058</ele>
      <time>2021-10-12T12:40:55Z</time>
    </trkpt>
    <trkpt lat="38.661037032" lon="34.828290017">
      <ele>1094.382</ele>
      <time>2021-10-12T12:40:56Z</time>
    </trkpt>
    <trkpt lat="38.661014987" lon="34.828281971">
      <ele>1094.714</ele>
      <time>2021-10-12T12:40:57Z</time>
    </trkpt>
    <trkpt lat="38.660993027" lon="34.828277025">
      <ele>1095.0</ele>
      <time>2021-10-12T12:40:58Z</time>
    </trkpt>
    <trkpt lat="38.660967965" lon="34.82827099">
      <ele>1095.328</ele>
      <time>2021-10-12T12:40:58Z</time>
    </trkpt>
    <trkpt lat="38.660948016" lon="34.828264033">
      <ele>1095.613</ele>
      <time>2021-10-12T12:40:59Z</time>
    </trkpt>
    <trkpt lat="38.660925971" lon="34.828257998">
      <ele>1095.904</ele>
      <time>2021-10-12T12:41:00Z</time>
    </trkpt>
    <trkpt lat="38.660901999" lon="34.828250036">
      <ele>1096.232</ele>
      <time>2021-10-12T12:41:01Z</time>
    </trkpt>
    <trkpt lat="38.660878027" lon="34.828248024">
      <ele>1096.488</ele>
      <time>2021-10-12T12:41:02Z</time>
    </trkpt>
    <trkpt lat="38.660851959" lon="34.828246012">
      <ele>1096.763</ele>
      <time>2021-10-12T12:41:03Z</time>
    </trkpt>
    <trkpt lat="38.660827987" lon="34.828244001">
      <ele>1097.009</ele>
      <time>2021-10-12T12:41:04Z</time>
    </trkpt>
    <trkpt lat="38.66080502" lon="34.828240983">
      <ele>1097.235</ele>
      <time>2021-10-12T12:41:05Z</time>
    </trkpt>
    <trkpt lat="38.660783982" lon="34.828240983">
      <ele>1097.412</ele>
      <time>2021-10-12T12:41:05Z</time>
    </trkpt>
    <trkpt lat="38.660764033" lon="34.828240983">
      <ele>1097.579</ele>
      <time>2021-10-12T12:41:06Z</time>
    </trkpt>
    <trkpt lat="38.660740983" lon="34.828241989">
      <ele>1097.761</ele>
      <time>2021-10-12T12:41:07Z</time>
    </trkpt>
    <trkpt lat="38.660718016" lon="34.828242995">
      <ele>1097.941</ele>
      <time>2021-10-12T12:41:08Z</time>
    </trkpt>
    <trkpt lat="38.660697984" lon="34.828242995">
      <ele>1098.109</ele>
      <time>2021-10-12T12:41:09Z</time>
    </trkpt>
    <trkpt lat="38.660676023" lon="34.828245007">
      <ele>1098.267</ele>
      <time>2021-10-12T12:41:09Z</time>
    </trkpt>
    <trkpt lat="38.660651967" lon="34.828246012">
      <ele>1098.454</ele>
      <time>2021-10-12T12:41:10Z</time>
    </trkpt>
    <trkpt lat="38.660629001" lon="34.828247018">
      <ele>1098.632</ele>
      <time>2021-10-12T12:41:11Z</time>
    </trkpt>
    <trkpt lat="38.660605028" lon="34.828248024">
      <ele>1098.818</ele>
      <time>2021-10-12T12:41:12Z</time>
    </trkpt>
    <trkpt lat="38.660581978" lon="34.82824903">
      <ele>1098.995</ele>
      <time>2021-10-12T12:41:13Z</time>
    </trkpt>
    <trkpt lat="38.660557" lon="34.82824903">
      <ele>1099.202</ele>
      <time>2021-10-12T12:41:14Z</time>
    </trkpt>
    <trkpt lat="38.660532022" lon="34.828246012">
      <ele>1099.316</ele>
      <time>2021-10-12T12:41:15Z</time>
    </trkpt>
    <trkpt lat="38.660508972" lon="34.828241989">
      <ele>1099.428</ele>
      <time>2021-10-12T12:41:16Z</time>
    </trkpt>
    <trkpt lat="38.660486005" lon="34.828237966">
      <ele>1099.538</ele>
      <time>2021-10-12T12:41:16Z</time>
    </trkpt>
    <trkpt lat="38.660462033" lon="34.828234026">
      <ele>1099.646</ele>
      <time>2021-10-12T12:41:17Z</time>
    </trkpt>
    <trkpt lat="38.660437977" lon="34.82823302">
      <ele>1099.715</ele>
      <time>2021-10-12T12:41:18Z</time>
    </trkpt>
    <trkpt lat="38.660414005" lon="34.828230003">
      <ele>1099.808</ele>
      <time>2021-10-12T12:41:19Z</time>
    </trkpt>
    <trkpt lat="38.660389027" lon="34.828227991">
      <ele>1099.889</ele>
      <time>2021-10-12T12:41:20Z</time>
    </trkpt>
    <trkpt lat="38.660362959" lon="34.828224974">
      <ele>1099.983</ele>
      <time>2021-10-12T12:41:21Z</time>
    </trkpt>
    <trkpt lat="38.660335969" lon="34.828222962">
      <ele>1100.066</ele>
      <time>2021-10-12T12:41:22Z</time>
    </trkpt>
    <trkpt lat="38.660306968" lon="34.828219023">
      <ele>1100.173</ele>
      <time>2021-10-12T12:41:23Z</time>
    </trkpt>
    <trkpt lat="38.660282996" lon="34.828219023">
      <ele>1100.224</ele>
      <time>2021-10-12T12:41:24Z</time>
    </trkpt>
    <trkpt lat="38.660259023" lon="34.828220028">
      <ele>1100.331</ele>
      <time>2021-10-12T12:41:25Z</time>
    </trkpt>
    <trkpt lat="38.660233961" lon="34.828222962">
      <ele>1100.445</ele>
      <time>2021-10-12T12:41:26Z</time>
    </trkpt>
    <trkpt lat="38.660209989" lon="34.828226985">
      <ele>1100.543</ele>
      <time>2021-10-12T12:41:27Z</time>
    </trkpt>
    <trkpt lat="38.660187023" lon="34.828227991">
      <ele>1100.667</ele>
      <time>2021-10-12T12:41:27Z</time>
    </trkpt>
    <trkpt lat="38.660162967" lon="34.828230003">
      <ele>1100.789</ele>
      <time>2021-10-12T12:41:28Z</time>
    </trkpt>
    <trkpt lat="38.660134971" lon="34.828228997">
      <ele>1100.962</ele>
      <time>2021-10-12T12:41:29Z</time>
    </trkpt>
    <trkpt lat="38.660108987" lon="34.828224974">
      <ele>1101.149</ele>
      <time>2021-10-12T12:41:30Z</time>
    </trkpt>
    <trkpt lat="38.660080992" lon="34.828220028">
      <ele>1101.352</ele>
      <time>2021-10-12T12:41:31Z</time>
    </trkpt>
    <trkpt lat="38.660052996" lon="34.828211982">
      <ele>1101.576</ele>
      <time>2021-10-12T12:41:32Z</time>
    </trkpt>
    <trkpt lat="38.660026006" lon="34.828206031">
      <ele>1101.772</ele>
      <time>2021-10-12T12:41:34Z</time>
    </trkpt>
    <trkpt lat="38.660000023" lon="34.828202007">
      <ele>1101.945</ele>
      <time>2021-10-12T12:41:34Z</time>
    </trkpt>
    <trkpt lat="38.659974039" lon="34.828201002">
      <ele>1102.095</ele>
      <time>2021-10-12T12:41:35Z</time>
    </trkpt>
    <trkpt lat="38.659946965" lon="34.828199996">
      <ele>1102.25</ele>
      <time>2021-10-12T12:41:36Z</time>
    </trkpt>
    <trkpt lat="38.659918969" lon="34.82819899">
      <ele>1102.41</ele>
      <time>2021-10-12T12:41:37Z</time>
    </trkpt>
    <trkpt lat="38.65989198" lon="34.828197984">
      <ele>1102.563</ele>
      <time>2021-10-12T12:41:38Z</time>
    </trkpt>
    <trkpt lat="38.659861973" lon="34.82819899">
      <ele>1102.721</ele>
      <time>2021-10-12T12:41:40Z</time>
    </trkpt>
    <trkpt lat="38.659832971" lon="34.828199996">
      <ele>1102.874</ele>
      <time>2021-10-12T12:41:41Z</time>
    </trkpt>
    <trkpt lat="38.65980397" lon="34.828197984">
      <ele>1103.042</ele>
      <time>2021-10-12T12:41:42Z</time>
    </trkpt>
    <trkpt lat="38.659772035" lon="34.828196978">
      <ele>1103.22</ele>
      <time>2021-10-12T12:41:43Z</time>
    </trkpt>
    <trkpt lat="38.659743033" lon="34.828197984">
      <ele>1103.374</ele>
      <time>2021-10-12T12:41:44Z</time>
    </trkpt>
    <trkpt lat="38.659715038" lon="34.828197984">
      <ele>1103.488</ele>
      <time>2021-10-12T12:41:45Z</time>
    </trkpt>
    <trkpt lat="38.659686036" lon="34.828193961">
      <ele>1103.501</ele>
      <time>2021-10-12T12:41:46Z</time>
    </trkpt>
    <trkpt lat="38.659658041" lon="34.828192033">
      <ele>1103.505</ele>
      <time>2021-10-12T12:41:47Z</time>
    </trkpt>
    <trkpt lat="38.659629961" lon="34.828193039">
      <ele>1103.502</ele>
      <time>2021-10-12T12:41:48Z</time>
    </trkpt>
    <trkpt lat="38.659601966" lon="34.828193039">
      <ele>1103.501</ele>
      <time>2021-10-12T12:41:49Z</time>
    </trkpt>
    <trkpt lat="38.659571037" lon="34.828192033">
      <ele>1103.499</ele>
      <time>2021-10-12T12:41:50Z</time>
    </trkpt>
    <trkpt lat="38.659543963" lon="34.828193961">
      <ele>1103.5</ele>
      <time>2021-10-12T12:41:51Z</time>
    </trkpt>
    <trkpt lat="38.65951404" lon="34.828196978">
      <ele>1103.505</ele>
      <time>2021-10-12T12:41:52Z</time>
    </trkpt>
    <trkpt lat="38.659483027" lon="34.828199996">
      <ele>1103.514</ele>
      <time>2021-10-12T12:41:54Z</time>
    </trkpt>
    <trkpt lat="38.659451008" lon="34.828199996">
      <ele>1103.519</ele>
      <time>2021-10-12T12:41:55Z</time>
    </trkpt>
    <trkpt lat="38.659419995" lon="34.828201002">
      <ele>1103.658</ele>
      <time>2021-10-12T12:41:56Z</time>
    </trkpt>
    <trkpt lat="38.659389988" lon="34.828202007">
      <ele>1103.827</ele>
      <time>2021-10-12T12:41:57Z</time>
    </trkpt>
    <trkpt lat="38.659358975" lon="34.828203013">
      <ele>1104.002</ele>
      <time>2021-10-12T12:41:58Z</time>
    </trkpt>
    <trkpt lat="38.659329973" lon="34.828205025">
      <ele>1104.172</ele>
      <time>2021-10-12T12:41:59Z</time>
    </trkpt>
    <trkpt lat="38.659296026" lon="34.828206031">
      <ele>1104.365</ele>
      <time>2021-10-12T12:42:01Z</time>
    </trkpt>
    <trkpt lat="38.659265013" lon="34.828207036">
      <ele>1104.544</ele>
      <time>2021-10-12T12:42:02Z</time>
    </trkpt>
    <trkpt lat="38.659232995" lon="34.828210976">
      <ele>1104.747</ele>
      <time>2021-10-12T12:42:03Z</time>
    </trkpt>
    <trkpt lat="38.659201981" lon="34.828220028">
      <ele>1104.982</ele>
      <time>2021-10-12T12:42:04Z</time>
    </trkpt>
    <trkpt lat="38.659170968" lon="34.828222962">
      <ele>1105.181</ele>
      <time>2021-10-12T12:42:05Z</time>
    </trkpt>
    <trkpt lat="38.659137022" lon="34.82822598">
      <ele>1105.375</ele>
      <time>2021-10-12T12:42:06Z</time>
    </trkpt>
    <trkpt lat="38.65910802" lon="34.828230003">
      <ele>1105.546</ele>
      <time>2021-10-12T12:42:08Z</time>
    </trkpt>
    <trkpt lat="38.659081031" lon="34.828232015">
      <ele>1105.691</ele>
      <time>2021-10-12T12:42:09Z</time>
    </trkpt>
    <trkpt lat="38.659053035" lon="34.828237966">
      <ele>1105.863</ele>
      <time>2021-10-12T12:42:10Z</time>
    </trkpt>
    <trkpt lat="38.659021016" lon="34.828241989">
      <ele>1106.039</ele>
      <time>2021-10-12T12:42:11Z</time>
    </trkpt>
    <trkpt lat="38.658991009" lon="34.828247018">
      <ele>1106.207</ele>
      <time>2021-10-12T12:42:12Z</time>
    </trkpt>
    <trkpt lat="38.658963013" lon="34.828253975">
      <ele>1106.371</ele>
      <time>2021-10-12T12:42:13Z</time>
    </trkpt>
    <trkpt lat="38.658932" lon="34.828257998">
      <ele>1106.532</ele>
      <time>2021-10-12T12:42:14Z</time>
    </trkpt>
    <trkpt lat="38.658902999" lon="34.828267973">
      <ele>1106.702</ele>
      <time>2021-10-12T12:42:15Z</time>
    </trkpt>
    <trkpt lat="38.658871986" lon="34.828275014">
      <ele>1106.947</ele>
      <time>2021-10-12T12:42:16Z</time>
    </trkpt>
    <trkpt lat="38.658842985" lon="34.828282977">
      <ele>1107.255</ele>
      <time>2021-10-12T12:42:18Z</time>
    </trkpt>
    <trkpt lat="38.658815995" lon="34.828290017">
      <ele>1107.549</ele>
      <time>2021-10-12T12:42:19Z</time>
    </trkpt>
    <trkpt lat="38.658784982" lon="34.82829798">
      <ele>1107.9</ele>
      <time>2021-10-12T12:42:20Z</time>
    </trkpt>
    <trkpt lat="38.658760004" lon="34.828308038">
      <ele>1108.216</ele>
      <time>2021-10-12T12:42:21Z</time>
    </trkpt>
    <trkpt lat="38.658733014" lon="34.828316001">
      <ele>1108.551</ele>
      <time>2021-10-12T12:42:22Z</time>
    </trkpt>
    <trkpt lat="38.65871097" lon="34.828323964">
      <ele>1108.845</ele>
      <time>2021-10-12T12:42:23Z</time>
    </trkpt>
    <trkpt lat="38.658686997" lon="34.828327987">
      <ele>1109.133</ele>
      <time>2021-10-12T12:42:23Z</time>
    </trkpt>
    <trkpt lat="38.658662019" lon="34.828336034">
      <ele>1109.426</ele>
      <time>2021-10-12T12:42:24Z</time>
    </trkpt>
    <trkpt lat="38.65863503" lon="34.828345003">
      <ele>1109.627</ele>
      <time>2021-10-12T12:42:25Z</time>
    </trkpt>
    <trkpt lat="38.658606028" lon="34.828356989">
      <ele>1109.766</ele>
      <time>2021-10-12T12:42:27Z</time>
    </trkpt>
    <trkpt lat="38.658578033" lon="34.828370987">
      <ele>1109.745</ele>
      <time>2021-10-12T12:42:28Z</time>
    </trkpt>
    <trkpt lat="38.65854702" lon="34.828382973">
      <ele>1109.777</ele>
      <time>2021-10-12T12:42:29Z</time>
    </trkpt>
    <trkpt lat="38.658515001" lon="34.828394037">
      <ele>1109.842</ele>
      <time>2021-10-12T12:42:30Z</time>
    </trkpt>
    <trkpt lat="38.658485999" lon="34.828408035">
      <ele>1109.886</ele>
      <time>2021-10-12T12:42:31Z</time>
    </trkpt>
    <trkpt lat="38.65845398" lon="34.828422032">
      <ele>1109.969</ele>
      <time>2021-10-12T12:42:32Z</time>
    </trkpt>
    <trkpt lat="38.658424979" lon="34.82843603">
      <ele>1110.056</ele>
      <time>2021-10-12T12:42:34Z</time>
    </trkpt>
    <trkpt lat="38.658394972" lon="34.828448016">
      <ele>1110.182</ele>
      <time>2021-10-12T12:42:35Z</time>
    </trkpt>
    <trkpt lat="38.65836597" lon="34.828461008">
      <ele>1110.315</ele>
      <time>2021-10-12T12:42:36Z</time>
    </trkpt>
    <trkpt lat="38.658337975" lon="34.828471988">
      <ele>1110.467</ele>
      <time>2021-10-12T12:42:37Z</time>
    </trkpt>
    <trkpt lat="38.658308974" lon="34.828485986">
      <ele>1110.946</ele>
      <time>2021-10-12T12:42:38Z</time>
    </trkpt>
    <trkpt lat="38.658279972" lon="34.828494033">
      <ele>1111.523</ele>
      <time>2021-10-12T12:42:39Z</time>
    </trkpt>
    <trkpt lat="38.658249965" lon="34.828503001">
      <ele>1112.14</ele>
      <time>2021-10-12T12:42:40Z</time>
    </trkpt>
    <trkpt lat="38.658220964" lon="34.828509958">
      <ele>1112.754</ele>
      <time>2021-10-12T12:42:41Z</time>
    </trkpt>
    <trkpt lat="38.658192968" lon="34.828519011">
      <ele>1113.366</ele>
      <time>2021-10-12T12:42:43Z</time>
    </trkpt>
    <trkpt lat="38.658164972" lon="34.828525968">
      <ele>1113.992</ele>
      <time>2021-10-12T12:42:44Z</time>
    </trkpt>
    <trkpt lat="38.658138989" lon="34.828532003">
      <ele>1114.585</ele>
      <time>2021-10-12T12:42:45Z</time>
    </trkpt>
    <trkpt lat="38.658115016" lon="34.828538038">
      <ele>1115.144</ele>
      <time>2021-10-12T12:42:45Z</time>
    </trkpt>
    <trkpt lat="38.65809096" lon="34.828543989">
      <ele>1115.717</ele>
      <time>2021-10-12T12:42:46Z</time>
    </trkpt>
    <trkpt lat="38.658062965" lon="34.828552036">
      <ele>1116.405</ele>
      <time>2021-10-12T12:42:47Z</time>
    </trkpt>
    <trkpt lat="38.658033963" lon="34.828557987">
      <ele>1117.006</ele>
      <time>2021-10-12T12:42:49Z</time>
    </trkpt>
    <trkpt lat="38.658004962" lon="34.828564022">
      <ele>1117.572</ele>
      <time>2021-10-12T12:42:50Z</time>
    </trkpt>
    <trkpt lat="38.657975039" lon="34.828570979">
      <ele>1118.16</ele>
      <time>2021-10-12T12:42:51Z</time>
    </trkpt>
    <trkpt lat="38.657946959" lon="34.828573996">
      <ele>1118.688</ele>
      <time>2021-10-12T12:42:52Z</time>
    </trkpt>
    <trkpt lat="38.657920975" lon="34.82857802">
      <ele>1119.184</ele>
      <time>2021-10-12T12:42:53Z</time>
    </trkpt>
    <trkpt lat="38.657889962" lon="34.828585982">
      <ele>1119.8</ele>
      <time>2021-10-12T12:42:54Z</time>
    </trkpt>
    <trkpt lat="38.657859033" lon="34.828596963">
      <ele>1120.436</ele>
      <time>2021-10-12T12:42:55Z</time>
    </trkpt>
    <trkpt lat="38.657832965" lon="34.828608027">
      <ele>1120.984</ele>
      <time>2021-10-12T12:42:56Z</time>
    </trkpt>
    <trkpt lat="38.65780103" lon="34.82861599">
      <ele>1121.562</ele>
      <time>2021-10-12T12:42:57Z</time>
    </trkpt>
    <trkpt lat="38.657769011" lon="34.828616995">
      <ele>1121.979</ele>
      <time>2021-10-12T12:42:59Z</time>
    </trkpt>
    <trkpt lat="38.657734981" lon="34.82861599">
      <ele>1121.982</ele>
      <time>2021-10-12T12:43:00Z</time>
    </trkpt>
    <trkpt lat="38.657703968" lon="34.82861096">
      <ele>1121.999</ele>
      <time>2021-10-12T12:43:01Z</time>
    </trkpt>
    <trkpt lat="38.657673039" lon="34.828604003">
      <ele>1121.978</ele>
      <time>2021-10-12T12:43:02Z</time>
    </trkpt>
    <trkpt lat="38.657642026" lon="34.828595035">
      <ele>1121.969</ele>
      <time>2021-10-12T12:43:03Z</time>
    </trkpt>
    <trkpt lat="38.657612018" lon="34.828585982">
      <ele>1121.981</ele>
      <time>2021-10-12T12:43:04Z</time>
    </trkpt>
    <trkpt lat="38.657582011" lon="34.82857802">
      <ele>1122.014</ele>
      <time>2021-10-12T12:43:06Z</time>
    </trkpt>
    <trkpt lat="38.657550998" lon="34.828563016">
      <ele>1122.078</ele>
      <time>2021-10-12T12:43:07Z</time>
    </trkpt>
    <trkpt lat="38.657518979" lon="34.828546001">
      <ele>1122.186</ele>
      <time>2021-10-12T12:43:08Z</time>
    </trkpt>
    <trkpt lat="38.657483021" lon="34.828525968">
      <ele>1122.325</ele>
      <time>2021-10-12T12:43:10Z</time>
    </trkpt>
    <trkpt lat="38.657452008" lon="34.828509036">
      <ele>1122.431</ele>
      <time>2021-10-12T12:43:11Z</time>
    </trkpt>
    <trkpt lat="38.657417977" lon="34.828491015">
      <ele>1122.56</ele>
      <time>2021-10-12T12:43:12Z</time>
    </trkpt>
    <trkpt lat="38.65738797" lon="34.828470983">
      <ele>1122.708</ele>
      <time>2021-10-12T12:43:13Z</time>
    </trkpt>
    <trkpt lat="38.657357963" lon="34.828454973">
      <ele>1122.85</ele>
      <time>2021-10-12T12:43:15Z</time>
    </trkpt>
    <trkpt lat="38.657328961" lon="34.82843603">
      <ele>1123.018</ele>
      <time>2021-10-12T12:43:16Z</time>
    </trkpt>
    <trkpt lat="38.657304989" lon="34.828417003">
      <ele>1123.189</ele>
      <time>2021-10-12T12:43:17Z</time>
    </trkpt>
    <trkpt lat="38.657277999" lon="34.828403005">
      <ele>1123.348</ele>
      <time>2021-10-12T12:43:18Z</time>
    </trkpt>
    <trkpt lat="38.65725101" lon="34.828389008">
      <ele>1123.516</ele>
      <time>2021-10-12T12:43:19Z</time>
    </trkpt>
    <trkpt lat="38.657225026" lon="34.828381967">
      <ele>1123.642</ele>
      <time>2021-10-12T12:43:20Z</time>
    </trkpt>
    <trkpt lat="38.657196024" lon="34.828380039">
      <ele>1123.79</ele>
      <time>2021-10-12T12:43:21Z</time>
    </trkpt>
    <trkpt lat="38.657168029" lon="34.828380961">
      <ele>1123.919</ele>
      <time>2021-10-12T12:43:22Z</time>
    </trkpt>
    <trkpt lat="38.657138022" lon="34.828379033">
      <ele>1124.074</ele>
      <time>2021-10-12T12:43:23Z</time>
    </trkpt>
    <trkpt lat="38.657110026" lon="34.828377021">
      <ele>1124.216</ele>
      <time>2021-10-12T12:43:24Z</time>
    </trkpt>
    <trkpt lat="38.657075996" lon="34.828378027">
      <ele>1124.374</ele>
      <time>2021-10-12T12:43:26Z</time>
    </trkpt>
    <trkpt lat="38.657044983" lon="34.828372998">
      <ele>1124.535</ele>
      <time>2021-10-12T12:43:27Z</time>
    </trkpt>
    <trkpt lat="38.657014975" lon="34.828367969">
      <ele>1124.683</ele>
      <time>2021-10-12T12:43:28Z</time>
    </trkpt>
    <trkpt lat="38.656985974" lon="34.828362018">
      <ele>1124.82</ele>
      <time>2021-10-12T12:43:29Z</time>
    </trkpt>
    <trkpt lat="38.656958984" lon="34.828355983">
      <ele>1124.939</ele>
      <time>2021-10-12T12:43:30Z</time>
    </trkpt>
    <trkpt lat="38.656928977" lon="34.82835196">
      <ele>1125.16</ele>
      <time>2021-10-12T12:43:31Z</time>
    </trkpt>
    <trkpt lat="38.656901987" lon="34.82834802">
      <ele>1125.442</ele>
      <time>2021-10-12T12:43:32Z</time>
    </trkpt>
    <trkpt lat="38.65687198" lon="34.828347014">
      <ele>1125.757</ele>
      <time>2021-10-12T12:43:33Z</time>
    </trkpt>
    <trkpt lat="38.656842979" lon="34.828349026">
      <ele>1126.055</ele>
      <time>2021-10-12T12:43:34Z</time>
    </trkpt>
    <trkpt lat="38.656808026" lon="34.82834802">
      <ele>1126.421</ele>
      <time>2021-10-12T12:43:35Z</time>
    </trkpt>
    <trkpt lat="38.656777013" lon="34.828349026">
      <ele>1126.74</ele>
      <time>2021-10-12T12:43:37Z</time>
    </trkpt>
    <trkpt lat="38.656747006" lon="34.828355983">
      <ele>1127.016</ele>
      <time>2021-10-12T12:43:38Z</time>
    </trkpt>
    <trkpt lat="38.656716999" lon="34.828362018">
      <ele>1127.287</ele>
      <time>2021-10-12T12:43:39Z</time>
    </trkpt>
    <trkpt lat="38.656689003" lon="34.828369981">
      <ele>1127.516</ele>
      <time>2021-10-12T12:43:40Z</time>
    </trkpt>
    <trkpt lat="38.656665031" lon="34.828384984">
      <ele>1127.616</ele>
      <time>2021-10-12T12:43:41Z</time>
    </trkpt>
    <trkpt lat="38.656642986" lon="34.828402">
      <ele>1127.335</ele>
      <time>2021-10-12T12:43:42Z</time>
    </trkpt>
    <trkpt lat="38.656623038" lon="34.828418009">
      <ele>1127.076</ele>
      <time>2021-10-12T12:43:43Z</time>
    </trkpt>
    <trkpt lat="38.656601999" lon="34.828438042">
      <ele>1126.78</ele>
      <time>2021-10-12T12:43:44Z</time>
    </trkpt>
    <trkpt lat="38.656580038" lon="34.828458996">
      <ele>1126.472</ele>
      <time>2021-10-12T12:43:45Z</time>
    </trkpt>
    <trkpt lat="38.656561011" lon="34.82848498">
      <ele>1126.147</ele>
      <time>2021-10-12T12:43:46Z</time>
    </trkpt>
    <trkpt lat="38.65654299" lon="34.828516999">
      <ele>1125.787</ele>
      <time>2021-10-12T12:43:47Z</time>
    </trkpt>
    <trkpt lat="38.65653201" lon="34.828552036">
      <ele>1125.456</ele>
      <time>2021-10-12T12:43:48Z</time>
    </trkpt>
    <trkpt lat="38.656524969" lon="34.828591011">
      <ele>1125.124</ele>
      <time>2021-10-12T12:43:49Z</time>
    </trkpt>
    <trkpt lat="38.656523041" lon="34.828630993">
      <ele>1124.892</ele>
      <time>2021-10-12T12:43:50Z</time>
    </trkpt>
    <trkpt lat="38.656529998" lon="34.828674998">
      <ele>1124.79</ele>
      <time>2021-10-12T12:43:52Z</time>
    </trkpt>
    <trkpt lat="38.656545002" lon="34.82872596">
      <ele>1124.762</ele>
      <time>2021-10-12T12:43:53Z</time>
    </trkpt>
    <trkpt lat="38.656563023" lon="34.828773988">
      <ele>1124.816</ele>
      <time>2021-10-12T12:43:55Z</time>
    </trkpt>
    <trkpt lat="38.656577021" lon="34.828821011">
      <ele>1124.867</ele>
      <time>2021-10-12T12:43:56Z</time>
    </trkpt>
    <trkpt lat="38.656591019" lon="34.828863004">
      <ele>1124.961</ele>
      <time>2021-10-12T12:43:58Z</time>
    </trkpt>
    <trkpt lat="38.656604011" lon="34.828906003">
      <ele>1124.988</ele>
      <time>2021-10-12T12:43:59Z</time>
    </trkpt>
    <trkpt lat="38.656617003" lon="34.828950008">
      <ele>1124.884</ele>
      <time>2021-10-12T12:44:00Z</time>
    </trkpt>
    <trkpt lat="38.656635024" lon="34.828997031">
      <ele>1124.81</ele>
      <time>2021-10-12T12:44:02Z</time>
    </trkpt>
    <trkpt lat="38.656656984" lon="34.829042042">
      <ele>1124.777</ele>
      <time>2021-10-12T12:44:03Z</time>
    </trkpt>
    <trkpt lat="38.656672994" lon="34.829082023">
      <ele>1124.618</ele>
      <time>2021-10-12T12:44:05Z</time>
    </trkpt>
    <trkpt lat="38.656680034" lon="34.829125023">
      <ele>1124.334</ele>
      <time>2021-10-12T12:44:06Z</time>
    </trkpt>
    <trkpt lat="38.656685986" lon="34.829174979">
      <ele>1124.04</ele>
      <time>2021-10-12T12:44:07Z</time>
    </trkpt>
    <trkpt lat="38.656692021" lon="34.829219989">
      <ele>1123.899</ele>
      <time>2021-10-12T12:44:09Z</time>
    </trkpt>
    <trkpt lat="38.656691015" lon="34.829266006">
      <ele>1123.73</ele>
      <time>2021-10-12T12:44:10Z</time>
    </trkpt>
    <trkpt lat="38.656690009" lon="34.829309005">
      <ele>1123.572</ele>
      <time>2021-10-12T12:44:11Z</time>
    </trkpt>
    <trkpt lat="38.656690009" lon="34.82935301">
      <ele>1123.413</ele>
      <time>2021-10-12T12:44:13Z</time>
    </trkpt>
    <trkpt lat="38.656690009" lon="34.829389974">
      <ele>1123.28</ele>
      <time>2021-10-12T12:44:14Z</time>
    </trkpt>
    <trkpt lat="38.656690009" lon="34.829425011">
      <ele>1123.154</ele>
      <time>2021-10-12T12:44:15Z</time>
    </trkpt>
    <trkpt lat="38.656686991" lon="34.829462981">
      <ele>1123.002</ele>
      <time>2021-10-12T12:44:16Z</time>
    </trkpt>
    <trkpt lat="38.656690009" lon="34.829500029">
      <ele>1122.867</ele>
      <time>2021-10-12T12:44:17Z</time>
    </trkpt>
    <trkpt lat="38.656689003" lon="34.829543028">
      <ele>1122.697</ele>
      <time>2021-10-12T12:44:18Z</time>
    </trkpt>
    <trkpt lat="38.656693026" lon="34.82958301">
      <ele>1122.549</ele>
      <time>2021-10-12T12:44:19Z</time>
    </trkpt>
    <trkpt lat="38.656698978" lon="34.829625003">
      <ele>1122.391</ele>
      <time>2021-10-12T12:44:20Z</time>
    </trkpt>
    <trkpt lat="38.656705013" lon="34.829668002">
      <ele>1122.222</ele>
      <time>2021-10-12T12:44:22Z</time>
    </trkpt>
    <trkpt lat="38.656706018" lon="34.829713013">
      <ele>1122.038</ele>
      <time>2021-10-12T12:44:23Z</time>
    </trkpt>
    <trkpt lat="38.65670803" lon="34.82975903">
      <ele>1121.696</ele>
      <time>2021-10-12T12:44:24Z</time>
    </trkpt>
    <trkpt lat="38.65670803" lon="34.82980404">
      <ele>1121.323</ele>
      <time>2021-10-12T12:44:26Z</time>
    </trkpt>
    <trkpt lat="38.656700989" lon="34.829848967">
      <ele>1120.975</ele>
      <time>2021-10-12T12:44:27Z</time>
    </trkpt>
    <trkpt lat="38.656689003" lon="34.829892972">
      <ele>1120.672</ele>
      <time>2021-10-12T12:44:28Z</time>
    </trkpt>
    <trkpt lat="38.656679029" lon="34.829934966">
      <ele>1120.4</ele>
      <time>2021-10-12T12:44:30Z</time>
    </trkpt>
    <trkpt lat="38.656669976" lon="34.829981988">
      <ele>1120.107</ele>
      <time>2021-10-12T12:44:31Z</time>
    </trkpt>
    <trkpt lat="38.656664025" lon="34.830028005">
      <ele>1119.671</ele>
      <time>2021-10-12T12:44:32Z</time>
    </trkpt>
    <trkpt lat="38.656652039" lon="34.830076033">
      <ele>1119.05</ele>
      <time>2021-10-12T12:44:34Z</time>
    </trkpt>
    <trkpt lat="38.656646004" lon="34.830119032">
      <ele>1118.555</ele>
      <time>2021-10-12T12:44:35Z</time>
    </trkpt>
    <trkpt lat="38.656642986" lon="34.830169994">
      <ele>1118.013</ele>
      <time>2021-10-12T12:44:37Z</time>
    </trkpt>
    <trkpt lat="38.656643992" lon="34.830218023">
      <ele>1117.529</ele>
      <time>2021-10-12T12:44:38Z</time>
    </trkpt>
    <trkpt lat="38.656648016" lon="34.830266973">
      <ele>1117.044</ele>
      <time>2021-10-12T12:44:39Z</time>
    </trkpt>
    <trkpt lat="38.65664701" lon="34.830316007">
      <ele>1116.664</ele>
      <time>2021-10-12T12:44:41Z</time>
    </trkpt>
    <trkpt lat="38.656642986" lon="34.830361018">
      <ele>1116.341</ele>
      <time>2021-10-12T12:44:42Z</time>
    </trkpt>
    <trkpt lat="38.656636029" lon="34.83040804">
      <ele>1116.004</ele>
      <time>2021-10-12T12:44:44Z</time>
    </trkpt>
    <trkpt lat="38.656629995" lon="34.830453973">
      <ele>1115.683</ele>
      <time>2021-10-12T12:44:45Z</time>
    </trkpt>
    <trkpt lat="38.656617003" lon="34.830505019">
      <ele>1115.331</ele>
      <time>2021-10-12T12:44:46Z</time>
    </trkpt>
    <trkpt lat="38.656608034" lon="34.83055003">
      <ele>1115.036</ele>
      <time>2021-10-12T12:44:48Z</time>
    </trkpt>
    <trkpt lat="38.656595964" lon="34.830595041">
      <ele>1114.788</ele>
      <time>2021-10-12T12:44:49Z</time>
    </trkpt>
    <trkpt lat="38.656580038" lon="34.830636028">
      <ele>1114.601</ele>
      <time>2021-10-12T12:44:51Z</time>
    </trkpt>
    <trkpt lat="38.656561011" lon="34.830673998">
      <ele>1114.472</ele>
      <time>2021-10-12T12:44:52Z</time>
    </trkpt>
    <trkpt lat="38.656540979" lon="34.830712974">
      <ele>1114.379</ele>
      <time>2021-10-12T12:44:53Z</time>
    </trkpt>
    <trkpt lat="38.656525975" lon="34.830756979">
      <ele>1114.284</ele>
      <time>2021-10-12T12:44:55Z</time>
    </trkpt>
    <trkpt lat="38.656512983" lon="34.830796961">
      <ele>1114.224</ele>
      <time>2021-10-12T12:44:56Z</time>
    </trkpt>
    <trkpt lat="38.65650896" lon="34.830831997">
      <ele>1114.14</ele>
      <time>2021-10-12T12:44:57Z</time>
    </trkpt>
    <trkpt lat="38.656520024" lon="34.830854042">
      <ele>1113.836</ele>
      <time>2021-10-12T12:44:58Z</time>
    </trkpt>
    <trkpt lat="38.656540979" lon="34.830878014">
      <ele>1113.407</ele>
      <time>2021-10-12T12:44:59Z</time>
    </trkpt>
    <trkpt lat="38.656566041" lon="34.830911038">
      <ele>1112.808</ele>
      <time>2021-10-12T12:45:00Z</time>
    </trkpt>
    <trkpt lat="38.656586995" lon="34.830946997">
      <ele>1112.172</ele>
      <time>2021-10-12T12:45:01Z</time>
    </trkpt>
    <trkpt lat="38.656598981" lon="34.830985973">
      <ele>1111.557</ele>
      <time>2021-10-12T12:45:03Z</time>
    </trkpt>
    <trkpt lat="38.656607028" lon="34.831024026">
      <ele>1110.978</ele>
      <time>2021-10-12T12:45:04Z</time>
    </trkpt>
    <trkpt lat="38.65660904" lon="34.83106602">
      <ele>1110.412</ele>
      <time>2021-10-12T12:45:05Z</time>
    </trkpt>
    <trkpt lat="38.656594036" lon="34.831104996">
      <ele>1110.122</ele>
      <time>2021-10-12T12:45:06Z</time>
    </trkpt>
    <trkpt lat="38.656581966" lon="34.831139026">
      <ele>1109.888</ele>
      <time>2021-10-12T12:45:07Z</time>
    </trkpt>
    <trkpt lat="38.656563023" lon="34.831162998">
      <ele>1109.862</ele>
      <time>2021-10-12T12:45:08Z</time>
    </trkpt>
    <trkpt lat="38.656539973" lon="34.831183031">
      <ele>1109.93</ele>
      <time>2021-10-12T12:45:09Z</time>
    </trkpt>
    <trkpt lat="38.656512983" lon="34.831193006">
      <ele>1110.165</ele>
      <time>2021-10-12T12:45:10Z</time>
    </trkpt>
    <trkpt lat="38.656488005" lon="34.831198035">
      <ele>1110.433</ele>
      <time>2021-10-12T12:45:11Z</time>
    </trkpt>
    <trkpt lat="38.656457998" lon="34.831203986">
      <ele>1110.751</ele>
      <time>2021-10-12T12:45:12Z</time>
    </trkpt>
    <trkpt lat="38.65643302" lon="34.83121899">
      <ele>1110.873</ele>
      <time>2021-10-12T12:45:13Z</time>
    </trkpt>
    <trkpt lat="38.656410975" lon="34.831234999">
      <ele>1110.933</ele>
      <time>2021-10-12T12:45:14Z</time>
    </trkpt>
    <trkpt lat="38.656390021" lon="34.831255032">
      <ele>1110.913</ele>
      <time>2021-10-12T12:45:15Z</time>
    </trkpt>
    <trkpt lat="38.656368982" lon="34.831285961">
      <ele>1110.41</ele>
      <time>2021-10-12T12:45:16Z</time>
    </trkpt>
    <trkpt lat="38.656347021" lon="34.831314962">
      <ele>1109.914</ele>
      <time>2021-10-12T12:45:18Z</time>
    </trkpt>
    <trkpt lat="38.656320032" lon="34.831343964">
      <ele>1109.399</ele>
      <time>2021-10-12T12:45:19Z</time>
    </trkpt>
    <trkpt lat="38.65629497" lon="34.831371037">
      <ele>1108.919</ele>
      <time>2021-10-12T12:45:20Z</time>
    </trkpt>
    <trkpt lat="38.65626798" lon="34.831396015">
      <ele>1108.433</ele>
      <time>2021-10-12T12:45:21Z</time>
    </trkpt>
    <trkpt lat="38.65624099" lon="34.83141697">
      <ele>1107.969</ele>
      <time>2021-10-12T12:45:23Z</time>
    </trkpt>
    <trkpt lat="38.656208972" lon="34.831424011">
      <ele>1107.757</ele>
      <time>2021-10-12T12:45:24Z</time>
    </trkpt>
    <trkpt lat="38.656175025" lon="34.831415964">
      <ele>1107.795</ele>
      <time>2021-10-12T12:45:25Z</time>
    </trkpt>
    <trkpt lat="38.656145018" lon="34.831402972">
      <ele>1107.907</ele>
      <time>2021-10-12T12:45:26Z</time>
    </trkpt>
    <trkpt lat="38.656108975" lon="34.831388975">
      <ele>1107.976</ele>
      <time>2021-10-12T12:45:28Z</time>
    </trkpt>
    <trkpt lat="38.656075029" lon="34.831375983">
      <ele>1107.784</ele>
      <time>2021-10-12T12:45:29Z</time>
    </trkpt>
    <trkpt lat="38.656042004" lon="34.831361985">
      <ele>1107.593</ele>
      <time>2021-10-12T12:45:30Z</time>
    </trkpt>
    <trkpt lat="38.656011997" lon="34.831353016">
      <ele>1107.354</ele>
      <time>2021-10-12T12:45:31Z</time>
    </trkpt>
    <trkpt lat="38.655988025" lon="34.831356034">
      <ele>1107.039</ele>
      <time>2021-10-12T12:45:32Z</time>
    </trkpt>
    <trkpt lat="38.65596598" lon="34.831361985">
      <ele>1106.719</ele>
      <time>2021-10-12T12:45:33Z</time>
    </trkpt>
    <trkpt lat="38.655945025" lon="34.831376988">
      <ele>1106.326</ele>
      <time>2021-10-12T12:45:34Z</time>
    </trkpt>
    <trkpt lat="38.655924993" lon="34.831397021">
      <ele>1105.892</ele>
      <time>2021-10-12T12:45:35Z</time>
    </trkpt>
    <trkpt lat="38.65590496" lon="34.831410013">
      <ele>1105.526</ele>
      <time>2021-10-12T12:45:36Z</time>
    </trkpt>
    <trkpt lat="38.655887023" lon="34.831411019">
      <ele>1105.325</ele>
      <time>2021-10-12T12:45:36Z</time>
    </trkpt>
    <trkpt lat="38.655862967" lon="34.831414958">
      <ele>1105.028</ele>
      <time>2021-10-12T12:45:37Z</time>
    </trkpt>
    <trkpt lat="38.655837988" lon="34.83140599">
      <ele>1104.865</ele>
      <time>2021-10-12T12:45:38Z</time>
    </trkpt>
    <trkpt lat="38.655810999" lon="34.831397021">
      <ele>1104.749</ele>
      <time>2021-10-12T12:45:39Z</time>
    </trkpt>
    <trkpt lat="38.655783003" lon="34.831386041">
      <ele>1104.656</ele>
      <time>2021-10-12T12:45:40Z</time>
    </trkpt>
    <trkpt lat="38.655755008" lon="34.831377994">
      <ele>1104.503</ele>
      <time>2021-10-12T12:45:41Z</time>
    </trkpt>
    <trkpt lat="38.655727012" lon="34.831379">
      <ele>1104.292</ele>
      <time>2021-10-12T12:45:42Z</time>
    </trkpt>
    <trkpt lat="38.655694993" lon="34.831383023">
      <ele>1104.036</ele>
      <time>2021-10-12T12:45:44Z</time>
    </trkpt>
    <trkpt lat="38.655668003" lon="34.831391992">
      <ele>1103.769</ele>
      <time>2021-10-12T12:45:45Z</time>
    </trkpt>
    <trkpt lat="38.655639002" lon="34.831410013">
      <ele>1103.319</ele>
      <time>2021-10-12T12:45:46Z</time>
    </trkpt>
    <trkpt lat="38.655612012" lon="34.831426023">
      <ele>1102.899</ele>
      <time>2021-10-12T12:45:47Z</time>
    </trkpt>
    <trkpt lat="38.655586028" lon="34.831442032">
      <ele>1102.475</ele>
      <time>2021-10-12T12:45:48Z</time>
    </trkpt>
    <trkpt lat="38.655559961" lon="34.831455024">
      <ele>1102.083</ele>
      <time>2021-10-12T12:45:49Z</time>
    </trkpt>
    <trkpt lat="38.655533977" lon="34.831471033">
      <ele>1101.584</ele>
      <time>2021-10-12T12:45:50Z</time>
    </trkpt>
    <trkpt lat="38.655508999" lon="34.831488971">
      <ele>1101.056</ele>
      <time>2021-10-12T12:45:51Z</time>
    </trkpt>
    <trkpt lat="38.655485027" lon="34.831507998">
      <ele>1100.523</ele>
      <time>2021-10-12T12:45:52Z</time>
    </trkpt>
    <trkpt lat="38.655456025" lon="34.831514033">
      <ele>1100.123</ele>
      <time>2021-10-12T12:45:53Z</time>
    </trkpt>
    <trkpt lat="38.655423" lon="34.831503974">
      <ele>1099.911</ele>
      <time>2021-10-12T12:45:55Z</time>
    </trkpt>
    <trkpt lat="38.655387964" lon="34.831489976">
      <ele>1099.734</ele>
      <time>2021-10-12T12:45:56Z</time>
    </trkpt>
    <trkpt lat="38.655355023" lon="34.831482014">
      <ele>1099.493</ele>
      <time>2021-10-12T12:45:57Z</time>
    </trkpt>
    <trkpt lat="38.655321999" lon="34.831468016">
      <ele>1099.338</ele>
      <time>2021-10-12T12:45:58Z</time>
    </trkpt>
    <trkpt lat="38.655291991" lon="34.831451001">
      <ele>1099.259</ele>
      <time>2021-10-12T12:46:00Z</time>
    </trkpt>
    <trkpt lat="38.655259972" lon="34.831435997">
      <ele>1099.279</ele>
      <time>2021-10-12T12:46:01Z</time>
    </trkpt>
    <trkpt lat="38.655223008" lon="34.831426023">
      <ele>1099.321</ele>
      <time>2021-10-12T12:46:02Z</time>
    </trkpt>
    <trkpt lat="38.65518596" lon="34.831415964">
      <ele>1099.344</ele>
      <time>2021-10-12T12:46:04Z</time>
    </trkpt>
    <trkpt lat="38.655148996" lon="34.83140599">
      <ele>1099.347</ele>
      <time>2021-10-12T12:46:05Z</time>
    </trkpt>
    <trkpt lat="38.655115971" lon="34.83139501">
      <ele>1099.355</ele>
      <time>2021-10-12T12:46:06Z</time>
    </trkpt>
    <trkpt lat="38.655082025" lon="34.831383023">
      <ele>1099.295</ele>
      <time>2021-10-12T12:46:08Z</time>
    </trkpt>
    <trkpt lat="38.655045982" lon="34.831362991">
      <ele>1099.166</ele>
      <time>2021-10-12T12:46:09Z</time>
    </trkpt>
    <trkpt lat="38.655013964" lon="34.831336001">
      <ele>1099.05</ele>
      <time>2021-10-12T12:46:11Z</time>
    </trkpt>
    <trkpt lat="38.65498404" lon="34.831296019">
      <ele>1099.038</ele>
      <time>2021-10-12T12:46:12Z</time>
    </trkpt>
    <trkpt lat="38.654957972" lon="34.831255032">
      <ele>1099.078</ele>
      <time>2021-10-12T12:46:14Z</time>
    </trkpt>
    <trkpt lat="38.654929977" lon="34.831217984">
      <ele>1099.097</ele>
      <time>2021-10-12T12:46:15Z</time>
    </trkpt>
    <trkpt lat="38.654900976" lon="34.831176996">
      <ele>1099.085</ele>
      <time>2021-10-12T12:46:17Z</time>
    </trkpt>
    <trkpt lat="38.654874992" lon="34.83113802">
      <ele>1099.044</ele>
      <time>2021-10-12T12:46:18Z</time>
    </trkpt>
    <trkpt lat="38.654850014" lon="34.831099967">
      <ele>1098.938</ele>
      <time>2021-10-12T12:46:20Z</time>
    </trkpt>
    <trkpt lat="38.654823024" lon="34.831073983">
      <ele>1098.781</ele>
      <time>2021-10-12T12:46:21Z</time>
    </trkpt>
    <trkpt lat="38.654794022" lon="34.831055962">
      <ele>1098.654</ele>
      <time>2021-10-12T12:46:22Z</time>
    </trkpt>
    <trkpt lat="38.654759992" lon="34.831043975">
      <ele>1098.549</ele>
      <time>2021-10-12T12:46:24Z</time>
    </trkpt>
    <trkpt lat="38.654724034" lon="34.831040036">
      <ele>1098.49</ele>
      <time>2021-10-12T12:46:25Z</time>
    </trkpt>
    <trkpt lat="38.654690003" lon="34.831041042">
      <ele>1098.264</ele>
      <time>2021-10-12T12:46:26Z</time>
    </trkpt>
    <trkpt lat="38.654653039" lon="34.831041042">
      <ele>1097.997</ele>
      <time>2021-10-12T12:46:27Z</time>
    </trkpt>
    <trkpt lat="38.654620014" lon="34.831034001">
      <ele>1097.709</ele>
      <time>2021-10-12T12:46:29Z</time>
    </trkpt>
    <trkpt lat="38.654586989" lon="34.831020003">
      <ele>1097.37</ele>
      <time>2021-10-12T12:46:30Z</time>
    </trkpt>
    <trkpt lat="38.654553965" lon="34.831001982">
      <ele>1097.003</ele>
      <time>2021-10-12T12:46:31Z</time>
    </trkpt>
    <trkpt lat="38.654521024" lon="34.830969963">
      <ele>1096.535</ele>
      <time>2021-10-12T12:46:33Z</time>
    </trkpt>
    <trkpt lat="38.654489005" lon="34.830942973">
      <ele>1096.11</ele>
      <time>2021-10-12T12:46:34Z</time>
    </trkpt>
    <trkpt lat="38.65445598" lon="34.83091196">
      <ele>1095.649</ele>
      <time>2021-10-12T12:46:36Z</time>
    </trkpt>
    <trkpt lat="38.654423961" lon="34.830884971">
      <ele>1095.197</ele>
      <time>2021-10-12T12:46:37Z</time>
    </trkpt>
    <trkpt lat="38.654396972" lon="34.830857981">
      <ele>1094.805</ele>
      <time>2021-10-12T12:46:38Z</time>
    </trkpt>
    <trkpt lat="38.654362019" lon="34.83083602">
      <ele>1094.42</ele>
      <time>2021-10-12T12:46:40Z</time>
    </trkpt>
    <trkpt lat="38.654332012" lon="34.830833003">
      <ele>1094.19</ele>
      <time>2021-10-12T12:46:41Z</time>
    </trkpt>
    <trkpt lat="38.654296976" lon="34.830830991">
      <ele>1093.939</ele>
      <time>2021-10-12T12:46:42Z</time>
    </trkpt>
    <trkpt lat="38.654264035" lon="34.830829985">
      <ele>1093.705</ele>
      <time>2021-10-12T12:46:44Z</time>
    </trkpt>
    <trkpt lat="38.65423101" lon="34.830835015">
      <ele>1093.466</ele>
      <time>2021-10-12T12:46:45Z</time>
    </trkpt>
    <trkpt lat="38.654195974" lon="34.830842977">
      <ele>1093.218</ele>
      <time>2021-10-12T12:46:46Z</time>
    </trkpt>
    <trkpt lat="38.654162027" lon="34.830867033">
      <ele>1092.979</ele>
      <time>2021-10-12T12:46:48Z</time>
    </trkpt>
    <trkpt lat="38.654131014" lon="34.830897041">
      <ele>1092.813</ele>
      <time>2021-10-12T12:46:49Z</time>
    </trkpt>
    <trkpt lat="38.654095978" lon="34.83092403">
      <ele>1092.579</ele>
      <time>2021-10-12T12:46:50Z</time>
    </trkpt>
    <trkpt lat="38.654062031" lon="34.830952026">
      <ele>1092.301</ele>
      <time>2021-10-12T12:46:52Z</time>
    </trkpt>
    <trkpt lat="38.654034035" lon="34.830980022">
      <ele>1092.018</ele>
      <time>2021-10-12T12:46:53Z</time>
    </trkpt>
    <trkpt lat="38.654005034" lon="34.831012962">
      <ele>1091.666</ele>
      <time>2021-10-12T12:46:55Z</time>
    </trkpt>
    <trkpt lat="38.653979972" lon="34.831045987">
      <ele>1091.299</ele>
      <time>2021-10-12T12:46:56Z</time>
    </trkpt>
    <trkpt lat="38.653954994" lon="34.831078006">
      <ele>1090.896</ele>
      <time>2021-10-12T12:46:57Z</time>
    </trkpt>
    <trkpt lat="38.65392901" lon="34.831109019">
      <ele>1090.446</ele>
      <time>2021-10-12T12:46:59Z</time>
    </trkpt>
    <trkpt lat="38.653901014" lon="34.831137015">
      <ele>1090.042</ele>
      <time>2021-10-12T12:47:00Z</time>
    </trkpt>
    <trkpt lat="38.653873019" lon="34.831162998">
      <ele>1089.803</ele>
      <time>2021-10-12T12:47:01Z</time>
    </trkpt>
    <trkpt lat="38.653843012" lon="34.831185965">
      <ele>1089.686</ele>
      <time>2021-10-12T12:47:03Z</time>
    </trkpt>
    <trkpt lat="38.653808981" lon="34.831203986">
      <ele>1089.569</ele>
      <time>2021-10-12T12:47:04Z</time>
    </trkpt>
    <trkpt lat="38.653773023" lon="34.831216978">
      <ele>1089.46</ele>
      <time>2021-10-12T12:47:05Z</time>
    </trkpt>
    <trkpt lat="38.653733041" lon="34.831230976">
      <ele>1089.326</ele>
      <time>2021-10-12T12:47:07Z</time>
    </trkpt>
    <trkpt lat="38.653693981" lon="34.831242962">
      <ele>1089.192</ele>
      <time>2021-10-12T12:47:08Z</time>
    </trkpt>
    <trkpt lat="38.653657017" lon="34.831254026">
      <ele>1089.056</ele>
      <time>2021-10-12T12:47:10Z</time>
    </trkpt>
    <trkpt lat="38.65361603" lon="34.831262995">
      <ele>1088.916</ele>
      <time>2021-10-12T12:47:11Z</time>
    </trkpt>
    <trkpt lat="38.65357697" lon="34.831268024">
      <ele>1088.993</ele>
      <time>2021-10-12T12:47:13Z</time>
    </trkpt>
    <trkpt lat="38.653533971" lon="34.831272969">
      <ele>1089.112</ele>
      <time>2021-10-12T12:47:14Z</time>
    </trkpt>
    <trkpt lat="38.653496001" lon="34.831283027">
      <ele>1089.177</ele>
      <time>2021-10-12T12:47:16Z</time>
    </trkpt>
    <trkpt lat="38.653459959" lon="34.831297025">
      <ele>1089.206</ele>
      <time>2021-10-12T12:47:17Z</time>
    </trkpt>
    <trkpt lat="38.653430035" lon="34.831311023">
      <ele>1089.213</ele>
      <time>2021-10-12T12:47:18Z</time>
    </trkpt>
    <trkpt lat="38.653398016" lon="34.831328038">
      <ele>1089.205</ele>
      <time>2021-10-12T12:47:20Z</time>
    </trkpt>
    <trkpt lat="38.653365998" lon="34.831342036">
      <ele>1089.22</ele>
      <time>2021-10-12T12:47:21Z</time>
    </trkpt>
    <trkpt lat="38.653331967" lon="34.831354022">
      <ele>1089.251</ele>
      <time>2021-10-12T12:47:22Z</time>
    </trkpt>
    <trkpt lat="38.653295003" lon="34.831362991">
      <ele>1089.186</ele>
      <time>2021-10-12T12:47:24Z</time>
    </trkpt>
    <trkpt lat="38.653261978" lon="34.831367014">
      <ele>1089.158</ele>
      <time>2021-10-12T12:47:25Z</time>
    </trkpt>
    <trkpt lat="38.65322602" lon="34.831361985">
      <ele>1089.194</ele>
      <time>2021-10-12T12:47:26Z</time>
    </trkpt>
    <trkpt lat="38.653191989" lon="34.831354022">
      <ele>1089.251</ele>
      <time>2021-10-12T12:47:27Z</time>
    </trkpt>
    <trkpt lat="38.653157959" lon="34.831346981">
      <ele>1089.302</ele>
      <time>2021-10-12T12:47:29Z</time>
    </trkpt>
    <trkpt lat="38.653125018" lon="34.831338013">
      <ele>1089.366</ele>
      <time>2021-10-12T12:47:30Z</time>
    </trkpt>
    <trkpt lat="38.653092999" lon="34.831331978">
      <ele>1089.41</ele>
      <time>2021-10-12T12:47:31Z</time>
    </trkpt>
    <trkpt lat="38.65306098" lon="34.831326026">
      <ele>1089.453</ele>
      <time>2021-10-12T12:47:32Z</time>
    </trkpt>
    <trkpt lat="38.653031979" lon="34.83132896">
      <ele>1089.516</ele>
      <time>2021-10-12T12:47:33Z</time>
    </trkpt>
    <trkpt lat="38.653008007" lon="34.831338013">
      <ele>1089.537</ele>
      <time>2021-10-12T12:47:34Z</time>
    </trkpt>
    <trkpt lat="38.652981017" lon="34.831354022">
      <ele>1089.519</ele>
      <time>2021-10-12T12:47:35Z</time>
    </trkpt>
    <trkpt lat="38.65295101" lon="34.831372965">
      <ele>1089.491</ele>
      <time>2021-10-12T12:47:37Z</time>
    </trkpt>
    <trkpt lat="38.652923014" lon="34.83138998">
      <ele>1089.473</ele>
      <time>2021-10-12T12:47:38Z</time>
    </trkpt>
    <trkpt lat="38.652889989" lon="34.831403978">
      <ele>1089.542</ele>
      <time>2021-10-12T12:47:39Z</time>
    </trkpt>
    <trkpt lat="38.652861994" lon="34.831408001">
      <ele>1089.628</ele>
      <time>2021-10-12T12:47:40Z</time>
    </trkpt>
    <trkpt lat="38.652833998" lon="34.831410013">
      <ele>1089.722</ele>
      <time>2021-10-12T12:47:41Z</time>
    </trkpt>
    <trkpt lat="38.652801979" lon="34.831414036">
      <ele>1089.822</ele>
      <time>2021-10-12T12:47:42Z</time>
    </trkpt>
    <trkpt lat="38.652772978" lon="34.831417976">
      <ele>1089.928</ele>
      <time>2021-10-12T12:47:43Z</time>
    </trkpt>
    <trkpt lat="38.652744982" lon="34.831419988">
      <ele>1090.111</ele>
      <time>2021-10-12T12:47:45Z</time>
    </trkpt>
    <trkpt lat="38.652717993" lon="34.831427028">
      <ele>1090.264</ele>
      <time>2021-10-12T12:47:46Z</time>
    </trkpt>
    <trkpt lat="38.652691003" lon="34.831431974">
      <ele>1090.421</ele>
      <time>2021-10-12T12:47:47Z</time>
    </trkpt>
    <trkpt lat="38.652658984" lon="34.831437003">
      <ele>1090.608</ele>
      <time>2021-10-12T12:47:48Z</time>
    </trkpt>
    <trkpt lat="38.652628977" lon="34.831442032">
      <ele>1090.778</ele>
      <time>2021-10-12T12:47:49Z</time>
    </trkpt>
    <trkpt lat="38.652599975" lon="34.831444966">
      <ele>1090.949</ele>
      <time>2021-10-12T12:47:50Z</time>
    </trkpt>
    <trkpt lat="38.652570974" lon="34.831444966">
      <ele>1091.137</ele>
      <time>2021-10-12T12:47:51Z</time>
    </trkpt>
    <trkpt lat="38.65254499" lon="34.831447983">
      <ele>1091.285</ele>
      <time>2021-10-12T12:47:52Z</time>
    </trkpt>
    <trkpt lat="38.652518" lon="34.831444966">
      <ele>1091.48</ele>
      <time>2021-10-12T12:47:53Z</time>
    </trkpt>
    <trkpt lat="38.652494028" lon="34.831442032">
      <ele>1091.678</ele>
      <time>2021-10-12T12:47:54Z</time>
    </trkpt>
    <trkpt lat="38.652470978" lon="34.831434991">
      <ele>1091.964</ele>
      <time>2021-10-12T12:47:55Z</time>
    </trkpt>
    <trkpt lat="38.652449017" lon="34.831424011">
      <ele>1092.275</ele>
      <time>2021-10-12T12:47:56Z</time>
    </trkpt>
    <trkpt lat="38.652424961" lon="34.83140599">
      <ele>1092.671</ele>
      <time>2021-10-12T12:47:57Z</time>
    </trkpt>
    <trkpt lat="38.652400989" lon="34.831385035">
      <ele>1093.097</ele>
      <time>2021-10-12T12:47:58Z</time>
    </trkpt>
    <trkpt lat="38.652378023" lon="34.831361985">
      <ele>1093.511</ele>
      <time>2021-10-12T12:47:59Z</time>
    </trkpt>
    <trkpt lat="38.652356984" lon="34.831338013">
      <ele>1093.911</ele>
      <time>2021-10-12T12:48:00Z</time>
    </trkpt>
    <trkpt lat="38.652336029" lon="34.83131798">
      <ele>1094.281</ele>
      <time>2021-10-12T12:48:01Z</time>
    </trkpt>
    <trkpt lat="38.652313985" lon="34.831294008">
      <ele>1094.692</ele>
      <time>2021-10-12T12:48:02Z</time>
    </trkpt>
    <trkpt lat="38.652292024" lon="34.83126903">
      <ele>1095.109</ele>
      <time>2021-10-12T12:48:03Z</time>
    </trkpt>
    <trkpt lat="38.652267968" lon="34.831244973">
      <ele>1095.542</ele>
      <time>2021-10-12T12:48:04Z</time>
    </trkpt>
    <trkpt lat="38.652249025" lon="34.83121899">
      <ele>1095.934</ele>
      <time>2021-10-12T12:48:05Z</time>
    </trkpt>
    <trkpt lat="38.652235027" lon="34.831199963">
      <ele>1096.222</ele>
      <time>2021-10-12T12:48:06Z</time>
    </trkpt>
    <trkpt lat="38.652222035" lon="34.831179008">
      <ele>1096.512</ele>
      <time>2021-10-12T12:48:07Z</time>
    </trkpt>
    <trkpt lat="38.652209966" lon="34.83115403">
      <ele>1096.779</ele>
      <time>2021-10-12T12:48:08Z</time>
    </trkpt>
    <trkpt lat="38.652194962" lon="34.831137015">
      <ele>1097.01</ele>
      <time>2021-10-12T12:48:08Z</time>
    </trkpt>
    <trkpt lat="38.652176019" lon="34.831113964">
      <ele>1097.312</ele>
      <time>2021-10-12T12:48:09Z</time>
    </trkpt>
    <trkpt lat="38.652157998" lon="34.83109301">
      <ele>1097.578</ele>
      <time>2021-10-12T12:48:10Z</time>
    </trkpt>
    <trkpt lat="38.652136959" lon="34.831072977">
      <ele>1097.846</ele>
      <time>2021-10-12T12:48:11Z</time>
    </trkpt>
    <trkpt lat="38.652118016" lon="34.831057973">
      <ele>1098.061</ele>
      <time>2021-10-12T12:48:12Z</time>
    </trkpt>
    <trkpt lat="38.652094966" lon="34.831045987">
      <ele>1098.278</ele>
      <time>2021-10-12T12:48:13Z</time>
    </trkpt>
    <trkpt lat="38.652070994" lon="34.831034001">
      <ele>1098.493</ele>
      <time>2021-10-12T12:48:14Z</time>
    </trkpt>
    <trkpt lat="38.652047021" lon="34.831023021">
      <ele>1098.696</ele>
      <time>2021-10-12T12:48:15Z</time>
    </trkpt>
    <trkpt lat="38.652023971" lon="34.831012962">
      <ele>1098.882</ele>
      <time>2021-10-12T12:48:16Z</time>
    </trkpt>
    <trkpt lat="38.652006034" lon="34.831003994">
      <ele>1099.028</ele>
      <time>2021-10-12T12:48:16Z</time>
    </trkpt>
    <trkpt lat="38.651986001" lon="34.830997037">
      <ele>1099.173</ele>
      <time>2021-10-12T12:48:17Z</time>
    </trkpt>
    <trkpt lat="38.651963035" lon="34.83098899">
      <ele>1099.335</ele>
      <time>2021-10-12T12:48:18Z</time>
    </trkpt>
    <trkpt lat="38.651938979" lon="34.830983039">
      <ele>1099.404</ele>
      <time>2021-10-12T12:48:19Z</time>
    </trkpt>
    <trkpt lat="38.651915006" lon="34.830974992">
      <ele>1099.174</ele>
      <time>2021-10-12T12:48:20Z</time>
    </trkpt>
    <trkpt lat="38.651891034" lon="34.830969963">
      <ele>1098.928</ele>
      <time>2021-10-12T12:48:21Z</time>
    </trkpt>
    <trkpt lat="38.651865972" lon="34.830969963">
      <ele>1098.656</ele>
      <time>2021-10-12T12:48:22Z</time>
    </trkpt>
    <trkpt lat="38.651837977" lon="34.830968035">
      <ele>1098.354</ele>
      <time>2021-10-12T12:48:23Z</time>
    </trkpt>
    <trkpt lat="38.651808975" lon="34.830963006">
      <ele>1098.038</ele>
      <time>2021-10-12T12:48:24Z</time>
    </trkpt>
    <trkpt lat="38.65178098" lon="34.830955965">
      <ele>1097.724</ele>
      <time>2021-10-12T12:48:25Z</time>
    </trkpt>
    <trkpt lat="38.651751978" lon="34.830949008">
      <ele>1097.389</ele>
      <time>2021-10-12T12:48:26Z</time>
    </trkpt>
    <trkpt lat="38.651723983" lon="34.830940962">
      <ele>1097.053</ele>
      <time>2021-10-12T12:48:27Z</time>
    </trkpt>
    <trkpt lat="38.651695987" lon="34.830925958">
      <ele>1096.685</ele>
      <time>2021-10-12T12:48:28Z</time>
    </trkpt>
    <trkpt lat="38.65166598" lon="34.830907015">
      <ele>1096.255</ele>
      <time>2021-10-12T12:48:29Z</time>
    </trkpt>
    <trkpt lat="38.651635973" lon="34.830887988">
      <ele>1095.755</ele>
      <time>2021-10-12T12:48:31Z</time>
    </trkpt>
    <trkpt lat="38.651606971" lon="34.830866028">
      <ele>1095.258</ele>
      <time>2021-10-12T12:48:32Z</time>
    </trkpt>
    <trkpt lat="38.65157797" lon="34.830850018">
      <ele>1094.783</ele>
      <time>2021-10-12T12:48:33Z</time>
    </trkpt>
    <trkpt lat="38.651549974" lon="34.830837026">
      <ele>1094.333</ele>
      <time>2021-10-12T12:48:34Z</time>
    </trkpt>
    <trkpt lat="38.651515022" lon="34.83082504">
      <ele>1093.83</ele>
      <time>2021-10-12T12:48:35Z</time>
    </trkpt>
    <trkpt lat="38.651480991" lon="34.830820011">
      <ele>1093.342</ele>
      <time>2021-10-12T12:48:37Z</time>
    </trkpt>
    <trkpt lat="38.651444027" lon="34.830820011">
      <ele>1092.804</ele>
      <time>2021-10-12T12:48:38Z</time>
    </trkpt>
    <trkpt lat="38.651407985" lon="34.830825962">
      <ele>1092.277</ele>
      <time>2021-10-12T12:48:39Z</time>
    </trkpt>
    <trkpt lat="38.651370015" lon="34.830837026">
      <ele>1092.081</ele>
      <time>2021-10-12T12:48:41Z</time>
    </trkpt>
    <trkpt lat="38.651331039" lon="34.830842977">
      <ele>1092.243</ele>
      <time>2021-10-12T12:48:42Z</time>
    </trkpt>
    <trkpt lat="38.651300026" lon="34.830854042">
      <ele>1092.394</ele>
      <time>2021-10-12T12:48:44Z</time>
    </trkpt>
    <trkpt lat="38.65126499" lon="34.83086301">
      <ele>1092.553</ele>
      <time>2021-10-12T12:48:45Z</time>
    </trkpt>
    <trkpt lat="38.651230037" lon="34.830874996">
      <ele>1092.722</ele>
      <time>2021-10-12T12:48:46Z</time>
    </trkpt>
    <trkpt lat="38.651191983" lon="34.830883965">
      <ele>1092.891</ele>
      <time>2021-10-12T12:48:48Z</time>
    </trkpt>
    <trkpt lat="38.651154013" lon="34.830896035">
      <ele>1093.071</ele>
      <time>2021-10-12T12:48:49Z</time>
    </trkpt>
    <trkpt lat="38.651119983" lon="34.830910033">
      <ele>1093.244</ele>
      <time>2021-10-12T12:48:50Z</time>
    </trkpt>
    <trkpt lat="38.651084024" lon="34.830925036">
      <ele>1093.2</ele>
      <time>2021-10-12T12:48:52Z</time>
    </trkpt>
    <trkpt lat="38.651051" lon="34.830939034">
      <ele>1093.082</ele>
      <time>2021-10-12T12:48:53Z</time>
    </trkpt>
    <trkpt lat="38.651014036" lon="34.83095496">
      <ele>1092.935</ele>
      <time>2021-10-12T12:48:55Z</time>
    </trkpt>
    <trkpt lat="38.650980005" lon="34.830972981">
      <ele>1092.793</ele>
      <time>2021-10-12T12:48:56Z</time>
    </trkpt>
    <trkpt lat="38.650944969" lon="34.830989996">
      <ele>1092.629</ele>
      <time>2021-10-12T12:48:57Z</time>
    </trkpt>
    <trkpt lat="38.650910016" lon="34.831003994">
      <ele>1092.446</ele>
      <time>2021-10-12T12:48:59Z</time>
    </trkpt>
    <trkpt lat="38.650875986" lon="34.831022015">
      <ele>1092.258</ele>
      <time>2021-10-12T12:49:00Z</time>
    </trkpt>
    <trkpt lat="38.650840027" lon="34.831040036">
      <ele>1092.042</ele>
      <time>2021-10-12T12:49:01Z</time>
    </trkpt>
    <trkpt lat="38.650802979" lon="34.83105504">
      <ele>1091.716</ele>
      <time>2021-10-12T12:49:03Z</time>
    </trkpt>
    <trkpt lat="38.650770038" lon="34.831070965">
      <ele>1091.382</ele>
      <time>2021-10-12T12:49:04Z</time>
    </trkpt>
    <trkpt lat="38.65073299" lon="34.831085969">
      <ele>1090.982</ele>
      <time>2021-10-12T12:49:06Z</time>
    </trkpt>
    <trkpt lat="38.650696026" lon="34.831098961">
      <ele>1090.56</ele>
      <time>2021-10-12T12:49:07Z</time>
    </trkpt>
    <trkpt lat="38.650656966" lon="34.831112036">
      <ele>1090.09</ele>
      <time>2021-10-12T12:49:09Z</time>
    </trkpt>
    <trkpt lat="38.650621008" lon="34.831125028">
      <ele>1089.618</ele>
      <time>2021-10-12T12:49:10Z</time>
    </trkpt>
    <trkpt lat="38.65058396" lon="34.831140032">
      <ele>1089.109</ele>
      <time>2021-10-12T12:49:11Z</time>
    </trkpt>
    <trkpt lat="38.650550013" lon="34.831156041">
      <ele>1088.677</ele>
      <time>2021-10-12T12:49:13Z</time>
    </trkpt>
    <trkpt lat="38.650513971" lon="34.83117599">
      <ele>1088.533</ele>
      <time>2021-10-12T12:49:14Z</time>
    </trkpt>
    <trkpt lat="38.650476001" lon="34.831192">
      <ele>1088.418</ele>
      <time>2021-10-12T12:49:16Z</time>
    </trkpt>
    <trkpt lat="38.65043602" lon="34.83120298">
      <ele>1088.339</ele>
      <time>2021-10-12T12:49:17Z</time>
    </trkpt>
    <trkpt lat="38.65039696" lon="34.831209015">
      <ele>1088.295</ele>
      <time>2021-10-12T12:49:19Z</time>
    </trkpt>
    <trkpt lat="38.650357984" lon="34.83121899">
      <ele>1088.223</ele>
      <time>2021-10-12T12:49:20Z</time>
    </trkpt>
    <trkpt lat="38.65032102" lon="34.831227958">
      <ele>1088.159</ele>
      <time>2021-10-12T12:49:21Z</time>
    </trkpt>
    <trkpt lat="38.650286989" lon="34.83124204">
      <ele>1088.057</ele>
      <time>2021-10-12T12:49:23Z</time>
    </trkpt>
    <trkpt lat="38.65025497" lon="34.831264">
      <ele>1087.944</ele>
      <time>2021-10-12T12:49:24Z</time>
    </trkpt>
    <trkpt lat="38.650224963" lon="34.831291996">
      <ele>1087.821</ele>
      <time>2021-10-12T12:49:26Z</time>
    </trkpt>
    <trkpt lat="38.650190011" lon="34.83131798">
      <ele>1087.746</ele>
      <time>2021-10-12T12:49:27Z</time>
    </trkpt>
    <trkpt lat="38.650156986" lon="34.831343042">
      <ele>1087.693</ele>
      <time>2021-10-12T12:49:28Z</time>
    </trkpt>
    <trkpt lat="38.650123961" lon="34.831366008">
      <ele>1087.673</ele>
      <time>2021-10-12T12:49:30Z</time>
    </trkpt>
    <trkpt lat="38.650089009" lon="34.831387969">
      <ele>1087.684</ele>
      <time>2021-10-12T12:49:31Z</time>
    </trkpt>
    <trkpt lat="38.650053972" lon="34.83140599">
      <ele>1087.756</ele>
      <time>2021-10-12T12:49:33Z</time>
    </trkpt>
    <trkpt lat="38.65001902" lon="34.831421999">
      <ele>1087.82</ele>
      <time>2021-10-12T12:49:34Z</time>
    </trkpt>
    <trkpt lat="38.649983983" lon="34.831439015">
      <ele>1087.809</ele>
      <time>2021-10-12T12:49:35Z</time>
    </trkpt>
    <trkpt lat="38.649950959" lon="34.831454018">
      <ele>1087.724</ele>
      <time>2021-10-12T12:49:37Z</time>
    </trkpt>
    <trkpt lat="38.649916006" lon="34.831472039">
      <ele>1087.61</ele>
      <time>2021-10-12T12:49:38Z</time>
    </trkpt>
    <trkpt lat="38.64988097" lon="34.831487965">
      <ele>1087.49</ele>
      <time>2021-10-12T12:49:39Z</time>
    </trkpt>
    <trkpt lat="38.649847023" lon="34.831505986">
      <ele>1087.346</ele>
      <time>2021-10-12T12:49:41Z</time>
    </trkpt>
    <trkpt lat="38.649813998" lon="34.831524007">
      <ele>1087.188</ele>
      <time>2021-10-12T12:49:42Z</time>
    </trkpt>
    <trkpt lat="38.649778962" lon="34.831543034">
      <ele>1087.004</ele>
      <time>2021-10-12T12:49:44Z</time>
    </trkpt>
    <trkpt lat="38.64974401" lon="34.831563989">
      <ele>1086.789</ele>
      <time>2021-10-12T12:49:45Z</time>
    </trkpt>
    <trkpt lat="38.649708973" lon="34.831578992">
      <ele>1086.584</ele>
      <time>2021-10-12T12:49:46Z</time>
    </trkpt>
    <trkpt lat="38.649675027" lon="34.831600031">
      <ele>1086.31</ele>
      <time>2021-10-12T12:49:48Z</time>
    </trkpt>
    <trkpt lat="38.649642002" lon="34.83161998">
      <ele>1086.047</ele>
      <time>2021-10-12T12:49:49Z</time>
    </trkpt>
    <trkpt lat="38.649608977" lon="34.831636995">
      <ele>1085.806</ele>
      <time>2021-10-12T12:49:50Z</time>
    </trkpt>
    <trkpt lat="38.649577964" lon="34.831659039">
      <ele>1085.536</ele>
      <time>2021-10-12T12:49:52Z</time>
    </trkpt>
    <trkpt lat="38.649546029" lon="34.831681">
      <ele>1085.314</ele>
      <time>2021-10-12T12:49:53Z</time>
    </trkpt>
    <trkpt lat="38.649513004" lon="34.831702961">
      <ele>1085.116</ele>
      <time>2021-10-12T12:49:54Z</time>
    </trkpt>
    <trkpt lat="38.64947998" lon="34.831727017">
      <ele>1084.911</ele>
      <time>2021-10-12T12:49:56Z</time>
    </trkpt>
    <trkpt lat="38.64945299" lon="34.831751995">
      <ele>1084.724</ele>
      <time>2021-10-12T12:49:57Z</time>
    </trkpt>
    <trkpt lat="38.649424994" lon="34.831778985">
      <ele>1084.666</ele>
      <time>2021-10-12T12:49:58Z</time>
    </trkpt>
    <trkpt lat="38.64939901" lon="34.831803963">
      <ele>1084.669</ele>
      <time>2021-10-12T12:50:00Z</time>
    </trkpt>
    <trkpt lat="38.649374032" lon="34.831835981">
      <ele>1084.644</ele>
      <time>2021-10-12T12:50:01Z</time>
    </trkpt>
    <trkpt lat="38.649352994" lon="34.831869006">
      <ele>1084.601</ele>
      <time>2021-10-12T12:50:02Z</time>
    </trkpt>
    <trkpt lat="38.649336984" lon="34.831903959">
      <ele>1084.533</ele>
      <time>2021-10-12T12:50:03Z</time>
    </trkpt>
    <trkpt lat="38.649321981" lon="34.83194503">
      <ele>1084.439</ele>
      <time>2021-10-12T12:50:05Z</time>
    </trkpt>
    <trkpt lat="38.649312006" lon="34.831996998">
      <ele>1084.288</ele>
      <time>2021-10-12T12:50:06Z</time>
    </trkpt>
    <trkpt lat="38.64930002" lon="34.832047038">
      <ele>1084.151</ele>
      <time>2021-10-12T12:50:08Z</time>
    </trkpt>
    <trkpt lat="38.649278982" lon="34.832145022">
      <ele>1083.874</ele>
      <time>2021-10-12T12:50:11Z</time>
    </trkpt>
    <trkpt lat="38.649271019" lon="34.832189027">
      <ele>1083.744</ele>
      <time>2021-10-12T12:50:12Z</time>
    </trkpt>
    <trkpt lat="38.649263978" lon="34.832234038">
      <ele>1083.665</ele>
      <time>2021-10-12T12:50:13Z</time>
    </trkpt>
    <trkpt lat="38.649250986" lon="34.832282988">
      <ele>1083.763</ele>
      <time>2021-10-12T12:50:15Z</time>
    </trkpt>
    <trkpt lat="38.649239" lon="34.832335962">
      <ele>1083.846</ele>
      <time>2021-10-12T12:50:16Z</time>
    </trkpt>
    <trkpt lat="38.649229025" lon="34.832381979">
      <ele>1083.905</ele>
      <time>2021-10-12T12:50:18Z</time>
    </trkpt>
    <trkpt lat="38.649218967" lon="34.832426989">
      <ele>1083.951</ele>
      <time>2021-10-12T12:50:19Z</time>
    </trkpt>
    <trkpt lat="38.64921201" lon="34.832474012">
      <ele>1083.985</ele>
      <time>2021-10-12T12:50:21Z</time>
    </trkpt>
    <trkpt lat="38.649206981" lon="34.832518017">
      <ele>1084.0</ele>
      <time>2021-10-12T12:50:22Z</time>
    </trkpt>
    <trkpt lat="38.649203964" lon="34.832561016">
      <ele>1084.0</ele>
      <time>2021-10-12T12:50:23Z</time>
    </trkpt>
    <trkpt lat="38.649197007" lon="34.832610972">
      <ele>1084.0</ele>
      <time>2021-10-12T12:50:25Z</time>
    </trkpt>
    <trkpt lat="38.649196001" lon="34.832657995">
      <ele>1084.0</ele>
      <time>2021-10-12T12:50:26Z</time>
    </trkpt>
    <trkpt lat="38.649196001" lon="34.832704011">
      <ele>1084.0</ele>
      <time>2021-10-12T12:50:27Z</time>
    </trkpt>
    <trkpt lat="38.649193989" lon="34.832750028">
      <ele>1084.0</ele>
      <time>2021-10-12T12:50:29Z</time>
    </trkpt>
    <trkpt lat="38.649196001" lon="34.832796967">
      <ele>1083.931</ele>
      <time>2021-10-12T12:50:30Z</time>
    </trkpt>
    <trkpt lat="38.649193989" lon="34.832842983">
      <ele>1083.765</ele>
      <time>2021-10-12T12:50:31Z</time>
    </trkpt>
    <trkpt lat="38.649193989" lon="34.832887994">
      <ele>1083.603</ele>
      <time>2021-10-12T12:50:33Z</time>
    </trkpt>
    <trkpt lat="38.649190972" lon="34.83293904">
      <ele>1083.419</ele>
      <time>2021-10-12T12:50:34Z</time>
    </trkpt>
    <trkpt lat="38.649191977" lon="34.832986984">
      <ele>1083.247</ele>
      <time>2021-10-12T12:50:35Z</time>
    </trkpt>
    <trkpt lat="38.649194995" lon="34.833036019">
      <ele>1083.07</ele>
      <time>2021-10-12T12:50:37Z</time>
    </trkpt>
    <trkpt lat="38.649199018" lon="34.833083041">
      <ele>1082.977</ele>
      <time>2021-10-12T12:50:38Z</time>
    </trkpt>
    <trkpt lat="38.649202036" lon="34.833131991">
      <ele>1082.93</ele>
      <time>2021-10-12T12:50:40Z</time>
    </trkpt>
    <trkpt lat="38.649198012" lon="34.833183037">
      <ele>1082.896</ele>
      <time>2021-10-12T12:50:41Z</time>
    </trkpt>
    <trkpt lat="38.649194995" lon="34.833232993">
      <ele>1082.87</ele>
      <time>2021-10-12T12:50:43Z</time>
    </trkpt>
    <trkpt lat="38.649199018" lon="34.833281022">
      <ele>1082.811</ele>
      <time>2021-10-12T12:50:44Z</time>
    </trkpt>
    <trkpt lat="38.649200024" lon="34.833325027">
      <ele>1082.767</ele>
      <time>2021-10-12T12:50:45Z</time>
    </trkpt>
    <trkpt lat="38.649200024" lon="34.833368026">
      <ele>1082.855</ele>
      <time>2021-10-12T12:50:47Z</time>
    </trkpt>
    <trkpt lat="38.649197007" lon="34.833409013">
      <ele>1082.994</ele>
      <time>2021-10-12T12:50:48Z</time>
    </trkpt>
    <trkpt lat="38.649184015" lon="34.833444972">
      <ele>1083.227</ele>
      <time>2021-10-12T12:50:49Z</time>
    </trkpt>
    <trkpt lat="38.649159959" lon="34.83346601">
      <ele>1083.503</ele>
      <time>2021-10-12T12:50:50Z</time>
    </trkpt>
    <trkpt lat="38.649120983" lon="34.833469028">
      <ele>1083.657</ele>
      <time>2021-10-12T12:50:51Z</time>
    </trkpt>
    <trkpt lat="38.649082007" lon="34.833465004">
      <ele>1083.795</ele>
      <time>2021-10-12T12:50:53Z</time>
    </trkpt>
    <trkpt lat="38.649049988" lon="34.83346601">
      <ele>1083.916</ele>
      <time>2021-10-12T12:50:54Z</time>
    </trkpt>
    <trkpt lat="38.649017969" lon="34.833471039">
      <ele>1084.036</ele>
      <time>2021-10-12T12:50:55Z</time>
    </trkpt>
    <trkpt lat="38.648988968" lon="34.833484031">
      <ele>1084.128</ele>
      <time>2021-10-12T12:50:56Z</time>
    </trkpt>
    <trkpt lat="38.648957033" lon="34.833501969">
      <ele>1084.2</ele>
      <time>2021-10-12T12:50:58Z</time>
    </trkpt>
    <trkpt lat="38.648928031" lon="34.833522001">
      <ele>1084.23</ele>
      <time>2021-10-12T12:50:59Z</time>
    </trkpt>
    <trkpt lat="38.648896012" lon="34.833544968">
      <ele>1084.226</ele>
      <time>2021-10-12T12:51:00Z</time>
    </trkpt>
    <trkpt lat="38.648868017" lon="34.833571035">
      <ele>1084.005</ele>
      <time>2021-10-12T12:51:02Z</time>
    </trkpt>
    <trkpt lat="38.648840021" lon="34.833595008">
      <ele>1083.716</ele>
      <time>2021-10-12T12:51:03Z</time>
    </trkpt>
    <trkpt lat="38.64881102" lon="34.83361504">
      <ele>1083.415</ele>
      <time>2021-10-12T12:51:04Z</time>
    </trkpt>
    <trkpt lat="38.648783024" lon="34.833625015">
      <ele>1083.157</ele>
      <time>2021-10-12T12:51:05Z</time>
    </trkpt>
    <trkpt lat="38.648747988" lon="34.833634989">
      <ele>1082.857</ele>
      <time>2021-10-12T12:51:06Z</time>
    </trkpt>
    <trkpt lat="38.64872301" lon="34.833637001">
      <ele>1082.675</ele>
      <time>2021-10-12T12:51:07Z</time>
    </trkpt>
    <trkpt lat="38.64869602" lon="34.833632978">
      <ele>1082.509</ele>
      <time>2021-10-12T12:51:08Z</time>
    </trkpt>
    <trkpt lat="38.648667019" lon="34.833634989">
      <ele>1082.299</ele>
      <time>2021-10-12T12:51:09Z</time>
    </trkpt>
    <trkpt lat="38.648637012" lon="34.833638007">
      <ele>1082.081</ele>
      <time>2021-10-12T12:51:11Z</time>
    </trkpt>
    <trkpt lat="38.648603987" lon="34.833641024">
      <ele>1081.867</ele>
      <time>2021-10-12T12:51:12Z</time>
    </trkpt>
    <trkpt lat="38.648567023" lon="34.833647981">
      <ele>1081.709</ele>
      <time>2021-10-12T12:51:13Z</time>
    </trkpt>
    <trkpt lat="38.648533998" lon="34.833655022">
      <ele>1081.564</ele>
      <time>2021-10-12T12:51:14Z</time>
    </trkpt>
    <trkpt lat="38.648497034" lon="34.833663991">
      <ele>1081.399</ele>
      <time>2021-10-12T12:51:16Z</time>
    </trkpt>
    <trkpt lat="38.648469038" lon="34.833668014">
      <ele>1081.284</ele>
      <time>2021-10-12T12:51:17Z</time>
    </trkpt>
    <trkpt lat="38.648441965" lon="34.833666002">
      <ele>1081.193</ele>
      <time>2021-10-12T12:51:18Z</time>
    </trkpt>
    <trkpt lat="38.648411036" lon="34.833635995">
      <ele>1081.19</ele>
      <time>2021-10-12T12:51:19Z</time>
    </trkpt>
    <trkpt lat="38.648396032" lon="34.833623003">
      <ele>1081.183</ele>
      <time>2021-10-12T12:51:20Z</time>
    </trkpt>
    <trkpt lat="38.648373988" lon="34.833613029">
      <ele>1081.139</ele>
      <time>2021-10-12T12:51:21Z</time>
    </trkpt>
    <trkpt lat="38.648350015" lon="34.833605988">
      <ele>1081.097</ele>
      <time>2021-10-12T12:51:22Z</time>
    </trkpt>
    <trkpt lat="38.648331994" lon="34.833601965">
      <ele>1081.071</ele>
      <time>2021-10-12T12:51:22Z</time>
    </trkpt>
    <trkpt lat="38.648303999" lon="34.83361504">
      <ele>1081.091</ele>
      <time>2021-10-12T12:51:24Z</time>
    </trkpt>
    <trkpt lat="38.648287989" lon="34.833639013">
      <ele>1081.063</ele>
      <time>2021-10-12T12:51:24Z</time>
    </trkpt>
    <trkpt lat="38.648278015" lon="34.83366902">
      <ele>1080.991</ele>
      <time>2021-10-12T12:51:25Z</time>
    </trkpt>
    <trkpt lat="38.648265023" lon="34.833710007">
      <ele>1080.89</ele>
      <time>2021-10-12T12:51:27Z</time>
    </trkpt>
    <trkpt lat="38.648253959" lon="34.833752001">
      <ele>1080.779</ele>
      <time>2021-10-12T12:51:28Z</time>
    </trkpt>
    <trkpt lat="38.648248008" lon="34.833797012">
      <ele>1080.638</ele>
      <time>2021-10-12T12:51:29Z</time>
    </trkpt>
    <trkpt lat="38.648241973" lon="34.833839005">
      <ele>1080.508</ele>
      <time>2021-10-12T12:51:31Z</time>
    </trkpt>
    <trkpt lat="38.648242978" lon="34.833882004">
      <ele>1080.35</ele>
      <time>2021-10-12T12:51:32Z</time>
    </trkpt>
    <trkpt lat="38.648253037" lon="34.83392098">
      <ele>1080.289</ele>
      <time>2021-10-12T12:51:33Z</time>
    </trkpt>
    <trkpt lat="38.648274997" lon="34.833943024">
      <ele>1080.21</ele>
      <time>2021-10-12T12:51:34Z</time>
    </trkpt>
    <trkpt lat="38.648311039" lon="34.833968002">
      <ele>1080.08</ele>
      <time>2021-10-12T12:51:35Z</time>
    </trkpt>
    <trkpt lat="38.648349009" lon="34.833989041">
      <ele>1080.036</ele>
      <time>2021-10-12T12:51:37Z</time>
    </trkpt>
    <trkpt lat="38.648385974" lon="34.834004967">
      <ele>1080.11</ele>
      <time>2021-10-12T12:51:38Z</time>
    </trkpt>
    <trkpt lat="38.648424027" lon="34.834024999">
      <ele>1080.167</ele>
      <time>2021-10-12T12:51:40Z</time>
    </trkpt>
    <trkpt lat="38.64845898" lon="34.834040003">
      <ele>1080.206</ele>
      <time>2021-10-12T12:51:41Z</time>
    </trkpt>
    <trkpt lat="38.648492005" lon="34.834057018">
      <ele>1080.225</ele>
      <time>2021-10-12T12:51:43Z</time>
    </trkpt>
    <trkpt lat="38.648527963" lon="34.834074033">
      <ele>1080.234</ele>
      <time>2021-10-12T12:51:44Z</time>
    </trkpt>
    <trkpt lat="38.648564005" lon="34.834104041">
      <ele>1080.187</ele>
      <time>2021-10-12T12:51:46Z</time>
    </trkpt>
    <trkpt lat="38.648598036" lon="34.834126001">
      <ele>1080.14</ele>
      <time>2021-10-12T12:51:47Z</time>
    </trkpt>
    <trkpt lat="38.648632988" lon="34.834147962">
      <ele>1080.146</ele>
      <time>2021-10-12T12:51:49Z</time>
    </trkpt>
    <trkpt lat="38.648669031" lon="34.834171012">
      <ele>1080.202</ele>
      <time>2021-10-12T12:51:50Z</time>
    </trkpt>
    <trkpt lat="38.648703983" lon="34.834189033">
      <ele>1080.28</ele>
      <time>2021-10-12T12:51:51Z</time>
    </trkpt>
    <trkpt lat="38.648741031" lon="34.834207976">
      <ele>1080.329</ele>
      <time>2021-10-12T12:51:53Z</time>
    </trkpt>
    <trkpt lat="38.648779001" lon="34.834228009">
      <ele>1080.337</ele>
      <time>2021-10-12T12:51:54Z</time>
    </trkpt>
    <trkpt lat="38.648814959" lon="34.834252987">
      <ele>1080.278</ele>
      <time>2021-10-12T12:51:56Z</time>
    </trkpt>
    <trkpt lat="38.648849996" lon="34.834275031">
      <ele>1080.189</ele>
      <time>2021-10-12T12:51:57Z</time>
    </trkpt>
    <trkpt lat="38.648885032" lon="34.834295986">
      <ele>1080.068</ele>
      <time>2021-10-12T12:51:59Z</time>
    </trkpt>
    <trkpt lat="38.648918979" lon="34.834317025">
      <ele>1079.917</ele>
      <time>2021-10-12T12:52:00Z</time>
    </trkpt>
    <trkpt lat="38.648949992" lon="34.834333034">
      <ele>1079.802</ele>
      <time>2021-10-12T12:52:01Z</time>
    </trkpt>
    <trkpt lat="38.648986034" lon="34.834356001">
      <ele>1079.637</ele>
      <time>2021-10-12T12:52:03Z</time>
    </trkpt>
    <trkpt lat="38.649018975" lon="34.834377961">
      <ele>1079.479</ele>
      <time>2021-10-12T12:52:04Z</time>
    </trkpt>
    <trkpt lat="38.649052" lon="34.834397994">
      <ele>1079.334</ele>
      <time>2021-10-12T12:52:06Z</time>
    </trkpt>
    <trkpt lat="38.649085024" lon="34.834417021">
      <ele>1079.197</ele>
      <time>2021-10-12T12:52:07Z</time>
    </trkpt>
    <trkpt lat="38.649124" lon="34.834437976">
      <ele>1079.047</ele>
      <time>2021-10-12T12:52:09Z</time>
    </trkpt>
    <trkpt lat="38.649159037" lon="34.834457003">
      <ele>1078.955</ele>
      <time>2021-10-12T12:52:10Z</time>
    </trkpt>
    <trkpt lat="38.649191977" lon="34.834477035">
      <ele>1078.883</ele>
      <time>2021-10-12T12:52:11Z</time>
    </trkpt>
    <trkpt lat="38.649227014" lon="34.834507965">
      <ele>1078.771</ele>
      <time>2021-10-12T12:52:13Z</time>
    </trkpt>
    <trkpt lat="38.649258027" lon="34.834547024">
      <ele>1078.631</ele>
      <time>2021-10-12T12:52:15Z</time>
    </trkpt>
    <trkpt lat="38.649279987" lon="34.834595975">
      <ele>1078.454</ele>
      <time>2021-10-12T12:52:16Z</time>
    </trkpt>
    <trkpt lat="38.649284011" lon="34.83463998">
      <ele>1078.296</ele>
      <time>2021-10-12T12:52:17Z</time>
    </trkpt>
    <trkpt lat="38.649271019" lon="34.83468499">
      <ele>1078.134</ele>
      <time>2021-10-12T12:52:19Z</time>
    </trkpt>
    <trkpt lat="38.649256015" lon="34.834736036">
      <ele>1077.966</ele>
      <time>2021-10-12T12:52:20Z</time>
    </trkpt>
    <trkpt lat="38.649243023" lon="34.834788004">
      <ele>1077.828</ele>
      <time>2021-10-12T12:52:22Z</time>
    </trkpt>
    <trkpt lat="38.649230031" lon="34.834839972">
      <ele>1077.673</ele>
      <time>2021-10-12T12:52:24Z</time>
    </trkpt>
    <trkpt lat="38.649221985" lon="34.834889006">
      <ele>1077.519</ele>
      <time>2021-10-12T12:52:25Z</time>
    </trkpt>
    <trkpt lat="38.649209999" lon="34.835038036">
      <ele>1077.272</ele>
      <time>2021-10-12T12:52:29Z</time>
    </trkpt>
    <trkpt lat="38.649216034" lon="34.835082041">
      <ele>1077.421</ele>
      <time>2021-10-12T12:52:31Z</time>
    </trkpt>
    <trkpt lat="38.649231037" lon="34.835119005">
      <ele>1077.561</ele>
      <time>2021-10-12T12:52:32Z</time>
    </trkpt>
    <trkpt lat="38.649259033" lon="34.835148007">
      <ele>1077.688</ele>
      <time>2021-10-12T12:52:33Z</time>
    </trkpt>
    <trkpt lat="38.649294991" lon="34.835167034">
      <ele>1077.785</ele>
      <time>2021-10-12T12:52:35Z</time>
    </trkpt>
    <trkpt lat="38.649330027" lon="34.835182037">
      <ele>1077.858</ele>
      <time>2021-10-12T12:52:36Z</time>
    </trkpt>
    <trkpt lat="38.649365986" lon="34.835199974">
      <ele>1077.921</ele>
      <time>2021-10-12T12:52:37Z</time>
    </trkpt>
    <trkpt lat="38.649404962" lon="34.835221013">
      <ele>1077.971</ele>
      <time>2021-10-12T12:52:39Z</time>
    </trkpt>
    <trkpt lat="38.649439998" lon="34.83524004">
      <ele>1077.998</ele>
      <time>2021-10-12T12:52:40Z</time>
    </trkpt>
    <trkpt lat="38.649472017" lon="34.835262001">
      <ele>1077.906</ele>
      <time>2021-10-12T12:52:42Z</time>
    </trkpt>
    <trkpt lat="38.649502024" lon="34.83528899">
      <ele>1077.752</ele>
      <time>2021-10-12T12:52:43Z</time>
    </trkpt>
    <trkpt lat="38.649538988" lon="34.835321009">
      <ele>1077.504</ele>
      <time>2021-10-12T12:52:45Z</time>
    </trkpt>
    <trkpt lat="38.649572013" lon="34.835350011">
      <ele>1077.281</ele>
      <time>2021-10-12T12:52:46Z</time>
    </trkpt>
    <trkpt lat="38.649606965" lon="34.835377">
      <ele>1077.058</ele>
      <time>2021-10-12T12:52:48Z</time>
    </trkpt>
    <trkpt lat="38.649644013" lon="34.835398039">
      <ele>1076.849</ele>
      <time>2021-10-12T12:52:49Z</time>
    </trkpt>
    <trkpt lat="38.649679972" lon="34.83541497">
      <ele>1076.658</ele>
      <time>2021-10-12T12:52:51Z</time>
    </trkpt>
    <trkpt lat="38.649718026" lon="34.835429974">
      <ele>1076.467</ele>
      <time>2021-10-12T12:52:52Z</time>
    </trkpt>
    <trkpt lat="38.649757002" lon="34.835452018">
      <ele>1076.294</ele>
      <time>2021-10-12T12:52:54Z</time>
    </trkpt>
    <trkpt lat="38.64978902" lon="34.835469034">
      <ele>1076.146</ele>
      <time>2021-10-12T12:52:55Z</time>
    </trkpt>
    <trkpt lat="38.649822967" lon="34.835486971">
      <ele>1075.974</ele>
      <time>2021-10-12T12:52:56Z</time>
    </trkpt>
    <trkpt lat="38.649856998" lon="34.835508009">
      <ele>1075.769</ele>
      <time>2021-10-12T12:52:58Z</time>
    </trkpt>
    <trkpt lat="38.64989304" lon="34.835527958">
      <ele>1075.546</ele>
      <time>2021-10-12T12:52:59Z</time>
    </trkpt>
    <trkpt lat="38.649926987" lon="34.835548997">
      <ele>1075.304</ele>
      <time>2021-10-12T12:53:01Z</time>
    </trkpt>
    <trkpt lat="38.649958" lon="34.835570036">
      <ele>1075.091</ele>
      <time>2021-10-12T12:53:02Z</time>
    </trkpt>
    <trkpt lat="38.649994042" lon="34.835594008">
      <ele>1074.88</ele>
      <time>2021-10-12T12:53:03Z</time>
    </trkpt>
    <trkpt lat="38.650026983" lon="34.835614963">
      <ele>1074.71</ele>
      <time>2021-10-12T12:53:05Z</time>
    </trkpt>
    <trkpt lat="38.650062019" lon="34.835638013">
      <ele>1074.546</ele>
      <time>2021-10-12T12:53:06Z</time>
    </trkpt>
    <trkpt lat="38.650096972" lon="34.835659973">
      <ele>1074.406</ele>
      <time>2021-10-12T12:53:08Z</time>
    </trkpt>
    <trkpt lat="38.650131002" lon="34.835681012">
      <ele>1074.29</ele>
      <time>2021-10-12T12:53:09Z</time>
    </trkpt>
    <trkpt lat="38.650164027" lon="34.835700961">
      <ele>1074.195</ele>
      <time>2021-10-12T12:53:10Z</time>
    </trkpt>
    <trkpt lat="38.650199985" lon="34.835724011">
      <ele>1074.11</ele>
      <time>2021-10-12T12:53:12Z</time>
    </trkpt>
    <trkpt lat="38.650234016" lon="34.835745972">
      <ele>1074.05</ele>
      <time>2021-10-12T12:53:13Z</time>
    </trkpt>
    <trkpt lat="38.65026704" lon="34.83576701">
      <ele>1074.009</ele>
      <time>2021-10-12T12:53:15Z</time>
    </trkpt>
    <trkpt lat="38.650304005" lon="34.835788971">
      <ele>1073.906</ele>
      <time>2021-10-12T12:53:16Z</time>
    </trkpt>
    <trkpt lat="38.650338035" lon="34.835811015">
      <ele>1073.783</ele>
      <time>2021-10-12T12:53:18Z</time>
    </trkpt>
    <trkpt lat="38.65036997" lon="34.835839011">
      <ele>1073.675</ele>
      <time>2021-10-12T12:53:19Z</time>
    </trkpt>
    <trkpt lat="38.650395032" lon="34.835877987">
      <ele>1073.646</ele>
      <time>2021-10-12T12:53:21Z</time>
    </trkpt>
    <trkpt lat="38.650415987" lon="34.835920986">
      <ele>1073.659</ele>
      <time>2021-10-12T12:53:22Z</time>
    </trkpt>
    <trkpt lat="38.65043602" lon="34.835965997">
      <ele>1073.702</ele>
      <time>2021-10-12T12:53:24Z</time>
    </trkpt>
    <trkpt lat="38.650452029" lon="34.836012013">
      <ele>1073.776</ele>
      <time>2021-10-12T12:53:25Z</time>
    </trkpt>
    <trkpt lat="38.650469966" lon="34.836056018">
      <ele>1073.863</ele>
      <time>2021-10-12T12:53:26Z</time>
    </trkpt>
    <trkpt lat="38.65048497" lon="34.836100023">
      <ele>1073.97</ele>
      <time>2021-10-12T12:53:28Z</time>
    </trkpt>
    <trkpt lat="38.650501985" lon="34.836145034">
      <ele>1073.901</ele>
      <time>2021-10-12T12:53:29Z</time>
    </trkpt>
    <trkpt lat="38.650516989" lon="34.836190967">
      <ele>1073.752</ele>
      <time>2021-10-12T12:53:31Z</time>
    </trkpt>
    <trkpt lat="38.650526963" lon="34.836235978">
      <ele>1073.597</ele>
      <time>2021-10-12T12:53:32Z</time>
    </trkpt>
    <trkpt lat="38.650534004" lon="34.836283">
      <ele>1073.429</ele>
      <time>2021-10-12T12:53:33Z</time>
    </trkpt>
    <trkpt lat="38.650544984" lon="34.836330023">
      <ele>1073.242</ele>
      <time>2021-10-12T12:53:35Z</time>
    </trkpt>
    <trkpt lat="38.650553031" lon="34.836376039">
      <ele>1073.055</ele>
      <time>2021-10-12T12:53:36Z</time>
    </trkpt>
    <trkpt lat="38.650563005" lon="34.83642499">
      <ele>1072.97</ele>
      <time>2021-10-12T12:53:38Z</time>
    </trkpt>
    <trkpt lat="38.650573986" lon="34.836472012">
      <ele>1072.914</ele>
      <time>2021-10-12T12:53:39Z</time>
    </trkpt>
    <trkpt lat="38.650585972" lon="34.836513">
      <ele>1072.842</ele>
      <time>2021-10-12T12:53:40Z</time>
    </trkpt>
    <trkpt lat="38.650600975" lon="34.836554993">
      <ele>1072.739</ele>
      <time>2021-10-12T12:53:42Z</time>
    </trkpt>
    <trkpt lat="38.650622014" lon="34.83659598">
      <ele>1072.582</ele>
      <time>2021-10-12T12:53:43Z</time>
    </trkpt>
    <trkpt lat="38.650639029" lon="34.83663504">
      <ele>1072.433</ele>
      <time>2021-10-12T12:53:44Z</time>
    </trkpt>
    <trkpt lat="38.650652021" lon="34.836670998">
      <ele>1072.295</ele>
      <time>2021-10-12T12:53:46Z</time>
    </trkpt>
    <trkpt lat="38.650672976" lon="34.836705029">
      <ele>1072.075</ele>
      <time>2021-10-12T12:53:47Z</time>
    </trkpt>
    <trkpt lat="38.650694015" lon="34.836736964">
      <ele>1071.876</ele>
      <time>2021-10-12T12:53:48Z</time>
    </trkpt>
    <trkpt lat="38.650710024" lon="34.836767977">
      <ele>1071.726</ele>
      <time>2021-10-12T12:53:49Z</time>
    </trkpt>
    <trkpt lat="38.650697032" lon="34.836793961">
      <ele>1071.757</ele>
      <time>2021-10-12T12:53:50Z</time>
    </trkpt>
    <trkpt lat="38.650669036" lon="34.836810976">
      <ele>1071.876</ele>
      <time>2021-10-12T12:53:51Z</time>
    </trkpt>
    <trkpt lat="38.650636012" lon="34.836821035">
      <ele>1072.026</ele>
      <time>2021-10-12T12:53:52Z</time>
    </trkpt>
    <trkpt lat="38.65059603" lon="34.836826986">
      <ele>1072.216</ele>
      <time>2021-10-12T12:53:54Z</time>
    </trkpt>
    <trkpt lat="38.650559988" lon="34.836826986">
      <ele>1072.4</ele>
      <time>2021-10-12T12:53:55Z</time>
    </trkpt>
    <trkpt lat="38.650523024" lon="34.836827992">
      <ele>1072.604</ele>
      <time>2021-10-12T12:53:57Z</time>
    </trkpt>
    <trkpt lat="38.65048497" lon="34.836824974">
      <ele>1072.829</ele>
      <time>2021-10-12T12:53:58Z</time>
    </trkpt>
    <trkpt lat="38.650445994" lon="34.836817011">
      <ele>1073.067</ele>
      <time>2021-10-12T12:54:00Z</time>
    </trkpt>
    <trkpt lat="38.650410036" lon="34.836806031">
      <ele>1073.285</ele>
      <time>2021-10-12T12:54:01Z</time>
    </trkpt>
    <trkpt lat="38.650374999" lon="34.836797984">
      <ele>1073.485</ele>
      <time>2021-10-12T12:54:02Z</time>
    </trkpt>
    <trkpt lat="38.650340969" lon="34.836792033">
      <ele>1073.67</ele>
      <time>2021-10-12T12:54:03Z</time>
    </trkpt>
    <trkpt lat="38.650313979" lon="34.836799996">
      <ele>1073.807</ele>
      <time>2021-10-12T12:54:05Z</time>
    </trkpt>
    <trkpt lat="38.650282966" lon="34.836808965">
      <ele>1073.972</ele>
      <time>2021-10-12T12:54:06Z</time>
    </trkpt>
    <trkpt lat="38.650255976" lon="34.836827992">
      <ele>1074.033</ele>
      <time>2021-10-12T12:54:07Z</time>
    </trkpt>
    <trkpt lat="38.650238961" lon="34.836863028">
      <ele>1074.041</ele>
      <time>2021-10-12T12:54:08Z</time>
    </trkpt>
    <trkpt lat="38.650226975" lon="34.836899992">
      <ele>1074.029</ele>
      <time>2021-10-12T12:54:09Z</time>
    </trkpt>
    <trkpt lat="38.650215995" lon="34.836939974">
      <ele>1074.004</ele>
      <time>2021-10-12T12:54:10Z</time>
    </trkpt>
    <trkpt lat="38.65020602" lon="34.83698599">
      <ele>1073.701</ele>
      <time>2021-10-12T12:54:12Z</time>
    </trkpt>
    <trkpt lat="38.650196968" lon="34.837033013">
      <ele>1073.362</ele>
      <time>2021-10-12T12:54:13Z</time>
    </trkpt>
    <trkpt lat="38.650185987" lon="34.837081963">
      <ele>1073.01</ele>
      <time>2021-10-12T12:54:15Z</time>
    </trkpt>
    <trkpt lat="38.65017903" lon="34.837126974">
      <ele>1072.686</ele>
      <time>2021-10-12T12:54:16Z</time>
    </trkpt>
    <trkpt lat="38.650167966" lon="34.837171985">
      <ele>1072.362</ele>
      <time>2021-10-12T12:54:17Z</time>
    </trkpt>
    <trkpt lat="38.650161009" lon="34.837214984">
      <ele>1072.052</ele>
      <time>2021-10-12T12:54:19Z</time>
    </trkpt>
    <trkpt lat="38.650156986" lon="34.837261001">
      <ele>1071.842</ele>
      <time>2021-10-12T12:54:20Z</time>
    </trkpt>
    <trkpt lat="38.650150029" lon="34.837305006">
      <ele>1071.678</ele>
      <time>2021-10-12T12:54:21Z</time>
    </trkpt>
    <trkpt lat="38.650142988" lon="34.837351022">
      <ele>1071.523</ele>
      <time>2021-10-12T12:54:23Z</time>
    </trkpt>
    <trkpt lat="38.65013402" lon="34.837399973">
      <ele>1071.383</ele>
      <time>2021-10-12T12:54:24Z</time>
    </trkpt>
    <trkpt lat="38.650127985" lon="34.837443978">
      <ele>1071.264</ele>
      <time>2021-10-12T12:54:25Z</time>
    </trkpt>
    <trkpt lat="38.650119016" lon="34.837488988">
      <ele>1071.177</ele>
      <time>2021-10-12T12:54:27Z</time>
    </trkpt>
    <trkpt lat="38.650109963" lon="34.837533999">
      <ele>1071.257</ele>
      <time>2021-10-12T12:54:28Z</time>
    </trkpt>
    <trkpt lat="38.650105018" lon="34.837573981">
      <ele>1071.345</ele>
      <time>2021-10-12T12:54:29Z</time>
    </trkpt>
    <trkpt lat="38.650094038" lon="34.837619998">
      <ele>1071.469</ele>
      <time>2021-10-12T12:54:31Z</time>
    </trkpt>
    <trkpt lat="38.650082974" lon="34.837661991">
      <ele>1071.577</ele>
      <time>2021-10-12T12:54:32Z</time>
    </trkpt>
    <trkpt lat="38.650076017" lon="34.837702978">
      <ele>1071.653</ele>
      <time>2021-10-12T12:54:33Z</time>
    </trkpt>
    <trkpt lat="38.650068976" lon="34.837747989">
      <ele>1071.725</ele>
      <time>2021-10-12T12:54:35Z</time>
    </trkpt>
    <trkpt lat="38.650063025" lon="34.837793">
      <ele>1071.803</ele>
      <time>2021-10-12T12:54:36Z</time>
    </trkpt>
    <trkpt lat="38.650055984" lon="34.837839017">
      <ele>1071.93</ele>
      <time>2021-10-12T12:54:37Z</time>
    </trkpt>
    <trkpt lat="38.650048021" lon="34.837883022">
      <ele>1072.075</ele>
      <time>2021-10-12T12:54:39Z</time>
    </trkpt>
    <trkpt lat="38.65004098" lon="34.837929038">
      <ele>1072.236</ele>
      <time>2021-10-12T12:54:40Z</time>
    </trkpt>
    <trkpt lat="38.650037963" lon="34.83797296">
      <ele>1072.374</ele>
      <time>2021-10-12T12:54:41Z</time>
    </trkpt>
    <trkpt lat="38.650034023" lon="34.83801797">
      <ele>1072.53</ele>
      <time>2021-10-12T12:54:42Z</time>
    </trkpt>
    <trkpt lat="38.650033018" lon="34.838062981">
      <ele>1072.643</ele>
      <time>2021-10-12T12:54:44Z</time>
    </trkpt>
    <trkpt lat="38.650034023" lon="34.838107992">
      <ele>1072.633</ele>
      <time>2021-10-12T12:54:45Z</time>
    </trkpt>
    <trkpt lat="38.650033018" lon="34.838154009">
      <ele>1072.643</ele>
      <time>2021-10-12T12:54:46Z</time>
    </trkpt>
    <trkpt lat="38.650028994" lon="34.838201031">
      <ele>1072.687</ele>
      <time>2021-10-12T12:54:48Z</time>
    </trkpt>
    <trkpt lat="38.650021031" lon="34.838251993">
      <ele>1072.773</ele>
      <time>2021-10-12T12:54:49Z</time>
    </trkpt>
    <trkpt lat="38.650013991" lon="34.83829801">
      <ele>1072.849</ele>
      <time>2021-10-12T12:54:51Z</time>
    </trkpt>
    <trkpt lat="38.650009967" lon="34.838342015">
      <ele>1072.892</ele>
      <time>2021-10-12T12:54:52Z</time>
    </trkpt>
    <trkpt lat="38.65000804" lon="34.838385014">
      <ele>1072.913</ele>
      <time>2021-10-12T12:54:53Z</time>
    </trkpt>
    <trkpt lat="38.650007034" lon="34.838428013">
      <ele>1072.924</ele>
      <time>2021-10-12T12:54:54Z</time>
    </trkpt>
    <trkpt lat="38.65000804" lon="34.83847403">
      <ele>1072.913</ele>
      <time>2021-10-12T12:54:56Z</time>
    </trkpt>
    <trkpt lat="38.650009967" lon="34.838516023">
      <ele>1072.892</ele>
      <time>2021-10-12T12:54:57Z</time>
    </trkpt>
    <trkpt lat="38.65000804" lon="34.838561034">
      <ele>1072.913</ele>
      <time>2021-10-12T12:54:58Z</time>
    </trkpt>
    <trkpt lat="38.650005022" lon="34.83860001">
      <ele>1072.946</ele>
      <time>2021-10-12T12:54:59Z</time>
    </trkpt>
    <trkpt lat="38.649993036" lon="34.838643009">
      <ele>1072.863</ele>
      <time>2021-10-12T12:55:01Z</time>
    </trkpt>
    <trkpt lat="38.649971997" lon="34.838677961">
      <ele>1072.683</ele>
      <time>2021-10-12T12:55:02Z</time>
    </trkpt>
    <trkpt lat="38.649944002" lon="34.838710986">
      <ele>1072.511</ele>
      <time>2021-10-12T12:55:03Z</time>
    </trkpt>
    <trkpt lat="38.649917012" lon="34.838734958">
      <ele>1072.389</ele>
      <time>2021-10-12T12:55:05Z</time>
    </trkpt>
    <trkpt lat="38.649885999" lon="34.838754991">
      <ele>1072.284</ele>
      <time>2021-10-12T12:55:06Z</time>
    </trkpt>
    <trkpt lat="38.649855992" lon="34.838772006">
      <ele>1072.203</ele>
      <time>2021-10-12T12:55:07Z</time>
    </trkpt>
    <trkpt lat="38.64982699" lon="34.838790027">
      <ele>1072.134</ele>
      <time>2021-10-12T12:55:08Z</time>
    </trkpt>
    <trkpt lat="38.649797989" lon="34.838810982">
      <ele>1072.076</ele>
      <time>2021-10-12T12:55:10Z</time>
    </trkpt>
    <trkpt lat="38.649768988" lon="34.838830009">
      <ele>1072.036</ele>
      <time>2021-10-12T12:55:11Z</time>
    </trkpt>
    <trkpt lat="38.649736969" lon="34.838847024">
      <ele>1072.008</ele>
      <time>2021-10-12T12:55:12Z</time>
    </trkpt>
    <trkpt lat="38.64970604" lon="34.838862028">
      <ele>1071.936</ele>
      <time>2021-10-12T12:55:13Z</time>
    </trkpt>
    <trkpt lat="38.649673015" lon="34.838876026">
      <ele>1071.815</ele>
      <time>2021-10-12T12:55:15Z</time>
    </trkpt>
    <trkpt lat="38.649640996" lon="34.838890024">
      <ele>1071.709</ele>
      <time>2021-10-12T12:55:16Z</time>
    </trkpt>
    <trkpt lat="38.64960596" lon="34.838904021">
      <ele>1071.604</ele>
      <time>2021-10-12T12:55:17Z</time>
    </trkpt>
    <trkpt lat="38.649573019" lon="34.838917013">
      <ele>1071.517</ele>
      <time>2021-10-12T12:55:18Z</time>
    </trkpt>
    <trkpt lat="38.649541" lon="34.838931011">
      <ele>1071.447</ele>
      <time>2021-10-12T12:55:20Z</time>
    </trkpt>
    <trkpt lat="38.649506969" lon="34.838942997">
      <ele>1071.376</ele>
      <time>2021-10-12T12:55:21Z</time>
    </trkpt>
    <trkpt lat="38.64947604" lon="34.838955989">
      <ele>1071.328</ele>
      <time>2021-10-12T12:55:22Z</time>
    </trkpt>
    <trkpt lat="38.649443015" lon="34.838966969">
      <ele>1071.288</ele>
      <time>2021-10-12T12:55:24Z</time>
    </trkpt>
    <trkpt lat="38.649412002" lon="34.838978034">
      <ele>1071.475</ele>
      <time>2021-10-12T12:55:25Z</time>
    </trkpt>
    <trkpt lat="38.649378978" lon="34.838987002">
      <ele>1071.672</ele>
      <time>2021-10-12T12:55:26Z</time>
    </trkpt>
    <trkpt lat="38.649342014" lon="34.838994965">
      <ele>1071.891</ele>
      <time>2021-10-12T12:55:27Z</time>
    </trkpt>
    <trkpt lat="38.649305971" lon="34.839008041">
      <ele>1072.141</ele>
      <time>2021-10-12T12:55:29Z</time>
    </trkpt>
    <trkpt lat="38.649274036" lon="34.839022039">
      <ele>1072.387</ele>
      <time>2021-10-12T12:55:30Z</time>
    </trkpt>
    <trkpt lat="38.649244029" lon="34.839036958">
      <ele>1072.639</ele>
      <time>2021-10-12T12:55:31Z</time>
    </trkpt>
    <trkpt lat="38.649207987" lon="34.83905104">
      <ele>1072.932</ele>
      <time>2021-10-12T12:55:33Z</time>
    </trkpt>
    <trkpt lat="38.64917798" lon="34.839067971">
      <ele>1073.222</ele>
      <time>2021-10-12T12:55:34Z</time>
    </trkpt>
    <trkpt lat="38.649145039" lon="34.839082975">
      <ele>1073.553</ele>
      <time>2021-10-12T12:55:35Z</time>
    </trkpt>
    <trkpt lat="38.649114026" lon="34.839097979">
      <ele>1073.884</ele>
      <time>2021-10-12T12:55:36Z</time>
    </trkpt>
    <trkpt lat="38.649083013" lon="34.839112982">
      <ele>1074.216</ele>
      <time>2021-10-12T12:55:38Z</time>
    </trkpt>
    <trkpt lat="38.649052" lon="34.839129997">
      <ele>1074.562</ele>
      <time>2021-10-12T12:55:39Z</time>
    </trkpt>
    <trkpt lat="38.64902501" lon="34.839145001">
      <ele>1074.864</ele>
      <time>2021-10-12T12:55:40Z</time>
    </trkpt>
    <trkpt lat="38.648996009" lon="34.839162016">
      <ele>1075.195</ele>
      <time>2021-10-12T12:55:41Z</time>
    </trkpt>
    <trkpt lat="38.648967007" lon="34.839176014">
      <ele>1075.471</ele>
      <time>2021-10-12T12:55:42Z</time>
    </trkpt>
    <trkpt lat="38.648935994" lon="34.839192024">
      <ele>1075.752</ele>
      <time>2021-10-12T12:55:43Z</time>
    </trkpt>
    <trkpt lat="38.648904981" lon="34.839208033">
      <ele>1076.033</ele>
      <time>2021-10-12T12:55:45Z</time>
    </trkpt>
    <trkpt lat="38.648873968" lon="34.839224964">
      <ele>1076.21</ele>
      <time>2021-10-12T12:55:46Z</time>
    </trkpt>
    <trkpt lat="38.648843039" lon="34.839239968">
      <ele>1076.264</ele>
      <time>2021-10-12T12:55:47Z</time>
    </trkpt>
    <trkpt lat="38.648813032" lon="34.839255977">
      <ele>1076.322</ele>
      <time>2021-10-12T12:55:48Z</time>
    </trkpt>
    <trkpt lat="38.648781013" lon="34.839268969">
      <ele>1076.368</ele>
      <time>2021-10-12T12:55:50Z</time>
    </trkpt>
    <trkpt lat="38.64875" lon="34.839283973">
      <ele>1076.422</ele>
      <time>2021-10-12T12:55:51Z</time>
    </trkpt>
    <trkpt lat="38.648715969" lon="34.839297971">
      <ele>1076.473</ele>
      <time>2021-10-12T12:55:52Z</time>
    </trkpt>
    <trkpt lat="38.648683028" lon="34.839310041">
      <ele>1076.516</ele>
      <time>2021-10-12T12:55:53Z</time>
    </trkpt>
    <trkpt lat="38.648647992" lon="34.839316998">
      <ele>1076.541</ele>
      <time>2021-10-12T12:55:55Z</time>
    </trkpt>
    <trkpt lat="38.648615973" lon="34.83932496">
      <ele>1076.57</ele>
      <time>2021-10-12T12:55:56Z</time>
    </trkpt>
    <trkpt lat="38.648582026" lon="34.839333007">
      <ele>1076.662</ele>
      <time>2021-10-12T12:55:57Z</time>
    </trkpt>
    <trkpt lat="38.648550007" lon="34.83934097">
      <ele>1076.766</ele>
      <time>2021-10-12T12:55:58Z</time>
    </trkpt>
    <trkpt lat="38.648518994" lon="34.839350022">
      <ele>1076.879</ele>
      <time>2021-10-12T12:56:00Z</time>
    </trkpt>
    <trkpt lat="38.648484964" lon="34.839356979">
      <ele>1076.996</ele>
      <time>2021-10-12T12:56:01Z</time>
    </trkpt>
    <trkpt lat="38.648455041" lon="34.839359997">
      <ele>1077.087</ele>
      <time>2021-10-12T12:56:02Z</time>
    </trkpt>
    <trkpt lat="38.648422016" lon="34.839363014">
      <ele>1077.188</ele>
      <time>2021-10-12T12:56:03Z</time>
    </trkpt>
    <trkpt lat="38.648388991" lon="34.839367038">
      <ele>1077.298</ele>
      <time>2021-10-12T12:56:04Z</time>
    </trkpt>
    <trkpt lat="38.64835999" lon="34.839377012">
      <ele>1077.442</ele>
      <time>2021-10-12T12:56:06Z</time>
    </trkpt>
    <trkpt lat="38.648328977" lon="34.839393022">
      <ele>1077.633</ele>
      <time>2021-10-12T12:56:07Z</time>
    </trkpt>
    <trkpt lat="38.648297042" lon="34.839410959">
      <ele>1077.775</ele>
      <time>2021-10-12T12:56:08Z</time>
    </trkpt>
    <trkpt lat="38.648263011" lon="34.839426968">
      <ele>1077.89</ele>
      <time>2021-10-12T12:56:09Z</time>
    </trkpt>
    <trkpt lat="38.648233004" lon="34.839441972">
      <ele>1077.985</ele>
      <time>2021-10-12T12:56:11Z</time>
    </trkpt>
    <trkpt lat="38.648198973" lon="34.83945597">
      <ele>1078.103</ele>
      <time>2021-10-12T12:56:12Z</time>
    </trkpt>
    <trkpt lat="38.648168966" lon="34.839468962">
      <ele>1078.229</ele>
      <time>2021-10-12T12:56:13Z</time>
    </trkpt>
    <trkpt lat="38.648134014" lon="34.839481032">
      <ele>1078.358</ele>
      <time>2021-10-12T12:56:14Z</time>
    </trkpt>
    <trkpt lat="38.648100989" lon="34.839492012">
      <ele>1078.486</ele>
      <time>2021-10-12T12:56:16Z</time>
    </trkpt>
    <trkpt lat="38.648066958" lon="34.839501986">
      <ele>1078.613</ele>
      <time>2021-10-12T12:56:17Z</time>
    </trkpt>
    <trkpt lat="38.648038041" lon="34.839511961">
      <ele>1078.603</ele>
      <time>2021-10-12T12:56:18Z</time>
    </trkpt>
    <trkpt lat="38.648007028" lon="34.839524031">
      <ele>1078.51</ele>
      <time>2021-10-12T12:56:19Z</time>
    </trkpt>
    <trkpt lat="38.647975009" lon="34.839531993">
      <ele>1078.366</ele>
      <time>2021-10-12T12:56:21Z</time>
    </trkpt>
    <trkpt lat="38.647943996" lon="34.839540962">
      <ele>1078.239</ele>
      <time>2021-10-12T12:56:22Z</time>
    </trkpt>
    <trkpt lat="38.647911977" lon="34.839552026">
      <ele>1078.128</ele>
      <time>2021-10-12T12:56:23Z</time>
    </trkpt>
    <trkpt lat="38.647879958" lon="34.839563007">
      <ele>1078.016</ele>
      <time>2021-10-12T12:56:24Z</time>
    </trkpt>
    <trkpt lat="38.647848023" lon="34.839570969">
      <ele>1077.872</ele>
      <time>2021-10-12T12:56:25Z</time>
    </trkpt>
    <trkpt lat="38.647822039" lon="34.839580022">
      <ele>1077.783</ele>
      <time>2021-10-12T12:56:26Z</time>
    </trkpt>
    <trkpt lat="38.64779396" lon="34.83958899">
      <ele>1077.678</ele>
      <time>2021-10-12T12:56:27Z</time>
    </trkpt>
    <trkpt lat="38.647764958" lon="34.839597959">
      <ele>1077.674</ele>
      <time>2021-10-12T12:56:29Z</time>
    </trkpt>
    <trkpt lat="38.647737969" lon="34.839609023">
      <ele>1077.809</ele>
      <time>2021-10-12T12:56:30Z</time>
    </trkpt>
    <trkpt lat="38.647708967" lon="34.839620003">
      <ele>1077.922</ele>
      <time>2021-10-12T12:56:31Z</time>
    </trkpt>
    <trkpt lat="38.647679966" lon="34.83963199">
      <ele>1078.017</ele>
      <time>2021-10-12T12:56:32Z</time>
    </trkpt>
    <trkpt lat="38.647649037" lon="34.839641964">
      <ele>1078.071</ele>
      <time>2021-10-12T12:56:33Z</time>
    </trkpt>
    <trkpt lat="38.647614" lon="34.83965504">
      <ele>1078.113</ele>
      <time>2021-10-12T12:56:34Z</time>
    </trkpt>
    <trkpt lat="38.64757997" lon="34.839669038">
      <ele>1078.123</ele>
      <time>2021-10-12T12:56:36Z</time>
    </trkpt>
    <trkpt lat="38.647548035" lon="34.83968203">
      <ele>1078.098</ele>
      <time>2021-10-12T12:56:37Z</time>
    </trkpt>
    <trkpt lat="38.647520961" lon="34.83969301">
      <ele>1078.052</ele>
      <time>2021-10-12T12:56:38Z</time>
    </trkpt>
    <trkpt lat="38.647491038" lon="34.83970399">
      <ele>1078.062</ele>
      <time>2021-10-12T12:56:39Z</time>
    </trkpt>
    <trkpt lat="38.647462036" lon="34.839716982">
      <ele>1078.271</ele>
      <time>2021-10-12T12:56:40Z</time>
    </trkpt>
    <trkpt lat="38.647423983" lon="34.83972704">
      <ele>1078.607</ele>
      <time>2021-10-12T12:56:42Z</time>
    </trkpt>
    <trkpt lat="38.647388024" lon="34.839736009">
      <ele>1078.965</ele>
      <time>2021-10-12T12:56:43Z</time>
    </trkpt>
    <trkpt lat="38.647351982" lon="34.839742966">
      <ele>1079.285</ele>
      <time>2021-10-12T12:56:44Z</time>
    </trkpt>
    <trkpt lat="38.647316024" lon="34.839746989">
      <ele>1079.563</ele>
      <time>2021-10-12T12:56:46Z</time>
    </trkpt>
    <trkpt lat="38.647280987" lon="34.839750007">
      <ele>1079.819</ele>
      <time>2021-10-12T12:56:47Z</time>
    </trkpt>
    <trkpt lat="38.647244023" lon="34.839753024">
      <ele>1080.082</ele>
      <time>2021-10-12T12:56:48Z</time>
    </trkpt>
    <trkpt lat="38.647210998" lon="34.839753024">
      <ele>1080.262</ele>
      <time>2021-10-12T12:56:50Z</time>
    </trkpt>
    <trkpt lat="38.647177974" lon="34.839755036">
      <ele>1080.396</ele>
      <time>2021-10-12T12:56:51Z</time>
    </trkpt>
    <trkpt lat="38.64714101" lon="34.839755036">
      <ele>1080.529</ele>
      <time>2021-10-12T12:56:52Z</time>
    </trkpt>
    <trkpt lat="38.647106979" lon="34.839756042">
      <ele>1080.658</ele>
      <time>2021-10-12T12:56:53Z</time>
    </trkpt>
    <trkpt lat="38.647073032" lon="34.839755036">
      <ele>1080.773</ele>
      <time>2021-10-12T12:56:55Z</time>
    </trkpt>
    <trkpt lat="38.647043025" lon="34.839753024">
      <ele>1080.867</ele>
      <time>2021-10-12T12:56:56Z</time>
    </trkpt>
    <trkpt lat="38.647012012" lon="34.839749001">
      <ele>1080.95</ele>
      <time>2021-10-12T12:56:57Z</time>
    </trkpt>
    <trkpt lat="38.646983011" lon="34.83974196">
      <ele>1081.003</ele>
      <time>2021-10-12T12:56:58Z</time>
    </trkpt>
    <trkpt lat="38.646950992" lon="34.839732992">
      <ele>1081.054</ele>
      <time>2021-10-12T12:56:59Z</time>
    </trkpt>
    <trkpt lat="38.646918973" lon="34.839722011">
      <ele>1081.091</ele>
      <time>2021-10-12T12:57:01Z</time>
    </trkpt>
    <trkpt lat="38.646886032" lon="34.83971497">
      <ele>1081.19</ele>
      <time>2021-10-12T12:57:02Z</time>
    </trkpt>
    <trkpt lat="38.646848984" lon="34.839709019">
      <ele>1081.312</ele>
      <time>2021-10-12T12:57:03Z</time>
    </trkpt>
    <trkpt lat="38.646815037" lon="34.83970399">
      <ele>1081.431</ele>
      <time>2021-10-12T12:57:04Z</time>
    </trkpt>
    <trkpt lat="38.646784024" lon="34.83970399">
      <ele>1081.55</ele>
      <time>2021-10-12T12:57:06Z</time>
    </trkpt>
    <trkpt lat="38.646755023" lon="34.839701978">
      <ele>1081.659</ele>
      <time>2021-10-12T12:57:07Z</time>
    </trkpt>
    <trkpt lat="38.646727027" lon="34.839701978">
      <ele>1081.767</ele>
      <time>2021-10-12T12:57:08Z</time>
    </trkpt>
    <trkpt lat="38.646700038" lon="34.839712037">
      <ele>1081.875</ele>
      <time>2021-10-12T12:57:09Z</time>
    </trkpt>
    <trkpt lat="38.646667013" lon="34.839736009">
      <ele>1082.048</ele>
      <time>2021-10-12T12:57:10Z</time>
    </trkpt>
    <trkpt lat="38.646637006" lon="34.83976501">
      <ele>1082.244</ele>
      <time>2021-10-12T12:57:12Z</time>
    </trkpt>
    <trkpt lat="38.646611022" lon="34.839796023">
      <ele>1082.413</ele>
      <time>2021-10-12T12:57:13Z</time>
    </trkpt>
    <trkpt lat="38.64658202" lon="34.839817984">
      <ele>1082.544</ele>
      <time>2021-10-12T12:57:14Z</time>
    </trkpt>
    <trkpt lat="38.646555031" lon="34.839828964">
      <ele>1082.632</ele>
      <time>2021-10-12T12:57:15Z</time>
    </trkpt>
    <trkpt lat="38.646528041" lon="34.839827958">
      <ele>1082.69</ele>
      <time>2021-10-12T12:57:16Z</time>
    </trkpt>
    <trkpt lat="38.646495016" lon="34.839815972">
      <ele>1082.747</ele>
      <time>2021-10-12T12:57:17Z</time>
    </trkpt>
    <trkpt lat="38.646457968" lon="34.839799963">
      <ele>1082.821</ele>
      <time>2021-10-12T12:57:19Z</time>
    </trkpt>
    <trkpt lat="38.646419998" lon="34.839784959">
      <ele>1082.913</ele>
      <time>2021-10-12T12:57:20Z</time>
    </trkpt>
    <trkpt lat="38.646383034" lon="34.83977004">
      <ele>1083.042</ele>
      <time>2021-10-12T12:57:22Z</time>
    </trkpt>
    <trkpt lat="38.646350009" lon="34.839756042">
      <ele>1083.28</ele>
      <time>2021-10-12T12:57:23Z</time>
    </trkpt>
    <trkpt lat="38.646320002" lon="34.839741038">
      <ele>1083.496</ele>
      <time>2021-10-12T12:57:24Z</time>
    </trkpt>
    <trkpt lat="38.646288989" lon="34.839724023">
      <ele>1083.719</ele>
      <time>2021-10-12T12:57:25Z</time>
    </trkpt>
    <trkpt lat="38.646260994" lon="34.839708013">
      <ele>1083.948</ele>
      <time>2021-10-12T12:57:27Z</time>
    </trkpt>
    <trkpt lat="38.646229981" lon="34.839692004">
      <ele>1084.191</ele>
      <time>2021-10-12T12:57:28Z</time>
    </trkpt>
    <trkpt lat="38.646199973" lon="34.839678006">
      <ele>1084.411</ele>
      <time>2021-10-12T12:57:29Z</time>
    </trkpt>
    <trkpt lat="38.646165021" lon="34.839660991">
      <ele>1084.655</ele>
      <time>2021-10-12T12:57:30Z</time>
    </trkpt>
    <trkpt lat="38.646133002" lon="34.839645987">
      <ele>1084.864</ele>
      <time>2021-10-12T12:57:32Z</time>
    </trkpt>
    <trkpt lat="38.646098971" lon="34.839634001">
      <ele>1085.074</ele>
      <time>2021-10-12T12:57:33Z</time>
    </trkpt>
    <trkpt lat="38.646067036" lon="34.839620003">
      <ele>1085.259</ele>
      <time>2021-10-12T12:57:34Z</time>
    </trkpt>
    <trkpt lat="38.646035017" lon="34.839602988">
      <ele>1085.43</ele>
      <time>2021-10-12T12:57:36Z</time>
    </trkpt>
    <trkpt lat="38.64600501" lon="34.839586979">
      <ele>1085.578</ele>
      <time>2021-10-12T12:57:37Z</time>
    </trkpt>
    <trkpt lat="38.645972991" lon="34.839570969">
      <ele>1085.724</ele>
      <time>2021-10-12T12:57:38Z</time>
    </trkpt>
    <trkpt lat="38.645940972" lon="34.839555966">
      <ele>1085.858</ele>
      <time>2021-10-12T12:57:39Z</time>
    </trkpt>
    <trkpt lat="38.645907026" lon="34.839539034">
      <ele>1085.985</ele>
      <time>2021-10-12T12:57:41Z</time>
    </trkpt>
    <trkpt lat="38.645872995" lon="34.839526964">
      <ele>1086.112</ele>
      <time>2021-10-12T12:57:42Z</time>
    </trkpt>
    <trkpt lat="38.645840976" lon="34.839512967">
      <ele>1086.212</ele>
      <time>2021-10-12T12:57:43Z</time>
    </trkpt>
    <trkpt lat="38.645814992" lon="34.83950098">
      <ele>1086.217</ele>
      <time>2021-10-12T12:57:44Z</time>
    </trkpt>
    <trkpt lat="38.645782974" lon="34.839485977">
      <ele>1086.177</ele>
      <time>2021-10-12T12:57:45Z</time>
    </trkpt>
    <trkpt lat="38.645751961" lon="34.839472985">
      <ele>1086.133</ele>
      <time>2021-10-12T12:57:47Z</time>
    </trkpt>
    <trkpt lat="38.64571902" lon="34.839462005">
      <ele>1086.089</ele>
      <time>2021-10-12T12:57:48Z</time>
    </trkpt>
    <trkpt lat="38.645688007" lon="34.839456975">
      <ele>1086.069</ele>
      <time>2021-10-12T12:57:49Z</time>
    </trkpt>
    <trkpt lat="38.645655988" lon="34.839454042">
      <ele>1086.057</ele>
      <time>2021-10-12T12:57:50Z</time>
    </trkpt>
    <trkpt lat="38.645622963" lon="34.839450018">
      <ele>1086.035</ele>
      <time>2021-10-12T12:57:51Z</time>
    </trkpt>
    <trkpt lat="38.645590022" lon="34.839450018">
      <ele>1086.038</ele>
      <time>2021-10-12T12:57:53Z</time>
    </trkpt>
    <trkpt lat="38.645558003" lon="34.839457981">
      <ele>1086.097</ele>
      <time>2021-10-12T12:57:54Z</time>
    </trkpt>
    <trkpt lat="38.645525984" lon="34.839471979">
      <ele>1086.092</ele>
      <time>2021-10-12T12:57:55Z</time>
    </trkpt>
    <trkpt lat="38.64549296" lon="34.839483965">
      <ele>1086.059</ele>
      <time>2021-10-12T12:57:56Z</time>
    </trkpt>
    <trkpt lat="38.645462031" lon="34.839497041">
      <ele>1086.042</ele>
      <time>2021-10-12T12:57:58Z</time>
    </trkpt>
    <trkpt lat="38.645429006" lon="34.839509027">
      <ele>1086.009</ele>
      <time>2021-10-12T12:57:59Z</time>
    </trkpt>
    <trkpt lat="38.645397993" lon="34.83951699">
      <ele>1085.955</ele>
      <time>2021-10-12T12:58:00Z</time>
    </trkpt>
    <trkpt lat="38.645369997" lon="34.839524031">
      <ele>1085.905</ele>
      <time>2021-10-12T12:58:01Z</time>
    </trkpt>
    <trkpt lat="38.645342002" lon="34.839530988">
      <ele>1085.854</ele>
      <time>2021-10-12T12:58:02Z</time>
    </trkpt>
    <trkpt lat="38.645316018" lon="34.839537023">
      <ele>1085.804</ele>
      <time>2021-10-12T12:58:03Z</time>
    </trkpt>
    <trkpt lat="38.645289028" lon="34.839540962">
      <ele>1085.735</ele>
      <time>2021-10-12T12:58:04Z</time>
    </trkpt>
    <trkpt lat="38.645259021" lon="34.839550015">
      <ele>1085.734</ele>
      <time>2021-10-12T12:58:05Z</time>
    </trkpt>
    <trkpt lat="38.64522499" lon="34.839559989">
      <ele>1085.753</ele>
      <time>2021-10-12T12:58:07Z</time>
    </trkpt>
    <trkpt lat="38.645193977" lon="34.839569042">
      <ele>1085.762</ele>
      <time>2021-10-12T12:58:08Z</time>
    </trkpt>
    <trkpt lat="38.645159025" lon="34.839573987">
      <ele>1085.733</ele>
      <time>2021-10-12T12:58:09Z</time>
    </trkpt>
    <trkpt lat="38.645124994" lon="34.839582033">
      <ele>1085.718</ele>
      <time>2021-10-12T12:58:10Z</time>
    </trkpt>
    <trkpt lat="38.645095993" lon="34.839589996">
      <ele>1085.705</ele>
      <time>2021-10-12T12:58:11Z</time>
    </trkpt>
    <trkpt lat="38.645065986" lon="34.839596031">
      <ele>1085.675</ele>
      <time>2021-10-12T12:58:13Z</time>
    </trkpt>
    <trkpt lat="38.645032039" lon="34.839603994">
      <ele>1085.641</ele>
      <time>2021-10-12T12:58:14Z</time>
    </trkpt>
    <trkpt lat="38.644999014" lon="34.839611035">
      <ele>1085.603</ele>
      <time>2021-10-12T12:58:15Z</time>
    </trkpt>
    <trkpt lat="38.64496599" lon="34.83961598">
      <ele>1085.74</ele>
      <time>2021-10-12T12:58:16Z</time>
    </trkpt>
    <trkpt lat="38.644931959" lon="34.839624027">
      <ele>1085.891</ele>
      <time>2021-10-12T12:58:18Z</time>
    </trkpt>
    <trkpt lat="38.64490103" lon="34.839636013">
      <ele>1086.046</ele>
      <time>2021-10-12T12:58:19Z</time>
    </trkpt>
    <trkpt lat="38.644871023" lon="34.839650011">
      <ele>1086.204</ele>
      <time>2021-10-12T12:58:20Z</time>
    </trkpt>
    <trkpt lat="38.644845039" lon="34.839670965">
      <ele>1086.373</ele>
      <time>2021-10-12T12:58:21Z</time>
    </trkpt>
    <trkpt lat="38.644819977" lon="34.839697033">
      <ele>1086.557</ele>
      <time>2021-10-12T12:58:22Z</time>
    </trkpt>
    <trkpt lat="38.644796005" lon="34.839726035">
      <ele>1086.752</ele>
      <time>2021-10-12T12:58:24Z</time>
    </trkpt>
    <trkpt lat="38.644773038" lon="34.839761993">
      <ele>1086.986</ele>
      <time>2021-10-12T12:58:25Z</time>
    </trkpt>
    <trkpt lat="38.644747976" lon="34.839795018">
      <ele>1087.194</ele>
      <time>2021-10-12T12:58:26Z</time>
    </trkpt>
    <trkpt lat="38.644726016" lon="34.839826031">
      <ele>1087.365</ele>
      <time>2021-10-12T12:58:27Z</time>
    </trkpt>
    <trkpt lat="38.644702965" lon="34.83985302">
      <ele>1087.54</ele>
      <time>2021-10-12T12:58:29Z</time>
    </trkpt>
    <trkpt lat="38.644677987" lon="34.839876993">
      <ele>1087.716</ele>
      <time>2021-10-12T12:58:30Z</time>
    </trkpt>
    <trkpt lat="38.644649992" lon="34.839897025">
      <ele>1087.889</ele>
      <time>2021-10-12T12:58:31Z</time>
    </trkpt>
    <trkpt lat="38.644623002" lon="34.83991798">
      <ele>1088.062</ele>
      <time>2021-10-12T12:58:32Z</time>
    </trkpt>
    <trkpt lat="38.644598024" lon="34.839942958">
      <ele>1088.242</ele>
      <time>2021-10-12T12:58:33Z</time>
    </trkpt>
    <trkpt lat="38.64457204" lon="34.839967014">
      <ele>1088.422</ele>
      <time>2021-10-12T12:58:34Z</time>
    </trkpt>
    <trkpt lat="38.644546978" lon="34.839990987">
      <ele>1088.598</ele>
      <time>2021-10-12T12:58:36Z</time>
    </trkpt>
    <trkpt lat="38.644519988" lon="34.840014037">
      <ele>1088.815</ele>
      <time>2021-10-12T12:58:37Z</time>
    </trkpt>
    <trkpt lat="38.644491993" lon="34.840037003">
      <ele>1089.072</ele>
      <time>2021-10-12T12:58:38Z</time>
    </trkpt>
    <trkpt lat="38.644465003" lon="34.840058964">
      <ele>1089.335</ele>
      <time>2021-10-12T12:58:39Z</time>
    </trkpt>
    <trkpt lat="38.644436002" lon="34.840078996">
      <ele>1089.651</ele>
      <time>2021-10-12T12:58:40Z</time>
    </trkpt>
    <trkpt lat="38.644408006" lon="34.840099029">
      <ele>1090.06</ele>
      <time>2021-10-12T12:58:42Z</time>
    </trkpt>
    <trkpt lat="38.644379005" lon="34.840121996">
      <ele>1090.482</ele>
      <time>2021-10-12T12:58:43Z</time>
    </trkpt>
    <trkpt lat="38.644350003" lon="34.84014404">
      <ele>1090.881</ele>
      <time>2021-10-12T12:58:44Z</time>
    </trkpt>
    <trkpt lat="38.644323014" lon="34.840166001">
      <ele>1091.245</ele>
      <time>2021-10-12T12:58:45Z</time>
    </trkpt>
    <trkpt lat="38.644293007" lon="34.840188967">
      <ele>1091.625</ele>
      <time>2021-10-12T12:58:47Z</time>
    </trkpt>
    <trkpt lat="38.644264005" lon="34.840209">
      <ele>1091.965</ele>
      <time>2021-10-12T12:58:48Z</time>
    </trkpt>
    <trkpt lat="38.644235004" lon="34.840232972">
      <ele>1092.307</ele>
      <time>2021-10-12T12:58:49Z</time>
    </trkpt>
    <trkpt lat="38.644212037" lon="34.840256022">
      <ele>1092.582</ele>
      <time>2021-10-12T12:58:50Z</time>
    </trkpt>
    <trkpt lat="38.64418597" lon="34.840277983">
      <ele>1092.862</ele>
      <time>2021-10-12T12:58:51Z</time>
    </trkpt>
    <trkpt lat="38.644159986" lon="34.840301033">
      <ele>1093.106</ele>
      <time>2021-10-12T12:58:53Z</time>
    </trkpt>
    <trkpt lat="38.644136013" lon="34.840325005">
      <ele>1093.262</ele>
      <time>2021-10-12T12:58:54Z</time>
    </trkpt>
    <trkpt lat="38.644112041" lon="34.840349983">
      <ele>1093.405</ele>
      <time>2021-10-12T12:58:55Z</time>
    </trkpt>
    <trkpt lat="38.644087985" lon="34.840370016">
      <ele>1093.521</ele>
      <time>2021-10-12T12:58:56Z</time>
    </trkpt>
    <trkpt lat="38.644062001" lon="34.840388959">
      <ele>1093.626</ele>
      <time>2021-10-12T12:58:57Z</time>
    </trkpt>
    <trkpt lat="38.644038029" lon="34.840408992">
      <ele>1093.717</ele>
      <time>2021-10-12T12:58:58Z</time>
    </trkpt>
    <trkpt lat="38.644012967" lon="34.840429025">
      <ele>1093.797</ele>
      <time>2021-10-12T12:58:59Z</time>
    </trkpt>
    <trkpt lat="38.643987989" lon="34.840450985">
      <ele>1093.866</ele>
      <time>2021-10-12T12:59:00Z</time>
    </trkpt>
    <trkpt lat="38.643965023" lon="34.840476969">
      <ele>1093.922</ele>
      <time>2021-10-12T12:59:01Z</time>
    </trkpt>
    <trkpt lat="38.643939961" lon="34.840503037">
      <ele>1093.965</ele>
      <time>2021-10-12T12:59:03Z</time>
    </trkpt>
    <trkpt lat="38.643914983" lon="34.840527009">
      <ele>1093.99</ele>
      <time>2021-10-12T12:59:04Z</time>
    </trkpt>
    <trkpt lat="38.643888999" lon="34.840551987">
      <ele>1094.0</ele>
      <time>2021-10-12T12:59:05Z</time>
    </trkpt>
    <trkpt lat="38.643864021" lon="34.840577971">
      <ele>1094.26</ele>
      <time>2021-10-12T12:59:06Z</time>
    </trkpt>
    <trkpt lat="38.643839965" lon="34.840606973">
      <ele>1094.537</ele>
      <time>2021-10-12T12:59:07Z</time>
    </trkpt>
    <trkpt lat="38.643818004" lon="34.84063698">
      <ele>1094.803</ele>
      <time>2021-10-12T12:59:09Z</time>
    </trkpt>
    <trkpt lat="38.643794032" lon="34.84066397">
      <ele>1095.073</ele>
      <time>2021-10-12T12:59:10Z</time>
    </trkpt>
    <trkpt lat="38.643767964" lon="34.840692971">
      <ele>1095.365</ele>
      <time>2021-10-12T12:59:11Z</time>
    </trkpt>
    <trkpt lat="38.643744998" lon="34.840723984">
      <ele>1095.642</ele>
      <time>2021-10-12T12:59:12Z</time>
    </trkpt>
    <trkpt lat="38.643722031" lon="34.840756003">
      <ele>1095.923</ele>
      <time>2021-10-12T12:59:14Z</time>
    </trkpt>
    <trkpt lat="38.643696969" lon="34.840787016">
      <ele>1096.215</ele>
      <time>2021-10-12T12:59:15Z</time>
    </trkpt>
    <trkpt lat="38.643676015" lon="34.840816017">
      <ele>1096.47</ele>
      <time>2021-10-12T12:59:16Z</time>
    </trkpt>
    <trkpt lat="38.643655982" lon="34.840845019">
      <ele>1096.642</ele>
      <time>2021-10-12T12:59:17Z</time>
    </trkpt>
    <trkpt lat="38.643637961" lon="34.84087796">
      <ele>1096.662</ele>
      <time>2021-10-12T12:59:18Z</time>
    </trkpt>
    <trkpt lat="38.643623963" lon="34.840909978">
      <ele>1096.644</ele>
      <time>2021-10-12T12:59:19Z</time>
    </trkpt>
    <trkpt lat="38.643613989" lon="34.840947026">
      <ele>1096.574</ele>
      <time>2021-10-12T12:59:20Z</time>
    </trkpt>
    <trkpt lat="38.643603008" lon="34.840992037">
      <ele>1096.475</ele>
      <time>2021-10-12T12:59:22Z</time>
    </trkpt>
    <trkpt lat="38.643594962" lon="34.841039982">
      <ele>1096.357</ele>
      <time>2021-10-12T12:59:23Z</time>
    </trkpt>
    <trkpt lat="38.643593034" lon="34.841085998">
      <ele>1096.215</ele>
      <time>2021-10-12T12:59:25Z</time>
    </trkpt>
    <trkpt lat="38.64358901" lon="34.841133021">
      <ele>1096.153</ele>
      <time>2021-10-12T12:59:26Z</time>
    </trkpt>
    <trkpt lat="38.643584987" lon="34.841179037">
      <ele>1096.165</ele>
      <time>2021-10-12T12:59:27Z</time>
    </trkpt>
    <trkpt lat="38.643583981" lon="34.841222037">
      <ele>1096.156</ele>
      <time>2021-10-12T12:59:29Z</time>
    </trkpt>
    <trkpt lat="38.64358197" lon="34.841267969">
      <ele>1096.151</ele>
      <time>2021-10-12T12:59:30Z</time>
    </trkpt>
    <trkpt lat="38.643579036" lon="34.841313986">
      <ele>1096.147</ele>
      <time>2021-10-12T12:59:31Z</time>
    </trkpt>
    <trkpt lat="38.643579036" lon="34.841356985">
      <ele>1096.129</ele>
      <time>2021-10-12T12:59:32Z</time>
    </trkpt>
    <trkpt lat="38.643580042" lon="34.841399984">
      <ele>1096.067</ele>
      <time>2021-10-12T12:59:34Z</time>
    </trkpt>
    <trkpt lat="38.643576019" lon="34.841442984">
      <ele>1095.907</ele>
      <time>2021-10-12T12:59:35Z</time>
    </trkpt>
    <trkpt lat="38.643569984" lon="34.841484977">
      <ele>1095.751</ele>
      <time>2021-10-12T12:59:36Z</time>
    </trkpt>
    <trkpt lat="38.643562021" lon="34.841523031">
      <ele>1095.608</ele>
      <time>2021-10-12T12:59:37Z</time>
    </trkpt>
    <trkpt lat="38.64355104" lon="34.841564018">
      <ele>1095.449</ele>
      <time>2021-10-12T12:59:39Z</time>
    </trkpt>
    <trkpt lat="38.643536037" lon="34.841601988">
      <ele>1095.296</ele>
      <time>2021-10-12T12:59:40Z</time>
    </trkpt>
    <trkpt lat="38.643514998" lon="34.84163803">
      <ele>1095.139</ele>
      <time>2021-10-12T12:59:41Z</time>
    </trkpt>
    <trkpt lat="38.643491026" lon="34.841670971">
      <ele>1094.995</ele>
      <time>2021-10-12T12:59:42Z</time>
    </trkpt>
    <trkpt lat="38.643467976" lon="34.841701984">
      <ele>1094.931</ele>
      <time>2021-10-12T12:59:44Z</time>
    </trkpt>
    <trkpt lat="38.643445009" lon="34.841728974">
      <ele>1094.822</ele>
      <time>2021-10-12T12:59:45Z</time>
    </trkpt>
    <trkpt lat="38.643423971" lon="34.841759987">
      <ele>1094.657</ele>
      <time>2021-10-12T12:59:46Z</time>
    </trkpt>
    <trkpt lat="38.643397987" lon="34.841788989">
      <ele>1094.427</ele>
      <time>2021-10-12T12:59:47Z</time>
    </trkpt>
    <trkpt lat="38.64337502" lon="34.841813967">
      <ele>1094.178</ele>
      <time>2021-10-12T12:59:48Z</time>
    </trkpt>
    <trkpt lat="38.643352976" lon="34.841837017">
      <ele>1093.904</ele>
      <time>2021-10-12T12:59:50Z</time>
    </trkpt>
    <trkpt lat="38.643329004" lon="34.841859983">
      <ele>1093.635</ele>
      <time>2021-10-12T12:59:51Z</time>
    </trkpt>
    <trkpt lat="38.643301008" lon="34.841882028">
      <ele>1093.656</ele>
      <time>2021-10-12T12:59:52Z</time>
    </trkpt>
    <trkpt lat="38.643272007" lon="34.841898959">
      <ele>1093.733</ele>
      <time>2021-10-12T12:59:53Z</time>
    </trkpt>
    <trkpt lat="38.643242" lon="34.841913963">
      <ele>1093.841</ele>
      <time>2021-10-12T12:59:54Z</time>
    </trkpt>
    <trkpt lat="38.643209981" lon="34.841927961">
      <ele>1093.98</ele>
      <time>2021-10-12T12:59:55Z</time>
    </trkpt>
    <trkpt lat="38.643180979" lon="34.84194003">
      <ele>1094.12</ele>
      <time>2021-10-12T12:59:57Z</time>
    </trkpt>
    <trkpt lat="38.643147033" lon="34.841947993">
      <ele>1094.354</ele>
      <time>2021-10-12T12:59:58Z</time>
    </trkpt>
    <trkpt lat="38.643115014" lon="34.841956962">
      <ele>1094.601</ele>
      <time>2021-10-12T12:59:59Z</time>
    </trkpt>
    <trkpt lat="38.643079977" lon="34.84196702">
      <ele>1094.846</ele>
      <time>2021-10-12T13:00:00Z</time>
    </trkpt>
    <trkpt lat="38.643048964" lon="34.841978">
      <ele>1095.027</ele>
      <time>2021-10-12T13:00:02Z</time>
    </trkpt>
    <trkpt lat="38.643017029" lon="34.841980012">
      <ele>1095.156</ele>
      <time>2021-10-12T13:00:03Z</time>
    </trkpt>
    <trkpt lat="38.642985011" lon="34.84198303">
      <ele>1095.289</ele>
      <time>2021-10-12T13:00:04Z</time>
    </trkpt>
    <trkpt lat="38.642953997" lon="34.84198303">
      <ele>1095.416</ele>
      <time>2021-10-12T13:00:05Z</time>
    </trkpt>
    <trkpt lat="38.642924996" lon="34.841981018">
      <ele>1095.532</ele>
      <time>2021-10-12T13:00:06Z</time>
    </trkpt>
    <trkpt lat="38.642899012" lon="34.841974983">
      <ele>1095.626</ele>
      <time>2021-10-12T13:00:07Z</time>
    </trkpt>
    <trkpt lat="38.642874034" lon="34.841959979">
      <ele>1095.69</ele>
      <time>2021-10-12T13:00:08Z</time>
    </trkpt>
    <trkpt lat="38.642849978" lon="34.84194397">
      <ele>1095.742</ele>
      <time>2021-10-12T13:00:09Z</time>
    </trkpt>
    <trkpt lat="38.642825" lon="34.841927961">
      <ele>1095.889</ele>
      <time>2021-10-12T13:00:10Z</time>
    </trkpt>
    <trkpt lat="38.642802034" lon="34.841909017">
      <ele>1096.04</ele>
      <time>2021-10-12T13:00:11Z</time>
    </trkpt>
    <trkpt lat="38.642780995" lon="34.841893008">
      <ele>1096.174</ele>
      <time>2021-10-12T13:00:12Z</time>
    </trkpt>
    <trkpt lat="38.642760962" lon="34.841878004">
      <ele>1096.346</ele>
      <time>2021-10-12T13:00:13Z</time>
    </trkpt>
    <trkpt lat="38.642741013" lon="34.841866018">
      <ele>1096.51</ele>
      <time>2021-10-12T13:00:14Z</time>
    </trkpt>
    <trkpt lat="38.642722992" lon="34.841856966">
      <ele>1096.647</ele>
      <time>2021-10-12T13:00:15Z</time>
    </trkpt>
    <trkpt lat="38.642702037" lon="34.84185202">
      <ele>1096.787</ele>
      <time>2021-10-12T13:00:15Z</time>
    </trkpt>
    <trkpt lat="38.642677981" lon="34.841859983">
      <ele>1096.913</ele>
      <time>2021-10-12T13:00:16Z</time>
    </trkpt>
    <trkpt lat="38.642655015" lon="34.841880016">
      <ele>1097.013</ele>
      <time>2021-10-12T13:00:17Z</time>
    </trkpt>
    <trkpt lat="38.642632971" lon="34.841908012">
      <ele>1097.105</ele>
      <time>2021-10-12T13:00:18Z</time>
    </trkpt>
    <trkpt lat="38.64261101" lon="34.841939025">
      <ele>1097.209</ele>
      <time>2021-10-12T13:00:20Z</time>
    </trkpt>
    <trkpt lat="38.642587038" lon="34.84197096">
      <ele>1097.469</ele>
      <time>2021-10-12T13:00:21Z</time>
    </trkpt>
    <trkpt lat="38.642568011" lon="34.842005996">
      <ele>1097.732</ele>
      <time>2021-10-12T13:00:22Z</time>
    </trkpt>
    <trkpt lat="38.642552001" lon="34.842042038">
      <ele>1097.977</ele>
      <time>2021-10-12T13:00:23Z</time>
    </trkpt>
    <trkpt lat="38.642535992" lon="34.842077997">
      <ele>1098.222</ele>
      <time>2021-10-12T13:00:25Z</time>
    </trkpt>
    <trkpt lat="38.642520988" lon="34.842114039">
      <ele>1098.459</ele>
      <time>2021-10-12T13:00:26Z</time>
    </trkpt>
    <trkpt lat="38.642507996" lon="34.842148991">
      <ele>1098.679</ele>
      <time>2021-10-12T13:00:27Z</time>
    </trkpt>
    <trkpt lat="38.642497016" lon="34.842187967">
      <ele>1098.867</ele>
      <time>2021-10-12T13:00:28Z</time>
    </trkpt>
    <trkpt lat="38.642484024" lon="34.842224009">
      <ele>1098.943</ele>
      <time>2021-10-12T13:00:29Z</time>
    </trkpt>
    <trkpt lat="38.642473966" lon="34.84225804">
      <ele>1098.918</ele>
      <time>2021-10-12T13:00:30Z</time>
    </trkpt>
    <trkpt lat="38.642460974" lon="34.842291987">
      <ele>1098.895</ele>
      <time>2021-10-12T13:00:31Z</time>
    </trkpt>
    <trkpt lat="38.642446976" lon="34.842326017">
      <ele>1098.88</ele>
      <time>2021-10-12T13:00:32Z</time>
    </trkpt>
    <trkpt lat="38.642429961" lon="34.842361975">
      <ele>1098.875</ele>
      <time>2021-10-12T13:00:34Z</time>
    </trkpt>
    <trkpt lat="38.642413029" lon="34.842396006">
      <ele>1098.883</ele>
      <time>2021-10-12T13:00:35Z</time>
    </trkpt>
    <trkpt lat="38.642396014" lon="34.842430037">
      <ele>1098.906</ele>
      <time>2021-10-12T13:00:36Z</time>
    </trkpt>
    <trkpt lat="38.642381011" lon="34.842459038">
      <ele>1098.937</ele>
      <time>2021-10-12T13:00:37Z</time>
    </trkpt>
    <trkpt lat="38.642361984" lon="34.842492985">
      <ele>1098.987</ele>
      <time>2021-10-12T13:00:38Z</time>
    </trkpt>
    <trkpt lat="38.642342035" lon="34.842519974">
      <ele>1099.041</ele>
      <time>2021-10-12T13:00:39Z</time>
    </trkpt>
    <trkpt lat="38.642312028" lon="34.842533972">
      <ele>1099.083</ele>
      <time>2021-10-12T13:00:41Z</time>
    </trkpt>
    <trkpt lat="38.642276991" lon="34.842530033">
      <ele>1099.087</ele>
      <time>2021-10-12T13:00:42Z</time>
    </trkpt>
    <trkpt lat="38.642242961" lon="34.842517963">
      <ele>1099.06</ele>
      <time>2021-10-12T13:00:43Z</time>
    </trkpt>
    <trkpt lat="38.642204991" lon="34.842505977">
      <ele>1098.961</ele>
      <time>2021-10-12T13:00:45Z</time>
    </trkpt>
    <trkpt lat="38.642170038" lon="34.842491979">
      <ele>1098.783</ele>
      <time>2021-10-12T13:00:46Z</time>
    </trkpt>
    <trkpt lat="38.642063001" lon="34.84249902">
      <ele>1098.423</ele>
      <time>2021-10-12T13:00:50Z</time>
    </trkpt>
    <trkpt lat="38.642025031" lon="34.842512012">
      <ele>1098.364</ele>
      <time>2021-10-12T13:00:51Z</time>
    </trkpt>
    <trkpt lat="38.641988989" lon="34.842521986">
      <ele>1098.306</ele>
      <time>2021-10-12T13:00:53Z</time>
    </trkpt>
    <trkpt lat="38.641953031" lon="34.842532966">
      <ele>1098.265</ele>
      <time>2021-10-12T13:00:54Z</time>
    </trkpt>
    <trkpt lat="38.641842976" lon="34.842546964">
      <ele>1098.338</ele>
      <time>2021-10-12T13:00:58Z</time>
    </trkpt>
    <trkpt lat="38.641747003" lon="34.842550987">
      <ele>1098.367</ele>
      <time>2021-10-12T13:01:02Z</time>
    </trkpt>
    <trkpt lat="38.641663017" lon="34.842572026">
      <ele>1098.6</ele>
      <time>2021-10-12T13:01:05Z</time>
    </trkpt>
    <trkpt lat="38.641637033" lon="34.842582">
      <ele>1099.243</ele>
      <time>2021-10-12T13:01:06Z</time>
    </trkpt>
    <trkpt lat="38.64153997" lon="34.842667999">
      <ele>1101.575</ele>
      <time>2021-10-12T13:01:10Z</time>
    </trkpt>
    <trkpt lat="38.641493032" lon="34.84272399">
      <ele>1102.476</ele>
      <time>2021-10-12T13:01:13Z</time>
    </trkpt>
    <trkpt lat="38.641459001" lon="34.842790039">
      <ele>1103.013</ele>
      <time>2021-10-12T13:01:15Z</time>
    </trkpt>
    <trkpt lat="38.641395969" lon="34.842903027">
      <ele>1103.921</ele>
      <time>2021-10-12T13:01:19Z</time>
    </trkpt>
    <trkpt lat="38.641378032" lon="34.842942003">
      <ele>1104.165</ele>
      <time>2021-10-12T13:01:20Z</time>
    </trkpt>
    <trkpt lat="38.641316006" lon="34.843053985">
      <ele>1104.792</ele>
      <time>2021-10-12T13:01:24Z</time>
    </trkpt>
    <trkpt lat="38.641292034" lon="34.843092039">
      <ele>1105.0</ele>
      <time>2021-10-12T13:01:26Z</time>
    </trkpt>
    <trkpt lat="38.64126496" lon="34.843127998">
      <ele>1105.222</ele>
      <time>2021-10-12T13:01:27Z</time>
    </trkpt>
    <trkpt lat="38.641239982" lon="34.843166973">
      <ele>1105.393</ele>
      <time>2021-10-12T13:01:29Z</time>
    </trkpt>
    <trkpt lat="38.641220033" lon="34.843205027">
      <ele>1105.497</ele>
      <time>2021-10-12T13:01:30Z</time>
    </trkpt>
    <trkpt lat="38.64116597" lon="34.843319021">
      <ele>1105.646</ele>
      <time>2021-10-12T13:01:34Z</time>
    </trkpt>
    <trkpt lat="38.641148033" lon="34.843360009">
      <ele>1105.747</ele>
      <time>2021-10-12T13:01:35Z</time>
    </trkpt>
    <trkpt lat="38.64110101" lon="34.843462016">
      <ele>1106.059</ele>
      <time>2021-10-12T13:01:39Z</time>
    </trkpt>
    <trkpt lat="38.641035967" lon="34.843578022">
      <ele>1106.097</ele>
      <time>2021-10-12T13:01:43Z</time>
    </trkpt>
    <trkpt lat="38.641019035" lon="34.843607023">
      <ele>1106.015</ele>
      <time>2021-10-12T13:01:44Z</time>
    </trkpt>
    <trkpt lat="38.64095198" lon="34.843686987">
      <ele>1106.273</ele>
      <time>2021-10-12T13:01:47Z</time>
    </trkpt>
    <trkpt lat="38.640879979" lon="34.843773991">
      <ele>1106.586</ele>
      <time>2021-10-12T13:01:51Z</time>
    </trkpt>
    <trkpt lat="38.640784007" lon="34.843849009">
      <ele>1106.933</ele>
      <time>2021-10-12T13:01:55Z</time>
    </trkpt>
    <trkpt lat="38.640689962" lon="34.843922015">
      <ele>1107.358</ele>
      <time>2021-10-12T13:01:59Z</time>
    </trkpt>
    <trkpt lat="38.64058502" lon="34.843965014">
      <ele>1107.822</ele>
      <time>2021-10-12T13:02:03Z</time>
    </trkpt>
    <trkpt lat="38.640551995" lon="34.843979012">
      <ele>1107.999</ele>
      <time>2021-10-12T13:02:04Z</time>
    </trkpt>
    <trkpt lat="38.640517965" lon="34.843985969">
      <ele>1108.319</ele>
      <time>2021-10-12T13:02:06Z</time>
    </trkpt>
    <trkpt lat="38.640489969" lon="34.843996027">
      <ele>1108.629</ele>
      <time>2021-10-12T13:02:07Z</time>
    </trkpt>
    <trkpt lat="38.640460968" lon="34.844002984">
      <ele>1108.913</ele>
      <time>2021-10-12T13:02:08Z</time>
    </trkpt>
    <trkpt lat="38.640430961" lon="34.844008014">
      <ele>1109.184</ele>
      <time>2021-10-12T13:02:09Z</time>
    </trkpt>
    <trkpt lat="38.640402965" lon="34.844014971">
      <ele>1109.46</ele>
      <time>2021-10-12T13:02:10Z</time>
    </trkpt>
    <trkpt lat="38.64037497" lon="34.844017988">
      <ele>1109.694</ele>
      <time>2021-10-12T13:02:11Z</time>
    </trkpt>
    <trkpt lat="38.640261982" lon="34.844024023">
      <ele>1110.745</ele>
      <time>2021-10-12T13:02:15Z</time>
    </trkpt>
    <trkpt lat="38.640148994" lon="34.844052019">
      <ele>1112.999</ele>
      <time>2021-10-12T13:02:20Z</time>
    </trkpt>
    <trkpt lat="38.640050003" lon="34.844105998">
      <ele>1114.983</ele>
      <time>2021-10-12T13:02:24Z</time>
    </trkpt>
    <trkpt lat="38.639951013" lon="34.844142962">
      <ele>1116.519</ele>
      <time>2021-10-12T13:02:27Z</time>
    </trkpt>
    <trkpt lat="38.639840037" lon="34.84418001">
      <ele>1117.857</ele>
      <time>2021-10-12T13:02:32Z</time>
    </trkpt>
    <trkpt lat="38.639708022" lon="34.844209012">
      <ele>1119.282</ele>
      <time>2021-10-12T13:02:37Z</time>
    </trkpt>
    <trkpt lat="38.639627974" lon="34.844270032">
      <ele>1120.011</ele>
      <time>2021-10-12T13:02:40Z</time>
    </trkpt>
    <trkpt lat="38.639543988" lon="34.844328035">
      <ele>1120.388</ele>
      <time>2021-10-12T13:02:44Z</time>
    </trkpt>
    <trkpt lat="38.639451033" lon="34.844376985">
      <ele>1120.468</ele>
      <time>2021-10-12T13:02:47Z</time>
    </trkpt>
    <trkpt lat="38.639333015" lon="34.844405986">
      <ele>1122.795</ele>
      <time>2021-10-12T13:02:52Z</time>
    </trkpt>
    <trkpt lat="38.63922799" lon="34.844427025">
      <ele>1124.899</ele>
      <time>2021-10-12T13:02:56Z</time>
    </trkpt>
    <trkpt lat="38.639115002" lon="34.844462983">
      <ele>1127.212</ele>
      <time>2021-10-12T13:03:00Z</time>
    </trkpt>
    <trkpt lat="38.639007965" lon="34.844495002">
      <ele>1129.48</ele>
      <time>2021-10-12T13:03:04Z</time>
    </trkpt>
    <trkpt lat="38.638907969" lon="34.844561974">
      <ele>1131.252</ele>
      <time>2021-10-12T13:03:08Z</time>
    </trkpt>
    <trkpt lat="38.638804033" lon="34.844618971">
      <ele>1131.904</ele>
      <time>2021-10-12T13:03:12Z</time>
    </trkpt>
    <trkpt lat="38.638680987" lon="34.844642021">
      <ele>1132.469</ele>
      <time>2021-10-12T13:03:17Z</time>
    </trkpt>
    <trkpt lat="38.638577973" lon="34.84463498">
      <ele>1133.576</ele>
      <time>2021-10-12T13:03:21Z</time>
    </trkpt>
    <trkpt lat="38.638464985" lon="34.844642021">
      <ele>1135.648</ele>
      <time>2021-10-12T13:03:25Z</time>
    </trkpt>
    <trkpt lat="38.638371024" lon="34.844611008">
      <ele>1137.869</ele>
      <time>2021-10-12T13:03:29Z</time>
    </trkpt>
    <trkpt lat="38.638274968" lon="34.844598016">
      <ele>1140.049</ele>
      <time>2021-10-12T13:03:32Z</time>
    </trkpt>
    <trkpt lat="38.638171032" lon="34.844617965">
      <ele>1142.007</ele>
      <time>2021-10-12T13:03:36Z</time>
    </trkpt>
    <trkpt lat="38.638074975" lon="34.844677979">
      <ele>1143.218</ele>
      <time>2021-10-12T13:03:40Z</time>
    </trkpt>
    <trkpt lat="38.637994006" lon="34.844690971">
      <ele>1143.943</ele>
      <time>2021-10-12T13:03:43Z</time>
    </trkpt>
    <trkpt lat="38.637959976" lon="34.844691977">
      <ele>1144.199</ele>
      <time>2021-10-12T13:03:44Z</time>
    </trkpt>
    <trkpt lat="38.637926029" lon="34.844709998">
      <ele>1144.15</ele>
      <time>2021-10-12T13:03:46Z</time>
    </trkpt>
    <trkpt lat="38.637914965" lon="34.844735982">
      <ele>1143.864</ele>
      <time>2021-10-12T13:03:46Z</time>
    </trkpt>
    <trkpt lat="38.63788303" lon="34.844750986">
      <ele>1143.932</ele>
      <time>2021-10-12T13:03:48Z</time>
    </trkpt>
    <trkpt lat="38.637829972" lon="34.84474998">
      <ele>1144.324</ele>
      <time>2021-10-12T13:03:50Z</time>
    </trkpt>
    <trkpt lat="38.637810024" lon="34.84474998">
      <ele>1144.468</ele>
      <time>2021-10-12T13:03:50Z</time>
    </trkpt>
    <trkpt lat="38.637740035" lon="34.844844025">
      <ele>1144.44</ele>
      <time>2021-10-12T13:03:54Z</time>
    </trkpt>
    <trkpt lat="38.637674991" lon="34.844937986">
      <ele>1144.603</ele>
      <time>2021-10-12T13:03:58Z</time>
    </trkpt>
    <trkpt lat="38.637583964" lon="34.844990959">
      <ele>1145.609</ele>
      <time>2021-10-12T13:04:02Z</time>
    </trkpt>
    <trkpt lat="38.637499977" lon="34.84494796">
      <ele>1147.75</ele>
      <time>2021-10-12T13:04:05Z</time>
    </trkpt>
    <trkpt lat="38.637433005" lon="34.844974028">
      <ele>1149.808</ele>
      <time>2021-10-12T13:04:08Z</time>
    </trkpt>
    <trkpt lat="38.637407022" lon="34.844990959">
      <ele>1150.488</ele>
      <time>2021-10-12T13:04:09Z</time>
    </trkpt>
    <trkpt lat="38.637379026" lon="34.845013004">
      <ele>1151.255</ele>
      <time>2021-10-12T13:04:10Z</time>
    </trkpt>
    <trkpt lat="38.637357987" lon="34.84503597">
      <ele>1151.856</ele>
      <time>2021-10-12T13:04:11Z</time>
    </trkpt>
    <trkpt lat="38.637336027" lon="34.845070001">
      <ele>1152.445</ele>
      <time>2021-10-12T13:04:12Z</time>
    </trkpt>
    <trkpt lat="38.637321023" lon="34.845089028">
      <ele>1152.895</ele>
      <time>2021-10-12T13:04:13Z</time>
    </trkpt>
    <trkpt lat="38.637309037" lon="34.845108977">
      <ele>1153.237</ele>
      <time>2021-10-12T13:04:14Z</time>
    </trkpt>
    <trkpt lat="38.637296967" lon="34.845133033">
      <ele>1153.573</ele>
      <time>2021-10-12T13:04:14Z</time>
    </trkpt>
    <trkpt lat="38.637285987" lon="34.845153987">
      <ele>1153.896</ele>
      <time>2021-10-12T13:04:15Z</time>
    </trkpt>
    <trkpt lat="38.637281964" lon="34.845192963">
      <ele>1153.856</ele>
      <time>2021-10-12T13:04:16Z</time>
    </trkpt>
    <trkpt lat="38.637274001" lon="34.845223976">
      <ele>1154.029</ele>
      <time>2021-10-12T13:04:17Z</time>
    </trkpt>
    <trkpt lat="38.637269977" lon="34.845247027">
      <ele>1154.086</ele>
      <time>2021-10-12T13:04:18Z</time>
    </trkpt>
    <trkpt lat="38.637262015" lon="34.845276028">
      <ele>1154.289</ele>
      <time>2021-10-12T13:04:19Z</time>
    </trkpt>
    <trkpt lat="38.637252962" lon="34.845308969">
      <ele>1154.634</ele>
      <time>2021-10-12T13:04:20Z</time>
    </trkpt>
    <trkpt lat="38.637208035" lon="34.845424974">
      <ele>1155.825</ele>
      <time>2021-10-12T13:04:24Z</time>
    </trkpt>
    <trkpt lat="38.63716797" lon="34.845534023">
      <ele>1156.28</ele>
      <time>2021-10-12T13:04:27Z</time>
    </trkpt>
    <trkpt lat="38.637110973" lon="34.845624967">
      <ele>1157.253</ele>
      <time>2021-10-12T13:04:30Z</time>
    </trkpt>
    <trkpt lat="38.63704199" lon="34.845714988">
      <ele>1157.977</ele>
      <time>2021-10-12T13:04:34Z</time>
    </trkpt>
    <trkpt lat="38.636969989" lon="34.845802998">
      <ele>1158.104</ele>
      <time>2021-10-12T13:04:38Z</time>
    </trkpt>
    <trkpt lat="38.636939982" lon="34.845916992">
      <ele>1157.425</ele>
      <time>2021-10-12T13:04:41Z</time>
    </trkpt>
    <trkpt lat="38.636919027" lon="34.846030986">
      <ele>1156.695</ele>
      <time>2021-10-12T13:04:45Z</time>
    </trkpt>
    <trkpt lat="38.636868987" lon="34.846146991">
      <ele>1156.107</ele>
      <time>2021-10-12T13:04:49Z</time>
    </trkpt>
    <trkpt lat="38.636831017" lon="34.846256962">
      <ele>1155.669</ele>
      <time>2021-10-12T13:04:52Z</time>
    </trkpt>
    <trkpt lat="38.636810984" lon="34.846370034">
      <ele>1155.1</ele>
      <time>2021-10-12T13:04:55Z</time>
    </trkpt>
    <trkpt lat="38.636788018" lon="34.846508">
      <ele>1155.187</ele>
      <time>2021-10-12T13:05:00Z</time>
    </trkpt>
    <trkpt lat="38.636766979" lon="34.846619982">
      <ele>1155.3</ele>
      <time>2021-10-12T13:05:03Z</time>
    </trkpt>
    <trkpt lat="38.636839986" lon="34.846656024">
      <ele>1155.6</ele>
      <time>2021-10-12T13:05:06Z</time>
    </trkpt>
    <trkpt lat="38.636858007" lon="34.846641021">
      <ele>1155.625</ele>
      <time>2021-10-12T13:05:07Z</time>
    </trkpt>
    <trkpt lat="38.63687804" lon="34.846630041">
      <ele>1155.661</ele>
      <time>2021-10-12T13:05:07Z</time>
    </trkpt>
    <trkpt lat="38.636897989" lon="34.846615959">
      <ele>1155.681</ele>
      <time>2021-10-12T13:05:08Z</time>
    </trkpt>
    <trkpt lat="38.636918021" lon="34.846593998">
      <ele>1155.668</ele>
      <time>2021-10-12T13:05:09Z</time>
    </trkpt>
    <trkpt lat="38.636942999" lon="34.846591987">
      <ele>1155.727</ele>
      <time>2021-10-12T13:05:10Z</time>
    </trkpt>
    <trkpt lat="38.636967978" lon="34.846601961">
      <ele>1156.256</ele>
      <time>2021-10-12T13:05:11Z</time>
    </trkpt>
    <trkpt lat="38.636995973" lon="34.846612019">
      <ele>1156.88</ele>
      <time>2021-10-12T13:05:12Z</time>
    </trkpt>
    <trkpt lat="38.637022963" lon="34.846611014">
      <ele>1157.439</ele>
      <time>2021-10-12T13:05:13Z</time>
    </trkpt>
    <trkpt lat="38.637050958" lon="34.846602967">
      <ele>1157.983</ele>
      <time>2021-10-12T13:05:14Z</time>
    </trkpt>
    <trkpt lat="38.637080966" lon="34.846586036">
      <ele>1158.516</ele>
      <time>2021-10-12T13:05:15Z</time>
    </trkpt>
    <trkpt lat="38.637106027" lon="34.846568014">
      <ele>1158.928</ele>
      <time>2021-10-12T13:05:16Z</time>
    </trkpt>
    <trkpt lat="38.637134023" lon="34.846570026">
      <ele>1159.51</ele>
      <time>2021-10-12T13:05:18Z</time>
    </trkpt>
    <trkpt lat="38.637150032" lon="34.846580001">
      <ele>1159.898</ele>
      <time>2021-10-12T13:05:18Z</time>
    </trkpt>
    <trkpt lat="38.637183979" lon="34.846611014">
      <ele>1160.801</ele>
      <time>2021-10-12T13:05:20Z</time>
    </trkpt>
    <trkpt lat="38.637213986" lon="34.846630963">
      <ele>1161.569</ele>
      <time>2021-10-12T13:05:21Z</time>
    </trkpt>
    <trkpt lat="38.637185991" lon="34.846812012">
      <ele>1162.264</ele>
      <time>2021-10-12T13:05:26Z</time>
    </trkpt>
    <trkpt lat="38.637181967" lon="34.846841013">
      <ele>1162.386</ele>
      <time>2021-10-12T13:05:27Z</time>
    </trkpt>
    <trkpt lat="38.637185991" lon="34.846872026">
      <ele>1162.696</ele>
      <time>2021-10-12T13:05:28Z</time>
    </trkpt>
    <trkpt lat="38.637190014" lon="34.846905973">
      <ele>1163.027</ele>
      <time>2021-10-12T13:05:29Z</time>
    </trkpt>
    <trkpt lat="38.637199989" lon="34.846942015">
      <ele>1163.502</ele>
      <time>2021-10-12T13:05:30Z</time>
    </trkpt>
    <trkpt lat="38.637197977" lon="34.846979985">
      <ele>1163.604</ele>
      <time>2021-10-12T13:05:31Z</time>
    </trkpt>
    <trkpt lat="38.637194959" lon="34.847008986">
      <ele>1163.643</ele>
      <time>2021-10-12T13:05:32Z</time>
    </trkpt>
    <trkpt lat="38.637200994" lon="34.847037988">
      <ele>1163.878</ele>
      <time>2021-10-12T13:05:33Z</time>
    </trkpt>
    <trkpt lat="38.637215998" lon="34.847084004">
      <ele>1164.368</ele>
      <time>2021-10-12T13:05:34Z</time>
    </trkpt>
    <trkpt lat="38.637225972" lon="34.847113006">
      <ele>1164.683</ele>
      <time>2021-10-12T13:05:35Z</time>
    </trkpt>
    <trkpt lat="38.637235025" lon="34.847145025">
      <ele>1164.986</ele>
      <time>2021-10-12T13:05:36Z</time>
    </trkpt>
    <trkpt lat="38.637240976" lon="34.847171009">
      <ele>1165.208</ele>
      <time>2021-10-12T13:05:37Z</time>
    </trkpt>
    <trkpt lat="38.637254974" lon="34.84720001">
      <ele>1165.618</ele>
      <time>2021-10-12T13:05:38Z</time>
    </trkpt>
    <trkpt lat="38.637258997" lon="34.847225994">
      <ele>1165.796</ele>
      <time>2021-10-12T13:05:39Z</time>
    </trkpt>
    <trkpt lat="38.637251034" lon="34.84724896">
      <ele>1165.632</ele>
      <time>2021-10-12T13:05:40Z</time>
    </trkpt>
    <trkpt lat="38.637227984" lon="34.847283997">
      <ele>1165.129</ele>
      <time>2021-10-12T13:05:41Z</time>
    </trkpt>
    <trkpt lat="38.637222033" lon="34.847307969">
      <ele>1164.996</ele>
      <time>2021-10-12T13:05:42Z</time>
    </trkpt>
    <trkpt lat="38.637208035" lon="34.847346023">
      <ele>1164.716</ele>
      <time>2021-10-12T13:05:43Z</time>
    </trkpt>
    <trkpt lat="38.637195965" lon="34.847380975">
      <ele>1164.487</ele>
      <time>2021-10-12T13:05:44Z</time>
    </trkpt>
    <trkpt lat="38.637178028" lon="34.847410982">
      <ele>1164.154</ele>
      <time>2021-10-12T13:05:45Z</time>
    </trkpt>
    <trkpt lat="38.63716403" lon="34.847436966">
      <ele>1163.905</ele>
      <time>2021-10-12T13:05:46Z</time>
    </trkpt>
    <trkpt lat="38.637151038" lon="34.847468985">
      <ele>1163.69</ele>
      <time>2021-10-12T13:05:47Z</time>
    </trkpt>
    <trkpt lat="38.63713704" lon="34.847494969">
      <ele>1163.461</ele>
      <time>2021-10-12T13:05:48Z</time>
    </trkpt>
    <trkpt lat="38.637121031" lon="34.847527994">
      <ele>1163.481</ele>
      <time>2021-10-12T13:05:49Z</time>
    </trkpt>
    <trkpt lat="38.637104016" lon="34.847555989">
      <ele>1163.477</ele>
      <time>2021-10-12T13:05:50Z</time>
    </trkpt>
    <trkpt lat="38.637091024" lon="34.847587002">
      <ele>1163.578</ele>
      <time>2021-10-12T13:05:51Z</time>
    </trkpt>
    <trkpt lat="38.637077026" lon="34.847620027">
      <ele>1163.683</ele>
      <time>2021-10-12T13:05:52Z</time>
    </trkpt>
    <trkpt lat="38.637063028" lon="34.847667972">
      <ele>1163.949</ele>
      <time>2021-10-12T13:05:54Z</time>
    </trkpt>
    <trkpt lat="38.637050958" lon="34.847694961">
      <ele>1164.023</ele>
      <time>2021-10-12T13:05:55Z</time>
    </trkpt>
    <trkpt lat="38.636968983" lon="34.847769979">
      <ele>1163.357</ele>
      <time>2021-10-12T13:05:58Z</time>
    </trkpt>
    <trkpt lat="38.636886002" lon="34.847820019">
      <ele>1163.34</ele>
      <time>2021-10-12T13:06:02Z</time>
    </trkpt>
    <trkpt lat="38.636855995" lon="34.847833011">
      <ele>1163.357</ele>
      <time>2021-10-12T13:06:03Z</time>
    </trkpt>
    <trkpt lat="38.636839986" lon="34.847849021">
      <ele>1163.53</ele>
      <time>2021-10-12T13:06:04Z</time>
    </trkpt>
    <trkpt lat="38.636835041" lon="34.847883973">
      <ele>1164.124</ele>
      <time>2021-10-12T13:06:05Z</time>
    </trkpt>
    <trkpt lat="38.636843003" lon="34.84791398">
      <ele>1164.721</ele>
      <time>2021-10-12T13:06:06Z</time>
    </trkpt>
    <trkpt lat="38.636852978" lon="34.847945999">
      <ele>1165.369</ele>
      <time>2021-10-12T13:06:07Z</time>
    </trkpt>
    <trkpt lat="38.636853984" lon="34.847972989">
      <ele>1165.862</ele>
      <time>2021-10-12T13:06:07Z</time>
    </trkpt>
    <trkpt lat="38.636863036" lon="34.848006014">
      <ele>1166.522</ele>
      <time>2021-10-12T13:06:08Z</time>
    </trkpt>
    <trkpt lat="38.636857001" lon="34.848035015">
      <ele>1167.001</ele>
      <time>2021-10-12T13:06:09Z</time>
    </trkpt>
    <trkpt lat="38.63683898" lon="34.848056976">
      <ele>1167.264</ele>
      <time>2021-10-12T13:06:10Z</time>
    </trkpt>
    <trkpt lat="38.636833029" lon="34.848082038">
      <ele>1167.636</ele>
      <time>2021-10-12T13:06:11Z</time>
    </trkpt>
    <trkpt lat="38.636765974" lon="34.848160995">
      <ele>1168.369</ele>
      <time>2021-10-12T13:06:14Z</time>
    </trkpt>
    <trkpt lat="38.636744013" lon="34.848179016">
      <ele>1168.458</ele>
      <time>2021-10-12T13:06:15Z</time>
    </trkpt>
    <trkpt lat="38.636716017" lon="34.84819402">
      <ele>1168.438</ele>
      <time>2021-10-12T13:06:16Z</time>
    </trkpt>
    <trkpt lat="38.636632031" lon="34.848246993">
      <ele>1168.671</ele>
      <time>2021-10-12T13:06:20Z</time>
    </trkpt>
    <trkpt lat="38.636542009" lon="34.848287981">
      <ele>1168.971</ele>
      <time>2021-10-12T13:06:23Z</time>
    </trkpt>
    <trkpt lat="38.636508482" lon="34.8483257">
      <ele>1169.336</ele>
      <time>2021-10-12T13:06:25Z</time>
    </trkpt>
    <trkpt lat="38.636492975" lon="34.848351013">
      <ele>1169.566</ele>
      <time>2021-10-12T13:06:26Z</time>
    </trkpt>
    <trkpt lat="38.636403037" lon="34.848325029">
      <ele>1168.96</ele>
      <time>2021-10-12T13:06:29Z</time>
    </trkpt>
    <trkpt lat="38.636362972" lon="34.84844598">
      <ele>1170.59</ele>
      <time>2021-10-12T13:06:33Z</time>
    </trkpt>
    <trkpt lat="38.636378981" lon="34.84856802">
      <ele>1171.677</ele>
      <time>2021-10-12T13:06:37Z</time>
    </trkpt>
    <trkpt lat="38.636342017" lon="34.848684026">
      <ele>1173.374</ele>
      <time>2021-10-12T13:06:41Z</time>
    </trkpt>
    <trkpt lat="38.636331037" lon="34.848803971">
      <ele>1174.627</ele>
      <time>2021-10-12T13:06:44Z</time>
    </trkpt>
    <trkpt lat="38.636296" lon="34.848920982">
      <ele>1175.977</ele>
      <time>2021-10-12T13:06:48Z</time>
    </trkpt>
    <trkpt lat="38.636262976" lon="34.84903397">
      <ele>1177.237</ele>
      <time>2021-10-12T13:06:51Z</time>
    </trkpt>
    <trkpt lat="38.636222994" lon="34.849151988">
      <ele>1178.47</ele>
      <time>2021-10-12T13:06:55Z</time>
    </trkpt>
    <trkpt lat="38.636172032" lon="34.849258019">
      <ele>1179.254</ele>
      <time>2021-10-12T13:06:58Z</time>
    </trkpt>
    <trkpt lat="38.636164991" lon="34.849382993">
      <ele>1179.887</ele>
      <time>2021-10-12T13:07:02Z</time>
    </trkpt>
    <trkpt lat="38.636185024" lon="34.849500004">
      <ele>1180.666</ele>
      <time>2021-10-12T13:07:06Z</time>
    </trkpt>
    <trkpt lat="38.636167003" lon="34.849613998">
      <ele>1181.422</ele>
      <time>2021-10-12T13:07:09Z</time>
    </trkpt>
    <trkpt lat="38.636184018" lon="34.849730004">
      <ele>1182.29</ele>
      <time>2021-10-12T13:07:12Z</time>
    </trkpt>
    <trkpt lat="38.636118975" lon="34.849823965">
      <ele>1182.395</ele>
      <time>2021-10-12T13:07:16Z</time>
    </trkpt>
    <trkpt lat="38.63609802" lon="34.849828994">
      <ele>1182.537</ele>
      <time>2021-10-12T13:07:17Z</time>
    </trkpt>
    <trkpt lat="38.636087039" lon="34.849857995">
      <ele>1182.751</ele>
      <time>2021-10-12T13:07:18Z</time>
    </trkpt>
    <trkpt lat="38.636087039" lon="34.849974001">
      <ele>1183.096</ele>
      <time>2021-10-12T13:07:21Z</time>
    </trkpt>
    <trkpt lat="38.636084022" lon="34.850000991">
      <ele>1183.199</ele>
      <time>2021-10-12T13:07:22Z</time>
    </trkpt>
    <trkpt lat="38.636061978" lon="34.850116996">
      <ele>1183.849</ele>
      <time>2021-10-12T13:07:25Z</time>
    </trkpt>
    <trkpt lat="38.636081005" lon="34.850181034">
      <ele>1183.939</ele>
      <time>2021-10-12T13:07:27Z</time>
    </trkpt>
    <trkpt lat="38.636079999" lon="34.850213975">
      <ele>1184.081</ele>
      <time>2021-10-12T13:07:28Z</time>
    </trkpt>
    <trkpt lat="38.636075975" lon="34.850252029">
      <ele>1184.275</ele>
      <time>2021-10-12T13:07:29Z</time>
    </trkpt>
    <trkpt lat="38.636077987" lon="34.850274995">
      <ele>1184.347</ele>
      <time>2021-10-12T13:07:30Z</time>
    </trkpt>
    <trkpt lat="38.636085028" lon="34.850297961">
      <ele>1184.42</ele>
      <time>2021-10-12T13:07:31Z</time>
    </trkpt>
    <trkpt lat="38.636102965" lon="34.850317994">
      <ele>1184.373</ele>
      <time>2021-10-12T13:07:32Z</time>
    </trkpt>
    <trkpt lat="38.636114029" lon="34.850340961">
      <ele>1184.468</ele>
      <time>2021-10-12T13:07:33Z</time>
    </trkpt>
    <trkpt lat="38.636116041" lon="34.850368034">
      <ele>1184.673</ele>
      <time>2021-10-12T13:07:33Z</time>
    </trkpt>
    <trkpt lat="38.636115035" lon="34.850400975">
      <ele>1184.907</ele>
      <time>2021-10-12T13:07:34Z</time>
    </trkpt>
    <trkpt lat="38.636105983" lon="34.850422014">
      <ele>1185.084</ele>
      <time>2021-10-12T13:07:35Z</time>
    </trkpt>
    <trkpt lat="38.636110006" lon="34.850450009">
      <ele>1185.25</ele>
      <time>2021-10-12T13:07:36Z</time>
    </trkpt>
    <trkpt lat="38.636115035" lon="34.850473981">
      <ele>1185.437</ele>
      <time>2021-10-12T13:07:36Z</time>
    </trkpt>
    <trkpt lat="38.636110006" lon="34.850498037">
      <ele>1185.595</ele>
      <time>2021-10-12T13:07:37Z</time>
    </trkpt>
    <trkpt lat="38.636105983" lon="34.85052201">
      <ele>1185.798</ele>
      <time>2021-10-12T13:07:38Z</time>
    </trkpt>
    <trkpt lat="38.636129033" lon="34.850536007">
      <ele>1185.984</ele>
      <time>2021-10-12T13:07:39Z</time>
    </trkpt>
    <trkpt lat="38.636140013" lon="34.850558974">
      <ele>1186.246</ele>
      <time>2021-10-12T13:07:40Z</time>
    </trkpt>
    <trkpt lat="38.636143031" lon="34.85058303">
      <ele>1186.538</ele>
      <time>2021-10-12T13:07:40Z</time>
    </trkpt>
    <trkpt lat="38.636139007" lon="34.850615971">
      <ele>1186.875</ele>
      <time>2021-10-12T13:07:41Z</time>
    </trkpt>
    <trkpt lat="38.636136996" lon="34.850640027">
      <ele>1187.127</ele>
      <time>2021-10-12T13:07:42Z</time>
    </trkpt>
    <trkpt lat="38.636143031" lon="34.850666011">
      <ele>1187.468</ele>
      <time>2021-10-12T13:07:43Z</time>
    </trkpt>
    <trkpt lat="38.636149988" lon="34.850690989">
      <ele>1187.811</ele>
      <time>2021-10-12T13:07:44Z</time>
    </trkpt>
    <trkpt lat="38.636156023" lon="34.850717979">
      <ele>1188.172</ele>
      <time>2021-10-12T13:07:44Z</time>
    </trkpt>
    <trkpt lat="38.636160968" lon="34.850745974">
      <ele>1188.539</ele>
      <time>2021-10-12T13:07:45Z</time>
    </trkpt>
    <trkpt lat="38.636171026" lon="34.850772964">
      <ele>1188.948</ele>
      <time>2021-10-12T13:07:46Z</time>
    </trkpt>
    <trkpt lat="38.636173038" lon="34.850804983">
      <ele>1189.34</ele>
      <time>2021-10-12T13:07:47Z</time>
    </trkpt>
    <trkpt lat="38.636163985" lon="34.850838007">
      <ele>1189.638</ele>
      <time>2021-10-12T13:07:48Z</time>
    </trkpt>
    <trkpt lat="38.636155017" lon="34.850864997">
      <ele>1189.93</ele>
      <time>2021-10-12T13:07:49Z</time>
    </trkpt>
    <trkpt lat="38.636151999" lon="34.850891987">
      <ele>1190.286</ele>
      <time>2021-10-12T13:07:50Z</time>
    </trkpt>
    <trkpt lat="38.636155017" lon="34.850915959">
      <ele>1190.664</ele>
      <time>2021-10-12T13:07:50Z</time>
    </trkpt>
    <trkpt lat="38.636149988" lon="34.850941021">
      <ele>1190.971</ele>
      <time>2021-10-12T13:07:51Z</time>
    </trkpt>
    <trkpt lat="38.636153005" lon="34.850969017">
      <ele>1191.406</ele>
      <time>2021-10-12T13:07:52Z</time>
    </trkpt>
    <trkpt lat="38.636148982" lon="34.850998018">
      <ele>1191.78</ele>
      <time>2021-10-12T13:07:53Z</time>
    </trkpt>
    <trkpt lat="38.636144036" lon="34.851026013">
      <ele>1192.13</ele>
      <time>2021-10-12T13:07:54Z</time>
    </trkpt>
    <trkpt lat="38.636132972" lon="34.851059038">
      <ele>1192.486</ele>
      <time>2021-10-12T13:07:55Z</time>
    </trkpt>
    <trkpt lat="38.636128027" lon="34.851085022">
      <ele>1192.807</ele>
      <time>2021-10-12T13:07:55Z</time>
    </trkpt>
    <trkpt lat="38.636128027" lon="34.85111">
      <ele>1193.167</ele>
      <time>2021-10-12T13:07:56Z</time>
    </trkpt>
    <trkpt lat="38.636124004" lon="34.851137996">
      <ele>1193.434</ele>
      <time>2021-10-12T13:07:57Z</time>
    </trkpt>
    <trkpt lat="38.636117969" lon="34.851164985">
      <ele>1193.661</ele>
      <time>2021-10-12T13:07:58Z</time>
    </trkpt>
    <trkpt lat="38.636113023" lon="34.85118703">
      <ele>1193.842</ele>
      <time>2021-10-12T13:07:59Z</time>
    </trkpt>
    <trkpt lat="38.636116041" lon="34.851221982">
      <ele>1194.258</ele>
      <time>2021-10-12T13:08:00Z</time>
    </trkpt>
    <trkpt lat="38.636121992" lon="34.85125199">
      <ele>1194.659</ele>
      <time>2021-10-12T13:08:00Z</time>
    </trkpt>
    <trkpt lat="38.636130039" lon="34.851279985">
      <ele>1195.07</ele>
      <time>2021-10-12T13:08:01Z</time>
    </trkpt>
    <trkpt lat="38.636130039" lon="34.851305969">
      <ele>1195.357</ele>
      <time>2021-10-12T13:08:02Z</time>
    </trkpt>
    <trkpt lat="38.63611998" lon="34.851333965">
      <ele>1195.528</ele>
      <time>2021-10-12T13:08:03Z</time>
    </trkpt>
    <trkpt lat="38.636105983" lon="34.851357015">
      <ele>1195.621</ele>
      <time>2021-10-12T13:08:04Z</time>
    </trkpt>
    <trkpt lat="38.636096008" lon="34.851379981">
      <ele>1195.797</ele>
      <time>2021-10-12T13:08:05Z</time>
    </trkpt>
    <trkpt lat="38.636085028" lon="34.851400014">
      <ele>1195.929</ele>
      <time>2021-10-12T13:08:05Z</time>
    </trkpt>
    <trkpt lat="38.63607103" lon="34.85142801">
      <ele>1196.114</ele>
      <time>2021-10-12T13:08:06Z</time>
    </trkpt>
    <trkpt lat="38.636058038" lon="34.851450976">
      <ele>1196.246</ele>
      <time>2021-10-12T13:08:07Z</time>
    </trkpt>
    <trkpt lat="38.636046974" lon="34.851477966">
      <ele>1196.426</ele>
      <time>2021-10-12T13:08:08Z</time>
    </trkpt>
    <trkpt lat="38.636040017" lon="34.851505961">
      <ele>1196.645</ele>
      <time>2021-10-12T13:08:09Z</time>
    </trkpt>
    <trkpt lat="38.636028031" lon="34.851533035">
      <ele>1196.803</ele>
      <time>2021-10-12T13:08:10Z</time>
    </trkpt>
    <trkpt lat="38.636023002" lon="34.85156103">
      <ele>1197.028</ele>
      <time>2021-10-12T13:08:11Z</time>
    </trkpt>
    <trkpt lat="38.636015961" lon="34.851583997">
      <ele>1197.181</ele>
      <time>2021-10-12T13:08:11Z</time>
    </trkpt>
    <trkpt lat="38.636000035" lon="34.851605035">
      <ele>1197.223</ele>
      <time>2021-10-12T13:08:12Z</time>
    </trkpt>
    <trkpt lat="38.635990983" lon="34.851628002">
      <ele>1197.345</ele>
      <time>2021-10-12T13:08:13Z</time>
    </trkpt>
    <trkpt lat="38.635981008" lon="34.851658009">
      <ele>1197.516</ele>
      <time>2021-10-12T13:08:14Z</time>
    </trkpt>
    <trkpt lat="38.635975979" lon="34.851681981">
      <ele>1197.679</ele>
      <time>2021-10-12T13:08:14Z</time>
    </trkpt>
    <trkpt lat="38.635967011" lon="34.851715006">
      <ele>1197.876</ele>
      <time>2021-10-12T13:08:15Z</time>
    </trkpt>
    <trkpt lat="38.635960976" lon="34.851736967">
      <ele>1198.001</ele>
      <time>2021-10-12T13:08:16Z</time>
    </trkpt>
    <trkpt lat="38.635957958" lon="34.851761023">
      <ele>1198.178</ele>
      <time>2021-10-12T13:08:17Z</time>
    </trkpt>
    <trkpt lat="38.635978997" lon="34.85177896">
      <ele>1198.594</ele>
      <time>2021-10-12T13:08:18Z</time>
    </trkpt>
    <trkpt lat="38.635992995" lon="34.851796981">
      <ele>1198.932</ele>
      <time>2021-10-12T13:08:19Z</time>
    </trkpt>
    <trkpt lat="38.636001041" lon="34.851829">
      <ele>1199.333</ele>
      <time>2021-10-12T13:08:20Z</time>
    </trkpt>
    <trkpt lat="38.635995006" lon="34.851851966">
      <ele>1199.468</ele>
      <time>2021-10-12T13:08:20Z</time>
    </trkpt>
    <trkpt lat="38.635980003" lon="34.851871999">
      <ele>1199.453</ele>
      <time>2021-10-12T13:08:21Z</time>
    </trkpt>
    <trkpt lat="38.635973968" lon="34.851903012">
      <ele>1199.651</ele>
      <time>2021-10-12T13:08:22Z</time>
    </trkpt>
    <trkpt lat="38.635972962" lon="34.851930002">
      <ele>1199.881</ele>
      <time>2021-10-12T13:08:23Z</time>
    </trkpt>
    <trkpt lat="38.635972962" lon="34.851953974">
      <ele>1200.114</ele>
      <time>2021-10-12T13:08:23Z</time>
    </trkpt>
    <trkpt lat="38.635973968" lon="34.851990016">
      <ele>1200.517</ele>
      <time>2021-10-12T13:08:24Z</time>
    </trkpt>
    <trkpt lat="38.635977991" lon="34.852017006">
      <ele>1200.867</ele>
      <time>2021-10-12T13:08:25Z</time>
    </trkpt>
    <trkpt lat="38.635989977" lon="34.852046007">
      <ele>1201.353</ele>
      <time>2021-10-12T13:08:26Z</time>
    </trkpt>
    <trkpt lat="38.635995006" lon="34.852070985">
      <ele>1201.695</ele>
      <time>2021-10-12T13:08:27Z</time>
    </trkpt>
    <trkpt lat="38.63599903" lon="34.852097975">
      <ele>1202.044</ele>
      <time>2021-10-12T13:08:28Z</time>
    </trkpt>
    <trkpt lat="38.636002969" lon="34.852134017">
      <ele>1202.49</ele>
      <time>2021-10-12T13:08:29Z</time>
    </trkpt>
    <trkpt lat="38.636000035" lon="34.85216503">
      <ele>1202.783</ele>
      <time>2021-10-12T13:08:30Z</time>
    </trkpt>
    <trkpt lat="38.635997018" lon="34.852194032">
      <ele>1203.053</ele>
      <time>2021-10-12T13:08:31Z</time>
    </trkpt>
    <trkpt lat="38.635998024" lon="34.852220016">
      <ele>1203.348</ele>
      <time>2021-10-12T13:08:31Z</time>
    </trkpt>
    <trkpt lat="38.63599903" lon="34.852247005">
      <ele>1203.547</ele>
      <time>2021-10-12T13:08:32Z</time>
    </trkpt>
    <trkpt lat="38.636001963" lon="34.852275001">
      <ele>1203.768</ele>
      <time>2021-10-12T13:08:33Z</time>
    </trkpt>
    <trkpt lat="38.636001963" lon="34.852305008">
      <ele>1203.961</ele>
      <time>2021-10-12T13:08:34Z</time>
    </trkpt>
    <trkpt lat="38.636005986" lon="34.852335015">
      <ele>1204.2</ele>
      <time>2021-10-12T13:08:35Z</time>
    </trkpt>
    <trkpt lat="38.63601001" lon="34.852366028">
      <ele>1204.439</ele>
      <time>2021-10-12T13:08:36Z</time>
    </trkpt>
    <trkpt lat="38.636015961" lon="34.852396036">
      <ele>1204.684</ele>
      <time>2021-10-12T13:08:37Z</time>
    </trkpt>
    <trkpt lat="38.636018978" lon="34.852423025">
      <ele>1204.876</ele>
      <time>2021-10-12T13:08:37Z</time>
    </trkpt>
    <trkpt lat="38.636024008" lon="34.852453033">
      <ele>1205.098</ele>
      <time>2021-10-12T13:08:38Z</time>
    </trkpt>
    <trkpt lat="38.636023002" lon="34.852482034">
      <ele>1205.26</ele>
      <time>2021-10-12T13:08:39Z</time>
    </trkpt>
    <trkpt lat="38.636024008" lon="34.852512041">
      <ele>1205.476</ele>
      <time>2021-10-12T13:08:40Z</time>
    </trkpt>
    <trkpt lat="38.636021996" lon="34.852538025">
      <ele>1205.681</ele>
      <time>2021-10-12T13:08:41Z</time>
    </trkpt>
    <trkpt lat="38.636017973" lon="34.852560991">
      <ele>1205.841</ele>
      <time>2021-10-12T13:08:41Z</time>
    </trkpt>
    <trkpt lat="38.636016967" lon="34.852585969">
      <ele>1206.041</ele>
      <time>2021-10-12T13:08:42Z</time>
    </trkpt>
    <trkpt lat="38.636013027" lon="34.852611031">
      <ele>1206.211</ele>
      <time>2021-10-12T13:08:43Z</time>
    </trkpt>
    <trkpt lat="38.636005986" lon="34.852636009">
      <ele>1206.341</ele>
      <time>2021-10-12T13:08:44Z</time>
    </trkpt>
    <trkpt lat="38.636000035" lon="34.85265797">
      <ele>1206.452</ele>
      <time>2021-10-12T13:08:44Z</time>
    </trkpt>
    <trkpt lat="38.635987965" lon="34.852689989">
      <ele>1206.559</ele>
      <time>2021-10-12T13:08:45Z</time>
    </trkpt>
    <trkpt lat="38.635982014" lon="34.852721002">
      <ele>1206.718</ele>
      <time>2021-10-12T13:08:46Z</time>
    </trkpt>
    <trkpt lat="38.63598696" lon="34.85274598">
      <ele>1206.971</ele>
      <time>2021-10-12T13:08:47Z</time>
    </trkpt>
    <trkpt lat="38.635990983" lon="34.85277297">
      <ele>1207.233</ele>
      <time>2021-10-12T13:08:48Z</time>
    </trkpt>
    <trkpt lat="38.636004981" lon="34.852798032">
      <ele>1207.718</ele>
      <time>2021-10-12T13:08:49Z</time>
    </trkpt>
    <trkpt lat="38.636015961" lon="34.852834996">
      <ele>1208.318</ele>
      <time>2021-10-12T13:08:50Z</time>
    </trkpt>
    <trkpt lat="38.636021996" lon="34.852861986">
      <ele>1208.723</ele>
      <time>2021-10-12T13:08:51Z</time>
    </trkpt>
    <trkpt lat="38.636027025" lon="34.852894004">
      <ele>1209.171</ele>
      <time>2021-10-12T13:08:52Z</time>
    </trkpt>
    <trkpt lat="38.636028031" lon="34.852928035">
      <ele>1209.588</ele>
      <time>2021-10-12T13:08:53Z</time>
    </trkpt>
    <trkpt lat="38.63603197" lon="34.852958964">
      <ele>1210.003</ele>
      <time>2021-10-12T13:08:53Z</time>
    </trkpt>
    <trkpt lat="38.636035994" lon="34.852986038">
      <ele>1210.37</ele>
      <time>2021-10-12T13:08:54Z</time>
    </trkpt>
    <trkpt lat="38.636039011" lon="34.853015961">
      <ele>1210.757</ele>
      <time>2021-10-12T13:08:55Z</time>
    </trkpt>
    <trkpt lat="38.63604404" lon="34.853045968">
      <ele>1211.164</ele>
      <time>2021-10-12T13:08:56Z</time>
    </trkpt>
    <trkpt lat="38.636045968" lon="34.853077987">
      <ele>1211.458</ele>
      <time>2021-10-12T13:08:57Z</time>
    </trkpt>
    <trkpt lat="38.636044962" lon="34.853114029">
      <ele>1211.707</ele>
      <time>2021-10-12T13:08:58Z</time>
    </trkpt>
    <trkpt lat="38.636045968" lon="34.853147976">
      <ele>1211.962</ele>
      <time>2021-10-12T13:08:59Z</time>
    </trkpt>
    <trkpt lat="38.636045968" lon="34.853268005">
      <ele>1212.826</ele>
      <time>2021-10-12T13:09:02Z</time>
    </trkpt>
    <trkpt lat="38.63599903" lon="34.853375042">
      <ele>1213.0</ele>
      <time>2021-10-12T13:09:06Z</time>
    </trkpt>
    <trkpt lat="38.63594899" lon="34.85347596">
      <ele>1213.062</ele>
      <time>2021-10-12T13:09:10Z</time>
    </trkpt>
    <trkpt lat="38.635904985" lon="34.85359096">
      <ele>1213.39</ele>
      <time>2021-10-12T13:09:13Z</time>
    </trkpt>
    <trkpt lat="38.635886963" lon="34.85361401">
      <ele>1213.407</ele>
      <time>2021-10-12T13:09:14Z</time>
    </trkpt>
    <trkpt lat="38.635873972" lon="34.853644017">
      <ele>1213.53</ele>
      <time>2021-10-12T13:09:15Z</time>
    </trkpt>
    <trkpt lat="38.63586802" lon="34.853674024">
      <ele>1213.703</ele>
      <time>2021-10-12T13:09:16Z</time>
    </trkpt>
    <trkpt lat="38.635856034" lon="34.853708977">
      <ele>1213.868</ele>
      <time>2021-10-12T13:09:17Z</time>
    </trkpt>
    <trkpt lat="38.635843964" lon="34.853738984">
      <ele>1213.997</ele>
      <time>2021-10-12T13:09:18Z</time>
    </trkpt>
    <trkpt lat="38.635828039" lon="34.853763962">
      <ele>1214.099</ele>
      <time>2021-10-12T13:09:19Z</time>
    </trkpt>
    <trkpt lat="38.635805994" lon="34.853787012">
      <ele>1214.24</ele>
      <time>2021-10-12T13:09:20Z</time>
    </trkpt>
    <trkpt lat="38.635789985" lon="34.853806039">
      <ele>1214.341</ele>
      <time>2021-10-12T13:09:21Z</time>
    </trkpt>
    <trkpt lat="38.635771042" lon="34.853830012">
      <ele>1214.447</ele>
      <time>2021-10-12T13:09:22Z</time>
    </trkpt>
    <trkpt lat="38.635752015" lon="34.85384996">
      <ele>1214.509</ele>
      <time>2021-10-12T13:09:23Z</time>
    </trkpt>
    <trkpt lat="38.635735" lon="34.853867982">
      <ele>1214.549</ele>
      <time>2021-10-12T13:09:24Z</time>
    </trkpt>
    <trkpt lat="38.635723013" lon="34.85388902">
      <ele>1214.604</ele>
      <time>2021-10-12T13:09:24Z</time>
    </trkpt>
    <trkpt lat="38.635709016" lon="34.853918022">
      <ele>1214.82</ele>
      <time>2021-10-12T13:09:25Z</time>
    </trkpt>
    <trkpt lat="38.635696024" lon="34.853948029">
      <ele>1215.039</ele>
      <time>2021-10-12T13:09:26Z</time>
    </trkpt>
    <trkpt lat="38.63568102" lon="34.853976024">
      <ele>1215.221</ele>
      <time>2021-10-12T13:09:27Z</time>
    </trkpt>
    <trkpt lat="38.635665011" lon="34.854002008">
      <ele>1215.369</ele>
      <time>2021-10-12T13:09:28Z</time>
    </trkpt>
    <trkpt lat="38.635649001" lon="34.854026986">
      <ele>1215.498</ele>
      <time>2021-10-12T13:09:29Z</time>
    </trkpt>
    <trkpt lat="38.635627963" lon="34.854051964">
      <ele>1215.588</ele>
      <time>2021-10-12T13:09:30Z</time>
    </trkpt>
    <trkpt lat="38.635612037" lon="34.854070991">
      <ele>1215.648</ele>
      <time>2021-10-12T13:09:31Z</time>
    </trkpt>
    <trkpt lat="38.635599967" lon="34.85409203">
      <ele>1215.739</ele>
      <time>2021-10-12T13:09:32Z</time>
    </trkpt>
    <trkpt lat="38.635586975" lon="34.854118014">
      <ele>1215.856</ele>
      <time>2021-10-12T13:09:33Z</time>
    </trkpt>
    <trkpt lat="38.635578007" lon="34.854141986">
      <ele>1215.977</ele>
      <time>2021-10-12T13:09:34Z</time>
    </trkpt>
    <trkpt lat="38.63556996" lon="34.854168976">
      <ele>1216.121</ele>
      <time>2021-10-12T13:09:34Z</time>
    </trkpt>
    <trkpt lat="38.635563003" lon="34.854198983">
      <ele>1216.289</ele>
      <time>2021-10-12T13:09:35Z</time>
    </trkpt>
    <trkpt lat="38.635551017" lon="34.854223039">
      <ele>1216.403</ele>
      <time>2021-10-12T13:09:36Z</time>
    </trkpt>
    <trkpt lat="38.635541964" lon="34.854256986">
      <ele>1216.634</ele>
      <time>2021-10-12T13:09:37Z</time>
    </trkpt>
    <trkpt lat="38.635537019" lon="34.85428297">
      <ele>1216.809</ele>
      <time>2021-10-12T13:09:38Z</time>
    </trkpt>
    <trkpt lat="38.635527967" lon="34.85430602">
      <ele>1216.954</ele>
      <time>2021-10-12T13:09:39Z</time>
    </trkpt>
    <trkpt lat="38.635526039" lon="34.854329992">
      <ele>1217.113</ele>
      <time>2021-10-12T13:09:39Z</time>
    </trkpt>
    <trkpt lat="38.635509023" lon="34.854341978">
      <ele>1217.157</ele>
      <time>2021-10-12T13:09:40Z</time>
    </trkpt>
    <trkpt lat="38.635500977" lon="34.854363017">
      <ele>1217.275</ele>
      <time>2021-10-12T13:09:41Z</time>
    </trkpt>
    <trkpt lat="38.635513969" lon="34.854387995">
      <ele>1217.474</ele>
      <time>2021-10-12T13:09:42Z</time>
    </trkpt>
    <trkpt lat="38.635528972" lon="34.854400987">
      <ele>1217.606</ele>
      <time>2021-10-12T13:09:42Z</time>
    </trkpt>
    <trkpt lat="38.635544982" lon="34.854414985">
      <ele>1217.754</ele>
      <time>2021-10-12T13:09:43Z</time>
    </trkpt>
    <trkpt lat="38.635564009" lon="34.854422025">
      <ele>1217.927</ele>
      <time>2021-10-12T13:09:44Z</time>
    </trkpt>
    <trkpt lat="38.635583036" lon="34.854427977">
      <ele>1218.172</ele>
      <time>2021-10-12T13:09:45Z</time>
    </trkpt>
    <trkpt lat="38.635607008" lon="34.854422025">
      <ele>1218.379</ele>
      <time>2021-10-12T13:09:45Z</time>
    </trkpt>
    <trkpt lat="38.635631986" lon="34.854407022">
      <ele>1218.519</ele>
      <time>2021-10-12T13:09:46Z</time>
    </trkpt>
    <trkpt lat="38.635653025" lon="34.854397969">
      <ele>1218.659</ele>
      <time>2021-10-12T13:09:47Z</time>
    </trkpt>
    <trkpt lat="38.635676997" lon="34.854392018">
      <ele>1218.852</ele>
      <time>2021-10-12T13:09:48Z</time>
    </trkpt>
    <trkpt lat="38.635694012" lon="34.854371985">
      <ele>1218.844</ele>
      <time>2021-10-12T13:09:49Z</time>
    </trkpt>
    <trkpt lat="38.635711027" lon="34.854346002">
      <ele>1218.772</ele>
      <time>2021-10-12T13:09:50Z</time>
    </trkpt>
    <trkpt lat="38.63571899" lon="34.854315994">
      <ele>1218.568</ele>
      <time>2021-10-12T13:09:51Z</time>
    </trkpt>
    <trkpt lat="38.635730976" lon="34.85429001">
      <ele>1218.432</ele>
      <time>2021-10-12T13:09:52Z</time>
    </trkpt>
    <trkpt lat="38.635743968" lon="34.854268972">
      <ele>1218.343</ele>
      <time>2021-10-12T13:09:53Z</time>
    </trkpt>
    <trkpt lat="38.635755032" lon="34.854243994">
      <ele>1218.193</ele>
      <time>2021-10-12T13:09:53Z</time>
    </trkpt>
    <trkpt lat="38.635767018" lon="34.854212981">
      <ele>1217.983</ele>
      <time>2021-10-12T13:09:54Z</time>
    </trkpt>
    <trkpt lat="38.63578001" lon="34.854180962">
      <ele>1217.761</ele>
      <time>2021-10-12T13:09:55Z</time>
    </trkpt>
    <trkpt lat="38.635787973" lon="34.854160007">
      <ele>1217.605</ele>
      <time>2021-10-12T13:09:56Z</time>
    </trkpt>
    <trkpt lat="38.635793002" lon="34.854137041">
      <ele>1217.405</ele>
      <time>2021-10-12T13:09:57Z</time>
    </trkpt>
    <trkpt lat="38.635799959" lon="34.85411399">
      <ele>1217.214</ele>
      <time>2021-10-12T13:09:58Z</time>
    </trkpt>
    <trkpt lat="38.635808006" lon="34.854087001">
      <ele>1216.983</ele>
      <time>2021-10-12T13:09:58Z</time>
    </trkpt>
    <trkpt lat="38.635814041" lon="34.854056993">
      <ele>1216.704</ele>
      <time>2021-10-12T13:09:59Z</time>
    </trkpt>
    <trkpt lat="38.63581798" lon="34.854030004">
      <ele>1216.441</ele>
      <time>2021-10-12T13:10:00Z</time>
    </trkpt>
    <trkpt lat="38.63582301" lon="34.85400402">
      <ele>1216.191</ele>
      <time>2021-10-12T13:10:01Z</time>
    </trkpt>
    <trkpt lat="38.635828961" lon="34.853975018">
      <ele>1215.91</ele>
      <time>2021-10-12T13:10:02Z</time>
    </trkpt>
    <trkpt lat="38.635842958" lon="34.853948029">
      <ele>1215.708</ele>
      <time>2021-10-12T13:10:03Z</time>
    </trkpt>
    <trkpt lat="38.635858968" lon="34.85391601">
      <ele>1215.477</ele>
      <time>2021-10-12T13:10:04Z</time>
    </trkpt>
    <trkpt lat="38.635872966" lon="34.853881979">
      <ele>1215.236</ele>
      <time>2021-10-12T13:10:05Z</time>
    </trkpt>
    <trkpt lat="38.63588403" lon="34.85384996">
      <ele>1215.085</ele>
      <time>2021-10-12T13:10:06Z</time>
    </trkpt>
    <trkpt lat="38.635896016" lon="34.853818025">
      <ele>1214.941</ele>
      <time>2021-10-12T13:10:07Z</time>
    </trkpt>
    <trkpt lat="38.635912025" lon="34.853793969">
      <ele>1214.883</ele>
      <time>2021-10-12T13:10:08Z</time>
    </trkpt>
    <trkpt lat="38.635929041" lon="34.853772009">
      <ele>1214.848</ele>
      <time>2021-10-12T13:10:09Z</time>
    </trkpt>
    <trkpt lat="38.63594396" lon="34.853745019">
      <ele>1214.761</ele>
      <time>2021-10-12T13:10:10Z</time>
    </trkpt>
    <trkpt lat="38.635960976" lon="34.853714006">
      <ele>1214.66</ele>
      <time>2021-10-12T13:10:11Z</time>
    </trkpt>
    <trkpt lat="38.635980003" lon="34.853692967">
      <ele>1214.645</ele>
      <time>2021-10-12T13:10:12Z</time>
    </trkpt>
    <trkpt lat="38.63599903" lon="34.853671007">
      <ele>1214.624</ele>
      <time>2021-10-12T13:10:13Z</time>
    </trkpt>
    <trkpt lat="38.636018978" lon="34.853650974">
      <ele>1214.624</ele>
      <time>2021-10-12T13:10:14Z</time>
    </trkpt>
    <trkpt lat="38.636041023" lon="34.853635971">
      <ele>1214.674</ele>
      <time>2021-10-12T13:10:15Z</time>
    </trkpt>
    <trkpt lat="38.636066001" lon="34.853623984">
      <ele>1214.768</ele>
      <time>2021-10-12T13:10:16Z</time>
    </trkpt>
    <trkpt lat="38.636090979" lon="34.85361401">
      <ele>1214.876</ele>
      <time>2021-10-12T13:10:17Z</time>
    </trkpt>
    <trkpt lat="38.636118975" lon="34.853606969">
      <ele>1215.042</ele>
      <time>2021-10-12T13:10:18Z</time>
    </trkpt>
    <trkpt lat="38.636144958" lon="34.853598">
      <ele>1215.202</ele>
      <time>2021-10-12T13:10:19Z</time>
    </trkpt>
    <trkpt lat="38.636172032" lon="34.853590038">
      <ele>1215.379</ele>
      <time>2021-10-12T13:10:20Z</time>
    </trkpt>
    <trkpt lat="38.636199022" lon="34.85358702">
      <ele>1215.574</ele>
      <time>2021-10-12T13:10:21Z</time>
    </trkpt>
    <trkpt lat="38.636227017" lon="34.853586014">
      <ele>1215.782</ele>
      <time>2021-10-12T13:10:22Z</time>
    </trkpt>
    <trkpt lat="38.636255013" lon="34.853581991">
      <ele>1215.986</ele>
      <time>2021-10-12T13:10:23Z</time>
    </trkpt>
    <trkpt lat="38.636283008" lon="34.853581991">
      <ele>1216.198</ele>
      <time>2021-10-12T13:10:24Z</time>
    </trkpt>
    <trkpt lat="38.636308992" lon="34.853585009">
      <ele>1216.398</ele>
      <time>2021-10-12T13:10:25Z</time>
    </trkpt>
    <trkpt lat="38.63633397" lon="34.853591966">
      <ele>1216.591</ele>
      <time>2021-10-12T13:10:26Z</time>
    </trkpt>
    <trkpt lat="38.636356015" lon="34.85360303">
      <ele>1216.76</ele>
      <time>2021-10-12T13:10:26Z</time>
    </trkpt>
    <trkpt lat="38.63638401" lon="34.853613004">
      <ele>1216.985</ele>
      <time>2021-10-12T13:10:28Z</time>
    </trkpt>
    <trkpt lat="38.636407983" lon="34.853623984">
      <ele>1217.408</ele>
      <time>2021-10-12T13:10:29Z</time>
    </trkpt>
    <trkpt lat="38.636430027" lon="34.853633959">
      <ele>1217.815</ele>
      <time>2021-10-12T13:10:29Z</time>
    </trkpt>
    <trkpt lat="38.636452993" lon="34.853644017">
      <ele>1218.224</ele>
      <time>2021-10-12T13:10:30Z</time>
    </trkpt>
    <trkpt lat="38.636473026" lon="34.853653992">
      <ele>1218.581</ele>
      <time>2021-10-12T13:10:31Z</time>
    </trkpt>
    <trkpt lat="38.636492975" lon="34.853666984">
      <ele>1218.952</ele>
      <time>2021-10-12T13:10:32Z</time>
    </trkpt>
    <trkpt lat="38.636513008" lon="34.853677964">
      <ele>1219.294</ele>
      <time>2021-10-12T13:10:33Z</time>
    </trkpt>
    <trkpt lat="38.63653698" lon="34.853685005">
      <ele>1219.647</ele>
      <time>2021-10-12T13:10:34Z</time>
    </trkpt>
    <trkpt lat="38.636557013" lon="34.85368601">
      <ele>1219.904</ele>
      <time>2021-10-12T13:10:34Z</time>
    </trkpt>
    <trkpt lat="38.636584003" lon="34.853689028">
      <ele>1220.257</ele>
      <time>2021-10-12T13:10:35Z</time>
    </trkpt>
    <trkpt lat="38.636602024" lon="34.853689028">
      <ele>1220.48</ele>
      <time>2021-10-12T13:10:36Z</time>
    </trkpt>
    <trkpt lat="38.636623984" lon="34.853689028">
      <ele>1220.752</ele>
      <time>2021-10-12T13:10:37Z</time>
    </trkpt>
    <trkpt lat="38.636647034" lon="34.853689028">
      <ele>1221.037</ele>
      <time>2021-10-12T13:10:38Z</time>
    </trkpt>
    <trkpt lat="38.636664972" lon="34.853694979">
      <ele>1221.281</ele>
      <time>2021-10-12T13:10:38Z</time>
    </trkpt>
    <trkpt lat="38.636682993" lon="34.853703026">
      <ele>1221.39</ele>
      <time>2021-10-12T13:10:39Z</time>
    </trkpt>
    <trkpt lat="38.636728971" lon="34.853741472">
      <ele>1221.694</ele>
      <time>2021-10-12T13:10:41Z</time>
    </trkpt>
    <trkpt lat="38.636744044" lon="34.853851262">
      <ele>1222.143</ele>
      <time>2021-10-12T13:10:44Z</time>
    </trkpt>
    <trkpt lat="38.636710005" lon="34.854305761">
      <ele>1223.0</ele>
      <time>2021-10-12T13:10:58Z</time>
    </trkpt>
    <trkpt lat="38.63668949" lon="34.854597411">
      <ele>1223.0</ele>
      <time>2021-10-12T13:11:06Z</time>
    </trkpt>
    <trkpt lat="38.636662087" lon="34.854852827">
      <ele>1222.538</ele>
      <time>2021-10-12T13:11:14Z</time>
    </trkpt>
    <trkpt lat="38.636645898" lon="34.855013393">
      <ele>1222.03</ele>
      <time>2021-10-12T13:11:18Z</time>
    </trkpt>
    <trkpt lat="38.636666829" lon="34.855113132">
      <ele>1221.592</ele>
      <time>2021-10-12T13:11:21Z</time>
    </trkpt>
    <trkpt lat="38.636725451" lon="34.855153041">
      <ele>1221.121</ele>
      <time>2021-10-12T13:11:24Z</time>
    </trkpt>
    <trkpt lat="38.636838244" lon="34.855214609">
      <ele>1220.133</ele>
      <time>2021-10-12T13:11:28Z</time>
    </trkpt>
    <trkpt lat="38.637082182" lon="34.855241138">
      <ele>1219.264</ele>
      <time>2021-10-12T13:11:37Z</time>
    </trkpt>
    <trkpt lat="38.637233364" lon="34.855253549">
      <ele>1219.167</ele>
      <time>2021-10-12T13:11:43Z</time>
    </trkpt>
    <trkpt lat="38.637397668" lon="34.855267233">
      <ele>1219.028</ele>
      <time>2021-10-12T13:11:49Z</time>
    </trkpt>
    <trkpt lat="38.637547637" lon="34.855224906">
      <ele>1218.486</ele>
      <time>2021-10-12T13:11:55Z</time>
    </trkpt>
    <trkpt lat="38.637761347" lon="34.855242266">
      <ele>1216.177</ele>
      <time>2021-10-12T13:12:03Z</time>
    </trkpt>
    <trkpt lat="38.637934998" lon="34.85527698">
      <ele>1214.3</ele>
      <time>2021-10-12T13:12:09Z</time>
    </trkpt>
    <trkpt lat="38.637960982" lon="34.855291983">
      <ele>1213.953</ele>
      <time>2021-10-12T13:12:10Z</time>
    </trkpt>
    <trkpt lat="38.637983026" lon="34.855307993">
      <ele>1213.646</ele>
      <time>2021-10-12T13:12:11Z</time>
    </trkpt>
    <trkpt lat="38.638003981" lon="34.855322996">
      <ele>1213.364</ele>
      <time>2021-10-12T13:12:12Z</time>
    </trkpt>
    <trkpt lat="38.638031976" lon="34.855342023">
      <ele>1213.004</ele>
      <time>2021-10-12T13:12:13Z</time>
    </trkpt>
    <trkpt lat="38.638055027" lon="34.855355015">
      <ele>1212.727</ele>
      <time>2021-10-12T13:12:14Z</time>
    </trkpt>
    <trkpt lat="38.638077993" lon="34.855370019">
      <ele>1212.398</ele>
      <time>2021-10-12T13:12:15Z</time>
    </trkpt>
    <trkpt lat="38.638099032" lon="34.855386028">
      <ele>1212.106</ele>
      <time>2021-10-12T13:12:16Z</time>
    </trkpt>
    <trkpt lat="38.638123004" lon="34.855396003">
      <ele>1211.81</ele>
      <time>2021-10-12T13:12:17Z</time>
    </trkpt>
    <trkpt lat="38.638149993" lon="34.855405977">
      <ele>1211.492</ele>
      <time>2021-10-12T13:12:18Z</time>
    </trkpt>
    <trkpt lat="38.638173966" lon="34.855418969">
      <ele>1211.22</ele>
      <time>2021-10-12T13:12:19Z</time>
    </trkpt>
    <trkpt lat="38.638200033" lon="34.855431039">
      <ele>1210.942</ele>
      <time>2021-10-12T13:12:20Z</time>
    </trkpt>
    <trkpt lat="38.638224006" lon="34.85544797">
      <ele>1210.705</ele>
      <time>2021-10-12T13:12:21Z</time>
    </trkpt>
    <trkpt lat="38.638252001" lon="34.855461968">
      <ele>1210.446</ele>
      <time>2021-10-12T13:12:22Z</time>
    </trkpt>
    <trkpt lat="38.638275973" lon="34.85547496">
      <ele>1210.243</ele>
      <time>2021-10-12T13:12:23Z</time>
    </trkpt>
    <trkpt lat="38.638301035" lon="34.855485018">
      <ele>1210.038</ele>
      <time>2021-10-12T13:12:24Z</time>
    </trkpt>
    <trkpt lat="38.638322996" lon="34.855500022">
      <ele>1209.889</ele>
      <time>2021-10-12T13:12:25Z</time>
    </trkpt>
    <trkpt lat="38.638346968" lon="34.855511002">
      <ele>1209.602</ele>
      <time>2021-10-12T13:12:26Z</time>
    </trkpt>
    <trkpt lat="38.638368007" lon="34.855517959">
      <ele>1209.257</ele>
      <time>2021-10-12T13:12:27Z</time>
    </trkpt>
    <trkpt lat="38.638380999" lon="34.855534974">
      <ele>1209.081</ele>
      <time>2021-10-12T13:12:27Z</time>
    </trkpt>
    <trkpt lat="38.638403965" lon="34.855548972">
      <ele>1208.711</ele>
      <time>2021-10-12T13:12:28Z</time>
    </trkpt>
    <trkpt lat="38.638425004" lon="34.855555007">
      <ele>1208.349</ele>
      <time>2021-10-12T13:12:29Z</time>
    </trkpt>
    <trkpt lat="38.638449982" lon="34.855564982">
      <ele>1207.943</ele>
      <time>2021-10-12T13:12:30Z</time>
    </trkpt>
    <trkpt lat="38.638475966" lon="34.855571017">
      <ele>1207.518</ele>
      <time>2021-10-12T13:12:31Z</time>
    </trkpt>
    <trkpt lat="38.638503039" lon="34.855577974">
      <ele>1207.093</ele>
      <time>2021-10-12T13:12:32Z</time>
    </trkpt>
    <trkpt lat="38.638528017" lon="34.855585014">
      <ele>1206.719</ele>
      <time>2021-10-12T13:12:33Z</time>
    </trkpt>
    <trkpt lat="38.638549978" lon="34.855589038">
      <ele>1206.382</ele>
      <time>2021-10-12T13:12:34Z</time>
    </trkpt>
    <trkpt lat="38.638573028" lon="34.855593983">
      <ele>1206.044</ele>
      <time>2021-10-12T13:12:35Z</time>
    </trkpt>
    <trkpt lat="38.638594989" lon="34.855597001">
      <ele>1205.712</ele>
      <time>2021-10-12T13:12:36Z</time>
    </trkpt>
    <trkpt lat="38.638618039" lon="34.855604963">
      <ele>1205.425</ele>
      <time>2021-10-12T13:12:36Z</time>
    </trkpt>
    <trkpt lat="38.638641005" lon="34.855617033">
      <ele>1205.186</ele>
      <time>2021-10-12T13:12:37Z</time>
    </trkpt>
    <trkpt lat="38.638664978" lon="34.855627008">
      <ele>1204.896</ele>
      <time>2021-10-12T13:12:38Z</time>
    </trkpt>
    <trkpt lat="38.63868501" lon="34.855637988">
      <ele>1204.668</ele>
      <time>2021-10-12T13:12:39Z</time>
    </trkpt>
    <trkpt lat="38.638704959" lon="34.855655003">
      <ele>1204.481</ele>
      <time>2021-10-12T13:12:40Z</time>
    </trkpt>
    <trkpt lat="38.638723986" lon="34.855670007">
      <ele>1204.276</ele>
      <time>2021-10-12T13:12:41Z</time>
    </trkpt>
    <trkpt lat="38.638745025" lon="34.855688028">
      <ele>1204.043</ele>
      <time>2021-10-12T13:12:42Z</time>
    </trkpt>
    <trkpt lat="38.638763968" lon="34.855702026">
      <ele>1203.8</ele>
      <time>2021-10-12T13:12:43Z</time>
    </trkpt>
    <trkpt lat="38.638781989" lon="34.855722981">
      <ele>1203.606</ele>
      <time>2021-10-12T13:12:43Z</time>
    </trkpt>
    <trkpt lat="38.638794981" lon="34.855742007">
      <ele>1203.477</ele>
      <time>2021-10-12T13:12:44Z</time>
    </trkpt>
    <trkpt lat="38.638804033" lon="34.855763968">
      <ele>1203.431</ele>
      <time>2021-10-12T13:12:45Z</time>
    </trkpt>
    <trkpt lat="38.638819959" lon="34.855785007">
      <ele>1203.229</ele>
      <time>2021-10-12T13:12:46Z</time>
    </trkpt>
    <trkpt lat="38.638832029" lon="34.855805039">
      <ele>1203.085</ele>
      <time>2021-10-12T13:12:46Z</time>
    </trkpt>
    <trkpt lat="38.638848038" lon="34.85581602">
      <ele>1202.802</ele>
      <time>2021-10-12T13:12:47Z</time>
    </trkpt>
    <trkpt lat="38.638866981" lon="34.855827">
      <ele>1202.447</ele>
      <time>2021-10-12T13:12:48Z</time>
    </trkpt>
    <trkpt lat="38.63888802" lon="34.855842004">
      <ele>1202.081</ele>
      <time>2021-10-12T13:12:49Z</time>
    </trkpt>
    <trkpt lat="38.638907969" lon="34.855854996">
      <ele>1201.871</ele>
      <time>2021-10-12T13:12:50Z</time>
    </trkpt>
    <trkpt lat="38.638930013" lon="34.855868993">
      <ele>1201.627</ele>
      <time>2021-10-12T13:12:51Z</time>
    </trkpt>
    <trkpt lat="38.638951974" lon="34.855881985">
      <ele>1201.362</ele>
      <time>2021-10-12T13:12:51Z</time>
    </trkpt>
    <trkpt lat="38.63897603" lon="34.855892966">
      <ele>1201.04</ele>
      <time>2021-10-12T13:12:52Z</time>
    </trkpt>
    <trkpt lat="38.639000002" lon="34.85590403">
      <ele>1200.705</ele>
      <time>2021-10-12T13:12:53Z</time>
    </trkpt>
    <trkpt lat="38.639023975" lon="34.855910987">
      <ele>1200.342</ele>
      <time>2021-10-12T13:12:54Z</time>
    </trkpt>
    <trkpt lat="38.639047025" lon="34.855918027">
      <ele>1199.985</ele>
      <time>2021-10-12T13:12:55Z</time>
    </trkpt>
    <trkpt lat="38.639069991" lon="34.85592599">
      <ele>1199.624</ele>
      <time>2021-10-12T13:12:56Z</time>
    </trkpt>
    <trkpt lat="38.639093041" lon="34.855933031">
      <ele>1199.25</ele>
      <time>2021-10-12T13:12:57Z</time>
    </trkpt>
    <trkpt lat="38.639115002" lon="34.855936971">
      <ele>1198.883</ele>
      <time>2021-10-12T13:12:58Z</time>
    </trkpt>
    <trkpt lat="38.639140986" lon="34.855942">
      <ele>1198.442</ele>
      <time>2021-10-12T13:12:59Z</time>
    </trkpt>
    <trkpt lat="38.639165964" lon="34.855944011">
      <ele>1198.012</ele>
      <time>2021-10-12T13:13:00Z</time>
    </trkpt>
    <trkpt lat="38.63919002" lon="34.855949041">
      <ele>1197.545</ele>
      <time>2021-10-12T13:13:01Z</time>
    </trkpt>
    <trkpt lat="38.639210975" lon="34.855954992">
      <ele>1197.133</ele>
      <time>2021-10-12T13:13:01Z</time>
    </trkpt>
    <trkpt lat="38.639231008" lon="34.855958009">
      <ele>1196.738</ele>
      <time>2021-10-12T13:13:02Z</time>
    </trkpt>
    <trkpt lat="38.639252968" lon="34.855963038">
      <ele>1196.302</ele>
      <time>2021-10-12T13:13:03Z</time>
    </trkpt>
    <trkpt lat="38.639274007" lon="34.855972007">
      <ele>1195.875</ele>
      <time>2021-10-12T13:13:04Z</time>
    </trkpt>
    <trkpt lat="38.639294039" lon="34.855981981">
      <ele>1195.462</ele>
      <time>2021-10-12T13:13:04Z</time>
    </trkpt>
    <trkpt lat="38.639320023" lon="34.855989022">
      <ele>1194.93</ele>
      <time>2021-10-12T13:13:05Z</time>
    </trkpt>
    <trkpt lat="38.639346007" lon="34.85600302">
      <ele>1194.377</ele>
      <time>2021-10-12T13:13:07Z</time>
    </trkpt>
    <trkpt lat="38.639371991" lon="34.856014">
      <ele>1193.823</ele>
      <time>2021-10-12T13:13:08Z</time>
    </trkpt>
    <trkpt lat="38.639397975" lon="34.856023975">
      <ele>1193.265</ele>
      <time>2021-10-12T13:13:09Z</time>
    </trkpt>
    <trkpt lat="38.639422031" lon="34.856034033">
      <ele>1192.739</ele>
      <time>2021-10-12T13:13:09Z</time>
    </trkpt>
    <trkpt lat="38.639439968" lon="34.856048031">
      <ele>1192.32</ele>
      <time>2021-10-12T13:13:10Z</time>
    </trkpt>
    <trkpt lat="38.639463019" lon="34.856052976">
      <ele>1191.769</ele>
      <time>2021-10-12T13:13:11Z</time>
    </trkpt>
    <trkpt lat="38.639493026" lon="34.856053982">
      <ele>1191.053</ele>
      <time>2021-10-12T13:13:12Z</time>
    </trkpt>
    <trkpt lat="38.639523033" lon="34.856055994">
      <ele>1190.33</ele>
      <time>2021-10-12T13:13:13Z</time>
    </trkpt>
    <trkpt lat="38.639550023" lon="34.856056999">
      <ele>1189.682</ele>
      <time>2021-10-12T13:13:14Z</time>
    </trkpt>
    <trkpt lat="38.639575001" lon="34.856058005">
      <ele>1189.081</ele>
      <time>2021-10-12T13:13:15Z</time>
    </trkpt>
    <trkpt lat="38.639598973" lon="34.856060017">
      <ele>1188.494</ele>
      <time>2021-10-12T13:13:16Z</time>
    </trkpt>
    <trkpt lat="38.639625041" lon="34.856063034">
      <ele>1187.847</ele>
      <time>2021-10-12T13:13:17Z</time>
    </trkpt>
    <trkpt lat="38.639653036" lon="34.856065968">
      <ele>1187.15</ele>
      <time>2021-10-12T13:13:18Z</time>
    </trkpt>
    <trkpt lat="38.639678014" lon="34.856076026">
      <ele>1186.453</ele>
      <time>2021-10-12T13:13:19Z</time>
    </trkpt>
    <trkpt lat="38.639702993" lon="34.856083989">
      <ele>1185.764</ele>
      <time>2021-10-12T13:13:20Z</time>
    </trkpt>
    <trkpt lat="38.639727971" lon="34.856092036">
      <ele>1185.104</ele>
      <time>2021-10-12T13:13:21Z</time>
    </trkpt>
    <trkpt lat="38.639745992" lon="34.856093964">
      <ele>1184.763</ele>
      <time>2021-10-12T13:13:22Z</time>
    </trkpt>
    <trkpt lat="38.639764013" lon="34.856079966">
      <ele>1184.601</ele>
      <time>2021-10-12T13:13:22Z</time>
    </trkpt>
    <trkpt lat="38.639779016" lon="34.85605197">
      <ele>1184.66</ele>
      <time>2021-10-12T13:13:23Z</time>
    </trkpt>
    <trkpt lat="38.639797959" lon="34.856053982">
      <ele>1184.31</ele>
      <time>2021-10-12T13:13:24Z</time>
    </trkpt>
    <trkpt lat="38.639812963" lon="34.856078038">
      <ele>1183.763</ele>
      <time>2021-10-12T13:13:25Z</time>
    </trkpt>
    <trkpt lat="38.639814975" lon="34.856105028">
      <ele>1183.403</ele>
      <time>2021-10-12T13:13:26Z</time>
    </trkpt>
    <trkpt lat="38.639815981" lon="34.856127994">
      <ele>1183.09</ele>
      <time>2021-10-12T13:13:27Z</time>
    </trkpt>
    <trkpt lat="38.639807012" lon="34.856153978">
      <ele>1182.904</ele>
      <time>2021-10-12T13:13:27Z</time>
    </trkpt>
    <trkpt lat="38.639813969" lon="34.856185997">
      <ele>1182.359</ele>
      <time>2021-10-12T13:13:28Z</time>
    </trkpt>
    <trkpt lat="38.639815981" lon="34.856212987">
      <ele>1181.969</ele>
      <time>2021-10-12T13:13:29Z</time>
    </trkpt>
    <trkpt lat="38.639810029" lon="34.856236037">
      <ele>1181.763</ele>
      <time>2021-10-12T13:13:30Z</time>
    </trkpt>
    <trkpt lat="38.639812963" lon="34.856261015">
      <ele>1181.384</ele>
      <time>2021-10-12T13:13:31Z</time>
    </trkpt>
    <trkpt lat="38.639835007" lon="34.856267972">
      <ele>1180.94</ele>
      <time>2021-10-12T13:13:31Z</time>
    </trkpt>
    <trkpt lat="38.63985504" lon="34.856267972">
      <ele>1180.62</ele>
      <time>2021-10-12T13:13:32Z</time>
    </trkpt>
    <trkpt lat="38.639872978" lon="34.856269984">
      <ele>1180.309</ele>
      <time>2021-10-12T13:13:33Z</time>
    </trkpt>
    <trkpt lat="38.639892004" lon="34.856266966">
      <ele>1180.043</ele>
      <time>2021-10-12T13:13:33Z</time>
    </trkpt>
    <trkpt lat="38.639910026" lon="34.856262021">
      <ele>1179.814</ele>
      <time>2021-10-12T13:13:34Z</time>
    </trkpt>
    <trkpt lat="38.639928969" lon="34.856276019">
      <ele>1179.346</ele>
      <time>2021-10-12T13:13:35Z</time>
    </trkpt>
    <trkpt lat="38.639947996" lon="34.856263027">
      <ele>1179.193</ele>
      <time>2021-10-12T13:13:36Z</time>
    </trkpt>
    <trkpt lat="38.639965011" lon="34.85627803">
      <ele>1178.751</ele>
      <time>2021-10-12T13:13:37Z</time>
    </trkpt>
    <trkpt lat="38.639984038" lon="34.85627803">
      <ele>1178.45</ele>
      <time>2021-10-12T13:13:37Z</time>
    </trkpt>
    <trkpt lat="38.640001975" lon="34.856279036">
      <ele>1178.165</ele>
      <time>2021-10-12T13:13:38Z</time>
    </trkpt>
    <trkpt lat="38.640019996" lon="34.856286999">
      <ele>1177.884</ele>
      <time>2021-10-12T13:13:39Z</time>
    </trkpt>
    <trkpt lat="38.640087973" lon="34.856294962">
      <ele>1177.064</ele>
      <time>2021-10-12T13:13:41Z</time>
    </trkpt>
    <trkpt lat="38.640107" lon="34.856290016">
      <ele>1176.912</ele>
      <time>2021-10-12T13:13:42Z</time>
    </trkpt>
    <trkpt lat="38.640127033" lon="34.856288005">
      <ele>1176.718</ele>
      <time>2021-10-12T13:13:43Z</time>
    </trkpt>
    <trkpt lat="38.640153017" lon="34.856277024">
      <ele>1176.556</ele>
      <time>2021-10-12T13:13:44Z</time>
    </trkpt>
    <trkpt lat="38.640173972" lon="34.856280964">
      <ele>1176.287</ele>
      <time>2021-10-12T13:13:44Z</time>
    </trkpt>
    <trkpt lat="38.640191993" lon="34.856297979">
      <ele>1175.908</ele>
      <time>2021-10-12T13:13:45Z</time>
    </trkpt>
    <trkpt lat="38.640208002" lon="34.856286999">
      <ele>1175.854</ele>
      <time>2021-10-12T13:13:46Z</time>
    </trkpt>
    <trkpt lat="38.640218982" lon="34.856264032">
      <ele>1175.983</ele>
      <time>2021-10-12T13:13:47Z</time>
    </trkpt>
    <trkpt lat="38.640240021" lon="34.85625104">
      <ele>1175.897</ele>
      <time>2021-10-12T13:13:48Z</time>
    </trkpt>
    <trkpt lat="38.640260976" lon="34.85622799">
      <ele>1175.919</ele>
      <time>2021-10-12T13:13:49Z</time>
    </trkpt>
    <trkpt lat="38.640312022" lon="34.856225979">
      <ele>1175.317</ele>
      <time>2021-10-12T13:13:50Z</time>
    </trkpt>
    <trkpt lat="38.640331971" lon="34.856218016">
      <ele>1175.14</ele>
      <time>2021-10-12T13:13:51Z</time>
    </trkpt>
    <trkpt lat="38.640352003" lon="34.856223967">
      <ele>1174.821</ele>
      <time>2021-10-12T13:13:52Z</time>
    </trkpt>
    <trkpt lat="38.640377987" lon="34.856236037">
      <ele>1174.37</ele>
      <time>2021-10-12T13:13:53Z</time>
    </trkpt>
    <trkpt lat="38.640395002" lon="34.856260009">
      <ele>1173.93</ele>
      <time>2021-10-12T13:13:54Z</time>
    </trkpt>
    <trkpt lat="38.640407994" lon="34.856280042">
      <ele>1173.586</ele>
      <time>2021-10-12T13:13:55Z</time>
    </trkpt>
    <trkpt lat="38.640422998" lon="34.856306026">
      <ele>1173.171</ele>
      <time>2021-10-12T13:13:56Z</time>
    </trkpt>
    <trkpt lat="38.640434984" lon="34.856325975">
      <ele>1172.853</ele>
      <time>2021-10-12T13:13:56Z</time>
    </trkpt>
    <trkpt lat="38.640453005" lon="34.856329998">
      <ele>1172.61</ele>
      <time>2021-10-12T13:13:57Z</time>
    </trkpt>
    <trkpt lat="38.640479995" lon="34.856331004">
      <ele>1172.29</ele>
      <time>2021-10-12T13:13:58Z</time>
    </trkpt>
    <trkpt lat="38.640502039" lon="34.856326981">
      <ele>1172.067</ele>
      <time>2021-10-12T13:13:59Z</time>
    </trkpt>
    <trkpt lat="38.640522994" lon="34.856322035">
      <ele>1171.861</ele>
      <time>2021-10-12T13:14:00Z</time>
    </trkpt>
    <trkpt lat="38.640539004" lon="34.85633201">
      <ele>1171.6</ele>
      <time>2021-10-12T13:14:00Z</time>
    </trkpt>
    <trkpt lat="38.640554007" lon="34.856357994">
      <ele>1171.24</ele>
      <time>2021-10-12T13:14:01Z</time>
    </trkpt>
    <trkpt lat="38.640563982" lon="34.856378026">
      <ele>1171.015</ele>
      <time>2021-10-12T13:14:02Z</time>
    </trkpt>
    <trkpt lat="38.640579991" lon="34.85639303">
      <ele>1170.798</ele>
      <time>2021-10-12T13:14:03Z</time>
    </trkpt>
    <trkpt lat="38.640589966" lon="34.856413985">
      <ele>1170.605</ele>
      <time>2021-10-12T13:14:03Z</time>
    </trkpt>
    <trkpt lat="38.640655009" lon="34.856408034">
      <ele>1170.22</ele>
      <time>2021-10-12T13:14:06Z</time>
    </trkpt>
    <trkpt lat="38.640674036" lon="34.856403004">
      <ele>1170.11</ele>
      <time>2021-10-12T13:14:07Z</time>
    </trkpt>
    <trkpt lat="38.640698008" lon="34.856407028">
      <ele>1169.944</ele>
      <time>2021-10-12T13:14:07Z</time>
    </trkpt>
    <trkpt lat="38.640726004" lon="34.85640401">
      <ele>1169.764</ele>
      <time>2021-10-12T13:14:08Z</time>
    </trkpt>
    <trkpt lat="38.640747964" lon="34.856391018">
      <ele>1169.615</ele>
      <time>2021-10-12T13:14:09Z</time>
    </trkpt>
    <trkpt lat="38.640765985" lon="34.856406022">
      <ele>1169.502</ele>
      <time>2021-10-12T13:14:10Z</time>
    </trkpt>
    <trkpt lat="38.640767997" lon="34.856376015">
      <ele>1169.492</ele>
      <time>2021-10-12T13:14:11Z</time>
    </trkpt>
    <trkpt lat="38.640774032" lon="34.856348019">
      <ele>1169.49</ele>
      <time>2021-10-12T13:14:12Z</time>
    </trkpt>
    <trkpt lat="38.64078803" lon="34.856329998">
      <ele>1169.395</ele>
      <time>2021-10-12T13:14:13Z</time>
    </trkpt>
    <trkpt lat="38.640805967" lon="34.856311977">
      <ele>1169.252</ele>
      <time>2021-10-12T13:14:13Z</time>
    </trkpt>
    <trkpt lat="38.64081502" lon="34.85628901">
      <ele>1169.179</ele>
      <time>2021-10-12T13:14:14Z</time>
    </trkpt>
    <trkpt lat="38.640838992" lon="34.856284987">
      <ele>1168.929</ele>
      <time>2021-10-12T13:14:15Z</time>
    </trkpt>
    <trkpt lat="38.640858019" lon="34.856280042">
      <ele>1168.683</ele>
      <time>2021-10-12T13:14:16Z</time>
    </trkpt>
    <trkpt lat="38.640920967" lon="34.856178034">
      <ele>1167.411</ele>
      <time>2021-10-12T13:14:20Z</time>
    </trkpt>
    <trkpt lat="38.640988022" lon="34.856088012">
      <ele>1165.446</ele>
      <time>2021-10-12T13:14:23Z</time>
    </trkpt>
    <trkpt lat="38.641052982" lon="34.85600302">
      <ele>1163.17</ele>
      <time>2021-10-12T13:14:27Z</time>
    </trkpt>
    <trkpt lat="38.641075026" lon="34.855975024">
      <ele>1162.373</ele>
      <time>2021-10-12T13:14:28Z</time>
    </trkpt>
    <trkpt lat="38.641088018" lon="34.855948035">
      <ele>1161.786</ele>
      <time>2021-10-12T13:14:29Z</time>
    </trkpt>
    <trkpt lat="38.641102016" lon="34.855934037">
      <ele>1161.305</ele>
      <time>2021-10-12T13:14:29Z</time>
    </trkpt>
    <trkpt lat="38.641116014" lon="34.855908975">
      <ele>1160.782</ele>
      <time>2021-10-12T13:14:30Z</time>
    </trkpt>
    <trkpt lat="38.641124982" lon="34.855883997">
      <ele>1160.447</ele>
      <time>2021-10-12T13:14:31Z</time>
    </trkpt>
    <trkpt lat="38.641148033" lon="34.855877962">
      <ele>1160.216</ele>
      <time>2021-10-12T13:14:32Z</time>
    </trkpt>
    <trkpt lat="38.641168987" lon="34.855878968">
      <ele>1160.076</ele>
      <time>2021-10-12T13:14:33Z</time>
    </trkpt>
    <trkpt lat="38.64118902" lon="34.85586497">
      <ele>1159.781</ele>
      <time>2021-10-12T13:14:34Z</time>
    </trkpt>
    <trkpt lat="38.641203018" lon="34.855848039">
      <ele>1159.497</ele>
      <time>2021-10-12T13:14:34Z</time>
    </trkpt>
    <trkpt lat="38.641218022" lon="34.855825994">
      <ele>1159.21</ele>
      <time>2021-10-12T13:14:35Z</time>
    </trkpt>
    <trkpt lat="38.641235037" lon="34.855804034">
      <ele>1159.014</ele>
      <time>2021-10-12T13:14:36Z</time>
    </trkpt>
    <trkpt lat="38.641254986" lon="34.855781989">
      <ele>1158.773</ele>
      <time>2021-10-12T13:14:37Z</time>
    </trkpt>
    <trkpt lat="38.641274013" lon="34.855761034">
      <ele>1158.522</ele>
      <time>2021-10-12T13:14:38Z</time>
    </trkpt>
    <trkpt lat="38.64129304" lon="34.85573899">
      <ele>1158.245</ele>
      <time>2021-10-12T13:14:39Z</time>
    </trkpt>
    <trkpt lat="38.641310977" lon="34.855719041">
      <ele>1157.969</ele>
      <time>2021-10-12T13:14:40Z</time>
    </trkpt>
    <trkpt lat="38.641332015" lon="34.855704959">
      <ele>1157.674</ele>
      <time>2021-10-12T13:14:41Z</time>
    </trkpt>
    <trkpt lat="38.641350036" lon="34.855691968">
      <ele>1157.404</ele>
      <time>2021-10-12T13:14:41Z</time>
    </trkpt>
    <trkpt lat="38.641361017" lon="34.855665984">
      <ele>1157.117</ele>
      <time>2021-10-12T13:14:42Z</time>
    </trkpt>
    <trkpt lat="38.641371997" lon="34.85564">
      <ele>1156.814</ele>
      <time>2021-10-12T13:14:43Z</time>
    </trkpt>
    <trkpt lat="38.641384989" lon="34.855616027">
      <ele>1156.485</ele>
      <time>2021-10-12T13:14:44Z</time>
    </trkpt>
    <trkpt lat="38.64140301" lon="34.855594989">
      <ele>1156.335</ele>
      <time>2021-10-12T13:14:45Z</time>
    </trkpt>
    <trkpt lat="38.641424971" lon="34.855585014">
      <ele>1156.342</ele>
      <time>2021-10-12T13:14:46Z</time>
    </trkpt>
    <trkpt lat="38.641445003" lon="34.855579985">
      <ele>1156.378</ele>
      <time>2021-10-12T13:14:46Z</time>
    </trkpt>
    <trkpt lat="38.641465036" lon="34.855576968">
      <ele>1156.428</ele>
      <time>2021-10-12T13:14:47Z</time>
    </trkpt>
    <trkpt lat="38.641483979" lon="34.855571017">
      <ele>1156.454</ele>
      <time>2021-10-12T13:14:48Z</time>
    </trkpt>
    <trkpt lat="38.641500995" lon="34.855547966">
      <ele>1156.398</ele>
      <time>2021-10-12T13:14:49Z</time>
    </trkpt>
    <trkpt lat="38.641495965" lon="34.855517959">
      <ele>1156.364</ele>
      <time>2021-10-12T13:14:50Z</time>
    </trkpt>
    <trkpt lat="38.641497977" lon="34.855489042">
      <ele>1156.35</ele>
      <time>2021-10-12T13:14:51Z</time>
    </trkpt>
    <trkpt lat="38.641504012" lon="34.855464986">
      <ele>1156.335</ele>
      <time>2021-10-12T13:14:51Z</time>
    </trkpt>
    <trkpt lat="38.641515998" lon="34.855448976">
      <ele>1156.315</ele>
      <time>2021-10-12T13:14:52Z</time>
    </trkpt>
    <trkpt lat="38.641532008" lon="34.855433973">
      <ele>1156.276</ele>
      <time>2021-10-12T13:14:53Z</time>
    </trkpt>
    <trkpt lat="38.641550029" lon="34.855425004">
      <ele>1156.232</ele>
      <time>2021-10-12T13:14:53Z</time>
    </trkpt>
    <trkpt lat="38.641567966" lon="34.855420981">
      <ele>1156.192</ele>
      <time>2021-10-12T13:14:54Z</time>
    </trkpt>
    <trkpt lat="38.641589005" lon="34.855419975">
      <ele>1156.154</ele>
      <time>2021-10-12T13:14:55Z</time>
    </trkpt>
    <trkpt lat="38.641609037" lon="34.855419975">
      <ele>1156.12</ele>
      <time>2021-10-12T13:14:56Z</time>
    </trkpt>
    <trkpt lat="38.641632004" lon="34.855407989">
      <ele>1156.012</ele>
      <time>2021-10-12T13:14:57Z</time>
    </trkpt>
    <trkpt lat="38.641655976" lon="34.855393991">
      <ele>1155.865</ele>
      <time>2021-10-12T13:14:57Z</time>
    </trkpt>
    <trkpt lat="38.641679026" lon="34.855378987">
      <ele>1155.862</ele>
      <time>2021-10-12T13:14:58Z</time>
    </trkpt>
    <trkpt lat="38.641702998" lon="34.855364989">
      <ele>1156.02</ele>
      <time>2021-10-12T13:14:59Z</time>
    </trkpt>
    <trkpt lat="38.641724037" lon="34.855343029">
      <ele>1156.089</ele>
      <time>2021-10-12T13:15:00Z</time>
    </trkpt>
    <trkpt lat="38.641740968" lon="34.855320984">
      <ele>1156.114</ele>
      <time>2021-10-12T13:15:01Z</time>
    </trkpt>
    <trkpt lat="38.641743986" lon="34.855289971">
      <ele>1155.923</ele>
      <time>2021-10-12T13:15:02Z</time>
    </trkpt>
    <trkpt lat="38.641732" lon="34.855262982">
      <ele>1155.64</ele>
      <time>2021-10-12T13:15:03Z</time>
    </trkpt>
    <trkpt lat="38.641720014" lon="34.855232975">
      <ele>1155.384</ele>
      <time>2021-10-12T13:15:04Z</time>
    </trkpt>
    <trkpt lat="38.641710961" lon="34.855205985">
      <ele>1155.179</ele>
      <time>2021-10-12T13:15:05Z</time>
    </trkpt>
    <trkpt lat="38.641706016" lon="34.855175978">
      <ele>1155.007</ele>
      <time>2021-10-12T13:15:06Z</time>
    </trkpt>
    <trkpt lat="38.641701993" lon="34.85514597">
      <ele>1154.847</ele>
      <time>2021-10-12T13:15:07Z</time>
    </trkpt>
    <trkpt lat="38.641708028" lon="34.855118981">
      <ele>1154.79</ele>
      <time>2021-10-12T13:15:08Z</time>
    </trkpt>
    <trkpt lat="38.641709033" lon="34.855089979">
      <ele>1154.678</ele>
      <time>2021-10-12T13:15:08Z</time>
    </trkpt>
    <trkpt lat="38.641714985" lon="34.855058966">
      <ele>1154.597</ele>
      <time>2021-10-12T13:15:09Z</time>
    </trkpt>
    <trkpt lat="38.641723031" lon="34.855029965">
      <ele>1154.536</ele>
      <time>2021-10-12T13:15:10Z</time>
    </trkpt>
    <trkpt lat="38.641738035" lon="34.855004987">
      <ele>1154.536</ele>
      <time>2021-10-12T13:15:11Z</time>
    </trkpt>
    <trkpt lat="38.641751027" lon="34.85498202">
      <ele>1154.419</ele>
      <time>2021-10-12T13:15:12Z</time>
    </trkpt>
    <trkpt lat="38.64176603" lon="34.854959976">
      <ele>1154.273</ele>
      <time>2021-10-12T13:15:13Z</time>
    </trkpt>
    <trkpt lat="38.641778016" lon="34.854934998">
      <ele>1154.052</ele>
      <time>2021-10-12T13:15:14Z</time>
    </trkpt>
    <trkpt lat="38.641787991" lon="34.854902979">
      <ele>1153.717</ele>
      <time>2021-10-12T13:15:15Z</time>
    </trkpt>
    <trkpt lat="38.64179696" lon="34.854874983">
      <ele>1153.405</ele>
      <time>2021-10-12T13:15:16Z</time>
    </trkpt>
    <trkpt lat="38.641819004" lon="34.854857968">
      <ele>1153.233</ele>
      <time>2021-10-12T13:15:16Z</time>
    </trkpt>
    <trkpt lat="38.641839037" lon="34.854864003">
      <ele>1153.35</ele>
      <time>2021-10-12T13:15:17Z</time>
    </trkpt>
    <trkpt lat="38.64185798" lon="34.854881018">
      <ele>1153.636</ele>
      <time>2021-10-12T13:15:18Z</time>
    </trkpt>
    <trkpt lat="38.64188497" lon="34.854893005">
      <ele>1153.893</ele>
      <time>2021-10-12T13:15:19Z</time>
    </trkpt>
    <trkpt lat="38.641907014" lon="34.854885042">
      <ele>1153.829</ele>
      <time>2021-10-12T13:15:20Z</time>
    </trkpt>
    <trkpt lat="38.64192998" lon="34.854869032">
      <ele>1153.612</ele>
      <time>2021-10-12T13:15:21Z</time>
    </trkpt>
    <trkpt lat="38.641944984" lon="34.85485604">
      <ele>1153.428</ele>
      <time>2021-10-12T13:15:22Z</time>
    </trkpt>
    <trkpt lat="38.641961999" lon="34.854846988">
      <ele>1153.884</ele>
      <time>2021-10-12T13:15:22Z</time>
    </trkpt>
    <trkpt lat="38.641978009" lon="34.854827039">
      <ele>1154.125</ele>
      <time>2021-10-12T13:15:23Z</time>
    </trkpt>
    <trkpt lat="38.641991001" lon="34.85479502">
      <ele>1154.066</ele>
      <time>2021-10-12T13:15:24Z</time>
    </trkpt>
    <trkpt lat="38.641987983" lon="34.854770964">
      <ele>1153.546</ele>
      <time>2021-10-12T13:15:25Z</time>
    </trkpt>
    <trkpt lat="38.641991001" lon="34.854743974">
      <ele>1153.209</ele>
      <time>2021-10-12T13:15:26Z</time>
    </trkpt>
    <trkpt lat="38.641998963" lon="34.854710028">
      <ele>1152.993</ele>
      <time>2021-10-12T13:15:27Z</time>
    </trkpt>
    <trkpt lat="38.642008016" lon="34.85468396">
      <ele>1152.978</ele>
      <time>2021-10-12T13:15:28Z</time>
    </trkpt>
    <trkpt lat="38.642016985" lon="34.854654958">
      <ele>1152.893</ele>
      <time>2021-10-12T13:15:28Z</time>
    </trkpt>
    <trkpt lat="38.642025031" lon="34.854627969">
      <ele>1152.78</ele>
      <time>2021-10-12T13:15:29Z</time>
    </trkpt>
    <trkpt lat="38.642041041" lon="34.854611037">
      <ele>1153.068</ele>
      <time>2021-10-12T13:15:30Z</time>
    </trkpt>
    <trkpt lat="38.642042968" lon="34.854494026">
      <ele>1151.272</ele>
      <time>2021-10-12T13:15:33Z</time>
    </trkpt>
    <trkpt lat="38.642150005" lon="34.854430994">
      <ele>1153.049</ele>
      <time>2021-10-12T13:15:38Z</time>
    </trkpt>
    <trkpt lat="38.642185042" lon="34.854315994">
      <ele>1152.523</ele>
      <time>2021-10-12T13:15:41Z</time>
    </trkpt>
    <trkpt lat="38.642233992" lon="34.854196971">
      <ele>1151.874</ele>
      <time>2021-10-12T13:15:45Z</time>
    </trkpt>
    <trkpt lat="38.642273974" lon="34.854081972">
      <ele>1152.104</ele>
      <time>2021-10-12T13:15:49Z</time>
    </trkpt>
    <trkpt lat="38.642357038" lon="34.853997985">
      <ele>1152.888</ele>
      <time>2021-10-12T13:15:53Z</time>
    </trkpt>
    <trkpt lat="38.642375981" lon="34.853883991">
      <ele>1151.115</ele>
      <time>2021-10-12T13:15:56Z</time>
    </trkpt>
    <trkpt lat="38.642459968" lon="34.853940988">
      <ele>1153.184</ele>
      <time>2021-10-12T13:16:00Z</time>
    </trkpt>
    <trkpt lat="38.642819971" lon="34.853948029">
      <ele>1159.193</ele>
      <time>2021-10-12T13:16:13Z</time>
    </trkpt>
    <trkpt lat="38.642952992" lon="34.853608981">
      <ele>1149.489</ele>
      <time>2021-10-12T13:16:24Z</time>
    </trkpt>
    <trkpt lat="38.642978976" lon="34.853748037">
      <ele>1152.06</ele>
      <time>2021-10-12T13:16:28Z</time>
    </trkpt>
    <trkpt lat="38.643033039" lon="34.853846021">
      <ele>1153.398</ele>
      <time>2021-10-12T13:16:32Z</time>
    </trkpt>
    <trkpt lat="38.643104034" lon="34.853768991">
      <ele>1150.787</ele>
      <time>2021-10-12T13:16:35Z</time>
    </trkpt>
    <trkpt lat="38.643144015" lon="34.853630019">
      <ele>1147.431</ele>
      <time>2021-10-12T13:16:39Z</time>
    </trkpt>
    <trkpt lat="38.643238982" lon="34.853609987">
      <ele>1146.024</ele>
      <time>2021-10-12T13:16:43Z</time>
    </trkpt>
    <trkpt lat="38.643308971" lon="34.853705959">
      <ele>1147.0</ele>
      <time>2021-10-12T13:16:47Z</time>
    </trkpt>
    <trkpt lat="38.643325986" lon="34.853823977">
      <ele>1148.931</ele>
      <time>2021-10-12T13:16:50Z</time>
    </trkpt>
    <trkpt lat="38.643343002" lon="34.853850966">
      <ele>1149.218</ele>
      <time>2021-10-12T13:16:51Z</time>
    </trkpt>
    <trkpt lat="38.643436041" lon="34.853882985">
      <ele>1148.792</ele>
      <time>2021-10-12T13:16:55Z</time>
    </trkpt>
    <trkpt lat="38.643508963" lon="34.853893965">
      <ele>1148.208</ele>
      <time>2021-10-12T13:16:58Z</time>
    </trkpt>
    <trkpt lat="38.643526984" lon="34.853904024">
      <ele>1148.214</ele>
      <time>2021-10-12T13:16:58Z</time>
    </trkpt>
    <trkpt lat="38.643546011" lon="34.853908969">
      <ele>1148.098</ele>
      <time>2021-10-12T13:16:59Z</time>
    </trkpt>
    <trkpt lat="38.643564032" lon="34.853908969">
      <ele>1147.894</ele>
      <time>2021-10-12T13:17:00Z</time>
    </trkpt>
    <trkpt lat="38.643592028" lon="34.853911987">
      <ele>1147.633</ele>
      <time>2021-10-12T13:17:01Z</time>
    </trkpt>
    <trkpt lat="38.643610971" lon="34.853906035">
      <ele>1147.31</ele>
      <time>2021-10-12T13:17:01Z</time>
    </trkpt>
    <trkpt lat="38.643658999" lon="34.85390503">
      <ele>1147.098</ele>
      <time>2021-10-12T13:17:03Z</time>
    </trkpt>
    <trkpt lat="38.643707028" lon="34.853893965">
      <ele>1146.733</ele>
      <time>2021-10-12T13:17:05Z</time>
    </trkpt>
    <trkpt lat="38.643738041" lon="34.853901006">
      <ele>1146.721</ele>
      <time>2021-10-12T13:17:06Z</time>
    </trkpt>
    <trkpt lat="38.643832002" lon="34.853935037">
      <ele>1146.771</ele>
      <time>2021-10-12T13:17:10Z</time>
    </trkpt>
    <trkpt lat="38.643854968" lon="34.853929002">
      <ele>1146.591</ele>
      <time>2021-10-12T13:17:11Z</time>
    </trkpt>
    <trkpt lat="38.643942978" lon="34.853898995">
      <ele>1145.713</ele>
      <time>2021-10-12T13:17:14Z</time>
    </trkpt>
    <trkpt lat="38.644040041" lon="34.853919027">
      <ele>1145.178</ele>
      <time>2021-10-12T13:17:18Z</time>
    </trkpt>
    <trkpt lat="38.64413199" lon="34.853934031">
      <ele>1144.595</ele>
      <time>2021-10-12T13:17:21Z</time>
    </trkpt>
    <trkpt lat="38.644228969" lon="34.853895977">
      <ele>1144.051</ele>
      <time>2021-10-12T13:17:25Z</time>
    </trkpt>
    <trkpt lat="38.644249002" lon="34.853898995">
      <ele>1144.073</ele>
      <time>2021-10-12T13:17:26Z</time>
    </trkpt>
    <trkpt lat="38.64428102" lon="34.853886003">
      <ele>1143.985</ele>
      <time>2021-10-12T13:17:27Z</time>
    </trkpt>
    <trkpt lat="38.644300969" lon="34.853875022">
      <ele>1143.926</ele>
      <time>2021-10-12T13:17:28Z</time>
    </trkpt>
    <trkpt lat="38.644323014" lon="34.853860019">
      <ele>1143.838</ele>
      <time>2021-10-12T13:17:29Z</time>
    </trkpt>
    <trkpt lat="38.644358972" lon="34.853841998">
      <ele>1143.714</ele>
      <time>2021-10-12T13:17:30Z</time>
    </trkpt>
    <trkpt lat="38.644401971" lon="34.85381702">
      <ele>1143.522</ele>
      <time>2021-10-12T13:17:32Z</time>
    </trkpt>
    <trkpt lat="38.644474978" lon="34.853763962">
      <ele>1143.331</ele>
      <time>2021-10-12T13:17:35Z</time>
    </trkpt>
    <trkpt lat="38.644542033" lon="34.853682993">
      <ele>1143.051</ele>
      <time>2021-10-12T13:17:38Z</time>
    </trkpt>
    <trkpt lat="38.644631971" lon="34.853716018">
      <ele>1143.94</ele>
      <time>2021-10-12T13:17:42Z</time>
    </trkpt>
    <trkpt lat="38.644727021" lon="34.853705037">
      <ele>1144.353</ele>
      <time>2021-10-12T13:17:45Z</time>
    </trkpt>
    <trkpt lat="38.644692991" lon="34.853681987">
      <ele>1143.862</ele>
      <time>2021-10-12T13:17:47Z</time>
    </trkpt>
    <trkpt lat="38.644704977" lon="34.853660027">
      <ele>1143.62</ele>
      <time>2021-10-12T13:17:48Z</time>
    </trkpt>
    <trkpt lat="38.64472501" lon="34.853646029">
      <ele>1143.497</ele>
      <time>2021-10-12T13:17:48Z</time>
    </trkpt>
    <trkpt lat="38.644742025" lon="34.853637982">
      <ele>1143.336</ele>
      <time>2021-10-12T13:17:49Z</time>
    </trkpt>
    <trkpt lat="38.644738002" lon="34.853616022">
      <ele>1143.017</ele>
      <time>2021-10-12T13:17:50Z</time>
    </trkpt>
    <trkpt lat="38.644733978" lon="34.853586014">
      <ele>1142.848</ele>
      <time>2021-10-12T13:17:51Z</time>
    </trkpt>
    <trkpt lat="38.644749988" lon="34.853572017">
      <ele>1142.689</ele>
      <time>2021-10-12T13:17:51Z</time>
    </trkpt>
    <trkpt lat="38.64478997" lon="34.853558019">
      <ele>1142.332</ele>
      <time>2021-10-12T13:17:53Z</time>
    </trkpt>
    <trkpt lat="38.644845961" lon="34.853462968">
      <ele>1140.833</ele>
      <time>2021-10-12T13:17:56Z</time>
    </trkpt>
    <trkpt lat="38.644888038" lon="34.853360038">
      <ele>1138.801</ele>
      <time>2021-10-12T13:18:00Z</time>
    </trkpt>
    <trkpt lat="38.64498904" lon="34.85338401">
      <ele>1137.295</ele>
      <time>2021-10-12T13:18:03Z</time>
    </trkpt>
    <trkpt lat="38.645084007" lon="34.853375042">
      <ele>1135.389</ele>
      <time>2021-10-12T13:18:07Z</time>
    </trkpt>
    <trkpt lat="38.645186014" lon="34.853398008">
      <ele>1134.049</ele>
      <time>2021-10-12T13:18:11Z</time>
    </trkpt>
    <trkpt lat="38.645281987" lon="34.853372024">
      <ele>1131.873</ele>
      <time>2021-10-12T13:18:14Z</time>
    </trkpt>
    <trkpt lat="38.645345019" lon="34.853284014">
      <ele>1131.775</ele>
      <time>2021-10-12T13:18:18Z</time>
    </trkpt>
    <trkpt lat="38.645387013" lon="34.853171026">
      <ele>1132.075</ele>
      <time>2021-10-12T13:18:22Z</time>
    </trkpt>
    <trkpt lat="38.645425988" lon="34.853064995">
      <ele>1132.02</ele>
      <time>2021-10-12T13:18:25Z</time>
    </trkpt>
    <trkpt lat="38.645449039" lon="34.852928035">
      <ele>1132.597</ele>
      <time>2021-10-12T13:18:29Z</time>
    </trkpt>
    <trkpt lat="38.645511987" lon="34.852843964">
      <ele>1131.955</ele>
      <time>2021-10-12T13:18:32Z</time>
    </trkpt>
    <trkpt lat="38.645564038" lon="34.852822004">
      <ele>1130.97</ele>
      <time>2021-10-12T13:18:34Z</time>
    </trkpt>
    <trkpt lat="38.645638973" lon="34.852755032">
      <ele>1129.045</ele>
      <time>2021-10-12T13:18:38Z</time>
    </trkpt>
    <trkpt lat="38.645722037" lon="34.852710022">
      <ele>1126.952</ele>
      <time>2021-10-12T13:18:41Z</time>
    </trkpt>
    <trkpt lat="38.645761013" lon="34.852686971">
      <ele>1125.836</ele>
      <time>2021-10-12T13:18:43Z</time>
    </trkpt>
    <trkpt lat="38.645810969" lon="34.852581024">
      <ele>1124.083</ele>
      <time>2021-10-12T13:18:46Z</time>
    </trkpt>
    <trkpt lat="38.645868972" lon="34.852483962">
      <ele>1122.72</ele>
      <time>2021-10-12T13:18:50Z</time>
    </trkpt>
    <trkpt lat="38.645959999" lon="34.852433">
      <ele>1122.387</ele>
      <time>2021-10-12T13:18:54Z</time>
    </trkpt>
    <trkpt lat="38.646041974" lon="34.852383966">
      <ele>1122.378</ele>
      <time>2021-10-12T13:18:57Z</time>
    </trkpt>
    <trkpt lat="38.646129984" lon="34.852340966">
      <ele>1122.299</ele>
      <time>2021-10-12T13:19:00Z</time>
    </trkpt>
    <trkpt lat="38.646206008" lon="34.852401987">
      <ele>1119.557</ele>
      <time>2021-10-12T13:19:04Z</time>
    </trkpt>
    <trkpt lat="38.646143982" lon="34.852524027">
      <ele>1117.731</ele>
      <time>2021-10-12T13:19:08Z</time>
    </trkpt>
    <trkpt lat="38.646743959" lon="34.852430988">
      <ele>1114.011</ele>
      <time>2021-10-12T13:19:30Z</time>
    </trkpt>
    <trkpt lat="38.646840015" lon="34.85244398">
      <ele>1113.402</ele>
      <time>2021-10-12T13:19:34Z</time>
    </trkpt>
    <trkpt lat="38.646877985" lon="34.852547999">
      <ele>1113.806</ele>
      <time>2021-10-12T13:19:37Z</time>
    </trkpt>
    <trkpt lat="38.64686097" lon="34.852567026">
      <ele>1114.048</ele>
      <time>2021-10-12T13:19:38Z</time>
    </trkpt>
    <trkpt lat="38.646863988" lon="34.852601979">
      <ele>1114.439</ele>
      <time>2021-10-12T13:19:39Z</time>
    </trkpt>
    <trkpt lat="38.646878991" lon="34.852629974">
      <ele>1114.777</ele>
      <time>2021-10-12T13:19:40Z</time>
    </trkpt>
    <trkpt lat="38.646897012" lon="34.852653025">
      <ele>1115.092</ele>
      <time>2021-10-12T13:19:41Z</time>
    </trkpt>
    <trkpt lat="38.646910004" lon="34.852672974">
      <ele>1115.383</ele>
      <time>2021-10-12T13:19:42Z</time>
    </trkpt>
    <trkpt lat="38.646930037" lon="34.852694012">
      <ele>1115.737</ele>
      <time>2021-10-12T13:19:43Z</time>
    </trkpt>
    <trkpt lat="38.646946969" lon="34.852710022">
      <ele>1116.054</ele>
      <time>2021-10-12T13:19:43Z</time>
    </trkpt>
    <trkpt lat="38.646958033" lon="34.852686971">
      <ele>1115.84</ele>
      <time>2021-10-12T13:19:44Z</time>
    </trkpt>
    <trkpt lat="38.646976976" lon="34.85265797">
      <ele>1115.592</ele>
      <time>2021-10-12T13:19:45Z</time>
    </trkpt>
    <trkpt lat="38.647022992" lon="34.852556968">
      <ele>1114.277</ele>
      <time>2021-10-12T13:19:49Z</time>
    </trkpt>
    <trkpt lat="38.647084013" lon="34.852448003">
      <ele>1113.127</ele>
      <time>2021-10-12T13:19:53Z</time>
    </trkpt>
    <trkpt lat="38.647116031" lon="34.852319006">
      <ele>1112.161</ele>
      <time>2021-10-12T13:19:57Z</time>
    </trkpt>
    <trkpt lat="38.647136986" lon="34.852205012">
      <ele>1111.383</ele>
      <time>2021-10-12T13:20:00Z</time>
    </trkpt>
    <trkpt lat="38.647216028" lon="34.852143992">
      <ele>1111.047</ele>
      <time>2021-10-12T13:20:03Z</time>
    </trkpt>
    <trkpt lat="38.647237988" lon="34.852132006">
      <ele>1110.831</ele>
      <time>2021-10-12T13:20:04Z</time>
    </trkpt>
    <trkpt lat="38.647257015" lon="34.852127982">
      <ele>1110.622</ele>
      <time>2021-10-12T13:20:05Z</time>
    </trkpt>
    <trkpt lat="38.647347959" lon="34.852079032">
      <ele>1109.395</ele>
      <time>2021-10-12T13:20:09Z</time>
    </trkpt>
    <trkpt lat="38.647445021" lon="34.852062017">
      <ele>1108.008</ele>
      <time>2021-10-12T13:20:12Z</time>
    </trkpt>
    <trkpt lat="38.64746497" lon="34.852052964">
      <ele>1107.655</ele>
      <time>2021-10-12T13:20:13Z</time>
    </trkpt>
    <trkpt lat="38.647563038" lon="34.852033015">
      <ele>1106.802</ele>
      <time>2021-10-12T13:20:17Z</time>
    </trkpt>
    <trkpt lat="38.647658005" lon="34.852008959">
      <ele>1106.26</ele>
      <time>2021-10-12T13:20:20Z</time>
    </trkpt>
    <trkpt lat="38.647697987" lon="34.85189396">
      <ele>1105.678</ele>
      <time>2021-10-12T13:20:24Z</time>
    </trkpt>
    <trkpt lat="38.647705028" lon="34.851772003">
      <ele>1106.533</ele>
      <time>2021-10-12T13:20:27Z</time>
    </trkpt>
    <trkpt lat="38.647720031" lon="34.851610987">
      <ele>1108.091</ele>
      <time>2021-10-12T13:20:32Z</time>
    </trkpt>
    <trkpt lat="38.647803012" lon="34.851559019">
      <ele>1107.116</ele>
      <time>2021-10-12T13:20:36Z</time>
    </trkpt>
    <trkpt lat="38.647919018" lon="34.851621967">
      <ele>1104.446</ele>
      <time>2021-10-12T13:20:40Z</time>
    </trkpt>
    <trkpt lat="38.648028988" lon="34.851661026">
      <ele>1102.427</ele>
      <time>2021-10-12T13:20:44Z</time>
    </trkpt>
    <trkpt lat="38.648111969" lon="34.851709977">
      <ele>1102.874</ele>
      <time>2021-10-12T13:20:48Z</time>
    </trkpt>
    <trkpt lat="38.648205008" lon="34.851716012">
      <ele>1103.609</ele>
      <time>2021-10-12T13:20:51Z</time>
    </trkpt>
    <trkpt lat="38.648225041" lon="34.851718023">
      <ele>1103.775</ele>
      <time>2021-10-12T13:20:52Z</time>
    </trkpt>
    <trkpt lat="38.648247002" lon="34.851708971">
      <ele>1103.835</ele>
      <time>2021-10-12T13:20:53Z</time>
    </trkpt>
    <trkpt lat="38.648272986" lon="34.851704026">
      <ele>1103.969</ele>
      <time>2021-10-12T13:20:54Z</time>
    </trkpt>
    <trkpt lat="38.648292013" lon="34.851695979">
      <ele>1104.019</ele>
      <time>2021-10-12T13:20:55Z</time>
    </trkpt>
    <trkpt lat="38.648317996" lon="34.851695979">
      <ele>1104.206</ele>
      <time>2021-10-12T13:20:56Z</time>
    </trkpt>
    <trkpt lat="38.648342974" lon="34.851692962">
      <ele>1104.357</ele>
      <time>2021-10-12T13:20:57Z</time>
    </trkpt>
    <trkpt lat="38.648360996" lon="34.851690028">
      <ele>1104.46</ele>
      <time>2021-10-12T13:20:57Z</time>
    </trkpt>
    <trkpt lat="38.648380022" lon="34.851688016">
      <ele>1104.58</ele>
      <time>2021-10-12T13:20:58Z</time>
    </trkpt>
    <trkpt lat="38.648409024" lon="34.851688016">
      <ele>1104.796</ele>
      <time>2021-10-12T13:20:59Z</time>
    </trkpt>
    <trkpt lat="38.648436014" lon="34.851688016">
      <ele>1104.998</ele>
      <time>2021-10-12T13:21:00Z</time>
    </trkpt>
    <trkpt lat="38.648456968" lon="34.851691034">
      <ele>1105.192</ele>
      <time>2021-10-12T13:21:01Z</time>
    </trkpt>
    <trkpt lat="38.648480019" lon="34.851692962">
      <ele>1105.39</ele>
      <time>2021-10-12T13:21:02Z</time>
    </trkpt>
    <trkpt lat="38.648499968" lon="34.851688016">
      <ele>1105.476</ele>
      <time>2021-10-12T13:21:02Z</time>
    </trkpt>
    <trkpt lat="38.648517989" lon="34.851681981">
      <ele>1105.532</ele>
      <time>2021-10-12T13:21:03Z</time>
    </trkpt>
    <trkpt lat="38.648540033" lon="34.851664966">
      <ele>1105.467</ele>
      <time>2021-10-12T13:21:04Z</time>
    </trkpt>
    <trkpt lat="38.64855797" lon="34.851658009">
      <ele>1105.505</ele>
      <time>2021-10-12T13:21:05Z</time>
    </trkpt>
    <trkpt lat="38.648579009" lon="34.851640994">
      <ele>1105.421</ele>
      <time>2021-10-12T13:21:06Z</time>
    </trkpt>
    <trkpt lat="38.648598036" lon="34.851619033">
      <ele>1105.236</ele>
      <time>2021-10-12T13:21:07Z</time>
    </trkpt>
    <trkpt lat="38.648618991" lon="34.851595983">
      <ele>1105.017</ele>
      <time>2021-10-12T13:21:08Z</time>
    </trkpt>
    <trkpt lat="38.648640029" lon="34.851592965">
      <ele>1105.064</ele>
      <time>2021-10-12T13:21:08Z</time>
    </trkpt>
    <trkpt lat="38.648664001" lon="34.851578968">
      <ele>1104.938</ele>
      <time>2021-10-12T13:21:09Z</time>
    </trkpt>
    <trkpt lat="38.648676993" lon="34.851547033">
      <ele>1104.445</ele>
      <time>2021-10-12T13:21:10Z</time>
    </trkpt>
    <trkpt lat="38.648694009" lon="34.851515014">
      <ele>1103.924</ele>
      <time>2021-10-12T13:21:12Z</time>
    </trkpt>
    <trkpt lat="38.648703983" lon="34.851479977">
      <ele>1103.306</ele>
      <time>2021-10-12T13:21:13Z</time>
    </trkpt>
    <trkpt lat="38.648766009" lon="34.851376042">
      <ele>1101.36</ele>
      <time>2021-10-12T13:21:16Z</time>
    </trkpt>
    <trkpt lat="38.648780007" lon="34.851358021">
      <ele>1101.165</ele>
      <time>2021-10-12T13:21:17Z</time>
    </trkpt>
    <trkpt lat="38.648799034" lon="34.851333965">
      <ele>1100.852</ele>
      <time>2021-10-12T13:21:18Z</time>
    </trkpt>
    <trkpt lat="38.648862988" lon="34.851236986">
      <ele>1099.161</ele>
      <time>2021-10-12T13:21:22Z</time>
    </trkpt>
    <trkpt lat="38.648957033" lon="34.851185018">
      <ele>1098.26</ele>
      <time>2021-10-12T13:21:26Z</time>
    </trkpt>
    <trkpt lat="38.649043031" lon="34.85114797">
      <ele>1097.752</ele>
      <time>2021-10-12T13:21:29Z</time>
    </trkpt>
    <trkpt lat="38.649101034" lon="34.851085022">
      <ele>1096.879</ele>
      <time>2021-10-12T13:21:32Z</time>
    </trkpt>
    <trkpt lat="38.649159037" lon="34.851074964">
      <ele>1096.75</ele>
      <time>2021-10-12T13:21:34Z</time>
    </trkpt>
    <trkpt lat="38.649179991" lon="34.851078987">
      <ele>1096.842</ele>
      <time>2021-10-12T13:21:35Z</time>
    </trkpt>
    <trkpt lat="38.649215028" lon="34.850986032">
      <ele>1096.134</ele>
      <time>2021-10-12T13:21:38Z</time>
    </trkpt>
    <trkpt lat="38.649229025" lon="34.850955019">
      <ele>1095.821</ele>
      <time>2021-10-12T13:21:39Z</time>
    </trkpt>
    <trkpt lat="38.649243023" lon="34.850941021">
      <ele>1095.652</ele>
      <time>2021-10-12T13:21:39Z</time>
    </trkpt>
    <trkpt lat="38.649250986" lon="34.850909002">
      <ele>1095.268</ele>
      <time>2021-10-12T13:21:40Z</time>
    </trkpt>
    <trkpt lat="38.649270013" lon="34.850877989">
      <ele>1094.817</ele>
      <time>2021-10-12T13:21:42Z</time>
    </trkpt>
    <trkpt lat="38.649287028" lon="34.850841025">
      <ele>1094.237</ele>
      <time>2021-10-12T13:21:43Z</time>
    </trkpt>
    <trkpt lat="38.649302032" lon="34.850823004">
      <ele>1094.137</ele>
      <time>2021-10-12T13:21:44Z</time>
    </trkpt>
    <trkpt lat="38.649314018" lon="34.850795008">
      <ele>1094.353</ele>
      <time>2021-10-12T13:21:44Z</time>
    </trkpt>
    <trkpt lat="38.64932701" lon="34.850766007">
      <ele>1094.573</ele>
      <time>2021-10-12T13:21:45Z</time>
    </trkpt>
    <trkpt lat="38.649343019" lon="34.850742035">
      <ele>1094.716</ele>
      <time>2021-10-12T13:21:46Z</time>
    </trkpt>
    <trkpt lat="38.649351988" lon="34.850715967">
      <ele>1094.933</ele>
      <time>2021-10-12T13:21:47Z</time>
    </trkpt>
    <trkpt lat="38.649358023" lon="34.850688977">
      <ele>1095.181</ele>
      <time>2021-10-12T13:21:48Z</time>
    </trkpt>
    <trkpt lat="38.649370009" lon="34.85065897">
      <ele>1095.419</ele>
      <time>2021-10-12T13:21:49Z</time>
    </trkpt>
    <trkpt lat="38.64939197" lon="34.850646984">
      <ele>1095.39</ele>
      <time>2021-10-12T13:21:50Z</time>
    </trkpt>
    <trkpt lat="38.64940404" lon="34.850628963">
      <ele>1095.498</ele>
      <time>2021-10-12T13:21:51Z</time>
    </trkpt>
    <trkpt lat="38.64941502" lon="34.850602979">
      <ele>1095.7</ele>
      <time>2021-10-12T13:21:51Z</time>
    </trkpt>
    <trkpt lat="38.649455002" lon="34.850497032">
      <ele>1098.298</ele>
      <time>2021-10-12T13:21:55Z</time>
    </trkpt>
    <trkpt lat="38.649504036" lon="34.850395024">
      <ele>1101.242</ele>
      <time>2021-10-12T13:21:58Z</time>
    </trkpt>
    <trkpt lat="38.649572013" lon="34.850316988">
      <ele>1102.038</ele>
      <time>2021-10-12T13:22:02Z</time>
    </trkpt>
    <trkpt lat="38.649653988" lon="34.85025798">
      <ele>1100.865</ele>
      <time>2021-10-12T13:22:05Z</time>
    </trkpt>
    <trkpt lat="38.649755996" lon="34.850268038">
      <ele>1096.821</ele>
      <time>2021-10-12T13:22:09Z</time>
    </trkpt>
    <trkpt lat="38.649830008" lon="34.850340039">
      <ele>1092.858</ele>
      <time>2021-10-12T13:22:12Z</time>
    </trkpt>
    <trkpt lat="38.649850041" lon="34.850365017">
      <ele>1091.896</ele>
      <time>2021-10-12T13:22:13Z</time>
    </trkpt>
    <trkpt lat="38.649878036" lon="34.850404998">
      <ele>1090.679</ele>
      <time>2021-10-12T13:22:15Z</time>
    </trkpt>
    <trkpt lat="38.649901003" lon="34.850425031">
      <ele>1089.939</ele>
      <time>2021-10-12T13:22:16Z</time>
    </trkpt>
    <trkpt lat="38.649936961" lon="34.850423019">
      <ele>1089.07</ele>
      <time>2021-10-12T13:22:17Z</time>
    </trkpt>
    <trkpt lat="38.649964035" lon="34.850422014">
      <ele>1088.406</ele>
      <time>2021-10-12T13:22:18Z</time>
    </trkpt>
    <trkpt lat="38.649983983" lon="34.850410027">
      <ele>1087.891</ele>
      <time>2021-10-12T13:22:19Z</time>
    </trkpt>
    <trkpt lat="38.649997981" lon="34.850394018">
      <ele>1087.474</ele>
      <time>2021-10-12T13:22:20Z</time>
    </trkpt>
    <trkpt lat="38.650051961" lon="34.850294022">
      <ele>1085.958</ele>
      <time>2021-10-12T13:22:23Z</time>
    </trkpt>
    <trkpt lat="38.650125973" lon="34.850227972">
      <ele>1084.458</ele>
      <time>2021-10-12T13:22:27Z</time>
    </trkpt>
    <trkpt lat="38.650170984" lon="34.850202994">
      <ele>1083.576</ele>
      <time>2021-10-12T13:22:28Z</time>
    </trkpt>
    <trkpt lat="38.650192022" lon="34.850185979">
      <ele>1083.183</ele>
      <time>2021-10-12T13:22:29Z</time>
    </trkpt>
    <trkpt lat="38.650213983" lon="34.850071985">
      <ele>1083.119</ele>
      <time>2021-10-12T13:22:33Z</time>
    </trkpt>
    <trkpt lat="38.650224963" lon="34.850040972">
      <ele>1082.993</ele>
      <time>2021-10-12T13:22:34Z</time>
    </trkpt>
    <trkpt lat="38.650232004" lon="34.850009037">
      <ele>1082.956</ele>
      <time>2021-10-12T13:22:35Z</time>
    </trkpt>
    <trkpt lat="38.650241978" lon="34.849983975">
      <ele>1082.896</ele>
      <time>2021-10-12T13:22:36Z</time>
    </trkpt>
    <trkpt lat="38.650257988" lon="34.849960003">
      <ele>1082.726</ele>
      <time>2021-10-12T13:22:37Z</time>
    </trkpt>
    <trkpt lat="38.650276009" lon="34.84992899">
      <ele>1082.551</ele>
      <time>2021-10-12T13:22:38Z</time>
    </trkpt>
    <trkpt lat="38.650291013" lon="34.849903006">
      <ele>1082.555</ele>
      <time>2021-10-12T13:22:39Z</time>
    </trkpt>
    <trkpt lat="38.65030501" lon="34.84988004">
      <ele>1082.57</ele>
      <time>2021-10-12T13:22:39Z</time>
    </trkpt>
    <trkpt lat="38.650322026" lon="34.849857995">
      <ele>1082.545</ele>
      <time>2021-10-12T13:22:40Z</time>
    </trkpt>
    <trkpt lat="38.650338035" lon="34.849837041">
      <ele>1082.523</ele>
      <time>2021-10-12T13:22:41Z</time>
    </trkpt>
    <trkpt lat="38.650353039" lon="34.849816002">
      <ele>1082.512</ele>
      <time>2021-10-12T13:22:42Z</time>
    </trkpt>
    <trkpt lat="38.650370976" lon="34.849805022">
      <ele>1082.397</ele>
      <time>2021-10-12T13:22:43Z</time>
    </trkpt>
    <trkpt lat="38.650390003" lon="34.849795969">
      <ele>1082.257</ele>
      <time>2021-10-12T13:22:43Z</time>
    </trkpt>
    <trkpt lat="38.650416993" lon="34.849788006">
      <ele>1082.023</ele>
      <time>2021-10-12T13:22:44Z</time>
    </trkpt>
    <trkpt lat="38.650448006" lon="34.849782977">
      <ele>1081.724</ele>
      <time>2021-10-12T13:22:46Z</time>
    </trkpt>
    <trkpt lat="38.650482036" lon="34.849780966">
      <ele>1081.371</ele>
      <time>2021-10-12T13:22:47Z</time>
    </trkpt>
    <trkpt lat="38.65051196" lon="34.849784989">
      <ele>1081.019</ele>
      <time>2021-10-12T13:22:48Z</time>
    </trkpt>
    <trkpt lat="38.650540039" lon="34.849791024">
      <ele>1080.672</ele>
      <time>2021-10-12T13:22:49Z</time>
    </trkpt>
    <trkpt lat="38.650567029" lon="34.849794963">
      <ele>1080.426</ele>
      <time>2021-10-12T13:22:50Z</time>
    </trkpt>
    <trkpt lat="38.650591001" lon="34.849797981">
      <ele>1080.304</ele>
      <time>2021-10-12T13:22:51Z</time>
    </trkpt>
    <trkpt lat="38.650611034" lon="34.849800998">
      <ele>1080.203</ele>
      <time>2021-10-12T13:22:52Z</time>
    </trkpt>
    <trkpt lat="38.650630983" lon="34.849795969">
      <ele>1080.142</ele>
      <time>2021-10-12T13:22:52Z</time>
    </trkpt>
    <trkpt lat="38.650652021" lon="34.849789012">
      <ele>1080.075</ele>
      <time>2021-10-12T13:22:53Z</time>
    </trkpt>
    <trkpt lat="38.650672976" lon="34.849784989">
      <ele>1079.989</ele>
      <time>2021-10-12T13:22:54Z</time>
    </trkpt>
    <trkpt lat="38.650693009" lon="34.849780966">
      <ele>1079.901</ele>
      <time>2021-10-12T13:22:55Z</time>
    </trkpt>
    <trkpt lat="38.650716981" lon="34.849777026">
      <ele>1079.787</ele>
      <time>2021-10-12T13:22:56Z</time>
    </trkpt>
    <trkpt lat="38.650741037" lon="34.849773003">
      <ele>1079.665</ele>
      <time>2021-10-12T13:22:57Z</time>
    </trkpt>
    <trkpt lat="38.650761992" lon="34.84977602">
      <ele>1079.558</ele>
      <time>2021-10-12T13:22:57Z</time>
    </trkpt>
    <trkpt lat="38.650789987" lon="34.849779038">
      <ele>1079.421</ele>
      <time>2021-10-12T13:22:58Z</time>
    </trkpt>
    <trkpt lat="38.650814965" lon="34.849778032">
      <ele>1079.293</ele>
      <time>2021-10-12T13:22:59Z</time>
    </trkpt>
    <trkpt lat="38.650840027" lon="34.849774009">
      <ele>1079.195</ele>
      <time>2021-10-12T13:23:00Z</time>
    </trkpt>
    <trkpt lat="38.650867017" lon="34.849770991">
      <ele>1079.218</ele>
      <time>2021-10-12T13:23:01Z</time>
    </trkpt>
    <trkpt lat="38.650890989" lon="34.849773003">
      <ele>1079.259</ele>
      <time>2021-10-12T13:23:02Z</time>
    </trkpt>
    <trkpt lat="38.650917979" lon="34.849779038">
      <ele>1079.329</ele>
      <time>2021-10-12T13:23:03Z</time>
    </trkpt>
    <trkpt lat="38.650944969" lon="34.849779038">
      <ele>1079.369</ele>
      <time>2021-10-12T13:23:04Z</time>
    </trkpt>
    <trkpt lat="38.650966007" lon="34.849770991">
      <ele>1079.343</ele>
      <time>2021-10-12T13:23:05Z</time>
    </trkpt>
    <trkpt lat="38.650983023" lon="34.849779038">
      <ele>1079.425</ele>
      <time>2021-10-12T13:23:06Z</time>
    </trkpt>
    <trkpt lat="38.651011018" lon="34.849771997">
      <ele>1079.408</ele>
      <time>2021-10-12T13:23:07Z</time>
    </trkpt>
    <trkpt lat="38.651035996" lon="34.849768979">
      <ele>1079.414</ele>
      <time>2021-10-12T13:23:08Z</time>
    </trkpt>
    <trkpt lat="38.651062986" lon="34.849765962">
      <ele>1079.418</ele>
      <time>2021-10-12T13:23:09Z</time>
    </trkpt>
    <trkpt lat="38.651092993" lon="34.849762022">
      <ele>1079.411</ele>
      <time>2021-10-12T13:23:10Z</time>
    </trkpt>
    <trkpt lat="38.65111596" lon="34.849759005">
      <ele>1079.372</ele>
      <time>2021-10-12T13:23:11Z</time>
    </trkpt>
    <trkpt lat="38.651141021" lon="34.849750958">
      <ele>1079.14</ele>
      <time>2021-10-12T13:23:12Z</time>
    </trkpt>
    <trkpt lat="38.651161976" lon="34.849739978">
      <ele>1078.872</ele>
      <time>2021-10-12T13:23:12Z</time>
    </trkpt>
    <trkpt lat="38.651184021" lon="34.849730004">
      <ele>1078.589</ele>
      <time>2021-10-12T13:23:13Z</time>
    </trkpt>
    <trkpt lat="38.651207993" lon="34.849717012">
      <ele>1078.277</ele>
      <time>2021-10-12T13:23:14Z</time>
    </trkpt>
    <trkpt lat="38.651226014" lon="34.849702008">
      <ele>1078.07</ele>
      <time>2021-10-12T13:23:15Z</time>
    </trkpt>
    <trkpt lat="38.651243029" lon="34.849693039">
      <ele>1077.895</ele>
      <time>2021-10-12T13:23:16Z</time>
    </trkpt>
    <trkpt lat="38.651262978" lon="34.849678036">
      <ele>1077.661</ele>
      <time>2021-10-12T13:23:17Z</time>
    </trkpt>
    <trkpt lat="38.651287034" lon="34.849673007">
      <ele>1077.444</ele>
      <time>2021-10-12T13:23:17Z</time>
    </trkpt>
    <trkpt lat="38.651305977" lon="34.849667978">
      <ele>1077.265</ele>
      <time>2021-10-12T13:23:18Z</time>
    </trkpt>
    <trkpt lat="38.65132601" lon="34.849654986">
      <ele>1077.023</ele>
      <time>2021-10-12T13:23:19Z</time>
    </trkpt>
    <trkpt lat="38.651349982" lon="34.849645011">
      <ele>1076.763</ele>
      <time>2021-10-12T13:23:20Z</time>
    </trkpt>
    <trkpt lat="38.651400022" lon="34.849617016">
      <ele>1076.237</ele>
      <time>2021-10-12T13:23:22Z</time>
    </trkpt>
    <trkpt lat="38.651443021" lon="34.849587008">
      <ele>1075.937</ele>
      <time>2021-10-12T13:23:24Z</time>
    </trkpt>
    <trkpt lat="38.651464982" lon="34.849579968">
      <ele>1075.829</ele>
      <time>2021-10-12T13:23:25Z</time>
    </trkpt>
    <trkpt lat="38.651488032" lon="34.849575022">
      <ele>1075.73</ele>
      <time>2021-10-12T13:23:26Z</time>
    </trkpt>
    <trkpt lat="38.651517034" lon="34.849567981">
      <ele>1075.582</ele>
      <time>2021-10-12T13:23:27Z</time>
    </trkpt>
    <trkpt lat="38.65154" lon="34.84956203">
      <ele>1075.449</ele>
      <time>2021-10-12T13:23:27Z</time>
    </trkpt>
    <trkpt lat="38.651561961" lon="34.849550966">
      <ele>1075.238</ele>
      <time>2021-10-12T13:23:28Z</time>
    </trkpt>
    <trkpt lat="38.651588028" lon="34.849536968">
      <ele>1074.949</ele>
      <time>2021-10-12T13:23:29Z</time>
    </trkpt>
    <trkpt lat="38.651612001" lon="34.849523976">
      <ele>1074.656</ele>
      <time>2021-10-12T13:23:30Z</time>
    </trkpt>
    <trkpt lat="38.651637984" lon="34.849506961">
      <ele>1074.262</ele>
      <time>2021-10-12T13:23:31Z</time>
    </trkpt>
    <trkpt lat="38.65166598" lon="34.849488018">
      <ele>1073.788</ele>
      <time>2021-10-12T13:23:33Z</time>
    </trkpt>
    <trkpt lat="38.65169297" lon="34.849469997">
      <ele>1073.555</ele>
      <time>2021-10-12T13:23:34Z</time>
    </trkpt>
    <trkpt lat="38.651718032" lon="34.849453988">
      <ele>1073.357</ele>
      <time>2021-10-12T13:23:35Z</time>
    </trkpt>
    <trkpt lat="38.651742004" lon="34.849442001">
      <ele>1073.255</ele>
      <time>2021-10-12T13:23:36Z</time>
    </trkpt>
    <trkpt lat="38.651760025" lon="34.849438984">
      <ele>1073.297</ele>
      <time>2021-10-12T13:23:36Z</time>
    </trkpt>
    <trkpt lat="38.651779974" lon="34.849433033">
      <ele>1073.317</ele>
      <time>2021-10-12T13:23:37Z</time>
    </trkpt>
    <trkpt lat="38.65181501" lon="34.849421969">
      <ele>1073.323</ele>
      <time>2021-10-12T13:23:38Z</time>
    </trkpt>
    <trkpt lat="38.651834959" lon="34.849410988">
      <ele>1073.267</ele>
      <time>2021-10-12T13:23:39Z</time>
    </trkpt>
    <trkpt lat="38.651855998" lon="34.849400008">
      <ele>1073.195</ele>
      <time>2021-10-12T13:23:40Z</time>
    </trkpt>
    <trkpt lat="38.651877036" lon="34.849388022">
      <ele>1073.093</ele>
      <time>2021-10-12T13:23:41Z</time>
    </trkpt>
    <trkpt lat="38.651898997" lon="34.849377042">
      <ele>1072.985</ele>
      <time>2021-10-12T13:23:42Z</time>
    </trkpt>
    <trkpt lat="38.651921963" lon="34.84936296">
      <ele>1072.817</ele>
      <time>2021-10-12T13:23:43Z</time>
    </trkpt>
    <trkpt lat="38.651944008" lon="34.849347034">
      <ele>1072.597</ele>
      <time>2021-10-12T13:23:44Z</time>
    </trkpt>
    <trkpt lat="38.651965968" lon="34.849328008">
      <ele>1072.458</ele>
      <time>2021-10-12T13:23:45Z</time>
    </trkpt>
    <trkpt lat="38.651983989" lon="34.849303029">
      <ele>1072.173</ele>
      <time>2021-10-12T13:23:46Z</time>
    </trkpt>
    <trkpt lat="38.651997987" lon="34.849274028">
      <ele>1071.77</ele>
      <time>2021-10-12T13:23:47Z</time>
    </trkpt>
    <trkpt lat="38.652007962" lon="34.849233963">
      <ele>1071.135</ele>
      <time>2021-10-12T13:23:48Z</time>
    </trkpt>
    <trkpt lat="38.652016008" lon="34.849192975">
      <ele>1070.452</ele>
      <time>2021-10-12T13:23:49Z</time>
    </trkpt>
    <trkpt lat="38.652021959" lon="34.849156011">
      <ele>1069.913</ele>
      <time>2021-10-12T13:23:50Z</time>
    </trkpt>
    <trkpt lat="38.652029" lon="34.849119969">
      <ele>1069.613</ele>
      <time>2021-10-12T13:23:51Z</time>
    </trkpt>
    <trkpt lat="38.652036963" lon="34.849081999">
      <ele>1069.289</ele>
      <time>2021-10-12T13:23:52Z</time>
    </trkpt>
    <trkpt lat="38.652046015" lon="34.849045034">
      <ele>1068.964</ele>
      <time>2021-10-12T13:23:54Z</time>
    </trkpt>
    <trkpt lat="38.652056996" lon="34.849007986">
      <ele>1068.626</ele>
      <time>2021-10-12T13:23:55Z</time>
    </trkpt>
    <trkpt lat="38.652067976" lon="34.848971022">
      <ele>1068.278</ele>
      <time>2021-10-12T13:23:56Z</time>
    </trkpt>
    <trkpt lat="38.65207904" lon="34.848935986">
      <ele>1067.937</ele>
      <time>2021-10-12T13:23:57Z</time>
    </trkpt>
    <trkpt lat="38.652091026" lon="34.848902039">
      <ele>1067.592</ele>
      <time>2021-10-12T13:23:58Z</time>
    </trkpt>
    <trkpt lat="38.652104018" lon="34.84887002">
      <ele>1067.658</ele>
      <time>2021-10-12T13:23:59Z</time>
    </trkpt>
    <trkpt lat="38.652118016" lon="34.848836996">
      <ele>1068.006</ele>
      <time>2021-10-12T13:24:00Z</time>
    </trkpt>
    <trkpt lat="38.65213302" lon="34.848805983">
      <ele>1068.312</ele>
      <time>2021-10-12T13:24:01Z</time>
    </trkpt>
    <trkpt lat="38.652149029" lon="34.848775975">
      <ele>1068.59</ele>
      <time>2021-10-12T13:24:02Z</time>
    </trkpt>
    <trkpt lat="38.652165961" lon="34.848746974">
      <ele>1068.839</ele>
      <time>2021-10-12T13:24:03Z</time>
    </trkpt>
    <trkpt lat="38.652182976" lon="34.848715961">
      <ele>1069.097</ele>
      <time>2021-10-12T13:24:04Z</time>
    </trkpt>
    <trkpt lat="38.652204014" lon="34.84868696">
      <ele>1069.294</ele>
      <time>2021-10-12T13:24:06Z</time>
    </trkpt>
    <trkpt lat="38.652225975" lon="34.848658964">
      <ele>1069.474</ele>
      <time>2021-10-12T13:24:07Z</time>
    </trkpt>
    <trkpt lat="38.652250031" lon="34.848633986">
      <ele>1069.669</ele>
      <time>2021-10-12T13:24:08Z</time>
    </trkpt>
    <trkpt lat="38.652274003" lon="34.84861102">
      <ele>1069.815</ele>
      <time>2021-10-12T13:24:09Z</time>
    </trkpt>
    <trkpt lat="38.652298981" lon="34.848587969">
      <ele>1070.131</ele>
      <time>2021-10-12T13:24:10Z</time>
    </trkpt>
    <trkpt lat="38.652323959" lon="34.848567015">
      <ele>1070.354</ele>
      <time>2021-10-12T13:24:11Z</time>
    </trkpt>
    <trkpt lat="38.652350027" lon="34.848545976">
      <ele>1070.515</ele>
      <time>2021-10-12T13:24:12Z</time>
    </trkpt>
    <trkpt lat="38.652375005" lon="34.848524015">
      <ele>1070.641</ele>
      <time>2021-10-12T13:24:14Z</time>
    </trkpt>
    <trkpt lat="38.652400989" lon="34.848502977">
      <ele>1070.69</ele>
      <time>2021-10-12T13:24:15Z</time>
    </trkpt>
    <trkpt lat="38.652428985" lon="34.848475987">
      <ele>1070.726</ele>
      <time>2021-10-12T13:24:16Z</time>
    </trkpt>
    <trkpt lat="38.652457986" lon="34.848451009">
      <ele>1070.653</ele>
      <time>2021-10-12T13:24:17Z</time>
    </trkpt>
    <trkpt lat="38.652485982" lon="34.84842997">
      <ele>1070.486</ele>
      <time>2021-10-12T13:24:18Z</time>
    </trkpt>
    <trkpt lat="38.652512971" lon="34.848407004">
      <ele>1070.32</ele>
      <time>2021-10-12T13:24:20Z</time>
    </trkpt>
    <trkpt lat="38.652540967" lon="34.848386971">
      <ele>1070.109</ele>
      <time>2021-10-12T13:24:21Z</time>
    </trkpt>
    <trkpt lat="38.652569968" lon="34.848365011">
      <ele>1069.851</ele>
      <time>2021-10-12T13:24:22Z</time>
    </trkpt>
    <trkpt lat="38.652599975" lon="34.848344978">
      <ele>1069.522</ele>
      <time>2021-10-12T13:24:23Z</time>
    </trkpt>
    <trkpt lat="38.652628977" lon="34.848326035">
      <ele>1069.143</ele>
      <time>2021-10-12T13:24:25Z</time>
    </trkpt>
    <trkpt lat="38.652657978" lon="34.84830902">
      <ele>1068.725</ele>
      <time>2021-10-12T13:24:26Z</time>
    </trkpt>
    <trkpt lat="38.65268698" lon="34.848289993">
      <ele>1068.307</ele>
      <time>2021-10-12T13:24:27Z</time>
    </trkpt>
    <trkpt lat="38.652715981" lon="34.848272977">
      <ele>1067.89</ele>
      <time>2021-10-12T13:24:28Z</time>
    </trkpt>
    <trkpt lat="38.652745988" lon="34.848255962">
      <ele>1067.458</ele>
      <time>2021-10-12T13:24:29Z</time>
    </trkpt>
    <trkpt lat="38.652775995" lon="34.848241964">
      <ele>1067.026</ele>
      <time>2021-10-12T13:24:31Z</time>
    </trkpt>
    <trkpt lat="38.652803991" lon="34.848228972">
      <ele>1066.811</ele>
      <time>2021-10-12T13:24:32Z</time>
    </trkpt>
    <trkpt lat="38.652831987" lon="34.848218998">
      <ele>1066.61</ele>
      <time>2021-10-12T13:24:33Z</time>
    </trkpt>
    <trkpt lat="38.652861994" lon="34.848211035">
      <ele>1066.394</ele>
      <time>2021-10-12T13:24:34Z</time>
    </trkpt>
    <trkpt lat="38.652892001" lon="34.848201983">
      <ele>1066.178</ele>
      <time>2021-10-12T13:24:35Z</time>
    </trkpt>
    <trkpt lat="38.652922008" lon="34.848192008">
      <ele>1065.962</ele>
      <time>2021-10-12T13:24:36Z</time>
    </trkpt>
    <trkpt lat="38.652953021" lon="34.848184967">
      <ele>1065.738</ele>
      <time>2021-10-12T13:24:37Z</time>
    </trkpt>
    <trkpt lat="38.652983028" lon="34.848179016">
      <ele>1065.522</ele>
      <time>2021-10-12T13:24:38Z</time>
    </trkpt>
    <trkpt lat="38.653013036" lon="34.84817801">
      <ele>1065.306</ele>
      <time>2021-10-12T13:24:40Z</time>
    </trkpt>
    <trkpt lat="38.653042037" lon="34.848177005">
      <ele>1065.097</ele>
      <time>2021-10-12T13:24:41Z</time>
    </trkpt>
    <trkpt lat="38.65307196" lon="34.848180022">
      <ele>1065.026</ele>
      <time>2021-10-12T13:24:42Z</time>
    </trkpt>
    <trkpt lat="38.653101968" lon="34.848181028">
      <ele>1065.075</ele>
      <time>2021-10-12T13:24:43Z</time>
    </trkpt>
    <trkpt lat="38.653132981" lon="34.848181028">
      <ele>1065.126</ele>
      <time>2021-10-12T13:24:44Z</time>
    </trkpt>
    <trkpt lat="38.653166005" lon="34.848174993">
      <ele>1065.171</ele>
      <time>2021-10-12T13:24:45Z</time>
    </trkpt>
    <trkpt lat="38.653196013" lon="34.848164013">
      <ele>1065.197</ele>
      <time>2021-10-12T13:24:46Z</time>
    </trkpt>
    <trkpt lat="38.653228031" lon="34.848151021">
      <ele>1065.213</ele>
      <time>2021-10-12T13:24:48Z</time>
    </trkpt>
    <trkpt lat="38.653258039" lon="34.848133">
      <ele>1065.203</ele>
      <time>2021-10-12T13:24:49Z</time>
    </trkpt>
    <trkpt lat="38.653285028" lon="34.848110033">
      <ele>1065.162</ele>
      <time>2021-10-12T13:24:50Z</time>
    </trkpt>
    <trkpt lat="38.653311012" lon="34.84807902">
      <ele>1065.078</ele>
      <time>2021-10-12T13:24:51Z</time>
    </trkpt>
    <trkpt lat="38.653333979" lon="34.84804499">
      <ele>1065.04</ele>
      <time>2021-10-12T13:24:53Z</time>
    </trkpt>
    <trkpt lat="38.653355017" lon="34.848008025">
      <ele>1065.222</ele>
      <time>2021-10-12T13:24:54Z</time>
    </trkpt>
    <trkpt lat="38.653377984" lon="34.847971983">
      <ele>1065.365</ele>
      <time>2021-10-12T13:24:55Z</time>
    </trkpt>
    <trkpt lat="38.653401034" lon="34.847936025">
      <ele>1065.464</ele>
      <time>2021-10-12T13:24:57Z</time>
    </trkpt>
    <trkpt lat="38.653426012" lon="34.847901994">
      <ele>1065.518</ele>
      <time>2021-10-12T13:24:58Z</time>
    </trkpt>
    <trkpt lat="38.653451996" lon="34.847867964">
      <ele>1065.526</ele>
      <time>2021-10-12T13:24:59Z</time>
    </trkpt>
    <trkpt lat="38.653479991" lon="34.847834017">
      <ele>1065.483</ele>
      <time>2021-10-12T13:25:01Z</time>
    </trkpt>
    <trkpt lat="38.653509999" lon="34.847803004">
      <ele>1065.389</ele>
      <time>2021-10-12T13:25:02Z</time>
    </trkpt>
    <trkpt lat="38.653541012" lon="34.847771991">
      <ele>1065.278</ele>
      <time>2021-10-12T13:25:04Z</time>
    </trkpt>
    <trkpt lat="38.653573031" lon="34.847741984">
      <ele>1065.284</ele>
      <time>2021-10-12T13:25:05Z</time>
    </trkpt>
    <trkpt lat="38.653605971" lon="34.847711977">
      <ele>1065.26</ele>
      <time>2021-10-12T13:25:07Z</time>
    </trkpt>
    <trkpt lat="38.653638996" lon="34.847683981">
      <ele>1065.236</ele>
      <time>2021-10-12T13:25:08Z</time>
    </trkpt>
    <trkpt lat="38.653674033" lon="34.84765498">
      <ele>1065.142</ele>
      <time>2021-10-12T13:25:10Z</time>
    </trkpt>
    <trkpt lat="38.653708985" lon="34.847630002">
      <ele>1064.97</ele>
      <time>2021-10-12T13:25:11Z</time>
    </trkpt>
    <trkpt lat="38.653743016" lon="34.847604018">
      <ele>1064.734</ele>
      <time>2021-10-12T13:25:13Z</time>
    </trkpt>
    <trkpt lat="38.653778974" lon="34.847579962">
      <ele>1064.421</ele>
      <time>2021-10-12T13:25:14Z</time>
    </trkpt>
    <trkpt lat="38.653816022" lon="34.847556995">
      <ele>1064.036</ele>
      <time>2021-10-12T13:25:16Z</time>
    </trkpt>
    <trkpt lat="38.65385198" lon="34.847538974">
      <ele>1063.623</ele>
      <time>2021-10-12T13:25:17Z</time>
    </trkpt>
    <trkpt lat="38.653887017" lon="34.847521959">
      <ele>1063.177</ele>
      <time>2021-10-12T13:25:18Z</time>
    </trkpt>
    <trkpt lat="38.653919036" lon="34.847508967">
      <ele>1063.065</ele>
      <time>2021-10-12T13:25:20Z</time>
    </trkpt>
    <trkpt lat="38.653949965" lon="34.847496981">
      <ele>1063.006</ele>
      <time>2021-10-12T13:25:21Z</time>
    </trkpt>
    <trkpt lat="38.653980978" lon="34.847488012">
      <ele>1063.015</ele>
      <time>2021-10-12T13:25:22Z</time>
    </trkpt>
    <trkpt lat="38.654008973" lon="34.847481977">
      <ele>1063.009</ele>
      <time>2021-10-12T13:25:23Z</time>
    </trkpt>
    <trkpt lat="38.654035963" lon="34.847474014">
      <ele>1062.994</ele>
      <time>2021-10-12T13:25:24Z</time>
    </trkpt>
    <trkpt lat="38.654063959" lon="34.847465968">
      <ele>1062.968</ele>
      <time>2021-10-12T13:25:25Z</time>
    </trkpt>
    <trkpt lat="38.654091032" lon="34.847459011">
      <ele>1062.933</ele>
      <time>2021-10-12T13:25:26Z</time>
    </trkpt>
    <trkpt lat="38.654120034" lon="34.84745197">
      <ele>1062.885</ele>
      <time>2021-10-12T13:25:27Z</time>
    </trkpt>
    <trkpt lat="38.654148029" lon="34.847446019">
      <ele>1062.832</ele>
      <time>2021-10-12T13:25:28Z</time>
    </trkpt>
    <trkpt lat="38.654176025" lon="34.847438978">
      <ele>1062.78</ele>
      <time>2021-10-12T13:25:29Z</time>
    </trkpt>
    <trkpt lat="38.654205026" lon="34.847431015">
      <ele>1062.752</ele>
      <time>2021-10-12T13:25:31Z</time>
    </trkpt>
    <trkpt lat="38.654234027" lon="34.847420035">
      <ele>1062.712</ele>
      <time>2021-10-12T13:25:32Z</time>
    </trkpt>
    <trkpt lat="38.654262023" lon="34.847408971">
      <ele>1062.672</ele>
      <time>2021-10-12T13:25:33Z</time>
    </trkpt>
    <trkpt lat="38.654288007" lon="34.847394973">
      <ele>1062.622</ele>
      <time>2021-10-12T13:25:34Z</time>
    </trkpt>
    <trkpt lat="38.654314997" lon="34.847380975">
      <ele>1062.572</ele>
      <time>2021-10-12T13:25:35Z</time>
    </trkpt>
    <trkpt lat="38.654340981" lon="34.847365972">
      <ele>1062.517</ele>
      <time>2021-10-12T13:25:36Z</time>
    </trkpt>
    <trkpt lat="38.65436797" lon="34.84734904">
      <ele>1062.457</ele>
      <time>2021-10-12T13:25:37Z</time>
    </trkpt>
    <trkpt lat="38.65439496" lon="34.847332025">
      <ele>1062.395</ele>
      <time>2021-10-12T13:25:38Z</time>
    </trkpt>
    <trkpt lat="38.654421028" lon="34.847314004">
      <ele>1062.33</ele>
      <time>2021-10-12T13:25:39Z</time>
    </trkpt>
    <trkpt lat="38.654448017" lon="34.847293971">
      <ele>1062.258</ele>
      <time>2021-10-12T13:25:40Z</time>
    </trkpt>
    <trkpt lat="38.654472996" lon="34.847274022">
      <ele>1062.186</ele>
      <time>2021-10-12T13:25:41Z</time>
    </trkpt>
    <trkpt lat="38.654498979" lon="34.847254995">
      <ele>1062.118</ele>
      <time>2021-10-12T13:25:43Z</time>
    </trkpt>
    <trkpt lat="38.654524041" lon="34.847234963">
      <ele>1062.046</ele>
      <time>2021-10-12T13:25:44Z</time>
    </trkpt>
    <trkpt lat="38.654550025" lon="34.847216019">
      <ele>1062.022</ele>
      <time>2021-10-12T13:25:45Z</time>
    </trkpt>
    <trkpt lat="38.654576009" lon="34.847196992">
      <ele>1062.091</ele>
      <time>2021-10-12T13:25:46Z</time>
    </trkpt>
    <trkpt lat="38.654604005" lon="34.847177966">
      <ele>1062.159</ele>
      <time>2021-10-12T13:25:47Z</time>
    </trkpt>
    <trkpt lat="38.654632" lon="34.847159022">
      <ele>1062.228</ele>
      <time>2021-10-12T13:25:48Z</time>
    </trkpt>
    <trkpt lat="38.654661002" lon="34.84713899">
      <ele>1062.3</ele>
      <time>2021-10-12T13:25:49Z</time>
    </trkpt>
    <trkpt lat="38.654690003" lon="34.847118035">
      <ele>1062.375</ele>
      <time>2021-10-12T13:25:51Z</time>
    </trkpt>
    <trkpt lat="38.654719004" lon="34.847096996">
      <ele>1062.451</ele>
      <time>2021-10-12T13:25:52Z</time>
    </trkpt>
    <trkpt lat="38.654748006" lon="34.847076042">
      <ele>1062.521</ele>
      <time>2021-10-12T13:25:53Z</time>
    </trkpt>
    <trkpt lat="38.654777007" lon="34.847055003">
      <ele>1062.562</ele>
      <time>2021-10-12T13:25:54Z</time>
    </trkpt>
    <trkpt lat="38.654806009" lon="34.847032037">
      <ele>1062.573</ele>
      <time>2021-10-12T13:25:56Z</time>
    </trkpt>
    <trkpt lat="38.654836016" lon="34.847007981">
      <ele>1062.549</ele>
      <time>2021-10-12T13:25:57Z</time>
    </trkpt>
    <trkpt lat="38.654866023" lon="34.846981997">
      <ele>1062.487</ele>
      <time>2021-10-12T13:25:58Z</time>
    </trkpt>
    <trkpt lat="38.65489603" lon="34.846956013">
      <ele>1062.385</ele>
      <time>2021-10-12T13:26:00Z</time>
    </trkpt>
    <trkpt lat="38.654926959" lon="34.846929023">
      <ele>1062.237</ele>
      <time>2021-10-12T13:26:01Z</time>
    </trkpt>
    <trkpt lat="38.654957972" lon="34.846902033">
      <ele>1062.045</ele>
      <time>2021-10-12T13:26:02Z</time>
    </trkpt>
    <trkpt lat="38.654989991" lon="34.846874038">
      <ele>1061.801</ele>
      <time>2021-10-12T13:26:04Z</time>
    </trkpt>
    <trkpt lat="38.65502201" lon="34.846845958">
      <ele>1061.566</ele>
      <time>2021-10-12T13:26:05Z</time>
    </trkpt>
    <trkpt lat="38.655055035" lon="34.846817041">
      <ele>1061.343</ele>
      <time>2021-10-12T13:26:07Z</time>
    </trkpt>
    <trkpt lat="38.655087976" lon="34.846788039">
      <ele>1061.12</ele>
      <time>2021-10-12T13:26:08Z</time>
    </trkpt>
    <trkpt lat="38.655121" lon="34.846759038">
      <ele>1060.897</ele>
      <time>2021-10-12T13:26:10Z</time>
    </trkpt>
    <trkpt lat="38.655153019" lon="34.846730037">
      <ele>1060.677</ele>
      <time>2021-10-12T13:26:11Z</time>
    </trkpt>
    <trkpt lat="38.655183027" lon="34.846704975">
      <ele>1060.479</ele>
      <time>2021-10-12T13:26:13Z</time>
    </trkpt>
    <trkpt lat="38.655210016" lon="34.846679997">
      <ele>1060.292</ele>
      <time>2021-10-12T13:26:14Z</time>
    </trkpt>
    <trkpt lat="38.655236" lon="34.846654013">
      <ele>1060.125</ele>
      <time>2021-10-12T13:26:15Z</time>
    </trkpt>
    <trkpt lat="38.65526299" lon="34.846628029">
      <ele>1059.936</ele>
      <time>2021-10-12T13:26:16Z</time>
    </trkpt>
    <trkpt lat="38.655290985" lon="34.846599028">
      <ele>1059.709</ele>
      <time>2021-10-12T13:26:18Z</time>
    </trkpt>
    <trkpt lat="38.655320993" lon="34.846567009">
      <ele>1059.486</ele>
      <time>2021-10-12T13:26:19Z</time>
    </trkpt>
    <trkpt lat="38.655352006" lon="34.846532978">
      <ele>1059.251</ele>
      <time>2021-10-12T13:26:21Z</time>
    </trkpt>
    <trkpt lat="38.655382013" lon="34.846499031">
      <ele>1059.021</ele>
      <time>2021-10-12T13:26:22Z</time>
    </trkpt>
    <trkpt lat="38.65541202" lon="34.846467013">
      <ele>1058.798</ele>
      <time>2021-10-12T13:26:23Z</time>
    </trkpt>
    <trkpt lat="38.655440016" lon="34.846435999">
      <ele>1058.586</ele>
      <time>2021-10-12T13:26:25Z</time>
    </trkpt>
    <trkpt lat="38.655466" lon="34.846406998">
      <ele>1058.388</ele>
      <time>2021-10-12T13:26:26Z</time>
    </trkpt>
    <trkpt lat="38.655492989" lon="34.846377997">
      <ele>1058.204</ele>
      <time>2021-10-12T13:26:27Z</time>
    </trkpt>
    <trkpt lat="38.655519979" lon="34.846350001">
      <ele>1058.024</ele>
      <time>2021-10-12T13:26:29Z</time>
    </trkpt>
    <trkpt lat="38.655546969" lon="34.846321">
      <ele>1057.802</ele>
      <time>2021-10-12T13:26:30Z</time>
    </trkpt>
    <trkpt lat="38.655574964" lon="34.846289987">
      <ele>1057.619</ele>
      <time>2021-10-12T13:26:31Z</time>
    </trkpt>
    <trkpt lat="38.65560296" lon="34.846256962">
      <ele>1057.444</ele>
      <time>2021-10-12T13:26:33Z</time>
    </trkpt>
    <trkpt lat="38.655630033" lon="34.846223015">
      <ele>1057.243</ele>
      <time>2021-10-12T13:26:34Z</time>
    </trkpt>
    <trkpt lat="38.655656017" lon="34.846188985">
      <ele>1057.02</ele>
      <time>2021-10-12T13:26:36Z</time>
    </trkpt>
    <trkpt lat="38.65567999" lon="34.84615596">
      <ele>1056.786</ele>
      <time>2021-10-12T13:26:37Z</time>
    </trkpt>
    <trkpt lat="38.65570304" lon="34.846122013">
      <ele>1056.529</ele>
      <time>2021-10-12T13:26:38Z</time>
    </trkpt>
    <trkpt lat="38.655726006" lon="34.846086977">
      <ele>1056.473</ele>
      <time>2021-10-12T13:26:40Z</time>
    </trkpt>
    <trkpt lat="38.655750984" lon="34.846052025">
      <ele>1056.509</ele>
      <time>2021-10-12T13:26:41Z</time>
    </trkpt>
    <trkpt lat="38.65577504" lon="34.846015982">
      <ele>1056.552</ele>
      <time>2021-10-12T13:26:42Z</time>
    </trkpt>
    <trkpt lat="38.655800018" lon="34.845980024">
      <ele>1056.592</ele>
      <time>2021-10-12T13:26:44Z</time>
    </trkpt>
    <trkpt lat="38.655826002" lon="34.845944988">
      <ele>1056.624</ele>
      <time>2021-10-12T13:26:45Z</time>
    </trkpt>
    <trkpt lat="38.65585098" lon="34.845911041">
      <ele>1056.674</ele>
      <time>2021-10-12T13:26:46Z</time>
    </trkpt>
    <trkpt lat="38.65587797" lon="34.84587701">
      <ele>1056.707</ele>
      <time>2021-10-12T13:26:48Z</time>
    </trkpt>
    <trkpt lat="38.65590496" lon="34.845841974">
      <ele>1056.719</ele>
      <time>2021-10-12T13:26:49Z</time>
    </trkpt>
    <trkpt lat="38.655932033" lon="34.845808027">
      <ele>1056.912</ele>
      <time>2021-10-12T13:26:51Z</time>
    </trkpt>
    <trkpt lat="38.655959023" lon="34.845772991">
      <ele>1057.122</ele>
      <time>2021-10-12T13:26:52Z</time>
    </trkpt>
    <trkpt lat="38.655986013" lon="34.845738038">
      <ele>1057.257</ele>
      <time>2021-10-12T13:26:54Z</time>
    </trkpt>
    <trkpt lat="38.656013003" lon="34.845703002">
      <ele>1057.32</ele>
      <time>2021-10-12T13:26:55Z</time>
    </trkpt>
    <trkpt lat="38.656039992" lon="34.845668972">
      <ele>1057.302</ele>
      <time>2021-10-12T13:26:56Z</time>
    </trkpt>
    <trkpt lat="38.656065976" lon="34.845635025">
      <ele>1057.224</ele>
      <time>2021-10-12T13:26:58Z</time>
    </trkpt>
    <trkpt lat="38.65609196" lon="34.845597977">
      <ele>1057.091</ele>
      <time>2021-10-12T13:26:59Z</time>
    </trkpt>
    <trkpt lat="38.656118028" lon="34.845560007">
      <ele>1056.984</ele>
      <time>2021-10-12T13:27:01Z</time>
    </trkpt>
    <trkpt lat="38.656144012" lon="34.845520025">
      <ele>1057.451</ele>
      <time>2021-10-12T13:27:02Z</time>
    </trkpt>
    <trkpt lat="38.656169996" lon="34.845479038">
      <ele>1057.868</ele>
      <time>2021-10-12T13:27:04Z</time>
    </trkpt>
    <trkpt lat="38.656196985" lon="34.845438972">
      <ele>1058.16</ele>
      <time>2021-10-12T13:27:05Z</time>
    </trkpt>
    <trkpt lat="38.656223975" lon="34.84539899">
      <ele>1058.338</ele>
      <time>2021-10-12T13:27:07Z</time>
    </trkpt>
    <trkpt lat="38.656251971" lon="34.845359009">
      <ele>1058.395</ele>
      <time>2021-10-12T13:27:08Z</time>
    </trkpt>
    <trkpt lat="38.65627896" lon="34.845319027">
      <ele>1058.348</ele>
      <time>2021-10-12T13:27:10Z</time>
    </trkpt>
    <trkpt lat="38.65630704" lon="34.845279967">
      <ele>1058.169</ele>
      <time>2021-10-12T13:27:11Z</time>
    </trkpt>
    <trkpt lat="38.656335035" lon="34.845240992">
      <ele>1057.908</ele>
      <time>2021-10-12T13:27:13Z</time>
    </trkpt>
    <trkpt lat="38.656364037" lon="34.845202016">
      <ele>1057.631</ele>
      <time>2021-10-12T13:27:14Z</time>
    </trkpt>
    <trkpt lat="38.656392032" lon="34.84516304">
      <ele>1057.392</ele>
      <time>2021-10-12T13:27:16Z</time>
    </trkpt>
    <trkpt lat="38.656422039" lon="34.84512398">
      <ele>1057.302</ele>
      <time>2021-10-12T13:27:18Z</time>
    </trkpt>
    <trkpt lat="38.656451963" lon="34.845085004">
      <ele>1057.152</ele>
      <time>2021-10-12T13:27:19Z</time>
    </trkpt>
    <trkpt lat="38.65648197" lon="34.845046028">
      <ele>1056.94</ele>
      <time>2021-10-12T13:27:21Z</time>
    </trkpt>
    <trkpt lat="38.656511977" lon="34.845005963">
      <ele>1056.668</ele>
      <time>2021-10-12T13:27:22Z</time>
    </trkpt>
    <trkpt lat="38.656543996" lon="34.844966987">
      <ele>1056.311</ele>
      <time>2021-10-12T13:27:24Z</time>
    </trkpt>
    <trkpt lat="38.656576015" lon="34.844927005">
      <ele>1055.888</ele>
      <time>2021-10-12T13:27:26Z</time>
    </trkpt>
    <trkpt lat="38.656607028" lon="34.844889035">
      <ele>1055.416</ele>
      <time>2021-10-12T13:27:27Z</time>
    </trkpt>
    <trkpt lat="38.656638041" lon="34.844850982">
      <ele>1054.883</ele>
      <time>2021-10-12T13:27:29Z</time>
    </trkpt>
    <trkpt lat="38.65666897" lon="34.844815023">
      <ele>1054.329</ele>
      <time>2021-10-12T13:27:30Z</time>
    </trkpt>
    <trkpt lat="38.656701995" lon="34.844781999">
      <ele>1054.16</ele>
      <time>2021-10-12T13:27:32Z</time>
    </trkpt>
    <trkpt lat="38.656736026" lon="34.844751991">
      <ele>1054.054</ele>
      <time>2021-10-12T13:27:33Z</time>
    </trkpt>
    <trkpt lat="38.656770978" lon="34.844725002">
      <ele>1054.002</ele>
      <time>2021-10-12T13:27:35Z</time>
    </trkpt>
    <trkpt lat="38.656809032" lon="34.844702035">
      <ele>1054.181</ele>
      <time>2021-10-12T13:27:37Z</time>
    </trkpt>
    <trkpt lat="38.656845996" lon="34.844684014">
      <ele>1054.324</ele>
      <time>2021-10-12T13:27:38Z</time>
    </trkpt>
    <trkpt lat="38.656883966" lon="34.844672028">
      <ele>1054.401</ele>
      <time>2021-10-12T13:27:39Z</time>
    </trkpt>
    <trkpt lat="38.65692202" lon="34.84466197">
      <ele>1054.451</ele>
      <time>2021-10-12T13:27:41Z</time>
    </trkpt>
    <trkpt lat="38.656958984" lon="34.844650989">
      <ele>1054.461</ele>
      <time>2021-10-12T13:27:42Z</time>
    </trkpt>
    <trkpt lat="38.656996032" lon="34.844636992">
      <ele>1054.428</ele>
      <time>2021-10-12T13:27:44Z</time>
    </trkpt>
    <trkpt lat="38.657032996" lon="34.844618971">
      <ele>1054.425</ele>
      <time>2021-10-12T13:27:45Z</time>
    </trkpt>
    <trkpt lat="38.657069039" lon="34.844598016">
      <ele>1054.446</ele>
      <time>2021-10-12T13:27:47Z</time>
    </trkpt>
    <trkpt lat="38.657104997" lon="34.844575971">
      <ele>1054.475</ele>
      <time>2021-10-12T13:27:48Z</time>
    </trkpt>
    <trkpt lat="38.657138022" lon="34.844551999">
      <ele>1054.529</ele>
      <time>2021-10-12T13:27:50Z</time>
    </trkpt>
    <trkpt lat="38.657166017" lon="34.844525009">
      <ele>1054.622</ele>
      <time>2021-10-12T13:27:51Z</time>
    </trkpt>
    <trkpt lat="38.657192001" lon="34.844497014">
      <ele>1054.73</ele>
      <time>2021-10-12T13:27:52Z</time>
    </trkpt>
    <trkpt lat="38.657219997" lon="34.84447103">
      <ele>1054.817</ele>
      <time>2021-10-12T13:27:53Z</time>
    </trkpt>
    <trkpt lat="38.657246986" lon="34.844445968">
      <ele>1054.9</ele>
      <time>2021-10-12T13:27:55Z</time>
    </trkpt>
    <trkpt lat="38.657273976" lon="34.844423002">
      <ele>1054.954</ele>
      <time>2021-10-12T13:27:56Z</time>
    </trkpt>
    <trkpt lat="38.65729996" lon="34.844400035">
      <ele>1054.995</ele>
      <time>2021-10-12T13:27:57Z</time>
    </trkpt>
    <trkpt lat="38.657326028" lon="34.844374973">
      <ele>1055.033</ele>
      <time>2021-10-12T13:27:58Z</time>
    </trkpt>
    <trkpt lat="38.657351006" lon="34.844348989">
      <ele>1055.064</ele>
      <time>2021-10-12T13:27:59Z</time>
    </trkpt>
    <trkpt lat="38.657377996" lon="34.844324011">
      <ele>1055.063</ele>
      <time>2021-10-12T13:28:01Z</time>
    </trkpt>
    <trkpt lat="38.657406997" lon="34.844299033">
      <ele>1055.034</ele>
      <time>2021-10-12T13:28:02Z</time>
    </trkpt>
    <trkpt lat="38.657435998" lon="34.844277995">
      <ele>1054.968</ele>
      <time>2021-10-12T13:28:03Z</time>
    </trkpt>
    <trkpt lat="38.657465" lon="34.84427196">
      <ele>1054.825</ele>
      <time>2021-10-12T13:28:04Z</time>
    </trkpt>
    <trkpt lat="38.657487966" lon="34.844270032">
      <ele>1054.698</ele>
      <time>2021-10-12T13:28:05Z</time>
    </trkpt>
    <trkpt lat="38.657511016" lon="34.844271038">
      <ele>1054.56</ele>
      <time>2021-10-12T13:28:06Z</time>
    </trkpt>
    <trkpt lat="38.657537" lon="34.844272966">
      <ele>1054.402</ele>
      <time>2021-10-12T13:28:07Z</time>
    </trkpt>
    <trkpt lat="38.657568013" lon="34.84427196">
      <ele>1054.224</ele>
      <time>2021-10-12T13:28:08Z</time>
    </trkpt>
    <trkpt lat="38.657601038" lon="34.844267014">
      <ele>1054.043</ele>
      <time>2021-10-12T13:28:09Z</time>
    </trkpt>
    <trkpt lat="38.657633979" lon="34.844257962">
      <ele>1053.865</ele>
      <time>2021-10-12T13:28:11Z</time>
    </trkpt>
    <trkpt lat="38.657668009" lon="34.844247987">
      <ele>1053.675</ele>
      <time>2021-10-12T13:28:12Z</time>
    </trkpt>
    <trkpt lat="38.657702962" lon="34.844237007">
      <ele>1053.47</ele>
      <time>2021-10-12T13:28:13Z</time>
    </trkpt>
    <trkpt lat="38.657739004" lon="34.844225021">
      <ele>1053.25</ele>
      <time>2021-10-12T13:28:15Z</time>
    </trkpt>
    <trkpt lat="38.65777798" lon="34.844214041">
      <ele>1052.999</ele>
      <time>2021-10-12T13:28:16Z</time>
    </trkpt>
    <trkpt lat="38.657818967" lon="34.844203983">
      <ele>1052.852</ele>
      <time>2021-10-12T13:28:18Z</time>
    </trkpt>
    <trkpt lat="38.657860039" lon="34.844193002">
      <ele>1052.704</ele>
      <time>2021-10-12T13:28:19Z</time>
    </trkpt>
    <trkpt lat="38.657901026" lon="34.844183028">
      <ele>1052.556</ele>
      <time>2021-10-12T13:28:21Z</time>
    </trkpt>
    <trkpt lat="38.657942014" lon="34.844173975">
      <ele>1052.409</ele>
      <time>2021-10-12T13:28:22Z</time>
    </trkpt>
    <trkpt lat="38.65798099" lon="34.844166012">
      <ele>1052.268</ele>
      <time>2021-10-12T13:28:24Z</time>
    </trkpt>
    <trkpt lat="38.658018038" lon="34.844158972">
      <ele>1052.135</ele>
      <time>2021-10-12T13:28:25Z</time>
    </trkpt>
    <trkpt lat="38.658056008" lon="34.844152015">
      <ele>1052.0</ele>
      <time>2021-10-12T13:28:26Z</time>
    </trkpt>
    <trkpt lat="38.658094984" lon="34.84414598">
      <ele>1052.0</ele>
      <time>2021-10-12T13:28:28Z</time>
    </trkpt>
    <trkpt lat="38.658133959" lon="34.844140029">
      <ele>1052.0</ele>
      <time>2021-10-12T13:28:29Z</time>
    </trkpt>
    <trkpt lat="38.658173019" lon="34.844136005">
      <ele>1052.0</ele>
      <time>2021-10-12T13:28:31Z</time>
    </trkpt>
    <trkpt lat="38.658210989" lon="34.844131982">
      <ele>1052.0</ele>
      <time>2021-10-12T13:28:32Z</time>
    </trkpt>
    <trkpt lat="38.658247031" lon="34.844132988">
      <ele>1052.0</ele>
      <time>2021-10-12T13:28:34Z</time>
    </trkpt>
    <trkpt lat="38.658283995" lon="34.844138017">
      <ele>1052.0</ele>
      <time>2021-10-12T13:28:35Z</time>
    </trkpt>
    <trkpt lat="38.658319032" lon="34.844150003">
      <ele>1052.0</ele>
      <time>2021-10-12T13:28:36Z</time>
    </trkpt>
    <trkpt lat="38.658353984" lon="34.844168024">
      <ele>1052.079</ele>
      <time>2021-10-12T13:28:38Z</time>
    </trkpt>
    <trkpt lat="38.658386003" lon="34.844186967">
      <ele>1052.249</ele>
      <time>2021-10-12T13:28:39Z</time>
    </trkpt>
    <trkpt lat="38.658412993" lon="34.844212029">
      <ele>1052.403</ele>
      <time>2021-10-12T13:28:40Z</time>
    </trkpt>
    <trkpt lat="38.658437971" lon="34.844239019">
      <ele>1052.539</ele>
      <time>2021-10-12T13:28:41Z</time>
    </trkpt>
    <trkpt lat="38.658463033" lon="34.844266009">
      <ele>1052.658</ele>
      <time>2021-10-12T13:28:43Z</time>
    </trkpt>
    <trkpt lat="38.658488011" lon="34.84429501">
      <ele>1052.762</ele>
      <time>2021-10-12T13:28:44Z</time>
    </trkpt>
    <trkpt lat="38.658510977" lon="34.844324011">
      <ele>1052.844</ele>
      <time>2021-10-12T13:28:45Z</time>
    </trkpt>
    <trkpt lat="38.658530004" lon="34.844352007">
      <ele>1052.903</ele>
      <time>2021-10-12T13:28:46Z</time>
    </trkpt>
    <trkpt lat="38.658545008" lon="34.844382014">
      <ele>1052.947</ele>
      <time>2021-10-12T13:28:47Z</time>
    </trkpt>
    <trkpt lat="38.658565041" lon="34.844406992">
      <ele>1052.978</ele>
      <time>2021-10-12T13:28:48Z</time>
    </trkpt>
    <trkpt lat="38.658589013" lon="34.844429037">
      <ele>1052.996</ele>
      <time>2021-10-12T13:28:49Z</time>
    </trkpt>
    <trkpt lat="38.658616003" lon="34.844446974">
      <ele>1053.009</ele>
      <time>2021-10-12T13:28:50Z</time>
    </trkpt>
    <trkpt lat="38.65864601" lon="34.844461977">
      <ele>1053.063</ele>
      <time>2021-10-12T13:28:52Z</time>
    </trkpt>
    <trkpt lat="38.658674005" lon="34.844477987">
      <ele>1053.121</ele>
      <time>2021-10-12T13:28:53Z</time>
    </trkpt>
    <trkpt lat="38.658699989" lon="34.844492991">
      <ele>1053.175</ele>
      <time>2021-10-12T13:28:54Z</time>
    </trkpt>
    <trkpt lat="38.658731002" lon="34.844507994">
      <ele>1053.229</ele>
      <time>2021-10-12T13:28:55Z</time>
    </trkpt>
    <trkpt lat="38.658758998" lon="34.844522998">
      <ele>1053.283</ele>
      <time>2021-10-12T13:28:56Z</time>
    </trkpt>
    <trkpt lat="38.658784982" lon="34.844540013">
      <ele>1053.344</ele>
      <time>2021-10-12T13:28:57Z</time>
    </trkpt>
    <trkpt lat="38.65880996" lon="34.844559962">
      <ele>1053.416</ele>
      <time>2021-10-12T13:28:58Z</time>
    </trkpt>
    <trkpt lat="38.658830998" lon="34.844583012">
      <ele>1053.499</ele>
      <time>2021-10-12T13:28:59Z</time>
    </trkpt>
    <trkpt lat="38.658846002" lon="34.844603967">
      <ele>1053.574</ele>
      <time>2021-10-12T13:29:00Z</time>
    </trkpt>
    <trkpt lat="38.658857988" lon="34.844622994">
      <ele>1053.643</ele>
      <time>2021-10-12T13:29:01Z</time>
    </trkpt>
    <trkpt lat="38.658868968" lon="34.844648978">
      <ele>1053.736</ele>
      <time>2021-10-12T13:29:02Z</time>
    </trkpt>
    <trkpt lat="38.658868968" lon="34.844684014">
      <ele>1053.862</ele>
      <time>2021-10-12T13:29:03Z</time>
    </trkpt>
    <trkpt lat="38.658864023" lon="34.844719972">
      <ele>1053.992</ele>
      <time>2021-10-12T13:29:04Z</time>
    </trkpt>
    <trkpt lat="38.658850025" lon="34.844750986">
      <ele>1054.089</ele>
      <time>2021-10-12T13:29:05Z</time>
    </trkpt>
    <trkpt lat="38.658829993" lon="34.844778981">
      <ele>1054.161</ele>
      <time>2021-10-12T13:29:06Z</time>
    </trkpt>
    <trkpt lat="38.658810966" lon="34.844808988">
      <ele>1054.225</ele>
      <time>2021-10-12T13:29:07Z</time>
    </trkpt>
    <trkpt lat="38.658792023" lon="34.844840001">
      <ele>1054.276</ele>
      <time>2021-10-12T13:29:08Z</time>
    </trkpt>
    <trkpt lat="38.658772996" lon="34.844871014">
      <ele>1054.312</ele>
      <time>2021-10-12T13:29:09Z</time>
    </trkpt>
    <trkpt lat="38.658752963" lon="34.844902027">
      <ele>1054.331</ele>
      <time>2021-10-12T13:29:11Z</time>
    </trkpt>
    <trkpt lat="38.658731002" lon="34.844932035">
      <ele>1054.326</ele>
      <time>2021-10-12T13:29:12Z</time>
    </trkpt>
    <trkpt lat="38.658709042" lon="34.844961036">
      <ele>1054.303</ele>
      <time>2021-10-12T13:29:13Z</time>
    </trkpt>
    <trkpt lat="38.658684986" lon="34.84498702">
      <ele>1054.254</ele>
      <time>2021-10-12T13:29:14Z</time>
    </trkpt>
    <trkpt lat="38.658661013" lon="34.845009986">
      <ele>1054.216</ele>
      <time>2021-10-12T13:29:15Z</time>
    </trkpt>
    <trkpt lat="38.658636035" lon="34.845029013">
      <ele>1054.194</ele>
      <time>2021-10-12T13:29:16Z</time>
    </trkpt>
    <trkpt lat="38.658609968" lon="34.845046028">
      <ele>1054.166</ele>
      <time>2021-10-12T13:29:17Z</time>
    </trkpt>
    <trkpt lat="38.658582978" lon="34.845062038">
      <ele>1054.223</ele>
      <time>2021-10-12T13:29:18Z</time>
    </trkpt>
    <trkpt lat="38.658555988" lon="34.845077964">
      <ele>1054.281</ele>
      <time>2021-10-12T13:29:20Z</time>
    </trkpt>
    <trkpt lat="38.65853101" lon="34.84509699">
      <ele>1054.349</ele>
      <time>2021-10-12T13:29:21Z</time>
    </trkpt>
    <trkpt lat="38.658506032" lon="34.845118029">
      <ele>1054.425</ele>
      <time>2021-10-12T13:29:22Z</time>
    </trkpt>
    <trkpt lat="38.658483988" lon="34.845140995">
      <ele>1054.508</ele>
      <time>2021-10-12T13:29:23Z</time>
    </trkpt>
    <trkpt lat="38.658464039" lon="34.845169997">
      <ele>1054.612</ele>
      <time>2021-10-12T13:29:24Z</time>
    </trkpt>
    <trkpt lat="38.658448029" lon="34.84520101">
      <ele>1054.724</ele>
      <time>2021-10-12T13:29:25Z</time>
    </trkpt>
    <trkpt lat="38.658438977" lon="34.845235962">
      <ele>1054.849</ele>
      <time>2021-10-12T13:29:26Z</time>
    </trkpt>
    <trkpt lat="38.658434032" lon="34.845274016">
      <ele>1054.986</ele>
      <time>2021-10-12T13:29:27Z</time>
    </trkpt>
    <trkpt lat="38.658433026" lon="34.84531601">
      <ele>1055.226</ele>
      <time>2021-10-12T13:29:28Z</time>
    </trkpt>
    <trkpt lat="38.658435037" lon="34.84536102">
      <ele>1055.49</ele>
      <time>2021-10-12T13:29:30Z</time>
    </trkpt>
    <trkpt lat="38.658436965" lon="34.84540402">
      <ele>1055.739</ele>
      <time>2021-10-12T13:29:31Z</time>
    </trkpt>
    <trkpt lat="38.658436965" lon="34.845444001">
      <ele>1055.974</ele>
      <time>2021-10-12T13:29:32Z</time>
    </trkpt>
    <trkpt lat="38.658435959" lon="34.845483983">
      <ele>1056.21</ele>
      <time>2021-10-12T13:29:33Z</time>
    </trkpt>
    <trkpt lat="38.658433026" lon="34.845526982">
      <ele>1056.472</ele>
      <time>2021-10-12T13:29:34Z</time>
    </trkpt>
    <trkpt lat="38.658429002" lon="34.845571993">
      <ele>1056.715</ele>
      <time>2021-10-12T13:29:36Z</time>
    </trkpt>
    <trkpt lat="38.65842104" lon="34.845615998">
      <ele>1056.902</ele>
      <time>2021-10-12T13:29:37Z</time>
    </trkpt>
    <trkpt lat="38.658410981" lon="34.845661009">
      <ele>1057.1</ele>
      <time>2021-10-12T13:29:38Z</time>
    </trkpt>
    <trkpt lat="38.658396984" lon="34.845707025">
      <ele>1057.316</ele>
      <time>2021-10-12T13:29:40Z</time>
    </trkpt>
    <trkpt lat="38.658380974" lon="34.84575103">
      <ele>1057.532</ele>
      <time>2021-10-12T13:29:41Z</time>
    </trkpt>
    <trkpt lat="38.658362031" lon="34.845792018">
      <ele>1057.748</ele>
      <time>2021-10-12T13:29:43Z</time>
    </trkpt>
    <trkpt lat="38.658339987" lon="34.845833005">
      <ele>1057.975</ele>
      <time>2021-10-12T13:29:44Z</time>
    </trkpt>
    <trkpt lat="38.658318026" lon="34.845871981">
      <ele>1058.194</ele>
      <time>2021-10-12T13:29:46Z</time>
    </trkpt>
    <trkpt lat="38.65829397" lon="34.845911041">
      <ele>1058.421</ele>
      <time>2021-10-12T13:29:47Z</time>
    </trkpt>
    <trkpt lat="38.658273015" lon="34.845951023">
      <ele>1058.641</ele>
      <time>2021-10-12T13:29:48Z</time>
    </trkpt>
    <trkpt lat="38.658254994" lon="34.845993016">
      <ele>1058.857</ele>
      <time>2021-10-12T13:29:50Z</time>
    </trkpt>
    <trkpt lat="38.658237979" lon="34.846036015">
      <ele>1059.073</ele>
      <time>2021-10-12T13:29:51Z</time>
    </trkpt>
    <trkpt lat="38.658223981" lon="34.846081026">
      <ele>1059.285</ele>
      <time>2021-10-12T13:29:53Z</time>
    </trkpt>
    <trkpt lat="38.658215012" lon="34.84612897">
      <ele>1059.508</ele>
      <time>2021-10-12T13:29:54Z</time>
    </trkpt>
    <trkpt lat="38.658206966" lon="34.846173981">
      <ele>1059.764</ele>
      <time>2021-10-12T13:29:55Z</time>
    </trkpt>
    <trkpt lat="38.658201015" lon="34.846213963">
      <ele>1060.005</ele>
      <time>2021-10-12T13:29:57Z</time>
    </trkpt>
    <trkpt lat="38.658197997" lon="34.846246988">
      <ele>1060.202</ele>
      <time>2021-10-12T13:29:57Z</time>
    </trkpt>
    <trkpt lat="38.658193974" lon="34.846278001">
      <ele>1060.406</ele>
      <time>2021-10-12T13:29:58Z</time>
    </trkpt>
    <trkpt lat="38.658201015" lon="34.846302979">
      <ele>1060.463</ele>
      <time>2021-10-12T13:29:59Z</time>
    </trkpt>
    <trkpt lat="38.658192968" lon="34.846328041">
      <ele>1060.689</ele>
      <time>2021-10-12T13:30:00Z</time>
    </trkpt>
    <trkpt lat="38.658185005" lon="34.84635897">
      <ele>1060.963</ele>
      <time>2021-10-12T13:30:01Z</time>
    </trkpt>
    <trkpt lat="38.65817897" lon="34.846390989">
      <ele>1061.226</ele>
      <time>2021-10-12T13:30:02Z</time>
    </trkpt>
    <trkpt lat="38.658174025" lon="34.846422002">
      <ele>1061.345</ele>
      <time>2021-10-12T13:30:03Z</time>
    </trkpt>
    <trkpt lat="38.658158015" lon="34.846443962">
      <ele>1061.598</ele>
      <time>2021-10-12T13:30:04Z</time>
    </trkpt>
    <trkpt lat="38.658145024" lon="34.846463995">
      <ele>1061.799</ele>
      <time>2021-10-12T13:30:04Z</time>
    </trkpt>
    <trkpt lat="38.658132032" lon="34.846485034">
      <ele>1061.994</ele>
      <time>2021-10-12T13:30:05Z</time>
    </trkpt>
    <trkpt lat="38.658116022" lon="34.846514035">
      <ele>1062.227</ele>
      <time>2021-10-12T13:30:06Z</time>
    </trkpt>
    <trkpt lat="38.658105042" lon="34.846539013">
      <ele>1062.384</ele>
      <time>2021-10-12T13:30:07Z</time>
    </trkpt>
    <trkpt lat="38.65809096" lon="34.846556028">
      <ele>1062.567</ele>
      <time>2021-10-12T13:30:08Z</time>
    </trkpt>
    <trkpt lat="38.658076962" lon="34.846577989">
      <ele>1062.744</ele>
      <time>2021-10-12T13:30:09Z</time>
    </trkpt>
    <trkpt lat="38.658061037" lon="34.846590981">
      <ele>1062.935</ele>
      <time>2021-10-12T13:30:09Z</time>
    </trkpt>
    <trkpt lat="38.658039998" lon="34.846597016">
      <ele>1063.28</ele>
      <time>2021-10-12T13:30:10Z</time>
    </trkpt>
    <trkpt lat="38.658021977" lon="34.84660699">
      <ele>1063.604</ele>
      <time>2021-10-12T13:30:11Z</time>
    </trkpt>
    <trkpt lat="38.658005968" lon="34.846628029">
      <ele>1063.893</ele>
      <time>2021-10-12T13:30:12Z</time>
    </trkpt>
    <trkpt lat="38.657993982" lon="34.846645966">
      <ele>1064.108</ele>
      <time>2021-10-12T13:30:12Z</time>
    </trkpt>
    <trkpt lat="38.657975961" lon="34.846658958">
      <ele>1064.433</ele>
      <time>2021-10-12T13:30:13Z</time>
    </trkpt>
    <trkpt lat="38.657960035" lon="34.846675973">
      <ele>1064.775</ele>
      <time>2021-10-12T13:30:14Z</time>
    </trkpt>
    <trkpt lat="38.65794302" lon="34.846692989">
      <ele>1065.177</ele>
      <time>2021-10-12T13:30:15Z</time>
    </trkpt>
    <trkpt lat="38.657928016" lon="34.846708998">
      <ele>1065.531</ele>
      <time>2021-10-12T13:30:15Z</time>
    </trkpt>
    <trkpt lat="38.657912007" lon="34.846728025">
      <ele>1065.912</ele>
      <time>2021-10-12T13:30:16Z</time>
    </trkpt>
    <trkpt lat="38.657898009" lon="34.846747974">
      <ele>1066.255</ele>
      <time>2021-10-12T13:30:17Z</time>
    </trkpt>
    <trkpt lat="38.657881999" lon="34.846761972">
      <ele>1066.596</ele>
      <time>2021-10-12T13:30:18Z</time>
    </trkpt>
    <trkpt lat="38.65786599" lon="34.846777981">
      <ele>1066.94</ele>
      <time>2021-10-12T13:30:18Z</time>
    </trkpt>
    <trkpt lat="38.657849981" lon="34.846789967">
      <ele>1067.26</ele>
      <time>2021-10-12T13:30:19Z</time>
    </trkpt>
    <trkpt lat="38.657831959" lon="34.846800026">
      <ele>1067.598</ele>
      <time>2021-10-12T13:30:20Z</time>
    </trkpt>
    <trkpt lat="38.657806981" lon="34.846813018">
      <ele>1068.057</ele>
      <time>2021-10-12T13:30:21Z</time>
    </trkpt>
    <trkpt lat="38.657783009" lon="34.846812012">
      <ele>1068.439</ele>
      <time>2021-10-12T13:30:22Z</time>
    </trkpt>
    <trkpt lat="38.657760965" lon="34.846798014">
      <ele>1068.897</ele>
      <time>2021-10-12T13:30:23Z</time>
    </trkpt>
    <trkpt lat="38.657736992" lon="34.846793991">
      <ele>1069.486</ele>
      <time>2021-10-12T13:30:24Z</time>
    </trkpt>
    <trkpt lat="38.657717966" lon="34.846792985">
      <ele>1069.962</ele>
      <time>2021-10-12T13:30:24Z</time>
    </trkpt>
    <trkpt lat="38.657697011" lon="34.846793991">
      <ele>1070.494</ele>
      <time>2021-10-12T13:30:25Z</time>
    </trkpt>
    <trkpt lat="38.65767899" lon="34.846794996">
      <ele>1070.951</ele>
      <time>2021-10-12T13:30:26Z</time>
    </trkpt>
    <trkpt lat="38.657659041" lon="34.846784016">
      <ele>1071.415</ele>
      <time>2021-10-12T13:30:26Z</time>
    </trkpt>
    <trkpt lat="38.657636996" lon="34.846777981">
      <ele>1071.948</ele>
      <time>2021-10-12T13:30:27Z</time>
    </trkpt>
    <trkpt lat="38.657617969" lon="34.846776975">
      <ele>1072.424</ele>
      <time>2021-10-12T13:30:28Z</time>
    </trkpt>
    <trkpt lat="38.657596009" lon="34.846779993">
      <ele>1072.989</ele>
      <time>2021-10-12T13:30:29Z</time>
    </trkpt>
    <trkpt lat="38.657571031" lon="34.846794996">
      <ele>1073.672</ele>
      <time>2021-10-12T13:30:30Z</time>
    </trkpt>
    <trkpt lat="38.657560972" lon="34.846822992">
      <ele>1074.026</ele>
      <time>2021-10-12T13:30:31Z</time>
    </trkpt>
    <trkpt lat="38.657557033" lon="34.846856017">
      <ele>1074.244</ele>
      <time>2021-10-12T13:30:32Z</time>
    </trkpt>
    <trkpt lat="38.657548986" lon="34.846875966">
      <ele>1074.519</ele>
      <time>2021-10-12T13:30:32Z</time>
    </trkpt>
    <trkpt lat="38.657538006" lon="34.84689801">
      <ele>1074.875</ele>
      <time>2021-10-12T13:30:33Z</time>
    </trkpt>
    <trkpt lat="38.657521997" lon="34.846913014">
      <ele>1075.333</ele>
      <time>2021-10-12T13:30:34Z</time>
    </trkpt>
    <trkpt lat="38.657505987" lon="34.846932963">
      <ele>1075.808</ele>
      <time>2021-10-12T13:30:35Z</time>
    </trkpt>
    <trkpt lat="38.657492995" lon="34.846955007">
      <ele>1076.126</ele>
      <time>2021-10-12T13:30:35Z</time>
    </trkpt>
    <trkpt lat="38.657478997" lon="34.84697504">
      <ele>1076.363</ele>
      <time>2021-10-12T13:30:36Z</time>
    </trkpt>
    <trkpt lat="38.657470029" lon="34.847003035">
      <ele>1076.615</ele>
      <time>2021-10-12T13:30:37Z</time>
    </trkpt>
    <trkpt lat="38.657472963" lon="34.847036982">
      <ele>1076.829</ele>
      <time>2021-10-12T13:30:38Z</time>
    </trkpt>
    <trkpt lat="38.657471035" lon="34.847069001">
      <ele>1077.059</ele>
      <time>2021-10-12T13:30:39Z</time>
    </trkpt>
    <trkpt lat="38.657471035" lon="34.84710102">
      <ele>1077.277</ele>
      <time>2021-10-12T13:30:40Z</time>
    </trkpt>
    <trkpt lat="38.657473968" lon="34.847123986">
      <ele>1077.42</ele>
      <time>2021-10-12T13:30:41Z</time>
    </trkpt>
    <trkpt lat="38.65747598" lon="34.847147036">
      <ele>1077.569</ele>
      <time>2021-10-12T13:30:41Z</time>
    </trkpt>
    <trkpt lat="38.657474974" lon="34.847180983">
      <ele>1077.807</ele>
      <time>2021-10-12T13:30:42Z</time>
    </trkpt>
    <trkpt lat="38.657472041" lon="34.847213002">
      <ele>1078.038</ele>
      <time>2021-10-12T13:30:43Z</time>
    </trkpt>
    <trkpt lat="38.657460976" lon="34.84723798">
      <ele>1078.279</ele>
      <time>2021-10-12T13:30:44Z</time>
    </trkpt>
    <trkpt lat="38.657445973" lon="34.847252984">
      <ele>1078.441</ele>
      <time>2021-10-12T13:30:45Z</time>
    </trkpt>
    <trkpt lat="38.657429041" lon="34.847269999">
      <ele>1078.596</ele>
      <time>2021-10-12T13:30:46Z</time>
    </trkpt>
    <trkpt lat="38.657415966" lon="34.847290032">
      <ele>1078.739</ele>
      <time>2021-10-12T13:30:46Z</time>
    </trkpt>
    <trkpt lat="38.657396017" lon="34.84733697">
      <ele>1078.995</ele>
      <time>2021-10-12T13:30:48Z</time>
    </trkpt>
    <trkpt lat="38.657401968" lon="34.847364966">
      <ele>1079.169</ele>
      <time>2021-10-12T13:30:49Z</time>
    </trkpt>
    <trkpt lat="38.657409009" lon="34.847389022">
      <ele>1079.342</ele>
      <time>2021-10-12T13:30:50Z</time>
    </trkpt>
    <trkpt lat="38.657423006" lon="34.847409977">
      <ele>1079.556</ele>
      <time>2021-10-12T13:30:50Z</time>
    </trkpt>
    <trkpt lat="38.657439016" lon="34.847430009">
      <ele>1079.807</ele>
      <time>2021-10-12T13:30:51Z</time>
    </trkpt>
    <trkpt lat="38.65744899" lon="34.84745197">
      <ele>1080.057</ele>
      <time>2021-10-12T13:30:52Z</time>
    </trkpt>
    <trkpt lat="38.657457037" lon="34.84747896">
      <ele>1080.356</ele>
      <time>2021-10-12T13:30:53Z</time>
    </trkpt>
    <trkpt lat="38.657468017" lon="34.847506033">
      <ele>1080.698</ele>
      <time>2021-10-12T13:30:54Z</time>
    </trkpt>
    <trkpt lat="38.657474974" lon="34.847533023">
      <ele>1080.967</ele>
      <time>2021-10-12T13:30:54Z</time>
    </trkpt>
    <trkpt lat="38.657481009" lon="34.847554984">
      <ele>1081.191</ele>
      <time>2021-10-12T13:30:55Z</time>
    </trkpt>
    <trkpt lat="38.657485032" lon="34.847580967">
      <ele>1081.421</ele>
      <time>2021-10-12T13:30:56Z</time>
    </trkpt>
    <trkpt lat="38.657490984" lon="34.847608963">
      <ele>1081.687</ele>
      <time>2021-10-12T13:30:57Z</time>
    </trkpt>
    <trkpt lat="38.657507999" lon="34.847635031">
      <ele>1081.928</ele>
      <time>2021-10-12T13:30:58Z</time>
    </trkpt>
    <trkpt lat="38.657520991" lon="34.847661015">
      <ele>1082.064</ele>
      <time>2021-10-12T13:30:59Z</time>
    </trkpt>
    <trkpt lat="38.657540018" lon="34.847667972">
      <ele>1082.039</ele>
      <time>2021-10-12T13:30:59Z</time>
    </trkpt>
    <trkpt lat="38.657541024" lon="34.847694039">
      <ele>1082.264</ele>
      <time>2021-10-12T13:31:00Z</time>
    </trkpt>
    <trkpt lat="38.657544041" lon="34.847718012">
      <ele>1082.467</ele>
      <time>2021-10-12T13:31:01Z</time>
    </trkpt>
    <trkpt lat="38.657548986" lon="34.84774299">
      <ele>1082.683</ele>
      <time>2021-10-12T13:31:02Z</time>
    </trkpt>
    <trkpt lat="38.65756399" lon="34.847764028">
      <ele>1082.867</ele>
      <time>2021-10-12T13:31:02Z</time>
    </trkpt>
    <trkpt lat="38.657571031" lon="34.84779303">
      <ele>1083.234</ele>
      <time>2021-10-12T13:31:03Z</time>
    </trkpt>
    <trkpt lat="38.657578994" lon="34.847820019">
      <ele>1083.652</ele>
      <time>2021-10-12T13:31:04Z</time>
    </trkpt>
    <trkpt lat="38.657586034" lon="34.847848015">
      <ele>1084.09</ele>
      <time>2021-10-12T13:31:05Z</time>
    </trkpt>
    <trkpt lat="38.657601038" lon="34.847867042">
      <ele>1084.402</ele>
      <time>2021-10-12T13:31:06Z</time>
    </trkpt>
    <trkpt lat="38.657620987" lon="34.847881962">
      <ele>1084.664</ele>
      <time>2021-10-12T13:31:07Z</time>
    </trkpt>
    <trkpt lat="38.657634985" lon="34.847898977">
      <ele>1084.957</ele>
      <time>2021-10-12T13:31:07Z</time>
    </trkpt>
    <trkpt lat="38.657648982" lon="34.847916998">
      <ele>1085.274</ele>
      <time>2021-10-12T13:31:08Z</time>
    </trkpt>
    <trkpt lat="38.657661974" lon="34.847937031">
      <ele>1085.628</ele>
      <time>2021-10-12T13:31:09Z</time>
    </trkpt>
    <trkpt lat="38.657674966" lon="34.847954968">
      <ele>1085.953</ele>
      <time>2021-10-12T13:31:09Z</time>
    </trkpt>
    <trkpt lat="38.657687036" lon="34.847972989">
      <ele>1086.284</ele>
      <time>2021-10-12T13:31:10Z</time>
    </trkpt>
    <trkpt lat="38.657699022" lon="34.847990004">
      <ele>1086.603</ele>
      <time>2021-10-12T13:31:11Z</time>
    </trkpt>
    <trkpt lat="38.657710003" lon="34.848010037">
      <ele>1086.977</ele>
      <time>2021-10-12T13:31:12Z</time>
    </trkpt>
    <trkpt lat="38.657719977" lon="34.848031998">
      <ele>1087.386</ele>
      <time>2021-10-12T13:31:12Z</time>
    </trkpt>
    <trkpt lat="38.657720983" lon="34.848056976">
      <ele>1087.825</ele>
      <time>2021-10-12T13:31:13Z</time>
    </trkpt>
    <trkpt lat="38.657714026" lon="34.848083965">
      <ele>1088.361</ele>
      <time>2021-10-12T13:31:14Z</time>
    </trkpt>
    <trkpt lat="38.657699022" lon="34.848105004">
      <ele>1088.734</ele>
      <time>2021-10-12T13:31:15Z</time>
    </trkpt>
    <trkpt lat="38.657682007" lon="34.848121013">
      <ele>1088.988</ele>
      <time>2021-10-12T13:31:15Z</time>
    </trkpt>
    <trkpt lat="38.65766298" lon="34.848133">
      <ele>1089.144</ele>
      <time>2021-10-12T13:31:16Z</time>
    </trkpt>
    <trkpt lat="38.657645965" lon="34.848142974">
      <ele>1089.264</ele>
      <time>2021-10-12T13:31:17Z</time>
    </trkpt>
    <trkpt lat="38.657629034" lon="34.848156972">
      <ele>1089.46</ele>
      <time>2021-10-12T13:31:18Z</time>
    </trkpt>
    <trkpt lat="38.657611012" lon="34.848173987">
      <ele>1089.702</ele>
      <time>2021-10-12T13:31:18Z</time>
    </trkpt>
    <trkpt lat="38.657596009" lon="34.848188991">
      <ele>1089.913</ele>
      <time>2021-10-12T13:31:19Z</time>
    </trkpt>
    <trkpt lat="38.657581005" lon="34.848201983">
      <ele>1090.081</ele>
      <time>2021-10-12T13:31:20Z</time>
    </trkpt>
    <trkpt lat="38.657560972" lon="34.848213969">
      <ele>1090.196</ele>
      <time>2021-10-12T13:31:21Z</time>
    </trkpt>
    <trkpt lat="38.657544963" lon="34.848228972">
      <ele>1090.384</ele>
      <time>2021-10-12T13:31:21Z</time>
    </trkpt>
    <trkpt lat="38.657529959" lon="34.848245988">
      <ele>1090.61</ele>
      <time>2021-10-12T13:31:22Z</time>
    </trkpt>
    <trkpt lat="38.657509005" lon="34.848264009">
      <ele>1090.809</ele>
      <time>2021-10-12T13:31:23Z</time>
    </trkpt>
    <trkpt lat="38.657489978" lon="34.848280018">
      <ele>1090.896</ele>
      <time>2021-10-12T13:31:24Z</time>
    </trkpt>
    <trkpt lat="38.657472041" lon="34.848298961">
      <ele>1090.979</ele>
      <time>2021-10-12T13:31:25Z</time>
    </trkpt>
    <trkpt lat="38.657452008" lon="34.848315977">
      <ele>1090.996</ele>
      <time>2021-10-12T13:31:26Z</time>
    </trkpt>
    <trkpt lat="38.657431975" lon="34.848327041">
      <ele>1090.907</ele>
      <time>2021-10-12T13:31:26Z</time>
    </trkpt>
    <trkpt lat="38.657414038" lon="34.848339027">
      <ele>1090.879</ele>
      <time>2021-10-12T13:31:27Z</time>
    </trkpt>
    <trkpt lat="38.657394005" lon="34.848353025">
      <ele>1090.872</ele>
      <time>2021-10-12T13:31:28Z</time>
    </trkpt>
    <trkpt lat="38.657377996" lon="34.848375991">
      <ele>1091.097</ele>
      <time>2021-10-12T13:31:29Z</time>
    </trkpt>
    <trkpt lat="38.657363998" lon="34.848394012">
      <ele>1091.245</ele>
      <time>2021-10-12T13:31:30Z</time>
    </trkpt>
    <trkpt lat="38.65735" lon="34.848410022">
      <ele>1091.347</ele>
      <time>2021-10-12T13:31:30Z</time>
    </trkpt>
    <trkpt lat="38.657333991" lon="34.848431982">
      <ele>1091.528</ele>
      <time>2021-10-12T13:31:31Z</time>
    </trkpt>
    <trkpt lat="38.657318987" lon="34.848451009">
      <ele>1091.659</ele>
      <time>2021-10-12T13:31:32Z</time>
    </trkpt>
    <trkpt lat="38.657309012" lon="34.848471964">
      <ele>1091.901</ele>
      <time>2021-10-12T13:31:33Z</time>
    </trkpt>
    <trkpt lat="38.657301972" lon="34.848509012">
      <ele>1092.492</ele>
      <time>2021-10-12T13:31:34Z</time>
    </trkpt>
    <trkpt lat="38.657297026" lon="34.848542036">
      <ele>1093.036</ele>
      <time>2021-10-12T13:31:35Z</time>
    </trkpt>
    <trkpt lat="38.65729996" lon="34.848571038">
      <ele>1093.638</ele>
      <time>2021-10-12T13:31:36Z</time>
    </trkpt>
    <trkpt lat="38.657296021" lon="34.848601967">
      <ele>1094.155</ele>
      <time>2021-10-12T13:31:37Z</time>
    </trkpt>
    <trkpt lat="38.657293003" lon="34.848625017">
      <ele>1094.337</ele>
      <time>2021-10-12T13:31:37Z</time>
    </trkpt>
    <trkpt lat="38.657294009" lon="34.848647984">
      <ele>1094.459</ele>
      <time>2021-10-12T13:31:38Z</time>
    </trkpt>
    <trkpt lat="38.657299038" lon="34.84867204">
      <ele>1094.663</ele>
      <time>2021-10-12T13:31:39Z</time>
    </trkpt>
    <trkpt lat="38.657298032" lon="34.848703975">
      <ele>1094.79</ele>
      <time>2021-10-12T13:31:40Z</time>
    </trkpt>
    <trkpt lat="38.65728898" lon="34.848734988">
      <ele>1094.755</ele>
      <time>2021-10-12T13:31:41Z</time>
    </trkpt>
    <trkpt lat="38.657283029" lon="34.848764995">
      <ele>1094.77</ele>
      <time>2021-10-12T13:31:41Z</time>
    </trkpt>
    <trkpt lat="38.657274982" lon="34.848795002">
      <ele>1094.737</ele>
      <time>2021-10-12T13:31:42Z</time>
    </trkpt>
    <trkpt lat="38.657270959" lon="34.848817969">
      <ele>1094.753</ele>
      <time>2021-10-12T13:31:43Z</time>
    </trkpt>
    <trkpt lat="38.657268025" lon="34.848843031">
      <ele>1094.797</ele>
      <time>2021-10-12T13:31:44Z</time>
    </trkpt>
    <trkpt lat="38.657264002" lon="34.848868009">
      <ele>1094.816</ele>
      <time>2021-10-12T13:31:45Z</time>
    </trkpt>
    <trkpt lat="38.657258973" lon="34.848893993">
      <ele>1094.796</ele>
      <time>2021-10-12T13:31:45Z</time>
    </trkpt>
    <trkpt lat="38.657252016" lon="34.848918971">
      <ele>1094.655</ele>
      <time>2021-10-12T13:31:46Z</time>
    </trkpt>
    <trkpt lat="38.657248998" lon="34.848954007">
      <ele>1094.601</ele>
      <time>2021-10-12T13:31:47Z</time>
    </trkpt>
    <trkpt lat="38.657246986" lon="34.848977979">
      <ele>1094.563</ele>
      <time>2021-10-12T13:31:48Z</time>
    </trkpt>
    <trkpt lat="38.657244975" lon="34.84900103">
      <ele>1094.525</ele>
      <time>2021-10-12T13:31:48Z</time>
    </trkpt>
    <trkpt lat="38.657239024" lon="34.84903397">
      <ele>1094.395</ele>
      <time>2021-10-12T13:31:49Z</time>
    </trkpt>
    <trkpt lat="38.657237012" lon="34.849064983">
      <ele>1094.353</ele>
      <time>2021-10-12T13:31:50Z</time>
    </trkpt>
    <trkpt lat="38.657242041" lon="34.849099014">
      <ele>1094.482</ele>
      <time>2021-10-12T13:31:51Z</time>
    </trkpt>
    <trkpt lat="38.657243969" lon="34.849123992">
      <ele>1094.536</ele>
      <time>2021-10-12T13:31:52Z</time>
    </trkpt>
    <trkpt lat="38.657244975" lon="34.849147964">
      <ele>1094.568</ele>
      <time>2021-10-12T13:31:53Z</time>
    </trkpt>
    <trkpt lat="38.657247992" lon="34.849174032">
      <ele>1094.755</ele>
      <time>2021-10-12T13:31:54Z</time>
    </trkpt>
    <trkpt lat="38.657246986" lon="34.849207979">
      <ele>1095.219</ele>
      <time>2021-10-12T13:31:55Z</time>
    </trkpt>
    <trkpt lat="38.657244975" lon="34.849233963">
      <ele>1095.542</ele>
      <time>2021-10-12T13:31:55Z</time>
    </trkpt>
    <trkpt lat="38.657242041" lon="34.849259024">
      <ele>1095.829</ele>
      <time>2021-10-12T13:31:56Z</time>
    </trkpt>
    <trkpt lat="38.657244975" lon="34.849293977">
      <ele>1096.407</ele>
      <time>2021-10-12T13:31:57Z</time>
    </trkpt>
    <trkpt lat="38.657245981" lon="34.849319039">
      <ele>1096.793</ele>
      <time>2021-10-12T13:31:58Z</time>
    </trkpt>
    <trkpt lat="38.657244975" lon="34.849344017">
      <ele>1097.127</ele>
      <time>2021-10-12T13:31:59Z</time>
    </trkpt>
    <trkpt lat="38.657244975" lon="34.849370001">
      <ele>1097.501</ele>
      <time>2021-10-12T13:31:59Z</time>
    </trkpt>
    <trkpt lat="38.657243969" lon="34.849396991">
      <ele>1097.865</ele>
      <time>2021-10-12T13:32:00Z</time>
    </trkpt>
    <trkpt lat="38.657242963" lon="34.84942398">
      <ele>1098.228</ele>
      <time>2021-10-12T13:32:01Z</time>
    </trkpt>
    <trkpt lat="38.657242963" lon="34.849451976">
      <ele>1098.633</ele>
      <time>2021-10-12T13:32:02Z</time>
    </trkpt>
    <trkpt lat="38.657238018" lon="34.84947796">
      <ele>1098.888</ele>
      <time>2021-10-12T13:32:02Z</time>
    </trkpt>
    <trkpt lat="38.657233994" lon="34.849504028">
      <ele>1099.164</ele>
      <time>2021-10-12T13:32:03Z</time>
    </trkpt>
    <trkpt lat="38.657232989" lon="34.849533029">
      <ele>1099.559</ele>
      <time>2021-10-12T13:32:04Z</time>
    </trkpt>
    <trkpt lat="38.657229971" lon="34.849561024">
      <ele>1099.886</ele>
      <time>2021-10-12T13:32:05Z</time>
    </trkpt>
    <trkpt lat="38.657225026" lon="34.849590026">
      <ele>1100.172</ele>
      <time>2021-10-12T13:32:06Z</time>
    </trkpt>
    <trkpt lat="38.657217985" lon="34.84961601">
      <ele>1100.364</ele>
      <time>2021-10-12T13:32:07Z</time>
    </trkpt>
    <trkpt lat="38.657211028" lon="34.849642999">
      <ele>1100.577</ele>
      <time>2021-10-12T13:32:07Z</time>
    </trkpt>
    <trkpt lat="38.657201976" lon="34.849669989">
      <ele>1100.738</ele>
      <time>2021-10-12T13:32:08Z</time>
    </trkpt>
    <trkpt lat="38.657190995" lon="34.849693039">
      <ele>1100.793</ele>
      <time>2021-10-12T13:32:09Z</time>
    </trkpt>
    <trkpt lat="38.657184038" lon="34.849718018">
      <ele>1100.977</ele>
      <time>2021-10-12T13:32:10Z</time>
    </trkpt>
    <trkpt lat="38.657175992" lon="34.84974199">
      <ele>1101.167</ele>
      <time>2021-10-12T13:32:10Z</time>
    </trkpt>
    <trkpt lat="38.657169035" lon="34.849765962">
      <ele>1101.387</ele>
      <time>2021-10-12T13:32:11Z</time>
    </trkpt>
    <trkpt lat="38.657165011" lon="34.849793036">
      <ele>1101.728</ele>
      <time>2021-10-12T13:32:12Z</time>
    </trkpt>
    <trkpt lat="38.657155959" lon="34.849818014">
      <ele>1101.89</ele>
      <time>2021-10-12T13:32:13Z</time>
    </trkpt>
    <trkpt lat="38.657145984" lon="34.849838968">
      <ele>1101.95</ele>
      <time>2021-10-12T13:32:14Z</time>
    </trkpt>
    <trkpt lat="38.657140033" lon="34.849863024">
      <ele>1102.163</ele>
      <time>2021-10-12T13:32:14Z</time>
    </trkpt>
    <trkpt lat="38.65713601" lon="34.849889008">
      <ele>1102.457</ele>
      <time>2021-10-12T13:32:15Z</time>
    </trkpt>
    <trkpt lat="38.657135004" lon="34.849915998">
      <ele>1102.852</ele>
      <time>2021-10-12T13:32:16Z</time>
    </trkpt>
    <trkpt lat="38.657131987" lon="34.849941982">
      <ele>1103.168</ele>
      <time>2021-10-12T13:32:17Z</time>
    </trkpt>
    <trkpt lat="38.657127963" lon="34.849965032">
      <ele>1103.402</ele>
      <time>2021-10-12T13:32:17Z</time>
    </trkpt>
    <trkpt lat="38.657124024" lon="34.849987999">
      <ele>1103.633</ele>
      <time>2021-10-12T13:32:18Z</time>
    </trkpt>
    <trkpt lat="38.65711296" lon="34.850020017">
      <ele>1103.836</ele>
      <time>2021-10-12T13:32:19Z</time>
    </trkpt>
    <trkpt lat="38.657102985" lon="34.85004399">
      <ele>1103.951</ele>
      <time>2021-10-12T13:32:20Z</time>
    </trkpt>
    <trkpt lat="38.657096028" lon="34.85006704">
      <ele>1104.14</ele>
      <time>2021-10-12T13:32:20Z</time>
    </trkpt>
    <trkpt lat="38.65708597" lon="34.850090006">
      <ele>1104.212</ele>
      <time>2021-10-12T13:32:21Z</time>
    </trkpt>
    <trkpt lat="38.657077001" lon="34.850112973">
      <ele>1104.31</ele>
      <time>2021-10-12T13:32:22Z</time>
    </trkpt>
    <trkpt lat="38.657067027" lon="34.850137029">
      <ele>1104.38</ele>
      <time>2021-10-12T13:32:23Z</time>
    </trkpt>
    <trkpt lat="38.657057974" lon="34.850162007">
      <ele>1104.488</ele>
      <time>2021-10-12T13:32:24Z</time>
    </trkpt>
    <trkpt lat="38.657050012" lon="34.850187991">
      <ele>1104.642</ele>
      <time>2021-10-12T13:32:24Z</time>
    </trkpt>
    <trkpt lat="38.657043977" lon="34.850214981">
      <ele>1104.875</ele>
      <time>2021-10-12T13:32:25Z</time>
    </trkpt>
    <trkpt lat="38.657038026" lon="34.85024197">
      <ele>1105.103</ele>
      <time>2021-10-12T13:32:26Z</time>
    </trkpt>
    <trkpt lat="38.657031991" lon="34.85026896">
      <ele>1105.32</ele>
      <time>2021-10-12T13:32:27Z</time>
    </trkpt>
    <trkpt lat="38.657026961" lon="34.850297039">
      <ele>1105.643</ele>
      <time>2021-10-12T13:32:28Z</time>
    </trkpt>
    <trkpt lat="38.657022016" lon="34.850326041">
      <ele>1106.017</ele>
      <time>2021-10-12T13:32:29Z</time>
    </trkpt>
    <trkpt lat="38.657017993" lon="34.850354958">
      <ele>1106.432</ele>
      <time>2021-10-12T13:32:29Z</time>
    </trkpt>
    <trkpt lat="38.657015981" lon="34.850382032">
      <ele>1106.891</ele>
      <time>2021-10-12T13:32:30Z</time>
    </trkpt>
    <trkpt lat="38.657014975" lon="34.850409022">
      <ele>1107.388</ele>
      <time>2021-10-12T13:32:31Z</time>
    </trkpt>
    <trkpt lat="38.657018999" lon="34.850435006">
      <ele>1108.045</ele>
      <time>2021-10-12T13:32:32Z</time>
    </trkpt>
    <trkpt lat="38.657025034" lon="34.850460989">
      <ele>1108.766</ele>
      <time>2021-10-12T13:32:33Z</time>
    </trkpt>
    <trkpt lat="38.657031991" lon="34.85048404">
      <ele>1109.454</ele>
      <time>2021-10-12T13:32:33Z</time>
    </trkpt>
    <trkpt lat="38.657039031" lon="34.850508012">
      <ele>1110.154</ele>
      <time>2021-10-12T13:32:34Z</time>
    </trkpt>
    <trkpt lat="38.657044983" lon="34.85053299">
      <ele>1110.829</ele>
      <time>2021-10-12T13:32:35Z</time>
    </trkpt>
    <trkpt lat="38.657051018" lon="34.85055604">
      <ele>1111.457</ele>
      <time>2021-10-12T13:32:35Z</time>
    </trkpt>
    <trkpt lat="38.65705898" lon="34.850581018">
      <ele>1111.91</ele>
      <time>2021-10-12T13:32:36Z</time>
    </trkpt>
    <trkpt lat="38.657071972" lon="34.850603985">
      <ele>1112.495</ele>
      <time>2021-10-12T13:32:37Z</time>
    </trkpt>
    <trkpt lat="38.657081025" lon="34.850627035">
      <ele>1112.944</ele>
      <time>2021-10-12T13:32:38Z</time>
    </trkpt>
    <trkpt lat="38.657092005" lon="34.850650001">
      <ele>1113.44</ele>
      <time>2021-10-12T13:32:39Z</time>
    </trkpt>
    <trkpt lat="38.657100974" lon="34.850673974">
      <ele>1113.87</ele>
      <time>2021-10-12T13:32:39Z</time>
    </trkpt>
    <trkpt lat="38.657110026" lon="34.850699035">
      <ele>1114.299</ele>
      <time>2021-10-12T13:32:40Z</time>
    </trkpt>
    <trkpt lat="38.657120001" lon="34.850723008">
      <ele>1114.735</ele>
      <time>2021-10-12T13:32:41Z</time>
    </trkpt>
    <trkpt lat="38.657127963" lon="34.850748992">
      <ele>1115.115</ele>
      <time>2021-10-12T13:32:42Z</time>
    </trkpt>
    <trkpt lat="38.657131987" lon="34.85077397">
      <ele>1115.374</ele>
      <time>2021-10-12T13:32:42Z</time>
    </trkpt>
    <trkpt lat="38.657137016" lon="34.850800037">
      <ele>1115.659</ele>
      <time>2021-10-12T13:32:43Z</time>
    </trkpt>
    <trkpt lat="38.657142967" lon="34.850823004">
      <ele>1115.944</ele>
      <time>2021-10-12T13:32:44Z</time>
    </trkpt>
    <trkpt lat="38.657143973" lon="34.850855023">
      <ele>1115.906</ele>
      <time>2021-10-12T13:32:45Z</time>
    </trkpt>
    <trkpt lat="38.657147996" lon="34.850881007">
      <ele>1115.866</ele>
      <time>2021-10-12T13:32:46Z</time>
    </trkpt>
    <trkpt lat="38.657154031" lon="34.85090699">
      <ele>1115.886</ele>
      <time>2021-10-12T13:32:46Z</time>
    </trkpt>
    <trkpt lat="38.657161994" lon="34.850930041">
      <ele>1115.983</ele>
      <time>2021-10-12T13:32:47Z</time>
    </trkpt>
    <trkpt lat="38.65717398" lon="34.850950995">
      <ele>1116.214</ele>
      <time>2021-10-12T13:32:48Z</time>
    </trkpt>
    <trkpt lat="38.657188984" lon="34.850970022">
      <ele>1116.553</ele>
      <time>2021-10-12T13:32:49Z</time>
    </trkpt>
    <trkpt lat="38.657208011" lon="34.850987038">
      <ele>1117.032</ele>
      <time>2021-10-12T13:32:50Z</time>
    </trkpt>
    <trkpt lat="38.657227037" lon="34.851003969">
      <ele>1117.446</ele>
      <time>2021-10-12T13:32:50Z</time>
    </trkpt>
    <trkpt lat="38.657242041" lon="34.851020984">
      <ele>1117.589</ele>
      <time>2021-10-12T13:32:51Z</time>
    </trkpt>
    <trkpt lat="38.657259978" lon="34.851033976">
      <ele>1117.806</ele>
      <time>2021-10-12T13:32:52Z</time>
    </trkpt>
    <trkpt lat="38.657277999" lon="34.851047974">
      <ele>1118.049</ele>
      <time>2021-10-12T13:32:53Z</time>
    </trkpt>
    <trkpt lat="38.657294009" lon="34.85105996">
      <ele>1118.286</ele>
      <time>2021-10-12T13:32:53Z</time>
    </trkpt>
    <trkpt lat="38.657308007" lon="34.85107597">
      <ele>1118.514</ele>
      <time>2021-10-12T13:32:54Z</time>
    </trkpt>
    <trkpt lat="38.657322004" lon="34.851093991">
      <ele>1118.769</ele>
      <time>2021-10-12T13:32:55Z</time>
    </trkpt>
    <trkpt lat="38.657333991" lon="34.851114023">
      <ele>1118.995</ele>
      <time>2021-10-12T13:32:56Z</time>
    </trkpt>
    <trkpt lat="38.657342037" lon="34.851135984">
      <ele>1119.016</ele>
      <time>2021-10-12T13:32:56Z</time>
    </trkpt>
    <trkpt lat="38.657353017" lon="34.85116004">
      <ele>1119.085</ele>
      <time>2021-10-12T13:32:57Z</time>
    </trkpt>
    <trkpt lat="38.657365004" lon="34.851180995">
      <ele>1119.196</ele>
      <time>2021-10-12T13:32:58Z</time>
    </trkpt>
    <trkpt lat="38.657377996" lon="34.851203961">
      <ele>1119.323</ele>
      <time>2021-10-12T13:32:59Z</time>
    </trkpt>
    <trkpt lat="38.65738797" lon="34.851230029">
      <ele>1119.383</ele>
      <time>2021-10-12T13:32:59Z</time>
    </trkpt>
    <trkpt lat="38.657398028" lon="34.851255007">
      <ele>1119.456</ele>
      <time>2021-10-12T13:33:00Z</time>
    </trkpt>
    <trkpt lat="38.657406997" lon="34.851278979">
      <ele>1119.519</ele>
      <time>2021-10-12T13:33:01Z</time>
    </trkpt>
    <trkpt lat="38.657415966" lon="34.851303035">
      <ele>1119.587</ele>
      <time>2021-10-12T13:33:02Z</time>
    </trkpt>
    <trkpt lat="38.657425018" lon="34.851331031">
      <ele>1119.645</ele>
      <time>2021-10-12T13:33:03Z</time>
    </trkpt>
    <trkpt lat="38.657429041" lon="34.851359027">
      <ele>1119.602</ele>
      <time>2021-10-12T13:33:04Z</time>
    </trkpt>
    <trkpt lat="38.657432981" lon="34.851387022">
      <ele>1119.561</ele>
      <time>2021-10-12T13:33:04Z</time>
    </trkpt>
    <trkpt lat="38.657432981" lon="34.851414012">
      <ele>1119.487</ele>
      <time>2021-10-12T13:33:05Z</time>
    </trkpt>
    <trkpt lat="38.657431975" lon="34.851439996">
      <ele>1119.395</ele>
      <time>2021-10-12T13:33:06Z</time>
    </trkpt>
    <trkpt lat="38.657431975" lon="34.851467991">
      <ele>1119.321</ele>
      <time>2021-10-12T13:33:07Z</time>
    </trkpt>
    <trkpt lat="38.657428036" lon="34.851496993">
      <ele>1119.143</ele>
      <time>2021-10-12T13:33:08Z</time>
    </trkpt>
    <trkpt lat="38.657423006" lon="34.851521971">
      <ele>1118.939</ele>
      <time>2021-10-12T13:33:08Z</time>
    </trkpt>
    <trkpt lat="38.657413032" lon="34.851545021">
      <ele>1118.594</ele>
      <time>2021-10-12T13:33:09Z</time>
    </trkpt>
    <trkpt lat="38.65740004" lon="34.851563964">
      <ele>1118.16</ele>
      <time>2021-10-12T13:33:10Z</time>
    </trkpt>
    <trkpt lat="38.65738797" lon="34.851586008">
      <ele>1117.722</ele>
      <time>2021-10-12T13:33:11Z</time>
    </trkpt>
    <trkpt lat="38.657380007" lon="34.851620039">
      <ele>1117.33</ele>
      <time>2021-10-12T13:33:12Z</time>
    </trkpt>
    <trkpt lat="38.657380007" lon="34.851644011">
      <ele>1117.218</ele>
      <time>2021-10-12T13:33:12Z</time>
    </trkpt>
    <trkpt lat="38.657385958" lon="34.851677036">
      <ele>1117.342</ele>
      <time>2021-10-12T13:33:13Z</time>
    </trkpt>
    <trkpt lat="38.657394005" lon="34.85170302">
      <ele>1117.697</ele>
      <time>2021-10-12T13:33:14Z</time>
    </trkpt>
    <trkpt lat="38.657397022" lon="34.851732021">
      <ele>1117.899</ele>
      <time>2021-10-12T13:33:15Z</time>
    </trkpt>
    <trkpt lat="38.657395011" lon="34.851759011">
      <ele>1117.931</ele>
      <time>2021-10-12T13:33:16Z</time>
    </trkpt>
    <trkpt lat="38.657383025" lon="34.851784995">
      <ele>1117.636</ele>
      <time>2021-10-12T13:33:17Z</time>
    </trkpt>
    <trkpt lat="38.657371039" lon="34.851809973">
      <ele>1117.338</ele>
      <time>2021-10-12T13:33:17Z</time>
    </trkpt>
    <trkpt lat="38.657366009" lon="34.851837968">
      <ele>1117.275</ele>
      <time>2021-10-12T13:33:18Z</time>
    </trkpt>
    <trkpt lat="38.657363998" lon="34.851864958">
      <ele>1117.307</ele>
      <time>2021-10-12T13:33:19Z</time>
    </trkpt>
    <trkpt lat="38.657366009" lon="34.851894965">
      <ele>1117.481</ele>
      <time>2021-10-12T13:33:20Z</time>
    </trkpt>
    <trkpt lat="38.657365004" lon="34.851923967">
      <ele>1117.552</ele>
      <time>2021-10-12T13:33:21Z</time>
    </trkpt>
    <trkpt lat="38.657361986" lon="34.851953974">
      <ele>1117.614</ele>
      <time>2021-10-12T13:33:22Z</time>
    </trkpt>
    <trkpt lat="38.657361986" lon="34.85198197">
      <ele>1117.867</ele>
      <time>2021-10-12T13:33:23Z</time>
    </trkpt>
    <trkpt lat="38.657363998" lon="34.852008959">
      <ele>1118.177</ele>
      <time>2021-10-12T13:33:23Z</time>
    </trkpt>
    <trkpt lat="38.657367015" lon="34.852037039">
      <ele>1118.532</ele>
      <time>2021-10-12T13:33:24Z</time>
    </trkpt>
    <trkpt lat="38.657367015" lon="34.852065034">
      <ele>1118.786</ele>
      <time>2021-10-12T13:33:25Z</time>
    </trkpt>
    <trkpt lat="38.657365004" lon="34.852092024">
      <ele>1118.962</ele>
      <time>2021-10-12T13:33:26Z</time>
    </trkpt>
    <trkpt lat="38.657362992" lon="34.852120019">
      <ele>1119.145</ele>
      <time>2021-10-12T13:33:27Z</time>
    </trkpt>
    <trkpt lat="38.657362992" lon="34.852149021">
      <ele>1119.407</ele>
      <time>2021-10-12T13:33:27Z</time>
    </trkpt>
    <trkpt lat="38.657365004" lon="34.852179028">
      <ele>1119.749</ele>
      <time>2021-10-12T13:33:28Z</time>
    </trkpt>
    <trkpt lat="38.657359974" lon="34.852210041">
      <ele>1119.85</ele>
      <time>2021-10-12T13:33:29Z</time>
    </trkpt>
    <trkpt lat="38.657346983" lon="34.852234013">
      <ele>1119.576</ele>
      <time>2021-10-12T13:33:30Z</time>
    </trkpt>
    <trkpt lat="38.657336002" lon="34.85225304">
      <ele>1119.318</ele>
      <time>2021-10-12T13:33:31Z</time>
    </trkpt>
    <trkpt lat="38.657333991" lon="34.852279024">
      <ele>1119.433</ele>
      <time>2021-10-12T13:33:31Z</time>
    </trkpt>
    <trkpt lat="38.657334996" lon="34.852309031">
      <ele>1119.685</ele>
      <time>2021-10-12T13:33:32Z</time>
    </trkpt>
    <trkpt lat="38.657342037" lon="34.852337027">
      <ele>1120.14</ele>
      <time>2021-10-12T13:33:33Z</time>
    </trkpt>
    <trkpt lat="38.657344971" lon="34.852366028">
      <ele>1120.454</ele>
      <time>2021-10-12T13:33:34Z</time>
    </trkpt>
    <trkpt lat="38.657344971" lon="34.85239503">
      <ele>1120.663</ele>
      <time>2021-10-12T13:33:35Z</time>
    </trkpt>
    <trkpt lat="38.65735" lon="34.852421014">
      <ele>1121.031</ele>
      <time>2021-10-12T13:33:36Z</time>
    </trkpt>
    <trkpt lat="38.657353017" lon="34.852454038">
      <ele>1121.378</ele>
      <time>2021-10-12T13:33:37Z</time>
    </trkpt>
    <trkpt lat="38.657348994" lon="34.852481028">
      <ele>1121.427</ele>
      <time>2021-10-12T13:33:37Z</time>
    </trkpt>
    <trkpt lat="38.657332985" lon="34.852505">
      <ele>1121.009</ele>
      <time>2021-10-12T13:33:38Z</time>
    </trkpt>
    <trkpt lat="38.657316975" lon="34.852516986">
      <ele>1120.492</ele>
      <time>2021-10-12T13:33:39Z</time>
    </trkpt>
    <trkpt lat="38.65729996" lon="34.852539031">
      <ele>1120.001</ele>
      <time>2021-10-12T13:33:40Z</time>
    </trkpt>
    <trkpt lat="38.65728898" lon="34.852566021">
      <ele>1119.764</ele>
      <time>2021-10-12T13:33:41Z</time>
    </trkpt>
    <trkpt lat="38.657280011" lon="34.852596028">
      <ele>1119.628</ele>
      <time>2021-10-12T13:33:42Z</time>
    </trkpt>
    <trkpt lat="38.657268025" lon="34.85262">
      <ele>1119.37</ele>
      <time>2021-10-12T13:33:43Z</time>
    </trkpt>
    <trkpt lat="38.657259978" lon="34.852650007">
      <ele>1119.292</ele>
      <time>2021-10-12T13:33:43Z</time>
    </trkpt>
    <trkpt lat="38.657253021" lon="34.852673979">
      <ele>1119.223</ele>
      <time>2021-10-12T13:33:44Z</time>
    </trkpt>
    <trkpt lat="38.657252016" lon="34.852710022">
      <ele>1119.423</ele>
      <time>2021-10-12T13:33:45Z</time>
    </trkpt>
    <trkpt lat="38.657252016" lon="34.852742041">
      <ele>1119.628</ele>
      <time>2021-10-12T13:33:46Z</time>
    </trkpt>
    <trkpt lat="38.657260984" lon="34.852767019">
      <ele>1120.05</ele>
      <time>2021-10-12T13:33:47Z</time>
    </trkpt>
    <trkpt lat="38.657273976" lon="34.852787973">
      <ele>1120.52</ele>
      <time>2021-10-12T13:33:48Z</time>
    </trkpt>
    <trkpt lat="38.657291997" lon="34.852802977">
      <ele>1121.077</ele>
      <time>2021-10-12T13:33:49Z</time>
    </trkpt>
    <trkpt lat="38.657302978" lon="34.852822004">
      <ele>1121.439</ele>
      <time>2021-10-12T13:33:49Z</time>
    </trkpt>
    <trkpt lat="38.65731203" lon="34.85284497">
      <ele>1121.75</ele>
      <time>2021-10-12T13:33:50Z</time>
    </trkpt>
    <trkpt lat="38.657325022" lon="34.852870032">
      <ele>1122.17</ele>
      <time>2021-10-12T13:33:51Z</time>
    </trkpt>
    <trkpt lat="38.657342037" lon="34.852892999">
      <ele>1122.687</ele>
      <time>2021-10-12T13:33:52Z</time>
    </trkpt>
    <trkpt lat="38.657366009" lon="34.852909008">
      <ele>1123.369</ele>
      <time>2021-10-12T13:33:53Z</time>
    </trkpt>
    <trkpt lat="38.657385036" lon="34.852924012">
      <ele>1123.907</ele>
      <time>2021-10-12T13:33:54Z</time>
    </trkpt>
    <trkpt lat="38.657406997" lon="34.852940021">
      <ele>1124.517</ele>
      <time>2021-10-12T13:33:55Z</time>
    </trkpt>
    <trkpt lat="38.657423006" lon="34.852963993">
      <ele>1124.968</ele>
      <time>2021-10-12T13:33:55Z</time>
    </trkpt>
    <trkpt lat="38.65742703" lon="34.852990983">
      <ele>1125.1</ele>
      <time>2021-10-12T13:33:56Z</time>
    </trkpt>
    <trkpt lat="38.657422001" lon="34.853019984">
      <ele>1124.998</ele>
      <time>2021-10-12T13:33:57Z</time>
    </trkpt>
    <trkpt lat="38.657409009" lon="34.853041023">
      <ele>1124.69</ele>
      <time>2021-10-12T13:33:58Z</time>
    </trkpt>
    <trkpt lat="38.657392999" lon="34.853056027">
      <ele>1124.304</ele>
      <time>2021-10-12T13:33:59Z</time>
    </trkpt>
    <trkpt lat="38.657371961" lon="34.85307103">
      <ele>1123.795</ele>
      <time>2021-10-12T13:34:00Z</time>
    </trkpt>
    <trkpt lat="38.657356035" lon="34.853084022">
      <ele>1123.429</ele>
      <time>2021-10-12T13:34:00Z</time>
    </trkpt>
    <trkpt lat="38.657342959" lon="34.853102965">
      <ele>1123.161</ele>
      <time>2021-10-12T13:34:01Z</time>
    </trkpt>
    <trkpt lat="38.657331979" lon="34.85312501">
      <ele>1122.97</ele>
      <time>2021-10-12T13:34:02Z</time>
    </trkpt>
    <trkpt lat="38.657317981" lon="34.853155017">
      <ele>1122.759</ele>
      <time>2021-10-12T13:34:03Z</time>
    </trkpt>
    <trkpt lat="38.657304989" lon="34.853178989">
      <ele>1122.577</ele>
      <time>2021-10-12T13:34:04Z</time>
    </trkpt>
    <trkpt lat="38.657277999" lon="34.853188964">
      <ele>1122.077</ele>
      <time>2021-10-12T13:34:05Z</time>
    </trkpt>
    <trkpt lat="38.657255033" lon="34.85319701">
      <ele>1121.665</ele>
      <time>2021-10-12T13:34:05Z</time>
    </trkpt>
    <trkpt lat="38.657230977" lon="34.853210002">
      <ele>1121.28</ele>
      <time>2021-10-12T13:34:06Z</time>
    </trkpt>
    <trkpt lat="38.657210022" lon="34.853204973">
      <ele>1120.789</ele>
      <time>2021-10-12T13:34:07Z</time>
    </trkpt>
    <trkpt lat="38.657186972" lon="34.853205979">
      <ele>1120.253</ele>
      <time>2021-10-12T13:34:08Z</time>
    </trkpt>
    <trkpt lat="38.657165011" lon="34.853206985">
      <ele>1119.742</ele>
      <time>2021-10-12T13:34:09Z</time>
    </trkpt>
    <trkpt lat="38.657145984" lon="34.853212014">
      <ele>1119.325</ele>
      <time>2021-10-12T13:34:10Z</time>
    </trkpt>
    <trkpt lat="38.65712503" lon="34.853229029">
      <ele>1118.931</ele>
      <time>2021-10-12T13:34:11Z</time>
    </trkpt>
    <trkpt lat="38.657111032" lon="34.853248978">
      <ele>1118.712</ele>
      <time>2021-10-12T13:34:11Z</time>
    </trkpt>
    <trkpt lat="38.657101979" lon="34.853273034">
      <ele>1118.63</ele>
      <time>2021-10-12T13:34:12Z</time>
    </trkpt>
    <trkpt lat="38.657094017" lon="34.853300024">
      <ele>1118.585</ele>
      <time>2021-10-12T13:34:13Z</time>
    </trkpt>
    <trkpt lat="38.657087982" lon="34.853326008">
      <ele>1118.577</ele>
      <time>2021-10-12T13:34:14Z</time>
    </trkpt>
    <trkpt lat="38.657087982" lon="34.853358027">
      <ele>1118.571</ele>
      <time>2021-10-12T13:34:15Z</time>
    </trkpt>
    <trkpt lat="38.657096028" lon="34.853380993">
      <ele>1118.726</ele>
      <time>2021-10-12T13:34:15Z</time>
    </trkpt>
    <trkpt lat="38.657104997" lon="34.853402032">
      <ele>1118.903</ele>
      <time>2021-10-12T13:34:16Z</time>
    </trkpt>
    <trkpt lat="38.657126036" lon="34.853420975">
      <ele>1119.37</ele>
      <time>2021-10-12T13:34:17Z</time>
    </trkpt>
    <trkpt lat="38.657149002" lon="34.853421981">
      <ele>1119.92</ele>
      <time>2021-10-12T13:34:18Z</time>
    </trkpt>
    <trkpt lat="38.657171968" lon="34.853417035">
      <ele>1120.487</ele>
      <time>2021-10-12T13:34:19Z</time>
    </trkpt>
    <trkpt lat="38.657190995" lon="34.853420975">
      <ele>1120.933</ele>
      <time>2021-10-12T13:34:19Z</time>
    </trkpt>
    <trkpt lat="38.657209016" lon="34.853431033">
      <ele>1121.332</ele>
      <time>2021-10-12T13:34:20Z</time>
    </trkpt>
    <trkpt lat="38.657228965" lon="34.853444025">
      <ele>1121.718</ele>
      <time>2021-10-12T13:34:21Z</time>
    </trkpt>
    <trkpt lat="38.657250004" lon="34.853453999">
      <ele>1122.053</ele>
      <time>2021-10-12T13:34:22Z</time>
    </trkpt>
    <trkpt lat="38.657271964" lon="34.853460034">
      <ele>1122.424</ele>
      <time>2021-10-12T13:34:23Z</time>
    </trkpt>
    <trkpt lat="38.657296021" lon="34.85346498">
      <ele>1122.841</ele>
      <time>2021-10-12T13:34:24Z</time>
    </trkpt>
    <trkpt lat="38.657319993" lon="34.853471015">
      <ele>1123.261</ele>
      <time>2021-10-12T13:34:24Z</time>
    </trkpt>
    <trkpt lat="38.657336002" lon="34.853489036">
      <ele>1123.537</ele>
      <time>2021-10-12T13:34:25Z</time>
    </trkpt>
    <trkpt lat="38.657343965" lon="34.853513008">
      <ele>1123.673</ele>
      <time>2021-10-12T13:34:26Z</time>
    </trkpt>
    <trkpt lat="38.657348994" lon="34.853537986">
      <ele>1123.761</ele>
      <time>2021-10-12T13:34:27Z</time>
    </trkpt>
    <trkpt lat="38.657345977" lon="34.853565982">
      <ele>1123.691</ele>
      <time>2021-10-12T13:34:28Z</time>
    </trkpt>
    <trkpt lat="38.657338014" lon="34.853591966">
      <ele>1123.513</ele>
      <time>2021-10-12T13:34:28Z</time>
    </trkpt>
    <trkpt lat="38.657334996" lon="34.853619039">
      <ele>1123.402</ele>
      <time>2021-10-12T13:34:29Z</time>
    </trkpt>
    <trkpt lat="38.657340026" lon="34.853648962">
      <ele>1123.388</ele>
      <time>2021-10-12T13:34:30Z</time>
    </trkpt>
    <trkpt lat="38.657353017" lon="34.853673019">
      <ele>1123.589</ele>
      <time>2021-10-12T13:34:31Z</time>
    </trkpt>
    <trkpt lat="38.657357041" lon="34.853707971">
      <ele>1123.553</ele>
      <time>2021-10-12T13:34:32Z</time>
    </trkpt>
    <trkpt lat="38.657363998" lon="34.853736972">
      <ele>1123.619</ele>
      <time>2021-10-12T13:34:33Z</time>
    </trkpt>
    <trkpt lat="38.657370033" lon="34.853767985">
      <ele>1123.664</ele>
      <time>2021-10-12T13:34:34Z</time>
    </trkpt>
    <trkpt lat="38.657375984" lon="34.853794975">
      <ele>1123.73</ele>
      <time>2021-10-12T13:34:35Z</time>
    </trkpt>
    <trkpt lat="38.657380007" lon="34.853818025">
      <ele>1123.765</ele>
      <time>2021-10-12T13:34:35Z</time>
    </trkpt>
    <trkpt lat="38.657385036" lon="34.853843004">
      <ele>1123.826</ele>
      <time>2021-10-12T13:34:36Z</time>
    </trkpt>
    <trkpt lat="38.657390988" lon="34.853870999">
      <ele>1123.911</ele>
      <time>2021-10-12T13:34:37Z</time>
    </trkpt>
    <trkpt lat="38.657391993" lon="34.853903018">
      <ele>1123.909</ele>
      <time>2021-10-12T13:34:38Z</time>
    </trkpt>
    <trkpt lat="38.657388976" lon="34.853934031">
      <ele>1123.867</ele>
      <time>2021-10-12T13:34:39Z</time>
    </trkpt>
    <trkpt lat="38.657382019" lon="34.853961021">
      <ele>1123.712</ele>
      <time>2021-10-12T13:34:39Z</time>
    </trkpt>
    <trkpt lat="38.657373972" lon="34.853990022">
      <ele>1123.536</ele>
      <time>2021-10-12T13:34:40Z</time>
    </trkpt>
    <trkpt lat="38.657369027" lon="34.854022041">
      <ele>1123.454</ele>
      <time>2021-10-12T13:34:41Z</time>
    </trkpt>
    <trkpt lat="38.657365004" lon="34.854053976">
      <ele>1123.401</ele>
      <time>2021-10-12T13:34:42Z</time>
    </trkpt>
    <trkpt lat="38.657355029" lon="34.854087001">
      <ele>1123.197</ele>
      <time>2021-10-12T13:34:43Z</time>
    </trkpt>
    <trkpt lat="38.65733902" lon="34.854112985">
      <ele>1122.831</ele>
      <time>2021-10-12T13:34:44Z</time>
    </trkpt>
    <trkpt lat="38.657328039" lon="34.854138969">
      <ele>1122.605</ele>
      <time>2021-10-12T13:34:45Z</time>
    </trkpt>
    <trkpt lat="38.657328039" lon="34.85416403">
      <ele>1122.661</ele>
      <time>2021-10-12T13:34:46Z</time>
    </trkpt>
    <trkpt lat="38.657331979" lon="34.854192026">
      <ele>1122.912</ele>
      <time>2021-10-12T13:34:47Z</time>
    </trkpt>
    <trkpt lat="38.657331979" lon="34.854220022">
      <ele>1123.074</ele>
      <time>2021-10-12T13:34:47Z</time>
    </trkpt>
    <trkpt lat="38.657326028" lon="34.854246005">
      <ele>1123.08</ele>
      <time>2021-10-12T13:34:48Z</time>
    </trkpt>
    <trkpt lat="38.65731203" lon="34.854262015">
      <ele>1122.839</ele>
      <time>2021-10-12T13:34:49Z</time>
    </trkpt>
    <trkpt lat="38.657290991" lon="34.854272995">
      <ele>1122.404</ele>
      <time>2021-10-12T13:34:50Z</time>
    </trkpt>
    <trkpt lat="38.657275988" lon="34.854292022">
      <ele>1122.17</ele>
      <time>2021-10-12T13:34:51Z</time>
    </trkpt>
    <trkpt lat="38.657256961" lon="34.854309037">
      <ele>1121.836</ele>
      <time>2021-10-12T13:34:51Z</time>
    </trkpt>
    <trkpt lat="38.657240029" lon="34.854324041">
      <ele>1121.546</ele>
      <time>2021-10-12T13:34:52Z</time>
    </trkpt>
    <trkpt lat="38.65722402" lon="34.854336027">
      <ele>1121.261</ele>
      <time>2021-10-12T13:34:53Z</time>
    </trkpt>
    <trkpt lat="38.657202981" lon="34.854353964">
      <ele>1120.772</ele>
      <time>2021-10-12T13:34:54Z</time>
    </trkpt>
    <trkpt lat="38.657188984" lon="34.85437098">
      <ele>1120.482</ele>
      <time>2021-10-12T13:34:55Z</time>
    </trkpt>
    <trkpt lat="38.657203987" lon="34.854389001">
      <ele>1121.063</ele>
      <time>2021-10-12T13:34:55Z</time>
    </trkpt>
    <trkpt lat="38.65718496" lon="34.854383972">
      <ele>1120.462</ele>
      <time>2021-10-12T13:34:56Z</time>
    </trkpt>
    <trkpt lat="38.657172974" lon="34.854401993">
      <ele>1120.249</ele>
      <time>2021-10-12T13:34:57Z</time>
    </trkpt>
    <trkpt lat="38.657151014" lon="34.854400987">
      <ele>1119.596</ele>
      <time>2021-10-12T13:34:58Z</time>
    </trkpt>
    <trkpt lat="38.657144979" lon="34.854424037">
      <ele>1119.608</ele>
      <time>2021-10-12T13:34:58Z</time>
    </trkpt>
    <trkpt lat="38.65713601" lon="34.854445998">
      <ele>1119.534</ele>
      <time>2021-10-12T13:34:59Z</time>
    </trkpt>
    <trkpt lat="38.657120001" lon="34.854473993">
      <ele>1119.375</ele>
      <time>2021-10-12T13:35:00Z</time>
    </trkpt>
    <trkpt lat="38.657106003" lon="34.854497965">
      <ele>1119.231</ele>
      <time>2021-10-12T13:35:01Z</time>
    </trkpt>
    <trkpt lat="38.657101979" lon="34.854525039">
      <ele>1119.407</ele>
      <time>2021-10-12T13:35:02Z</time>
    </trkpt>
    <trkpt lat="38.657089993" lon="34.854547">
      <ele>1119.299</ele>
      <time>2021-10-12T13:35:02Z</time>
    </trkpt>
    <trkpt lat="38.657078007" lon="34.854568038">
      <ele>1119.181</ele>
      <time>2021-10-12T13:35:03Z</time>
    </trkpt>
    <trkpt lat="38.657063004" lon="34.85458103">
      <ele>1118.89</ele>
      <time>2021-10-12T13:35:04Z</time>
    </trkpt>
    <trkpt lat="38.657040959" lon="34.85458497">
      <ele>1118.297</ele>
      <time>2021-10-12T13:35:05Z</time>
    </trkpt>
    <trkpt lat="38.657017993" lon="34.854588993">
      <ele>1117.679</ele>
      <time>2021-10-12T13:35:06Z</time>
    </trkpt>
    <trkpt lat="38.656992009" lon="34.854583964">
      <ele>1116.877</ele>
      <time>2021-10-12T13:35:06Z</time>
    </trkpt>
    <trkpt lat="38.656972982" lon="34.854589999">
      <ele>1116.394</ele>
      <time>2021-10-12T13:35:07Z</time>
    </trkpt>
    <trkpt lat="38.656951021" lon="34.854600979">
      <ele>1115.88</ele>
      <time>2021-10-12T13:35:08Z</time>
    </trkpt>
    <trkpt lat="38.656936018" lon="34.854619">
      <ele>1115.745</ele>
      <time>2021-10-12T13:35:09Z</time>
    </trkpt>
    <trkpt lat="38.656920008" lon="34.854650013">
      <ele>1115.803</ele>
      <time>2021-10-12T13:35:10Z</time>
    </trkpt>
    <trkpt lat="38.656915985" lon="34.854673985">
      <ele>1115.985</ele>
      <time>2021-10-12T13:35:11Z</time>
    </trkpt>
    <trkpt lat="38.656916991" lon="34.854701981">
      <ele>1116.294</ele>
      <time>2021-10-12T13:35:11Z</time>
    </trkpt>
    <trkpt lat="38.656915985" lon="34.854727965">
      <ele>1116.531</ele>
      <time>2021-10-12T13:35:12Z</time>
    </trkpt>
    <trkpt lat="38.656901987" lon="34.854757972">
      <ele>1116.513</ele>
      <time>2021-10-12T13:35:13Z</time>
    </trkpt>
    <trkpt lat="38.65689503" lon="34.854781022">
      <ele>1116.572</ele>
      <time>2021-10-12T13:35:14Z</time>
    </trkpt>
    <trkpt lat="38.656882038" lon="34.85485604">
      <ele>1116.948</ele>
      <time>2021-10-12T13:35:16Z</time>
    </trkpt>
    <trkpt lat="38.656874998" lon="34.854878001">
      <ele>1117.012</ele>
      <time>2021-10-12T13:35:17Z</time>
    </trkpt>
    <trkpt lat="38.656867035" lon="34.854903985">
      <ele>1117.098</ele>
      <time>2021-10-12T13:35:18Z</time>
    </trkpt>
    <trkpt lat="38.656857982" lon="34.854928041">
      <ele>1117.156</ele>
      <time>2021-10-12T13:35:18Z</time>
    </trkpt>
    <trkpt lat="38.656849014" lon="34.854953019">
      <ele>1117.229</ele>
      <time>2021-10-12T13:35:19Z</time>
    </trkpt>
    <trkpt lat="38.65683401" lon="34.854977997">
      <ele>1117.22</ele>
      <time>2021-10-12T13:35:20Z</time>
    </trkpt>
    <trkpt lat="38.65682303" lon="34.855001969">
      <ele>1117.272</ele>
      <time>2021-10-12T13:35:21Z</time>
    </trkpt>
    <trkpt lat="38.656810038" lon="34.855028959">
      <ele>1117.374</ele>
      <time>2021-10-12T13:35:22Z</time>
    </trkpt>
    <trkpt lat="38.656794028" lon="34.855051003">
      <ele>1117.4</ele>
      <time>2021-10-12T13:35:23Z</time>
    </trkpt>
    <trkpt lat="38.656781036" lon="34.855076987">
      <ele>1117.527</ele>
      <time>2021-10-12T13:35:24Z</time>
    </trkpt>
    <trkpt lat="38.656765027" lon="34.855096014">
      <ele>1117.554</ele>
      <time>2021-10-12T13:35:24Z</time>
    </trkpt>
    <trkpt lat="38.656748012" lon="34.855110012">
      <ele>1117.524</ele>
      <time>2021-10-12T13:35:25Z</time>
    </trkpt>
    <trkpt lat="38.656725967" lon="34.855119986">
      <ele>1117.397</ele>
      <time>2021-10-12T13:35:26Z</time>
    </trkpt>
    <trkpt lat="38.65670803" lon="34.855128033">
      <ele>1117.302</ele>
      <time>2021-10-12T13:35:27Z</time>
    </trkpt>
    <trkpt lat="38.656687997" lon="34.855115041">
      <ele>1116.9</ele>
      <time>2021-10-12T13:35:28Z</time>
    </trkpt>
    <trkpt lat="38.656670982" lon="34.855100038">
      <ele>1116.491</ele>
      <time>2021-10-12T13:35:28Z</time>
    </trkpt>
    <trkpt lat="38.656648016" lon="34.855076987">
      <ele>1116.366</ele>
      <time>2021-10-12T13:35:29Z</time>
    </trkpt>
    <trkpt lat="38.656625971" lon="34.855068019">
      <ele>1116.527</ele>
      <time>2021-10-12T13:35:30Z</time>
    </trkpt>
    <trkpt lat="38.656604011" lon="34.855058966">
      <ele>1116.669</ele>
      <time>2021-10-12T13:35:31Z</time>
    </trkpt>
    <trkpt lat="38.656576015" lon="34.855042035">
      <ele>1116.732</ele>
      <time>2021-10-12T13:35:32Z</time>
    </trkpt>
    <trkpt lat="38.656552965" lon="34.855016973">
      <ele>1116.547</ele>
      <time>2021-10-12T13:35:33Z</time>
    </trkpt>
    <trkpt lat="38.656539973" lon="34.855000963">
      <ele>1116.387</ele>
      <time>2021-10-12T13:35:34Z</time>
    </trkpt>
    <trkpt lat="38.65652103" lon="34.854987971">
      <ele>1116.42</ele>
      <time>2021-10-12T13:35:35Z</time>
    </trkpt>
    <trkpt lat="38.656494962" lon="34.854977997">
      <ele>1116.568</ele>
      <time>2021-10-12T13:35:36Z</time>
    </trkpt>
    <trkpt lat="38.656466966" lon="34.854966011">
      <ele>1116.702</ele>
      <time>2021-10-12T13:35:37Z</time>
    </trkpt>
    <trkpt lat="38.656440983" lon="34.85495897">
      <ele>1116.874</ele>
      <time>2021-10-12T13:35:38Z</time>
    </trkpt>
    <trkpt lat="38.656418016" lon="34.854943966">
      <ele>1116.9</ele>
      <time>2021-10-12T13:35:39Z</time>
    </trkpt>
    <trkpt lat="38.656399995" lon="34.854926029">
      <ele>1116.826</ele>
      <time>2021-10-12T13:35:40Z</time>
    </trkpt>
    <trkpt lat="38.656389015" lon="34.854899039">
      <ele>1116.545</ele>
      <time>2021-10-12T13:35:41Z</time>
    </trkpt>
    <trkpt lat="38.656388009" lon="34.854868026">
      <ele>1116.108</ele>
      <time>2021-10-12T13:35:42Z</time>
    </trkpt>
    <trkpt lat="38.656396978" lon="34.854842965">
      <ele>1115.668</ele>
      <time>2021-10-12T13:35:42Z</time>
    </trkpt>
    <trkpt lat="38.656393038" lon="34.854813963">
      <ele>1115.286</ele>
      <time>2021-10-12T13:35:43Z</time>
    </trkpt>
    <trkpt lat="38.656376023" lon="34.854793008">
      <ele>1115.101</ele>
      <time>2021-10-12T13:35:44Z</time>
    </trkpt>
    <trkpt lat="38.656356996" lon="34.854798038">
      <ele>1115.301</ele>
      <time>2021-10-12T13:35:45Z</time>
    </trkpt>
    <trkpt lat="38.656337969" lon="34.854802983">
      <ele>1115.506</ele>
      <time>2021-10-12T13:35:46Z</time>
    </trkpt>
    <trkpt lat="38.656319026" lon="34.85479502">
      <ele>1115.498</ele>
      <time>2021-10-12T13:35:46Z</time>
    </trkpt>
    <trkpt lat="38.656301005" lon="34.854774987">
      <ele>1115.256</ele>
      <time>2021-10-12T13:35:47Z</time>
    </trkpt>
    <trkpt lat="38.656286001" lon="34.854753027">
      <ele>1114.937</ele>
      <time>2021-10-12T13:35:48Z</time>
    </trkpt>
    <trkpt lat="38.656270998" lon="34.854732994">
      <ele>1114.629</ele>
      <time>2021-10-12T13:35:49Z</time>
    </trkpt>
    <trkpt lat="38.656262029" lon="34.854702987">
      <ele>1114.122</ele>
      <time>2021-10-12T13:35:50Z</time>
    </trkpt>
    <trkpt lat="38.656251971" lon="34.854682032">
      <ele>1113.774</ele>
      <time>2021-10-12T13:35:50Z</time>
    </trkpt>
    <trkpt lat="38.656249959" lon="34.854651019">
      <ele>1113.218</ele>
      <time>2021-10-12T13:35:51Z</time>
    </trkpt>
    <trkpt lat="38.656249959" lon="34.854626041">
      <ele>1112.769</ele>
      <time>2021-10-12T13:35:52Z</time>
    </trkpt>
    <trkpt lat="38.656231016" lon="34.854607014">
      <ele>1112.381</ele>
      <time>2021-10-12T13:35:53Z</time>
    </trkpt>
    <trkpt lat="38.656210983" lon="34.854605002">
      <ele>1112.293</ele>
      <time>2021-10-12T13:35:54Z</time>
    </trkpt>
    <trkpt lat="38.656188017" lon="34.854614977">
      <ele>1112.448</ele>
      <time>2021-10-12T13:35:55Z</time>
    </trkpt>
    <trkpt lat="38.656174019" lon="34.854638027">
      <ele>1112.926</ele>
      <time>2021-10-12T13:35:55Z</time>
    </trkpt>
    <trkpt lat="38.656165972" lon="34.854671974">
      <ele>1113.679</ele>
      <time>2021-10-12T13:35:56Z</time>
    </trkpt>
    <trkpt lat="38.656155998" lon="34.854692006">
      <ele>1114.147</ele>
      <time>2021-10-12T13:35:57Z</time>
    </trkpt>
    <trkpt lat="38.656142" lon="34.854713967">
      <ele>1114.694</ele>
      <time>2021-10-12T13:35:58Z</time>
    </trkpt>
    <trkpt lat="38.656134037" lon="34.85474498">
      <ele>1115.471</ele>
      <time>2021-10-12T13:35:59Z</time>
    </trkpt>
    <trkpt lat="38.656135965" lon="34.854774987">
      <ele>1116.189</ele>
      <time>2021-10-12T13:36:00Z</time>
    </trkpt>
    <trkpt lat="38.656138983" lon="34.854799965">
      <ele>1116.775</ele>
      <time>2021-10-12T13:36:01Z</time>
    </trkpt>
    <trkpt lat="38.656126997" lon="34.85482201">
      <ele>1117.396</ele>
      <time>2021-10-12T13:36:01Z</time>
    </trkpt>
    <trkpt lat="38.656114005" lon="34.854847994">
      <ele>1118.145</ele>
      <time>2021-10-12T13:36:02Z</time>
    </trkpt>
    <trkpt lat="38.656105036" lon="34.85487096">
      <ele>1118.681</ele>
      <time>2021-10-12T13:36:03Z</time>
    </trkpt>
    <trkpt lat="38.656110987" lon="34.854891999">
      <ele>1119.277</ele>
      <time>2021-10-12T13:36:04Z</time>
    </trkpt>
    <trkpt lat="38.656129008" lon="34.854899039">
      <ele>1119.268</ele>
      <time>2021-10-12T13:36:04Z</time>
    </trkpt>
    <trkpt lat="38.65611501" lon="34.854919994">
      <ele>1119.94</ele>
      <time>2021-10-12T13:36:05Z</time>
    </trkpt>
    <trkpt lat="38.656129008" lon="34.854945978">
      <ele>1120.419</ele>
      <time>2021-10-12T13:36:06Z</time>
    </trkpt>
    <trkpt lat="38.656137977" lon="34.854972968">
      <ele>1120.96</ele>
      <time>2021-10-12T13:36:07Z</time>
    </trkpt>
    <trkpt lat="38.656137977" lon="34.855014039">
      <ele>1121.83</ele>
      <time>2021-10-12T13:36:08Z</time>
    </trkpt>
    <trkpt lat="38.65613102" lon="34.855049998">
      <ele>1122.472</ele>
      <time>2021-10-12T13:36:09Z</time>
    </trkpt>
    <trkpt lat="38.656123979" lon="34.855071036">
      <ele>1122.873</ele>
      <time>2021-10-12T13:36:10Z</time>
    </trkpt>
    <trkpt lat="38.65612004" lon="34.855101965">
      <ele>1123.375</ele>
      <time>2021-10-12T13:36:11Z</time>
    </trkpt>
    <trkpt lat="38.656122973" lon="34.855126021">
      <ele>1123.702</ele>
      <time>2021-10-12T13:36:11Z</time>
    </trkpt>
    <trkpt lat="38.656129008" lon="34.855152005">
      <ele>1124.037</ele>
      <time>2021-10-12T13:36:12Z</time>
    </trkpt>
    <trkpt lat="38.656137977" lon="34.855178995">
      <ele>1124.378</ele>
      <time>2021-10-12T13:36:13Z</time>
    </trkpt>
    <trkpt lat="38.656139988" lon="34.855213026">
      <ele>1124.891</ele>
      <time>2021-10-12T13:36:14Z</time>
    </trkpt>
    <trkpt lat="38.65613102" lon="34.855241021">
      <ele>1125.371</ele>
      <time>2021-10-12T13:36:15Z</time>
    </trkpt>
    <trkpt lat="38.656109981" lon="34.855261976">
      <ele>1125.756</ele>
      <time>2021-10-12T13:36:16Z</time>
    </trkpt>
    <trkpt lat="38.656088021" lon="34.85527304">
      <ele>1125.599</ele>
      <time>2021-10-12T13:36:17Z</time>
    </trkpt>
    <trkpt lat="38.65607" lon="34.855293995">
      <ele>1125.741</ele>
      <time>2021-10-12T13:36:18Z</time>
    </trkpt>
    <trkpt lat="38.656058013" lon="34.855315033">
      <ele>1125.989</ele>
      <time>2021-10-12T13:36:18Z</time>
    </trkpt>
    <trkpt lat="38.656050973" lon="34.855344035">
      <ele>1126.462</ele>
      <time>2021-10-12T13:36:19Z</time>
    </trkpt>
    <trkpt lat="38.656051978" lon="34.855368007">
      <ele>1126.959</ele>
      <time>2021-10-12T13:36:20Z</time>
    </trkpt>
    <trkpt lat="38.656061031" lon="34.855397008">
      <ele>1127.699</ele>
      <time>2021-10-12T13:36:21Z</time>
    </trkpt>
    <trkpt lat="38.656058013" lon="34.855433973">
      <ele>1128.394</ele>
      <time>2021-10-12T13:36:22Z</time>
    </trkpt>
    <trkpt lat="38.656056002" lon="34.855469009">
      <ele>1129.064</ele>
      <time>2021-10-12T13:36:23Z</time>
    </trkpt>
    <trkpt lat="38.65605399" lon="34.855501028">
      <ele>1129.669</ele>
      <time>2021-10-12T13:36:24Z</time>
    </trkpt>
    <trkpt lat="38.656046027" lon="34.855528018">
      <ele>1130.046</ele>
      <time>2021-10-12T13:36:25Z</time>
    </trkpt>
    <trkpt lat="38.656036975" lon="34.855554001">
      <ele>1130.368</ele>
      <time>2021-10-12T13:36:26Z</time>
    </trkpt>
    <trkpt lat="38.656030018" lon="34.855579985">
      <ele>1130.6</ele>
      <time>2021-10-12T13:36:26Z</time>
    </trkpt>
    <trkpt lat="38.656022977" lon="34.85561301">
      <ele>1130.924</ele>
      <time>2021-10-12T13:36:27Z</time>
    </trkpt>
    <trkpt lat="38.656018032" lon="34.855637988">
      <ele>1131.177</ele>
      <time>2021-10-12T13:36:28Z</time>
    </trkpt>
    <trkpt lat="38.656013003" lon="34.855662966">
      <ele>1131.428</ele>
      <time>2021-10-12T13:36:29Z</time>
    </trkpt>
    <trkpt lat="38.656005962" lon="34.855688028">
      <ele>1131.636</ele>
      <time>2021-10-12T13:36:30Z</time>
    </trkpt>
    <trkpt lat="38.65600504" lon="34.855710994">
      <ele>1131.947</ele>
      <time>2021-10-12T13:36:30Z</time>
    </trkpt>
    <trkpt lat="38.655994982" lon="34.855736978">
      <ele>1132.104</ele>
      <time>2021-10-12T13:36:31Z</time>
    </trkpt>
    <trkpt lat="38.655991964" lon="34.85576204">
      <ele>1132.4</ele>
      <time>2021-10-12T13:36:32Z</time>
    </trkpt>
    <trkpt lat="38.656009985" lon="34.855776038">
      <ele>1132.991</ele>
      <time>2021-10-12T13:36:33Z</time>
    </trkpt>
    <trkpt lat="38.656034963" lon="34.855803028">
      <ele>1133.919</ele>
      <time>2021-10-12T13:36:34Z</time>
    </trkpt>
    <trkpt lat="38.656051978" lon="34.855823983">
      <ele>1134.588</ele>
      <time>2021-10-12T13:36:35Z</time>
    </trkpt>
    <trkpt lat="38.656065976" lon="34.855843009">
      <ele>1135.188</ele>
      <time>2021-10-12T13:36:36Z</time>
    </trkpt>
    <trkpt lat="38.65608098" lon="34.855865976">
      <ele>1135.911</ele>
      <time>2021-10-12T13:36:36Z</time>
    </trkpt>
    <trkpt lat="38.656088021" lon="34.855891038">
      <ele>1136.505</ele>
      <time>2021-10-12T13:36:37Z</time>
    </trkpt>
    <trkpt lat="38.656095983" lon="34.855963038">
      <ele>1137.957</ele>
      <time>2021-10-12T13:36:39Z</time>
    </trkpt>
    <trkpt lat="38.656102018" lon="34.855992962">
      <ele>1138.639</ele>
      <time>2021-10-12T13:36:40Z</time>
    </trkpt>
    <trkpt lat="38.656093972" lon="34.856020035">
      <ele>1138.907</ele>
      <time>2021-10-12T13:36:41Z</time>
    </trkpt>
    <trkpt lat="38.656079974" lon="34.856035961">
      <ele>1138.811</ele>
      <time>2021-10-12T13:36:42Z</time>
    </trkpt>
    <trkpt lat="38.656056002" lon="34.85605197">
      <ele>1138.433</ele>
      <time>2021-10-12T13:36:43Z</time>
    </trkpt>
    <trkpt lat="38.65604301" lon="34.85607896">
      <ele>1138.517</ele>
      <time>2021-10-12T13:36:44Z</time>
    </trkpt>
    <trkpt lat="38.656035969" lon="34.856107039">
      <ele>1138.771</ele>
      <time>2021-10-12T13:36:44Z</time>
    </trkpt>
    <trkpt lat="38.65603203" lon="34.856137969">
      <ele>1139.068</ele>
      <time>2021-10-12T13:36:45Z</time>
    </trkpt>
    <trkpt lat="38.656027" lon="34.856162025">
      <ele>1139.238</ele>
      <time>2021-10-12T13:36:46Z</time>
    </trkpt>
    <trkpt lat="38.656028006" lon="34.856187003">
      <ele>1139.59</ele>
      <time>2021-10-12T13:36:47Z</time>
    </trkpt>
    <trkpt lat="38.656034963" lon="34.856211981">
      <ele>1140.095</ele>
      <time>2021-10-12T13:36:48Z</time>
    </trkpt>
    <trkpt lat="38.656047033" lon="34.856236959">
      <ele>1140.723</ele>
      <time>2021-10-12T13:36:48Z</time>
    </trkpt>
    <trkpt lat="38.65605399" lon="34.856269984">
      <ele>1141.306</ele>
      <time>2021-10-12T13:36:49Z</time>
    </trkpt>
    <trkpt lat="38.656051978" lon="34.856310971">
      <ele>1141.762</ele>
      <time>2021-10-12T13:36:51Z</time>
    </trkpt>
    <trkpt lat="38.65604301" lon="34.856350031">
      <ele>1142.041</ele>
      <time>2021-10-12T13:36:52Z</time>
    </trkpt>
    <trkpt lat="38.656031024" lon="34.856378026">
      <ele>1142.13</ele>
      <time>2021-10-12T13:36:53Z</time>
    </trkpt>
    <trkpt lat="38.656023983" lon="34.856403004">
      <ele>1142.204</ele>
      <time>2021-10-12T13:36:54Z</time>
    </trkpt>
    <trkpt lat="38.656004034" lon="34.856413985">
      <ele>1141.833</ele>
      <time>2021-10-12T13:36:54Z</time>
    </trkpt>
    <trkpt lat="38.655985007" lon="34.856411973">
      <ele>1141.405</ele>
      <time>2021-10-12T13:36:55Z</time>
    </trkpt>
    <trkpt lat="38.655964974" lon="34.856401999">
      <ele>1140.913</ele>
      <time>2021-10-12T13:36:56Z</time>
    </trkpt>
    <trkpt lat="38.65593899" lon="34.856397975">
      <ele>1140.327</ele>
      <time>2021-10-12T13:36:57Z</time>
    </trkpt>
    <trkpt lat="38.655920969" lon="34.856381966">
      <ele>1139.784</ele>
      <time>2021-10-12T13:36:58Z</time>
    </trkpt>
    <trkpt lat="38.65581804" lon="34.856407028">
      <ele>1137.522</ele>
      <time>2021-10-12T13:37:01Z</time>
    </trkpt>
    <trkpt lat="38.655747967" lon="34.856481962">
      <ele>1135.468</ele>
      <time>2021-10-12T13:37:05Z</time>
    </trkpt>
    <trkpt lat="38.655721983" lon="34.856537031">
      <ele>1134.952</ele>
      <time>2021-10-12T13:37:07Z</time>
    </trkpt>
    <trkpt lat="38.655712008" lon="34.856563015">
      <ele>1134.807</ele>
      <time>2021-10-12T13:37:08Z</time>
    </trkpt>
    <trkpt lat="38.655707985" lon="34.856587993">
      <ele>1134.851</ele>
      <time>2021-10-12T13:37:08Z</time>
    </trkpt>
    <trkpt lat="38.655701028" lon="34.856612971">
      <ele>1134.812</ele>
      <time>2021-10-12T13:37:09Z</time>
    </trkpt>
    <trkpt lat="38.655694993" lon="34.856639039">
      <ele>1134.817</ele>
      <time>2021-10-12T13:37:10Z</time>
    </trkpt>
    <trkpt lat="38.655684013" lon="34.856664017">
      <ele>1134.68</ele>
      <time>2021-10-12T13:37:11Z</time>
    </trkpt>
    <trkpt lat="38.655664986" lon="34.856686983">
      <ele>1134.342</ele>
      <time>2021-10-12T13:37:12Z</time>
    </trkpt>
    <trkpt lat="38.655639002" lon="34.85669503">
      <ele>1133.679</ele>
      <time>2021-10-12T13:37:13Z</time>
    </trkpt>
    <trkpt lat="38.655611007" lon="34.856701987">
      <ele>1132.953</ele>
      <time>2021-10-12T13:37:14Z</time>
    </trkpt>
    <trkpt lat="38.655586028" lon="34.856709028">
      <ele>1132.318</ele>
      <time>2021-10-12T13:37:15Z</time>
    </trkpt>
    <trkpt lat="38.65556499" lon="34.85672202">
      <ele>1131.863</ele>
      <time>2021-10-12T13:37:16Z</time>
    </trkpt>
    <trkpt lat="38.655541018" lon="34.856730988">
      <ele>1131.34</ele>
      <time>2021-10-12T13:37:16Z</time>
    </trkpt>
    <trkpt lat="38.65552702" lon="34.856754038">
      <ele>1131.257</ele>
      <time>2021-10-12T13:37:17Z</time>
    </trkpt>
    <trkpt lat="38.65551101" lon="34.856783962">
      <ele>1131.212</ele>
      <time>2021-10-12T13:37:18Z</time>
    </trkpt>
    <trkpt lat="38.655489972" lon="34.856793014">
      <ele>1130.819</ele>
      <time>2021-10-12T13:37:19Z</time>
    </trkpt>
    <trkpt lat="38.655471029" lon="34.85679402">
      <ele>1130.385</ele>
      <time>2021-10-12T13:37:20Z</time>
    </trkpt>
    <trkpt lat="38.655444961" lon="34.856803995">
      <ele>1129.893</ele>
      <time>2021-10-12T13:37:21Z</time>
    </trkpt>
    <trkpt lat="38.655427024" lon="34.856808018">
      <ele>1129.523</ele>
      <time>2021-10-12T13:37:22Z</time>
    </trkpt>
    <trkpt lat="38.655398022" lon="34.856805">
      <ele>1128.807</ele>
      <time>2021-10-12T13:37:23Z</time>
    </trkpt>
    <trkpt lat="38.655380001" lon="34.856799971">
      <ele>1128.319</ele>
      <time>2021-10-12T13:37:23Z</time>
    </trkpt>
    <trkpt lat="38.655356029" lon="34.85679796">
      <ele>1127.729</ele>
      <time>2021-10-12T13:37:24Z</time>
    </trkpt>
    <trkpt lat="38.655333985" lon="34.85679796">
      <ele>1127.211</ele>
      <time>2021-10-12T13:37:25Z</time>
    </trkpt>
    <trkpt lat="38.655258967" lon="34.856812963">
      <ele>1126.075</ele>
      <time>2021-10-12T13:37:28Z</time>
    </trkpt>
    <trkpt lat="38.655240024" lon="34.856827967">
      <ele>1126.266</ele>
      <time>2021-10-12T13:37:29Z</time>
    </trkpt>
    <trkpt lat="38.655218985" lon="34.856828973">
      <ele>1126.249</ele>
      <time>2021-10-12T13:37:29Z</time>
    </trkpt>
    <trkpt lat="38.655200042" lon="34.85682101">
      <ele>1126.098</ele>
      <time>2021-10-12T13:37:30Z</time>
    </trkpt>
    <trkpt lat="38.655175986" lon="34.856822016">
      <ele>1126.076</ele>
      <time>2021-10-12T13:37:31Z</time>
    </trkpt>
    <trkpt lat="38.655156037" lon="34.856829979">
      <ele>1126.171</ele>
      <time>2021-10-12T13:37:32Z</time>
    </trkpt>
    <trkpt lat="38.655142039" lon="34.856845988">
      <ele>1126.409</ele>
      <time>2021-10-12T13:37:33Z</time>
    </trkpt>
    <trkpt lat="38.655128041" lon="34.856868032">
      <ele>1126.751</ele>
      <time>2021-10-12T13:37:33Z</time>
    </trkpt>
    <trkpt lat="38.655107003" lon="34.856871972">
      <ele>1126.796</ele>
      <time>2021-10-12T13:37:34Z</time>
    </trkpt>
    <trkpt lat="38.655087976" lon="34.856864009">
      <ele>1126.644</ele>
      <time>2021-10-12T13:37:35Z</time>
    </trkpt>
    <trkpt lat="38.655067021" lon="34.856850011">
      <ele>1126.382</ele>
      <time>2021-10-12T13:37:36Z</time>
    </trkpt>
    <trkpt lat="38.655049" lon="34.856854035">
      <ele>1126.43</ele>
      <time>2021-10-12T13:37:36Z</time>
    </trkpt>
    <trkpt lat="38.655033996" lon="34.856868032">
      <ele>1126.658</ele>
      <time>2021-10-12T13:37:37Z</time>
    </trkpt>
    <trkpt lat="38.655023016" lon="34.856887981">
      <ele>1127.001</ele>
      <time>2021-10-12T13:37:38Z</time>
    </trkpt>
    <trkpt lat="38.655010024" lon="34.856910026">
      <ele>1127.385</ele>
      <time>2021-10-12T13:37:39Z</time>
    </trkpt>
    <trkpt lat="38.655029973" lon="34.85689804">
      <ele>1127.183</ele>
      <time>2021-10-12T13:37:39Z</time>
    </trkpt>
    <trkpt lat="38.655018993" lon="34.856916983">
      <ele>1127.512</ele>
      <time>2021-10-12T13:37:40Z</time>
    </trkpt>
    <trkpt lat="38.654990997" lon="34.856928969">
      <ele>1127.855</ele>
      <time>2021-10-12T13:37:41Z</time>
    </trkpt>
    <trkpt lat="38.654978005" lon="34.856950007">
      <ele>1128.377</ele>
      <time>2021-10-12T13:37:42Z</time>
    </trkpt>
    <trkpt lat="38.654959984" lon="34.856984038">
      <ele>1129.004</ele>
      <time>2021-10-12T13:37:43Z</time>
    </trkpt>
    <trkpt lat="38.654926037" lon="34.85700801">
      <ele>1129.752</ele>
      <time>2021-10-12T13:37:45Z</time>
    </trkpt>
    <trkpt lat="38.654897036" lon="34.857017985">
      <ele>1130.277</ele>
      <time>2021-10-12T13:37:46Z</time>
    </trkpt>
    <trkpt lat="38.654865017" lon="34.857016979">
      <ele>1130.727</ele>
      <time>2021-10-12T13:37:47Z</time>
    </trkpt>
    <trkpt lat="38.654838027" lon="34.857003987">
      <ele>1130.975</ele>
      <time>2021-10-12T13:37:48Z</time>
    </trkpt>
    <trkpt lat="38.654814977" lon="34.856995018">
      <ele>1131.211</ele>
      <time>2021-10-12T13:37:49Z</time>
    </trkpt>
    <trkpt lat="38.654787987" lon="34.856992001">
      <ele>1131.567</ele>
      <time>2021-10-12T13:37:50Z</time>
    </trkpt>
    <trkpt lat="38.654764015" lon="34.856995018">
      <ele>1131.944</ele>
      <time>2021-10-12T13:37:51Z</time>
    </trkpt>
    <trkpt lat="38.654737025" lon="34.856999964">
      <ele>1132.386</ele>
      <time>2021-10-12T13:37:52Z</time>
    </trkpt>
    <trkpt lat="38.654712969" lon="34.856998036">
      <ele>1132.766</ele>
      <time>2021-10-12T13:37:53Z</time>
    </trkpt>
    <trkpt lat="38.654694026" lon="34.856985966">
      <ele>1133.027</ele>
      <time>2021-10-12T13:37:53Z</time>
    </trkpt>
    <trkpt lat="38.654681034" lon="34.856966017">
      <ele>1133.1</ele>
      <time>2021-10-12T13:37:54Z</time>
    </trkpt>
    <trkpt lat="38.654666031" lon="34.856953025">
      <ele>1133.294</ele>
      <time>2021-10-12T13:37:55Z</time>
    </trkpt>
    <trkpt lat="38.654651027" lon="34.856939027">
      <ele>1133.494</ele>
      <time>2021-10-12T13:37:56Z</time>
    </trkpt>
    <trkpt lat="38.654626971" lon="34.856918994">
      <ele>1133.877</ele>
      <time>2021-10-12T13:37:57Z</time>
    </trkpt>
    <trkpt lat="38.654610962" lon="34.85689804">
      <ele>1134.103</ele>
      <time>2021-10-12T13:37:57Z</time>
    </trkpt>
    <trkpt lat="38.654589001" lon="34.856880018">
      <ele>1134.515</ele>
      <time>2021-10-12T13:37:58Z</time>
    </trkpt>
    <trkpt lat="38.654576009" lon="34.856863003">
      <ele>1134.742</ele>
      <time>2021-10-12T13:37:59Z</time>
    </trkpt>
    <trkpt lat="38.654562011" lon="34.856837019">
      <ele>1134.97</ele>
      <time>2021-10-12T13:38:00Z</time>
    </trkpt>
    <trkpt lat="38.654546002" lon="34.85682101">
      <ele>1135.319</ele>
      <time>2021-10-12T13:38:01Z</time>
    </trkpt>
    <trkpt lat="38.654521024" lon="34.856812041">
      <ele>1135.952</ele>
      <time>2021-10-12T13:38:02Z</time>
    </trkpt>
    <trkpt lat="38.654504009" lon="34.856805">
      <ele>1136.39</ele>
      <time>2021-10-12T13:38:02Z</time>
    </trkpt>
    <trkpt lat="38.654486993" lon="34.856786979">
      <ele>1136.82</ele>
      <time>2021-10-12T13:38:03Z</time>
    </trkpt>
    <trkpt lat="38.65447199" lon="34.85675999">
      <ele>1137.207</ele>
      <time>2021-10-12T13:38:04Z</time>
    </trkpt>
    <trkpt lat="38.654469978" lon="34.856730988">
      <ele>1137.237</ele>
      <time>2021-10-12T13:38:05Z</time>
    </trkpt>
    <trkpt lat="38.654478025" lon="34.85670601">
      <ele>1136.963</ele>
      <time>2021-10-12T13:38:06Z</time>
    </trkpt>
    <trkpt lat="38.654487999" lon="34.85667902">
      <ele>1136.61</ele>
      <time>2021-10-12T13:38:07Z</time>
    </trkpt>
    <trkpt lat="38.654499985" lon="34.856643984">
      <ele>1136.102</ele>
      <time>2021-10-12T13:38:08Z</time>
    </trkpt>
    <trkpt lat="38.654501997" lon="34.856619006">
      <ele>1135.928</ele>
      <time>2021-10-12T13:38:09Z</time>
    </trkpt>
    <trkpt lat="38.654495962" lon="34.85659604">
      <ele>1136.029</ele>
      <time>2021-10-12T13:38:09Z</time>
    </trkpt>
    <trkpt lat="38.654469978" lon="34.856602997">
      <ele>1136.922</ele>
      <time>2021-10-12T13:38:10Z</time>
    </trkpt>
    <trkpt lat="38.654451035" lon="34.856606014">
      <ele>1137.563</ele>
      <time>2021-10-12T13:38:11Z</time>
    </trkpt>
    <trkpt lat="38.654422034" lon="34.856605008">
      <ele>1138.361</ele>
      <time>2021-10-12T13:38:12Z</time>
    </trkpt>
    <trkpt lat="38.654396972" lon="34.856598973">
      <ele>1138.994</ele>
      <time>2021-10-12T13:38:13Z</time>
    </trkpt>
    <trkpt lat="38.654379034" lon="34.856590005">
      <ele>1139.437</ele>
      <time>2021-10-12T13:38:14Z</time>
    </trkpt>
    <trkpt lat="38.654355984" lon="34.856576007">
      <ele>1140.007</ele>
      <time>2021-10-12T13:38:15Z</time>
    </trkpt>
    <trkpt lat="38.654337041" lon="34.856571984">
      <ele>1140.497</ele>
      <time>2021-10-12T13:38:15Z</time>
    </trkpt>
    <trkpt lat="38.654317008" lon="34.856561003">
      <ele>1141.006</ele>
      <time>2021-10-12T13:38:16Z</time>
    </trkpt>
    <trkpt lat="38.654299993" lon="34.856547005">
      <ele>1141.433</ele>
      <time>2021-10-12T13:38:17Z</time>
    </trkpt>
    <trkpt lat="38.654279038" lon="34.856536025">
      <ele>1141.978</ele>
      <time>2021-10-12T13:38:18Z</time>
    </trkpt>
    <trkpt lat="38.654260011" lon="34.856527979">
      <ele>1142.48</ele>
      <time>2021-10-12T13:38:18Z</time>
    </trkpt>
    <trkpt lat="38.654240984" lon="34.856509035">
      <ele>1142.975</ele>
      <time>2021-10-12T13:38:19Z</time>
    </trkpt>
    <trkpt lat="38.654223969" lon="34.856496966">
      <ele>1143.43</ele>
      <time>2021-10-12T13:38:20Z</time>
    </trkpt>
    <trkpt lat="38.654198991" lon="34.85649596">
      <ele>1144.114</ele>
      <time>2021-10-12T13:38:21Z</time>
    </trkpt>
    <trkpt lat="38.654176025" lon="34.856503">
      <ele>1144.744</ele>
      <time>2021-10-12T13:38:22Z</time>
    </trkpt>
    <trkpt lat="38.654152974" lon="34.856496966">
      <ele>1145.266</ele>
      <time>2021-10-12T13:38:23Z</time>
    </trkpt>
    <trkpt lat="38.654138977" lon="34.856476011">
      <ele>1145.53</ele>
      <time>2021-10-12T13:38:24Z</time>
    </trkpt>
    <trkpt lat="38.654135037" lon="34.856443992">
      <ele>1145.592</ele>
      <time>2021-10-12T13:38:24Z</time>
    </trkpt>
    <trkpt lat="38.654138977" lon="34.856419014">
      <ele>1145.509</ele>
      <time>2021-10-12T13:38:25Z</time>
    </trkpt>
    <trkpt lat="38.654136965" lon="34.856392024">
      <ele>1145.536</ele>
      <time>2021-10-12T13:38:26Z</time>
    </trkpt>
    <trkpt lat="38.654121961" lon="34.856378026">
      <ele>1145.772</ele>
      <time>2021-10-12T13:38:27Z</time>
    </trkpt>
    <trkpt lat="38.654102013" lon="34.856365034">
      <ele>1146.098</ele>
      <time>2021-10-12T13:38:28Z</time>
    </trkpt>
    <trkpt lat="38.654043004" lon="34.856350031">
      <ele>1147.148</ele>
      <time>2021-10-12T13:38:30Z</time>
    </trkpt>
    <trkpt lat="38.65401702" lon="34.856339972">
      <ele>1147.612</ele>
      <time>2021-10-12T13:38:31Z</time>
    </trkpt>
    <trkpt lat="38.653998999" lon="34.856321029">
      <ele>1147.921</ele>
      <time>2021-10-12T13:38:32Z</time>
    </trkpt>
    <trkpt lat="38.653983995" lon="34.856302002">
      <ele>1148.181</ele>
      <time>2021-10-12T13:38:32Z</time>
    </trkpt>
    <trkpt lat="38.653972009" lon="34.856280042">
      <ele>1148.387</ele>
      <time>2021-10-12T13:38:33Z</time>
    </trkpt>
    <trkpt lat="38.653961029" lon="34.856256992">
      <ele>1148.578</ele>
      <time>2021-10-12T13:38:34Z</time>
    </trkpt>
    <trkpt lat="38.653945019" lon="34.856238971">
      <ele>1148.881</ele>
      <time>2021-10-12T13:38:35Z</time>
    </trkpt>
    <trkpt lat="38.653934961" lon="34.856219022">
      <ele>1149.069</ele>
      <time>2021-10-12T13:38:35Z</time>
    </trkpt>
    <trkpt lat="38.653924987" lon="34.856189014">
      <ele>1149.257</ele>
      <time>2021-10-12T13:38:36Z</time>
    </trkpt>
    <trkpt lat="38.653916018" lon="34.856167976">
      <ele>1149.434</ele>
      <time>2021-10-12T13:38:37Z</time>
    </trkpt>
    <trkpt lat="38.653909983" lon="34.856145009">
      <ele>1149.554</ele>
      <time>2021-10-12T13:38:38Z</time>
    </trkpt>
    <trkpt lat="38.653906966" lon="34.856121037">
      <ele>1149.612</ele>
      <time>2021-10-12T13:38:38Z</time>
    </trkpt>
    <trkpt lat="38.653901014" lon="34.856096981">
      <ele>1149.782</ele>
      <time>2021-10-12T13:38:39Z</time>
    </trkpt>
    <trkpt lat="38.653897997" lon="34.856063034">
      <ele>1149.959</ele>
      <time>2021-10-12T13:38:40Z</time>
    </trkpt>
    <trkpt lat="38.653896991" lon="34.856039984">
      <ele>1150.059</ele>
      <time>2021-10-12T13:38:41Z</time>
    </trkpt>
    <trkpt lat="38.653911995" lon="34.856015006">
      <ele>1149.761</ele>
      <time>2021-10-12T13:38:42Z</time>
    </trkpt>
    <trkpt lat="38.653923981" lon="34.855983993">
      <ele>1149.526</ele>
      <time>2021-10-12T13:38:43Z</time>
    </trkpt>
    <trkpt lat="38.653924987" lon="34.855962032">
      <ele>1149.548</ele>
      <time>2021-10-12T13:38:43Z</time>
    </trkpt>
    <trkpt lat="38.653908977" lon="34.855946023">
      <ele>1150.031</ele>
      <time>2021-10-12T13:38:44Z</time>
    </trkpt>
    <trkpt lat="38.653887017" lon="34.855940994">
      <ele>1150.651</ele>
      <time>2021-10-12T13:38:45Z</time>
    </trkpt>
    <trkpt lat="38.653870001" lon="34.855935965">
      <ele>1151.021</ele>
      <time>2021-10-12T13:38:46Z</time>
    </trkpt>
    <trkpt lat="38.653850975" lon="34.855935965">
      <ele>1151.414</ele>
      <time>2021-10-12T13:38:46Z</time>
    </trkpt>
    <trkpt lat="38.65383002" lon="34.855936971">
      <ele>1151.845</ele>
      <time>2021-10-12T13:38:47Z</time>
    </trkpt>
    <trkpt lat="38.653808981" lon="34.855935965">
      <ele>1152.281</ele>
      <time>2021-10-12T13:38:48Z</time>
    </trkpt>
    <trkpt lat="38.653782997" lon="34.855936971">
      <ele>1152.817</ele>
      <time>2021-10-12T13:38:49Z</time>
    </trkpt>
    <trkpt lat="38.653761959" lon="34.855937976">
      <ele>1153.252</ele>
      <time>2021-10-12T13:38:50Z</time>
    </trkpt>
    <trkpt lat="38.653743016" lon="34.855920961">
      <ele>1153.642</ele>
      <time>2021-10-12T13:38:51Z</time>
    </trkpt>
    <trkpt lat="38.653721977" lon="34.855912998">
      <ele>1154.062</ele>
      <time>2021-10-12T13:38:51Z</time>
    </trkpt>
    <trkpt lat="38.653707979" lon="34.855895983">
      <ele>1154.325</ele>
      <time>2021-10-12T13:38:52Z</time>
    </trkpt>
    <trkpt lat="38.653698005" lon="34.855876034">
      <ele>1154.493</ele>
      <time>2021-10-12T13:38:53Z</time>
    </trkpt>
    <trkpt lat="38.653686019" lon="34.85585399">
      <ele>1154.686</ele>
      <time>2021-10-12T13:38:53Z</time>
    </trkpt>
    <trkpt lat="38.653679984" lon="34.855824988">
      <ele>1154.85</ele>
      <time>2021-10-12T13:38:54Z</time>
    </trkpt>
    <trkpt lat="38.653681995" lon="34.85580001">
      <ele>1155.084</ele>
      <time>2021-10-12T13:38:55Z</time>
    </trkpt>
    <trkpt lat="38.653689036" lon="34.855772015">
      <ele>1155.26</ele>
      <time>2021-10-12T13:38:56Z</time>
    </trkpt>
    <trkpt lat="38.653689958" lon="34.855743013">
      <ele>1155.556</ele>
      <time>2021-10-12T13:38:57Z</time>
    </trkpt>
    <trkpt lat="38.653673027" lon="34.855732033">
      <ele>1155.98</ele>
      <time>2021-10-12T13:38:57Z</time>
    </trkpt>
    <trkpt lat="38.653649976" lon="34.855736978">
      <ele>1156.341</ele>
      <time>2021-10-12T13:38:58Z</time>
    </trkpt>
    <trkpt lat="38.653628016" lon="34.85573899">
      <ele>1156.715</ele>
      <time>2021-10-12T13:38:59Z</time>
    </trkpt>
    <trkpt lat="38.653609995" lon="34.85573899">
      <ele>1157.027</ele>
      <time>2021-10-12T13:39:00Z</time>
    </trkpt>
    <trkpt lat="38.653583005" lon="34.855743013">
      <ele>1157.183</ele>
      <time>2021-10-12T13:39:01Z</time>
    </trkpt>
    <trkpt lat="38.653564984" lon="34.855746031">
      <ele>1157.294</ele>
      <time>2021-10-12T13:39:02Z</time>
    </trkpt>
    <trkpt lat="38.653546041" lon="34.855747959">
      <ele>1157.427</ele>
      <time>2021-10-12T13:39:02Z</time>
    </trkpt>
    <trkpt lat="38.653529026" lon="34.855760029">
      <ele>1157.506</ele>
      <time>2021-10-12T13:39:03Z</time>
    </trkpt>
    <trkpt lat="38.653513016" lon="34.855773021">
      <ele>1157.604</ele>
      <time>2021-10-12T13:39:04Z</time>
    </trkpt>
    <trkpt lat="38.653492983" lon="34.855781989">
      <ele>1157.784</ele>
      <time>2021-10-12T13:39:04Z</time>
    </trkpt>
    <trkpt lat="38.653470017" lon="34.855791042">
      <ele>1158.025</ele>
      <time>2021-10-12T13:39:05Z</time>
    </trkpt>
    <trkpt lat="38.653451996" lon="34.855811996">
      <ele>1158.258</ele>
      <time>2021-10-12T13:39:06Z</time>
    </trkpt>
    <trkpt lat="38.653435986" lon="34.855834041">
      <ele>1158.524</ele>
      <time>2021-10-12T13:39:07Z</time>
    </trkpt>
    <trkpt lat="38.653420983" lon="34.855854996">
      <ele>1158.816</ele>
      <time>2021-10-12T13:39:08Z</time>
    </trkpt>
    <trkpt lat="38.653407991" lon="34.855874022">
      <ele>1159.071</ele>
      <time>2021-10-12T13:39:09Z</time>
    </trkpt>
    <trkpt lat="38.653394999" lon="34.855892966">
      <ele>1159.327</ele>
      <time>2021-10-12T13:39:09Z</time>
    </trkpt>
    <trkpt lat="38.653384019" lon="34.855919033">
      <ele>1159.579</ele>
      <time>2021-10-12T13:39:10Z</time>
    </trkpt>
    <trkpt lat="38.653383013" lon="34.855950968">
      <ele>1159.708</ele>
      <time>2021-10-12T13:39:11Z</time>
    </trkpt>
    <trkpt lat="38.653371027" lon="34.85597997">
      <ele>1159.985</ele>
      <time>2021-10-12T13:39:12Z</time>
    </trkpt>
    <trkpt lat="38.653356023" lon="34.856006959">
      <ele>1160.298</ele>
      <time>2021-10-12T13:39:13Z</time>
    </trkpt>
    <trkpt lat="38.653339008" lon="34.856029004">
      <ele>1160.623</ele>
      <time>2021-10-12T13:39:14Z</time>
    </trkpt>
    <trkpt lat="38.653316963" lon="34.856049959">
      <ele>1160.675</ele>
      <time>2021-10-12T13:39:15Z</time>
    </trkpt>
    <trkpt lat="38.653302966" lon="34.856074015">
      <ele>1160.662</ele>
      <time>2021-10-12T13:39:16Z</time>
    </trkpt>
    <trkpt lat="38.65329098" lon="34.856093042">
      <ele>1160.64</ele>
      <time>2021-10-12T13:39:17Z</time>
    </trkpt>
    <trkpt lat="38.653273964" lon="34.856113996">
      <ele>1160.564</ele>
      <time>2021-10-12T13:39:17Z</time>
    </trkpt>
    <trkpt lat="38.653259967" lon="34.856130006">
      <ele>1160.422</ele>
      <time>2021-10-12T13:39:18Z</time>
    </trkpt>
    <trkpt lat="38.653244963" lon="34.856159007">
      <ele>1160.246</ele>
      <time>2021-10-12T13:39:19Z</time>
    </trkpt>
    <trkpt lat="38.653231971" lon="34.856181974">
      <ele>1160.108</ele>
      <time>2021-10-12T13:39:20Z</time>
    </trkpt>
    <trkpt lat="38.653218979" lon="34.856205024">
      <ele>1159.978</ele>
      <time>2021-10-12T13:39:21Z</time>
    </trkpt>
    <trkpt lat="38.653207999" lon="34.856224973">
      <ele>1159.873</ele>
      <time>2021-10-12T13:39:21Z</time>
    </trkpt>
    <trkpt lat="38.653196013" lon="34.856245006">
      <ele>1159.768</ele>
      <time>2021-10-12T13:39:22Z</time>
    </trkpt>
    <trkpt lat="38.653185032" lon="34.856270989">
      <ele>1159.664</ele>
      <time>2021-10-12T13:39:23Z</time>
    </trkpt>
    <trkpt lat="38.653172962" lon="34.856300997">
      <ele>1159.556</ele>
      <time>2021-10-12T13:39:24Z</time>
    </trkpt>
    <trkpt lat="38.653171035" lon="34.856334021">
      <ele>1159.498</ele>
      <time>2021-10-12T13:39:25Z</time>
    </trkpt>
    <trkpt lat="38.653177992" lon="34.856367968">
      <ele>1159.474</ele>
      <time>2021-10-12T13:39:26Z</time>
    </trkpt>
    <trkpt lat="38.653183021" lon="34.856400993">
      <ele>1159.546</ele>
      <time>2021-10-12T13:39:27Z</time>
    </trkpt>
    <trkpt lat="38.653186038" lon="34.856433012">
      <ele>1159.787</ele>
      <time>2021-10-12T13:39:28Z</time>
    </trkpt>
    <trkpt lat="38.653189978" lon="34.856462013">
      <ele>1160.01</ele>
      <time>2021-10-12T13:39:29Z</time>
    </trkpt>
    <trkpt lat="38.653194001" lon="34.85649202">
      <ele>1160.241</ele>
      <time>2021-10-12T13:39:30Z</time>
    </trkpt>
    <trkpt lat="38.653201964" lon="34.856522027">
      <ele>1160.486</ele>
      <time>2021-10-12T13:39:31Z</time>
    </trkpt>
    <trkpt lat="38.653201042" lon="34.856547005">
      <ele>1160.662</ele>
      <time>2021-10-12T13:39:31Z</time>
    </trkpt>
    <trkpt lat="38.653201042" lon="34.856569972">
      <ele>1160.828</ele>
      <time>2021-10-12T13:39:32Z</time>
    </trkpt>
    <trkpt lat="38.653197018" lon="34.856598973">
      <ele>1161.022</ele>
      <time>2021-10-12T13:39:33Z</time>
    </trkpt>
    <trkpt lat="38.653201042" lon="34.856623029">
      <ele>1161.21</ele>
      <time>2021-10-12T13:39:34Z</time>
    </trkpt>
    <trkpt lat="38.653211016" lon="34.856652031">
      <ele>1161.454</ele>
      <time>2021-10-12T13:39:34Z</time>
    </trkpt>
    <trkpt lat="38.653203975" lon="34.85668296">
      <ele>1161.679</ele>
      <time>2021-10-12T13:39:35Z</time>
    </trkpt>
    <trkpt lat="38.653197018" lon="34.856711961">
      <ele>1161.915</ele>
      <time>2021-10-12T13:39:36Z</time>
    </trkpt>
    <trkpt lat="38.653190983" lon="34.856739035">
      <ele>1162.142</ele>
      <time>2021-10-12T13:39:37Z</time>
    </trkpt>
    <trkpt lat="38.653181009" lon="34.856763007">
      <ele>1162.335</ele>
      <time>2021-10-12T13:39:38Z</time>
    </trkpt>
    <trkpt lat="38.65317204" lon="34.856791003">
      <ele>1162.574</ele>
      <time>2021-10-12T13:39:39Z</time>
    </trkpt>
    <trkpt lat="38.653155025" lon="34.856818998">
      <ele>1162.807</ele>
      <time>2021-10-12T13:39:40Z</time>
    </trkpt>
    <trkpt lat="38.653143961" lon="34.856845988">
      <ele>1163.049</ele>
      <time>2021-10-12T13:39:41Z</time>
    </trkpt>
    <trkpt lat="38.653135998" lon="34.856868032">
      <ele>1163.254</ele>
      <time>2021-10-12T13:39:41Z</time>
    </trkpt>
    <trkpt lat="38.653122" lon="34.856899967">
      <ele>1163.558</ele>
      <time>2021-10-12T13:39:42Z</time>
    </trkpt>
    <trkpt lat="38.65311102" lon="34.856926035">
      <ele>1163.814</ele>
      <time>2021-10-12T13:39:43Z</time>
    </trkpt>
    <trkpt lat="38.653100962" lon="34.856955959">
      <ele>1164.103</ele>
      <time>2021-10-12T13:39:44Z</time>
    </trkpt>
    <trkpt lat="38.653095011" lon="34.856978003">
      <ele>1164.293</ele>
      <time>2021-10-12T13:39:45Z</time>
    </trkpt>
    <trkpt lat="38.65308403" lon="34.857004993">
      <ele>1164.503</ele>
      <time>2021-10-12T13:39:46Z</time>
    </trkpt>
    <trkpt lat="38.653072966" lon="34.857026031">
      <ele>1164.643</ele>
      <time>2021-10-12T13:39:47Z</time>
    </trkpt>
    <trkpt lat="38.653058968" lon="34.857051009">
      <ele>1164.781</ele>
      <time>2021-10-12T13:39:47Z</time>
    </trkpt>
    <trkpt lat="38.653043965" lon="34.857073976">
      <ele>1164.827</ele>
      <time>2021-10-12T13:39:48Z</time>
    </trkpt>
    <trkpt lat="38.653029967" lon="34.857093003">
      <ele>1164.843</ele>
      <time>2021-10-12T13:39:49Z</time>
    </trkpt>
    <trkpt lat="38.653020998" lon="34.857116975">
      <ele>1164.946</ele>
      <time>2021-10-12T13:39:50Z</time>
    </trkpt>
    <trkpt lat="38.653015969" lon="34.857146982">
      <ele>1165.135</ele>
      <time>2021-10-12T13:39:51Z</time>
    </trkpt>
    <trkpt lat="38.653015969" lon="34.857176989">
      <ele>1165.366</ele>
      <time>2021-10-12T13:39:52Z</time>
    </trkpt>
    <trkpt lat="38.653016975" lon="34.857204985">
      <ele>1165.589</ele>
      <time>2021-10-12T13:39:52Z</time>
    </trkpt>
    <trkpt lat="38.653026028" lon="34.857229963">
      <ele>1165.896</ele>
      <time>2021-10-12T13:39:53Z</time>
    </trkpt>
    <trkpt lat="38.653028961" lon="34.857257036">
      <ele>1166.298</ele>
      <time>2021-10-12T13:39:54Z</time>
    </trkpt>
    <trkpt lat="38.653032985" lon="34.857287966">
      <ele>1166.765</ele>
      <time>2021-10-12T13:39:55Z</time>
    </trkpt>
    <trkpt lat="38.653034996" lon="34.857317973">
      <ele>1167.205</ele>
      <time>2021-10-12T13:39:56Z</time>
    </trkpt>
    <trkpt lat="38.653030973" lon="34.857345968">
      <ele>1167.566</ele>
      <time>2021-10-12T13:39:57Z</time>
    </trkpt>
    <trkpt lat="38.65302301" lon="34.85737103">
      <ele>1167.846</ele>
      <time>2021-10-12T13:39:57Z</time>
    </trkpt>
    <trkpt lat="38.653014041" lon="34.857392991">
      <ele>1168.068</ele>
      <time>2021-10-12T13:39:58Z</time>
    </trkpt>
    <trkpt lat="38.653007001" lon="34.857420987">
      <ele>1168.388</ele>
      <time>2021-10-12T13:39:59Z</time>
    </trkpt>
    <trkpt lat="38.653001972" lon="34.85744697">
      <ele>1168.694</ele>
      <time>2021-10-12T13:40:00Z</time>
    </trkpt>
    <trkpt lat="38.652994009" lon="34.857475972">
      <ele>1169.008</ele>
      <time>2021-10-12T13:40:01Z</time>
    </trkpt>
    <trkpt lat="38.65298898" lon="34.857499022">
      <ele>1169.268</ele>
      <time>2021-10-12T13:40:01Z</time>
    </trkpt>
    <trkpt lat="38.652983028" lon="34.857524">
      <ele>1169.453</ele>
      <time>2021-10-12T13:40:02Z</time>
    </trkpt>
    <trkpt lat="38.652970036" lon="34.857548978">
      <ele>1169.551</ele>
      <time>2021-10-12T13:40:03Z</time>
    </trkpt>
    <trkpt lat="38.652956039" lon="34.857573034">
      <ele>1169.62</ele>
      <time>2021-10-12T13:40:04Z</time>
    </trkpt>
    <trkpt lat="38.652942041" lon="34.857602036">
      <ele>1169.726</ele>
      <time>2021-10-12T13:40:05Z</time>
    </trkpt>
    <trkpt lat="38.652930977" lon="34.857630031">
      <ele>1169.849</ele>
      <time>2021-10-12T13:40:06Z</time>
    </trkpt>
    <trkpt lat="38.652917985" lon="34.857654003">
      <ele>1169.903</ele>
      <time>2021-10-12T13:40:07Z</time>
    </trkpt>
    <trkpt lat="38.65290097" lon="34.857677976">
      <ele>1169.896</ele>
      <time>2021-10-12T13:40:08Z</time>
    </trkpt>
    <trkpt lat="38.652880015" lon="34.857695997">
      <ele>1169.775</ele>
      <time>2021-10-12T13:40:08Z</time>
    </trkpt>
    <trkpt lat="38.652859982" lon="34.857713012">
      <ele>1169.648</ele>
      <time>2021-10-12T13:40:09Z</time>
    </trkpt>
    <trkpt lat="38.652842967" lon="34.857732961">
      <ele>1169.578</ele>
      <time>2021-10-12T13:40:10Z</time>
    </trkpt>
    <trkpt lat="38.652824024" lon="34.857746959">
      <ele>1169.426</ele>
      <time>2021-10-12T13:40:11Z</time>
    </trkpt>
    <trkpt lat="38.652798962" lon="34.857757017">
      <ele>1169.15</ele>
      <time>2021-10-12T13:40:12Z</time>
    </trkpt>
    <trkpt lat="38.65278597" lon="34.857774032">
      <ele>1169.091</ele>
      <time>2021-10-12T13:40:13Z</time>
    </trkpt>
    <trkpt lat="38.652777001" lon="34.857796999">
      <ele>1169.127</ele>
      <time>2021-10-12T13:40:13Z</time>
    </trkpt>
    <trkpt lat="38.652761998" lon="34.857819965">
      <ele>1169.068</ele>
      <time>2021-10-12T13:40:14Z</time>
    </trkpt>
    <trkpt lat="38.652749006" lon="34.857839998">
      <ele>1169.01</ele>
      <time>2021-10-12T13:40:15Z</time>
    </trkpt>
    <trkpt lat="38.652738025" lon="34.857864976">
      <ele>1169.01</ele>
      <time>2021-10-12T13:40:16Z</time>
    </trkpt>
    <trkpt lat="38.652728973" lon="34.857894983">
      <ele>1169.067</ele>
      <time>2021-10-12T13:40:17Z</time>
    </trkpt>
    <trkpt lat="38.652727967" lon="34.857922979">
      <ele>1169.234</ele>
      <time>2021-10-12T13:40:18Z</time>
    </trkpt>
    <trkpt lat="38.652730985" lon="34.857956003">
      <ele>1169.501</ele>
      <time>2021-10-12T13:40:19Z</time>
    </trkpt>
    <trkpt lat="38.652743977" lon="34.857988022">
      <ele>1169.935</ele>
      <time>2021-10-12T13:40:20Z</time>
    </trkpt>
    <trkpt lat="38.652751017" lon="34.858022975">
      <ele>1170.295</ele>
      <time>2021-10-12T13:40:21Z</time>
    </trkpt>
    <trkpt lat="38.652760992" lon="34.858053988">
      <ele>1170.687</ele>
      <time>2021-10-12T13:40:22Z</time>
    </trkpt>
    <trkpt lat="38.652761998" lon="34.858087013">
      <ele>1171.049</ele>
      <time>2021-10-12T13:40:23Z</time>
    </trkpt>
    <trkpt lat="38.652766021" lon="34.858120037">
      <ele>1171.475</ele>
      <time>2021-10-12T13:40:24Z</time>
    </trkpt>
    <trkpt lat="38.652770966" lon="34.858153984">
      <ele>1171.932</ele>
      <time>2021-10-12T13:40:25Z</time>
    </trkpt>
    <trkpt lat="38.652773984" lon="34.858188014">
      <ele>1172.356</ele>
      <time>2021-10-12T13:40:26Z</time>
    </trkpt>
    <trkpt lat="38.652770966" lon="34.858218022">
      <ele>1172.618</ele>
      <time>2021-10-12T13:40:26Z</time>
    </trkpt>
    <trkpt lat="38.652760992" lon="34.858248029">
      <ele>1172.735</ele>
      <time>2021-10-12T13:40:27Z</time>
    </trkpt>
    <trkpt lat="38.652755963" lon="34.858278958">
      <ele>1172.957</ele>
      <time>2021-10-12T13:40:28Z</time>
    </trkpt>
    <trkpt lat="38.652749006" lon="34.858307038">
      <ele>1173.104</ele>
      <time>2021-10-12T13:40:29Z</time>
    </trkpt>
    <trkpt lat="38.652740959" lon="34.858335033">
      <ele>1173.205</ele>
      <time>2021-10-12T13:40:30Z</time>
    </trkpt>
    <trkpt lat="38.652729979" lon="34.85836504">
      <ele>1172.968</ele>
      <time>2021-10-12T13:40:31Z</time>
    </trkpt>
    <trkpt lat="38.65273199" lon="34.85839203">
      <ele>1173.011</ele>
      <time>2021-10-12T13:40:32Z</time>
    </trkpt>
    <trkpt lat="38.652742971" lon="34.858416002">
      <ele>1173.248</ele>
      <time>2021-10-12T13:40:33Z</time>
    </trkpt>
    <trkpt lat="38.652761998" lon="34.858439974">
      <ele>1173.659</ele>
      <time>2021-10-12T13:40:34Z</time>
    </trkpt>
    <trkpt lat="38.652778007" lon="34.858457996">
      <ele>1174.001</ele>
      <time>2021-10-12T13:40:34Z</time>
    </trkpt>
    <trkpt lat="38.652798962" lon="34.858479034">
      <ele>1174.113</ele>
      <time>2021-10-12T13:40:35Z</time>
    </trkpt>
    <trkpt lat="38.652818995" lon="34.858503006">
      <ele>1174.206</ele>
      <time>2021-10-12T13:40:36Z</time>
    </trkpt>
    <trkpt lat="38.652841039" lon="34.858523961">
      <ele>1174.299</ele>
      <time>2021-10-12T13:40:37Z</time>
    </trkpt>
    <trkpt lat="38.652861994" lon="34.858540976">
      <ele>1174.38</ele>
      <time>2021-10-12T13:40:38Z</time>
    </trkpt>
    <trkpt lat="38.652883032" lon="34.858561009">
      <ele>1174.447</ele>
      <time>2021-10-12T13:40:39Z</time>
    </trkpt>
    <trkpt lat="38.652903987" lon="34.85858297">
      <ele>1174.5</ele>
      <time>2021-10-12T13:40:40Z</time>
    </trkpt>
    <trkpt lat="38.652926032" lon="34.858604008">
      <ele>1174.547</ele>
      <time>2021-10-12T13:40:41Z</time>
    </trkpt>
    <trkpt lat="38.652943969" lon="34.858624041">
      <ele>1174.533</ele>
      <time>2021-10-12T13:40:42Z</time>
    </trkpt>
    <trkpt lat="38.652959978" lon="34.858650025">
      <ele>1174.468</ele>
      <time>2021-10-12T13:40:43Z</time>
    </trkpt>
    <trkpt lat="38.652971964" lon="34.858681038">
      <ele>1174.372</ele>
      <time>2021-10-12T13:40:44Z</time>
    </trkpt>
    <trkpt lat="38.652983028" lon="34.858709034">
      <ele>1174.294</ele>
      <time>2021-10-12T13:40:45Z</time>
    </trkpt>
    <trkpt lat="38.65299602" lon="34.858734012">
      <ele>1174.248</ele>
      <time>2021-10-12T13:40:46Z</time>
    </trkpt>
    <trkpt lat="38.653010018" lon="34.858757984">
      <ele>1174.221</ele>
      <time>2021-10-12T13:40:47Z</time>
    </trkpt>
    <trkpt lat="38.653022004" lon="34.858786985">
      <ele>1174.17</ele>
      <time>2021-10-12T13:40:48Z</time>
    </trkpt>
    <trkpt lat="38.653032985" lon="34.858815987">
      <ele>1174.121</ele>
      <time>2021-10-12T13:40:49Z</time>
    </trkpt>
    <trkpt lat="38.653043965" lon="34.858848006">
      <ele>1174.07</ele>
      <time>2021-10-12T13:40:50Z</time>
    </trkpt>
    <trkpt lat="38.653053017" lon="34.858877007">
      <ele>1174.025</ele>
      <time>2021-10-12T13:40:51Z</time>
    </trkpt>
    <trkpt lat="38.653063998" lon="34.858901985">
      <ele>1173.954</ele>
      <time>2021-10-12T13:40:51Z</time>
    </trkpt>
    <trkpt lat="38.653074978" lon="34.858926041">
      <ele>1173.837</ele>
      <time>2021-10-12T13:40:52Z</time>
    </trkpt>
    <trkpt lat="38.653080007" lon="34.858952025">
      <ele>1173.642</ele>
      <time>2021-10-12T13:40:53Z</time>
    </trkpt>
    <trkpt lat="38.653086964" lon="34.858981026">
      <ele>1173.457</ele>
      <time>2021-10-12T13:40:54Z</time>
    </trkpt>
    <trkpt lat="38.653098028" lon="34.859012039">
      <ele>1173.332</ele>
      <time>2021-10-12T13:40:55Z</time>
    </trkpt>
    <trkpt lat="38.653110014" lon="34.859040035">
      <ele>1173.276</ele>
      <time>2021-10-12T13:40:56Z</time>
    </trkpt>
    <trkpt lat="38.65311496" lon="34.859070964">
      <ele>1173.096</ele>
      <time>2021-10-12T13:40:57Z</time>
    </trkpt>
    <trkpt lat="38.653119989" lon="34.859102983">
      <ele>1172.92</ele>
      <time>2021-10-12T13:40:58Z</time>
    </trkpt>
    <trkpt lat="38.653129963" lon="34.859130979">
      <ele>1172.889</ele>
      <time>2021-10-12T13:40:59Z</time>
    </trkpt>
    <trkpt lat="38.653133987" lon="34.859161992">
      <ele>1172.73</ele>
      <time>2021-10-12T13:40:59Z</time>
    </trkpt>
    <trkpt lat="38.653135998" lon="34.859196022">
      <ele>1172.662</ele>
      <time>2021-10-12T13:41:00Z</time>
    </trkpt>
    <trkpt lat="38.653135998" lon="34.859230975">
      <ele>1172.573</ele>
      <time>2021-10-12T13:41:01Z</time>
    </trkpt>
    <trkpt lat="38.653132981" lon="34.859263999">
      <ele>1172.42</ele>
      <time>2021-10-12T13:41:02Z</time>
    </trkpt>
    <trkpt lat="38.653129041" lon="34.859297024">
      <ele>1172.242</ele>
      <time>2021-10-12T13:41:03Z</time>
    </trkpt>
    <trkpt lat="38.653124012" lon="34.859331977">
      <ele>1172.03</ele>
      <time>2021-10-12T13:41:04Z</time>
    </trkpt>
    <trkpt lat="38.653119989" lon="34.859361984">
      <ele>1171.852</ele>
      <time>2021-10-12T13:41:05Z</time>
    </trkpt>
    <trkpt lat="38.653118983" lon="34.859389979">
      <ele>1171.75</ele>
      <time>2021-10-12T13:41:06Z</time>
    </trkpt>
    <trkpt lat="38.653117977" lon="34.859419987">
      <ele>1171.641</ele>
      <time>2021-10-12T13:41:07Z</time>
    </trkpt>
    <trkpt lat="38.653119989" lon="34.859448988">
      <ele>1171.628</ele>
      <time>2021-10-12T13:41:08Z</time>
    </trkpt>
    <trkpt lat="38.653123006" lon="34.859480001">
      <ele>1171.731</ele>
      <time>2021-10-12T13:41:09Z</time>
    </trkpt>
    <trkpt lat="38.653123006" lon="34.859509002">
      <ele>1171.756</ele>
      <time>2021-10-12T13:41:10Z</time>
    </trkpt>
    <trkpt lat="38.653122" lon="34.85953398">
      <ele>1171.752</ele>
      <time>2021-10-12T13:41:10Z</time>
    </trkpt>
    <trkpt lat="38.653123006" lon="34.859558037">
      <ele>1171.799</ele>
      <time>2021-10-12T13:41:11Z</time>
    </trkpt>
    <trkpt lat="38.65312703" lon="34.85958402">
      <ele>1171.93</ele>
      <time>2021-10-12T13:41:12Z</time>
    </trkpt>
    <trkpt lat="38.653135998" lon="34.859606987">
      <ele>1172.197</ele>
      <time>2021-10-12T13:41:13Z</time>
    </trkpt>
    <trkpt lat="38.653151002" lon="34.859628025">
      <ele>1172.632</ele>
      <time>2021-10-12T13:41:13Z</time>
    </trkpt>
    <trkpt lat="38.653170029" lon="34.859644035">
      <ele>1173.181</ele>
      <time>2021-10-12T13:41:14Z</time>
    </trkpt>
    <trkpt lat="38.653188972" lon="34.859661972">
      <ele>1173.738</ele>
      <time>2021-10-12T13:41:15Z</time>
    </trkpt>
    <trkpt lat="38.653207999" lon="34.85968804">
      <ele>1174.323</ele>
      <time>2021-10-12T13:41:16Z</time>
    </trkpt>
    <trkpt lat="38.653223002" lon="34.859717963">
      <ele>1174.813</ele>
      <time>2021-10-12T13:41:17Z</time>
    </trkpt>
    <trkpt lat="38.653231971" lon="34.859741013">
      <ele>1175.13</ele>
      <time>2021-10-12T13:41:18Z</time>
    </trkpt>
    <trkpt lat="38.653244041" lon="34.85976004">
      <ele>1175.516</ele>
      <time>2021-10-12T13:41:19Z</time>
    </trkpt>
    <trkpt lat="38.653264996" lon="34.859775966">
      <ele>1176.127</ele>
      <time>2021-10-12T13:41:20Z</time>
    </trkpt>
    <trkpt lat="38.653285028" lon="34.859789964">
      <ele>1176.694</ele>
      <time>2021-10-12T13:41:20Z</time>
    </trkpt>
    <trkpt lat="38.653302966" lon="34.859809997">
      <ele>1177.194</ele>
      <time>2021-10-12T13:41:21Z</time>
    </trkpt>
    <trkpt lat="38.653318975" lon="34.859834975">
      <ele>1177.628</ele>
      <time>2021-10-12T13:41:22Z</time>
    </trkpt>
    <trkpt lat="38.653329033" lon="34.859866994">
      <ele>1177.892</ele>
      <time>2021-10-12T13:41:23Z</time>
    </trkpt>
    <trkpt lat="38.653339008" lon="34.859894989">
      <ele>1177.992</ele>
      <time>2021-10-12T13:41:24Z</time>
    </trkpt>
    <trkpt lat="38.653344959" lon="34.859921979">
      <ele>1177.988</ele>
      <time>2021-10-12T13:41:25Z</time>
    </trkpt>
    <trkpt lat="38.653349988" lon="34.859949974">
      <ele>1177.989</ele>
      <time>2021-10-12T13:41:26Z</time>
    </trkpt>
    <trkpt lat="38.653357029" lon="34.85997797">
      <ele>1177.993</ele>
      <time>2021-10-12T13:41:27Z</time>
    </trkpt>
    <trkpt lat="38.65336298" lon="34.860004038">
      <ele>1178.0</ele>
      <time>2021-10-12T13:41:27Z</time>
    </trkpt>
    <trkpt lat="38.653372033" lon="34.860030022">
      <ele>1178.0</ele>
      <time>2021-10-12T13:41:28Z</time>
    </trkpt>
    <trkpt lat="38.653379995" lon="34.860052988">
      <ele>1178.0</ele>
      <time>2021-10-12T13:41:29Z</time>
    </trkpt>
    <trkpt lat="38.653387036" lon="34.860076038">
      <ele>1178.0</ele>
      <time>2021-10-12T13:41:30Z</time>
    </trkpt>
    <trkpt lat="38.653396005" lon="34.860096993">
      <ele>1178.0</ele>
      <time>2021-10-12T13:41:30Z</time>
    </trkpt>
    <trkpt lat="38.653401034" lon="34.860120965">
      <ele>1178.0</ele>
      <time>2021-10-12T13:41:31Z</time>
    </trkpt>
    <trkpt lat="38.653425006" lon="34.860134963">
      <ele>1178.0</ele>
      <time>2021-10-12T13:41:32Z</time>
    </trkpt>
    <trkpt lat="38.653441016" lon="34.860154996">
      <ele>1178.0</ele>
      <time>2021-10-12T13:41:33Z</time>
    </trkpt>
    <trkpt lat="38.653446967" lon="34.860177962">
      <ele>1178.0</ele>
      <time>2021-10-12T13:41:34Z</time>
    </trkpt>
    <trkpt lat="38.653458031" lon="34.860216016">
      <ele>1178.0</ele>
      <time>2021-10-12T13:41:35Z</time>
    </trkpt>
    <trkpt lat="38.653468005" lon="34.860249963">
      <ele>1178.0</ele>
      <time>2021-10-12T13:41:36Z</time>
    </trkpt>
    <trkpt lat="38.653475968" lon="34.860281982">
      <ele>1178.008</ele>
      <time>2021-10-12T13:41:37Z</time>
    </trkpt>
    <trkpt lat="38.653478986" lon="34.860318024">
      <ele>1178.076</ele>
      <time>2021-10-12T13:41:38Z</time>
    </trkpt>
    <trkpt lat="38.653480997" lon="34.860357">
      <ele>1178.152</ele>
      <time>2021-10-12T13:41:39Z</time>
    </trkpt>
    <trkpt lat="38.653487032" lon="34.860401005">
      <ele>1178.245</ele>
      <time>2021-10-12T13:41:40Z</time>
    </trkpt>
    <trkpt lat="38.653521985" lon="34.860519022">
      <ele>1178.59</ele>
      <time>2021-10-12T13:41:44Z</time>
    </trkpt>
    <trkpt lat="38.653584011" lon="34.860613989">
      <ele>1179.662</ele>
      <time>2021-10-12T13:41:47Z</time>
    </trkpt>
    <trkpt lat="38.653604966" lon="34.860662017">
      <ele>1180.477</ele>
      <time>2021-10-12T13:41:49Z</time>
    </trkpt>
    <trkpt lat="38.653605971" lon="34.860685989">
      <ele>1180.825</ele>
      <time>2021-10-12T13:41:50Z</time>
    </trkpt>
    <trkpt lat="38.653608989" lon="34.860709962">
      <ele>1181.199</ele>
      <time>2021-10-12T13:41:50Z</time>
    </trkpt>
    <trkpt lat="38.653612006" lon="34.860739969">
      <ele>1181.642</ele>
      <time>2021-10-12T13:41:51Z</time>
    </trkpt>
    <trkpt lat="38.653614018" lon="34.860767964">
      <ele>1182.014</ele>
      <time>2021-10-12T13:41:52Z</time>
    </trkpt>
    <trkpt lat="38.653620975" lon="34.86079202">
      <ele>1182.258</ele>
      <time>2021-10-12T13:41:53Z</time>
    </trkpt>
    <trkpt lat="38.653624998" lon="34.860814987">
      <ele>1182.533</ele>
      <time>2021-10-12T13:41:54Z</time>
    </trkpt>
    <trkpt lat="38.653629022" lon="34.860839965">
      <ele>1182.794</ele>
      <time>2021-10-12T13:41:54Z</time>
    </trkpt>
    <trkpt lat="38.653636985" lon="34.860863015">
      <ele>1182.871</ele>
      <time>2021-10-12T13:41:55Z</time>
    </trkpt>
    <trkpt lat="38.653636985" lon="34.860894028">
      <ele>1183.125</ele>
      <time>2021-10-12T13:41:56Z</time>
    </trkpt>
    <trkpt lat="38.653648971" lon="34.860923029">
      <ele>1183.233</ele>
      <time>2021-10-12T13:41:57Z</time>
    </trkpt>
    <trkpt lat="38.653660035" lon="34.860953037">
      <ele>1183.385</ele>
      <time>2021-10-12T13:41:58Z</time>
    </trkpt>
    <trkpt lat="38.653667998" lon="34.860982038">
      <ele>1183.58</ele>
      <time>2021-10-12T13:41:59Z</time>
    </trkpt>
    <trkpt lat="38.653674033" lon="34.861012967">
      <ele>1183.827</ele>
      <time>2021-10-12T13:42:00Z</time>
    </trkpt>
    <trkpt lat="38.653673027" lon="34.861042975">
      <ele>1184.122</ele>
      <time>2021-10-12T13:42:01Z</time>
    </trkpt>
    <trkpt lat="38.653671015" lon="34.861074993">
      <ele>1184.44</ele>
      <time>2021-10-12T13:42:01Z</time>
    </trkpt>
    <trkpt lat="38.653675038" lon="34.861098966">
      <ele>1184.652</ele>
      <time>2021-10-12T13:42:02Z</time>
    </trkpt>
    <trkpt lat="38.653676966" lon="34.861126039">
      <ele>1184.842</ele>
      <time>2021-10-12T13:42:03Z</time>
    </trkpt>
    <trkpt lat="38.653690964" lon="34.861157974">
      <ele>1184.978</ele>
      <time>2021-10-12T13:42:04Z</time>
    </trkpt>
    <trkpt lat="38.653700016" lon="34.861179013">
      <ele>1185.081</ele>
      <time>2021-10-12T13:42:05Z</time>
    </trkpt>
    <trkpt lat="38.653704962" lon="34.861201979">
      <ele>1185.21</ele>
      <time>2021-10-12T13:42:05Z</time>
    </trkpt>
    <trkpt lat="38.653710997" lon="34.861227963">
      <ele>1185.364</ele>
      <time>2021-10-12T13:42:06Z</time>
    </trkpt>
    <trkpt lat="38.653722983" lon="34.861256965">
      <ele>1185.545</ele>
      <time>2021-10-12T13:42:07Z</time>
    </trkpt>
    <trkpt lat="38.653741004" lon="34.861272974">
      <ele>1185.66</ele>
      <time>2021-10-12T13:42:08Z</time>
    </trkpt>
    <trkpt lat="38.653759025" lon="34.861296024">
      <ele>1185.842</ele>
      <time>2021-10-12T13:42:09Z</time>
    </trkpt>
    <trkpt lat="38.65377998" lon="34.861316979">
      <ele>1186.034</ele>
      <time>2021-10-12T13:42:10Z</time>
    </trkpt>
    <trkpt lat="38.653800013" lon="34.861333994">
      <ele>1186.214</ele>
      <time>2021-10-12T13:42:11Z</time>
    </trkpt>
    <trkpt lat="38.653811999" lon="34.861351009">
      <ele>1186.39</ele>
      <time>2021-10-12T13:42:11Z</time>
    </trkpt>
    <trkpt lat="38.653823985" lon="34.861377999">
      <ele>1186.667</ele>
      <time>2021-10-12T13:42:12Z</time>
    </trkpt>
    <trkpt lat="38.653831026" lon="34.861402977">
      <ele>1186.883</ele>
      <time>2021-10-12T13:42:13Z</time>
    </trkpt>
    <trkpt lat="38.653835971" lon="34.861427033">
      <ele>1187.058</ele>
      <time>2021-10-12T13:42:14Z</time>
    </trkpt>
    <trkpt lat="38.653843012" lon="34.861453017">
      <ele>1187.258</ele>
      <time>2021-10-12T13:42:15Z</time>
    </trkpt>
    <trkpt lat="38.653848963" lon="34.861481013">
      <ele>1187.472</ele>
      <time>2021-10-12T13:42:16Z</time>
    </trkpt>
    <trkpt lat="38.653858015" lon="34.861514037">
      <ele>1187.74</ele>
      <time>2021-10-12T13:42:17Z</time>
    </trkpt>
    <trkpt lat="38.653862961" lon="34.861544967">
      <ele>1187.978</ele>
      <time>2021-10-12T13:42:17Z</time>
    </trkpt>
    <trkpt lat="38.653863966" lon="34.861573968">
      <ele>1188.183</ele>
      <time>2021-10-12T13:42:18Z</time>
    </trkpt>
    <trkpt lat="38.653864972" lon="34.861603975">
      <ele>1188.396</ele>
      <time>2021-10-12T13:42:19Z</time>
    </trkpt>
    <trkpt lat="38.653866984" lon="34.861639012">
      <ele>1188.651</ele>
      <time>2021-10-12T13:42:20Z</time>
    </trkpt>
    <trkpt lat="38.65386799" lon="34.861672958">
      <ele>1188.961</ele>
      <time>2021-10-12T13:42:21Z</time>
    </trkpt>
    <trkpt lat="38.653872013" lon="34.861702966">
      <ele>1189.524</ele>
      <time>2021-10-12T13:42:22Z</time>
    </trkpt>
    <trkpt lat="38.653876958" lon="34.861732973">
      <ele>1190.097</ele>
      <time>2021-10-12T13:42:23Z</time>
    </trkpt>
    <trkpt lat="38.653881988" lon="34.861765997">
      <ele>1190.729</ele>
      <time>2021-10-12T13:42:24Z</time>
    </trkpt>
    <trkpt lat="38.653883999" lon="34.861796005">
      <ele>1191.285</ele>
      <time>2021-10-12T13:42:25Z</time>
    </trkpt>
    <trkpt lat="38.653879976" lon="34.861826012">
      <ele>1191.786</ele>
      <time>2021-10-12T13:42:26Z</time>
    </trkpt>
    <trkpt lat="38.653879976" lon="34.861856019">
      <ele>1192.322</ele>
      <time>2021-10-12T13:42:27Z</time>
    </trkpt>
    <trkpt lat="38.653881988" lon="34.861878986">
      <ele>1192.753</ele>
      <time>2021-10-12T13:42:27Z</time>
    </trkpt>
    <trkpt lat="38.653885005" lon="34.861907987">
      <ele>1193.304</ele>
      <time>2021-10-12T13:42:28Z</time>
    </trkpt>
    <trkpt lat="38.653886011" lon="34.861935982">
      <ele>1193.817</ele>
      <time>2021-10-12T13:42:29Z</time>
    </trkpt>
    <trkpt lat="38.653886011" lon="34.861968001">
      <ele>1194.391</ele>
      <time>2021-10-12T13:42:30Z</time>
    </trkpt>
    <trkpt lat="38.653877964" lon="34.862002032">
      <ele>1194.902</ele>
      <time>2021-10-12T13:42:31Z</time>
    </trkpt>
    <trkpt lat="38.65387897" lon="34.862030027">
      <ele>1195.411</ele>
      <time>2021-10-12T13:42:32Z</time>
    </trkpt>
    <trkpt lat="38.653874025" lon="34.862060035">
      <ele>1195.876</ele>
      <time>2021-10-12T13:42:33Z</time>
    </trkpt>
    <trkpt lat="38.65386799" lon="34.862084007">
      <ele>1196.211</ele>
      <time>2021-10-12T13:42:33Z</time>
    </trkpt>
    <trkpt lat="38.653863966" lon="34.862117032">
      <ele>1196.726</ele>
      <time>2021-10-12T13:42:34Z</time>
    </trkpt>
    <trkpt lat="38.653860027" lon="34.862147961">
      <ele>1197.199</ele>
      <time>2021-10-12T13:42:35Z</time>
    </trkpt>
    <trkpt lat="38.653865978" lon="34.86217604">
      <ele>1197.784</ele>
      <time>2021-10-12T13:42:36Z</time>
    </trkpt>
    <trkpt lat="38.653879976" lon="34.862199007">
      <ele>1198.427</ele>
      <time>2021-10-12T13:42:37Z</time>
    </trkpt>
    <trkpt lat="38.653897997" lon="34.862216022">
      <ele>1198.889</ele>
      <time>2021-10-12T13:42:38Z</time>
    </trkpt>
    <trkpt lat="38.653920963" lon="34.862211999">
      <ele>1198.82</ele>
      <time>2021-10-12T13:42:39Z</time>
    </trkpt>
    <trkpt lat="38.653971003" lon="34.862237982">
      <ele>1199.3</ele>
      <time>2021-10-12T13:42:41Z</time>
    </trkpt>
    <trkpt lat="38.653991958" lon="34.862292968">
      <ele>1200.368</ele>
      <time>2021-10-12T13:42:42Z</time>
    </trkpt>
    <trkpt lat="38.653995981" lon="34.862317024">
      <ele>1200.838</ele>
      <time>2021-10-12T13:42:43Z</time>
    </trkpt>
    <trkpt lat="38.654005034" lon="34.86233999">
      <ele>1201.297</ele>
      <time>2021-10-12T13:42:44Z</time>
    </trkpt>
    <trkpt lat="38.654026994" lon="34.862348037">
      <ele>1201.49</ele>
      <time>2021-10-12T13:42:45Z</time>
    </trkpt>
    <trkpt lat="38.654072005" lon="34.862409979">
      <ele>1202.825</ele>
      <time>2021-10-12T13:42:47Z</time>
    </trkpt>
    <trkpt lat="38.654089021" lon="34.862439986">
      <ele>1203.485</ele>
      <time>2021-10-12T13:42:48Z</time>
    </trkpt>
    <trkpt lat="38.654102013" lon="34.862458007">
      <ele>1203.895</ele>
      <time>2021-10-12T13:42:49Z</time>
    </trkpt>
    <trkpt lat="38.654113999" lon="34.862476029">
      <ele>1204.309</ele>
      <time>2021-10-12T13:42:50Z</time>
    </trkpt>
    <trkpt lat="38.654131014" lon="34.862502012">
      <ele>1204.908</ele>
      <time>2021-10-12T13:42:50Z</time>
    </trkpt>
    <trkpt lat="38.654138977" lon="34.86252699">
      <ele>1205.386</ele>
      <time>2021-10-12T13:42:51Z</time>
    </trkpt>
    <trkpt lat="38.654148029" lon="34.862548029">
      <ele>1205.797</ele>
      <time>2021-10-12T13:42:52Z</time>
    </trkpt>
    <trkpt lat="38.654161021" lon="34.862565966">
      <ele>1206.167</ele>
      <time>2021-10-12T13:42:53Z</time>
    </trkpt>
    <trkpt lat="38.654167978" lon="34.862597985">
      <ele>1206.734</ele>
      <time>2021-10-12T13:42:54Z</time>
    </trkpt>
    <trkpt lat="38.654170996" lon="34.862633022">
      <ele>1207.293</ele>
      <time>2021-10-12T13:42:55Z</time>
    </trkpt>
    <trkpt lat="38.654178036" lon="34.862666968">
      <ele>1207.735</ele>
      <time>2021-10-12T13:42:56Z</time>
    </trkpt>
    <trkpt lat="38.654188011" lon="34.862687001">
      <ele>1207.853</ele>
      <time>2021-10-12T13:42:56Z</time>
    </trkpt>
    <trkpt lat="38.654196979" lon="34.86270804">
      <ele>1208.008</ele>
      <time>2021-10-12T13:42:57Z</time>
    </trkpt>
    <trkpt lat="38.654205026" lon="34.862737963">
      <ele>1208.336</ele>
      <time>2021-10-12T13:42:58Z</time>
    </trkpt>
    <trkpt lat="38.654199997" lon="34.862761013">
      <ele>1208.866</ele>
      <time>2021-10-12T13:42:59Z</time>
    </trkpt>
    <trkpt lat="38.65418097" lon="34.862780962">
      <ele>1209.72</ele>
      <time>2021-10-12T13:43:00Z</time>
    </trkpt>
    <trkpt lat="38.654164039" lon="34.862794038">
      <ele>1210.399</ele>
      <time>2021-10-12T13:43:00Z</time>
    </trkpt>
    <trkpt lat="38.654144006" lon="34.862806024">
      <ele>1210.614</ele>
      <time>2021-10-12T13:43:01Z</time>
    </trkpt>
    <trkpt lat="38.654124979" lon="34.862811975">
      <ele>1210.675</ele>
      <time>2021-10-12T13:43:02Z</time>
    </trkpt>
    <trkpt lat="38.654106036" lon="34.862825973">
      <ele>1210.921</ele>
      <time>2021-10-12T13:43:03Z</time>
    </trkpt>
    <trkpt lat="38.654084997" lon="34.862839971">
      <ele>1211.142</ele>
      <time>2021-10-12T13:43:04Z</time>
    </trkpt>
    <trkpt lat="38.654067982" lon="34.862849023">
      <ele>1211.258</ele>
      <time>2021-10-12T13:43:04Z</time>
    </trkpt>
    <trkpt lat="38.654049961" lon="34.862860003">
      <ele>1211.403</ele>
      <time>2021-10-12T13:43:05Z</time>
    </trkpt>
    <trkpt lat="38.654048033" lon="34.862884982">
      <ele>1211.945</ele>
      <time>2021-10-12T13:43:06Z</time>
    </trkpt>
    <trkpt lat="38.654052978" lon="34.862912977">
      <ele>1212.599</ele>
      <time>2021-10-12T13:43:07Z</time>
    </trkpt>
    <trkpt lat="38.654053984" lon="34.862938961">
      <ele>1213.185</ele>
      <time>2021-10-12T13:43:07Z</time>
    </trkpt>
    <trkpt lat="38.654057002" lon="34.862966035">
      <ele>1213.814</ele>
      <time>2021-10-12T13:43:08Z</time>
    </trkpt>
    <trkpt lat="38.654045016" lon="34.862993024">
      <ele>1214.308</ele>
      <time>2021-10-12T13:43:09Z</time>
    </trkpt>
    <trkpt lat="38.654035963" lon="34.863022026">
      <ele>1214.857</ele>
      <time>2021-10-12T13:43:10Z</time>
    </trkpt>
    <trkpt lat="38.654026994" lon="34.863050021">
      <ele>1215.372</ele>
      <time>2021-10-12T13:43:11Z</time>
    </trkpt>
    <trkpt lat="38.65402096" lon="34.863071982">
      <ele>1215.607</ele>
      <time>2021-10-12T13:43:11Z</time>
    </trkpt>
    <trkpt lat="38.654004028" lon="34.863091009">
      <ele>1215.648</ele>
      <time>2021-10-12T13:43:12Z</time>
    </trkpt>
    <trkpt lat="38.653985001" lon="34.863107018">
      <ele>1215.651</ele>
      <time>2021-10-12T13:43:13Z</time>
    </trkpt>
    <trkpt lat="38.653968992" lon="34.863119004">
      <ele>1215.647</ele>
      <time>2021-10-12T13:43:14Z</time>
    </trkpt>
    <trkpt lat="38.653944014" lon="34.863133002">
      <ele>1215.6</ele>
      <time>2021-10-12T13:43:15Z</time>
    </trkpt>
    <trkpt lat="38.653920041" lon="34.863149012">
      <ele>1215.607</ele>
      <time>2021-10-12T13:43:16Z</time>
    </trkpt>
    <trkpt lat="38.653903026" lon="34.863166027">
      <ele>1215.703</ele>
      <time>2021-10-12T13:43:17Z</time>
    </trkpt>
    <trkpt lat="38.653891962" lon="34.863195028">
      <ele>1216.03</ele>
      <time>2021-10-12T13:43:18Z</time>
    </trkpt>
    <trkpt lat="38.653913001" lon="34.863203997">
      <ele>1216.305</ele>
      <time>2021-10-12T13:43:18Z</time>
    </trkpt>
    <trkpt lat="38.653923981" lon="34.863227969">
      <ele>1216.705</ele>
      <time>2021-10-12T13:43:19Z</time>
    </trkpt>
    <trkpt lat="38.653921969" lon="34.863255965">
      <ele>1217.071</ele>
      <time>2021-10-12T13:43:20Z</time>
    </trkpt>
    <trkpt lat="38.653920963" lon="34.863281026">
      <ele>1217.406</ele>
      <time>2021-10-12T13:43:21Z</time>
    </trkpt>
    <trkpt lat="38.653934961" lon="34.863300975">
      <ele>1217.739</ele>
      <time>2021-10-12T13:43:22Z</time>
    </trkpt>
    <trkpt lat="38.653950971" lon="34.863317991">
      <ele>1218.027</ele>
      <time>2021-10-12T13:43:22Z</time>
    </trkpt>
    <trkpt lat="38.653967986" lon="34.863341963">
      <ele>1218.294</ele>
      <time>2021-10-12T13:43:23Z</time>
    </trkpt>
    <trkpt lat="38.653985001" lon="34.863358978">
      <ele>1218.378</ele>
      <time>2021-10-12T13:43:24Z</time>
    </trkpt>
    <trkpt lat="38.654000005" lon="34.863375993">
      <ele>1218.461</ele>
      <time>2021-10-12T13:43:25Z</time>
    </trkpt>
    <trkpt lat="38.654015008" lon="34.863398038">
      <ele>1218.56</ele>
      <time>2021-10-12T13:43:26Z</time>
    </trkpt>
    <trkpt lat="38.654032024" lon="34.863419998">
      <ele>1218.676</ele>
      <time>2021-10-12T13:43:27Z</time>
    </trkpt>
    <trkpt lat="38.65404401" lon="34.863442965">
      <ele>1218.779</ele>
      <time>2021-10-12T13:43:27Z</time>
    </trkpt>
    <trkpt lat="38.654059013" lon="34.863466015">
      <ele>1218.905</ele>
      <time>2021-10-12T13:43:28Z</time>
    </trkpt>
    <trkpt lat="38.654070999" lon="34.863495016">
      <ele>1219.037</ele>
      <time>2021-10-12T13:43:29Z</time>
    </trkpt>
    <trkpt lat="38.654078962" lon="34.863525024">
      <ele>1219.156</ele>
      <time>2021-10-12T13:43:30Z</time>
    </trkpt>
    <trkpt lat="38.654088015" lon="34.863546984">
      <ele>1219.268</ele>
      <time>2021-10-12T13:43:31Z</time>
    </trkpt>
    <trkpt lat="38.654104024" lon="34.863570035">
      <ele>1219.434</ele>
      <time>2021-10-12T13:43:32Z</time>
    </trkpt>
    <trkpt lat="38.654119028" lon="34.863588978">
      <ele>1219.591</ele>
      <time>2021-10-12T13:43:32Z</time>
    </trkpt>
    <trkpt lat="38.654143335" lon="34.86360264">
      <ele>1219.804</ele>
      <time>2021-10-12T13:43:33Z</time>
    </trkpt>
    <trkpt lat="38.654150963" lon="34.863596018">
      <ele>1219.836</ele>
      <time>2021-10-12T13:43:34Z</time>
    </trkpt>
    <trkpt lat="38.654181976" lon="34.863576991">
      <ele>1220.015</ele>
      <time>2021-10-12T13:43:35Z</time>
    </trkpt>
    <trkpt lat="38.654216006" lon="34.863559976">
      <ele>1220.218</ele>
      <time>2021-10-12T13:43:36Z</time>
    </trkpt>
    <trkpt lat="38.654234027" lon="34.863548996">
      <ele>1220.287</ele>
      <time>2021-10-12T13:43:37Z</time>
    </trkpt>
    <trkpt lat="38.654262023" lon="34.863538016">
      <ele>1220.405</ele>
      <time>2021-10-12T13:43:38Z</time>
    </trkpt>
    <trkpt lat="38.65427996" lon="34.863533992">
      <ele>1220.493</ele>
      <time>2021-10-12T13:43:39Z</time>
    </trkpt>
    <trkpt lat="38.654298987" lon="34.863530975">
      <ele>1220.591</ele>
      <time>2021-10-12T13:43:40Z</time>
    </trkpt>
    <trkpt lat="38.654326983" lon="34.863531981">
      <ele>1220.789</ele>
      <time>2021-10-12T13:43:41Z</time>
    </trkpt>
    <trkpt lat="38.654364031" lon="34.86353701">
      <ele>1221.107</ele>
      <time>2021-10-12T13:43:42Z</time>
    </trkpt>
    <trkpt lat="38.654385991" lon="34.863542961">
      <ele>1221.349</ele>
      <time>2021-10-12T13:43:43Z</time>
    </trkpt>
    <trkpt lat="38.654409042" lon="34.863552013">
      <ele>1221.662</ele>
      <time>2021-10-12T13:43:44Z</time>
    </trkpt>
    <trkpt lat="38.654428991" lon="34.863561988">
      <ele>1221.988</ele>
      <time>2021-10-12T13:43:45Z</time>
    </trkpt>
    <trkpt lat="38.654453969" lon="34.863576991">
      <ele>1222.335</ele>
      <time>2021-10-12T13:43:46Z</time>
    </trkpt>
    <trkpt lat="38.65448297" lon="34.863597024">
      <ele>1222.58</ele>
      <time>2021-10-12T13:43:47Z</time>
    </trkpt>
    <trkpt lat="38.654511971" lon="34.863617979">
      <ele>1222.917</ele>
      <time>2021-10-12T13:43:48Z</time>
    </trkpt>
    <trkpt lat="38.65454399" lon="34.863641029">
      <ele>1223.365</ele>
      <time>2021-10-12T13:43:49Z</time>
    </trkpt>
    <trkpt lat="38.654576009" lon="34.863659972">
      <ele>1223.748</ele>
      <time>2021-10-12T13:43:51Z</time>
    </trkpt>
    <trkpt lat="38.654614985" lon="34.863680005">
      <ele>1224.179</ele>
      <time>2021-10-12T13:43:52Z</time>
    </trkpt>
    <trkpt lat="38.654653039" lon="34.863696015">
      <ele>1224.542</ele>
      <time>2021-10-12T13:43:54Z</time>
    </trkpt>
    <trkpt lat="38.654690003" lon="34.863706995">
      <ele>1224.797</ele>
      <time>2021-10-12T13:43:55Z</time>
    </trkpt>
    <trkpt lat="38.654723028" lon="34.863709006">
      <ele>1224.833</ele>
      <time>2021-10-12T13:43:56Z</time>
    </trkpt>
    <trkpt lat="38.654756974" lon="34.863712024">
      <ele>1225.498</ele>
      <time>2021-10-12T13:43:58Z</time>
    </trkpt>
    <trkpt lat="38.654793017" lon="34.863727028">
      <ele>1226.571</ele>
      <time>2021-10-12T13:43:59Z</time>
    </trkpt>
    <trkpt lat="38.654825035" lon="34.863742031">
      <ele>1227.6</ele>
      <time>2021-10-12T13:44:00Z</time>
    </trkpt>
    <trkpt lat="38.654864011" lon="34.863749994">
      <ele>1228.552</ele>
      <time>2021-10-12T13:44:02Z</time>
    </trkpt>
    <trkpt lat="38.654898042" lon="34.863747982">
      <ele>1229.097</ele>
      <time>2021-10-12T13:44:03Z</time>
    </trkpt>
    <trkpt lat="38.654929977" lon="34.863730967">
      <ele>1229.089</ele>
      <time>2021-10-12T13:44:04Z</time>
    </trkpt>
    <trkpt lat="38.654951015" lon="34.863714036">
      <ele>1228.869</ele>
      <time>2021-10-12T13:44:05Z</time>
    </trkpt>
    <trkpt lat="38.654965013" lon="34.863641029">
      <ele>1226.546</ele>
      <time>2021-10-12T13:44:07Z</time>
    </trkpt>
    <trkpt lat="38.655017987" lon="34.863525024">
      <ele>1222.52</ele>
      <time>2021-10-12T13:44:11Z</time>
    </trkpt>
    <trkpt lat="38.655084958" lon="34.863491999">
      <ele>1221.947</ele>
      <time>2021-10-12T13:44:14Z</time>
    </trkpt>
    <trkpt lat="38.655105997" lon="34.863464003">
      <ele>1220.969</ele>
      <time>2021-10-12T13:44:15Z</time>
    </trkpt>
    <trkpt lat="38.65521404" lon="34.863449">
      <ele>1221.629</ele>
      <time>2021-10-12T13:44:19Z</time>
    </trkpt>
    <trkpt lat="38.655310012" lon="34.863410024">
      <ele>1221.485</ele>
      <time>2021-10-12T13:44:23Z</time>
    </trkpt>
    <trkpt lat="38.655369021" lon="34.863303993">
      <ele>1218.677</ele>
      <time>2021-10-12T13:44:27Z</time>
    </trkpt>
    <trkpt lat="38.65544999" lon="34.863240039">
      <ele>1218.937</ele>
      <time>2021-10-12T13:44:30Z</time>
    </trkpt>
    <trkpt lat="38.655536994" lon="34.863144988">
      <ele>1218.363</ele>
      <time>2021-10-12T13:44:34Z</time>
    </trkpt>
    <trkpt lat="38.655571025" lon="34.863119004">
      <ele>1218.39</ele>
      <time>2021-10-12T13:44:36Z</time>
    </trkpt>
    <trkpt lat="38.655600026" lon="34.86309696">
      <ele>1218.302</ele>
      <time>2021-10-12T13:44:37Z</time>
    </trkpt>
    <trkpt lat="38.655630033" lon="34.863070976">
      <ele>1218.108</ele>
      <time>2021-10-12T13:44:38Z</time>
    </trkpt>
    <trkpt lat="38.655660041" lon="34.863050021">
      <ele>1218.08</ele>
      <time>2021-10-12T13:44:40Z</time>
    </trkpt>
    <trkpt lat="38.65569097" lon="34.863030994">
      <ele>1218.17</ele>
      <time>2021-10-12T13:44:41Z</time>
    </trkpt>
    <trkpt lat="38.655716032" lon="34.863013979">
      <ele>1218.229</ele>
      <time>2021-10-12T13:44:42Z</time>
    </trkpt>
    <trkpt lat="38.655742016" lon="34.862996042">
      <ele>1218.316</ele>
      <time>2021-10-12T13:44:43Z</time>
    </trkpt>
    <trkpt lat="38.655760037" lon="34.86296704">
      <ele>1217.934</ele>
      <time>2021-10-12T13:44:44Z</time>
    </trkpt>
    <trkpt lat="38.65578996" lon="34.862874001">
      <ele>1216.182</ele>
      <time>2021-10-12T13:44:47Z</time>
    </trkpt>
    <trkpt lat="38.655806975" lon="34.862824967">
      <ele>1215.384</ele>
      <time>2021-10-12T13:44:49Z</time>
    </trkpt>
    <trkpt lat="38.655823991" lon="34.862781968">
      <ele>1214.804</ele>
      <time>2021-10-12T13:44:50Z</time>
    </trkpt>
    <trkpt lat="38.655837988" lon="34.862739975">
      <ele>1214.014</ele>
      <time>2021-10-12T13:44:51Z</time>
    </trkpt>
    <trkpt lat="38.65585098" lon="34.862694964">
      <ele>1213.015</ele>
      <time>2021-10-12T13:44:53Z</time>
    </trkpt>
    <trkpt lat="38.655861039" lon="34.862653976">
      <ele>1212.077</ele>
      <time>2021-10-12T13:44:54Z</time>
    </trkpt>
    <trkpt lat="38.655870007" lon="34.86260402">
      <ele>1210.871</ele>
      <time>2021-10-12T13:44:55Z</time>
    </trkpt>
    <trkpt lat="38.655922981" lon="34.862474017">
      <ele>1208.794</ele>
      <time>2021-10-12T13:45:00Z</time>
    </trkpt>
    <trkpt lat="38.655972015" lon="34.862367986">
      <ele>1207.882</ele>
      <time>2021-10-12T13:45:03Z</time>
    </trkpt>
    <trkpt lat="38.656040998" lon="34.862261033">
      <ele>1206.863</ele>
      <time>2021-10-12T13:45:07Z</time>
    </trkpt>
    <trkpt lat="38.656138983" lon="34.862198001">
      <ele>1206.185</ele>
      <time>2021-10-12T13:45:11Z</time>
    </trkpt>
    <trkpt lat="38.656250965" lon="34.862180986">
      <ele>1205.159</ele>
      <time>2021-10-12T13:45:16Z</time>
    </trkpt>
    <trkpt lat="38.656353978" lon="34.862151984">
      <ele>1203.661</ele>
      <time>2021-10-12T13:45:19Z</time>
    </trkpt>
    <trkpt lat="38.656426985" lon="34.862087024">
      <ele>1202.026</ele>
      <time>2021-10-12T13:45:23Z</time>
    </trkpt>
    <trkpt lat="38.656452969" lon="34.862071015">
      <ele>1202.046</ele>
      <time>2021-10-12T13:45:24Z</time>
    </trkpt>
    <trkpt lat="38.65648197" lon="34.862052994">
      <ele>1202.049</ele>
      <time>2021-10-12T13:45:25Z</time>
    </trkpt>
    <trkpt lat="38.656516001" lon="34.862038996">
      <ele>1202.305</ele>
      <time>2021-10-12T13:45:26Z</time>
    </trkpt>
    <trkpt lat="38.656547014" lon="34.86202701">
      <ele>1202.557</ele>
      <time>2021-10-12T13:45:28Z</time>
    </trkpt>
    <trkpt lat="38.656579033" lon="34.862032039">
      <ele>1203.476</ele>
      <time>2021-10-12T13:45:29Z</time>
    </trkpt>
    <trkpt lat="38.65660904" lon="34.862036984">
      <ele>1204.351</ele>
      <time>2021-10-12T13:45:30Z</time>
    </trkpt>
    <trkpt lat="38.656674" lon="34.862034973">
      <ele>1205.946</ele>
      <time>2021-10-12T13:45:32Z</time>
    </trkpt>
    <trkpt lat="38.656704007" lon="34.862040002">
      <ele>1207.62</ele>
      <time>2021-10-12T13:45:33Z</time>
    </trkpt>
    <trkpt lat="38.656733008" lon="34.862046959">
      <ele>1209.315</ele>
      <time>2021-10-12T13:45:34Z</time>
    </trkpt>
    <trkpt lat="38.656757986" lon="34.862044025">
      <ele>1210.428</ele>
      <time>2021-10-12T13:45:35Z</time>
    </trkpt>
    <trkpt lat="38.656773996" lon="34.862028016">
      <ele>1210.603</ele>
      <time>2021-10-12T13:45:36Z</time>
    </trkpt>
    <trkpt lat="38.656820012" lon="34.862009995">
      <ele>1212.194</ele>
      <time>2021-10-12T13:45:38Z</time>
    </trkpt>
    <trkpt lat="38.656847002" lon="34.862011001">
      <ele>1213.569</ele>
      <time>2021-10-12T13:45:39Z</time>
    </trkpt>
    <trkpt lat="38.656872986" lon="34.862004966">
      <ele>1214.633</ele>
      <time>2021-10-12T13:45:40Z</time>
    </trkpt>
    <trkpt lat="38.65692596" lon="34.861908993">
      <ele>1213.92</ele>
      <time>2021-10-12T13:45:43Z</time>
    </trkpt>
    <trkpt lat="38.656942975" lon="34.86178997">
      <ele>1210.921</ele>
      <time>2021-10-12T13:45:47Z</time>
    </trkpt>
    <trkpt lat="38.656962002" lon="34.861659966">
      <ele>1207.827</ele>
      <time>2021-10-12T13:45:51Z</time>
    </trkpt>
    <trkpt lat="38.656981029" lon="34.861514959">
      <ele>1206.245</ele>
      <time>2021-10-12T13:45:55Z</time>
    </trkpt>
    <trkpt lat="38.657003995" lon="34.861390991">
      <ele>1205.254</ele>
      <time>2021-10-12T13:45:59Z</time>
    </trkpt>
    <trkpt lat="38.656991003" lon="34.86127398">
      <ele>1203.342</ele>
      <time>2021-10-12T13:46:02Z</time>
    </trkpt>
    <trkpt lat="38.656985974" lon="34.861150011">
      <ele>1201.791</ele>
      <time>2021-10-12T13:46:06Z</time>
    </trkpt>
    <trkpt lat="38.656968037" lon="34.861030988">
      <ele>1199.758</ele>
      <time>2021-10-12T13:46:09Z</time>
    </trkpt>
    <trkpt lat="38.656975999" lon="34.86088003">
      <ele>1199.059</ele>
      <time>2021-10-12T13:46:14Z</time>
    </trkpt>
    <trkpt lat="38.656979017" lon="34.860737035">
      <ele>1198.434</ele>
      <time>2021-10-12T13:46:18Z</time>
    </trkpt>
    <trkpt lat="38.656913973" lon="34.860631004">
      <ele>1195.005</ele>
      <time>2021-10-12T13:46:22Z</time>
    </trkpt>
    <trkpt lat="38.656940963" lon="34.860480968">
      <ele>1195.06</ele>
      <time>2021-10-12T13:46:26Z</time>
    </trkpt>
    <trkpt lat="38.656964013" lon="34.860444004">
      <ele>1195.711</ele>
      <time>2021-10-12T13:46:27Z</time>
    </trkpt>
    <trkpt lat="38.656983962" lon="34.860323975">
      <ele>1195.348</ele>
      <time>2021-10-12T13:46:31Z</time>
    </trkpt>
    <trkpt lat="38.656985974" lon="34.860284999">
      <ele>1195.022</ele>
      <time>2021-10-12T13:46:32Z</time>
    </trkpt>
    <trkpt lat="38.656992009" lon="34.860248035">
      <ele>1194.476</ele>
      <time>2021-10-12T13:46:33Z</time>
    </trkpt>
    <trkpt lat="38.657081025" lon="34.860196989">
      <ele>1197.356</ele>
      <time>2021-10-12T13:46:37Z</time>
    </trkpt>
    <trkpt lat="38.657127041" lon="34.860163964">
      <ele>1198.677</ele>
      <time>2021-10-12T13:46:39Z</time>
    </trkpt>
    <trkpt lat="38.657139027" lon="34.860132029">
      <ele>1198.434</ele>
      <time>2021-10-12T13:46:40Z</time>
    </trkpt>
    <trkpt lat="38.657211028" lon="34.860053994">
      <ele>1199.837</ele>
      <time>2021-10-12T13:46:43Z</time>
    </trkpt>
    <trkpt lat="38.657239024" lon="34.860025998">
      <ele>1200.337</ele>
      <time>2021-10-12T13:46:45Z</time>
    </trkpt>
    <trkpt lat="38.657267019" lon="34.860002026">
      <ele>1200.829</ele>
      <time>2021-10-12T13:46:46Z</time>
    </trkpt>
    <trkpt lat="38.657294009" lon="34.859973025">
      <ele>1200.825</ele>
      <time>2021-10-12T13:46:47Z</time>
    </trkpt>
    <trkpt lat="38.657320999" lon="34.859936982">
      <ele>1200.577</ele>
      <time>2021-10-12T13:46:49Z</time>
    </trkpt>
    <trkpt lat="38.657340026" lon="34.859903036">
      <ele>1200.121</ele>
      <time>2021-10-12T13:46:50Z</time>
    </trkpt>
    <trkpt lat="38.657406997" lon="34.859806979">
      <ele>1199.598</ele>
      <time>2021-10-12T13:46:54Z</time>
    </trkpt>
    <trkpt lat="38.657431975" lon="34.85977496">
      <ele>1199.618</ele>
      <time>2021-10-12T13:46:55Z</time>
    </trkpt>
    <trkpt lat="38.657458965" lon="34.859748976">
      <ele>1199.975</ele>
      <time>2021-10-12T13:46:56Z</time>
    </trkpt>
    <trkpt lat="38.657484027" lon="34.859723998">
      <ele>1200.311</ele>
      <time>2021-10-12T13:46:57Z</time>
    </trkpt>
    <trkpt lat="38.657505987" lon="34.859697009">
      <ele>1200.57</ele>
      <time>2021-10-12T13:46:58Z</time>
    </trkpt>
    <trkpt lat="38.657525014" lon="34.859663984">
      <ele>1200.339</ele>
      <time>2021-10-12T13:47:00Z</time>
    </trkpt>
    <trkpt lat="38.657543035" lon="34.859634982">
      <ele>1200.108</ele>
      <time>2021-10-12T13:47:01Z</time>
    </trkpt>
    <trkpt lat="38.657559967" lon="34.859603969">
      <ele>1199.719</ele>
      <time>2021-10-12T13:47:02Z</time>
    </trkpt>
    <trkpt lat="38.657570025" lon="34.859571029">
      <ele>1199.025</ele>
      <time>2021-10-12T13:47:03Z</time>
    </trkpt>
    <trkpt lat="38.657576982" lon="34.859540015">
      <ele>1198.271</ele>
      <time>2021-10-12T13:47:04Z</time>
    </trkpt>
    <trkpt lat="38.657586034" lon="34.859511014">
      <ele>1197.597</ele>
      <time>2021-10-12T13:47:05Z</time>
    </trkpt>
    <trkpt lat="38.65759098" lon="34.859481007">
      <ele>1196.775</ele>
      <time>2021-10-12T13:47:06Z</time>
    </trkpt>
    <trkpt lat="38.657589974" lon="34.859445971">
      <ele>1195.667</ele>
      <time>2021-10-12T13:47:07Z</time>
    </trkpt>
    <trkpt lat="38.657599026" lon="34.859389979">
      <ele>1194.536</ele>
      <time>2021-10-12T13:47:08Z</time>
    </trkpt>
    <trkpt lat="38.657620987" lon="34.859368019">
      <ele>1194.407</ele>
      <time>2021-10-12T13:47:09Z</time>
    </trkpt>
    <trkpt lat="38.657648982" lon="34.859343963">
      <ele>1194.317</ele>
      <time>2021-10-12T13:47:10Z</time>
    </trkpt>
    <trkpt lat="38.657682007" lon="34.859327031">
      <ele>1194.463</ele>
      <time>2021-10-12T13:47:12Z</time>
    </trkpt>
    <trkpt lat="38.657791978" lon="34.859275986">
      <ele>1194.948</ele>
      <time>2021-10-12T13:47:16Z</time>
    </trkpt>
    <trkpt lat="38.657895997" lon="34.859250002">
      <ele>1195.632</ele>
      <time>2021-10-12T13:47:20Z</time>
    </trkpt>
    <trkpt lat="38.65798803" lon="34.859195016">
      <ele>1195.14</ele>
      <time>2021-10-12T13:47:24Z</time>
    </trkpt>
    <trkpt lat="38.658041004" lon="34.85907197">
      <ele>1192.492</ele>
      <time>2021-10-12T13:47:28Z</time>
    </trkpt>
    <trkpt lat="38.65813002" lon="34.859016985">
      <ele>1191.207</ele>
      <time>2021-10-12T13:47:32Z</time>
    </trkpt>
    <trkpt lat="38.65824502" lon="34.859042969">
      <ele>1191.957</ele>
      <time>2021-10-12T13:47:36Z</time>
    </trkpt>
    <trkpt lat="38.65833303" lon="34.859078005">
      <ele>1193.127</ele>
      <time>2021-10-12T13:47:39Z</time>
    </trkpt>
    <trkpt lat="38.658395978" lon="34.858984966">
      <ele>1189.601</ele>
      <time>2021-10-12T13:47:43Z</time>
    </trkpt>
    <trkpt lat="38.658490023" lon="34.858912965">
      <ele>1185.768</ele>
      <time>2021-10-12T13:47:47Z</time>
    </trkpt>
    <trkpt lat="38.658580966" lon="34.858968034">
      <ele>1187.268</ele>
      <time>2021-10-12T13:47:51Z</time>
    </trkpt>
    <trkpt lat="38.658669982" lon="34.859030982">
      <ele>1190.58</ele>
      <time>2021-10-12T13:47:54Z</time>
    </trkpt>
    <trkpt lat="38.658750029" lon="34.858957976">
      <ele>1187.734</ele>
      <time>2021-10-12T13:47:58Z</time>
    </trkpt>
    <trkpt lat="38.658854971" lon="34.858940961">
      <ele>1187.929</ele>
      <time>2021-10-12T13:48:02Z</time>
    </trkpt>
    <trkpt lat="38.658959996" lon="34.858968034">
      <ele>1190.26</ele>
      <time>2021-10-12T13:48:06Z</time>
    </trkpt>
    <trkpt lat="38.659047" lon="34.859004999">
      <ele>1192.961</ele>
      <time>2021-10-12T13:48:09Z</time>
    </trkpt>
    <trkpt lat="38.659126041" lon="34.859069036">
      <ele>1196.897</ele>
      <time>2021-10-12T13:48:13Z</time>
    </trkpt>
    <trkpt lat="38.65922302" lon="34.859040035">
      <ele>1195.429</ele>
      <time>2021-10-12T13:48:16Z</time>
    </trkpt>
    <trkpt lat="38.659259984" lon="34.859012039">
      <ele>1193.832</ele>
      <time>2021-10-12T13:48:18Z</time>
    </trkpt>
    <trkpt lat="38.65928404" lon="34.859017991">
      <ele>1193.834</ele>
      <time>2021-10-12T13:48:19Z</time>
    </trkpt>
    <trkpt lat="38.65931103" lon="34.859035006">
      <ele>1194.225</ele>
      <time>2021-10-12T13:48:20Z</time>
    </trkpt>
    <trkpt lat="38.65933802" lon="34.859047998">
      <ele>1194.416</ele>
      <time>2021-10-12T13:48:21Z</time>
    </trkpt>
    <trkpt lat="38.659440028" lon="34.859013967">
      <ele>1192.097</ele>
      <time>2021-10-12T13:48:25Z</time>
    </trkpt>
    <trkpt lat="38.659471963" lon="34.859014973">
      <ele>1192.022</ele>
      <time>2021-10-12T13:48:26Z</time>
    </trkpt>
    <trkpt lat="38.659577994" lon="34.859022014">
      <ele>1192.043</ele>
      <time>2021-10-12T13:48:30Z</time>
    </trkpt>
    <trkpt lat="38.659696011" lon="34.859024025">
      <ele>1191.889</ele>
      <time>2021-10-12T13:48:35Z</time>
    </trkpt>
    <trkpt lat="38.659787038" lon="34.859051015">
      <ele>1193.743</ele>
      <time>2021-10-12T13:48:38Z</time>
    </trkpt>
    <trkpt lat="38.659869013" lon="34.859101977">
      <ele>1197.073</ele>
      <time>2021-10-12T13:48:41Z</time>
    </trkpt>
    <trkpt lat="38.659923999" lon="34.859135002">
      <ele>1199.372</ele>
      <time>2021-10-12T13:48:44Z</time>
    </trkpt>
    <trkpt lat="38.66001796" lon="34.859117987">
      <ele>1199.687</ele>
      <time>2021-10-12T13:48:47Z</time>
    </trkpt>
    <trkpt lat="38.660124997" lon="34.859069036">
      <ele>1198.138</ele>
      <time>2021-10-12T13:48:51Z</time>
    </trkpt>
    <trkpt lat="38.660219964" lon="34.859078005">
      <ele>1199.368</ele>
      <time>2021-10-12T13:48:55Z</time>
    </trkpt>
    <trkpt lat="38.660290958" lon="34.859170038">
      <ele>1204.18</ele>
      <time>2021-10-12T13:48:59Z</time>
    </trkpt>
    <trkpt lat="38.660383997" lon="34.859108012">
      <ele>1202.423</ele>
      <time>2021-10-12T13:49:02Z</time>
    </trkpt>
    <trkpt lat="38.660423979" lon="34.858961999">
      <ele>1197.413</ele>
      <time>2021-10-12T13:49:07Z</time>
    </trkpt>
    <trkpt lat="38.660452981" lon="34.858839959">
      <ele>1194.098</ele>
      <time>2021-10-12T13:49:11Z</time>
    </trkpt>
    <trkpt lat="38.660461027" lon="34.858693024">
      <ele>1190.427</ele>
      <time>2021-10-12T13:49:15Z</time>
    </trkpt>
    <trkpt lat="38.660477037" lon="34.858580036">
      <ele>1188.557</ele>
      <time>2021-10-12T13:49:18Z</time>
    </trkpt>
    <trkpt lat="38.660493968" lon="34.858460007">
      <ele>1188.173</ele>
      <time>2021-10-12T13:49:22Z</time>
    </trkpt>
    <trkpt lat="38.660521964" lon="34.858327992">
      <ele>1188.821</ele>
      <time>2021-10-12T13:49:26Z</time>
    </trkpt>
    <trkpt lat="38.660523975" lon="34.858182985">
      <ele>1188.892</ele>
      <time>2021-10-12T13:49:30Z</time>
    </trkpt>
    <trkpt lat="38.660473013" lon="34.858054994">
      <ele>1185.358</ele>
      <time>2021-10-12T13:49:34Z</time>
    </trkpt>
    <trkpt lat="38.660461027" lon="34.857927002">
      <ele>1185.45</ele>
      <time>2021-10-12T13:49:38Z</time>
    </trkpt>
    <trkpt lat="38.660497991" lon="34.857812002">
      <ele>1189.148</ele>
      <time>2021-10-12T13:49:42Z</time>
    </trkpt>
    <trkpt lat="38.660453986" lon="34.857662972">
      <ele>1185.694</ele>
      <time>2021-10-12T13:49:46Z</time>
    </trkpt>
    <trkpt lat="38.660428002" lon="34.857545039">
      <ele>1183.445</ele>
      <time>2021-10-12T13:49:50Z</time>
    </trkpt>
    <trkpt lat="38.660421968" lon="34.857409">
      <ele>1182.403</ele>
      <time>2021-10-12T13:49:54Z</time>
    </trkpt>
    <trkpt lat="38.660383997" lon="34.857278997">
      <ele>1178.93</ele>
      <time>2021-10-12T13:49:58Z</time>
    </trkpt>
    <trkpt lat="38.660399001" lon="34.857165003">
      <ele>1179.702</ele>
      <time>2021-10-12T13:50:01Z</time>
    </trkpt>
    <trkpt lat="38.660432026" lon="34.857043969">
      <ele>1182.177</ele>
      <time>2021-10-12T13:50:05Z</time>
    </trkpt>
    <trkpt lat="38.660405036" lon="34.856907008">
      <ele>1180.068</ele>
      <time>2021-10-12T13:50:09Z</time>
    </trkpt>
    <trkpt lat="38.660379974" lon="34.856781028">
      <ele>1177.939</ele>
      <time>2021-10-12T13:50:13Z</time>
    </trkpt>
    <trkpt lat="38.660439989" lon="34.856669968">
      <ele>1183.013</ele>
      <time>2021-10-12T13:50:17Z</time>
    </trkpt>
    <trkpt lat="38.660520036" lon="34.856562009">
      <ele>1188.047</ele>
      <time>2021-10-12T13:50:21Z</time>
    </trkpt>
    <trkpt lat="38.660549037" lon="34.856438041">
      <ele>1188.322</ele>
      <time>2021-10-12T13:50:25Z</time>
    </trkpt>
    <trkpt lat="38.66049598" lon="34.856303008">
      <ele>1179.916</ele>
      <time>2021-10-12T13:50:29Z</time>
    </trkpt>
    <trkpt lat="38.660483994" lon="34.856181974">
      <ele>1174.967</ele>
      <time>2021-10-12T13:50:32Z</time>
    </trkpt>
    <trkpt lat="38.660480976" lon="34.856027998">
      <ele>1170.823</ele>
      <time>2021-10-12T13:50:37Z</time>
    </trkpt>
    <trkpt lat="38.660510983" lon="34.855914004">
      <ele>1169.988</ele>
      <time>2021-10-12T13:50:40Z</time>
    </trkpt>
    <trkpt lat="38.660562029" lon="34.855797999">
      <ele>1169.343</ele>
      <time>2021-10-12T13:50:44Z</time>
    </trkpt>
    <trkpt lat="38.660589019" lon="34.855675036">
      <ele>1167.094</ele>
      <time>2021-10-12T13:50:48Z</time>
    </trkpt>
    <trkpt lat="38.660687003" lon="34.855595995">
      <ele>1169.119</ele>
      <time>2021-10-12T13:50:52Z</time>
    </trkpt>
    <trkpt lat="38.660763027" lon="34.855530029">
      <ele>1170.159</ele>
      <time>2021-10-12T13:50:56Z</time>
    </trkpt>
    <trkpt lat="38.660835028" lon="34.855439002">
      <ele>1170.383</ele>
      <time>2021-10-12T13:50:59Z</time>
    </trkpt>
    <trkpt lat="38.660857994" lon="34.855317967">
      <ele>1168.345</ele>
      <time>2021-10-12T13:51:03Z</time>
    </trkpt>
    <trkpt lat="38.660909962" lon="34.855201039">
      <ele>1168.754</ele>
      <time>2021-10-12T13:51:07Z</time>
    </trkpt>
    <trkpt lat="38.660985986" lon="34.855104983">
      <ele>1171.026</ele>
      <time>2021-10-12T13:51:11Z</time>
    </trkpt>
    <trkpt lat="38.661066033" lon="34.855032982">
      <ele>1173.57</ele>
      <time>2021-10-12T13:51:15Z</time>
    </trkpt>
    <trkpt lat="38.661125042" lon="34.854912031">
      <ele>1173.021</ele>
      <time>2021-10-12T13:51:19Z</time>
    </trkpt>
    <trkpt lat="38.661179021" lon="34.854797032">
      <ele>1172.467</ele>
      <time>2021-10-12T13:51:23Z</time>
    </trkpt>
    <trkpt lat="38.661200982" lon="34.854764007">
      <ele>1172.628</ele>
      <time>2021-10-12T13:51:24Z</time>
    </trkpt>
    <trkpt lat="38.661280023" lon="34.854659988">
      <ele>1173.752</ele>
      <time>2021-10-12T13:51:28Z</time>
    </trkpt>
    <trkpt lat="38.661342971" lon="34.854549011">
      <ele>1173.429</ele>
      <time>2021-10-12T13:51:32Z</time>
    </trkpt>
    <trkpt lat="38.661390999" lon="34.854424037">
      <ele>1170.891</ele>
      <time>2021-10-12T13:51:36Z</time>
    </trkpt>
    <trkpt lat="38.661427042" lon="34.854376009">
      <ele>1169.193</ele>
      <time>2021-10-12T13:51:38Z</time>
    </trkpt>
    <trkpt lat="38.661444979" lon="34.854352959">
      <ele>1168.348</ele>
      <time>2021-10-12T13:51:39Z</time>
    </trkpt>
    <trkpt lat="38.661468029" lon="34.854335021">
      <ele>1167.925</ele>
      <time>2021-10-12T13:51:40Z</time>
    </trkpt>
    <trkpt lat="38.661495019" lon="34.854318006">
      <ele>1167.634</ele>
      <time>2021-10-12T13:51:41Z</time>
    </trkpt>
    <trkpt lat="38.661516979" lon="34.854295962">
      <ele>1166.858</ele>
      <time>2021-10-12T13:51:42Z</time>
    </trkpt>
    <trkpt lat="38.661533995" lon="34.854270983">
      <ele>1165.731</ele>
      <time>2021-10-12T13:51:43Z</time>
    </trkpt>
    <trkpt lat="38.661552016" lon="34.854243994">
      <ele>1164.468</ele>
      <time>2021-10-12T13:51:44Z</time>
    </trkpt>
    <trkpt lat="38.661574982" lon="34.854224967">
      <ele>1163.8</ele>
      <time>2021-10-12T13:51:45Z</time>
    </trkpt>
    <trkpt lat="38.66159996" lon="34.85420703">
      <ele>1163.215</ele>
      <time>2021-10-12T13:51:46Z</time>
    </trkpt>
    <trkpt lat="38.661630973" lon="34.854197977">
      <ele>1163.327</ele>
      <time>2021-10-12T13:51:47Z</time>
    </trkpt>
    <trkpt lat="38.661663998" lon="34.854200995">
      <ele>1164.287</ele>
      <time>2021-10-12T13:51:49Z</time>
    </trkpt>
    <trkpt lat="38.661698028" lon="34.854223039">
      <ele>1166.216</ele>
      <time>2021-10-12T13:51:50Z</time>
    </trkpt>
    <trkpt lat="38.661729041" lon="34.854237037">
      <ele>1167.484</ele>
      <time>2021-10-12T13:51:51Z</time>
    </trkpt>
    <trkpt lat="38.661814034" lon="34.854285987">
      <ele>1171.372</ele>
      <time>2021-10-12T13:51:55Z</time>
    </trkpt>
    <trkpt lat="38.661910007" lon="34.854319012">
      <ele>1174.003</ele>
      <time>2021-10-12T13:51:58Z</time>
    </trkpt>
    <trkpt lat="38.662028024" lon="34.854284981">
      <ele>1171.308</ele>
      <time>2021-10-12T13:52:03Z</time>
    </trkpt>
    <trkpt lat="38.662114022" lon="34.85423997">
      <ele>1166.974</ele>
      <time>2021-10-12T13:52:06Z</time>
    </trkpt>
    <trkpt lat="38.662214018" lon="34.854250029">
      <ele>1166.038</ele>
      <time>2021-10-12T13:52:10Z</time>
    </trkpt>
    <trkpt lat="38.662310997" lon="34.854246005">
      <ele>1164.519</ele>
      <time>2021-10-12T13:52:14Z</time>
    </trkpt>
    <trkpt lat="38.662416022" lon="34.854226978">
      <ele>1162.084</ele>
      <time>2021-10-12T13:52:17Z</time>
    </trkpt>
    <trkpt lat="38.662519036" lon="34.854215998">
      <ele>1160.869</ele>
      <time>2021-10-12T13:52:21Z</time>
    </trkpt>
    <trkpt lat="38.662618026" lon="34.854199989">
      <ele>1161.074</ele>
      <time>2021-10-12T13:52:25Z</time>
    </trkpt>
    <trkpt lat="38.662725985" lon="34.854181968">
      <ele>1161.267</ele>
      <time>2021-10-12T13:52:29Z</time>
    </trkpt>
    <trkpt lat="38.66282003" lon="34.854157995">
      <ele>1161.453</ele>
      <time>2021-10-12T13:52:33Z</time>
    </trkpt>
    <trkpt lat="38.662928995" lon="34.85416403">
      <ele>1163.632</ele>
      <time>2021-10-12T13:52:37Z</time>
    </trkpt>
    <trkpt lat="38.663008958" lon="34.854097981">
      <ele>1162.894</ele>
      <time>2021-10-12T13:52:40Z</time>
    </trkpt>
    <trkpt lat="38.663108032" lon="34.854122037">
      <ele>1164.237</ele>
      <time>2021-10-12T13:52:44Z</time>
    </trkpt>
    <trkpt lat="38.663199982" lon="34.854174005">
      <ele>1165.184</ele>
      <time>2021-10-12T13:52:48Z</time>
    </trkpt>
    <trkpt lat="38.663263014" lon="34.854269978">
      <ele>1167.576</ele>
      <time>2021-10-12T13:52:51Z</time>
    </trkpt>
    <trkpt lat="38.663339037" lon="34.85434399">
      <ele>1168.896</ele>
      <time>2021-10-12T13:52:55Z</time>
    </trkpt>
    <trkpt lat="38.663426964" lon="34.854379026">
      <ele>1166.567</ele>
      <time>2021-10-12T13:52:58Z</time>
    </trkpt>
    <trkpt lat="38.663527966" lon="34.854371985">
      <ele>1162.571</ele>
      <time>2021-10-12T13:53:02Z</time>
    </trkpt>
    <trkpt lat="38.663637014" lon="34.854358993">
      <ele>1158.344</ele>
      <time>2021-10-12T13:53:06Z</time>
    </trkpt>
    <trkpt lat="38.663707003" lon="34.854449015">
      <ele>1158.047</ele>
      <time>2021-10-12T13:53:10Z</time>
    </trkpt>
    <trkpt lat="38.663791995" lon="34.854517998">
      <ele>1157.695</ele>
      <time>2021-10-12T13:53:13Z</time>
    </trkpt>
    <trkpt lat="38.663880005" lon="34.854583042">
      <ele>1157.261</ele>
      <time>2021-10-12T13:53:17Z</time>
    </trkpt>
    <trkpt lat="38.663989976" lon="34.854602991">
      <ele>1157.447</ele>
      <time>2021-10-12T13:53:21Z</time>
    </trkpt>
    <trkpt lat="38.664089972" lon="34.854643978">
      <ele>1159.091</ele>
      <time>2021-10-12T13:53:25Z</time>
    </trkpt>
    <trkpt lat="38.664193992" lon="34.854611959">
      <ele>1157.836</ele>
      <time>2021-10-12T13:53:29Z</time>
    </trkpt>
    <trkpt lat="38.664251994" lon="34.854502995">
      <ele>1153.18</ele>
      <time>2021-10-12T13:53:33Z</time>
    </trkpt>
    <trkpt lat="38.664360037" lon="34.854535013">
      <ele>1156.349</ele>
      <time>2021-10-12T13:53:37Z</time>
    </trkpt>
    <trkpt lat="38.664418962" lon="34.854569966">
      <ele>1158.959</ele>
      <time>2021-10-12T13:53:39Z</time>
    </trkpt>
    <trkpt lat="38.664523987" lon="34.854611959">
      <ele>1165.911</ele>
      <time>2021-10-12T13:53:43Z</time>
    </trkpt>
    <trkpt lat="38.664573021" lon="34.854591005">
      <ele>1167.574</ele>
      <time>2021-10-12T13:53:45Z</time>
    </trkpt>
    <trkpt lat="38.664656002" lon="34.854498971">
      <ele>1167.322</ele>
      <time>2021-10-12T13:53:49Z</time>
    </trkpt>
    <trkpt lat="38.664703025" lon="34.854368968">
      <ele>1164.537</ele>
      <time>2021-10-12T13:53:54Z</time>
    </trkpt>
    <trkpt lat="38.664740995" lon="34.854242988">
      <ele>1162.61</ele>
      <time>2021-10-12T13:53:58Z</time>
    </trkpt>
    <trkpt lat="38.664792962" lon="34.854174005">
      <ele>1163.333</ele>
      <time>2021-10-12T13:54:00Z</time>
    </trkpt>
    <trkpt lat="38.664808972" lon="34.854141986">
      <ele>1163.469</ele>
      <time>2021-10-12T13:54:01Z</time>
    </trkpt>
    <trkpt lat="38.66483001" lon="34.854111979">
      <ele>1163.995</ele>
      <time>2021-10-12T13:54:03Z</time>
    </trkpt>
    <trkpt lat="38.664844008" lon="34.853975018">
      <ele>1161.658</ele>
      <time>2021-10-12T13:54:07Z</time>
    </trkpt>
    <trkpt lat="38.664840991" lon="34.853863958">
      <ele>1159.058</ele>
      <time>2021-10-12T13:54:10Z</time>
    </trkpt>
    <trkpt lat="38.664849037" lon="34.853832023">
      <ele>1158.8</ele>
      <time>2021-10-12T13:54:11Z</time>
    </trkpt>
    <trkpt lat="38.664860018" lon="34.853804028">
      <ele>1158.767</ele>
      <time>2021-10-12T13:54:12Z</time>
    </trkpt>
    <trkpt lat="38.66487301" lon="34.85377402">
      <ele>1158.8</ele>
      <time>2021-10-12T13:54:13Z</time>
    </trkpt>
    <trkpt lat="38.664884996" lon="34.853747031">
      <ele>1158.853</ele>
      <time>2021-10-12T13:54:14Z</time>
    </trkpt>
    <trkpt lat="38.664893964" lon="34.853718029">
      <ele>1158.727</ele>
      <time>2021-10-12T13:54:14Z</time>
    </trkpt>
    <trkpt lat="38.664905028" lon="34.853683999">
      <ele>1158.615</ele>
      <time>2021-10-12T13:54:16Z</time>
    </trkpt>
    <trkpt lat="38.664909974" lon="34.85365198">
      <ele>1158.246</ele>
      <time>2021-10-12T13:54:16Z</time>
    </trkpt>
    <trkpt lat="38.664917015" lon="34.853619961">
      <ele>1157.986</ele>
      <time>2021-10-12T13:54:17Z</time>
    </trkpt>
    <trkpt lat="38.664926989" lon="34.853592971">
      <ele>1158.107</ele>
      <time>2021-10-12T13:54:18Z</time>
    </trkpt>
    <trkpt lat="38.664936963" lon="34.853567993">
      <ele>1158.322</ele>
      <time>2021-10-12T13:54:19Z</time>
    </trkpt>
    <trkpt lat="38.664942998" lon="34.853544021">
      <ele>1158.353</ele>
      <time>2021-10-12T13:54:20Z</time>
    </trkpt>
    <trkpt lat="38.664927995" lon="34.853494987">
      <ele>1157.008</ele>
      <time>2021-10-12T13:54:21Z</time>
    </trkpt>
    <trkpt lat="38.664925983" lon="34.853443019">
      <ele>1156.293</ele>
      <time>2021-10-12T13:54:23Z</time>
    </trkpt>
    <trkpt lat="38.664925983" lon="34.853413012">
      <ele>1155.94</ele>
      <time>2021-10-12T13:54:24Z</time>
    </trkpt>
    <trkpt lat="38.664929001" lon="34.85338401">
      <ele>1155.76</ele>
      <time>2021-10-12T13:54:25Z</time>
    </trkpt>
    <trkpt lat="38.66493403" lon="34.853352997">
      <ele>1155.667</ele>
      <time>2021-10-12T13:54:26Z</time>
    </trkpt>
    <trkpt lat="38.664938975" lon="34.85332299">
      <ele>1155.543</ele>
      <time>2021-10-12T13:54:26Z</time>
    </trkpt>
    <trkpt lat="38.664941993" lon="34.853292983">
      <ele>1155.232</ele>
      <time>2021-10-12T13:54:27Z</time>
    </trkpt>
    <trkpt lat="38.664937969" lon="34.853259036">
      <ele>1154.492</ele>
      <time>2021-10-12T13:54:28Z</time>
    </trkpt>
    <trkpt lat="38.664936963" lon="34.853228023">
      <ele>1153.959</ele>
      <time>2021-10-12T13:54:29Z</time>
    </trkpt>
    <trkpt lat="38.664939981" lon="34.853198016">
      <ele>1153.639</ele>
      <time>2021-10-12T13:54:30Z</time>
    </trkpt>
    <trkpt lat="38.664946016" lon="34.853165997">
      <ele>1153.424</ele>
      <time>2021-10-12T13:54:31Z</time>
    </trkpt>
    <trkpt lat="38.664949033" lon="34.853132972">
      <ele>1153.038</ele>
      <time>2021-10-12T13:54:32Z</time>
    </trkpt>
    <trkpt lat="38.664939981" lon="34.853101037">
      <ele>1152.12</ele>
      <time>2021-10-12T13:54:33Z</time>
    </trkpt>
    <trkpt lat="38.664899999" lon="34.853000036">
      <ele>1149.224</ele>
      <time>2021-10-12T13:54:36Z</time>
    </trkpt>
    <trkpt lat="38.66491098" lon="34.852971034">
      <ele>1149.437</ele>
      <time>2021-10-12T13:54:37Z</time>
    </trkpt>
    <trkpt lat="38.664915003" lon="34.852933986">
      <ele>1149.283</ele>
      <time>2021-10-12T13:54:38Z</time>
    </trkpt>
    <trkpt lat="38.664921038" lon="34.852897022">
      <ele>1149.201</ele>
      <time>2021-10-12T13:54:39Z</time>
    </trkpt>
    <trkpt lat="38.664923972" lon="34.85286098">
      <ele>1148.998</ele>
      <time>2021-10-12T13:54:40Z</time>
    </trkpt>
    <trkpt lat="38.66491802" lon="34.852828039">
      <ele>1148.485</ele>
      <time>2021-10-12T13:54:41Z</time>
    </trkpt>
    <trkpt lat="38.664908968" lon="34.852797026">
      <ele>1147.885</ele>
      <time>2021-10-12T13:54:42Z</time>
    </trkpt>
    <trkpt lat="38.664855994" lon="34.852664005">
      <ele>1145.012</ele>
      <time>2021-10-12T13:54:47Z</time>
    </trkpt>
    <trkpt lat="38.66481903" lon="34.852545988">
      <ele>1143.069</ele>
      <time>2021-10-12T13:54:50Z</time>
    </trkpt>
    <trkpt lat="38.664814001" lon="34.852411961">
      <ele>1141.59</ele>
      <time>2021-10-12T13:54:54Z</time>
    </trkpt>
    <trkpt lat="38.664804026" lon="34.852296039">
      <ele>1140.023</ele>
      <time>2021-10-12T13:54:58Z</time>
    </trkpt>
    <trkpt lat="38.664774019" lon="34.852194032">
      <ele>1138.321</ele>
      <time>2021-10-12T13:55:01Z</time>
    </trkpt>
    <trkpt lat="38.664777959" lon="34.852161007">
      <ele>1137.877</ele>
      <time>2021-10-12T13:55:02Z</time>
    </trkpt>
    <trkpt lat="38.664789023" lon="34.852129994">
      <ele>1137.554</ele>
      <time>2021-10-12T13:55:03Z</time>
    </trkpt>
    <trkpt lat="38.66480696" lon="34.852091018">
      <ele>1137.187</ele>
      <time>2021-10-12T13:55:04Z</time>
    </trkpt>
    <trkpt lat="38.664821964" lon="34.852055982">
      <ele>1136.828</ele>
      <time>2021-10-12T13:55:05Z</time>
    </trkpt>
    <trkpt lat="38.66483001" lon="34.852017006">
      <ele>1136.31</ele>
      <time>2021-10-12T13:55:06Z</time>
    </trkpt>
    <trkpt lat="38.664835962" lon="34.851976018">
      <ele>1135.73</ele>
      <time>2021-10-12T13:55:08Z</time>
    </trkpt>
    <trkpt lat="38.664841997" lon="34.851939976">
      <ele>1135.257</ele>
      <time>2021-10-12T13:55:09Z</time>
    </trkpt>
    <trkpt lat="38.664847026" lon="34.851904018">
      <ele>1135.006</ele>
      <time>2021-10-12T13:55:10Z</time>
    </trkpt>
    <trkpt lat="38.664855994" lon="34.851864958">
      <ele>1134.745</ele>
      <time>2021-10-12T13:55:11Z</time>
    </trkpt>
    <trkpt lat="38.664864963" lon="34.851827994">
      <ele>1134.476</ele>
      <time>2021-10-12T13:55:12Z</time>
    </trkpt>
    <trkpt lat="38.664872004" lon="34.851786001">
      <ele>1134.125</ele>
      <time>2021-10-12T13:55:13Z</time>
    </trkpt>
    <trkpt lat="38.664877033" lon="34.851735961">
      <ele>1133.667</ele>
      <time>2021-10-12T13:55:15Z</time>
    </trkpt>
    <trkpt lat="38.664879967" lon="34.851691034">
      <ele>1133.237</ele>
      <time>2021-10-12T13:55:16Z</time>
    </trkpt>
    <trkpt lat="38.664893964" lon="34.85159196">
      <ele>1132.462</ele>
      <time>2021-10-12T13:55:19Z</time>
    </trkpt>
    <trkpt lat="38.664951967" lon="34.851490036">
      <ele>1131.728</ele>
      <time>2021-10-12T13:55:23Z</time>
    </trkpt>
    <trkpt lat="38.665014999" lon="34.851433039">
      <ele>1131.102</ele>
      <time>2021-10-12T13:55:25Z</time>
    </trkpt>
    <trkpt lat="38.665110972" lon="34.851387022">
      <ele>1129.385</ele>
      <time>2021-10-12T13:55:29Z</time>
    </trkpt>
    <trkpt lat="38.665218009" lon="34.851380987">
      <ele>1127.743</ele>
      <time>2021-10-12T13:55:33Z</time>
    </trkpt>
    <trkpt lat="38.665298978" lon="34.851309992">
      <ele>1125.678</ele>
      <time>2021-10-12T13:55:37Z</time>
    </trkpt>
    <trkpt lat="38.665316999" lon="34.851234974">
      <ele>1124.449</ele>
      <time>2021-10-12T13:55:39Z</time>
    </trkpt>
    <trkpt lat="38.665309958" lon="34.851158028">
      <ele>1123.057</ele>
      <time>2021-10-12T13:55:41Z</time>
    </trkpt>
    <trkpt lat="38.665351029" lon="34.851024002">
      <ele>1121.273</ele>
      <time>2021-10-12T13:55:46Z</time>
    </trkpt>
    <trkpt lat="38.665379025" lon="34.850893999">
      <ele>1119.603</ele>
      <time>2021-10-12T13:55:50Z</time>
    </trkpt>
    <trkpt lat="38.665439039" lon="34.850778999">
      <ele>1118.379</ele>
      <time>2021-10-12T13:55:54Z</time>
    </trkpt>
    <trkpt lat="38.66545002" lon="34.850745974">
      <ele>1117.982</ele>
      <time>2021-10-12T13:55:55Z</time>
    </trkpt>
    <trkpt lat="38.665447002" lon="34.850711022">
      <ele>1117.457</ele>
      <time>2021-10-12T13:55:56Z</time>
    </trkpt>
    <trkpt lat="38.665430993" lon="34.850588981">
      <ele>1115.584</ele>
      <time>2021-10-12T13:55:59Z</time>
    </trkpt>
    <trkpt lat="38.665436022" lon="34.850442968">
      <ele>1113.462</ele>
      <time>2021-10-12T13:56:03Z</time>
    </trkpt>
    <trkpt lat="38.665453959" lon="34.85030802">
      <ele>1111.465</ele>
      <time>2021-10-12T13:56:07Z</time>
    </trkpt>
    <trkpt lat="38.665490001" lon="34.850188997">
      <ele>1109.628</ele>
      <time>2021-10-12T13:56:11Z</time>
    </trkpt>
    <trkpt lat="38.665611036" lon="34.850137029">
      <ele>1109.164</ele>
      <time>2021-10-12T13:56:16Z</time>
    </trkpt>
    <trkpt lat="38.665733999" lon="34.850104004">
      <ele>1110.04</ele>
      <time>2021-10-12T13:56:20Z</time>
    </trkpt>
    <trkpt lat="38.665832989" lon="34.850072991">
      <ele>1110.573</ele>
      <time>2021-10-12T13:56:24Z</time>
    </trkpt>
    <trkpt lat="38.665910019" lon="34.849980036">
      <ele>1110.869</ele>
      <time>2021-10-12T13:56:28Z</time>
    </trkpt>
    <trkpt lat="38.665931979" lon="34.849860007">
      <ele>1109.5</ele>
      <time>2021-10-12T13:56:32Z</time>
    </trkpt>
    <trkpt lat="38.665948994" lon="34.849734027">
      <ele>1107.942</ele>
      <time>2021-10-12T13:56:35Z</time>
    </trkpt>
    <trkpt lat="38.665951006" lon="34.849587008">
      <ele>1105.527</ele>
      <time>2021-10-12T13:56:40Z</time>
    </trkpt>
    <trkpt lat="38.666004986" lon="34.849475026">
      <ele>1104.692</ele>
      <time>2021-10-12T13:56:44Z</time>
    </trkpt>
    <trkpt lat="38.666060977" lon="34.84938601">
      <ele>1104.084</ele>
      <time>2021-10-12T13:56:47Z</time>
    </trkpt>
    <trkpt lat="38.666150998" lon="34.849360026">
      <ele>1105.785</ele>
      <time>2021-10-12T13:56:50Z</time>
    </trkpt>
    <trkpt lat="38.666193997" lon="34.849333959">
      <ele>1106.639</ele>
      <time>2021-10-12T13:56:52Z</time>
    </trkpt>
    <trkpt lat="38.66628997" lon="34.849306969">
      <ele>1109.008</ele>
      <time>2021-10-12T13:56:56Z</time>
    </trkpt>
    <trkpt lat="38.666382004" lon="34.849244021">
      <ele>1110.034</ele>
      <time>2021-10-12T13:56:59Z</time>
    </trkpt>
    <trkpt lat="38.666429026" lon="34.849122986">
      <ele>1108.735</ele>
      <time>2021-10-12T13:57:03Z</time>
    </trkpt>
    <trkpt lat="38.666434977" lon="34.849092979">
      <ele>1108.367</ele>
      <time>2021-10-12T13:57:04Z</time>
    </trkpt>
    <trkpt lat="38.666440006" lon="34.849055009">
      <ele>1107.792</ele>
      <time>2021-10-12T13:57:05Z</time>
    </trkpt>
    <trkpt lat="38.666432966" lon="34.848980997">
      <ele>1106.085</ele>
      <time>2021-10-12T13:57:08Z</time>
    </trkpt>
    <trkpt lat="38.66643196" lon="34.848948978">
      <ele>1105.423</ele>
      <time>2021-10-12T13:57:09Z</time>
    </trkpt>
    <trkpt lat="38.666442018" lon="34.848912014">
      <ele>1104.994</ele>
      <time>2021-10-12T13:57:10Z</time>
    </trkpt>
    <trkpt lat="38.66645501" lon="34.848875972">
      <ele>1104.687</ele>
      <time>2021-10-12T13:57:11Z</time>
    </trkpt>
    <trkpt lat="38.666471019" lon="34.848841019">
      <ele>1104.492</ele>
      <time>2021-10-12T13:57:12Z</time>
    </trkpt>
    <trkpt lat="38.666491974" lon="34.848806988">
      <ele>1104.318</ele>
      <time>2021-10-12T13:57:13Z</time>
    </trkpt>
    <trkpt lat="38.666579984" lon="34.848721996">
      <ele>1103.808</ele>
      <time>2021-10-12T13:57:17Z</time>
    </trkpt>
    <trkpt lat="38.666646034" lon="34.848600039">
      <ele>1100.723</ele>
      <time>2021-10-12T13:57:22Z</time>
    </trkpt>
    <trkpt lat="38.666671012" lon="34.848458972">
      <ele>1098.274</ele>
      <time>2021-10-12T13:57:26Z</time>
    </trkpt>
    <trkpt lat="38.66673396" lon="34.848325029">
      <ele>1095.623</ele>
      <time>2021-10-12T13:57:30Z</time>
    </trkpt>
    <trkpt lat="38.666801015" lon="34.848208018">
      <ele>1093.697</ele>
      <time>2021-10-12T13:57:35Z</time>
    </trkpt>
    <trkpt lat="38.666815013" lon="34.848166024">
      <ele>1093.098</ele>
      <time>2021-10-12T13:57:36Z</time>
    </trkpt>
    <trkpt lat="38.666822976" lon="34.84811699">
      <ele>1092.42</ele>
      <time>2021-10-12T13:57:37Z</time>
    </trkpt>
    <trkpt lat="38.666825993" lon="34.848072985">
      <ele>1091.815</ele>
      <time>2021-10-12T13:57:39Z</time>
    </trkpt>
    <trkpt lat="38.666824987" lon="34.848027974">
      <ele>1091.087</ele>
      <time>2021-10-12T13:57:40Z</time>
    </trkpt>
    <trkpt lat="38.666823981" lon="34.847982964">
      <ele>1090.294</ele>
      <time>2021-10-12T13:57:41Z</time>
    </trkpt>
    <trkpt lat="38.666820964" lon="34.847933007">
      <ele>1089.399</ele>
      <time>2021-10-12T13:57:43Z</time>
    </trkpt>
    <trkpt lat="38.666820042" lon="34.847886991">
      <ele>1088.581</ele>
      <time>2021-10-12T13:57:44Z</time>
    </trkpt>
    <trkpt lat="38.666828005" lon="34.847844997">
      <ele>1087.913</ele>
      <time>2021-10-12T13:57:45Z</time>
    </trkpt>
    <trkpt lat="38.666842002" lon="34.847798981">
      <ele>1087.255</ele>
      <time>2021-10-12T13:57:47Z</time>
    </trkpt>
    <trkpt lat="38.666859018" lon="34.847751958">
      <ele>1086.827</ele>
      <time>2021-10-12T13:57:48Z</time>
    </trkpt>
    <trkpt lat="38.666877961" lon="34.847704014">
      <ele>1086.549</ele>
      <time>2021-10-12T13:57:50Z</time>
    </trkpt>
    <trkpt lat="38.666894976" lon="34.847657997">
      <ele>1086.249</ele>
      <time>2021-10-12T13:57:51Z</time>
    </trkpt>
    <trkpt lat="38.666914003" lon="34.847609969">
      <ele>1085.925</ele>
      <time>2021-10-12T13:57:53Z</time>
    </trkpt>
    <trkpt lat="38.666929007" lon="34.847577028">
      <ele>1085.705</ele>
      <time>2021-10-12T13:57:54Z</time>
    </trkpt>
    <trkpt lat="38.666943004" lon="34.847540986">
      <ele>1085.432</ele>
      <time>2021-10-12T13:57:55Z</time>
    </trkpt>
    <trkpt lat="38.66696002" lon="34.847507039">
      <ele>1085.02</ele>
      <time>2021-10-12T13:57:56Z</time>
    </trkpt>
    <trkpt lat="38.666980974" lon="34.847474014">
      <ele>1084.763</ele>
      <time>2021-10-12T13:57:57Z</time>
    </trkpt>
    <trkpt lat="38.667004025" lon="34.847438978">
      <ele>1084.519</ele>
      <time>2021-10-12T13:57:59Z</time>
    </trkpt>
    <trkpt lat="38.667024979" lon="34.847394973">
      <ele>1084.222</ele>
      <time>2021-10-12T13:58:00Z</time>
    </trkpt>
    <trkpt lat="38.667046018" lon="34.847354991">
      <ele>1083.921</ele>
      <time>2021-10-12T13:58:02Z</time>
    </trkpt>
    <trkpt lat="38.667061022" lon="34.847312998">
      <ele>1083.625</ele>
      <time>2021-10-12T13:58:03Z</time>
    </trkpt>
    <trkpt lat="38.667067979" lon="34.847273016">
      <ele>1083.375</ele>
      <time>2021-10-12T13:58:04Z</time>
    </trkpt>
    <trkpt lat="38.667067979" lon="34.847216019">
      <ele>1083.096</ele>
      <time>2021-10-12T13:58:06Z</time>
    </trkpt>
    <trkpt lat="38.667067979" lon="34.847163968">
      <ele>1082.971</ele>
      <time>2021-10-12T13:58:07Z</time>
    </trkpt>
    <trkpt lat="38.667068984" lon="34.847109988">
      <ele>1082.839</ele>
      <time>2021-10-12T13:58:09Z</time>
    </trkpt>
    <trkpt lat="38.667072002" lon="34.847056009">
      <ele>1082.709</ele>
      <time>2021-10-12T13:58:11Z</time>
    </trkpt>
    <trkpt lat="38.667065967" lon="34.847005969">
      <ele>1082.59</ele>
      <time>2021-10-12T13:58:12Z</time>
    </trkpt>
    <trkpt lat="38.66705901" lon="34.846952995">
      <ele>1082.436</ele>
      <time>2021-10-12T13:58:14Z</time>
    </trkpt>
    <trkpt lat="38.667046018" lon="34.846903039">
      <ele>1082.475</ele>
      <time>2021-10-12T13:58:15Z</time>
    </trkpt>
    <trkpt lat="38.667020034" lon="34.846868003">
      <ele>1082.422</ele>
      <time>2021-10-12T13:58:16Z</time>
    </trkpt>
    <trkpt lat="38.666990027" lon="34.846834978">
      <ele>1082.293</ele>
      <time>2021-10-12T13:58:18Z</time>
    </trkpt>
    <trkpt lat="38.66696002" lon="34.846808994">
      <ele>1082.111</ele>
      <time>2021-10-12T13:58:19Z</time>
    </trkpt>
    <trkpt lat="38.666937975" lon="34.846777981">
      <ele>1081.926</ele>
      <time>2021-10-12T13:58:20Z</time>
    </trkpt>
    <trkpt lat="38.666922972" lon="34.846743029">
      <ele>1081.733</ele>
      <time>2021-10-12T13:58:22Z</time>
    </trkpt>
    <trkpt lat="38.666907968" lon="34.846708998">
      <ele>1081.515</ele>
      <time>2021-10-12T13:58:23Z</time>
    </trkpt>
    <trkpt lat="38.666889025" lon="34.846671028">
      <ele>1081.208</ele>
      <time>2021-10-12T13:58:24Z</time>
    </trkpt>
    <trkpt lat="38.666874021" lon="34.846634986">
      <ele>1081.042</ele>
      <time>2021-10-12T13:58:25Z</time>
    </trkpt>
    <trkpt lat="38.666862035" lon="34.846588969">
      <ele>1080.927</ele>
      <time>2021-10-12T13:58:27Z</time>
    </trkpt>
    <trkpt lat="38.666852983" lon="34.846540019">
      <ele>1080.839</ele>
      <time>2021-10-12T13:58:28Z</time>
    </trkpt>
    <trkpt lat="38.666846026" lon="34.846495008">
      <ele>1080.763</ele>
      <time>2021-10-12T13:58:29Z</time>
    </trkpt>
    <trkpt lat="38.666836973" lon="34.846448991">
      <ele>1080.63</ele>
      <time>2021-10-12T13:58:31Z</time>
    </trkpt>
    <trkpt lat="38.666833034" lon="34.846400041">
      <ele>1080.586</ele>
      <time>2021-10-12T13:58:32Z</time>
    </trkpt>
    <trkpt lat="38.66682901" lon="34.846352013">
      <ele>1080.507</ele>
      <time>2021-10-12T13:58:34Z</time>
    </trkpt>
    <trkpt lat="38.666823981" lon="34.846305996">
      <ele>1080.398</ele>
      <time>2021-10-12T13:58:35Z</time>
    </trkpt>
    <trkpt lat="38.666817024" lon="34.846257968">
      <ele>1080.248</ele>
      <time>2021-10-12T13:58:36Z</time>
    </trkpt>
    <trkpt lat="38.666809984" lon="34.846209018">
      <ele>1080.096</ele>
      <time>2021-10-12T13:58:38Z</time>
    </trkpt>
    <trkpt lat="38.666805038" lon="34.846157972">
      <ele>1079.989</ele>
      <time>2021-10-12T13:58:39Z</time>
    </trkpt>
    <trkpt lat="38.666793974" lon="34.84611799">
      <ele>1079.75</ele>
      <time>2021-10-12T13:58:41Z</time>
    </trkpt>
    <trkpt lat="38.666766984" lon="34.84604599">
      <ele>1078.763</ele>
      <time>2021-10-12T13:58:43Z</time>
    </trkpt>
    <trkpt lat="38.666747035" lon="34.84600299">
      <ele>1078.121</ele>
      <time>2021-10-12T13:58:44Z</time>
    </trkpt>
    <trkpt lat="38.666699954" lon="34.845946004">
      <ele>1076.982</ele>
      <time>2021-10-12T13:58:47Z</time>
    </trkpt>
    <trkpt lat="38.6666246" lon="34.845851366">
      <ele>1075.449</ele>
      <time>2021-10-12T13:58:51Z</time>
    </trkpt>
    <trkpt lat="38.666571923" lon="34.84573809">
      <ele>1073.506</ele>
      <time>2021-10-12T13:58:54Z</time>
    </trkpt>
    <trkpt lat="38.666592177" lon="34.845610643">
      <ele>1071.994</ele>
      <time>2021-10-12T13:58:58Z</time>
    </trkpt>
    <trkpt lat="38.666642415" lon="34.845437828">
      <ele>1069.927</ele>
      <time>2021-10-12T13:59:04Z</time>
    </trkpt>
    <trkpt lat="38.666660004" lon="34.845259475">
      <ele>1068.099</ele>
      <time>2021-10-12T13:59:09Z</time>
    </trkpt>
    <trkpt lat="38.666701717" lon="34.845080702">
      <ele>1068.199</ele>
      <time>2021-10-12T13:59:14Z</time>
    </trkpt>
    <trkpt lat="38.6667383" lon="34.844935506">
      <ele>1067.389</ele>
      <time>2021-10-12T13:59:19Z</time>
    </trkpt>
    <trkpt lat="38.666834667" lon="34.84485215">
      <ele>1066.798</ele>
      <time>2021-10-12T13:59:23Z</time>
    </trkpt>
    <trkpt lat="38.666870813" lon="34.844717562">
      <ele>1065.428</ele>
      <time>2021-10-12T13:59:27Z</time>
    </trkpt>
    <trkpt lat="38.666894167" lon="34.844592708">
      <ele>1064.408</ele>
      <time>2021-10-12T13:59:31Z</time>
    </trkpt>
    <trkpt lat="38.666940588" lon="34.844489864">
      <ele>1063.486</ele>
      <time>2021-10-12T13:59:34Z</time>
    </trkpt>
    <trkpt lat="38.666982854" lon="34.844405619">
      <ele>1063.83</ele>
      <time>2021-10-12T13:59:37Z</time>
    </trkpt>
    <trkpt lat="38.66702844" lon="34.844224303">
      <ele>1064.814</ele>
      <time>2021-10-12T13:59:43Z</time>
    </trkpt>
    <trkpt lat="38.667025415" lon="34.844033643">
      <ele>1064.749</ele>
      <time>2021-10-12T13:59:48Z</time>
    </trkpt>
    <trkpt lat="38.666991152" lon="34.843851883">
      <ele>1063.898</ele>
      <time>2021-10-12T13:59:54Z</time>
    </trkpt>
    <trkpt lat="38.667015721" lon="34.843567541">
      <ele>1063.599</ele>
      <time>2021-10-12T14:00:02Z</time>
    </trkpt>
    <trkpt lat="38.667064804" lon="34.843331342">
      <ele>1063.569</ele>
      <time>2021-10-12T14:00:09Z</time>
    </trkpt>
    <trkpt lat="38.667110391" lon="34.843245505">
      <ele>1063.069</ele>
      <time>2021-10-12T14:00:12Z</time>
    </trkpt>
    <trkpt lat="38.667108443" lon="34.843132928">
      <ele>1061.1</ele>
      <time>2021-10-12T14:00:15Z</time>
    </trkpt>
    <trkpt lat="38.667091797" lon="34.842915031">
      <ele>1056.763</ele>
      <time>2021-10-12T14:00:22Z</time>
    </trkpt>
    <trkpt lat="38.667098102" lon="34.842675615">
      <ele>1052.529</ele>
      <time>2021-10-12T14:00:29Z</time>
    </trkpt>
    <trkpt lat="38.667118901" lon="34.842402189">
      <ele>1048.944</ele>
      <time>2021-10-12T14:00:37Z</time>
    </trkpt>
    <trkpt lat="38.667177211" lon="34.842214793">
      <ele>1046.955</ele>
      <time>2021-10-12T14:00:42Z</time>
    </trkpt>
    <trkpt lat="38.667344917" lon="34.842068119">
      <ele>1046.922</ele>
      <time>2021-10-12T14:00:50Z</time>
    </trkpt>
    <trkpt lat="38.66754288" lon="34.842022001">
      <ele>1047.155</ele>
      <time>2021-10-12T14:00:57Z</time>
    </trkpt>
    <trkpt lat="38.667760857" lon="34.842011084">
      <ele>1045.81</ele>
      <time>2021-10-12T14:01:05Z</time>
    </trkpt>
    <trkpt lat="38.668071425" lon="34.84199787">
      <ele>1040.498</ele>
      <time>2021-10-12T14:01:17Z</time>
    </trkpt>
    <trkpt lat="38.668113034" lon="34.841863001">
      <ele>1039.732</ele>
      <time>2021-10-12T14:01:21Z</time>
    </trkpt>
    <trkpt lat="38.668118985" lon="34.841812039">
      <ele>1039.663</ele>
      <time>2021-10-12T14:01:23Z</time>
    </trkpt>
    <trkpt lat="38.668115968" lon="34.841778008">
      <ele>1039.652</ele>
      <time>2021-10-12T14:01:24Z</time>
    </trkpt>
    <trkpt lat="38.668116974" lon="34.841745989">
      <ele>1039.621</ele>
      <time>2021-10-12T14:01:25Z</time>
    </trkpt>
    <trkpt lat="38.668118985" lon="34.841711037">
      <ele>1039.58</ele>
      <time>2021-10-12T14:01:26Z</time>
    </trkpt>
    <trkpt lat="38.668120997" lon="34.841674995">
      <ele>1039.536</ele>
      <time>2021-10-12T14:01:27Z</time>
    </trkpt>
    <trkpt lat="38.668123009" lon="34.841649011">
      <ele>1039.499</ele>
      <time>2021-10-12T14:01:27Z</time>
    </trkpt>
    <trkpt lat="38.668120997" lon="34.841624033">
      <ele>1039.493</ele>
      <time>2021-10-12T14:01:28Z</time>
    </trkpt>
    <trkpt lat="38.668124015" lon="34.841650017">
      <ele>1039.492</ele>
      <time>2021-10-12T14:01:29Z</time>
    </trkpt>
    <trkpt lat="38.668142036" lon="34.84170299">
      <ele>1039.418</ele>
      <time>2021-10-12T14:01:31Z</time>
    </trkpt>
    <trkpt lat="38.668143041" lon="34.841734003">
      <ele>1039.446</ele>
      <time>2021-10-12T14:01:31Z</time>
    </trkpt>
    <trkpt lat="38.668143963" lon="34.841775997">
      <ele>1039.489</ele>
      <time>2021-10-12T14:01:33Z</time>
    </trkpt>
    <trkpt lat="38.66815201" lon="34.841822013">
      <ele>1039.5</ele>
      <time>2021-10-12T14:01:34Z</time>
    </trkpt>
    <trkpt lat="38.668157039" lon="34.841861995">
      <ele>1039.526</ele>
      <time>2021-10-12T14:01:35Z</time>
    </trkpt>
    <trkpt lat="38.66816802" lon="34.841898037">
      <ele>1039.527</ele>
      <time>2021-10-12T14:01:36Z</time>
    </trkpt>
    <trkpt lat="38.668187968" lon="34.84193299">
      <ele>1039.504</ele>
      <time>2021-10-12T14:01:38Z</time>
    </trkpt>
    <trkpt lat="38.66821697" lon="34.841956962">
      <ele>1039.502</ele>
      <time>2021-10-12T14:01:39Z</time>
    </trkpt>
    <trkpt lat="38.668253012" lon="34.841962997">
      <ele>1039.395</ele>
      <time>2021-10-12T14:01:40Z</time>
    </trkpt>
    <trkpt lat="38.668296011" lon="34.841959979">
      <ele>1039.205</ele>
      <time>2021-10-12T14:01:42Z</time>
    </trkpt>
    <trkpt lat="38.668338004" lon="34.841953022">
      <ele>1039.014</ele>
      <time>2021-10-12T14:01:43Z</time>
    </trkpt>
    <trkpt lat="38.66837698" lon="34.84194397">
      <ele>1038.841</ele>
      <time>2021-10-12T14:01:45Z</time>
    </trkpt>
    <trkpt lat="38.668417968" lon="34.841933995">
      <ele>1038.669</ele>
      <time>2021-10-12T14:01:46Z</time>
    </trkpt>
    <trkpt lat="38.668457028" lon="34.841925027">
      <ele>1038.516</ele>
      <time>2021-10-12T14:01:48Z</time>
    </trkpt>
    <trkpt lat="38.668490974" lon="34.841922009">
      <ele>1038.398</ele>
      <time>2021-10-12T14:01:49Z</time>
    </trkpt>
    <trkpt lat="38.668527016" lon="34.841929972">
      <ele>1038.287</ele>
      <time>2021-10-12T14:01:50Z</time>
    </trkpt>
    <trkpt lat="38.668562975" lon="34.841950005">
      <ele>1038.193</ele>
      <time>2021-10-12T14:01:52Z</time>
    </trkpt>
    <trkpt lat="38.668599017" lon="34.841975989">
      <ele>1038.157</ele>
      <time>2021-10-12T14:01:53Z</time>
    </trkpt>
    <trkpt lat="38.668629024" lon="34.842009014">
      <ele>1038.282</ele>
      <time>2021-10-12T14:01:55Z</time>
    </trkpt>
    <trkpt lat="38.668656014" lon="34.842045978">
      <ele>1038.468</ele>
      <time>2021-10-12T14:01:56Z</time>
    </trkpt>
    <trkpt lat="38.668741006" lon="34.842134994">
      <ele>1038.833</ele>
      <time>2021-10-12T14:02:00Z</time>
    </trkpt>
    <trkpt lat="38.668834968" lon="34.842221998">
      <ele>1039.0</ele>
      <time>2021-10-12T14:02:05Z</time>
    </trkpt>
    <trkpt lat="38.668923983" lon="34.842271032">
      <ele>1039.109</ele>
      <time>2021-10-12T14:02:08Z</time>
    </trkpt>
    <trkpt lat="38.669008976" lon="34.842356024">
      <ele>1038.857</ele>
      <time>2021-10-12T14:02:12Z</time>
    </trkpt>
    <trkpt lat="38.669090029" lon="34.842416961">
      <ele>1038.178</ele>
      <time>2021-10-12T14:02:16Z</time>
    </trkpt>
    <trkpt lat="38.669175021" lon="34.842464989">
      <ele>1037.132</ele>
      <time>2021-10-12T14:02:19Z</time>
    </trkpt>
    <trkpt lat="38.669227995" lon="34.842470018">
      <ele>1036.333</ele>
      <time>2021-10-12T14:02:21Z</time>
    </trkpt>
    <trkpt lat="38.669253979" lon="34.842468007">
      <ele>1035.973</ele>
      <time>2021-10-12T14:02:22Z</time>
    </trkpt>
    <trkpt lat="38.669278035" lon="34.842458032">
      <ele>1035.698</ele>
      <time>2021-10-12T14:02:23Z</time>
    </trkpt>
    <trkpt lat="38.669299996" lon="34.842441017">
      <ele>1035.505</ele>
      <time>2021-10-12T14:02:24Z</time>
    </trkpt>
    <trkpt lat="38.669320028" lon="34.842424002">
      <ele>1035.339</ele>
      <time>2021-10-12T14:02:25Z</time>
    </trkpt>
    <trkpt lat="38.669347018" lon="34.84240598">
      <ele>1035.08</ele>
      <time>2021-10-12T14:02:26Z</time>
    </trkpt>
    <trkpt lat="38.669459" lon="34.842425007">
      <ele>1033.369</ele>
      <time>2021-10-12T14:02:30Z</time>
    </trkpt>
    <trkpt lat="38.669494959" lon="34.842439005">
      <ele>1032.854</ele>
      <time>2021-10-12T14:02:32Z</time>
    </trkpt>
    <trkpt lat="38.669598978" lon="34.842511006">
      <ele>1031.335</ele>
      <time>2021-10-12T14:02:36Z</time>
    </trkpt>
    <trkpt lat="38.669630997" lon="34.842523998">
      <ele>1031.015</ele>
      <time>2021-10-12T14:02:37Z</time>
    </trkpt>
    <trkpt lat="38.669665027" lon="34.84253196">
      <ele>1030.685</ele>
      <time>2021-10-12T14:02:39Z</time>
    </trkpt>
    <trkpt lat="38.669702997" lon="34.842545958">
      <ele>1030.35</ele>
      <time>2021-10-12T14:02:40Z</time>
    </trkpt>
    <trkpt lat="38.669737028" lon="34.842561968">
      <ele>1030.182</ele>
      <time>2021-10-12T14:02:41Z</time>
    </trkpt>
    <trkpt lat="38.669767035" lon="34.842591975">
      <ele>1030.223</ele>
      <time>2021-10-12T14:02:43Z</time>
    </trkpt>
    <trkpt lat="38.669795031" lon="34.842618965">
      <ele>1030.278</ele>
      <time>2021-10-12T14:02:44Z</time>
    </trkpt>
    <trkpt lat="38.669821015" lon="34.842646038">
      <ele>1030.357</ele>
      <time>2021-10-12T14:02:45Z</time>
    </trkpt>
    <trkpt lat="38.669843981" lon="34.84267504">
      <ele>1030.468</ele>
      <time>2021-10-12T14:02:47Z</time>
    </trkpt>
    <trkpt lat="38.669866025" lon="34.842702029">
      <ele>1030.586</ele>
      <time>2021-10-12T14:02:48Z</time>
    </trkpt>
    <trkpt lat="38.66989796" lon="34.842726002">
      <ele>1030.696</ele>
      <time>2021-10-12T14:02:49Z</time>
    </trkpt>
    <trkpt lat="38.66992604" lon="34.842735976">
      <ele>1030.739</ele>
      <time>2021-10-12T14:02:50Z</time>
    </trkpt>
    <trkpt lat="38.669959987" lon="34.842742011">
      <ele>1030.761</ele>
      <time>2021-10-12T14:02:51Z</time>
    </trkpt>
    <trkpt lat="38.669992005" lon="34.842747962">
      <ele>1030.788</ele>
      <time>2021-10-12T14:02:53Z</time>
    </trkpt>
    <trkpt lat="38.670026036" lon="34.842748968">
      <ele>1030.793</ele>
      <time>2021-10-12T14:02:54Z</time>
    </trkpt>
    <trkpt lat="38.670056965" lon="34.842746034">
      <ele>1030.771</ele>
      <time>2021-10-12T14:02:55Z</time>
    </trkpt>
    <trkpt lat="38.670088984" lon="34.842743017">
      <ele>1030.75</ele>
      <time>2021-10-12T14:02:56Z</time>
    </trkpt>
    <trkpt lat="38.670121003" lon="34.842745028">
      <ele>1030.764</ele>
      <time>2021-10-12T14:02:57Z</time>
    </trkpt>
    <trkpt lat="38.670148998" lon="34.842745028">
      <ele>1030.764</ele>
      <time>2021-10-12T14:02:58Z</time>
    </trkpt>
    <trkpt lat="38.670182023" lon="34.84275098">
      <ele>1030.807</ele>
      <time>2021-10-12T14:03:00Z</time>
    </trkpt>
    <trkpt lat="38.670245977" lon="34.842759026">
      <ele>1030.865</ele>
      <time>2021-10-12T14:03:02Z</time>
    </trkpt>
    <trkpt lat="38.67033801" lon="34.842790961">
      <ele>1031.047</ele>
      <time>2021-10-12T14:03:06Z</time>
    </trkpt>
    <trkpt lat="38.67041898" lon="34.842860028">
      <ele>1031.296</ele>
      <time>2021-10-12T14:03:09Z</time>
    </trkpt>
    <trkpt lat="38.670485029" lon="34.842948038">
      <ele>1031.613</ele>
      <time>2021-10-12T14:03:13Z</time>
    </trkpt>
    <trkpt lat="38.670539008" lon="34.843045017">
      <ele>1031.962</ele>
      <time>2021-10-12T14:03:16Z</time>
    </trkpt>
    <trkpt lat="38.670584019" lon="34.843155993">
      <ele>1032.427</ele>
      <time>2021-10-12T14:03:20Z</time>
    </trkpt>
    <trkpt lat="38.670633975" lon="34.843256995">
      <ele>1032.803</ele>
      <time>2021-10-12T14:03:23Z</time>
    </trkpt>
    <trkpt lat="38.670699019" lon="34.843349028">
      <ele>1032.973</ele>
      <time>2021-10-12T14:03:27Z</time>
    </trkpt>
    <trkpt lat="38.67073196" lon="34.843462016">
      <ele>1032.831</ele>
      <time>2021-10-12T14:03:30Z</time>
    </trkpt>
    <trkpt lat="38.670717962" lon="34.84357601">
      <ele>1032.637</ele>
      <time>2021-10-12T14:03:34Z</time>
    </trkpt>
    <trkpt lat="38.670712011" lon="34.843695033">
      <ele>1032.431</ele>
      <time>2021-10-12T14:03:37Z</time>
    </trkpt>
    <trkpt lat="38.670649985" lon="34.843813973">
      <ele>1031.858</ele>
      <time>2021-10-12T14:03:41Z</time>
    </trkpt>
    <trkpt lat="38.670588965" lon="34.843935007">
      <ele>1031.387</ele>
      <time>2021-10-12T14:03:45Z</time>
    </trkpt>
    <trkpt lat="38.670599023" lon="34.844050007">
      <ele>1031.802</ele>
      <time>2021-10-12T14:03:49Z</time>
    </trkpt>
    <trkpt lat="38.670613021" lon="34.844185961">
      <ele>1032.319</ele>
      <time>2021-10-12T14:03:53Z</time>
    </trkpt>
    <trkpt lat="38.670611009" lon="34.844213035">
      <ele>1032.467</ele>
      <time>2021-10-12T14:03:54Z</time>
    </trkpt>
    <trkpt lat="38.670611009" lon="34.844360976">
      <ele>1033.318</ele>
      <time>2021-10-12T14:03:58Z</time>
    </trkpt>
    <trkpt lat="38.670614026" lon="34.844450997">
      <ele>1033.936</ele>
      <time>2021-10-12T14:04:00Z</time>
    </trkpt>
    <trkpt lat="38.670630036" lon="34.844511012">
      <ele>1035.031</ele>
      <time>2021-10-12T14:04:02Z</time>
    </trkpt>
    <trkpt lat="38.670636993" lon="34.844542025">
      <ele>1035.578</ele>
      <time>2021-10-12T14:04:03Z</time>
    </trkpt>
    <trkpt lat="38.670669012" lon="34.844684014">
      <ele>1038.084</ele>
      <time>2021-10-12T14:04:08Z</time>
    </trkpt>
    <trkpt lat="38.670679992" lon="34.844717961">
      <ele>1038.731</ele>
      <time>2021-10-12T14:04:09Z</time>
    </trkpt>
    <trkpt lat="38.670690972" lon="34.844751991">
      <ele>1039.486</ele>
      <time>2021-10-12T14:04:10Z</time>
    </trkpt>
    <trkpt lat="38.670713017" lon="34.844815023">
      <ele>1040.938</ele>
      <time>2021-10-12T14:04:12Z</time>
    </trkpt>
    <trkpt lat="38.670726009" lon="34.844846036">
      <ele>1041.683</ele>
      <time>2021-10-12T14:04:13Z</time>
    </trkpt>
    <trkpt lat="38.670734977" lon="34.844875038">
      <ele>1042.334</ele>
      <time>2021-10-12T14:04:14Z</time>
    </trkpt>
    <trkpt lat="38.670746041" lon="34.844900016">
      <ele>1042.943</ele>
      <time>2021-10-12T14:04:14Z</time>
    </trkpt>
    <trkpt lat="38.670758028" lon="34.844923988">
      <ele>1043.547</ele>
      <time>2021-10-12T14:04:15Z</time>
    </trkpt>
    <trkpt lat="38.670773031" lon="34.844950978">
      <ele>1044.249</ele>
      <time>2021-10-12T14:04:16Z</time>
    </trkpt>
    <trkpt lat="38.670789041" lon="34.844976962">
      <ele>1044.947</ele>
      <time>2021-10-12T14:04:17Z</time>
    </trkpt>
    <trkpt lat="38.670866992" lon="34.845049968">
      <ele>1047.179</ele>
      <time>2021-10-12T14:04:21Z</time>
    </trkpt>
    <trkpt lat="38.670952991" lon="34.845105959">
      <ele>1048.555</ele>
      <time>2021-10-12T14:04:24Z</time>
    </trkpt>
    <trkpt lat="38.671018034" lon="34.84519003">
      <ele>1050.315</ele>
      <time>2021-10-12T14:04:28Z</time>
    </trkpt>
    <trkpt lat="38.670990039" lon="34.84532699">
      <ele>1052.809</ele>
      <time>2021-10-12T14:04:32Z</time>
    </trkpt>
    <trkpt lat="38.670951985" lon="34.845459005">
      <ele>1054.888</ele>
      <time>2021-10-12T14:04:36Z</time>
    </trkpt>
    <trkpt lat="38.670952991" lon="34.845590014">
      <ele>1056.786</ele>
      <time>2021-10-12T14:04:40Z</time>
    </trkpt>
    <trkpt lat="38.67095802" lon="34.84570602">
      <ele>1058.018</ele>
      <time>2021-10-12T14:04:43Z</time>
    </trkpt>
    <trkpt lat="38.67095802" lon="34.845829988">
      <ele>1059.312</ele>
      <time>2021-10-12T14:04:47Z</time>
    </trkpt>
    <trkpt lat="38.670967994" lon="34.84591498">
      <ele>1059.891</ele>
      <time>2021-10-12T14:04:49Z</time>
    </trkpt>
    <trkpt lat="38.671004958" lon="34.84602998">
      <ele>1060.999</ele>
      <time>2021-10-12T14:04:53Z</time>
    </trkpt>
    <trkpt lat="38.671005964" lon="34.846112039">
      <ele>1061.495</ele>
      <time>2021-10-12T14:04:55Z</time>
    </trkpt>
    <trkpt lat="38.671047036" lon="34.846141962">
      <ele>1062.351</ele>
      <time>2021-10-12T14:04:57Z</time>
    </trkpt>
    <trkpt lat="38.671081988" lon="34.846136011">
      <ele>1062.779</ele>
      <time>2021-10-12T14:04:58Z</time>
    </trkpt>
    <trkpt lat="38.671104033" lon="34.846139029">
      <ele>1063.104</ele>
      <time>2021-10-12T14:04:59Z</time>
    </trkpt>
    <trkpt lat="38.671148038" lon="34.846110027">
      <ele>1062.726</ele>
      <time>2021-10-12T14:05:01Z</time>
    </trkpt>
    <trkpt lat="38.671168992" lon="34.846106004">
      <ele>1062.543</ele>
      <time>2021-10-12T14:05:02Z</time>
    </trkpt>
    <trkpt lat="38.671196988" lon="34.846115978">
      <ele>1062.433</ele>
      <time>2021-10-12T14:05:03Z</time>
    </trkpt>
    <trkpt lat="38.671231018" lon="34.846112961">
      <ele>1062.159</ele>
      <time>2021-10-12T14:05:04Z</time>
    </trkpt>
    <trkpt lat="38.671252979" lon="34.846110027">
      <ele>1061.969</ele>
      <time>2021-10-12T14:05:05Z</time>
    </trkpt>
    <trkpt lat="38.671275023" lon="34.846109021">
      <ele>1061.8</ele>
      <time>2021-10-12T14:05:06Z</time>
    </trkpt>
    <trkpt lat="38.671300001" lon="34.846106004">
      <ele>1061.591</ele>
      <time>2021-10-12T14:05:07Z</time>
    </trkpt>
    <trkpt lat="38.671330009" lon="34.846103992">
      <ele>1061.352</ele>
      <time>2021-10-12T14:05:08Z</time>
    </trkpt>
    <trkpt lat="38.671361022" lon="34.846103992">
      <ele>1061.126</ele>
      <time>2021-10-12T14:05:09Z</time>
    </trkpt>
    <trkpt lat="38.671390023" lon="34.846101981">
      <ele>1060.905</ele>
      <time>2021-10-12T14:05:10Z</time>
    </trkpt>
    <trkpt lat="38.671421036" lon="34.846101981">
      <ele>1061.01</ele>
      <time>2021-10-12T14:05:11Z</time>
    </trkpt>
    <trkpt lat="38.671446014" lon="34.846103992">
      <ele>1061.118</ele>
      <time>2021-10-12T14:05:12Z</time>
    </trkpt>
    <trkpt lat="38.671469986" lon="34.84610701">
      <ele>1061.239</ele>
      <time>2021-10-12T14:05:13Z</time>
    </trkpt>
    <trkpt lat="38.671494965" lon="34.846120002">
      <ele>1061.53</ele>
      <time>2021-10-12T14:05:14Z</time>
    </trkpt>
    <trkpt lat="38.671514997" lon="34.84614104">
      <ele>1061.944</ele>
      <time>2021-10-12T14:05:15Z</time>
    </trkpt>
    <trkpt lat="38.671526983" lon="34.846160989">
      <ele>1062.306</ele>
      <time>2021-10-12T14:05:16Z</time>
    </trkpt>
    <trkpt lat="38.67153897" lon="34.846196026">
      <ele>1062.904</ele>
      <time>2021-10-12T14:05:17Z</time>
    </trkpt>
    <trkpt lat="38.671530001" lon="34.846239025">
      <ele>1063.577</ele>
      <time>2021-10-12T14:05:18Z</time>
    </trkpt>
    <trkpt lat="38.671518015" lon="34.846282024">
      <ele>1064.255</ele>
      <time>2021-10-12T14:05:19Z</time>
    </trkpt>
    <trkpt lat="38.671509968" lon="34.846310019">
      <ele>1064.704</ele>
      <time>2021-10-12T14:05:20Z</time>
    </trkpt>
    <trkpt lat="38.671498988" lon="34.846338015">
      <ele>1065.157</ele>
      <time>2021-10-12T14:05:21Z</time>
    </trkpt>
    <trkpt lat="38.671489013" lon="34.846356958">
      <ele>1065.467</ele>
      <time>2021-10-12T14:05:22Z</time>
    </trkpt>
    <trkpt lat="38.671487002" lon="34.846393">
      <ele>1066.044</ele>
      <time>2021-10-12T14:05:23Z</time>
    </trkpt>
    <trkpt lat="38.671478033" lon="34.846434994">
      <ele>1066.498</ele>
      <time>2021-10-12T14:05:24Z</time>
    </trkpt>
    <trkpt lat="38.671465963" lon="34.846475981">
      <ele>1066.941</ele>
      <time>2021-10-12T14:05:25Z</time>
    </trkpt>
    <trkpt lat="38.671461018" lon="34.846500037">
      <ele>1067.2</ele>
      <time>2021-10-12T14:05:26Z</time>
    </trkpt>
    <trkpt lat="38.671456994" lon="34.846523004">
      <ele>1067.448</ele>
      <time>2021-10-12T14:05:27Z</time>
    </trkpt>
    <trkpt lat="38.671453977" lon="34.846546976">
      <ele>1067.707</ele>
      <time>2021-10-12T14:05:27Z</time>
    </trkpt>
    <trkpt lat="38.67145096" lon="34.846571032">
      <ele>1067.967</ele>
      <time>2021-10-12T14:05:28Z</time>
    </trkpt>
    <trkpt lat="38.671459006" lon="34.846615037">
      <ele>1068.442</ele>
      <time>2021-10-12T14:05:29Z</time>
    </trkpt>
    <trkpt lat="38.671460012" lon="34.846639009">
      <ele>1068.701</ele>
      <time>2021-10-12T14:05:30Z</time>
    </trkpt>
    <trkpt lat="38.671465041" lon="34.846677985">
      <ele>1069.193</ele>
      <time>2021-10-12T14:05:31Z</time>
    </trkpt>
    <trkpt lat="38.671460012" lon="34.846701035">
      <ele>1069.587</ele>
      <time>2021-10-12T14:05:32Z</time>
    </trkpt>
    <trkpt lat="38.671454983" lon="34.846725008">
      <ele>1070.0</ele>
      <time>2021-10-12T14:05:33Z</time>
    </trkpt>
    <trkpt lat="38.671445008" lon="34.846760966">
      <ele>1070.629</ele>
      <time>2021-10-12T14:05:34Z</time>
    </trkpt>
    <trkpt lat="38.671437968" lon="34.846792985">
      <ele>1071.193</ele>
      <time>2021-10-12T14:05:35Z</time>
    </trkpt>
    <trkpt lat="38.671434028" lon="34.846832966">
      <ele>1071.896</ele>
      <time>2021-10-12T14:05:36Z</time>
    </trkpt>
    <trkpt lat="38.671433022" lon="34.846865991">
      <ele>1072.474</ele>
      <time>2021-10-12T14:05:37Z</time>
    </trkpt>
    <trkpt lat="38.671435034" lon="34.846901027">
      <ele>1073.078</ele>
      <time>2021-10-12T14:05:38Z</time>
    </trkpt>
    <trkpt lat="38.671438973" lon="34.846938998">
      <ele>1073.725</ele>
      <time>2021-10-12T14:05:39Z</time>
    </trkpt>
    <trkpt lat="38.671438973" lon="34.846974034">
      <ele>1074.265</ele>
      <time>2021-10-12T14:05:40Z</time>
    </trkpt>
    <trkpt lat="38.671441991" lon="34.847020973">
      <ele>1074.964</ele>
      <time>2021-10-12T14:05:41Z</time>
    </trkpt>
    <trkpt lat="38.67144702" lon="34.847044023">
      <ele>1075.3</ele>
      <time>2021-10-12T14:05:42Z</time>
    </trkpt>
    <trkpt lat="38.671450038" lon="34.84708501">
      <ele>1075.915</ele>
      <time>2021-10-12T14:05:43Z</time>
    </trkpt>
    <trkpt lat="38.671446014" lon="34.847129015">
      <ele>1076.589</ele>
      <time>2021-10-12T14:05:45Z</time>
    </trkpt>
    <trkpt lat="38.671454983" lon="34.84717696">
      <ele>1077.309</ele>
      <time>2021-10-12T14:05:46Z</time>
    </trkpt>
    <trkpt lat="38.671460012" lon="34.847201016">
      <ele>1077.675</ele>
      <time>2021-10-12T14:05:47Z</time>
    </trkpt>
    <trkpt lat="38.671462024" lon="34.847224988">
      <ele>1078.052</ele>
      <time>2021-10-12T14:05:47Z</time>
    </trkpt>
    <trkpt lat="38.671461018" lon="34.847263964">
      <ele>1078.79</ele>
      <time>2021-10-12T14:05:49Z</time>
    </trkpt>
    <trkpt lat="38.671466969" lon="34.847293971">
      <ele>1079.364</ele>
      <time>2021-10-12T14:05:49Z</time>
    </trkpt>
    <trkpt lat="38.671471998" lon="34.847323978">
      <ele>1079.941</ele>
      <time>2021-10-12T14:05:50Z</time>
    </trkpt>
    <trkpt lat="38.671482978" lon="34.847355997">
      <ele>1080.571</ele>
      <time>2021-10-12T14:05:51Z</time>
    </trkpt>
    <trkpt lat="38.671490019" lon="34.847380975">
      <ele>1081.066</ele>
      <time>2021-10-12T14:05:52Z</time>
    </trkpt>
    <trkpt lat="38.671502005" lon="34.847410982">
      <ele>1081.674</ele>
      <time>2021-10-12T14:05:53Z</time>
    </trkpt>
    <trkpt lat="38.67150804" lon="34.84744803">
      <ele>1082.413</ele>
      <time>2021-10-12T14:05:54Z</time>
    </trkpt>
    <trkpt lat="38.671504017" lon="34.847486001">
      <ele>1083.142</ele>
      <time>2021-10-12T14:05:55Z</time>
    </trkpt>
    <trkpt lat="38.671504017" lon="34.847521037">
      <ele>1084.033</ele>
      <time>2021-10-12T14:05:56Z</time>
    </trkpt>
    <trkpt lat="38.671507034" lon="34.847555989">
      <ele>1085.068</ele>
      <time>2021-10-12T14:05:57Z</time>
    </trkpt>
    <trkpt lat="38.671508962" lon="34.847598989">
      <ele>1086.331</ele>
      <time>2021-10-12T14:05:59Z</time>
    </trkpt>
    <trkpt lat="38.671506029" lon="34.847632013">
      <ele>1087.298</ele>
      <time>2021-10-12T14:06:00Z</time>
    </trkpt>
    <trkpt lat="38.671506029" lon="34.84765498">
      <ele>1087.972</ele>
      <time>2021-10-12T14:06:00Z</time>
    </trkpt>
    <trkpt lat="38.671504017" lon="34.847681969">
      <ele>1088.767</ele>
      <time>2021-10-12T14:06:01Z</time>
    </trkpt>
    <trkpt lat="38.671499994" lon="34.847714994">
      <ele>1089.747</ele>
      <time>2021-10-12T14:06:02Z</time>
    </trkpt>
    <trkpt lat="38.671497982" lon="34.84774299">
      <ele>1090.579</ele>
      <time>2021-10-12T14:06:03Z</time>
    </trkpt>
    <trkpt lat="38.671499994" lon="34.847772997">
      <ele>1091.459</ele>
      <time>2021-10-12T14:06:04Z</time>
    </trkpt>
    <trkpt lat="38.67151198" lon="34.84779303">
      <ele>1092.027</ele>
      <time>2021-10-12T14:06:04Z</time>
    </trkpt>
    <trkpt lat="38.671533018" lon="34.847799987">
      <ele>1092.159</ele>
      <time>2021-10-12T14:06:05Z</time>
    </trkpt>
    <trkpt lat="38.671552967" lon="34.847801998">
      <ele>1092.143</ele>
      <time>2021-10-12T14:06:06Z</time>
    </trkpt>
    <trkpt lat="38.671575012" lon="34.847807027">
      <ele>1092.207</ele>
      <time>2021-10-12T14:06:07Z</time>
    </trkpt>
    <trkpt lat="38.671618011" lon="34.847836029">
      <ele>1092.89</ele>
      <time>2021-10-12T14:06:09Z</time>
    </trkpt>
    <trkpt lat="38.671645001" lon="34.847848015">
      <ele>1093.121</ele>
      <time>2021-10-12T14:06:10Z</time>
    </trkpt>
    <trkpt lat="38.671674002" lon="34.84785296">
      <ele>1093.202</ele>
      <time>2021-10-12T14:06:11Z</time>
    </trkpt>
    <trkpt lat="38.67169898" lon="34.847850027">
      <ele>1093.248</ele>
      <time>2021-10-12T14:06:12Z</time>
    </trkpt>
    <trkpt lat="38.67172203" lon="34.847844997">
      <ele>1093.244</ele>
      <time>2021-10-12T14:06:13Z</time>
    </trkpt>
    <trkpt lat="38.671757989" lon="34.847843992">
      <ele>1093.423</ele>
      <time>2021-10-12T14:06:14Z</time>
    </trkpt>
    <trkpt lat="38.67177601" lon="34.847850027">
      <ele>1093.647</ele>
      <time>2021-10-12T14:06:15Z</time>
    </trkpt>
    <trkpt lat="38.671806017" lon="34.847862013">
      <ele>1094.018</ele>
      <time>2021-10-12T14:06:16Z</time>
    </trkpt>
    <trkpt lat="38.671821021" lon="34.84787601">
      <ele>1094.317</ele>
      <time>2021-10-12T14:06:16Z</time>
    </trkpt>
    <trkpt lat="38.67183703" lon="34.847904006">
      <ele>1094.803</ele>
      <time>2021-10-12T14:06:17Z</time>
    </trkpt>
    <trkpt lat="38.67181398" lon="34.847928984">
      <ele>1095.214</ele>
      <time>2021-10-12T14:06:18Z</time>
    </trkpt>
    <trkpt lat="38.671783973" lon="34.847943988">
      <ele>1095.538</ele>
      <time>2021-10-12T14:06:20Z</time>
    </trkpt>
    <trkpt lat="38.671766035" lon="34.84795698">
      <ele>1095.85</ele>
      <time>2021-10-12T14:06:20Z</time>
    </trkpt>
    <trkpt lat="38.671741979" lon="34.847970977">
      <ele>1096.246</ele>
      <time>2021-10-12T14:06:21Z</time>
    </trkpt>
    <trkpt lat="38.671723036" lon="34.847996039">
      <ele>1096.938</ele>
      <time>2021-10-12T14:06:22Z</time>
    </trkpt>
    <trkpt lat="38.671701998" lon="34.848025963">
      <ele>1097.847</ele>
      <time>2021-10-12T14:06:24Z</time>
    </trkpt>
    <trkpt lat="38.671680959" lon="34.848062005">
      <ele>1098.961</ele>
      <time>2021-10-12T14:06:25Z</time>
    </trkpt>
    <trkpt lat="38.671666039" lon="34.848088995">
      <ele>1099.607</ele>
      <time>2021-10-12T14:06:26Z</time>
    </trkpt>
    <trkpt lat="38.671652963" lon="34.848107016">
      <ele>1100.043</ele>
      <time>2021-10-12T14:06:27Z</time>
    </trkpt>
    <trkpt lat="38.671640977" lon="34.848131994">
      <ele>1100.612</ele>
      <time>2021-10-12T14:06:27Z</time>
    </trkpt>
    <trkpt lat="38.671629997" lon="34.84815496">
      <ele>1101.148</ele>
      <time>2021-10-12T14:06:28Z</time>
    </trkpt>
    <trkpt lat="38.671615999" lon="34.848181028">
      <ele>1101.788</ele>
      <time>2021-10-12T14:06:29Z</time>
    </trkpt>
    <trkpt lat="38.671603007" lon="34.848199971">
      <ele>1102.296</ele>
      <time>2021-10-12T14:06:30Z</time>
    </trkpt>
    <trkpt lat="38.671584986" lon="34.848217992">
      <ele>1102.856</ele>
      <time>2021-10-12T14:06:31Z</time>
    </trkpt>
    <trkpt lat="38.671566965" lon="34.848240037">
      <ele>1103.515</ele>
      <time>2021-10-12T14:06:32Z</time>
    </trkpt>
    <trkpt lat="38.671550034" lon="34.848265015">
      <ele>1104.243</ele>
      <time>2021-10-12T14:06:33Z</time>
    </trkpt>
    <trkpt lat="38.671533018" lon="34.848280018">
      <ele>1104.78</ele>
      <time>2021-10-12T14:06:33Z</time>
    </trkpt>
    <trkpt lat="38.67151198" lon="34.848295022">
      <ele>1105.384</ele>
      <time>2021-10-12T14:06:34Z</time>
    </trkpt>
    <trkpt lat="38.671492031" lon="34.84830902">
      <ele>1105.967</ele>
      <time>2021-10-12T14:06:35Z</time>
    </trkpt>
    <trkpt lat="38.671480967" lon="34.848329974">
      <ele>1106.597</ele>
      <time>2021-10-12T14:06:36Z</time>
    </trkpt>
    <trkpt lat="38.671460012" lon="34.848360987">
      <ele>1107.175</ele>
      <time>2021-10-12T14:06:37Z</time>
    </trkpt>
    <trkpt lat="38.671437968" lon="34.848386971">
      <ele>1107.679</ele>
      <time>2021-10-12T14:06:38Z</time>
    </trkpt>
    <trkpt lat="38.671412989" lon="34.84840801">
      <ele>1108.191</ele>
      <time>2021-10-12T14:06:39Z</time>
    </trkpt>
    <trkpt lat="38.671389017" lon="34.848427959">
      <ele>1108.679</ele>
      <time>2021-10-12T14:06:40Z</time>
    </trkpt>
    <trkpt lat="38.671364961" lon="34.848454027">
      <ele>1108.884</ele>
      <time>2021-10-12T14:06:41Z</time>
    </trkpt>
    <trkpt lat="38.671349036" lon="34.848476993">
      <ele>1109.118</ele>
      <time>2021-10-12T14:06:42Z</time>
    </trkpt>
    <trkpt lat="38.67133202" lon="34.848494008">
      <ele>1109.34</ele>
      <time>2021-10-12T14:06:43Z</time>
    </trkpt>
    <trkpt lat="38.671315005" lon="34.848510018">
      <ele>1109.586</ele>
      <time>2021-10-12T14:06:44Z</time>
    </trkpt>
    <trkpt lat="38.671306036" lon="34.848531978">
      <ele>1109.9</ele>
      <time>2021-10-12T14:06:45Z</time>
    </trkpt>
    <trkpt lat="38.671286004" lon="34.848561985">
      <ele>1110.43</ele>
      <time>2021-10-12T14:06:46Z</time>
    </trkpt>
    <trkpt lat="38.671268988" lon="34.848586041">
      <ele>1110.92</ele>
      <time>2021-10-12T14:06:47Z</time>
    </trkpt>
    <trkpt lat="38.671249039" lon="34.848614037">
      <ele>1111.563</ele>
      <time>2021-10-12T14:06:48Z</time>
    </trkpt>
    <trkpt lat="38.671232024" lon="34.848629963">
      <ele>1112.033</ele>
      <time>2021-10-12T14:06:49Z</time>
    </trkpt>
    <trkpt lat="38.671214003" lon="34.848655025">
      <ele>1112.679</ele>
      <time>2021-10-12T14:06:50Z</time>
    </trkpt>
    <trkpt lat="38.671199" lon="34.848681008">
      <ele>1113.309</ele>
      <time>2021-10-12T14:06:51Z</time>
    </trkpt>
    <trkpt lat="38.671189025" lon="34.848707998">
      <ele>1113.902</ele>
      <time>2021-10-12T14:06:51Z</time>
    </trkpt>
    <trkpt lat="38.671186008" lon="34.848738005">
      <ele>1114.475</ele>
      <time>2021-10-12T14:06:52Z</time>
    </trkpt>
    <trkpt lat="38.671180978" lon="34.848760972">
      <ele>1114.943</ele>
      <time>2021-10-12T14:06:53Z</time>
    </trkpt>
    <trkpt lat="38.671165975" lon="34.848785028">
      <ele>1115.538</ele>
      <time>2021-10-12T14:06:54Z</time>
    </trkpt>
    <trkpt lat="38.671150971" lon="34.848807994">
      <ele>1116.113</ele>
      <time>2021-10-12T14:06:55Z</time>
    </trkpt>
    <trkpt lat="38.671139991" lon="34.848830961">
      <ele>1116.645</ele>
      <time>2021-10-12T14:06:56Z</time>
    </trkpt>
    <trkpt lat="38.671131022" lon="34.84885904">
      <ele>1117.248</ele>
      <time>2021-10-12T14:06:56Z</time>
    </trkpt>
    <trkpt lat="38.671119958" lon="34.848881001">
      <ele>1117.762</ele>
      <time>2021-10-12T14:06:57Z</time>
    </trkpt>
    <trkpt lat="38.671105038" lon="34.848898016">
      <ele>1118.135</ele>
      <time>2021-10-12T14:06:58Z</time>
    </trkpt>
    <trkpt lat="38.671089029" lon="34.848917965">
      <ele>1118.46</ele>
      <time>2021-10-12T14:06:59Z</time>
    </trkpt>
    <trkpt lat="38.671075031" lon="34.848943027">
      <ele>1118.906</ele>
      <time>2021-10-12T14:07:00Z</time>
    </trkpt>
    <trkpt lat="38.671056004" lon="34.848960964">
      <ele>1119.295</ele>
      <time>2021-10-12T14:07:00Z</time>
    </trkpt>
    <trkpt lat="38.671039995" lon="34.848986026">
      <ele>1119.846</ele>
      <time>2021-10-12T14:07:01Z</time>
    </trkpt>
    <trkpt lat="38.671038989" lon="34.849015027">
      <ele>1120.406</ele>
      <time>2021-10-12T14:07:02Z</time>
    </trkpt>
    <trkpt lat="38.671031026" lon="34.84904604">
      <ele>1121.079</ele>
      <time>2021-10-12T14:07:03Z</time>
    </trkpt>
    <trkpt lat="38.671021974" lon="34.849074036">
      <ele>1121.736</ele>
      <time>2021-10-12T14:07:04Z</time>
    </trkpt>
    <trkpt lat="38.671019962" lon="34.849112006">
      <ele>1122.531</ele>
      <time>2021-10-12T14:07:05Z</time>
    </trkpt>
    <trkpt lat="38.671014011" lon="34.849138996">
      <ele>1123.175</ele>
      <time>2021-10-12T14:07:06Z</time>
    </trkpt>
    <trkpt lat="38.671007976" lon="34.849165985">
      <ele>1123.842</ele>
      <time>2021-10-12T14:07:07Z</time>
    </trkpt>
    <trkpt lat="38.671000013" lon="34.849187024">
      <ele>1124.425</ele>
      <time>2021-10-12T14:07:07Z</time>
    </trkpt>
    <trkpt lat="38.670981992" lon="34.849218037">
      <ele>1125.481</ele>
      <time>2021-10-12T14:07:09Z</time>
    </trkpt>
    <trkpt lat="38.670961037" lon="34.849244021">
      <ele>1126.59</ele>
      <time>2021-10-12T14:07:10Z</time>
    </trkpt>
    <trkpt lat="38.670948967" lon="34.849261036">
      <ele>1127.326</ele>
      <time>2021-10-12T14:07:10Z</time>
    </trkpt>
    <trkpt lat="38.670930024" lon="34.849289032">
      <ele>1128.591</ele>
      <time>2021-10-12T14:07:11Z</time>
    </trkpt>
    <trkpt lat="38.670914015" lon="34.849307975">
      <ele>1129.601</ele>
      <time>2021-10-12T14:07:12Z</time>
    </trkpt>
    <trkpt lat="38.670890965" lon="34.849339994">
      <ele>1131.296</ele>
      <time>2021-10-12T14:07:13Z</time>
    </trkpt>
    <trkpt lat="38.670875961" lon="34.849361032">
      <ele>1132.478</ele>
      <time>2021-10-12T14:07:14Z</time>
    </trkpt>
    <trkpt lat="38.670865986" lon="34.849379975">
      <ele>1133.459</ele>
      <time>2021-10-12T14:07:15Z</time>
    </trkpt>
    <trkpt lat="38.670858024" lon="34.849429009">
      <ele>1135.412</ele>
      <time>2021-10-12T14:07:16Z</time>
    </trkpt>
    <trkpt lat="38.670847965" lon="34.849452982">
      <ele>1136.607</ele>
      <time>2021-10-12T14:07:17Z</time>
    </trkpt>
    <trkpt lat="38.670833968" lon="34.849477038">
      <ele>1137.91</ele>
      <time>2021-10-12T14:07:18Z</time>
    </trkpt>
    <trkpt lat="38.670820976" lon="34.84950101">
      <ele>1138.772</ele>
      <time>2021-10-12T14:07:19Z</time>
    </trkpt>
    <trkpt lat="38.670807984" lon="34.849521965">
      <ele>1139.532</ele>
      <time>2021-10-12T14:07:20Z</time>
    </trkpt>
    <trkpt lat="38.670790968" lon="34.849545015">
      <ele>1140.409</ele>
      <time>2021-10-12T14:07:21Z</time>
    </trkpt>
    <trkpt lat="38.670741012" lon="34.849644005">
      <ele>1143.983</ele>
      <time>2021-10-12T14:07:24Z</time>
    </trkpt>
    <trkpt lat="38.670678986" lon="34.849744001">
      <ele>1147.632</ele>
      <time>2021-10-12T14:07:28Z</time>
    </trkpt>
    <trkpt lat="38.670624001" lon="34.849835029">
      <ele>1150.457</ele>
      <time>2021-10-12T14:07:31Z</time>
    </trkpt>
    <trkpt lat="38.670579996" lon="34.849950029">
      <ele>1154.1</ele>
      <time>2021-10-12T14:07:35Z</time>
    </trkpt>
    <trkpt lat="38.670573039" lon="34.84999001">
      <ele>1155.254</ele>
      <time>2021-10-12T14:07:36Z</time>
    </trkpt>
    <trkpt lat="38.670574967" lon="34.850092018">
      <ele>1157.429</ele>
      <time>2021-10-12T14:07:39Z</time>
    </trkpt>
    <trkpt lat="38.670582008" lon="34.850214981">
      <ele>1159.882</ele>
      <time>2021-10-12T14:07:43Z</time>
    </trkpt>
    <trkpt lat="38.670587959" lon="34.850270972">
      <ele>1160.92</ele>
      <time>2021-10-12T14:07:44Z</time>
    </trkpt>
    <trkpt lat="38.670550995" lon="34.850404998">
      <ele>1165.278</ele>
      <time>2021-10-12T14:07:48Z</time>
    </trkpt>
    <trkpt lat="38.670610003" lon="34.850499965">
      <ele>1165.717</ele>
      <time>2021-10-12T14:07:52Z</time>
    </trkpt>
    <trkpt lat="38.670587959" lon="34.850623012">
      <ele>1169.59</ele>
      <time>2021-10-12T14:07:55Z</time>
    </trkpt>
    <trkpt lat="38.670556024" lon="34.85068596">
      <ele>1172.271</ele>
      <time>2021-10-12T14:07:58Z</time>
    </trkpt>
    <trkpt lat="38.670565998" lon="34.850803977">
      <ele>1174.952</ele>
      <time>2021-10-12T14:08:01Z</time>
    </trkpt>
    <trkpt lat="38.670558035" lon="34.850927023">
      <ele>1178.961</ele>
      <time>2021-10-12T14:08:05Z</time>
    </trkpt>
    <trkpt lat="38.670485029" lon="34.850950995">
      <ele>1182.644</ele>
      <time>2021-10-12T14:08:07Z</time>
    </trkpt>
    <trkpt lat="38.670457033" lon="34.850941021">
      <ele>1183.47</ele>
      <time>2021-10-12T14:08:09Z</time>
    </trkpt>
    <trkpt lat="38.670428032" lon="34.850936998">
      <ele>1184.525</ele>
      <time>2021-10-12T14:08:10Z</time>
    </trkpt>
    <trkpt lat="38.670406993" lon="34.85093398">
      <ele>1185.291</ele>
      <time>2021-10-12T14:08:10Z</time>
    </trkpt>
    <trkpt lat="38.670373969" lon="34.850934986">
      <ele>1186.66</ele>
      <time>2021-10-12T14:08:12Z</time>
    </trkpt>
    <trkpt lat="38.670348991" lon="34.850939009">
      <ele>1187.782</ele>
      <time>2021-10-12T14:08:13Z</time>
    </trkpt>
    <trkpt lat="38.670329964" lon="34.850936998">
      <ele>1188.498</ele>
      <time>2021-10-12T14:08:13Z</time>
    </trkpt>
    <trkpt lat="38.670258969" lon="34.850952001">
      <ele>1191.706</ele>
      <time>2021-10-12T14:08:16Z</time>
    </trkpt>
    <trkpt lat="38.670213036" lon="34.850930963">
      <ele>1192.942</ele>
      <time>2021-10-12T14:08:18Z</time>
    </trkpt>
    <trkpt lat="38.670197027" lon="34.85094496">
      <ele>1193.894</ele>
      <time>2021-10-12T14:08:18Z</time>
    </trkpt>
    <trkpt lat="38.670196021" lon="34.850975974">
      <ele>1194.681</ele>
      <time>2021-10-12T14:08:19Z</time>
    </trkpt>
    <trkpt lat="38.670187974" lon="34.850997012">
      <ele>1195.49</ele>
      <time>2021-10-12T14:08:20Z</time>
    </trkpt>
    <trkpt lat="38.670182023" lon="34.851022996">
      <ele>1196.336</ele>
      <time>2021-10-12T14:08:21Z</time>
    </trkpt>
    <trkpt lat="38.670169031" lon="34.851051997">
      <ele>1197.509</ele>
      <time>2021-10-12T14:08:22Z</time>
    </trkpt>
    <trkpt lat="38.670158973" lon="34.851071024">
      <ele>1198.329</ele>
      <time>2021-10-12T14:08:22Z</time>
    </trkpt>
    <trkpt lat="38.670160985" lon="34.85114797">
      <ele>1200.133</ele>
      <time>2021-10-12T14:08:25Z</time>
    </trkpt>
    <trkpt lat="38.670176994" lon="34.851186024">
      <ele>1200.516</ele>
      <time>2021-10-12T14:08:26Z</time>
    </trkpt>
    <trkpt lat="38.670180012" lon="34.85121402">
      <ele>1201.113</ele>
      <time>2021-10-12T14:08:27Z</time>
    </trkpt>
    <trkpt lat="38.670176994" lon="34.851247966">
      <ele>1202.077</ele>
      <time>2021-10-12T14:08:28Z</time>
    </trkpt>
    <trkpt lat="38.670145981" lon="34.851358021">
      <ele>1205.967</ele>
      <time>2021-10-12T14:08:31Z</time>
    </trkpt>
    <trkpt lat="38.670093007" lon="34.851457011">
      <ele>1210.941</ele>
      <time>2021-10-12T14:08:35Z</time>
    </trkpt>
    <trkpt lat="38.670082027" lon="34.851493975">
      <ele>1212.564</ele>
      <time>2021-10-12T14:08:36Z</time>
    </trkpt>
    <trkpt lat="38.670076998" lon="34.851525994">
      <ele>1213.807</ele>
      <time>2021-10-12T14:08:37Z</time>
    </trkpt>
    <trkpt lat="38.670027964" lon="34.851630013">
      <ele>1218.893</ele>
      <time>2021-10-12T14:08:40Z</time>
    </trkpt>
    <trkpt lat="38.670000974" lon="34.851704026">
      <ele>1221.643</ele>
      <time>2021-10-12T14:08:43Z</time>
    </trkpt>
    <trkpt lat="38.669989994" lon="34.85173001">
      <ele>1222.215</ele>
      <time>2021-10-12T14:08:43Z</time>
    </trkpt>
    <trkpt lat="38.669982031" lon="34.85170302">
      <ele>1221.815</ele>
      <time>2021-10-12T14:08:44Z</time>
    </trkpt>
    <trkpt lat="38.669973984" lon="34.85167603">
      <ele>1221.437</ele>
      <time>2021-10-12T14:08:45Z</time>
    </trkpt>
    <trkpt lat="38.669969961" lon="34.851628002">
      <ele>1220.162</ele>
      <time>2021-10-12T14:08:47Z</time>
    </trkpt>
    <trkpt lat="38.669957975" lon="34.851601012">
      <ele>1219.541</ele>
      <time>2021-10-12T14:08:47Z</time>
    </trkpt>
    <trkpt lat="38.669949006" lon="34.851573016">
      <ele>1218.888</ele>
      <time>2021-10-12T14:08:48Z</time>
    </trkpt>
    <trkpt lat="38.669936014" lon="34.851548038">
      <ele>1218.438</ele>
      <time>2021-10-12T14:08:49Z</time>
    </trkpt>
    <trkpt lat="38.669925034" lon="34.851518031">
      <ele>1217.86</ele>
      <time>2021-10-12T14:08:50Z</time>
    </trkpt>
    <trkpt lat="38.669911958" lon="34.851494981">
      <ele>1217.564</ele>
      <time>2021-10-12T14:08:51Z</time>
    </trkpt>
    <trkpt lat="38.66989796" lon="34.851466985">
      <ele>1217.217</ele>
      <time>2021-10-12T14:08:52Z</time>
    </trkpt>
    <trkpt lat="38.669881029" lon="34.851439996">
      <ele>1217.038</ele>
      <time>2021-10-12T14:08:53Z</time>
    </trkpt>
    <trkpt lat="38.669864014" lon="34.851410994">
      <ele>1216.888</ele>
      <time>2021-10-12T14:08:54Z</time>
    </trkpt>
    <trkpt lat="38.669844987" lon="34.851381993">
      <ele>1216.849</ele>
      <time>2021-10-12T14:08:55Z</time>
    </trkpt>
    <trkpt lat="38.669826966" lon="34.851357015">
      <ele>1216.803</ele>
      <time>2021-10-12T14:08:56Z</time>
    </trkpt>
    <trkpt lat="38.669809029" lon="34.851332037">
      <ele>1216.755</ele>
      <time>2021-10-12T14:08:57Z</time>
    </trkpt>
    <trkpt lat="38.669786984" lon="34.851303035">
      <ele>1216.738</ele>
      <time>2021-10-12T14:08:58Z</time>
    </trkpt>
    <trkpt lat="38.669764018" lon="34.851277974">
      <ele>1216.851</ele>
      <time>2021-10-12T14:08:59Z</time>
    </trkpt>
    <trkpt lat="38.669741973" lon="34.851255007">
      <ele>1216.986</ele>
      <time>2021-10-12T14:09:00Z</time>
    </trkpt>
    <trkpt lat="38.669720013" lon="34.851232041">
      <ele>1217.068</ele>
      <time>2021-10-12T14:09:01Z</time>
    </trkpt>
    <trkpt lat="38.669695035" lon="34.851206979">
      <ele>1216.676</ele>
      <time>2021-10-12T14:09:03Z</time>
    </trkpt>
    <trkpt lat="38.669671984" lon="34.851184012">
      <ele>1216.332</ele>
      <time>2021-10-12T14:09:04Z</time>
    </trkpt>
    <trkpt lat="38.669648012" lon="34.851157023">
      <ele>1215.914</ele>
      <time>2021-10-12T14:09:05Z</time>
    </trkpt>
    <trkpt lat="38.669625968" lon="34.851131039">
      <ele>1215.517</ele>
      <time>2021-10-12T14:09:06Z</time>
    </trkpt>
    <trkpt lat="38.669603001" lon="34.851111006">
      <ele>1215.285</ele>
      <time>2021-10-12T14:09:07Z</time>
    </trkpt>
    <trkpt lat="38.669578023" lon="34.851092985">
      <ele>1215.132</ele>
      <time>2021-10-12T14:09:08Z</time>
    </trkpt>
    <trkpt lat="38.669550028" lon="34.851076975">
      <ele>1215.046</ele>
      <time>2021-10-12T14:09:09Z</time>
    </trkpt>
    <trkpt lat="38.669524966" lon="34.851054009">
      <ele>1214.751</ele>
      <time>2021-10-12T14:09:10Z</time>
    </trkpt>
    <trkpt lat="38.669498982" lon="34.851033976">
      <ele>1214.522</ele>
      <time>2021-10-12T14:09:11Z</time>
    </trkpt>
    <trkpt lat="38.669474004" lon="34.851012016">
      <ele>1214.222</ele>
      <time>2021-10-12T14:09:13Z</time>
    </trkpt>
    <trkpt lat="38.669449026" lon="34.850990977">
      <ele>1213.93</ele>
      <time>2021-10-12T14:09:14Z</time>
    </trkpt>
    <trkpt lat="38.669425976" lon="34.850979997">
      <ele>1214.06</ele>
      <time>2021-10-12T14:09:15Z</time>
    </trkpt>
    <trkpt lat="38.669399992" lon="34.850968011">
      <ele>1214.276</ele>
      <time>2021-10-12T14:09:16Z</time>
    </trkpt>
    <trkpt lat="38.66937099" lon="34.850946972">
      <ele>1214.342</ele>
      <time>2021-10-12T14:09:17Z</time>
    </trkpt>
    <trkpt lat="38.669345006" lon="34.850925012">
      <ele>1214.34</ele>
      <time>2021-10-12T14:09:18Z</time>
    </trkpt>
    <trkpt lat="38.669323968" lon="34.850900033">
      <ele>1214.179</ele>
      <time>2021-10-12T14:09:19Z</time>
    </trkpt>
    <trkpt lat="38.669304019" lon="34.850866003">
      <ele>1213.797</ele>
      <time>2021-10-12T14:09:20Z</time>
    </trkpt>
    <trkpt lat="38.669288009" lon="34.85082401">
      <ele>1213.159</ele>
      <time>2021-10-12T14:09:22Z</time>
    </trkpt>
    <trkpt lat="38.669272" lon="34.85078101">
      <ele>1212.478</ele>
      <time>2021-10-12T14:09:23Z</time>
    </trkpt>
    <trkpt lat="38.669255991" lon="34.850745974">
      <ele>1211.97</ele>
      <time>2021-10-12T14:09:24Z</time>
    </trkpt>
    <trkpt lat="38.669241993" lon="34.850714039">
      <ele>1211.483</ele>
      <time>2021-10-12T14:09:25Z</time>
    </trkpt>
    <trkpt lat="38.669222966" lon="34.850683026">
      <ele>1211.106</ele>
      <time>2021-10-12T14:09:26Z</time>
    </trkpt>
    <trkpt lat="38.669202011" lon="34.850654025">
      <ele>1210.8</ele>
      <time>2021-10-12T14:09:28Z</time>
    </trkpt>
    <trkpt lat="38.66918399" lon="34.850628963">
      <ele>1210.522</ele>
      <time>2021-10-12T14:09:29Z</time>
    </trkpt>
    <trkpt lat="38.669159012" lon="34.850609014">
      <ele>1210.562</ele>
      <time>2021-10-12T14:09:30Z</time>
    </trkpt>
    <trkpt lat="38.669127999" lon="34.85059401">
      <ele>1211.063</ele>
      <time>2021-10-12T14:09:31Z</time>
    </trkpt>
    <trkpt lat="38.669097992" lon="34.850580012">
      <ele>1211.572</ele>
      <time>2021-10-12T14:09:32Z</time>
    </trkpt>
    <trkpt lat="38.669072008" lon="34.850568026">
      <ele>1212.025</ele>
      <time>2021-10-12T14:09:33Z</time>
    </trkpt>
    <trkpt lat="38.669046024" lon="34.850545982">
      <ele>1212.214</ele>
      <time>2021-10-12T14:09:34Z</time>
    </trkpt>
    <trkpt lat="38.669022974" lon="34.850519998">
      <ele>1212.181</ele>
      <time>2021-10-12T14:09:35Z</time>
    </trkpt>
    <trkpt lat="38.669001013" lon="34.850492002">
      <ele>1212.077</ele>
      <time>2021-10-12T14:09:37Z</time>
    </trkpt>
    <trkpt lat="38.668977963" lon="34.850461995">
      <ele>1211.969</ele>
      <time>2021-10-12T14:09:38Z</time>
    </trkpt>
    <trkpt lat="38.668952985" lon="34.850439029">
      <ele>1212.121</ele>
      <time>2021-10-12T14:09:39Z</time>
    </trkpt>
    <trkpt lat="38.668928007" lon="34.850411033">
      <ele>1212.158</ele>
      <time>2021-10-12T14:09:40Z</time>
    </trkpt>
    <trkpt lat="38.668903029" lon="34.850385971">
      <ele>1212.288</ele>
      <time>2021-10-12T14:09:41Z</time>
    </trkpt>
    <trkpt lat="38.668880984" lon="34.850366022">
      <ele>1212.242</ele>
      <time>2021-10-12T14:09:42Z</time>
    </trkpt>
    <trkpt lat="38.668857012" lon="34.850350013">
      <ele>1211.88</ele>
      <time>2021-10-12T14:09:43Z</time>
    </trkpt>
    <trkpt lat="38.668832034" lon="34.850340961">
      <ele>1211.685</ele>
      <time>2021-10-12T14:09:44Z</time>
    </trkpt>
    <trkpt lat="38.668806972" lon="34.850340961">
      <ele>1211.726</ele>
      <time>2021-10-12T14:09:45Z</time>
    </trkpt>
    <trkpt lat="38.668781994" lon="34.850337021">
      <ele>1211.657</ele>
      <time>2021-10-12T14:09:46Z</time>
    </trkpt>
    <trkpt lat="38.668755004" lon="34.850339033">
      <ele>1211.756</ele>
      <time>2021-10-12T14:09:47Z</time>
    </trkpt>
    <trkpt lat="38.668731032" lon="34.850343978">
      <ele>1211.939</ele>
      <time>2021-10-12T14:09:48Z</time>
    </trkpt>
    <trkpt lat="38.66870597" lon="34.850352025">
      <ele>1212.223</ele>
      <time>2021-10-12T14:09:49Z</time>
    </trkpt>
    <trkpt lat="38.668679986" lon="34.850359987">
      <ele>1212.517</ele>
      <time>2021-10-12T14:09:50Z</time>
    </trkpt>
    <trkpt lat="38.668652996" lon="34.850366022">
      <ele>1212.763</ele>
      <time>2021-10-12T14:09:51Z</time>
    </trkpt>
    <trkpt lat="38.668631036" lon="34.850381026">
      <ele>1213.292</ele>
      <time>2021-10-12T14:09:52Z</time>
    </trkpt>
    <trkpt lat="38.66860304" lon="34.850398041">
      <ele>1213.656</ele>
      <time>2021-10-12T14:09:53Z</time>
    </trkpt>
    <trkpt lat="38.668580996" lon="34.850415979">
      <ele>1213.609</ele>
      <time>2021-10-12T14:09:54Z</time>
    </trkpt>
    <trkpt lat="38.668561969" lon="34.850435006">
      <ele>1213.726</ele>
      <time>2021-10-12T14:09:55Z</time>
    </trkpt>
    <trkpt lat="38.668541014" lon="34.850459984">
      <ele>1214.042</ele>
      <time>2021-10-12T14:09:56Z</time>
    </trkpt>
    <trkpt lat="38.668516036" lon="34.850483034">
      <ele>1214.239</ele>
      <time>2021-10-12T14:09:57Z</time>
    </trkpt>
    <trkpt lat="38.66849198" lon="34.850509018">
      <ele>1214.632</ele>
      <time>2021-10-12T14:09:58Z</time>
    </trkpt>
    <trkpt lat="38.668465996" lon="34.850540031">
      <ele>1215.246</ele>
      <time>2021-10-12T14:10:00Z</time>
    </trkpt>
    <trkpt lat="38.668438001" lon="34.85057096">
      <ele>1215.642</ele>
      <time>2021-10-12T14:10:01Z</time>
    </trkpt>
    <trkpt lat="38.668414028" lon="34.850600967">
      <ele>1215.908</ele>
      <time>2021-10-12T14:10:02Z</time>
    </trkpt>
    <trkpt lat="38.668387039" lon="34.850636004">
      <ele>1216.309</ele>
      <time>2021-10-12T14:10:04Z</time>
    </trkpt>
    <trkpt lat="38.668358959" lon="34.850666011">
      <ele>1216.625</ele>
      <time>2021-10-12T14:10:05Z</time>
    </trkpt>
    <trkpt lat="38.668327024" lon="34.850693">
      <ele>1216.833</ele>
      <time>2021-10-12T14:10:06Z</time>
    </trkpt>
    <trkpt lat="38.668301962" lon="34.850714039">
      <ele>1216.951</ele>
      <time>2021-10-12T14:10:08Z</time>
    </trkpt>
    <trkpt lat="38.668271033" lon="34.850733988">
      <ele>1216.937</ele>
      <time>2021-10-12T14:10:09Z</time>
    </trkpt>
    <trkpt lat="38.66824002" lon="34.850755027">
      <ele>1216.97</ele>
      <time>2021-10-12T14:10:10Z</time>
    </trkpt>
    <trkpt lat="38.668212024" lon="34.85077003">
      <ele>1216.894</ele>
      <time>2021-10-12T14:10:11Z</time>
    </trkpt>
    <trkpt lat="38.668175982" lon="34.850787967">
      <ele>1216.769</ele>
      <time>2021-10-12T14:10:13Z</time>
    </trkpt>
    <trkpt lat="38.668148993" lon="34.850802971">
      <ele>1216.735</ele>
      <time>2021-10-12T14:10:14Z</time>
    </trkpt>
    <trkpt lat="38.668124015" lon="34.850819986">
      <ele>1216.812</ele>
      <time>2021-10-12T14:10:15Z</time>
    </trkpt>
    <trkpt lat="38.668108005" lon="34.850842031">
      <ele>1217.151</ele>
      <time>2021-10-12T14:10:16Z</time>
    </trkpt>
    <trkpt lat="38.668089984" lon="34.850870026">
      <ele>1217.512</ele>
      <time>2021-10-12T14:10:17Z</time>
    </trkpt>
    <trkpt lat="38.668068023" lon="34.850893999">
      <ele>1217.734</ele>
      <time>2021-10-12T14:10:18Z</time>
    </trkpt>
    <trkpt lat="38.668045979" lon="34.850916965">
      <ele>1217.818</ele>
      <time>2021-10-12T14:10:19Z</time>
    </trkpt>
    <trkpt lat="38.668023013" lon="34.850942027">
      <ele>1217.776</ele>
      <time>2021-10-12T14:10:20Z</time>
    </trkpt>
    <trkpt lat="38.667996023" lon="34.850961976">
      <ele>1217.511</ele>
      <time>2021-10-12T14:10:21Z</time>
    </trkpt>
    <trkpt lat="38.667970961" lon="34.850976979">
      <ele>1217.194</ele>
      <time>2021-10-12T14:10:22Z</time>
    </trkpt>
    <trkpt lat="38.667940032" lon="34.850996006">
      <ele>1216.843</ele>
      <time>2021-10-12T14:10:23Z</time>
    </trkpt>
    <trkpt lat="38.667912036" lon="34.851010004">
      <ele>1216.459</ele>
      <time>2021-10-12T14:10:25Z</time>
    </trkpt>
    <trkpt lat="38.667884963" lon="34.851018973">
      <ele>1215.972</ele>
      <time>2021-10-12T14:10:26Z</time>
    </trkpt>
    <trkpt lat="38.667856967" lon="34.851030959">
      <ele>1215.563</ele>
      <time>2021-10-12T14:10:27Z</time>
    </trkpt>
    <trkpt lat="38.667829977" lon="34.851049986">
      <ele>1215.418</ele>
      <time>2021-10-12T14:10:28Z</time>
    </trkpt>
    <trkpt lat="38.667806005" lon="34.851071024">
      <ele>1215.442</ele>
      <time>2021-10-12T14:10:29Z</time>
    </trkpt>
    <trkpt lat="38.667786978" lon="34.851093991">
      <ele>1215.681</ele>
      <time>2021-10-12T14:10:30Z</time>
    </trkpt>
    <trkpt lat="38.667769963" lon="34.851118969">
      <ele>1215.828</ele>
      <time>2021-10-12T14:10:31Z</time>
    </trkpt>
    <trkpt lat="38.667748002" lon="34.851152999">
      <ele>1215.538</ele>
      <time>2021-10-12T14:10:32Z</time>
    </trkpt>
    <trkpt lat="38.667729981" lon="34.851185018">
      <ele>1215.303</ele>
      <time>2021-10-12T14:10:33Z</time>
    </trkpt>
    <trkpt lat="38.667709026" lon="34.851217959">
      <ele>1214.862</ele>
      <time>2021-10-12T14:10:34Z</time>
    </trkpt>
    <trkpt lat="38.66769" lon="34.851249978">
      <ele>1214.418</ele>
      <time>2021-10-12T14:10:36Z</time>
    </trkpt>
    <trkpt lat="38.667672984" lon="34.851278979">
      <ele>1213.959</ele>
      <time>2021-10-12T14:10:37Z</time>
    </trkpt>
    <trkpt lat="38.667651024" lon="34.851314016">
      <ele>1213.24</ele>
      <time>2021-10-12T14:10:38Z</time>
    </trkpt>
    <trkpt lat="38.667635014" lon="34.851346035">
      <ele>1212.734</ele>
      <time>2021-10-12T14:10:39Z</time>
    </trkpt>
    <trkpt lat="38.667621017" lon="34.851379981">
      <ele>1212.304</ele>
      <time>2021-10-12T14:10:40Z</time>
    </trkpt>
    <trkpt lat="38.667608025" lon="34.851415018">
      <ele>1211.878</ele>
      <time>2021-10-12T14:10:41Z</time>
    </trkpt>
    <trkpt lat="38.66760199" lon="34.851447036">
      <ele>1211.849</ele>
      <time>2021-10-12T14:10:42Z</time>
    </trkpt>
    <trkpt lat="38.667595033" lon="34.851488024">
      <ele>1211.877</ele>
      <time>2021-10-12T14:10:43Z</time>
    </trkpt>
    <trkpt lat="38.667592015" lon="34.851528006">
      <ele>1212.137</ele>
      <time>2021-10-12T14:10:45Z</time>
    </trkpt>
    <trkpt lat="38.667593021" lon="34.851573016">
      <ele>1212.678</ele>
      <time>2021-10-12T14:10:46Z</time>
    </trkpt>
    <trkpt lat="38.667594027" lon="34.851620039">
      <ele>1213.238</ele>
      <time>2021-10-12T14:10:47Z</time>
    </trkpt>
    <trkpt lat="38.66759696" lon="34.851664966">
      <ele>1213.869</ele>
      <time>2021-10-12T14:10:49Z</time>
    </trkpt>
    <trkpt lat="38.667602995" lon="34.851707965">
      <ele>1214.472</ele>
      <time>2021-10-12T14:10:50Z</time>
    </trkpt>
    <trkpt lat="38.66761297" lon="34.851744007">
      <ele>1215.189</ele>
      <time>2021-10-12T14:10:51Z</time>
    </trkpt>
    <trkpt lat="38.667623028" lon="34.851782983">
      <ele>1215.9</ele>
      <time>2021-10-12T14:10:52Z</time>
    </trkpt>
    <trkpt lat="38.667631997" lon="34.851827994">
      <ele>1216.567</ele>
      <time>2021-10-12T14:10:54Z</time>
    </trkpt>
    <trkpt lat="38.667639038" lon="34.851869987">
      <ele>1217.104</ele>
      <time>2021-10-12T14:10:55Z</time>
    </trkpt>
    <trkpt lat="38.667642977" lon="34.851911981">
      <ele>1217.492</ele>
      <time>2021-10-12T14:10:56Z</time>
    </trkpt>
    <trkpt lat="38.667647" lon="34.851953974">
      <ele>1217.872</ele>
      <time>2021-10-12T14:10:57Z</time>
    </trkpt>
    <trkpt lat="38.667654041" lon="34.851998985">
      <ele>1218.384</ele>
      <time>2021-10-12T14:10:59Z</time>
    </trkpt>
    <trkpt lat="38.667658987" lon="34.852049025">
      <ele>1218.833</ele>
      <time>2021-10-12T14:11:00Z</time>
    </trkpt>
    <trkpt lat="38.66766301" lon="34.852094036">
      <ele>1219.216</ele>
      <time>2021-10-12T14:11:01Z</time>
    </trkpt>
    <trkpt lat="38.667664016" lon="34.852138963">
      <ele>1219.482</ele>
      <time>2021-10-12T14:11:03Z</time>
    </trkpt>
    <trkpt lat="38.667666027" lon="34.852176011">
      <ele>1219.744</ele>
      <time>2021-10-12T14:11:04Z</time>
    </trkpt>
    <trkpt lat="38.667664016" lon="34.852218004">
      <ele>1219.883</ele>
      <time>2021-10-12T14:11:05Z</time>
    </trkpt>
    <trkpt lat="38.667667033" lon="34.852255974">
      <ele>1220.426</ele>
      <time>2021-10-12T14:11:06Z</time>
    </trkpt>
    <trkpt lat="38.667665021" lon="34.85229101">
      <ele>1220.784</ele>
      <time>2021-10-12T14:11:07Z</time>
    </trkpt>
    <trkpt lat="38.667655969" lon="34.852320012">
      <ele>1220.825</ele>
      <time>2021-10-12T14:11:08Z</time>
    </trkpt>
    <trkpt lat="38.667640965" lon="34.852348007">
      <ele>1220.656</ele>
      <time>2021-10-12T14:11:09Z</time>
    </trkpt>
    <trkpt lat="38.667628979" lon="34.852376003">
      <ele>1220.601</ele>
      <time>2021-10-12T14:11:10Z</time>
    </trkpt>
    <trkpt lat="38.667613976" lon="34.852411039">
      <ele>1220.543</ele>
      <time>2021-10-12T14:11:11Z</time>
    </trkpt>
    <trkpt lat="38.667599978" lon="34.852448003">
      <ele>1220.558</ele>
      <time>2021-10-12T14:11:12Z</time>
    </trkpt>
    <trkpt lat="38.66758598" lon="34.852486979">
      <ele>1220.613</ele>
      <time>2021-10-12T14:11:13Z</time>
    </trkpt>
    <trkpt lat="38.667571982" lon="34.85252101">
      <ele>1220.803</ele>
      <time>2021-10-12T14:11:15Z</time>
    </trkpt>
    <trkpt lat="38.667559996" lon="34.852549005">
      <ele>1221.064</ele>
      <time>2021-10-12T14:11:16Z</time>
    </trkpt>
    <trkpt lat="38.667547004" lon="34.852571972">
      <ele>1221.205</ele>
      <time>2021-10-12T14:11:16Z</time>
    </trkpt>
    <trkpt lat="38.667526972" lon="34.852603991">
      <ele>1221.385</ele>
      <time>2021-10-12T14:11:18Z</time>
    </trkpt>
    <trkpt lat="38.667504005" lon="34.852632992">
      <ele>1221.46</ele>
      <time>2021-10-12T14:11:19Z</time>
    </trkpt>
    <trkpt lat="38.667482967" lon="34.852660988">
      <ele>1221.689</ele>
      <time>2021-10-12T14:11:20Z</time>
    </trkpt>
    <trkpt lat="38.667465029" lon="34.85268496">
      <ele>1221.906</ele>
      <time>2021-10-12T14:11:21Z</time>
    </trkpt>
    <trkpt lat="38.667446002" lon="34.852714967">
      <ele>1222.251</ele>
      <time>2021-10-12T14:11:22Z</time>
    </trkpt>
    <trkpt lat="38.667427981" lon="34.852744974">
      <ele>1222.618</ele>
      <time>2021-10-12T14:11:23Z</time>
    </trkpt>
    <trkpt lat="38.66740996" lon="34.85277297">
      <ele>1222.934</ele>
      <time>2021-10-12T14:11:24Z</time>
    </trkpt>
    <trkpt lat="38.667393029" lon="34.852805994">
      <ele>1223.299</ele>
      <time>2021-10-12T14:11:25Z</time>
    </trkpt>
    <trkpt lat="38.667378025" lon="34.852837007">
      <ele>1223.645</ele>
      <time>2021-10-12T14:11:26Z</time>
    </trkpt>
    <trkpt lat="38.667362016" lon="34.852867015">
      <ele>1223.947</ele>
      <time>2021-10-12T14:11:27Z</time>
    </trkpt>
    <trkpt lat="38.667342989" lon="34.852898028">
      <ele>1224.206</ele>
      <time>2021-10-12T14:11:28Z</time>
    </trkpt>
    <trkpt lat="38.667315999" lon="34.852929041">
      <ele>1224.293</ele>
      <time>2021-10-12T14:11:30Z</time>
    </trkpt>
    <trkpt lat="38.667289009" lon="34.852957958">
      <ele>1224.335</ele>
      <time>2021-10-12T14:11:31Z</time>
    </trkpt>
    <trkpt lat="38.667269982" lon="34.852981009">
      <ele>1224.421</ele>
      <time>2021-10-12T14:11:32Z</time>
    </trkpt>
    <trkpt lat="38.667248022" lon="34.853009004">
      <ele>1224.552</ele>
      <time>2021-10-12T14:11:33Z</time>
    </trkpt>
    <trkpt lat="38.667225977" lon="34.853040017">
      <ele>1224.745</ele>
      <time>2021-10-12T14:11:34Z</time>
    </trkpt>
    <trkpt lat="38.667207034" lon="34.853066001">
      <ele>1225.064</ele>
      <time>2021-10-12T14:11:35Z</time>
    </trkpt>
    <trkpt lat="38.667179961" lon="34.853097014">
      <ele>1225.462</ele>
      <time>2021-10-12T14:11:37Z</time>
    </trkpt>
    <trkpt lat="38.667158" lon="34.853124004">
      <ele>1225.842</ele>
      <time>2021-10-12T14:11:38Z</time>
    </trkpt>
    <trkpt lat="38.667133022" lon="34.853148982">
      <ele>1226.163</ele>
      <time>2021-10-12T14:11:39Z</time>
    </trkpt>
    <trkpt lat="38.66710796" lon="34.853165997">
      <ele>1226.315</ele>
      <time>2021-10-12T14:11:40Z</time>
    </trkpt>
    <trkpt lat="38.667081976" lon="34.853182007">
      <ele>1226.447</ele>
      <time>2021-10-12T14:11:41Z</time>
    </trkpt>
    <trkpt lat="38.667047024" lon="34.853202961">
      <ele>1226.627</ele>
      <time>2021-10-12T14:11:43Z</time>
    </trkpt>
    <trkpt lat="38.667020034" lon="34.853221988">
      <ele>1226.847</ele>
      <time>2021-10-12T14:11:44Z</time>
    </trkpt>
    <trkpt lat="38.666989021" lon="34.853233974">
      <ele>1226.875</ele>
      <time>2021-10-12T14:11:45Z</time>
    </trkpt>
    <trkpt lat="38.666961025" lon="34.853247972">
      <ele>1226.987</ele>
      <time>2021-10-12T14:11:46Z</time>
    </trkpt>
    <trkpt lat="38.666935042" lon="34.853257025">
      <ele>1226.981</ele>
      <time>2021-10-12T14:11:47Z</time>
    </trkpt>
    <trkpt lat="38.666906962" lon="34.853262976">
      <ele>1226.855</ele>
      <time>2021-10-12T14:11:48Z</time>
    </trkpt>
    <trkpt lat="38.666881984" lon="34.853264987">
      <ele>1226.662</ele>
      <time>2021-10-12T14:11:49Z</time>
    </trkpt>
    <trkpt lat="38.666852983" lon="34.853265993">
      <ele>1226.405</ele>
      <time>2021-10-12T14:11:50Z</time>
    </trkpt>
    <trkpt lat="38.666822976" lon="34.853264987">
      <ele>1226.08</ele>
      <time>2021-10-12T14:11:51Z</time>
    </trkpt>
    <trkpt lat="38.666792968" lon="34.853271022">
      <ele>1225.972</ele>
      <time>2021-10-12T14:11:52Z</time>
    </trkpt>
    <trkpt lat="38.666764973" lon="34.853279991">
      <ele>1225.991</ele>
      <time>2021-10-12T14:11:53Z</time>
    </trkpt>
    <trkpt lat="38.666737983" lon="34.853290971">
      <ele>1226.106</ele>
      <time>2021-10-12T14:11:55Z</time>
    </trkpt>
    <trkpt lat="38.666707976" lon="34.853299018">
      <ele>1226.117</ele>
      <time>2021-10-12T14:11:56Z</time>
    </trkpt>
    <trkpt lat="38.666676041" lon="34.853305975">
      <ele>1226.093</ele>
      <time>2021-10-12T14:11:57Z</time>
    </trkpt>
    <trkpt lat="38.666643016" lon="34.853316033">
      <ele>1226.042</ele>
      <time>2021-10-12T14:11:58Z</time>
    </trkpt>
    <trkpt lat="38.666613009" lon="34.853323996">
      <ele>1225.898</ele>
      <time>2021-10-12T14:11:59Z</time>
    </trkpt>
    <trkpt lat="38.666583002" lon="34.853330031">
      <ele>1225.68</ele>
      <time>2021-10-12T14:12:00Z</time>
    </trkpt>
    <trkpt lat="38.666554" lon="34.853335982">
      <ele>1225.444</ele>
      <time>2021-10-12T14:12:01Z</time>
    </trkpt>
    <trkpt lat="38.666523993" lon="34.853343023">
      <ele>1225.19</ele>
      <time>2021-10-12T14:12:03Z</time>
    </trkpt>
    <trkpt lat="38.666493986" lon="34.853346962">
      <ele>1224.857</ele>
      <time>2021-10-12T14:12:04Z</time>
    </trkpt>
    <trkpt lat="38.66646599" lon="34.85334998">
      <ele>1224.53</ele>
      <time>2021-10-12T14:12:05Z</time>
    </trkpt>
    <trkpt lat="38.666434977" lon="34.853355009">
      <ele>1224.21</ele>
      <time>2021-10-12T14:12:06Z</time>
    </trkpt>
    <trkpt lat="38.666405976" lon="34.853357021">
      <ele>1223.843</ele>
      <time>2021-10-12T14:12:07Z</time>
    </trkpt>
    <trkpt lat="38.666378986" lon="34.85336096">
      <ele>1223.443</ele>
      <time>2021-10-12T14:12:08Z</time>
    </trkpt>
    <trkpt lat="38.666353002" lon="34.853370013">
      <ele>1223.003</ele>
      <time>2021-10-12T14:12:09Z</time>
    </trkpt>
    <trkpt lat="38.666330036" lon="34.853378981">
      <ele>1222.632</ele>
      <time>2021-10-12T14:12:10Z</time>
    </trkpt>
    <trkpt lat="38.66630598" lon="34.853392979">
      <ele>1222.35</ele>
      <time>2021-10-12T14:12:11Z</time>
    </trkpt>
    <trkpt lat="38.666277984" lon="34.853407983">
      <ele>1221.979</ele>
      <time>2021-10-12T14:12:12Z</time>
    </trkpt>
    <trkpt lat="38.666252" lon="34.853431033">
      <ele>1221.839</ele>
      <time>2021-10-12T14:12:13Z</time>
    </trkpt>
    <trkpt lat="38.666231968" lon="34.853456011">
      <ele>1221.888</ele>
      <time>2021-10-12T14:12:14Z</time>
    </trkpt>
    <trkpt lat="38.666213024" lon="34.853481995">
      <ele>1221.976</ele>
      <time>2021-10-12T14:12:15Z</time>
    </trkpt>
    <trkpt lat="38.666188968" lon="34.853505967">
      <ele>1221.865</ele>
      <time>2021-10-12T14:12:16Z</time>
    </trkpt>
    <trkpt lat="38.666161979" lon="34.853532035">
      <ele>1221.705</ele>
      <time>2021-10-12T14:12:18Z</time>
    </trkpt>
    <trkpt lat="38.666135995" lon="34.853553995">
      <ele>1221.465</ele>
      <time>2021-10-12T14:12:19Z</time>
    </trkpt>
    <trkpt lat="38.666117974" lon="34.853575034">
      <ele>1221.415</ele>
      <time>2021-10-12T14:12:20Z</time>
    </trkpt>
    <trkpt lat="38.666105988" lon="34.853598">
      <ele>1221.513</ele>
      <time>2021-10-12T14:12:20Z</time>
    </trkpt>
    <trkpt lat="38.666088972" lon="34.853621973">
      <ele>1221.325</ele>
      <time>2021-10-12T14:12:21Z</time>
    </trkpt>
    <trkpt lat="38.666069023" lon="34.853648962">
      <ele>1221.056</ele>
      <time>2021-10-12T14:12:22Z</time>
    </trkpt>
    <trkpt lat="38.666047985" lon="34.853682993">
      <ele>1220.912</ele>
      <time>2021-10-12T14:12:24Z</time>
    </trkpt>
    <trkpt lat="38.666029964" lon="34.853717024">
      <ele>1220.916</ele>
      <time>2021-10-12T14:12:25Z</time>
    </trkpt>
    <trkpt lat="38.666013032" lon="34.853751976">
      <ele>1221.01</ele>
      <time>2021-10-12T14:12:26Z</time>
    </trkpt>
    <trkpt lat="38.665990988" lon="34.853787012">
      <ele>1220.957</ele>
      <time>2021-10-12T14:12:27Z</time>
    </trkpt>
    <trkpt lat="38.665965004" lon="34.853820037">
      <ele>1220.766</ele>
      <time>2021-10-12T14:12:29Z</time>
    </trkpt>
    <trkpt lat="38.665942959" lon="34.853848033">
      <ele>1220.638</ele>
      <time>2021-10-12T14:12:30Z</time>
    </trkpt>
    <trkpt lat="38.665917981" lon="34.853876028">
      <ele>1220.447</ele>
      <time>2021-10-12T14:12:31Z</time>
    </trkpt>
    <trkpt lat="38.665896021" lon="34.853908969">
      <ele>1220.425</ele>
      <time>2021-10-12T14:12:32Z</time>
    </trkpt>
    <trkpt lat="38.665872971" lon="34.853945011">
      <ele>1220.352</ele>
      <time>2021-10-12T14:12:34Z</time>
    </trkpt>
    <trkpt lat="38.665852016" lon="34.85398097">
      <ele>1220.307</ele>
      <time>2021-10-12T14:12:35Z</time>
    </trkpt>
    <trkpt lat="38.665836006" lon="34.854015">
      <ele>1220.365</ele>
      <time>2021-10-12T14:12:36Z</time>
    </trkpt>
    <trkpt lat="38.665816979" lon="34.854049031">
      <ele>1220.11</ele>
      <time>2021-10-12T14:12:37Z</time>
    </trkpt>
    <trkpt lat="38.66580097" lon="34.854078032">
      <ele>1219.937</ele>
      <time>2021-10-12T14:12:38Z</time>
    </trkpt>
    <trkpt lat="38.665784961" lon="34.854108961">
      <ele>1219.865</ele>
      <time>2021-10-12T14:12:40Z</time>
    </trkpt>
    <trkpt lat="38.665771969" lon="34.854145003">
      <ele>1220.094</ele>
      <time>2021-10-12T14:12:41Z</time>
    </trkpt>
    <trkpt lat="38.665764006" lon="34.854178028">
      <ele>1220.602</ele>
      <time>2021-10-12T14:12:42Z</time>
    </trkpt>
    <trkpt lat="38.665758977" lon="34.854217004">
      <ele>1221.589</ele>
      <time>2021-10-12T14:12:43Z</time>
    </trkpt>
    <trkpt lat="38.665743973" lon="34.854293028">
      <ele>1223.263</ele>
      <time>2021-10-12T14:12:45Z</time>
    </trkpt>
    <trkpt lat="38.665722013" lon="34.854366034">
      <ele>1224.476</ele>
      <time>2021-10-12T14:12:47Z</time>
    </trkpt>
    <trkpt lat="38.665694017" lon="34.854424959">
      <ele>1224.919</ele>
      <time>2021-10-12T14:12:49Z</time>
    </trkpt>
    <trkpt lat="38.665678008" lon="34.854452033">
      <ele>1224.922</ele>
      <time>2021-10-12T14:12:50Z</time>
    </trkpt>
    <trkpt lat="38.665658981" lon="34.854480028">
      <ele>1224.737</ele>
      <time>2021-10-12T14:12:51Z</time>
    </trkpt>
    <trkpt lat="38.665635008" lon="34.85450903">
      <ele>1224.346</ele>
      <time>2021-10-12T14:12:53Z</time>
    </trkpt>
    <trkpt lat="38.665611958" lon="34.854535013">
      <ele>1223.922</ele>
      <time>2021-10-12T14:12:54Z</time>
    </trkpt>
    <trkpt lat="38.665593015" lon="34.854560997">
      <ele>1223.69</ele>
      <time>2021-10-12T14:12:55Z</time>
    </trkpt>
    <trkpt lat="38.665571976" lon="34.854587987">
      <ele>1223.386</ele>
      <time>2021-10-12T14:12:56Z</time>
    </trkpt>
    <trkpt lat="38.665550016" lon="34.854614977">
      <ele>1223.023</ele>
      <time>2021-10-12T14:12:57Z</time>
    </trkpt>
    <trkpt lat="38.665529983" lon="34.854641967">
      <ele>1222.728</ele>
      <time>2021-10-12T14:12:58Z</time>
    </trkpt>
    <trkpt lat="38.665505005" lon="34.854699969">
      <ele>1223.044</ele>
      <time>2021-10-12T14:13:00Z</time>
    </trkpt>
    <trkpt lat="38.66545002" lon="34.854831984">
      <ele>1223.677</ele>
      <time>2021-10-12T14:13:04Z</time>
    </trkpt>
    <trkpt lat="38.665412972" lon="34.854952013">
      <ele>1224.693</ele>
      <time>2021-10-12T14:13:08Z</time>
    </trkpt>
    <trkpt lat="38.66537299" lon="34.855057038">
      <ele>1225.171</ele>
      <time>2021-10-12T14:13:11Z</time>
    </trkpt>
    <trkpt lat="38.665363016" lon="34.85508604">
      <ele>1225.345</ele>
      <time>2021-10-12T14:13:12Z</time>
    </trkpt>
    <trkpt lat="38.665347006" lon="34.855147982">
      <ele>1225.951</ele>
      <time>2021-10-12T14:13:14Z</time>
    </trkpt>
    <trkpt lat="38.665338038" lon="34.85518503">
      <ele>1226.323</ele>
      <time>2021-10-12T14:13:15Z</time>
    </trkpt>
    <trkpt lat="38.665334014" lon="34.855225012">
      <ele>1227.023</ele>
      <time>2021-10-12T14:13:17Z</time>
    </trkpt>
    <trkpt lat="38.665327979" lon="34.855265999">
      <ele>1227.622</ele>
      <time>2021-10-12T14:13:18Z</time>
    </trkpt>
    <trkpt lat="38.665305013" lon="34.855332971">
      <ele>1227.741</ele>
      <time>2021-10-12T14:13:20Z</time>
    </trkpt>
    <trkpt lat="38.665287998" lon="34.855363984">
      <ele>1227.439</ele>
      <time>2021-10-12T14:13:21Z</time>
    </trkpt>
    <trkpt lat="38.665240975" lon="34.85548703">
      <ele>1228.229</ele>
      <time>2021-10-12T14:13:25Z</time>
    </trkpt>
    <trkpt lat="38.665215997" lon="34.855552996">
      <ele>1228.937</ele>
      <time>2021-10-12T14:13:27Z</time>
    </trkpt>
    <trkpt lat="38.665190013" lon="34.855648968">
      <ele>1230.05</ele>
      <time>2021-10-12T14:13:30Z</time>
    </trkpt>
    <trkpt lat="38.665192025" lon="34.855684005">
      <ele>1230.819</ele>
      <time>2021-10-12T14:13:31Z</time>
    </trkpt>
    <trkpt lat="38.665180039" lon="34.855730021">
      <ele>1231.416</ele>
      <time>2021-10-12T14:13:33Z</time>
    </trkpt>
    <trkpt lat="38.665162018" lon="34.855772015">
      <ele>1231.795</ele>
      <time>2021-10-12T14:13:34Z</time>
    </trkpt>
    <trkpt lat="38.665088005" lon="34.855875028">
      <ele>1231.961</ele>
      <time>2021-10-12T14:13:38Z</time>
    </trkpt>
    <trkpt lat="38.665067973" lon="34.855900006">
      <ele>1231.849</ele>
      <time>2021-10-12T14:13:39Z</time>
    </trkpt>
    <trkpt lat="38.665051041" lon="34.85592599">
      <ele>1231.804</ele>
      <time>2021-10-12T14:13:40Z</time>
    </trkpt>
    <trkpt lat="38.665037965" lon="34.85595298">
      <ele>1231.856</ele>
      <time>2021-10-12T14:13:41Z</time>
    </trkpt>
    <trkpt lat="38.665024973" lon="34.855984999">
      <ele>1231.961</ele>
      <time>2021-10-12T14:13:42Z</time>
    </trkpt>
    <trkpt lat="38.665011982" lon="34.856009977">
      <ele>1231.928</ele>
      <time>2021-10-12T14:13:43Z</time>
    </trkpt>
    <trkpt lat="38.665001001" lon="34.856041996">
      <ele>1232.038</ele>
      <time>2021-10-12T14:13:44Z</time>
    </trkpt>
    <trkpt lat="38.664991027" lon="34.856070997">
      <ele>1232.367</ele>
      <time>2021-10-12T14:13:45Z</time>
    </trkpt>
    <trkpt lat="38.664960014" lon="34.856124977">
      <ele>1233.305</ele>
      <time>2021-10-12T14:13:47Z</time>
    </trkpt>
    <trkpt lat="38.664915003" lon="34.85616303">
      <ele>1234.376</ele>
      <time>2021-10-12T14:13:49Z</time>
    </trkpt>
    <trkpt lat="38.664827999" lon="34.856204018">
      <ele>1235.391</ele>
      <time>2021-10-12T14:13:52Z</time>
    </trkpt>
    <trkpt lat="38.664790029" lon="34.856241988">
      <ele>1236.485</ele>
      <time>2021-10-12T14:13:54Z</time>
    </trkpt>
    <trkpt lat="38.66473102" lon="34.856362017">
      <ele>1240.161</ele>
      <time>2021-10-12T14:13:58Z</time>
    </trkpt>
    <trkpt lat="38.664714005" lon="34.856378026">
      <ele>1240.648</ele>
      <time>2021-10-12T14:13:59Z</time>
    </trkpt>
    <trkpt lat="38.66469196" lon="34.856395964">
      <ele>1241.204</ele>
      <time>2021-10-12T14:14:00Z</time>
    </trkpt>
    <trkpt lat="38.664585007" lon="34.856358999">
      <ele>1240.032</ele>
      <time>2021-10-12T14:14:04Z</time>
    </trkpt>
    <trkpt lat="38.664560029" lon="34.856348019">
      <ele>1239.676</ele>
      <time>2021-10-12T14:14:05Z</time>
    </trkpt>
    <trkpt lat="38.664532034" lon="34.856337961">
      <ele>1239.35</ele>
      <time>2021-10-12T14:14:06Z</time>
    </trkpt>
    <trkpt lat="38.664504038" lon="34.856325975">
      <ele>1238.962</ele>
      <time>2021-10-12T14:14:07Z</time>
    </trkpt>
    <trkpt lat="38.664475959" lon="34.856317006">
      <ele>1238.671</ele>
      <time>2021-10-12T14:14:08Z</time>
    </trkpt>
    <trkpt lat="38.664447041" lon="34.856303008">
      <ele>1238.217</ele>
      <time>2021-10-12T14:14:09Z</time>
    </trkpt>
    <trkpt lat="38.664420974" lon="34.856285993">
      <ele>1237.666</ele>
      <time>2021-10-12T14:14:10Z</time>
    </trkpt>
    <trkpt lat="38.664390966" lon="34.856273001">
      <ele>1237.245</ele>
      <time>2021-10-12T14:14:11Z</time>
    </trkpt>
    <trkpt lat="38.664360959" lon="34.856259003">
      <ele>1236.792</ele>
      <time>2021-10-12T14:14:13Z</time>
    </trkpt>
    <trkpt lat="38.664332964" lon="34.856261015">
      <ele>1236.857</ele>
      <time>2021-10-12T14:14:14Z</time>
    </trkpt>
    <trkpt lat="38.66423104" lon="34.856284987">
      <ele>1237.634</ele>
      <time>2021-10-12T14:14:18Z</time>
    </trkpt>
    <trkpt lat="38.664182005" lon="34.856264032">
      <ele>1236.955</ele>
      <time>2021-10-12T14:14:19Z</time>
    </trkpt>
    <trkpt lat="38.664132971" lon="34.856238971">
      <ele>1236.674</ele>
      <time>2021-10-12T14:14:21Z</time>
    </trkpt>
    <trkpt lat="38.664110005" lon="34.856224973">
      <ele>1236.552</ele>
      <time>2021-10-12T14:14:22Z</time>
    </trkpt>
    <trkpt lat="38.66408796" lon="34.856218016">
      <ele>1236.641</ele>
      <time>2021-10-12T14:14:23Z</time>
    </trkpt>
    <trkpt lat="38.664060971" lon="34.856208041">
      <ele>1236.68</ele>
      <time>2021-10-12T14:14:24Z</time>
    </trkpt>
    <trkpt lat="38.664034987" lon="34.856193038">
      <ele>1236.496</ele>
      <time>2021-10-12T14:14:25Z</time>
    </trkpt>
    <trkpt lat="38.664006991" lon="34.856183985">
      <ele>1236.538</ele>
      <time>2021-10-12T14:14:26Z</time>
    </trkpt>
    <trkpt lat="38.663978996" lon="34.856171999">
      <ele>1236.444</ele>
      <time>2021-10-12T14:14:27Z</time>
    </trkpt>
    <trkpt lat="38.663954018" lon="34.856164958">
      <ele>1236.486</ele>
      <time>2021-10-12T14:14:28Z</time>
    </trkpt>
    <trkpt lat="38.663925016" lon="34.856151966">
      <ele>1236.317</ele>
      <time>2021-10-12T14:14:30Z</time>
    </trkpt>
    <trkpt lat="38.663898027" lon="34.856140986">
      <ele>1236.181</ele>
      <time>2021-10-12T14:14:31Z</time>
    </trkpt>
    <trkpt lat="38.663871959" lon="34.856129">
      <ele>1235.952</ele>
      <time>2021-10-12T14:14:32Z</time>
    </trkpt>
    <trkpt lat="38.663842035" lon="34.856121959">
      <ele>1235.968</ele>
      <time>2021-10-12T14:14:33Z</time>
    </trkpt>
    <trkpt lat="38.663811022" lon="34.856113996">
      <ele>1235.963</ele>
      <time>2021-10-12T14:14:34Z</time>
    </trkpt>
    <trkpt lat="38.663779004" lon="34.85610201">
      <ele>1235.748</ele>
      <time>2021-10-12T14:14:35Z</time>
    </trkpt>
    <trkpt lat="38.663752014" lon="34.856097987">
      <ele>1235.841</ele>
      <time>2021-10-12T14:14:36Z</time>
    </trkpt>
    <trkpt lat="38.663718989" lon="34.856094969">
      <ele>1236.044</ele>
      <time>2021-10-12T14:14:37Z</time>
    </trkpt>
    <trkpt lat="38.663627962" lon="34.856099999">
      <ele>1237.26</ele>
      <time>2021-10-12T14:14:41Z</time>
    </trkpt>
    <trkpt lat="38.663598038" lon="34.856103016">
      <ele>1237.548</ele>
      <time>2021-10-12T14:14:42Z</time>
    </trkpt>
    <trkpt lat="38.663568031" lon="34.856110979">
      <ele>1237.838</ele>
      <time>2021-10-12T14:14:43Z</time>
    </trkpt>
    <trkpt lat="38.663538024" lon="34.856112991">
      <ele>1237.811</ele>
      <time>2021-10-12T14:14:44Z</time>
    </trkpt>
    <trkpt lat="38.663510028" lon="34.856110979">
      <ele>1237.63</ele>
      <time>2021-10-12T14:14:45Z</time>
    </trkpt>
    <trkpt lat="38.663483039" lon="34.856109973">
      <ele>1237.485</ele>
      <time>2021-10-12T14:14:46Z</time>
    </trkpt>
    <trkpt lat="38.663431993" lon="34.856169987">
      <ele>1239.687</ele>
      <time>2021-10-12T14:14:49Z</time>
    </trkpt>
    <trkpt lat="38.66341196" lon="34.856185997">
      <ele>1240.249</ele>
      <time>2021-10-12T14:14:50Z</time>
    </trkpt>
    <trkpt lat="38.663328979" lon="34.856112991">
      <ele>1237.059</ele>
      <time>2021-10-12T14:14:53Z</time>
    </trkpt>
    <trkpt lat="38.663236024" lon="34.85604099">
      <ele>1234.151</ele>
      <time>2021-10-12T14:14:57Z</time>
    </trkpt>
    <trkpt lat="38.663142985" lon="34.856021041">
      <ele>1233.757</ele>
      <time>2021-10-12T14:15:01Z</time>
    </trkpt>
    <trkpt lat="38.66310996" lon="34.856021041">
      <ele>1233.869</ele>
      <time>2021-10-12T14:15:02Z</time>
    </trkpt>
    <trkpt lat="38.663047012" lon="34.856044007">
      <ele>1234.712</ele>
      <time>2021-10-12T14:15:04Z</time>
    </trkpt>
    <trkpt lat="38.663017005" lon="34.856046019">
      <ele>1235.32</ele>
      <time>2021-10-12T14:15:06Z</time>
    </trkpt>
    <trkpt lat="38.662993032" lon="34.856050964">
      <ele>1235.875</ele>
      <time>2021-10-12T14:15:06Z</time>
    </trkpt>
    <trkpt lat="38.662912985" lon="34.856081977">
      <ele>1237.991</ele>
      <time>2021-10-12T14:15:10Z</time>
    </trkpt>
    <trkpt lat="38.662888007" lon="34.856098993">
      <ele>1238.78</ele>
      <time>2021-10-12T14:15:11Z</time>
    </trkpt>
    <trkpt lat="38.662794968" lon="34.856148027">
      <ele>1241.404</ele>
      <time>2021-10-12T14:15:14Z</time>
    </trkpt>
    <trkpt lat="38.662768984" lon="34.856035961">
      <ele>1239.742</ele>
      <time>2021-10-12T14:15:18Z</time>
    </trkpt>
    <trkpt lat="38.662760016" lon="34.855978964">
      <ele>1238.813</ele>
      <time>2021-10-12T14:15:19Z</time>
    </trkpt>
    <trkpt lat="38.662758004" lon="34.855953986">
      <ele>1238.385</ele>
      <time>2021-10-12T14:15:20Z</time>
    </trkpt>
    <trkpt lat="38.662752975" lon="34.855929008">
      <ele>1237.99</ele>
      <time>2021-10-12T14:15:21Z</time>
    </trkpt>
    <trkpt lat="38.662747024" lon="34.855905036">
      <ele>1237.623</ele>
      <time>2021-10-12T14:15:22Z</time>
    </trkpt>
    <trkpt lat="38.662737971" lon="34.855861031">
      <ele>1236.928</ele>
      <time>2021-10-12T14:15:23Z</time>
    </trkpt>
    <trkpt lat="38.662733026" lon="34.855834041">
      <ele>1236.496</ele>
      <time>2021-10-12T14:15:24Z</time>
    </trkpt>
    <trkpt lat="38.662727997" lon="34.855809985">
      <ele>1235.994</ele>
      <time>2021-10-12T14:15:24Z</time>
    </trkpt>
    <trkpt lat="38.662722968" lon="34.855782995">
      <ele>1235.431</ele>
      <time>2021-10-12T14:15:25Z</time>
    </trkpt>
    <trkpt lat="38.662723973" lon="34.855750976">
      <ele>1234.678</ele>
      <time>2021-10-12T14:15:26Z</time>
    </trkpt>
    <trkpt lat="38.662720034" lon="34.855722981">
      <ele>1234.09</ele>
      <time>2021-10-12T14:15:27Z</time>
    </trkpt>
    <trkpt lat="38.662709976" lon="34.855702026">
      <ele>1233.769</ele>
      <time>2021-10-12T14:15:28Z</time>
    </trkpt>
    <trkpt lat="38.662696984" lon="34.855686016">
      <ele>1233.623</ele>
      <time>2021-10-12T14:15:28Z</time>
    </trkpt>
    <trkpt lat="38.662668988" lon="34.855675958">
      <ele>1233.875</ele>
      <time>2021-10-12T14:15:29Z</time>
    </trkpt>
    <trkpt lat="38.662640993" lon="34.855675958">
      <ele>1234.348</ele>
      <time>2021-10-12T14:15:31Z</time>
    </trkpt>
    <trkpt lat="38.66261702" lon="34.85567403">
      <ele>1234.717</ele>
      <time>2021-10-12T14:15:31Z</time>
    </trkpt>
    <trkpt lat="38.662595982" lon="34.855676964">
      <ele>1235.128</ele>
      <time>2021-10-12T14:15:32Z</time>
    </trkpt>
    <trkpt lat="38.662576033" lon="34.855678976">
      <ele>1235.5</ele>
      <time>2021-10-12T14:15:33Z</time>
    </trkpt>
    <trkpt lat="38.662558012" lon="34.855685011">
      <ele>1235.903</ele>
      <time>2021-10-12T14:15:34Z</time>
    </trkpt>
    <trkpt lat="38.662535967" lon="34.855694985">
      <ele>1236.426</ele>
      <time>2021-10-12T14:15:34Z</time>
    </trkpt>
    <trkpt lat="38.66251803" lon="34.855705965">
      <ele>1236.882</ele>
      <time>2021-10-12T14:15:35Z</time>
    </trkpt>
    <trkpt lat="38.662496991" lon="34.855731027">
      <ele>1237.595</ele>
      <time>2021-10-12T14:15:36Z</time>
    </trkpt>
    <trkpt lat="38.662474025" lon="34.855746031">
      <ele>1238.339</ele>
      <time>2021-10-12T14:15:37Z</time>
    </trkpt>
    <trkpt lat="38.662449969" lon="34.855754999">
      <ele>1239.031</ele>
      <time>2021-10-12T14:15:38Z</time>
    </trkpt>
    <trkpt lat="38.662428008" lon="34.855773021">
      <ele>1239.833</ele>
      <time>2021-10-12T14:15:39Z</time>
    </trkpt>
    <trkpt lat="38.66240697" lon="34.855792969">
      <ele>1240.666</ele>
      <time>2021-10-12T14:15:40Z</time>
    </trkpt>
    <trkpt lat="38.662387021" lon="34.855796993">
      <ele>1241.217</ele>
      <time>2021-10-12T14:15:41Z</time>
    </trkpt>
    <trkpt lat="38.662362965" lon="34.855817026">
      <ele>1242.161</ele>
      <time>2021-10-12T14:15:42Z</time>
    </trkpt>
    <trkpt lat="38.662344022" lon="34.855835969">
      <ele>1243.021</ele>
      <time>2021-10-12T14:15:43Z</time>
    </trkpt>
    <trkpt lat="38.662328012" lon="34.855856001">
      <ele>1244.146</ele>
      <time>2021-10-12T14:15:44Z</time>
    </trkpt>
    <trkpt lat="38.662312003" lon="34.855879974">
      <ele>1245.486</ele>
      <time>2021-10-12T14:15:45Z</time>
    </trkpt>
    <trkpt lat="38.662294988" lon="34.855906041">
      <ele>1247.021</ele>
      <time>2021-10-12T14:15:46Z</time>
    </trkpt>
    <trkpt lat="38.662273027" lon="34.855920961">
      <ele>1248.359</ele>
      <time>2021-10-12T14:15:46Z</time>
    </trkpt>
    <trkpt lat="38.662257018" lon="34.855932025">
      <ele>1249.386</ele>
      <time>2021-10-12T14:15:47Z</time>
    </trkpt>
    <trkpt lat="38.662235979" lon="34.855958009">
      <ele>1251.31</ele>
      <time>2021-10-12T14:15:48Z</time>
    </trkpt>
    <trkpt lat="38.662221981" lon="34.855978042">
      <ele>1252.783</ele>
      <time>2021-10-12T14:15:49Z</time>
    </trkpt>
    <trkpt lat="38.662201026" lon="34.855994973">
      <ele>1254.493</ele>
      <time>2021-10-12T14:15:50Z</time>
    </trkpt>
    <trkpt lat="38.662186023" lon="34.856011989">
      <ele>1255.962</ele>
      <time>2021-10-12T14:15:51Z</time>
    </trkpt>
    <trkpt lat="38.662163978" lon="34.856035961">
      <ele>1258.095</ele>
      <time>2021-10-12T14:15:52Z</time>
    </trkpt>
    <trkpt lat="38.66214403" lon="34.856049959">
      <ele>1259.674</ele>
      <time>2021-10-12T14:15:53Z</time>
    </trkpt>
    <trkpt lat="38.662127014" lon="34.856062029">
      <ele>1261.038</ele>
      <time>2021-10-12T14:15:53Z</time>
    </trkpt>
    <trkpt lat="38.662116034" lon="34.856081977">
      <ele>1262.526</ele>
      <time>2021-10-12T14:15:54Z</time>
    </trkpt>
    <trkpt lat="38.662098013" lon="34.856098993">
      <ele>1264.207</ele>
      <time>2021-10-12T14:15:55Z</time>
    </trkpt>
    <trkpt lat="38.662078986" lon="34.856119025">
      <ele>1265.875</ele>
      <time>2021-10-12T14:15:56Z</time>
    </trkpt>
    <trkpt lat="38.662068006" lon="34.856141992">
      <ele>1266.897</ele>
      <time>2021-10-12T14:15:57Z</time>
    </trkpt>
    <trkpt lat="38.662053002" lon="34.856159007">
      <ele>1267.992</ele>
      <time>2021-10-12T14:15:57Z</time>
    </trkpt>
    <trkpt lat="38.662037998" lon="34.856187003">
      <ele>1269.35</ele>
      <time>2021-10-12T14:15:58Z</time>
    </trkpt>
    <trkpt lat="38.662025006" lon="34.85620603">
      <ele>1270.423</ele>
      <time>2021-10-12T14:15:59Z</time>
    </trkpt>
    <trkpt lat="38.662010003" lon="34.856236959">
      <ele>1271.889</ele>
      <time>2021-10-12T14:16:00Z</time>
    </trkpt>
    <trkpt lat="38.661985025" lon="34.856286999">
      <ele>1274.348</ele>
      <time>2021-10-12T14:16:02Z</time>
    </trkpt>
    <trkpt lat="38.661932973" lon="34.856349025">
      <ele>1277.742</ele>
      <time>2021-10-12T14:16:04Z</time>
    </trkpt>
    <trkpt lat="38.661916042" lon="34.85636604">
      <ele>1277.802</ele>
      <time>2021-10-12T14:16:05Z</time>
    </trkpt>
    <trkpt lat="38.661901038" lon="34.856392024">
      <ele>1278.045</ele>
      <time>2021-10-12T14:16:06Z</time>
    </trkpt>
    <trkpt lat="38.661884023" lon="34.856409961">
      <ele>1277.593</ele>
      <time>2021-10-12T14:16:07Z</time>
    </trkpt>
    <trkpt lat="38.661872959" lon="34.856432006">
      <ele>1277.265</ele>
      <time>2021-10-12T14:16:08Z</time>
    </trkpt>
    <trkpt lat="38.661864996" lon="34.856456984">
      <ele>1277.004</ele>
      <time>2021-10-12T14:16:08Z</time>
    </trkpt>
    <trkpt lat="38.661856027" lon="34.856484979">
      <ele>1276.729</ele>
      <time>2021-10-12T14:16:09Z</time>
    </trkpt>
    <trkpt lat="38.661850998" lon="34.85651901">
      <ele>1276.517</ele>
      <time>2021-10-12T14:16:10Z</time>
    </trkpt>
    <trkpt lat="38.661840018" lon="34.85655698">
      <ele>1276.217</ele>
      <time>2021-10-12T14:16:12Z</time>
    </trkpt>
    <trkpt lat="38.66182996" lon="34.856581036">
      <ele>1275.999</ele>
      <time>2021-10-12T14:16:12Z</time>
    </trkpt>
    <trkpt lat="38.661817973" lon="34.856606014">
      <ele>1275.773</ele>
      <time>2021-10-12T14:16:13Z</time>
    </trkpt>
    <trkpt lat="38.661809005" lon="34.856631998">
      <ele>1275.604</ele>
      <time>2021-10-12T14:16:14Z</time>
    </trkpt>
    <trkpt lat="38.661800958" lon="34.856659994">
      <ele>1275.461</ele>
      <time>2021-10-12T14:16:15Z</time>
    </trkpt>
    <trkpt lat="38.661797019" lon="34.856691007">
      <ele>1275.32</ele>
      <time>2021-10-12T14:16:16Z</time>
    </trkpt>
    <trkpt lat="38.661794001" lon="34.856719002">
      <ele>1275.187</ele>
      <time>2021-10-12T14:16:17Z</time>
    </trkpt>
    <trkpt lat="38.661790984" lon="34.856752027">
      <ele>1275.035</ele>
      <time>2021-10-12T14:16:18Z</time>
    </trkpt>
    <trkpt lat="38.661784027" lon="34.856792009">
      <ele>1274.816</ele>
      <time>2021-10-12T14:16:19Z</time>
    </trkpt>
    <trkpt lat="38.661778998" lon="34.856826961">
      <ele>1274.636</ele>
      <time>2021-10-12T14:16:20Z</time>
    </trkpt>
    <trkpt lat="38.661774974" lon="34.856859986">
      <ele>1274.474</ele>
      <time>2021-10-12T14:16:21Z</time>
    </trkpt>
    <trkpt lat="38.661770029" lon="34.856901979">
      <ele>1274.269</ele>
      <time>2021-10-12T14:16:22Z</time>
    </trkpt>
    <trkpt lat="38.661769023" lon="34.856941039">
      <ele>1274.118</ele>
      <time>2021-10-12T14:16:23Z</time>
    </trkpt>
    <trkpt lat="38.661767012" lon="34.856982026">
      <ele>1274.046</ele>
      <time>2021-10-12T14:16:24Z</time>
    </trkpt>
    <trkpt lat="38.661768017" lon="34.857019996">
      <ele>1274.021</ele>
      <time>2021-10-12T14:16:25Z</time>
    </trkpt>
    <trkpt lat="38.661773968" lon="34.857055033">
      <ele>1274.068</ele>
      <time>2021-10-12T14:16:26Z</time>
    </trkpt>
    <trkpt lat="38.661780003" lon="34.857089985">
      <ele>1274.128</ele>
      <time>2021-10-12T14:16:27Z</time>
    </trkpt>
    <trkpt lat="38.661786038" lon="34.85712301">
      <ele>1274.199</ele>
      <time>2021-10-12T14:16:28Z</time>
    </trkpt>
    <trkpt lat="38.661794001" lon="34.85715704">
      <ele>1274.312</ele>
      <time>2021-10-12T14:16:29Z</time>
    </trkpt>
    <trkpt lat="38.66180297" lon="34.857190987">
      <ele>1274.456</ele>
      <time>2021-10-12T14:16:31Z</time>
    </trkpt>
    <trkpt lat="38.661811017" lon="34.857223006">
      <ele>1274.598</ele>
      <time>2021-10-12T14:16:32Z</time>
    </trkpt>
    <trkpt lat="38.661818979" lon="34.857255025">
      <ele>1274.753</ele>
      <time>2021-10-12T14:16:32Z</time>
    </trkpt>
    <trkpt lat="38.66182602" lon="34.857284026">
      <ele>1274.901</ele>
      <time>2021-10-12T14:16:33Z</time>
    </trkpt>
    <trkpt lat="38.661829038" lon="34.857318979">
      <ele>1274.982</ele>
      <time>2021-10-12T14:16:34Z</time>
    </trkpt>
    <trkpt lat="38.661833983" lon="34.857353009">
      <ele>1275.108</ele>
      <time>2021-10-12T14:16:35Z</time>
    </trkpt>
    <trkpt lat="38.661841024" lon="34.857384022">
      <ele>1275.287</ele>
      <time>2021-10-12T14:16:36Z</time>
    </trkpt>
    <trkpt lat="38.661849992" lon="34.857416963">
      <ele>1275.524</ele>
      <time>2021-10-12T14:16:37Z</time>
    </trkpt>
    <trkpt lat="38.661858961" lon="34.85744697">
      <ele>1275.772</ele>
      <time>2021-10-12T14:16:38Z</time>
    </trkpt>
    <trkpt lat="38.661868013" lon="34.857482007">
      <ele>1276.045</ele>
      <time>2021-10-12T14:16:39Z</time>
    </trkpt>
    <trkpt lat="38.661878994" lon="34.857517965">
      <ele>1276.274</ele>
      <time>2021-10-12T14:16:40Z</time>
    </trkpt>
    <trkpt lat="38.66189098" lon="34.857551996">
      <ele>1276.473</ele>
      <time>2021-10-12T14:16:42Z</time>
    </trkpt>
    <trkpt lat="38.661902966" lon="34.85758896">
      <ele>1276.716</ele>
      <time>2021-10-12T14:16:43Z</time>
    </trkpt>
    <trkpt lat="38.661912018" lon="34.85762299">
      <ele>1276.924</ele>
      <time>2021-10-12T14:16:44Z</time>
    </trkpt>
    <trkpt lat="38.661921993" lon="34.857658027">
      <ele>1277.204</ele>
      <time>2021-10-12T14:16:45Z</time>
    </trkpt>
    <trkpt lat="38.66193004" lon="34.857695997">
      <ele>1277.454</ele>
      <time>2021-10-12T14:16:46Z</time>
    </trkpt>
    <trkpt lat="38.661939008" lon="34.857730027">
      <ele>1277.782</ele>
      <time>2021-10-12T14:16:47Z</time>
    </trkpt>
    <trkpt lat="38.661950994" lon="34.857763974">
      <ele>1278.164</ele>
      <time>2021-10-12T14:16:48Z</time>
    </trkpt>
    <trkpt lat="38.661963986" lon="34.857801022">
      <ele>1278.343</ele>
      <time>2021-10-12T14:16:49Z</time>
    </trkpt>
    <trkpt lat="38.661973961" lon="34.857844021">
      <ele>1278.343</ele>
      <time>2021-10-12T14:16:51Z</time>
    </trkpt>
    <trkpt lat="38.661984019" lon="34.857885009">
      <ele>1278.39</ele>
      <time>2021-10-12T14:16:52Z</time>
    </trkpt>
    <trkpt lat="38.661996005" lon="34.857921973">
      <ele>1278.55</ele>
      <time>2021-10-12T14:16:53Z</time>
    </trkpt>
    <trkpt lat="38.662003968" lon="34.857960027">
      <ele>1278.61</ele>
      <time>2021-10-12T14:16:54Z</time>
    </trkpt>
    <trkpt lat="38.662010003" lon="34.857996991">
      <ele>1278.632</ele>
      <time>2021-10-12T14:16:55Z</time>
    </trkpt>
    <trkpt lat="38.662018972" lon="34.858033033">
      <ele>1278.78</ele>
      <time>2021-10-12T14:16:56Z</time>
    </trkpt>
    <trkpt lat="38.662031041" lon="34.858067986">
      <ele>1279.193</ele>
      <time>2021-10-12T14:16:57Z</time>
    </trkpt>
    <trkpt lat="38.662042022" lon="34.858102016">
      <ele>1279.789</ele>
      <time>2021-10-12T14:16:58Z</time>
    </trkpt>
    <trkpt lat="38.662047973" lon="34.858139986">
      <ele>1280.222</ele>
      <time>2021-10-12T14:17:00Z</time>
    </trkpt>
    <trkpt lat="38.66205602" lon="34.858174017">
      <ele>1280.698</ele>
      <time>2021-10-12T14:17:01Z</time>
    </trkpt>
    <trkpt lat="38.662064988" lon="34.858207963">
      <ele>1281.199</ele>
      <time>2021-10-12T14:17:02Z</time>
    </trkpt>
    <trkpt lat="38.662073035" lon="34.858244006">
      <ele>1281.672</ele>
      <time>2021-10-12T14:17:03Z</time>
    </trkpt>
    <trkpt lat="38.662080998" lon="34.858279964">
      <ele>1282.135</ele>
      <time>2021-10-12T14:17:04Z</time>
    </trkpt>
    <trkpt lat="38.662087033" lon="34.858318018">
      <ele>1282.538</ele>
      <time>2021-10-12T14:17:05Z</time>
    </trkpt>
    <trkpt lat="38.662092984" lon="34.858356994">
      <ele>1282.852</ele>
      <time>2021-10-12T14:17:06Z</time>
    </trkpt>
    <trkpt lat="38.66210103" lon="34.858396975">
      <ele>1283.173</ele>
      <time>2021-10-12T14:17:07Z</time>
    </trkpt>
    <trkpt lat="38.662108993" lon="34.858437963">
      <ele>1283.485</ele>
      <time>2021-10-12T14:17:09Z</time>
    </trkpt>
    <trkpt lat="38.662109999" lon="34.858477022">
      <ele>1283.573</ele>
      <time>2021-10-12T14:17:10Z</time>
    </trkpt>
    <trkpt lat="38.662107987" lon="34.858517004">
      <ele>1283.571</ele>
      <time>2021-10-12T14:17:11Z</time>
    </trkpt>
    <trkpt lat="38.662106982" lon="34.858557992">
      <ele>1283.602</ele>
      <time>2021-10-12T14:17:12Z</time>
    </trkpt>
    <trkpt lat="38.662106982" lon="34.858596968">
      <ele>1283.66</ele>
      <time>2021-10-12T14:17:13Z</time>
    </trkpt>
    <trkpt lat="38.662103964" lon="34.858640973">
      <ele>1283.747</ele>
      <time>2021-10-12T14:17:14Z</time>
    </trkpt>
    <trkpt lat="38.662102036" lon="34.858681038">
      <ele>1283.899</ele>
      <time>2021-10-12T14:17:16Z</time>
    </trkpt>
    <trkpt lat="38.662092984" lon="34.858726971">
      <ele>1283.889</ele>
      <time>2021-10-12T14:17:17Z</time>
    </trkpt>
    <trkpt lat="38.662085021" lon="34.858771982">
      <ele>1283.914</ele>
      <time>2021-10-12T14:17:18Z</time>
    </trkpt>
    <trkpt lat="38.662074041" lon="34.858813975">
      <ele>1283.852</ele>
      <time>2021-10-12T14:17:20Z</time>
    </trkpt>
    <trkpt lat="38.662061971" lon="34.858855968">
      <ele>1283.775</ele>
      <time>2021-10-12T14:17:21Z</time>
    </trkpt>
    <trkpt lat="38.662047973" lon="34.858892011">
      <ele>1283.664</ele>
      <time>2021-10-12T14:17:22Z</time>
    </trkpt>
    <trkpt lat="38.662036993" lon="34.858924029">
      <ele>1283.965</ele>
      <time>2021-10-12T14:17:23Z</time>
    </trkpt>
    <trkpt lat="38.662019977" lon="34.858955964">
      <ele>1284.155</ele>
      <time>2021-10-12T14:17:24Z</time>
    </trkpt>
    <trkpt lat="38.662001034" lon="34.858986977">
      <ele>1284.329</ele>
      <time>2021-10-12T14:17:25Z</time>
    </trkpt>
    <trkpt lat="38.661985025" lon="34.859020002">
      <ele>1284.648</ele>
      <time>2021-10-12T14:17:26Z</time>
    </trkpt>
    <trkpt lat="38.661972033" lon="34.859053027">
      <ele>1285.065</ele>
      <time>2021-10-12T14:17:28Z</time>
    </trkpt>
    <trkpt lat="38.661960969" lon="34.859083034">
      <ele>1285.485</ele>
      <time>2021-10-12T14:17:29Z</time>
    </trkpt>
    <trkpt lat="38.661946971" lon="34.859117987">
      <ele>1285.99</ele>
      <time>2021-10-12T14:17:30Z</time>
    </trkpt>
    <trkpt lat="38.661934985" lon="34.859151011">
      <ele>1286.316</ele>
      <time>2021-10-12T14:17:31Z</time>
    </trkpt>
    <trkpt lat="38.661926016" lon="34.859185042">
      <ele>1286.729</ele>
      <time>2021-10-12T14:17:32Z</time>
    </trkpt>
    <trkpt lat="38.661920987" lon="34.859218989">
      <ele>1287.27</ele>
      <time>2021-10-12T14:17:33Z</time>
    </trkpt>
    <trkpt lat="38.66191797" lon="34.859255031">
      <ele>1287.925</ele>
      <time>2021-10-12T14:17:34Z</time>
    </trkpt>
    <trkpt lat="38.661916964" lon="34.859291995">
      <ele>1288.673</ele>
      <time>2021-10-12T14:17:35Z</time>
    </trkpt>
    <trkpt lat="38.66191797" lon="34.859327031">
      <ele>1289.456</ele>
      <time>2021-10-12T14:17:36Z</time>
    </trkpt>
    <trkpt lat="38.661921993" lon="34.859365001">
      <ele>1290.418</ele>
      <time>2021-10-12T14:17:37Z</time>
    </trkpt>
    <trkpt lat="38.661921993" lon="34.859403977">
      <ele>1291.249</ele>
      <time>2021-10-12T14:17:38Z</time>
    </trkpt>
    <trkpt lat="38.661918975" lon="34.859441025">
      <ele>1291.919</ele>
      <time>2021-10-12T14:17:39Z</time>
    </trkpt>
    <trkpt lat="38.661915036" lon="34.859480001">
      <ele>1291.963</ele>
      <time>2021-10-12T14:17:40Z</time>
    </trkpt>
    <trkpt lat="38.661911013" lon="34.859521994">
      <ele>1291.955</ele>
      <time>2021-10-12T14:17:42Z</time>
    </trkpt>
    <trkpt lat="38.661910007" lon="34.859561976">
      <ele>1292.059</ele>
      <time>2021-10-12T14:17:43Z</time>
    </trkpt>
    <trkpt lat="38.661905983" lon="34.859603969">
      <ele>1292.051</ele>
      <time>2021-10-12T14:17:44Z</time>
    </trkpt>
    <trkpt lat="38.661904978" lon="34.859645041">
      <ele>1292.159</ele>
      <time>2021-10-12T14:17:45Z</time>
    </trkpt>
    <trkpt lat="38.66190196" lon="34.859683011">
      <ele>1292.176</ele>
      <time>2021-10-12T14:17:46Z</time>
    </trkpt>
    <trkpt lat="38.661895003" lon="34.859723998">
      <ele>1292.038</ele>
      <time>2021-10-12T14:17:47Z</time>
    </trkpt>
    <trkpt lat="38.661892992" lon="34.859762974">
      <ele>1291.87</ele>
      <time>2021-10-12T14:17:49Z</time>
    </trkpt>
    <trkpt lat="38.661889974" lon="34.859802034">
      <ele>1291.668</ele>
      <time>2021-10-12T14:17:50Z</time>
    </trkpt>
    <trkpt lat="38.661887962" lon="34.859842015">
      <ele>1291.507</ele>
      <time>2021-10-12T14:17:51Z</time>
    </trkpt>
    <trkpt lat="38.661882011" lon="34.859883003">
      <ele>1291.209</ele>
      <time>2021-10-12T14:17:52Z</time>
    </trkpt>
    <trkpt lat="38.66187497" lon="34.859920973">
      <ele>1290.891</ele>
      <time>2021-10-12T14:17:53Z</time>
    </trkpt>
    <trkpt lat="38.661870025" lon="34.859958021">
      <ele>1290.659</ele>
      <time>2021-10-12T14:17:54Z</time>
    </trkpt>
    <trkpt lat="38.661867008" lon="34.860000014">
      <ele>1290.491</ele>
      <time>2021-10-12T14:17:56Z</time>
    </trkpt>
    <trkpt lat="38.661866002" lon="34.860039996">
      <ele>1290.602</ele>
      <time>2021-10-12T14:17:57Z</time>
    </trkpt>
    <trkpt lat="38.661864996" lon="34.860080983">
      <ele>1290.717</ele>
      <time>2021-10-12T14:17:58Z</time>
    </trkpt>
    <trkpt lat="38.661862984" lon="34.860124988">
      <ele>1290.811</ele>
      <time>2021-10-12T14:17:59Z</time>
    </trkpt>
    <trkpt lat="38.661858039" lon="34.860163964">
      <ele>1290.791</ele>
      <time>2021-10-12T14:18:00Z</time>
    </trkpt>
    <trkpt lat="38.661847981" lon="34.860205036">
      <ele>1290.613</ele>
      <time>2021-10-12T14:18:02Z</time>
    </trkpt>
    <trkpt lat="38.661838006" lon="34.860245017">
      <ele>1290.433</ele>
      <time>2021-10-12T14:18:03Z</time>
    </trkpt>
    <trkpt lat="38.661827026" lon="34.860282987">
      <ele>1290.219</ele>
      <time>2021-10-12T14:18:04Z</time>
    </trkpt>
    <trkpt lat="38.661816968" lon="34.860325987">
      <ele>1290.109</ele>
      <time>2021-10-12T14:18:05Z</time>
    </trkpt>
    <trkpt lat="38.661810011" lon="34.860368986">
      <ele>1290.121</ele>
      <time>2021-10-12T14:18:07Z</time>
    </trkpt>
    <trkpt lat="38.66180297" lon="34.860410979">
      <ele>1290.149</ele>
      <time>2021-10-12T14:18:08Z</time>
    </trkpt>
    <trkpt lat="38.661796013" lon="34.860452972">
      <ele>1290.202</ele>
      <time>2021-10-12T14:18:09Z</time>
    </trkpt>
    <trkpt lat="38.66178696" lon="34.86049396">
      <ele>1290.221</ele>
      <time>2021-10-12T14:18:10Z</time>
    </trkpt>
    <trkpt lat="38.661776986" lon="34.86053302">
      <ele>1290.236</ele>
      <time>2021-10-12T14:18:11Z</time>
    </trkpt>
    <trkpt lat="38.661763994" lon="34.860571995">
      <ele>1290.357</ele>
      <time>2021-10-12T14:18:13Z</time>
    </trkpt>
    <trkpt lat="38.661747985" lon="34.860609965">
      <ele>1290.621</ele>
      <time>2021-10-12T14:18:14Z</time>
    </trkpt>
    <trkpt lat="38.661733987" lon="34.860645002">
      <ele>1290.908</ele>
      <time>2021-10-12T14:18:15Z</time>
    </trkpt>
    <trkpt lat="38.661715966" lon="34.860681966">
      <ele>1291.179</ele>
      <time>2021-10-12T14:18:16Z</time>
    </trkpt>
    <trkpt lat="38.661696017" lon="34.860718008">
      <ele>1291.435</ele>
      <time>2021-10-12T14:18:18Z</time>
    </trkpt>
    <trkpt lat="38.661672967" lon="34.860751033">
      <ele>1291.623</ele>
      <time>2021-10-12T14:18:19Z</time>
    </trkpt>
    <trkpt lat="38.661645977" lon="34.860780034">
      <ele>1291.505</ele>
      <time>2021-10-12T14:18:20Z</time>
    </trkpt>
    <trkpt lat="38.661622005" lon="34.860800989">
      <ele>1291.274</ele>
      <time>2021-10-12T14:18:21Z</time>
    </trkpt>
    <trkpt lat="38.661594009" lon="34.860821022">
      <ele>1290.936</ele>
      <time>2021-10-12T14:18:22Z</time>
    </trkpt>
    <trkpt lat="38.661565008" lon="34.860848011">
      <ele>1290.621</ele>
      <time>2021-10-12T14:18:24Z</time>
    </trkpt>
    <trkpt lat="38.661543969" lon="34.860877013">
      <ele>1290.5</ele>
      <time>2021-10-12T14:18:25Z</time>
    </trkpt>
    <trkpt lat="38.661526032" lon="34.860906014">
      <ele>1290.509</ele>
      <time>2021-10-12T14:18:26Z</time>
    </trkpt>
    <trkpt lat="38.661504993" lon="34.860931998">
      <ele>1290.463</ele>
      <time>2021-10-12T14:18:27Z</time>
    </trkpt>
    <trkpt lat="38.661483033" lon="34.860956976">
      <ele>1290.44</ele>
      <time>2021-10-12T14:18:28Z</time>
    </trkpt>
    <trkpt lat="38.661461994" lon="34.860976003">
      <ele>1290.383</ele>
      <time>2021-10-12T14:18:29Z</time>
    </trkpt>
    <trkpt lat="38.661439028" lon="34.86099897">
      <ele>1290.411</ele>
      <time>2021-10-12T14:18:30Z</time>
    </trkpt>
    <trkpt lat="38.661414972" lon="34.861024031">
      <ele>1290.519</ele>
      <time>2021-10-12T14:18:31Z</time>
    </trkpt>
    <trkpt lat="38.661392005" lon="34.861048004">
      <ele>1290.681</ele>
      <time>2021-10-12T14:18:32Z</time>
    </trkpt>
    <trkpt lat="38.661367027" lon="34.861073988">
      <ele>1291.256</ele>
      <time>2021-10-12T14:18:34Z</time>
    </trkpt>
    <trkpt lat="38.661342971" lon="34.861096032">
      <ele>1291.822</ele>
      <time>2021-10-12T14:18:35Z</time>
    </trkpt>
    <trkpt lat="38.661322016" lon="34.861118998">
      <ele>1292.333</ele>
      <time>2021-10-12T14:18:36Z</time>
    </trkpt>
    <trkpt lat="38.661299972" lon="34.861142971">
      <ele>1292.701</ele>
      <time>2021-10-12T14:18:37Z</time>
    </trkpt>
    <trkpt lat="38.661280023" lon="34.861169038">
      <ele>1293.099</ele>
      <time>2021-10-12T14:18:38Z</time>
    </trkpt>
    <trkpt lat="38.661257979" lon="34.86119804">
      <ele>1293.558</ele>
      <time>2021-10-12T14:18:39Z</time>
    </trkpt>
    <trkpt lat="38.661236018" lon="34.861228969">
      <ele>1294.057</ele>
      <time>2021-10-12T14:18:40Z</time>
    </trkpt>
    <trkpt lat="38.661216991" lon="34.861256965">
      <ele>1294.519</ele>
      <time>2021-10-12T14:18:41Z</time>
    </trkpt>
    <trkpt lat="38.661194025" lon="34.861287978">
      <ele>1295.058</ele>
      <time>2021-10-12T14:18:43Z</time>
    </trkpt>
    <trkpt lat="38.661170974" lon="34.861316979">
      <ele>1295.589</ele>
      <time>2021-10-12T14:18:44Z</time>
    </trkpt>
    <trkpt lat="38.661148008" lon="34.861344974">
      <ele>1296.123</ele>
      <time>2021-10-12T14:18:45Z</time>
    </trkpt>
    <trkpt lat="38.661122024" lon="34.861370958">
      <ele>1296.666</ele>
      <time>2021-10-12T14:18:46Z</time>
    </trkpt>
    <trkpt lat="38.661095034" lon="34.86139602">
      <ele>1297.049</ele>
      <time>2021-10-12T14:18:47Z</time>
    </trkpt>
    <trkpt lat="38.661065027" lon="34.861418987">
      <ele>1297.321</ele>
      <time>2021-10-12T14:18:49Z</time>
    </trkpt>
    <trkpt lat="38.661036026" lon="34.861439019">
      <ele>1297.598</ele>
      <time>2021-10-12T14:18:50Z</time>
    </trkpt>
    <trkpt lat="38.66100803" lon="34.861454023">
      <ele>1297.828</ele>
      <time>2021-10-12T14:18:51Z</time>
    </trkpt>
    <trkpt lat="38.660979029" lon="34.861468021">
      <ele>1298.07</ele>
      <time>2021-10-12T14:18:52Z</time>
    </trkpt>
    <trkpt lat="38.660951033" lon="34.861479001">
      <ele>1298.282</ele>
      <time>2021-10-12T14:18:53Z</time>
    </trkpt>
    <trkpt lat="38.660918009" lon="34.861489981">
      <ele>1298.52</ele>
      <time>2021-10-12T14:18:55Z</time>
    </trkpt>
    <trkpt lat="38.660889007" lon="34.86150004">
      <ele>1298.761</ele>
      <time>2021-10-12T14:18:56Z</time>
    </trkpt>
    <trkpt lat="38.660857994" lon="34.86151102">
      <ele>1299.049</ele>
      <time>2021-10-12T14:18:57Z</time>
    </trkpt>
    <trkpt lat="38.660831004" lon="34.861514959">
      <ele>1299.176</ele>
      <time>2021-10-12T14:18:58Z</time>
    </trkpt>
    <trkpt lat="38.660804015" lon="34.861518983">
      <ele>1299.272</ele>
      <time>2021-10-12T14:18:59Z</time>
    </trkpt>
    <trkpt lat="38.660771996" lon="34.861524012">
      <ele>1299.399</ele>
      <time>2021-10-12T14:19:00Z</time>
    </trkpt>
    <trkpt lat="38.660740983" lon="34.861531975">
      <ele>1299.616</ele>
      <time>2021-10-12T14:19:01Z</time>
    </trkpt>
    <trkpt lat="38.660711981" lon="34.861541027">
      <ele>1299.876</ele>
      <time>2021-10-12T14:19:02Z</time>
    </trkpt>
    <trkpt lat="38.66067904" lon="34.861549996">
      <ele>1300.149</ele>
      <time>2021-10-12T14:19:04Z</time>
    </trkpt>
    <trkpt lat="38.660649033" lon="34.86155997">
      <ele>1300.465</ele>
      <time>2021-10-12T14:19:05Z</time>
    </trkpt>
    <trkpt lat="38.66061802" lon="34.861573968">
      <ele>1300.922</ele>
      <time>2021-10-12T14:19:06Z</time>
    </trkpt>
    <trkpt lat="38.66058399" lon="34.861582015">
      <ele>1301.217</ele>
      <time>2021-10-12T14:19:07Z</time>
    </trkpt>
    <trkpt lat="38.660555994" lon="34.861595007">
      <ele>1301.677</ele>
      <time>2021-10-12T14:19:08Z</time>
    </trkpt>
    <trkpt lat="38.660523975" lon="34.861606993">
      <ele>1302.067</ele>
      <time>2021-10-12T14:19:10Z</time>
    </trkpt>
    <trkpt lat="38.660492962" lon="34.861616967">
      <ele>1302.39</ele>
      <time>2021-10-12T14:19:11Z</time>
    </trkpt>
    <trkpt lat="38.660462033" lon="34.86162602">
      <ele>1302.683</ele>
      <time>2021-10-12T14:19:12Z</time>
    </trkpt>
    <trkpt lat="38.660430014" lon="34.861630965">
      <ele>1302.843</ele>
      <time>2021-10-12T14:19:13Z</time>
    </trkpt>
    <trkpt lat="38.660402019" lon="34.861628031">
      <ele>1302.748</ele>
      <time>2021-10-12T14:19:14Z</time>
    </trkpt>
    <trkpt lat="38.66037" lon="34.861621996">
      <ele>1302.553</ele>
      <time>2021-10-12T14:19:15Z</time>
    </trkpt>
    <trkpt lat="38.660336975" lon="34.861617973">
      <ele>1302.422</ele>
      <time>2021-10-12T14:19:17Z</time>
    </trkpt>
    <trkpt lat="38.660243014" lon="34.861612022">
      <ele>1301.928</ele>
      <time>2021-10-12T14:19:20Z</time>
    </trkpt>
    <trkpt lat="38.660151986" lon="34.861590983">
      <ele>1300.559</ele>
      <time>2021-10-12T14:19:24Z</time>
    </trkpt>
    <trkpt lat="38.660095995" lon="34.861576986">
      <ele>1299.765</ele>
      <time>2021-10-12T14:19:26Z</time>
    </trkpt>
    <trkpt lat="38.660062971" lon="34.861570029">
      <ele>1299.356</ele>
      <time>2021-10-12T14:19:27Z</time>
    </trkpt>
    <trkpt lat="38.660034975" lon="34.861562988">
      <ele>1298.997</ele>
      <time>2021-10-12T14:19:28Z</time>
    </trkpt>
    <trkpt lat="38.660001028" lon="34.861557037">
      <ele>1298.639</ele>
      <time>2021-10-12T14:19:29Z</time>
    </trkpt>
    <trkpt lat="38.659905978" lon="34.861545973">
      <ele>1298.246</ele>
      <time>2021-10-12T14:19:33Z</time>
    </trkpt>
    <trkpt lat="38.659808999" lon="34.86155997">
      <ele>1298.431</ele>
      <time>2021-10-12T14:19:36Z</time>
    </trkpt>
    <trkpt lat="38.659710009" lon="34.86157204">
      <ele>1298.733</ele>
      <time>2021-10-12T14:19:40Z</time>
    </trkpt>
    <trkpt lat="38.659600038" lon="34.861586038">
      <ele>1300.103</ele>
      <time>2021-10-12T14:19:44Z</time>
    </trkpt>
    <trkpt lat="38.659563996" lon="34.861595007">
      <ele>1300.627</ele>
      <time>2021-10-12T14:19:45Z</time>
    </trkpt>
    <trkpt lat="38.659526026" lon="34.861601042">
      <ele>1301.093</ele>
      <time>2021-10-12T14:19:47Z</time>
    </trkpt>
    <trkpt lat="38.659489984" lon="34.861603975">
      <ele>1301.47</ele>
      <time>2021-10-12T14:19:48Z</time>
    </trkpt>
    <trkpt lat="38.659454025" lon="34.861600036">
      <ele>1301.715</ele>
      <time>2021-10-12T14:19:50Z</time>
    </trkpt>
    <trkpt lat="38.659422006" lon="34.861598024">
      <ele>1301.845</ele>
      <time>2021-10-12T14:19:51Z</time>
    </trkpt>
    <trkpt lat="38.659387976" lon="34.861591989">
      <ele>1301.859</ele>
      <time>2021-10-12T14:19:52Z</time>
    </trkpt>
    <trkpt lat="38.659357969" lon="34.861583021">
      <ele>1301.806</ele>
      <time>2021-10-12T14:19:53Z</time>
    </trkpt>
    <trkpt lat="38.659328967" lon="34.861566005">
      <ele>1301.604</ele>
      <time>2021-10-12T14:19:54Z</time>
    </trkpt>
    <trkpt lat="38.659301978" lon="34.861547984">
      <ele>1301.377</ele>
      <time>2021-10-12T14:19:55Z</time>
    </trkpt>
    <trkpt lat="38.659274988" lon="34.861537004">
      <ele>1301.276</ele>
      <time>2021-10-12T14:19:57Z</time>
    </trkpt>
    <trkpt lat="38.659245986" lon="34.861522">
      <ele>1301.11</ele>
      <time>2021-10-12T14:19:58Z</time>
    </trkpt>
    <trkpt lat="38.659216985" lon="34.861505991">
      <ele>1300.927</ele>
      <time>2021-10-12T14:19:59Z</time>
    </trkpt>
    <trkpt lat="38.659187984" lon="34.861491993">
      <ele>1300.779</ele>
      <time>2021-10-12T14:20:00Z</time>
    </trkpt>
    <trkpt lat="38.659158982" lon="34.861476989">
      <ele>1300.624</ele>
      <time>2021-10-12T14:20:01Z</time>
    </trkpt>
    <trkpt lat="38.659131993" lon="34.861466009">
      <ele>1300.569</ele>
      <time>2021-10-12T14:20:02Z</time>
    </trkpt>
    <trkpt lat="38.659103997" lon="34.861448994">
      <ele>1300.435</ele>
      <time>2021-10-12T14:20:03Z</time>
    </trkpt>
    <trkpt lat="38.659080025" lon="34.861431979">
      <ele>1300.303</ele>
      <time>2021-10-12T14:20:04Z</time>
    </trkpt>
    <trkpt lat="38.659054963" lon="34.861410018">
      <ele>1300.123</ele>
      <time>2021-10-12T14:20:05Z</time>
    </trkpt>
    <trkpt lat="38.659030991" lon="34.861387974">
      <ele>1299.965</ele>
      <time>2021-10-12T14:20:07Z</time>
    </trkpt>
    <trkpt lat="38.659007018" lon="34.861370036">
      <ele>1299.917</ele>
      <time>2021-10-12T14:20:08Z</time>
    </trkpt>
    <trkpt lat="38.65898204" lon="34.861354027">
      <ele>1299.911</ele>
      <time>2021-10-12T14:20:09Z</time>
    </trkpt>
    <trkpt lat="38.658955973" lon="34.861343969">
      <ele>1299.993</ele>
      <time>2021-10-12T14:20:10Z</time>
    </trkpt>
    <trkpt lat="38.65892496" lon="34.861333994">
      <ele>1300.122</ele>
      <time>2021-10-12T14:20:11Z</time>
    </trkpt>
    <trkpt lat="38.658893025" lon="34.861336006">
      <ele>1300.396</ele>
      <time>2021-10-12T14:20:12Z</time>
    </trkpt>
    <trkpt lat="38.658865029" lon="34.861333994">
      <ele>1300.304</ele>
      <time>2021-10-12T14:20:13Z</time>
    </trkpt>
    <trkpt lat="38.658828987" lon="34.861333994">
      <ele>1300.149</ele>
      <time>2021-10-12T14:20:14Z</time>
    </trkpt>
    <trkpt lat="38.658792023" lon="34.861335">
      <ele>1300.002</ele>
      <time>2021-10-12T14:20:16Z</time>
    </trkpt>
    <trkpt lat="38.65875598" lon="34.861339023">
      <ele>1299.897</ele>
      <time>2021-10-12T14:20:17Z</time>
    </trkpt>
    <trkpt lat="38.658720022" lon="34.861348998">
      <ele>1299.874</ele>
      <time>2021-10-12T14:20:18Z</time>
    </trkpt>
    <trkpt lat="38.658689009" lon="34.861359978">
      <ele>1299.893</ele>
      <time>2021-10-12T14:20:20Z</time>
    </trkpt>
    <trkpt lat="38.658660008" lon="34.861370958">
      <ele>1299.929</ele>
      <time>2021-10-12T14:20:21Z</time>
    </trkpt>
    <trkpt lat="38.65863" lon="34.861380011">
      <ele>1299.942</ele>
      <time>2021-10-12T14:20:22Z</time>
    </trkpt>
    <trkpt lat="38.658604017" lon="34.861389985">
      <ele>1299.909</ele>
      <time>2021-10-12T14:20:23Z</time>
    </trkpt>
    <trkpt lat="38.658577027" lon="34.861407001">
      <ele>1299.689</ele>
      <time>2021-10-12T14:20:24Z</time>
    </trkpt>
    <trkpt lat="38.658552971" lon="34.861429967">
      <ele>1299.545</ele>
      <time>2021-10-12T14:20:25Z</time>
    </trkpt>
    <trkpt lat="38.658534028" lon="34.861458968">
      <ele>1299.507</ele>
      <time>2021-10-12T14:20:26Z</time>
    </trkpt>
    <trkpt lat="38.658517012" lon="34.861489981">
      <ele>1299.49</ele>
      <time>2021-10-12T14:20:27Z</time>
    </trkpt>
    <trkpt lat="38.658506032" lon="34.861518983">
      <ele>1299.538</ele>
      <time>2021-10-12T14:20:28Z</time>
    </trkpt>
    <trkpt lat="38.658503015" lon="34.86154899">
      <ele>1299.724</ele>
      <time>2021-10-12T14:20:29Z</time>
    </trkpt>
    <trkpt lat="38.658499997" lon="34.86158696">
      <ele>1299.969</ele>
      <time>2021-10-12T14:20:30Z</time>
    </trkpt>
    <trkpt lat="38.658498991" lon="34.861627026">
      <ele>1300.265</ele>
      <time>2021-10-12T14:20:31Z</time>
    </trkpt>
    <trkpt lat="38.658502009" lon="34.861666001">
      <ele>1300.638</ele>
      <time>2021-10-12T14:20:33Z</time>
    </trkpt>
    <trkpt lat="38.658505026" lon="34.861704977">
      <ele>1301.017</ele>
      <time>2021-10-12T14:20:34Z</time>
    </trkpt>
    <trkpt lat="38.658507038" lon="34.861744959">
      <ele>1301.386</ele>
      <time>2021-10-12T14:20:35Z</time>
    </trkpt>
    <trkpt lat="38.658505026" lon="34.861859959">
      <ele>1302.265</ele>
      <time>2021-10-12T14:20:38Z</time>
    </trkpt>
    <trkpt lat="38.658503015" lon="34.861897007">
      <ele>1302.507</ele>
      <time>2021-10-12T14:20:39Z</time>
    </trkpt>
    <trkpt lat="38.658499997" lon="34.861936988">
      <ele>1302.741</ele>
      <time>2021-10-12T14:20:40Z</time>
    </trkpt>
    <trkpt lat="38.658501003" lon="34.862006977">
      <ele>1303.462</ele>
      <time>2021-10-12T14:20:42Z</time>
    </trkpt>
    <trkpt lat="38.658501003" lon="34.862043019">
      <ele>1303.826</ele>
      <time>2021-10-12T14:20:44Z</time>
    </trkpt>
    <trkpt lat="38.65850402" lon="34.86207596">
      <ele>1304.262</ele>
      <time>2021-10-12T14:20:44Z</time>
    </trkpt>
    <trkpt lat="38.658506032" lon="34.862116026">
      <ele>1304.744</ele>
      <time>2021-10-12T14:20:46Z</time>
    </trkpt>
    <trkpt lat="38.658505026" lon="34.862155002">
      <ele>1305.108</ele>
      <time>2021-10-12T14:20:47Z</time>
    </trkpt>
    <trkpt lat="38.658503015" lon="34.862193977">
      <ele>1305.431</ele>
      <time>2021-10-12T14:20:48Z</time>
    </trkpt>
    <trkpt lat="38.658503015" lon="34.862232031">
      <ele>1305.768</ele>
      <time>2021-10-12T14:20:49Z</time>
    </trkpt>
    <trkpt lat="38.658502009" lon="34.862272013">
      <ele>1305.929</ele>
      <time>2021-10-12T14:20:50Z</time>
    </trkpt>
    <trkpt lat="38.658501003" lon="34.862310989">
      <ele>1306.086</ele>
      <time>2021-10-12T14:20:51Z</time>
    </trkpt>
    <trkpt lat="38.658497985" lon="34.862349965">
      <ele>1306.167</ele>
      <time>2021-10-12T14:20:52Z</time>
    </trkpt>
    <trkpt lat="38.658493962" lon="34.862392042">
      <ele>1306.23</ele>
      <time>2021-10-12T14:20:54Z</time>
    </trkpt>
    <trkpt lat="38.658495974" lon="34.862430012">
      <ele>1306.499</ele>
      <time>2021-10-12T14:20:55Z</time>
    </trkpt>
    <trkpt lat="38.658492034" lon="34.862468988">
      <ele>1306.554</ele>
      <time>2021-10-12T14:20:56Z</time>
    </trkpt>
    <trkpt lat="38.658488011" lon="34.862506036">
      <ele>1306.597</ele>
      <time>2021-10-12T14:20:57Z</time>
    </trkpt>
    <trkpt lat="38.658482982" lon="34.862541994">
      <ele>1306.597</ele>
      <time>2021-10-12T14:20:58Z</time>
    </trkpt>
    <trkpt lat="38.658476025" lon="34.862582982">
      <ele>1306.573</ele>
      <time>2021-10-12T14:20:59Z</time>
    </trkpt>
    <trkpt lat="38.65846999" lon="34.862621035">
      <ele>1306.584</ele>
      <time>2021-10-12T14:21:00Z</time>
    </trkpt>
    <trkpt lat="38.658464961" lon="34.862660011">
      <ele>1306.648</ele>
      <time>2021-10-12T14:21:02Z</time>
    </trkpt>
    <trkpt lat="38.658460015" lon="34.862698987">
      <ele>1306.73</ele>
      <time>2021-10-12T14:21:03Z</time>
    </trkpt>
    <trkpt lat="38.658455992" lon="34.862737041">
      <ele>1306.845</ele>
      <time>2021-10-12T14:21:04Z</time>
    </trkpt>
    <trkpt lat="38.658450041" lon="34.862776017">
      <ele>1306.93</ele>
      <time>2021-10-12T14:21:05Z</time>
    </trkpt>
    <trkpt lat="38.658446018" lon="34.862811975">
      <ele>1307.132</ele>
      <time>2021-10-12T14:21:06Z</time>
    </trkpt>
    <trkpt lat="38.658441994" lon="34.862847012">
      <ele>1307.345</ele>
      <time>2021-10-12T14:21:07Z</time>
    </trkpt>
    <trkpt lat="38.658434032" lon="34.862883976">
      <ele>1307.512</ele>
      <time>2021-10-12T14:21:08Z</time>
    </trkpt>
    <trkpt lat="38.658424979" lon="34.862917">
      <ele>1307.653</ele>
      <time>2021-10-12T14:21:09Z</time>
    </trkpt>
    <trkpt lat="38.658413999" lon="34.862952959">
      <ele>1307.823</ele>
      <time>2021-10-12T14:21:10Z</time>
    </trkpt>
    <trkpt lat="38.658403018" lon="34.862989001">
      <ele>1308.035</ele>
      <time>2021-10-12T14:21:11Z</time>
    </trkpt>
    <trkpt lat="38.658390027" lon="34.863028983">
      <ele>1308.308</ele>
      <time>2021-10-12T14:21:13Z</time>
    </trkpt>
    <trkpt lat="38.658377035" lon="34.863066031">
      <ele>1308.498</ele>
      <time>2021-10-12T14:21:14Z</time>
    </trkpt>
    <trkpt lat="38.658364965" lon="34.863102995">
      <ele>1308.474</ele>
      <time>2021-10-12T14:21:15Z</time>
    </trkpt>
    <trkpt lat="38.658352979" lon="34.863139959">
      <ele>1308.473</ele>
      <time>2021-10-12T14:21:16Z</time>
    </trkpt>
    <trkpt lat="38.658341998" lon="34.863176001">
      <ele>1308.5</ele>
      <time>2021-10-12T14:21:17Z</time>
    </trkpt>
    <trkpt lat="38.658332024" lon="34.863214977">
      <ele>1308.55</ele>
      <time>2021-10-12T14:21:18Z</time>
    </trkpt>
    <trkpt lat="38.658318026" lon="34.863253031">
      <ele>1308.466</ele>
      <time>2021-10-12T14:21:20Z</time>
    </trkpt>
    <trkpt lat="38.658303022" lon="34.863289995">
      <ele>1308.432</ele>
      <time>2021-10-12T14:21:21Z</time>
    </trkpt>
    <trkpt lat="38.658288019" lon="34.863327965">
      <ele>1308.476</ele>
      <time>2021-10-12T14:21:22Z</time>
    </trkpt>
    <trkpt lat="38.658272009" lon="34.863367025">
      <ele>1308.513</ele>
      <time>2021-10-12T14:21:23Z</time>
    </trkpt>
    <trkpt lat="38.658258012" lon="34.863406001">
      <ele>1308.59</ele>
      <time>2021-10-12T14:21:25Z</time>
    </trkpt>
    <trkpt lat="38.658242002" lon="34.863445982">
      <ele>1308.686</ele>
      <time>2021-10-12T14:21:26Z</time>
    </trkpt>
    <trkpt lat="38.658223981" lon="34.863482025">
      <ele>1308.776</ele>
      <time>2021-10-12T14:21:27Z</time>
    </trkpt>
    <trkpt lat="38.65820202" lon="34.863514965">
      <ele>1308.854</ele>
      <time>2021-10-12T14:21:28Z</time>
    </trkpt>
    <trkpt lat="38.658180982" lon="34.863546984">
      <ele>1308.967</ele>
      <time>2021-10-12T14:21:30Z</time>
    </trkpt>
    <trkpt lat="38.658159021" lon="34.863575986">
      <ele>1309.087</ele>
      <time>2021-10-12T14:21:31Z</time>
    </trkpt>
    <trkpt lat="38.658137983" lon="34.86360901">
      <ele>1309.279</ele>
      <time>2021-10-12T14:21:32Z</time>
    </trkpt>
    <trkpt lat="38.658119962" lon="34.863642035">
      <ele>1309.437</ele>
      <time>2021-10-12T14:21:33Z</time>
    </trkpt>
    <trkpt lat="38.658100013" lon="34.86367397">
      <ele>1309.658</ele>
      <time>2021-10-12T14:21:34Z</time>
    </trkpt>
    <trkpt lat="38.658081992" lon="34.863702971">
      <ele>1309.93</ele>
      <time>2021-10-12T14:21:35Z</time>
    </trkpt>
    <trkpt lat="38.658061959" lon="34.863733985">
      <ele>1310.299</ele>
      <time>2021-10-12T14:21:37Z</time>
    </trkpt>
    <trkpt lat="38.658039998" lon="34.863763992">
      <ele>1310.52</ele>
      <time>2021-10-12T14:21:38Z</time>
    </trkpt>
    <trkpt lat="38.658019966" lon="34.863795005">
      <ele>1310.728</ele>
      <time>2021-10-12T14:21:39Z</time>
    </trkpt>
    <trkpt lat="38.658001022" lon="34.863830963">
      <ele>1311.055</ele>
      <time>2021-10-12T14:21:40Z</time>
    </trkpt>
    <trkpt lat="38.657981995" lon="34.863859965">
      <ele>1311.34</ele>
      <time>2021-10-12T14:21:41Z</time>
    </trkpt>
    <trkpt lat="38.657959029" lon="34.863889972">
      <ele>1311.654</ele>
      <time>2021-10-12T14:21:43Z</time>
    </trkpt>
    <trkpt lat="38.657933967" lon="34.863920985">
      <ele>1311.613</ele>
      <time>2021-10-12T14:21:44Z</time>
    </trkpt>
    <trkpt lat="38.657914018" lon="34.86394898">
      <ele>1311.601</ele>
      <time>2021-10-12T14:21:45Z</time>
    </trkpt>
    <trkpt lat="38.657893986" lon="34.863979993">
      <ele>1311.609</ele>
      <time>2021-10-12T14:21:46Z</time>
    </trkpt>
    <trkpt lat="38.657874037" lon="34.864012012">
      <ele>1311.636</ele>
      <time>2021-10-12T14:21:47Z</time>
    </trkpt>
    <trkpt lat="38.657852998" lon="34.864045959">
      <ele>1311.683</ele>
      <time>2021-10-12T14:21:49Z</time>
    </trkpt>
    <trkpt lat="38.657831959" lon="34.864076972">
      <ele>1311.74</ele>
      <time>2021-10-12T14:21:50Z</time>
    </trkpt>
    <trkpt lat="38.65781201" lon="34.864107985">
      <ele>1311.815</ele>
      <time>2021-10-12T14:21:51Z</time>
    </trkpt>
    <trkpt lat="38.657789966" lon="34.864140004">
      <ele>1311.908</ele>
      <time>2021-10-12T14:21:52Z</time>
    </trkpt>
    <trkpt lat="38.657770017" lon="34.864171017">
      <ele>1311.859</ele>
      <time>2021-10-12T14:21:53Z</time>
    </trkpt>
    <trkpt lat="38.657749984" lon="34.864203036">
      <ele>1311.403</ele>
      <time>2021-10-12T14:21:55Z</time>
    </trkpt>
    <trkpt lat="38.657727018" lon="34.864233965">
      <ele>1311.006</ele>
      <time>2021-10-12T14:21:56Z</time>
    </trkpt>
    <trkpt lat="38.657706985" lon="34.864264978">
      <ele>1310.724</ele>
      <time>2021-10-12T14:21:57Z</time>
    </trkpt>
    <trkpt lat="38.657685025" lon="34.864295991">
      <ele>1310.511</ele>
      <time>2021-10-12T14:21:58Z</time>
    </trkpt>
    <trkpt lat="38.657661974" lon="34.864329016">
      <ele>1310.382</ele>
      <time>2021-10-12T14:21:59Z</time>
    </trkpt>
    <trkpt lat="38.657643031" lon="34.864360029">
      <ele>1310.356</ele>
      <time>2021-10-12T14:22:01Z</time>
    </trkpt>
    <trkpt lat="38.657622999" lon="34.864388024">
      <ele>1310.398</ele>
      <time>2021-10-12T14:22:02Z</time>
    </trkpt>
    <trkpt lat="38.657602966" lon="34.864415014">
      <ele>1310.508</ele>
      <time>2021-10-12T14:22:03Z</time>
    </trkpt>
    <trkpt lat="38.657584023" lon="34.864439992">
      <ele>1310.674</ele>
      <time>2021-10-12T14:22:04Z</time>
    </trkpt>
    <trkpt lat="38.657566002" lon="34.864467988">
      <ele>1310.787</ele>
      <time>2021-10-12T14:22:05Z</time>
    </trkpt>
    <trkpt lat="38.657545969" lon="34.864494978">
      <ele>1310.926</ele>
      <time>2021-10-12T14:22:06Z</time>
    </trkpt>
    <trkpt lat="38.657525014" lon="34.864520961">
      <ele>1311.111</ele>
      <time>2021-10-12T14:22:07Z</time>
    </trkpt>
    <trkpt lat="38.657504981" lon="34.864549041">
      <ele>1311.338</ele>
      <time>2021-10-12T14:22:08Z</time>
    </trkpt>
    <trkpt lat="38.657483021" lon="34.864577958">
      <ele>1311.474</ele>
      <time>2021-10-12T14:22:09Z</time>
    </trkpt>
    <trkpt lat="38.657461982" lon="34.864608971">
      <ele>1311.668</ele>
      <time>2021-10-12T14:22:10Z</time>
    </trkpt>
    <trkpt lat="38.657443039" lon="34.864636967">
      <ele>1311.931</ele>
      <time>2021-10-12T14:22:11Z</time>
    </trkpt>
    <trkpt lat="38.657423006" lon="34.864664041">
      <ele>1312.274</ele>
      <time>2021-10-12T14:22:13Z</time>
    </trkpt>
    <trkpt lat="38.657398028" lon="34.864687007">
      <ele>1312.695</ele>
      <time>2021-10-12T14:22:14Z</time>
    </trkpt>
    <trkpt lat="38.657370033" lon="34.864707962">
      <ele>1313.208</ele>
      <time>2021-10-12T14:22:15Z</time>
    </trkpt>
    <trkpt lat="38.657348994" lon="34.864725983">
      <ele>1313.651</ele>
      <time>2021-10-12T14:22:16Z</time>
    </trkpt>
    <trkpt lat="38.657328961" lon="34.864748027">
      <ele>1313.976</ele>
      <time>2021-10-12T14:22:17Z</time>
    </trkpt>
    <trkpt lat="38.657310018" lon="34.864770994">
      <ele>1314.283</ele>
      <time>2021-10-12T14:22:18Z</time>
    </trkpt>
    <trkpt lat="38.657291997" lon="34.864789015">
      <ele>1314.547</ele>
      <time>2021-10-12T14:22:19Z</time>
    </trkpt>
    <trkpt lat="38.657266013" lon="34.864809969">
      <ele>1314.893</ele>
      <time>2021-10-12T14:22:20Z</time>
    </trkpt>
    <trkpt lat="38.657242963" lon="34.864832014">
      <ele>1315.201</ele>
      <time>2021-10-12T14:22:21Z</time>
    </trkpt>
    <trkpt lat="38.657216979" lon="34.864852969">
      <ele>1315.45</ele>
      <time>2021-10-12T14:22:22Z</time>
    </trkpt>
    <trkpt lat="38.657188984" lon="34.864874007">
      <ele>1315.449</ele>
      <time>2021-10-12T14:22:23Z</time>
    </trkpt>
    <trkpt lat="38.657160988" lon="34.864893034">
      <ele>1315.496</ele>
      <time>2021-10-12T14:22:24Z</time>
    </trkpt>
    <trkpt lat="38.657135004" lon="34.864908038">
      <ele>1315.567</ele>
      <time>2021-10-12T14:22:25Z</time>
    </trkpt>
    <trkpt lat="38.65710902" lon="34.864918012">
      <ele>1315.631</ele>
      <time>2021-10-12T14:22:26Z</time>
    </trkpt>
    <trkpt lat="38.657082031" lon="34.864931004">
      <ele>1315.755</ele>
      <time>2021-10-12T14:22:27Z</time>
    </trkpt>
    <trkpt lat="38.657055963" lon="34.864945002">
      <ele>1315.927</ele>
      <time>2021-10-12T14:22:29Z</time>
    </trkpt>
    <trkpt lat="38.657029979" lon="34.864957994">
      <ele>1316.122</ele>
      <time>2021-10-12T14:22:30Z</time>
    </trkpt>
    <trkpt lat="38.657002989" lon="34.864971992">
      <ele>1316.37</ele>
      <time>2021-10-12T14:22:31Z</time>
    </trkpt>
    <trkpt lat="38.656979017" lon="34.864989007">
      <ele>1316.697</ele>
      <time>2021-10-12T14:22:32Z</time>
    </trkpt>
    <trkpt lat="38.656956973" lon="34.865009962">
      <ele>1316.955</ele>
      <time>2021-10-12T14:22:33Z</time>
    </trkpt>
    <trkpt lat="38.656931994" lon="34.865028989">
      <ele>1316.96</ele>
      <time>2021-10-12T14:22:34Z</time>
    </trkpt>
    <trkpt lat="38.656908022" lon="34.86504701">
      <ele>1316.891</ele>
      <time>2021-10-12T14:22:35Z</time>
    </trkpt>
    <trkpt lat="38.656882038" lon="34.865064025">
      <ele>1316.827</ele>
      <time>2021-10-12T14:22:36Z</time>
    </trkpt>
    <trkpt lat="38.656861" lon="34.865083974">
      <ele>1316.79</ele>
      <time>2021-10-12T14:22:37Z</time>
    </trkpt>
    <trkpt lat="38.656841973" lon="34.865106018">
      <ele>1316.772</ele>
      <time>2021-10-12T14:22:38Z</time>
    </trkpt>
    <trkpt lat="38.656825963" lon="34.865130996">
      <ele>1316.775</ele>
      <time>2021-10-12T14:22:39Z</time>
    </trkpt>
    <trkpt lat="38.656814983" lon="34.865157986">
      <ele>1316.799</ele>
      <time>2021-10-12T14:22:40Z</time>
    </trkpt>
    <trkpt lat="38.656802997" lon="34.865188999">
      <ele>1316.837</ele>
      <time>2021-10-12T14:22:41Z</time>
    </trkpt>
    <trkpt lat="38.656794028" lon="34.865219006">
      <ele>1316.885</ele>
      <time>2021-10-12T14:22:42Z</time>
    </trkpt>
    <trkpt lat="38.656786988" lon="34.865252031">
      <ele>1316.947</ele>
      <time>2021-10-12T14:22:43Z</time>
    </trkpt>
    <trkpt lat="38.656782964" lon="34.865288995">
      <ele>1316.983</ele>
      <time>2021-10-12T14:22:44Z</time>
    </trkpt>
    <trkpt lat="38.656778019" lon="34.865327971">
      <ele>1316.928</ele>
      <time>2021-10-12T14:22:45Z</time>
    </trkpt>
    <trkpt lat="38.656775001" lon="34.865369964">
      <ele>1316.871</ele>
      <time>2021-10-12T14:22:46Z</time>
    </trkpt>
    <trkpt lat="38.65677299" lon="34.865409024">
      <ele>1316.819</ele>
      <time>2021-10-12T14:22:47Z</time>
    </trkpt>
    <trkpt lat="38.656767039" lon="34.865450012">
      <ele>1316.776</ele>
      <time>2021-10-12T14:22:48Z</time>
    </trkpt>
    <trkpt lat="38.656759998" lon="34.865494017">
      <ele>1316.738</ele>
      <time>2021-10-12T14:22:50Z</time>
    </trkpt>
    <trkpt lat="38.656754969" lon="34.86553601">
      <ele>1316.704</ele>
      <time>2021-10-12T14:22:51Z</time>
    </trkpt>
    <trkpt lat="38.656746" lon="34.865578003">
      <ele>1316.553</ele>
      <time>2021-10-12T14:22:52Z</time>
    </trkpt>
    <trkpt lat="38.656729991" lon="34.865623014">
      <ele>1316.286</ele>
      <time>2021-10-12T14:22:54Z</time>
    </trkpt>
    <trkpt lat="38.656714987" lon="34.865662996">
      <ele>1316.052</ele>
      <time>2021-10-12T14:22:55Z</time>
    </trkpt>
    <trkpt lat="38.656699983" lon="34.865701972">
      <ele>1315.826</ele>
      <time>2021-10-12T14:22:56Z</time>
    </trkpt>
    <trkpt lat="38.656686991" lon="34.865741031">
      <ele>1315.591</ele>
      <time>2021-10-12T14:22:57Z</time>
    </trkpt>
    <trkpt lat="38.656680034" lon="34.865781013">
      <ele>1315.329</ele>
      <time>2021-10-12T14:22:59Z</time>
    </trkpt>
    <trkpt lat="38.656672994" lon="34.865820995">
      <ele>1315.066</ele>
      <time>2021-10-12T14:23:00Z</time>
    </trkpt>
    <trkpt lat="38.656665031" lon="34.865862988">
      <ele>1314.805</ele>
      <time>2021-10-12T14:23:01Z</time>
    </trkpt>
    <trkpt lat="38.656652039" lon="34.865903975">
      <ele>1314.663</ele>
      <time>2021-10-12T14:23:02Z</time>
    </trkpt>
    <trkpt lat="38.656639969" lon="34.865946975">
      <ele>1314.509</ele>
      <time>2021-10-12T14:23:04Z</time>
    </trkpt>
    <trkpt lat="38.656628989" lon="34.865986034">
      <ele>1314.382</ele>
      <time>2021-10-12T14:23:05Z</time>
    </trkpt>
    <trkpt lat="38.656615997" lon="34.866027022">
      <ele>1314.28</ele>
      <time>2021-10-12T14:23:06Z</time>
    </trkpt>
    <trkpt lat="38.656605016" lon="34.866063986">
      <ele>1314.189</ele>
      <time>2021-10-12T14:23:07Z</time>
    </trkpt>
    <trkpt lat="38.656594036" lon="34.866100028">
      <ele>1314.115</ele>
      <time>2021-10-12T14:23:08Z</time>
    </trkpt>
    <trkpt lat="38.656581966" lon="34.86614001">
      <ele>1313.908</ele>
      <time>2021-10-12T14:23:10Z</time>
    </trkpt>
    <trkpt lat="38.656574003" lon="34.866180997">
      <ele>1313.58</ele>
      <time>2021-10-12T14:23:11Z</time>
    </trkpt>
    <trkpt lat="38.656566041" lon="34.86622802">
      <ele>1313.186</ele>
      <time>2021-10-12T14:23:12Z</time>
    </trkpt>
    <trkpt lat="38.656556988" lon="34.866279988">
      <ele>1312.756</ele>
      <time>2021-10-12T14:23:14Z</time>
    </trkpt>
    <trkpt lat="38.656546008" lon="34.866330028">
      <ele>1312.373</ele>
      <time>2021-10-12T14:23:15Z</time>
    </trkpt>
    <trkpt lat="38.656534022" lon="34.866381995">
      <ele>1311.985</ele>
      <time>2021-10-12T14:23:17Z</time>
    </trkpt>
    <trkpt lat="38.656523963" lon="34.866428012">
      <ele>1311.271</ele>
      <time>2021-10-12T14:23:18Z</time>
    </trkpt>
    <trkpt lat="38.656518012" lon="34.866476962">
      <ele>1310.341</ele>
      <time>2021-10-12T14:23:20Z</time>
    </trkpt>
    <trkpt lat="38.656512983" lon="34.866525996">
      <ele>1309.367</ele>
      <time>2021-10-12T14:23:21Z</time>
    </trkpt>
    <trkpt lat="38.656508038" lon="34.866575031">
      <ele>1308.361</ele>
      <time>2021-10-12T14:23:23Z</time>
    </trkpt>
    <trkpt lat="38.656499991" lon="34.866623981">
      <ele>1307.322</ele>
      <time>2021-10-12T14:23:24Z</time>
    </trkpt>
    <trkpt lat="38.656486999" lon="34.866671003">
      <ele>1306.317</ele>
      <time>2021-10-12T14:23:25Z</time>
    </trkpt>
    <trkpt lat="38.656475013" lon="34.86671702">
      <ele>1305.879</ele>
      <time>2021-10-12T14:23:27Z</time>
    </trkpt>
    <trkpt lat="38.656466966" lon="34.866762031">
      <ele>1305.444</ele>
      <time>2021-10-12T14:23:28Z</time>
    </trkpt>
    <trkpt lat="38.65645498" lon="34.866807964">
      <ele>1304.954</ele>
      <time>2021-10-12T14:23:30Z</time>
    </trkpt>
    <trkpt lat="38.656441988" lon="34.866851969">
      <ele>1304.445</ele>
      <time>2021-10-12T14:23:31Z</time>
    </trkpt>
    <trkpt lat="38.656428996" lon="34.866895974">
      <ele>1303.906</ele>
      <time>2021-10-12T14:23:32Z</time>
    </trkpt>
    <trkpt lat="38.656408042" lon="34.866939979">
      <ele>1303.253</ele>
      <time>2021-10-12T14:23:34Z</time>
    </trkpt>
    <trkpt lat="38.656393038" lon="34.866979038">
      <ele>1302.922</ele>
      <time>2021-10-12T14:23:35Z</time>
    </trkpt>
    <trkpt lat="38.656374011" lon="34.867016003">
      <ele>1302.419</ele>
      <time>2021-10-12T14:23:36Z</time>
    </trkpt>
    <trkpt lat="38.656351967" lon="34.867050033">
      <ele>1301.753</ele>
      <time>2021-10-12T14:23:38Z</time>
    </trkpt>
    <trkpt lat="38.656324977" lon="34.867082974">
      <ele>1300.892</ele>
      <time>2021-10-12T14:23:39Z</time>
    </trkpt>
    <trkpt lat="38.656293964" lon="34.867109964">
      <ele>1299.881</ele>
      <time>2021-10-12T14:23:40Z</time>
    </trkpt>
    <trkpt lat="38.656264041" lon="34.867131002">
      <ele>1298.874</ele>
      <time>2021-10-12T14:23:42Z</time>
    </trkpt>
    <trkpt lat="38.65623001" lon="34.867153969">
      <ele>1297.66</ele>
      <time>2021-10-12T14:23:43Z</time>
    </trkpt>
    <trkpt lat="38.656201009" lon="34.867177019">
      <ele>1296.516</ele>
      <time>2021-10-12T14:23:44Z</time>
    </trkpt>
    <trkpt lat="38.656175025" lon="34.867201997">
      <ele>1295.368</ele>
      <time>2021-10-12T14:23:46Z</time>
    </trkpt>
    <trkpt lat="38.656155998" lon="34.86723301">
      <ele>1294.461</ele>
      <time>2021-10-12T14:23:47Z</time>
    </trkpt>
    <trkpt lat="38.656148035" lon="34.867265029">
      <ele>1294.217</ele>
      <time>2021-10-12T14:23:48Z</time>
    </trkpt>
    <trkpt lat="38.656148035" lon="34.867306016">
      <ele>1294.236</ele>
      <time>2021-10-12T14:23:49Z</time>
    </trkpt>
    <trkpt lat="38.656149041" lon="34.867345998">
      <ele>1294.29</ele>
      <time>2021-10-12T14:23:50Z</time>
    </trkpt>
    <trkpt lat="38.656140994" lon="34.86738204">
      <ele>1294.03</ele>
      <time>2021-10-12T14:23:51Z</time>
    </trkpt>
    <trkpt lat="38.656125991" lon="34.867419004">
      <ele>1293.52</ele>
      <time>2021-10-12T14:23:52Z</time>
    </trkpt>
    <trkpt lat="38.656114005" lon="34.867450017">
      <ele>1293.102</ele>
      <time>2021-10-12T14:23:53Z</time>
    </trkpt>
    <trkpt lat="38.656095983" lon="34.867482958">
      <ele>1292.52</ele>
      <time>2021-10-12T14:23:54Z</time>
    </trkpt>
    <trkpt lat="38.656075029" lon="34.86751196">
      <ele>1292.046</ele>
      <time>2021-10-12T14:23:56Z</time>
    </trkpt>
    <trkpt lat="38.656057008" lon="34.867541967">
      <ele>1292.002</ele>
      <time>2021-10-12T14:23:57Z</time>
    </trkpt>
    <trkpt lat="38.656042004" lon="34.867583038">
      <ele>1292.256</ele>
      <time>2021-10-12T14:23:58Z</time>
    </trkpt>
    <trkpt lat="38.656033035" lon="34.867620002">
      <ele>1292.63</ele>
      <time>2021-10-12T14:23:59Z</time>
    </trkpt>
    <trkpt lat="38.656028006" lon="34.867656967">
      <ele>1293.133</ele>
      <time>2021-10-12T14:24:00Z</time>
    </trkpt>
    <trkpt lat="38.656017026" lon="34.867692003">
      <ele>1293.408</ele>
      <time>2021-10-12T14:24:01Z</time>
    </trkpt>
    <trkpt lat="38.656001016" lon="34.867727039">
      <ele>1293.52</ele>
      <time>2021-10-12T14:24:03Z</time>
    </trkpt>
    <trkpt lat="38.655984001" lon="34.867762998">
      <ele>1293.616</ele>
      <time>2021-10-12T14:24:04Z</time>
    </trkpt>
    <trkpt lat="38.655962963" lon="34.867800968">
      <ele>1293.818</ele>
      <time>2021-10-12T14:24:05Z</time>
    </trkpt>
    <trkpt lat="38.655948965" lon="34.867838016">
      <ele>1294.318</ele>
      <time>2021-10-12T14:24:06Z</time>
    </trkpt>
    <trkpt lat="38.655934967" lon="34.867873974">
      <ele>1294.751</ele>
      <time>2021-10-12T14:24:07Z</time>
    </trkpt>
    <trkpt lat="38.655925998" lon="34.867910016">
      <ele>1295.335</ele>
      <time>2021-10-12T14:24:09Z</time>
    </trkpt>
    <trkpt lat="38.655919041" lon="34.867945975">
      <ele>1295.97</ele>
      <time>2021-10-12T14:24:10Z</time>
    </trkpt>
    <trkpt lat="38.655902026" lon="34.867985034">
      <ele>1296.256</ele>
      <time>2021-10-12T14:24:11Z</time>
    </trkpt>
    <trkpt lat="38.655887023" lon="34.868021999">
      <ele>1296.524</ele>
      <time>2021-10-12T14:24:12Z</time>
    </trkpt>
    <trkpt lat="38.65587797" lon="34.868056029">
      <ele>1296.936</ele>
      <time>2021-10-12T14:24:13Z</time>
    </trkpt>
    <trkpt lat="38.655869002" lon="34.868090982">
      <ele>1297.146</ele>
      <time>2021-10-12T14:24:14Z</time>
    </trkpt>
    <trkpt lat="38.65586699" lon="34.868126018">
      <ele>1297.661</ele>
      <time>2021-10-12T14:24:15Z</time>
    </trkpt>
    <trkpt lat="38.655863972" lon="34.868167005">
      <ele>1298.241</ele>
      <time>2021-10-12T14:24:16Z</time>
    </trkpt>
    <trkpt lat="38.655858021" lon="34.868213022">
      <ele>1298.8</ele>
      <time>2021-10-12T14:24:18Z</time>
    </trkpt>
    <trkpt lat="38.655851986" lon="34.868253004">
      <ele>1299.264</ele>
      <time>2021-10-12T14:24:19Z</time>
    </trkpt>
    <trkpt lat="38.655847041" lon="34.868290974">
      <ele>1299.746</ele>
      <time>2021-10-12T14:24:20Z</time>
    </trkpt>
    <trkpt lat="38.655838994" lon="34.868330033">
      <ele>1300.145</ele>
      <time>2021-10-12T14:24:21Z</time>
    </trkpt>
    <trkpt lat="38.655833965" lon="34.868368004">
      <ele>1300.272</ele>
      <time>2021-10-12T14:24:22Z</time>
    </trkpt>
    <trkpt lat="38.655832037" lon="34.868409997">
      <ele>1300.485</ele>
      <time>2021-10-12T14:24:24Z</time>
    </trkpt>
    <trkpt lat="38.655833965" lon="34.868446961">
      <ele>1300.841</ele>
      <time>2021-10-12T14:24:25Z</time>
    </trkpt>
    <trkpt lat="38.655832959" lon="34.868490966">
      <ele>1301.115</ele>
      <time>2021-10-12T14:24:26Z</time>
    </trkpt>
    <trkpt lat="38.655832037" lon="34.868532959">
      <ele>1301.369</ele>
      <time>2021-10-12T14:24:27Z</time>
    </trkpt>
    <trkpt lat="38.655832959" lon="34.868570007">
      <ele>1301.684</ele>
      <time>2021-10-12T14:24:28Z</time>
    </trkpt>
    <trkpt lat="38.655837988" lon="34.868606972">
      <ele>1302.138</ele>
      <time>2021-10-12T14:24:29Z</time>
    </trkpt>
    <trkpt lat="38.655842012" lon="34.868639996">
      <ele>1302.212</ele>
      <time>2021-10-12T14:24:30Z</time>
    </trkpt>
    <trkpt lat="38.655844023" lon="34.86867696">
      <ele>1302.157</ele>
      <time>2021-10-12T14:24:31Z</time>
    </trkpt>
    <trkpt lat="38.655847963" lon="34.868710991">
      <ele>1302.186</ele>
      <time>2021-10-12T14:24:32Z</time>
    </trkpt>
    <trkpt lat="38.655853998" lon="34.868744016">
      <ele>1302.301</ele>
      <time>2021-10-12T14:24:33Z</time>
    </trkpt>
    <trkpt lat="38.655859027" lon="34.868778968">
      <ele>1302.377</ele>
      <time>2021-10-12T14:24:34Z</time>
    </trkpt>
    <trkpt lat="38.655860033" lon="34.868810987">
      <ele>1302.311</ele>
      <time>2021-10-12T14:24:35Z</time>
    </trkpt>
    <trkpt lat="38.655865984" lon="34.868846023">
      <ele>1302.429</ele>
      <time>2021-10-12T14:24:36Z</time>
    </trkpt>
    <trkpt lat="38.655872019" lon="34.868888017">
      <ele>1302.535</ele>
      <time>2021-10-12T14:24:38Z</time>
    </trkpt>
    <trkpt lat="38.655879982" lon="34.868926993">
      <ele>1302.345</ele>
      <time>2021-10-12T14:24:39Z</time>
    </trkpt>
    <trkpt lat="38.65589398" lon="34.868964041">
      <ele>1302.438</ele>
      <time>2021-10-12T14:24:40Z</time>
    </trkpt>
    <trkpt lat="38.655904038" lon="34.869004022">
      <ele>1302.353</ele>
      <time>2021-10-12T14:24:41Z</time>
    </trkpt>
    <trkpt lat="38.655916024" lon="34.869039981">
      <ele>1302.423</ele>
      <time>2021-10-12T14:24:42Z</time>
    </trkpt>
    <trkpt lat="38.655930022" lon="34.869077029">
      <ele>1302.591</ele>
      <time>2021-10-12T14:24:43Z</time>
    </trkpt>
    <trkpt lat="38.655937985" lon="34.86911701">
      <ele>1302.478</ele>
      <time>2021-10-12T14:24:45Z</time>
    </trkpt>
    <trkpt lat="38.655947037" lon="34.869155986">
      <ele>1302.444</ele>
      <time>2021-10-12T14:24:46Z</time>
    </trkpt>
    <trkpt lat="38.655960029" lon="34.869186999">
      <ele>1302.524</ele>
      <time>2021-10-12T14:24:47Z</time>
    </trkpt>
    <trkpt lat="38.655970003" lon="34.869217006">
      <ele>1302.398</ele>
      <time>2021-10-12T14:24:48Z</time>
    </trkpt>
    <trkpt lat="38.655979978" lon="34.869250031">
      <ele>1302.221</ele>
      <time>2021-10-12T14:24:49Z</time>
    </trkpt>
    <trkpt lat="38.655991964" lon="34.869281966">
      <ele>1302.17</ele>
      <time>2021-10-12T14:24:50Z</time>
    </trkpt>
    <trkpt lat="38.656003028" lon="34.869319014">
      <ele>1301.986</ele>
      <time>2021-10-12T14:24:51Z</time>
    </trkpt>
    <trkpt lat="38.65601602" lon="34.869352039">
      <ele>1301.985</ele>
      <time>2021-10-12T14:24:52Z</time>
    </trkpt>
    <trkpt lat="38.656028006" lon="34.869386991">
      <ele>1301.908</ele>
      <time>2021-10-12T14:24:53Z</time>
    </trkpt>
    <trkpt lat="38.656037981" lon="34.869423034">
      <ele>1301.72</ele>
      <time>2021-10-12T14:24:54Z</time>
    </trkpt>
    <trkpt lat="38.656046027" lon="34.869453963">
      <ele>1301.625</ele>
      <time>2021-10-12T14:24:55Z</time>
    </trkpt>
    <trkpt lat="38.656052984" lon="34.869487993">
      <ele>1301.633</ele>
      <time>2021-10-12T14:24:56Z</time>
    </trkpt>
    <trkpt lat="38.656060025" lon="34.869518001">
      <ele>1301.68</ele>
      <time>2021-10-12T14:24:57Z</time>
    </trkpt>
    <trkpt lat="38.656065976" lon="34.869548008">
      <ele>1301.667</ele>
      <time>2021-10-12T14:24:58Z</time>
    </trkpt>
    <trkpt lat="38.656073017" lon="34.869574998">
      <ele>1301.735</ele>
      <time>2021-10-12T14:24:59Z</time>
    </trkpt>
    <trkpt lat="38.65608098" lon="34.869606011">
      <ele>1301.8</ele>
      <time>2021-10-12T14:25:00Z</time>
    </trkpt>
    <trkpt lat="38.656083997" lon="34.869636018">
      <ele>1301.632</ele>
      <time>2021-10-12T14:25:01Z</time>
    </trkpt>
    <trkpt lat="38.656088021" lon="34.869663008">
      <ele>1301.541</ele>
      <time>2021-10-12T14:25:02Z</time>
    </trkpt>
    <trkpt lat="38.656101013" lon="34.86968698">
      <ele>1301.903</ele>
      <time>2021-10-12T14:25:02Z</time>
    </trkpt>
    <trkpt lat="38.65611501" lon="34.869717993">
      <ele>1302.214</ele>
      <time>2021-10-12T14:25:03Z</time>
    </trkpt>
    <trkpt lat="38.656128002" lon="34.869748">
      <ele>1302.429</ele>
      <time>2021-10-12T14:25:04Z</time>
    </trkpt>
    <trkpt lat="38.656143006" lon="34.869779013">
      <ele>1302.671</ele>
      <time>2021-10-12T14:25:05Z</time>
    </trkpt>
    <trkpt lat="38.656162033" lon="34.869807009">
      <ele>1303.06</ele>
      <time>2021-10-12T14:25:07Z</time>
    </trkpt>
    <trkpt lat="38.656180976" lon="34.869839028">
      <ele>1303.334</ele>
      <time>2021-10-12T14:25:08Z</time>
    </trkpt>
    <trkpt lat="38.656204026" lon="34.869870963">
      <ele>1303.691</ele>
      <time>2021-10-12T14:25:09Z</time>
    </trkpt>
    <trkpt lat="38.656223975" lon="34.86990097">
      <ele>1303.899</ele>
      <time>2021-10-12T14:25:10Z</time>
    </trkpt>
    <trkpt lat="38.656245014" lon="34.869937012">
      <ele>1303.974</ele>
      <time>2021-10-12T14:25:11Z</time>
    </trkpt>
    <trkpt lat="38.656270998" lon="34.869969031">
      <ele>1304.196</ele>
      <time>2021-10-12T14:25:13Z</time>
    </trkpt>
    <trkpt lat="38.656297987" lon="34.869994009">
      <ele>1304.505</ele>
      <time>2021-10-12T14:25:14Z</time>
    </trkpt>
    <trkpt lat="38.656323971" lon="34.870019993">
      <ele>1304.643</ele>
      <time>2021-10-12T14:25:15Z</time>
    </trkpt>
    <trkpt lat="38.656347021" lon="34.870048994">
      <ele>1304.586</ele>
      <time>2021-10-12T14:25:16Z</time>
    </trkpt>
    <trkpt lat="38.656370994" lon="34.870079001">
      <ele>1304.512</ele>
      <time>2021-10-12T14:25:18Z</time>
    </trkpt>
    <trkpt lat="38.65639396" lon="34.87011102">
      <ele>1304.29</ele>
      <time>2021-10-12T14:25:19Z</time>
    </trkpt>
    <trkpt lat="38.65641701" lon="34.870133987">
      <ele>1304.084</ele>
      <time>2021-10-12T14:25:20Z</time>
    </trkpt>
    <trkpt lat="38.656445006" lon="34.870158965">
      <ele>1303.859</ele>
      <time>2021-10-12T14:25:21Z</time>
    </trkpt>
    <trkpt lat="38.656474007" lon="34.870184027">
      <ele>1303.592</ele>
      <time>2021-10-12T14:25:23Z</time>
    </trkpt>
    <trkpt lat="38.656504015" lon="34.87020297">
      <ele>1303.463</ele>
      <time>2021-10-12T14:25:24Z</time>
    </trkpt>
    <trkpt lat="38.656533016" lon="34.870230965">
      <ele>1302.999</ele>
      <time>2021-10-12T14:25:25Z</time>
    </trkpt>
    <trkpt lat="38.656562017" lon="34.870254016">
      <ele>1302.629</ele>
      <time>2021-10-12T14:25:26Z</time>
    </trkpt>
    <trkpt lat="38.656588001" lon="34.87027497">
      <ele>1302.243</ele>
      <time>2021-10-12T14:25:28Z</time>
    </trkpt>
    <trkpt lat="38.656614991" lon="34.870296009">
      <ele>1302.04</ele>
      <time>2021-10-12T14:25:29Z</time>
    </trkpt>
    <trkpt lat="38.656638963" lon="34.870312018">
      <ele>1302.011</ele>
      <time>2021-10-12T14:25:30Z</time>
    </trkpt>
    <trkpt lat="38.656666037" lon="34.870330039">
      <ele>1302.05</ele>
      <time>2021-10-12T14:25:31Z</time>
    </trkpt>
    <trkpt lat="38.656698978" lon="34.870346971">
      <ele>1302.394</ele>
      <time>2021-10-12T14:25:32Z</time>
    </trkpt>
    <trkpt lat="38.656729991" lon="34.870359041">
      <ele>1302.81</ele>
      <time>2021-10-12T14:25:33Z</time>
    </trkpt>
    <trkpt lat="38.656764021" lon="34.870372033">
      <ele>1303.294</ele>
      <time>2021-10-12T14:25:35Z</time>
    </trkpt>
    <trkpt lat="38.656797968" lon="34.870386031">
      <ele>1303.783</ele>
      <time>2021-10-12T14:25:36Z</time>
    </trkpt>
    <trkpt lat="38.656833004" lon="34.870402962">
      <ele>1304.28</ele>
      <time>2021-10-12T14:25:37Z</time>
    </trkpt>
    <trkpt lat="38.656866029" lon="34.870428024">
      <ele>1304.66</ele>
      <time>2021-10-12T14:25:39Z</time>
    </trkpt>
    <trkpt lat="38.656897964" lon="34.870453002">
      <ele>1305.06</ele>
      <time>2021-10-12T14:25:40Z</time>
    </trkpt>
    <trkpt lat="38.656933" lon="34.870476974">
      <ele>1305.584</ele>
      <time>2021-10-12T14:25:42Z</time>
    </trkpt>
    <trkpt lat="38.656967031" lon="34.870499019">
      <ele>1305.724</ele>
      <time>2021-10-12T14:25:43Z</time>
    </trkpt>
    <trkpt lat="38.657001983" lon="34.870513016">
      <ele>1305.779</ele>
      <time>2021-10-12T14:25:44Z</time>
    </trkpt>
    <trkpt lat="38.657039031" lon="34.870523997">
      <ele>1305.906</ele>
      <time>2021-10-12T14:25:46Z</time>
    </trkpt>
    <trkpt lat="38.657075996" lon="34.870536989">
      <ele>1306.053</ele>
      <time>2021-10-12T14:25:47Z</time>
    </trkpt>
    <trkpt lat="38.657112038" lon="34.870554004">
      <ele>1306.213</ele>
      <time>2021-10-12T14:25:49Z</time>
    </trkpt>
    <trkpt lat="38.657145984" lon="34.870578982">
      <ele>1306.152</ele>
      <time>2021-10-12T14:25:50Z</time>
    </trkpt>
    <trkpt lat="38.657176998" lon="34.870602032">
      <ele>1306.118</ele>
      <time>2021-10-12T14:25:51Z</time>
    </trkpt>
    <trkpt lat="38.657210022" lon="34.870626004">
      <ele>1306.129</ele>
      <time>2021-10-12T14:25:53Z</time>
    </trkpt>
    <trkpt lat="38.657242041" lon="34.870646959">
      <ele>1305.798</ele>
      <time>2021-10-12T14:25:54Z</time>
    </trkpt>
    <trkpt lat="38.65727297" lon="34.87066498">
      <ele>1305.303</ele>
      <time>2021-10-12T14:25:55Z</time>
    </trkpt>
    <trkpt lat="38.657303983" lon="34.870687025">
      <ele>1304.821</ele>
      <time>2021-10-12T14:25:57Z</time>
    </trkpt>
    <trkpt lat="38.657333991" lon="34.870708985">
      <ele>1304.4</ele>
      <time>2021-10-12T14:25:58Z</time>
    </trkpt>
    <trkpt lat="38.657367015" lon="34.870733041">
      <ele>1303.997</ele>
      <time>2021-10-12T14:25:59Z</time>
    </trkpt>
    <trkpt lat="38.65740004" lon="34.870753996">
      <ele>1303.668</ele>
      <time>2021-10-12T14:26:01Z</time>
    </trkpt>
    <trkpt lat="38.657432981" lon="34.870771011">
      <ele>1303.404</ele>
      <time>2021-10-12T14:26:02Z</time>
    </trkpt>
    <trkpt lat="38.657466006" lon="34.870788027">
      <ele>1303.182</ele>
      <time>2021-10-12T14:26:03Z</time>
    </trkpt>
    <trkpt lat="38.657501042" lon="34.87080303">
      <ele>1303.01</ele>
      <time>2021-10-12T14:26:05Z</time>
    </trkpt>
    <trkpt lat="38.657533983" lon="34.870821973">
      <ele>1303.357</ele>
      <time>2021-10-12T14:26:06Z</time>
    </trkpt>
    <trkpt lat="38.657562984" lon="34.870839994">
      <ele>1303.715</ele>
      <time>2021-10-12T14:26:07Z</time>
    </trkpt>
    <trkpt lat="38.65758704" lon="34.870856004">
      <ele>1304.073</ele>
      <time>2021-10-12T14:26:08Z</time>
    </trkpt>
    <trkpt lat="38.657611012" lon="34.870874025">
      <ele>1304.463</ele>
      <time>2021-10-12T14:26:09Z</time>
    </trkpt>
    <trkpt lat="38.657634985" lon="34.870890034">
      <ele>1304.86</ele>
      <time>2021-10-12T14:26:10Z</time>
    </trkpt>
    <trkpt lat="38.657659041" lon="34.870908977">
      <ele>1305.302</ele>
      <time>2021-10-12T14:26:11Z</time>
    </trkpt>
    <trkpt lat="38.65767899" lon="34.870926999">
      <ele>1305.705</ele>
      <time>2021-10-12T14:26:12Z</time>
    </trkpt>
    <trkpt lat="38.657698017" lon="34.870948959">
      <ele>1306.148</ele>
      <time>2021-10-12T14:26:13Z</time>
    </trkpt>
    <trkpt lat="38.65771302" lon="34.870971004">
      <ele>1306.556</ele>
      <time>2021-10-12T14:26:14Z</time>
    </trkpt>
    <trkpt lat="38.657731041" lon="34.870991958">
      <ele>1307.016</ele>
      <time>2021-10-12T14:26:15Z</time>
    </trkpt>
    <trkpt lat="38.657745039" lon="34.871019032">
      <ele>1307.494</ele>
      <time>2021-10-12T14:26:16Z</time>
    </trkpt>
    <trkpt lat="38.657761971" lon="34.871043004">
      <ele>1308.008</ele>
      <time>2021-10-12T14:26:17Z</time>
    </trkpt>
    <trkpt lat="38.657778986" lon="34.871065971">
      <ele>1308.52</ele>
      <time>2021-10-12T14:26:18Z</time>
    </trkpt>
    <trkpt lat="38.657796001" lon="34.871087009">
      <ele>1308.865</ele>
      <time>2021-10-12T14:26:19Z</time>
    </trkpt>
    <trkpt lat="38.65781201" lon="34.871107042">
      <ele>1309.201</ele>
      <time>2021-10-12T14:26:20Z</time>
    </trkpt>
    <trkpt lat="38.657829026" lon="34.871127997">
      <ele>1309.551</ele>
      <time>2021-10-12T14:26:20Z</time>
    </trkpt>
    <trkpt lat="38.657846041" lon="34.871146018">
      <ele>1309.868</ele>
      <time>2021-10-12T14:26:21Z</time>
    </trkpt>
    <trkpt lat="38.657860961" lon="34.871163033">
      <ele>1310.16</ele>
      <time>2021-10-12T14:26:22Z</time>
    </trkpt>
    <trkpt lat="38.657874037" lon="34.87118097">
      <ele>1310.448</ele>
      <time>2021-10-12T14:26:23Z</time>
    </trkpt>
    <trkpt lat="38.657888034" lon="34.871197985">
      <ele>1310.732</ele>
      <time>2021-10-12T14:26:23Z</time>
    </trkpt>
    <trkpt lat="38.657913012" lon="34.871226987">
      <ele>1311.225</ele>
      <time>2021-10-12T14:26:25Z</time>
    </trkpt>
    <trkpt lat="38.657937991" lon="34.871250037">
      <ele>1311.654</ele>
      <time>2021-10-12T14:26:26Z</time>
    </trkpt>
    <trkpt lat="38.657956012" lon="34.871281972">
      <ele>1312.129</ele>
      <time>2021-10-12T14:26:27Z</time>
    </trkpt>
    <trkpt lat="38.657975961" lon="34.871299993">
      <ele>1312.467</ele>
      <time>2021-10-12T14:26:28Z</time>
    </trkpt>
    <trkpt lat="38.657994987" lon="34.871309968">
      <ele>1312.712</ele>
      <time>2021-10-12T14:26:29Z</time>
    </trkpt>
    <trkpt lat="38.658013009" lon="34.871322038">
      <ele>1312.972</ele>
      <time>2021-10-12T14:26:29Z</time>
    </trkpt>
    <trkpt lat="38.658032035" lon="34.87133503">
      <ele>1313.249</ele>
      <time>2021-10-12T14:26:30Z</time>
    </trkpt>
    <trkpt lat="38.658050979" lon="34.871351039">
      <ele>1313.558</ele>
      <time>2021-10-12T14:26:31Z</time>
    </trkpt>
    <trkpt lat="38.658067994" lon="34.871363025">
      <ele>1313.631</ele>
      <time>2021-10-12T14:26:32Z</time>
    </trkpt>
    <trkpt lat="38.658089032" lon="34.871381968">
      <ele>1313.684</ele>
      <time>2021-10-12T14:26:33Z</time>
    </trkpt>
    <trkpt lat="38.658111999" lon="34.871399989">
      <ele>1313.705</ele>
      <time>2021-10-12T14:26:34Z</time>
    </trkpt>
    <trkpt lat="38.658131026" lon="34.871421028">
      <ele>1313.772</ele>
      <time>2021-10-12T14:26:35Z</time>
    </trkpt>
    <trkpt lat="38.658149969" lon="34.871439971">
      <ele>1313.809</ele>
      <time>2021-10-12T14:26:35Z</time>
    </trkpt>
    <trkpt lat="38.658170002" lon="34.87146101">
      <ele>1313.848</ele>
      <time>2021-10-12T14:26:36Z</time>
    </trkpt>
    <trkpt lat="38.658188023" lon="34.871484982">
      <ele>1313.919</ele>
      <time>2021-10-12T14:26:37Z</time>
    </trkpt>
    <trkpt lat="38.65820596" lon="34.871509038">
      <ele>1313.98</ele>
      <time>2021-10-12T14:26:38Z</time>
    </trkpt>
    <trkpt lat="38.658221969" lon="34.871527981">
      <ele>1314.004</ele>
      <time>2021-10-12T14:26:39Z</time>
    </trkpt>
    <trkpt lat="38.658236973" lon="34.871550025">
      <ele>1314.055</ele>
      <time>2021-10-12T14:26:40Z</time>
    </trkpt>
    <trkpt lat="38.658252982" lon="34.871572992">
      <ele>1314.096</ele>
      <time>2021-10-12T14:26:41Z</time>
    </trkpt>
    <trkpt lat="38.658268992" lon="34.871596964">
      <ele>1314.135</ele>
      <time>2021-10-12T14:26:42Z</time>
    </trkpt>
    <trkpt lat="38.658283995" lon="34.871619008">
      <ele>1314.159</ele>
      <time>2021-10-12T14:26:43Z</time>
    </trkpt>
    <trkpt lat="38.658302017" lon="34.871639963">
      <ele>1314.135</ele>
      <time>2021-10-12T14:26:44Z</time>
    </trkpt>
    <trkpt lat="38.65832096" lon="34.871662008">
      <ele>1314.099</ele>
      <time>2021-10-12T14:26:45Z</time>
    </trkpt>
    <trkpt lat="38.658335041" lon="34.871682962">
      <ele>1314.164</ele>
      <time>2021-10-12T14:26:45Z</time>
    </trkpt>
    <trkpt lat="38.658349039" lon="34.871701989">
      <ele>1314.268</ele>
      <time>2021-10-12T14:26:46Z</time>
    </trkpt>
    <trkpt lat="38.65836597" lon="34.87172504">
      <ele>1314.395</ele>
      <time>2021-10-12T14:26:47Z</time>
    </trkpt>
    <trkpt lat="38.65838198" lon="34.871747">
      <ele>1314.517</ele>
      <time>2021-10-12T14:26:48Z</time>
    </trkpt>
    <trkpt lat="38.658395978" lon="34.871769967">
      <ele>1314.665</ele>
      <time>2021-10-12T14:26:49Z</time>
    </trkpt>
    <trkpt lat="38.65840897" lon="34.871794023">
      <ele>1314.831</ele>
      <time>2021-10-12T14:26:50Z</time>
    </trkpt>
    <trkpt lat="38.658421962" lon="34.871821012">
      <ele>1315.029</ele>
      <time>2021-10-12T14:26:50Z</time>
    </trkpt>
    <trkpt lat="38.658434032" lon="34.871848002">
      <ele>1315.233</ele>
      <time>2021-10-12T14:26:51Z</time>
    </trkpt>
    <trkpt lat="38.658447023" lon="34.871873986">
      <ele>1315.42</ele>
      <time>2021-10-12T14:26:52Z</time>
    </trkpt>
    <trkpt lat="38.658460015" lon="34.871901982">
      <ele>1315.629</ele>
      <time>2021-10-12T14:26:53Z</time>
    </trkpt>
    <trkpt lat="38.658470996" lon="34.871929977">
      <ele>1315.853</ele>
      <time>2021-10-12T14:26:54Z</time>
    </trkpt>
    <trkpt lat="38.65848097" lon="34.871959984">
      <ele>1316.079</ele>
      <time>2021-10-12T14:26:55Z</time>
    </trkpt>
    <trkpt lat="38.658493962" lon="34.871992003">
      <ele>1316.285</ele>
      <time>2021-10-12T14:26:56Z</time>
    </trkpt>
    <trkpt lat="38.65850402" lon="34.872023016">
      <ele>1316.511</ele>
      <time>2021-10-12T14:26:57Z</time>
    </trkpt>
    <trkpt lat="38.658515001" lon="34.872056041">
      <ele>1316.758</ele>
      <time>2021-10-12T14:26:58Z</time>
    </trkpt>
    <trkpt lat="38.658526987" lon="34.87208697">
      <ele>1316.99</ele>
      <time>2021-10-12T14:26:59Z</time>
    </trkpt>
    <trkpt lat="38.658545008" lon="34.872111026">
      <ele>1317.132</ele>
      <time>2021-10-12T14:27:00Z</time>
    </trkpt>
    <trkpt lat="38.658561017" lon="34.87213701">
      <ele>1317.315</ele>
      <time>2021-10-12T14:27:01Z</time>
    </trkpt>
    <trkpt lat="38.658579038" lon="34.872158971">
      <ele>1317.459</ele>
      <time>2021-10-12T14:27:02Z</time>
    </trkpt>
    <trkpt lat="38.658597982" lon="34.872182021">
      <ele>1317.62</ele>
      <time>2021-10-12T14:27:03Z</time>
    </trkpt>
    <trkpt lat="38.658618014" lon="34.872209011">
      <ele>1317.832</ele>
      <time>2021-10-12T14:27:04Z</time>
    </trkpt>
    <trkpt lat="38.658637041" lon="34.872232983">
      <ele>1317.984</ele>
      <time>2021-10-12T14:27:05Z</time>
    </trkpt>
    <trkpt lat="38.65865699" lon="34.872261984">
      <ele>1318.121</ele>
      <time>2021-10-12T14:27:06Z</time>
    </trkpt>
    <trkpt lat="38.658678029" lon="34.872286962">
      <ele>1318.225</ele>
      <time>2021-10-12T14:27:07Z</time>
    </trkpt>
    <trkpt lat="38.658696972" lon="34.872310013">
      <ele>1318.323</ele>
      <time>2021-10-12T14:27:08Z</time>
    </trkpt>
    <trkpt lat="38.658717005" lon="34.872333985">
      <ele>1318.423</ele>
      <time>2021-10-12T14:27:09Z</time>
    </trkpt>
    <trkpt lat="38.658736032" lon="34.872357035">
      <ele>1318.521</ele>
      <time>2021-10-12T14:27:10Z</time>
    </trkpt>
    <trkpt lat="38.65875598" lon="34.872380001">
      <ele>1318.614</ele>
      <time>2021-10-12T14:27:11Z</time>
    </trkpt>
    <trkpt lat="38.658776013" lon="34.872405985">
      <ele>1318.729</ele>
      <time>2021-10-12T14:27:12Z</time>
    </trkpt>
    <trkpt lat="38.658792023" lon="34.872427024">
      <ele>1318.823</ele>
      <time>2021-10-12T14:27:13Z</time>
    </trkpt>
    <trkpt lat="38.65880996" lon="34.87244999">
      <ele>1318.924</ele>
      <time>2021-10-12T14:27:14Z</time>
    </trkpt>
    <trkpt lat="38.658827981" lon="34.872470023">
      <ele>1319.003</ele>
      <time>2021-10-12T14:27:15Z</time>
    </trkpt>
    <trkpt lat="38.658846002" lon="34.87248796">
      <ele>1319.068</ele>
      <time>2021-10-12T14:27:16Z</time>
    </trkpt>
    <trkpt lat="38.658867963" lon="34.872507993">
      <ele>1319.1</ele>
      <time>2021-10-12T14:27:17Z</time>
    </trkpt>
    <trkpt lat="38.65888699" lon="34.872522997">
      <ele>1319.088</ele>
      <time>2021-10-12T14:27:18Z</time>
    </trkpt>
    <trkpt lat="38.658905011" lon="34.872542024">
      <ele>1319.276</ele>
      <time>2021-10-12T14:27:18Z</time>
    </trkpt>
    <trkpt lat="38.658924038" lon="34.872561973">
      <ele>1319.504</ele>
      <time>2021-10-12T14:27:19Z</time>
    </trkpt>
    <trkpt lat="38.658941975" lon="34.872586029">
      <ele>1319.751</ele>
      <time>2021-10-12T14:27:20Z</time>
    </trkpt>
    <trkpt lat="38.65895899" lon="34.872612013">
      <ele>1320.01</ele>
      <time>2021-10-12T14:27:21Z</time>
    </trkpt>
    <trkpt lat="38.658975" lon="34.872636991">
      <ele>1320.266</ele>
      <time>2021-10-12T14:27:22Z</time>
    </trkpt>
    <trkpt lat="38.658990003" lon="34.872660963">
      <ele>1320.518</ele>
      <time>2021-10-12T14:27:23Z</time>
    </trkpt>
    <trkpt lat="38.659006013" lon="34.872682001">
      <ele>1320.775</ele>
      <time>2021-10-12T14:27:24Z</time>
    </trkpt>
    <trkpt lat="38.659022022" lon="34.872703962">
      <ele>1321.045</ele>
      <time>2021-10-12T14:27:25Z</time>
    </trkpt>
    <trkpt lat="38.659037026" lon="34.872725001">
      <ele>1321.309</ele>
      <time>2021-10-12T14:27:26Z</time>
    </trkpt>
    <trkpt lat="38.65905798" lon="34.872745033">
      <ele>1321.637</ele>
      <time>2021-10-12T14:27:27Z</time>
    </trkpt>
    <trkpt lat="38.659077007" lon="34.872763976">
      <ele>1321.948</ele>
      <time>2021-10-12T14:27:28Z</time>
    </trkpt>
    <trkpt lat="38.659096034" lon="34.872783003">
      <ele>1322.251</ele>
      <time>2021-10-12T14:27:28Z</time>
    </trkpt>
    <trkpt lat="38.65911196" lon="34.872800019">
      <ele>1322.473</ele>
      <time>2021-10-12T14:27:29Z</time>
    </trkpt>
    <trkpt lat="38.65914599" lon="34.872828014">
      <ele>1322.944</ele>
      <time>2021-10-12T14:27:31Z</time>
    </trkpt>
    <trkpt lat="38.659165017" lon="34.872847041">
      <ele>1323.23</ele>
      <time>2021-10-12T14:27:32Z</time>
    </trkpt>
    <trkpt lat="38.659183038" lon="34.87286699">
      <ele>1323.479</ele>
      <time>2021-10-12T14:27:32Z</time>
    </trkpt>
    <trkpt lat="38.659203993" lon="34.872885011">
      <ele>1323.737</ele>
      <time>2021-10-12T14:27:33Z</time>
    </trkpt>
    <trkpt lat="38.659225032" lon="34.87290496">
      <ele>1323.992</ele>
      <time>2021-10-12T14:27:34Z</time>
    </trkpt>
    <trkpt lat="38.659244981" lon="34.872922981">
      <ele>1324.221</ele>
      <time>2021-10-12T14:27:35Z</time>
    </trkpt>
    <trkpt lat="38.659264008" lon="34.872938991">
      <ele>1324.428</ele>
      <time>2021-10-12T14:27:36Z</time>
    </trkpt>
    <trkpt lat="38.65928404" lon="34.872958018">
      <ele>1324.642</ele>
      <time>2021-10-12T14:27:37Z</time>
    </trkpt>
    <trkpt lat="38.659303989" lon="34.872974027">
      <ele>1324.84</ele>
      <time>2021-10-12T14:27:38Z</time>
    </trkpt>
    <trkpt lat="38.659325028" lon="34.872990958">
      <ele>1325.04</ele>
      <time>2021-10-12T14:27:39Z</time>
    </trkpt>
    <trkpt lat="38.659349" lon="34.873007974">
      <ele>1325.254</ele>
      <time>2021-10-12T14:27:40Z</time>
    </trkpt>
    <trkpt lat="38.65937599" lon="34.873024989">
      <ele>1325.48</ele>
      <time>2021-10-12T14:27:41Z</time>
    </trkpt>
    <trkpt lat="38.659400968" lon="34.873042004">
      <ele>1325.679</ele>
      <time>2021-10-12T14:27:42Z</time>
    </trkpt>
    <trkpt lat="38.659427036" lon="34.873061031">
      <ele>1325.854</ele>
      <time>2021-10-12T14:27:43Z</time>
    </trkpt>
    <trkpt lat="38.659451008" lon="34.87308098">
      <ele>1325.885</ele>
      <time>2021-10-12T14:27:44Z</time>
    </trkpt>
    <trkpt lat="38.659477998" lon="34.873103024">
      <ele>1325.708</ele>
      <time>2021-10-12T14:27:45Z</time>
    </trkpt>
    <trkpt lat="38.659500964" lon="34.873119034">
      <ele>1325.568</ele>
      <time>2021-10-12T14:27:46Z</time>
    </trkpt>
    <trkpt lat="38.659523008" lon="34.873135965">
      <ele>1325.428</ele>
      <time>2021-10-12T14:27:47Z</time>
    </trkpt>
    <trkpt lat="38.659544969" lon="34.873150969">
      <ele>1325.295</ele>
      <time>2021-10-12T14:27:48Z</time>
    </trkpt>
    <trkpt lat="38.659570031" lon="34.873172008">
      <ele>1325.129</ele>
      <time>2021-10-12T14:27:49Z</time>
    </trkpt>
    <trkpt lat="38.659599032" lon="34.87319598">
      <ele>1324.938</ele>
      <time>2021-10-12T14:27:51Z</time>
    </trkpt>
    <trkpt lat="38.659626022" lon="34.873218024">
      <ele>1324.761</ele>
      <time>2021-10-12T14:27:52Z</time>
    </trkpt>
    <trkpt lat="38.659653012" lon="34.873244008">
      <ele>1324.571</ele>
      <time>2021-10-12T14:27:53Z</time>
    </trkpt>
    <trkpt lat="38.659682013" lon="34.873268986">
      <ele>1324.376</ele>
      <time>2021-10-12T14:27:54Z</time>
    </trkpt>
    <trkpt lat="38.659710009" lon="34.87329497">
      <ele>1324.182</ele>
      <time>2021-10-12T14:27:56Z</time>
    </trkpt>
    <trkpt lat="38.659735993" lon="34.873320032">
      <ele>1324.095</ele>
      <time>2021-10-12T14:27:57Z</time>
    </trkpt>
    <trkpt lat="38.659760971" lon="34.87334501">
      <ele>1324.097</ele>
      <time>2021-10-12T14:27:58Z</time>
    </trkpt>
    <trkpt lat="38.659786033" lon="34.873374011">
      <ele>1324.083</ele>
      <time>2021-10-12T14:27:59Z</time>
    </trkpt>
    <trkpt lat="38.659807993" lon="34.873403013">
      <ele>1324.058</ele>
      <time>2021-10-12T14:28:00Z</time>
    </trkpt>
    <trkpt lat="38.65983096" lon="34.873427991">
      <ele>1324.051</ele>
      <time>2021-10-12T14:28:02Z</time>
    </trkpt>
    <trkpt lat="38.659851998" lon="34.873454981">
      <ele>1324.029</ele>
      <time>2021-10-12T14:28:03Z</time>
    </trkpt>
    <trkpt lat="38.659874965" lon="34.873484988">
      <ele>1324.004</ele>
      <time>2021-10-12T14:28:04Z</time>
    </trkpt>
    <trkpt lat="38.659900026" lon="34.873516001">
      <ele>1323.982</ele>
      <time>2021-10-12T14:28:05Z</time>
    </trkpt>
    <trkpt lat="38.659927016" lon="34.873543996">
      <ele>1323.979</ele>
      <time>2021-10-12T14:28:06Z</time>
    </trkpt>
    <trkpt lat="38.659957023" lon="34.873570986">
      <ele>1323.99</ele>
      <time>2021-10-12T14:28:08Z</time>
    </trkpt>
    <trkpt lat="38.65999097" lon="34.873597976">
      <ele>1324.015</ele>
      <time>2021-10-12T14:28:09Z</time>
    </trkpt>
    <trkpt lat="38.660025001" lon="34.873622032">
      <ele>1323.961</ele>
      <time>2021-10-12T14:28:11Z</time>
    </trkpt>
    <trkpt lat="38.660059031" lon="34.873642987">
      <ele>1323.885</ele>
      <time>2021-10-12T14:28:12Z</time>
    </trkpt>
    <trkpt lat="38.660093984" lon="34.873665031">
      <ele>1323.806</ele>
      <time>2021-10-12T14:28:14Z</time>
    </trkpt>
    <trkpt lat="38.660126003" lon="34.873678023">
      <ele>1323.759</ele>
      <time>2021-10-12T14:28:15Z</time>
    </trkpt>
    <trkpt lat="38.660161961" lon="34.873687997">
      <ele>1323.723</ele>
      <time>2021-10-12T14:28:16Z</time>
    </trkpt>
    <trkpt lat="38.660200015" lon="34.873704007">
      <ele>1323.666</ele>
      <time>2021-10-12T14:28:18Z</time>
    </trkpt>
    <trkpt lat="38.660234967" lon="34.873718005">
      <ele>1323.615</ele>
      <time>2021-10-12T14:28:19Z</time>
    </trkpt>
    <trkpt lat="38.660272015" lon="34.873737032">
      <ele>1323.547</ele>
      <time>2021-10-12T14:28:20Z</time>
    </trkpt>
    <trkpt lat="38.660305962" lon="34.873753041">
      <ele>1323.437</ele>
      <time>2021-10-12T14:28:22Z</time>
    </trkpt>
    <trkpt lat="38.660334963" lon="34.873767961">
      <ele>1323.319</ele>
      <time>2021-10-12T14:28:23Z</time>
    </trkpt>
    <trkpt lat="38.660365976" lon="34.873782964">
      <ele>1323.185</ele>
      <time>2021-10-12T14:28:24Z</time>
    </trkpt>
    <trkpt lat="38.660397995" lon="34.87379604">
      <ele>1323.046</ele>
      <time>2021-10-12T14:28:25Z</time>
    </trkpt>
    <trkpt lat="38.660430014" lon="34.873804003">
      <ele>1322.925</ele>
      <time>2021-10-12T14:28:27Z</time>
    </trkpt>
    <trkpt lat="38.660463961" lon="34.873811966">
      <ele>1322.792</ele>
      <time>2021-10-12T14:28:28Z</time>
    </trkpt>
    <trkpt lat="38.660502015" lon="34.87382303">
      <ele>1322.621</ele>
      <time>2021-10-12T14:28:29Z</time>
    </trkpt>
    <trkpt lat="38.660539985" lon="34.873836022">
      <ele>1322.426</ele>
      <time>2021-10-12T14:28:31Z</time>
    </trkpt>
    <trkpt lat="38.660574015" lon="34.873840967">
      <ele>1322.322</ele>
      <time>2021-10-12T14:28:32Z</time>
    </trkpt>
    <trkpt lat="38.660615003" lon="34.873848008">
      <ele>1322.231</ele>
      <time>2021-10-12T14:28:34Z</time>
    </trkpt>
    <trkpt lat="38.660653979" lon="34.873854965">
      <ele>1322.158</ele>
      <time>2021-10-12T14:28:35Z</time>
    </trkpt>
    <trkpt lat="38.660692032" lon="34.873861">
      <ele>1322.102</ele>
      <time>2021-10-12T14:28:36Z</time>
    </trkpt>
    <trkpt lat="38.660723967" lon="34.873867035">
      <ele>1322.062</ele>
      <time>2021-10-12T14:28:38Z</time>
    </trkpt>
    <trkpt lat="38.660753975" lon="34.873872986">
      <ele>1322.033</ele>
      <time>2021-10-12T14:28:39Z</time>
    </trkpt>
    <trkpt lat="38.660785994" lon="34.873879021">
      <ele>1322.012</ele>
      <time>2021-10-12T14:28:40Z</time>
    </trkpt>
    <trkpt lat="38.660819018" lon="34.87388799">
      <ele>1322.0</ele>
      <time>2021-10-12T14:28:41Z</time>
    </trkpt>
    <trkpt lat="38.660855982" lon="34.873900982">
      <ele>1321.626</ele>
      <time>2021-10-12T14:28:43Z</time>
    </trkpt>
    <trkpt lat="38.660894958" lon="34.873913974">
      <ele>1321.145</ele>
      <time>2021-10-12T14:28:44Z</time>
    </trkpt>
    <trkpt lat="38.660925971" lon="34.873923026">
      <ele>1320.801</ele>
      <time>2021-10-12T14:28:45Z</time>
    </trkpt>
    <trkpt lat="38.660955979" lon="34.873939035">
      <ele>1320.374</ele>
      <time>2021-10-12T14:28:47Z</time>
    </trkpt>
    <trkpt lat="38.660986992" lon="34.873950016">
      <ele>1320.037</ele>
      <time>2021-10-12T14:28:48Z</time>
    </trkpt>
    <trkpt lat="38.66101901" lon="34.873963008">
      <ele>1319.686</ele>
      <time>2021-10-12T14:28:49Z</time>
    </trkpt>
    <trkpt lat="38.661050024" lon="34.873973988">
      <ele>1319.386</ele>
      <time>2021-10-12T14:28:50Z</time>
    </trkpt>
    <trkpt lat="38.66108397" lon="34.873983962">
      <ele>1319.102</ele>
      <time>2021-10-12T14:28:51Z</time>
    </trkpt>
    <trkpt lat="38.661114983" lon="34.873998966">
      <ele>1318.761</ele>
      <time>2021-10-12T14:28:53Z</time>
    </trkpt>
    <trkpt lat="38.661145996" lon="34.874014976">
      <ele>1318.193</ele>
      <time>2021-10-12T14:28:54Z</time>
    </trkpt>
    <trkpt lat="38.661176004" lon="34.874027967">
      <ele>1317.68</ele>
      <time>2021-10-12T14:28:55Z</time>
    </trkpt>
    <trkpt lat="38.661210034" lon="34.874045989">
      <ele>1317.08</ele>
      <time>2021-10-12T14:28:56Z</time>
    </trkpt>
    <trkpt lat="38.661244987" lon="34.874069039">
      <ele>1316.439</ele>
      <time>2021-10-12T14:28:58Z</time>
    </trkpt>
    <trkpt lat="38.661278011" lon="34.874093011">
      <ele>1315.834</ele>
      <time>2021-10-12T14:28:59Z</time>
    </trkpt>
    <trkpt lat="38.66131397" lon="34.874114972">
      <ele>1315.232</ele>
      <time>2021-10-12T14:29:01Z</time>
    </trkpt>
    <trkpt lat="38.661344983" lon="34.874133999">
      <ele>1314.728</ele>
      <time>2021-10-12T14:29:02Z</time>
    </trkpt>
    <trkpt lat="38.661377002" lon="34.874155959">
      <ele>1314.207</ele>
      <time>2021-10-12T14:29:03Z</time>
    </trkpt>
    <trkpt lat="38.66140902" lon="34.874171969">
      <ele>1313.762</ele>
      <time>2021-10-12T14:29:05Z</time>
    </trkpt>
    <trkpt lat="38.661439028" lon="34.874185966">
      <ele>1313.317</ele>
      <time>2021-10-12T14:29:06Z</time>
    </trkpt>
    <trkpt lat="38.661468029" lon="34.874201976">
      <ele>1312.867</ele>
      <time>2021-10-12T14:29:07Z</time>
    </trkpt>
    <trkpt lat="38.661498958" lon="34.874217985">
      <ele>1312.43</ele>
      <time>2021-10-12T14:29:08Z</time>
    </trkpt>
    <trkpt lat="38.661531983" lon="34.874233995">
      <ele>1312.008</ele>
      <time>2021-10-12T14:29:10Z</time>
    </trkpt>
    <trkpt lat="38.661565008" lon="34.874247992">
      <ele>1311.639</ele>
      <time>2021-10-12T14:29:11Z</time>
    </trkpt>
    <trkpt lat="38.661598032" lon="34.874262996">
      <ele>1311.282</ele>
      <time>2021-10-12T14:29:12Z</time>
    </trkpt>
    <trkpt lat="38.661632985" lon="34.874275988">
      <ele>1310.966</ele>
      <time>2021-10-12T14:29:14Z</time>
    </trkpt>
    <trkpt lat="38.661667015" lon="34.87428898">
      <ele>1310.68</ele>
      <time>2021-10-12T14:29:15Z</time>
    </trkpt>
    <trkpt lat="38.66170004" lon="34.874307001">
      <ele>1310.606</ele>
      <time>2021-10-12T14:29:16Z</time>
    </trkpt>
    <trkpt lat="38.661731975" lon="34.874327034">
      <ele>1310.54</ele>
      <time>2021-10-12T14:29:17Z</time>
    </trkpt>
    <trkpt lat="38.661761982" lon="34.874346983">
      <ele>1310.498</ele>
      <time>2021-10-12T14:29:19Z</time>
    </trkpt>
    <trkpt lat="38.661788972" lon="34.874365004">
      <ele>1310.487</ele>
      <time>2021-10-12T14:29:20Z</time>
    </trkpt>
    <trkpt lat="38.661817973" lon="34.87438797">
      <ele>1310.478</ele>
      <time>2021-10-12T14:29:21Z</time>
    </trkpt>
    <trkpt lat="38.661847981" lon="34.874413032">
      <ele>1310.497</ele>
      <time>2021-10-12T14:29:22Z</time>
    </trkpt>
    <trkpt lat="38.661875976" lon="34.874434993">
      <ele>1310.558</ele>
      <time>2021-10-12T14:29:24Z</time>
    </trkpt>
    <trkpt lat="38.661903972" lon="34.874457959">
      <ele>1310.597</ele>
      <time>2021-10-12T14:29:25Z</time>
    </trkpt>
    <trkpt lat="38.661930962" lon="34.874483021">
      <ele>1310.612</ele>
      <time>2021-10-12T14:29:26Z</time>
    </trkpt>
    <trkpt lat="38.661956023" lon="34.874512022">
      <ele>1310.575</ele>
      <time>2021-10-12T14:29:27Z</time>
    </trkpt>
    <trkpt lat="38.661982007" lon="34.874544963">
      <ele>1310.509</ele>
      <time>2021-10-12T14:29:29Z</time>
    </trkpt>
    <trkpt lat="38.66200598" lon="34.874575976">
      <ele>1310.484</ele>
      <time>2021-10-12T14:29:30Z</time>
    </trkpt>
    <trkpt lat="38.662032969" lon="34.874605983">
      <ele>1310.526</ele>
      <time>2021-10-12T14:29:31Z</time>
    </trkpt>
    <trkpt lat="38.662059959" lon="34.874636997">
      <ele>1310.606</ele>
      <time>2021-10-12T14:29:33Z</time>
    </trkpt>
    <trkpt lat="38.662087033" lon="34.87466801">
      <ele>1310.73</ele>
      <time>2021-10-12T14:29:34Z</time>
    </trkpt>
    <trkpt lat="38.662114022" lon="34.874699023">
      <ele>1310.897</ele>
      <time>2021-10-12T14:29:35Z</time>
    </trkpt>
    <trkpt lat="38.662137995" lon="34.874732969">
      <ele>1311.016</ele>
      <time>2021-10-12T14:29:37Z</time>
    </trkpt>
    <trkpt lat="38.662160039" lon="34.874768006">
      <ele>1311.053</ele>
      <time>2021-10-12T14:29:38Z</time>
    </trkpt>
    <trkpt lat="38.662180994" lon="34.874802036">
      <ele>1311.139</ele>
      <time>2021-10-12T14:29:39Z</time>
    </trkpt>
    <trkpt lat="38.662202032" lon="34.874833971">
      <ele>1311.292</ele>
      <time>2021-10-12T14:29:40Z</time>
    </trkpt>
    <trkpt lat="38.662224999" lon="34.874872025">
      <ele>1311.491</ele>
      <time>2021-10-12T14:29:42Z</time>
    </trkpt>
    <trkpt lat="38.662245031" lon="34.874905972">
      <ele>1311.611</ele>
      <time>2021-10-12T14:29:43Z</time>
    </trkpt>
    <trkpt lat="38.662262969" lon="34.874941008">
      <ele>1311.737</ele>
      <time>2021-10-12T14:29:44Z</time>
    </trkpt>
    <trkpt lat="38.662281996" lon="34.874972021">
      <ele>1311.918</ele>
      <time>2021-10-12T14:29:45Z</time>
    </trkpt>
    <trkpt lat="38.662301023" lon="34.875006974">
      <ele>1312.074</ele>
      <time>2021-10-12T14:29:47Z</time>
    </trkpt>
    <trkpt lat="38.662319966" lon="34.875047039">
      <ele>1312.019</ele>
      <time>2021-10-12T14:29:48Z</time>
    </trkpt>
    <trkpt lat="38.662338993" lon="34.875086015">
      <ele>1312.013</ele>
      <time>2021-10-12T14:29:49Z</time>
    </trkpt>
    <trkpt lat="38.66235802" lon="34.875129014">
      <ele>1312.016</ele>
      <time>2021-10-12T14:29:51Z</time>
    </trkpt>
    <trkpt lat="38.662371011" lon="34.875173019">
      <ele>1311.941</ele>
      <time>2021-10-12T14:29:52Z</time>
    </trkpt>
    <trkpt lat="38.662385009" lon="34.875214007">
      <ele>1311.936</ele>
      <time>2021-10-12T14:29:53Z</time>
    </trkpt>
    <trkpt lat="38.662393978" lon="34.875253988">
      <ele>1311.861</ele>
      <time>2021-10-12T14:29:55Z</time>
    </trkpt>
    <trkpt lat="38.662404958" lon="34.875291958">
      <ele>1311.879</ele>
      <time>2021-10-12T14:29:56Z</time>
    </trkpt>
    <trkpt lat="38.662418034" lon="34.875331018">
      <ele>1311.981</ele>
      <time>2021-10-12T14:29:57Z</time>
    </trkpt>
    <trkpt lat="38.662431026" lon="34.875371">
      <ele>1312.091</ele>
      <time>2021-10-12T14:29:58Z</time>
    </trkpt>
    <trkpt lat="38.662444018" lon="34.875413999">
      <ele>1312.202</ele>
      <time>2021-10-12T14:30:00Z</time>
    </trkpt>
    <trkpt lat="38.662453992" lon="34.875456998">
      <ele>1312.254</ele>
      <time>2021-10-12T14:30:01Z</time>
    </trkpt>
    <trkpt lat="38.662460027" lon="34.875497986">
      <ele>1312.23</ele>
      <time>2021-10-12T14:30:02Z</time>
    </trkpt>
    <trkpt lat="38.662468996" lon="34.875540985">
      <ele>1312.277</ele>
      <time>2021-10-12T14:30:03Z</time>
    </trkpt>
    <trkpt lat="38.66247897" lon="34.875582978">
      <ele>1312.28</ele>
      <time>2021-10-12T14:30:05Z</time>
    </trkpt>
    <trkpt lat="38.662491962" lon="34.875625977">
      <ele>1312.298</ele>
      <time>2021-10-12T14:30:06Z</time>
    </trkpt>
    <trkpt lat="38.662502021" lon="34.875668976">
      <ele>1312.212</ele>
      <time>2021-10-12T14:30:07Z</time>
    </trkpt>
    <trkpt lat="38.662507972" lon="34.875711976">
      <ele>1311.989</ele>
      <time>2021-10-12T14:30:09Z</time>
    </trkpt>
    <trkpt lat="38.662511995" lon="34.875760004">
      <ele>1311.701</ele>
      <time>2021-10-12T14:30:10Z</time>
    </trkpt>
    <trkpt lat="38.662514007" lon="34.875807026">
      <ele>1311.391</ele>
      <time>2021-10-12T14:30:11Z</time>
    </trkpt>
    <trkpt lat="38.662515013" lon="34.875855977">
      <ele>1310.972</ele>
      <time>2021-10-12T14:30:13Z</time>
    </trkpt>
    <trkpt lat="38.662516018" lon="34.875901993">
      <ele>1310.489</ele>
      <time>2021-10-12T14:30:14Z</time>
    </trkpt>
    <trkpt lat="38.662515013" lon="34.875943987">
      <ele>1310.021</ele>
      <time>2021-10-12T14:30:15Z</time>
    </trkpt>
    <trkpt lat="38.662510989" lon="34.875984974">
      <ele>1309.521</ele>
      <time>2021-10-12T14:30:17Z</time>
    </trkpt>
    <trkpt lat="38.662508978" lon="34.876021016">
      <ele>1309.102</ele>
      <time>2021-10-12T14:30:18Z</time>
    </trkpt>
    <trkpt lat="38.662507972" lon="34.876062004">
      <ele>1308.645</ele>
      <time>2021-10-12T14:30:19Z</time>
    </trkpt>
    <trkpt lat="38.662508978" lon="34.876102991">
      <ele>1308.217</ele>
      <time>2021-10-12T14:30:20Z</time>
    </trkpt>
    <trkpt lat="38.662509983" lon="34.876146996">
      <ele>1308.259</ele>
      <time>2021-10-12T14:30:21Z</time>
    </trkpt>
    <trkpt lat="38.662511995" lon="34.876193013">
      <ele>1308.429</ele>
      <time>2021-10-12T14:30:23Z</time>
    </trkpt>
    <trkpt lat="38.662516018" lon="34.876229977">
      <ele>1308.585</ele>
      <time>2021-10-12T14:30:24Z</time>
    </trkpt>
    <trkpt lat="38.662515013" lon="34.876275994">
      <ele>1308.714</ele>
      <time>2021-10-12T14:30:25Z</time>
    </trkpt>
    <trkpt lat="38.662514007" lon="34.876322011">
      <ele>1308.846</ele>
      <time>2021-10-12T14:30:26Z</time>
    </trkpt>
    <trkpt lat="38.662514007" lon="34.87636501">
      <ele>1308.977</ele>
      <time>2021-10-12T14:30:28Z</time>
    </trkpt>
    <trkpt lat="38.662509983" lon="34.876408009">
      <ele>1309.1</ele>
      <time>2021-10-12T14:30:29Z</time>
    </trkpt>
    <trkpt lat="38.662505038" lon="34.876451008">
      <ele>1309.234</ele>
      <time>2021-10-12T14:30:30Z</time>
    </trkpt>
    <trkpt lat="38.662503026" lon="34.876486966">
      <ele>1309.356</ele>
      <time>2021-10-12T14:30:31Z</time>
    </trkpt>
    <trkpt lat="38.662501015" lon="34.876526026">
      <ele>1309.494</ele>
      <time>2021-10-12T14:30:32Z</time>
    </trkpt>
    <trkpt lat="38.662497997" lon="34.876569025">
      <ele>1309.62</ele>
      <time>2021-10-12T14:30:34Z</time>
    </trkpt>
    <trkpt lat="38.662496991" lon="34.876614036">
      <ele>1309.767</ele>
      <time>2021-10-12T14:30:35Z</time>
    </trkpt>
    <trkpt lat="38.662500009" lon="34.876656029">
      <ele>1309.962</ele>
      <time>2021-10-12T14:30:36Z</time>
    </trkpt>
    <trkpt lat="38.662506966" lon="34.876696011">
      <ele>1309.764</ele>
      <time>2021-10-12T14:30:37Z</time>
    </trkpt>
    <trkpt lat="38.662514007" lon="34.876740016">
      <ele>1309.421</ele>
      <time>2021-10-12T14:30:39Z</time>
    </trkpt>
    <trkpt lat="38.662520964" lon="34.876782009">
      <ele>1309.094</ele>
      <time>2021-10-12T14:30:40Z</time>
    </trkpt>
    <trkpt lat="38.662524987" lon="34.876826014">
      <ele>1308.763</ele>
      <time>2021-10-12T14:30:41Z</time>
    </trkpt>
    <trkpt lat="38.662525993" lon="34.876871025">
      <ele>1308.435</ele>
      <time>2021-10-12T14:30:42Z</time>
    </trkpt>
    <trkpt lat="38.662528004" lon="34.876911007">
      <ele>1308.14</ele>
      <time>2021-10-12T14:30:44Z</time>
    </trkpt>
    <trkpt lat="38.662524987" lon="34.876953">
      <ele>1307.846</ele>
      <time>2021-10-12T14:30:45Z</time>
    </trkpt>
    <trkpt lat="38.662519036" lon="34.876993988">
      <ele>1307.563</ele>
      <time>2021-10-12T14:30:46Z</time>
    </trkpt>
    <trkpt lat="38.662511995" lon="34.877026007">
      <ele>1307.357</ele>
      <time>2021-10-12T14:30:47Z</time>
    </trkpt>
    <trkpt lat="38.66250596" lon="34.877062971">
      <ele>1307.116</ele>
      <time>2021-10-12T14:30:48Z</time>
    </trkpt>
    <trkpt lat="38.662495986" lon="34.87710203">
      <ele>1306.838</ele>
      <time>2021-10-12T14:30:49Z</time>
    </trkpt>
    <trkpt lat="38.662490034" lon="34.87714">
      <ele>1306.535</ele>
      <time>2021-10-12T14:30:50Z</time>
    </trkpt>
    <trkpt lat="38.662486011" lon="34.877178976">
      <ele>1306.245</ele>
      <time>2021-10-12T14:30:52Z</time>
    </trkpt>
    <trkpt lat="38.662484" lon="34.877219964">
      <ele>1305.958</ele>
      <time>2021-10-12T14:30:53Z</time>
    </trkpt>
    <trkpt lat="38.662484" lon="34.877263969">
      <ele>1305.376</ele>
      <time>2021-10-12T14:30:54Z</time>
    </trkpt>
    <trkpt lat="38.662484" lon="34.87730504">
      <ele>1304.819</ele>
      <time>2021-10-12T14:30:55Z</time>
    </trkpt>
    <trkpt lat="38.662480982" lon="34.877350973">
      <ele>1304.204</ele>
      <time>2021-10-12T14:30:57Z</time>
    </trkpt>
    <trkpt lat="38.66247897" lon="34.877399001">
      <ele>1303.571</ele>
      <time>2021-10-12T14:30:58Z</time>
    </trkpt>
    <trkpt lat="38.662472013" lon="34.877449041">
      <ele>1302.962</ele>
      <time>2021-10-12T14:30:59Z</time>
    </trkpt>
    <trkpt lat="38.662470002" lon="34.877494974">
      <ele>1302.389</ele>
      <time>2021-10-12T14:31:01Z</time>
    </trkpt>
    <trkpt lat="38.662463967" lon="34.877544008">
      <ele>1302.093</ele>
      <time>2021-10-12T14:31:02Z</time>
    </trkpt>
    <trkpt lat="38.662463967" lon="34.877590025">
      <ele>1301.783</ele>
      <time>2021-10-12T14:31:04Z</time>
    </trkpt>
    <trkpt lat="38.662463967" lon="34.877636041">
      <ele>1301.473</ele>
      <time>2021-10-12T14:31:05Z</time>
    </trkpt>
    <trkpt lat="38.66246799" lon="34.87768298">
      <ele>1301.104</ele>
      <time>2021-10-12T14:31:06Z</time>
    </trkpt>
    <trkpt lat="38.662470002" lon="34.877728997">
      <ele>1300.764</ele>
      <time>2021-10-12T14:31:08Z</time>
    </trkpt>
    <trkpt lat="38.662474025" lon="34.877776019">
      <ele>1300.386</ele>
      <time>2021-10-12T14:31:09Z</time>
    </trkpt>
    <trkpt lat="38.66247897" lon="34.877823964">
      <ele>1299.791</ele>
      <time>2021-10-12T14:31:10Z</time>
    </trkpt>
    <trkpt lat="38.662486011" lon="34.87786998">
      <ele>1299.189</ele>
      <time>2021-10-12T14:31:12Z</time>
    </trkpt>
    <trkpt lat="38.662496991" lon="34.877917003">
      <ele>1298.534</ele>
      <time>2021-10-12T14:31:13Z</time>
    </trkpt>
    <trkpt lat="38.662506966" lon="34.877960002">
      <ele>1297.89</ele>
      <time>2021-10-12T14:31:14Z</time>
    </trkpt>
    <trkpt lat="38.662513001" lon="34.878004007">
      <ele>1297.285</ele>
      <time>2021-10-12T14:31:16Z</time>
    </trkpt>
    <trkpt lat="38.66251803" lon="34.878049018">
      <ele>1296.683</ele>
      <time>2021-10-12T14:31:17Z</time>
    </trkpt>
    <trkpt lat="38.662522975" lon="34.878090005">
      <ele>1295.904</ele>
      <time>2021-10-12T14:31:18Z</time>
    </trkpt>
    <trkpt lat="38.662524987" lon="34.878136022">
      <ele>1295.064</ele>
      <time>2021-10-12T14:31:20Z</time>
    </trkpt>
    <trkpt lat="38.662525993" lon="34.878185978">
      <ele>1294.179</ele>
      <time>2021-10-12T14:31:21Z</time>
    </trkpt>
    <trkpt lat="38.662530016" lon="34.878236018">
      <ele>1293.244</ele>
      <time>2021-10-12T14:31:22Z</time>
    </trkpt>
    <trkpt lat="38.662531022" lon="34.878283963">
      <ele>1292.402</ele>
      <time>2021-10-12T14:31:24Z</time>
    </trkpt>
    <trkpt lat="38.662532028" lon="34.878332997">
      <ele>1291.545</ele>
      <time>2021-10-12T14:31:25Z</time>
    </trkpt>
    <trkpt lat="38.662532028" lon="34.87838597">
      <ele>1291.204</ele>
      <time>2021-10-12T14:31:27Z</time>
    </trkpt>
    <trkpt lat="38.662539991" lon="34.878431987">
      <ele>1290.816</ele>
      <time>2021-10-12T14:31:28Z</time>
    </trkpt>
    <trkpt lat="38.662548959" lon="34.878472975">
      <ele>1290.467</ele>
      <time>2021-10-12T14:31:29Z</time>
    </trkpt>
    <trkpt lat="38.662557006" lon="34.878515974">
      <ele>1290.134</ele>
      <time>2021-10-12T14:31:31Z</time>
    </trkpt>
    <trkpt lat="38.662564969" lon="34.878567019">
      <ele>1289.775</ele>
      <time>2021-10-12T14:31:32Z</time>
    </trkpt>
    <trkpt lat="38.662573015" lon="34.878619993">
      <ele>1289.459</ele>
      <time>2021-10-12T14:31:34Z</time>
    </trkpt>
    <trkpt lat="38.662580978" lon="34.878669027">
      <ele>1289.33</ele>
      <time>2021-10-12T14:31:35Z</time>
    </trkpt>
    <trkpt lat="38.662583996" lon="34.878718983">
      <ele>1289.242</ele>
      <time>2021-10-12T14:31:37Z</time>
    </trkpt>
    <trkpt lat="38.662581984" lon="34.878769023">
      <ele>1289.177</ele>
      <time>2021-10-12T14:31:38Z</time>
    </trkpt>
    <trkpt lat="38.66258299" lon="34.878816968">
      <ele>1289.104</ele>
      <time>2021-10-12T14:31:40Z</time>
    </trkpt>
    <trkpt lat="38.662585001" lon="34.878867008">
      <ele>1289.031</ele>
      <time>2021-10-12T14:31:41Z</time>
    </trkpt>
    <trkpt lat="38.662589025" lon="34.87891403">
      <ele>1288.909</ele>
      <time>2021-10-12T14:31:42Z</time>
    </trkpt>
    <trkpt lat="38.662592964" lon="34.878959041">
      <ele>1288.747</ele>
      <time>2021-10-12T14:31:44Z</time>
    </trkpt>
    <trkpt lat="38.662595982" lon="34.879004974">
      <ele>1288.582</ele>
      <time>2021-10-12T14:31:45Z</time>
    </trkpt>
    <trkpt lat="38.662596988" lon="34.879049985">
      <ele>1288.42</ele>
      <time>2021-10-12T14:31:46Z</time>
    </trkpt>
    <trkpt lat="38.662602017" lon="34.879094996">
      <ele>1288.258</ele>
      <time>2021-10-12T14:31:48Z</time>
    </trkpt>
    <trkpt lat="38.66260604" lon="34.879140006">
      <ele>1288.096</ele>
      <time>2021-10-12T14:31:49Z</time>
    </trkpt>
    <trkpt lat="38.662610985" lon="34.879186023">
      <ele>1287.819</ele>
      <time>2021-10-12T14:31:50Z</time>
    </trkpt>
    <trkpt lat="38.662616014" lon="34.879232962">
      <ele>1287.384</ele>
      <time>2021-10-12T14:31:52Z</time>
    </trkpt>
    <trkpt lat="38.662623977" lon="34.879276967">
      <ele>1286.986</ele>
      <time>2021-10-12T14:31:53Z</time>
    </trkpt>
    <trkpt lat="38.66263303" lon="34.879319966">
      <ele>1286.609</ele>
      <time>2021-10-12T14:31:54Z</time>
    </trkpt>
    <trkpt lat="38.662641998" lon="34.879365982">
      <ele>1286.214</ele>
      <time>2021-10-12T14:31:56Z</time>
    </trkpt>
    <trkpt lat="38.662646022" lon="34.879413005">
      <ele>1285.806</ele>
      <time>2021-10-12T14:31:57Z</time>
    </trkpt>
    <trkpt lat="38.662652979" lon="34.879451981">
      <ele>1285.418</ele>
      <time>2021-10-12T14:31:58Z</time>
    </trkpt>
    <trkpt lat="38.662661025" lon="34.87949104">
      <ele>1284.768</ele>
      <time>2021-10-12T14:31:59Z</time>
    </trkpt>
    <trkpt lat="38.662665971" lon="34.87953404">
      <ele>1284.048</ele>
      <time>2021-10-12T14:32:01Z</time>
    </trkpt>
    <trkpt lat="38.662667982" lon="34.879576033">
      <ele>1283.335</ele>
      <time>2021-10-12T14:32:02Z</time>
    </trkpt>
    <trkpt lat="38.662669994" lon="34.879621966">
      <ele>1282.56</ele>
      <time>2021-10-12T14:32:03Z</time>
    </trkpt>
    <trkpt lat="38.662671" lon="34.879667982">
      <ele>1281.778</ele>
      <time>2021-10-12T14:32:05Z</time>
    </trkpt>
    <trkpt lat="38.662669994" lon="34.879715005">
      <ele>1280.96</ele>
      <time>2021-10-12T14:32:06Z</time>
    </trkpt>
    <trkpt lat="38.662665971" lon="34.879762027">
      <ele>1280.219</ele>
      <time>2021-10-12T14:32:07Z</time>
    </trkpt>
    <trkpt lat="38.662662031" lon="34.879807038">
      <ele>1279.529</ele>
      <time>2021-10-12T14:32:09Z</time>
    </trkpt>
    <trkpt lat="38.662660019" lon="34.879850959">
      <ele>1278.874</ele>
      <time>2021-10-12T14:32:10Z</time>
    </trkpt>
    <trkpt lat="38.66265499" lon="34.879897982">
      <ele>1278.143</ele>
      <time>2021-10-12T14:32:11Z</time>
    </trkpt>
    <trkpt lat="38.662650967" lon="34.879943999">
      <ele>1277.437</ele>
      <time>2021-10-12T14:32:13Z</time>
    </trkpt>
    <trkpt lat="38.662645016" lon="34.879997978">
      <ele>1276.595</ele>
      <time>2021-10-12T14:32:14Z</time>
    </trkpt>
    <trkpt lat="38.66264401" lon="34.880049024">
      <ele>1276.117</ele>
      <time>2021-10-12T14:32:16Z</time>
    </trkpt>
    <trkpt lat="38.662645016" lon="34.880095962">
      <ele>1275.71</ele>
      <time>2021-10-12T14:32:17Z</time>
    </trkpt>
    <trkpt lat="38.662643004" lon="34.880147008">
      <ele>1275.229</ele>
      <time>2021-10-12T14:32:18Z</time>
    </trkpt>
    <trkpt lat="38.662640993" lon="34.880192019">
      <ele>1274.8</ele>
      <time>2021-10-12T14:32:20Z</time>
    </trkpt>
    <trkpt lat="38.662635963" lon="34.880234012">
      <ele>1274.353</ele>
      <time>2021-10-12T14:32:21Z</time>
    </trkpt>
    <trkpt lat="38.662625989" lon="34.880275">
      <ele>1273.84</ele>
      <time>2021-10-12T14:32:22Z</time>
    </trkpt>
    <trkpt lat="38.662614003" lon="34.880313976">
      <ele>1273.665</ele>
      <time>2021-10-12T14:32:23Z</time>
    </trkpt>
    <trkpt lat="38.66260604" lon="34.880355969">
      <ele>1273.594</ele>
      <time>2021-10-12T14:32:25Z</time>
    </trkpt>
    <trkpt lat="38.662601011" lon="34.880394023">
      <ele>1273.569</ele>
      <time>2021-10-12T14:32:26Z</time>
    </trkpt>
    <trkpt lat="38.66259397" lon="34.880436016">
      <ele>1273.537</ele>
      <time>2021-10-12T14:32:27Z</time>
    </trkpt>
    <trkpt lat="38.662590031" lon="34.880479015">
      <ele>1273.551</ele>
      <time>2021-10-12T14:32:28Z</time>
    </trkpt>
    <trkpt lat="38.662587013" lon="34.880521009">
      <ele>1273.58</ele>
      <time>2021-10-12T14:32:30Z</time>
    </trkpt>
    <trkpt lat="38.662579972" lon="34.88056602">
      <ele>1273.624</ele>
      <time>2021-10-12T14:32:31Z</time>
    </trkpt>
    <trkpt lat="38.662569998" lon="34.880608013">
      <ele>1273.74</ele>
      <time>2021-10-12T14:32:32Z</time>
    </trkpt>
    <trkpt lat="38.662561029" lon="34.880650006">
      <ele>1273.854</ele>
      <time>2021-10-12T14:32:33Z</time>
    </trkpt>
    <trkpt lat="38.662550971" lon="34.880690994">
      <ele>1273.944</ele>
      <time>2021-10-12T14:32:35Z</time>
    </trkpt>
    <trkpt lat="38.662538985" lon="34.88072997">
      <ele>1273.997</ele>
      <time>2021-10-12T14:32:36Z</time>
    </trkpt>
    <trkpt lat="38.662528004" lon="34.880768023">
      <ele>1274.044</ele>
      <time>2021-10-12T14:32:37Z</time>
    </trkpt>
    <trkpt lat="38.66251803" lon="34.880804988">
      <ele>1274.086</ele>
      <time>2021-10-12T14:32:38Z</time>
    </trkpt>
    <trkpt lat="38.662505038" lon="34.880844969">
      <ele>1274.055</ele>
      <time>2021-10-12T14:32:39Z</time>
    </trkpt>
    <trkpt lat="38.662491962" lon="34.880883023">
      <ele>1273.874</ele>
      <time>2021-10-12T14:32:41Z</time>
    </trkpt>
    <trkpt lat="38.662481988" lon="34.880924011">
      <ele>1273.698</ele>
      <time>2021-10-12T14:32:42Z</time>
    </trkpt>
    <trkpt lat="38.662473019" lon="34.880966004">
      <ele>1273.519</ele>
      <time>2021-10-12T14:32:43Z</time>
    </trkpt>
    <trkpt lat="38.662463967" lon="34.881005986">
      <ele>1273.32</ele>
      <time>2021-10-12T14:32:44Z</time>
    </trkpt>
    <trkpt lat="38.662454998" lon="34.881048985">
      <ele>1273.1</ele>
      <time>2021-10-12T14:32:46Z</time>
    </trkpt>
    <trkpt lat="38.662447035" lon="34.881088967">
      <ele>1272.886</ele>
      <time>2021-10-12T14:32:47Z</time>
    </trkpt>
    <trkpt lat="38.662439995" lon="34.881130038">
      <ele>1272.65</ele>
      <time>2021-10-12T14:32:48Z</time>
    </trkpt>
    <trkpt lat="38.662432032" lon="34.881171025">
      <ele>1272.369</ele>
      <time>2021-10-12T14:32:49Z</time>
    </trkpt>
    <trkpt lat="38.66243002" lon="34.881213019">
      <ele>1272.214</ele>
      <time>2021-10-12T14:32:51Z</time>
    </trkpt>
    <trkpt lat="38.662431026" lon="34.881255012">
      <ele>1272.121</ele>
      <time>2021-10-12T14:32:52Z</time>
    </trkpt>
    <trkpt lat="38.662432032" lon="34.881297005">
      <ele>1272.026</ele>
      <time>2021-10-12T14:32:53Z</time>
    </trkpt>
    <trkpt lat="38.662435971" lon="34.881335981">
      <ele>1271.994</ele>
      <time>2021-10-12T14:32:54Z</time>
    </trkpt>
    <trkpt lat="38.662437983" lon="34.881381998">
      <ele>1271.903</ele>
      <time>2021-10-12T14:32:55Z</time>
    </trkpt>
    <trkpt lat="38.662436977" lon="34.881426003">
      <ele>1271.538</ele>
      <time>2021-10-12T14:32:57Z</time>
    </trkpt>
    <trkpt lat="38.662434965" lon="34.881469002">
      <ele>1271.118</ele>
      <time>2021-10-12T14:32:58Z</time>
    </trkpt>
    <trkpt lat="38.66243396" lon="34.881510995">
      <ele>1270.723</ele>
      <time>2021-10-12T14:32:59Z</time>
    </trkpt>
    <trkpt lat="38.66243002" lon="34.881555">
      <ele>1270.243</ele>
      <time>2021-10-12T14:33:00Z</time>
    </trkpt>
    <trkpt lat="38.662428008" lon="34.881597999">
      <ele>1269.808</ele>
      <time>2021-10-12T14:33:02Z</time>
    </trkpt>
    <trkpt lat="38.662425997" lon="34.881638987">
      <ele>1269.388</ele>
      <time>2021-10-12T14:33:03Z</time>
    </trkpt>
    <trkpt lat="38.662423985" lon="34.881683998">
      <ele>1269.022</ele>
      <time>2021-10-12T14:33:04Z</time>
    </trkpt>
    <trkpt lat="38.662423985" lon="34.881724985">
      <ele>1268.874</ele>
      <time>2021-10-12T14:33:05Z</time>
    </trkpt>
    <trkpt lat="38.662422979" lon="34.881765973">
      <ele>1268.702</ele>
      <time>2021-10-12T14:33:07Z</time>
    </trkpt>
    <trkpt lat="38.662422979" lon="34.881805032">
      <ele>1268.561</ele>
      <time>2021-10-12T14:33:08Z</time>
    </trkpt>
    <trkpt lat="38.662420968" lon="34.881844008">
      <ele>1268.37</ele>
      <time>2021-10-12T14:33:09Z</time>
    </trkpt>
    <trkpt lat="38.662416022" lon="34.88188399">
      <ele>1268.101</ele>
      <time>2021-10-12T14:33:10Z</time>
    </trkpt>
    <trkpt lat="38.662410993" lon="34.881925983">
      <ele>1267.823</ele>
      <time>2021-10-12T14:33:11Z</time>
    </trkpt>
    <trkpt lat="38.66240697" lon="34.881965965">
      <ele>1267.708</ele>
      <time>2021-10-12T14:33:12Z</time>
    </trkpt>
    <trkpt lat="38.662405964" lon="34.882006031">
      <ele>1267.78</ele>
      <time>2021-10-12T14:33:14Z</time>
    </trkpt>
    <trkpt lat="38.662401019" lon="34.88203696">
      <ele>1267.743</ele>
      <time>2021-10-12T14:33:15Z</time>
    </trkpt>
    <trkpt lat="38.662389033" lon="34.882069984">
      <ele>1267.565</ele>
      <time>2021-10-12T14:33:16Z</time>
    </trkpt>
    <trkpt lat="38.662376041" lon="34.882099992">
      <ele>1267.376</ele>
      <time>2021-10-12T14:33:17Z</time>
    </trkpt>
    <trkpt lat="38.662365982" lon="34.882134022">
      <ele>1267.281</ele>
      <time>2021-10-12T14:33:18Z</time>
    </trkpt>
    <trkpt lat="38.662353996" lon="34.882170986">
      <ele>1267.178</ele>
      <time>2021-10-12T14:33:19Z</time>
    </trkpt>
    <trkpt lat="38.662344022" lon="34.882209962">
      <ele>1267.143</ele>
      <time>2021-10-12T14:33:20Z</time>
    </trkpt>
    <trkpt lat="38.662333963" lon="34.882253967">
      <ele>1266.964</ele>
      <time>2021-10-12T14:33:21Z</time>
    </trkpt>
    <trkpt lat="38.662321977" lon="34.882296966">
      <ele>1266.754</ele>
      <time>2021-10-12T14:33:23Z</time>
    </trkpt>
    <trkpt lat="38.66230798" lon="34.882338038">
      <ele>1266.605</ele>
      <time>2021-10-12T14:33:24Z</time>
    </trkpt>
    <trkpt lat="38.662289036" lon="34.882376008">
      <ele>1266.511</ele>
      <time>2021-10-12T14:33:25Z</time>
    </trkpt>
    <trkpt lat="38.662265986" lon="34.882409032">
      <ele>1266.497</ele>
      <time>2021-10-12T14:33:27Z</time>
    </trkpt>
    <trkpt lat="38.662245031" lon="34.882445997">
      <ele>1266.625</ele>
      <time>2021-10-12T14:33:28Z</time>
    </trkpt>
    <trkpt lat="38.66222701" lon="34.882485978">
      <ele>1266.887</ele>
      <time>2021-10-12T14:33:29Z</time>
    </trkpt>
    <trkpt lat="38.66221603" lon="34.882523026">
      <ele>1266.767</ele>
      <time>2021-10-12T14:33:30Z</time>
    </trkpt>
    <trkpt lat="38.662212007" lon="34.882559991">
      <ele>1266.458</ele>
      <time>2021-10-12T14:33:31Z</time>
    </trkpt>
    <trkpt lat="38.662208989" lon="34.882598966">
      <ele>1266.145</ele>
      <time>2021-10-12T14:33:33Z</time>
    </trkpt>
    <trkpt lat="38.662209995" lon="34.882631991">
      <ele>1265.918</ele>
      <time>2021-10-12T14:33:34Z</time>
    </trkpt>
    <trkpt lat="38.662215024" lon="34.88266401">
      <ele>1265.741</ele>
      <time>2021-10-12T14:33:34Z</time>
    </trkpt>
    <trkpt lat="38.66221997" lon="34.882695023">
      <ele>1265.572</ele>
      <time>2021-10-12T14:33:35Z</time>
    </trkpt>
    <trkpt lat="38.662220975" lon="34.882726036">
      <ele>1265.359</ele>
      <time>2021-10-12T14:33:36Z</time>
    </trkpt>
    <trkpt lat="38.662215024" lon="34.882759983">
      <ele>1265.05</ele>
      <time>2021-10-12T14:33:37Z</time>
    </trkpt>
    <trkpt lat="38.662199015" lon="34.882788984">
      <ele>1264.551</ele>
      <time>2021-10-12T14:33:38Z</time>
    </trkpt>
    <trkpt lat="38.662180994" lon="34.882819997">
      <ele>1263.817</ele>
      <time>2021-10-12T14:33:39Z</time>
    </trkpt>
    <trkpt lat="38.662164984" lon="34.882852016">
      <ele>1263.101</ele>
      <time>2021-10-12T14:33:41Z</time>
    </trkpt>
    <trkpt lat="38.662146963" lon="34.882886969">
      <ele>1262.328</ele>
      <time>2021-10-12T14:33:42Z</time>
    </trkpt>
    <trkpt lat="38.662130032" lon="34.882925022">
      <ele>1261.53</ele>
      <time>2021-10-12T14:33:43Z</time>
    </trkpt>
    <trkpt lat="38.662116034" lon="34.882959975">
      <ele>1260.824</ele>
      <time>2021-10-12T14:33:44Z</time>
    </trkpt>
    <trkpt lat="38.662105976" lon="34.882999035">
      <ele>1260.095</ele>
      <time>2021-10-12T14:33:45Z</time>
    </trkpt>
    <trkpt lat="38.662096001" lon="34.883040022">
      <ele>1259.345</ele>
      <time>2021-10-12T14:33:47Z</time>
    </trkpt>
    <trkpt lat="38.66208896" lon="34.883077992">
      <ele>1258.756</ele>
      <time>2021-10-12T14:33:48Z</time>
    </trkpt>
    <trkpt lat="38.662086027" lon="34.883115962">
      <ele>1258.256</ele>
      <time>2021-10-12T14:33:49Z</time>
    </trkpt>
    <trkpt lat="38.662084015" lon="34.883150999">
      <ele>1257.801</ele>
      <time>2021-10-12T14:33:50Z</time>
    </trkpt>
    <trkpt lat="38.662074963" lon="34.883188969">
      <ele>1257.273</ele>
      <time>2021-10-12T14:33:51Z</time>
    </trkpt>
    <trkpt lat="38.662070017" lon="34.883215036">
      <ele>1256.922</ele>
      <time>2021-10-12T14:33:52Z</time>
    </trkpt>
    <trkpt lat="38.662059037" lon="34.883247977">
      <ele>1256.461</ele>
      <time>2021-10-12T14:33:53Z</time>
    </trkpt>
    <trkpt lat="38.662046967" lon="34.883282008">
      <ele>1255.992</ele>
      <time>2021-10-12T14:33:54Z</time>
    </trkpt>
    <trkpt lat="38.66202903" lon="34.883318972">
      <ele>1255.475</ele>
      <time>2021-10-12T14:33:55Z</time>
    </trkpt>
    <trkpt lat="38.662017966" lon="34.883350991">
      <ele>1255.053</ele>
      <time>2021-10-12T14:33:56Z</time>
    </trkpt>
    <trkpt lat="38.662011009" lon="34.88338301">
      <ele>1254.668</ele>
      <time>2021-10-12T14:33:57Z</time>
    </trkpt>
    <trkpt lat="38.66200598" lon="34.883417962">
      <ele>1254.275</ele>
      <time>2021-10-12T14:33:58Z</time>
    </trkpt>
    <trkpt lat="38.662006985" lon="34.883451993">
      <ele>1253.89</ele>
      <time>2021-10-12T14:33:59Z</time>
    </trkpt>
    <trkpt lat="38.66201302" lon="34.883486023">
      <ele>1253.469</ele>
      <time>2021-10-12T14:34:00Z</time>
    </trkpt>
    <trkpt lat="38.66201302" lon="34.883521982">
      <ele>1253.05</ele>
      <time>2021-10-12T14:34:01Z</time>
    </trkpt>
    <trkpt lat="38.66201302" lon="34.883557018">
      <ele>1252.642</ele>
      <time>2021-10-12T14:34:02Z</time>
    </trkpt>
    <trkpt lat="38.662015032" lon="34.88359197">
      <ele>1252.209</ele>
      <time>2021-10-12T14:34:03Z</time>
    </trkpt>
    <trkpt lat="38.662014026" lon="34.883627007">
      <ele>1251.726</ele>
      <time>2021-10-12T14:34:04Z</time>
    </trkpt>
    <trkpt lat="38.66201302" lon="34.883663971">
      <ele>1251.11</ele>
      <time>2021-10-12T14:34:05Z</time>
    </trkpt>
    <trkpt lat="38.66200204" lon="34.883700013">
      <ele>1250.691</ele>
      <time>2021-10-12T14:34:06Z</time>
    </trkpt>
    <trkpt lat="38.66198997" lon="34.88373396">
      <ele>1250.358</ele>
      <time>2021-10-12T14:34:08Z</time>
    </trkpt>
    <trkpt lat="38.661975972" lon="34.883764973">
      <ele>1250.142</ele>
      <time>2021-10-12T14:34:09Z</time>
    </trkpt>
    <trkpt lat="38.661965998" lon="34.883796992">
      <ele>1249.857</ele>
      <time>2021-10-12T14:34:10Z</time>
    </trkpt>
    <trkpt lat="38.661961975" lon="34.883834962">
      <ele>1249.372</ele>
      <time>2021-10-12T14:34:11Z</time>
    </trkpt>
    <trkpt lat="38.661964992" lon="34.883871004">
      <ele>1248.754</ele>
      <time>2021-10-12T14:34:12Z</time>
    </trkpt>
    <trkpt lat="38.66197899" lon="34.88390998">
      <ele>1247.959</ele>
      <time>2021-10-12T14:34:13Z</time>
    </trkpt>
    <trkpt lat="38.661992988" lon="34.883947028">
      <ele>1247.285</ele>
      <time>2021-10-12T14:34:14Z</time>
    </trkpt>
    <trkpt lat="38.66201302" lon="34.883980975">
      <ele>1246.445</ele>
      <time>2021-10-12T14:34:15Z</time>
    </trkpt>
    <trkpt lat="38.662030036" lon="34.884006958">
      <ele>1245.731</ele>
      <time>2021-10-12T14:34:16Z</time>
    </trkpt>
    <trkpt lat="38.662047973" lon="34.884029003">
      <ele>1245.006</ele>
      <time>2021-10-12T14:34:17Z</time>
    </trkpt>
    <trkpt lat="38.662065994" lon="34.884051969">
      <ele>1244.249</ele>
      <time>2021-10-12T14:34:18Z</time>
    </trkpt>
    <trkpt lat="38.662074041" lon="34.884077031">
      <ele>1243.748</ele>
      <time>2021-10-12T14:34:19Z</time>
    </trkpt>
    <trkpt lat="38.662079992" lon="34.884103015">
      <ele>1243.29</ele>
      <time>2021-10-12T14:34:20Z</time>
    </trkpt>
    <trkpt lat="38.662084015" lon="34.884132016">
      <ele>1242.853</ele>
      <time>2021-10-12T14:34:21Z</time>
    </trkpt>
    <trkpt lat="38.662086027" lon="34.884168981">
      <ele>1242.375</ele>
      <time>2021-10-12T14:34:22Z</time>
    </trkpt>
    <trkpt lat="38.662090972" lon="34.884205023">
      <ele>1241.627</ele>
      <time>2021-10-12T14:34:23Z</time>
    </trkpt>
    <trkpt lat="38.662099019" lon="34.884241987">
      <ele>1240.756</ele>
      <time>2021-10-12T14:34:24Z</time>
    </trkpt>
    <trkpt lat="38.662106982" lon="34.884274006">
      <ele>1239.962</ele>
      <time>2021-10-12T14:34:25Z</time>
    </trkpt>
    <trkpt lat="38.662115028" lon="34.884306025">
      <ele>1239.158</ele>
      <time>2021-10-12T14:34:26Z</time>
    </trkpt>
    <trkpt lat="38.662120979" lon="34.88433796">
      <ele>1238.422</ele>
      <time>2021-10-12T14:34:27Z</time>
    </trkpt>
    <trkpt lat="38.662127014" lon="34.884374002">
      <ele>1237.609</ele>
      <time>2021-10-12T14:34:28Z</time>
    </trkpt>
    <trkpt lat="38.662126008" lon="34.884410966">
      <ele>1237.025</ele>
      <time>2021-10-12T14:34:29Z</time>
    </trkpt>
    <trkpt lat="38.662123997" lon="34.884448014">
      <ele>1236.428</ele>
      <time>2021-10-12T14:34:30Z</time>
    </trkpt>
    <trkpt lat="38.662126008" lon="34.884489002">
      <ele>1235.119</ele>
      <time>2021-10-12T14:34:31Z</time>
    </trkpt>
    <trkpt lat="38.662130032" lon="34.884529989">
      <ele>1233.754</ele>
      <time>2021-10-12T14:34:32Z</time>
    </trkpt>
    <trkpt lat="38.662135983" lon="34.884575">
      <ele>1232.231</ele>
      <time>2021-10-12T14:34:34Z</time>
    </trkpt>
    <trkpt lat="38.662141012" lon="34.884620011">
      <ele>1230.76</ele>
      <time>2021-10-12T14:34:35Z</time>
    </trkpt>
    <trkpt lat="38.662148975" lon="34.88466301">
      <ele>1229.299</ele>
      <time>2021-10-12T14:34:36Z</time>
    </trkpt>
    <trkpt lat="38.662162973" lon="34.88470098">
      <ele>1227.88</ele>
      <time>2021-10-12T14:34:38Z</time>
    </trkpt>
    <trkpt lat="38.662180994" lon="34.884729981">
      <ele>1226.615</ele>
      <time>2021-10-12T14:34:39Z</time>
    </trkpt>
    <trkpt lat="38.66220396" lon="34.884752026">
      <ele>1225.329</ele>
      <time>2021-10-12T14:34:40Z</time>
    </trkpt>
    <trkpt lat="38.662224999" lon="34.884769963">
      <ele>1224.17</ele>
      <time>2021-10-12T14:34:41Z</time>
    </trkpt>
    <trkpt lat="38.662246037" lon="34.884785973">
      <ele>1222.775</ele>
      <time>2021-10-12T14:34:42Z</time>
    </trkpt>
    <trkpt lat="38.662275039" lon="34.88481204">
      <ele>1220.792</ele>
      <time>2021-10-12T14:34:43Z</time>
    </trkpt>
    <trkpt lat="38.662289036" lon="34.884834001">
      <ele>1219.574</ele>
      <time>2021-10-12T14:34:44Z</time>
    </trkpt>
    <trkpt lat="38.662305968" lon="34.884868031">
      <ele>1217.924</ele>
      <time>2021-10-12T14:34:45Z</time>
    </trkpt>
    <trkpt lat="38.662305968" lon="34.884902984">
      <ele>1216.856</ele>
      <time>2021-10-12T14:34:46Z</time>
    </trkpt>
    <trkpt lat="38.662304962" lon="34.884946989">
      <ele>1215.539</ele>
      <time>2021-10-12T14:34:47Z</time>
    </trkpt>
    <trkpt lat="38.662309991" lon="34.884987976">
      <ele>1214.153</ele>
      <time>2021-10-12T14:34:48Z</time>
    </trkpt>
    <trkpt lat="38.662319966" lon="34.88502603">
      <ele>1212.881</ele>
      <time>2021-10-12T14:34:50Z</time>
    </trkpt>
    <trkpt lat="38.662329018" lon="34.885047991">
      <ele>1212.099</ele>
      <time>2021-10-12T14:34:50Z</time>
    </trkpt>
    <trkpt lat="38.662349973" lon="34.885058971">
      <ele>1211.295</ele>
      <time>2021-10-12T14:34:51Z</time>
    </trkpt>
    <trkpt lat="38.662366988" lon="34.885043968">
      <ele>1211.244</ele>
      <time>2021-10-12T14:34:52Z</time>
    </trkpt>
    <trkpt lat="38.662389033" lon="34.885019995">
      <ele>1211.293</ele>
      <time>2021-10-12T14:34:53Z</time>
    </trkpt>
    <trkpt lat="38.662405964" lon="34.884997029">
      <ele>1211.441</ele>
      <time>2021-10-12T14:34:54Z</time>
    </trkpt>
    <trkpt lat="38.662429014" lon="34.884978002">
      <ele>1211.286</ele>
      <time>2021-10-12T14:34:55Z</time>
    </trkpt>
    <trkpt lat="38.662452986" lon="34.884981019">
      <ele>1210.584</ele>
      <time>2021-10-12T14:34:56Z</time>
    </trkpt>
    <trkpt lat="38.662471008" lon="34.884999963">
      <ele>1209.731</ele>
      <time>2021-10-12T14:34:57Z</time>
    </trkpt>
    <trkpt lat="38.662488023" lon="34.885032987">
      <ele>1208.471</ele>
      <time>2021-10-12T14:34:58Z</time>
    </trkpt>
    <trkpt lat="38.662503026" lon="34.885072969">
      <ele>1207.036</ele>
      <time>2021-10-12T14:34:59Z</time>
    </trkpt>
    <trkpt lat="38.662507972" lon="34.885116974">
      <ele>1205.732</ele>
      <time>2021-10-12T14:35:00Z</time>
    </trkpt>
    <trkpt lat="38.662511995" lon="34.885158967">
      <ele>1204.525</ele>
      <time>2021-10-12T14:35:02Z</time>
    </trkpt>
    <trkpt lat="38.662510989" lon="34.885199033">
      <ele>1203.566</ele>
      <time>2021-10-12T14:35:03Z</time>
    </trkpt>
    <trkpt lat="38.662509983" lon="34.88524002">
      <ele>1202.582</ele>
      <time>2021-10-12T14:35:04Z</time>
    </trkpt>
    <trkpt lat="38.662514007" lon="34.885281008">
      <ele>1201.404</ele>
      <time>2021-10-12T14:35:05Z</time>
    </trkpt>
    <trkpt lat="38.662522975" lon="34.88531596">
      <ele>1200.096</ele>
      <time>2021-10-12T14:35:06Z</time>
    </trkpt>
    <trkpt lat="38.662535967" lon="34.885343034">
      <ele>1198.887</ele>
      <time>2021-10-12T14:35:07Z</time>
    </trkpt>
    <trkpt lat="38.662550971" lon="34.885367006">
      <ele>1197.713</ele>
      <time>2021-10-12T14:35:08Z</time>
    </trkpt>
    <trkpt lat="38.662568992" lon="34.885374969">
      <ele>1196.891</ele>
      <time>2021-10-12T14:35:09Z</time>
    </trkpt>
    <trkpt lat="38.662591958" lon="34.885389972">
      <ele>1195.726</ele>
      <time>2021-10-12T14:35:10Z</time>
    </trkpt>
    <trkpt lat="38.662614003" lon="34.885410005">
      <ele>1194.478</ele>
      <time>2021-10-12T14:35:11Z</time>
    </trkpt>
    <trkpt lat="38.662632024" lon="34.88543096">
      <ele>1193.36</ele>
      <time>2021-10-12T14:35:12Z</time>
    </trkpt>
    <trkpt lat="38.662649961" lon="34.885451999">
      <ele>1192.261</ele>
      <time>2021-10-12T14:35:12Z</time>
    </trkpt>
    <trkpt lat="38.662668988" lon="34.885467002">
      <ele>1191.296</ele>
      <time>2021-10-12T14:35:13Z</time>
    </trkpt>
    <trkpt lat="38.662686003" lon="34.885475971">
      <ele>1190.551</ele>
      <time>2021-10-12T14:35:14Z</time>
    </trkpt>
    <trkpt lat="38.662720034" lon="34.885477982">
      <ele>1189.455</ele>
      <time>2021-10-12T14:35:15Z</time>
    </trkpt>
    <trkpt lat="38.662747024" lon="34.885469014">
      <ele>1188.824</ele>
      <time>2021-10-12T14:35:16Z</time>
    </trkpt>
    <trkpt lat="38.662775019" lon="34.885463985">
      <ele>1188.064</ele>
      <time>2021-10-12T14:35:17Z</time>
    </trkpt>
    <trkpt lat="38.662802009" lon="34.885463985">
      <ele>1187.571</ele>
      <time>2021-10-12T14:35:18Z</time>
    </trkpt>
    <trkpt lat="38.662825981" lon="34.885461973">
      <ele>1187.21</ele>
      <time>2021-10-12T14:35:19Z</time>
    </trkpt>
    <trkpt lat="38.662851965" lon="34.885455016">
      <ele>1186.91</ele>
      <time>2021-10-12T14:35:20Z</time>
    </trkpt>
    <trkpt lat="38.662874009" lon="34.885440012">
      <ele>1186.822</ele>
      <time>2021-10-12T14:35:21Z</time>
    </trkpt>
    <trkpt lat="38.662892031" lon="34.885417968">
      <ele>1186.919</ele>
      <time>2021-10-12T14:35:22Z</time>
    </trkpt>
    <trkpt lat="38.662913991" lon="34.88539299">
      <ele>1186.976</ele>
      <time>2021-10-12T14:35:23Z</time>
    </trkpt>
    <trkpt lat="38.662933018" lon="34.885376981">
      <ele>1186.903</ele>
      <time>2021-10-12T14:35:24Z</time>
    </trkpt>
    <trkpt lat="38.662948022" lon="34.885349991">
      <ele>1187.082</ele>
      <time>2021-10-12T14:35:25Z</time>
    </trkpt>
    <trkpt lat="38.662950033" lon="34.885319984">
      <ele>1187.556</ele>
      <time>2021-10-12T14:35:26Z</time>
    </trkpt>
    <trkpt lat="38.662965959" lon="34.885289976">
      <ele>1187.731</ele>
      <time>2021-10-12T14:35:27Z</time>
    </trkpt>
    <trkpt lat="38.662992027" lon="34.885295006">
      <ele>1187.096</ele>
      <time>2021-10-12T14:35:28Z</time>
    </trkpt>
    <trkpt lat="38.663019016" lon="34.885326019">
      <ele>1186.049</ele>
      <time>2021-10-12T14:35:29Z</time>
    </trkpt>
    <trkpt lat="38.663046006" lon="34.885362983">
      <ele>1184.958</ele>
      <time>2021-10-12T14:35:31Z</time>
    </trkpt>
    <trkpt lat="38.663079031" lon="34.885388967">
      <ele>1183.976</ele>
      <time>2021-10-12T14:35:32Z</time>
    </trkpt>
    <trkpt lat="38.663106021" lon="34.885410005">
      <ele>1183.188</ele>
      <time>2021-10-12T14:35:33Z</time>
    </trkpt>
    <trkpt lat="38.663130999" lon="34.885432972">
      <ele>1182.407</ele>
      <time>2021-10-12T14:35:34Z</time>
    </trkpt>
    <trkpt lat="38.663152037" lon="34.885459961">
      <ele>1181.64</ele>
      <time>2021-10-12T14:35:35Z</time>
    </trkpt>
    <trkpt lat="38.663169974" lon="34.885486029">
      <ele>1180.942</ele>
      <time>2021-10-12T14:35:37Z</time>
    </trkpt>
    <trkpt lat="38.663184978" lon="34.885516036">
      <ele>1180.239</ele>
      <time>2021-10-12T14:35:38Z</time>
    </trkpt>
    <trkpt lat="38.663195036" lon="34.885554006">
      <ele>1179.512</ele>
      <time>2021-10-12T14:35:39Z</time>
    </trkpt>
    <trkpt lat="38.663211968" lon="34.885591976">
      <ele>1178.546</ele>
      <time>2021-10-12T14:35:40Z</time>
    </trkpt>
    <trkpt lat="38.663228983" lon="34.88561796">
      <ele>1177.811</ele>
      <time>2021-10-12T14:35:41Z</time>
    </trkpt>
    <trkpt lat="38.663240969" lon="34.885640005">
      <ele>1177.244</ele>
      <time>2021-10-12T14:35:42Z</time>
    </trkpt>
    <trkpt lat="38.663254967" lon="34.885659032">
      <ele>1176.71</ele>
      <time>2021-10-12T14:35:42Z</time>
    </trkpt>
    <trkpt lat="38.663276006" lon="34.885681998">
      <ele>1176.023</ele>
      <time>2021-10-12T14:35:44Z</time>
    </trkpt>
    <trkpt lat="38.663297966" lon="34.885714017">
      <ele>1175.21</ele>
      <time>2021-10-12T14:35:45Z</time>
    </trkpt>
    <trkpt lat="38.663322022" lon="34.885742012">
      <ele>1174.464</ele>
      <time>2021-10-12T14:35:46Z</time>
    </trkpt>
    <trkpt lat="38.663349012" lon="34.885749975">
      <ele>1173.862</ele>
      <time>2021-10-12T14:35:47Z</time>
    </trkpt>
    <trkpt lat="38.663377007" lon="34.885744024">
      <ele>1173.343</ele>
      <time>2021-10-12T14:35:48Z</time>
    </trkpt>
    <trkpt lat="38.663409026" lon="34.885752993">
      <ele>1172.522</ele>
      <time>2021-10-12T14:35:49Z</time>
    </trkpt>
    <trkpt lat="38.66343501" lon="34.885769002">
      <ele>1171.73</ele>
      <time>2021-10-12T14:35:50Z</time>
    </trkpt>
    <trkpt lat="38.663456971" lon="34.885798004">
      <ele>1170.838</ele>
      <time>2021-10-12T14:35:51Z</time>
    </trkpt>
    <trkpt lat="38.663468035" lon="34.885829017">
      <ele>1170.153</ele>
      <time>2021-10-12T14:35:52Z</time>
    </trkpt>
    <trkpt lat="38.663478009" lon="34.885862963">
      <ele>1169.137</ele>
      <time>2021-10-12T14:35:54Z</time>
    </trkpt>
    <trkpt lat="38.663495025" lon="34.885898">
      <ele>1167.954</ele>
      <time>2021-10-12T14:35:55Z</time>
    </trkpt>
    <trkpt lat="38.663509022" lon="34.88593203">
      <ele>1166.906</ele>
      <time>2021-10-12T14:35:56Z</time>
    </trkpt>
    <trkpt lat="38.663527966" lon="34.885967989">
      <ele>1165.792</ele>
      <time>2021-10-12T14:35:57Z</time>
    </trkpt>
    <trkpt lat="38.66355001" lon="34.886005037">
      <ele>1164.685</ele>
      <time>2021-10-12T14:35:58Z</time>
    </trkpt>
    <trkpt lat="38.663564008" lon="34.886037977">
      <ele>1163.834</ele>
      <time>2021-10-12T14:36:00Z</time>
    </trkpt>
    <trkpt lat="38.663582029" lon="34.886077959">
      <ele>1162.856</ele>
      <time>2021-10-12T14:36:01Z</time>
    </trkpt>
    <trkpt lat="38.663598038" lon="34.886116013">
      <ele>1162.04</ele>
      <time>2021-10-12T14:36:02Z</time>
    </trkpt>
    <trkpt lat="38.663615976" lon="34.886149038">
      <ele>1161.52</ele>
      <time>2021-10-12T14:36:03Z</time>
    </trkpt>
    <trkpt lat="38.66363802" lon="34.886181979">
      <ele>1160.847</ele>
      <time>2021-10-12T14:36:05Z</time>
    </trkpt>
    <trkpt lat="38.663658975" lon="34.886213997">
      <ele>1160.2</ele>
      <time>2021-10-12T14:36:06Z</time>
    </trkpt>
    <trkpt lat="38.663682025" lon="34.886249034">
      <ele>1159.489</ele>
      <time>2021-10-12T14:36:07Z</time>
    </trkpt>
    <trkpt lat="38.663699962" lon="34.886291027">
      <ele>1158.777</ele>
      <time>2021-10-12T14:36:08Z</time>
    </trkpt>
    <trkpt lat="38.663715972" lon="34.886334026">
      <ele>1158.083</ele>
      <time>2021-10-12T14:36:10Z</time>
    </trkpt>
    <trkpt lat="38.663732987" lon="34.886381971">
      <ele>1157.32</ele>
      <time>2021-10-12T14:36:11Z</time>
    </trkpt>
    <trkpt lat="38.663742961" lon="34.88642497">
      <ele>1156.767</ele>
      <time>2021-10-12T14:36:13Z</time>
    </trkpt>
    <trkpt lat="38.663755031" lon="34.886467969">
      <ele>1156.231</ele>
      <time>2021-10-12T14:36:14Z</time>
    </trkpt>
    <trkpt lat="38.663750002" lon="34.886522032">
      <ele>1155.802</ele>
      <time>2021-10-12T14:36:16Z</time>
    </trkpt>
    <trkpt lat="38.663758971" lon="34.886564026">
      <ele>1155.356</ele>
      <time>2021-10-12T14:36:17Z</time>
    </trkpt>
    <trkpt lat="38.663770035" lon="34.886609958">
      <ele>1154.894</ele>
      <time>2021-10-12T14:36:18Z</time>
    </trkpt>
    <trkpt lat="38.663780009" lon="34.886647006">
      <ele>1154.546</ele>
      <time>2021-10-12T14:36:19Z</time>
    </trkpt>
    <trkpt lat="38.663795013" lon="34.886687994">
      <ele>1153.98</ele>
      <time>2021-10-12T14:36:21Z</time>
    </trkpt>
    <trkpt lat="38.663813034" lon="34.886729987">
      <ele>1153.196</ele>
      <time>2021-10-12T14:36:22Z</time>
    </trkpt>
    <trkpt lat="38.663829966" lon="34.886770975">
      <ele>1152.414</ele>
      <time>2021-10-12T14:36:23Z</time>
    </trkpt>
    <trkpt lat="38.663849998" lon="34.886809029">
      <ele>1151.649</ele>
      <time>2021-10-12T14:36:25Z</time>
    </trkpt>
    <trkpt lat="38.663870031" lon="34.886846999">
      <ele>1150.866</ele>
      <time>2021-10-12T14:36:26Z</time>
    </trkpt>
    <trkpt lat="38.663888974" lon="34.886884969">
      <ele>1150.069</ele>
      <time>2021-10-12T14:36:27Z</time>
    </trkpt>
    <trkpt lat="38.663915042" lon="34.886920005">
      <ele>1149.133</ele>
      <time>2021-10-12T14:36:29Z</time>
    </trkpt>
    <trkpt lat="38.663942032" lon="34.886951018">
      <ele>1148.336</ele>
      <time>2021-10-12T14:36:30Z</time>
    </trkpt>
    <trkpt lat="38.663970027" lon="34.886987982">
      <ele>1147.543</ele>
      <time>2021-10-12T14:36:32Z</time>
    </trkpt>
    <trkpt lat="38.663996011" lon="34.887021007">
      <ele>1146.847</ele>
      <time>2021-10-12T14:36:33Z</time>
    </trkpt>
    <trkpt lat="38.664017972" lon="34.887059983">
      <ele>1146.135</ele>
      <time>2021-10-12T14:36:34Z</time>
    </trkpt>
    <trkpt lat="38.664036999" lon="34.887098037">
      <ele>1145.484</ele>
      <time>2021-10-12T14:36:36Z</time>
    </trkpt>
    <trkpt lat="38.664056025" lon="34.887139024">
      <ele>1144.814</ele>
      <time>2021-10-12T14:36:37Z</time>
    </trkpt>
    <trkpt lat="38.664068012" lon="34.887180012">
      <ele>1144.22</ele>
      <time>2021-10-12T14:36:38Z</time>
    </trkpt>
    <trkpt lat="38.664078992" lon="34.887223011">
      <ele>1143.621</ele>
      <time>2021-10-12T14:36:40Z</time>
    </trkpt>
    <trkpt lat="38.66409299" lon="34.887270033">
      <ele>1142.888</ele>
      <time>2021-10-12T14:36:41Z</time>
    </trkpt>
    <trkpt lat="38.664107993" lon="34.887313033">
      <ele>1142.184</ele>
      <time>2021-10-12T14:36:42Z</time>
    </trkpt>
    <trkpt lat="38.664118974" lon="34.887357038">
      <ele>1141.485</ele>
      <time>2021-10-12T14:36:44Z</time>
    </trkpt>
    <trkpt lat="38.664128026" lon="34.887397019">
      <ele>1140.849</ele>
      <time>2021-10-12T14:36:45Z</time>
    </trkpt>
    <trkpt lat="38.664139006" lon="34.887435995">
      <ele>1140.197</ele>
      <time>2021-10-12T14:36:46Z</time>
    </trkpt>
    <trkpt lat="38.664149987" lon="34.887483018">
      <ele>1139.421</ele>
      <time>2021-10-12T14:36:48Z</time>
    </trkpt>
    <trkpt lat="38.664159961" lon="34.887530962">
      <ele>1139.064</ele>
      <time>2021-10-12T14:36:49Z</time>
    </trkpt>
    <trkpt lat="38.664168008" lon="34.887581002">
      <ele>1138.981</ele>
      <time>2021-10-12T14:36:51Z</time>
    </trkpt>
    <trkpt lat="38.664173959" lon="34.887626013">
      <ele>1138.886</ele>
      <time>2021-10-12T14:36:52Z</time>
    </trkpt>
    <trkpt lat="38.664177982" lon="34.887671024">
      <ele>1138.803</ele>
      <time>2021-10-12T14:36:53Z</time>
    </trkpt>
    <trkpt lat="38.664177982" lon="34.88771704">
      <ele>1138.782</ele>
      <time>2021-10-12T14:36:55Z</time>
    </trkpt>
    <trkpt lat="38.664172031" lon="34.887763979">
      <ele>1138.887</ele>
      <time>2021-10-12T14:36:56Z</time>
    </trkpt>
    <trkpt lat="38.664163984" lon="34.887809996">
      <ele>1138.884</ele>
      <time>2021-10-12T14:36:57Z</time>
    </trkpt>
    <trkpt lat="38.664162979" lon="34.887848971">
      <ele>1138.744</ele>
      <time>2021-10-12T14:36:58Z</time>
    </trkpt>
    <trkpt lat="38.664159039" lon="34.887891971">
      <ele>1138.589</ele>
      <time>2021-10-12T14:37:00Z</time>
    </trkpt>
    <trkpt lat="38.664155016" lon="34.887932036">
      <ele>1138.445</ele>
      <time>2021-10-12T14:37:01Z</time>
    </trkpt>
    <trkpt lat="38.664153004" lon="34.887974029">
      <ele>1138.293</ele>
      <time>2021-10-12T14:37:02Z</time>
    </trkpt>
    <trkpt lat="38.664149987" lon="34.888018034">
      <ele>1138.135</ele>
      <time>2021-10-12T14:37:03Z</time>
    </trkpt>
    <trkpt lat="38.664146969" lon="34.888059022">
      <ele>1137.998</ele>
      <time>2021-10-12T14:37:05Z</time>
    </trkpt>
    <trkpt lat="38.66414303" lon="34.888104033">
      <ele>1137.97</ele>
      <time>2021-10-12T14:37:06Z</time>
    </trkpt>
    <trkpt lat="38.664140012" lon="34.88814896">
      <ele>1137.935</ele>
      <time>2021-10-12T14:37:07Z</time>
    </trkpt>
    <trkpt lat="38.664141018" lon="34.888185002">
      <ele>1137.914</ele>
      <time>2021-10-12T14:37:08Z</time>
    </trkpt>
    <trkpt lat="38.664141018" lon="34.888223978">
      <ele>1137.888</ele>
      <time>2021-10-12T14:37:09Z</time>
    </trkpt>
    <trkpt lat="38.664144035" lon="34.888262032">
      <ele>1137.879</ele>
      <time>2021-10-12T14:37:10Z</time>
    </trkpt>
    <trkpt lat="38.664151998" lon="34.888301007">
      <ele>1137.907</ele>
      <time>2021-10-12T14:37:12Z</time>
    </trkpt>
    <trkpt lat="38.664158033" lon="34.88834803">
      <ele>1137.885</ele>
      <time>2021-10-12T14:37:13Z</time>
    </trkpt>
    <trkpt lat="38.664161973" lon="34.888393041">
      <ele>1137.751</ele>
      <time>2021-10-12T14:37:14Z</time>
    </trkpt>
    <trkpt lat="38.664162979" lon="34.888435034">
      <ele>1137.607</ele>
      <time>2021-10-12T14:37:16Z</time>
    </trkpt>
    <trkpt lat="38.664155016" lon="34.888490019">
      <ele>1137.352</ele>
      <time>2021-10-12T14:37:17Z</time>
    </trkpt>
    <trkpt lat="38.66413096" lon="34.888541987">
      <ele>1136.992</ele>
      <time>2021-10-12T14:37:19Z</time>
    </trkpt>
    <trkpt lat="38.664101958" lon="34.888586998">
      <ele>1136.621</ele>
      <time>2021-10-12T14:37:21Z</time>
    </trkpt>
    <trkpt lat="38.66407698" lon="34.888625974">
      <ele>1136.425</ele>
      <time>2021-10-12T14:37:22Z</time>
    </trkpt>
    <trkpt lat="38.664053008" lon="34.888662016">
      <ele>1136.44</ele>
      <time>2021-10-12T14:37:23Z</time>
    </trkpt>
    <trkpt lat="38.664036999" lon="34.88869898">
      <ele>1136.53</ele>
      <time>2021-10-12T14:37:25Z</time>
    </trkpt>
    <trkpt lat="38.664027024" lon="34.888738962">
      <ele>1136.686</ele>
      <time>2021-10-12T14:37:26Z</time>
    </trkpt>
    <trkpt lat="38.664018977" lon="34.888789002">
      <ele>1136.918</ele>
      <time>2021-10-12T14:37:27Z</time>
    </trkpt>
    <trkpt lat="38.66401596" lon="34.88884097">
      <ele>1137.191</ele>
      <time>2021-10-12T14:37:29Z</time>
    </trkpt>
    <trkpt lat="38.664020989" lon="34.888887992">
      <ele>1137.471</ele>
      <time>2021-10-12T14:37:30Z</time>
    </trkpt>
    <trkpt lat="38.664030042" lon="34.888935015">
      <ele>1137.342</ele>
      <time>2021-10-12T14:37:32Z</time>
    </trkpt>
    <trkpt lat="38.664045967" lon="34.888981031">
      <ele>1137.234</ele>
      <time>2021-10-12T14:37:33Z</time>
    </trkpt>
    <trkpt lat="38.664056025" lon="34.889025036">
      <ele>1137.112</ele>
      <time>2021-10-12T14:37:34Z</time>
    </trkpt>
    <trkpt lat="38.664067006" lon="34.889069963">
      <ele>1136.989</ele>
      <time>2021-10-12T14:37:36Z</time>
    </trkpt>
    <trkpt lat="38.66407698" lon="34.889117992">
      <ele>1136.852</ele>
      <time>2021-10-12T14:37:37Z</time>
    </trkpt>
    <trkpt lat="38.664089972" lon="34.889164008">
      <ele>1136.733</ele>
      <time>2021-10-12T14:37:39Z</time>
    </trkpt>
    <trkpt lat="38.664096007" lon="34.889211031">
      <ele>1136.107</ele>
      <time>2021-10-12T14:37:40Z</time>
    </trkpt>
    <trkpt lat="38.664101036" lon="34.88925403">
      <ele>1135.506</ele>
      <time>2021-10-12T14:37:41Z</time>
    </trkpt>
    <trkpt lat="38.664110005" lon="34.889292">
      <ele>1134.991</ele>
      <time>2021-10-12T14:37:42Z</time>
    </trkpt>
    <trkpt lat="38.664120985" lon="34.88932603">
      <ele>1134.541</ele>
      <time>2021-10-12T14:37:44Z</time>
    </trkpt>
    <trkpt lat="38.664129032" lon="34.889351008">
      <ele>1134.21</ele>
      <time>2021-10-12T14:37:44Z</time>
    </trkpt>
    <trkpt lat="38.664146969" lon="34.889360983">
      <ele>1134.131</ele>
      <time>2021-10-12T14:37:45Z</time>
    </trkpt>
    <trkpt lat="38.664177982" lon="34.889371963">
      <ele>1133.851</ele>
      <time>2021-10-12T14:37:46Z</time>
    </trkpt>
    <trkpt lat="38.664200027" lon="34.889367018">
      <ele>1133.548</ele>
      <time>2021-10-12T14:37:47Z</time>
    </trkpt>
    <trkpt lat="38.664220981" lon="34.88934204">
      <ele>1133.569</ele>
      <time>2021-10-12T14:37:48Z</time>
    </trkpt>
    <trkpt lat="38.664216036" lon="34.889315972">
      <ele>1134.044</ele>
      <time>2021-10-12T14:37:49Z</time>
    </trkpt>
    <trkpt lat="38.664202038" lon="34.889331982">
      <ele>1134.034</ele>
      <time>2021-10-12T14:37:50Z</time>
    </trkpt>
    <trkpt lat="38.664190974" lon="34.889351008">
      <ele>1133.937</ele>
      <time>2021-10-12T14:37:50Z</time>
    </trkpt>
    <trkpt lat="38.664174965" lon="34.889371041">
      <ele>1133.916</ele>
      <time>2021-10-12T14:37:51Z</time>
    </trkpt>
    <trkpt lat="38.664156022" lon="34.889398031">
      <ele>1133.63</ele>
      <time>2021-10-12T14:37:52Z</time>
    </trkpt>
    <trkpt lat="38.664130038" lon="34.889429966">
      <ele>1133.077</ele>
      <time>2021-10-12T14:37:53Z</time>
    </trkpt>
    <trkpt lat="38.664105982" lon="34.889461985">
      <ele>1132.493</ele>
      <time>2021-10-12T14:37:55Z</time>
    </trkpt>
    <trkpt lat="38.664081004" lon="34.889499033">
      <ele>1131.83</ele>
      <time>2021-10-12T14:37:56Z</time>
    </trkpt>
    <trkpt lat="38.66405502" lon="34.889538009">
      <ele>1131.185</ele>
      <time>2021-10-12T14:37:58Z</time>
    </trkpt>
    <trkpt lat="38.664030964" lon="34.889575979">
      <ele>1130.607</ele>
      <time>2021-10-12T14:37:59Z</time>
    </trkpt>
    <trkpt lat="38.664011015" lon="34.889616966">
      <ele>1130.03</ele>
      <time>2021-10-12T14:38:00Z</time>
    </trkpt>
    <trkpt lat="38.663995005" lon="34.889656026">
      <ele>1129.515</ele>
      <time>2021-10-12T14:38:02Z</time>
    </trkpt>
    <trkpt lat="38.663985031" lon="34.889696008">
      <ele>1129.002</ele>
      <time>2021-10-12T14:38:03Z</time>
    </trkpt>
    <trkpt lat="38.663971033" lon="34.889739007">
      <ele>1128.583</ele>
      <time>2021-10-12T14:38:04Z</time>
    </trkpt>
    <trkpt lat="38.663952006" lon="34.889775971">
      <ele>1128.386</ele>
      <time>2021-10-12T14:38:06Z</time>
    </trkpt>
    <trkpt lat="38.663934991" lon="34.88980799">
      <ele>1128.217</ele>
      <time>2021-10-12T14:38:07Z</time>
    </trkpt>
    <trkpt lat="38.663923005" lon="34.88983104">
      <ele>1128.094</ele>
      <time>2021-10-12T14:38:08Z</time>
    </trkpt>
    <trkpt lat="38.663896015" lon="34.889865993">
      <ele>1127.939</ele>
      <time>2021-10-12T14:38:09Z</time>
    </trkpt>
    <trkpt lat="38.663882017" lon="34.889888959">
      <ele>1127.73</ele>
      <time>2021-10-12T14:38:10Z</time>
    </trkpt>
    <trkpt lat="38.663868019" lon="34.889917038">
      <ele>1127.402</ele>
      <time>2021-10-12T14:38:11Z</time>
    </trkpt>
    <trkpt lat="38.663843963" lon="34.889945034">
      <ele>1127.008</ele>
      <time>2021-10-12T14:38:12Z</time>
    </trkpt>
    <trkpt lat="38.663822003" lon="34.889971018">
      <ele>1126.677</ele>
      <time>2021-10-12T14:38:13Z</time>
    </trkpt>
    <trkpt lat="38.66380197" lon="34.889993984">
      <ele>1126.404</ele>
      <time>2021-10-12T14:38:14Z</time>
    </trkpt>
    <trkpt lat="38.663781015" lon="34.89001804">
      <ele>1126.093</ele>
      <time>2021-10-12T14:38:15Z</time>
    </trkpt>
    <trkpt lat="38.663762994" lon="34.890042013">
      <ele>1125.791</ele>
      <time>2021-10-12T14:38:16Z</time>
    </trkpt>
    <trkpt lat="38.663748996" lon="34.890063973">
      <ele>1125.532</ele>
      <time>2021-10-12T14:38:17Z</time>
    </trkpt>
    <trkpt lat="38.663731981" lon="34.890088029">
      <ele>1125.236</ele>
      <time>2021-10-12T14:38:18Z</time>
    </trkpt>
    <trkpt lat="38.663712032" lon="34.890116025">
      <ele>1124.891</ele>
      <time>2021-10-12T14:38:19Z</time>
    </trkpt>
    <trkpt lat="38.663695017" lon="34.890139997">
      <ele>1124.596</ele>
      <time>2021-10-12T14:38:20Z</time>
    </trkpt>
    <trkpt lat="38.663670961" lon="34.890163969">
      <ele>1124.25</ele>
      <time>2021-10-12T14:38:21Z</time>
    </trkpt>
    <trkpt lat="38.663646989" lon="34.890178973">
      <ele>1123.97</ele>
      <time>2021-10-12T14:38:22Z</time>
    </trkpt>
    <trkpt lat="38.663619999" lon="34.890187019">
      <ele>1123.717</ele>
      <time>2021-10-12T14:38:23Z</time>
    </trkpt>
    <trkpt lat="38.663590997" lon="34.89018199">
      <ele>1123.425</ele>
      <time>2021-10-12T14:38:24Z</time>
    </trkpt>
    <trkpt lat="38.663561996" lon="34.890176039">
      <ele>1123.09</ele>
      <time>2021-10-12T14:38:25Z</time>
    </trkpt>
    <trkpt lat="38.663529977" lon="34.890165981">
      <ele>1122.754</ele>
      <time>2021-10-12T14:38:26Z</time>
    </trkpt>
    <trkpt lat="38.663498964" lon="34.890157012">
      <ele>1122.43</ele>
      <time>2021-10-12T14:38:28Z</time>
    </trkpt>
    <trkpt lat="38.663465017" lon="34.890139997">
      <ele>1122.149</ele>
      <time>2021-10-12T14:38:29Z</time>
    </trkpt>
    <trkpt lat="38.663431993" lon="34.890112001">
      <ele>1121.999</ele>
      <time>2021-10-12T14:38:30Z</time>
    </trkpt>
    <trkpt lat="38.663407015" lon="34.890075959">
      <ele>1122.048</ele>
      <time>2021-10-12T14:38:32Z</time>
    </trkpt>
    <trkpt lat="38.663393017" lon="34.890030026">
      <ele>1122.344</ele>
      <time>2021-10-12T14:38:33Z</time>
    </trkpt>
    <trkpt lat="38.663385976" lon="34.88998401">
      <ele>1122.615</ele>
      <time>2021-10-12T14:38:35Z</time>
    </trkpt>
    <trkpt lat="38.663386982" lon="34.889931036">
      <ele>1122.78</ele>
      <time>2021-10-12T14:38:36Z</time>
    </trkpt>
    <trkpt lat="38.66338497" lon="34.889888037">
      <ele>1122.886</ele>
      <time>2021-10-12T14:38:37Z</time>
    </trkpt>
    <trkpt lat="38.66337399" lon="34.889856018">
      <ele>1122.882</ele>
      <time>2021-10-12T14:38:38Z</time>
    </trkpt>
    <trkpt lat="38.663350018" lon="34.889840009">
      <ele>1122.722</ele>
      <time>2021-10-12T14:38:39Z</time>
    </trkpt>
    <trkpt lat="38.663324034" lon="34.889839003">
      <ele>1122.513</ele>
      <time>2021-10-12T14:38:40Z</time>
    </trkpt>
    <trkpt lat="38.663293021" lon="34.889835985">
      <ele>1122.3</ele>
      <time>2021-10-12T14:38:42Z</time>
    </trkpt>
    <trkpt lat="38.663266031" lon="34.889831962">
      <ele>1122.12</ele>
      <time>2021-10-12T14:38:43Z</time>
    </trkpt>
    <trkpt lat="38.663239963" lon="34.889831962">
      <ele>1121.933</ele>
      <time>2021-10-12T14:38:43Z</time>
    </trkpt>
    <trkpt lat="38.663212974" lon="34.889828023">
      <ele>1121.753</ele>
      <time>2021-10-12T14:38:44Z</time>
    </trkpt>
    <trkpt lat="38.663184978" lon="34.889813019">
      <ele>1121.605</ele>
      <time>2021-10-12T14:38:46Z</time>
    </trkpt>
    <trkpt lat="38.663153965" lon="34.889803967">
      <ele>1121.414</ele>
      <time>2021-10-12T14:38:47Z</time>
    </trkpt>
    <trkpt lat="38.663126975" lon="34.889796004">
      <ele>1121.249</ele>
      <time>2021-10-12T14:38:48Z</time>
    </trkpt>
    <trkpt lat="38.663103003" lon="34.889804972">
      <ele>1121.044</ele>
      <time>2021-10-12T14:38:49Z</time>
    </trkpt>
    <trkpt lat="38.663077019" lon="34.889827017">
      <ele>1120.777</ele>
      <time>2021-10-12T14:38:50Z</time>
    </trkpt>
    <trkpt lat="38.663051035" lon="34.889862975">
      <ele>1120.493</ele>
      <time>2021-10-12T14:38:51Z</time>
    </trkpt>
    <trkpt lat="38.663026979" lon="34.889891976">
      <ele>1120.389</ele>
      <time>2021-10-12T14:38:53Z</time>
    </trkpt>
    <trkpt lat="38.662998984" lon="34.889917038">
      <ele>1120.299</ele>
      <time>2021-10-12T14:38:54Z</time>
    </trkpt>
    <trkpt lat="38.662967971" lon="34.889937993">
      <ele>1120.223</ele>
      <time>2021-10-12T14:38:55Z</time>
    </trkpt>
    <trkpt lat="38.662942993" lon="34.889959032">
      <ele>1120.147</ele>
      <time>2021-10-12T14:38:56Z</time>
    </trkpt>
    <trkpt lat="38.662925977" lon="34.889986021">
      <ele>1120.05</ele>
      <time>2021-10-12T14:38:57Z</time>
    </trkpt>
    <trkpt lat="38.66291902" lon="34.890017034">
      <ele>1119.907</ele>
      <time>2021-10-12T14:38:58Z</time>
    </trkpt>
    <trkpt lat="38.662918014" lon="34.890049975">
      <ele>1119.729</ele>
      <time>2021-10-12T14:38:59Z</time>
    </trkpt>
    <trkpt lat="38.662914997" lon="34.890075037">
      <ele>1119.596</ele>
      <time>2021-10-12T14:39:00Z</time>
    </trkpt>
    <trkpt lat="38.662914997" lon="34.890102027">
      <ele>1119.451</ele>
      <time>2021-10-12T14:39:01Z</time>
    </trkpt>
    <trkpt lat="38.662916003" lon="34.890133962">
      <ele>1119.278</ele>
      <time>2021-10-12T14:39:02Z</time>
    </trkpt>
    <trkpt lat="38.662918014" lon="34.890163969">
      <ele>1119.112</ele>
      <time>2021-10-12T14:39:02Z</time>
    </trkpt>
    <trkpt lat="38.662918014" lon="34.890194982">
      <ele>1118.944</ele>
      <time>2021-10-12T14:39:03Z</time>
    </trkpt>
    <trkpt lat="38.662913991" lon="34.890236976">
      <ele>1118.729</ele>
      <time>2021-10-12T14:39:05Z</time>
    </trkpt>
    <trkpt lat="38.662913991" lon="34.890277963">
      <ele>1118.508</ele>
      <time>2021-10-12T14:39:06Z</time>
    </trkpt>
    <trkpt lat="38.662907034" lon="34.890318029">
      <ele>1118.177</ele>
      <time>2021-10-12T14:39:07Z</time>
    </trkpt>
    <trkpt lat="38.662898988" lon="34.890357004">
      <ele>1117.869</ele>
      <time>2021-10-12T14:39:08Z</time>
    </trkpt>
    <trkpt lat="38.66289597" lon="34.890388018">
      <ele>1117.612</ele>
      <time>2021-10-12T14:39:09Z</time>
    </trkpt>
    <trkpt lat="38.662893036" lon="34.890415007">
      <ele>1117.392</ele>
      <time>2021-10-12T14:39:10Z</time>
    </trkpt>
    <trkpt lat="38.662889013" lon="34.890444009">
      <ele>1117.163</ele>
      <time>2021-10-12T14:39:11Z</time>
    </trkpt>
    <trkpt lat="38.662881972" lon="34.890472004">
      <ele>1116.964</ele>
      <time>2021-10-12T14:39:11Z</time>
    </trkpt>
    <trkpt lat="38.662869986" lon="34.890502011">
      <ele>1116.786</ele>
      <time>2021-10-12T14:39:12Z</time>
    </trkpt>
    <trkpt lat="38.662850037" lon="34.890525984">
      <ele>1116.72</ele>
      <time>2021-10-12T14:39:13Z</time>
    </trkpt>
    <trkpt lat="38.662832016" lon="34.890547022">
      <ele>1116.677</ele>
      <time>2021-10-12T14:39:14Z</time>
    </trkpt>
    <trkpt lat="38.662816007" lon="34.890573006">
      <ele>1116.608</ele>
      <time>2021-10-12T14:39:15Z</time>
    </trkpt>
    <trkpt lat="38.662799997" lon="34.890593039">
      <ele>1116.581</ele>
      <time>2021-10-12T14:39:16Z</time>
    </trkpt>
    <trkpt lat="38.662784994" lon="34.890618017">
      <ele>1116.504</ele>
      <time>2021-10-12T14:39:17Z</time>
    </trkpt>
    <trkpt lat="38.662770996" lon="34.890644001">
      <ele>1116.371</ele>
      <time>2021-10-12T14:39:18Z</time>
    </trkpt>
    <trkpt lat="38.662755992" lon="34.890674008">
      <ele>1116.181</ele>
      <time>2021-10-12T14:39:19Z</time>
    </trkpt>
    <trkpt lat="38.662741994" lon="34.890706027">
      <ele>1115.986</ele>
      <time>2021-10-12T14:39:20Z</time>
    </trkpt>
    <trkpt lat="38.662729003" lon="34.890740979">
      <ele>1115.782</ele>
      <time>2021-10-12T14:39:21Z</time>
    </trkpt>
    <trkpt lat="38.662711987" lon="34.890780039">
      <ele>1115.575</ele>
      <time>2021-10-12T14:39:23Z</time>
    </trkpt>
    <trkpt lat="38.662695978" lon="34.890814992">
      <ele>1115.407</ele>
      <time>2021-10-12T14:39:24Z</time>
    </trkpt>
    <trkpt lat="38.662682986" lon="34.890853968">
      <ele>1115.341</ele>
      <time>2021-10-12T14:39:25Z</time>
    </trkpt>
    <trkpt lat="38.662677035" lon="34.890892021">
      <ele>1115.363</ele>
      <time>2021-10-12T14:39:26Z</time>
    </trkpt>
    <trkpt lat="38.662679968" lon="34.890930997">
      <ele>1115.352</ele>
      <time>2021-10-12T14:39:27Z</time>
    </trkpt>
    <trkpt lat="38.662691033" lon="34.890970979">
      <ele>1115.312</ele>
      <time>2021-10-12T14:39:28Z</time>
    </trkpt>
    <trkpt lat="38.662704024" lon="34.891007021">
      <ele>1115.266</ele>
      <time>2021-10-12T14:39:30Z</time>
    </trkpt>
    <trkpt lat="38.662717016" lon="34.891040968">
      <ele>1115.219</ele>
      <time>2021-10-12T14:39:31Z</time>
    </trkpt>
    <trkpt lat="38.662726991" lon="34.891074998">
      <ele>1115.183</ele>
      <time>2021-10-12T14:39:32Z</time>
    </trkpt>
    <trkpt lat="38.662735038" lon="34.891105006">
      <ele>1115.154</ele>
      <time>2021-10-12T14:39:33Z</time>
    </trkpt>
    <trkpt lat="38.662735038" lon="34.89113803">
      <ele>1115.057</ele>
      <time>2021-10-12T14:39:34Z</time>
    </trkpt>
    <trkpt lat="38.66273202" lon="34.891176">
      <ele>1114.931</ele>
      <time>2021-10-12T14:39:35Z</time>
    </trkpt>
    <trkpt lat="38.662725985" lon="34.891211037">
      <ele>1114.827</ele>
      <time>2021-10-12T14:39:36Z</time>
    </trkpt>
    <trkpt lat="38.662715005" lon="34.891250012">
      <ele>1114.726</ele>
      <time>2021-10-12T14:39:37Z</time>
    </trkpt>
    <trkpt lat="38.662701007" lon="34.891288988">
      <ele>1114.636</ele>
      <time>2021-10-12T14:39:38Z</time>
    </trkpt>
    <trkpt lat="38.662689021" lon="34.891326958">
      <ele>1114.542</ele>
      <time>2021-10-12T14:39:39Z</time>
    </trkpt>
    <trkpt lat="38.662675023" lon="34.891363">
      <ele>1114.463</ele>
      <time>2021-10-12T14:39:41Z</time>
    </trkpt>
    <trkpt lat="38.662665971" lon="34.891399965">
      <ele>1114.323</ele>
      <time>2021-10-12T14:39:42Z</time>
    </trkpt>
    <trkpt lat="38.662662031" lon="34.891438019">
      <ele>1114.063</ele>
      <time>2021-10-12T14:39:43Z</time>
    </trkpt>
    <trkpt lat="38.662657002" lon="34.891480012">
      <ele>1113.779</ele>
      <time>2021-10-12T14:39:44Z</time>
    </trkpt>
    <trkpt lat="38.662649961" lon="34.891528962">
      <ele>1113.452</ele>
      <time>2021-10-12T14:39:45Z</time>
    </trkpt>
    <trkpt lat="38.662648033" lon="34.891573973">
      <ele>1113.134</ele>
      <time>2021-10-12T14:39:47Z</time>
    </trkpt>
    <trkpt lat="38.662645016" lon="34.891615966">
      <ele>1112.843</ele>
      <time>2021-10-12T14:39:48Z</time>
    </trkpt>
    <trkpt lat="38.662645016" lon="34.891662989">
      <ele>1112.504</ele>
      <time>2021-10-12T14:39:49Z</time>
    </trkpt>
    <trkpt lat="38.662640993" lon="34.89171504">
      <ele>1112.144</ele>
      <time>2021-10-12T14:39:51Z</time>
    </trkpt>
    <trkpt lat="38.662638981" lon="34.891761979">
      <ele>1111.813</ele>
      <time>2021-10-12T14:39:52Z</time>
    </trkpt>
    <trkpt lat="38.662636969" lon="34.891807996">
      <ele>1111.489</ele>
      <time>2021-10-12T14:39:54Z</time>
    </trkpt>
    <trkpt lat="38.66263303" lon="34.891850995">
      <ele>1111.194</ele>
      <time>2021-10-12T14:39:55Z</time>
    </trkpt>
    <trkpt lat="38.662629006" lon="34.891891982">
      <ele>1110.913</ele>
      <time>2021-10-12T14:39:56Z</time>
    </trkpt>
    <trkpt lat="38.662622971" lon="34.891931964">
      <ele>1110.647</ele>
      <time>2021-10-12T14:39:57Z</time>
    </trkpt>
    <trkpt lat="38.662610985" lon="34.891967">
      <ele>1110.487</ele>
      <time>2021-10-12T14:39:58Z</time>
    </trkpt>
    <trkpt lat="38.66259397" lon="34.891996002">
      <ele>1110.413</ele>
      <time>2021-10-12T14:39:59Z</time>
    </trkpt>
    <trkpt lat="38.66256698" lon="34.892007988">
      <ele>1110.475</ele>
      <time>2021-10-12T14:40:00Z</time>
    </trkpt>
    <trkpt lat="38.662535967" lon="34.892000025">
      <ele>1110.645</ele>
      <time>2021-10-12T14:40:02Z</time>
    </trkpt>
    <trkpt lat="38.662516018" lon="34.891962977">
      <ele>1110.872</ele>
      <time>2021-10-12T14:40:03Z</time>
    </trkpt>
    <trkpt lat="38.662496991" lon="34.891911009">
      <ele>1111.239</ele>
      <time>2021-10-12T14:40:05Z</time>
    </trkpt>
    <trkpt lat="38.662480982" lon="34.89186801">
      <ele>1111.531</ele>
      <time>2021-10-12T14:40:06Z</time>
    </trkpt>
    <trkpt lat="38.662460027" lon="34.89183004">
      <ele>1111.764</ele>
      <time>2021-10-12T14:40:07Z</time>
    </trkpt>
    <trkpt lat="38.662434965" lon="34.891801039">
      <ele>1111.912</ele>
      <time>2021-10-12T14:40:09Z</time>
    </trkpt>
    <trkpt lat="38.662405964" lon="34.891773965">
      <ele>1112.02</ele>
      <time>2021-10-12T14:40:10Z</time>
    </trkpt>
    <trkpt lat="38.662377968" lon="34.891754016">
      <ele>1112.07</ele>
      <time>2021-10-12T14:40:11Z</time>
    </trkpt>
    <trkpt lat="38.662343016" lon="34.891744042">
      <ele>1112.035</ele>
      <time>2021-10-12T14:40:12Z</time>
    </trkpt>
    <trkpt lat="38.66230798" lon="34.891740019">
      <ele>1111.963</ele>
      <time>2021-10-12T14:40:14Z</time>
    </trkpt>
    <trkpt lat="38.66227001" lon="34.891733984">
      <ele>1111.888</ele>
      <time>2021-10-12T14:40:15Z</time>
    </trkpt>
    <trkpt lat="38.662232039" lon="34.89171898">
      <ele>1111.84</ele>
      <time>2021-10-12T14:40:17Z</time>
    </trkpt>
    <trkpt lat="38.662189962" lon="34.891704982">
      <ele>1111.746</ele>
      <time>2021-10-12T14:40:18Z</time>
    </trkpt>
    <trkpt lat="38.662148975" lon="34.891686961">
      <ele>1111.663</ele>
      <time>2021-10-12T14:40:20Z</time>
    </trkpt>
    <trkpt lat="38.662108993" lon="34.891669024">
      <ele>1111.584</ele>
      <time>2021-10-12T14:40:21Z</time>
    </trkpt>
    <trkpt lat="38.662067" lon="34.891657038">
      <ele>1111.491</ele>
      <time>2021-10-12T14:40:23Z</time>
    </trkpt>
    <trkpt lat="38.66202903" lon="34.891647985">
      <ele>1111.392</ele>
      <time>2021-10-12T14:40:24Z</time>
    </trkpt>
    <trkpt lat="38.661993993" lon="34.891647985">
      <ele>1111.258</ele>
      <time>2021-10-12T14:40:26Z</time>
    </trkpt>
    <trkpt lat="38.661960969" lon="34.89167003">
      <ele>1111.047</ele>
      <time>2021-10-12T14:40:27Z</time>
    </trkpt>
    <trkpt lat="38.661934985" lon="34.891692996">
      <ele>1110.902</ele>
      <time>2021-10-12T14:40:28Z</time>
    </trkpt>
    <trkpt lat="38.661916042" lon="34.891715962">
      <ele>1110.804</ele>
      <time>2021-10-12T14:40:29Z</time>
    </trkpt>
    <trkpt lat="38.661899026" lon="34.891747981">
      <ele>1110.659</ele>
      <time>2021-10-12T14:40:30Z</time>
    </trkpt>
    <trkpt lat="38.661884023" lon="34.891782012">
      <ele>1110.494</ele>
      <time>2021-10-12T14:40:31Z</time>
    </trkpt>
    <trkpt lat="38.661867008" lon="34.891820988">
      <ele>1110.29</ele>
      <time>2021-10-12T14:40:33Z</time>
    </trkpt>
    <trkpt lat="38.661852004" lon="34.891863987">
      <ele>1110.053</ele>
      <time>2021-10-12T14:40:34Z</time>
    </trkpt>
    <trkpt lat="38.661830965" lon="34.891910003">
      <ele>1109.766</ele>
      <time>2021-10-12T14:40:36Z</time>
    </trkpt>
    <trkpt lat="38.661811017" lon="34.891949985">
      <ele>1109.5</ele>
      <time>2021-10-12T14:40:37Z</time>
    </trkpt>
    <trkpt lat="38.66178696" lon="34.891989967">
      <ele>1109.269</ele>
      <time>2021-10-12T14:40:38Z</time>
    </trkpt>
    <trkpt lat="38.661758965" lon="34.892025003">
      <ele>1109.042</ele>
      <time>2021-10-12T14:40:40Z</time>
    </trkpt>
    <trkpt lat="38.661729963" lon="34.892051993">
      <ele>1108.841</ele>
      <time>2021-10-12T14:40:41Z</time>
    </trkpt>
    <trkpt lat="38.661691993" lon="34.892074037">
      <ele>1108.625</ele>
      <time>2021-10-12T14:40:43Z</time>
    </trkpt>
    <trkpt lat="38.661657041" lon="34.892091975">
      <ele>1108.52</ele>
      <time>2021-10-12T14:40:44Z</time>
    </trkpt>
    <trkpt lat="38.661627034" lon="34.892114019">
      <ele>1108.588</ele>
      <time>2021-10-12T14:40:45Z</time>
    </trkpt>
    <trkpt lat="38.661599038" lon="34.892136985">
      <ele>1108.625</ele>
      <time>2021-10-12T14:40:47Z</time>
    </trkpt>
    <trkpt lat="38.66157297" lon="34.89215903">
      <ele>1108.642</ele>
      <time>2021-10-12T14:40:48Z</time>
    </trkpt>
    <trkpt lat="38.661544975" lon="34.892187025">
      <ele>1108.62</ele>
      <time>2021-10-12T14:40:49Z</time>
    </trkpt>
    <trkpt lat="38.661518991" lon="34.892212003">
      <ele>1108.588</ele>
      <time>2021-10-12T14:40:50Z</time>
    </trkpt>
    <trkpt lat="38.661488984" lon="34.892237987">
      <ele>1108.619</ele>
      <time>2021-10-12T14:40:52Z</time>
    </trkpt>
    <trkpt lat="38.661459982" lon="34.892257014">
      <ele>1108.712</ele>
      <time>2021-10-12T14:40:53Z</time>
    </trkpt>
    <trkpt lat="38.661432993" lon="34.89227403">
      <ele>1108.812</ele>
      <time>2021-10-12T14:40:54Z</time>
    </trkpt>
    <trkpt lat="38.661406003" lon="34.892290039">
      <ele>1108.923</ele>
      <time>2021-10-12T14:40:55Z</time>
    </trkpt>
    <trkpt lat="38.661382031" lon="34.892307976">
      <ele>1109.066</ele>
      <time>2021-10-12T14:40:56Z</time>
    </trkpt>
    <trkpt lat="38.661361998" lon="34.892324992">
      <ele>1109.255</ele>
      <time>2021-10-12T14:40:57Z</time>
    </trkpt>
    <trkpt lat="38.661348" lon="34.892345024">
      <ele>1109.377</ele>
      <time>2021-10-12T14:40:58Z</time>
    </trkpt>
    <trkpt lat="38.661330985" lon="34.892367991">
      <ele>1109.516</ele>
      <time>2021-10-12T14:40:59Z</time>
    </trkpt>
    <trkpt lat="38.661317993" lon="34.892395986">
      <ele>1109.606</ele>
      <time>2021-10-12T14:41:00Z</time>
    </trkpt>
    <trkpt lat="38.661305001" lon="34.892422976">
      <ele>1109.688</ele>
      <time>2021-10-12T14:41:01Z</time>
    </trkpt>
    <trkpt lat="38.661293015" lon="34.89244896">
      <ele>1109.754</ele>
      <time>2021-10-12T14:41:02Z</time>
    </trkpt>
    <trkpt lat="38.661280023" lon="34.892476033">
      <ele>1109.818</ele>
      <time>2021-10-12T14:41:02Z</time>
    </trkpt>
    <trkpt lat="38.661266025" lon="34.892497994">
      <ele>1109.888</ele>
      <time>2021-10-12T14:41:03Z</time>
    </trkpt>
    <trkpt lat="38.661245992" lon="34.892519033">
      <ele>1109.892</ele>
      <time>2021-10-12T14:41:04Z</time>
    </trkpt>
    <trkpt lat="38.661223026" lon="34.892545016">
      <ele>1109.87</ele>
      <time>2021-10-12T14:41:05Z</time>
    </trkpt>
    <trkpt lat="38.661199976" lon="34.892563038">
      <ele>1109.906</ele>
      <time>2021-10-12T14:41:06Z</time>
    </trkpt>
    <trkpt lat="38.661172986" lon="34.892580975">
      <ele>1109.971</ele>
      <time>2021-10-12T14:41:07Z</time>
    </trkpt>
    <trkpt lat="38.661143985" lon="34.892594973">
      <ele>1110.08</ele>
      <time>2021-10-12T14:41:09Z</time>
    </trkpt>
    <trkpt lat="38.661113977" lon="34.892605031">
      <ele>1110.223</ele>
      <time>2021-10-12T14:41:10Z</time>
    </trkpt>
    <trkpt lat="38.661082964" lon="34.892610982">
      <ele>1110.241</ele>
      <time>2021-10-12T14:41:11Z</time>
    </trkpt>
    <trkpt lat="38.661053041" lon="34.892616011">
      <ele>1110.252</ele>
      <time>2021-10-12T14:41:12Z</time>
    </trkpt>
    <trkpt lat="38.661025967" lon="34.89262104">
      <ele>1110.262</ele>
      <time>2021-10-12T14:41:13Z</time>
    </trkpt>
    <trkpt lat="38.660998978" lon="34.892629003">
      <ele>1110.259</ele>
      <time>2021-10-12T14:41:14Z</time>
    </trkpt>
    <trkpt lat="38.660975005" lon="34.892640989">
      <ele>1110.234</ele>
      <time>2021-10-12T14:41:15Z</time>
    </trkpt>
    <trkpt lat="38.660948016" lon="34.892663034">
      <ele>1110.171</ele>
      <time>2021-10-12T14:41:16Z</time>
    </trkpt>
    <trkpt lat="38.66092396" lon="34.892683988">
      <ele>1110.122</ele>
      <time>2021-10-12T14:41:17Z</time>
    </trkpt>
    <trkpt lat="38.660900993" lon="34.892713996">
      <ele>1110.042</ele>
      <time>2021-10-12T14:41:19Z</time>
    </trkpt>
    <trkpt lat="38.660880961" lon="34.892748026">
      <ele>1109.954</ele>
      <time>2021-10-12T14:41:20Z</time>
    </trkpt>
    <trkpt lat="38.660864029" lon="34.892785996">
      <ele>1109.886</ele>
      <time>2021-10-12T14:41:21Z</time>
    </trkpt>
    <trkpt lat="38.660849025" lon="34.89282799">
      <ele>1109.933</ele>
      <time>2021-10-12T14:41:22Z</time>
    </trkpt>
    <trkpt lat="38.660840979" lon="34.89286596">
      <ele>1109.964</ele>
      <time>2021-10-12T14:41:23Z</time>
    </trkpt>
    <trkpt lat="38.660837039" lon="34.892905019">
      <ele>1109.981</ele>
      <time>2021-10-12T14:41:25Z</time>
    </trkpt>
    <trkpt lat="38.660834022" lon="34.892949024">
      <ele>1109.996</ele>
      <time>2021-10-12T14:41:26Z</time>
    </trkpt>
    <trkpt lat="38.660831004" lon="34.892992023">
      <ele>1110.0</ele>
      <time>2021-10-12T14:41:27Z</time>
    </trkpt>
    <trkpt lat="38.660829999" lon="34.893039968">
      <ele>1110.0</ele>
      <time>2021-10-12T14:41:29Z</time>
    </trkpt>
    <trkpt lat="38.660829999" lon="34.893089002">
      <ele>1109.759</ele>
      <time>2021-10-12T14:41:30Z</time>
    </trkpt>
    <trkpt lat="38.66083201" lon="34.893136024">
      <ele>1109.421</ele>
      <time>2021-10-12T14:41:31Z</time>
    </trkpt>
    <trkpt lat="38.660834022" lon="34.893186986">
      <ele>1109.048</ele>
      <time>2021-10-12T14:41:33Z</time>
    </trkpt>
    <trkpt lat="38.660838967" lon="34.893238032">
      <ele>1108.632</ele>
      <time>2021-10-12T14:41:34Z</time>
    </trkpt>
    <trkpt lat="38.66084802" lon="34.893286983">
      <ele>1108.184</ele>
      <time>2021-10-12T14:41:36Z</time>
    </trkpt>
    <trkpt lat="38.660856988" lon="34.893338028">
      <ele>1107.709</ele>
      <time>2021-10-12T14:41:37Z</time>
    </trkpt>
    <trkpt lat="38.660866041" lon="34.893385973">
      <ele>1107.245</ele>
      <time>2021-10-12T14:41:39Z</time>
    </trkpt>
    <trkpt lat="38.660874004" lon="34.893431989">
      <ele>1106.798</ele>
      <time>2021-10-12T14:41:40Z</time>
    </trkpt>
    <trkpt lat="38.660882972" lon="34.893474989">
      <ele>1106.353</ele>
      <time>2021-10-12T14:41:41Z</time>
    </trkpt>
    <trkpt lat="38.660892025" lon="34.893515976">
      <ele>1105.912</ele>
      <time>2021-10-12T14:41:43Z</time>
    </trkpt>
    <trkpt lat="38.660901999" lon="34.893564004">
      <ele>1105.392</ele>
      <time>2021-10-12T14:41:44Z</time>
    </trkpt>
    <trkpt lat="38.660911974" lon="34.893610021">
      <ele>1104.877</ele>
      <time>2021-10-12T14:41:45Z</time>
    </trkpt>
    <trkpt lat="38.66092002" lon="34.89365696">
      <ele>1104.525</ele>
      <time>2021-10-12T14:41:47Z</time>
    </trkpt>
    <trkpt lat="38.660925971" lon="34.893703982">
      <ele>1104.22</ele>
      <time>2021-10-12T14:41:48Z</time>
    </trkpt>
    <trkpt lat="38.660933012" lon="34.893749999">
      <ele>1103.923</ele>
      <time>2021-10-12T14:41:50Z</time>
    </trkpt>
    <trkpt lat="38.660933012" lon="34.893799033">
      <ele>1103.697</ele>
      <time>2021-10-12T14:41:51Z</time>
    </trkpt>
    <trkpt lat="38.66093603" lon="34.893841026">
      <ele>1103.478</ele>
      <time>2021-10-12T14:41:52Z</time>
    </trkpt>
    <trkpt lat="38.660938963" lon="34.893886959">
      <ele>1103.248</ele>
      <time>2021-10-12T14:41:54Z</time>
    </trkpt>
    <trkpt lat="38.660942987" lon="34.893930964">
      <ele>1103.27</ele>
      <time>2021-10-12T14:41:55Z</time>
    </trkpt>
    <trkpt lat="38.660949022" lon="34.893973963">
      <ele>1103.295</ele>
      <time>2021-10-12T14:41:56Z</time>
    </trkpt>
    <trkpt lat="38.660958996" lon="34.894018974">
      <ele>1103.307</ele>
      <time>2021-10-12T14:41:57Z</time>
    </trkpt>
    <trkpt lat="38.660968971" lon="34.894064991">
      <ele>1103.333</ele>
      <time>2021-10-12T14:41:59Z</time>
    </trkpt>
    <trkpt lat="38.660982968" lon="34.894108996">
      <ele>1103.349</ele>
      <time>2021-10-12T14:42:00Z</time>
    </trkpt>
    <trkpt lat="38.660991015" lon="34.894155012">
      <ele>1103.409</ele>
      <time>2021-10-12T14:42:02Z</time>
    </trkpt>
    <trkpt lat="38.660994032" lon="34.894200023">
      <ele>1103.32</ele>
      <time>2021-10-12T14:42:03Z</time>
    </trkpt>
    <trkpt lat="38.66099596" lon="34.894246962">
      <ele>1103.175</ele>
      <time>2021-10-12T14:42:04Z</time>
    </trkpt>
    <trkpt lat="38.66099596" lon="34.89429499">
      <ele>1103.032</ele>
      <time>2021-10-12T14:42:06Z</time>
    </trkpt>
    <trkpt lat="38.66099596" lon="34.894336984">
      <ele>1102.906</ele>
      <time>2021-10-12T14:42:07Z</time>
    </trkpt>
    <trkpt lat="38.660994032" lon="34.894379983">
      <ele>1102.774</ele>
      <time>2021-10-12T14:42:08Z</time>
    </trkpt>
    <trkpt lat="38.660994032" lon="34.894424994">
      <ele>1102.638</ele>
      <time>2021-10-12T14:42:09Z</time>
    </trkpt>
    <trkpt lat="38.660990009" lon="34.894476039">
      <ele>1102.337</ele>
      <time>2021-10-12T14:42:11Z</time>
    </trkpt>
    <trkpt lat="38.660990009" lon="34.894519961">
      <ele>1102.02</ele>
      <time>2021-10-12T14:42:12Z</time>
    </trkpt>
    <trkpt lat="38.660989003" lon="34.894562038">
      <ele>1101.714</ele>
      <time>2021-10-12T14:42:13Z</time>
    </trkpt>
    <trkpt lat="38.660985986" lon="34.894605037">
      <ele>1101.393</ele>
      <time>2021-10-12T14:42:15Z</time>
    </trkpt>
    <trkpt lat="38.660982968" lon="34.894651975">
      <ele>1101.044</ele>
      <time>2021-10-12T14:42:16Z</time>
    </trkpt>
    <trkpt lat="38.66098498" lon="34.894698998">
      <ele>1100.713</ele>
      <time>2021-10-12T14:42:17Z</time>
    </trkpt>
    <trkpt lat="38.660986992" lon="34.894745015">
      <ele>1100.38</ele>
      <time>2021-10-12T14:42:19Z</time>
    </trkpt>
    <trkpt lat="38.660991015" lon="34.894792037">
      <ele>1100.031</ele>
      <time>2021-10-12T14:42:20Z</time>
    </trkpt>
    <trkpt lat="38.660994032" lon="34.894845011">
      <ele>1099.625</ele>
      <time>2021-10-12T14:42:22Z</time>
    </trkpt>
    <trkpt lat="38.660995038" lon="34.894894967">
      <ele>1099.236</ele>
      <time>2021-10-12T14:42:23Z</time>
    </trkpt>
    <trkpt lat="38.660994032" lon="34.894942995">
      <ele>1098.864</ele>
      <time>2021-10-12T14:42:25Z</time>
    </trkpt>
    <trkpt lat="38.660994032" lon="34.894991023">
      <ele>1098.491</ele>
      <time>2021-10-12T14:42:26Z</time>
    </trkpt>
    <trkpt lat="38.660994032" lon="34.895036034">
      <ele>1098.237</ele>
      <time>2021-10-12T14:42:27Z</time>
    </trkpt>
    <trkpt lat="38.660991015" lon="34.895084985">
      <ele>1097.994</ele>
      <time>2021-10-12T14:42:29Z</time>
    </trkpt>
    <trkpt lat="38.660987997" lon="34.895135025">
      <ele>1097.742</ele>
      <time>2021-10-12T14:42:30Z</time>
    </trkpt>
    <trkpt lat="38.660985986" lon="34.895180035">
      <ele>1097.51</ele>
      <time>2021-10-12T14:42:31Z</time>
    </trkpt>
    <trkpt lat="38.660982968" lon="34.89522798">
      <ele>1097.262</ele>
      <time>2021-10-12T14:42:33Z</time>
    </trkpt>
    <trkpt lat="38.660978023" lon="34.895276008">
      <ele>1097.009</ele>
      <time>2021-10-12T14:42:34Z</time>
    </trkpt>
    <trkpt lat="38.660975005" lon="34.895322025">
      <ele>1096.6</ele>
      <time>2021-10-12T14:42:36Z</time>
    </trkpt>
    <trkpt lat="38.660970982" lon="34.895368041">
      <ele>1096.189</ele>
      <time>2021-10-12T14:42:37Z</time>
    </trkpt>
    <trkpt lat="38.660966037" lon="34.895411041">
      <ele>1095.811</ele>
      <time>2021-10-12T14:42:38Z</time>
    </trkpt>
    <trkpt lat="38.660956984" lon="34.895458985">
      <ele>1095.405</ele>
      <time>2021-10-12T14:42:40Z</time>
    </trkpt>
    <trkpt lat="38.660944998" lon="34.895508019">
      <ele>1095.009</ele>
      <time>2021-10-12T14:42:41Z</time>
    </trkpt>
    <trkpt lat="38.66093603" lon="34.895551018">
      <ele>1094.669</ele>
      <time>2021-10-12T14:42:42Z</time>
    </trkpt>
    <trkpt lat="38.660923038" lon="34.895599969">
      <ele>1094.357</ele>
      <time>2021-10-12T14:42:44Z</time>
    </trkpt>
    <trkpt lat="38.660907028" lon="34.895646991">
      <ele>1094.076</ele>
      <time>2021-10-12T14:42:45Z</time>
    </trkpt>
    <trkpt lat="38.660890013" lon="34.895696025">
      <ele>1093.785</ele>
      <time>2021-10-12T14:42:47Z</time>
    </trkpt>
    <trkpt lat="38.660871992" lon="34.895738019">
      <ele>1093.547</ele>
      <time>2021-10-12T14:42:48Z</time>
    </trkpt>
    <trkpt lat="38.660853971" lon="34.895782024">
      <ele>1093.295</ele>
      <time>2021-10-12T14:42:50Z</time>
    </trkpt>
    <trkpt lat="38.660837961" lon="34.895825023">
      <ele>1093.043</ele>
      <time>2021-10-12T14:42:51Z</time>
    </trkpt>
    <trkpt lat="38.660822036" lon="34.895869028">
      <ele>1092.708</ele>
      <time>2021-10-12T14:42:53Z</time>
    </trkpt>
    <trkpt lat="38.660803009" lon="34.895915966">
      <ele>1092.328</ele>
      <time>2021-10-12T14:42:54Z</time>
    </trkpt>
    <trkpt lat="38.660783982" lon="34.895957038">
      <ele>1092.011</ele>
      <time>2021-10-12T14:42:55Z</time>
    </trkpt>
    <trkpt lat="38.660764033" lon="34.895998025">
      <ele>1091.713</ele>
      <time>2021-10-12T14:42:57Z</time>
    </trkpt>
    <trkpt lat="38.660742994" lon="34.896037001">
      <ele>1091.447</ele>
      <time>2021-10-12T14:42:58Z</time>
    </trkpt>
    <trkpt lat="38.660722962" lon="34.89607296">
      <ele>1091.22</ele>
      <time>2021-10-12T14:42:59Z</time>
    </trkpt>
    <trkpt lat="38.660698989" lon="34.896110008">
      <ele>1091.006</ele>
      <time>2021-10-12T14:43:01Z</time>
    </trkpt>
    <trkpt lat="38.660677029" lon="34.89614496">
      <ele>1090.947</ele>
      <time>2021-10-12T14:43:02Z</time>
    </trkpt>
    <trkpt lat="38.66065599" lon="34.896176979">
      <ele>1090.914</ele>
      <time>2021-10-12T14:43:03Z</time>
    </trkpt>
    <trkpt lat="38.660633024" lon="34.896211009">
      <ele>1090.9</ele>
      <time>2021-10-12T14:43:05Z</time>
    </trkpt>
    <trkpt lat="38.660606034" lon="34.896245962">
      <ele>1090.912</ele>
      <time>2021-10-12T14:43:06Z</time>
    </trkpt>
    <trkpt lat="38.660578961" lon="34.896279993">
      <ele>1090.949</ele>
      <time>2021-10-12T14:43:08Z</time>
    </trkpt>
    <trkpt lat="38.660557" lon="34.896315029">
      <ele>1090.996</ele>
      <time>2021-10-12T14:43:09Z</time>
    </trkpt>
    <trkpt lat="38.660535039" lon="34.896354005">
      <ele>1091.148</ele>
      <time>2021-10-12T14:43:10Z</time>
    </trkpt>
    <trkpt lat="38.660508972" lon="34.896392981">
      <ele>1091.323</ele>
      <time>2021-10-12T14:43:12Z</time>
    </trkpt>
    <trkpt lat="38.660484999" lon="34.89643204">
      <ele>1091.392</ele>
      <time>2021-10-12T14:43:13Z</time>
    </trkpt>
    <trkpt lat="38.660459016" lon="34.89647001">
      <ele>1091.505</ele>
      <time>2021-10-12T14:43:15Z</time>
    </trkpt>
    <trkpt lat="38.660433032" lon="34.896505969">
      <ele>1091.647</ele>
      <time>2021-10-12T14:43:16Z</time>
    </trkpt>
    <trkpt lat="38.660410987" lon="34.896544022">
      <ele>1091.773</ele>
      <time>2021-10-12T14:43:17Z</time>
    </trkpt>
    <trkpt lat="38.660392966" lon="34.896577969">
      <ele>1091.888</ele>
      <time>2021-10-12T14:43:19Z</time>
    </trkpt>
    <trkpt lat="38.660373017" lon="34.896615017">
      <ele>1092.035</ele>
      <time>2021-10-12T14:43:20Z</time>
    </trkpt>
    <trkpt lat="38.66035399" lon="34.896650976">
      <ele>1092.192</ele>
      <time>2021-10-12T14:43:21Z</time>
    </trkpt>
    <trkpt lat="38.660335969" lon="34.896687018">
      <ele>1092.356</ele>
      <time>2021-10-12T14:43:22Z</time>
    </trkpt>
    <trkpt lat="38.660319038" lon="34.896722976">
      <ele>1092.524</ele>
      <time>2021-10-12T14:43:24Z</time>
    </trkpt>
    <trkpt lat="38.660304034" lon="34.896764969">
      <ele>1092.683</ele>
      <time>2021-10-12T14:43:25Z</time>
    </trkpt>
    <trkpt lat="38.660291964" lon="34.896806963">
      <ele>1092.821</ele>
      <time>2021-10-12T14:43:26Z</time>
    </trkpt>
    <trkpt lat="38.660284001" lon="34.896847028">
      <ele>1092.918</ele>
      <time>2021-10-12T14:43:27Z</time>
    </trkpt>
    <trkpt lat="38.660275033" lon="34.896888016">
      <ele>1092.992</ele>
      <time>2021-10-12T14:43:29Z</time>
    </trkpt>
    <trkpt lat="38.660268998" lon="34.896927997">
      <ele>1092.97</ele>
      <time>2021-10-12T14:43:30Z</time>
    </trkpt>
    <trkpt lat="38.660260029" lon="34.896972002">
      <ele>1092.744</ele>
      <time>2021-10-12T14:43:31Z</time>
    </trkpt>
    <trkpt lat="38.660248965" lon="34.897021959">
      <ele>1092.367</ele>
      <time>2021-10-12T14:43:33Z</time>
    </trkpt>
    <trkpt lat="38.660241002" lon="34.897065042">
      <ele>1092.057</ele>
      <time>2021-10-12T14:43:34Z</time>
    </trkpt>
    <trkpt lat="38.660233961" lon="34.897108963">
      <ele>1091.751</ele>
      <time>2021-10-12T14:43:35Z</time>
    </trkpt>
    <trkpt lat="38.660224993" lon="34.897152968">
      <ele>1091.451</ele>
      <time>2021-10-12T14:43:37Z</time>
    </trkpt>
    <trkpt lat="38.660207978" lon="34.897195967">
      <ele>1091.165</ele>
      <time>2021-10-12T14:43:38Z</time>
    </trkpt>
    <trkpt lat="38.660184005" lon="34.897234021">
      <ele>1090.915</ele>
      <time>2021-10-12T14:43:39Z</time>
    </trkpt>
    <trkpt lat="38.660151986" lon="34.897262016">
      <ele>1090.713</ele>
      <time>2021-10-12T14:43:41Z</time>
    </trkpt>
    <trkpt lat="38.660117034" lon="34.897285989">
      <ele>1090.541</ele>
      <time>2021-10-12T14:43:42Z</time>
    </trkpt>
    <trkpt lat="38.660080992" lon="34.897306021">
      <ele>1090.397</ele>
      <time>2021-10-12T14:43:44Z</time>
    </trkpt>
    <trkpt lat="38.660045033" lon="34.897322031">
      <ele>1090.281</ele>
      <time>2021-10-12T14:43:45Z</time>
    </trkpt>
    <trkpt lat="38.660012009" lon="34.897342985">
      <ele>1090.131</ele>
      <time>2021-10-12T14:43:47Z</time>
    </trkpt>
    <trkpt lat="38.659977978" lon="34.897364024">
      <ele>1089.741</ele>
      <time>2021-10-12T14:43:48Z</time>
    </trkpt>
    <trkpt lat="38.659945037" lon="34.897385985">
      <ele>1089.227</ele>
      <time>2021-10-12T14:43:49Z</time>
    </trkpt>
    <trkpt lat="38.659914024" lon="34.89741398">
      <ele>1088.691</ele>
      <time>2021-10-12T14:43:51Z</time>
    </trkpt>
    <trkpt lat="38.659884017" lon="34.89744097">
      <ele>1088.172</ele>
      <time>2021-10-12T14:43:52Z</time>
    </trkpt>
    <trkpt lat="38.659858033" lon="34.897467038">
      <ele>1087.704</ele>
      <time>2021-10-12T14:43:53Z</time>
    </trkpt>
    <trkpt lat="38.659834983" lon="34.897496961">
      <ele>1087.24</ele>
      <time>2021-10-12T14:43:55Z</time>
    </trkpt>
    <trkpt lat="38.659806987" lon="34.897526968">
      <ele>1086.759</ele>
      <time>2021-10-12T14:43:56Z</time>
    </trkpt>
    <trkpt lat="38.659779998" lon="34.897557981">
      <ele>1086.328</ele>
      <time>2021-10-12T14:43:57Z</time>
    </trkpt>
    <trkpt lat="38.659752002" lon="34.897582037">
      <ele>1085.963</ele>
      <time>2021-10-12T14:43:58Z</time>
    </trkpt>
    <trkpt lat="38.659717971" lon="34.897596035">
      <ele>1085.639</ele>
      <time>2021-10-12T14:44:00Z</time>
    </trkpt>
    <trkpt lat="38.659678996" lon="34.897597963">
      <ele>1085.492</ele>
      <time>2021-10-12T14:44:01Z</time>
    </trkpt>
    <trkpt lat="38.659639014" lon="34.89759">
      <ele>1085.376</ele>
      <time>2021-10-12T14:44:03Z</time>
    </trkpt>
    <trkpt lat="38.659602972" lon="34.897573991">
      <ele>1085.304</ele>
      <time>2021-10-12T14:44:04Z</time>
    </trkpt>
    <trkpt lat="38.659567013" lon="34.897556975">
      <ele>1085.236</ele>
      <time>2021-10-12T14:44:06Z</time>
    </trkpt>
    <trkpt lat="38.659530971" lon="34.897536021">
      <ele>1085.182</ele>
      <time>2021-10-12T14:44:07Z</time>
    </trkpt>
    <trkpt lat="38.659497024" lon="34.897510959">
      <ele>1085.15</ele>
      <time>2021-10-12T14:44:08Z</time>
    </trkpt>
    <trkpt lat="38.659462994" lon="34.897481035">
      <ele>1085.14</ele>
      <time>2021-10-12T14:44:10Z</time>
    </trkpt>
    <trkpt lat="38.659434998" lon="34.897452034">
      <ele>1085.235</ele>
      <time>2021-10-12T14:44:11Z</time>
    </trkpt>
    <trkpt lat="38.659408009" lon="34.897422027">
      <ele>1085.506</ele>
      <time>2021-10-12T14:44:13Z</time>
    </trkpt>
    <trkpt lat="38.659381019" lon="34.897389002">
      <ele>1085.765</ele>
      <time>2021-10-12T14:44:14Z</time>
    </trkpt>
    <trkpt lat="38.659355035" lon="34.897356983">
      <ele>1085.993</ele>
      <time>2021-10-12T14:44:15Z</time>
    </trkpt>
    <trkpt lat="38.659328967" lon="34.897329994">
      <ele>1086.189</ele>
      <time>2021-10-12T14:44:17Z</time>
    </trkpt>
    <trkpt lat="38.659304995" lon="34.897303004">
      <ele>1086.357</ele>
      <time>2021-10-12T14:44:18Z</time>
    </trkpt>
    <trkpt lat="38.659280017" lon="34.897276014">
      <ele>1086.513</ele>
      <time>2021-10-12T14:44:19Z</time>
    </trkpt>
    <trkpt lat="38.659253027" lon="34.897251036">
      <ele>1086.657</ele>
      <time>2021-10-12T14:44:20Z</time>
    </trkpt>
    <trkpt lat="38.65922696" lon="34.897224968">
      <ele>1086.781</ele>
      <time>2021-10-12T14:44:21Z</time>
    </trkpt>
    <trkpt lat="38.659206005" lon="34.897200996">
      <ele>1086.935</ele>
      <time>2021-10-12T14:44:23Z</time>
    </trkpt>
    <trkpt lat="38.659185972" lon="34.897181969">
      <ele>1087.075</ele>
      <time>2021-10-12T14:44:23Z</time>
    </trkpt>
    <trkpt lat="38.659165017" lon="34.89716596">
      <ele>1087.218</ele>
      <time>2021-10-12T14:44:24Z</time>
    </trkpt>
    <trkpt lat="38.659144985" lon="34.89715104">
      <ele>1087.45</ele>
      <time>2021-10-12T14:44:25Z</time>
    </trkpt>
    <trkpt lat="38.659111038" lon="34.897152968">
      <ele>1087.75</ele>
      <time>2021-10-12T14:44:26Z</time>
    </trkpt>
    <trkpt lat="38.659088993" lon="34.897180041">
      <ele>1087.906</ele>
      <time>2021-10-12T14:44:28Z</time>
    </trkpt>
    <trkpt lat="38.659083964" lon="34.897202002">
      <ele>1087.923</ele>
      <time>2021-10-12T14:44:28Z</time>
    </trkpt>
    <trkpt lat="38.659068961" lon="34.89723796">
      <ele>1088.035</ele>
      <time>2021-10-12T14:44:29Z</time>
    </trkpt>
    <trkpt lat="38.659049012" lon="34.897281965">
      <ele>1088.18</ele>
      <time>2021-10-12T14:44:31Z</time>
    </trkpt>
    <trkpt lat="38.659026967" lon="34.897319013">
      <ele>1088.334</ele>
      <time>2021-10-12T14:44:32Z</time>
    </trkpt>
    <trkpt lat="38.658999978" lon="34.897355977">
      <ele>1088.511</ele>
      <time>2021-10-12T14:44:34Z</time>
    </trkpt>
    <trkpt lat="38.658973994" lon="34.897384979">
      <ele>1088.674</ele>
      <time>2021-10-12T14:44:35Z</time>
    </trkpt>
    <trkpt lat="38.65894801" lon="34.897418004">
      <ele>1088.807</ele>
      <time>2021-10-12T14:44:36Z</time>
    </trkpt>
    <trkpt lat="38.658915991" lon="34.897444993">
      <ele>1088.984</ele>
      <time>2021-10-12T14:44:38Z</time>
    </trkpt>
    <trkpt lat="38.65888196" lon="34.897462009">
      <ele>1089.137</ele>
      <time>2021-10-12T14:44:39Z</time>
    </trkpt>
    <trkpt lat="38.658841979" lon="34.89746402">
      <ele>1089.13</ele>
      <time>2021-10-12T14:44:41Z</time>
    </trkpt>
    <trkpt lat="38.658807026" lon="34.897455974">
      <ele>1089.158</ele>
      <time>2021-10-12T14:44:42Z</time>
    </trkpt>
    <trkpt lat="38.65877199" lon="34.897448011">
      <ele>1089.187</ele>
      <time>2021-10-12T14:44:43Z</time>
    </trkpt>
    <trkpt lat="38.658738965" lon="34.89743703">
      <ele>1089.227</ele>
      <time>2021-10-12T14:44:45Z</time>
    </trkpt>
    <trkpt lat="38.658709042" lon="34.897430995">
      <ele>1089.248</ele>
      <time>2021-10-12T14:44:46Z</time>
    </trkpt>
    <trkpt lat="38.658679035" lon="34.897424038">
      <ele>1089.273</ele>
      <time>2021-10-12T14:44:47Z</time>
    </trkpt>
    <trkpt lat="38.65864601" lon="34.89741398">
      <ele>1089.31</ele>
      <time>2021-10-12T14:44:48Z</time>
    </trkpt>
    <trkpt lat="38.658608962" lon="34.897415992">
      <ele>1089.287</ele>
      <time>2021-10-12T14:44:49Z</time>
    </trkpt>
    <trkpt lat="38.658571998" lon="34.897411969">
      <ele>1089.035</ele>
      <time>2021-10-12T14:44:51Z</time>
    </trkpt>
    <trkpt lat="38.658540985" lon="34.897404006">
      <ele>1088.841</ele>
      <time>2021-10-12T14:44:52Z</time>
    </trkpt>
    <trkpt lat="38.658505026" lon="34.897395037">
      <ele>1088.614</ele>
      <time>2021-10-12T14:44:53Z</time>
    </trkpt>
    <trkpt lat="38.658476025" lon="34.897381039">
      <ele>1088.456</ele>
      <time>2021-10-12T14:44:54Z</time>
    </trkpt>
    <trkpt lat="38.658445012" lon="34.897368969">
      <ele>1088.276</ele>
      <time>2021-10-12T14:44:56Z</time>
    </trkpt>
    <trkpt lat="38.65841601" lon="34.89734902">
      <ele>1088.139</ele>
      <time>2021-10-12T14:44:57Z</time>
    </trkpt>
    <trkpt lat="38.658384997" lon="34.897326976">
      <ele>1087.995</ele>
      <time>2021-10-12T14:44:58Z</time>
    </trkpt>
    <trkpt lat="38.65835499" lon="34.897309961">
      <ele>1087.84</ele>
      <time>2021-10-12T14:44:59Z</time>
    </trkpt>
    <trkpt lat="38.658323977" lon="34.897290012">
      <ele>1087.73</ele>
      <time>2021-10-12T14:45:01Z</time>
    </trkpt>
    <trkpt lat="38.658297993" lon="34.897269979">
      <ele>1087.723</ele>
      <time>2021-10-12T14:45:02Z</time>
    </trkpt>
    <trkpt lat="38.658268992" lon="34.89725003">
      <ele>1087.691</ele>
      <time>2021-10-12T14:45:03Z</time>
    </trkpt>
    <trkpt lat="38.658238985" lon="34.897233015">
      <ele>1087.635</ele>
      <time>2021-10-12T14:45:04Z</time>
    </trkpt>
    <trkpt lat="38.658209983" lon="34.897217005">
      <ele>1087.564</ele>
      <time>2021-10-12T14:45:05Z</time>
    </trkpt>
    <trkpt lat="38.658180982" lon="34.897198984">
      <ele>1087.497</ele>
      <time>2021-10-12T14:45:07Z</time>
    </trkpt>
    <trkpt lat="38.658153992" lon="34.897181969">
      <ele>1087.448</ele>
      <time>2021-10-12T14:45:08Z</time>
    </trkpt>
    <trkpt lat="38.658127002" lon="34.89716202">
      <ele>1087.418</ele>
      <time>2021-10-12T14:45:09Z</time>
    </trkpt>
    <trkpt lat="38.658101019" lon="34.897140982">
      <ele>1087.408</ele>
      <time>2021-10-12T14:45:10Z</time>
    </trkpt>
    <trkpt lat="38.65807604" lon="34.897116004">
      <ele>1087.428</ele>
      <time>2021-10-12T14:45:11Z</time>
    </trkpt>
    <trkpt lat="38.658051984" lon="34.89709002">
      <ele>1087.476</ele>
      <time>2021-10-12T14:45:12Z</time>
    </trkpt>
    <trkpt lat="38.658026" lon="34.897064036">
      <ele>1087.569</ele>
      <time>2021-10-12T14:45:14Z</time>
    </trkpt>
    <trkpt lat="38.657999011" lon="34.897036962">
      <ele>1087.667</ele>
      <time>2021-10-12T14:45:15Z</time>
    </trkpt>
    <trkpt lat="38.657971015" lon="34.897007961">
      <ele>1087.771</ele>
      <time>2021-10-12T14:45:16Z</time>
    </trkpt>
    <trkpt lat="38.657942014" lon="34.896979965">
      <ele>1087.872</ele>
      <time>2021-10-12T14:45:18Z</time>
    </trkpt>
    <trkpt lat="38.657917036" lon="34.896955993">
      <ele>1087.958</ele>
      <time>2021-10-12T14:45:19Z</time>
    </trkpt>
    <trkpt lat="38.65789298" lon="34.896932021">
      <ele>1088.045</ele>
      <time>2021-10-12T14:45:20Z</time>
    </trkpt>
    <trkpt lat="38.657869007" lon="34.896907965">
      <ele>1088.131</ele>
      <time>2021-10-12T14:45:21Z</time>
    </trkpt>
    <trkpt lat="38.657843024" lon="34.896882987">
      <ele>1088.221</ele>
      <time>2021-10-12T14:45:22Z</time>
    </trkpt>
    <trkpt lat="38.657816034" lon="34.896867983">
      <ele>1088.275</ele>
      <time>2021-10-12T14:45:23Z</time>
    </trkpt>
    <trkpt lat="38.657791978" lon="34.89686396">
      <ele>1088.29</ele>
      <time>2021-10-12T14:45:24Z</time>
    </trkpt>
    <trkpt lat="38.657763982" lon="34.896858009">
      <ele>1088.311</ele>
      <time>2021-10-12T14:45:25Z</time>
    </trkpt>
    <trkpt lat="38.657742022" lon="34.896849962">
      <ele>1088.34</ele>
      <time>2021-10-12T14:45:26Z</time>
    </trkpt>
    <trkpt lat="38.657716038" lon="34.896837976">
      <ele>1088.383</ele>
      <time>2021-10-12T14:45:27Z</time>
    </trkpt>
    <trkpt lat="38.65768997" lon="34.896828001">
      <ele>1088.419</ele>
      <time>2021-10-12T14:45:28Z</time>
    </trkpt>
    <trkpt lat="38.657663986" lon="34.896814004">
      <ele>1088.47</ele>
      <time>2021-10-12T14:45:29Z</time>
    </trkpt>
    <trkpt lat="38.657634985" lon="34.896800006">
      <ele>1088.52</ele>
      <time>2021-10-12T14:45:30Z</time>
    </trkpt>
    <trkpt lat="38.657610007" lon="34.89678802">
      <ele>1088.563</ele>
      <time>2021-10-12T14:45:31Z</time>
    </trkpt>
    <trkpt lat="38.657585029" lon="34.896780979">
      <ele>1088.588</ele>
      <time>2021-10-12T14:45:32Z</time>
    </trkpt>
    <trkpt lat="38.657556027" lon="34.896773016">
      <ele>1088.617</ele>
      <time>2021-10-12T14:45:33Z</time>
    </trkpt>
    <trkpt lat="38.657529959" lon="34.896771004">
      <ele>1088.624</ele>
      <time>2021-10-12T14:45:34Z</time>
    </trkpt>
    <trkpt lat="38.657501042" lon="34.896759018">
      <ele>1088.668</ele>
      <time>2021-10-12T14:45:35Z</time>
    </trkpt>
    <trkpt lat="38.657472041" lon="34.89674896">
      <ele>1088.633</ele>
      <time>2021-10-12T14:45:36Z</time>
    </trkpt>
    <trkpt lat="38.65743801" lon="34.896736974">
      <ele>1088.58</ele>
      <time>2021-10-12T14:45:38Z</time>
    </trkpt>
    <trkpt lat="38.657408003" lon="34.896720964">
      <ele>1088.538</ele>
      <time>2021-10-12T14:45:39Z</time>
    </trkpt>
    <trkpt lat="38.657377996" lon="34.89671099">
      <ele>1088.471</ele>
      <time>2021-10-12T14:45:40Z</time>
    </trkpt>
    <trkpt lat="38.657345977" lon="34.896695986">
      <ele>1088.398</ele>
      <time>2021-10-12T14:45:41Z</time>
    </trkpt>
    <trkpt lat="38.657316975" lon="34.896682994">
      <ele>1088.321</ele>
      <time>2021-10-12T14:45:43Z</time>
    </trkpt>
    <trkpt lat="38.657286968" lon="34.896676037">
      <ele>1088.225</ele>
      <time>2021-10-12T14:45:44Z</time>
    </trkpt>
    <trkpt lat="38.657252016" lon="34.896667991">
      <ele>1088.107</ele>
      <time>2021-10-12T14:45:45Z</time>
    </trkpt>
    <trkpt lat="38.657221003" lon="34.896661034">
      <ele>1088.04</ele>
      <time>2021-10-12T14:45:46Z</time>
    </trkpt>
    <trkpt lat="38.657188984" lon="34.896652987">
      <ele>1088.093</ele>
      <time>2021-10-12T14:45:47Z</time>
    </trkpt>
    <trkpt lat="38.657157971" lon="34.896648042">
      <ele>1088.119</ele>
      <time>2021-10-12T14:45:49Z</time>
    </trkpt>
    <trkpt lat="38.657127041" lon="34.896639995">
      <ele>1088.159</ele>
      <time>2021-10-12T14:45:50Z</time>
    </trkpt>
    <trkpt lat="38.657098962" lon="34.896633038">
      <ele>1088.188</ele>
      <time>2021-10-12T14:45:51Z</time>
    </trkpt>
    <trkpt lat="38.657069039" lon="34.896625997">
      <ele>1088.212</ele>
      <time>2021-10-12T14:45:52Z</time>
    </trkpt>
    <trkpt lat="38.657036014" lon="34.896617029">
      <ele>1088.238</ele>
      <time>2021-10-12T14:45:53Z</time>
    </trkpt>
    <trkpt lat="38.657003995" lon="34.896607976">
      <ele>1088.257</ele>
      <time>2021-10-12T14:45:54Z</time>
    </trkpt>
    <trkpt lat="38.656972982" lon="34.896599008">
      <ele>1088.269</ele>
      <time>2021-10-12T14:45:56Z</time>
    </trkpt>
    <trkpt lat="38.656941969" lon="34.896591967">
      <ele>1088.26</ele>
      <time>2021-10-12T14:45:57Z</time>
    </trkpt>
    <trkpt lat="38.656911962" lon="34.896584004">
      <ele>1088.181</ele>
      <time>2021-10-12T14:45:58Z</time>
    </trkpt>
    <trkpt lat="38.65688296" lon="34.896576041">
      <ele>1088.105</ele>
      <time>2021-10-12T14:45:59Z</time>
    </trkpt>
    <trkpt lat="38.656852031" lon="34.896567995">
      <ele>1088.023</ele>
      <time>2021-10-12T14:46:00Z</time>
    </trkpt>
    <trkpt lat="38.656821018" lon="34.896563971">
      <ele>1087.925</ele>
      <time>2021-10-12T14:46:01Z</time>
    </trkpt>
    <trkpt lat="38.656793023" lon="34.896567995">
      <ele>1087.81</ele>
      <time>2021-10-12T14:46:02Z</time>
    </trkpt>
    <trkpt lat="38.656766033" lon="34.896582998">
      <ele>1087.659</ele>
      <time>2021-10-12T14:46:03Z</time>
    </trkpt>
    <trkpt lat="38.656738959" lon="34.896602025">
      <ele>1087.493</ele>
      <time>2021-10-12T14:46:04Z</time>
    </trkpt>
    <trkpt lat="38.656713981" lon="34.896623986">
      <ele>1087.324</ele>
      <time>2021-10-12T14:46:06Z</time>
    </trkpt>
    <trkpt lat="38.656686991" lon="34.89664603">
      <ele>1087.147</ele>
      <time>2021-10-12T14:46:07Z</time>
    </trkpt>
    <trkpt lat="38.656658996" lon="34.896671008">
      <ele>1086.988</ele>
      <time>2021-10-12T14:46:08Z</time>
    </trkpt>
    <trkpt lat="38.656637035" lon="34.896702021">
      <ele>1087.007</ele>
      <time>2021-10-12T14:46:09Z</time>
    </trkpt>
    <trkpt lat="38.656621026" lon="34.896732029">
      <ele>1087.032</ele>
      <time>2021-10-12T14:46:10Z</time>
    </trkpt>
    <trkpt lat="38.656606022" lon="34.896768993">
      <ele>1087.07</ele>
      <time>2021-10-12T14:46:12Z</time>
    </trkpt>
    <trkpt lat="38.65659303" lon="34.896806963">
      <ele>1087.106</ele>
      <time>2021-10-12T14:46:13Z</time>
    </trkpt>
    <trkpt lat="38.656580038" lon="34.896846022">
      <ele>1087.132</ele>
      <time>2021-10-12T14:46:14Z</time>
    </trkpt>
    <trkpt lat="38.656566963" lon="34.896891033">
      <ele>1087.159</ele>
      <time>2021-10-12T14:46:15Z</time>
    </trkpt>
    <trkpt lat="38.656557994" lon="34.896932021">
      <ele>1087.19</ele>
      <time>2021-10-12T14:46:17Z</time>
    </trkpt>
    <trkpt lat="38.656551037" lon="34.896972002">
      <ele>1087.267</ele>
      <time>2021-10-12T14:46:18Z</time>
    </trkpt>
    <trkpt lat="38.656543996" lon="34.897015002">
      <ele>1087.371</ele>
      <time>2021-10-12T14:46:19Z</time>
    </trkpt>
    <trkpt lat="38.656535028" lon="34.897058001">
      <ele>1087.461</ele>
      <time>2021-10-12T14:46:20Z</time>
    </trkpt>
    <trkpt lat="38.656524969" lon="34.897098988">
      <ele>1087.536</ele>
      <time>2021-10-12T14:46:22Z</time>
    </trkpt>
    <trkpt lat="38.656510971" lon="34.89713897">
      <ele>1087.579</ele>
      <time>2021-10-12T14:46:23Z</time>
    </trkpt>
    <trkpt lat="38.656496974" lon="34.897171995">
      <ele>1087.597</ele>
      <time>2021-10-12T14:46:24Z</time>
    </trkpt>
    <trkpt lat="38.656480964" lon="34.897208037">
      <ele>1087.612</ele>
      <time>2021-10-12T14:46:25Z</time>
    </trkpt>
    <trkpt lat="38.656466966" lon="34.897240978">
      <ele>1087.562</ele>
      <time>2021-10-12T14:46:26Z</time>
    </trkpt>
    <trkpt lat="38.656450035" lon="34.897272997">
      <ele>1087.44</ele>
      <time>2021-10-12T14:46:27Z</time>
    </trkpt>
    <trkpt lat="38.656431008" lon="34.897308033">
      <ele>1087.303</ele>
      <time>2021-10-12T14:46:29Z</time>
    </trkpt>
    <trkpt lat="38.656408964" lon="34.897343991">
      <ele>1087.145</ele>
      <time>2021-10-12T14:46:30Z</time>
    </trkpt>
    <trkpt lat="38.656385997" lon="34.89737601">
      <ele>1086.932</ele>
      <time>2021-10-12T14:46:31Z</time>
    </trkpt>
    <trkpt lat="38.656361019" lon="34.897406017">
      <ele>1086.332</ele>
      <time>2021-10-12T14:46:32Z</time>
    </trkpt>
    <trkpt lat="38.656338975" lon="34.897443987">
      <ele>1085.778</ele>
      <time>2021-10-12T14:46:34Z</time>
    </trkpt>
    <trkpt lat="38.656321038" lon="34.897479024">
      <ele>1085.309</ele>
      <time>2021-10-12T14:46:35Z</time>
    </trkpt>
    <trkpt lat="38.656302011" lon="34.897515988">
      <ele>1084.771</ele>
      <time>2021-10-12T14:46:36Z</time>
    </trkpt>
    <trkpt lat="38.656282984" lon="34.897553036">
      <ele>1084.213</ele>
      <time>2021-10-12T14:46:38Z</time>
    </trkpt>
    <trkpt lat="38.656265968" lon="34.897594023">
      <ele>1083.714</ele>
      <time>2021-10-12T14:46:39Z</time>
    </trkpt>
    <trkpt lat="38.656248031" lon="34.897634005">
      <ele>1083.213</ele>
      <time>2021-10-12T14:46:40Z</time>
    </trkpt>
    <trkpt lat="38.656231016" lon="34.897671975">
      <ele>1082.754</ele>
      <time>2021-10-12T14:46:42Z</time>
    </trkpt>
    <trkpt lat="38.656214001" lon="34.897711035">
      <ele>1082.311</ele>
      <time>2021-10-12T14:46:43Z</time>
    </trkpt>
    <trkpt lat="38.65619598" lon="34.897750011">
      <ele>1081.864</ele>
      <time>2021-10-12T14:46:44Z</time>
    </trkpt>
    <trkpt lat="38.65617997" lon="34.897789992">
      <ele>1081.543</ele>
      <time>2021-10-12T14:46:45Z</time>
    </trkpt>
    <trkpt lat="38.656163039" lon="34.897832992">
      <ele>1081.408</ele>
      <time>2021-10-12T14:46:47Z</time>
    </trkpt>
    <trkpt lat="38.656149041" lon="34.897872973">
      <ele>1081.364</ele>
      <time>2021-10-12T14:46:48Z</time>
    </trkpt>
    <trkpt lat="38.656134959" lon="34.897915972">
      <ele>1081.382</ele>
      <time>2021-10-12T14:46:49Z</time>
    </trkpt>
    <trkpt lat="38.656120962" lon="34.897960983">
      <ele>1081.462</ele>
      <time>2021-10-12T14:46:51Z</time>
    </trkpt>
    <trkpt lat="38.656105036" lon="34.897999959">
      <ele>1081.508</ele>
      <time>2021-10-12T14:46:52Z</time>
    </trkpt>
    <trkpt lat="38.656088021" lon="34.89804103">
      <ele>1081.559</ele>
      <time>2021-10-12T14:46:54Z</time>
    </trkpt>
    <trkpt lat="38.65607" lon="34.898082018">
      <ele>1081.599</ele>
      <time>2021-10-12T14:46:55Z</time>
    </trkpt>
    <trkpt lat="38.65605399" lon="34.898120994">
      <ele>1081.649</ele>
      <time>2021-10-12T14:46:56Z</time>
    </trkpt>
    <trkpt lat="38.656036975" lon="34.898161981">
      <ele>1081.699</ele>
      <time>2021-10-12T14:46:58Z</time>
    </trkpt>
    <trkpt lat="38.656017026" lon="34.898199029">
      <ele>1081.678</ele>
      <time>2021-10-12T14:46:59Z</time>
    </trkpt>
    <trkpt lat="38.655996993" lon="34.898235993">
      <ele>1081.656</ele>
      <time>2021-10-12T14:47:00Z</time>
    </trkpt>
    <trkpt lat="38.655972015" lon="34.898273041">
      <ele>1081.563</ele>
      <time>2021-10-12T14:47:02Z</time>
    </trkpt>
    <trkpt lat="38.655950977" lon="34.898307994">
      <ele>1081.512</ele>
      <time>2021-10-12T14:47:03Z</time>
    </trkpt>
    <trkpt lat="38.655933961" lon="34.898345964">
      <ele>1081.478</ele>
      <time>2021-10-12T14:47:04Z</time>
    </trkpt>
    <trkpt lat="38.655915018" lon="34.898385024">
      <ele>1081.308</ele>
      <time>2021-10-12T14:47:05Z</time>
    </trkpt>
    <trkpt lat="38.655899009" lon="34.898424">
      <ele>1081.195</ele>
      <time>2021-10-12T14:47:07Z</time>
    </trkpt>
    <trkpt lat="38.655882999" lon="34.89846901">
      <ele>1081.116</ele>
      <time>2021-10-12T14:47:08Z</time>
    </trkpt>
    <trkpt lat="38.655872019" lon="34.89851201">
      <ele>1081.111</ele>
      <time>2021-10-12T14:47:09Z</time>
    </trkpt>
    <trkpt lat="38.655859027" lon="34.898556015">
      <ele>1081.097</ele>
      <time>2021-10-12T14:47:11Z</time>
    </trkpt>
    <trkpt lat="38.655844023" lon="34.898599014">
      <ele>1081.074</ele>
      <time>2021-10-12T14:47:12Z</time>
    </trkpt>
    <trkpt lat="38.655828014" lon="34.898644025">
      <ele>1080.803</ele>
      <time>2021-10-12T14:47:14Z</time>
    </trkpt>
    <trkpt lat="38.655818962" lon="34.898690041">
      <ele>1080.494</ele>
      <time>2021-10-12T14:47:15Z</time>
    </trkpt>
    <trkpt lat="38.655812005" lon="34.898733962">
      <ele>1080.217</ele>
      <time>2021-10-12T14:47:16Z</time>
    </trkpt>
    <trkpt lat="38.65580597" lon="34.898777967">
      <ele>1079.946</ele>
      <time>2021-10-12T14:47:18Z</time>
    </trkpt>
    <trkpt lat="38.655800018" lon="34.89882499">
      <ele>1079.658</ele>
      <time>2021-10-12T14:47:19Z</time>
    </trkpt>
    <trkpt lat="38.655793983" lon="34.898865977">
      <ele>1079.386</ele>
      <time>2021-10-12T14:47:20Z</time>
    </trkpt>
    <trkpt lat="38.655786021" lon="34.898910988">
      <ele>1079.016</ele>
      <time>2021-10-12T14:47:22Z</time>
    </trkpt>
    <trkpt lat="38.65577898" lon="34.898955999">
      <ele>1078.633</ele>
      <time>2021-10-12T14:47:23Z</time>
    </trkpt>
    <trkpt lat="38.655773029" lon="34.898997992">
      <ele>1078.3</ele>
      <time>2021-10-12T14:47:24Z</time>
    </trkpt>
    <trkpt lat="38.655772023" lon="34.899041997">
      <ele>1078.037</ele>
      <time>2021-10-12T14:47:25Z</time>
    </trkpt>
    <trkpt lat="38.655771017" lon="34.899087008">
      <ele>1077.772</ele>
      <time>2021-10-12T14:47:27Z</time>
    </trkpt>
    <trkpt lat="38.655772023" lon="34.899135036">
      <ele>1077.515</ele>
      <time>2021-10-12T14:47:28Z</time>
    </trkpt>
    <trkpt lat="38.655771017" lon="34.899182981">
      <ele>1077.327</ele>
      <time>2021-10-12T14:47:29Z</time>
    </trkpt>
    <trkpt lat="38.655766994" lon="34.899227992">
      <ele>1077.284</ele>
      <time>2021-10-12T14:47:31Z</time>
    </trkpt>
    <trkpt lat="38.655760037" lon="34.89927602">
      <ele>1077.208</ele>
      <time>2021-10-12T14:47:32Z</time>
    </trkpt>
    <trkpt lat="38.655752996" lon="34.899322959">
      <ele>1077.132</ele>
      <time>2021-10-12T14:47:34Z</time>
    </trkpt>
    <trkpt lat="38.655743022" lon="34.899370987">
      <ele>1077.025</ele>
      <time>2021-10-12T14:47:35Z</time>
    </trkpt>
    <trkpt lat="38.655735981" lon="34.89941298">
      <ele>1076.949</ele>
      <time>2021-10-12T14:47:36Z</time>
    </trkpt>
    <trkpt lat="38.655729024" lon="34.899455979">
      <ele>1076.79</ele>
      <time>2021-10-12T14:47:38Z</time>
    </trkpt>
    <trkpt lat="38.655721983" lon="34.89950099">
      <ele>1076.39</ele>
      <time>2021-10-12T14:47:39Z</time>
    </trkpt>
    <trkpt lat="38.655715026" lon="34.899547007">
      <ele>1075.984</ele>
      <time>2021-10-12T14:47:40Z</time>
    </trkpt>
    <trkpt lat="38.655708991" lon="34.899594029">
      <ele>1075.58</ele>
      <time>2021-10-12T14:47:42Z</time>
    </trkpt>
    <trkpt lat="38.655701028" lon="34.899639962">
      <ele>1075.163</ele>
      <time>2021-10-12T14:47:43Z</time>
    </trkpt>
    <trkpt lat="38.655686025" lon="34.899686985">
      <ele>1074.663</ele>
      <time>2021-10-12T14:47:44Z</time>
    </trkpt>
    <trkpt lat="38.655669009" lon="34.899731996">
      <ele>1074.19</ele>
      <time>2021-10-12T14:47:46Z</time>
    </trkpt>
    <trkpt lat="38.655648977" lon="34.899769966">
      <ele>1073.837</ele>
      <time>2021-10-12T14:47:47Z</time>
    </trkpt>
    <trkpt lat="38.655628022" lon="34.899809025">
      <ele>1073.47</ele>
      <time>2021-10-12T14:47:49Z</time>
    </trkpt>
    <trkpt lat="38.655604972" lon="34.899848001">
      <ele>1073.081</ele>
      <time>2021-10-12T14:47:50Z</time>
    </trkpt>
    <trkpt lat="38.655585023" lon="34.899886977">
      <ele>1072.725</ele>
      <time>2021-10-12T14:47:51Z</time>
    </trkpt>
    <trkpt lat="38.655561972" lon="34.89992897">
      <ele>1072.325</ele>
      <time>2021-10-12T14:47:53Z</time>
    </trkpt>
    <trkpt lat="38.655538" lon="34.89996803">
      <ele>1071.862</ele>
      <time>2021-10-12T14:47:54Z</time>
    </trkpt>
    <trkpt lat="38.655515034" lon="34.900007006">
      <ele>1071.416</ele>
      <time>2021-10-12T14:47:56Z</time>
    </trkpt>
    <trkpt lat="38.655487038" lon="34.900042964">
      <ele>1071.013</ele>
      <time>2021-10-12T14:47:57Z</time>
    </trkpt>
    <trkpt lat="38.655462982" lon="34.900080012">
      <ele>1070.667</ele>
      <time>2021-10-12T14:47:59Z</time>
    </trkpt>
    <trkpt lat="38.655441022" lon="34.900116976">
      <ele>1070.351</ele>
      <time>2021-10-12T14:48:00Z</time>
    </trkpt>
    <trkpt lat="38.655423" lon="34.900153019">
      <ele>1070.091</ele>
      <time>2021-10-12T14:48:01Z</time>
    </trkpt>
    <trkpt lat="38.655401962" lon="34.900196018">
      <ele>1069.788</ele>
      <time>2021-10-12T14:48:03Z</time>
    </trkpt>
    <trkpt lat="38.655383019" lon="34.900233988">
      <ele>1069.515</ele>
      <time>2021-10-12T14:48:04Z</time>
    </trkpt>
    <trkpt lat="38.655368015" lon="34.900273969">
      <ele>1069.299</ele>
      <time>2021-10-12T14:48:05Z</time>
    </trkpt>
    <trkpt lat="38.655357035" lon="34.900317974">
      <ele>1069.141</ele>
      <time>2021-10-12T14:48:07Z</time>
    </trkpt>
    <trkpt lat="38.655345971" lon="34.900362985">
      <ele>1068.982</ele>
      <time>2021-10-12T14:48:08Z</time>
    </trkpt>
    <trkpt lat="38.655335996" lon="34.900405984">
      <ele>1068.838</ele>
      <time>2021-10-12T14:48:09Z</time>
    </trkpt>
    <trkpt lat="38.655321999" lon="34.900448984">
      <ele>1068.637</ele>
      <time>2021-10-12T14:48:11Z</time>
    </trkpt>
    <trkpt lat="38.655305989" lon="34.900495">
      <ele>1068.406</ele>
      <time>2021-10-12T14:48:12Z</time>
    </trkpt>
    <trkpt lat="38.655290985" lon="34.900544034">
      <ele>1068.19</ele>
      <time>2021-10-12T14:48:14Z</time>
    </trkpt>
    <trkpt lat="38.655278999" lon="34.900588961">
      <ele>1068.018</ele>
      <time>2021-10-12T14:48:15Z</time>
    </trkpt>
    <trkpt lat="38.655270031" lon="34.900634978">
      <ele>1067.896</ele>
      <time>2021-10-12T14:48:16Z</time>
    </trkpt>
    <trkpt lat="38.655257961" lon="34.900682">
      <ele>1067.747</ele>
      <time>2021-10-12T14:48:18Z</time>
    </trkpt>
    <trkpt lat="38.655253015" lon="34.900725">
      <ele>1067.698</ele>
      <time>2021-10-12T14:48:19Z</time>
    </trkpt>
    <trkpt lat="38.655245975" lon="34.900766993">
      <ele>1067.629</ele>
      <time>2021-10-12T14:48:20Z</time>
    </trkpt>
    <trkpt lat="38.655236" lon="34.900806975">
      <ele>1067.535</ele>
      <time>2021-10-12T14:48:21Z</time>
    </trkpt>
    <trkpt lat="38.655217979" lon="34.90085098">
      <ele>1067.354</ele>
      <time>2021-10-12T14:48:23Z</time>
    </trkpt>
    <trkpt lat="38.655196019" lon="34.900893979">
      <ele>1067.117</ele>
      <time>2021-10-12T14:48:24Z</time>
    </trkpt>
    <trkpt lat="38.655173974" lon="34.900927003">
      <ele>1066.879</ele>
      <time>2021-10-12T14:48:26Z</time>
    </trkpt>
    <trkpt lat="38.65514799" lon="34.900961034">
      <ele>1066.598</ele>
      <time>2021-10-12T14:48:27Z</time>
    </trkpt>
    <trkpt lat="38.655118989" lon="34.900991041">
      <ele>1066.285</ele>
      <time>2021-10-12T14:48:28Z</time>
    </trkpt>
    <trkpt lat="38.655090993" lon="34.901015013">
      <ele>1065.983</ele>
      <time>2021-10-12T14:48:30Z</time>
    </trkpt>
    <trkpt lat="38.655060986" lon="34.901043009">
      <ele>1065.659</ele>
      <time>2021-10-12T14:48:31Z</time>
    </trkpt>
    <trkpt lat="38.655031985" lon="34.901074022">
      <ele>1065.345</ele>
      <time>2021-10-12T14:48:32Z</time>
    </trkpt>
    <trkpt lat="38.655002983" lon="34.901106041">
      <ele>1065.032</ele>
      <time>2021-10-12T14:48:34Z</time>
    </trkpt>
    <trkpt lat="38.654973982" lon="34.901137976">
      <ele>1064.722</ele>
      <time>2021-10-12T14:48:35Z</time>
    </trkpt>
    <trkpt lat="38.654947998" lon="34.901167983">
      <ele>1064.456</ele>
      <time>2021-10-12T14:48:37Z</time>
    </trkpt>
    <trkpt lat="38.654920002" lon="34.901200002">
      <ele>1064.168</ele>
      <time>2021-10-12T14:48:38Z</time>
    </trkpt>
    <trkpt lat="38.65489603" lon="34.901231015">
      <ele>1063.934</ele>
      <time>2021-10-12T14:48:39Z</time>
    </trkpt>
    <trkpt lat="38.654869962" lon="34.901266973">
      <ele>1063.689</ele>
      <time>2021-10-12T14:48:41Z</time>
    </trkpt>
    <trkpt lat="38.654839033" lon="34.901307039">
      <ele>1063.387</ele>
      <time>2021-10-12T14:48:42Z</time>
    </trkpt>
    <trkpt lat="38.654813971" lon="34.901341991">
      <ele>1063.152</ele>
      <time>2021-10-12T14:48:44Z</time>
    </trkpt>
    <trkpt lat="38.654786982" lon="34.901375016">
      <ele>1062.883</ele>
      <time>2021-10-12T14:48:45Z</time>
    </trkpt>
    <trkpt lat="38.654766027" lon="34.901407035">
      <ele>1062.751</ele>
      <time>2021-10-12T14:48:46Z</time>
    </trkpt>
    <trkpt lat="38.654741971" lon="34.901435031">
      <ele>1062.605</ele>
      <time>2021-10-12T14:48:47Z</time>
    </trkpt>
    <trkpt lat="38.654716993" lon="34.901467972">
      <ele>1062.494</ele>
      <time>2021-10-12T14:48:49Z</time>
    </trkpt>
    <trkpt lat="38.654691009" lon="34.90150502">
      <ele>1062.387</ele>
      <time>2021-10-12T14:48:50Z</time>
    </trkpt>
    <trkpt lat="38.654670976" lon="34.901539972">
      <ele>1062.35</ele>
      <time>2021-10-12T14:48:51Z</time>
    </trkpt>
    <trkpt lat="38.654647004" lon="34.901574003">
      <ele>1062.25</ele>
      <time>2021-10-12T14:48:53Z</time>
    </trkpt>
    <trkpt lat="38.654624959" lon="34.901607027">
      <ele>1062.17</ele>
      <time>2021-10-12T14:48:54Z</time>
    </trkpt>
    <trkpt lat="38.654602999" lon="34.90163804">
      <ele>1062.077</ele>
      <time>2021-10-12T14:48:55Z</time>
    </trkpt>
    <trkpt lat="38.654577015" lon="34.901669975">
      <ele>1061.903</ele>
      <time>2021-10-12T14:48:57Z</time>
    </trkpt>
    <trkpt lat="38.654549019" lon="34.901704006">
      <ele>1061.455</ele>
      <time>2021-10-12T14:48:58Z</time>
    </trkpt>
    <trkpt lat="38.654520018" lon="34.901737031">
      <ele>1061.019</ele>
      <time>2021-10-12T14:48:59Z</time>
    </trkpt>
    <trkpt lat="38.654494034" lon="34.901770977">
      <ele>1060.647</ele>
      <time>2021-10-12T14:49:01Z</time>
    </trkpt>
    <trkpt lat="38.654469978" lon="34.901806014">
      <ele>1060.322</ele>
      <time>2021-10-12T14:49:02Z</time>
    </trkpt>
    <trkpt lat="38.654446006" lon="34.901839038">
      <ele>1060.019</ele>
      <time>2021-10-12T14:49:04Z</time>
    </trkpt>
    <trkpt lat="38.654421028" lon="34.901869968">
      <ele>1059.747</ele>
      <time>2021-10-12T14:49:05Z</time>
    </trkpt>
    <trkpt lat="38.654392026" lon="34.901902992">
      <ele>1059.434</ele>
      <time>2021-10-12T14:49:06Z</time>
    </trkpt>
    <trkpt lat="38.654365037" lon="34.90192797">
      <ele>1059.142</ele>
      <time>2021-10-12T14:49:07Z</time>
    </trkpt>
    <trkpt lat="38.654337963" lon="34.901950015">
      <ele>1058.838</ele>
      <time>2021-10-12T14:49:09Z</time>
    </trkpt>
    <trkpt lat="38.65430804" lon="34.901972981">
      <ele>1058.475</ele>
      <time>2021-10-12T14:49:10Z</time>
    </trkpt>
    <trkpt lat="38.654277027" lon="34.90199402">
      <ele>1058.121</ele>
      <time>2021-10-12T14:49:11Z</time>
    </trkpt>
    <trkpt lat="38.654244002" lon="34.902012041">
      <ele>1057.767</ele>
      <time>2021-10-12T14:49:13Z</time>
    </trkpt>
    <trkpt lat="38.654209971" lon="34.902030984">
      <ele>1057.419</ele>
      <time>2021-10-12T14:49:14Z</time>
    </trkpt>
    <trkpt lat="38.654177031" lon="34.902049005">
      <ele>1057.098</ele>
      <time>2021-10-12T14:49:15Z</time>
    </trkpt>
    <trkpt lat="38.654145012" lon="34.902072977">
      <ele>1056.844</ele>
      <time>2021-10-12T14:49:17Z</time>
    </trkpt>
    <trkpt lat="38.654110981" lon="34.902098961">
      <ele>1056.599</ele>
      <time>2021-10-12T14:49:18Z</time>
    </trkpt>
    <trkpt lat="38.654075023" lon="34.902131986">
      <ele>1056.34</ele>
      <time>2021-10-12T14:49:20Z</time>
    </trkpt>
    <trkpt lat="38.654045016" lon="34.902167022">
      <ele>1056.124</ele>
      <time>2021-10-12T14:49:21Z</time>
    </trkpt>
    <trkpt lat="38.654014003" lon="34.90220801">
      <ele>1055.901</ele>
      <time>2021-10-12T14:49:23Z</time>
    </trkpt>
    <trkpt lat="38.65399003" lon="34.902246986">
      <ele>1055.696</ele>
      <time>2021-10-12T14:49:24Z</time>
    </trkpt>
    <trkpt lat="38.653967986" lon="34.902290991">
      <ele>1055.499</ele>
      <time>2021-10-12T14:49:26Z</time>
    </trkpt>
    <trkpt lat="38.653948037" lon="34.902332984">
      <ele>1055.341</ele>
      <time>2021-10-12T14:49:27Z</time>
    </trkpt>
    <trkpt lat="38.653930016" lon="34.902371038">
      <ele>1055.217</ele>
      <time>2021-10-12T14:49:29Z</time>
    </trkpt>
    <trkpt lat="38.653909983" lon="34.902408002">
      <ele>1055.101</ele>
      <time>2021-10-12T14:49:30Z</time>
    </trkpt>
    <trkpt lat="38.653886011" lon="34.902439015">
      <ele>1054.979</ele>
      <time>2021-10-12T14:49:31Z</time>
    </trkpt>
    <trkpt lat="38.653857009" lon="34.902467011">
      <ele>1054.77</ele>
      <time>2021-10-12T14:49:33Z</time>
    </trkpt>
    <trkpt lat="38.653824991" lon="34.902492994">
      <ele>1054.54</ele>
      <time>2021-10-12T14:49:34Z</time>
    </trkpt>
    <trkpt lat="38.653793978" lon="34.902521996">
      <ele>1054.396</ele>
      <time>2021-10-12T14:49:35Z</time>
    </trkpt>
    <trkpt lat="38.653759025" lon="34.902552003">
      <ele>1054.252</ele>
      <time>2021-10-12T14:49:37Z</time>
    </trkpt>
    <trkpt lat="38.653727006" lon="34.902584022">
      <ele>1054.137</ele>
      <time>2021-10-12T14:49:38Z</time>
    </trkpt>
    <trkpt lat="38.653693981" lon="34.902616963">
      <ele>1054.018</ele>
      <time>2021-10-12T14:49:40Z</time>
    </trkpt>
    <trkpt lat="38.65366498" lon="34.902648982">
      <ele>1053.924</ele>
      <time>2021-10-12T14:49:41Z</time>
    </trkpt>
    <trkpt lat="38.653636985" lon="34.902677983">
      <ele>1053.827</ele>
      <time>2021-10-12T14:49:43Z</time>
    </trkpt>
    <trkpt lat="38.653607983" lon="34.902703967">
      <ele>1053.726</ele>
      <time>2021-10-12T14:49:44Z</time>
    </trkpt>
    <trkpt lat="38.653577976" lon="34.902725006">
      <ele>1053.713</ele>
      <time>2021-10-12T14:49:45Z</time>
    </trkpt>
    <trkpt lat="38.653547969" lon="34.90274596">
      <ele>1053.684</ele>
      <time>2021-10-12T14:49:47Z</time>
    </trkpt>
    <trkpt lat="38.653521985" lon="34.902765993">
      <ele>1053.65</ele>
      <time>2021-10-12T14:49:48Z</time>
    </trkpt>
    <trkpt lat="38.653492983" lon="34.90278502">
      <ele>1053.575</ele>
      <time>2021-10-12T14:49:49Z</time>
    </trkpt>
    <trkpt lat="38.653469011" lon="34.902803963">
      <ele>1053.488</ele>
      <time>2021-10-12T14:49:50Z</time>
    </trkpt>
    <trkpt lat="38.653443027" lon="34.90282299">
      <ele>1053.395</ele>
      <time>2021-10-12T14:49:51Z</time>
    </trkpt>
    <trkpt lat="38.653414026" lon="34.902840005">
      <ele>1053.29</ele>
      <time>2021-10-12T14:49:52Z</time>
    </trkpt>
    <trkpt lat="38.653387958" lon="34.902863977">
      <ele>1053.197</ele>
      <time>2021-10-12T14:49:53Z</time>
    </trkpt>
    <trkpt lat="38.653361974" lon="34.90288401">
      <ele>1053.103</ele>
      <time>2021-10-12T14:49:55Z</time>
    </trkpt>
    <trkpt lat="38.653332973" lon="34.902906977">
      <ele>1053.001</ele>
      <time>2021-10-12T14:49:56Z</time>
    </trkpt>
    <trkpt lat="38.653302966" lon="34.902927009">
      <ele>1053.051</ele>
      <time>2021-10-12T14:49:57Z</time>
    </trkpt>
    <trkpt lat="38.653272958" lon="34.902946958">
      <ele>1053.085</ele>
      <time>2021-10-12T14:49:58Z</time>
    </trkpt>
    <trkpt lat="38.653243035" lon="34.902961962">
      <ele>1053.11</ele>
      <time>2021-10-12T14:49:59Z</time>
    </trkpt>
    <trkpt lat="38.653209005" lon="34.902980989">
      <ele>1053.12</ele>
      <time>2021-10-12T14:50:01Z</time>
    </trkpt>
    <trkpt lat="38.653178997" lon="34.902998004">
      <ele>1053.115</ele>
      <time>2021-10-12T14:50:02Z</time>
    </trkpt>
    <trkpt lat="38.653152008" lon="34.903007979">
      <ele>1053.112</ele>
      <time>2021-10-12T14:50:03Z</time>
    </trkpt>
    <trkpt lat="38.653123006" lon="34.903023988">
      <ele>1053.086</ele>
      <time>2021-10-12T14:50:04Z</time>
    </trkpt>
    <trkpt lat="38.653092999" lon="34.903039997">
      <ele>1053.048</ele>
      <time>2021-10-12T14:50:05Z</time>
    </trkpt>
    <trkpt lat="38.653061986" lon="34.903057013">
      <ele>1052.995</ele>
      <time>2021-10-12T14:50:07Z</time>
    </trkpt>
    <trkpt lat="38.653029967" lon="34.903074028">
      <ele>1053.118</ele>
      <time>2021-10-12T14:50:08Z</time>
    </trkpt>
    <trkpt lat="38.65299602" lon="34.903090959">
      <ele>1053.301</ele>
      <time>2021-10-12T14:50:09Z</time>
    </trkpt>
    <trkpt lat="38.652964002" lon="34.903107975">
      <ele>1053.47</ele>
      <time>2021-10-12T14:50:11Z</time>
    </trkpt>
    <trkpt lat="38.652930977" lon="34.903127002">
      <ele>1053.64</ele>
      <time>2021-10-12T14:50:12Z</time>
    </trkpt>
    <trkpt lat="38.652899042" lon="34.903146029">
      <ele>1053.801</ele>
      <time>2021-10-12T14:50:13Z</time>
    </trkpt>
    <trkpt lat="38.65287004" lon="34.903164972">
      <ele>1053.942</ele>
      <time>2021-10-12T14:50:15Z</time>
    </trkpt>
    <trkpt lat="38.652839027" lon="34.903188022">
      <ele>1054.082</ele>
      <time>2021-10-12T14:50:16Z</time>
    </trkpt>
    <trkpt lat="38.652810026" lon="34.903209982">
      <ele>1054.212</ele>
      <time>2021-10-12T14:50:17Z</time>
    </trkpt>
    <trkpt lat="38.652780019" lon="34.903229009">
      <ele>1054.359</ele>
      <time>2021-10-12T14:50:18Z</time>
    </trkpt>
    <trkpt lat="38.652752023" lon="34.90324703">
      <ele>1054.403</ele>
      <time>2021-10-12T14:50:19Z</time>
    </trkpt>
    <trkpt lat="38.652722016" lon="34.903263962">
      <ele>1054.45</ele>
      <time>2021-10-12T14:50:21Z</time>
    </trkpt>
    <trkpt lat="38.65269402" lon="34.903280977">
      <ele>1054.49</ele>
      <time>2021-10-12T14:50:22Z</time>
    </trkpt>
    <trkpt lat="38.652664013" lon="34.903298998">
      <ele>1054.533</ele>
      <time>2021-10-12T14:50:23Z</time>
    </trkpt>
    <trkpt lat="38.652635012" lon="34.903317019">
      <ele>1054.573</ele>
      <time>2021-10-12T14:50:24Z</time>
    </trkpt>
    <trkpt lat="38.652605005" lon="34.903333029">
      <ele>1054.623</ele>
      <time>2021-10-12T14:50:25Z</time>
    </trkpt>
    <trkpt lat="38.652573992" lon="34.903346021">
      <ele>1054.688</ele>
      <time>2021-10-12T14:50:27Z</time>
    </trkpt>
    <trkpt lat="38.652542979" lon="34.90336203">
      <ele>1054.742</ele>
      <time>2021-10-12T14:50:28Z</time>
    </trkpt>
    <trkpt lat="38.652513977" lon="34.903377034">
      <ele>1054.792</ele>
      <time>2021-10-12T14:50:29Z</time>
    </trkpt>
    <trkpt lat="38.652485982" lon="34.903395977">
      <ele>1054.836</ele>
      <time>2021-10-12T14:50:30Z</time>
    </trkpt>
    <trkpt lat="38.652462009" lon="34.903411986">
      <ele>1054.892</ele>
      <time>2021-10-12T14:50:31Z</time>
    </trkpt>
    <trkpt lat="38.652436025" lon="34.903430007">
      <ele>1054.962</ele>
      <time>2021-10-12T14:50:32Z</time>
    </trkpt>
    <trkpt lat="38.652412975" lon="34.903446017">
      <ele>1055.035</ele>
      <time>2021-10-12T14:50:33Z</time>
    </trkpt>
    <trkpt lat="38.652390009" lon="34.90346102">
      <ele>1055.118</ele>
      <time>2021-10-12T14:50:34Z</time>
    </trkpt>
    <trkpt lat="38.652358996" lon="34.903479042">
      <ele>1055.249</ele>
      <time>2021-10-12T14:50:36Z</time>
    </trkpt>
    <trkpt lat="38.652334018" lon="34.903496979">
      <ele>1055.36</ele>
      <time>2021-10-12T14:50:37Z</time>
    </trkpt>
    <trkpt lat="38.652309962" lon="34.903515">
      <ele>1055.478</ele>
      <time>2021-10-12T14:50:38Z</time>
    </trkpt>
    <trkpt lat="38.652289007" lon="34.903533021">
      <ele>1055.587</ele>
      <time>2021-10-12T14:50:39Z</time>
    </trkpt>
    <trkpt lat="38.652268974" lon="34.903551964">
      <ele>1055.699</ele>
      <time>2021-10-12T14:50:39Z</time>
    </trkpt>
    <trkpt lat="38.652251959" lon="34.903570991">
      <ele>1055.801</ele>
      <time>2021-10-12T14:50:40Z</time>
    </trkpt>
    <trkpt lat="38.652236033" lon="34.903588006">
      <ele>1055.905</ele>
      <time>2021-10-12T14:50:41Z</time>
    </trkpt>
    <trkpt lat="38.652220024" lon="34.903600998">
      <ele>1056.008</ele>
      <time>2021-10-12T14:50:42Z</time>
    </trkpt>
    <trkpt lat="38.652200997" lon="34.90361399">
      <ele>1056.076</ele>
      <time>2021-10-12T14:50:43Z</time>
    </trkpt>
    <trkpt lat="38.65218197" lon="34.903623965">
      <ele>1056.138</ele>
      <time>2021-10-12T14:50:43Z</time>
    </trkpt>
    <trkpt lat="38.652162021" lon="34.90363704">
      <ele>1056.196</ele>
      <time>2021-10-12T14:50:44Z</time>
    </trkpt>
    <trkpt lat="38.652145006" lon="34.903653972">
      <ele>1056.235</ele>
      <time>2021-10-12T14:50:45Z</time>
    </trkpt>
    <trkpt lat="38.652123967" lon="34.903666964">
      <ele>1056.283</ele>
      <time>2021-10-12T14:50:46Z</time>
    </trkpt>
    <trkpt lat="38.652105024" lon="34.903678028">
      <ele>1056.32</ele>
      <time>2021-10-12T14:50:47Z</time>
    </trkpt>
    <trkpt lat="38.65208298" lon="34.903683979">
      <ele>1056.37</ele>
      <time>2021-10-12T14:50:47Z</time>
    </trkpt>
    <trkpt lat="38.652061019" lon="34.903694037">
      <ele>1056.407</ele>
      <time>2021-10-12T14:50:48Z</time>
    </trkpt>
    <trkpt lat="38.652039981" lon="34.903706023">
      <ele>1056.432</ele>
      <time>2021-10-12T14:50:49Z</time>
    </trkpt>
    <trkpt lat="38.652013997" lon="34.903720021">
      <ele>1056.456</ele>
      <time>2021-10-12T14:50:50Z</time>
    </trkpt>
    <trkpt lat="38.65199497" lon="34.903734019">
      <ele>1056.456</ele>
      <time>2021-10-12T14:50:51Z</time>
    </trkpt>
    <trkpt lat="38.651973009" lon="34.903749023">
      <ele>1056.452</ele>
      <time>2021-10-12T14:50:52Z</time>
    </trkpt>
    <trkpt lat="38.651949959" lon="34.903761009">
      <ele>1056.451</ele>
      <time>2021-10-12T14:50:53Z</time>
    </trkpt>
    <trkpt lat="38.65191903" lon="34.903775007">
      <ele>1056.372</ele>
      <time>2021-10-12T14:50:54Z</time>
    </trkpt>
    <trkpt lat="38.651889022" lon="34.90379001">
      <ele>1056.285</ele>
      <time>2021-10-12T14:50:55Z</time>
    </trkpt>
    <trkpt lat="38.651853986" lon="34.903803002">
      <ele>1056.209</ele>
      <time>2021-10-12T14:50:57Z</time>
    </trkpt>
    <trkpt lat="38.651820961" lon="34.903817">
      <ele>1056.144</ele>
      <time>2021-10-12T14:50:58Z</time>
    </trkpt>
    <trkpt lat="38.651790032" lon="34.90382798">
      <ele>1056.097</ele>
      <time>2021-10-12T14:50:59Z</time>
    </trkpt>
    <trkpt lat="38.651758013" lon="34.903833009">
      <ele>1056.066</ele>
      <time>2021-10-12T14:51:00Z</time>
    </trkpt>
    <trkpt lat="38.651721971" lon="34.903830998">
      <ele>1056.041</ele>
      <time>2021-10-12T14:51:02Z</time>
    </trkpt>
    <trkpt lat="38.651685007" lon="34.903832003">
      <ele>1056.014</ele>
      <time>2021-10-12T14:51:03Z</time>
    </trkpt>
    <trkpt lat="38.651647959" lon="34.903824041">
      <ele>1055.933</ele>
      <time>2021-10-12T14:51:04Z</time>
    </trkpt>
    <trkpt lat="38.651612001" lon="34.903818006">
      <ele>1055.803</ele>
      <time>2021-10-12T14:51:06Z</time>
    </trkpt>
    <trkpt lat="38.651580987" lon="34.903795039">
      <ele>1055.692</ele>
      <time>2021-10-12T14:51:07Z</time>
    </trkpt>
    <trkpt lat="38.651564978" lon="34.903764026">
      <ele>1055.634</ele>
      <time>2021-10-12T14:51:08Z</time>
    </trkpt>
    <trkpt lat="38.651562966" lon="34.903731002">
      <ele>1055.627</ele>
      <time>2021-10-12T14:51:09Z</time>
    </trkpt>
    <trkpt lat="38.651575958" lon="34.903696971">
      <ele>1055.673</ele>
      <time>2021-10-12T14:51:10Z</time>
    </trkpt>
    <trkpt lat="38.651593979" lon="34.903666964">
      <ele>1055.738</ele>
      <time>2021-10-12T14:51:11Z</time>
    </trkpt>
    <trkpt lat="38.651619041" lon="34.903639974">
      <ele>1055.829</ele>
      <time>2021-10-12T14:51:13Z</time>
    </trkpt>
    <trkpt lat="38.651645025" lon="34.903611979">
      <ele>1055.922</ele>
      <time>2021-10-12T14:51:14Z</time>
    </trkpt>
    <trkpt lat="38.651664974" lon="34.903585995">
      <ele>1056.085</ele>
      <time>2021-10-12T14:51:15Z</time>
    </trkpt>
    <trkpt lat="38.651681989" lon="34.903556993">
      <ele>1056.239</ele>
      <time>2021-10-12T14:51:16Z</time>
    </trkpt>
    <trkpt lat="38.651697999" lon="34.903526986">
      <ele>1056.381</ele>
      <time>2021-10-12T14:51:17Z</time>
    </trkpt>
    <trkpt lat="38.651707973" lon="34.903496979">
      <ele>1056.498</ele>
      <time>2021-10-12T14:51:18Z</time>
    </trkpt>
    <trkpt lat="38.651718032" lon="34.903469989">
      <ele>1056.599</ele>
      <time>2021-10-12T14:51:19Z</time>
    </trkpt>
    <trkpt lat="38.651732029" lon="34.903433025">
      <ele>1056.726</ele>
      <time>2021-10-12T14:51:20Z</time>
    </trkpt>
    <trkpt lat="38.651740998" lon="34.903404023">
      <ele>1056.814</ele>
      <time>2021-10-12T14:51:21Z</time>
    </trkpt>
    <trkpt lat="38.651748961" lon="34.903370999">
      <ele>1056.905</ele>
      <time>2021-10-12T14:51:22Z</time>
    </trkpt>
    <trkpt lat="38.651758013" lon="34.903332023">
      <ele>1057.005</ele>
      <time>2021-10-12T14:51:23Z</time>
    </trkpt>
    <trkpt lat="38.65176497" lon="34.903292963">
      <ele>1057.145</ele>
      <time>2021-10-12T14:51:24Z</time>
    </trkpt>
    <trkpt lat="38.651776034" lon="34.903262034">
      <ele>1057.257</ele>
      <time>2021-10-12T14:51:25Z</time>
    </trkpt>
    <trkpt lat="38.651787015" lon="34.903232027">
      <ele>1057.365</ele>
      <time>2021-10-12T14:51:26Z</time>
    </trkpt>
    <trkpt lat="38.651803024" lon="34.90320202">
      <ele>1057.473</ele>
      <time>2021-10-12T14:51:27Z</time>
    </trkpt>
    <trkpt lat="38.651824985" lon="34.903171007">
      <ele>1057.584</ele>
      <time>2021-10-12T14:51:28Z</time>
    </trkpt>
    <trkpt lat="38.651848035" lon="34.903145023">
      <ele>1057.678</ele>
      <time>2021-10-12T14:51:30Z</time>
    </trkpt>
    <trkpt lat="38.651867984" lon="34.903120967">
      <ele>1057.765</ele>
      <time>2021-10-12T14:51:31Z</time>
    </trkpt>
    <trkpt lat="38.651889022" lon="34.903098">
      <ele>1057.847</ele>
      <time>2021-10-12T14:51:32Z</time>
    </trkpt>
    <trkpt lat="38.651907966" lon="34.903075034">
      <ele>1057.93</ele>
      <time>2021-10-12T14:51:33Z</time>
    </trkpt>
    <trkpt lat="38.651926992" lon="34.903051984">
      <ele>1058.013</ele>
      <time>2021-10-12T14:51:34Z</time>
    </trkpt>
    <trkpt lat="38.651948031" lon="34.903026">
      <ele>1058.082</ele>
      <time>2021-10-12T14:51:35Z</time>
    </trkpt>
    <trkpt lat="38.651969992" lon="34.903004039">
      <ele>1058.019</ele>
      <time>2021-10-12T14:51:36Z</time>
    </trkpt>
    <trkpt lat="38.65199497" lon="34.902979983">
      <ele>1057.958</ele>
      <time>2021-10-12T14:51:37Z</time>
    </trkpt>
    <trkpt lat="38.652017014" lon="34.902950982">
      <ele>1057.952</ele>
      <time>2021-10-12T14:51:38Z</time>
    </trkpt>
    <trkpt lat="38.652036963" lon="34.902920974">
      <ele>1057.98</ele>
      <time>2021-10-12T14:51:39Z</time>
    </trkpt>
    <trkpt lat="38.652051967" lon="34.902891973">
      <ele>1058.043</ele>
      <time>2021-10-12T14:51:40Z</time>
    </trkpt>
    <trkpt lat="38.652067976" lon="34.902856015">
      <ele>1058.148</ele>
      <time>2021-10-12T14:51:41Z</time>
    </trkpt>
    <trkpt lat="38.652085997" lon="34.902817961">
      <ele>1058.272</ele>
      <time>2021-10-12T14:51:43Z</time>
    </trkpt>
    <trkpt lat="38.652104018" lon="34.902782002">
      <ele>1058.402</ele>
      <time>2021-10-12T14:51:44Z</time>
    </trkpt>
    <trkpt lat="38.652120028" lon="34.902745038">
      <ele>1058.486</ele>
      <time>2021-10-12T14:51:45Z</time>
    </trkpt>
    <trkpt lat="38.652138971" lon="34.902704973">
      <ele>1058.562</ele>
      <time>2021-10-12T14:51:46Z</time>
    </trkpt>
    <trkpt lat="38.652157998" lon="34.902663985">
      <ele>1058.641</ele>
      <time>2021-10-12T14:51:48Z</time>
    </trkpt>
    <trkpt lat="38.652176019" lon="34.902629033">
      <ele>1058.702</ele>
      <time>2021-10-12T14:51:49Z</time>
    </trkpt>
    <trkpt lat="38.652193034" lon="34.902596008">
      <ele>1058.759</ele>
      <time>2021-10-12T14:51:50Z</time>
    </trkpt>
    <trkpt lat="38.652216" lon="34.902560972">
      <ele>1058.803</ele>
      <time>2021-10-12T14:51:51Z</time>
    </trkpt>
    <trkpt lat="38.652234022" lon="34.902529959">
      <ele>1058.85</ele>
      <time>2021-10-12T14:51:53Z</time>
    </trkpt>
    <trkpt lat="38.652250031" lon="34.902500035">
      <ele>1058.9</ele>
      <time>2021-10-12T14:51:54Z</time>
    </trkpt>
    <trkpt lat="38.65226604" lon="34.902469022">
      <ele>1058.954</ele>
      <time>2021-10-12T14:51:55Z</time>
    </trkpt>
    <trkpt lat="38.652280038" lon="34.902438009">
      <ele>1059.015</ele>
      <time>2021-10-12T14:51:56Z</time>
    </trkpt>
    <trkpt lat="38.652292024" lon="34.902412025">
      <ele>1059.065</ele>
      <time>2021-10-12T14:51:57Z</time>
    </trkpt>
    <trkpt lat="38.652308034" lon="34.902383024">
      <ele>1059.112</ele>
      <time>2021-10-12T14:51:58Z</time>
    </trkpt>
    <trkpt lat="38.652323037" lon="34.902348993">
      <ele>1059.181</ele>
      <time>2021-10-12T14:51:59Z</time>
    </trkpt>
    <trkpt lat="38.652338963" lon="34.902314041">
      <ele>1059.249</ele>
      <time>2021-10-12T14:52:00Z</time>
    </trkpt>
    <trkpt lat="38.652350027" lon="34.902284034">
      <ele>1059.317</ele>
      <time>2021-10-12T14:52:01Z</time>
    </trkpt>
    <trkpt lat="38.652361007" lon="34.902258972">
      <ele>1059.368</ele>
      <time>2021-10-12T14:52:02Z</time>
    </trkpt>
    <trkpt lat="38.652377017" lon="34.902227959">
      <ele>1059.422</ele>
      <time>2021-10-12T14:52:03Z</time>
    </trkpt>
    <trkpt lat="38.652390009" lon="34.902198035">
      <ele>1059.449</ele>
      <time>2021-10-12T14:52:04Z</time>
    </trkpt>
    <trkpt lat="38.652397972" lon="34.902166016">
      <ele>1059.495</ele>
      <time>2021-10-12T14:52:05Z</time>
    </trkpt>
    <trkpt lat="38.652400989" lon="34.902131986">
      <ele>1059.566</ele>
      <time>2021-10-12T14:52:06Z</time>
    </trkpt>
    <trkpt lat="38.65239596" lon="34.902098039">
      <ele>1059.654</ele>
      <time>2021-10-12T14:52:07Z</time>
    </trkpt>
    <trkpt lat="38.652393026" lon="34.902063003">
      <ele>1059.738</ele>
      <time>2021-10-12T14:52:08Z</time>
    </trkpt>
    <trkpt lat="38.652386991" lon="34.902030984">
      <ele>1059.815</ele>
      <time>2021-10-12T14:52:09Z</time>
    </trkpt>
    <trkpt lat="38.652375005" lon="34.901996031">
      <ele>1059.898</ele>
      <time>2021-10-12T14:52:10Z</time>
    </trkpt>
    <trkpt lat="38.652362013" lon="34.901964013">
      <ele>1059.965</ele>
      <time>2021-10-12T14:52:11Z</time>
    </trkpt>
    <trkpt lat="38.652349021" lon="34.901938029">
      <ele>1060.034</ele>
      <time>2021-10-12T14:52:12Z</time>
    </trkpt>
    <trkpt lat="38.652327983" lon="34.901910033">
      <ele>1060.171</ele>
      <time>2021-10-12T14:52:13Z</time>
    </trkpt>
    <trkpt lat="38.652303005" lon="34.901881032">
      <ele>1060.295</ele>
      <time>2021-10-12T14:52:14Z</time>
    </trkpt>
    <trkpt lat="38.652275009" lon="34.901860999">
      <ele>1060.357</ele>
      <time>2021-10-12T14:52:15Z</time>
    </trkpt>
    <trkpt lat="38.652249025" lon="34.90183996">
      <ele>1060.412</ele>
      <time>2021-10-12T14:52:17Z</time>
    </trkpt>
    <trkpt lat="38.652223963" lon="34.901812971">
      <ele>1060.476</ele>
      <time>2021-10-12T14:52:18Z</time>
    </trkpt>
    <trkpt lat="38.65220502" lon="34.901779024">
      <ele>1060.559</ele>
      <time>2021-10-12T14:52:19Z</time>
    </trkpt>
    <trkpt lat="38.652192028" lon="34.901749017">
      <ele>1060.627</ele>
      <time>2021-10-12T14:52:20Z</time>
    </trkpt>
    <trkpt lat="38.652188005" lon="34.901712975">
      <ele>1060.731</ele>
      <time>2021-10-12T14:52:21Z</time>
    </trkpt>
    <trkpt lat="38.652190017" lon="34.901677016">
      <ele>1060.851</ele>
      <time>2021-10-12T14:52:22Z</time>
    </trkpt>
    <trkpt lat="38.652194962" lon="34.901642986">
      <ele>1061.072</ele>
      <time>2021-10-12T14:52:23Z</time>
    </trkpt>
    <trkpt lat="38.65220502" lon="34.901606021">
      <ele>1061.375</ele>
      <time>2021-10-12T14:52:24Z</time>
    </trkpt>
    <trkpt lat="38.652217006" lon="34.901568973">
      <ele>1061.685</ele>
      <time>2021-10-12T14:52:25Z</time>
    </trkpt>
    <trkpt lat="38.65223201" lon="34.901528992">
      <ele>1062.026</ele>
      <time>2021-10-12T14:52:27Z</time>
    </trkpt>
    <trkpt lat="38.652243996" lon="34.901486998">
      <ele>1062.372</ele>
      <time>2021-10-12T14:52:28Z</time>
    </trkpt>
    <trkpt lat="38.652257994" lon="34.901450034">
      <ele>1062.689</ele>
      <time>2021-10-12T14:52:29Z</time>
    </trkpt>
    <trkpt lat="38.652272997" lon="34.90141198">
      <ele>1063.017</ele>
      <time>2021-10-12T14:52:30Z</time>
    </trkpt>
    <trkpt lat="38.652289007" lon="34.901377028">
      <ele>1063.316</ele>
      <time>2021-10-12T14:52:32Z</time>
    </trkpt>
    <trkpt lat="38.652306022" lon="34.901344003">
      <ele>1063.576</ele>
      <time>2021-10-12T14:52:33Z</time>
    </trkpt>
    <trkpt lat="38.652324965" lon="34.901306033">
      <ele>1063.856</ele>
      <time>2021-10-12T14:52:34Z</time>
    </trkpt>
    <trkpt lat="38.652343992" lon="34.901272003">
      <ele>1064.095</ele>
      <time>2021-10-12T14:52:35Z</time>
    </trkpt>
    <trkpt lat="38.652366037" lon="34.901236966">
      <ele>1064.328</ele>
      <time>2021-10-12T14:52:37Z</time>
    </trkpt>
    <trkpt lat="38.652381962" lon="34.901206959">
      <ele>1064.508</ele>
      <time>2021-10-12T14:52:38Z</time>
    </trkpt>
    <trkpt lat="38.652396966" lon="34.901177036">
      <ele>1064.675</ele>
      <time>2021-10-12T14:52:39Z</time>
    </trkpt>
    <trkpt lat="38.652409036" lon="34.901145017">
      <ele>1064.838</ele>
      <time>2021-10-12T14:52:40Z</time>
    </trkpt>
    <trkpt lat="38.652418004" lon="34.90111501">
      <ele>1064.982</ele>
      <time>2021-10-12T14:52:41Z</time>
    </trkpt>
    <trkpt lat="38.652423033" lon="34.901083997">
      <ele>1065.125</ele>
      <time>2021-10-12T14:52:41Z</time>
    </trkpt>
    <trkpt lat="38.652427979" lon="34.901057007">
      <ele>1065.245</ele>
      <time>2021-10-12T14:52:42Z</time>
    </trkpt>
    <trkpt lat="38.652432002" lon="34.901032029">
      <ele>1065.354</ele>
      <time>2021-10-12T14:52:43Z</time>
    </trkpt>
    <trkpt lat="38.652439965" lon="34.901004033">
      <ele>1065.469</ele>
      <time>2021-10-12T14:52:44Z</time>
    </trkpt>
    <trkpt lat="38.652452035" lon="34.900975032">
      <ele>1065.574</ele>
      <time>2021-10-12T14:52:45Z</time>
    </trkpt>
    <trkpt lat="38.652467038" lon="34.900945025">
      <ele>1065.669</ele>
      <time>2021-10-12T14:52:46Z</time>
    </trkpt>
    <trkpt lat="38.652482964" lon="34.900918035">
      <ele>1065.738</ele>
      <time>2021-10-12T14:52:47Z</time>
    </trkpt>
    <trkpt lat="38.652500985" lon="34.90089599">
      <ele>1065.778</ele>
      <time>2021-10-12T14:52:48Z</time>
    </trkpt>
    <trkpt lat="38.652521018" lon="34.900877969">
      <ele>1065.915</ele>
      <time>2021-10-12T14:52:49Z</time>
    </trkpt>
    <trkpt lat="38.652541973" lon="34.900857015">
      <ele>1066.066</ele>
      <time>2021-10-12T14:52:50Z</time>
    </trkpt>
    <trkpt lat="38.652559994" lon="34.900841005">
      <ele>1066.188</ele>
      <time>2021-10-12T14:52:50Z</time>
    </trkpt>
    <trkpt lat="38.65258296" lon="34.900821978">
      <ele>1066.34</ele>
      <time>2021-10-12T14:52:51Z</time>
    </trkpt>
    <trkpt lat="38.652605005" lon="34.900806975">
      <ele>1066.473</ele>
      <time>2021-10-12T14:52:52Z</time>
    </trkpt>
    <trkpt lat="38.652626965" lon="34.900794988">
      <ele>1066.595</ele>
      <time>2021-10-12T14:52:53Z</time>
    </trkpt>
    <trkpt lat="38.652650015" lon="34.90078602">
      <ele>1066.71</ele>
      <time>2021-10-12T14:52:54Z</time>
    </trkpt>
    <trkpt lat="38.652671976" lon="34.900775962">
      <ele>1066.826</ele>
      <time>2021-10-12T14:52:55Z</time>
    </trkpt>
    <trkpt lat="38.652697038" lon="34.900763975">
      <ele>1066.959</ele>
      <time>2021-10-12T14:52:56Z</time>
    </trkpt>
    <trkpt lat="38.652722016" lon="34.900752995">
      <ele>1067.088</ele>
      <time>2021-10-12T14:52:57Z</time>
    </trkpt>
    <trkpt lat="38.652746994" lon="34.900741009">
      <ele>1067.222</ele>
      <time>2021-10-12T14:52:58Z</time>
    </trkpt>
    <trkpt lat="38.652769038" lon="34.900729023">
      <ele>1067.344</ele>
      <time>2021-10-12T14:52:59Z</time>
    </trkpt>
    <trkpt lat="38.652789993" lon="34.900717037">
      <ele>1067.437</ele>
      <time>2021-10-12T14:53:00Z</time>
    </trkpt>
    <trkpt lat="38.652812038" lon="34.900707984">
      <ele>1067.507</ele>
      <time>2021-10-12T14:53:01Z</time>
    </trkpt>
    <trkpt lat="38.652827963" lon="34.900695998">
      <ele>1067.584</ele>
      <time>2021-10-12T14:53:01Z</time>
    </trkpt>
    <trkpt lat="38.652844978" lon="34.900680995">
      <ele>1067.681</ele>
      <time>2021-10-12T14:53:02Z</time>
    </trkpt>
    <trkpt lat="38.652865011" lon="34.900660962">
      <ele>1067.815</ele>
      <time>2021-10-12T14:53:03Z</time>
    </trkpt>
    <trkpt lat="38.652881021" lon="34.900641013">
      <ele>1067.95</ele>
      <time>2021-10-12T14:53:04Z</time>
    </trkpt>
    <trkpt lat="38.652898036" lon="34.900618969">
      <ele>1068.106</ele>
      <time>2021-10-12T14:53:05Z</time>
    </trkpt>
    <trkpt lat="38.652915973" lon="34.90059902">
      <ele>1068.263</ele>
      <time>2021-10-12T14:53:06Z</time>
    </trkpt>
    <trkpt lat="38.652931983" lon="34.900576975">
      <ele>1068.435</ele>
      <time>2021-10-12T14:53:06Z</time>
    </trkpt>
    <trkpt lat="38.65295101" lon="34.900551997">
      <ele>1068.636</ele>
      <time>2021-10-12T14:53:07Z</time>
    </trkpt>
    <trkpt lat="38.652967019" lon="34.900527019">
      <ele>1068.784</ele>
      <time>2021-10-12T14:53:08Z</time>
    </trkpt>
    <trkpt lat="38.652982023" lon="34.900502963">
      <ele>1068.925</ele>
      <time>2021-10-12T14:53:09Z</time>
    </trkpt>
    <trkpt lat="38.652994009" lon="34.900475973">
      <ele>1069.065</ele>
      <time>2021-10-12T14:53:10Z</time>
    </trkpt>
    <trkpt lat="38.653004989" lon="34.900446972">
      <ele>1069.209</ele>
      <time>2021-10-12T14:53:11Z</time>
    </trkpt>
    <trkpt lat="38.653014041" lon="34.900415959">
      <ele>1069.353</ele>
      <time>2021-10-12T14:53:12Z</time>
    </trkpt>
    <trkpt lat="38.653022004" lon="34.900381006">
      <ele>1069.508</ele>
      <time>2021-10-12T14:53:13Z</time>
    </trkpt>
    <trkpt lat="38.653027033" lon="34.90034597">
      <ele>1069.652</ele>
      <time>2021-10-12T14:53:14Z</time>
    </trkpt>
    <trkpt lat="38.653029967" lon="34.900313029">
      <ele>1069.781</ele>
      <time>2021-10-12T14:53:15Z</time>
    </trkpt>
    <trkpt lat="38.65303399" lon="34.90028101">
      <ele>1069.911</ele>
      <time>2021-10-12T14:53:16Z</time>
    </trkpt>
    <trkpt lat="38.653036002" lon="34.900249997">
      <ele>1070.123</ele>
      <time>2021-10-12T14:53:17Z</time>
    </trkpt>
    <trkpt lat="38.653038014" lon="34.900214039">
      <ele>1070.381</ele>
      <time>2021-10-12T14:53:18Z</time>
    </trkpt>
    <trkpt lat="38.653040025" lon="34.900180008">
      <ele>1070.628</ele>
      <time>2021-10-12T14:53:19Z</time>
    </trkpt>
    <trkpt lat="38.653042959" lon="34.900144972">
      <ele>1070.889</ele>
      <time>2021-10-12T14:53:20Z</time>
    </trkpt>
    <trkpt lat="38.653046982" lon="34.900108008">
      <ele>1071.173</ele>
      <time>2021-10-12T14:53:21Z</time>
    </trkpt>
    <trkpt lat="38.65305" lon="34.900072971">
      <ele>1071.44</ele>
      <time>2021-10-12T14:53:22Z</time>
    </trkpt>
    <trkpt lat="38.653057041" lon="34.900039025">
      <ele>1071.71</ele>
      <time>2021-10-12T14:53:23Z</time>
    </trkpt>
    <trkpt lat="38.653065003" lon="34.900003988">
      <ele>1071.904</ele>
      <time>2021-10-12T14:53:24Z</time>
    </trkpt>
    <trkpt lat="38.65307196" lon="34.899970964">
      <ele>1071.888</ele>
      <time>2021-10-12T14:53:25Z</time>
    </trkpt>
    <trkpt lat="38.653080007" lon="34.899937017">
      <ele>1071.844</ele>
      <time>2021-10-12T14:53:26Z</time>
    </trkpt>
    <trkpt lat="38.653088976" lon="34.899903992">
      <ele>1071.801</ele>
      <time>2021-10-12T14:53:27Z</time>
    </trkpt>
    <trkpt lat="38.653097022" lon="34.899873985">
      <ele>1071.769</ele>
      <time>2021-10-12T14:53:28Z</time>
    </trkpt>
    <trkpt lat="38.653109008" lon="34.899837021">
      <ele>1071.728</ele>
      <time>2021-10-12T14:53:29Z</time>
    </trkpt>
    <trkpt lat="38.653117977" lon="34.899801984">
      <ele>1071.711</ele>
      <time>2021-10-12T14:53:30Z</time>
    </trkpt>
    <trkpt lat="38.653125018" lon="34.899769966">
      <ele>1071.707</ele>
      <time>2021-10-12T14:53:31Z</time>
    </trkpt>
    <trkpt lat="38.653130969" lon="34.899738031">
      <ele>1071.713</ele>
      <time>2021-10-12T14:53:32Z</time>
    </trkpt>
    <trkpt lat="38.653134992" lon="34.899706012">
      <ele>1071.789</ele>
      <time>2021-10-12T14:53:33Z</time>
    </trkpt>
    <trkpt lat="38.653143039" lon="34.899670975">
      <ele>1071.928</ele>
      <time>2021-10-12T14:53:34Z</time>
    </trkpt>
    <trkpt lat="38.65314899" lon="34.899636023">
      <ele>1072.078</ele>
      <time>2021-10-12T14:53:35Z</time>
    </trkpt>
    <trkpt lat="38.653157037" lon="34.899602998">
      <ele>1072.221</ele>
      <time>2021-10-12T14:53:36Z</time>
    </trkpt>
    <trkpt lat="38.653167011" lon="34.899564022">
      <ele>1072.397</ele>
      <time>2021-10-12T14:53:38Z</time>
    </trkpt>
    <trkpt lat="38.65317598" lon="34.899528986">
      <ele>1072.564</ele>
      <time>2021-10-12T14:53:39Z</time>
    </trkpt>
    <trkpt lat="38.653185032" lon="34.899492022">
      <ele>1072.749</ele>
      <time>2021-10-12T14:53:40Z</time>
    </trkpt>
    <trkpt lat="38.653191989" lon="34.899455979">
      <ele>1072.938</ele>
      <time>2021-10-12T14:53:41Z</time>
    </trkpt>
    <trkpt lat="38.653198024" lon="34.899422033">
      <ele>1073.0</ele>
      <time>2021-10-12T14:53:42Z</time>
    </trkpt>
    <trkpt lat="38.65321001" lon="34.899385991">
      <ele>1073.0</ele>
      <time>2021-10-12T14:53:43Z</time>
    </trkpt>
    <trkpt lat="38.653217973" lon="34.899353972">
      <ele>1073.0</ele>
      <time>2021-10-12T14:53:44Z</time>
    </trkpt>
    <trkpt lat="38.653228031" lon="34.899322959">
      <ele>1073.0</ele>
      <time>2021-10-12T14:53:45Z</time>
    </trkpt>
    <trkpt lat="38.653242029" lon="34.899292029">
      <ele>1073.0</ele>
      <time>2021-10-12T14:53:46Z</time>
    </trkpt>
    <trkpt lat="38.653259967" lon="34.899263028">
      <ele>1073.0</ele>
      <time>2021-10-12T14:53:47Z</time>
    </trkpt>
    <trkpt lat="38.653276982" lon="34.899237966">
      <ele>1073.0</ele>
      <time>2021-10-12T14:53:48Z</time>
    </trkpt>
    <trkpt lat="38.653295003" lon="34.899209971">
      <ele>1073.0</ele>
      <time>2021-10-12T14:53:49Z</time>
    </trkpt>
    <trkpt lat="38.653312018" lon="34.899181975">
      <ele>1073.0</ele>
      <time>2021-10-12T14:53:50Z</time>
    </trkpt>
    <trkpt lat="38.653329033" lon="34.899153979">
      <ele>1073.001</ele>
      <time>2021-10-12T14:53:51Z</time>
    </trkpt>
    <trkpt lat="38.653345965" lon="34.89912699">
      <ele>1072.857</ele>
      <time>2021-10-12T14:53:52Z</time>
    </trkpt>
    <trkpt lat="38.653360968" lon="34.899096983">
      <ele>1072.677</ele>
      <time>2021-10-12T14:53:53Z</time>
    </trkpt>
    <trkpt lat="38.653372033" lon="34.899068987">
      <ele>1072.533</ele>
      <time>2021-10-12T14:53:54Z</time>
    </trkpt>
    <trkpt lat="38.653384019" lon="34.899034034">
      <ele>1072.365</ele>
      <time>2021-10-12T14:53:55Z</time>
    </trkpt>
    <trkpt lat="38.653392987" lon="34.89900101">
      <ele>1072.228</ele>
      <time>2021-10-12T14:53:56Z</time>
    </trkpt>
    <trkpt lat="38.65340204" lon="34.898964968">
      <ele>1072.078</ele>
      <time>2021-10-12T14:53:57Z</time>
    </trkpt>
    <trkpt lat="38.653407991" lon="34.898929009">
      <ele>1071.964</ele>
      <time>2021-10-12T14:53:58Z</time>
    </trkpt>
    <trkpt lat="38.653410003" lon="34.898899002">
      <ele>1071.906</ele>
      <time>2021-10-12T14:53:59Z</time>
    </trkpt>
    <trkpt lat="38.653412014" lon="34.898864971">
      <ele>1072.039</ele>
      <time>2021-10-12T14:54:00Z</time>
    </trkpt>
    <trkpt lat="38.65341696" lon="34.898827001">
      <ele>1072.241</ele>
      <time>2021-10-12T14:54:01Z</time>
    </trkpt>
    <trkpt lat="38.653426012" lon="34.898785008">
      <ele>1072.413</ele>
      <time>2021-10-12T14:54:03Z</time>
    </trkpt>
    <trkpt lat="38.653431963" lon="34.898747038">
      <ele>1072.601</ele>
      <time>2021-10-12T14:54:04Z</time>
    </trkpt>
    <trkpt lat="38.653443027" lon="34.898706973">
      <ele>1072.73</ele>
      <time>2021-10-12T14:54:05Z</time>
    </trkpt>
    <trkpt lat="38.653456019" lon="34.898665985">
      <ele>1072.838</ele>
      <time>2021-10-12T14:54:06Z</time>
    </trkpt>
    <trkpt lat="38.653467" lon="34.898626003">
      <ele>1072.968</ele>
      <time>2021-10-12T14:54:07Z</time>
    </trkpt>
    <trkpt lat="38.653479991" lon="34.898586022">
      <ele>1073.074</ele>
      <time>2021-10-12T14:54:09Z</time>
    </trkpt>
    <trkpt lat="38.653491978" lon="34.89854604">
      <ele>1073.217</ele>
      <time>2021-10-12T14:54:10Z</time>
    </trkpt>
    <trkpt lat="38.65350103" lon="34.898509998">
      <ele>1073.389</ele>
      <time>2021-10-12T14:54:11Z</time>
    </trkpt>
    <trkpt lat="38.653511005" lon="34.89847404">
      <ele>1073.566</ele>
      <time>2021-10-12T14:54:12Z</time>
    </trkpt>
    <trkpt lat="38.653520979" lon="34.898441015">
      <ele>1073.738</ele>
      <time>2021-10-12T14:54:13Z</time>
    </trkpt>
    <trkpt lat="38.653534977" lon="34.898403967">
      <ele>1073.925</ele>
      <time>2021-10-12T14:54:14Z</time>
    </trkpt>
    <trkpt lat="38.653546963" lon="34.898369014">
      <ele>1074.136</ele>
      <time>2021-10-12T14:54:15Z</time>
    </trkpt>
    <trkpt lat="38.653557021" lon="34.898331966">
      <ele>1074.399</ele>
      <time>2021-10-12T14:54:17Z</time>
    </trkpt>
    <trkpt lat="38.653563978" lon="34.898296008">
      <ele>1074.608</ele>
      <time>2021-10-12T14:54:18Z</time>
    </trkpt>
    <trkpt lat="38.653572025" lon="34.89825502">
      <ele>1074.845</ele>
      <time>2021-10-12T14:54:19Z</time>
    </trkpt>
    <trkpt lat="38.653579988" lon="34.898213027">
      <ele>1075.09</ele>
      <time>2021-10-12T14:54:20Z</time>
    </trkpt>
    <trkpt lat="38.653584011" lon="34.898174973">
      <ele>1075.335</ele>
      <time>2021-10-12T14:54:21Z</time>
    </trkpt>
    <trkpt lat="38.653588034" lon="34.898135997">
      <ele>1075.587</ele>
      <time>2021-10-12T14:54:22Z</time>
    </trkpt>
    <trkpt lat="38.653589962" lon="34.898100039">
      <ele>1075.832</ele>
      <time>2021-10-12T14:54:23Z</time>
    </trkpt>
    <trkpt lat="38.653593985" lon="34.898063997">
      <ele>1076.063</ele>
      <time>2021-10-12T14:54:25Z</time>
    </trkpt>
    <trkpt lat="38.653597003" lon="34.89802896">
      <ele>1076.197</ele>
      <time>2021-10-12T14:54:26Z</time>
    </trkpt>
    <trkpt lat="38.653598009" lon="34.897997025">
      <ele>1076.305</ele>
      <time>2021-10-12T14:54:26Z</time>
    </trkpt>
    <trkpt lat="38.653603038" lon="34.897961989">
      <ele>1076.395</ele>
      <time>2021-10-12T14:54:28Z</time>
    </trkpt>
    <trkpt lat="38.653604966" lon="34.897922007">
      <ele>1076.525</ele>
      <time>2021-10-12T14:54:29Z</time>
    </trkpt>
    <trkpt lat="38.653604966" lon="34.89788102">
      <ele>1076.673</ele>
      <time>2021-10-12T14:54:30Z</time>
    </trkpt>
    <trkpt lat="38.653605971" lon="34.897845984">
      <ele>1076.791</ele>
      <time>2021-10-12T14:54:31Z</time>
    </trkpt>
    <trkpt lat="38.653607983" lon="34.897810025">
      <ele>1076.906</ele>
      <time>2021-10-12T14:54:32Z</time>
    </trkpt>
    <trkpt lat="38.653608989" lon="34.897771971">
      <ele>1077.036</ele>
      <time>2021-10-12T14:54:33Z</time>
    </trkpt>
    <trkpt lat="38.653609995" lon="34.897737019">
      <ele>1077.154</ele>
      <time>2021-10-12T14:54:34Z</time>
    </trkpt>
    <trkpt lat="38.653611001" lon="34.897702988">
      <ele>1077.27</ele>
      <time>2021-10-12T14:54:35Z</time>
    </trkpt>
    <trkpt lat="38.653614018" lon="34.897668036">
      <ele>1077.353</ele>
      <time>2021-10-12T14:54:36Z</time>
    </trkpt>
    <trkpt lat="38.653618041" lon="34.897631994">
      <ele>1077.425</ele>
      <time>2021-10-12T14:54:37Z</time>
    </trkpt>
    <trkpt lat="38.653618041" lon="34.897601986">
      <ele>1077.533</ele>
      <time>2021-10-12T14:54:38Z</time>
    </trkpt>
    <trkpt lat="38.653619969" lon="34.897567034">
      <ele>1077.631</ele>
      <time>2021-10-12T14:54:39Z</time>
    </trkpt>
    <trkpt lat="38.653621981" lon="34.897530992">
      <ele>1077.732</ele>
      <time>2021-10-12T14:54:40Z</time>
    </trkpt>
    <trkpt lat="38.653626004" lon="34.897494027">
      <ele>1077.808</ele>
      <time>2021-10-12T14:54:41Z</time>
    </trkpt>
    <trkpt lat="38.653629022" lon="34.897461003">
      <ele>1077.892</ele>
      <time>2021-10-12T14:54:42Z</time>
    </trkpt>
    <trkpt lat="38.653632039" lon="34.897427978">
      <ele>1077.977</ele>
      <time>2021-10-12T14:54:43Z</time>
    </trkpt>
    <trkpt lat="38.653632961" lon="34.897397971">
      <ele>1078.082</ele>
      <time>2021-10-12T14:54:44Z</time>
    </trkpt>
    <trkpt lat="38.653632961" lon="34.897362012">
      <ele>1078.221</ele>
      <time>2021-10-12T14:54:45Z</time>
    </trkpt>
    <trkpt lat="38.653633967" lon="34.897323959">
      <ele>1078.357</ele>
      <time>2021-10-12T14:54:46Z</time>
    </trkpt>
    <trkpt lat="38.653635979" lon="34.897293029">
      <ele>1078.454</ele>
      <time>2021-10-12T14:54:47Z</time>
    </trkpt>
    <trkpt lat="38.65363799" lon="34.897260005">
      <ele>1078.561</ele>
      <time>2021-10-12T14:54:48Z</time>
    </trkpt>
    <trkpt lat="38.653636985" lon="34.89722304">
      <ele>1078.717</ele>
      <time>2021-10-12T14:54:49Z</time>
    </trkpt>
    <trkpt lat="38.653638996" lon="34.897185992">
      <ele>1078.673</ele>
      <time>2021-10-12T14:54:50Z</time>
    </trkpt>
    <trkpt lat="38.653640002" lon="34.897154979">
      <ele>1078.638</ele>
      <time>2021-10-12T14:54:51Z</time>
    </trkpt>
    <trkpt lat="38.653642014" lon="34.897119021">
      <ele>1078.584</ele>
      <time>2021-10-12T14:54:52Z</time>
    </trkpt>
    <trkpt lat="38.653642014" lon="34.897081973">
      <ele>1078.554</ele>
      <time>2021-10-12T14:54:53Z</time>
    </trkpt>
    <trkpt lat="38.653643019" lon="34.897041991">
      <ele>1078.506</ele>
      <time>2021-10-12T14:54:54Z</time>
    </trkpt>
    <trkpt lat="38.653644025" lon="34.897005027">
      <ele>1078.459</ele>
      <time>2021-10-12T14:54:55Z</time>
    </trkpt>
    <trkpt lat="38.653644025" lon="34.896968985">
      <ele>1078.428</ele>
      <time>2021-10-12T14:54:56Z</time>
    </trkpt>
    <trkpt lat="38.653645031" lon="34.896933027">
      <ele>1078.389</ele>
      <time>2021-10-12T14:54:57Z</time>
    </trkpt>
    <trkpt lat="38.653646959" lon="34.89689799">
      <ele>1078.355</ele>
      <time>2021-10-12T14:54:58Z</time>
    </trkpt>
    <trkpt lat="38.653646959" lon="34.896863038">
      <ele>1078.355</ele>
      <time>2021-10-12T14:54:59Z</time>
    </trkpt>
    <trkpt lat="38.653645031" lon="34.896826996">
      <ele>1078.389</ele>
      <time>2021-10-12T14:55:01Z</time>
    </trkpt>
    <trkpt lat="38.653638996" lon="34.896791959">
      <ele>1078.498</ele>
      <time>2021-10-12T14:55:02Z</time>
    </trkpt>
    <trkpt lat="38.653632039" lon="34.896759018">
      <ele>1078.623</ele>
      <time>2021-10-12T14:55:03Z</time>
    </trkpt>
    <trkpt lat="38.653622987" lon="34.896725994">
      <ele>1078.786</ele>
      <time>2021-10-12T14:55:04Z</time>
    </trkpt>
    <trkpt lat="38.653611001" lon="34.896695986">
      <ele>1079.001</ele>
      <time>2021-10-12T14:55:05Z</time>
    </trkpt>
    <trkpt lat="38.653594991" lon="34.896666985">
      <ele>1079.116</ele>
      <time>2021-10-12T14:55:06Z</time>
    </trkpt>
    <trkpt lat="38.653573031" lon="34.896637984">
      <ele>1079.302</ele>
      <time>2021-10-12T14:55:07Z</time>
    </trkpt>
    <trkpt lat="38.65354998" lon="34.896608982">
      <ele>1079.532</ele>
      <time>2021-10-12T14:55:08Z</time>
    </trkpt>
    <trkpt lat="38.653525002" lon="34.896587022">
      <ele>1079.798</ele>
      <time>2021-10-12T14:55:09Z</time>
    </trkpt>
    <trkpt lat="38.653499018" lon="34.896565983">
      <ele>1080.1</ele>
      <time>2021-10-12T14:55:10Z</time>
    </trkpt>
    <trkpt lat="38.653471023" lon="34.896545028">
      <ele>1080.45</ele>
      <time>2021-10-12T14:55:11Z</time>
    </trkpt>
    <trkpt lat="38.653442021" lon="34.89652399">
      <ele>1080.843</ele>
      <time>2021-10-12T14:55:13Z</time>
    </trkpt>
    <trkpt lat="38.653415032" lon="34.896504041">
      <ele>1081.238</ele>
      <time>2021-10-12T14:55:14Z</time>
    </trkpt>
    <trkpt lat="38.653388964" lon="34.896484008">
      <ele>1081.651</ele>
      <time>2021-10-12T14:55:15Z</time>
    </trkpt>
    <trkpt lat="38.653364992" lon="34.896464981">
      <ele>1082.059</ele>
      <time>2021-10-12T14:55:16Z</time>
    </trkpt>
    <trkpt lat="38.65334102" lon="34.896442015">
      <ele>1082.517</ele>
      <time>2021-10-12T14:55:17Z</time>
    </trkpt>
    <trkpt lat="38.653318975" lon="34.896417959">
      <ele>1082.796</ele>
      <time>2021-10-12T14:55:18Z</time>
    </trkpt>
    <trkpt lat="38.653297015" lon="34.896392981">
      <ele>1082.972</ele>
      <time>2021-10-12T14:55:19Z</time>
    </trkpt>
    <trkpt lat="38.653273964" lon="34.896361968">
      <ele>1083.194</ele>
      <time>2021-10-12T14:55:20Z</time>
    </trkpt>
    <trkpt lat="38.653254015" lon="34.896332966">
      <ele>1083.403</ele>
      <time>2021-10-12T14:55:22Z</time>
    </trkpt>
    <trkpt lat="38.653232977" lon="34.896303965">
      <ele>1083.611</ele>
      <time>2021-10-12T14:55:23Z</time>
    </trkpt>
    <trkpt lat="38.653206993" lon="34.896280998">
      <ele>1083.777</ele>
      <time>2021-10-12T14:55:24Z</time>
    </trkpt>
    <trkpt lat="38.653181009" lon="34.896261971">
      <ele>1083.914</ele>
      <time>2021-10-12T14:55:25Z</time>
    </trkpt>
    <trkpt lat="38.653157959" lon="34.896243028">
      <ele>1084.05</ele>
      <time>2021-10-12T14:55:26Z</time>
    </trkpt>
    <trkpt lat="38.653129963" lon="34.896229031">
      <ele>1084.151</ele>
      <time>2021-10-12T14:55:27Z</time>
    </trkpt>
    <trkpt lat="38.653100962" lon="34.896219978">
      <ele>1084.216</ele>
      <time>2021-10-12T14:55:28Z</time>
    </trkpt>
    <trkpt lat="38.653068021" lon="34.896214027">
      <ele>1084.259</ele>
      <time>2021-10-12T14:55:29Z</time>
    </trkpt>
    <trkpt lat="38.653038014" lon="34.896202963">
      <ele>1084.318</ele>
      <time>2021-10-12T14:55:31Z</time>
    </trkpt>
    <trkpt lat="38.653010018" lon="34.896191983">
      <ele>1084.37</ele>
      <time>2021-10-12T14:55:32Z</time>
    </trkpt>
    <trkpt lat="38.652981017" lon="34.896188965">
      <ele>1084.364</ele>
      <time>2021-10-12T14:55:33Z</time>
    </trkpt>
    <trkpt lat="38.652950004" lon="34.896178991">
      <ele>1084.418</ele>
      <time>2021-10-12T14:55:34Z</time>
    </trkpt>
    <trkpt lat="38.652913962" lon="34.896169016">
      <ele>1084.477</ele>
      <time>2021-10-12T14:55:35Z</time>
    </trkpt>
    <trkpt lat="38.652879009" lon="34.89616097">
      <ele>1084.527</ele>
      <time>2021-10-12T14:55:37Z</time>
    </trkpt>
    <trkpt lat="38.652844978" lon="34.896150995">
      <ele>1084.604</ele>
      <time>2021-10-12T14:55:38Z</time>
    </trkpt>
    <trkpt lat="38.652810026" lon="34.896147978">
      <ele>1084.617</ele>
      <time>2021-10-12T14:55:39Z</time>
    </trkpt>
    <trkpt lat="38.652778007" lon="34.896142026">
      <ele>1084.666</ele>
      <time>2021-10-12T14:55:40Z</time>
    </trkpt>
    <trkpt lat="38.652742971" lon="34.896141021">
      <ele>1084.453</ele>
      <time>2021-10-12T14:55:42Z</time>
    </trkpt>
    <trkpt lat="38.652709024" lon="34.896145966">
      <ele>1084.191</ele>
      <time>2021-10-12T14:55:43Z</time>
    </trkpt>
    <trkpt lat="38.652675999" lon="34.896149989">
      <ele>1083.95</ele>
      <time>2021-10-12T14:55:44Z</time>
    </trkpt>
    <trkpt lat="38.652641969" lon="34.896159964">
      <ele>1083.667</ele>
      <time>2021-10-12T14:55:46Z</time>
    </trkpt>
    <trkpt lat="38.652611962" lon="34.896176979">
      <ele>1083.378</ele>
      <time>2021-10-12T14:55:47Z</time>
    </trkpt>
    <trkpt lat="38.652584972" lon="34.896197012">
      <ele>1083.113</ele>
      <time>2021-10-12T14:55:48Z</time>
    </trkpt>
    <trkpt lat="38.652564017" lon="34.896224001">
      <ele>1082.867</ele>
      <time>2021-10-12T14:55:49Z</time>
    </trkpt>
    <trkpt lat="38.652549013" lon="34.896257026">
      <ele>1082.642</ele>
      <time>2021-10-12T14:55:50Z</time>
    </trkpt>
    <trkpt lat="38.652530992" lon="34.896296002">
      <ele>1082.409</ele>
      <time>2021-10-12T14:55:51Z</time>
    </trkpt>
    <trkpt lat="38.652516995" lon="34.896333972">
      <ele>1082.222</ele>
      <time>2021-10-12T14:55:53Z</time>
    </trkpt>
    <trkpt lat="38.652500985" lon="34.896372026">
      <ele>1082.061</ele>
      <time>2021-10-12T14:55:54Z</time>
    </trkpt>
    <trkpt lat="38.652479025" lon="34.896409996">
      <ele>1081.848</ele>
      <time>2021-10-12T14:55:55Z</time>
    </trkpt>
    <trkpt lat="38.652451029" lon="34.896446038">
      <ele>1081.589</ele>
      <time>2021-10-12T14:55:57Z</time>
    </trkpt>
    <trkpt lat="38.652416999" lon="34.896475039">
      <ele>1081.38</ele>
      <time>2021-10-12T14:55:58Z</time>
    </trkpt>
    <trkpt lat="38.65238104" lon="34.896481996">
      <ele>1081.33</ele>
      <time>2021-10-12T14:56:00Z</time>
    </trkpt>
    <trkpt lat="38.652340975" lon="34.896489959">
      <ele>1081.272</ele>
      <time>2021-10-12T14:56:01Z</time>
    </trkpt>
    <trkpt lat="38.652303005" lon="34.896495994">
      <ele>1081.229</ele>
      <time>2021-10-12T14:56:03Z</time>
    </trkpt>
    <trkpt lat="38.652263023" lon="34.896500017">
      <ele>1081.2</ele>
      <time>2021-10-12T14:56:04Z</time>
    </trkpt>
    <trkpt lat="38.652223041" lon="34.896505969">
      <ele>1081.157</ele>
      <time>2021-10-12T14:56:05Z</time>
    </trkpt>
    <trkpt lat="38.652184987" lon="34.896514015">
      <ele>1081.099</ele>
      <time>2021-10-12T14:56:07Z</time>
    </trkpt>
    <trkpt lat="38.652150035" lon="34.896520972">
      <ele>1081.049</ele>
      <time>2021-10-12T14:56:08Z</time>
    </trkpt>
    <trkpt lat="38.652113993" lon="34.896531031">
      <ele>1080.977</ele>
      <time>2021-10-12T14:56:10Z</time>
    </trkpt>
    <trkpt lat="38.652078034" lon="34.896543017">
      <ele>1080.89</ele>
      <time>2021-10-12T14:56:11Z</time>
    </trkpt>
    <trkpt lat="38.652042998" lon="34.89655802">
      <ele>1080.782</ele>
      <time>2021-10-12T14:56:12Z</time>
    </trkpt>
    <trkpt lat="38.652013997" lon="34.896571012">
      <ele>1080.689</ele>
      <time>2021-10-12T14:56:13Z</time>
    </trkpt>
    <trkpt lat="38.651982984" lon="34.89658501">
      <ele>1080.588</ele>
      <time>2021-10-12T14:56:15Z</time>
    </trkpt>
    <trkpt lat="38.651952976" lon="34.896600014">
      <ele>1080.48</ele>
      <time>2021-10-12T14:56:16Z</time>
    </trkpt>
    <trkpt lat="38.651921963" lon="34.896619041">
      <ele>1080.41</ele>
      <time>2021-10-12T14:56:17Z</time>
    </trkpt>
    <trkpt lat="38.651894974" lon="34.896638989">
      <ele>1080.36</ele>
      <time>2021-10-12T14:56:18Z</time>
    </trkpt>
    <trkpt lat="38.651864966" lon="34.896660028">
      <ele>1080.327</ele>
      <time>2021-10-12T14:56:20Z</time>
    </trkpt>
    <trkpt lat="38.651833031" lon="34.896684">
      <ele>1080.314</ele>
      <time>2021-10-12T14:56:21Z</time>
    </trkpt>
    <trkpt lat="38.651805036" lon="34.896715013">
      <ele>1080.24</ele>
      <time>2021-10-12T14:56:22Z</time>
    </trkpt>
    <trkpt lat="38.651774023" lon="34.896744015">
      <ele>1080.164</ele>
      <time>2021-10-12T14:56:24Z</time>
    </trkpt>
    <trkpt lat="38.651747033" lon="34.89677201">
      <ele>1080.062</ele>
      <time>2021-10-12T14:56:25Z</time>
    </trkpt>
    <trkpt lat="38.651719037" lon="34.896802017">
      <ele>1079.929</ele>
      <time>2021-10-12T14:56:26Z</time>
    </trkpt>
    <trkpt lat="38.651691042" lon="34.89682599">
      <ele>1079.815</ele>
      <time>2021-10-12T14:56:28Z</time>
    </trkpt>
    <trkpt lat="38.651661035" lon="34.896852979">
      <ele>1079.652</ele>
      <time>2021-10-12T14:56:29Z</time>
    </trkpt>
    <trkpt lat="38.651631027" lon="34.896880975">
      <ele>1079.428</ele>
      <time>2021-10-12T14:56:30Z</time>
    </trkpt>
    <trkpt lat="38.651606971" lon="34.896907965">
      <ele>1079.234</ele>
      <time>2021-10-12T14:56:32Z</time>
    </trkpt>
    <trkpt lat="38.651579982" lon="34.896936966">
      <ele>1079.045</ele>
      <time>2021-10-12T14:56:33Z</time>
    </trkpt>
    <trkpt lat="38.651549974" lon="34.89696404">
      <ele>1078.929</ele>
      <time>2021-10-12T14:56:34Z</time>
    </trkpt>
    <trkpt lat="38.651521979" lon="34.896988012">
      <ele>1078.843</ele>
      <time>2021-10-12T14:56:35Z</time>
    </trkpt>
    <trkpt lat="38.651491972" lon="34.897013996">
      <ele>1078.75</ele>
      <time>2021-10-12T14:56:37Z</time>
    </trkpt>
    <trkpt lat="38.65146297" lon="34.897040986">
      <ele>1078.652</ele>
      <time>2021-10-12T14:56:38Z</time>
    </trkpt>
    <trkpt lat="38.651435981" lon="34.897066969">
      <ele>1078.559</ele>
      <time>2021-10-12T14:56:39Z</time>
    </trkpt>
    <trkpt lat="38.651408991" lon="34.897092031">
      <ele>1078.469</ele>
      <time>2021-10-12T14:56:41Z</time>
    </trkpt>
    <trkpt lat="38.651378984" lon="34.897120027">
      <ele>1078.368</ele>
      <time>2021-10-12T14:56:42Z</time>
    </trkpt>
    <trkpt lat="38.651351994" lon="34.897146011">
      <ele>1078.274</ele>
      <time>2021-10-12T14:56:43Z</time>
    </trkpt>
    <trkpt lat="38.65132601" lon="34.897174006">
      <ele>1078.174</ele>
      <time>2021-10-12T14:56:45Z</time>
    </trkpt>
    <trkpt lat="38.651298014" lon="34.897202002">
      <ele>1078.073</ele>
      <time>2021-10-12T14:56:46Z</time>
    </trkpt>
    <trkpt lat="38.651271025" lon="34.897225974">
      <ele>1078.0</ele>
      <time>2021-10-12T14:56:47Z</time>
    </trkpt>
    <trkpt lat="38.651242023" lon="34.89725003">
      <ele>1078.0</ele>
      <time>2021-10-12T14:56:48Z</time>
    </trkpt>
    <trkpt lat="38.651214028" lon="34.897271991">
      <ele>1078.0</ele>
      <time>2021-10-12T14:56:50Z</time>
    </trkpt>
    <trkpt lat="38.651185026" lon="34.897294035">
      <ele>1078.0</ele>
      <time>2021-10-12T14:56:51Z</time>
    </trkpt>
    <trkpt lat="38.651156025" lon="34.897318007">
      <ele>1078.0</ele>
      <time>2021-10-12T14:56:52Z</time>
    </trkpt>
    <trkpt lat="38.651128029" lon="34.897338962">
      <ele>1078.0</ele>
      <time>2021-10-12T14:56:53Z</time>
    </trkpt>
    <trkpt lat="38.651097016" lon="34.897360001">
      <ele>1078.101</ele>
      <time>2021-10-12T14:56:55Z</time>
    </trkpt>
    <trkpt lat="38.651063992" lon="34.897381039">
      <ele>1078.339</ele>
      <time>2021-10-12T14:56:56Z</time>
    </trkpt>
    <trkpt lat="38.651033984" lon="34.897403">
      <ele>1078.555</ele>
      <time>2021-10-12T14:56:57Z</time>
    </trkpt>
    <trkpt lat="38.651005989" lon="34.897427978">
      <ele>1078.757</ele>
      <time>2021-10-12T14:56:58Z</time>
    </trkpt>
    <trkpt lat="38.650978999" lon="34.897452034">
      <ele>1078.951</ele>
      <time>2021-10-12T14:57:00Z</time>
    </trkpt>
    <trkpt lat="38.650953015" lon="34.897478018">
      <ele>1079.138</ele>
      <time>2021-10-12T14:57:01Z</time>
    </trkpt>
    <trkpt lat="38.650928959" lon="34.897504002">
      <ele>1079.311</ele>
      <time>2021-10-12T14:57:02Z</time>
    </trkpt>
    <trkpt lat="38.65090197" lon="34.897534009">
      <ele>1079.506</ele>
      <time>2021-10-12T14:57:03Z</time>
    </trkpt>
    <trkpt lat="38.650875986" lon="34.897565022">
      <ele>1079.693</ele>
      <time>2021-10-12T14:57:05Z</time>
    </trkpt>
    <trkpt lat="38.650854025" lon="34.897595029">
      <ele>1079.851</ele>
      <time>2021-10-12T14:57:06Z</time>
    </trkpt>
    <trkpt lat="38.650829969" lon="34.897626964">
      <ele>1080.012</ele>
      <time>2021-10-12T14:57:07Z</time>
    </trkpt>
    <trkpt lat="38.650808008" lon="34.897654038">
      <ele>1080.091</ele>
      <time>2021-10-12T14:57:08Z</time>
    </trkpt>
    <trkpt lat="38.650785964" lon="34.897683039">
      <ele>1080.171</ele>
      <time>2021-10-12T14:57:10Z</time>
    </trkpt>
    <trkpt lat="38.650764003" lon="34.897711035">
      <ele>1080.25</ele>
      <time>2021-10-12T14:57:11Z</time>
    </trkpt>
    <trkpt lat="38.650743971" lon="34.897741964">
      <ele>1080.322</ele>
      <time>2021-10-12T14:57:12Z</time>
    </trkpt>
    <trkpt lat="38.650723016" lon="34.897772977">
      <ele>1080.397</ele>
      <time>2021-10-12T14:57:13Z</time>
    </trkpt>
    <trkpt lat="38.650702983" lon="34.897802984">
      <ele>1080.336</ele>
      <time>2021-10-12T14:57:14Z</time>
    </trkpt>
    <trkpt lat="38.650684962" lon="34.897836009">
      <ele>1080.213</ele>
      <time>2021-10-12T14:57:15Z</time>
    </trkpt>
    <trkpt lat="38.650664007" lon="34.897868028">
      <ele>1080.087</ele>
      <time>2021-10-12T14:57:17Z</time>
    </trkpt>
    <trkpt lat="38.650641963" lon="34.897898035">
      <ele>1079.958</ele>
      <time>2021-10-12T14:57:18Z</time>
    </trkpt>
    <trkpt lat="38.650621008" lon="34.897928964">
      <ele>1079.804</ele>
      <time>2021-10-12T14:57:19Z</time>
    </trkpt>
    <trkpt lat="38.650600975" lon="34.897960983">
      <ele>1079.625</ele>
      <time>2021-10-12T14:57:20Z</time>
    </trkpt>
    <trkpt lat="38.650574991" lon="34.897994008">
      <ele>1079.428</ele>
      <time>2021-10-12T14:57:21Z</time>
    </trkpt>
    <trkpt lat="38.650548002" lon="34.898025021">
      <ele>1079.19</ele>
      <time>2021-10-12T14:57:23Z</time>
    </trkpt>
    <trkpt lat="38.650522018" lon="34.898046982">
      <ele>1078.937</ele>
      <time>2021-10-12T14:57:24Z</time>
    </trkpt>
    <trkpt lat="38.65049704" lon="34.89805704">
      <ele>1078.779</ele>
      <time>2021-10-12T14:57:25Z</time>
    </trkpt>
    <trkpt lat="38.650479019" lon="34.898053017">
      <ele>1078.74</ele>
      <time>2021-10-12T14:57:26Z</time>
    </trkpt>
    <trkpt lat="38.650472984" lon="34.898029966">
      <ele>1078.86</ele>
      <time>2021-10-12T14:57:26Z</time>
    </trkpt>
    <trkpt lat="38.650469966" lon="34.897995014">
      <ele>1079.061</ele>
      <time>2021-10-12T14:57:27Z</time>
    </trkpt>
    <trkpt lat="38.650468038" lon="34.897958972">
      <ele>1079.271</ele>
      <time>2021-10-12T14:57:28Z</time>
    </trkpt>
    <trkpt lat="38.650474995" lon="34.897907004">
      <ele>1079.624</ele>
      <time>2021-10-12T14:57:30Z</time>
    </trkpt>
    <trkpt lat="38.650479019" lon="34.897864005">
      <ele>1079.914</ele>
      <time>2021-10-12T14:57:31Z</time>
    </trkpt>
    <trkpt lat="38.65048103" lon="34.897823017">
      <ele>1080.181</ele>
      <time>2021-10-12T14:57:32Z</time>
    </trkpt>
    <trkpt lat="38.65048497" lon="34.897784041">
      <ele>1080.452</ele>
      <time>2021-10-12T14:57:33Z</time>
    </trkpt>
    <trkpt lat="38.650492011" lon="34.897744982">
      <ele>1080.596</ele>
      <time>2021-10-12T14:57:35Z</time>
    </trkpt>
    <trkpt lat="38.65049704" lon="34.897706006">
      <ele>1080.688</ele>
      <time>2021-10-12T14:57:36Z</time>
    </trkpt>
    <trkpt lat="38.650503997" lon="34.897669042">
      <ele>1080.774</ele>
      <time>2021-10-12T14:57:37Z</time>
    </trkpt>
    <trkpt lat="38.650509026" lon="34.897629982">
      <ele>1080.843</ele>
      <time>2021-10-12T14:57:38Z</time>
    </trkpt>
    <trkpt lat="38.650519" lon="34.897584971">
      <ele>1080.919</ele>
      <time>2021-10-12T14:57:39Z</time>
    </trkpt>
    <trkpt lat="38.650521012" lon="34.897542978">
      <ele>1080.962</ele>
      <time>2021-10-12T14:57:41Z</time>
    </trkpt>
    <trkpt lat="38.65052403" lon="34.897496961">
      <ele>1081.01</ele>
      <time>2021-10-12T14:57:42Z</time>
    </trkpt>
    <trkpt lat="38.650520006" lon="34.897451028">
      <ele>1081.154</ele>
      <time>2021-10-12T14:57:43Z</time>
    </trkpt>
    <trkpt lat="38.650521012" lon="34.897407023">
      <ele>1081.293</ele>
      <time>2021-10-12T14:57:45Z</time>
    </trkpt>
    <trkpt lat="38.650521012" lon="34.897363018">
      <ele>1081.432</ele>
      <time>2021-10-12T14:57:46Z</time>
    </trkpt>
    <trkpt lat="38.650520006" lon="34.897323959">
      <ele>1081.553</ele>
      <time>2021-10-12T14:57:47Z</time>
    </trkpt>
    <trkpt lat="38.650521012" lon="34.897281965">
      <ele>1081.687</ele>
      <time>2021-10-12T14:57:48Z</time>
    </trkpt>
    <trkpt lat="38.650520006" lon="34.897240978">
      <ele>1081.813</ele>
      <time>2021-10-12T14:57:49Z</time>
    </trkpt>
    <trkpt lat="38.650520006" lon="34.897202002">
      <ele>1081.872</ele>
      <time>2021-10-12T14:57:51Z</time>
    </trkpt>
    <trkpt lat="38.650521012" lon="34.897165038">
      <ele>1081.876</ele>
      <time>2021-10-12T14:57:52Z</time>
    </trkpt>
    <trkpt lat="38.65052403" lon="34.89712799">
      <ele>1081.887</ele>
      <time>2021-10-12T14:57:53Z</time>
    </trkpt>
    <trkpt lat="38.650522018" lon="34.897093037">
      <ele>1081.879</ele>
      <time>2021-10-12T14:57:54Z</time>
    </trkpt>
    <trkpt lat="38.650525035" lon="34.897054983">
      <ele>1081.89</ele>
      <time>2021-10-12T14:57:55Z</time>
    </trkpt>
    <trkpt lat="38.650528975" lon="34.897015002">
      <ele>1081.904</ele>
      <time>2021-10-12T14:57:56Z</time>
    </trkpt>
    <trkpt lat="38.650532998" lon="34.896974014">
      <ele>1081.919</ele>
      <time>2021-10-12T14:57:57Z</time>
    </trkpt>
    <trkpt lat="38.650534004" lon="34.896937972">
      <ele>1081.903</ele>
      <time>2021-10-12T14:57:58Z</time>
    </trkpt>
    <trkpt lat="38.650536016" lon="34.896901008">
      <ele>1081.795</ele>
      <time>2021-10-12T14:57:59Z</time>
    </trkpt>
    <trkpt lat="38.650540039" lon="34.89686002">
      <ele>1081.674</ele>
      <time>2021-10-12T14:58:01Z</time>
    </trkpt>
    <trkpt lat="38.650540961" lon="34.896816015">
      <ele>1081.534</ele>
      <time>2021-10-12T14:58:02Z</time>
    </trkpt>
    <trkpt lat="38.650540039" lon="34.89677201">
      <ele>1081.393</ele>
      <time>2021-10-12T14:58:03Z</time>
    </trkpt>
    <trkpt lat="38.650538027" lon="34.896729011">
      <ele>1081.259</ele>
      <time>2021-10-12T14:58:04Z</time>
    </trkpt>
    <trkpt lat="38.650536016" lon="34.896686012">
      <ele>1081.13</ele>
      <time>2021-10-12T14:58:06Z</time>
    </trkpt>
    <trkpt lat="38.650537021" lon="34.896645024">
      <ele>1081.134</ele>
      <time>2021-10-12T14:58:07Z</time>
    </trkpt>
    <trkpt lat="38.650536016" lon="34.896603031">
      <ele>1081.267</ele>
      <time>2021-10-12T14:58:08Z</time>
    </trkpt>
    <trkpt lat="38.650538027" lon="34.89655802">
      <ele>1081.405</ele>
      <time>2021-10-12T14:58:09Z</time>
    </trkpt>
    <trkpt lat="38.650537021" lon="34.896516027">
      <ele>1081.537</ele>
      <time>2021-10-12T14:58:11Z</time>
    </trkpt>
    <trkpt lat="38.650536016" lon="34.896474034">
      <ele>1081.666</ele>
      <time>2021-10-12T14:58:12Z</time>
    </trkpt>
    <trkpt lat="38.650537021" lon="34.896433968">
      <ele>1081.793</ele>
      <time>2021-10-12T14:58:13Z</time>
    </trkpt>
    <trkpt lat="38.650538027" lon="34.896392981">
      <ele>1081.924</ele>
      <time>2021-10-12T14:58:14Z</time>
    </trkpt>
    <trkpt lat="38.650540039" lon="34.896352999">
      <ele>1082.195</ele>
      <time>2021-10-12T14:58:15Z</time>
    </trkpt>
    <trkpt lat="38.650541967" lon="34.896314023">
      <ele>1082.477</ele>
      <time>2021-10-12T14:58:16Z</time>
    </trkpt>
    <trkpt lat="38.650543978" lon="34.896274041">
      <ele>1082.768</ele>
      <time>2021-10-12T14:58:18Z</time>
    </trkpt>
    <trkpt lat="38.650549008" lon="34.896231964">
      <ele>1083.093</ele>
      <time>2021-10-12T14:58:19Z</time>
    </trkpt>
    <trkpt lat="38.650553031" lon="34.896195">
      <ele>1083.381</ele>
      <time>2021-10-12T14:58:20Z</time>
    </trkpt>
    <trkpt lat="38.650559988" lon="34.896153007">
      <ele>1083.698</ele>
      <time>2021-10-12T14:58:21Z</time>
    </trkpt>
    <trkpt lat="38.650565017" lon="34.896114031">
      <ele>1083.979</ele>
      <time>2021-10-12T14:58:22Z</time>
    </trkpt>
    <trkpt lat="38.650573986" lon="34.896074971">
      <ele>1084.26</ele>
      <time>2021-10-12T14:58:23Z</time>
    </trkpt>
    <trkpt lat="38.650581026" lon="34.896038007">
      <ele>1084.526</ele>
      <time>2021-10-12T14:58:25Z</time>
    </trkpt>
    <trkpt lat="38.650588989" lon="34.896000959">
      <ele>1084.793</ele>
      <time>2021-10-12T14:58:26Z</time>
    </trkpt>
    <trkpt lat="38.650598042" lon="34.895963995">
      <ele>1085.059</ele>
      <time>2021-10-12T14:58:27Z</time>
    </trkpt>
    <trkpt lat="38.65060701" lon="34.895924013">
      <ele>1085.347</ele>
      <time>2021-10-12T14:58:28Z</time>
    </trkpt>
    <trkpt lat="38.650616985" lon="34.895881014">
      <ele>1085.657</ele>
      <time>2021-10-12T14:58:29Z</time>
    </trkpt>
    <trkpt lat="38.650627965" lon="34.895838015">
      <ele>1085.966</ele>
      <time>2021-10-12T14:58:31Z</time>
    </trkpt>
    <trkpt lat="38.650638023" lon="34.895797027">
      <ele>1086.0</ele>
      <time>2021-10-12T14:58:32Z</time>
    </trkpt>
    <trkpt lat="38.65065001" lon="34.895757968">
      <ele>1086.0</ele>
      <time>2021-10-12T14:58:33Z</time>
    </trkpt>
    <trkpt lat="38.650659984" lon="34.895718992">
      <ele>1086.0</ele>
      <time>2021-10-12T14:58:34Z</time>
    </trkpt>
    <trkpt lat="38.650668031" lon="34.895685967">
      <ele>1086.0</ele>
      <time>2021-10-12T14:58:35Z</time>
    </trkpt>
    <trkpt lat="38.650674988" lon="34.895646991">
      <ele>1086.0</ele>
      <time>2021-10-12T14:58:36Z</time>
    </trkpt>
    <trkpt lat="38.650681023" lon="34.895610027">
      <ele>1086.0</ele>
      <time>2021-10-12T14:58:37Z</time>
    </trkpt>
    <trkpt lat="38.650686974" lon="34.895578008">
      <ele>1086.0</ele>
      <time>2021-10-12T14:58:38Z</time>
    </trkpt>
    <trkpt lat="38.650693009" lon="34.895542972">
      <ele>1086.022</ele>
      <time>2021-10-12T14:58:39Z</time>
    </trkpt>
    <trkpt lat="38.650693009" lon="34.895509025">
      <ele>1086.083</ele>
      <time>2021-10-12T14:58:40Z</time>
    </trkpt>
    <trkpt lat="38.650692003" lon="34.895477006">
      <ele>1086.139</ele>
      <time>2021-10-12T14:58:41Z</time>
    </trkpt>
    <trkpt lat="38.650685968" lon="34.89542596">
      <ele>1086.219</ele>
      <time>2021-10-12T14:58:43Z</time>
    </trkpt>
    <trkpt lat="38.650682028" lon="34.895391008">
      <ele>1086.27</ele>
      <time>2021-10-12T14:58:44Z</time>
    </trkpt>
    <trkpt lat="38.650679011" lon="34.895356977">
      <ele>1086.318</ele>
      <time>2021-10-12T14:58:45Z</time>
    </trkpt>
    <trkpt lat="38.650679011" lon="34.895319007">
      <ele>1086.378</ele>
      <time>2021-10-12T14:58:46Z</time>
    </trkpt>
    <trkpt lat="38.650679011" lon="34.895280031">
      <ele>1086.441</ele>
      <time>2021-10-12T14:58:47Z</time>
    </trkpt>
    <trkpt lat="38.650675993" lon="34.895247007">
      <ele>1086.607</ele>
      <time>2021-10-12T14:58:48Z</time>
    </trkpt>
    <trkpt lat="38.650673982" lon="34.895209959">
      <ele>1086.811</ele>
      <time>2021-10-12T14:58:49Z</time>
    </trkpt>
    <trkpt lat="38.650669958" lon="34.895177018">
      <ele>1086.988</ele>
      <time>2021-10-12T14:58:50Z</time>
    </trkpt>
    <trkpt lat="38.650665013" lon="34.895147011">
      <ele>1087.15</ele>
      <time>2021-10-12T14:58:51Z</time>
    </trkpt>
    <trkpt lat="38.650657972" lon="34.895113986">
      <ele>1087.331</ele>
      <time>2021-10-12T14:58:52Z</time>
    </trkpt>
    <trkpt lat="38.650654033" lon="34.895082973">
      <ele>1087.508</ele>
      <time>2021-10-12T14:58:53Z</time>
    </trkpt>
    <trkpt lat="38.650652021" lon="34.895051038">
      <ele>1087.696</ele>
      <time>2021-10-12T14:58:54Z</time>
    </trkpt>
    <trkpt lat="38.650653027" lon="34.895016002">
      <ele>1087.905</ele>
      <time>2021-10-12T14:58:55Z</time>
    </trkpt>
    <trkpt lat="38.650654033" lon="34.894979959">
      <ele>1088.026</ele>
      <time>2021-10-12T14:58:56Z</time>
    </trkpt>
    <trkpt lat="38.650652021" lon="34.894947018">
      <ele>1088.066</ele>
      <time>2021-10-12T14:58:57Z</time>
    </trkpt>
    <trkpt lat="38.650647998" lon="34.894910976">
      <ele>1088.107</ele>
      <time>2021-10-12T14:58:58Z</time>
    </trkpt>
    <trkpt lat="38.650647998" lon="34.89487703">
      <ele>1088.147</ele>
      <time>2021-10-12T14:58:59Z</time>
    </trkpt>
    <trkpt lat="38.650646992" lon="34.894839982">
      <ele>1088.19</ele>
      <time>2021-10-12T14:59:00Z</time>
    </trkpt>
    <trkpt lat="38.65065001" lon="34.894805029">
      <ele>1088.239</ele>
      <time>2021-10-12T14:59:01Z</time>
    </trkpt>
    <trkpt lat="38.650655961" lon="34.894764964">
      <ele>1088.306</ele>
      <time>2021-10-12T14:59:02Z</time>
    </trkpt>
    <trkpt lat="38.650659984" lon="34.894727999">
      <ele>1088.368</ele>
      <time>2021-10-12T14:59:03Z</time>
    </trkpt>
    <trkpt lat="38.650661996" lon="34.894691035">
      <ele>1088.426</ele>
      <time>2021-10-12T14:59:04Z</time>
    </trkpt>
    <trkpt lat="38.650664007" lon="34.894661028">
      <ele>1088.476</ele>
      <time>2021-10-12T14:59:05Z</time>
    </trkpt>
    <trkpt lat="38.650669036" lon="34.894628003">
      <ele>1088.547</ele>
      <time>2021-10-12T14:59:06Z</time>
    </trkpt>
    <trkpt lat="38.65067197" lon="34.894591961">
      <ele>1088.616</ele>
      <time>2021-10-12T14:59:07Z</time>
    </trkpt>
    <trkpt lat="38.650670964" lon="34.894557009">
      <ele>1088.663</ele>
      <time>2021-10-12T14:59:08Z</time>
    </trkpt>
    <trkpt lat="38.650670964" lon="34.894519961">
      <ele>1088.718</ele>
      <time>2021-10-12T14:59:09Z</time>
    </trkpt>
    <trkpt lat="38.650669036" lon="34.894482996">
      <ele>1088.76</ele>
      <time>2021-10-12T14:59:10Z</time>
    </trkpt>
    <trkpt lat="38.650667025" lon="34.894447038">
      <ele>1088.799</ele>
      <time>2021-10-12T14:59:12Z</time>
    </trkpt>
    <trkpt lat="38.650665013" lon="34.894413007">
      <ele>1088.99</ele>
      <time>2021-10-12T14:59:12Z</time>
    </trkpt>
    <trkpt lat="38.650664007" lon="34.894385012">
      <ele>1089.162</ele>
      <time>2021-10-12T14:59:13Z</time>
    </trkpt>
    <trkpt lat="38.650659984" lon="34.894349976">
      <ele>1089.348</ele>
      <time>2021-10-12T14:59:14Z</time>
    </trkpt>
    <trkpt lat="38.650653027" lon="34.894316029">
      <ele>1089.489</ele>
      <time>2021-10-12T14:59:15Z</time>
    </trkpt>
    <trkpt lat="38.65064498" lon="34.894278981">
      <ele>1089.623</ele>
      <time>2021-10-12T14:59:16Z</time>
    </trkpt>
    <trkpt lat="38.650639029" lon="34.894243022">
      <ele>1089.762</ele>
      <time>2021-10-12T14:59:18Z</time>
    </trkpt>
    <trkpt lat="38.650628971" lon="34.894207986">
      <ele>1089.83</ele>
      <time>2021-10-12T14:59:19Z</time>
    </trkpt>
    <trkpt lat="38.650617991" lon="34.894174961">
      <ele>1089.856</ele>
      <time>2021-10-12T14:59:20Z</time>
    </trkpt>
    <trkpt lat="38.650609022" lon="34.894140009">
      <ele>1089.943</ele>
      <time>2021-10-12T14:59:21Z</time>
    </trkpt>
    <trkpt lat="38.650598964" lon="34.894106984">
      <ele>1090.021</ele>
      <time>2021-10-12T14:59:22Z</time>
    </trkpt>
    <trkpt lat="38.650589995" lon="34.894073037">
      <ele>1090.128</ele>
      <time>2021-10-12T14:59:23Z</time>
    </trkpt>
    <trkpt lat="38.650581026" lon="34.894042024">
      <ele>1090.223</ele>
      <time>2021-10-12T14:59:24Z</time>
    </trkpt>
    <trkpt lat="38.65057298" lon="34.894012017">
      <ele>1090.329</ele>
      <time>2021-10-12T14:59:25Z</time>
    </trkpt>
    <trkpt lat="38.650563005" lon="34.893979998">
      <ele>1090.433</ele>
      <time>2021-10-12T14:59:26Z</time>
    </trkpt>
    <trkpt lat="38.650550013" lon="34.893947979">
      <ele>1090.515</ele>
      <time>2021-10-12T14:59:27Z</time>
    </trkpt>
    <trkpt lat="38.650539033" lon="34.893915961">
      <ele>1090.627</ele>
      <time>2021-10-12T14:59:28Z</time>
    </trkpt>
    <trkpt lat="38.650526041" lon="34.893884026">
      <ele>1090.718</ele>
      <time>2021-10-12T14:59:29Z</time>
    </trkpt>
    <trkpt lat="38.650511038" lon="34.893851001">
      <ele>1090.814</ele>
      <time>2021-10-12T14:59:30Z</time>
    </trkpt>
    <trkpt lat="38.650493016" lon="34.893820994">
      <ele>1090.868</ele>
      <time>2021-10-12T14:59:31Z</time>
    </trkpt>
    <trkpt lat="38.650476001" lon="34.893790986">
      <ele>1090.947</ele>
      <time>2021-10-12T14:59:32Z</time>
    </trkpt>
    <trkpt lat="38.650460998" lon="34.893759973">
      <ele>1091.065</ele>
      <time>2021-10-12T14:59:33Z</time>
    </trkpt>
    <trkpt lat="38.650442977" lon="34.893729966">
      <ele>1091.16</ele>
      <time>2021-10-12T14:59:34Z</time>
    </trkpt>
    <trkpt lat="38.650423028" lon="34.893697025">
      <ele>1091.28</ele>
      <time>2021-10-12T14:59:35Z</time>
    </trkpt>
    <trkpt lat="38.650399977" lon="34.893664001">
      <ele>1091.392</ele>
      <time>2021-10-12T14:59:37Z</time>
    </trkpt>
    <trkpt lat="38.650379023" lon="34.893627036">
      <ele>1091.578</ele>
      <time>2021-10-12T14:59:38Z</time>
    </trkpt>
    <trkpt lat="38.650357984" lon="34.893589988">
      <ele>1091.654</ele>
      <time>2021-10-12T14:59:39Z</time>
    </trkpt>
    <trkpt lat="38.650338035" lon="34.893552018">
      <ele>1091.647</ele>
      <time>2021-10-12T14:59:41Z</time>
    </trkpt>
    <trkpt lat="38.650316996" lon="34.893512037">
      <ele>1091.639</ele>
      <time>2021-10-12T14:59:42Z</time>
    </trkpt>
    <trkpt lat="38.650296964" lon="34.893472977">
      <ele>1091.635</ele>
      <time>2021-10-12T14:59:43Z</time>
    </trkpt>
    <trkpt lat="38.650278021" lon="34.893438024">
      <ele>1091.625</ele>
      <time>2021-10-12T14:59:45Z</time>
    </trkpt>
    <trkpt lat="38.650265029" lon="34.893403994">
      <ele>1091.676</ele>
      <time>2021-10-12T14:59:46Z</time>
    </trkpt>
    <trkpt lat="38.650253965" lon="34.893364012">
      <ele>1091.785</ele>
      <time>2021-10-12T14:59:47Z</time>
    </trkpt>
    <trkpt lat="38.650244996" lon="34.893324031">
      <ele>1091.915</ele>
      <time>2021-10-12T14:59:48Z</time>
    </trkpt>
    <trkpt lat="38.650237033" lon="34.893284971">
      <ele>1092.027</ele>
      <time>2021-10-12T14:59:49Z</time>
    </trkpt>
    <trkpt lat="38.650224963" lon="34.893248007">
      <ele>1092.117</ele>
      <time>2021-10-12T14:59:51Z</time>
    </trkpt>
    <trkpt lat="38.650207026" lon="34.89321297">
      <ele>1092.179</ele>
      <time>2021-10-12T14:59:52Z</time>
    </trkpt>
    <trkpt lat="38.650183976" lon="34.893180029">
      <ele>1092.214</ele>
      <time>2021-10-12T14:59:53Z</time>
    </trkpt>
    <trkpt lat="38.650160003" lon="34.893151028">
      <ele>1092.232</ele>
      <time>2021-10-12T14:59:54Z</time>
    </trkpt>
    <trkpt lat="38.650136031" lon="34.893126972">
      <ele>1092.233</ele>
      <time>2021-10-12T14:59:55Z</time>
    </trkpt>
    <trkpt lat="38.650109963" lon="34.893095037">
      <ele>1092.254</ele>
      <time>2021-10-12T14:59:57Z</time>
    </trkpt>
    <trkpt lat="38.650084985" lon="34.893067041">
      <ele>1092.265</ele>
      <time>2021-10-12T14:59:58Z</time>
    </trkpt>
    <trkpt lat="38.650061013" lon="34.893037034">
      <ele>1092.272</ele>
      <time>2021-10-12T14:59:59Z</time>
    </trkpt>
    <trkpt lat="38.650037041" lon="34.893008033">
      <ele>1092.282</ele>
      <time>2021-10-12T15:00:00Z</time>
    </trkpt>
    <trkpt lat="38.650013991" lon="34.892980959">
      <ele>1092.305</ele>
      <time>2021-10-12T15:00:02Z</time>
    </trkpt>
    <trkpt lat="38.649989013" lon="34.892954975">
      <ele>1092.402</ele>
      <time>2021-10-12T15:00:03Z</time>
    </trkpt>
    <trkpt lat="38.64996504" lon="34.89292698">
      <ele>1092.589</ele>
      <time>2021-10-12T15:00:04Z</time>
    </trkpt>
    <trkpt lat="38.649940984" lon="34.892903008">
      <ele>1092.762</ele>
      <time>2021-10-12T15:00:05Z</time>
    </trkpt>
    <trkpt lat="38.649915" lon="34.892879035">
      <ele>1092.941</ele>
      <time>2021-10-12T15:00:06Z</time>
    </trkpt>
    <trkpt lat="38.649888011" lon="34.892855985">
      <ele>1093.122</ele>
      <time>2021-10-12T15:00:07Z</time>
    </trkpt>
    <trkpt lat="38.649862027" lon="34.89283503">
      <ele>1093.291</ele>
      <time>2021-10-12T15:00:09Z</time>
    </trkpt>
    <trkpt lat="38.649835037" lon="34.892814998">
      <ele>1093.46</ele>
      <time>2021-10-12T15:00:10Z</time>
    </trkpt>
    <trkpt lat="38.649812993" lon="34.892804017">
      <ele>1093.579</ele>
      <time>2021-10-12T15:00:11Z</time>
    </trkpt>
    <trkpt lat="38.649791032" lon="34.892794965">
      <ele>1093.69</ele>
      <time>2021-10-12T15:00:12Z</time>
    </trkpt>
    <trkpt lat="38.649768988" lon="34.892791025">
      <ele>1093.784</ele>
      <time>2021-10-12T15:00:12Z</time>
    </trkpt>
    <trkpt lat="38.649749961" lon="34.892795971">
      <ele>1093.835</ele>
      <time>2021-10-12T15:00:13Z</time>
    </trkpt>
    <trkpt lat="38.649731018" lon="34.892799994">
      <ele>1093.888</ele>
      <time>2021-10-12T15:00:14Z</time>
    </trkpt>
    <trkpt lat="38.649708973" lon="34.892807035">
      <ele>1093.942</ele>
      <time>2021-10-12T15:00:15Z</time>
    </trkpt>
    <trkpt lat="38.649681984" lon="34.892813992">
      <ele>1094.014</ele>
      <time>2021-10-12T15:00:16Z</time>
    </trkpt>
    <trkpt lat="38.649656" lon="34.892818015">
      <ele>1094.094</ele>
      <time>2021-10-12T15:00:17Z</time>
    </trkpt>
    <trkpt lat="38.649625992" lon="34.89282296">
      <ele>1094.184</ele>
      <time>2021-10-12T15:00:18Z</time>
    </trkpt>
    <trkpt lat="38.649600009" lon="34.892820027">
      <ele>1094.288</ele>
      <time>2021-10-12T15:00:19Z</time>
    </trkpt>
    <trkpt lat="38.649574025" lon="34.892809968">
      <ele>1094.418</ele>
      <time>2021-10-12T15:00:20Z</time>
    </trkpt>
    <trkpt lat="38.649553992" lon="34.89279002">
      <ele>1094.562</ele>
      <time>2021-10-12T15:00:21Z</time>
    </trkpt>
    <trkpt lat="38.649537982" lon="34.89276303">
      <ele>1094.716</ele>
      <time>2021-10-12T15:00:22Z</time>
    </trkpt>
    <trkpt lat="38.649523985" lon="34.892728999">
      <ele>1094.889</ele>
      <time>2021-10-12T15:00:23Z</time>
    </trkpt>
    <trkpt lat="38.64951401" lon="34.892699998">
      <ele>1095.03</ele>
      <time>2021-10-12T15:00:24Z</time>
    </trkpt>
    <trkpt lat="38.64950303" lon="34.892668985">
      <ele>1095.181</ele>
      <time>2021-10-12T15:00:25Z</time>
    </trkpt>
    <trkpt lat="38.649492972" lon="34.892638978">
      <ele>1095.325</ele>
      <time>2021-10-12T15:00:26Z</time>
    </trkpt>
    <trkpt lat="38.649482997" lon="34.892605031">
      <ele>1095.483</ele>
      <time>2021-10-12T15:00:27Z</time>
    </trkpt>
    <trkpt lat="38.649475034" lon="34.892575024">
      <ele>1095.62</ele>
      <time>2021-10-12T15:00:28Z</time>
    </trkpt>
    <trkpt lat="38.649468999" lon="34.892544011">
      <ele>1095.753</ele>
      <time>2021-10-12T15:00:28Z</time>
    </trkpt>
    <trkpt lat="38.649460031" lon="34.892515009">
      <ele>1095.89</ele>
      <time>2021-10-12T15:00:29Z</time>
    </trkpt>
    <trkpt lat="38.649450978" lon="34.892481985">
      <ele>1096.041</ele>
      <time>2021-10-12T15:00:30Z</time>
    </trkpt>
    <trkpt lat="38.649439998" lon="34.892446026">
      <ele>1096.194</ele>
      <time>2021-10-12T15:00:32Z</time>
    </trkpt>
    <trkpt lat="38.649428012" lon="34.892409984">
      <ele>1096.324</ele>
      <time>2021-10-12T15:00:33Z</time>
    </trkpt>
    <trkpt lat="38.649419965" lon="34.892372014">
      <ele>1096.461</ele>
      <time>2021-10-12T15:00:34Z</time>
    </trkpt>
    <trkpt lat="38.649410997" lon="34.892335972">
      <ele>1096.591</ele>
      <time>2021-10-12T15:00:35Z</time>
    </trkpt>
    <trkpt lat="38.649404962" lon="34.892301019">
      <ele>1096.716</ele>
      <time>2021-10-12T15:00:36Z</time>
    </trkpt>
    <trkpt lat="38.64939901" lon="34.892264977">
      <ele>1096.846</ele>
      <time>2021-10-12T15:00:37Z</time>
    </trkpt>
    <trkpt lat="38.649394987" lon="34.892232036">
      <ele>1096.965</ele>
      <time>2021-10-12T15:00:38Z</time>
    </trkpt>
    <trkpt lat="38.649390042" lon="34.892195994">
      <ele>1097.094</ele>
      <time>2021-10-12T15:00:39Z</time>
    </trkpt>
    <trkpt lat="38.649386019" lon="34.892161964">
      <ele>1097.217</ele>
      <time>2021-10-12T15:00:40Z</time>
    </trkpt>
    <trkpt lat="38.649379984" lon="34.892131034">
      <ele>1097.328</ele>
      <time>2021-10-12T15:00:41Z</time>
    </trkpt>
    <trkpt lat="38.649374032" lon="34.892094992">
      <ele>1097.458</ele>
      <time>2021-10-12T15:00:42Z</time>
    </trkpt>
    <trkpt lat="38.649361962" lon="34.892060962">
      <ele>1097.581</ele>
      <time>2021-10-12T15:00:43Z</time>
    </trkpt>
    <trkpt lat="38.649351988" lon="34.892028021">
      <ele>1097.699</ele>
      <time>2021-10-12T15:00:44Z</time>
    </trkpt>
    <trkpt lat="38.649341008" lon="34.891996002">
      <ele>1097.814</ele>
      <time>2021-10-12T15:00:45Z</time>
    </trkpt>
    <trkpt lat="38.649332961" lon="34.891961971">
      <ele>1097.937</ele>
      <time>2021-10-12T15:00:46Z</time>
    </trkpt>
    <trkpt lat="38.649328016" lon="34.891930958">
      <ele>1098.097</ele>
      <time>2021-10-12T15:00:47Z</time>
    </trkpt>
    <trkpt lat="38.649320975" lon="34.891899023">
      <ele>1098.327</ele>
      <time>2021-10-12T15:00:48Z</time>
    </trkpt>
    <trkpt lat="38.649313012" lon="34.891865999">
      <ele>1098.565</ele>
      <time>2021-10-12T15:00:49Z</time>
    </trkpt>
    <trkpt lat="38.649304966" lon="34.891834985">
      <ele>1098.788</ele>
      <time>2021-10-12T15:00:50Z</time>
    </trkpt>
    <trkpt lat="38.649297003" lon="34.891805984">
      <ele>1098.997</ele>
      <time>2021-10-12T15:00:51Z</time>
    </trkpt>
    <trkpt lat="38.64928904" lon="34.891772959">
      <ele>1099.235</ele>
      <time>2021-10-12T15:00:52Z</time>
    </trkpt>
    <trkpt lat="38.649278982" lon="34.891746975">
      <ele>1099.422</ele>
      <time>2021-10-12T15:00:53Z</time>
    </trkpt>
    <trkpt lat="38.649270013" lon="34.891710011">
      <ele>1099.688</ele>
      <time>2021-10-12T15:00:54Z</time>
    </trkpt>
    <trkpt lat="38.649257021" lon="34.891669024">
      <ele>1099.983</ele>
      <time>2021-10-12T15:00:55Z</time>
    </trkpt>
    <trkpt lat="38.649244029" lon="34.891628036">
      <ele>1100.239</ele>
      <time>2021-10-12T15:00:56Z</time>
    </trkpt>
    <trkpt lat="38.649232965" lon="34.891587971">
      <ele>1100.499</ele>
      <time>2021-10-12T15:00:58Z</time>
    </trkpt>
    <trkpt lat="38.64922299" lon="34.891551007">
      <ele>1100.748</ele>
      <time>2021-10-12T15:00:59Z</time>
    </trkpt>
    <trkpt lat="38.649211004" lon="34.89151597">
      <ele>1100.998</ele>
      <time>2021-10-12T15:01:00Z</time>
    </trkpt>
    <trkpt lat="38.649199018" lon="34.891481018">
      <ele>1101.259</ele>
      <time>2021-10-12T15:01:01Z</time>
    </trkpt>
    <trkpt lat="38.649187032" lon="34.891442964">
      <ele>1101.552</ele>
      <time>2021-10-12T15:01:02Z</time>
    </trkpt>
    <trkpt lat="38.64917404" lon="34.891407005">
      <ele>1101.845</ele>
      <time>2021-10-12T15:01:03Z</time>
    </trkpt>
    <trkpt lat="38.64916197" lon="34.891370963">
      <ele>1102.065</ele>
      <time>2021-10-12T15:01:04Z</time>
    </trkpt>
    <trkpt lat="38.649149984" lon="34.891331987">
      <ele>1102.205</ele>
      <time>2021-10-12T15:01:06Z</time>
    </trkpt>
    <trkpt lat="38.649137998" lon="34.891294017">
      <ele>1102.342</ele>
      <time>2021-10-12T15:01:07Z</time>
    </trkpt>
    <trkpt lat="38.649126012" lon="34.891260993">
      <ele>1102.46</ele>
      <time>2021-10-12T15:01:08Z</time>
    </trkpt>
    <trkpt lat="38.649114026" lon="34.891228974">
      <ele>1102.576</ele>
      <time>2021-10-12T15:01:09Z</time>
    </trkpt>
    <trkpt lat="38.649099022" lon="34.891198967">
      <ele>1102.684</ele>
      <time>2021-10-12T15:01:10Z</time>
    </trkpt>
    <trkpt lat="38.649083013" lon="34.891172983">
      <ele>1102.777</ele>
      <time>2021-10-12T15:01:11Z</time>
    </trkpt>
    <trkpt lat="38.649065997" lon="34.891150016">
      <ele>1102.86</ele>
      <time>2021-10-12T15:01:12Z</time>
    </trkpt>
    <trkpt lat="38.649042025" lon="34.891130989">
      <ele>1102.928</ele>
      <time>2021-10-12T15:01:13Z</time>
    </trkpt>
    <trkpt lat="38.649017969" lon="34.891117997">
      <ele>1102.975</ele>
      <time>2021-10-12T15:01:14Z</time>
    </trkpt>
    <trkpt lat="38.648990979" lon="34.891113974">
      <ele>1102.99</ele>
      <time>2021-10-12T15:01:15Z</time>
    </trkpt>
    <trkpt lat="38.648958961" lon="34.891119003">
      <ele>1102.972</ele>
      <time>2021-10-12T15:01:16Z</time>
    </trkpt>
    <trkpt lat="38.648925014" lon="34.891129984">
      <ele>1102.932</ele>
      <time>2021-10-12T15:01:17Z</time>
    </trkpt>
    <trkpt lat="38.648896012" lon="34.89114197">
      <ele>1102.889</ele>
      <time>2021-10-12T15:01:19Z</time>
    </trkpt>
    <trkpt lat="38.64885997" lon="34.891154962">
      <ele>1102.826</ele>
      <time>2021-10-12T15:01:20Z</time>
    </trkpt>
    <trkpt lat="38.648826024" lon="34.891169965">
      <ele>1102.74</ele>
      <time>2021-10-12T15:01:21Z</time>
    </trkpt>
    <trkpt lat="38.648795011" lon="34.891187986">
      <ele>1102.63</ele>
      <time>2021-10-12T15:01:22Z</time>
    </trkpt>
    <trkpt lat="38.648765003" lon="34.891203996">
      <ele>1102.516</ele>
      <time>2021-10-12T15:01:24Z</time>
    </trkpt>
    <trkpt lat="38.648734996" lon="34.891217994">
      <ele>1102.402</ele>
      <time>2021-10-12T15:01:25Z</time>
    </trkpt>
    <trkpt lat="38.648703983" lon="34.891235009">
      <ele>1102.257</ele>
      <time>2021-10-12T15:01:26Z</time>
    </trkpt>
    <trkpt lat="38.648670036" lon="34.891254036">
      <ele>1102.08</ele>
      <time>2021-10-12T15:01:27Z</time>
    </trkpt>
    <trkpt lat="38.648641035" lon="34.891273985">
      <ele>1101.89</ele>
      <time>2021-10-12T15:01:29Z</time>
    </trkpt>
    <trkpt lat="38.64860801" lon="34.891292006">
      <ele>1101.698</ele>
      <time>2021-10-12T15:01:30Z</time>
    </trkpt>
    <trkpt lat="38.648571968" lon="34.891310027">
      <ele>1101.568</ele>
      <time>2021-10-12T15:01:31Z</time>
    </trkpt>
    <trkpt lat="38.64853601" lon="34.89132897">
      <ele>1101.431</ele>
      <time>2021-10-12T15:01:33Z</time>
    </trkpt>
    <trkpt lat="38.648499968" lon="34.891346991">
      <ele>1101.302</ele>
      <time>2021-10-12T15:01:34Z</time>
    </trkpt>
    <trkpt lat="38.648464009" lon="34.891364006">
      <ele>1101.179</ele>
      <time>2021-10-12T15:01:36Z</time>
    </trkpt>
    <trkpt lat="38.648427967" lon="34.891382027">
      <ele>1101.049</ele>
      <time>2021-10-12T15:01:37Z</time>
    </trkpt>
    <trkpt lat="38.648391003" lon="34.891395019">
      <ele>1100.978</ele>
      <time>2021-10-12T15:01:39Z</time>
    </trkpt>
    <trkpt lat="38.648355966" lon="34.891407005">
      <ele>1100.935</ele>
      <time>2021-10-12T15:01:40Z</time>
    </trkpt>
    <trkpt lat="38.648320008" lon="34.891418992">
      <ele>1100.844</ele>
      <time>2021-10-12T15:01:41Z</time>
    </trkpt>
    <trkpt lat="38.648283966" lon="34.89142796">
      <ele>1100.682</ele>
      <time>2021-10-12T15:01:43Z</time>
    </trkpt>
    <trkpt lat="38.648252031" lon="34.891439024">
      <ele>1100.527</ele>
      <time>2021-10-12T15:01:44Z</time>
    </trkpt>
    <trkpt lat="38.648219006" lon="34.891447993">
      <ele>1100.376</ele>
      <time>2021-10-12T15:01:45Z</time>
    </trkpt>
    <trkpt lat="38.64818397" lon="34.891464002">
      <ele>1100.192</ele>
      <time>2021-10-12T15:01:47Z</time>
    </trkpt>
    <trkpt lat="38.648152035" lon="34.891473977">
      <ele>1100.041</ele>
      <time>2021-10-12T15:01:48Z</time>
    </trkpt>
    <trkpt lat="38.648127979" lon="34.891483029">
      <ele>1099.922</ele>
      <time>2021-10-12T15:01:49Z</time>
    </trkpt>
    <trkpt lat="38.648099983" lon="34.891499961">
      <ele>1099.76</ele>
      <time>2021-10-12T15:01:50Z</time>
    </trkpt>
    <trkpt lat="38.648076011" lon="34.891520999">
      <ele>1099.598</ele>
      <time>2021-10-12T15:01:51Z</time>
    </trkpt>
    <trkpt lat="38.648053966" lon="34.891542038">
      <ele>1099.452</ele>
      <time>2021-10-12T15:01:52Z</time>
    </trkpt>
    <trkpt lat="38.648028988" lon="34.891560981">
      <ele>1099.44</ele>
      <time>2021-10-12T15:01:53Z</time>
    </trkpt>
    <trkpt lat="38.648006022" lon="34.891571961">
      <ele>1099.458</ele>
      <time>2021-10-12T15:01:54Z</time>
    </trkpt>
    <trkpt lat="38.647980038" lon="34.891579002">
      <ele>1099.502</ele>
      <time>2021-10-12T15:01:55Z</time>
    </trkpt>
    <trkpt lat="38.647948019" lon="34.891585037">
      <ele>1099.567</ele>
      <time>2021-10-12T15:01:56Z</time>
    </trkpt>
    <trkpt lat="38.647921029" lon="34.891585037">
      <ele>1099.636</ele>
      <time>2021-10-12T15:01:57Z</time>
    </trkpt>
    <trkpt lat="38.647895968" lon="34.891579002">
      <ele>1099.709</ele>
      <time>2021-10-12T15:01:58Z</time>
    </trkpt>
    <trkpt lat="38.647877024" lon="34.891561987">
      <ele>1099.777</ele>
      <time>2021-10-12T15:01:59Z</time>
    </trkpt>
    <trkpt lat="38.647861015" lon="34.891536003">
      <ele>1099.841</ele>
      <time>2021-10-12T15:02:00Z</time>
    </trkpt>
    <trkpt lat="38.647849029" lon="34.891493004">
      <ele>1099.904</ele>
      <time>2021-10-12T15:02:01Z</time>
    </trkpt>
    <trkpt lat="38.647835031" lon="34.891459979">
      <ele>1099.947</ele>
      <time>2021-10-12T15:02:02Z</time>
    </trkpt>
    <trkpt lat="38.647822039" lon="34.89142796">
      <ele>1099.978</ele>
      <time>2021-10-12T15:02:03Z</time>
    </trkpt>
    <trkpt lat="38.64780603" lon="34.891396025">
      <ele>1099.997</ele>
      <time>2021-10-12T15:02:04Z</time>
    </trkpt>
    <trkpt lat="38.647792032" lon="34.891365012">
      <ele>1100.09</ele>
      <time>2021-10-12T15:02:05Z</time>
    </trkpt>
    <trkpt lat="38.647777028" lon="34.891329976">
      <ele>1100.217</ele>
      <time>2021-10-12T15:02:07Z</time>
    </trkpt>
    <trkpt lat="38.647764036" lon="34.891297035">
      <ele>1100.43</ele>
      <time>2021-10-12T15:02:08Z</time>
    </trkpt>
    <trkpt lat="38.647749033" lon="34.891266022">
      <ele>1100.649</ele>
      <time>2021-10-12T15:02:09Z</time>
    </trkpt>
    <trkpt lat="38.647737969" lon="34.891234003">
      <ele>1100.844</ele>
      <time>2021-10-12T15:02:10Z</time>
    </trkpt>
    <trkpt lat="38.647724977" lon="34.891198967">
      <ele>1101.064</ele>
      <time>2021-10-12T15:02:11Z</time>
    </trkpt>
    <trkpt lat="38.647710979" lon="34.891167032">
      <ele>1101.28</ele>
      <time>2021-10-12T15:02:12Z</time>
    </trkpt>
    <trkpt lat="38.647696981" lon="34.891135013">
      <ele>1101.496</ele>
      <time>2021-10-12T15:02:13Z</time>
    </trkpt>
    <trkpt lat="38.647686001" lon="34.891102994">
      <ele>1101.69</ele>
      <time>2021-10-12T15:02:14Z</time>
    </trkpt>
    <trkpt lat="38.647673009" lon="34.891071981">
      <ele>1101.895</ele>
      <time>2021-10-12T15:02:15Z</time>
    </trkpt>
    <trkpt lat="38.647659011" lon="34.891040968">
      <ele>1102.108</ele>
      <time>2021-10-12T15:02:16Z</time>
    </trkpt>
    <trkpt lat="38.647645013" lon="34.891010961">
      <ele>1102.316</ele>
      <time>2021-10-12T15:02:17Z</time>
    </trkpt>
    <trkpt lat="38.647629004" lon="34.890983971">
      <ele>1102.529</ele>
      <time>2021-10-12T15:02:18Z</time>
    </trkpt>
    <trkpt lat="38.647615006" lon="34.890953042">
      <ele>1102.741</ele>
      <time>2021-10-12T15:02:19Z</time>
    </trkpt>
    <trkpt lat="38.647601008" lon="34.89092404">
      <ele>1102.946</ele>
      <time>2021-10-12T15:02:20Z</time>
    </trkpt>
    <trkpt lat="38.647589022" lon="34.890899984">
      <ele>1103.119</ele>
      <time>2021-10-12T15:02:21Z</time>
    </trkpt>
    <trkpt lat="38.64757603" lon="34.890870983">
      <ele>1103.317</ele>
      <time>2021-10-12T15:02:22Z</time>
    </trkpt>
    <trkpt lat="38.64756396" lon="34.890842987">
      <ele>1103.505</ele>
      <time>2021-10-12T15:02:23Z</time>
    </trkpt>
    <trkpt lat="38.647551974" lon="34.89081298">
      <ele>1103.772</ele>
      <time>2021-10-12T15:02:24Z</time>
    </trkpt>
    <trkpt lat="38.647536971" lon="34.890781967">
      <ele>1104.104</ele>
      <time>2021-10-12T15:02:25Z</time>
    </trkpt>
    <trkpt lat="38.647520039" lon="34.890755983">
      <ele>1104.413</ele>
      <time>2021-10-12T15:02:26Z</time>
    </trkpt>
    <trkpt lat="38.647503024" lon="34.890731005">
      <ele>1104.715</ele>
      <time>2021-10-12T15:02:27Z</time>
    </trkpt>
    <trkpt lat="38.647487015" lon="34.890710972">
      <ele>1105.001</ele>
      <time>2021-10-12T15:02:28Z</time>
    </trkpt>
    <trkpt lat="38.647466982" lon="34.890694963">
      <ele>1105.294</ele>
      <time>2021-10-12T15:02:28Z</time>
    </trkpt>
    <trkpt lat="38.64744301" lon="34.890687">
      <ele>1105.561</ele>
      <time>2021-10-12T15:02:29Z</time>
    </trkpt>
    <trkpt lat="38.647420965" lon="34.890685994">
      <ele>1105.764</ele>
      <time>2021-10-12T15:02:30Z</time>
    </trkpt>
    <trkpt lat="38.647397999" lon="34.890690017">
      <ele>1105.944</ele>
      <time>2021-10-12T15:02:31Z</time>
    </trkpt>
    <trkpt lat="38.647370003" lon="34.890699992">
      <ele>1106.139</ele>
      <time>2021-10-12T15:02:32Z</time>
    </trkpt>
    <trkpt lat="38.647347037" lon="34.890714996">
      <ele>1106.269</ele>
      <time>2021-10-12T15:02:33Z</time>
    </trkpt>
    <trkpt lat="38.647318035" lon="34.890731005">
      <ele>1106.461</ele>
      <time>2021-10-12T15:02:34Z</time>
    </trkpt>
    <trkpt lat="38.647291968" lon="34.890751038">
      <ele>1106.617</ele>
      <time>2021-10-12T15:02:35Z</time>
    </trkpt>
    <trkpt lat="38.647264978" lon="34.890770987">
      <ele>1106.797</ele>
      <time>2021-10-12T15:02:37Z</time>
    </trkpt>
    <trkpt lat="38.647237988" lon="34.890789008">
      <ele>1106.998</ele>
      <time>2021-10-12T15:02:38Z</time>
    </trkpt>
    <trkpt lat="38.647212004" lon="34.890800994">
      <ele>1107.222</ele>
      <time>2021-10-12T15:02:39Z</time>
    </trkpt>
    <trkpt lat="38.647181997" lon="34.890804011">
      <ele>1107.525</ele>
      <time>2021-10-12T15:02:40Z</time>
    </trkpt>
    <trkpt lat="38.647152996" lon="34.890802">
      <ele>1107.832</ele>
      <time>2021-10-12T15:02:41Z</time>
    </trkpt>
    <trkpt lat="38.647121983" lon="34.890799988">
      <ele>1108.159</ele>
      <time>2021-10-12T15:02:42Z</time>
    </trkpt>
    <trkpt lat="38.647093987" lon="34.890792025">
      <ele>1108.465</ele>
      <time>2021-10-12T15:02:43Z</time>
    </trkpt>
    <trkpt lat="38.647068003" lon="34.890778027">
      <ele>1108.754</ele>
      <time>2021-10-12T15:02:44Z</time>
    </trkpt>
    <trkpt lat="38.647045037" lon="34.890760006">
      <ele>1109.009</ele>
      <time>2021-10-12T15:02:45Z</time>
    </trkpt>
    <trkpt lat="38.647023998" lon="34.890738968">
      <ele>1109.238</ele>
      <time>2021-10-12T15:02:46Z</time>
    </trkpt>
    <trkpt lat="38.647005977" lon="34.890711978">
      <ele>1109.432</ele>
      <time>2021-10-12T15:02:47Z</time>
    </trkpt>
    <trkpt lat="38.646987034" lon="34.890692029">
      <ele>1109.618</ele>
      <time>2021-10-12T15:02:48Z</time>
    </trkpt>
    <trkpt lat="38.64696499" lon="34.890668979">
      <ele>1109.822</ele>
      <time>2021-10-12T15:02:49Z</time>
    </trkpt>
    <trkpt lat="38.646945041" lon="34.890646012">
      <ele>1109.995</ele>
      <time>2021-10-12T15:02:50Z</time>
    </trkpt>
    <trkpt lat="38.646925008" lon="34.890620029">
      <ele>1110.14</ele>
      <time>2021-10-12T15:02:51Z</time>
    </trkpt>
    <trkpt lat="38.646904975" lon="34.890597984">
      <ele>1110.284</ele>
      <time>2021-10-12T15:02:52Z</time>
    </trkpt>
    <trkpt lat="38.64688402" lon="34.890580969">
      <ele>1110.435</ele>
      <time>2021-10-12T15:02:53Z</time>
    </trkpt>
    <trkpt lat="38.646859964" lon="34.890565965">
      <ele>1110.608</ele>
      <time>2021-10-12T15:02:54Z</time>
    </trkpt>
    <trkpt lat="38.646836998" lon="34.890550962">
      <ele>1110.757</ele>
      <time>2021-10-12T15:02:55Z</time>
    </trkpt>
    <trkpt lat="38.646816965" lon="34.890533024">
      <ele>1110.837</ele>
      <time>2021-10-12T15:02:56Z</time>
    </trkpt>
    <trkpt lat="38.646797016" lon="34.890512992">
      <ele>1110.908</ele>
      <time>2021-10-12T15:02:57Z</time>
    </trkpt>
    <trkpt lat="38.646782013" lon="34.890489019">
      <ele>1110.93</ele>
      <time>2021-10-12T15:02:58Z</time>
    </trkpt>
    <trkpt lat="38.646768015" lon="34.890465969">
      <ele>1110.948</ele>
      <time>2021-10-12T15:02:59Z</time>
    </trkpt>
    <trkpt lat="38.646756029" lon="34.890437974">
      <ele>1110.933</ele>
      <time>2021-10-12T15:03:00Z</time>
    </trkpt>
    <trkpt lat="38.646744965" lon="34.890410984">
      <ele>1110.916</ele>
      <time>2021-10-12T15:03:00Z</time>
    </trkpt>
    <trkpt lat="38.646731973" lon="34.890386006">
      <ele>1110.919</ele>
      <time>2021-10-12T15:03:01Z</time>
    </trkpt>
    <trkpt lat="38.646723004" lon="34.890359016">
      <ele>1110.887</ele>
      <time>2021-10-12T15:03:02Z</time>
    </trkpt>
    <trkpt lat="38.646710012" lon="34.89033496">
      <ele>1110.894</ele>
      <time>2021-10-12T15:03:03Z</time>
    </trkpt>
    <trkpt lat="38.646692997" lon="34.89030797">
      <ele>1110.919</ele>
      <time>2021-10-12T15:03:04Z</time>
    </trkpt>
    <trkpt lat="38.646678999" lon="34.890282992">
      <ele>1110.93</ele>
      <time>2021-10-12T15:03:05Z</time>
    </trkpt>
    <trkpt lat="38.646663995" lon="34.890258014">
      <ele>1110.939</ele>
      <time>2021-10-12T15:03:06Z</time>
    </trkpt>
    <trkpt lat="38.646644969" lon="34.890233958">
      <ele>1110.933</ele>
      <time>2021-10-12T15:03:07Z</time>
    </trkpt>
    <trkpt lat="38.646628037" lon="34.890211998">
      <ele>1110.935</ele>
      <time>2021-10-12T15:03:08Z</time>
    </trkpt>
    <trkpt lat="38.64660901" lon="34.890187019">
      <ele>1110.949</ele>
      <time>2021-10-12T15:03:09Z</time>
    </trkpt>
    <trkpt lat="38.646589983" lon="34.890161036">
      <ele>1110.972</ele>
      <time>2021-10-12T15:03:10Z</time>
    </trkpt>
    <trkpt lat="38.646572968" lon="34.890139997">
      <ele>1111.009</ele>
      <time>2021-10-12T15:03:11Z</time>
    </trkpt>
    <trkpt lat="38.646555031" lon="34.890114013">
      <ele>1111.049</ele>
      <time>2021-10-12T15:03:12Z</time>
    </trkpt>
    <trkpt lat="38.646536004" lon="34.890089035">
      <ele>1111.111</ele>
      <time>2021-10-12T15:03:13Z</time>
    </trkpt>
    <trkpt lat="38.646516977" lon="34.890062967">
      <ele>1111.182</ele>
      <time>2021-10-12T15:03:14Z</time>
    </trkpt>
    <trkpt lat="38.646497028" lon="34.890035978">
      <ele>1111.272</ele>
      <time>2021-10-12T15:03:15Z</time>
    </trkpt>
    <trkpt lat="38.646478001" lon="34.890009994">
      <ele>1111.37</ele>
      <time>2021-10-12T15:03:16Z</time>
    </trkpt>
    <trkpt lat="38.64645998" lon="34.889979986">
      <ele>1111.579</ele>
      <time>2021-10-12T15:03:17Z</time>
    </trkpt>
    <trkpt lat="38.646441037" lon="34.889956014">
      <ele>1111.813</ele>
      <time>2021-10-12T15:03:18Z</time>
    </trkpt>
    <trkpt lat="38.64642201" lon="34.889932964">
      <ele>1112.032</ele>
      <time>2021-10-12T15:03:19Z</time>
    </trkpt>
    <trkpt lat="38.646404995" lon="34.889912009">
      <ele>1112.219</ele>
      <time>2021-10-12T15:03:20Z</time>
    </trkpt>
    <trkpt lat="38.646388985" lon="34.889889965">
      <ele>1112.396</ele>
      <time>2021-10-12T15:03:21Z</time>
    </trkpt>
    <trkpt lat="38.64637197" lon="34.889863981">
      <ele>1112.641</ele>
      <time>2021-10-12T15:03:22Z</time>
    </trkpt>
    <trkpt lat="38.646355961" lon="34.889839003">
      <ele>1112.885</ele>
      <time>2021-10-12T15:03:22Z</time>
    </trkpt>
    <trkpt lat="38.646341963" lon="34.889816036">
      <ele>1113.112</ele>
      <time>2021-10-12T15:03:23Z</time>
    </trkpt>
    <trkpt lat="38.646326037" lon="34.889788963">
      <ele>1113.384</ele>
      <time>2021-10-12T15:03:24Z</time>
    </trkpt>
    <trkpt lat="38.646310028" lon="34.889761973">
      <ele>1113.668</ele>
      <time>2021-10-12T15:03:25Z</time>
    </trkpt>
    <trkpt lat="38.646294018" lon="34.889734983">
      <ele>1113.963</ele>
      <time>2021-10-12T15:03:26Z</time>
    </trkpt>
    <trkpt lat="38.646274991" lon="34.889712017">
      <ele>1114.34</ele>
      <time>2021-10-12T15:03:27Z</time>
    </trkpt>
    <trkpt lat="38.64625697" lon="34.889687039">
      <ele>1114.805</ele>
      <time>2021-10-12T15:03:28Z</time>
    </trkpt>
    <trkpt lat="38.646237021" lon="34.889668012">
      <ele>1115.226</ele>
      <time>2021-10-12T15:03:29Z</time>
    </trkpt>
    <trkpt lat="38.646213971" lon="34.889649991">
      <ele>1115.669</ele>
      <time>2021-10-12T15:03:30Z</time>
    </trkpt>
    <trkpt lat="38.64619201" lon="34.889629958">
      <ele>1116.123</ele>
      <time>2021-10-12T15:03:31Z</time>
    </trkpt>
    <trkpt lat="38.64616896" lon="34.889609003">
      <ele>1116.598</ele>
      <time>2021-10-12T15:03:32Z</time>
    </trkpt>
    <trkpt lat="38.646151023" lon="34.889586959">
      <ele>1117.03</ele>
      <time>2021-10-12T15:03:33Z</time>
    </trkpt>
    <trkpt lat="38.646129984" lon="34.889572039">
      <ele>1117.418</ele>
      <time>2021-10-12T15:03:34Z</time>
    </trkpt>
    <trkpt lat="38.646111963" lon="34.889558963">
      <ele>1117.754</ele>
      <time>2021-10-12T15:03:35Z</time>
    </trkpt>
    <trkpt lat="38.64609302" lon="34.88954002">
      <ele>1118.098</ele>
      <time>2021-10-12T15:03:36Z</time>
    </trkpt>
    <trkpt lat="38.646074999" lon="34.889519988">
      <ele>1118.444</ele>
      <time>2021-10-12T15:03:37Z</time>
    </trkpt>
    <trkpt lat="38.646059996" lon="34.889496015">
      <ele>1118.811</ele>
      <time>2021-10-12T15:03:37Z</time>
    </trkpt>
    <trkpt lat="38.646047004" lon="34.889471037">
      <ele>1119.174</ele>
      <time>2021-10-12T15:03:38Z</time>
    </trkpt>
    <trkpt lat="38.646032" lon="34.889446981">
      <ele>1119.542</ele>
      <time>2021-10-12T15:03:39Z</time>
    </trkpt>
    <trkpt lat="38.646015991" lon="34.889422003">
      <ele>1119.927</ele>
      <time>2021-10-12T15:03:40Z</time>
    </trkpt>
    <trkpt lat="38.646001993" lon="34.889393002">
      <ele>1120.341</ele>
      <time>2021-10-12T15:03:41Z</time>
    </trkpt>
    <trkpt lat="38.645986989" lon="34.889364">
      <ele>1120.762</ele>
      <time>2021-10-12T15:03:42Z</time>
    </trkpt>
    <trkpt lat="38.645975003" lon="34.889339022">
      <ele>1121.119</ele>
      <time>2021-10-12T15:03:43Z</time>
    </trkpt>
    <trkpt lat="38.645959999" lon="34.88931396">
      <ele>1121.497</ele>
      <time>2021-10-12T15:03:44Z</time>
    </trkpt>
    <trkpt lat="38.645947007" lon="34.889288982">
      <ele>1121.861</ele>
      <time>2021-10-12T15:03:45Z</time>
    </trkpt>
    <trkpt lat="38.645932004" lon="34.88926501">
      <ele>1122.227</ele>
      <time>2021-10-12T15:03:46Z</time>
    </trkpt>
    <trkpt lat="38.645915994" lon="34.889235003">
      <ele>1122.667</ele>
      <time>2021-10-12T15:03:47Z</time>
    </trkpt>
    <trkpt lat="38.645903002" lon="34.889210025">
      <ele>1123.03</ele>
      <time>2021-10-12T15:03:48Z</time>
    </trkpt>
    <trkpt lat="38.645887999" lon="34.889181023">
      <ele>1123.451</ele>
      <time>2021-10-12T15:03:49Z</time>
    </trkpt>
    <trkpt lat="38.645874001" lon="34.88915504">
      <ele>1123.749</ele>
      <time>2021-10-12T15:03:50Z</time>
    </trkpt>
    <trkpt lat="38.645856986" lon="34.889130984">
      <ele>1123.958</ele>
      <time>2021-10-12T15:03:50Z</time>
    </trkpt>
    <trkpt lat="38.645841982" lon="34.889097959">
      <ele>1124.185</ele>
      <time>2021-10-12T15:03:52Z</time>
    </trkpt>
    <trkpt lat="38.645825973" lon="34.889068035">
      <ele>1124.338</ele>
      <time>2021-10-12T15:03:53Z</time>
    </trkpt>
    <trkpt lat="38.645811975" lon="34.889043979">
      <ele>1124.399</ele>
      <time>2021-10-12T15:03:53Z</time>
    </trkpt>
    <trkpt lat="38.645798983" lon="34.889021013">
      <ele>1124.466</ele>
      <time>2021-10-12T15:03:54Z</time>
    </trkpt>
    <trkpt lat="38.645782974" lon="34.888996035">
      <ele>1124.544</ele>
      <time>2021-10-12T15:03:55Z</time>
    </trkpt>
    <trkpt lat="38.645766964" lon="34.88897399">
      <ele>1124.62</ele>
      <time>2021-10-12T15:03:56Z</time>
    </trkpt>
    <trkpt lat="38.645753972" lon="34.888951024">
      <ele>1124.712</ele>
      <time>2021-10-12T15:03:57Z</time>
    </trkpt>
    <trkpt lat="38.645739974" lon="34.888927974">
      <ele>1124.812</ele>
      <time>2021-10-12T15:03:58Z</time>
    </trkpt>
    <trkpt lat="38.645723965" lon="34.888900984">
      <ele>1124.939</ele>
      <time>2021-10-12T15:03:59Z</time>
    </trkpt>
    <trkpt lat="38.645707034" lon="34.888877012">
      <ele>1125.0</ele>
      <time>2021-10-12T15:04:00Z</time>
    </trkpt>
    <trkpt lat="38.645691024" lon="34.888852034">
      <ele>1125.0</ele>
      <time>2021-10-12T15:04:01Z</time>
    </trkpt>
    <trkpt lat="38.645674009" lon="34.888826972">
      <ele>1125.0</ele>
      <time>2021-10-12T15:04:02Z</time>
    </trkpt>
    <trkpt lat="38.645660011" lon="34.888803">
      <ele>1125.0</ele>
      <time>2021-10-12T15:04:02Z</time>
    </trkpt>
    <trkpt lat="38.645642996" lon="34.888777016">
      <ele>1125.0</ele>
      <time>2021-10-12T15:04:03Z</time>
    </trkpt>
    <trkpt lat="38.645625981" lon="34.888751032">
      <ele>1125.0</ele>
      <time>2021-10-12T15:04:04Z</time>
    </trkpt>
    <trkpt lat="38.645609971" lon="34.888724964">
      <ele>1125.0</ele>
      <time>2021-10-12T15:04:05Z</time>
    </trkpt>
    <trkpt lat="38.64559304" lon="34.88869898">
      <ele>1125.0</ele>
      <time>2021-10-12T15:04:06Z</time>
    </trkpt>
    <trkpt lat="38.645576024" lon="34.888674002">
      <ele>1125.0</ele>
      <time>2021-10-12T15:04:07Z</time>
    </trkpt>
    <trkpt lat="38.645561021" lon="34.888649024">
      <ele>1125.0</ele>
      <time>2021-10-12T15:04:08Z</time>
    </trkpt>
    <trkpt lat="38.645548029" lon="34.88862304">
      <ele>1124.998</ele>
      <time>2021-10-12T15:04:09Z</time>
    </trkpt>
    <trkpt lat="38.645533025" lon="34.888598984">
      <ele>1125.004</ele>
      <time>2021-10-12T15:04:10Z</time>
    </trkpt>
    <trkpt lat="38.645521961" lon="34.888567971">
      <ele>1125.019</ele>
      <time>2021-10-12T15:04:11Z</time>
    </trkpt>
    <trkpt lat="38.645510981" lon="34.888541987">
      <ele>1125.04</ele>
      <time>2021-10-12T15:04:12Z</time>
    </trkpt>
    <trkpt lat="38.645497989" lon="34.888510974">
      <ele>1125.075</ele>
      <time>2021-10-12T15:04:13Z</time>
    </trkpt>
    <trkpt lat="38.645488014" lon="34.888485996">
      <ele>1125.11</ele>
      <time>2021-10-12T15:04:14Z</time>
    </trkpt>
    <trkpt lat="38.645476028" lon="34.888462024">
      <ele>1125.154</ele>
      <time>2021-10-12T15:04:15Z</time>
    </trkpt>
    <trkpt lat="38.64546597" lon="34.888436962">
      <ele>1125.202</ele>
      <time>2021-10-12T15:04:15Z</time>
    </trkpt>
    <trkpt lat="38.64545499" lon="34.88841299">
      <ele>1125.258</ele>
      <time>2021-10-12T15:04:16Z</time>
    </trkpt>
    <trkpt lat="38.645445015" lon="34.888384994">
      <ele>1125.324</ele>
      <time>2021-10-12T15:04:17Z</time>
    </trkpt>
    <trkpt lat="38.645435041" lon="34.888354987">
      <ele>1125.4</ele>
      <time>2021-10-12T15:04:18Z</time>
    </trkpt>
    <trkpt lat="38.645426994" lon="34.888325986">
      <ele>1125.503</ele>
      <time>2021-10-12T15:04:19Z</time>
    </trkpt>
    <trkpt lat="38.645419031" lon="34.888293967">
      <ele>1125.705</ele>
      <time>2021-10-12T15:04:20Z</time>
    </trkpt>
    <trkpt lat="38.645410985" lon="34.888263037">
      <ele>1125.895</ele>
      <time>2021-10-12T15:04:21Z</time>
    </trkpt>
    <trkpt lat="38.645403022" lon="34.888234036">
      <ele>1126.068</ele>
      <time>2021-10-12T15:04:22Z</time>
    </trkpt>
    <trkpt lat="38.645396987" lon="34.888204029">
      <ele>1126.236</ele>
      <time>2021-10-12T15:04:23Z</time>
    </trkpt>
    <trkpt lat="38.645391036" lon="34.888173016">
      <ele>1126.405</ele>
      <time>2021-10-12T15:04:24Z</time>
    </trkpt>
    <trkpt lat="38.645381983" lon="34.888140997">
      <ele>1126.577</ele>
      <time>2021-10-12T15:04:25Z</time>
    </trkpt>
    <trkpt lat="38.645377038" lon="34.888111996">
      <ele>1126.724</ele>
      <time>2021-10-12T15:04:25Z</time>
    </trkpt>
    <trkpt lat="38.645367986" lon="34.888088023">
      <ele>1126.845</ele>
      <time>2021-10-12T15:04:26Z</time>
    </trkpt>
    <trkpt lat="38.645358011" lon="34.888060028">
      <ele>1126.979</ele>
      <time>2021-10-12T15:04:27Z</time>
    </trkpt>
    <trkpt lat="38.645348959" lon="34.88803396">
      <ele>1127.349</ele>
      <time>2021-10-12T15:04:28Z</time>
    </trkpt>
    <trkpt lat="38.645338984" lon="34.888010994">
      <ele>1127.731</ele>
      <time>2021-10-12T15:04:29Z</time>
    </trkpt>
    <trkpt lat="38.64532901" lon="34.88798501">
      <ele>1128.176</ele>
      <time>2021-10-12T15:04:29Z</time>
    </trkpt>
    <trkpt lat="38.645319035" lon="34.887961037">
      <ele>1128.6</ele>
      <time>2021-10-12T15:04:30Z</time>
    </trkpt>
    <trkpt lat="38.645309983" lon="34.887933042">
      <ele>1129.103</ele>
      <time>2021-10-12T15:04:31Z</time>
    </trkpt>
    <trkpt lat="38.64530202" lon="34.887906974">
      <ele>1129.581</ele>
      <time>2021-10-12T15:04:32Z</time>
    </trkpt>
    <trkpt lat="38.645293973" lon="34.88788099">
      <ele>1130.069</ele>
      <time>2021-10-12T15:04:33Z</time>
    </trkpt>
    <trkpt lat="38.645288022" lon="34.887854001">
      <ele>1130.574</ele>
      <time>2021-10-12T15:04:34Z</time>
    </trkpt>
    <trkpt lat="38.645281987" lon="34.887828017">
      <ele>1131.071</ele>
      <time>2021-10-12T15:04:34Z</time>
    </trkpt>
    <trkpt lat="38.645274024" lon="34.887803039">
      <ele>1131.52</ele>
      <time>2021-10-12T15:04:35Z</time>
    </trkpt>
    <trkpt lat="38.645263966" lon="34.887774959">
      <ele>1131.931</ele>
      <time>2021-10-12T15:04:36Z</time>
    </trkpt>
    <trkpt lat="38.645250974" lon="34.887749981">
      <ele>1132.107</ele>
      <time>2021-10-12T15:04:37Z</time>
    </trkpt>
    <trkpt lat="38.645242006" lon="34.887723997">
      <ele>1132.323</ele>
      <time>2021-10-12T15:04:38Z</time>
    </trkpt>
    <trkpt lat="38.645232031" lon="34.887698013">
      <ele>1132.532</ele>
      <time>2021-10-12T15:04:39Z</time>
    </trkpt>
    <trkpt lat="38.645216022" lon="34.887674041">
      <ele>1132.676</ele>
      <time>2021-10-12T15:04:39Z</time>
    </trkpt>
    <trkpt lat="38.645204036" lon="34.887644034">
      <ele>1132.913</ele>
      <time>2021-10-12T15:04:40Z</time>
    </trkpt>
    <trkpt lat="38.645191966" lon="34.887616038">
      <ele>1133.129</ele>
      <time>2021-10-12T15:04:41Z</time>
    </trkpt>
    <trkpt lat="38.645178974" lon="34.887589971">
      <ele>1133.317</ele>
      <time>2021-10-12T15:04:42Z</time>
    </trkpt>
    <trkpt lat="38.645167993" lon="34.887562981">
      <ele>1133.529</ele>
      <time>2021-10-12T15:04:43Z</time>
    </trkpt>
    <trkpt lat="38.645159025" lon="34.887538003">
      <ele>1133.735</ele>
      <time>2021-10-12T15:04:44Z</time>
    </trkpt>
    <trkpt lat="38.645147961" lon="34.887515958">
      <ele>1133.893</ele>
      <time>2021-10-12T15:04:45Z</time>
    </trkpt>
    <trkpt lat="38.645137986" lon="34.887491986">
      <ele>1134.08</ele>
      <time>2021-10-12T15:04:45Z</time>
    </trkpt>
    <trkpt lat="38.645127006" lon="34.887467008">
      <ele>1134.281</ele>
      <time>2021-10-12T15:04:46Z</time>
    </trkpt>
    <trkpt lat="38.645116026" lon="34.887443036">
      <ele>1134.484</ele>
      <time>2021-10-12T15:04:47Z</time>
    </trkpt>
    <trkpt lat="38.645103034" lon="34.887417974">
      <ele>1134.704</ele>
      <time>2021-10-12T15:04:48Z</time>
    </trkpt>
    <trkpt lat="38.64509197" lon="34.887395008">
      <ele>1134.924</ele>
      <time>2021-10-12T15:04:49Z</time>
    </trkpt>
    <trkpt lat="38.645078978" lon="34.887371035">
      <ele>1135.162</ele>
      <time>2021-10-12T15:04:50Z</time>
    </trkpt>
    <trkpt lat="38.645065986" lon="34.887346979">
      <ele>1135.417</ele>
      <time>2021-10-12T15:04:50Z</time>
    </trkpt>
    <trkpt lat="38.645052994" lon="34.887322001">
      <ele>1135.7</ele>
      <time>2021-10-12T15:04:51Z</time>
    </trkpt>
    <trkpt lat="38.645040002" lon="34.887301968">
      <ele>1135.934</ele>
      <time>2021-10-12T15:04:52Z</time>
    </trkpt>
    <trkpt lat="38.64502701" lon="34.887281014">
      <ele>1136.195</ele>
      <time>2021-10-12T15:04:53Z</time>
    </trkpt>
    <trkpt lat="38.645016029" lon="34.887261987">
      <ele>1136.444</ele>
      <time>2021-10-12T15:04:54Z</time>
    </trkpt>
    <trkpt lat="38.645005971" lon="34.887232985">
      <ele>1136.847</ele>
      <time>2021-10-12T15:04:54Z</time>
    </trkpt>
    <trkpt lat="38.644994991" lon="34.887213036">
      <ele>1137.084</ele>
      <time>2021-10-12T15:04:55Z</time>
    </trkpt>
    <trkpt lat="38.644986022" lon="34.887189986">
      <ele>1137.282</ele>
      <time>2021-10-12T15:04:56Z</time>
    </trkpt>
    <trkpt lat="38.644974036" lon="34.887168026">
      <ele>1137.484</ele>
      <time>2021-10-12T15:04:57Z</time>
    </trkpt>
    <trkpt lat="38.644961966" lon="34.887150005">
      <ele>1137.657</ele>
      <time>2021-10-12T15:04:57Z</time>
    </trkpt>
    <trkpt lat="38.644943023" lon="34.887135001">
      <ele>1137.833</ele>
      <time>2021-10-12T15:04:58Z</time>
    </trkpt>
    <trkpt lat="38.644923996" lon="34.887121003">
      <ele>1138.002</ele>
      <time>2021-10-12T15:04:59Z</time>
    </trkpt>
    <trkpt lat="38.644902036" lon="34.887101976">
      <ele>1138.218</ele>
      <time>2021-10-12T15:05:00Z</time>
    </trkpt>
    <trkpt lat="38.644878985" lon="34.887084039">
      <ele>1138.431</ele>
      <time>2021-10-12T15:05:01Z</time>
    </trkpt>
    <trkpt lat="38.64485099" lon="34.887067024">
      <ele>1138.654</ele>
      <time>2021-10-12T15:05:02Z</time>
    </trkpt>
    <trkpt lat="38.644824" lon="34.887050008">
      <ele>1138.874</ele>
      <time>2021-10-12T15:05:03Z</time>
    </trkpt>
    <trkpt lat="38.644796005" lon="34.887036011">
      <ele>1139.075</ele>
      <time>2021-10-12T15:05:04Z</time>
    </trkpt>
    <trkpt lat="38.644770021" lon="34.887024025">
      <ele>1139.255</ele>
      <time>2021-10-12T15:05:05Z</time>
    </trkpt>
    <trkpt lat="38.644744959" lon="34.887018995">
      <ele>1139.381</ele>
      <time>2021-10-12T15:05:06Z</time>
    </trkpt>
    <trkpt lat="38.644718975" lon="34.887013966">
      <ele>1139.517</ele>
      <time>2021-10-12T15:05:07Z</time>
    </trkpt>
    <trkpt lat="38.644697014" lon="34.887006003">
      <ele>1139.698</ele>
      <time>2021-10-12T15:05:08Z</time>
    </trkpt>
    <trkpt lat="38.644672958" lon="34.886999968">
      <ele>1139.884</ele>
      <time>2021-10-12T15:05:09Z</time>
    </trkpt>
    <trkpt lat="38.644645968" lon="34.886995023">
      <ele>1140.085</ele>
      <time>2021-10-12T15:05:10Z</time>
    </trkpt>
    <trkpt lat="38.644618979" lon="34.886987982">
      <ele>1140.313</ele>
      <time>2021-10-12T15:05:11Z</time>
    </trkpt>
    <trkpt lat="38.644592995" lon="34.886979014">
      <ele>1140.566</ele>
      <time>2021-10-12T15:05:12Z</time>
    </trkpt>
    <trkpt lat="38.644570028" lon="34.886963004">
      <ele>1140.889</ele>
      <time>2021-10-12T15:05:13Z</time>
    </trkpt>
    <trkpt lat="38.644546978" lon="34.886941966">
      <ele>1141.271</ele>
      <time>2021-10-12T15:05:14Z</time>
    </trkpt>
    <trkpt lat="38.644524012" lon="34.88692998">
      <ele>1141.479</ele>
      <time>2021-10-12T15:05:15Z</time>
    </trkpt>
    <trkpt lat="38.644502973" lon="34.886911958">
      <ele>1141.696</ele>
      <time>2021-10-12T15:05:16Z</time>
    </trkpt>
    <trkpt lat="38.644486042" lon="34.886889998">
      <ele>1141.897</ele>
      <time>2021-10-12T15:05:17Z</time>
    </trkpt>
    <trkpt lat="38.644466009" lon="34.886868037">
      <ele>1142.12</ele>
      <time>2021-10-12T15:05:18Z</time>
    </trkpt>
    <trkpt lat="38.644451005" lon="34.886846999">
      <ele>1142.304</ele>
      <time>2021-10-12T15:05:19Z</time>
    </trkpt>
    <trkpt lat="38.644432984" lon="34.886827972">
      <ele>1142.495</ele>
      <time>2021-10-12T15:05:20Z</time>
    </trkpt>
    <trkpt lat="38.644419992" lon="34.886808023">
      <ele>1142.666</ele>
      <time>2021-10-12T15:05:20Z</time>
    </trkpt>
    <trkpt lat="38.644404989" lon="34.886793019">
      <ele>1142.842</ele>
      <time>2021-10-12T15:05:21Z</time>
    </trkpt>
    <trkpt lat="38.644387973" lon="34.886774998">
      <ele>1143.061</ele>
      <time>2021-10-12T15:05:22Z</time>
    </trkpt>
    <trkpt lat="38.644370958" lon="34.886756977">
      <ele>1143.297</ele>
      <time>2021-10-12T15:05:23Z</time>
    </trkpt>
    <trkpt lat="38.644353021" lon="34.886738034">
      <ele>1143.561</ele>
      <time>2021-10-12T15:05:24Z</time>
    </trkpt>
    <trkpt lat="38.644335" lon="34.886718001">
      <ele>1143.852</ele>
      <time>2021-10-12T15:05:24Z</time>
    </trkpt>
    <trkpt lat="38.644316979" lon="34.886698974">
      <ele>1144.154</ele>
      <time>2021-10-12T15:05:25Z</time>
    </trkpt>
    <trkpt lat="38.64429703" lon="34.886680031">
      <ele>1144.493</ele>
      <time>2021-10-12T15:05:26Z</time>
    </trkpt>
    <trkpt lat="38.644275991" lon="34.886658993">
      <ele>1144.864</ele>
      <time>2021-10-12T15:05:27Z</time>
    </trkpt>
    <trkpt lat="38.644255958" lon="34.886639966">
      <ele>1145.197</ele>
      <time>2021-10-12T15:05:28Z</time>
    </trkpt>
    <trkpt lat="38.644235004" lon="34.886621023">
      <ele>1145.55</ele>
      <time>2021-10-12T15:05:29Z</time>
    </trkpt>
    <trkpt lat="38.644214971" lon="34.886603002">
      <ele>1145.897</ele>
      <time>2021-10-12T15:05:30Z</time>
    </trkpt>
    <trkpt lat="38.644195022" lon="34.886585986">
      <ele>1146.245</ele>
      <time>2021-10-12T15:05:31Z</time>
    </trkpt>
    <trkpt lat="38.644177001" lon="34.886566037">
      <ele>1146.599</ele>
      <time>2021-10-12T15:05:32Z</time>
    </trkpt>
    <trkpt lat="38.644159986" lon="34.886546005">
      <ele>1146.893</ele>
      <time>2021-10-12T15:05:33Z</time>
    </trkpt>
    <trkpt lat="38.644138025" lon="34.886525972">
      <ele>1147.116</ele>
      <time>2021-10-12T15:05:34Z</time>
    </trkpt>
    <trkpt lat="38.644123022" lon="34.886510968">
      <ele>1147.278</ele>
      <time>2021-10-12T15:05:34Z</time>
    </trkpt>
    <trkpt lat="38.644106006" lon="34.886494037">
      <ele>1147.461</ele>
      <time>2021-10-12T15:05:35Z</time>
    </trkpt>
    <trkpt lat="38.644084968" lon="34.886477022">
      <ele>1147.66</ele>
      <time>2021-10-12T15:05:36Z</time>
    </trkpt>
    <trkpt lat="38.644062001" lon="34.886460006">
      <ele>1147.865</ele>
      <time>2021-10-12T15:05:37Z</time>
    </trkpt>
    <trkpt lat="38.644039035" lon="34.886439973">
      <ele>1148.092</ele>
      <time>2021-10-12T15:05:38Z</time>
    </trkpt>
    <trkpt lat="38.644014979" lon="34.886422036">
      <ele>1148.307</ele>
      <time>2021-10-12T15:05:39Z</time>
    </trkpt>
    <trkpt lat="38.643994024" lon="34.886404015">
      <ele>1148.513</ele>
      <time>2021-10-12T15:05:40Z</time>
    </trkpt>
    <trkpt lat="38.643972985" lon="34.886382977">
      <ele>1148.733</ele>
      <time>2021-10-12T15:05:41Z</time>
    </trkpt>
    <trkpt lat="38.643954964" lon="34.886362022">
      <ele>1148.933</ele>
      <time>2021-10-12T15:05:42Z</time>
    </trkpt>
    <trkpt lat="38.64393401" lon="34.886340983">
      <ele>1149.154</ele>
      <time>2021-10-12T15:05:43Z</time>
    </trkpt>
    <trkpt lat="38.643912971" lon="34.886323968">
      <ele>1149.36</ele>
      <time>2021-10-12T15:05:44Z</time>
    </trkpt>
    <trkpt lat="38.643894028" lon="34.886307959">
      <ele>1149.559</ele>
      <time>2021-10-12T15:05:45Z</time>
    </trkpt>
    <trkpt lat="38.643873995" lon="34.886289015">
      <ele>1149.738</ele>
      <time>2021-10-12T15:05:46Z</time>
    </trkpt>
    <trkpt lat="38.643853962" lon="34.886275018">
      <ele>1149.871</ele>
      <time>2021-10-12T15:05:46Z</time>
    </trkpt>
    <trkpt lat="38.643836025" lon="34.886262026">
      <ele>1150.0</ele>
      <time>2021-10-12T15:05:47Z</time>
    </trkpt>
    <trkpt lat="38.643816998" lon="34.886242999">
      <ele>1150.186</ele>
      <time>2021-10-12T15:05:48Z</time>
    </trkpt>
    <trkpt lat="38.643801995" lon="34.886229001">
      <ele>1150.331</ele>
      <time>2021-10-12T15:05:49Z</time>
    </trkpt>
    <trkpt lat="38.643783974" lon="34.886216009">
      <ele>1150.48</ele>
      <time>2021-10-12T15:05:49Z</time>
    </trkpt>
    <trkpt lat="38.643764025" lon="34.886201005">
      <ele>1150.657</ele>
      <time>2021-10-12T15:05:50Z</time>
    </trkpt>
    <trkpt lat="38.64374198" lon="34.886181979">
      <ele>1150.884</ele>
      <time>2021-10-12T15:05:51Z</time>
    </trkpt>
    <trkpt lat="38.64372002" lon="34.886163035">
      <ele>1151.12</ele>
      <time>2021-10-12T15:05:52Z</time>
    </trkpt>
    <trkpt lat="38.643699987" lon="34.886144008">
      <ele>1151.363</ele>
      <time>2021-10-12T15:05:53Z</time>
    </trkpt>
    <trkpt lat="38.643680038" lon="34.886126993">
      <ele>1151.595</ele>
      <time>2021-10-12T15:05:54Z</time>
    </trkpt>
    <trkpt lat="38.643661011" lon="34.886105033">
      <ele>1151.856</ele>
      <time>2021-10-12T15:05:55Z</time>
    </trkpt>
    <trkpt lat="38.643647013" lon="34.886086006">
      <ele>1152.028</ele>
      <time>2021-10-12T15:05:56Z</time>
    </trkpt>
    <trkpt lat="38.64362698" lon="34.886064967">
      <ele>1152.256</ele>
      <time>2021-10-12T15:05:57Z</time>
    </trkpt>
    <trkpt lat="38.643607032" lon="34.886045018">
      <ele>1152.453</ele>
      <time>2021-10-12T15:05:58Z</time>
    </trkpt>
    <trkpt lat="38.643588005" lon="34.886026997">
      <ele>1152.49</ele>
      <time>2021-10-12T15:05:59Z</time>
    </trkpt>
    <trkpt lat="38.64356596" lon="34.886005037">
      <ele>1152.563</ele>
      <time>2021-10-12T15:06:00Z</time>
    </trkpt>
    <trkpt lat="38.643546011" lon="34.885982992">
      <ele>1152.67</ele>
      <time>2021-10-12T15:06:01Z</time>
    </trkpt>
    <trkpt lat="38.643524973" lon="34.885960026">
      <ele>1152.805</ele>
      <time>2021-10-12T15:06:02Z</time>
    </trkpt>
    <trkpt lat="38.643508041" lon="34.885940999">
      <ele>1152.937</ele>
      <time>2021-10-12T15:06:02Z</time>
    </trkpt>
    <trkpt lat="38.643488009" lon="34.885920966">
      <ele>1153.089</ele>
      <time>2021-10-12T15:06:03Z</time>
    </trkpt>
    <trkpt lat="38.643465964" lon="34.885900011">
      <ele>1153.269</ele>
      <time>2021-10-12T15:06:04Z</time>
    </trkpt>
    <trkpt lat="38.643446015" lon="34.885875033">
      <ele>1153.521</ele>
      <time>2021-10-12T15:06:05Z</time>
    </trkpt>
    <trkpt lat="38.643427994" lon="34.885851983">
      <ele>1153.777</ele>
      <time>2021-10-12T15:06:06Z</time>
    </trkpt>
    <trkpt lat="38.643407039" lon="34.885827005">
      <ele>1154.04</ele>
      <time>2021-10-12T15:06:07Z</time>
    </trkpt>
    <trkpt lat="38.643390024" lon="34.885804038">
      <ele>1154.189</ele>
      <time>2021-10-12T15:06:08Z</time>
    </trkpt>
    <trkpt lat="38.643374015" lon="34.885775037">
      <ele>1154.389</ele>
      <time>2021-10-12T15:06:09Z</time>
    </trkpt>
    <trkpt lat="38.643353982" lon="34.885748969">
      <ele>1154.585</ele>
      <time>2021-10-12T15:06:10Z</time>
    </trkpt>
    <trkpt lat="38.643335039" lon="34.885726003">
      <ele>1154.77</ele>
      <time>2021-10-12T15:06:11Z</time>
    </trkpt>
    <trkpt lat="38.643316012" lon="34.885703037">
      <ele>1154.593</ele>
      <time>2021-10-12T15:06:12Z</time>
    </trkpt>
    <trkpt lat="38.643296985" lon="34.885680992">
      <ele>1154.383</ele>
      <time>2021-10-12T15:06:13Z</time>
    </trkpt>
    <trkpt lat="38.643277036" lon="34.885660037">
      <ele>1154.158</ele>
      <time>2021-10-12T15:06:14Z</time>
    </trkpt>
    <trkpt lat="38.643257003" lon="34.885634976">
      <ele>1153.976</ele>
      <time>2021-10-12T15:06:15Z</time>
    </trkpt>
    <trkpt lat="38.643236971" lon="34.885613015">
      <ele>1153.78</ele>
      <time>2021-10-12T15:06:16Z</time>
    </trkpt>
    <trkpt lat="38.643217022" lon="34.885591976">
      <ele>1153.589</ele>
      <time>2021-10-12T15:06:17Z</time>
    </trkpt>
    <trkpt lat="38.64319196" lon="34.88556901">
      <ele>1153.334</ele>
      <time>2021-10-12T15:06:18Z</time>
    </trkpt>
    <trkpt lat="38.643172011" lon="34.885546966">
      <ele>1153.15</ele>
      <time>2021-10-12T15:06:19Z</time>
    </trkpt>
    <trkpt lat="38.643149966" lon="34.885522993">
      <ele>1152.932</ele>
      <time>2021-10-12T15:06:21Z</time>
    </trkpt>
    <trkpt lat="38.643131023" lon="34.885497009">
      <ele>1152.819</ele>
      <time>2021-10-12T15:06:22Z</time>
    </trkpt>
    <trkpt lat="38.643109985" lon="34.885472031">
      <ele>1152.705</ele>
      <time>2021-10-12T15:06:23Z</time>
    </trkpt>
    <trkpt lat="38.643090036" lon="34.885446969">
      <ele>1152.648</ele>
      <time>2021-10-12T15:06:24Z</time>
    </trkpt>
    <trkpt lat="38.643071009" lon="34.885420986">
      <ele>1152.651</ele>
      <time>2021-10-12T15:06:25Z</time>
    </trkpt>
    <trkpt lat="38.643051982" lon="34.885396007">
      <ele>1152.64</ele>
      <time>2021-10-12T15:06:26Z</time>
    </trkpt>
    <trkpt lat="38.643035972" lon="34.885370024">
      <ele>1152.557</ele>
      <time>2021-10-12T15:06:27Z</time>
    </trkpt>
    <trkpt lat="38.643018035" lon="34.885341022">
      <ele>1152.476</ele>
      <time>2021-10-12T15:06:28Z</time>
    </trkpt>
    <trkpt lat="38.642996997" lon="34.885315038">
      <ele>1152.304</ele>
      <time>2021-10-12T15:06:29Z</time>
    </trkpt>
    <trkpt lat="38.642979981" lon="34.885283019">
      <ele>1152.306</ele>
      <time>2021-10-12T15:06:30Z</time>
    </trkpt>
    <trkpt lat="38.642962966" lon="34.885254018">
      <ele>1152.143</ele>
      <time>2021-10-12T15:06:31Z</time>
    </trkpt>
    <trkpt lat="38.64294704" lon="34.885217976">
      <ele>1152.077</ele>
      <time>2021-10-12T15:06:32Z</time>
    </trkpt>
    <trkpt lat="38.642932037" lon="34.885183023">
      <ele>1152.09</ele>
      <time>2021-10-12T15:06:33Z</time>
    </trkpt>
    <trkpt lat="38.642917033" lon="34.885147987">
      <ele>1152.173</ele>
      <time>2021-10-12T15:06:34Z</time>
    </trkpt>
    <trkpt lat="38.64290203" lon="34.885111023">
      <ele>1152.343</ele>
      <time>2021-10-12T15:06:36Z</time>
    </trkpt>
    <trkpt lat="38.642888032" lon="34.885077998">
      <ele>1152.55</ele>
      <time>2021-10-12T15:06:37Z</time>
    </trkpt>
    <trkpt lat="38.642870011" lon="34.885046985">
      <ele>1152.767</ele>
      <time>2021-10-12T15:06:38Z</time>
    </trkpt>
    <trkpt lat="38.64285199" lon="34.88501396">
      <ele>1153.083</ele>
      <time>2021-10-12T15:06:39Z</time>
    </trkpt>
    <trkpt lat="38.642836986" lon="34.884980014">
      <ele>1153.27</ele>
      <time>2021-10-12T15:06:40Z</time>
    </trkpt>
    <trkpt lat="38.642821983" lon="34.884944977">
      <ele>1153.326</ele>
      <time>2021-10-12T15:06:41Z</time>
    </trkpt>
    <trkpt lat="38.642808991" lon="34.884915976">
      <ele>1153.381</ele>
      <time>2021-10-12T15:06:42Z</time>
    </trkpt>
    <trkpt lat="38.642790969" lon="34.884883035">
      <ele>1153.449</ele>
      <time>2021-10-12T15:06:43Z</time>
    </trkpt>
    <trkpt lat="38.64273699" lon="34.884791002">
      <ele>1153.386</ele>
      <time>2021-10-12T15:06:47Z</time>
    </trkpt>
    <trkpt lat="38.642702037" lon="34.884731993">
      <ele>1153.4</ele>
      <time>2021-10-12T15:06:49Z</time>
    </trkpt>
    <trkpt lat="38.642680999" lon="34.884698968">
      <ele>1153.445</ele>
      <time>2021-10-12T15:06:50Z</time>
    </trkpt>
    <trkpt lat="38.642659038" lon="34.884668961">
      <ele>1153.501</ele>
      <time>2021-10-12T15:06:51Z</time>
    </trkpt>
    <trkpt lat="38.642640011" lon="34.884635014">
      <ele>1153.633</ele>
      <time>2021-10-12T15:06:53Z</time>
    </trkpt>
    <trkpt lat="38.642616961" lon="34.884608025">
      <ele>1153.729</ele>
      <time>2021-10-12T15:06:54Z</time>
    </trkpt>
    <trkpt lat="38.642595001" lon="34.884577012">
      <ele>1153.895</ele>
      <time>2021-10-12T15:06:55Z</time>
    </trkpt>
    <trkpt lat="38.642573962" lon="34.88454801">
      <ele>1154.08</ele>
      <time>2021-10-12T15:06:56Z</time>
    </trkpt>
    <trkpt lat="38.642555019" lon="34.884520015">
      <ele>1154.292</ele>
      <time>2021-10-12T15:06:57Z</time>
    </trkpt>
    <trkpt lat="38.64253398" lon="34.884491013">
      <ele>1154.538</ele>
      <time>2021-10-12T15:06:58Z</time>
    </trkpt>
    <trkpt lat="38.642511014" lon="34.884463018">
      <ele>1154.805</ele>
      <time>2021-10-12T15:07:00Z</time>
    </trkpt>
    <trkpt lat="38.642486036" lon="34.884444997">
      <ele>1154.843</ele>
      <time>2021-10-12T15:07:01Z</time>
    </trkpt>
    <trkpt lat="38.64245804" lon="34.884423958">
      <ele>1154.518</ele>
      <time>2021-10-12T15:07:02Z</time>
    </trkpt>
    <trkpt lat="38.642429961" lon="34.884397974">
      <ele>1154.245</ele>
      <time>2021-10-12T15:07:03Z</time>
    </trkpt>
    <trkpt lat="38.642337006" lon="34.884329997">
      <ele>1153.795</ele>
      <time>2021-10-12T15:07:07Z</time>
    </trkpt>
    <trkpt lat="38.642308004" lon="34.884302001">
      <ele>1153.831</ele>
      <time>2021-10-12T15:07:08Z</time>
    </trkpt>
    <trkpt lat="38.642283026" lon="34.884271994">
      <ele>1153.976</ele>
      <time>2021-10-12T15:07:10Z</time>
    </trkpt>
    <trkpt lat="38.64225897" lon="34.884240981">
      <ele>1154.207</ele>
      <time>2021-10-12T15:07:11Z</time>
    </trkpt>
    <trkpt lat="38.642233992" lon="34.884205023">
      <ele>1154.567</ele>
      <time>2021-10-12T15:07:12Z</time>
    </trkpt>
    <trkpt lat="38.642213037" lon="34.884168981">
      <ele>1154.941</ele>
      <time>2021-10-12T15:07:14Z</time>
    </trkpt>
    <trkpt lat="38.642190993" lon="34.884131011">
      <ele>1154.803</ele>
      <time>2021-10-12T15:07:15Z</time>
    </trkpt>
    <trkpt lat="38.642173978" lon="34.884095974">
      <ele>1154.704</ele>
      <time>2021-10-12T15:07:16Z</time>
    </trkpt>
    <trkpt lat="38.642155034" lon="34.884063033">
      <ele>1154.656</ele>
      <time>2021-10-12T15:07:17Z</time>
    </trkpt>
    <trkpt lat="38.642139025" lon="34.884026991">
      <ele>1154.649</ele>
      <time>2021-10-12T15:07:19Z</time>
    </trkpt>
    <trkpt lat="38.642127039" lon="34.883988015">
      <ele>1154.675</ele>
      <time>2021-10-12T15:07:20Z</time>
    </trkpt>
    <trkpt lat="38.642115975" lon="34.883953985">
      <ele>1154.73</ele>
      <time>2021-10-12T15:07:21Z</time>
    </trkpt>
    <trkpt lat="38.642102983" lon="34.883922972">
      <ele>1154.823</ele>
      <time>2021-10-12T15:07:22Z</time>
    </trkpt>
    <trkpt lat="38.642088985" lon="34.883889025">
      <ele>1154.959</ele>
      <time>2021-10-12T15:07:23Z</time>
    </trkpt>
    <trkpt lat="38.642074987" lon="34.883852983">
      <ele>1155.007</ele>
      <time>2021-10-12T15:07:24Z</time>
    </trkpt>
    <trkpt lat="38.642056966" lon="34.883817025">
      <ele>1155.134</ele>
      <time>2021-10-12T15:07:25Z</time>
    </trkpt>
    <trkpt lat="38.642037017" lon="34.883781988">
      <ele>1155.334</ele>
      <time>2021-10-12T15:07:27Z</time>
    </trkpt>
    <trkpt lat="38.64201799" lon="34.883748963">
      <ele>1155.574</ele>
      <time>2021-10-12T15:07:28Z</time>
    </trkpt>
    <trkpt lat="38.641998963" lon="34.883718034">
      <ele>1155.86</ele>
      <time>2021-10-12T15:07:29Z</time>
    </trkpt>
    <trkpt lat="38.64198002" lon="34.88368501">
      <ele>1156.196</ele>
      <time>2021-10-12T15:07:30Z</time>
    </trkpt>
    <trkpt lat="38.641963005" lon="34.883655002">
      <ele>1156.54</ele>
      <time>2021-10-12T15:07:31Z</time>
    </trkpt>
    <trkpt lat="38.641942972" lon="34.883627007">
      <ele>1156.937</ele>
      <time>2021-10-12T15:07:32Z</time>
    </trkpt>
    <trkpt lat="38.641924029" lon="34.883600017">
      <ele>1156.89</ele>
      <time>2021-10-12T15:07:33Z</time>
    </trkpt>
    <trkpt lat="38.641903996" lon="34.883573027">
      <ele>1156.737</ele>
      <time>2021-10-12T15:07:34Z</time>
    </trkpt>
    <trkpt lat="38.641883042" lon="34.88354696">
      <ele>1156.599</ele>
      <time>2021-10-12T15:07:36Z</time>
    </trkpt>
    <trkpt lat="38.641860997" lon="34.883518964">
      <ele>1156.468</ele>
      <time>2021-10-12T15:07:37Z</time>
    </trkpt>
    <trkpt lat="38.641839959" lon="34.883493986">
      <ele>1156.361</ele>
      <time>2021-10-12T15:07:38Z</time>
    </trkpt>
    <trkpt lat="38.641816992" lon="34.883460039">
      <ele>1156.247</ele>
      <time>2021-10-12T15:07:39Z</time>
    </trkpt>
    <trkpt lat="38.641762007" lon="34.883399019">
      <ele>1156.081</ele>
      <time>2021-10-12T15:07:42Z</time>
    </trkpt>
    <trkpt lat="38.641736023" lon="34.883368006">
      <ele>1156.031</ele>
      <time>2021-10-12T15:07:43Z</time>
    </trkpt>
    <trkpt lat="38.641713979" lon="34.883331964">
      <ele>1156.004</ele>
      <time>2021-10-12T15:07:44Z</time>
    </trkpt>
    <trkpt lat="38.641692018" lon="34.883293994">
      <ele>1156.129</ele>
      <time>2021-10-12T15:07:46Z</time>
    </trkpt>
    <trkpt lat="38.641671985" lon="34.883258035">
      <ele>1156.266</ele>
      <time>2021-10-12T15:07:47Z</time>
    </trkpt>
    <trkpt lat="38.641651031" lon="34.883221993">
      <ele>1156.401</ele>
      <time>2021-10-12T15:07:48Z</time>
    </trkpt>
    <trkpt lat="38.641630998" lon="34.883185029">
      <ele>1156.534</ele>
      <time>2021-10-12T15:07:50Z</time>
    </trkpt>
    <trkpt lat="38.641610965" lon="34.883147981">
      <ele>1156.667</ele>
      <time>2021-10-12T15:07:51Z</time>
    </trkpt>
    <trkpt lat="38.641594034" lon="34.883111017">
      <ele>1156.8</ele>
      <time>2021-10-12T15:07:52Z</time>
    </trkpt>
    <trkpt lat="38.641580036" lon="34.88307598">
      <ele>1156.926</ele>
      <time>2021-10-12T15:07:53Z</time>
    </trkpt>
    <trkpt lat="38.641564026" lon="34.88303801">
      <ele>1157.023</ele>
      <time>2021-10-12T15:07:55Z</time>
    </trkpt>
    <trkpt lat="38.641547011" lon="34.883004986">
      <ele>1157.078</ele>
      <time>2021-10-12T15:07:56Z</time>
    </trkpt>
    <trkpt lat="38.641532008" lon="34.882973973">
      <ele>1157.142</ele>
      <time>2021-10-12T15:07:57Z</time>
    </trkpt>
    <trkpt lat="38.641520021" lon="34.882943965">
      <ele>1157.212</ele>
      <time>2021-10-12T15:07:58Z</time>
    </trkpt>
    <trkpt lat="38.641509963" lon="34.882911025">
      <ele>1157.294</ele>
      <time>2021-10-12T15:07:59Z</time>
    </trkpt>
    <trkpt lat="38.641497977" lon="34.882878">
      <ele>1157.388</ele>
      <time>2021-10-12T15:08:00Z</time>
    </trkpt>
    <trkpt lat="38.641486997" lon="34.882850004">
      <ele>1157.479</ele>
      <time>2021-10-12T15:08:01Z</time>
    </trkpt>
    <trkpt lat="38.641476016" lon="34.88281304">
      <ele>1157.599</ele>
      <time>2021-10-12T15:08:02Z</time>
    </trkpt>
    <trkpt lat="38.641465036" lon="34.882772975">
      <ele>1157.76</ele>
      <time>2021-10-12T15:08:03Z</time>
    </trkpt>
    <trkpt lat="38.641451038" lon="34.88274104">
      <ele>1158.041</ele>
      <time>2021-10-12T15:08:04Z</time>
    </trkpt>
    <trkpt lat="38.641434023" lon="34.882707009">
      <ele>1158.347</ele>
      <time>2021-10-12T15:08:05Z</time>
    </trkpt>
    <trkpt lat="38.64141399" lon="34.882673984">
      <ele>1158.657</ele>
      <time>2021-10-12T15:08:07Z</time>
    </trkpt>
    <trkpt lat="38.641394041" lon="34.882641966">
      <ele>1158.959</ele>
      <time>2021-10-12T15:08:08Z</time>
    </trkpt>
    <trkpt lat="38.641371997" lon="34.882615982">
      <ele>1159.287</ele>
      <time>2021-10-12T15:08:09Z</time>
    </trkpt>
    <trkpt lat="38.641348025" lon="34.882594021">
      <ele>1159.617</ele>
      <time>2021-10-12T15:08:10Z</time>
    </trkpt>
    <trkpt lat="38.641322963" lon="34.882576">
      <ele>1159.927</ele>
      <time>2021-10-12T15:08:11Z</time>
    </trkpt>
    <trkpt lat="38.641294967" lon="34.882556973">
      <ele>1160.266</ele>
      <time>2021-10-12T15:08:12Z</time>
    </trkpt>
    <trkpt lat="38.641267978" lon="34.882540042">
      <ele>1160.582</ele>
      <time>2021-10-12T15:08:13Z</time>
    </trkpt>
    <trkpt lat="38.641238976" lon="34.882523026">
      <ele>1160.914</ele>
      <time>2021-10-12T15:08:15Z</time>
    </trkpt>
    <trkpt lat="38.641211987" lon="34.882513974">
      <ele>1161.173</ele>
      <time>2021-10-12T15:08:16Z</time>
    </trkpt>
    <trkpt lat="38.641181979" lon="34.882507017">
      <ele>1161.439</ele>
      <time>2021-10-12T15:08:17Z</time>
    </trkpt>
    <trkpt lat="38.641153984" lon="34.882497964">
      <ele>1161.691</ele>
      <time>2021-10-12T15:08:18Z</time>
    </trkpt>
    <trkpt lat="38.641126994" lon="34.882494025">
      <ele>1161.886</ele>
      <time>2021-10-12T15:08:19Z</time>
    </trkpt>
    <trkpt lat="38.64110101" lon="34.882491007">
      <ele>1162.001</ele>
      <time>2021-10-12T15:08:20Z</time>
    </trkpt>
    <trkpt lat="38.641046025" lon="34.882480027">
      <ele>1162.017</ele>
      <time>2021-10-12T15:08:22Z</time>
    </trkpt>
    <trkpt lat="38.641018029" lon="34.88247701">
      <ele>1162.028</ele>
      <time>2021-10-12T15:08:23Z</time>
    </trkpt>
    <trkpt lat="38.640990034" lon="34.882478015">
      <ele>1162.034</ele>
      <time>2021-10-12T15:08:24Z</time>
    </trkpt>
    <trkpt lat="38.640966984" lon="34.882473992">
      <ele>1162.049</ele>
      <time>2021-10-12T15:08:25Z</time>
    </trkpt>
    <trkpt lat="38.640870005" lon="34.882462006">
      <ele>1162.119</ele>
      <time>2021-10-12T15:08:28Z</time>
    </trkpt>
    <trkpt lat="38.640807979" lon="34.882454965">
      <ele>1162.33</ele>
      <time>2021-10-12T15:08:31Z</time>
    </trkpt>
    <trkpt lat="38.640777972" lon="34.882458989">
      <ele>1162.517</ele>
      <time>2021-10-12T15:08:32Z</time>
    </trkpt>
    <trkpt lat="38.64074897" lon="34.882461">
      <ele>1162.705</ele>
      <time>2021-10-12T15:08:33Z</time>
    </trkpt>
    <trkpt lat="38.640719969" lon="34.882466029">
      <ele>1162.889</ele>
      <time>2021-10-12T15:08:34Z</time>
    </trkpt>
    <trkpt lat="38.640689962" lon="34.882471981">
      <ele>1163.081</ele>
      <time>2021-10-12T15:08:35Z</time>
    </trkpt>
    <trkpt lat="38.640662972" lon="34.882473992">
      <ele>1163.263</ele>
      <time>2021-10-12T15:08:36Z</time>
    </trkpt>
    <trkpt lat="38.640637994" lon="34.882473992">
      <ele>1163.434</ele>
      <time>2021-10-12T15:08:37Z</time>
    </trkpt>
    <trkpt lat="38.64061201" lon="34.882474998">
      <ele>1163.612</ele>
      <time>2021-10-12T15:08:38Z</time>
    </trkpt>
    <trkpt lat="38.640587032" lon="34.882478015">
      <ele>1163.782</ele>
      <time>2021-10-12T15:08:39Z</time>
    </trkpt>
    <trkpt lat="38.640562976" lon="34.88247701">
      <ele>1163.949</ele>
      <time>2021-10-12T15:08:40Z</time>
    </trkpt>
    <trkpt lat="38.640540009" lon="34.882474998">
      <ele>1164.056</ele>
      <time>2021-10-12T15:08:41Z</time>
    </trkpt>
    <trkpt lat="38.640517965" lon="34.882473992">
      <ele>1164.135</ele>
      <time>2021-10-12T15:08:41Z</time>
    </trkpt>
    <trkpt lat="38.640492987" lon="34.882473992">
      <ele>1164.225</ele>
      <time>2021-10-12T15:08:42Z</time>
    </trkpt>
    <trkpt lat="38.640469015" lon="34.882473992">
      <ele>1164.312</ele>
      <time>2021-10-12T15:08:43Z</time>
    </trkpt>
    <trkpt lat="38.64044697" lon="34.882471981">
      <ele>1164.391</ele>
      <time>2021-10-12T15:08:44Z</time>
    </trkpt>
    <trkpt lat="38.640422998" lon="34.882468041">
      <ele>1164.477</ele>
      <time>2021-10-12T15:08:45Z</time>
    </trkpt>
    <trkpt lat="38.640399026" lon="34.882466029">
      <ele>1164.564</ele>
      <time>2021-10-12T15:08:46Z</time>
    </trkpt>
    <trkpt lat="38.640352003" lon="34.882462006">
      <ele>1164.733</ele>
      <time>2021-10-12T15:08:48Z</time>
    </trkpt>
    <trkpt lat="38.640289977" lon="34.882471981">
      <ele>1164.956</ele>
      <time>2021-10-12T15:08:50Z</time>
    </trkpt>
    <trkpt lat="38.640257958" lon="34.882479021">
      <ele>1165.011</ele>
      <time>2021-10-12T15:08:51Z</time>
    </trkpt>
    <trkpt lat="38.640230969" lon="34.882484972">
      <ele>1165.018</ele>
      <time>2021-10-12T15:08:52Z</time>
    </trkpt>
    <trkpt lat="38.640204985" lon="34.88248799">
      <ele>1165.023</ele>
      <time>2021-10-12T15:08:53Z</time>
    </trkpt>
    <trkpt lat="38.640175983" lon="34.882490002">
      <ele>1165.026</ele>
      <time>2021-10-12T15:08:54Z</time>
    </trkpt>
    <trkpt lat="38.640145976" lon="34.88249897">
      <ele>1165.004</ele>
      <time>2021-10-12T15:08:55Z</time>
    </trkpt>
    <trkpt lat="38.640117981" lon="34.882506011">
      <ele>1164.966</ele>
      <time>2021-10-12T15:08:56Z</time>
    </trkpt>
    <trkpt lat="38.640089985" lon="34.88251498">
      <ele>1164.91</ele>
      <time>2021-10-12T15:08:57Z</time>
    </trkpt>
    <trkpt lat="38.640060984" lon="34.882521015">
      <ele>1164.865</ele>
      <time>2021-10-12T15:08:58Z</time>
    </trkpt>
    <trkpt lat="38.640027959" lon="34.882528977">
      <ele>1164.802</ele>
      <time>2021-10-12T15:09:00Z</time>
    </trkpt>
    <trkpt lat="38.639993006" lon="34.882535012">
      <ele>1164.795</ele>
      <time>2021-10-12T15:09:01Z</time>
    </trkpt>
    <trkpt lat="38.639962999" lon="34.882540042">
      <ele>1164.959</ele>
      <time>2021-10-12T15:09:02Z</time>
    </trkpt>
    <trkpt lat="38.639932992" lon="34.882544987">
      <ele>1165.119</ele>
      <time>2021-10-12T15:09:03Z</time>
    </trkpt>
    <trkpt lat="38.639906002" lon="34.88254901">
      <ele>1165.264</ele>
      <time>2021-10-12T15:09:04Z</time>
    </trkpt>
    <trkpt lat="38.639879012" lon="34.88254901">
      <ele>1165.441</ele>
      <time>2021-10-12T15:09:05Z</time>
    </trkpt>
    <trkpt lat="38.639849005" lon="34.882550016">
      <ele>1165.629</ele>
      <time>2021-10-12T15:09:06Z</time>
    </trkpt>
    <trkpt lat="38.639817992" lon="34.882552028">
      <ele>1165.813</ele>
      <time>2021-10-12T15:09:08Z</time>
    </trkpt>
    <trkpt lat="38.639787985" lon="34.882554961">
      <ele>1165.98</ele>
      <time>2021-10-12T15:09:09Z</time>
    </trkpt>
    <trkpt lat="38.639759989" lon="34.882555967">
      <ele>1166.151</ele>
      <time>2021-10-12T15:09:10Z</time>
    </trkpt>
    <trkpt lat="38.639731994" lon="34.882556973">
      <ele>1166.322</ele>
      <time>2021-10-12T15:09:11Z</time>
    </trkpt>
    <trkpt lat="38.639703998" lon="34.882557979">
      <ele>1166.322</ele>
      <time>2021-10-12T15:09:12Z</time>
    </trkpt>
    <trkpt lat="38.639674997" lon="34.882562002">
      <ele>1166.198</ele>
      <time>2021-10-12T15:09:13Z</time>
    </trkpt>
    <trkpt lat="38.639648007" lon="34.882564014">
      <ele>1166.103</ele>
      <time>2021-10-12T15:09:14Z</time>
    </trkpt>
    <trkpt lat="38.639623029" lon="34.882563008">
      <ele>1166.043</ele>
      <time>2021-10-12T15:09:15Z</time>
    </trkpt>
    <trkpt lat="38.63959101" lon="34.882564014">
      <ele>1165.945</ele>
      <time>2021-10-12T15:09:16Z</time>
    </trkpt>
    <trkpt lat="38.639557986" lon="34.88256502">
      <ele>1165.845</ele>
      <time>2021-10-12T15:09:17Z</time>
    </trkpt>
    <trkpt lat="38.639525967" lon="34.88256502">
      <ele>1165.757</ele>
      <time>2021-10-12T15:09:18Z</time>
    </trkpt>
    <trkpt lat="38.639494032" lon="34.882566025">
      <ele>1165.661</ele>
      <time>2021-10-12T15:09:20Z</time>
    </trkpt>
    <trkpt lat="38.639461007" lon="34.882564014">
      <ele>1165.585</ele>
      <time>2021-10-12T15:09:21Z</time>
    </trkpt>
    <trkpt lat="38.639429994" lon="34.882559991">
      <ele>1165.672</ele>
      <time>2021-10-12T15:09:22Z</time>
    </trkpt>
    <trkpt lat="38.639399987" lon="34.882554961">
      <ele>1165.924</ele>
      <time>2021-10-12T15:09:23Z</time>
    </trkpt>
    <trkpt lat="38.639368974" lon="34.882550016">
      <ele>1166.183</ele>
      <time>2021-10-12T15:09:24Z</time>
    </trkpt>
    <trkpt lat="38.639338966" lon="34.882544987">
      <ele>1166.436</ele>
      <time>2021-10-12T15:09:25Z</time>
    </trkpt>
    <trkpt lat="38.639309965" lon="34.88253803">
      <ele>1166.694</ele>
      <time>2021-10-12T15:09:26Z</time>
    </trkpt>
    <trkpt lat="38.639280042" lon="34.882536018">
      <ele>1166.924</ele>
      <time>2021-10-12T15:09:27Z</time>
    </trkpt>
    <trkpt lat="38.639249029" lon="34.882534007">
      <ele>1167.162</ele>
      <time>2021-10-12T15:09:29Z</time>
    </trkpt>
    <trkpt lat="38.639219021" lon="34.882531995">
      <ele>1167.393</ele>
      <time>2021-10-12T15:09:30Z</time>
    </trkpt>
    <trkpt lat="38.639191026" lon="34.882525038">
      <ele>1167.644</ele>
      <time>2021-10-12T15:09:31Z</time>
    </trkpt>
    <trkpt lat="38.639162024" lon="34.88252202">
      <ele>1167.876</ele>
      <time>2021-10-12T15:09:32Z</time>
    </trkpt>
    <trkpt lat="38.639130006" lon="34.882520009">
      <ele>1168.129</ele>
      <time>2021-10-12T15:09:33Z</time>
    </trkpt>
    <trkpt lat="38.639093963" lon="34.882521015">
      <ele>1168.392</ele>
      <time>2021-10-12T15:09:34Z</time>
    </trkpt>
    <trkpt lat="38.639063034" lon="34.882521015">
      <ele>1168.623</ele>
      <time>2021-10-12T15:09:36Z</time>
    </trkpt>
    <trkpt lat="38.639036966" lon="34.882525038">
      <ele>1168.796</ele>
      <time>2021-10-12T15:09:37Z</time>
    </trkpt>
    <trkpt lat="38.639006037" lon="34.882529983">
      <ele>1169.003</ele>
      <time>2021-10-12T15:09:38Z</time>
    </trkpt>
    <trkpt lat="38.638975024" lon="34.882535012">
      <ele>1169.215</ele>
      <time>2021-10-12T15:09:39Z</time>
    </trkpt>
    <trkpt lat="38.638945017" lon="34.882544987">
      <ele>1169.401</ele>
      <time>2021-10-12T15:09:40Z</time>
    </trkpt>
    <trkpt lat="38.638912998" lon="34.882559991">
      <ele>1169.592</ele>
      <time>2021-10-12T15:09:41Z</time>
    </trkpt>
    <trkpt lat="38.638885003" lon="34.882574994">
      <ele>1169.74</ele>
      <time>2021-10-12T15:09:42Z</time>
    </trkpt>
    <trkpt lat="38.638858013" lon="34.88258698">
      <ele>1169.763</ele>
      <time>2021-10-12T15:09:43Z</time>
    </trkpt>
    <trkpt lat="38.638832029" lon="34.882599972">
      <ele>1169.771</ele>
      <time>2021-10-12T15:09:44Z</time>
    </trkpt>
    <trkpt lat="38.638807973" lon="34.882612964">
      <ele>1169.766</ele>
      <time>2021-10-12T15:09:45Z</time>
    </trkpt>
    <trkpt lat="38.638781989" lon="34.88262604">
      <ele>1169.756</ele>
      <time>2021-10-12T15:09:46Z</time>
    </trkpt>
    <trkpt lat="38.638757011" lon="34.882636014">
      <ele>1169.753</ele>
      <time>2021-10-12T15:09:47Z</time>
    </trkpt>
    <trkpt lat="38.638735972" lon="34.882648">
      <ele>1169.724</ele>
      <time>2021-10-12T15:09:48Z</time>
    </trkpt>
    <trkpt lat="38.638710994" lon="34.882659987">
      <ele>1169.696</ele>
      <time>2021-10-12T15:09:49Z</time>
    </trkpt>
    <trkpt lat="38.63868501" lon="34.882670967">
      <ele>1169.667</ele>
      <time>2021-10-12T15:09:50Z</time>
    </trkpt>
    <trkpt lat="38.638655003" lon="34.882683037">
      <ele>1169.628</ele>
      <time>2021-10-12T15:09:51Z</time>
    </trkpt>
    <trkpt lat="38.63862399" lon="34.882694017">
      <ele>1169.589</ele>
      <time>2021-10-12T15:09:53Z</time>
    </trkpt>
    <trkpt lat="38.638595995" lon="34.88270198">
      <ele>1169.506</ele>
      <time>2021-10-12T15:09:54Z</time>
    </trkpt>
    <trkpt lat="38.638569005" lon="34.882709021">
      <ele>1169.381</ele>
      <time>2021-10-12T15:09:55Z</time>
    </trkpt>
    <trkpt lat="38.638540003" lon="34.882714972">
      <ele>1169.254</ele>
      <time>2021-10-12T15:09:56Z</time>
    </trkpt>
    <trkpt lat="38.638512008" lon="34.882723019">
      <ele>1169.108</ele>
      <time>2021-10-12T15:09:57Z</time>
    </trkpt>
    <trkpt lat="38.638484012" lon="34.882733999">
      <ele>1168.93</ele>
      <time>2021-10-12T15:09:58Z</time>
    </trkpt>
    <trkpt lat="38.638458028" lon="34.882750008">
      <ele>1168.704</ele>
      <time>2021-10-12T15:09:59Z</time>
    </trkpt>
    <trkpt lat="38.638430033" lon="34.88277398">
      <ele>1168.384</ele>
      <time>2021-10-12T15:10:00Z</time>
    </trkpt>
    <trkpt lat="38.638405977" lon="34.882804994">
      <ele>1167.993</ele>
      <time>2021-10-12T15:10:02Z</time>
    </trkpt>
    <trkpt lat="38.638384016" lon="34.882841036">
      <ele>1167.541</ele>
      <time>2021-10-12T15:10:03Z</time>
    </trkpt>
    <trkpt lat="38.638368007" lon="34.882883029">
      <ele>1167.035</ele>
      <time>2021-10-12T15:10:04Z</time>
    </trkpt>
    <trkpt lat="38.638351997" lon="34.882929968">
      <ele>1166.46</ele>
      <time>2021-10-12T15:10:06Z</time>
    </trkpt>
    <trkpt lat="38.638335988" lon="34.882971961">
      <ele>1165.919</ele>
      <time>2021-10-12T15:10:07Z</time>
    </trkpt>
    <trkpt lat="38.638320984" lon="34.883013032">
      <ele>1165.497</ele>
      <time>2021-10-12T15:10:08Z</time>
    </trkpt>
    <trkpt lat="38.638307992" lon="34.883058965">
      <ele>1165.067</ele>
      <time>2021-10-12T15:10:10Z</time>
    </trkpt>
    <trkpt lat="38.638296006" lon="34.883103976">
      <ele>1164.786</ele>
      <time>2021-10-12T15:10:11Z</time>
    </trkpt>
    <trkpt lat="38.638282008" lon="34.883147981">
      <ele>1164.519</ele>
      <time>2021-10-12T15:10:13Z</time>
    </trkpt>
    <trkpt lat="38.638271028" lon="34.883187963">
      <ele>1164.271</ele>
      <time>2021-10-12T15:10:14Z</time>
    </trkpt>
    <trkpt lat="38.638256025" lon="34.883230962">
      <ele>1164.015</ele>
      <time>2021-10-12T15:10:15Z</time>
    </trkpt>
    <trkpt lat="38.638236998" lon="34.883273961">
      <ele>1163.774</ele>
      <time>2021-10-12T15:10:17Z</time>
    </trkpt>
    <trkpt lat="38.638223" lon="34.88331696">
      <ele>1163.515</ele>
      <time>2021-10-12T15:10:18Z</time>
    </trkpt>
    <trkpt lat="38.638204979" lon="34.883359959">
      <ele>1163.315</ele>
      <time>2021-10-12T15:10:19Z</time>
    </trkpt>
    <trkpt lat="38.638184024" lon="34.883399019">
      <ele>1163.192</ele>
      <time>2021-10-12T15:10:21Z</time>
    </trkpt>
    <trkpt lat="38.63816198" lon="34.883435983">
      <ele>1163.106</ele>
      <time>2021-10-12T15:10:22Z</time>
    </trkpt>
    <trkpt lat="38.638144964" lon="34.883475965">
      <ele>1162.999</ele>
      <time>2021-10-12T15:10:23Z</time>
    </trkpt>
    <trkpt lat="38.638121998" lon="34.883511001">
      <ele>1162.968</ele>
      <time>2021-10-12T15:10:25Z</time>
    </trkpt>
    <trkpt lat="38.638080005" lon="34.883584008">
      <ele>1162.93</ele>
      <time>2021-10-12T15:10:27Z</time>
    </trkpt>
    <trkpt lat="38.638059972" lon="34.883624995">
      <ele>1162.919</ele>
      <time>2021-10-12T15:10:29Z</time>
    </trkpt>
    <trkpt lat="38.63804304" lon="34.883661037">
      <ele>1162.918</ele>
      <time>2021-10-12T15:10:30Z</time>
    </trkpt>
    <trkpt lat="38.638024013" lon="34.883698002">
      <ele>1162.95</ele>
      <time>2021-10-12T15:10:31Z</time>
    </trkpt>
    <trkpt lat="38.63800901" lon="34.883736977">
      <ele>1162.958</ele>
      <time>2021-10-12T15:10:32Z</time>
    </trkpt>
    <trkpt lat="38.637994006" lon="34.883770002">
      <ele>1162.998</ele>
      <time>2021-10-12T15:10:34Z</time>
    </trkpt>
    <trkpt lat="38.637981014" lon="34.883797998">
      <ele>1163.044</ele>
      <time>2021-10-12T15:10:35Z</time>
    </trkpt>
    <trkpt lat="38.637969028" lon="34.883830016">
      <ele>1163.08</ele>
      <time>2021-10-12T15:10:36Z</time>
    </trkpt>
    <trkpt lat="38.637959976" lon="34.883856">
      <ele>1163.11</ele>
      <time>2021-10-12T15:10:36Z</time>
    </trkpt>
    <trkpt lat="38.637944972" lon="34.883887013">
      <ele>1163.198</ele>
      <time>2021-10-12T15:10:37Z</time>
    </trkpt>
    <trkpt lat="38.637934998" lon="34.883921966">
      <ele>1163.473</ele>
      <time>2021-10-12T15:10:39Z</time>
    </trkpt>
    <trkpt lat="38.637927035" lon="34.883955996">
      <ele>1163.741</ele>
      <time>2021-10-12T15:10:40Z</time>
    </trkpt>
    <trkpt lat="38.637915971" lon="34.883991033">
      <ele>1164.06</ele>
      <time>2021-10-12T15:10:41Z</time>
    </trkpt>
    <trkpt lat="38.63790499" lon="34.884027997">
      <ele>1164.398</ele>
      <time>2021-10-12T15:10:42Z</time>
    </trkpt>
    <trkpt lat="38.637887975" lon="34.884065967">
      <ele>1164.832</ele>
      <time>2021-10-12T15:10:43Z</time>
    </trkpt>
    <trkpt lat="38.63787096" lon="34.884097986">
      <ele>1165.247</ele>
      <time>2021-10-12T15:10:44Z</time>
    </trkpt>
    <trkpt lat="38.637847994" lon="34.884124976">
      <ele>1165.727</ele>
      <time>2021-10-12T15:10:45Z</time>
    </trkpt>
    <trkpt lat="38.637807006" lon="34.884165041">
      <ele>1166.568</ele>
      <time>2021-10-12T15:10:47Z</time>
    </trkpt>
    <trkpt lat="38.63778404" lon="34.884181973">
      <ele>1166.911</ele>
      <time>2021-10-12T15:10:48Z</time>
    </trkpt>
    <trkpt lat="38.637761995" lon="34.884202005">
      <ele>1167.163</ele>
      <time>2021-10-12T15:10:49Z</time>
    </trkpt>
    <trkpt lat="38.637741962" lon="34.884222038">
      <ele>1167.361</ele>
      <time>2021-10-12T15:10:50Z</time>
    </trkpt>
    <trkpt lat="38.637722014" lon="34.884237964">
      <ele>1167.551</ele>
      <time>2021-10-12T15:10:51Z</time>
    </trkpt>
    <trkpt lat="38.637701981" lon="34.884255985">
      <ele>1167.731</ele>
      <time>2021-10-12T15:10:52Z</time>
    </trkpt>
    <trkpt lat="38.637684966" lon="34.884280963">
      <ele>1167.865</ele>
      <time>2021-10-12T15:10:53Z</time>
    </trkpt>
    <trkpt lat="38.637668034" lon="34.884309964">
      <ele>1167.981</ele>
      <time>2021-10-12T15:10:54Z</time>
    </trkpt>
    <trkpt lat="38.637652025" lon="34.884343995">
      <ele>1168.069</ele>
      <time>2021-10-12T15:10:55Z</time>
    </trkpt>
    <trkpt lat="38.637640961" lon="34.884377019">
      <ele>1168.105</ele>
      <time>2021-10-12T15:10:56Z</time>
    </trkpt>
    <trkpt lat="38.637634004" lon="34.88440996">
      <ele>1168.099</ele>
      <time>2021-10-12T15:10:57Z</time>
    </trkpt>
    <trkpt lat="38.637624029" lon="34.884446003">
      <ele>1168.109</ele>
      <time>2021-10-12T15:10:58Z</time>
    </trkpt>
    <trkpt lat="38.637611959" lon="34.884483973">
      <ele>1168.251</ele>
      <time>2021-10-12T15:10:59Z</time>
    </trkpt>
    <trkpt lat="38.637574995" lon="34.884582041">
      <ele>1168.594</ele>
      <time>2021-10-12T15:11:03Z</time>
    </trkpt>
    <trkpt lat="38.637559991" lon="34.884613976">
      <ele>1168.7</ele>
      <time>2021-10-12T15:11:04Z</time>
    </trkpt>
    <trkpt lat="38.637548005" lon="34.884645995">
      <ele>1168.78</ele>
      <time>2021-10-12T15:11:05Z</time>
    </trkpt>
    <trkpt lat="38.637540964" lon="34.884682037">
      <ele>1168.831</ele>
      <time>2021-10-12T15:11:06Z</time>
    </trkpt>
    <trkpt lat="38.63753099" lon="34.88471196">
      <ele>1168.884</ele>
      <time>2021-10-12T15:11:07Z</time>
    </trkpt>
    <trkpt lat="38.637521015" lon="34.884748003">
      <ele>1169.024</ele>
      <time>2021-10-12T15:11:08Z</time>
    </trkpt>
    <trkpt lat="38.637512969" lon="34.884783961">
      <ele>1169.186</ele>
      <time>2021-10-12T15:11:09Z</time>
    </trkpt>
    <trkpt lat="38.637502994" lon="34.884820003">
      <ele>1169.345</ele>
      <time>2021-10-12T15:11:10Z</time>
    </trkpt>
    <trkpt lat="38.637494026" lon="34.884855961">
      <ele>1169.524</ele>
      <time>2021-10-12T15:11:11Z</time>
    </trkpt>
    <trkpt lat="38.637484973" lon="34.884888986">
      <ele>1169.709</ele>
      <time>2021-10-12T15:11:12Z</time>
    </trkpt>
    <trkpt lat="38.637473993" lon="34.884925028">
      <ele>1169.917</ele>
      <time>2021-10-12T15:11:13Z</time>
    </trkpt>
    <trkpt lat="38.637462007" lon="34.884959981">
      <ele>1170.129</ele>
      <time>2021-10-12T15:11:14Z</time>
    </trkpt>
    <trkpt lat="38.637452032" lon="34.884996023">
      <ele>1170.331</ele>
      <time>2021-10-12T15:11:16Z</time>
    </trkpt>
    <trkpt lat="38.637443986" lon="34.885028964">
      <ele>1170.591</ele>
      <time>2021-10-12T15:11:17Z</time>
    </trkpt>
    <trkpt lat="38.637435017" lon="34.885062994">
      <ele>1170.868</ele>
      <time>2021-10-12T15:11:18Z</time>
    </trkpt>
    <trkpt lat="38.637424959" lon="34.885093002">
      <ele>1171.119</ele>
      <time>2021-10-12T15:11:19Z</time>
    </trkpt>
    <trkpt lat="38.637413979" lon="34.885124015">
      <ele>1171.374</ele>
      <time>2021-10-12T15:11:19Z</time>
    </trkpt>
    <trkpt lat="38.637401992" lon="34.885156034">
      <ele>1171.631</ele>
      <time>2021-10-12T15:11:21Z</time>
    </trkpt>
    <trkpt lat="38.637391012" lon="34.885186041">
      <ele>1171.861</ele>
      <time>2021-10-12T15:11:21Z</time>
    </trkpt>
    <trkpt lat="38.63737802" lon="34.885215964">
      <ele>1172.092</ele>
      <time>2021-10-12T15:11:22Z</time>
    </trkpt>
    <trkpt lat="38.637363017" lon="34.885241026">
      <ele>1172.294</ele>
      <time>2021-10-12T15:11:23Z</time>
    </trkpt>
    <trkpt lat="38.637350025" lon="34.885271033">
      <ele>1172.504</ele>
      <time>2021-10-12T15:11:24Z</time>
    </trkpt>
    <trkpt lat="38.637338039" lon="34.88530104">
      <ele>1172.716</ele>
      <time>2021-10-12T15:11:25Z</time>
    </trkpt>
    <trkpt lat="38.637328986" lon="34.885330042">
      <ele>1172.92</ele>
      <time>2021-10-12T15:11:26Z</time>
    </trkpt>
    <trkpt lat="38.637315994" lon="34.885361977">
      <ele>1173.166</ele>
      <time>2021-10-12T15:11:27Z</time>
    </trkpt>
    <trkpt lat="38.637305014" lon="34.885390978">
      <ele>1173.396</ele>
      <time>2021-10-12T15:11:28Z</time>
    </trkpt>
    <trkpt lat="38.637293028" lon="34.885417968">
      <ele>1173.626</ele>
      <time>2021-10-12T15:11:29Z</time>
    </trkpt>
    <trkpt lat="38.637281042" lon="34.885447975">
      <ele>1173.884</ele>
      <time>2021-10-12T15:11:30Z</time>
    </trkpt>
    <trkpt lat="38.637272995" lon="34.885478988">
      <ele>1174.134</ele>
      <time>2021-10-12T15:11:31Z</time>
    </trkpt>
    <trkpt lat="38.637264026" lon="34.885510001">
      <ele>1174.396</ele>
      <time>2021-10-12T15:11:32Z</time>
    </trkpt>
    <trkpt lat="38.63725598" lon="34.885540009">
      <ele>1174.652</ele>
      <time>2021-10-12T15:11:33Z</time>
    </trkpt>
    <trkpt lat="38.637249023" lon="34.885565992">
      <ele>1174.845</ele>
      <time>2021-10-12T15:11:34Z</time>
    </trkpt>
    <trkpt lat="38.637242988" lon="34.885596">
      <ele>1174.996</ele>
      <time>2021-10-12T15:11:35Z</time>
    </trkpt>
    <trkpt lat="38.637240976" lon="34.885625001">
      <ele>1175.115</ele>
      <time>2021-10-12T15:11:35Z</time>
    </trkpt>
    <trkpt lat="38.637236031" lon="34.88565702">
      <ele>1175.266</ele>
      <time>2021-10-12T15:11:36Z</time>
    </trkpt>
    <trkpt lat="38.637232007" lon="34.885689039">
      <ele>1175.41</ele>
      <time>2021-10-12T15:11:37Z</time>
    </trkpt>
    <trkpt lat="38.637226978" lon="34.885720974">
      <ele>1175.561</ele>
      <time>2021-10-12T15:11:38Z</time>
    </trkpt>
    <trkpt lat="38.637220021" lon="34.885753999">
      <ele>1175.736</ele>
      <time>2021-10-12T15:11:39Z</time>
    </trkpt>
    <trkpt lat="38.637210969" lon="34.885783">
      <ele>1175.933</ele>
      <time>2021-10-12T15:11:40Z</time>
    </trkpt>
    <trkpt lat="38.637199989" lon="34.88580999">
      <ele>1176.149</ele>
      <time>2021-10-12T15:11:41Z</time>
    </trkpt>
    <trkpt lat="38.637189008" lon="34.885839997">
      <ele>1176.404</ele>
      <time>2021-10-12T15:11:42Z</time>
    </trkpt>
    <trkpt lat="38.637176016" lon="34.885867992">
      <ele>1176.728</ele>
      <time>2021-10-12T15:11:43Z</time>
    </trkpt>
    <trkpt lat="38.637162019" lon="34.88589297">
      <ele>1177.033</ele>
      <time>2021-10-12T15:11:44Z</time>
    </trkpt>
    <trkpt lat="38.637149027" lon="34.885919038">
      <ele>1177.326</ele>
      <time>2021-10-12T15:11:45Z</time>
    </trkpt>
    <trkpt lat="38.637136035" lon="34.885945022">
      <ele>1177.61</ele>
      <time>2021-10-12T15:11:46Z</time>
    </trkpt>
    <trkpt lat="38.637121031" lon="34.885973018">
      <ele>1177.915</ele>
      <time>2021-10-12T15:11:47Z</time>
    </trkpt>
    <trkpt lat="38.637106027" lon="34.886001013">
      <ele>1178.21</ele>
      <time>2021-10-12T15:11:48Z</time>
    </trkpt>
    <trkpt lat="38.63709203" lon="34.886028003">
      <ele>1178.479</ele>
      <time>2021-10-12T15:11:49Z</time>
    </trkpt>
    <trkpt lat="38.637077026" lon="34.886057004">
      <ele>1178.758</ele>
      <time>2021-10-12T15:11:50Z</time>
    </trkpt>
    <trkpt lat="38.637063028" lon="34.886085">
      <ele>1179.012</ele>
      <time>2021-10-12T15:11:51Z</time>
    </trkpt>
    <trkpt lat="38.637048025" lon="34.886112995">
      <ele>1179.259</ele>
      <time>2021-10-12T15:11:52Z</time>
    </trkpt>
    <trkpt lat="38.637033021" lon="34.886136968">
      <ele>1179.422</ele>
      <time>2021-10-12T15:11:52Z</time>
    </trkpt>
    <trkpt lat="38.637018017" lon="34.886158006">
      <ele>1179.56</ele>
      <time>2021-10-12T15:11:53Z</time>
    </trkpt>
    <trkpt lat="38.637003014" lon="34.886181979">
      <ele>1179.686</ele>
      <time>2021-10-12T15:11:54Z</time>
    </trkpt>
    <trkpt lat="38.63698801" lon="34.886203017">
      <ele>1179.79</ele>
      <time>2021-10-12T15:11:55Z</time>
    </trkpt>
    <trkpt lat="38.636972001" lon="34.886227995">
      <ele>1179.885</ele>
      <time>2021-10-12T15:11:56Z</time>
    </trkpt>
    <trkpt lat="38.636955991" lon="34.886255991">
      <ele>1179.96</ele>
      <time>2021-10-12T15:11:57Z</time>
    </trkpt>
    <trkpt lat="38.636944005" lon="34.886283986">
      <ele>1180.003</ele>
      <time>2021-10-12T15:11:58Z</time>
    </trkpt>
    <trkpt lat="38.636927996" lon="34.886310976">
      <ele>1180.118</ele>
      <time>2021-10-12T15:11:59Z</time>
    </trkpt>
    <trkpt lat="38.636915004" lon="34.886338972">
      <ele>1180.212</ele>
      <time>2021-10-12T15:12:00Z</time>
    </trkpt>
    <trkpt lat="38.636904024" lon="34.886367973">
      <ele>1180.291</ele>
      <time>2021-10-12T15:12:01Z</time>
    </trkpt>
    <trkpt lat="38.636891032" lon="34.886398986">
      <ele>1180.392</ele>
      <time>2021-10-12T15:12:02Z</time>
    </trkpt>
    <trkpt lat="38.636878962" lon="34.886425976">
      <ele>1180.503</ele>
      <time>2021-10-12T15:12:03Z</time>
    </trkpt>
    <trkpt lat="38.636863958" lon="34.886453971">
      <ele>1180.647</ele>
      <time>2021-10-12T15:12:04Z</time>
    </trkpt>
    <trkpt lat="38.636849038" lon="34.886479033">
      <ele>1180.798</ele>
      <time>2021-10-12T15:12:05Z</time>
    </trkpt>
    <trkpt lat="38.636835963" lon="34.886505017">
      <ele>1180.944</ele>
      <time>2021-10-12T15:12:05Z</time>
    </trkpt>
    <trkpt lat="38.636822971" lon="34.886534018">
      <ele>1181.103</ele>
      <time>2021-10-12T15:12:06Z</time>
    </trkpt>
    <trkpt lat="38.636810984" lon="34.886564026">
      <ele>1181.264</ele>
      <time>2021-10-12T15:12:07Z</time>
    </trkpt>
    <trkpt lat="38.636802016" lon="34.886595039">
      <ele>1181.406</ele>
      <time>2021-10-12T15:12:08Z</time>
    </trkpt>
    <trkpt lat="38.636792041" lon="34.88662798">
      <ele>1181.57</ele>
      <time>2021-10-12T15:12:09Z</time>
    </trkpt>
    <trkpt lat="38.636781983" lon="34.886656981">
      <ele>1181.734</ele>
      <time>2021-10-12T15:12:10Z</time>
    </trkpt>
    <trkpt lat="38.636772009" lon="34.886687994">
      <ele>1181.786</ele>
      <time>2021-10-12T15:12:11Z</time>
    </trkpt>
    <trkpt lat="38.636762034" lon="34.886716995">
      <ele>1181.789</ele>
      <time>2021-10-12T15:12:12Z</time>
    </trkpt>
    <trkpt lat="38.636752982" lon="34.886748008">
      <ele>1181.775</ele>
      <time>2021-10-12T15:12:13Z</time>
    </trkpt>
    <trkpt lat="38.636743007" lon="34.886778016">
      <ele>1181.775</ele>
      <time>2021-10-12T15:12:14Z</time>
    </trkpt>
    <trkpt lat="38.636734039" lon="34.886807017">
      <ele>1181.767</ele>
      <time>2021-10-12T15:12:15Z</time>
    </trkpt>
    <trkpt lat="38.636722974" lon="34.886837024">
      <ele>1181.779</ele>
      <time>2021-10-12T15:12:16Z</time>
    </trkpt>
    <trkpt lat="38.636711994" lon="34.88686502">
      <ele>1181.796</ele>
      <time>2021-10-12T15:12:17Z</time>
    </trkpt>
    <trkpt lat="38.636704031" lon="34.886896033">
      <ele>1181.771</ele>
      <time>2021-10-12T15:12:18Z</time>
    </trkpt>
    <trkpt lat="38.636691961" lon="34.886927968">
      <ele>1181.786</ele>
      <time>2021-10-12T15:12:19Z</time>
    </trkpt>
    <trkpt lat="38.636681987" lon="34.886958981">
      <ele>1181.887</ele>
      <time>2021-10-12T15:12:20Z</time>
    </trkpt>
    <trkpt lat="38.636671007" lon="34.886988988">
      <ele>1182.113</ele>
      <time>2021-10-12T15:12:21Z</time>
    </trkpt>
    <trkpt lat="38.636659021" lon="34.887020001">
      <ele>1182.367</ele>
      <time>2021-10-12T15:12:22Z</time>
    </trkpt>
    <trkpt lat="38.636648962" lon="34.887047997">
      <ele>1182.58</ele>
      <time>2021-10-12T15:12:23Z</time>
    </trkpt>
    <trkpt lat="38.636637982" lon="34.887076998">
      <ele>1182.792</ele>
      <time>2021-10-12T15:12:24Z</time>
    </trkpt>
    <trkpt lat="38.636627002" lon="34.887104994">
      <ele>1182.984</ele>
      <time>2021-10-12T15:12:25Z</time>
    </trkpt>
    <trkpt lat="38.636617027" lon="34.887133995">
      <ele>1183.153</ele>
      <time>2021-10-12T15:12:25Z</time>
    </trkpt>
    <trkpt lat="38.636606969" lon="34.887160985">
      <ele>1183.304</ele>
      <time>2021-10-12T15:12:26Z</time>
    </trkpt>
    <trkpt lat="38.636596994" lon="34.887185963">
      <ele>1183.437</ele>
      <time>2021-10-12T15:12:27Z</time>
    </trkpt>
    <trkpt lat="38.636586014" lon="34.887211025">
      <ele>1183.564</ele>
      <time>2021-10-12T15:12:28Z</time>
    </trkpt>
    <trkpt lat="38.636575034" lon="34.887237009">
      <ele>1183.66</ele>
      <time>2021-10-12T15:12:29Z</time>
    </trkpt>
    <trkpt lat="38.63656397" lon="34.887262993">
      <ele>1183.739</ele>
      <time>2021-10-12T15:12:30Z</time>
    </trkpt>
    <trkpt lat="38.636552989" lon="34.887289982">
      <ele>1183.818</ele>
      <time>2021-10-12T15:12:31Z</time>
    </trkpt>
    <trkpt lat="38.636543015" lon="34.887315966">
      <ele>1183.89</ele>
      <time>2021-10-12T15:12:31Z</time>
    </trkpt>
    <trkpt lat="38.636532035" lon="34.887341028">
      <ele>1183.969</ele>
      <time>2021-10-12T15:12:32Z</time>
    </trkpt>
    <trkpt lat="38.636519965" lon="34.887367012">
      <ele>1184.056</ele>
      <time>2021-10-12T15:12:33Z</time>
    </trkpt>
    <trkpt lat="38.636508984" lon="34.887390984">
      <ele>1184.135</ele>
      <time>2021-10-12T15:12:34Z</time>
    </trkpt>
    <trkpt lat="38.636498004" lon="34.887417974">
      <ele>1184.214</ele>
      <time>2021-10-12T15:12:35Z</time>
    </trkpt>
    <trkpt lat="38.636486018" lon="34.887444964">
      <ele>1184.301</ele>
      <time>2021-10-12T15:12:36Z</time>
    </trkpt>
    <trkpt lat="38.63647596" lon="34.887474971">
      <ele>1184.373</ele>
      <time>2021-10-12T15:12:37Z</time>
    </trkpt>
    <trkpt lat="38.636462968" lon="34.887505984">
      <ele>1184.467</ele>
      <time>2021-10-12T15:12:38Z</time>
    </trkpt>
    <trkpt lat="38.63644897" lon="34.887533979">
      <ele>1184.567</ele>
      <time>2021-10-12T15:12:39Z</time>
    </trkpt>
    <trkpt lat="38.636436984" lon="34.887563987">
      <ele>1184.654</ele>
      <time>2021-10-12T15:12:40Z</time>
    </trkpt>
    <trkpt lat="38.636422986" lon="34.887598017">
      <ele>1184.755</ele>
      <time>2021-10-12T15:12:41Z</time>
    </trkpt>
    <trkpt lat="38.636411" lon="34.88762903">
      <ele>1184.841</ele>
      <time>2021-10-12T15:12:42Z</time>
    </trkpt>
    <trkpt lat="38.636403959" lon="34.887661971">
      <ele>1184.891</ele>
      <time>2021-10-12T15:12:43Z</time>
    </trkpt>
    <trkpt lat="38.636402031" lon="34.887694996">
      <ele>1184.905</ele>
      <time>2021-10-12T15:12:44Z</time>
    </trkpt>
    <trkpt lat="38.636402031" lon="34.887721986">
      <ele>1184.905</ele>
      <time>2021-10-12T15:12:44Z</time>
    </trkpt>
    <trkpt lat="38.636406977" lon="34.887760039">
      <ele>1184.87</ele>
      <time>2021-10-12T15:12:46Z</time>
    </trkpt>
    <trkpt lat="38.636413012" lon="34.887807984">
      <ele>1184.718</ele>
      <time>2021-10-12T15:12:47Z</time>
    </trkpt>
    <trkpt lat="38.636413012" lon="34.887835979">
      <ele>1184.617</ele>
      <time>2021-10-12T15:12:48Z</time>
    </trkpt>
    <trkpt lat="38.636414018" lon="34.887872022">
      <ele>1184.48</ele>
      <time>2021-10-12T15:12:49Z</time>
    </trkpt>
    <trkpt lat="38.636407983" lon="34.887919966">
      <ele>1184.351</ele>
      <time>2021-10-12T15:12:50Z</time>
    </trkpt>
    <trkpt lat="38.636403037" lon="34.887961037">
      <ele>1184.238</ele>
      <time>2021-10-12T15:12:51Z</time>
    </trkpt>
    <trkpt lat="38.636394991" lon="34.888002025">
      <ele>1184.149</ele>
      <time>2021-10-12T15:12:53Z</time>
    </trkpt>
    <trkpt lat="38.636389039" lon="34.888042007">
      <ele>1184.048</ele>
      <time>2021-10-12T15:12:54Z</time>
    </trkpt>
    <trkpt lat="38.636386022" lon="34.888077965">
      <ele>1183.979</ele>
      <time>2021-10-12T15:12:55Z</time>
    </trkpt>
    <trkpt lat="38.63638401" lon="34.888117025">
      <ele>1183.965</ele>
      <time>2021-10-12T15:12:56Z</time>
    </trkpt>
    <trkpt lat="38.636380993" lon="34.888157006">
      <ele>1183.943</ele>
      <time>2021-10-12T15:12:57Z</time>
    </trkpt>
    <trkpt lat="38.636372024" lon="34.888202017">
      <ele>1183.879</ele>
      <time>2021-10-12T15:12:59Z</time>
    </trkpt>
    <trkpt lat="38.636364983" lon="34.888245016">
      <ele>1183.828</ele>
      <time>2021-10-12T15:13:00Z</time>
    </trkpt>
    <trkpt lat="38.636356015" lon="34.888290027">
      <ele>1183.763</ele>
      <time>2021-10-12T15:13:01Z</time>
    </trkpt>
    <trkpt lat="38.636348974" lon="34.88833202">
      <ele>1183.713</ele>
      <time>2021-10-12T15:13:02Z</time>
    </trkpt>
    <trkpt lat="38.636340005" lon="34.888373008">
      <ele>1183.53</ele>
      <time>2021-10-12T15:13:04Z</time>
    </trkpt>
    <trkpt lat="38.636331037" lon="34.888419025">
      <ele>1183.339</ele>
      <time>2021-10-12T15:13:05Z</time>
    </trkpt>
    <trkpt lat="38.636325002" lon="34.888460012">
      <ele>1183.189</ele>
      <time>2021-10-12T15:13:06Z</time>
    </trkpt>
    <trkpt lat="38.636317961" lon="34.888501">
      <ele>1183.04</ele>
      <time>2021-10-12T15:13:07Z</time>
    </trkpt>
    <trkpt lat="38.636314021" lon="34.888537964">
      <ele>1182.923</ele>
      <time>2021-10-12T15:13:09Z</time>
    </trkpt>
    <trkpt lat="38.636306981" lon="34.888581969">
      <ele>1182.779</ele>
      <time>2021-10-12T15:13:10Z</time>
    </trkpt>
    <trkpt lat="38.636301029" lon="34.88862698">
      <ele>1182.645</ele>
      <time>2021-10-12T15:13:11Z</time>
    </trkpt>
    <trkpt lat="38.636294995" lon="34.888668973">
      <ele>1182.524</ele>
      <time>2021-10-12T15:13:12Z</time>
    </trkpt>
    <trkpt lat="38.636288038" lon="34.888709961">
      <ele>1182.41</ele>
      <time>2021-10-12T15:13:14Z</time>
    </trkpt>
    <trkpt lat="38.636277979" lon="34.888751032">
      <ele>1182.298</ele>
      <time>2021-10-12T15:13:15Z</time>
    </trkpt>
    <trkpt lat="38.636268005" lon="34.888790008">
      <ele>1182.201</ele>
      <time>2021-10-12T15:13:16Z</time>
    </trkpt>
    <trkpt lat="38.63625803" lon="34.888830995">
      <ele>1182.11</ele>
      <time>2021-10-12T15:13:17Z</time>
    </trkpt>
    <trkpt lat="38.636254007" lon="34.888867959">
      <ele>1182.039</ele>
      <time>2021-10-12T15:13:18Z</time>
    </trkpt>
    <trkpt lat="38.636246966" lon="34.888905007">
      <ele>1181.914</ele>
      <time>2021-10-12T15:13:19Z</time>
    </trkpt>
    <trkpt lat="38.636246966" lon="34.88893996">
      <ele>1181.726</ele>
      <time>2021-10-12T15:13:21Z</time>
    </trkpt>
    <trkpt lat="38.636257024" lon="34.888976002">
      <ele>1181.522</ele>
      <time>2021-10-12T15:13:22Z</time>
    </trkpt>
    <trkpt lat="38.636270016" lon="34.889013972">
      <ele>1181.292</ele>
      <time>2021-10-12T15:13:23Z</time>
    </trkpt>
    <trkpt lat="38.636277979" lon="34.889054038">
      <ele>1181.048</ele>
      <time>2021-10-12T15:13:24Z</time>
    </trkpt>
    <trkpt lat="38.636283008" lon="34.889097959">
      <ele>1180.782</ele>
      <time>2021-10-12T15:13:25Z</time>
    </trkpt>
    <trkpt lat="38.636286026" lon="34.88913903">
      <ele>1180.532</ele>
      <time>2021-10-12T15:13:27Z</time>
    </trkpt>
    <trkpt lat="38.636286026" lon="34.889183035">
      <ele>1180.274</ele>
      <time>2021-10-12T15:13:28Z</time>
    </trkpt>
    <trkpt lat="38.63628502" lon="34.88922704">
      <ele>1180.021</ele>
      <time>2021-10-12T15:13:29Z</time>
    </trkpt>
    <trkpt lat="38.636287032" lon="34.889270039">
      <ele>1179.759</ele>
      <time>2021-10-12T15:13:30Z</time>
    </trkpt>
    <trkpt lat="38.636286026" lon="34.889312033">
      <ele>1179.517</ele>
      <time>2021-10-12T15:13:32Z</time>
    </trkpt>
    <trkpt lat="38.636286026" lon="34.88935302">
      <ele>1179.277</ele>
      <time>2021-10-12T15:13:33Z</time>
    </trkpt>
    <trkpt lat="38.636283008" lon="34.889397025">
      <ele>1179.039</ele>
      <time>2021-10-12T15:13:34Z</time>
    </trkpt>
    <trkpt lat="38.63628502" lon="34.889432983">
      <ele>1178.815</ele>
      <time>2021-10-12T15:13:35Z</time>
    </trkpt>
    <trkpt lat="38.636282003" lon="34.889472965">
      <ele>1178.564</ele>
      <time>2021-10-12T15:13:36Z</time>
    </trkpt>
    <trkpt lat="38.636277979" lon="34.889513031">
      <ele>1178.305</ele>
      <time>2021-10-12T15:13:37Z</time>
    </trkpt>
    <trkpt lat="38.636275968" lon="34.889554018">
      <ele>1178.024</ele>
      <time>2021-10-12T15:13:39Z</time>
    </trkpt>
    <trkpt lat="38.636274962" lon="34.889592994">
      <ele>1177.751</ele>
      <time>2021-10-12T15:13:40Z</time>
    </trkpt>
    <trkpt lat="38.636276973" lon="34.889630964">
      <ele>1177.463</ele>
      <time>2021-10-12T15:13:41Z</time>
    </trkpt>
    <trkpt lat="38.636277979" lon="34.889667006">
      <ele>1177.196</ele>
      <time>2021-10-12T15:13:42Z</time>
    </trkpt>
    <trkpt lat="38.636282003" lon="34.889705982">
      <ele>1176.887</ele>
      <time>2021-10-12T15:13:43Z</time>
    </trkpt>
    <trkpt lat="38.63628896" lon="34.889745042">
      <ele>1176.585</ele>
      <time>2021-10-12T15:13:44Z</time>
    </trkpt>
    <trkpt lat="38.636303041" lon="34.889777983">
      <ele>1176.279</ele>
      <time>2021-10-12T15:13:45Z</time>
    </trkpt>
    <trkpt lat="38.636320978" lon="34.889805978">
      <ele>1175.96</ele>
      <time>2021-10-12T15:13:46Z</time>
    </trkpt>
    <trkpt lat="38.636342017" lon="34.88983104">
      <ele>1175.62</ele>
      <time>2021-10-12T15:13:47Z</time>
    </trkpt>
    <trkpt lat="38.636363978" lon="34.889851995">
      <ele>1175.287</ele>
      <time>2021-10-12T15:13:48Z</time>
    </trkpt>
    <trkpt lat="38.63638401" lon="34.889880996">
      <ele>1174.902</ele>
      <time>2021-10-12T15:13:50Z</time>
    </trkpt>
    <trkpt lat="38.636407983" lon="34.88990698">
      <ele>1174.624</ele>
      <time>2021-10-12T15:13:51Z</time>
    </trkpt>
    <trkpt lat="38.636431033" lon="34.88993397">
      <ele>1174.36</ele>
      <time>2021-10-12T15:13:52Z</time>
    </trkpt>
    <trkpt lat="38.636456011" lon="34.889964983">
      <ele>1174.041</ele>
      <time>2021-10-12T15:13:53Z</time>
    </trkpt>
    <trkpt lat="38.636478977" lon="34.889998008">
      <ele>1173.692</ele>
      <time>2021-10-12T15:13:54Z</time>
    </trkpt>
    <trkpt lat="38.636503033" lon="34.890031032">
      <ele>1173.254</ele>
      <time>2021-10-12T15:13:56Z</time>
    </trkpt>
    <trkpt lat="38.636523988" lon="34.890060034">
      <ele>1172.865</ele>
      <time>2021-10-12T15:13:57Z</time>
    </trkpt>
    <trkpt lat="38.636543015" lon="34.890100015">
      <ele>1172.365</ele>
      <time>2021-10-12T15:13:58Z</time>
    </trkpt>
    <trkpt lat="38.63656397" lon="34.890146032">
      <ele>1171.793</ele>
      <time>2021-10-12T15:14:00Z</time>
    </trkpt>
    <trkpt lat="38.636588026" lon="34.890182996">
      <ele>1171.307</ele>
      <time>2021-10-12T15:14:01Z</time>
    </trkpt>
    <trkpt lat="38.636616021" lon="34.890220966">
      <ele>1170.796</ele>
      <time>2021-10-12T15:14:03Z</time>
    </trkpt>
    <trkpt lat="38.636645023" lon="34.890258014">
      <ele>1170.291</ele>
      <time>2021-10-12T15:14:04Z</time>
    </trkpt>
    <trkpt lat="38.636671007" lon="34.890287016">
      <ele>1169.951</ele>
      <time>2021-10-12T15:14:05Z</time>
    </trkpt>
    <trkpt lat="38.636700008" lon="34.890310988">
      <ele>1169.746</ele>
      <time>2021-10-12T15:14:07Z</time>
    </trkpt>
    <trkpt lat="38.636734039" lon="34.890334038">
      <ele>1169.506</ele>
      <time>2021-10-12T15:14:08Z</time>
    </trkpt>
    <trkpt lat="38.636764968" lon="34.890355999">
      <ele>1169.265</ele>
      <time>2021-10-12T15:14:09Z</time>
    </trkpt>
    <trkpt lat="38.636797993" lon="34.890375026">
      <ele>1169.012</ele>
      <time>2021-10-12T15:14:11Z</time>
    </trkpt>
    <trkpt lat="38.636828" lon="34.890394974">
      <ele>1168.752</ele>
      <time>2021-10-12T15:14:12Z</time>
    </trkpt>
    <trkpt lat="38.636858007" lon="34.890414001">
      <ele>1168.483</ele>
      <time>2021-10-12T15:14:13Z</time>
    </trkpt>
    <trkpt lat="38.636891032" lon="34.89043504">
      <ele>1168.169</ele>
      <time>2021-10-12T15:14:15Z</time>
    </trkpt>
    <trkpt lat="38.636921961" lon="34.890448032">
      <ele>1167.905</ele>
      <time>2021-10-12T15:14:16Z</time>
    </trkpt>
    <trkpt lat="38.636954986" lon="34.890465969">
      <ele>1167.557</ele>
      <time>2021-10-12T15:14:17Z</time>
    </trkpt>
    <trkpt lat="38.636989016" lon="34.890486002">
      <ele>1167.14</ele>
      <time>2021-10-12T15:14:19Z</time>
    </trkpt>
    <trkpt lat="38.637020029" lon="34.890503017">
      <ele>1166.783</ele>
      <time>2021-10-12T15:14:20Z</time>
    </trkpt>
    <trkpt lat="38.637055987" lon="34.890526989">
      <ele>1166.361</ele>
      <time>2021-10-12T15:14:21Z</time>
    </trkpt>
    <trkpt lat="38.637087001" lon="34.890548028">
      <ele>1166.014</ele>
      <time>2021-10-12T15:14:23Z</time>
    </trkpt>
    <trkpt lat="38.637114996" lon="34.890568983">
      <ele>1165.772</ele>
      <time>2021-10-12T15:14:24Z</time>
    </trkpt>
    <trkpt lat="38.637145003" lon="34.890596978">
      <ele>1165.556</ele>
      <time>2021-10-12T15:14:25Z</time>
    </trkpt>
    <trkpt lat="38.637176016" lon="34.890623968">
      <ele>1165.333</ele>
      <time>2021-10-12T15:14:27Z</time>
    </trkpt>
    <trkpt lat="38.637205018" lon="34.890655987">
      <ele>1165.124</ele>
      <time>2021-10-12T15:14:28Z</time>
    </trkpt>
    <trkpt lat="38.63722899" lon="34.890694041">
      <ele>1164.963</ele>
      <time>2021-10-12T15:14:29Z</time>
    </trkpt>
    <trkpt lat="38.637251034" lon="34.890732011">
      <ele>1164.83</ele>
      <time>2021-10-12T15:14:31Z</time>
    </trkpt>
    <trkpt lat="38.637272995" lon="34.890769981">
      <ele>1164.676</ele>
      <time>2021-10-12T15:14:32Z</time>
    </trkpt>
    <trkpt lat="38.637295961" lon="34.890814992">
      <ele>1164.487</ele>
      <time>2021-10-12T15:14:34Z</time>
    </trkpt>
    <trkpt lat="38.637315994" lon="34.890857991">
      <ele>1164.265</ele>
      <time>2021-10-12T15:14:35Z</time>
    </trkpt>
    <trkpt lat="38.637339966" lon="34.890899984">
      <ele>1163.949</ele>
      <time>2021-10-12T15:14:37Z</time>
    </trkpt>
    <trkpt lat="38.637358993" lon="34.890943989">
      <ele>1163.623</ele>
      <time>2021-10-12T15:14:38Z</time>
    </trkpt>
    <trkpt lat="38.637376009" lon="34.890983971">
      <ele>1163.292</ele>
      <time>2021-10-12T15:14:39Z</time>
    </trkpt>
    <trkpt lat="38.637395035" lon="34.891029987">
      <ele>1162.875</ele>
      <time>2021-10-12T15:14:41Z</time>
    </trkpt>
    <trkpt lat="38.637414984" lon="34.891073992">
      <ele>1162.41</ele>
      <time>2021-10-12T15:14:42Z</time>
    </trkpt>
    <trkpt lat="38.637435017" lon="34.891113974">
      <ele>1161.915</ele>
      <time>2021-10-12T15:14:44Z</time>
    </trkpt>
    <trkpt lat="38.637455972" lon="34.891154962">
      <ele>1161.318</ele>
      <time>2021-10-12T15:14:45Z</time>
    </trkpt>
    <trkpt lat="38.637480028" lon="34.891194021">
      <ele>1160.691</ele>
      <time>2021-10-12T15:14:47Z</time>
    </trkpt>
    <trkpt lat="38.637501989" lon="34.89122998">
      <ele>1160.13</ele>
      <time>2021-10-12T15:14:48Z</time>
    </trkpt>
    <trkpt lat="38.637521015" lon="34.891268034">
      <ele>1159.719</ele>
      <time>2021-10-12T15:14:49Z</time>
    </trkpt>
    <trkpt lat="38.637539037" lon="34.891303992">
      <ele>1159.33</ele>
      <time>2021-10-12T15:14:51Z</time>
    </trkpt>
    <trkpt lat="38.637555968" lon="34.891340034">
      <ele>1158.949</ele>
      <time>2021-10-12T15:14:52Z</time>
    </trkpt>
    <trkpt lat="38.637578012" lon="34.891371969">
      <ele>1158.56</ele>
      <time>2021-10-12T15:14:53Z</time>
    </trkpt>
    <trkpt lat="38.637600979" lon="34.891404994">
      <ele>1158.194</ele>
      <time>2021-10-12T15:14:54Z</time>
    </trkpt>
    <trkpt lat="38.637625035" lon="34.891435001">
      <ele>1157.859</ele>
      <time>2021-10-12T15:14:56Z</time>
    </trkpt>
    <trkpt lat="38.63764599" lon="34.891459979">
      <ele>1157.558</ele>
      <time>2021-10-12T15:14:57Z</time>
    </trkpt>
    <trkpt lat="38.637673985" lon="34.891493004">
      <ele>1157.138</ele>
      <time>2021-10-12T15:14:58Z</time>
    </trkpt>
    <trkpt lat="38.637703992" lon="34.891523011">
      <ele>1156.694</ele>
      <time>2021-10-12T15:14:59Z</time>
    </trkpt>
    <trkpt lat="38.637736011" lon="34.891557042">
      <ele>1156.181</ele>
      <time>2021-10-12T15:15:01Z</time>
    </trkpt>
    <trkpt lat="38.63776803" lon="34.891591994">
      <ele>1155.633</ele>
      <time>2021-10-12T15:15:03Z</time>
    </trkpt>
    <trkpt lat="38.63779502" lon="34.891632982">
      <ele>1155.18</ele>
      <time>2021-10-12T15:15:04Z</time>
    </trkpt>
    <trkpt lat="38.637815975" lon="34.891672041">
      <ele>1154.843</ele>
      <time>2021-10-12T15:15:05Z</time>
    </trkpt>
    <trkpt lat="38.637836007" lon="34.891706994">
      <ele>1154.645</ele>
      <time>2021-10-12T15:15:07Z</time>
    </trkpt>
    <trkpt lat="38.637854028" lon="34.891748987">
      <ele>1154.429</ele>
      <time>2021-10-12T15:15:08Z</time>
    </trkpt>
    <trkpt lat="38.637864003" lon="34.891792992">
      <ele>1154.235</ele>
      <time>2021-10-12T15:15:09Z</time>
    </trkpt>
    <trkpt lat="38.637878001" lon="34.891834985">
      <ele>1154.033</ele>
      <time>2021-10-12T15:15:11Z</time>
    </trkpt>
    <trkpt lat="38.637890993" lon="34.891872033">
      <ele>1153.853</ele>
      <time>2021-10-12T15:15:12Z</time>
    </trkpt>
    <trkpt lat="38.637903985" lon="34.891912015">
      <ele>1153.662</ele>
      <time>2021-10-12T15:15:13Z</time>
    </trkpt>
    <trkpt lat="38.637916977" lon="34.891947974">
      <ele>1153.473</ele>
      <time>2021-10-12T15:15:14Z</time>
    </trkpt>
    <trkpt lat="38.637934998" lon="34.891978987">
      <ele>1153.169</ele>
      <time>2021-10-12T15:15:15Z</time>
    </trkpt>
    <trkpt lat="38.637954025" lon="34.89201704">
      <ele>1152.773</ele>
      <time>2021-10-12T15:15:17Z</time>
    </trkpt>
    <trkpt lat="38.637975985" lon="34.892049981">
      <ele>1152.364</ele>
      <time>2021-10-12T15:15:18Z</time>
    </trkpt>
    <trkpt lat="38.637995012" lon="34.892078983">
      <ele>1151.976</ele>
      <time>2021-10-12T15:15:19Z</time>
    </trkpt>
    <trkpt lat="38.638014039" lon="34.892112007">
      <ele>1151.52</ele>
      <time>2021-10-12T15:15:20Z</time>
    </trkpt>
    <trkpt lat="38.638028037" lon="34.89214302">
      <ele>1151.096</ele>
      <time>2021-10-12T15:15:21Z</time>
    </trkpt>
    <trkpt lat="38.638036" lon="34.892181996">
      <ele>1150.625</ele>
      <time>2021-10-12T15:15:23Z</time>
    </trkpt>
    <trkpt lat="38.638020996" lon="34.892228013">
      <ele>1150.329</ele>
      <time>2021-10-12T15:15:24Z</time>
    </trkpt>
    <trkpt lat="38.63798202" lon="34.892251985">
      <ele>1150.552</ele>
      <time>2021-10-12T15:15:26Z</time>
    </trkpt>
    <trkpt lat="38.637940027" lon="34.89225802">
      <ele>1150.936</ele>
      <time>2021-10-12T15:15:27Z</time>
    </trkpt>
    <trkpt lat="38.637895016" lon="34.89226196">
      <ele>1151.365</ele>
      <time>2021-10-12T15:15:29Z</time>
    </trkpt>
    <trkpt lat="38.637854028" lon="34.892270006">
      <ele>1151.708</ele>
      <time>2021-10-12T15:15:30Z</time>
    </trkpt>
    <trkpt lat="38.637817986" lon="34.892288027">
      <ele>1151.889</ele>
      <time>2021-10-12T15:15:32Z</time>
    </trkpt>
    <trkpt lat="38.637785967" lon="34.892315017">
      <ele>1151.919</ele>
      <time>2021-10-12T15:15:33Z</time>
    </trkpt>
    <trkpt lat="38.63776803" lon="34.89234997">
      <ele>1151.707</ele>
      <time>2021-10-12T15:15:34Z</time>
    </trkpt>
    <trkpt lat="38.637764007" lon="34.892387018">
      <ele>1151.349</ele>
      <time>2021-10-12T15:15:35Z</time>
    </trkpt>
    <trkpt lat="38.637766019" lon="34.892433034">
      <ele>1150.84</ele>
      <time>2021-10-12T15:15:37Z</time>
    </trkpt>
    <trkpt lat="38.63776803" lon="34.892479973">
      <ele>1150.319</ele>
      <time>2021-10-12T15:15:38Z</time>
    </trkpt>
    <trkpt lat="38.637773981" lon="34.892528001">
      <ele>1149.739</ele>
      <time>2021-10-12T15:15:40Z</time>
    </trkpt>
    <trkpt lat="38.637773981" lon="34.89257603">
      <ele>1149.22</ele>
      <time>2021-10-12T15:15:41Z</time>
    </trkpt>
    <trkpt lat="38.637773981" lon="34.89262498">
      <ele>1148.691</ele>
      <time>2021-10-12T15:15:42Z</time>
    </trkpt>
    <trkpt lat="38.63777901" lon="34.892669991">
      <ele>1148.158</ele>
      <time>2021-10-12T15:15:44Z</time>
    </trkpt>
    <trkpt lat="38.63778404" lon="34.892717013">
      <ele>1147.629</ele>
      <time>2021-10-12T15:15:45Z</time>
    </trkpt>
    <trkpt lat="38.637790997" lon="34.89276303">
      <ele>1147.109</ele>
      <time>2021-10-12T15:15:46Z</time>
    </trkpt>
    <trkpt lat="38.637800971" lon="34.892807035">
      <ele>1146.609</ele>
      <time>2021-10-12T15:15:48Z</time>
    </trkpt>
    <trkpt lat="38.637811029" lon="34.892849028">
      <ele>1146.141</ele>
      <time>2021-10-12T15:15:49Z</time>
    </trkpt>
    <trkpt lat="38.637817986" lon="34.892892027">
      <ele>1145.681</ele>
      <time>2021-10-12T15:15:50Z</time>
    </trkpt>
    <trkpt lat="38.637821004" lon="34.892934021">
      <ele>1145.244</ele>
      <time>2021-10-12T15:15:52Z</time>
    </trkpt>
    <trkpt lat="38.637824021" lon="34.892975008">
      <ele>1144.822</ele>
      <time>2021-10-12T15:15:53Z</time>
    </trkpt>
    <trkpt lat="38.637819998" lon="34.893015996">
      <ele>1144.406</ele>
      <time>2021-10-12T15:15:54Z</time>
    </trkpt>
    <trkpt lat="38.637809018" lon="34.893064024">
      <ele>1143.909</ele>
      <time>2021-10-12T15:15:55Z</time>
    </trkpt>
    <trkpt lat="38.637800971" lon="34.893101994">
      <ele>1143.498</ele>
      <time>2021-10-12T15:15:57Z</time>
    </trkpt>
    <trkpt lat="38.637792002" lon="34.893145999">
      <ele>1143.023</ele>
      <time>2021-10-12T15:15:58Z</time>
    </trkpt>
    <trkpt lat="38.637785967" lon="34.893188998">
      <ele>1142.559</ele>
      <time>2021-10-12T15:15:59Z</time>
    </trkpt>
    <trkpt lat="38.63778404" lon="34.893234009">
      <ele>1142.073</ele>
      <time>2021-10-12T15:16:00Z</time>
    </trkpt>
    <trkpt lat="38.637789991" lon="34.893274996">
      <ele>1141.63</ele>
      <time>2021-10-12T15:16:02Z</time>
    </trkpt>
    <trkpt lat="38.637796026" lon="34.893319001">
      <ele>1141.155</ele>
      <time>2021-10-12T15:16:03Z</time>
    </trkpt>
    <trkpt lat="38.637799965" lon="34.89336703">
      <ele>1140.859</ele>
      <time>2021-10-12T15:16:04Z</time>
    </trkpt>
    <trkpt lat="38.637810024" lon="34.893411035">
      <ele>1140.655</ele>
      <time>2021-10-12T15:16:06Z</time>
    </trkpt>
    <trkpt lat="38.637823015" lon="34.89345504">
      <ele>1140.419</ele>
      <time>2021-10-12T15:16:07Z</time>
    </trkpt>
    <trkpt lat="38.637833996" lon="34.893501978">
      <ele>1140.147</ele>
      <time>2021-10-12T15:16:08Z</time>
    </trkpt>
    <trkpt lat="38.637847994" lon="34.893544978">
      <ele>1139.853</ele>
      <time>2021-10-12T15:16:10Z</time>
    </trkpt>
    <trkpt lat="38.637861991" lon="34.893585965">
      <ele>1139.539</ele>
      <time>2021-10-12T15:16:11Z</time>
    </trkpt>
    <trkpt lat="38.637876995" lon="34.89361899">
      <ele>1139.247</ele>
      <time>2021-10-12T15:16:12Z</time>
    </trkpt>
    <trkpt lat="38.637893004" lon="34.893654026">
      <ele>1138.952</ele>
      <time>2021-10-12T15:16:13Z</time>
    </trkpt>
    <trkpt lat="38.637913037" lon="34.893689984">
      <ele>1138.604</ele>
      <time>2021-10-12T15:16:15Z</time>
    </trkpt>
    <trkpt lat="38.637933992" lon="34.893724015">
      <ele>1138.24</ele>
      <time>2021-10-12T15:16:16Z</time>
    </trkpt>
    <trkpt lat="38.637953019" lon="34.893759973">
      <ele>1137.864</ele>
      <time>2021-10-12T15:16:17Z</time>
    </trkpt>
    <trkpt lat="38.637972968" lon="34.893798027">
      <ele>1137.449</ele>
      <time>2021-10-12T15:16:19Z</time>
    </trkpt>
    <trkpt lat="38.637991995" lon="34.89383298">
      <ele>1137.043</ele>
      <time>2021-10-12T15:16:20Z</time>
    </trkpt>
    <trkpt lat="38.638014961" lon="34.893873967">
      <ele>1136.538</ele>
      <time>2021-10-12T15:16:21Z</time>
    </trkpt>
    <trkpt lat="38.638039017" lon="34.893914033">
      <ele>1136.099</ele>
      <time>2021-10-12T15:16:23Z</time>
    </trkpt>
    <trkpt lat="38.638065001" lon="34.893953009">
      <ele>1135.727</ele>
      <time>2021-10-12T15:16:24Z</time>
    </trkpt>
    <trkpt lat="38.638089979" lon="34.893990979">
      <ele>1135.463</ele>
      <time>2021-10-12T15:16:26Z</time>
    </trkpt>
    <trkpt lat="38.638115963" lon="34.894026015">
      <ele>1135.182</ele>
      <time>2021-10-12T15:16:27Z</time>
    </trkpt>
    <trkpt lat="38.638142031" lon="34.894063985">
      <ele>1134.862</ele>
      <time>2021-10-12T15:16:28Z</time>
    </trkpt>
    <trkpt lat="38.638164997" lon="34.89409701">
      <ele>1134.562</ele>
      <time>2021-10-12T15:16:30Z</time>
    </trkpt>
    <trkpt lat="38.638187964" lon="34.894130034">
      <ele>1134.241</ele>
      <time>2021-10-12T15:16:31Z</time>
    </trkpt>
    <trkpt lat="38.638210008" lon="34.894160042">
      <ele>1133.925</ele>
      <time>2021-10-12T15:16:32Z</time>
    </trkpt>
    <trkpt lat="38.638231969" lon="34.894189965">
      <ele>1133.76</ele>
      <time>2021-10-12T15:16:33Z</time>
    </trkpt>
    <trkpt lat="38.63825703" lon="34.894231036">
      <ele>1133.613</ele>
      <time>2021-10-12T15:16:35Z</time>
    </trkpt>
    <trkpt lat="38.638264993" lon="34.894272024">
      <ele>1133.585</ele>
      <time>2021-10-12T15:16:36Z</time>
    </trkpt>
    <trkpt lat="38.638254013" lon="34.894317035">
      <ele>1133.726</ele>
      <time>2021-10-12T15:16:38Z</time>
    </trkpt>
    <trkpt lat="38.638230041" lon="34.894357016">
      <ele>1133.999</ele>
      <time>2021-10-12T15:16:39Z</time>
    </trkpt>
    <trkpt lat="38.638202967" lon="34.894391969">
      <ele>1134.319</ele>
      <time>2021-10-12T15:16:40Z</time>
    </trkpt>
    <trkpt lat="38.63816902" lon="34.894425999">
      <ele>1134.735</ele>
      <time>2021-10-12T15:16:42Z</time>
    </trkpt>
    <trkpt lat="38.638137002" lon="34.894461036">
      <ele>1135.205</ele>
      <time>2021-10-12T15:16:44Z</time>
    </trkpt>
    <trkpt lat="38.638114035" lon="34.894493977">
      <ele>1135.65</ele>
      <time>2021-10-12T15:16:45Z</time>
    </trkpt>
    <trkpt lat="38.638096014" lon="34.89453597">
      <ele>1136.126</ele>
      <time>2021-10-12T15:16:46Z</time>
    </trkpt>
    <trkpt lat="38.638094002" lon="34.894574024">
      <ele>1136.389</ele>
      <time>2021-10-12T15:16:47Z</time>
    </trkpt>
    <trkpt lat="38.638101965" lon="34.894611994">
      <ele>1136.504</ele>
      <time>2021-10-12T15:16:48Z</time>
    </trkpt>
    <trkpt lat="38.638119986" lon="34.894644013">
      <ele>1136.408</ele>
      <time>2021-10-12T15:16:50Z</time>
    </trkpt>
    <trkpt lat="38.638195004" lon="34.894724982">
      <ele>1135.51</ele>
      <time>2021-10-12T15:16:53Z</time>
    </trkpt>
    <trkpt lat="38.638258036" lon="34.894838976">
      <ele>1135.196</ele>
      <time>2021-10-12T15:16:57Z</time>
    </trkpt>
    <trkpt lat="38.638269017" lon="34.894879041">
      <ele>1135.287</ele>
      <time>2021-10-12T15:16:59Z</time>
    </trkpt>
    <trkpt lat="38.638276979" lon="34.894920029">
      <ele>1135.439</ele>
      <time>2021-10-12T15:17:00Z</time>
    </trkpt>
    <trkpt lat="38.638285026" lon="34.89496001">
      <ele>1135.582</ele>
      <time>2021-10-12T15:17:01Z</time>
    </trkpt>
    <trkpt lat="38.638296006" lon="34.895002004">
      <ele>1135.679</ele>
      <time>2021-10-12T15:17:02Z</time>
    </trkpt>
    <trkpt lat="38.638307992" lon="34.89504098">
      <ele>1135.604</ele>
      <time>2021-10-12T15:17:03Z</time>
    </trkpt>
    <trkpt lat="38.638317967" lon="34.895088002">
      <ele>1135.593</ele>
      <time>2021-10-12T15:17:05Z</time>
    </trkpt>
    <trkpt lat="38.638327019" lon="34.895131001">
      <ele>1135.585</ele>
      <time>2021-10-12T15:17:06Z</time>
    </trkpt>
    <trkpt lat="38.638341017" lon="34.895171989">
      <ele>1135.481</ele>
      <time>2021-10-12T15:17:07Z</time>
    </trkpt>
    <trkpt lat="38.638355015" lon="34.895212976">
      <ele>1135.376</ele>
      <time>2021-10-12T15:17:09Z</time>
    </trkpt>
    <trkpt lat="38.638370018" lon="34.895250024">
      <ele>1135.24</ele>
      <time>2021-10-12T15:17:10Z</time>
    </trkpt>
    <trkpt lat="38.638386028" lon="34.895291012">
      <ele>1135.004</ele>
      <time>2021-10-12T15:17:11Z</time>
    </trkpt>
    <trkpt lat="38.638397008" lon="34.895333005">
      <ele>1134.655</ele>
      <time>2021-10-12T15:17:13Z</time>
    </trkpt>
    <trkpt lat="38.638401031" lon="34.895373993">
      <ele>1134.435</ele>
      <time>2021-10-12T15:17:14Z</time>
    </trkpt>
    <trkpt lat="38.638393991" lon="34.895420009">
      <ele>1134.396</ele>
      <time>2021-10-12T15:17:15Z</time>
    </trkpt>
    <trkpt lat="38.638385022" lon="34.895462003">
      <ele>1134.406</ele>
      <time>2021-10-12T15:17:16Z</time>
    </trkpt>
    <trkpt lat="38.63837597" lon="34.895509025">
      <ele>1134.4</ele>
      <time>2021-10-12T15:17:18Z</time>
    </trkpt>
    <trkpt lat="38.638362978" lon="34.895554036">
      <ele>1134.472</ele>
      <time>2021-10-12T15:17:19Z</time>
    </trkpt>
    <trkpt lat="38.638353003" lon="34.895599969">
      <ele>1134.178</ele>
      <time>2021-10-12T15:17:21Z</time>
    </trkpt>
    <trkpt lat="38.638342023" lon="34.895643974">
      <ele>1133.899</ele>
      <time>2021-10-12T15:17:22Z</time>
    </trkpt>
    <trkpt lat="38.638333976" lon="34.89568999">
      <ele>1133.538</ele>
      <time>2021-10-12T15:17:23Z</time>
    </trkpt>
    <trkpt lat="38.638325008" lon="34.89573299">
      <ele>1133.116</ele>
      <time>2021-10-12T15:17:25Z</time>
    </trkpt>
    <trkpt lat="38.638317967" lon="34.895776995">
      <ele>1132.642</ele>
      <time>2021-10-12T15:17:26Z</time>
    </trkpt>
    <trkpt lat="38.638310004" lon="34.895822005">
      <ele>1132.133</ele>
      <time>2021-10-12T15:17:27Z</time>
    </trkpt>
    <trkpt lat="38.638301035" lon="34.895867016">
      <ele>1131.529</ele>
      <time>2021-10-12T15:17:29Z</time>
    </trkpt>
    <trkpt lat="38.638289971" lon="34.895910015">
      <ele>1130.939</ele>
      <time>2021-10-12T15:17:30Z</time>
    </trkpt>
    <trkpt lat="38.638277985" lon="34.89595402">
      <ele>1130.349</ele>
      <time>2021-10-12T15:17:31Z</time>
    </trkpt>
    <trkpt lat="38.638261976" lon="34.895997019">
      <ele>1129.794</ele>
      <time>2021-10-12T15:17:33Z</time>
    </trkpt>
    <trkpt lat="38.638247978" lon="34.896031972">
      <ele>1129.359</ele>
      <time>2021-10-12T15:17:34Z</time>
    </trkpt>
    <trkpt lat="38.638227023" lon="34.896070026">
      <ele>1128.918</ele>
      <time>2021-10-12T15:17:35Z</time>
    </trkpt>
    <trkpt lat="38.638203973" lon="34.896109002">
      <ele>1128.493</ele>
      <time>2021-10-12T15:17:37Z</time>
    </trkpt>
    <trkpt lat="38.638180001" lon="34.89614496">
      <ele>1128.186</ele>
      <time>2021-10-12T15:17:38Z</time>
    </trkpt>
    <trkpt lat="38.638152005" lon="34.896186031">
      <ele>1127.844</ele>
      <time>2021-10-12T15:17:39Z</time>
    </trkpt>
    <trkpt lat="38.638127027" lon="34.896225007">
      <ele>1127.513</ele>
      <time>2021-10-12T15:17:41Z</time>
    </trkpt>
    <trkpt lat="38.638102971" lon="34.896258032">
      <ele>1127.243</ele>
      <time>2021-10-12T15:17:42Z</time>
    </trkpt>
    <trkpt lat="38.638076987" lon="34.896297008">
      <ele>1126.915</ele>
      <time>2021-10-12T15:17:44Z</time>
    </trkpt>
    <trkpt lat="38.638052009" lon="34.896330032">
      <ele>1126.613</ele>
      <time>2021-10-12T15:17:45Z</time>
    </trkpt>
    <trkpt lat="38.638024013" lon="34.896357022">
      <ele>1126.13</ele>
      <time>2021-10-12T15:17:46Z</time>
    </trkpt>
    <trkpt lat="38.637996018" lon="34.896387029">
      <ele>1125.593</ele>
      <time>2021-10-12T15:17:48Z</time>
    </trkpt>
    <trkpt lat="38.637970034" lon="34.896418964">
      <ele>1125.059</ele>
      <time>2021-10-12T15:17:49Z</time>
    </trkpt>
    <trkpt lat="38.637942038" lon="34.896451989">
      <ele>1124.501</ele>
      <time>2021-10-12T15:17:50Z</time>
    </trkpt>
    <trkpt lat="38.637911025" lon="34.896480991">
      <ele>1123.965</ele>
      <time>2021-10-12T15:17:52Z</time>
    </trkpt>
    <trkpt lat="38.637879007" lon="34.896501023">
      <ele>1123.518</ele>
      <time>2021-10-12T15:17:53Z</time>
    </trkpt>
    <trkpt lat="38.637842964" lon="34.896518039">
      <ele>1123.075</ele>
      <time>2021-10-12T15:17:55Z</time>
    </trkpt>
    <trkpt lat="38.637807006" lon="34.896532036">
      <ele>1122.664</ele>
      <time>2021-10-12T15:17:56Z</time>
    </trkpt>
    <trkpt lat="38.637770964" lon="34.89654704">
      <ele>1122.292</ele>
      <time>2021-10-12T15:17:57Z</time>
    </trkpt>
    <trkpt lat="38.637735005" lon="34.89655802">
      <ele>1122.173</ele>
      <time>2021-10-12T15:17:59Z</time>
    </trkpt>
    <trkpt lat="38.637700975" lon="34.896567995">
      <ele>1122.066</ele>
      <time>2021-10-12T15:18:00Z</time>
    </trkpt>
    <trkpt lat="38.637661999" lon="34.896578975">
      <ele>1121.947</ele>
      <time>2021-10-12T15:18:02Z</time>
    </trkpt>
    <trkpt lat="38.637623023" lon="34.896586016">
      <ele>1121.871</ele>
      <time>2021-10-12T15:18:03Z</time>
    </trkpt>
    <trkpt lat="38.637586981" lon="34.896587022">
      <ele>1121.86</ele>
      <time>2021-10-12T15:18:04Z</time>
    </trkpt>
    <trkpt lat="38.637546999" lon="34.896579981">
      <ele>1121.936</ele>
      <time>2021-10-12T15:18:06Z</time>
    </trkpt>
    <trkpt lat="38.637437029" lon="34.896521978">
      <ele>1123.342</ele>
      <time>2021-10-12T15:18:10Z</time>
    </trkpt>
    <trkpt lat="38.637324963" lon="34.896448972">
      <ele>1125.02</ele>
      <time>2021-10-12T15:18:15Z</time>
    </trkpt>
    <trkpt lat="38.637287999" lon="34.896421982">
      <ele>1125.442</ele>
      <time>2021-10-12T15:18:16Z</time>
    </trkpt>
    <trkpt lat="38.637253968" lon="34.896397004">
      <ele>1125.761</ele>
      <time>2021-10-12T15:18:18Z</time>
    </trkpt>
    <trkpt lat="38.637159001" lon="34.896380994">
      <ele>1126.714</ele>
      <time>2021-10-12T15:18:21Z</time>
    </trkpt>
    <trkpt lat="38.637133017" lon="34.896399016">
      <ele>1126.999</ele>
      <time>2021-10-12T15:18:23Z</time>
    </trkpt>
    <trkpt lat="38.637111979" lon="34.896451989">
      <ele>1127.461</ele>
      <time>2021-10-12T15:18:24Z</time>
    </trkpt>
    <trkpt lat="38.637110973" lon="34.896478979">
      <ele>1127.591</ele>
      <time>2021-10-12T15:18:25Z</time>
    </trkpt>
    <trkpt lat="38.637109967" lon="34.896512004">
      <ele>1127.75</ele>
      <time>2021-10-12T15:18:26Z</time>
    </trkpt>
    <trkpt lat="38.637114996" lon="34.896542011">
      <ele>1127.796</ele>
      <time>2021-10-12T15:18:27Z</time>
    </trkpt>
    <trkpt lat="38.637122037" lon="34.896654999">
      <ele>1128.119</ele>
      <time>2021-10-12T15:18:30Z</time>
    </trkpt>
    <trkpt lat="38.637108961" lon="34.896726999">
      <ele>1128.624</ele>
      <time>2021-10-12T15:18:32Z</time>
    </trkpt>
    <trkpt lat="38.637104016" lon="34.89676103">
      <ele>1128.842</ele>
      <time>2021-10-12T15:18:33Z</time>
    </trkpt>
    <trkpt lat="38.637099992" lon="34.896791959">
      <ele>1129.037</ele>
      <time>2021-10-12T15:18:34Z</time>
    </trkpt>
    <trkpt lat="38.637100998" lon="34.896820039">
      <ele>1129.1</ele>
      <time>2021-10-12T15:18:35Z</time>
    </trkpt>
    <trkpt lat="38.637112984" lon="34.896960016">
      <ele>1129.102</ele>
      <time>2021-10-12T15:18:39Z</time>
    </trkpt>
    <trkpt lat="38.637152966" lon="34.897078034">
      <ele>1127.755</ele>
      <time>2021-10-12T15:18:43Z</time>
    </trkpt>
    <trkpt lat="38.637163024" lon="34.89719999">
      <ele>1127.313</ele>
      <time>2021-10-12T15:18:46Z</time>
    </trkpt>
    <trkpt lat="38.637116002" lon="34.897309961">
      <ele>1127.542</ele>
      <time>2021-10-12T15:18:50Z</time>
    </trkpt>
    <trkpt lat="38.637030004" lon="34.897405012">
      <ele>1128.38</ele>
      <time>2021-10-12T15:18:54Z</time>
    </trkpt>
    <trkpt lat="38.636981975" lon="34.897513976">
      <ele>1128.18</ele>
      <time>2021-10-12T15:18:58Z</time>
    </trkpt>
    <trkpt lat="38.636976024" lon="34.897565022">
      <ele>1127.756</ele>
      <time>2021-10-12T15:18:59Z</time>
    </trkpt>
    <trkpt lat="38.636985999" lon="34.897734001">
      <ele>1125.851</ele>
      <time>2021-10-12T15:19:04Z</time>
    </trkpt>
    <trkpt lat="38.636979964" lon="34.897784041">
      <ele>1125.401</ele>
      <time>2021-10-12T15:19:06Z</time>
    </trkpt>
    <trkpt lat="38.636975018" lon="34.897833997">
      <ele>1124.772</ele>
      <time>2021-10-12T15:19:07Z</time>
    </trkpt>
    <trkpt lat="38.636961021" lon="34.89788102">
      <ele>1124.297</ele>
      <time>2021-10-12T15:19:09Z</time>
    </trkpt>
    <trkpt lat="38.636946017" lon="34.89792997">
      <ele>1123.789</ele>
      <time>2021-10-12T15:19:10Z</time>
    </trkpt>
    <trkpt lat="38.636925984" lon="34.897979004">
      <ele>1123.464</ele>
      <time>2021-10-12T15:19:12Z</time>
    </trkpt>
    <trkpt lat="38.636902012" lon="34.89801798">
      <ele>1123.416</ele>
      <time>2021-10-12T15:19:13Z</time>
    </trkpt>
    <trkpt lat="38.636873011" lon="34.898053017">
      <ele>1123.575</ele>
      <time>2021-10-12T15:19:15Z</time>
    </trkpt>
    <trkpt lat="38.636841998" lon="34.898076989">
      <ele>1124.136</ele>
      <time>2021-10-12T15:19:16Z</time>
    </trkpt>
    <trkpt lat="38.636808973" lon="34.898100961">
      <ele>1124.763</ele>
      <time>2021-10-12T15:19:18Z</time>
    </trkpt>
    <trkpt lat="38.636776032" lon="34.898123005">
      <ele>1125.395</ele>
      <time>2021-10-12T15:19:19Z</time>
    </trkpt>
    <trkpt lat="38.636746025" lon="34.898140021">
      <ele>1125.982</ele>
      <time>2021-10-12T15:19:20Z</time>
    </trkpt>
    <trkpt lat="38.636716017" lon="34.898158042">
      <ele>1126.565</ele>
      <time>2021-10-12T15:19:21Z</time>
    </trkpt>
    <trkpt lat="38.636690034" lon="34.898173967">
      <ele>1127.069</ele>
      <time>2021-10-12T15:19:22Z</time>
    </trkpt>
    <trkpt lat="38.63666296" lon="34.898192994">
      <ele>1127.552</ele>
      <time>2021-10-12T15:19:24Z</time>
    </trkpt>
    <trkpt lat="38.636631025" lon="34.898211015">
      <ele>1127.897</ele>
      <time>2021-10-12T15:19:25Z</time>
    </trkpt>
    <trkpt lat="38.636603029" lon="34.898229036">
      <ele>1128.206</ele>
      <time>2021-10-12T15:19:26Z</time>
    </trkpt>
    <trkpt lat="38.636576962" lon="34.898244962">
      <ele>1128.507</ele>
      <time>2021-10-12T15:19:27Z</time>
    </trkpt>
    <trkpt lat="38.636550978" lon="34.89827103">
      <ele>1128.797</ele>
      <time>2021-10-12T15:19:28Z</time>
    </trkpt>
    <trkpt lat="38.636522982" lon="34.898295002">
      <ele>1129.136</ele>
      <time>2021-10-12T15:19:30Z</time>
    </trkpt>
    <trkpt lat="38.636493981" lon="34.898318974">
      <ele>1129.506</ele>
      <time>2021-10-12T15:19:31Z</time>
    </trkpt>
    <trkpt lat="38.636463974" lon="34.898341019">
      <ele>1129.891</ele>
      <time>2021-10-12T15:19:32Z</time>
    </trkpt>
    <trkpt lat="38.636435978" lon="34.898363985">
      <ele>1130.212</ele>
      <time>2021-10-12T15:19:33Z</time>
    </trkpt>
    <trkpt lat="38.636407983" lon="34.898383012">
      <ele>1130.546</ele>
      <time>2021-10-12T15:19:35Z</time>
    </trkpt>
    <trkpt lat="38.636375042" lon="34.898398016">
      <ele>1130.829</ele>
      <time>2021-10-12T15:19:36Z</time>
    </trkpt>
    <trkpt lat="38.636344029" lon="34.89840799">
      <ele>1130.936</ele>
      <time>2021-10-12T15:19:37Z</time>
    </trkpt>
    <trkpt lat="38.636293989" lon="34.898428023">
      <ele>1131.117</ele>
      <time>2021-10-12T15:19:39Z</time>
    </trkpt>
    <trkpt lat="38.636270016" lon="34.898441015">
      <ele>1131.206</ele>
      <time>2021-10-12T15:19:40Z</time>
    </trkpt>
    <trkpt lat="38.636244033" lon="34.89845803">
      <ele>1131.307</ele>
      <time>2021-10-12T15:19:41Z</time>
    </trkpt>
    <trkpt lat="38.636220982" lon="34.898476973">
      <ele>1131.4</ele>
      <time>2021-10-12T15:19:42Z</time>
    </trkpt>
    <trkpt lat="38.636200028" lon="34.898499018">
      <ele>1131.489</ele>
      <time>2021-10-12T15:19:43Z</time>
    </trkpt>
    <trkpt lat="38.636182006" lon="34.898520978">
      <ele>1131.572</ele>
      <time>2021-10-12T15:19:44Z</time>
    </trkpt>
    <trkpt lat="38.63615904" lon="34.89854604">
      <ele>1131.695</ele>
      <time>2021-10-12T15:19:45Z</time>
    </trkpt>
    <trkpt lat="38.636140013" lon="34.898563977">
      <ele>1131.81</ele>
      <time>2021-10-12T15:19:46Z</time>
    </trkpt>
    <trkpt lat="38.636120986" lon="34.898580993">
      <ele>1131.933</ele>
      <time>2021-10-12T15:19:47Z</time>
    </trkpt>
    <trkpt lat="38.636103971" lon="34.898598008">
      <ele>1132.051</ele>
      <time>2021-10-12T15:19:48Z</time>
    </trkpt>
    <trkpt lat="38.636085028" lon="34.898609994">
      <ele>1132.188</ele>
      <time>2021-10-12T15:19:48Z</time>
    </trkpt>
    <trkpt lat="38.636068013" lon="34.898624998">
      <ele>1132.303</ele>
      <time>2021-10-12T15:19:49Z</time>
    </trkpt>
    <trkpt lat="38.636052003" lon="34.898641007">
      <ele>1132.403</ele>
      <time>2021-10-12T15:19:50Z</time>
    </trkpt>
    <trkpt lat="38.636018978" lon="34.89866104">
      <ele>1132.604</ele>
      <time>2021-10-12T15:19:51Z</time>
    </trkpt>
    <trkpt lat="38.636000035" lon="34.898660034">
      <ele>1132.729</ele>
      <time>2021-10-12T15:19:52Z</time>
    </trkpt>
    <trkpt lat="38.635914037" lon="34.898683">
      <ele>1133.235</ele>
      <time>2021-10-12T15:19:55Z</time>
    </trkpt>
    <trkpt lat="38.635891993" lon="34.898692975">
      <ele>1133.345</ele>
      <time>2021-10-12T15:19:56Z</time>
    </trkpt>
    <trkpt lat="38.635871038" lon="34.89869901">
      <ele>1133.455</ele>
      <time>2021-10-12T15:19:57Z</time>
    </trkpt>
    <trkpt lat="38.635849999" lon="34.89870999">
      <ele>1133.545</ele>
      <time>2021-10-12T15:19:58Z</time>
    </trkpt>
    <trkpt lat="38.635829967" lon="34.898713008">
      <ele>1133.65</ele>
      <time>2021-10-12T15:19:58Z</time>
    </trkpt>
    <trkpt lat="38.635810018" lon="34.898718959">
      <ele>1133.728</ele>
      <time>2021-10-12T15:19:59Z</time>
    </trkpt>
    <trkpt lat="38.635788979" lon="34.898728011">
      <ele>1133.806</ele>
      <time>2021-10-12T15:20:00Z</time>
    </trkpt>
    <trkpt lat="38.635768024" lon="34.898737986">
      <ele>1133.886</ele>
      <time>2021-10-12T15:20:01Z</time>
    </trkpt>
    <trkpt lat="38.635751009" lon="34.898748966">
      <ele>1133.947</ele>
      <time>2021-10-12T15:20:02Z</time>
    </trkpt>
    <trkpt lat="38.635728965" lon="34.898762964">
      <ele>1134.034</ele>
      <time>2021-10-12T15:20:02Z</time>
    </trkpt>
    <trkpt lat="38.635710021" lon="34.898774028">
      <ele>1134.118</ele>
      <time>2021-10-12T15:20:03Z</time>
    </trkpt>
    <trkpt lat="38.635687977" lon="34.898786014">
      <ele>1134.223</ele>
      <time>2021-10-12T15:20:04Z</time>
    </trkpt>
    <trkpt lat="38.635668028" lon="34.898799006">
      <ele>1134.321</ele>
      <time>2021-10-12T15:20:05Z</time>
    </trkpt>
    <trkpt lat="38.635645984" lon="34.898813004">
      <ele>1134.438</ele>
      <time>2021-10-12T15:20:06Z</time>
    </trkpt>
    <trkpt lat="38.635624023" lon="34.898833036">
      <ele>1134.557</ele>
      <time>2021-10-12T15:20:07Z</time>
    </trkpt>
    <trkpt lat="38.635606002" lon="34.89885198">
      <ele>1134.661</ele>
      <time>2021-10-12T15:20:08Z</time>
    </trkpt>
    <trkpt lat="38.635585969" lon="34.898871006">
      <ele>1134.788</ele>
      <time>2021-10-12T15:20:09Z</time>
    </trkpt>
    <trkpt lat="38.635564009" lon="34.898888022">
      <ele>1134.939</ele>
      <time>2021-10-12T15:20:10Z</time>
    </trkpt>
    <trkpt lat="38.635541964" lon="34.898905959">
      <ele>1135.104</ele>
      <time>2021-10-12T15:20:11Z</time>
    </trkpt>
    <trkpt lat="38.635522015" lon="34.898925992">
      <ele>1135.274</ele>
      <time>2021-10-12T15:20:12Z</time>
    </trkpt>
    <trkpt lat="38.635501983" lon="34.89894703">
      <ele>1135.466</ele>
      <time>2021-10-12T15:20:12Z</time>
    </trkpt>
    <trkpt lat="38.635482034" lon="34.898965973">
      <ele>1135.676</ele>
      <time>2021-10-12T15:20:13Z</time>
    </trkpt>
    <trkpt lat="38.635464013" lon="34.898983994">
      <ele>1135.885</ele>
      <time>2021-10-12T15:20:14Z</time>
    </trkpt>
    <trkpt lat="38.635444986" lon="34.899003021">
      <ele>1136.123</ele>
      <time>2021-10-12T15:20:15Z</time>
    </trkpt>
    <trkpt lat="38.635425959" lon="34.89902297">
      <ele>1136.383</ele>
      <time>2021-10-12T15:20:16Z</time>
    </trkpt>
    <trkpt lat="38.635342978" lon="34.899090026">
      <ele>1137.639</ele>
      <time>2021-10-12T15:20:20Z</time>
    </trkpt>
    <trkpt lat="38.635323029" lon="34.899108969">
      <ele>1138.001</ele>
      <time>2021-10-12T15:20:21Z</time>
    </trkpt>
    <trkpt lat="38.635305008" lon="34.899123972">
      <ele>1138.331</ele>
      <time>2021-10-12T15:20:21Z</time>
    </trkpt>
    <trkpt lat="38.635286987" lon="34.899139982">
      <ele>1138.682</ele>
      <time>2021-10-12T15:20:22Z</time>
    </trkpt>
    <trkpt lat="38.63526402" lon="34.899152974">
      <ele>1138.951</ele>
      <time>2021-10-12T15:20:23Z</time>
    </trkpt>
    <trkpt lat="38.635243988" lon="34.899167977">
      <ele>1139.122</ele>
      <time>2021-10-12T15:20:24Z</time>
    </trkpt>
    <trkpt lat="38.635201994" lon="34.899196979">
      <ele>1139.273</ele>
      <time>2021-10-12T15:20:26Z</time>
    </trkpt>
    <trkpt lat="38.635181962" lon="34.899213994">
      <ele>1139.345</ele>
      <time>2021-10-12T15:20:27Z</time>
    </trkpt>
    <trkpt lat="38.635164024" lon="34.899235032">
      <ele>1139.41</ele>
      <time>2021-10-12T15:20:28Z</time>
    </trkpt>
    <trkpt lat="38.635143992" lon="34.899261016">
      <ele>1139.482</ele>
      <time>2021-10-12T15:20:29Z</time>
    </trkpt>
    <trkpt lat="38.635119013" lon="34.899288006">
      <ele>1139.572</ele>
      <time>2021-10-12T15:20:30Z</time>
    </trkpt>
    <trkpt lat="38.635045001" lon="34.899380961">
      <ele>1139.838</ele>
      <time>2021-10-12T15:20:34Z</time>
    </trkpt>
    <trkpt lat="38.635011977" lon="34.899422033">
      <ele>1139.957</ele>
      <time>2021-10-12T15:20:35Z</time>
    </trkpt>
    <trkpt lat="38.634994039" lon="34.899440976">
      <ele>1140.065</ele>
      <time>2021-10-12T15:20:36Z</time>
    </trkpt>
    <trkpt lat="38.634974007" lon="34.899460003">
      <ele>1140.225</ele>
      <time>2021-10-12T15:20:37Z</time>
    </trkpt>
    <trkpt lat="38.634955985" lon="34.89947903">
      <ele>1140.351</ele>
      <time>2021-10-12T15:20:38Z</time>
    </trkpt>
    <trkpt lat="38.634935031" lon="34.899496967">
      <ele>1140.513</ele>
      <time>2021-10-12T15:20:39Z</time>
    </trkpt>
    <trkpt lat="38.634914998" lon="34.899517">
      <ele>1140.657</ele>
      <time>2021-10-12T15:20:40Z</time>
    </trkpt>
    <trkpt lat="38.634893037" lon="34.899536027">
      <ele>1140.825</ele>
      <time>2021-10-12T15:20:41Z</time>
    </trkpt>
    <trkpt lat="38.634870993" lon="34.899555976">
      <ele>1140.992</ele>
      <time>2021-10-12T15:20:42Z</time>
    </trkpt>
    <trkpt lat="38.634850038" lon="34.899575002">
      <ele>1141.15</ele>
      <time>2021-10-12T15:20:43Z</time>
    </trkpt>
    <trkpt lat="38.634826988" lon="34.899594029">
      <ele>1141.33</ele>
      <time>2021-10-12T15:20:44Z</time>
    </trkpt>
    <trkpt lat="38.634805027" lon="34.899610039">
      <ele>1141.51</ele>
      <time>2021-10-12T15:20:45Z</time>
    </trkpt>
    <trkpt lat="38.634782983" lon="34.899627976">
      <ele>1141.683</ele>
      <time>2021-10-12T15:20:46Z</time>
    </trkpt>
    <trkpt lat="38.634762028" lon="34.899644991">
      <ele>1141.848</ele>
      <time>2021-10-12T15:20:47Z</time>
    </trkpt>
    <trkpt lat="38.634737972" lon="34.899661001">
      <ele>1142.05</ele>
      <time>2021-10-12T15:20:48Z</time>
    </trkpt>
    <trkpt lat="38.634715006" lon="34.899680028">
      <ele>1142.204</ele>
      <time>2021-10-12T15:20:49Z</time>
    </trkpt>
    <trkpt lat="38.634698996" lon="34.899697965">
      <ele>1142.255</ele>
      <time>2021-10-12T15:20:50Z</time>
    </trkpt>
    <trkpt lat="38.634683993" lon="34.899722021">
      <ele>1142.276</ele>
      <time>2021-10-12T15:20:50Z</time>
    </trkpt>
    <trkpt lat="38.634667983" lon="34.899748005">
      <ele>1142.391</ele>
      <time>2021-10-12T15:20:51Z</time>
    </trkpt>
    <trkpt lat="38.634651974" lon="34.899774995">
      <ele>1142.506</ele>
      <time>2021-10-12T15:20:52Z</time>
    </trkpt>
    <trkpt lat="38.63463697" lon="34.899807014">
      <ele>1142.614</ele>
      <time>2021-10-12T15:20:53Z</time>
    </trkpt>
    <trkpt lat="38.634618027" lon="34.899834003">
      <ele>1142.75</ele>
      <time>2021-10-12T15:20:54Z</time>
    </trkpt>
    <trkpt lat="38.634605035" lon="34.899860993">
      <ele>1142.844</ele>
      <time>2021-10-12T15:20:55Z</time>
    </trkpt>
    <trkpt lat="38.634591959" lon="34.899892006">
      <ele>1142.938</ele>
      <time>2021-10-12T15:20:56Z</time>
    </trkpt>
    <trkpt lat="38.634578967" lon="34.899920002">
      <ele>1143.031</ele>
      <time>2021-10-12T15:20:57Z</time>
    </trkpt>
    <trkpt lat="38.634566981" lon="34.899946991">
      <ele>1143.118</ele>
      <time>2021-10-12T15:20:58Z</time>
    </trkpt>
    <trkpt lat="38.634552984" lon="34.899972975">
      <ele>1143.219</ele>
      <time>2021-10-12T15:20:59Z</time>
    </trkpt>
    <trkpt lat="38.634540997" lon="34.899998037">
      <ele>1143.305</ele>
      <time>2021-10-12T15:21:00Z</time>
    </trkpt>
    <trkpt lat="38.634529011" lon="34.900024021">
      <ele>1143.451</ele>
      <time>2021-10-12T15:21:01Z</time>
    </trkpt>
    <trkpt lat="38.634518031" lon="34.900047993">
      <ele>1143.597</ele>
      <time>2021-10-12T15:21:02Z</time>
    </trkpt>
    <trkpt lat="38.634505039" lon="34.900071966">
      <ele>1143.766</ele>
      <time>2021-10-12T15:21:03Z</time>
    </trkpt>
    <trkpt lat="38.63448903" lon="34.900091998">
      <ele>1143.957</ele>
      <time>2021-10-12T15:21:03Z</time>
    </trkpt>
    <trkpt lat="38.634472014" lon="34.900103984">
      <ele>1144.139</ele>
      <time>2021-10-12T15:21:04Z</time>
    </trkpt>
    <trkpt lat="38.63444997" lon="34.900118988">
      <ele>1144.38</ele>
      <time>2021-10-12T15:21:05Z</time>
    </trkpt>
    <trkpt lat="38.634430021" lon="34.900128962">
      <ele>1144.596</ele>
      <time>2021-10-12T15:21:06Z</time>
    </trkpt>
    <trkpt lat="38.634410994" lon="34.900145978">
      <ele>1144.823</ele>
      <time>2021-10-12T15:21:07Z</time>
    </trkpt>
    <trkpt lat="38.634395991" lon="34.90015897">
      <ele>1144.996</ele>
      <time>2021-10-12T15:21:07Z</time>
    </trkpt>
    <trkpt lat="38.634380987" lon="34.900174979">
      <ele>1145.171</ele>
      <time>2021-10-12T15:21:08Z</time>
    </trkpt>
    <trkpt lat="38.63436196" lon="34.900196018">
      <ele>1145.387</ele>
      <time>2021-10-12T15:21:09Z</time>
    </trkpt>
    <trkpt lat="38.634344023" lon="34.900213033">
      <ele>1145.574</ele>
      <time>2021-10-12T15:21:10Z</time>
    </trkpt>
    <trkpt lat="38.634320972" lon="34.900226025">
      <ele>1145.786</ele>
      <time>2021-10-12T15:21:11Z</time>
    </trkpt>
    <trkpt lat="38.634230029" lon="34.90023097">
      <ele>1146.505</ele>
      <time>2021-10-12T15:21:14Z</time>
    </trkpt>
    <trkpt lat="38.634195998" lon="34.900223007">
      <ele>1146.768</ele>
      <time>2021-10-12T15:21:15Z</time>
    </trkpt>
    <trkpt lat="38.634137996" lon="34.900200041">
      <ele>1147.31</ele>
      <time>2021-10-12T15:21:18Z</time>
    </trkpt>
    <trkpt lat="38.634112012" lon="34.900189983">
      <ele>1147.59</ele>
      <time>2021-10-12T15:21:19Z</time>
    </trkpt>
    <trkpt lat="38.634033976" lon="34.900126029">
      <ele>1148.433</ele>
      <time>2021-10-12T15:21:22Z</time>
    </trkpt>
    <trkpt lat="38.634012016" lon="34.900103984">
      <ele>1148.67</ele>
      <time>2021-10-12T15:21:23Z</time>
    </trkpt>
    <trkpt lat="38.633988965" lon="34.900085963">
      <ele>1148.919</ele>
      <time>2021-10-12T15:21:24Z</time>
    </trkpt>
    <trkpt lat="38.633967005" lon="34.900075989">
      <ele>1149.156</ele>
      <time>2021-10-12T15:21:25Z</time>
    </trkpt>
    <trkpt lat="38.633942027" lon="34.900066014">
      <ele>1149.426</ele>
      <time>2021-10-12T15:21:26Z</time>
    </trkpt>
    <trkpt lat="38.633893998" lon="34.900053022">
      <ele>1149.945</ele>
      <time>2021-10-12T15:21:28Z</time>
    </trkpt>
    <trkpt lat="38.633859381" lon="34.900055705">
      <ele>1150.191</ele>
      <time>2021-10-12T15:21:29Z</time>
    </trkpt>
    <trkpt lat="38.633816969" lon="34.900044976">
      <ele>1150.476</ele>
      <time>2021-10-12T15:21:31Z</time>
    </trkpt>
    <trkpt lat="38.63379702" lon="34.900004994">
      <ele>1150.656</ele>
      <time>2021-10-12T15:21:32Z</time>
    </trkpt>
    <trkpt lat="38.63378101" lon="34.89996803">
      <ele>1150.662</ele>
      <time>2021-10-12T15:21:33Z</time>
    </trkpt>
    <trkpt lat="38.633763995" lon="34.899939029">
      <ele>1150.68</ele>
      <time>2021-10-12T15:21:34Z</time>
    </trkpt>
    <trkpt lat="38.633743962" lon="34.899913967">
      <ele>1150.734</ele>
      <time>2021-10-12T15:21:35Z</time>
    </trkpt>
    <trkpt lat="38.633723008" lon="34.899906004">
      <ele>1150.856</ele>
      <time>2021-10-12T15:21:36Z</time>
    </trkpt>
    <trkpt lat="38.633700963" lon="34.89991799">
      <ele>1151.058</ele>
      <time>2021-10-12T15:21:37Z</time>
    </trkpt>
    <trkpt lat="38.63368202" lon="34.899935005">
      <ele>1151.255</ele>
      <time>2021-10-12T15:21:38Z</time>
    </trkpt>
    <trkpt lat="38.633661987" lon="34.89995202">
      <ele>1151.461</ele>
      <time>2021-10-12T15:21:39Z</time>
    </trkpt>
    <trkpt lat="38.63364296" lon="34.899976999">
      <ele>1151.688</ele>
      <time>2021-10-12T15:21:40Z</time>
    </trkpt>
    <trkpt lat="38.633622006" lon="34.900008012">
      <ele>1151.894</ele>
      <time>2021-10-12T15:21:41Z</time>
    </trkpt>
    <trkpt lat="38.633601973" lon="34.900039025">
      <ele>1151.827</ele>
      <time>2021-10-12T15:21:42Z</time>
    </trkpt>
    <trkpt lat="38.633579006" lon="34.900076995">
      <ele>1151.607</ele>
      <time>2021-10-12T15:21:44Z</time>
    </trkpt>
    <trkpt lat="38.633555034" lon="34.900118988">
      <ele>1151.37</ele>
      <time>2021-10-12T15:21:45Z</time>
    </trkpt>
    <trkpt lat="38.63353299" lon="34.900159976">
      <ele>1151.143</ele>
      <time>2021-10-12T15:21:47Z</time>
    </trkpt>
    <trkpt lat="38.633508012" lon="34.900197024">
      <ele>1150.92</ele>
      <time>2021-10-12T15:21:48Z</time>
    </trkpt>
    <trkpt lat="38.633485967" lon="34.900238011">
      <ele>1150.693</ele>
      <time>2021-10-12T15:21:49Z</time>
    </trkpt>
    <trkpt lat="38.633466018" lon="34.900276987">
      <ele>1150.481</ele>
      <time>2021-10-12T15:21:51Z</time>
    </trkpt>
    <trkpt lat="38.633446991" lon="34.900314035">
      <ele>1150.071</ele>
      <time>2021-10-12T15:21:52Z</time>
    </trkpt>
    <trkpt lat="38.633430982" lon="34.900350999">
      <ele>1149.653</ele>
      <time>2021-10-12T15:21:53Z</time>
    </trkpt>
    <trkpt lat="38.633416984" lon="34.900387963">
      <ele>1149.231</ele>
      <time>2021-10-12T15:21:54Z</time>
    </trkpt>
    <trkpt lat="38.633399969" lon="34.900428029">
      <ele>1148.747</ele>
      <time>2021-10-12T15:21:56Z</time>
    </trkpt>
    <trkpt lat="38.633377003" lon="34.900465999">
      <ele>1148.231</ele>
      <time>2021-10-12T15:21:57Z</time>
    </trkpt>
    <trkpt lat="38.633352024" lon="34.900488965">
      <ele>1147.838</ele>
      <time>2021-10-12T15:21:58Z</time>
    </trkpt>
    <trkpt lat="38.633323023" lon="34.900502041">
      <ele>1147.571</ele>
      <time>2021-10-12T15:21:59Z</time>
    </trkpt>
    <trkpt lat="38.63329201" lon="34.90051101">
      <ele>1147.457</ele>
      <time>2021-10-12T15:22:01Z</time>
    </trkpt>
    <trkpt lat="38.633263009" lon="34.900518972">
      <ele>1147.362</ele>
      <time>2021-10-12T15:22:02Z</time>
    </trkpt>
    <trkpt lat="38.63324197" lon="34.900533976">
      <ele>1147.208</ele>
      <time>2021-10-12T15:22:03Z</time>
    </trkpt>
    <trkpt lat="38.633222021" lon="34.900568007">
      <ele>1146.91</ele>
      <time>2021-10-12T15:22:04Z</time>
    </trkpt>
    <trkpt lat="38.633207018" lon="34.900607988">
      <ele>1146.622</ele>
      <time>2021-10-12T15:22:05Z</time>
    </trkpt>
    <trkpt lat="38.633198971" lon="34.900645958">
      <ele>1146.349</ele>
      <time>2021-10-12T15:22:06Z</time>
    </trkpt>
    <trkpt lat="38.633192014" lon="34.900685018">
      <ele>1146.068</ele>
      <time>2021-10-12T15:22:07Z</time>
    </trkpt>
    <trkpt lat="38.633190002" lon="34.900725">
      <ele>1145.78</ele>
      <time>2021-10-12T15:22:09Z</time>
    </trkpt>
    <trkpt lat="38.63317701" lon="34.900763975">
      <ele>1145.499</ele>
      <time>2021-10-12T15:22:10Z</time>
    </trkpt>
    <trkpt lat="38.633164018" lon="34.900798006">
      <ele>1145.254</ele>
      <time>2021-10-12T15:22:11Z</time>
    </trkpt>
    <trkpt lat="38.633152032" lon="34.900832959">
      <ele>1145.003</ele>
      <time>2021-10-12T15:22:12Z</time>
    </trkpt>
    <trkpt lat="38.633139962" lon="34.900872018">
      <ele>1144.903</ele>
      <time>2021-10-12T15:22:13Z</time>
    </trkpt>
    <trkpt lat="38.633124037" lon="34.900907977">
      <ele>1144.798</ele>
      <time>2021-10-12T15:22:14Z</time>
    </trkpt>
    <trkpt lat="38.633097969" lon="34.900941001">
      <ele>1144.672</ele>
      <time>2021-10-12T15:22:16Z</time>
    </trkpt>
    <trkpt lat="38.633068968" lon="34.900971008">
      <ele>1144.528</ele>
      <time>2021-10-12T15:22:17Z</time>
    </trkpt>
    <trkpt lat="38.633049019" lon="34.901005039">
      <ele>1144.391</ele>
      <time>2021-10-12T15:22:18Z</time>
    </trkpt>
    <trkpt lat="38.633034015" lon="34.901040997">
      <ele>1144.272</ele>
      <time>2021-10-12T15:22:20Z</time>
    </trkpt>
    <trkpt lat="38.633022029" lon="34.901080979">
      <ele>1144.122</ele>
      <time>2021-10-12T15:22:21Z</time>
    </trkpt>
    <trkpt lat="38.633013982" lon="34.90112599">
      <ele>1143.946</ele>
      <time>2021-10-12T15:22:22Z</time>
    </trkpt>
    <trkpt lat="38.63300099" lon="34.901168989">
      <ele>1143.792</ele>
      <time>2021-10-12T15:22:23Z</time>
    </trkpt>
    <trkpt lat="38.632983975" lon="34.901208971">
      <ele>1143.648</ele>
      <time>2021-10-12T15:22:25Z</time>
    </trkpt>
    <trkpt lat="38.63296696" lon="34.901245013">
      <ele>1143.518</ele>
      <time>2021-10-12T15:22:26Z</time>
    </trkpt>
    <trkpt lat="38.632943993" lon="34.90127896">
      <ele>1143.396</ele>
      <time>2021-10-12T15:22:27Z</time>
    </trkpt>
    <trkpt lat="38.63291801" lon="34.901310978">
      <ele>1143.28</ele>
      <time>2021-10-12T15:22:29Z</time>
    </trkpt>
    <trkpt lat="38.632889008" lon="34.90133998">
      <ele>1143.176</ele>
      <time>2021-10-12T15:22:30Z</time>
    </trkpt>
    <trkpt lat="38.632862018" lon="34.901369987">
      <ele>1143.068</ele>
      <time>2021-10-12T15:22:31Z</time>
    </trkpt>
    <trkpt lat="38.632834023" lon="34.901398988">
      <ele>1143.0</ele>
      <time>2021-10-12T15:22:33Z</time>
    </trkpt>
    <trkpt lat="38.632804016" lon="34.901420027">
      <ele>1143.0</ele>
      <time>2021-10-12T15:22:34Z</time>
    </trkpt>
    <trkpt lat="38.632774008" lon="34.901425978">
      <ele>1143.012</ele>
      <time>2021-10-12T15:22:35Z</time>
    </trkpt>
    <trkpt lat="38.632737966" lon="34.901416004">
      <ele>1143.129</ele>
      <time>2021-10-12T15:22:36Z</time>
    </trkpt>
    <trkpt lat="38.632702008" lon="34.901401">
      <ele>1143.261</ele>
      <time>2021-10-12T15:22:38Z</time>
    </trkpt>
    <trkpt lat="38.632667977" lon="34.901383985">
      <ele>1143.413</ele>
      <time>2021-10-12T15:22:39Z</time>
    </trkpt>
    <trkpt lat="38.632635958" lon="34.901364036">
      <ele>1143.6</ele>
      <time>2021-10-12T15:22:41Z</time>
    </trkpt>
    <trkpt lat="38.632605029" lon="34.901353978">
      <ele>1143.748</ele>
      <time>2021-10-12T15:22:42Z</time>
    </trkpt>
    <trkpt lat="38.63257301" lon="34.901344003">
      <ele>1143.899</ele>
      <time>2021-10-12T15:22:43Z</time>
    </trkpt>
    <trkpt lat="38.632541997" lon="34.901330005">
      <ele>1144.061</ele>
      <time>2021-10-12T15:22:44Z</time>
    </trkpt>
    <trkpt lat="38.632510984" lon="34.901316008">
      <ele>1144.223</ele>
      <time>2021-10-12T15:22:45Z</time>
    </trkpt>
    <trkpt lat="38.632478965" lon="34.90130201">
      <ele>1144.412</ele>
      <time>2021-10-12T15:22:47Z</time>
    </trkpt>
    <trkpt lat="38.632448036" lon="34.901288012">
      <ele>1144.618</ele>
      <time>2021-10-12T15:22:48Z</time>
    </trkpt>
    <trkpt lat="38.632420041" lon="34.90127896">
      <ele>1144.798</ele>
      <time>2021-10-12T15:22:49Z</time>
    </trkpt>
    <trkpt lat="38.632391961" lon="34.901269991">
      <ele>1144.983</ele>
      <time>2021-10-12T15:22:50Z</time>
    </trkpt>
    <trkpt lat="38.632363966" lon="34.901262028">
      <ele>1145.17</ele>
      <time>2021-10-12T15:22:51Z</time>
    </trkpt>
    <trkpt lat="38.63233597" lon="34.901250964">
      <ele>1145.38</ele>
      <time>2021-10-12T15:22:52Z</time>
    </trkpt>
    <trkpt lat="38.632306969" lon="34.901237972">
      <ele>1145.616</ele>
      <time>2021-10-12T15:22:53Z</time>
    </trkpt>
    <trkpt lat="38.632279979" lon="34.901225986">
      <ele>1145.843</ele>
      <time>2021-10-12T15:22:54Z</time>
    </trkpt>
    <trkpt lat="38.632255001" lon="34.901211988">
      <ele>1146.081</ele>
      <time>2021-10-12T15:22:55Z</time>
    </trkpt>
    <trkpt lat="38.63223304" lon="34.901200002">
      <ele>1146.295</ele>
      <time>2021-10-12T15:22:56Z</time>
    </trkpt>
    <trkpt lat="38.63220999" lon="34.901188016">
      <ele>1146.534</ele>
      <time>2021-10-12T15:22:57Z</time>
    </trkpt>
    <trkpt lat="38.632190041" lon="34.901175024">
      <ele>1146.772</ele>
      <time>2021-10-12T15:22:58Z</time>
    </trkpt>
    <trkpt lat="38.63217596" lon="34.901150968">
      <ele>1147.046</ele>
      <time>2021-10-12T15:22:59Z</time>
    </trkpt>
    <trkpt lat="38.632166991" lon="34.901124984">
      <ele>1147.298</ele>
      <time>2021-10-12T15:23:00Z</time>
    </trkpt>
    <trkpt lat="38.63216104" lon="34.901093971">
      <ele>1147.564</ele>
      <time>2021-10-12T15:23:01Z</time>
    </trkpt>
    <trkpt lat="38.632161962" lon="34.901063042">
      <ele>1147.78</ele>
      <time>2021-10-12T15:23:01Z</time>
    </trkpt>
    <trkpt lat="38.632162968" lon="34.901035968">
      <ele>1147.968</ele>
      <time>2021-10-12T15:23:02Z</time>
    </trkpt>
    <trkpt lat="38.632166991" lon="34.901007973">
      <ele>1148.14</ele>
      <time>2021-10-12T15:23:03Z</time>
    </trkpt>
    <trkpt lat="38.63217202" lon="34.900979977">
      <ele>1148.306</ele>
      <time>2021-10-12T15:23:04Z</time>
    </trkpt>
    <trkpt lat="38.632175038" lon="34.900951982">
      <ele>1148.485</ele>
      <time>2021-10-12T15:23:05Z</time>
    </trkpt>
    <trkpt lat="38.632180989" lon="34.900923986">
      <ele>1148.644</ele>
      <time>2021-10-12T15:23:06Z</time>
    </trkpt>
    <trkpt lat="38.632186018" lon="34.900891967">
      <ele>1148.839</ele>
      <time>2021-10-12T15:23:07Z</time>
    </trkpt>
    <trkpt lat="38.632198004" lon="34.900871012">
      <ele>1148.903</ele>
      <time>2021-10-12T15:23:07Z</time>
    </trkpt>
    <trkpt lat="38.632208984" lon="34.900845028">
      <ele>1149.011</ele>
      <time>2021-10-12T15:23:08Z</time>
    </trkpt>
    <trkpt lat="38.632233376" lon="34.900772944">
      <ele>1148.648</ele>
      <time>2021-10-12T15:23:10Z</time>
    </trkpt>
    <trkpt lat="38.632245949" lon="34.900726257">
      <ele>1148.372</ele>
      <time>2021-10-12T15:23:12Z</time>
    </trkpt>
    <trkpt lat="38.63224796" lon="34.90070899">
      <ele>1148.306</ele>
      <time>2021-10-12T15:23:12Z</time>
    </trkpt>
    <trkpt lat="38.63224796" lon="34.900674038">
      <ele>1148.215</ele>
      <time>2021-10-12T15:23:13Z</time>
    </trkpt>
    <trkpt lat="38.632245027" lon="34.900637995">
      <ele>1148.142</ele>
      <time>2021-10-12T15:23:14Z</time>
    </trkpt>
    <trkpt lat="38.632237986" lon="34.900598014">
      <ele>1148.07</ele>
      <time>2021-10-12T15:23:16Z</time>
    </trkpt>
    <trkpt lat="38.632230023" lon="34.900559038">
      <ele>1147.983</ele>
      <time>2021-10-12T15:23:17Z</time>
    </trkpt>
    <trkpt lat="38.63222097" lon="34.900518972">
      <ele>1147.885</ele>
      <time>2021-10-12T15:23:18Z</time>
    </trkpt>
    <trkpt lat="38.632214013" lon="34.900476979">
      <ele>1147.819</ele>
      <time>2021-10-12T15:23:19Z</time>
    </trkpt>
    <trkpt lat="38.632204039" lon="34.900432974">
      <ele>1147.763</ele>
      <time>2021-10-12T15:23:21Z</time>
    </trkpt>
    <trkpt lat="38.632193981" lon="34.900390981">
      <ele>1147.694</ele>
      <time>2021-10-12T15:23:22Z</time>
    </trkpt>
    <trkpt lat="38.632181995" lon="34.900346976">
      <ele>1147.611</ele>
      <time>2021-10-12T15:23:23Z</time>
    </trkpt>
    <trkpt lat="38.632166991" lon="34.900301965">
      <ele>1147.519</ele>
      <time>2021-10-12T15:23:25Z</time>
    </trkpt>
    <trkpt lat="38.632149976" lon="34.900258966">
      <ele>1147.417</ele>
      <time>2021-10-12T15:23:26Z</time>
    </trkpt>
    <trkpt lat="38.632132038" lon="34.900214961">
      <ele>1147.276</ele>
      <time>2021-10-12T15:23:27Z</time>
    </trkpt>
    <trkpt lat="38.632113012" lon="34.900173973">
      <ele>1147.119</ele>
      <time>2021-10-12T15:23:29Z</time>
    </trkpt>
    <trkpt lat="38.632093985" lon="34.900132986">
      <ele>1146.921</ele>
      <time>2021-10-12T15:23:30Z</time>
    </trkpt>
    <trkpt lat="38.632076969" lon="34.900090992">
      <ele>1146.67</ele>
      <time>2021-10-12T15:23:32Z</time>
    </trkpt>
    <trkpt lat="38.632061966" lon="34.900047993">
      <ele>1146.372</ele>
      <time>2021-10-12T15:23:33Z</time>
    </trkpt>
    <trkpt lat="38.632046962" lon="34.899999965">
      <ele>1146.0</ele>
      <time>2021-10-12T15:23:34Z</time>
    </trkpt>
    <trkpt lat="38.632030031" lon="34.899959983">
      <ele>1145.756</ele>
      <time>2021-10-12T15:23:36Z</time>
    </trkpt>
    <trkpt lat="38.632016033" lon="34.899926959">
      <ele>1145.542</ele>
      <time>2021-10-12T15:23:37Z</time>
    </trkpt>
    <trkpt lat="38.632000023" lon="34.899889994">
      <ele>1145.287</ele>
      <time>2021-10-12T15:23:38Z</time>
    </trkpt>
    <trkpt lat="38.631983008" lon="34.899852024">
      <ele>1145.009</ele>
      <time>2021-10-12T15:23:39Z</time>
    </trkpt>
    <trkpt lat="38.63196197" lon="34.899808019">
      <ele>1144.661</ele>
      <time>2021-10-12T15:23:41Z</time>
    </trkpt>
    <trkpt lat="38.631942021" lon="34.899768038">
      <ele>1144.33</ele>
      <time>2021-10-12T15:23:42Z</time>
    </trkpt>
    <trkpt lat="38.631919976" lon="34.899727972">
      <ele>1144.041</ele>
      <time>2021-10-12T15:23:44Z</time>
    </trkpt>
    <trkpt lat="38.631898016" lon="34.899694026">
      <ele>1143.983</ele>
      <time>2021-10-12T15:23:45Z</time>
    </trkpt>
    <trkpt lat="38.631877983" lon="34.899661001">
      <ele>1143.947</ele>
      <time>2021-10-12T15:23:46Z</time>
    </trkpt>
    <trkpt lat="38.631854011" lon="34.899622025">
      <ele>1143.883</ele>
      <time>2021-10-12T15:23:48Z</time>
    </trkpt>
    <trkpt lat="38.631742985" lon="34.899458238">
      <ele>1143.311</ele>
      <time>2021-10-12T15:23:54Z</time>
    </trkpt>
    <trkpt lat="38.631496722" lon="34.899621803">
      <ele>1143.027</ele>
      <time>2021-10-12T15:24:04Z</time>
    </trkpt>
    <trkpt lat="38.631387672" lon="34.899712943">
      <ele>1142.958</ele>
      <time>2021-10-12T15:24:09Z</time>
    </trkpt>
    <trkpt lat="38.631222356" lon="34.899981172">
      <ele>1142.548</ele>
      <time>2021-10-12T15:24:19Z</time>
    </trkpt>
    <trkpt lat="38.631111315" lon="34.900238604">
      <ele>1139.286</ele>
      <time>2021-10-12T15:24:27Z</time>
    </trkpt>
    <trkpt lat="38.630945532" lon="34.900532799">
      <ele>1132.347</ele>
      <time>2021-10-12T15:24:38Z</time>
    </trkpt>
    <trkpt lat="38.630795585" lon="34.900737357">
      <ele>1129.304</ele>
      <time>2021-10-12T15:24:46Z</time>
    </trkpt>
    <trkpt lat="38.630658406" lon="34.900847554">
      <ele>1128.389</ele>
      <time>2021-10-12T15:24:52Z</time>
    </trkpt>
    <trkpt lat="38.630522058" lon="34.900921011">
      <ele>1127.689</ele>
      <time>2021-10-12T15:24:58Z</time>
    </trkpt>
    <trkpt lat="38.63033619" lon="34.900985193">
      <ele>1125.052</ele>
      <time>2021-10-12T15:25:05Z</time>
    </trkpt>
    <trkpt lat="38.630152847" lon="34.9010331">
      <ele>1120.256</ele>
      <time>2021-10-12T15:25:12Z</time>
    </trkpt>
    <trkpt lat="38.629965554" lon="34.901077443">
      <ele>1114.847</ele>
      <time>2021-10-12T15:25:19Z</time>
    </trkpt>
    <trkpt lat="38.629741337" lon="34.901164848">
      <ele>1108.652</ele>
      <time>2021-10-12T15:25:27Z</time>
    </trkpt>
    <trkpt lat="38.629573556" lon="34.901280022">
      <ele>1104.543</ele>
      <time>2021-10-12T15:25:34Z</time>
    </trkpt>
    <trkpt lat="38.629431089" lon="34.901405129">
      <ele>1102.008</ele>
      <time>2021-10-12T15:25:41Z</time>
    </trkpt>
    <trkpt lat="38.629285822" lon="34.901567738">
      <ele>1101.705</ele>
      <time>2021-10-12T15:25:48Z</time>
    </trkpt>
    <trkpt lat="38.629219429" lon="34.901657879">
      <ele>1101.374</ele>
      <time>2021-10-12T15:25:51Z</time>
    </trkpt>
    <trkpt lat="38.629157416" lon="34.901756691">
      <ele>1100.632</ele>
      <time>2021-10-12T15:25:55Z</time>
    </trkpt>
    <trkpt lat="38.629058681" lon="34.901984877">
      <ele>1099.077</ele>
      <time>2021-10-12T15:26:03Z</time>
    </trkpt>
    <trkpt lat="38.629006055" lon="34.90218922">
      <ele>1097.962</ele>
      <time>2021-10-12T15:26:09Z</time>
    </trkpt>
    <trkpt lat="38.628964705" lon="34.90234044">
      <ele>1096.695</ele>
      <time>2021-10-12T15:26:14Z</time>
    </trkpt>
    <trkpt lat="38.628940631" lon="34.902552989">
      <ele>1095.217</ele>
      <time>2021-10-12T15:26:20Z</time>
    </trkpt>
    <trkpt lat="38.628956045" lon="34.902757531">
      <ele>1094.781</ele>
      <time>2021-10-12T15:26:26Z</time>
    </trkpt>
    <trkpt lat="38.628969785" lon="34.902951026">
      <ele>1095.055</ele>
      <time>2021-10-12T15:26:31Z</time>
    </trkpt>
    <trkpt lat="38.628997704" lon="34.903126582">
      <ele>1095.667</ele>
      <time>2021-10-12T15:26:37Z</time>
    </trkpt>
    <trkpt lat="38.629150402" lon="34.903140511">
      <ele>1098.054</ele>
      <time>2021-10-12T15:26:42Z</time>
    </trkpt>
    <trkpt lat="38.629007393" lon="34.90316125">
      <ele>1095.869</ele>
      <time>2021-10-12T15:26:48Z</time>
    </trkpt>
    <trkpt lat="38.628939712" lon="34.903206244">
      <ele>1094.831</ele>
      <time>2021-10-12T15:26:50Z</time>
    </trkpt>
    <trkpt lat="38.628947" lon="34.903273">
      <ele>1095.001</ele>
      <time>2021-10-12T15:26:52Z</time>
    </trkpt>
    <trkpt lat="38.628906" lon="34.903411">
      <ele>1094.274</ele>
      <time>2021-10-12T15:26:57Z</time>
    </trkpt>
    <trkpt lat="38.628816" lon="34.903598">
      <ele>1094.0</ele>
      <time>2021-10-12T15:27:03Z</time>
    </trkpt>
    <trkpt lat="38.62863" lon="34.904114">
      <ele>1092.202</ele>
      <time>2021-10-12T15:27:20Z</time>
    </trkpt>
    <trkpt lat="38.628509" lon="34.904317">
      <ele>1090.376</ele>
      <time>2021-10-12T15:27:27Z</time>
    </trkpt>
    <trkpt lat="38.628394" lon="34.904556">
      <ele>1089.0</ele>
      <time>2021-10-12T15:27:35Z</time>
    </trkpt>
    <trkpt lat="38.628329" lon="34.904778">
      <ele>1089.213</ele>
      <time>2021-10-12T15:27:42Z</time>
    </trkpt>
    <trkpt lat="38.628301" lon="34.905048">
      <ele>1090.0</ele>
      <time>2021-10-12T15:27:50Z</time>
    </trkpt>
    <trkpt lat="38.628245" lon="34.905259">
      <ele>1090.0</ele>
      <time>2021-10-12T15:27:56Z</time>
    </trkpt>
    <trkpt lat="38.628197" lon="34.905332">
      <ele>1089.904</ele>
      <time>2021-10-12T15:27:59Z</time>
    </trkpt>
    <trkpt lat="38.628018" lon="34.904887">
      <ele>1090.055</ele>
      <time>2021-10-12T15:28:14Z</time>
    </trkpt>
    <trkpt lat="38.627846" lon="34.904402">
      <ele>1094.744</ele>
      <time>2021-10-12T15:28:29Z</time>
    </trkpt>
    <trkpt lat="38.627795" lon="34.90417">
      <ele>1099.631</ele>
      <time>2021-10-12T15:28:36Z</time>
    </trkpt>
    <trkpt lat="38.627806" lon="34.904092">
      <ele>1100.836</ele>
      <time>2021-10-12T15:28:38Z</time>
    </trkpt>
    <trkpt lat="38.627823671" lon="34.903945854">
      <ele>1103.149</ele>
      <time>2021-10-12T15:28:43Z</time>
    </trkpt>
    <trkpt lat="38.627875643" lon="34.903835301">
      <ele>1104.078</ele>
      <time>2021-10-12T15:28:46Z</time>
    </trkpt>
    <trkpt lat="38.627941694" lon="34.903727928">
      <ele>1104.709</ele>
      <time>2021-10-12T15:28:50Z</time>
    </trkpt>
    <trkpt lat="38.627985313" lon="34.903588411">
      <ele>1106.297</ele>
      <time>2021-10-12T15:28:55Z</time>
    </trkpt>
    <trkpt lat="38.627976765" lon="34.903401388">
      <ele>1108.726</ele>
      <time>2021-10-12T15:29:00Z</time>
    </trkpt>
    <trkpt lat="38.627965973" lon="34.903250647">
      <ele>1110.442</ele>
      <time>2021-10-12T15:29:05Z</time>
    </trkpt>
    <trkpt lat="38.628005065" lon="34.903108741">
      <ele>1111.642</ele>
      <time>2021-10-12T15:29:09Z</time>
    </trkpt>
    <trkpt lat="38.628041814" lon="34.903006576">
      <ele>1112.729</ele>
      <time>2021-10-12T15:29:12Z</time>
    </trkpt>
    <trkpt lat="38.628069854" lon="34.902826669">
      <ele>1114.705</ele>
      <time>2021-10-12T15:29:17Z</time>
    </trkpt>
    <trkpt lat="38.628111773" lon="34.902651247">
      <ele>1113.485</ele>
      <time>2021-10-12T15:29:23Z</time>
    </trkpt>
    <trkpt lat="38.628142127" lon="34.902439097">
      <ele>1112.945</ele>
      <time>2021-10-12T15:29:29Z</time>
    </trkpt>
    <trkpt lat="38.628166362" lon="34.902212727">
      <ele>1113.898</ele>
      <time>2021-10-12T15:29:36Z</time>
    </trkpt>
    <trkpt lat="38.6281637" lon="34.901946904">
      <ele>1116.42</ele>
      <time>2021-10-12T15:29:43Z</time>
    </trkpt>
    <trkpt lat="38.628207308" lon="34.901426878">
      <ele>1120.404</ele>
      <time>2021-10-12T15:29:59Z</time>
    </trkpt>
    <trkpt lat="38.628249528" lon="34.900891261">
      <ele>1125.488</ele>
      <time>2021-10-12T15:30:14Z</time>
    </trkpt>
    <trkpt lat="38.628277762" lon="34.900495682">
      <ele>1128.416</ele>
      <time>2021-10-12T15:30:26Z</time>
    </trkpt>
    <trkpt lat="38.628286" lon="34.899829">
      <ele>1128.961</ele>
      <time>2021-10-12T15:30:45Z</time>
    </trkpt>
    <trkpt lat="38.628274" lon="34.899651">
      <ele>1128.53</ele>
      <time>2021-10-12T15:30:50Z</time>
    </trkpt>
    <trkpt lat="38.628236968" lon="34.899830986">
      <ele>1128.925</ele>
      <time>2021-10-12T15:30:56Z</time>
    </trkpt>
    <trkpt lat="38.628224982" lon="34.899869962">
      <ele>1129.025</ele>
      <time>2021-10-12T15:30:57Z</time>
    </trkpt>
    <trkpt lat="38.628217019" lon="34.89990701">
      <ele>1129.138</ele>
      <time>2021-10-12T15:30:58Z</time>
    </trkpt>
    <trkpt lat="38.628208973" lon="34.899943974">
      <ele>1129.267</ele>
      <time>2021-10-12T15:30:59Z</time>
    </trkpt>
    <trkpt lat="38.628205033" lon="34.899983034">
      <ele>1129.405</ele>
      <time>2021-10-12T15:31:00Z</time>
    </trkpt>
    <trkpt lat="38.628207967" lon="34.900023015">
      <ele>1129.451</ele>
      <time>2021-10-12T15:31:01Z</time>
    </trkpt>
    <trkpt lat="38.628207967" lon="34.900064003">
      <ele>1129.451</ele>
      <time>2021-10-12T15:31:03Z</time>
    </trkpt>
    <trkpt lat="38.628205033" lon="34.900103984">
      <ele>1129.462</ele>
      <time>2021-10-12T15:31:04Z</time>
    </trkpt>
    <trkpt lat="38.628203021" lon="34.900143966">
      <ele>1129.469</ele>
      <time>2021-10-12T15:31:05Z</time>
    </trkpt>
    <trkpt lat="38.628202016" lon="34.900184032">
      <ele>1129.473</ele>
      <time>2021-10-12T15:31:06Z</time>
    </trkpt>
    <trkpt lat="38.628202016" lon="34.900222002">
      <ele>1129.473</ele>
      <time>2021-10-12T15:31:07Z</time>
    </trkpt>
    <trkpt lat="38.628202016" lon="34.900263995">
      <ele>1129.473</ele>
      <time>2021-10-12T15:31:08Z</time>
    </trkpt>
    <trkpt lat="38.62820101" lon="34.900305988">
      <ele>1129.375</ele>
      <time>2021-10-12T15:31:10Z</time>
    </trkpt>
    <trkpt lat="38.62820101" lon="34.900348987">
      <ele>1129.22</ele>
      <time>2021-10-12T15:31:11Z</time>
    </trkpt>
    <trkpt lat="38.628204027" lon="34.900391987">
      <ele>1129.054</ele>
      <time>2021-10-12T15:31:12Z</time>
    </trkpt>
    <trkpt lat="38.628206039" lon="34.900436997">
      <ele>1128.885</ele>
      <time>2021-10-12T15:31:13Z</time>
    </trkpt>
    <trkpt lat="38.628208973" lon="34.900481002">
      <ele>1128.716</ele>
      <time>2021-10-12T15:31:15Z</time>
    </trkpt>
    <trkpt lat="38.628210984" lon="34.90052199">
      <ele>1128.561</ele>
      <time>2021-10-12T15:31:16Z</time>
    </trkpt>
    <trkpt lat="38.628214002" lon="34.900558032">
      <ele>1128.411</ele>
      <time>2021-10-12T15:31:17Z</time>
    </trkpt>
    <trkpt lat="38.628212996" lon="34.900600025">
      <ele>1128.092</ele>
      <time>2021-10-12T15:31:18Z</time>
    </trkpt>
    <trkpt lat="38.628207967" lon="34.900642019">
      <ele>1127.798</ele>
      <time>2021-10-12T15:31:19Z</time>
    </trkpt>
    <trkpt lat="38.628200004" lon="34.90068703">
      <ele>1127.514</ele>
      <time>2021-10-12T15:31:21Z</time>
    </trkpt>
    <trkpt lat="38.628192041" lon="34.900730029">
      <ele>1127.263</ele>
      <time>2021-10-12T15:31:22Z</time>
    </trkpt>
    <trkpt lat="38.628182989" lon="34.900772022">
      <ele>1127.047</ele>
      <time>2021-10-12T15:31:23Z</time>
    </trkpt>
    <trkpt lat="38.628177959" lon="34.900814015">
      <ele>1126.809</ele>
      <time>2021-10-12T15:31:25Z</time>
    </trkpt>
    <trkpt lat="38.628173014" lon="34.900853997">
      <ele>1126.583</ele>
      <time>2021-10-12T15:31:26Z</time>
    </trkpt>
    <trkpt lat="38.628171002" lon="34.900893979">
      <ele>1126.317</ele>
      <time>2021-10-12T15:31:27Z</time>
    </trkpt>
    <trkpt lat="38.628168991" lon="34.900934966">
      <ele>1126.043</ele>
      <time>2021-10-12T15:31:28Z</time>
    </trkpt>
    <trkpt lat="38.628165973" lon="34.900978971">
      <ele>1125.759</ele>
      <time>2021-10-12T15:31:29Z</time>
    </trkpt>
    <trkpt lat="38.628162034" lon="34.901019959">
      <ele>1125.506</ele>
      <time>2021-10-12T15:31:31Z</time>
    </trkpt>
    <trkpt lat="38.628157005" lon="34.901066981">
      <ele>1125.222</ele>
      <time>2021-10-12T15:31:32Z</time>
    </trkpt>
    <trkpt lat="38.628153987" lon="34.901110986">
      <ele>1124.938</ele>
      <time>2021-10-12T15:31:33Z</time>
    </trkpt>
    <trkpt lat="38.628152981" lon="34.901154991">
      <ele>1124.418</ele>
      <time>2021-10-12T15:31:35Z</time>
    </trkpt>
    <trkpt lat="38.628151976" lon="34.901201008">
      <ele>1123.875</ele>
      <time>2021-10-12T15:31:36Z</time>
    </trkpt>
    <trkpt lat="38.628149042" lon="34.901247025">
      <ele>1123.358</ele>
      <time>2021-10-12T15:31:37Z</time>
    </trkpt>
    <trkpt lat="38.62815097" lon="34.90129103">
      <ele>1122.804</ele>
      <time>2021-10-12T15:31:38Z</time>
    </trkpt>
    <trkpt lat="38.62815097" lon="34.901336962">
      <ele>1122.251</ele>
      <time>2021-10-12T15:31:40Z</time>
    </trkpt>
    <trkpt lat="38.628151976" lon="34.901383985">
      <ele>1121.671</ele>
      <time>2021-10-12T15:31:41Z</time>
    </trkpt>
    <trkpt lat="38.628149964" lon="34.901428996">
      <ele>1121.207</ele>
      <time>2021-10-12T15:31:42Z</time>
    </trkpt>
    <trkpt lat="38.628149042" lon="34.901474006">
      <ele>1120.735</ele>
      <time>2021-10-12T15:31:44Z</time>
    </trkpt>
    <trkpt lat="38.628149964" lon="34.901517006">
      <ele>1120.257</ele>
      <time>2021-10-12T15:31:45Z</time>
    </trkpt>
    <trkpt lat="38.628151976" lon="34.901560005">
      <ele>1119.764</ele>
      <time>2021-10-12T15:31:46Z</time>
    </trkpt>
    <trkpt lat="38.628152981" lon="34.901598981">
      <ele>1119.328</ele>
      <time>2021-10-12T15:31:47Z</time>
    </trkpt>
    <trkpt lat="38.628152981" lon="34.901634017">
      <ele>1118.95</ele>
      <time>2021-10-12T15:31:48Z</time>
    </trkpt>
    <trkpt lat="38.628101014" lon="34.902367014">
      <ele>1114.648</ele>
      <time>2021-10-12T15:32:10Z</time>
    </trkpt>
    <trkpt lat="38.628087016" lon="34.902403979">
      <ele>1114.785</ele>
      <time>2021-10-12T15:32:11Z</time>
    </trkpt>
    <trkpt lat="38.628073018" lon="34.90244396">
      <ele>1114.901</ele>
      <time>2021-10-12T15:32:12Z</time>
    </trkpt>
    <trkpt lat="38.628061032" lon="34.902484026">
      <ele>1114.957</ele>
      <time>2021-10-12T15:32:14Z</time>
    </trkpt>
    <trkpt lat="38.628048962" lon="34.902526019">
      <ele>1115.068</ele>
      <time>2021-10-12T15:32:15Z</time>
    </trkpt>
    <trkpt lat="38.628036976" lon="34.902567007">
      <ele>1115.158</ele>
      <time>2021-10-12T15:32:16Z</time>
    </trkpt>
    <trkpt lat="38.628027001" lon="34.902609">
      <ele>1115.249</ele>
      <time>2021-10-12T15:32:17Z</time>
    </trkpt>
    <trkpt lat="38.628016021" lon="34.902656022">
      <ele>1115.339</ele>
      <time>2021-10-12T15:32:19Z</time>
    </trkpt>
    <trkpt lat="38.628004035" lon="34.902696004">
      <ele>1115.389</ele>
      <time>2021-10-12T15:32:20Z</time>
    </trkpt>
    <trkpt lat="38.627993977" lon="34.902732968">
      <ele>1115.431</ele>
      <time>2021-10-12T15:32:21Z</time>
    </trkpt>
    <trkpt lat="38.627981991" lon="34.90277404">
      <ele>1115.46</ele>
      <time>2021-10-12T15:32:22Z</time>
    </trkpt>
    <trkpt lat="38.627970004" lon="34.902816033">
      <ele>1114.96</ele>
      <time>2021-10-12T15:32:24Z</time>
    </trkpt>
    <trkpt lat="38.627959024" lon="34.902860038">
      <ele>1114.429</ele>
      <time>2021-10-12T15:32:25Z</time>
    </trkpt>
    <trkpt lat="38.627945026" lon="34.902901025">
      <ele>1113.959</ele>
      <time>2021-10-12T15:32:26Z</time>
    </trkpt>
    <trkpt lat="38.627927005" lon="34.90294897">
      <ele>1113.465</ele>
      <time>2021-10-12T15:32:28Z</time>
    </trkpt>
    <trkpt lat="38.627915019" lon="34.902990963">
      <ele>1113.083</ele>
      <time>2021-10-12T15:32:29Z</time>
    </trkpt>
    <trkpt lat="38.627902027" lon="34.903035974">
      <ele>1112.718</ele>
      <time>2021-10-12T15:32:31Z</time>
    </trkpt>
    <trkpt lat="38.627890963" lon="34.903078973">
      <ele>1112.39</ele>
      <time>2021-10-12T15:32:32Z</time>
    </trkpt>
    <trkpt lat="38.627879983" lon="34.903119961">
      <ele>1112.083</ele>
      <time>2021-10-12T15:32:33Z</time>
    </trkpt>
    <trkpt lat="38.627869003" lon="34.903157009">
      <ele>1111.821</ele>
      <time>2021-10-12T15:32:34Z</time>
    </trkpt>
    <trkpt lat="38.627857016" lon="34.903197996">
      <ele>1111.543</ele>
      <time>2021-10-12T15:32:36Z</time>
    </trkpt>
    <trkpt lat="38.627846958" lon="34.903240995">
      <ele>1111.25</ele>
      <time>2021-10-12T15:32:37Z</time>
    </trkpt>
    <trkpt lat="38.627838995" lon="34.903277038">
      <ele>1111.009</ele>
      <time>2021-10-12T15:32:38Z</time>
    </trkpt>
    <trkpt lat="38.627831032" lon="34.903316014">
      <ele>1110.753</ele>
      <time>2021-10-12T15:32:39Z</time>
    </trkpt>
    <trkpt lat="38.627820974" lon="34.903351972">
      <ele>1110.534</ele>
      <time>2021-10-12T15:32:40Z</time>
    </trkpt>
    <trkpt lat="38.627809994" lon="34.903390026">
      <ele>1110.313</ele>
      <time>2021-10-12T15:32:41Z</time>
    </trkpt>
    <trkpt lat="38.627789039" lon="34.903427996">
      <ele>1110.21</ele>
      <time>2021-10-12T15:32:43Z</time>
    </trkpt>
    <trkpt lat="38.627768001" lon="34.903459009">
      <ele>1110.037</ele>
      <time>2021-10-12T15:32:44Z</time>
    </trkpt>
    <trkpt lat="38.627742017" lon="34.90348801">
      <ele>1109.715</ele>
      <time>2021-10-12T15:32:45Z</time>
    </trkpt>
    <trkpt lat="38.627717961" lon="34.903518017">
      <ele>1109.454</ele>
      <time>2021-10-12T15:32:46Z</time>
    </trkpt>
    <trkpt lat="38.627696" lon="34.903550958">
      <ele>1109.242</ele>
      <time>2021-10-12T15:32:48Z</time>
    </trkpt>
    <trkpt lat="38.627672028" lon="34.903584989">
      <ele>1109.081</ele>
      <time>2021-10-12T15:32:49Z</time>
    </trkpt>
    <trkpt lat="38.627648978" lon="34.903617008">
      <ele>1108.935</ele>
      <time>2021-10-12T15:32:50Z</time>
    </trkpt>
    <trkpt lat="38.627628023" lon="34.903648021">
      <ele>1108.612</ele>
      <time>2021-10-12T15:32:52Z</time>
    </trkpt>
    <trkpt lat="38.627605978" lon="34.903684985">
      <ele>1108.265</ele>
      <time>2021-10-12T15:32:53Z</time>
    </trkpt>
    <trkpt lat="38.627587035" lon="34.903723961">
      <ele>1107.933</ele>
      <time>2021-10-12T15:32:54Z</time>
    </trkpt>
    <trkpt lat="38.627573038" lon="34.903762015">
      <ele>1107.628</ele>
      <time>2021-10-12T15:32:55Z</time>
    </trkpt>
    <trkpt lat="38.62755904" lon="34.903793028">
      <ele>1107.412</ele>
      <time>2021-10-12T15:32:56Z</time>
    </trkpt>
    <trkpt lat="38.627548981" lon="34.903811971">
      <ele>1107.299</ele>
      <time>2021-10-12T15:32:57Z</time>
    </trkpt>
    <trkpt lat="38.627539007" lon="34.903791016">
      <ele>1107.523</ele>
      <time>2021-10-12T15:32:58Z</time>
    </trkpt>
    <trkpt lat="38.627511011" lon="34.903771989">
      <ele>1107.796</ele>
      <time>2021-10-12T15:32:59Z</time>
    </trkpt>
    <trkpt lat="38.627483016" lon="34.903749023">
      <ele>1107.823</ele>
      <time>2021-10-12T15:33:00Z</time>
    </trkpt>
    <trkpt lat="38.627445968" lon="34.903766038">
      <ele>1107.323</ele>
      <time>2021-10-12T15:33:02Z</time>
    </trkpt>
    <trkpt lat="38.627428031" lon="34.903784981">
      <ele>1107.036</ele>
      <time>2021-10-12T15:33:03Z</time>
    </trkpt>
    <trkpt lat="38.627407998" lon="34.903805014">
      <ele>1106.741</ele>
      <time>2021-10-12T15:33:04Z</time>
    </trkpt>
    <trkpt lat="38.627386037" lon="34.903825969">
      <ele>1106.447</ele>
      <time>2021-10-12T15:33:05Z</time>
    </trkpt>
    <trkpt lat="38.62735997" lon="34.903841978">
      <ele>1106.159</ele>
      <time>2021-10-12T15:33:06Z</time>
    </trkpt>
    <trkpt lat="38.62732904" lon="34.903853964">
      <ele>1105.866</ele>
      <time>2021-10-12T15:33:07Z</time>
    </trkpt>
    <trkpt lat="38.627298027" lon="34.903862011">
      <ele>1105.599</ele>
      <time>2021-10-12T15:33:08Z</time>
    </trkpt>
    <trkpt lat="38.627272965" lon="34.90386704">
      <ele>1105.394</ele>
      <time>2021-10-12T15:33:09Z</time>
    </trkpt>
    <trkpt lat="38.627242958" lon="34.903868968">
      <ele>1105.16</ele>
      <time>2021-10-12T15:33:10Z</time>
    </trkpt>
    <trkpt lat="38.627214963" lon="34.903864022">
      <ele>1104.867</ele>
      <time>2021-10-12T15:33:11Z</time>
    </trkpt>
    <trkpt lat="38.627186967" lon="34.903866034">
      <ele>1104.355</ele>
      <time>2021-10-12T15:33:12Z</time>
    </trkpt>
    <trkpt lat="38.627158972" lon="34.903871985">
      <ele>1103.848</ele>
      <time>2021-10-12T15:33:13Z</time>
    </trkpt>
    <trkpt lat="38.627127958" lon="34.903879026">
      <ele>1103.291</ele>
      <time>2021-10-12T15:33:14Z</time>
    </trkpt>
    <trkpt lat="38.627093006" lon="34.903890006">
      <ele>1102.67</ele>
      <time>2021-10-12T15:33:16Z</time>
    </trkpt>
    <trkpt lat="38.627060987" lon="34.903901992">
      <ele>1102.066</ele>
      <time>2021-10-12T15:33:17Z</time>
    </trkpt>
    <trkpt lat="38.627027962" lon="34.903919008">
      <ele>1101.481</ele>
      <time>2021-10-12T15:33:18Z</time>
    </trkpt>
    <trkpt lat="38.626992004" lon="34.903936023">
      <ele>1100.91</ele>
      <time>2021-10-12T15:33:20Z</time>
    </trkpt>
    <trkpt lat="38.626960991" lon="34.903956978">
      <ele>1100.485</ele>
      <time>2021-10-12T15:33:21Z</time>
    </trkpt>
    <trkpt lat="38.626921009" lon="34.903972987">
      <ele>1099.965</ele>
      <time>2021-10-12T15:33:22Z</time>
    </trkpt>
    <trkpt lat="38.626885973" lon="34.903987991">
      <ele>1099.515</ele>
      <time>2021-10-12T15:33:24Z</time>
    </trkpt>
    <trkpt lat="38.626852026" lon="34.904001988">
      <ele>1099.076</ele>
      <time>2021-10-12T15:33:25Z</time>
    </trkpt>
    <trkpt lat="38.626813972" lon="34.904017998">
      <ele>1098.586</ele>
      <time>2021-10-12T15:33:27Z</time>
    </trkpt>
    <trkpt lat="38.62677902" lon="34.904035013">
      <ele>1098.144</ele>
      <time>2021-10-12T15:33:28Z</time>
    </trkpt>
    <trkpt lat="38.626748007" lon="34.904058985">
      <ele>1097.784</ele>
      <time>2021-10-12T15:33:29Z</time>
    </trkpt>
    <trkpt lat="38.626721017" lon="34.904082036">
      <ele>1097.478</ele>
      <time>2021-10-12T15:33:31Z</time>
    </trkpt>
    <trkpt lat="38.626694027" lon="34.904109025">
      <ele>1097.186</ele>
      <time>2021-10-12T15:33:32Z</time>
    </trkpt>
    <trkpt lat="38.62666402" lon="34.904130986">
      <ele>1096.825</ele>
      <time>2021-10-12T15:33:33Z</time>
    </trkpt>
    <trkpt lat="38.626630995" lon="34.904144984">
      <ele>1096.29</ele>
      <time>2021-10-12T15:33:34Z</time>
    </trkpt>
    <trkpt lat="38.626598977" lon="34.904155964">
      <ele>1095.752</ele>
      <time>2021-10-12T15:33:36Z</time>
    </trkpt>
    <trkpt lat="38.626564024" lon="34.904161999">
      <ele>1095.142</ele>
      <time>2021-10-12T15:33:37Z</time>
    </trkpt>
    <trkpt lat="38.626529993" lon="34.904168034">
      <ele>1094.55</ele>
      <time>2021-10-12T15:33:38Z</time>
    </trkpt>
    <trkpt lat="38.626495041" lon="34.904170968">
      <ele>1093.942</ele>
      <time>2021-10-12T15:33:39Z</time>
    </trkpt>
    <trkpt lat="38.62646101" lon="34.904173985">
      <ele>1093.351</ele>
      <time>2021-10-12T15:33:41Z</time>
    </trkpt>
    <trkpt lat="38.626427986" lon="34.904181026">
      <ele>1092.807</ele>
      <time>2021-10-12T15:33:42Z</time>
    </trkpt>
    <trkpt lat="38.626396973" lon="34.904187983">
      <ele>1092.299</ele>
      <time>2021-10-12T15:33:43Z</time>
    </trkpt>
    <trkpt lat="38.626368977" lon="34.904192006">
      <ele>1091.889</ele>
      <time>2021-10-12T15:33:44Z</time>
    </trkpt>
    <trkpt lat="38.626337964" lon="34.904201981">
      <ele>1091.498</ele>
      <time>2021-10-12T15:33:45Z</time>
    </trkpt>
    <trkpt lat="38.626306029" lon="34.904212039">
      <ele>1091.085</ele>
      <time>2021-10-12T15:33:47Z</time>
    </trkpt>
    <trkpt lat="38.62627401" lon="34.904222013">
      <ele>1090.662</ele>
      <time>2021-10-12T15:33:48Z</time>
    </trkpt>
    <trkpt lat="38.626238974" lon="34.904236011">
      <ele>1090.206</ele>
      <time>2021-10-12T15:33:49Z</time>
    </trkpt>
    <trkpt lat="38.626205027" lon="34.904257972">
      <ele>1089.792</ele>
      <time>2021-10-12T15:33:51Z</time>
    </trkpt>
    <trkpt lat="38.626174014" lon="34.904281022">
      <ele>1089.411</ele>
      <time>2021-10-12T15:33:52Z</time>
    </trkpt>
    <trkpt lat="38.626147024" lon="34.904310023">
      <ele>1089.1</ele>
      <time>2021-10-12T15:33:53Z</time>
    </trkpt>
    <trkpt lat="38.626119029" lon="34.90433299">
      <ele>1088.73</ele>
      <time>2021-10-12T15:33:54Z</time>
    </trkpt>
    <trkpt lat="38.626093967" lon="34.904354028">
      <ele>1088.611</ele>
      <time>2021-10-12T15:33:56Z</time>
    </trkpt>
    <trkpt lat="38.626068989" lon="34.904376995">
      <ele>1088.564</ele>
      <time>2021-10-12T15:33:57Z</time>
    </trkpt>
    <trkpt lat="38.626046022" lon="34.904400967">
      <ele>1088.485</ele>
      <time>2021-10-12T15:33:58Z</time>
    </trkpt>
    <trkpt lat="38.626020961" lon="34.904428041">
      <ele>1088.349</ele>
      <time>2021-10-12T15:33:59Z</time>
    </trkpt>
    <trkpt lat="38.625991959" lon="34.904459976">
      <ele>1088.126</ele>
      <time>2021-10-12T15:34:00Z</time>
    </trkpt>
    <trkpt lat="38.625965975" lon="34.904491995">
      <ele>1087.858</ele>
      <time>2021-10-12T15:34:02Z</time>
    </trkpt>
    <trkpt lat="38.625940997" lon="34.904524013">
      <ele>1087.535</ele>
      <time>2021-10-12T15:34:03Z</time>
    </trkpt>
    <trkpt lat="38.625918031" lon="34.904554021">
      <ele>1087.182</ele>
      <time>2021-10-12T15:34:04Z</time>
    </trkpt>
    <trkpt lat="38.625897998" lon="34.904586961">
      <ele>1086.798</ele>
      <time>2021-10-12T15:34:06Z</time>
    </trkpt>
    <trkpt lat="38.625877965" lon="34.904617975">
      <ele>1086.373</ele>
      <time>2021-10-12T15:34:07Z</time>
    </trkpt>
    <trkpt lat="38.625858016" lon="34.904649993">
      <ele>1085.895</ele>
      <time>2021-10-12T15:34:08Z</time>
    </trkpt>
    <trkpt lat="38.625836978" lon="34.904683018">
      <ele>1085.342</ele>
      <time>2021-10-12T15:34:09Z</time>
    </trkpt>
    <trkpt lat="38.625818035" lon="34.904714031">
      <ele>1085.116</ele>
      <time>2021-10-12T15:34:10Z</time>
    </trkpt>
    <trkpt lat="38.625801019" lon="34.904748984">
      <ele>1085.094</ele>
      <time>2021-10-12T15:34:11Z</time>
    </trkpt>
    <trkpt lat="38.625788027" lon="34.90478402">
      <ele>1085.091</ele>
      <time>2021-10-12T15:34:13Z</time>
    </trkpt>
    <trkpt lat="38.625776963" lon="34.904820984">
      <ele>1085.059</ele>
      <time>2021-10-12T15:34:14Z</time>
    </trkpt>
    <trkpt lat="38.625762966" lon="34.90485996">
      <ele>1085.002</ele>
      <time>2021-10-12T15:34:15Z</time>
    </trkpt>
    <trkpt lat="38.625749974" lon="34.904900026">
      <ele>1084.916</ele>
      <time>2021-10-12T15:34:16Z</time>
    </trkpt>
    <trkpt lat="38.62573497" lon="34.904935984">
      <ele>1084.809</ele>
      <time>2021-10-12T15:34:17Z</time>
    </trkpt>
    <trkpt lat="38.625721978" lon="34.904970014">
      <ele>1084.686</ele>
      <time>2021-10-12T15:34:18Z</time>
    </trkpt>
    <trkpt lat="38.625706974" lon="34.90500899">
      <ele>1084.527</ele>
      <time>2021-10-12T15:34:20Z</time>
    </trkpt>
    <trkpt lat="38.625691971" lon="34.905044027">
      <ele>1084.413</ele>
      <time>2021-10-12T15:34:21Z</time>
    </trkpt>
    <trkpt lat="38.625679985" lon="34.905075962">
      <ele>1084.325</ele>
      <time>2021-10-12T15:34:22Z</time>
    </trkpt>
    <trkpt lat="38.62567001" lon="34.905107981">
      <ele>1084.252</ele>
      <time>2021-10-12T15:34:23Z</time>
    </trkpt>
    <trkpt lat="38.625661964" lon="34.905138994">
      <ele>1084.191</ele>
      <time>2021-10-12T15:34:24Z</time>
    </trkpt>
    <trkpt lat="38.62564696" lon="34.905170007">
      <ele>1084.128</ele>
      <time>2021-10-12T15:34:25Z</time>
    </trkpt>
    <trkpt lat="38.625633968" lon="34.905204037">
      <ele>1084.075</ele>
      <time>2021-10-12T15:34:26Z</time>
    </trkpt>
    <trkpt lat="38.625622988" lon="34.90523899">
      <ele>1084.034</ele>
      <time>2021-10-12T15:34:27Z</time>
    </trkpt>
    <trkpt lat="38.625617959" lon="34.905277966">
      <ele>1084.0</ele>
      <time>2021-10-12T15:34:28Z</time>
    </trkpt>
    <trkpt lat="38.625612007" lon="34.905319037">
      <ele>1084.03</ele>
      <time>2021-10-12T15:34:29Z</time>
    </trkpt>
    <trkpt lat="38.625604967" lon="34.905359019">
      <ele>1084.052</ele>
      <time>2021-10-12T15:34:31Z</time>
    </trkpt>
    <trkpt lat="38.625595998" lon="34.905400006">
      <ele>1084.064</ele>
      <time>2021-10-12T15:34:32Z</time>
    </trkpt>
    <trkpt lat="38.625586024" lon="34.905437976">
      <ele>1084.063</ele>
      <time>2021-10-12T15:34:33Z</time>
    </trkpt>
    <trkpt lat="38.625574959" lon="34.905478042">
      <ele>1084.05</ele>
      <time>2021-10-12T15:34:34Z</time>
    </trkpt>
    <trkpt lat="38.625555011" lon="34.905516012">
      <ele>1084.002</ele>
      <time>2021-10-12T15:34:36Z</time>
    </trkpt>
    <trkpt lat="38.625529027" lon="34.905544007">
      <ele>1084.099</ele>
      <time>2021-10-12T15:34:37Z</time>
    </trkpt>
    <trkpt lat="38.625505976" lon="34.905570997">
      <ele>1084.214</ele>
      <time>2021-10-12T15:34:38Z</time>
    </trkpt>
    <trkpt lat="38.62540901" lon="34.905557146">
      <ele>1084.527</ele>
      <time>2021-10-12T15:34:42Z</time>
    </trkpt>
    <trkpt lat="38.625349394" lon="34.905558914">
      <ele>1084.736</ele>
      <time>2021-10-12T15:34:44Z</time>
    </trkpt>
    <trkpt lat="38.625278822" lon="34.905622145">
      <ele>1084.758</ele>
      <time>2021-10-12T15:34:47Z</time>
    </trkpt>
    <trkpt lat="38.62523822" lon="34.905710582">
      <ele>1085.217</ele>
      <time>2021-10-12T15:34:50Z</time>
    </trkpt>
    <trkpt lat="38.625195008" lon="34.90584299">
      <ele>1085.459</ele>
      <time>2021-10-12T15:34:54Z</time>
    </trkpt>
    <trkpt lat="38.625174975" lon="34.905895963">
      <ele>1085.6</ele>
      <time>2021-10-12T15:34:56Z</time>
    </trkpt>
    <trkpt lat="38.625168018" lon="34.905924965">
      <ele>1085.585</ele>
      <time>2021-10-12T15:34:57Z</time>
    </trkpt>
    <trkpt lat="38.625156032" lon="34.905957989">
      <ele>1085.601</ele>
      <time>2021-10-12T15:34:58Z</time>
    </trkpt>
    <trkpt lat="38.625138011" lon="34.905995959">
      <ele>1085.632</ele>
      <time>2021-10-12T15:34:59Z</time>
    </trkpt>
    <trkpt lat="38.625117978" lon="34.906037031">
      <ele>1085.611</ele>
      <time>2021-10-12T15:35:01Z</time>
    </trkpt>
    <trkpt lat="38.625106998" lon="34.906077012">
      <ele>1085.456</ele>
      <time>2021-10-12T15:35:02Z</time>
    </trkpt>
    <trkpt lat="38.625090988" lon="34.906114982">
      <ele>1085.322</ele>
      <time>2021-10-12T15:35:03Z</time>
    </trkpt>
    <trkpt lat="38.625076991" lon="34.90615203">
      <ele>1085.192</ele>
      <time>2021-10-12T15:35:04Z</time>
    </trkpt>
    <trkpt lat="38.625062993" lon="34.90619">
      <ele>1085.043</ele>
      <time>2021-10-12T15:35:05Z</time>
    </trkpt>
    <trkpt lat="38.625023011" lon="34.906299971">
      <ele>1084.531</ele>
      <time>2021-10-12T15:35:09Z</time>
    </trkpt>
    <trkpt lat="38.625008008" lon="34.906339031">
      <ele>1084.325</ele>
      <time>2021-10-12T15:35:10Z</time>
    </trkpt>
    <trkpt lat="38.624990992" lon="34.906381024">
      <ele>1084.252</ele>
      <time>2021-10-12T15:35:12Z</time>
    </trkpt>
    <trkpt lat="38.624978" lon="34.906416982">
      <ele>1084.273</ele>
      <time>2021-10-12T15:35:13Z</time>
    </trkpt>
    <trkpt lat="38.62496702" lon="34.906456964">
      <ele>1084.222</ele>
      <time>2021-10-12T15:35:14Z</time>
    </trkpt>
    <trkpt lat="38.624951011" lon="34.906499041">
      <ele>1084.265</ele>
      <time>2021-10-12T15:35:15Z</time>
    </trkpt>
    <trkpt lat="38.624935001" lon="34.906535">
      <ele>1084.352</ele>
      <time>2021-10-12T15:35:17Z</time>
    </trkpt>
    <trkpt lat="38.624915974" lon="34.906568024">
      <ele>1084.525</ele>
      <time>2021-10-12T15:35:18Z</time>
    </trkpt>
    <trkpt lat="38.624901976" lon="34.906599959">
      <ele>1084.598</ele>
      <time>2021-10-12T15:35:19Z</time>
    </trkpt>
    <trkpt lat="38.624887979" lon="34.906641031">
      <ele>1084.604</ele>
      <time>2021-10-12T15:35:20Z</time>
    </trkpt>
    <trkpt lat="38.624874987" lon="34.906680007">
      <ele>1084.539</ele>
      <time>2021-10-12T15:35:21Z</time>
    </trkpt>
    <trkpt lat="38.624864006" lon="34.906714037">
      <ele>1084.346</ele>
      <time>2021-10-12T15:35:22Z</time>
    </trkpt>
    <trkpt lat="38.624853026" lon="34.906752007">
      <ele>1084.073</ele>
      <time>2021-10-12T15:35:24Z</time>
    </trkpt>
    <trkpt lat="38.62484104" lon="34.906789977">
      <ele>1083.784</ele>
      <time>2021-10-12T15:35:25Z</time>
    </trkpt>
    <trkpt lat="38.624826036" lon="34.906829037">
      <ele>1083.49</ele>
      <time>2021-10-12T15:35:26Z</time>
    </trkpt>
    <trkpt lat="38.624812039" lon="34.906869018">
      <ele>1083.124</ele>
      <time>2021-10-12T15:35:27Z</time>
    </trkpt>
    <trkpt lat="38.624798041" lon="34.906906988">
      <ele>1082.745</ele>
      <time>2021-10-12T15:35:28Z</time>
    </trkpt>
    <trkpt lat="38.624786977" lon="34.906951999">
      <ele>1082.211</ele>
      <time>2021-10-12T15:35:30Z</time>
    </trkpt>
    <trkpt lat="38.624772979" lon="34.906993993">
      <ele>1081.836</ele>
      <time>2021-10-12T15:35:31Z</time>
    </trkpt>
    <trkpt lat="38.624761999" lon="34.907032968">
      <ele>1081.433</ele>
      <time>2021-10-12T15:35:32Z</time>
    </trkpt>
    <trkpt lat="38.624752024" lon="34.907073034">
      <ele>1080.975</ele>
      <time>2021-10-12T15:35:34Z</time>
    </trkpt>
    <trkpt lat="38.624740038" lon="34.907111004">
      <ele>1080.525</ele>
      <time>2021-10-12T15:35:35Z</time>
    </trkpt>
    <trkpt lat="38.624728974" lon="34.907151992">
      <ele>1079.993</ele>
      <time>2021-10-12T15:35:36Z</time>
    </trkpt>
    <trkpt lat="38.624716988" lon="34.907192979">
      <ele>1079.536</ele>
      <time>2021-10-12T15:35:37Z</time>
    </trkpt>
    <trkpt lat="38.624707013" lon="34.907230027">
      <ele>1079.299</ele>
      <time>2021-10-12T15:35:38Z</time>
    </trkpt>
    <trkpt lat="38.624693016" lon="34.90727202">
      <ele>1079.433</ele>
      <time>2021-10-12T15:35:40Z</time>
    </trkpt>
    <trkpt lat="38.624678012" lon="34.90731502">
      <ele>1079.568</ele>
      <time>2021-10-12T15:35:41Z</time>
    </trkpt>
    <trkpt lat="38.624666026" lon="34.907350978">
      <ele>1079.657</ele>
      <time>2021-10-12T15:35:42Z</time>
    </trkpt>
    <trkpt lat="38.624656973" lon="34.907389032">
      <ele>1079.668</ele>
      <time>2021-10-12T15:35:43Z</time>
    </trkpt>
    <trkpt lat="38.624648005" lon="34.907427002">
      <ele>1079.669</ele>
      <time>2021-10-12T15:35:45Z</time>
    </trkpt>
    <trkpt lat="38.62463803" lon="34.90746296">
      <ele>1079.689</ele>
      <time>2021-10-12T15:35:46Z</time>
    </trkpt>
    <trkpt lat="38.624627972" lon="34.907492967">
      <ele>1079.73</ele>
      <time>2021-10-12T15:35:47Z</time>
    </trkpt>
    <trkpt lat="38.624624033" lon="34.907524986">
      <ele>1079.767</ele>
      <time>2021-10-12T15:35:48Z</time>
    </trkpt>
    <trkpt lat="38.624620009" lon="34.907555999">
      <ele>1079.84</ele>
      <time>2021-10-12T15:35:48Z</time>
    </trkpt>
    <trkpt lat="38.62461498" lon="34.907593969">
      <ele>1079.93</ele>
      <time>2021-10-12T15:35:50Z</time>
    </trkpt>
    <trkpt lat="38.62461498" lon="34.907628">
      <ele>1079.93</ele>
      <time>2021-10-12T15:35:51Z</time>
    </trkpt>
    <trkpt lat="38.624611963" lon="34.907664964">
      <ele>1079.985</ele>
      <time>2021-10-12T15:35:52Z</time>
    </trkpt>
    <trkpt lat="38.624611963" lon="34.907706035">
      <ele>1079.985</ele>
      <time>2021-10-12T15:35:53Z</time>
    </trkpt>
    <trkpt lat="38.624606011" lon="34.90775004">
      <ele>1080.092</ele>
      <time>2021-10-12T15:35:54Z</time>
    </trkpt>
    <trkpt lat="38.624592014" lon="34.907795973">
      <ele>1080.248</ele>
      <time>2021-10-12T15:35:56Z</time>
    </trkpt>
    <trkpt lat="38.624581033" lon="34.90782598">
      <ele>1080.28</ele>
      <time>2021-10-12T15:35:57Z</time>
    </trkpt>
    <trkpt lat="38.624563012" lon="34.907862023">
      <ele>1080.389</ele>
      <time>2021-10-12T15:35:58Z</time>
    </trkpt>
    <trkpt lat="38.624548009" lon="34.907896975">
      <ele>1080.438</ele>
      <time>2021-10-12T15:35:59Z</time>
    </trkpt>
    <trkpt lat="38.624528982" lon="34.907932011">
      <ele>1080.537</ele>
      <time>2021-10-12T15:36:00Z</time>
    </trkpt>
    <trkpt lat="38.62451599" lon="34.90796403">
      <ele>1080.544</ele>
      <time>2021-10-12T15:36:01Z</time>
    </trkpt>
    <trkpt lat="38.624500986" lon="34.907996971">
      <ele>1080.565</ele>
      <time>2021-10-12T15:36:02Z</time>
    </trkpt>
    <trkpt lat="38.624485983" lon="34.908031002">
      <ele>1080.565</ele>
      <time>2021-10-12T15:36:03Z</time>
    </trkpt>
    <trkpt lat="38.624471985" lon="34.908066038">
      <ele>1080.532</ele>
      <time>2021-10-12T15:36:05Z</time>
    </trkpt>
    <trkpt lat="38.624453964" lon="34.908104008">
      <ele>1080.52</ele>
      <time>2021-10-12T15:36:06Z</time>
    </trkpt>
    <trkpt lat="38.624437032" lon="34.908138961">
      <ele>1080.453</ele>
      <time>2021-10-12T15:36:07Z</time>
    </trkpt>
    <trkpt lat="38.624420017" lon="34.908171985">
      <ele>1080.338</ele>
      <time>2021-10-12T15:36:08Z</time>
    </trkpt>
    <trkpt lat="38.624405013" lon="34.908201993">
      <ele>1080.23</ele>
      <time>2021-10-12T15:36:09Z</time>
    </trkpt>
    <trkpt lat="38.624387998" lon="34.908232">
      <ele>1080.136</ele>
      <time>2021-10-12T15:36:10Z</time>
    </trkpt>
    <trkpt lat="38.624371989" lon="34.908256978">
      <ele>1080.071</ele>
      <time>2021-10-12T15:36:11Z</time>
    </trkpt>
    <trkpt lat="38.624348016" lon="34.908283968">
      <ele>1080.05</ele>
      <time>2021-10-12T15:36:12Z</time>
    </trkpt>
    <trkpt lat="38.624327984" lon="34.908307018">
      <ele>1080.028</ele>
      <time>2021-10-12T15:36:13Z</time>
    </trkpt>
    <trkpt lat="38.624310968" lon="34.908325961">
      <ele>1080.014</ele>
      <time>2021-10-12T15:36:14Z</time>
    </trkpt>
    <trkpt lat="38.624294037" lon="34.908343982">
      <ele>1079.989</ele>
      <time>2021-10-12T15:36:15Z</time>
    </trkpt>
    <trkpt lat="38.624277022" lon="34.908366026">
      <ele>1079.923</ele>
      <time>2021-10-12T15:36:16Z</time>
    </trkpt>
    <trkpt lat="38.624253972" lon="34.908373989">
      <ele>1080.033</ele>
      <time>2021-10-12T15:36:17Z</time>
    </trkpt>
    <trkpt lat="38.624231005" lon="34.908371978">
      <ele>1080.226</ele>
      <time>2021-10-12T15:36:18Z</time>
    </trkpt>
    <trkpt lat="38.624210972" lon="34.908365021">
      <ele>1080.435</ele>
      <time>2021-10-12T15:36:19Z</time>
    </trkpt>
    <trkpt lat="38.624194041" lon="34.908353034">
      <ele>1080.654</ele>
      <time>2021-10-12T15:36:19Z</time>
    </trkpt>
    <trkpt lat="38.624177026" lon="34.908344988">
      <ele>1080.84</ele>
      <time>2021-10-12T15:36:20Z</time>
    </trkpt>
    <trkpt lat="38.624145007" lon="34.908339037">
      <ele>1081.194</ele>
      <time>2021-10-12T15:36:21Z</time>
    </trkpt>
    <trkpt lat="38.624111982" lon="34.908338031">
      <ele>1081.56</ele>
      <time>2021-10-12T15:36:22Z</time>
    </trkpt>
    <trkpt lat="38.624079963" lon="34.908335013">
      <ele>1081.926</ele>
      <time>2021-10-12T15:36:24Z</time>
    </trkpt>
    <trkpt lat="38.624052973" lon="34.908331996">
      <ele>1082.236</ele>
      <time>2021-10-12T15:36:25Z</time>
    </trkpt>
    <trkpt lat="38.624023972" lon="34.908325961">
      <ele>1082.581</ele>
      <time>2021-10-12T15:36:26Z</time>
    </trkpt>
    <trkpt lat="38.623997988" lon="34.90832001">
      <ele>1082.889</ele>
      <time>2021-10-12T15:36:27Z</time>
    </trkpt>
    <trkpt lat="38.623970998" lon="34.908321016">
      <ele>1083.171</ele>
      <time>2021-10-12T15:36:28Z</time>
    </trkpt>
    <trkpt lat="38.62394602" lon="34.908319004">
      <ele>1083.445</ele>
      <time>2021-10-12T15:36:29Z</time>
    </trkpt>
    <trkpt lat="38.623921964" lon="34.908315986">
      <ele>1083.713</ele>
      <time>2021-10-12T15:36:29Z</time>
    </trkpt>
    <trkpt lat="38.623909978" lon="34.90834197">
      <ele>1083.739</ele>
      <time>2021-10-12T15:36:30Z</time>
    </trkpt>
    <trkpt lat="38.623914002" lon="34.908394022">
      <ele>1083.491</ele>
      <time>2021-10-12T15:36:32Z</time>
    </trkpt>
    <trkpt lat="38.623916013" lon="34.908424029">
      <ele>1083.349</ele>
      <time>2021-10-12T15:36:33Z</time>
    </trkpt>
    <trkpt lat="38.623917019" lon="34.908454958">
      <ele>1083.214</ele>
      <time>2021-10-12T15:36:34Z</time>
    </trkpt>
    <trkpt lat="38.623912996" lon="34.908487983">
      <ele>1083.135</ele>
      <time>2021-10-12T15:36:35Z</time>
    </trkpt>
    <trkpt lat="38.623902015" lon="34.908522014">
      <ele>1083.147</ele>
      <time>2021-10-12T15:36:36Z</time>
    </trkpt>
    <trkpt lat="38.623892041" lon="34.908555038">
      <ele>1083.159</ele>
      <time>2021-10-12T15:36:37Z</time>
    </trkpt>
    <trkpt lat="38.623872008" lon="34.908586973">
      <ele>1083.208</ele>
      <time>2021-10-12T15:36:38Z</time>
    </trkpt>
    <trkpt lat="38.623844013" lon="34.908612035">
      <ele>1083.314</ele>
      <time>2021-10-12T15:36:39Z</time>
    </trkpt>
    <trkpt lat="38.623814005" lon="34.908635002">
      <ele>1083.304</ele>
      <time>2021-10-12T15:36:40Z</time>
    </trkpt>
    <trkpt lat="38.623785004" lon="34.90865998">
      <ele>1083.286</ele>
      <time>2021-10-12T15:36:42Z</time>
    </trkpt>
    <trkpt lat="38.623758014" lon="34.908687975">
      <ele>1083.243</ele>
      <time>2021-10-12T15:36:43Z</time>
    </trkpt>
    <trkpt lat="38.623729013" lon="34.908716977">
      <ele>1083.227</ele>
      <time>2021-10-12T15:36:44Z</time>
    </trkpt>
    <trkpt lat="38.623699006" lon="34.908739021">
      <ele>1083.301</ele>
      <time>2021-10-12T15:36:46Z</time>
    </trkpt>
    <trkpt lat="38.623667993" lon="34.908756958">
      <ele>1083.433</ele>
      <time>2021-10-12T15:36:47Z</time>
    </trkpt>
    <trkpt lat="38.623633962" lon="34.908768022">
      <ele>1083.659</ele>
      <time>2021-10-12T15:36:48Z</time>
    </trkpt>
    <trkpt lat="38.623602027" lon="34.908771962">
      <ele>1083.861</ele>
      <time>2021-10-12T15:36:49Z</time>
    </trkpt>
    <trkpt lat="38.623571014" lon="34.908780009">
      <ele>1083.872</ele>
      <time>2021-10-12T15:36:51Z</time>
    </trkpt>
    <trkpt lat="38.623544024" lon="34.908779003">
      <ele>1083.937</ele>
      <time>2021-10-12T15:36:52Z</time>
    </trkpt>
    <trkpt lat="38.623517035" lon="34.908779003">
      <ele>1083.996</ele>
      <time>2021-10-12T15:36:53Z</time>
    </trkpt>
    <trkpt lat="38.623489039" lon="34.908773974">
      <ele>1084.085</ele>
      <time>2021-10-12T15:36:54Z</time>
    </trkpt>
    <trkpt lat="38.623460038" lon="34.908770034">
      <ele>1084.167</ele>
      <time>2021-10-12T15:36:55Z</time>
    </trkpt>
    <trkpt lat="38.623434976" lon="34.908760982">
      <ele>1084.263</ele>
      <time>2021-10-12T15:36:56Z</time>
    </trkpt>
    <trkpt lat="38.623411004" lon="34.908750001">
      <ele>1084.36</ele>
      <time>2021-10-12T15:36:57Z</time>
    </trkpt>
    <trkpt lat="38.623386025" lon="34.908738015">
      <ele>1084.456</ele>
      <time>2021-10-12T15:36:58Z</time>
    </trkpt>
    <trkpt lat="38.623361969" lon="34.908724017">
      <ele>1084.552</ele>
      <time>2021-10-12T15:36:59Z</time>
    </trkpt>
    <trkpt lat="38.623337997" lon="34.908708008">
      <ele>1084.645</ele>
      <time>2021-10-12T15:37:00Z</time>
    </trkpt>
    <trkpt lat="38.623306984" lon="34.908691999">
      <ele>1084.614</ele>
      <time>2021-10-12T15:37:01Z</time>
    </trkpt>
    <trkpt lat="38.623275971" lon="34.908676995">
      <ele>1084.556</ele>
      <time>2021-10-12T15:37:02Z</time>
    </trkpt>
    <trkpt lat="38.623242024" lon="34.908655034">
      <ele>1084.513</ele>
      <time>2021-10-12T15:37:03Z</time>
    </trkpt>
    <trkpt lat="38.623217968" lon="34.908638019">
      <ele>1084.488</ele>
      <time>2021-10-12T15:37:04Z</time>
    </trkpt>
    <trkpt lat="38.623187961" lon="34.908619998">
      <ele>1084.445</ele>
      <time>2021-10-12T15:37:06Z</time>
    </trkpt>
    <trkpt lat="38.623163989" lon="34.908603989">
      <ele>1084.416</ele>
      <time>2021-10-12T15:37:07Z</time>
    </trkpt>
    <trkpt lat="38.623136999" lon="34.908586973">
      <ele>1084.38</ele>
      <time>2021-10-12T15:37:08Z</time>
    </trkpt>
    <trkpt lat="38.623111015" lon="34.908570042">
      <ele>1084.348</ele>
      <time>2021-10-12T15:37:09Z</time>
    </trkpt>
    <trkpt lat="38.623086037" lon="34.908550009">
      <ele>1084.33</ele>
      <time>2021-10-12T15:37:10Z</time>
    </trkpt>
    <trkpt lat="38.623058964" lon="34.908527965">
      <ele>1084.312</ele>
      <time>2021-10-12T15:37:11Z</time>
    </trkpt>
    <trkpt lat="38.623029962" lon="34.908510027">
      <ele>1084.272</ele>
      <time>2021-10-12T15:37:12Z</time>
    </trkpt>
    <trkpt lat="38.622926027" lon="34.908434004">
      <ele>1084.171</ele>
      <time>2021-10-12T15:37:17Z</time>
    </trkpt>
    <trkpt lat="38.622843968" lon="34.908367032">
      <ele>1084.117</ele>
      <time>2021-10-12T15:37:20Z</time>
    </trkpt>
    <trkpt lat="38.622764004" lon="34.908306012">
      <ele>1084.246</ele>
      <time>2021-10-12T15:37:24Z</time>
    </trkpt>
    <trkpt lat="38.622660991" lon="34.908230994">
      <ele>1085.157</ele>
      <time>2021-10-12T15:37:28Z</time>
    </trkpt>
    <trkpt lat="38.622635007" lon="34.908201993">
      <ele>1085.46</ele>
      <time>2021-10-12T15:37:29Z</time>
    </trkpt>
    <trkpt lat="38.622609023" lon="34.908181038">
      <ele>1085.704</ele>
      <time>2021-10-12T15:37:31Z</time>
    </trkpt>
    <trkpt lat="38.622582033" lon="34.90815497">
      <ele>1085.989</ele>
      <time>2021-10-12T15:37:32Z</time>
    </trkpt>
    <trkpt lat="38.622555966" lon="34.908132004">
      <ele>1086.248</ele>
      <time>2021-10-12T15:37:33Z</time>
    </trkpt>
    <trkpt lat="38.622530987" lon="34.908112977">
      <ele>1086.475</ele>
      <time>2021-10-12T15:37:34Z</time>
    </trkpt>
    <trkpt lat="38.622507015" lon="34.908092022">
      <ele>1086.712</ele>
      <time>2021-10-12T15:37:35Z</time>
    </trkpt>
    <trkpt lat="38.622482037" lon="34.908075007">
      <ele>1086.989</ele>
      <time>2021-10-12T15:37:36Z</time>
    </trkpt>
    <trkpt lat="38.622457981" lon="34.908062015">
      <ele>1087.256</ele>
      <time>2021-10-12T15:37:37Z</time>
    </trkpt>
    <trkpt lat="38.622431997" lon="34.90803997">
      <ele>1087.546</ele>
      <time>2021-10-12T15:37:38Z</time>
    </trkpt>
    <trkpt lat="38.622407019" lon="34.908021027">
      <ele>1087.794</ele>
      <time>2021-10-12T15:37:39Z</time>
    </trkpt>
    <trkpt lat="38.622381035" lon="34.908006024">
      <ele>1088.035</ele>
      <time>2021-10-12T15:37:40Z</time>
    </trkpt>
    <trkpt lat="38.62235304" lon="34.907981968">
      <ele>1088.323</ele>
      <time>2021-10-12T15:37:42Z</time>
    </trkpt>
    <trkpt lat="38.622325966" lon="34.907963024">
      <ele>1088.586</ele>
      <time>2021-10-12T15:37:43Z</time>
    </trkpt>
    <trkpt lat="38.622297971" lon="34.90794098">
      <ele>1088.867</ele>
      <time>2021-10-12T15:37:44Z</time>
    </trkpt>
    <trkpt lat="38.622270981" lon="34.907922037">
      <ele>1089.13</ele>
      <time>2021-10-12T15:37:45Z</time>
    </trkpt>
    <trkpt lat="38.622246003" lon="34.907905022">
      <ele>1089.371</ele>
      <time>2021-10-12T15:37:46Z</time>
    </trkpt>
    <trkpt lat="38.622222031" lon="34.907882977">
      <ele>1089.621</ele>
      <time>2021-10-12T15:37:47Z</time>
    </trkpt>
    <trkpt lat="38.622196969" lon="34.907860011">
      <ele>1089.677</ele>
      <time>2021-10-12T15:37:49Z</time>
    </trkpt>
    <trkpt lat="38.622176014" lon="34.907837966">
      <ele>1089.747</ele>
      <time>2021-10-12T15:37:50Z</time>
    </trkpt>
    <trkpt lat="38.622153969" lon="34.907812988">
      <ele>1089.842</ele>
      <time>2021-10-12T15:37:51Z</time>
    </trkpt>
    <trkpt lat="38.622129997" lon="34.90778801">
      <ele>1089.951</ele>
      <time>2021-10-12T15:37:52Z</time>
    </trkpt>
    <trkpt lat="38.622108037" lon="34.907762026">
      <ele>1090.033</ele>
      <time>2021-10-12T15:37:53Z</time>
    </trkpt>
    <trkpt lat="38.622085992" lon="34.907735037">
      <ele>1090.078</ele>
      <time>2021-10-12T15:37:54Z</time>
    </trkpt>
    <trkpt lat="38.622064032" lon="34.907708969">
      <ele>1090.107</ele>
      <time>2021-10-12T15:37:55Z</time>
    </trkpt>
    <trkpt lat="38.622043999" lon="34.907681979">
      <ele>1090.124</ele>
      <time>2021-10-12T15:37:56Z</time>
    </trkpt>
    <trkpt lat="38.62202296" lon="34.907660019">
      <ele>1090.12</ele>
      <time>2021-10-12T15:37:57Z</time>
    </trkpt>
    <trkpt lat="38.622002006" lon="34.907633029">
      <ele>1090.108</ele>
      <time>2021-10-12T15:37:58Z</time>
    </trkpt>
    <trkpt lat="38.621980967" lon="34.907605033">
      <ele>1090.082</ele>
      <time>2021-10-12T15:37:59Z</time>
    </trkpt>
    <trkpt lat="38.621960012" lon="34.907578966">
      <ele>1090.04</ele>
      <time>2021-10-12T15:38:01Z</time>
    </trkpt>
    <trkpt lat="38.621937968" lon="34.907557005">
      <ele>1090.0</ele>
      <time>2021-10-12T15:38:02Z</time>
    </trkpt>
    <trkpt lat="38.621916007" lon="34.907535966">
      <ele>1090.0</ele>
      <time>2021-10-12T15:38:03Z</time>
    </trkpt>
    <trkpt lat="38.621894969" lon="34.907517023">
      <ele>1090.0</ele>
      <time>2021-10-12T15:38:04Z</time>
    </trkpt>
    <trkpt lat="38.621872002" lon="34.907496991">
      <ele>1090.008</ele>
      <time>2021-10-12T15:38:05Z</time>
    </trkpt>
    <trkpt lat="38.62185197" lon="34.907477042">
      <ele>1090.055</ele>
      <time>2021-10-12T15:38:05Z</time>
    </trkpt>
    <trkpt lat="38.621833026" lon="34.907452986">
      <ele>1090.101</ele>
      <time>2021-10-12T15:38:06Z</time>
    </trkpt>
    <trkpt lat="38.621812994" lon="34.907432031">
      <ele>1090.129</ele>
      <time>2021-10-12T15:38:07Z</time>
    </trkpt>
    <trkpt lat="38.621791033" lon="34.907407975">
      <ele>1090.148</ele>
      <time>2021-10-12T15:38:09Z</time>
    </trkpt>
    <trkpt lat="38.621768989" lon="34.907384003">
      <ele>1090.154</ele>
      <time>2021-10-12T15:38:10Z</time>
    </trkpt>
    <trkpt lat="38.621744011" lon="34.907358019">
      <ele>1090.142</ele>
      <time>2021-10-12T15:38:11Z</time>
    </trkpt>
    <trkpt lat="38.621718027" lon="34.907330023">
      <ele>1090.113</ele>
      <time>2021-10-12T15:38:12Z</time>
    </trkpt>
    <trkpt lat="38.621691959" lon="34.907302028">
      <ele>1090.065</ele>
      <time>2021-10-12T15:38:13Z</time>
    </trkpt>
    <trkpt lat="38.621666981" lon="34.907273026">
      <ele>1090.001</ele>
      <time>2021-10-12T15:38:15Z</time>
    </trkpt>
    <trkpt lat="38.621643009" lon="34.907240001">
      <ele>1090.0</ele>
      <time>2021-10-12T15:38:16Z</time>
    </trkpt>
    <trkpt lat="38.621615013" lon="34.907214018">
      <ele>1090.0</ele>
      <time>2021-10-12T15:38:17Z</time>
    </trkpt>
    <trkpt lat="38.621587018" lon="34.907186022">
      <ele>1090.0</ele>
      <time>2021-10-12T15:38:18Z</time>
    </trkpt>
    <trkpt lat="38.621562961" lon="34.907157021">
      <ele>1090.0</ele>
      <time>2021-10-12T15:38:20Z</time>
    </trkpt>
    <trkpt lat="38.621542007" lon="34.907131037">
      <ele>1090.0</ele>
      <time>2021-10-12T15:38:21Z</time>
    </trkpt>
    <trkpt lat="38.621519962" lon="34.907104969">
      <ele>1090.0</ele>
      <time>2021-10-12T15:38:22Z</time>
    </trkpt>
    <trkpt lat="38.62149599" lon="34.907075968">
      <ele>1090.0</ele>
      <time>2021-10-12T15:38:23Z</time>
    </trkpt>
    <trkpt lat="38.621471012" lon="34.907048978">
      <ele>1090.0</ele>
      <time>2021-10-12T15:38:24Z</time>
    </trkpt>
    <trkpt lat="38.621448968" lon="34.907022994">
      <ele>1090.0</ele>
      <time>2021-10-12T15:38:25Z</time>
    </trkpt>
    <trkpt lat="38.621427007" lon="34.906988041">
      <ele>1090.0</ele>
      <time>2021-10-12T15:38:27Z</time>
    </trkpt>
    <trkpt lat="38.621405968" lon="34.906956023">
      <ele>1090.0</ele>
      <time>2021-10-12T15:38:28Z</time>
    </trkpt>
    <trkpt lat="38.621387025" lon="34.906926015">
      <ele>1089.993</ele>
      <time>2021-10-12T15:38:29Z</time>
    </trkpt>
    <trkpt lat="38.621369004" lon="34.906887962">
      <ele>1089.928</ele>
      <time>2021-10-12T15:38:30Z</time>
    </trkpt>
    <trkpt lat="38.621355006" lon="34.906852003">
      <ele>1089.878</ele>
      <time>2021-10-12T15:38:31Z</time>
    </trkpt>
    <trkpt lat="38.621340003" lon="34.906821996">
      <ele>1089.824</ele>
      <time>2021-10-12T15:38:33Z</time>
    </trkpt>
    <trkpt lat="38.621324999" lon="34.906795006">
      <ele>1089.77</ele>
      <time>2021-10-12T15:38:33Z</time>
    </trkpt>
    <trkpt lat="38.62130899" lon="34.906755025">
      <ele>1089.712</ele>
      <time>2021-10-12T15:38:35Z</time>
    </trkpt>
    <trkpt lat="38.621294992" lon="34.906714037">
      <ele>1089.662</ele>
      <time>2021-10-12T15:38:36Z</time>
    </trkpt>
    <trkpt lat="38.621279988" lon="34.906671038">
      <ele>1089.608</ele>
      <time>2021-10-12T15:38:37Z</time>
    </trkpt>
    <trkpt lat="38.621265991" lon="34.90663399">
      <ele>1089.558</ele>
      <time>2021-10-12T15:38:39Z</time>
    </trkpt>
    <trkpt lat="38.621249981" lon="34.906595014">
      <ele>1089.5</ele>
      <time>2021-10-12T15:38:40Z</time>
    </trkpt>
    <trkpt lat="38.62123196" lon="34.906553021">
      <ele>1089.435</ele>
      <time>2021-10-12T15:38:41Z</time>
    </trkpt>
    <trkpt lat="38.621213017" lon="34.906515973">
      <ele>1089.367</ele>
      <time>2021-10-12T15:38:43Z</time>
    </trkpt>
    <trkpt lat="38.62119399" lon="34.906478003">
      <ele>1089.298</ele>
      <time>2021-10-12T15:38:44Z</time>
    </trkpt>
    <trkpt lat="38.621171024" lon="34.906443972">
      <ele>1089.216</ele>
      <time>2021-10-12T15:38:45Z</time>
    </trkpt>
    <trkpt lat="38.621147973" lon="34.906410025">
      <ele>1089.133</ele>
      <time>2021-10-12T15:38:47Z</time>
    </trkpt>
    <trkpt lat="38.621125007" lon="34.906379012">
      <ele>1089.052</ele>
      <time>2021-10-12T15:38:48Z</time>
    </trkpt>
    <trkpt lat="38.621099023" lon="34.906349005">
      <ele>1088.913</ele>
      <time>2021-10-12T15:38:49Z</time>
    </trkpt>
    <trkpt lat="38.621072033" lon="34.906325033">
      <ele>1088.719</ele>
      <time>2021-10-12T15:38:50Z</time>
    </trkpt>
    <trkpt lat="38.621042026" lon="34.906299971">
      <ele>1088.503</ele>
      <time>2021-10-12T15:38:52Z</time>
    </trkpt>
    <trkpt lat="38.621013025" lon="34.906282034">
      <ele>1088.294</ele>
      <time>2021-10-12T15:38:53Z</time>
    </trkpt>
    <trkpt lat="38.62098" lon="34.906264013">
      <ele>1088.056</ele>
      <time>2021-10-12T15:38:54Z</time>
    </trkpt>
    <trkpt lat="38.620949993" lon="34.906241968">
      <ele>1087.84</ele>
      <time>2021-10-12T15:38:55Z</time>
    </trkpt>
    <trkpt lat="38.620925015" lon="34.906223025">
      <ele>1087.66</ele>
      <time>2021-10-12T15:38:56Z</time>
    </trkpt>
    <trkpt lat="38.620900037" lon="34.90619503">
      <ele>1087.48</ele>
      <time>2021-10-12T15:38:58Z</time>
    </trkpt>
    <trkpt lat="38.620875981" lon="34.90616804">
      <ele>1087.307</ele>
      <time>2021-10-12T15:38:59Z</time>
    </trkpt>
    <trkpt lat="38.620856032" lon="34.906140966">
      <ele>1087.163</ele>
      <time>2021-10-12T15:39:00Z</time>
    </trkpt>
    <trkpt lat="38.620835999" lon="34.906110037">
      <ele>1087.023</ele>
      <time>2021-10-12T15:39:01Z</time>
    </trkpt>
    <trkpt lat="38.620814038" lon="34.906081036">
      <ele>1087.108</ele>
      <time>2021-10-12T15:39:02Z</time>
    </trkpt>
    <trkpt lat="38.620790988" lon="34.906047005">
      <ele>1087.231</ele>
      <time>2021-10-12T15:39:04Z</time>
    </trkpt>
    <trkpt lat="38.620769028" lon="34.906018004">
      <ele>1087.335</ele>
      <time>2021-10-12T15:39:05Z</time>
    </trkpt>
    <trkpt lat="38.620746983" lon="34.905983973">
      <ele>1087.458</ele>
      <time>2021-10-12T15:39:06Z</time>
    </trkpt>
    <trkpt lat="38.620726028" lon="34.905952038">
      <ele>1087.573</ele>
      <time>2021-10-12T15:39:07Z</time>
    </trkpt>
    <trkpt lat="38.62070499" lon="34.905920019">
      <ele>1087.688</ele>
      <time>2021-10-12T15:39:08Z</time>
    </trkpt>
    <trkpt lat="38.620685041" lon="34.905889006">
      <ele>1087.8</ele>
      <time>2021-10-12T15:39:10Z</time>
    </trkpt>
    <trkpt lat="38.620664002" lon="34.905856987">
      <ele>1087.915</ele>
      <time>2021-10-12T15:39:11Z</time>
    </trkpt>
    <trkpt lat="38.620642042" lon="34.90582698">
      <ele>1088.0</ele>
      <time>2021-10-12T15:39:12Z</time>
    </trkpt>
    <trkpt lat="38.620618992" lon="34.905796973">
      <ele>1088.0</ele>
      <time>2021-10-12T15:39:13Z</time>
    </trkpt>
    <trkpt lat="38.620597031" lon="34.90576596">
      <ele>1088.0</ele>
      <time>2021-10-12T15:39:14Z</time>
    </trkpt>
    <trkpt lat="38.620572975" lon="34.905735031">
      <ele>1088.0</ele>
      <time>2021-10-12T15:39:16Z</time>
    </trkpt>
    <trkpt lat="38.620546991" lon="34.905704018">
      <ele>1088.0</ele>
      <time>2021-10-12T15:39:17Z</time>
    </trkpt>
    <trkpt lat="38.620521007" lon="34.905673005">
      <ele>1088.0</ele>
      <time>2021-10-12T15:39:18Z</time>
    </trkpt>
    <trkpt lat="38.620498041" lon="34.905646015">
      <ele>1088.0</ele>
      <time>2021-10-12T15:39:20Z</time>
    </trkpt>
    <trkpt lat="38.620470967" lon="34.905620031">
      <ele>1088.0</ele>
      <time>2021-10-12T15:39:21Z</time>
    </trkpt>
    <trkpt lat="38.620441966" lon="34.905598992">
      <ele>1088.0</ele>
      <time>2021-10-12T15:39:22Z</time>
    </trkpt>
    <trkpt lat="38.620414976" lon="34.905578038">
      <ele>1088.0</ele>
      <time>2021-10-12T15:39:23Z</time>
    </trkpt>
    <trkpt lat="38.620387986" lon="34.905549958">
      <ele>1088.0</ele>
      <time>2021-10-12T15:39:24Z</time>
    </trkpt>
    <trkpt lat="38.620366026" lon="34.905521963">
      <ele>1088.0</ele>
      <time>2021-10-12T15:39:26Z</time>
    </trkpt>
    <trkpt lat="38.62034197" lon="34.905492039">
      <ele>1088.0</ele>
      <time>2021-10-12T15:39:27Z</time>
    </trkpt>
    <trkpt lat="38.620324032" lon="34.905464966">
      <ele>1088.0</ele>
      <time>2021-10-12T15:39:28Z</time>
    </trkpt>
    <trkpt lat="38.620304" lon="34.905433031">
      <ele>1088.0</ele>
      <time>2021-10-12T15:39:29Z</time>
    </trkpt>
    <trkpt lat="38.620284973" lon="34.905402018">
      <ele>1088.0</ele>
      <time>2021-10-12T15:39:30Z</time>
    </trkpt>
    <trkpt lat="38.62026603" lon="34.905375028">
      <ele>1087.985</ele>
      <time>2021-10-12T15:39:31Z</time>
    </trkpt>
    <trkpt lat="38.620248009" lon="34.905347032">
      <ele>1087.973</ele>
      <time>2021-10-12T15:39:32Z</time>
    </trkpt>
    <trkpt lat="38.620231999" lon="34.905315014">
      <ele>1087.978</ele>
      <time>2021-10-12T15:39:33Z</time>
    </trkpt>
    <trkpt lat="38.620218001" lon="34.905285006">
      <ele>1087.994</ele>
      <time>2021-10-12T15:39:34Z</time>
    </trkpt>
    <trkpt lat="38.620204004" lon="34.905250976">
      <ele>1088.071</ele>
      <time>2021-10-12T15:39:36Z</time>
    </trkpt>
    <trkpt lat="38.620192017" lon="34.905219963">
      <ele>1088.144</ele>
      <time>2021-10-12T15:39:37Z</time>
    </trkpt>
    <trkpt lat="38.620181959" lon="34.905188028">
      <ele>1088.212</ele>
      <time>2021-10-12T15:39:38Z</time>
    </trkpt>
    <trkpt lat="38.620169973" lon="34.905152991">
      <ele>1088.275</ele>
      <time>2021-10-12T15:39:39Z</time>
    </trkpt>
    <trkpt lat="38.620154969" lon="34.905120973">
      <ele>1088.315</ele>
      <time>2021-10-12T15:39:40Z</time>
    </trkpt>
    <trkpt lat="38.620139966" lon="34.90508602">
      <ele>1088.348</ele>
      <time>2021-10-12T15:39:41Z</time>
    </trkpt>
    <trkpt lat="38.62012404" lon="34.905050984">
      <ele>1088.365</ele>
      <time>2021-10-12T15:39:42Z</time>
    </trkpt>
    <trkpt lat="38.620110964" lon="34.905017959">
      <ele>1088.374</ele>
      <time>2021-10-12T15:39:43Z</time>
    </trkpt>
    <trkpt lat="38.620097972" lon="34.904986024">
      <ele>1088.403</ele>
      <time>2021-10-12T15:39:44Z</time>
    </trkpt>
    <trkpt lat="38.620086992" lon="34.904961968">
      <ele>1088.45</ele>
      <time>2021-10-12T15:39:45Z</time>
    </trkpt>
    <trkpt lat="38.620075006" lon="34.904932966">
      <ele>1088.511</ele>
      <time>2021-10-12T15:39:46Z</time>
    </trkpt>
    <trkpt lat="38.620064026" lon="34.904904971">
      <ele>1088.573</ele>
      <time>2021-10-12T15:39:47Z</time>
    </trkpt>
    <trkpt lat="38.620053967" lon="34.904874964">
      <ele>1088.644</ele>
      <time>2021-10-12T15:39:48Z</time>
    </trkpt>
    <trkpt lat="38.620042987" lon="34.904842023">
      <ele>1088.723</ele>
      <time>2021-10-12T15:39:49Z</time>
    </trkpt>
    <trkpt lat="38.620032007" lon="34.904814027">
      <ele>1088.785</ele>
      <time>2021-10-12T15:39:50Z</time>
    </trkpt>
    <trkpt lat="38.620021027" lon="34.904791983">
      <ele>1088.825</ele>
      <time>2021-10-12T15:39:51Z</time>
    </trkpt>
    <trkpt lat="38.620009962" lon="34.904765999">
      <ele>1088.878</ele>
      <time>2021-10-12T15:39:51Z</time>
    </trkpt>
    <trkpt lat="38.619996971" lon="34.904742027">
      <ele>1088.929</ele>
      <time>2021-10-12T15:39:52Z</time>
    </trkpt>
    <trkpt lat="38.619983979" lon="34.904717971">
      <ele>1089.015</ele>
      <time>2021-10-12T15:39:53Z</time>
    </trkpt>
    <trkpt lat="38.619970987" lon="34.904695004">
      <ele>1089.098</ele>
      <time>2021-10-12T15:39:54Z</time>
    </trkpt>
    <trkpt lat="38.619957995" lon="34.904672038">
      <ele>1089.181</ele>
      <time>2021-10-12T15:39:55Z</time>
    </trkpt>
    <trkpt lat="38.619940979" lon="34.90464597">
      <ele>1089.275</ele>
      <time>2021-10-12T15:39:56Z</time>
    </trkpt>
    <trkpt lat="38.619925976" lon="34.904627027">
      <ele>1089.343</ele>
      <time>2021-10-12T15:39:56Z</time>
    </trkpt>
    <trkpt lat="38.619908039" lon="34.904602971">
      <ele>1089.429</ele>
      <time>2021-10-12T15:39:57Z</time>
    </trkpt>
    <trkpt lat="38.619889012" lon="34.904583022">
      <ele>1089.501</ele>
      <time>2021-10-12T15:39:58Z</time>
    </trkpt>
    <trkpt lat="38.619867973" lon="34.904561983">
      <ele>1089.577</ele>
      <time>2021-10-12T15:39:59Z</time>
    </trkpt>
    <trkpt lat="38.619846012" lon="34.904541029">
      <ele>1089.652</ele>
      <time>2021-10-12T15:40:00Z</time>
    </trkpt>
    <trkpt lat="38.619819023" lon="34.904516973">
      <ele>1089.739</ele>
      <time>2021-10-12T15:40:02Z</time>
    </trkpt>
    <trkpt lat="38.619795972" lon="34.904491995">
      <ele>1089.829</ele>
      <time>2021-10-12T15:40:03Z</time>
    </trkpt>
    <trkpt lat="38.619767977" lon="34.904467016">
      <ele>1089.919</ele>
      <time>2021-10-12T15:40:04Z</time>
    </trkpt>
    <trkpt lat="38.619670998" lon="34.904402979">
      <ele>1089.937</ele>
      <time>2021-10-12T15:40:08Z</time>
    </trkpt>
    <trkpt lat="38.619580977" lon="34.904352017">
      <ele>1089.655</ele>
      <time>2021-10-12T15:40:12Z</time>
    </trkpt>
    <trkpt lat="38.61949699" lon="34.904290996">
      <ele>1089.294</ele>
      <time>2021-10-12T15:40:15Z</time>
    </trkpt>
    <trkpt lat="38.619418032" lon="34.904224025">
      <ele>1088.81</ele>
      <time>2021-10-12T15:40:19Z</time>
    </trkpt>
    <trkpt lat="38.619393976" lon="34.904200975">
      <ele>1088.637</ele>
      <time>2021-10-12T15:40:20Z</time>
    </trkpt>
    <trkpt lat="38.619366987" lon="34.904175997">
      <ele>1088.442</ele>
      <time>2021-10-12T15:40:21Z</time>
    </trkpt>
    <trkpt lat="38.619339997" lon="34.904155964">
      <ele>1088.287</ele>
      <time>2021-10-12T15:40:22Z</time>
    </trkpt>
    <trkpt lat="38.619313007" lon="34.904131992">
      <ele>1088.178</ele>
      <time>2021-10-12T15:40:23Z</time>
    </trkpt>
    <trkpt lat="38.61925601" lon="34.904080024">
      <ele>1087.955</ele>
      <time>2021-10-12T15:40:26Z</time>
    </trkpt>
    <trkpt lat="38.619226003" lon="34.904060997">
      <ele>1087.808</ele>
      <time>2021-10-12T15:40:27Z</time>
    </trkpt>
    <trkpt lat="38.619197002" lon="34.904045993">
      <ele>1087.653</ele>
      <time>2021-10-12T15:40:28Z</time>
    </trkpt>
    <trkpt lat="38.619166994" lon="34.904027972">
      <ele>1087.502</ele>
      <time>2021-10-12T15:40:30Z</time>
    </trkpt>
    <trkpt lat="38.61913397" lon="34.904008023">
      <ele>1087.453</ele>
      <time>2021-10-12T15:40:31Z</time>
    </trkpt>
    <trkpt lat="38.619103963" lon="34.903984973">
      <ele>1087.428</ele>
      <time>2021-10-12T15:40:32Z</time>
    </trkpt>
    <trkpt lat="38.619071022" lon="34.903971981">
      <ele>1087.357</ele>
      <time>2021-10-12T15:40:34Z</time>
    </trkpt>
    <trkpt lat="38.619044032" lon="34.903958989">
      <ele>1087.306</ele>
      <time>2021-10-12T15:40:35Z</time>
    </trkpt>
    <trkpt lat="38.619014025" lon="34.903947003">
      <ele>1087.241</ele>
      <time>2021-10-12T15:40:36Z</time>
    </trkpt>
    <trkpt lat="38.618985023" lon="34.903933005">
      <ele>1087.187</ele>
      <time>2021-10-12T15:40:37Z</time>
    </trkpt>
    <trkpt lat="38.618956022" lon="34.903920013">
      <ele>1087.13</ele>
      <time>2021-10-12T15:40:38Z</time>
    </trkpt>
    <trkpt lat="38.618926015" lon="34.903902998">
      <ele>1087.083</ele>
      <time>2021-10-12T15:40:39Z</time>
    </trkpt>
    <trkpt lat="38.618897013" lon="34.903890006">
      <ele>1087.025</ele>
      <time>2021-10-12T15:40:40Z</time>
    </trkpt>
    <trkpt lat="38.618866" lon="34.903879026">
      <ele>1086.986</ele>
      <time>2021-10-12T15:40:42Z</time>
    </trkpt>
    <trkpt lat="38.61883197" lon="34.903869973">
      <ele>1086.917</ele>
      <time>2021-10-12T15:40:43Z</time>
    </trkpt>
    <trkpt lat="38.618798023" lon="34.903859999">
      <ele>1086.847</ele>
      <time>2021-10-12T15:40:44Z</time>
    </trkpt>
    <trkpt lat="38.618762987" lon="34.90385103">
      <ele>1086.758</ele>
      <time>2021-10-12T15:40:46Z</time>
    </trkpt>
    <trkpt lat="38.618728034" lon="34.903837033">
      <ele>1086.686</ele>
      <time>2021-10-12T15:40:47Z</time>
    </trkpt>
    <trkpt lat="38.618695009" lon="34.903822029">
      <ele>1086.615</ele>
      <time>2021-10-12T15:40:48Z</time>
    </trkpt>
    <trkpt lat="38.618665002" lon="34.90380099">
      <ele>1086.572</ele>
      <time>2021-10-12T15:40:49Z</time>
    </trkpt>
    <trkpt lat="38.618638013" lon="34.903778024">
      <ele>1086.535</ele>
      <time>2021-10-12T15:40:51Z</time>
    </trkpt>
    <trkpt lat="38.61861404" lon="34.903742988">
      <ele>1086.541</ele>
      <time>2021-10-12T15:40:52Z</time>
    </trkpt>
    <trkpt lat="38.618597025" lon="34.903709963">
      <ele>1086.525</ele>
      <time>2021-10-12T15:40:53Z</time>
    </trkpt>
    <trkpt lat="38.618577998" lon="34.903677022">
      <ele>1086.496</ele>
      <time>2021-10-12T15:40:54Z</time>
    </trkpt>
    <trkpt lat="38.618559977" lon="34.903647015">
      <ele>1086.479</ele>
      <time>2021-10-12T15:40:55Z</time>
    </trkpt>
    <trkpt lat="38.618522007" lon="34.903585995">
      <ele>1086.51</ele>
      <time>2021-10-12T15:40:58Z</time>
    </trkpt>
    <trkpt lat="38.61850298" lon="34.903550036">
      <ele>1086.576</ele>
      <time>2021-10-12T15:40:59Z</time>
    </trkpt>
    <trkpt lat="38.618486971" lon="34.903516006">
      <ele>1086.638</ele>
      <time>2021-10-12T15:41:00Z</time>
    </trkpt>
    <trkpt lat="38.618469033" lon="34.903481975">
      <ele>1086.669</ele>
      <time>2021-10-12T15:41:01Z</time>
    </trkpt>
    <trkpt lat="38.618452018" lon="34.903448028">
      <ele>1086.692</ele>
      <time>2021-10-12T15:41:03Z</time>
    </trkpt>
    <trkpt lat="38.618435003" lon="34.90341098">
      <ele>1086.716</ele>
      <time>2021-10-12T15:41:04Z</time>
    </trkpt>
    <trkpt lat="38.618413964" lon="34.903374016">
      <ele>1086.682</ele>
      <time>2021-10-12T15:41:05Z</time>
    </trkpt>
    <trkpt lat="38.618396027" lon="34.90333898">
      <ele>1086.652</ele>
      <time>2021-10-12T15:41:06Z</time>
    </trkpt>
    <trkpt lat="38.618375994" lon="34.903307967">
      <ele>1086.538</ele>
      <time>2021-10-12T15:41:07Z</time>
    </trkpt>
    <trkpt lat="38.618355962" lon="34.90327402">
      <ele>1086.441</ele>
      <time>2021-10-12T15:41:09Z</time>
    </trkpt>
    <trkpt lat="38.618336013" lon="34.903240995">
      <ele>1086.358</ele>
      <time>2021-10-12T15:41:10Z</time>
    </trkpt>
    <trkpt lat="38.618314974" lon="34.903205959">
      <ele>1086.291</ele>
      <time>2021-10-12T15:41:11Z</time>
    </trkpt>
    <trkpt lat="38.618296031" lon="34.903167989">
      <ele>1086.272</ele>
      <time>2021-10-12T15:41:12Z</time>
    </trkpt>
    <trkpt lat="38.618275998" lon="34.903132031">
      <ele>1086.255</ele>
      <time>2021-10-12T15:41:14Z</time>
    </trkpt>
    <trkpt lat="38.61825496" lon="34.903100012">
      <ele>1086.231</ele>
      <time>2021-10-12T15:41:15Z</time>
    </trkpt>
    <trkpt lat="38.618234005" lon="34.903070005">
      <ele>1086.214</ele>
      <time>2021-10-12T15:41:16Z</time>
    </trkpt>
    <trkpt lat="38.618211038" lon="34.903041003">
      <ele>1086.172</ele>
      <time>2021-10-12T15:41:17Z</time>
    </trkpt>
    <trkpt lat="38.618187988" lon="34.903005967">
      <ele>1086.132</ele>
      <time>2021-10-12T15:41:19Z</time>
    </trkpt>
    <trkpt lat="38.618164016" lon="34.902971014">
      <ele>1086.085</ele>
      <time>2021-10-12T15:41:20Z</time>
    </trkpt>
    <trkpt lat="38.618140966" lon="34.902932961">
      <ele>1086.056</ele>
      <time>2021-10-12T15:41:21Z</time>
    </trkpt>
    <trkpt lat="38.618116993" lon="34.902895996">
      <ele>1086.017</ele>
      <time>2021-10-12T15:41:23Z</time>
    </trkpt>
    <trkpt lat="38.618094027" lon="34.902860038">
      <ele>1085.981</ele>
      <time>2021-10-12T15:41:24Z</time>
    </trkpt>
    <trkpt lat="38.618071983" lon="34.902821984">
      <ele>1085.959</ele>
      <time>2021-10-12T15:41:26Z</time>
    </trkpt>
    <trkpt lat="38.618052034" lon="34.902784014">
      <ele>1085.94</ele>
      <time>2021-10-12T15:41:27Z</time>
    </trkpt>
    <trkpt lat="38.618033007" lon="34.902744032">
      <ele>1085.878</ele>
      <time>2021-10-12T15:41:28Z</time>
    </trkpt>
    <trkpt lat="38.618016997" lon="34.902702961">
      <ele>1085.853</ele>
      <time>2021-10-12T15:41:30Z</time>
    </trkpt>
    <trkpt lat="38.617999982" lon="34.902659962">
      <ele>1085.824</ele>
      <time>2021-10-12T15:41:31Z</time>
    </trkpt>
    <trkpt lat="38.617987996" lon="34.902616963">
      <ele>1085.849</ele>
      <time>2021-10-12T15:41:32Z</time>
    </trkpt>
    <trkpt lat="38.617973998" lon="34.902576981">
      <ele>1085.842</ele>
      <time>2021-10-12T15:41:34Z</time>
    </trkpt>
    <trkpt lat="38.617958995" lon="34.902535994">
      <ele>1085.828</ele>
      <time>2021-10-12T15:41:35Z</time>
    </trkpt>
    <trkpt lat="38.617944997" lon="34.902496012">
      <ele>1085.806</ele>
      <time>2021-10-12T15:41:36Z</time>
    </trkpt>
    <trkpt lat="38.617934017" lon="34.902458042">
      <ele>1085.687</ele>
      <time>2021-10-12T15:41:37Z</time>
    </trkpt>
    <trkpt lat="38.617923958" lon="34.902419988">
      <ele>1085.579</ele>
      <time>2021-10-12T15:41:38Z</time>
    </trkpt>
    <trkpt lat="38.617913984" lon="34.902383024">
      <ele>1085.471</ele>
      <time>2021-10-12T15:41:40Z</time>
    </trkpt>
    <trkpt lat="38.617903003" lon="34.902343964">
      <ele>1085.352</ele>
      <time>2021-10-12T15:41:41Z</time>
    </trkpt>
    <trkpt lat="38.617892023" lon="34.902305994">
      <ele>1085.234</ele>
      <time>2021-10-12T15:41:42Z</time>
    </trkpt>
    <trkpt lat="38.617878025" lon="34.902271042">
      <ele>1085.083</ele>
      <time>2021-10-12T15:41:43Z</time>
    </trkpt>
    <trkpt lat="38.617864028" lon="34.902233994">
      <ele>1084.931</ele>
      <time>2021-10-12T15:41:44Z</time>
    </trkpt>
    <trkpt lat="38.617848018" lon="34.902194012">
      <ele>1084.733</ele>
      <time>2021-10-12T15:41:46Z</time>
    </trkpt>
    <trkpt lat="38.617828991" lon="34.90215403">
      <ele>1084.508</ele>
      <time>2021-10-12T15:41:47Z</time>
    </trkpt>
    <trkpt lat="38.617808959" lon="34.902112959">
      <ele>1084.293</ele>
      <time>2021-10-12T15:41:48Z</time>
    </trkpt>
    <trkpt lat="38.61778901" lon="34.902073983">
      <ele>1084.1</ele>
      <time>2021-10-12T15:41:50Z</time>
    </trkpt>
    <trkpt lat="38.617765959" lon="34.902039031">
      <ele>1083.9</ele>
      <time>2021-10-12T15:41:51Z</time>
    </trkpt>
    <trkpt lat="38.617740981" lon="34.902008018">
      <ele>1083.705</ele>
      <time>2021-10-12T15:41:52Z</time>
    </trkpt>
    <trkpt lat="38.617718015" lon="34.901983039">
      <ele>1083.54</ele>
      <time>2021-10-12T15:41:53Z</time>
    </trkpt>
    <trkpt lat="38.617693959" lon="34.901959989">
      <ele>1083.38</ele>
      <time>2021-10-12T15:41:55Z</time>
    </trkpt>
    <trkpt lat="38.617666969" lon="34.901934005">
      <ele>1083.24</ele>
      <time>2021-10-12T15:41:56Z</time>
    </trkpt>
    <trkpt lat="38.617638974" lon="34.901909027">
      <ele>1083.128</ele>
      <time>2021-10-12T15:41:57Z</time>
    </trkpt>
    <trkpt lat="38.617610978" lon="34.901885977">
      <ele>1083.01</ele>
      <time>2021-10-12T15:41:58Z</time>
    </trkpt>
    <trkpt lat="38.617582982" lon="34.901866028">
      <ele>1082.88</ele>
      <time>2021-10-12T15:42:00Z</time>
    </trkpt>
    <trkpt lat="38.617551969" lon="34.901843984">
      <ele>1082.736</ele>
      <time>2021-10-12T15:42:01Z</time>
    </trkpt>
    <trkpt lat="38.617522968" lon="34.901823029">
      <ele>1082.602</ele>
      <time>2021-10-12T15:42:02Z</time>
    </trkpt>
    <trkpt lat="38.617492039" lon="34.901802996">
      <ele>1082.452</ele>
      <time>2021-10-12T15:42:03Z</time>
    </trkpt>
    <trkpt lat="38.617462032" lon="34.901782963">
      <ele>1082.308</ele>
      <time>2021-10-12T15:42:05Z</time>
    </trkpt>
    <trkpt lat="38.617434036" lon="34.901768966">
      <ele>1082.157</ele>
      <time>2021-10-12T15:42:06Z</time>
    </trkpt>
    <trkpt lat="38.617404029" lon="34.901754968">
      <ele>1081.991</ele>
      <time>2021-10-12T15:42:07Z</time>
    </trkpt>
    <trkpt lat="38.617375027" lon="34.901741976">
      <ele>1081.829</ele>
      <time>2021-10-12T15:42:08Z</time>
    </trkpt>
    <trkpt lat="38.61734896" lon="34.901730996">
      <ele>1081.681</ele>
      <time>2021-10-12T15:42:09Z</time>
    </trkpt>
    <trkpt lat="38.617319958" lon="34.901721021">
      <ele>1081.508</ele>
      <time>2021-10-12T15:42:10Z</time>
    </trkpt>
    <trkpt lat="38.617290035" lon="34.901714986">
      <ele>1081.314</ele>
      <time>2021-10-12T15:42:11Z</time>
    </trkpt>
    <trkpt lat="38.617258016" lon="34.901710963">
      <ele>1081.098</ele>
      <time>2021-10-12T15:42:12Z</time>
    </trkpt>
    <trkpt lat="38.617220968" lon="34.901708029">
      <ele>1080.843</ele>
      <time>2021-10-12T15:42:14Z</time>
    </trkpt>
    <trkpt lat="38.61718501" lon="34.901710041">
      <ele>1080.597</ele>
      <time>2021-10-12T15:42:15Z</time>
    </trkpt>
    <trkpt lat="38.617147962" lon="34.90171398">
      <ele>1080.341</ele>
      <time>2021-10-12T15:42:17Z</time>
    </trkpt>
    <trkpt lat="38.617110997" lon="34.901715992">
      <ele>1080.093</ele>
      <time>2021-10-12T15:42:18Z</time>
    </trkpt>
    <trkpt lat="38.617077973" lon="34.90171901">
      <ele>1079.871</ele>
      <time>2021-10-12T15:42:19Z</time>
    </trkpt>
    <trkpt lat="38.61704302" lon="34.901718004">
      <ele>1079.644</ele>
      <time>2021-10-12T15:42:20Z</time>
    </trkpt>
    <trkpt lat="38.617009996" lon="34.901724039">
      <ele>1079.423</ele>
      <time>2021-10-12T15:42:22Z</time>
    </trkpt>
    <trkpt lat="38.616972025" lon="34.901724039">
      <ele>1079.178</ele>
      <time>2021-10-12T15:42:23Z</time>
    </trkpt>
    <trkpt lat="38.616933972" lon="34.901721021">
      <ele>1079.045</ele>
      <time>2021-10-12T15:42:24Z</time>
    </trkpt>
    <trkpt lat="38.616896002" lon="34.901710041">
      <ele>1079.202</ele>
      <time>2021-10-12T15:42:26Z</time>
    </trkpt>
    <trkpt lat="38.616863983" lon="34.901695037">
      <ele>1079.319</ele>
      <time>2021-10-12T15:42:27Z</time>
    </trkpt>
    <trkpt lat="38.616831964" lon="34.901675005">
      <ele>1079.417</ele>
      <time>2021-10-12T15:42:29Z</time>
    </trkpt>
    <trkpt lat="38.616798017" lon="34.90165296">
      <ele>1079.6</ele>
      <time>2021-10-12T15:42:30Z</time>
    </trkpt>
    <trkpt lat="38.616767004" lon="34.901626976">
      <ele>1079.833</ele>
      <time>2021-10-12T15:42:31Z</time>
    </trkpt>
    <trkpt lat="38.616740014" lon="34.901603004">
      <ele>1080.026</ele>
      <time>2021-10-12T15:42:33Z</time>
    </trkpt>
    <trkpt lat="38.616715958" lon="34.90156604">
      <ele>1080.249</ele>
      <time>2021-10-12T15:42:34Z</time>
    </trkpt>
    <trkpt lat="38.616693998" lon="34.901533015">
      <ele>1080.43</ele>
      <time>2021-10-12T15:42:35Z</time>
    </trkpt>
    <trkpt lat="38.616672037" lon="34.901500996">
      <ele>1080.589</ele>
      <time>2021-10-12T15:42:36Z</time>
    </trkpt>
    <trkpt lat="38.616656028" lon="34.901463026">
      <ele>1080.83</ele>
      <time>2021-10-12T15:42:38Z</time>
    </trkpt>
    <trkpt lat="38.616644042" lon="34.901428996">
      <ele>1081.042</ele>
      <time>2021-10-12T15:42:39Z</time>
    </trkpt>
    <trkpt lat="38.616632978" lon="34.901392031">
      <ele>1081.234</ele>
      <time>2021-10-12T15:42:40Z</time>
    </trkpt>
    <trkpt lat="38.616575981" lon="34.901292035">
      <ele>1081.539</ele>
      <time>2021-10-12T15:42:43Z</time>
    </trkpt>
    <trkpt lat="38.616512027" lon="34.901222968">
      <ele>1081.781</ele>
      <time>2021-10-12T15:42:47Z</time>
    </trkpt>
    <trkpt lat="38.616473973" lon="34.901186004">
      <ele>1081.881</ele>
      <time>2021-10-12T15:42:48Z</time>
    </trkpt>
    <trkpt lat="38.616456036" lon="34.901169995">
      <ele>1081.919</ele>
      <time>2021-10-12T15:42:49Z</time>
    </trkpt>
    <trkpt lat="38.616436003" lon="34.901155997">
      <ele>1081.965</ele>
      <time>2021-10-12T15:42:50Z</time>
    </trkpt>
    <trkpt lat="38.616417982" lon="34.901139988">
      <ele>1081.988</ele>
      <time>2021-10-12T15:42:51Z</time>
    </trkpt>
    <trkpt lat="38.616401972" lon="34.901129007">
      <ele>1082.014</ele>
      <time>2021-10-12T15:42:51Z</time>
    </trkpt>
    <trkpt lat="38.616372971" lon="34.901112998">
      <ele>1082.351</ele>
      <time>2021-10-12T15:42:53Z</time>
    </trkpt>
    <trkpt lat="38.616356961" lon="34.901095983">
      <ele>1082.732</ele>
      <time>2021-10-12T15:42:53Z</time>
    </trkpt>
    <trkpt lat="38.616342042" lon="34.901063964">
      <ele>1083.124</ele>
      <time>2021-10-12T15:42:54Z</time>
    </trkpt>
    <trkpt lat="38.61632796" lon="34.901034962">
      <ele>1083.47</ele>
      <time>2021-10-12T15:42:55Z</time>
    </trkpt>
    <trkpt lat="38.616310023" lon="34.901002022">
      <ele>1083.873</ele>
      <time>2021-10-12T15:42:57Z</time>
    </trkpt>
    <trkpt lat="38.616293008" lon="34.900970003">
      <ele>1084.228</ele>
      <time>2021-10-12T15:42:58Z</time>
    </trkpt>
    <trkpt lat="38.616249003" lon="34.900843017">
      <ele>1085.015</ele>
      <time>2021-10-12T15:43:02Z</time>
    </trkpt>
    <trkpt lat="38.616215978" lon="34.900781997">
      <ele>1085.56</ele>
      <time>2021-10-12T15:43:04Z</time>
    </trkpt>
    <trkpt lat="38.616193011" lon="34.900764981">
      <ele>1085.893</ele>
      <time>2021-10-12T15:43:05Z</time>
    </trkpt>
    <trkpt lat="38.616165016" lon="34.900730029">
      <ele>1086.296</ele>
      <time>2021-10-12T15:43:06Z</time>
    </trkpt>
    <trkpt lat="38.616082035" lon="34.900655011">
      <ele>1087.95</ele>
      <time>2021-10-12T15:43:10Z</time>
    </trkpt>
    <trkpt lat="38.616068959" lon="34.900534982">
      <ele>1088.117</ele>
      <time>2021-10-12T15:43:14Z</time>
    </trkpt>
    <trkpt lat="38.616083963" lon="34.90048402">
      <ele>1087.474</ele>
      <time>2021-10-12T15:43:15Z</time>
    </trkpt>
    <trkpt lat="38.616083963" lon="34.900459042">
      <ele>1087.367</ele>
      <time>2021-10-12T15:43:16Z</time>
    </trkpt>
    <trkpt lat="38.616017997" lon="34.900382012">
      <ele>1088.638</ele>
      <time>2021-10-12T15:43:19Z</time>
    </trkpt>
    <trkpt lat="38.615986984" lon="34.900368014">
      <ele>1089.296</ele>
      <time>2021-10-12T15:43:21Z</time>
    </trkpt>
    <trkpt lat="38.615895035" lon="34.900338007">
      <ele>1091.221</ele>
      <time>2021-10-12T15:43:24Z</time>
    </trkpt>
    <trkpt lat="38.615867039" lon="34.900331972">
      <ele>1091.81</ele>
      <time>2021-10-12T15:43:25Z</time>
    </trkpt>
    <trkpt lat="38.615795961" lon="34.900333984">
      <ele>1093.98</ele>
      <time>2021-10-12T15:43:28Z</time>
    </trkpt>
    <trkpt lat="38.615771988" lon="34.900338007">
      <ele>1094.907</ele>
      <time>2021-10-12T15:43:29Z</time>
    </trkpt>
    <trkpt lat="38.615680961" lon="34.900344964">
      <ele>1098.344</ele>
      <time>2021-10-12T15:43:32Z</time>
    </trkpt>
    <trkpt lat="38.615584988" lon="34.900328033">
      <ele>1101.645</ele>
      <time>2021-10-12T15:43:36Z</time>
    </trkpt>
    <trkpt lat="38.615506031" lon="34.900269024">
      <ele>1103.521</ele>
      <time>2021-10-12T15:43:39Z</time>
    </trkpt>
    <trkpt lat="38.615455991" lon="34.900223007">
      <ele>1104.776</ele>
      <time>2021-10-12T15:43:41Z</time>
    </trkpt>
    <trkpt lat="38.615433024" lon="34.900200963">
      <ele>1105.384</ele>
      <time>2021-10-12T15:43:42Z</time>
    </trkpt>
    <trkpt lat="38.615413997" lon="34.900189983">
      <ele>1105.96</ele>
      <time>2021-10-12T15:43:43Z</time>
    </trkpt>
    <trkpt lat="38.615332022" lon="34.900269024">
      <ele>1109.199</ele>
      <time>2021-10-12T15:43:47Z</time>
    </trkpt>
    <trkpt lat="38.615293968" lon="34.900378995">
      <ele>1111.247</ele>
      <time>2021-10-12T15:43:50Z</time>
    </trkpt>
    <trkpt lat="38.615206964" lon="34.900416965">
      <ele>1113.021</ele>
      <time>2021-10-12T15:43:54Z</time>
    </trkpt>
    <trkpt lat="38.615117026" lon="34.900363991">
      <ele>1114.155</ele>
      <time>2021-10-12T15:43:57Z</time>
    </trkpt>
    <trkpt lat="38.615018958" lon="34.900362985">
      <ele>1115.701</ele>
      <time>2021-10-12T15:44:01Z</time>
    </trkpt>
    <trkpt lat="38.614995992" lon="34.900362985">
      <ele>1116.033</ele>
      <time>2021-10-12T15:44:02Z</time>
    </trkpt>
    <trkpt lat="38.614976965" lon="34.900364997">
      <ele>1116.192</ele>
      <time>2021-10-12T15:44:03Z</time>
    </trkpt>
    <trkpt lat="38.614957016" lon="34.900371032">
      <ele>1116.361</ele>
      <time>2021-10-12T15:44:03Z</time>
    </trkpt>
    <trkpt lat="38.614940001" lon="34.900377989">
      <ele>1116.51</ele>
      <time>2021-10-12T15:44:04Z</time>
    </trkpt>
    <trkpt lat="38.614920974" lon="34.900384024">
      <ele>1116.678</ele>
      <time>2021-10-12T15:44:05Z</time>
    </trkpt>
    <trkpt lat="38.614901025" lon="34.900390981">
      <ele>1116.858</ele>
      <time>2021-10-12T15:44:06Z</time>
    </trkpt>
    <trkpt lat="38.614880992" lon="34.900400033">
      <ele>1117.045</ele>
      <time>2021-10-12T15:44:06Z</time>
    </trkpt>
    <trkpt lat="38.614863977" lon="34.900411014">
      <ele>1117.214</ele>
      <time>2021-10-12T15:44:07Z</time>
    </trkpt>
    <trkpt lat="38.614846962" lon="34.900421994">
      <ele>1117.388</ele>
      <time>2021-10-12T15:44:08Z</time>
    </trkpt>
    <trkpt lat="38.614816032" lon="34.900440015">
      <ele>1117.711</ele>
      <time>2021-10-12T15:44:09Z</time>
    </trkpt>
    <trkpt lat="38.614789965" lon="34.90045703">
      <ele>1118.0</ele>
      <time>2021-10-12T15:44:10Z</time>
    </trkpt>
    <trkpt lat="38.614761969" lon="34.900477985">
      <ele>1118.331</ele>
      <time>2021-10-12T15:44:11Z</time>
    </trkpt>
    <trkpt lat="38.614748977" lon="34.900498018">
      <ele>1118.524</ele>
      <time>2021-10-12T15:44:12Z</time>
    </trkpt>
    <trkpt lat="38.61473104" lon="34.900516961">
      <ele>1118.77</ele>
      <time>2021-10-12T15:44:13Z</time>
    </trkpt>
    <trkpt lat="38.614701033" lon="34.900535988">
      <ele>1119.011</ele>
      <time>2021-10-12T15:44:14Z</time>
    </trkpt>
    <trkpt lat="38.614679994" lon="34.900542023">
      <ele>1119.111</ele>
      <time>2021-10-12T15:44:15Z</time>
    </trkpt>
    <trkpt lat="38.614658033" lon="34.900543028">
      <ele>1119.196</ele>
      <time>2021-10-12T15:44:16Z</time>
    </trkpt>
    <trkpt lat="38.614633977" lon="34.90054504">
      <ele>1119.292</ele>
      <time>2021-10-12T15:44:17Z</time>
    </trkpt>
    <trkpt lat="38.614610005" lon="34.900544034">
      <ele>1119.379</ele>
      <time>2021-10-12T15:44:18Z</time>
    </trkpt>
    <trkpt lat="38.614587961" lon="34.900543028">
      <ele>1119.46</ele>
      <time>2021-10-12T15:44:18Z</time>
    </trkpt>
    <trkpt lat="38.614564994" lon="34.900540011">
      <ele>1119.542</ele>
      <time>2021-10-12T15:44:19Z</time>
    </trkpt>
    <trkpt lat="38.61454404" lon="34.900541017">
      <ele>1119.623</ele>
      <time>2021-10-12T15:44:20Z</time>
    </trkpt>
    <trkpt lat="38.614523001" lon="34.900541017">
      <ele>1119.702</ele>
      <time>2021-10-12T15:44:21Z</time>
    </trkpt>
    <trkpt lat="38.614503974" lon="34.900542023">
      <ele>1119.775</ele>
      <time>2021-10-12T15:44:21Z</time>
    </trkpt>
    <trkpt lat="38.614478996" lon="34.900543028">
      <ele>1119.87</ele>
      <time>2021-10-12T15:44:22Z</time>
    </trkpt>
    <trkpt lat="38.614452006" lon="34.900542023">
      <ele>1119.971</ele>
      <time>2021-10-12T15:44:23Z</time>
    </trkpt>
    <trkpt lat="38.61442904" lon="34.900542023">
      <ele>1120.225</ele>
      <time>2021-10-12T15:44:24Z</time>
    </trkpt>
    <trkpt lat="38.614403978" lon="34.900541017">
      <ele>1120.59</ele>
      <time>2021-10-12T15:44:25Z</time>
    </trkpt>
    <trkpt lat="38.614376988" lon="34.900543028">
      <ele>1120.982</ele>
      <time>2021-10-12T15:44:26Z</time>
    </trkpt>
    <trkpt lat="38.61435201" lon="34.900543028">
      <ele>1121.346</ele>
      <time>2021-10-12T15:44:27Z</time>
    </trkpt>
    <trkpt lat="38.614327032" lon="34.900542023">
      <ele>1121.711</ele>
      <time>2021-10-12T15:44:28Z</time>
    </trkpt>
    <trkpt lat="38.614302976" lon="34.900541017">
      <ele>1122.064</ele>
      <time>2021-10-12T15:44:29Z</time>
    </trkpt>
    <trkpt lat="38.614279004" lon="34.900541017">
      <ele>1122.414</ele>
      <time>2021-10-12T15:44:30Z</time>
    </trkpt>
    <trkpt lat="38.614256037" lon="34.900541017">
      <ele>1122.749</ele>
      <time>2021-10-12T15:44:31Z</time>
    </trkpt>
    <trkpt lat="38.614232987" lon="34.90054504">
      <ele>1123.074</ele>
      <time>2021-10-12T15:44:31Z</time>
    </trkpt>
    <trkpt lat="38.614211027" lon="34.900540011">
      <ele>1123.408</ele>
      <time>2021-10-12T15:44:32Z</time>
    </trkpt>
    <trkpt lat="38.614192" lon="34.900534982">
      <ele>1123.703</ele>
      <time>2021-10-12T15:44:33Z</time>
    </trkpt>
    <trkpt lat="38.614170039" lon="34.900531964">
      <ele>1124.035</ele>
      <time>2021-10-12T15:44:34Z</time>
    </trkpt>
    <trkpt lat="38.614149" lon="34.900526013">
      <ele>1124.368</ele>
      <time>2021-10-12T15:44:35Z</time>
    </trkpt>
    <trkpt lat="38.614130979" lon="34.900525007">
      <ele>1124.638</ele>
      <time>2021-10-12T15:44:35Z</time>
    </trkpt>
    <trkpt lat="38.614096027" lon="34.900543028">
      <ele>1125.074</ele>
      <time>2021-10-12T15:44:37Z</time>
    </trkpt>
    <trkpt lat="38.614077" lon="34.900553003">
      <ele>1125.303</ele>
      <time>2021-10-12T15:44:37Z</time>
    </trkpt>
    <trkpt lat="38.614056967" lon="34.90055996">
      <ele>1125.542</ele>
      <time>2021-10-12T15:44:38Z</time>
    </trkpt>
    <trkpt lat="38.614037018" lon="34.900561972">
      <ele>1125.81</ele>
      <time>2021-10-12T15:44:39Z</time>
    </trkpt>
    <trkpt lat="38.614013968" lon="34.900560966">
      <ele>1126.149</ele>
      <time>2021-10-12T15:44:40Z</time>
    </trkpt>
    <trkpt lat="38.613986978" lon="34.900557026">
      <ele>1126.573</ele>
      <time>2021-10-12T15:44:41Z</time>
    </trkpt>
    <trkpt lat="38.613958983" lon="34.90054898">
      <ele>1127.032</ele>
      <time>2021-10-12T15:44:42Z</time>
    </trkpt>
    <trkpt lat="38.613932999" lon="34.900536994">
      <ele>1127.488</ele>
      <time>2021-10-12T15:44:43Z</time>
    </trkpt>
    <trkpt lat="38.613910032" lon="34.900530959">
      <ele>1127.866</ele>
      <time>2021-10-12T15:44:44Z</time>
    </trkpt>
    <trkpt lat="38.613883965" lon="34.900524002">
      <ele>1128.247</ele>
      <time>2021-10-12T15:44:45Z</time>
    </trkpt>
    <trkpt lat="38.613862004" lon="34.900516961">
      <ele>1128.388</ele>
      <time>2021-10-12T15:44:46Z</time>
    </trkpt>
    <trkpt lat="38.613839038" lon="34.900512015">
      <ele>1128.521</ele>
      <time>2021-10-12T15:44:46Z</time>
    </trkpt>
    <trkpt lat="38.61381297" lon="34.90051101">
      <ele>1128.638</ele>
      <time>2021-10-12T15:44:47Z</time>
    </trkpt>
    <trkpt lat="38.613786986" lon="34.900506986">
      <ele>1128.781</ele>
      <time>2021-10-12T15:44:48Z</time>
    </trkpt>
    <trkpt lat="38.613758991" lon="34.900502041">
      <ele>1128.943</ele>
      <time>2021-10-12T15:44:49Z</time>
    </trkpt>
    <trkpt lat="38.613736024" lon="34.900498018">
      <ele>1129.079</ele>
      <time>2021-10-12T15:44:50Z</time>
    </trkpt>
    <trkpt lat="38.613708029" lon="34.900491983">
      <ele>1129.258</ele>
      <time>2021-10-12T15:44:51Z</time>
    </trkpt>
    <trkpt lat="38.613677016" lon="34.900491983">
      <ele>1129.395</ele>
      <time>2021-10-12T15:44:52Z</time>
    </trkpt>
    <trkpt lat="38.613652959" lon="34.900492989">
      <ele>1129.491</ele>
      <time>2021-10-12T15:44:53Z</time>
    </trkpt>
    <trkpt lat="38.613624964" lon="34.900492989">
      <ele>1129.615</ele>
      <time>2021-10-12T15:44:54Z</time>
    </trkpt>
    <trkpt lat="38.613595963" lon="34.900493994">
      <ele>1129.653</ele>
      <time>2021-10-12T15:44:55Z</time>
    </trkpt>
    <trkpt lat="38.613574002" lon="34.900497012">
      <ele>1129.604</ele>
      <time>2021-10-12T15:44:56Z</time>
    </trkpt>
    <trkpt lat="38.613546006" lon="34.900499023">
      <ele>1129.563</ele>
      <time>2021-10-12T15:44:57Z</time>
    </trkpt>
    <trkpt lat="38.613519017" lon="34.900499023">
      <ele>1129.543</ele>
      <time>2021-10-12T15:44:58Z</time>
    </trkpt>
    <trkpt lat="38.613492027" lon="34.900500029">
      <ele>1129.514</ele>
      <time>2021-10-12T15:44:59Z</time>
    </trkpt>
    <trkpt lat="38.613465037" lon="34.900498018">
      <ele>1129.512</ele>
      <time>2021-10-12T15:45:00Z</time>
    </trkpt>
    <trkpt lat="38.613438969" lon="34.900497012">
      <ele>1129.502</ele>
      <time>2021-10-12T15:45:01Z</time>
    </trkpt>
    <trkpt lat="38.613412986" lon="34.900497012">
      <ele>1129.482</ele>
      <time>2021-10-12T15:45:02Z</time>
    </trkpt>
    <trkpt lat="38.613385996" lon="34.900495">
      <ele>1129.477</ele>
      <time>2021-10-12T15:45:03Z</time>
    </trkpt>
    <trkpt lat="38.613356994" lon="34.900491983">
      <ele>1129.477</ele>
      <time>2021-10-12T15:45:04Z</time>
    </trkpt>
    <trkpt lat="38.613330005" lon="34.90048402">
      <ele>1129.524</ele>
      <time>2021-10-12T15:45:05Z</time>
    </trkpt>
    <trkpt lat="38.613303015" lon="34.900472034">
      <ele>1129.678</ele>
      <time>2021-10-12T15:45:06Z</time>
    </trkpt>
    <trkpt lat="38.613278037" lon="34.90046097">
      <ele>1129.812</ele>
      <time>2021-10-12T15:45:07Z</time>
    </trkpt>
    <trkpt lat="38.613252975" lon="34.900444038">
      <ele>1129.976</ele>
      <time>2021-10-12T15:45:08Z</time>
    </trkpt>
    <trkpt lat="38.613230009" lon="34.900420988">
      <ele>1130.161</ele>
      <time>2021-10-12T15:45:10Z</time>
    </trkpt>
    <trkpt lat="38.613204025" lon="34.900399027">
      <ele>1130.33</ele>
      <time>2021-10-12T15:45:11Z</time>
    </trkpt>
    <trkpt lat="38.613178963" lon="34.900377989">
      <ele>1130.479</ele>
      <time>2021-10-12T15:45:12Z</time>
    </trkpt>
    <trkpt lat="38.613155996" lon="34.900358962">
      <ele>1130.602</ele>
      <time>2021-10-12T15:45:13Z</time>
    </trkpt>
    <trkpt lat="38.613131018" lon="34.900338007">
      <ele>1130.724</ele>
      <time>2021-10-12T15:45:14Z</time>
    </trkpt>
    <trkpt lat="38.61310998" lon="34.900315041">
      <ele>1130.84</ele>
      <time>2021-10-12T15:45:15Z</time>
    </trkpt>
    <trkpt lat="38.613090031" lon="34.90029199">
      <ele>1130.942</ele>
      <time>2021-10-12T15:45:16Z</time>
    </trkpt>
    <trkpt lat="38.613068992" lon="34.900268018">
      <ele>1131.07</ele>
      <time>2021-10-12T15:45:17Z</time>
    </trkpt>
    <trkpt lat="38.613049965" lon="34.900248991">
      <ele>1131.225</ele>
      <time>2021-10-12T15:45:18Z</time>
    </trkpt>
    <trkpt lat="38.613028005" lon="34.900232982">
      <ele>1131.406</ele>
      <time>2021-10-12T15:45:19Z</time>
    </trkpt>
    <trkpt lat="38.613002021" lon="34.90021999">
      <ele>1131.569</ele>
      <time>2021-10-12T15:45:20Z</time>
    </trkpt>
    <trkpt lat="38.612978971" lon="34.900205992">
      <ele>1131.721</ele>
      <time>2021-10-12T15:45:21Z</time>
    </trkpt>
    <trkpt lat="38.612956004" lon="34.900191994">
      <ele>1131.865</ele>
      <time>2021-10-12T15:45:22Z</time>
    </trkpt>
    <trkpt lat="38.612932032" lon="34.90018202">
      <ele>1131.981</ele>
      <time>2021-10-12T15:45:23Z</time>
    </trkpt>
    <trkpt lat="38.612907976" lon="34.900172967">
      <ele>1132.085</ele>
      <time>2021-10-12T15:45:24Z</time>
    </trkpt>
    <trkpt lat="38.612882998" lon="34.900159976">
      <ele>1132.206</ele>
      <time>2021-10-12T15:45:25Z</time>
    </trkpt>
    <trkpt lat="38.612861959" lon="34.900148995">
      <ele>1132.301</ele>
      <time>2021-10-12T15:45:25Z</time>
    </trkpt>
    <trkpt lat="38.612838993" lon="34.900136003">
      <ele>1132.402</ele>
      <time>2021-10-12T15:45:26Z</time>
    </trkpt>
    <trkpt lat="38.612816026" lon="34.900122005">
      <ele>1132.5</ele>
      <time>2021-10-12T15:45:27Z</time>
    </trkpt>
    <trkpt lat="38.612793982" lon="34.900108008">
      <ele>1132.588</ele>
      <time>2021-10-12T15:45:28Z</time>
    </trkpt>
    <trkpt lat="38.612769004" lon="34.90009401">
      <ele>1132.672</ele>
      <time>2021-10-12T15:45:29Z</time>
    </trkpt>
    <trkpt lat="38.612744026" lon="34.900087975">
      <ele>1132.722</ele>
      <time>2021-10-12T15:45:30Z</time>
    </trkpt>
    <trkpt lat="38.612717958" lon="34.900079006">
      <ele>1132.777</ele>
      <time>2021-10-12T15:45:31Z</time>
    </trkpt>
    <trkpt lat="38.612690968" lon="34.90007096">
      <ele>1132.824</ele>
      <time>2021-10-12T15:45:32Z</time>
    </trkpt>
    <trkpt lat="38.612666996" lon="34.900066014">
      <ele>1132.857</ele>
      <time>2021-10-12T15:45:33Z</time>
    </trkpt>
    <trkpt lat="38.612640006" lon="34.900056962">
      <ele>1132.897</ele>
      <time>2021-10-12T15:45:34Z</time>
    </trkpt>
    <trkpt lat="38.612615028" lon="34.900046987">
      <ele>1132.93</ele>
      <time>2021-10-12T15:45:35Z</time>
    </trkpt>
    <trkpt lat="38.612589967" lon="34.900035001">
      <ele>1132.959</ele>
      <time>2021-10-12T15:45:36Z</time>
    </trkpt>
    <trkpt lat="38.612561971" lon="34.900022009">
      <ele>1132.982</ele>
      <time>2021-10-12T15:45:37Z</time>
    </trkpt>
    <trkpt lat="38.612537999" lon="34.900004994">
      <ele>1132.998</ele>
      <time>2021-10-12T15:45:38Z</time>
    </trkpt>
    <trkpt lat="38.612513021" lon="34.899989991">
      <ele>1133.038</ele>
      <time>2021-10-12T15:45:39Z</time>
    </trkpt>
    <trkpt lat="38.612487959" lon="34.899975993">
      <ele>1133.126</ele>
      <time>2021-10-12T15:45:40Z</time>
    </trkpt>
    <trkpt lat="38.612459963" lon="34.89996803">
      <ele>1133.243</ele>
      <time>2021-10-12T15:45:41Z</time>
    </trkpt>
    <trkpt lat="38.612432973" lon="34.899956966">
      <ele>1133.359</ele>
      <time>2021-10-12T15:45:42Z</time>
    </trkpt>
    <trkpt lat="38.612407995" lon="34.89994104">
      <ele>1133.473</ele>
      <time>2021-10-12T15:45:43Z</time>
    </trkpt>
    <trkpt lat="38.612381006" lon="34.89992897">
      <ele>1133.575</ele>
      <time>2021-10-12T15:45:44Z</time>
    </trkpt>
    <trkpt lat="38.612355022" lon="34.899918996">
      <ele>1133.661</ele>
      <time>2021-10-12T15:45:45Z</time>
    </trkpt>
    <trkpt lat="38.61232996" lon="34.899912961">
      <ele>1133.734</ele>
      <time>2021-10-12T15:45:46Z</time>
    </trkpt>
    <trkpt lat="38.612301964" lon="34.899906004">
      <ele>1133.81</ele>
      <time>2021-10-12T15:45:47Z</time>
    </trkpt>
    <trkpt lat="38.61227598" lon="34.899898041">
      <ele>1133.878</ele>
      <time>2021-10-12T15:45:48Z</time>
    </trkpt>
    <trkpt lat="38.612248991" lon="34.899892006">
      <ele>1133.941</ele>
      <time>2021-10-12T15:45:49Z</time>
    </trkpt>
    <trkpt lat="38.612223007" lon="34.899884965">
      <ele>1133.998</ele>
      <time>2021-10-12T15:45:50Z</time>
    </trkpt>
    <trkpt lat="38.612196017" lon="34.899881026">
      <ele>1134.148</ele>
      <time>2021-10-12T15:45:51Z</time>
    </trkpt>
    <trkpt lat="38.612170033" lon="34.899873985">
      <ele>1134.291</ele>
      <time>2021-10-12T15:45:52Z</time>
    </trkpt>
    <trkpt lat="38.61214296" lon="34.899865016">
      <ele>1134.432</ele>
      <time>2021-10-12T15:45:53Z</time>
    </trkpt>
    <trkpt lat="38.612117982" lon="34.899858981">
      <ele>1134.56</ele>
      <time>2021-10-12T15:45:54Z</time>
    </trkpt>
    <trkpt lat="38.612093003" lon="34.899855964">
      <ele>1134.689</ele>
      <time>2021-10-12T15:45:55Z</time>
    </trkpt>
    <trkpt lat="38.61206702" lon="34.899854036">
      <ele>1134.824</ele>
      <time>2021-10-12T15:45:56Z</time>
    </trkpt>
    <trkpt lat="38.61204003" lon="34.899852024">
      <ele>1134.962</ele>
      <time>2021-10-12T15:45:57Z</time>
    </trkpt>
    <trkpt lat="38.612015974" lon="34.899848001">
      <ele>1135.079</ele>
      <time>2021-10-12T15:45:58Z</time>
    </trkpt>
    <trkpt lat="38.61198999" lon="34.899848001">
      <ele>1135.215</ele>
      <time>2021-10-12T15:45:59Z</time>
    </trkpt>
    <trkpt lat="38.611960988" lon="34.899848001">
      <ele>1135.366</ele>
      <time>2021-10-12T15:46:00Z</time>
    </trkpt>
    <trkpt lat="38.611931987" lon="34.899842972">
      <ele>1135.524</ele>
      <time>2021-10-12T15:46:01Z</time>
    </trkpt>
    <trkpt lat="38.611903992" lon="34.899839032">
      <ele>1135.712</ele>
      <time>2021-10-12T15:46:02Z</time>
    </trkpt>
    <trkpt lat="38.611878008" lon="34.89982998">
      <ele>1135.866</ele>
      <time>2021-10-12T15:46:03Z</time>
    </trkpt>
    <trkpt lat="38.611852024" lon="34.899819">
      <ele>1136.014</ele>
      <time>2021-10-12T15:46:04Z</time>
    </trkpt>
    <trkpt lat="38.611828974" lon="34.899810031">
      <ele>1136.148</ele>
      <time>2021-10-12T15:46:05Z</time>
    </trkpt>
    <trkpt lat="38.61180299" lon="34.899801984">
      <ele>1136.306</ele>
      <time>2021-10-12T15:46:06Z</time>
    </trkpt>
    <trkpt lat="38.611778012" lon="34.899793016">
      <ele>1136.453</ele>
      <time>2021-10-12T15:46:07Z</time>
    </trkpt>
    <trkpt lat="38.611754039" lon="34.899782035">
      <ele>1136.586</ele>
      <time>2021-10-12T15:46:08Z</time>
    </trkpt>
    <trkpt lat="38.611728977" lon="34.899770971">
      <ele>1136.727</ele>
      <time>2021-10-12T15:46:09Z</time>
    </trkpt>
    <trkpt lat="38.611703999" lon="34.899766026">
      <ele>1136.889</ele>
      <time>2021-10-12T15:46:10Z</time>
    </trkpt>
    <trkpt lat="38.611680027" lon="34.899755968">
      <ele>1137.025</ele>
      <time>2021-10-12T15:46:11Z</time>
    </trkpt>
    <trkpt lat="38.611653037" lon="34.899750017">
      <ele>1137.198</ele>
      <time>2021-10-12T15:46:12Z</time>
    </trkpt>
    <trkpt lat="38.611624036" lon="34.899744987">
      <ele>1137.389</ele>
      <time>2021-10-12T15:46:13Z</time>
    </trkpt>
    <trkpt lat="38.611593023" lon="34.899740964">
      <ele>1137.598</ele>
      <time>2021-10-12T15:46:14Z</time>
    </trkpt>
    <trkpt lat="38.611563016" lon="34.899736019">
      <ele>1137.796</ele>
      <time>2021-10-12T15:46:15Z</time>
    </trkpt>
    <trkpt lat="38.611533009" lon="34.899729984">
      <ele>1137.99</ele>
      <time>2021-10-12T15:46:16Z</time>
    </trkpt>
    <trkpt lat="38.611501995" lon="34.899722021">
      <ele>1138.185</ele>
      <time>2021-10-12T15:46:18Z</time>
    </trkpt>
    <trkpt lat="38.611469977" lon="34.899712969">
      <ele>1138.406</ele>
      <time>2021-10-12T15:46:19Z</time>
    </trkpt>
    <trkpt lat="38.611440975" lon="34.899705006">
      <ele>1138.613</ele>
      <time>2021-10-12T15:46:20Z</time>
    </trkpt>
    <trkpt lat="38.611413985" lon="34.899697965">
      <ele>1138.811</ele>
      <time>2021-10-12T15:46:21Z</time>
    </trkpt>
    <trkpt lat="38.611388002" lon="34.899692014">
      <ele>1139.006</ele>
      <time>2021-10-12T15:46:22Z</time>
    </trkpt>
    <trkpt lat="38.611362018" lon="34.899687991">
      <ele>1139.182</ele>
      <time>2021-10-12T15:46:23Z</time>
    </trkpt>
    <trkpt lat="38.611335028" lon="34.899685979">
      <ele>1139.362</ele>
      <time>2021-10-12T15:46:24Z</time>
    </trkpt>
    <trkpt lat="38.611305021" lon="34.899692014">
      <ele>1139.571</ele>
      <time>2021-10-12T15:46:25Z</time>
    </trkpt>
    <trkpt lat="38.611278031" lon="34.899696959">
      <ele>1139.762</ele>
      <time>2021-10-12T15:46:26Z</time>
    </trkpt>
    <trkpt lat="38.611255987" lon="34.899702994">
      <ele>1139.924</ele>
      <time>2021-10-12T15:46:27Z</time>
    </trkpt>
    <trkpt lat="38.611237966" lon="34.899710035">
      <ele>1140.063</ele>
      <time>2021-10-12T15:46:28Z</time>
    </trkpt>
    <trkpt lat="38.611219022" lon="34.899719004">
      <ele>1140.216</ele>
      <time>2021-10-12T15:46:28Z</time>
    </trkpt>
    <trkpt lat="38.611203013" lon="34.899728978">
      <ele>1140.363</ele>
      <time>2021-10-12T15:46:29Z</time>
    </trkpt>
    <trkpt lat="38.611179041" lon="34.89974197">
      <ele>1140.582</ele>
      <time>2021-10-12T15:46:30Z</time>
    </trkpt>
    <trkpt lat="38.611160014" lon="34.899753034">
      <ele>1140.759</ele>
      <time>2021-10-12T15:46:31Z</time>
    </trkpt>
    <trkpt lat="38.611141993" lon="34.899762003">
      <ele>1140.921</ele>
      <time>2021-10-12T15:46:31Z</time>
    </trkpt>
    <trkpt lat="38.611124977" lon="34.899770971">
      <ele>1141.076</ele>
      <time>2021-10-12T15:46:32Z</time>
    </trkpt>
    <trkpt lat="38.611107962" lon="34.899779018">
      <ele>1141.211</ele>
      <time>2021-10-12T15:46:33Z</time>
    </trkpt>
    <trkpt lat="38.611090025" lon="34.89978103">
      <ele>1141.255</ele>
      <time>2021-10-12T15:46:33Z</time>
    </trkpt>
    <trkpt lat="38.611069992" lon="34.89978103">
      <ele>1141.297</ele>
      <time>2021-10-12T15:46:34Z</time>
    </trkpt>
    <trkpt lat="38.61104602" lon="34.899778012">
      <ele>1141.341</ele>
      <time>2021-10-12T15:46:35Z</time>
    </trkpt>
    <trkpt lat="38.61102297" lon="34.899772983">
      <ele>1141.384</ele>
      <time>2021-10-12T15:46:36Z</time>
    </trkpt>
    <trkpt lat="38.611001009" lon="34.899768038">
      <ele>1141.431</ele>
      <time>2021-10-12T15:46:37Z</time>
    </trkpt>
    <trkpt lat="38.610976031" lon="34.899764014">
      <ele>1141.49</ele>
      <time>2021-10-12T15:46:38Z</time>
    </trkpt>
    <trkpt lat="38.610952981" lon="34.899760997">
      <ele>1141.55</ele>
      <time>2021-10-12T15:46:39Z</time>
    </trkpt>
    <trkpt lat="38.610925991" lon="34.899754962">
      <ele>1141.627</ele>
      <time>2021-10-12T15:46:40Z</time>
    </trkpt>
    <trkpt lat="38.610899001" lon="34.899748005">
      <ele>1141.715</ele>
      <time>2021-10-12T15:46:41Z</time>
    </trkpt>
    <trkpt lat="38.610873017" lon="34.89974197">
      <ele>1141.806</ele>
      <time>2021-10-12T15:46:42Z</time>
    </trkpt>
    <trkpt lat="38.610846028" lon="34.899734007">
      <ele>1141.916</ele>
      <time>2021-10-12T15:46:43Z</time>
    </trkpt>
    <trkpt lat="38.610818032" lon="34.899727972">
      <ele>1141.814</ele>
      <time>2021-10-12T15:46:44Z</time>
    </trkpt>
    <trkpt lat="38.610787019" lon="34.899725961">
      <ele>1141.486</ele>
      <time>2021-10-12T15:46:45Z</time>
    </trkpt>
    <trkpt lat="38.610755" lon="34.899722021">
      <ele>1141.154</ele>
      <time>2021-10-12T15:46:46Z</time>
    </trkpt>
    <trkpt lat="38.610722981" lon="34.899722021">
      <ele>1140.809</ele>
      <time>2021-10-12T15:46:47Z</time>
    </trkpt>
    <trkpt lat="38.610690963" lon="34.899725039">
      <ele>1140.452</ele>
      <time>2021-10-12T15:46:48Z</time>
    </trkpt>
    <trkpt lat="38.610658022" lon="34.89973099">
      <ele>1140.075</ele>
      <time>2021-10-12T15:46:50Z</time>
    </trkpt>
    <trkpt lat="38.610628014" lon="34.899739036">
      <ele>1139.722</ele>
      <time>2021-10-12T15:46:51Z</time>
    </trkpt>
    <trkpt lat="38.610600019" lon="34.899749011">
      <ele>1139.384</ele>
      <time>2021-10-12T15:46:52Z</time>
    </trkpt>
    <trkpt lat="38.610570012" lon="34.899758985">
      <ele>1139.024</ele>
      <time>2021-10-12T15:46:53Z</time>
    </trkpt>
    <trkpt lat="38.610538999" lon="34.899772983">
      <ele>1138.628</ele>
      <time>2021-10-12T15:46:54Z</time>
    </trkpt>
    <trkpt lat="38.610505974" lon="34.899783963">
      <ele>1138.203</ele>
      <time>2021-10-12T15:46:55Z</time>
    </trkpt>
    <trkpt lat="38.610472027" lon="34.899796033">
      <ele>1137.752</ele>
      <time>2021-10-12T15:46:57Z</time>
    </trkpt>
    <trkpt lat="38.610434979" lon="34.899809025">
      <ele>1137.25</ele>
      <time>2021-10-12T15:46:58Z</time>
    </trkpt>
    <trkpt lat="38.610397009" lon="34.899824029">
      <ele>1136.712</ele>
      <time>2021-10-12T15:47:00Z</time>
    </trkpt>
    <trkpt lat="38.610359961" lon="34.89984096">
      <ele>1136.159</ele>
      <time>2021-10-12T15:47:01Z</time>
    </trkpt>
    <trkpt lat="38.610324003" lon="34.899858981">
      <ele>1135.596</ele>
      <time>2021-10-12T15:47:03Z</time>
    </trkpt>
    <trkpt lat="38.610288966" lon="34.899874991">
      <ele>1135.043</ele>
      <time>2021-10-12T15:47:04Z</time>
    </trkpt>
    <trkpt lat="38.610253008" lon="34.899892006">
      <ele>1134.386</ele>
      <time>2021-10-12T15:47:05Z</time>
    </trkpt>
    <trkpt lat="38.610220989" lon="34.899910027">
      <ele>1133.764</ele>
      <time>2021-10-12T15:47:07Z</time>
    </trkpt>
    <trkpt lat="38.610189976" lon="34.89992897">
      <ele>1133.166</ele>
      <time>2021-10-12T15:47:08Z</time>
    </trkpt>
    <trkpt lat="38.610159969" lon="34.899949003">
      <ele>1132.593</ele>
      <time>2021-10-12T15:47:09Z</time>
    </trkpt>
    <trkpt lat="38.610131973" lon="34.899969036">
      <ele>1132.065</ele>
      <time>2021-10-12T15:47:10Z</time>
    </trkpt>
    <trkpt lat="38.61010599" lon="34.899993008">
      <ele>1131.561</ele>
      <time>2021-10-12T15:47:12Z</time>
    </trkpt>
    <trkpt lat="38.610081011" lon="34.900018992">
      <ele>1131.147</ele>
      <time>2021-10-12T15:47:13Z</time>
    </trkpt>
    <trkpt lat="38.610057961" lon="34.900041958">
      <ele>1130.803</ele>
      <time>2021-10-12T15:47:14Z</time>
    </trkpt>
    <trkpt lat="38.610034995" lon="34.900066014">
      <ele>1130.474</ele>
      <time>2021-10-12T15:47:15Z</time>
    </trkpt>
    <trkpt lat="38.610005993" lon="34.900088981">
      <ele>1130.079</ele>
      <time>2021-10-12T15:47:16Z</time>
    </trkpt>
    <trkpt lat="38.60997498" lon="34.900108008">
      <ele>1129.855</ele>
      <time>2021-10-12T15:47:17Z</time>
    </trkpt>
    <trkpt lat="38.609940028" lon="34.900113959">
      <ele>1129.657</ele>
      <time>2021-10-12T15:47:19Z</time>
    </trkpt>
    <trkpt lat="38.609903986" lon="34.900114965">
      <ele>1129.452</ele>
      <time>2021-10-12T15:47:20Z</time>
    </trkpt>
    <trkpt lat="38.609870961" lon="34.900112031">
      <ele>1129.258</ele>
      <time>2021-10-12T15:47:21Z</time>
    </trkpt>
    <trkpt lat="38.609836008" lon="34.900100967">
      <ele>1129.034</ele>
      <time>2021-10-12T15:47:23Z</time>
    </trkpt>
    <trkpt lat="38.60980399" lon="34.900089987">
      <ele>1128.817</ele>
      <time>2021-10-12T15:47:24Z</time>
    </trkpt>
    <trkpt lat="38.609772976" lon="34.900078001">
      <ele>1128.595</ele>
      <time>2021-10-12T15:47:25Z</time>
    </trkpt>
    <trkpt lat="38.60973903" lon="34.900068026">
      <ele>1128.351</ele>
      <time>2021-10-12T15:47:26Z</time>
    </trkpt>
    <trkpt lat="38.609708017" lon="34.900054028">
      <ele>1128.143</ele>
      <time>2021-10-12T15:47:28Z</time>
    </trkpt>
    <trkpt lat="38.609674992" lon="34.90004397">
      <ele>1127.988</ele>
      <time>2021-10-12T15:47:29Z</time>
    </trkpt>
    <trkpt lat="38.609640962" lon="34.900041036">
      <ele>1127.855</ele>
      <time>2021-10-12T15:47:30Z</time>
    </trkpt>
    <trkpt lat="38.609610032" lon="34.90005604">
      <ele>1127.798</ele>
      <time>2021-10-12T15:47:31Z</time>
    </trkpt>
    <trkpt lat="38.609577008" lon="34.90007096">
      <ele>1127.733</ele>
      <time>2021-10-12T15:47:33Z</time>
    </trkpt>
    <trkpt lat="38.609542977" lon="34.900088981">
      <ele>1127.675</ele>
      <time>2021-10-12T15:47:34Z</time>
    </trkpt>
    <trkpt lat="38.609510958" lon="34.900105996">
      <ele>1127.621</ele>
      <time>2021-10-12T15:47:35Z</time>
    </trkpt>
    <trkpt lat="38.609478017" lon="34.900116976">
      <ele>1127.542</ele>
      <time>2021-10-12T15:47:37Z</time>
    </trkpt>
    <trkpt lat="38.609443987" lon="34.900127035">
      <ele>1127.453</ele>
      <time>2021-10-12T15:47:38Z</time>
    </trkpt>
    <trkpt lat="38.609411968" lon="34.900136003">
      <ele>1127.199</ele>
      <time>2021-10-12T15:47:39Z</time>
    </trkpt>
    <trkpt lat="38.609381961" lon="34.900143966">
      <ele>1126.952</ele>
      <time>2021-10-12T15:47:40Z</time>
    </trkpt>
    <trkpt lat="38.609351031" lon="34.90015897">
      <ele>1126.707</ele>
      <time>2021-10-12T15:47:41Z</time>
    </trkpt>
    <trkpt lat="38.609315995" lon="34.900181014">
      <ele>1126.425</ele>
      <time>2021-10-12T15:47:43Z</time>
    </trkpt>
    <trkpt lat="38.609284982" lon="34.900206998">
      <ele>1126.169</ele>
      <time>2021-10-12T15:47:44Z</time>
    </trkpt>
    <trkpt lat="38.609258998" lon="34.900235999">
      <ele>1125.947</ele>
      <time>2021-10-12T15:47:45Z</time>
    </trkpt>
    <trkpt lat="38.609233014" lon="34.900259972">
      <ele>1125.701</ele>
      <time>2021-10-12T15:47:47Z</time>
    </trkpt>
    <trkpt lat="38.609205019" lon="34.900284028">
      <ele>1125.414</ele>
      <time>2021-10-12T15:47:48Z</time>
    </trkpt>
    <trkpt lat="38.609179035" lon="34.900308">
      <ele>1125.134</ele>
      <time>2021-10-12T15:47:49Z</time>
    </trkpt>
    <trkpt lat="38.609150033" lon="34.900332978">
      <ele>1124.892</ele>
      <time>2021-10-12T15:47:50Z</time>
    </trkpt>
    <trkpt lat="38.609118015" lon="34.900355022">
      <ele>1124.698</ele>
      <time>2021-10-12T15:47:52Z</time>
    </trkpt>
    <trkpt lat="38.609085996" lon="34.900370026">
      <ele>1124.516</ele>
      <time>2021-10-12T15:47:53Z</time>
    </trkpt>
    <trkpt lat="38.609052971" lon="34.900382012">
      <ele>1124.335</ele>
      <time>2021-10-12T15:47:54Z</time>
    </trkpt>
    <trkpt lat="38.609022042" lon="34.900388969">
      <ele>1124.167</ele>
      <time>2021-10-12T15:47:55Z</time>
    </trkpt>
    <trkpt lat="38.608990023" lon="34.900398022">
      <ele>1124.003</ele>
      <time>2021-10-12T15:47:57Z</time>
    </trkpt>
    <trkpt lat="38.608956998" lon="34.900407996">
      <ele>1123.844</ele>
      <time>2021-10-12T15:47:58Z</time>
    </trkpt>
    <trkpt lat="38.608924979" lon="34.900415037">
      <ele>1123.69</ele>
      <time>2021-10-12T15:47:59Z</time>
    </trkpt>
    <trkpt lat="38.608894972" lon="34.900425011">
      <ele>1123.562</ele>
      <time>2021-10-12T15:48:00Z</time>
    </trkpt>
    <trkpt lat="38.60886002" lon="34.900435992">
      <ele>1123.614</ele>
      <time>2021-10-12T15:48:02Z</time>
    </trkpt>
    <trkpt lat="38.608828001" lon="34.900447978">
      <ele>1123.698</ele>
      <time>2021-10-12T15:48:03Z</time>
    </trkpt>
    <trkpt lat="38.60879397" lon="34.90046097">
      <ele>1123.776</ele>
      <time>2021-10-12T15:48:04Z</time>
    </trkpt>
    <trkpt lat="38.608763041" lon="34.900472034">
      <ele>1123.836</ele>
      <time>2021-10-12T15:48:05Z</time>
    </trkpt>
    <trkpt lat="38.608734962" lon="34.900482008">
      <ele>1123.882</ele>
      <time>2021-10-12T15:48:06Z</time>
    </trkpt>
    <trkpt lat="38.608704032" lon="34.900491983">
      <ele>1123.923</ele>
      <time>2021-10-12T15:48:08Z</time>
    </trkpt>
    <trkpt lat="38.608673019" lon="34.90050598">
      <ele>1123.96</ele>
      <time>2021-10-12T15:48:09Z</time>
    </trkpt>
    <trkpt lat="38.608645024" lon="34.900520984">
      <ele>1123.985</ele>
      <time>2021-10-12T15:48:10Z</time>
    </trkpt>
    <trkpt lat="38.608614011" lon="34.900534982">
      <ele>1123.999</ele>
      <time>2021-10-12T15:48:11Z</time>
    </trkpt>
    <trkpt lat="38.608585009" lon="34.900550991">
      <ele>1123.908</ele>
      <time>2021-10-12T15:48:12Z</time>
    </trkpt>
    <trkpt lat="38.608555002" lon="34.900569012">
      <ele>1123.788</ele>
      <time>2021-10-12T15:48:14Z</time>
    </trkpt>
    <trkpt lat="38.608527007" lon="34.900586028">
      <ele>1123.664</ele>
      <time>2021-10-12T15:48:15Z</time>
    </trkpt>
    <trkpt lat="38.608501023" lon="34.900604971">
      <ele>1123.533</ele>
      <time>2021-10-12T15:48:16Z</time>
    </trkpt>
    <trkpt lat="38.608474033" lon="34.900628021">
      <ele>1123.378</ele>
      <time>2021-10-12T15:48:17Z</time>
    </trkpt>
    <trkpt lat="38.608446959" lon="34.900654005">
      <ele>1123.2</ele>
      <time>2021-10-12T15:48:18Z</time>
    </trkpt>
    <trkpt lat="38.608422987" lon="34.900677977">
      <ele>1123.024</ele>
      <time>2021-10-12T15:48:19Z</time>
    </trkpt>
    <trkpt lat="38.608398009" lon="34.900704967">
      <ele>1122.82</ele>
      <time>2021-10-12T15:48:21Z</time>
    </trkpt>
    <trkpt lat="38.608374037" lon="34.900734974">
      <ele>1122.595</ele>
      <time>2021-10-12T15:48:22Z</time>
    </trkpt>
    <trkpt lat="38.608349981" lon="34.900763975">
      <ele>1122.355</ele>
      <time>2021-10-12T15:48:23Z</time>
    </trkpt>
    <trkpt lat="38.608323997" lon="34.900789959">
      <ele>1122.094</ele>
      <time>2021-10-12T15:48:24Z</time>
    </trkpt>
    <trkpt lat="38.60830103" lon="34.900817033">
      <ele>1121.833</ele>
      <time>2021-10-12T15:48:25Z</time>
    </trkpt>
    <trkpt lat="38.608274963" lon="34.900845028">
      <ele>1121.538</ele>
      <time>2021-10-12T15:48:27Z</time>
    </trkpt>
    <trkpt lat="38.608248979" lon="34.900872018">
      <ele>1121.253</ele>
      <time>2021-10-12T15:48:28Z</time>
    </trkpt>
    <trkpt lat="38.608222995" lon="34.900896996">
      <ele>1120.976</ele>
      <time>2021-10-12T15:48:29Z</time>
    </trkpt>
    <trkpt lat="38.608197011" lon="34.900921974">
      <ele>1120.699</ele>
      <time>2021-10-12T15:48:30Z</time>
    </trkpt>
    <trkpt lat="38.608172033" lon="34.900948964">
      <ele>1120.422</ele>
      <time>2021-10-12T15:48:32Z</time>
    </trkpt>
    <trkpt lat="38.608147977" lon="34.90097302">
      <ele>1120.163</ele>
      <time>2021-10-12T15:48:33Z</time>
    </trkpt>
    <trkpt lat="38.608122999" lon="34.900996992">
      <ele>1119.896</ele>
      <time>2021-10-12T15:48:34Z</time>
    </trkpt>
    <trkpt lat="38.608099027" lon="34.901022976">
      <ele>1119.63</ele>
      <time>2021-10-12T15:48:35Z</time>
    </trkpt>
    <trkpt lat="38.608072037" lon="34.901048038">
      <ele>1119.346</ele>
      <time>2021-10-12T15:48:36Z</time>
    </trkpt>
    <trkpt lat="38.608044041" lon="34.90107201">
      <ele>1119.058</ele>
      <time>2021-10-12T15:48:38Z</time>
    </trkpt>
    <trkpt lat="38.608019985" lon="34.901097994">
      <ele>1118.791</ele>
      <time>2021-10-12T15:48:39Z</time>
    </trkpt>
    <trkpt lat="38.607995007" lon="34.901123978">
      <ele>1118.554</ele>
      <time>2021-10-12T15:48:40Z</time>
    </trkpt>
    <trkpt lat="38.607971035" lon="34.90114904">
      <ele>1118.35</ele>
      <time>2021-10-12T15:48:41Z</time>
    </trkpt>
    <trkpt lat="38.607943039" lon="34.901173012">
      <ele>1118.1</ele>
      <time>2021-10-12T15:48:42Z</time>
    </trkpt>
    <trkpt lat="38.607911021" lon="34.901195979">
      <ele>1117.8</ele>
      <time>2021-10-12T15:48:44Z</time>
    </trkpt>
    <trkpt lat="38.607883025" lon="34.901216011">
      <ele>1117.523</ele>
      <time>2021-10-12T15:48:45Z</time>
    </trkpt>
    <trkpt lat="38.607856035" lon="34.901239984">
      <ele>1117.23</ele>
      <time>2021-10-12T15:48:46Z</time>
    </trkpt>
    <trkpt lat="38.60782804" lon="34.901263034">
      <ele>1116.914</ele>
      <time>2021-10-12T15:48:47Z</time>
    </trkpt>
    <trkpt lat="38.607801972" lon="34.901286">
      <ele>1116.599</ele>
      <time>2021-10-12T15:48:48Z</time>
    </trkpt>
    <trkpt lat="38.607773976" lon="34.901307961">
      <ele>1116.278</ele>
      <time>2021-10-12T15:48:50Z</time>
    </trkpt>
    <trkpt lat="38.607746987" lon="34.901331011">
      <ele>1116.098</ele>
      <time>2021-10-12T15:48:51Z</time>
    </trkpt>
    <trkpt lat="38.607721003" lon="34.90135096">
      <ele>1115.932</ele>
      <time>2021-10-12T15:48:52Z</time>
    </trkpt>
    <trkpt lat="38.607692001" lon="34.901373005">
      <ele>1115.748</ele>
      <time>2021-10-12T15:48:53Z</time>
    </trkpt>
    <trkpt lat="38.607667023" lon="34.901393959">
      <ele>1115.612</ele>
      <time>2021-10-12T15:48:54Z</time>
    </trkpt>
    <trkpt lat="38.607644979" lon="34.90141198">
      <ele>1115.565</ele>
      <time>2021-10-12T15:48:55Z</time>
    </trkpt>
    <trkpt lat="38.607620001" lon="34.901435031">
      <ele>1115.504</ele>
      <time>2021-10-12T15:48:56Z</time>
    </trkpt>
    <trkpt lat="38.607595023" lon="34.901455985">
      <ele>1115.425</ele>
      <time>2021-10-12T15:48:58Z</time>
    </trkpt>
    <trkpt lat="38.607570967" lon="34.901479036">
      <ele>1115.338</ele>
      <time>2021-10-12T15:48:59Z</time>
    </trkpt>
    <trkpt lat="38.607544983" lon="34.901504014">
      <ele>1115.229</ele>
      <time>2021-10-12T15:49:00Z</time>
    </trkpt>
    <trkpt lat="38.607521011" lon="34.90152698">
      <ele>1115.113</ele>
      <time>2021-10-12T15:49:01Z</time>
    </trkpt>
    <trkpt lat="38.607497038" lon="34.901551958">
      <ele>1114.979</ele>
      <time>2021-10-12T15:49:02Z</time>
    </trkpt>
    <trkpt lat="38.607473988" lon="34.901579032">
      <ele>1114.813</ele>
      <time>2021-10-12T15:49:03Z</time>
    </trkpt>
    <trkpt lat="38.607454039" lon="34.901608033">
      <ele>1114.669</ele>
      <time>2021-10-12T15:49:04Z</time>
    </trkpt>
    <trkpt lat="38.607434006" lon="34.90164198">
      <ele>1114.525</ele>
      <time>2021-10-12T15:49:06Z</time>
    </trkpt>
    <trkpt lat="38.607412968" lon="34.90167601">
      <ele>1114.373</ele>
      <time>2021-10-12T15:49:07Z</time>
    </trkpt>
    <trkpt lat="38.607391007" lon="34.901711969">
      <ele>1114.215</ele>
      <time>2021-10-12T15:49:08Z</time>
    </trkpt>
    <trkpt lat="38.607369969" lon="34.901744993">
      <ele>1114.064</ele>
      <time>2021-10-12T15:49:09Z</time>
    </trkpt>
    <trkpt lat="38.60735002" lon="34.901777012">
      <ele>1113.92</ele>
      <time>2021-10-12T15:49:11Z</time>
    </trkpt>
    <trkpt lat="38.607329987" lon="34.901805008">
      <ele>1113.776</ele>
      <time>2021-10-12T15:49:12Z</time>
    </trkpt>
    <trkpt lat="38.607307021" lon="34.901830992">
      <ele>1113.611</ele>
      <time>2021-10-12T15:49:13Z</time>
    </trkpt>
    <trkpt lat="38.607285982" lon="34.901853036">
      <ele>1113.459</ele>
      <time>2021-10-12T15:49:14Z</time>
    </trkpt>
    <trkpt lat="38.607261004" lon="34.901876003">
      <ele>1113.279</ele>
      <time>2021-10-12T15:49:15Z</time>
    </trkpt>
    <trkpt lat="38.60723502" lon="34.901896035">
      <ele>1113.092</ele>
      <time>2021-10-12T15:49:16Z</time>
    </trkpt>
    <trkpt lat="38.607209036" lon="34.901913973">
      <ele>1112.947</ele>
      <time>2021-10-12T15:49:17Z</time>
    </trkpt>
    <trkpt lat="38.607181963" lon="34.901936017">
      <ele>1112.851</ele>
      <time>2021-10-12T15:49:18Z</time>
    </trkpt>
    <trkpt lat="38.607155979" lon="34.901958983">
      <ele>1112.814</ele>
      <time>2021-10-12T15:49:20Z</time>
    </trkpt>
    <trkpt lat="38.607132006" lon="34.901983039">
      <ele>1112.814</ele>
      <time>2021-10-12T15:49:21Z</time>
    </trkpt>
    <trkpt lat="38.607106023" lon="34.902006006">
      <ele>1112.803</ele>
      <time>2021-10-12T15:49:22Z</time>
    </trkpt>
    <trkpt lat="38.607078027" lon="34.902026039">
      <ele>1112.775</ele>
      <time>2021-10-12T15:49:23Z</time>
    </trkpt>
    <trkpt lat="38.60704802" lon="34.902040036">
      <ele>1112.717</ele>
      <time>2021-10-12T15:49:24Z</time>
    </trkpt>
    <trkpt lat="38.607014995" lon="34.902054034">
      <ele>1112.649</ele>
      <time>2021-10-12T15:49:26Z</time>
    </trkpt>
    <trkpt lat="38.606982976" lon="34.90206602">
      <ele>1112.576</ele>
      <time>2021-10-12T15:49:27Z</time>
    </trkpt>
    <trkpt lat="38.606952969" lon="34.902073983">
      <ele>1112.497</ele>
      <time>2021-10-12T15:49:28Z</time>
    </trkpt>
    <trkpt lat="38.606920028" lon="34.902079012">
      <ele>1112.399</ele>
      <time>2021-10-12T15:49:29Z</time>
    </trkpt>
    <trkpt lat="38.606884992" lon="34.902084963">
      <ele>1112.289</ele>
      <time>2021-10-12T15:49:30Z</time>
    </trkpt>
    <trkpt lat="38.606850039" lon="34.902087981">
      <ele>1112.165</ele>
      <time>2021-10-12T15:49:32Z</time>
    </trkpt>
    <trkpt lat="38.606816009" lon="34.902089993">
      <ele>1112.039</ele>
      <time>2021-10-12T15:49:33Z</time>
    </trkpt>
    <trkpt lat="38.606781978" lon="34.902092004">
      <ele>1111.91</ele>
      <time>2021-10-12T15:49:34Z</time>
    </trkpt>
    <trkpt lat="38.606750965" lon="34.902096028">
      <ele>1111.786</ele>
      <time>2021-10-12T15:49:35Z</time>
    </trkpt>
    <trkpt lat="38.60671903" lon="34.902104996">
      <ele>1111.64</ele>
      <time>2021-10-12T15:49:37Z</time>
    </trkpt>
    <trkpt lat="38.606686005" lon="34.902112037">
      <ele>1111.481</ele>
      <time>2021-10-12T15:49:38Z</time>
    </trkpt>
    <trkpt lat="38.606648035" lon="34.90212">
      <ele>1111.191</ele>
      <time>2021-10-12T15:49:39Z</time>
    </trkpt>
    <trkpt lat="38.606614005" lon="34.902128968">
      <ele>1110.831</ele>
      <time>2021-10-12T15:49:41Z</time>
    </trkpt>
    <trkpt lat="38.60658098" lon="34.902135003">
      <ele>1110.485</ele>
      <time>2021-10-12T15:49:42Z</time>
    </trkpt>
    <trkpt lat="38.606548961" lon="34.902141038">
      <ele>1110.145</ele>
      <time>2021-10-12T15:49:43Z</time>
    </trkpt>
    <trkpt lat="38.606518032" lon="34.902147995">
      <ele>1109.805</ele>
      <time>2021-10-12T15:49:44Z</time>
    </trkpt>
    <trkpt lat="38.606486013" lon="34.902156964">
      <ele>1109.437</ele>
      <time>2021-10-12T15:49:45Z</time>
    </trkpt>
    <trkpt lat="38.606455" lon="34.902167022">
      <ele>1109.064</ele>
      <time>2021-10-12T15:49:47Z</time>
    </trkpt>
    <trkpt lat="38.606419042" lon="34.902173979">
      <ele>1108.654</ele>
      <time>2021-10-12T15:49:48Z</time>
    </trkpt>
    <trkpt lat="38.606386017" lon="34.902179008">
      <ele>1108.289</ele>
      <time>2021-10-12T15:49:49Z</time>
    </trkpt>
    <trkpt lat="38.60635601" lon="34.902182026">
      <ele>1108.036</ele>
      <time>2021-10-12T15:49:50Z</time>
    </trkpt>
    <trkpt lat="38.606322985" lon="34.902187977">
      <ele>1107.743</ele>
      <time>2021-10-12T15:49:52Z</time>
    </trkpt>
    <trkpt lat="38.606289038" lon="34.902193006">
      <ele>1107.454</ele>
      <time>2021-10-12T15:49:53Z</time>
    </trkpt>
    <trkpt lat="38.606255008" lon="34.902198035">
      <ele>1107.168</ele>
      <time>2021-10-12T15:49:54Z</time>
    </trkpt>
    <trkpt lat="38.606223995" lon="34.902201975">
      <ele>1106.915</ele>
      <time>2021-10-12T15:49:55Z</time>
    </trkpt>
    <trkpt lat="38.606194993" lon="34.902211027">
      <ele>1106.656</ele>
      <time>2021-10-12T15:49:56Z</time>
    </trkpt>
    <trkpt lat="38.606166998" lon="34.902221002">
      <ele>1106.408</ele>
      <time>2021-10-12T15:49:57Z</time>
    </trkpt>
    <trkpt lat="38.606134979" lon="34.902231982">
      <ele>1106.239</ele>
      <time>2021-10-12T15:49:59Z</time>
    </trkpt>
    <trkpt lat="38.606107989" lon="34.90224204">
      <ele>1106.142</ele>
      <time>2021-10-12T15:50:00Z</time>
    </trkpt>
    <trkpt lat="38.606076976" lon="34.902250003">
      <ele>1106.188</ele>
      <time>2021-10-12T15:50:01Z</time>
    </trkpt>
    <trkpt lat="38.606046969" lon="34.902256038">
      <ele>1106.215</ele>
      <time>2021-10-12T15:50:02Z</time>
    </trkpt>
    <trkpt lat="38.60601604" lon="34.902260983">
      <ele>1106.231</ele>
      <time>2021-10-12T15:50:03Z</time>
    </trkpt>
    <trkpt lat="38.605987038" lon="34.902267018">
      <ele>1106.251</ele>
      <time>2021-10-12T15:50:04Z</time>
    </trkpt>
    <trkpt lat="38.605958037" lon="34.902274981">
      <ele>1106.275</ele>
      <time>2021-10-12T15:50:05Z</time>
    </trkpt>
    <trkpt lat="38.605924007" lon="34.90228001">
      <ele>1106.276</ele>
      <time>2021-10-12T15:50:07Z</time>
    </trkpt>
    <trkpt lat="38.605889976" lon="34.902285039">
      <ele>1106.272</ele>
      <time>2021-10-12T15:50:08Z</time>
    </trkpt>
    <trkpt lat="38.605858963" lon="34.902290991">
      <ele>1106.27</ele>
      <time>2021-10-12T15:50:09Z</time>
    </trkpt>
    <trkpt lat="38.60582904" lon="34.902295014">
      <ele>1106.258</ele>
      <time>2021-10-12T15:50:10Z</time>
    </trkpt>
    <trkpt lat="38.605796015" lon="34.902293002">
      <ele>1106.221</ele>
      <time>2021-10-12T15:50:11Z</time>
    </trkpt>
    <trkpt lat="38.605763996" lon="34.902289985">
      <ele>1106.183</ele>
      <time>2021-10-12T15:50:12Z</time>
    </trkpt>
    <trkpt lat="38.605733989" lon="34.902285961">
      <ele>1106.147</ele>
      <time>2021-10-12T15:50:14Z</time>
    </trkpt>
    <trkpt lat="38.605702976" lon="34.902279004">
      <ele>1106.108</ele>
      <time>2021-10-12T15:50:15Z</time>
    </trkpt>
    <trkpt lat="38.605672969" lon="34.902271964">
      <ele>1106.076</ele>
      <time>2021-10-12T15:50:16Z</time>
    </trkpt>
    <trkpt lat="38.605639022" lon="34.902267018">
      <ele>1106.048</ele>
      <time>2021-10-12T15:50:17Z</time>
    </trkpt>
    <trkpt lat="38.605608009" lon="34.902257966">
      <ele>1106.024</ele>
      <time>2021-10-12T15:50:18Z</time>
    </trkpt>
    <trkpt lat="38.605580013" lon="34.902250003">
      <ele>1106.009</ele>
      <time>2021-10-12T15:50:19Z</time>
    </trkpt>
    <trkpt lat="38.605543971" lon="34.902238017">
      <ele>1105.958</ele>
      <time>2021-10-12T15:50:21Z</time>
    </trkpt>
    <trkpt lat="38.60551497" lon="34.902227959">
      <ele>1105.854</ele>
      <time>2021-10-12T15:50:22Z</time>
    </trkpt>
    <trkpt lat="38.605485968" lon="34.902217984">
      <ele>1105.765</ele>
      <time>2021-10-12T15:50:23Z</time>
    </trkpt>
    <trkpt lat="38.605455039" lon="34.902205998">
      <ele>1105.697</ele>
      <time>2021-10-12T15:50:24Z</time>
    </trkpt>
    <trkpt lat="38.605426038" lon="34.902195018">
      <ele>1105.632</ele>
      <time>2021-10-12T15:50:25Z</time>
    </trkpt>
    <trkpt lat="38.60539603" lon="34.902187977">
      <ele>1105.549</ele>
      <time>2021-10-12T15:50:26Z</time>
    </trkpt>
    <trkpt lat="38.605365017" lon="34.902179008">
      <ele>1105.47</ele>
      <time>2021-10-12T15:50:28Z</time>
    </trkpt>
    <trkpt lat="38.605334004" lon="34.902173979">
      <ele>1105.376</ele>
      <time>2021-10-12T15:50:29Z</time>
    </trkpt>
    <trkpt lat="38.605299974" lon="34.902168028">
      <ele>1105.275</ele>
      <time>2021-10-12T15:50:30Z</time>
    </trkpt>
    <trkpt lat="38.605269967" lon="34.902158976">
      <ele>1105.2</ele>
      <time>2021-10-12T15:50:31Z</time>
    </trkpt>
    <trkpt lat="38.605238032" lon="34.902150007">
      <ele>1105.117</ele>
      <time>2021-10-12T15:50:32Z</time>
    </trkpt>
    <trkpt lat="38.60520903" lon="34.902139027">
      <ele>1105.052</ele>
      <time>2021-10-12T15:50:34Z</time>
    </trkpt>
    <trkpt lat="38.605177011" lon="34.902129974">
      <ele>1104.969</ele>
      <time>2021-10-12T15:50:35Z</time>
    </trkpt>
    <trkpt lat="38.605144992" lon="34.90212">
      <ele>1104.89</ele>
      <time>2021-10-12T15:50:36Z</time>
    </trkpt>
    <trkpt lat="38.605112974" lon="34.902112037">
      <ele>1104.803</ele>
      <time>2021-10-12T15:50:37Z</time>
    </trkpt>
    <trkpt lat="38.605082966" lon="34.902099967">
      <ele>1104.739</ele>
      <time>2021-10-12T15:50:38Z</time>
    </trkpt>
    <trkpt lat="38.605052959" lon="34.902085969">
      <ele>1104.681</ele>
      <time>2021-10-12T15:50:40Z</time>
    </trkpt>
    <trkpt lat="38.605023036" lon="34.902077001">
      <ele>1104.606</ele>
      <time>2021-10-12T15:50:41Z</time>
    </trkpt>
    <trkpt lat="38.604990011" lon="34.902069038">
      <ele>1104.516</ele>
      <time>2021-10-12T15:50:42Z</time>
    </trkpt>
    <trkpt lat="38.604953969" lon="34.902063003">
      <ele>1104.407</ele>
      <time>2021-10-12T15:50:43Z</time>
    </trkpt>
    <trkpt lat="38.604920022" lon="34.902058979">
      <ele>1104.3</ele>
      <time>2021-10-12T15:50:45Z</time>
    </trkpt>
    <trkpt lat="38.604891021" lon="34.902061997">
      <ele>1104.184</ele>
      <time>2021-10-12T15:50:46Z</time>
    </trkpt>
    <trkpt lat="38.604863025" lon="34.902063003">
      <ele>1104.08</ele>
      <time>2021-10-12T15:50:47Z</time>
    </trkpt>
    <trkpt lat="38.604834024" lon="34.902071971">
      <ele>1103.943</ele>
      <time>2021-10-12T15:50:48Z</time>
    </trkpt>
    <trkpt lat="38.604810974" lon="34.902090998">
      <ele>1103.792</ele>
      <time>2021-10-12T15:50:49Z</time>
    </trkpt>
    <trkpt lat="38.604796976" lon="34.902114971">
      <ele>1103.655</ele>
      <time>2021-10-12T15:50:50Z</time>
    </trkpt>
    <trkpt lat="38.604779039" lon="34.902143972">
      <ele>1103.486</ele>
      <time>2021-10-12T15:50:51Z</time>
    </trkpt>
    <trkpt lat="38.604758" lon="34.902172973">
      <ele>1103.306</ele>
      <time>2021-10-12T15:50:52Z</time>
    </trkpt>
    <trkpt lat="38.604727993" lon="34.902198035">
      <ele>1103.108</ele>
      <time>2021-10-12T15:50:53Z</time>
    </trkpt>
    <trkpt lat="38.604694968" lon="34.902214967">
      <ele>1102.634</ele>
      <time>2021-10-12T15:50:54Z</time>
    </trkpt>
    <trkpt lat="38.604661021" lon="34.902228964">
      <ele>1102.124</ele>
      <time>2021-10-12T15:50:56Z</time>
    </trkpt>
    <trkpt lat="38.604623973" lon="34.902238017">
      <ele>1101.605</ele>
      <time>2021-10-12T15:50:57Z</time>
    </trkpt>
    <trkpt lat="38.604591032" lon="34.902244974">
      <ele>1101.15</ele>
      <time>2021-10-12T15:50:58Z</time>
    </trkpt>
    <trkpt lat="38.604559014" lon="34.902253021">
      <ele>1100.715</ele>
      <time>2021-10-12T15:51:00Z</time>
    </trkpt>
    <trkpt lat="38.604528001" lon="34.902265007">
      <ele>1100.311</ele>
      <time>2021-10-12T15:51:01Z</time>
    </trkpt>
    <trkpt lat="38.604502017" lon="34.902275987">
      <ele>1099.982</ele>
      <time>2021-10-12T15:51:02Z</time>
    </trkpt>
    <trkpt lat="38.604479972" lon="34.902286967">
      <ele>1099.715</ele>
      <time>2021-10-12T15:51:03Z</time>
    </trkpt>
    <trkpt lat="38.604453988" lon="34.902297026">
      <ele>1099.397</ele>
      <time>2021-10-12T15:51:04Z</time>
    </trkpt>
    <trkpt lat="38.604425993" lon="34.902305994">
      <ele>1098.969</ele>
      <time>2021-10-12T15:51:05Z</time>
    </trkpt>
    <trkpt lat="38.604393974" lon="34.902309012">
      <ele>1098.404</ele>
      <time>2021-10-12T15:51:06Z</time>
    </trkpt>
    <trkpt lat="38.604363967" lon="34.902314963">
      <ele>1097.885</ele>
      <time>2021-10-12T15:51:07Z</time>
    </trkpt>
    <trkpt lat="38.604338989" lon="34.902323009">
      <ele>1097.465</ele>
      <time>2021-10-12T15:51:08Z</time>
    </trkpt>
    <trkpt lat="38.604316022" lon="34.902336001">
      <ele>1097.098</ele>
      <time>2021-10-12T15:51:09Z</time>
    </trkpt>
    <trkpt lat="38.604291966" lon="34.902355028">
      <ele>1096.733</ele>
      <time>2021-10-12T15:51:10Z</time>
    </trkpt>
    <trkpt lat="38.604266988" lon="34.902374977">
      <ele>1096.356</ele>
      <time>2021-10-12T15:51:11Z</time>
    </trkpt>
    <trkpt lat="38.604244022" lon="34.902398027">
      <ele>1096.025</ele>
      <time>2021-10-12T15:51:12Z</time>
    </trkpt>
    <trkpt lat="38.604220971" lon="34.902426023">
      <ele>1095.711</ele>
      <time>2021-10-12T15:51:13Z</time>
    </trkpt>
    <trkpt lat="38.604200017" lon="34.90245997">
      <ele>1095.456</ele>
      <time>2021-10-12T15:51:15Z</time>
    </trkpt>
    <trkpt lat="38.604181996" lon="34.902489977">
      <ele>1095.24</ele>
      <time>2021-10-12T15:51:16Z</time>
    </trkpt>
    <trkpt lat="38.604165986" lon="34.902517973">
      <ele>1095.127</ele>
      <time>2021-10-12T15:51:17Z</time>
    </trkpt>
    <trkpt lat="38.604150983" lon="34.90254404">
      <ele>1095.252</ele>
      <time>2021-10-12T15:51:18Z</time>
    </trkpt>
    <trkpt lat="38.604134973" lon="34.902566001">
      <ele>1095.334</ele>
      <time>2021-10-12T15:51:19Z</time>
    </trkpt>
    <trkpt lat="38.604118964" lon="34.902587039">
      <ele>1095.401</ele>
      <time>2021-10-12T15:51:19Z</time>
    </trkpt>
    <trkpt lat="38.604105972" lon="34.902605982">
      <ele>1095.461</ele>
      <time>2021-10-12T15:51:20Z</time>
    </trkpt>
    <trkpt lat="38.604098009" lon="34.902644036">
      <ele>1095.662</ele>
      <time>2021-10-12T15:51:21Z</time>
    </trkpt>
    <trkpt lat="38.604100021" lon="34.90267396">
      <ele>1095.862</ele>
      <time>2021-10-12T15:51:22Z</time>
    </trkpt>
    <trkpt lat="38.604101026" lon="34.902698016">
      <ele>1096.021</ele>
      <time>2021-10-12T15:51:23Z</time>
    </trkpt>
    <trkpt lat="38.604091974" lon="34.902724">
      <ele>1096.127</ele>
      <time>2021-10-12T15:51:24Z</time>
    </trkpt>
    <trkpt lat="38.604068002" lon="34.902746966">
      <ele>1096.107</ele>
      <time>2021-10-12T15:51:25Z</time>
    </trkpt>
    <trkpt lat="38.604050986" lon="34.902721988">
      <ele>1095.849</ele>
      <time>2021-10-12T15:51:26Z</time>
    </trkpt>
    <trkpt lat="38.604056016" lon="34.902688963">
      <ele>1095.691</ele>
      <time>2021-10-12T15:51:27Z</time>
    </trkpt>
    <trkpt lat="38.604059033" lon="34.902660968">
      <ele>1095.547</ele>
      <time>2021-10-12T15:51:28Z</time>
    </trkpt>
    <trkpt lat="38.604060961" lon="34.902630961">
      <ele>1095.383</ele>
      <time>2021-10-12T15:51:28Z</time>
    </trkpt>
    <trkpt lat="38.60406599" lon="34.90259802">
      <ele>1095.215</ele>
      <time>2021-10-12T15:51:29Z</time>
    </trkpt>
    <trkpt lat="38.604071019" lon="34.902563989">
      <ele>1095.037</ele>
      <time>2021-10-12T15:51:30Z</time>
    </trkpt>
    <trkpt lat="38.604077976" lon="34.902524007">
      <ele>1094.826</ele>
      <time>2021-10-12T15:51:32Z</time>
    </trkpt>
    <trkpt lat="38.604082" lon="34.902481008">
      <ele>1094.648</ele>
      <time>2021-10-12T15:51:33Z</time>
    </trkpt>
    <trkpt lat="38.604083005" lon="34.902441027">
      <ele>1094.55</ele>
      <time>2021-10-12T15:51:34Z</time>
    </trkpt>
    <trkpt lat="38.604087029" lon="34.902400961">
      <ele>1094.459</ele>
      <time>2021-10-12T15:51:35Z</time>
    </trkpt>
    <trkpt lat="38.604099015" lon="34.902361985">
      <ele>1094.381</ele>
      <time>2021-10-12T15:51:36Z</time>
    </trkpt>
    <trkpt lat="38.604104966" lon="34.902322004">
      <ele>1094.279</ele>
      <time>2021-10-12T15:51:38Z</time>
    </trkpt>
    <trkpt lat="38.60412701" lon="34.902179008">
      <ele>1094.156</ele>
      <time>2021-10-12T15:51:42Z</time>
    </trkpt>
    <trkpt lat="38.604131034" lon="34.902142966">
      <ele>1094.285</ele>
      <time>2021-10-12T15:51:43Z</time>
    </trkpt>
    <trkpt lat="38.604137991" lon="34.902104996">
      <ele>1094.422</ele>
      <time>2021-10-12T15:51:44Z</time>
    </trkpt>
    <trkpt lat="38.604140002" lon="34.90206996">
      <ele>1094.548</ele>
      <time>2021-10-12T15:51:45Z</time>
    </trkpt>
    <trkpt lat="38.604144026" lon="34.902039031">
      <ele>1094.659</ele>
      <time>2021-10-12T15:51:46Z</time>
    </trkpt>
    <trkpt lat="38.604144026" lon="34.902005">
      <ele>1094.782</ele>
      <time>2021-10-12T15:51:47Z</time>
    </trkpt>
    <trkpt lat="38.604145031" lon="34.901969964">
      <ele>1094.908</ele>
      <time>2021-10-12T15:51:48Z</time>
    </trkpt>
    <trkpt lat="38.604140002" lon="34.901931994">
      <ele>1095.126</ele>
      <time>2021-10-12T15:51:49Z</time>
    </trkpt>
    <trkpt lat="38.604130028" lon="34.901886983">
      <ele>1095.566</ele>
      <time>2021-10-12T15:51:50Z</time>
    </trkpt>
    <trkpt lat="38.604128016" lon="34.901843984">
      <ele>1095.984</ele>
      <time>2021-10-12T15:51:52Z</time>
    </trkpt>
    <trkpt lat="38.60411997" lon="34.901799979">
      <ele>1096.385</ele>
      <time>2021-10-12T15:51:53Z</time>
    </trkpt>
    <trkpt lat="38.604113013" lon="34.901759997">
      <ele>1096.736</ele>
      <time>2021-10-12T15:51:54Z</time>
    </trkpt>
    <trkpt lat="38.604102032" lon="34.90171398">
      <ele>1097.103</ele>
      <time>2021-10-12T15:51:56Z</time>
    </trkpt>
    <trkpt lat="38.604098009" lon="34.901673999">
      <ele>1097.44</ele>
      <time>2021-10-12T15:51:57Z</time>
    </trkpt>
    <trkpt lat="38.604095997" lon="34.901638962">
      <ele>1097.417</ele>
      <time>2021-10-12T15:51:58Z</time>
    </trkpt>
    <trkpt lat="38.604097003" lon="34.901605016">
      <ele>1097.332</ele>
      <time>2021-10-12T15:51:59Z</time>
    </trkpt>
    <trkpt lat="38.60409298" lon="34.901571991">
      <ele>1097.219</ele>
      <time>2021-10-12T15:52:00Z</time>
    </trkpt>
    <trkpt lat="38.604090968" lon="34.901541984">
      <ele>1097.128</ele>
      <time>2021-10-12T15:52:01Z</time>
    </trkpt>
    <trkpt lat="38.604086023" lon="34.901504014">
      <ele>1097.004</ele>
      <time>2021-10-12T15:52:02Z</time>
    </trkpt>
    <trkpt lat="38.60407697" lon="34.901460009">
      <ele>1096.85</ele>
      <time>2021-10-12T15:52:03Z</time>
    </trkpt>
    <trkpt lat="38.604070013" lon="34.901416004">
      <ele>1096.716</ele>
      <time>2021-10-12T15:52:04Z</time>
    </trkpt>
    <trkpt lat="38.604060039" lon="34.901375016">
      <ele>1096.597</ele>
      <time>2021-10-12T15:52:06Z</time>
    </trkpt>
    <trkpt lat="38.604052998" lon="34.90133604">
      <ele>1096.513</ele>
      <time>2021-10-12T15:52:07Z</time>
    </trkpt>
    <trkpt lat="38.604041012" lon="34.901295975">
      <ele>1096.396</ele>
      <time>2021-10-12T15:52:08Z</time>
    </trkpt>
    <trkpt lat="38.60403196" lon="34.901259011">
      <ele>1096.288</ele>
      <time>2021-10-12T15:52:09Z</time>
    </trkpt>
    <trkpt lat="38.604027014" lon="34.901221041">
      <ele>1096.193</ele>
      <time>2021-10-12T15:52:10Z</time>
    </trkpt>
    <trkpt lat="38.604021985" lon="34.901181981">
      <ele>1096.091</ele>
      <time>2021-10-12T15:52:11Z</time>
    </trkpt>
    <trkpt lat="38.604017962" lon="34.901147028">
      <ele>1095.999</ele>
      <time>2021-10-12T15:52:12Z</time>
    </trkpt>
    <trkpt lat="38.604007987" lon="34.901106041">
      <ele>1095.865</ele>
      <time>2021-10-12T15:52:14Z</time>
    </trkpt>
    <trkpt lat="38.603996001" lon="34.901067987">
      <ele>1095.831</ele>
      <time>2021-10-12T15:52:15Z</time>
    </trkpt>
    <trkpt lat="38.603986027" lon="34.901032029">
      <ele>1095.799</ele>
      <time>2021-10-12T15:52:16Z</time>
    </trkpt>
    <trkpt lat="38.603975968" lon="34.900991041">
      <ele>1095.762</ele>
      <time>2021-10-12T15:52:17Z</time>
    </trkpt>
    <trkpt lat="38.603964988" lon="34.900956005">
      <ele>1095.701</ele>
      <time>2021-10-12T15:52:18Z</time>
    </trkpt>
    <trkpt lat="38.603953002" lon="34.900919041">
      <ele>1095.621</ele>
      <time>2021-10-12T15:52:19Z</time>
    </trkpt>
    <trkpt lat="38.603947973" lon="34.900884004">
      <ele>1095.599</ele>
      <time>2021-10-12T15:52:20Z</time>
    </trkpt>
    <trkpt lat="38.603939004" lon="34.900851985">
      <ele>1095.529</ele>
      <time>2021-10-12T15:52:21Z</time>
    </trkpt>
    <trkpt lat="38.603928024" lon="34.90081301">
      <ele>1095.423</ele>
      <time>2021-10-12T15:52:23Z</time>
    </trkpt>
    <trkpt lat="38.60391696" lon="34.900777973">
      <ele>1095.303</ele>
      <time>2021-10-12T15:52:24Z</time>
    </trkpt>
    <trkpt lat="38.60390204" lon="34.900741009">
      <ele>1095.142</ele>
      <time>2021-10-12T15:52:25Z</time>
    </trkpt>
    <trkpt lat="38.603891982" lon="34.900702033">
      <ele>1095.033</ele>
      <time>2021-10-12T15:52:26Z</time>
    </trkpt>
    <trkpt lat="38.603883013" lon="34.90066004">
      <ele>1095.063</ele>
      <time>2021-10-12T15:52:27Z</time>
    </trkpt>
    <trkpt lat="38.603871027" lon="34.900622992">
      <ele>1095.193</ele>
      <time>2021-10-12T15:52:29Z</time>
    </trkpt>
    <trkpt lat="38.603859963" lon="34.900587033">
      <ele>1095.312</ele>
      <time>2021-10-12T15:52:30Z</time>
    </trkpt>
    <trkpt lat="38.603850994" lon="34.900546968">
      <ele>1095.463</ele>
      <time>2021-10-12T15:52:31Z</time>
    </trkpt>
    <trkpt lat="38.603838002" lon="34.900502041">
      <ele>1095.864</ele>
      <time>2021-10-12T15:52:32Z</time>
    </trkpt>
    <trkpt lat="38.603827022" lon="34.900463987">
      <ele>1096.181</ele>
      <time>2021-10-12T15:52:33Z</time>
    </trkpt>
    <trkpt lat="38.603810007" lon="34.900428029">
      <ele>1096.509</ele>
      <time>2021-10-12T15:52:35Z</time>
    </trkpt>
    <trkpt lat="38.603795003" lon="34.900387963">
      <ele>1096.813</ele>
      <time>2021-10-12T15:52:36Z</time>
    </trkpt>
    <trkpt lat="38.603778994" lon="34.900347982">
      <ele>1097.09</ele>
      <time>2021-10-12T15:52:37Z</time>
    </trkpt>
    <trkpt lat="38.603767008" lon="34.900304982">
      <ele>1097.329</ele>
      <time>2021-10-12T15:52:39Z</time>
    </trkpt>
    <trkpt lat="38.603754016" lon="34.900266007">
      <ele>1097.55</ele>
      <time>2021-10-12T15:52:40Z</time>
    </trkpt>
    <trkpt lat="38.60374203" lon="34.900223007">
      <ele>1097.819</ele>
      <time>2021-10-12T15:52:41Z</time>
    </trkpt>
    <trkpt lat="38.603728032" lon="34.900185037">
      <ele>1098.053</ele>
      <time>2021-10-12T15:52:42Z</time>
    </trkpt>
    <trkpt lat="38.60371504" lon="34.900146984">
      <ele>1098.273</ele>
      <time>2021-10-12T15:52:44Z</time>
    </trkpt>
    <trkpt lat="38.603700036" lon="34.900108008">
      <ele>1098.487</ele>
      <time>2021-10-12T15:52:45Z</time>
    </trkpt>
    <trkpt lat="38.603683021" lon="34.900075989">
      <ele>1098.656</ele>
      <time>2021-10-12T15:52:46Z</time>
    </trkpt>
    <trkpt lat="38.603665" lon="34.90004397">
      <ele>1098.811</ele>
      <time>2021-10-12T15:52:47Z</time>
    </trkpt>
    <trkpt lat="38.603651002" lon="34.900012035">
      <ele>1098.95</ele>
      <time>2021-10-12T15:52:48Z</time>
    </trkpt>
    <trkpt lat="38.603639016" lon="34.899980016">
      <ele>1099.014</ele>
      <time>2021-10-12T15:52:49Z</time>
    </trkpt>
    <trkpt lat="38.603624012" lon="34.899949003">
      <ele>1099.017</ele>
      <time>2021-10-12T15:52:50Z</time>
    </trkpt>
    <trkpt lat="38.603610015" lon="34.899913967">
      <ele>1099.009</ele>
      <time>2021-10-12T15:52:51Z</time>
    </trkpt>
    <trkpt lat="38.603598028" lon="34.89988002">
      <ele>1099.101</ele>
      <time>2021-10-12T15:52:52Z</time>
    </trkpt>
    <trkpt lat="38.603583025" lon="34.899843978">
      <ele>1099.19</ele>
      <time>2021-10-12T15:52:54Z</time>
    </trkpt>
    <trkpt lat="38.603572967" lon="34.899805002">
      <ele>1099.219</ele>
      <time>2021-10-12T15:52:55Z</time>
    </trkpt>
    <trkpt lat="38.603562992" lon="34.899770971">
      <ele>1099.234</ele>
      <time>2021-10-12T15:52:56Z</time>
    </trkpt>
    <trkpt lat="38.60355" lon="34.899736019">
      <ele>1099.242</ele>
      <time>2021-10-12T15:52:57Z</time>
    </trkpt>
    <trkpt lat="38.603533991" lon="34.899700982">
      <ele>1099.201</ele>
      <time>2021-10-12T15:52:58Z</time>
    </trkpt>
    <trkpt lat="38.603517981" lon="34.899665024">
      <ele>1099.129</ele>
      <time>2021-10-12T15:52:59Z</time>
    </trkpt>
    <trkpt lat="38.603504989" lon="34.899631999">
      <ele>1099.057</ele>
      <time>2021-10-12T15:53:00Z</time>
    </trkpt>
    <trkpt lat="38.603490992" lon="34.899597969">
      <ele>1098.985</ele>
      <time>2021-10-12T15:53:02Z</time>
    </trkpt>
    <trkpt lat="38.60347297" lon="34.899563016">
      <ele>1098.924</ele>
      <time>2021-10-12T15:53:03Z</time>
    </trkpt>
    <trkpt lat="38.603464002" lon="34.899530997">
      <ele>1098.841</ele>
      <time>2021-10-12T15:53:04Z</time>
    </trkpt>
    <trkpt lat="38.603447992" lon="34.899494033">
      <ele>1098.766</ele>
      <time>2021-10-12T15:53:05Z</time>
    </trkpt>
    <trkpt lat="38.603436006" lon="34.899453968">
      <ele>1098.665</ele>
      <time>2021-10-12T15:53:06Z</time>
    </trkpt>
    <trkpt lat="38.60342402" lon="34.899422033">
      <ele>1098.565</ele>
      <time>2021-10-12T15:53:07Z</time>
    </trkpt>
    <trkpt lat="38.603408011" lon="34.899389008">
      <ele>1098.439</ele>
      <time>2021-10-12T15:53:08Z</time>
    </trkpt>
    <trkpt lat="38.603395019" lon="34.899354978">
      <ele>1098.277</ele>
      <time>2021-10-12T15:53:10Z</time>
    </trkpt>
    <trkpt lat="38.603380015" lon="34.899319019">
      <ele>1098.081</ele>
      <time>2021-10-12T15:53:11Z</time>
    </trkpt>
    <trkpt lat="38.603365012" lon="34.899287">
      <ele>1097.882</ele>
      <time>2021-10-12T15:53:12Z</time>
    </trkpt>
    <trkpt lat="38.603354031" lon="34.899251964">
      <ele>1097.643</ele>
      <time>2021-10-12T15:53:13Z</time>
    </trkpt>
    <trkpt lat="38.603341961" lon="34.899216006">
      <ele>1097.375</ele>
      <time>2021-10-12T15:53:14Z</time>
    </trkpt>
    <trkpt lat="38.603330981" lon="34.899178036">
      <ele>1097.132</ele>
      <time>2021-10-12T15:53:15Z</time>
    </trkpt>
    <trkpt lat="38.603315977" lon="34.899144005">
      <ele>1097.36</ele>
      <time>2021-10-12T15:53:16Z</time>
    </trkpt>
    <trkpt lat="38.603300974" lon="34.899115004">
      <ele>1097.634</ele>
      <time>2021-10-12T15:53:17Z</time>
    </trkpt>
    <trkpt lat="38.603284964" lon="34.899087008">
      <ele>1097.895</ele>
      <time>2021-10-12T15:53:18Z</time>
    </trkpt>
    <trkpt lat="38.603269961" lon="34.899058007">
      <ele>1098.101</ele>
      <time>2021-10-12T15:53:19Z</time>
    </trkpt>
    <trkpt lat="38.603255963" lon="34.899026994">
      <ele>1098.251</ele>
      <time>2021-10-12T15:53:20Z</time>
    </trkpt>
    <trkpt lat="38.603240959" lon="34.898996986">
      <ele>1098.386</ele>
      <time>2021-10-12T15:53:21Z</time>
    </trkpt>
    <trkpt lat="38.603230985" lon="34.898966979">
      <ele>1098.416</ele>
      <time>2021-10-12T15:53:22Z</time>
    </trkpt>
    <trkpt lat="38.603222016" lon="34.89893496">
      <ele>1098.402</ele>
      <time>2021-10-12T15:53:23Z</time>
    </trkpt>
    <trkpt lat="38.603212042" lon="34.898905959">
      <ele>1098.39</ele>
      <time>2021-10-12T15:53:24Z</time>
    </trkpt>
    <trkpt lat="38.603198966" lon="34.898877041">
      <ele>1098.473</ele>
      <time>2021-10-12T15:53:25Z</time>
    </trkpt>
    <trkpt lat="38.60318304" lon="34.898844017">
      <ele>1098.697</ele>
      <time>2021-10-12T15:53:26Z</time>
    </trkpt>
    <trkpt lat="38.603171976" lon="34.898811998">
      <ele>1098.859</ele>
      <time>2021-10-12T15:53:27Z</time>
    </trkpt>
    <trkpt lat="38.603163008" lon="34.898776039">
      <ele>1098.997</ele>
      <time>2021-10-12T15:53:28Z</time>
    </trkpt>
    <trkpt lat="38.603156973" lon="34.898745026">
      <ele>1099.094</ele>
      <time>2021-10-12T15:53:29Z</time>
    </trkpt>
    <trkpt lat="38.603144987" lon="34.898715019">
      <ele>1099.236</ele>
      <time>2021-10-12T15:53:30Z</time>
    </trkpt>
    <trkpt lat="38.603130989" lon="34.898679983">
      <ele>1099.39</ele>
      <time>2021-10-12T15:53:32Z</time>
    </trkpt>
    <trkpt lat="38.603119003" lon="34.898649976">
      <ele>1099.511</ele>
      <time>2021-10-12T15:53:33Z</time>
    </trkpt>
    <trkpt lat="38.603107017" lon="34.898616029">
      <ele>1099.626</ele>
      <time>2021-10-12T15:53:34Z</time>
    </trkpt>
    <trkpt lat="38.603097964" lon="34.898586022">
      <ele>1099.722</ele>
      <time>2021-10-12T15:53:35Z</time>
    </trkpt>
    <trkpt lat="38.603086984" lon="34.898555009">
      <ele>1099.819</ele>
      <time>2021-10-12T15:53:36Z</time>
    </trkpt>
    <trkpt lat="38.603077009" lon="34.898525001">
      <ele>1099.893</ele>
      <time>2021-10-12T15:53:36Z</time>
    </trkpt>
    <trkpt lat="38.603064017" lon="34.898494994">
      <ele>1099.965</ele>
      <time>2021-10-12T15:53:37Z</time>
    </trkpt>
    <trkpt lat="38.603048008" lon="34.89846197">
      <ele>1100.146</ele>
      <time>2021-10-12T15:53:39Z</time>
    </trkpt>
    <trkpt lat="38.60303401" lon="34.898428023">
      <ele>1100.39</ele>
      <time>2021-10-12T15:53:40Z</time>
    </trkpt>
    <trkpt lat="38.603018001" lon="34.898401033">
      <ele>1100.64</ele>
      <time>2021-10-12T15:53:41Z</time>
    </trkpt>
    <trkpt lat="38.60299998" lon="34.898372032">
      <ele>1100.884</ele>
      <time>2021-10-12T15:53:42Z</time>
    </trkpt>
    <trkpt lat="38.602981037" lon="34.89834303">
      <ele>1101.101</ele>
      <time>2021-10-12T15:53:43Z</time>
    </trkpt>
    <trkpt lat="38.60295698" lon="34.898316041">
      <ele>1101.375</ele>
      <time>2021-10-12T15:53:44Z</time>
    </trkpt>
    <trkpt lat="38.602938037" lon="34.898286033">
      <ele>1101.548</ele>
      <time>2021-10-12T15:53:45Z</time>
    </trkpt>
    <trkpt lat="38.602914987" lon="34.898258038">
      <ele>1101.75</ele>
      <time>2021-10-12T15:53:46Z</time>
    </trkpt>
    <trkpt lat="38.602895038" lon="34.898226019">
      <ele>1101.865</ele>
      <time>2021-10-12T15:53:48Z</time>
    </trkpt>
    <trkpt lat="38.602875005" lon="34.898195006">
      <ele>1101.953</ele>
      <time>2021-10-12T15:53:49Z</time>
    </trkpt>
    <trkpt lat="38.602852039" lon="34.898168016">
      <ele>1102.059</ele>
      <time>2021-10-12T15:53:50Z</time>
    </trkpt>
    <trkpt lat="38.602828989" lon="34.898142032">
      <ele>1102.139</ele>
      <time>2021-10-12T15:53:51Z</time>
    </trkpt>
    <trkpt lat="38.602806022" lon="34.89811697">
      <ele>1102.194</ele>
      <time>2021-10-12T15:53:52Z</time>
    </trkpt>
    <trkpt lat="38.60278599" lon="34.898086963">
      <ele>1102.16</ele>
      <time>2021-10-12T15:53:53Z</time>
    </trkpt>
    <trkpt lat="38.602764029" lon="34.898066008">
      <ele>1102.623</ele>
      <time>2021-10-12T15:53:54Z</time>
    </trkpt>
    <trkpt lat="38.602741985" lon="34.898047987">
      <ele>1103.363</ele>
      <time>2021-10-12T15:53:55Z</time>
    </trkpt>
    <trkpt lat="38.602716001" lon="34.898030972">
      <ele>1104.269</ele>
      <time>2021-10-12T15:53:56Z</time>
    </trkpt>
    <trkpt lat="38.602695968" lon="34.898008006">
      <ele>1104.897</ele>
      <time>2021-10-12T15:53:57Z</time>
    </trkpt>
    <trkpt lat="38.602674007" lon="34.897985039">
      <ele>1105.602</ele>
      <time>2021-10-12T15:53:58Z</time>
    </trkpt>
    <trkpt lat="38.602651963" lon="34.897960983">
      <ele>1106.301</ele>
      <time>2021-10-12T15:53:59Z</time>
    </trkpt>
    <trkpt lat="38.602631008" lon="34.897933993">
      <ele>1106.937</ele>
      <time>2021-10-12T15:54:01Z</time>
    </trkpt>
    <trkpt lat="38.602607036" lon="34.89790801">
      <ele>1107.699</ele>
      <time>2021-10-12T15:54:02Z</time>
    </trkpt>
    <trkpt lat="38.602583986" lon="34.897884959">
      <ele>1108.446</ele>
      <time>2021-10-12T15:54:03Z</time>
    </trkpt>
    <trkpt lat="38.602561019" lon="34.897852018">
      <ele>1109.118</ele>
      <time>2021-10-12T15:54:04Z</time>
    </trkpt>
    <trkpt lat="38.602544004" lon="34.897817988">
      <ele>1109.547</ele>
      <time>2021-10-12T15:54:05Z</time>
    </trkpt>
    <trkpt lat="38.602495976" lon="34.897696031">
      <ele>1110.345</ele>
      <time>2021-10-12T15:54:09Z</time>
    </trkpt>
    <trkpt lat="38.602451971" lon="34.897587989">
      <ele>1111.599</ele>
      <time>2021-10-12T15:54:13Z</time>
    </trkpt>
    <trkpt lat="38.60244602" lon="34.897472989">
      <ele>1110.702</ele>
      <time>2021-10-12T15:54:16Z</time>
    </trkpt>
    <trkpt lat="38.602438979" lon="34.897357989">
      <ele>1110.16</ele>
      <time>2021-10-12T15:54:19Z</time>
    </trkpt>
    <trkpt lat="38.602417018" lon="34.897208959">
      <ele>1110.087</ele>
      <time>2021-10-12T15:54:24Z</time>
    </trkpt>
    <trkpt lat="38.602416012" lon="34.89706303">
      <ele>1109.087</ele>
      <time>2021-10-12T15:54:28Z</time>
    </trkpt>
    <trkpt lat="38.602444008" lon="34.89692498">
      <ele>1106.78</ele>
      <time>2021-10-12T15:54:32Z</time>
    </trkpt>
    <trkpt lat="38.602463035" lon="34.896805035">
      <ele>1105.663</ele>
      <time>2021-10-12T15:54:36Z</time>
    </trkpt>
    <trkpt lat="38.602487007" lon="34.896654999">
      <ele>1104.513</ele>
      <time>2021-10-12T15:54:40Z</time>
    </trkpt>
    <trkpt lat="38.602521038" lon="34.896514015">
      <ele>1104.0</ele>
      <time>2021-10-12T15:54:44Z</time>
    </trkpt>
    <trkpt lat="38.602541992" lon="34.896390969">
      <ele>1104.0</ele>
      <time>2021-10-12T15:54:48Z</time>
    </trkpt>
    <trkpt lat="38.602562025" lon="34.896275969">
      <ele>1104.0</ele>
      <time>2021-10-12T15:54:52Z</time>
    </trkpt>
    <trkpt lat="38.602598989" lon="34.896163987">
      <ele>1104.0</ele>
      <time>2021-10-12T15:54:55Z</time>
    </trkpt>
    <trkpt lat="38.602651041" lon="34.896039013">
      <ele>1104.0</ele>
      <time>2021-10-12T15:54:59Z</time>
    </trkpt>
    <trkpt lat="38.602664033" lon="34.896006994">
      <ele>1104.0</ele>
      <time>2021-10-12T15:55:00Z</time>
    </trkpt>
    <trkpt lat="38.602671996" lon="34.895975981">
      <ele>1104.0</ele>
      <time>2021-10-12T15:55:01Z</time>
    </trkpt>
    <trkpt lat="38.602675013" lon="34.895943962">
      <ele>1104.0</ele>
      <time>2021-10-12T15:55:02Z</time>
    </trkpt>
    <trkpt lat="38.602676019" lon="34.895908004">
      <ele>1104.0</ele>
      <time>2021-10-12T15:55:03Z</time>
    </trkpt>
    <trkpt lat="38.602679037" lon="34.895872967">
      <ele>1104.0</ele>
      <time>2021-10-12T15:55:04Z</time>
    </trkpt>
    <trkpt lat="38.602685994" lon="34.895840026">
      <ele>1104.0</ele>
      <time>2021-10-12T15:55:05Z</time>
    </trkpt>
    <trkpt lat="38.602691023" lon="34.895799039">
      <ele>1104.208</ele>
      <time>2021-10-12T15:55:06Z</time>
    </trkpt>
    <trkpt lat="38.602695968" lon="34.895762997">
      <ele>1104.432</ele>
      <time>2021-10-12T15:55:07Z</time>
    </trkpt>
    <trkpt lat="38.602702003" lon="34.895727038">
      <ele>1104.661</ele>
      <time>2021-10-12T15:55:09Z</time>
    </trkpt>
    <trkpt lat="38.602709966" lon="34.895686973">
      <ele>1104.925</ele>
      <time>2021-10-12T15:55:10Z</time>
    </trkpt>
    <trkpt lat="38.602716001" lon="34.895650009">
      <ele>1105.173</ele>
      <time>2021-10-12T15:55:11Z</time>
    </trkpt>
    <trkpt lat="38.602723964" lon="34.895612961">
      <ele>1105.433</ele>
      <time>2021-10-12T15:55:12Z</time>
    </trkpt>
    <trkpt lat="38.602735028" lon="34.895575996">
      <ele>1105.71</ele>
      <time>2021-10-12T15:55:13Z</time>
    </trkpt>
    <trkpt lat="38.602746008" lon="34.895540038">
      <ele>1105.991</ele>
      <time>2021-10-12T15:55:14Z</time>
    </trkpt>
    <trkpt lat="38.602754977" lon="34.895501984">
      <ele>1106.288</ele>
      <time>2021-10-12T15:55:15Z</time>
    </trkpt>
    <trkpt lat="38.602761012" lon="34.895467032">
      <ele>1106.558</ele>
      <time>2021-10-12T15:55:16Z</time>
    </trkpt>
    <trkpt lat="38.602764029" lon="34.895433001">
      <ele>1106.811</ele>
      <time>2021-10-12T15:55:17Z</time>
    </trkpt>
    <trkpt lat="38.602762017" lon="34.895397965">
      <ele>1107.046</ele>
      <time>2021-10-12T15:55:18Z</time>
    </trkpt>
    <trkpt lat="38.602756988" lon="34.895365024">
      <ele>1107.246</ele>
      <time>2021-10-12T15:55:19Z</time>
    </trkpt>
    <trkpt lat="38.602747014" lon="34.895333005">
      <ele>1107.403</ele>
      <time>2021-10-12T15:55:20Z</time>
    </trkpt>
    <trkpt lat="38.602733016" lon="34.895304004">
      <ele>1107.504</ele>
      <time>2021-10-12T15:55:21Z</time>
    </trkpt>
    <trkpt lat="38.60272103" lon="34.895273997">
      <ele>1107.605</ele>
      <time>2021-10-12T15:55:22Z</time>
    </trkpt>
    <trkpt lat="38.602707032" lon="34.895240972">
      <ele>1107.623</ele>
      <time>2021-10-12T15:55:23Z</time>
    </trkpt>
    <trkpt lat="38.602689011" lon="34.895208031">
      <ele>1107.612</ele>
      <time>2021-10-12T15:55:25Z</time>
    </trkpt>
    <trkpt lat="38.602673002" lon="34.895174">
      <ele>1107.619</ele>
      <time>2021-10-12T15:55:26Z</time>
    </trkpt>
    <trkpt lat="38.60266001" lon="34.895142987">
      <ele>1107.637</ele>
      <time>2021-10-12T15:55:27Z</time>
    </trkpt>
    <trkpt lat="38.602645006" lon="34.895110969">
      <ele>1107.645</ele>
      <time>2021-10-12T15:55:28Z</time>
    </trkpt>
    <trkpt lat="38.602632014" lon="34.895076016">
      <ele>1107.677</ele>
      <time>2021-10-12T15:55:29Z</time>
    </trkpt>
    <trkpt lat="38.602620028" lon="34.895043997">
      <ele>1107.706</ele>
      <time>2021-10-12T15:55:30Z</time>
    </trkpt>
    <trkpt lat="38.602604019" lon="34.895009967">
      <ele>1107.713</ele>
      <time>2021-10-12T15:55:31Z</time>
    </trkpt>
    <trkpt lat="38.602592032" lon="34.894977026">
      <ele>1107.745</ele>
      <time>2021-10-12T15:55:32Z</time>
    </trkpt>
    <trkpt lat="38.602576023" lon="34.894948024">
      <ele>1107.734</ele>
      <time>2021-10-12T15:55:33Z</time>
    </trkpt>
    <trkpt lat="38.602556996" lon="34.894919023">
      <ele>1107.702</ele>
      <time>2021-10-12T15:55:34Z</time>
    </trkpt>
    <trkpt lat="38.602537969" lon="34.894892033">
      <ele>1107.662</ele>
      <time>2021-10-12T15:55:35Z</time>
    </trkpt>
    <trkpt lat="38.602519026" lon="34.894863032">
      <ele>1107.63</ele>
      <time>2021-10-12T15:55:37Z</time>
    </trkpt>
    <trkpt lat="38.602501005" lon="34.894833025">
      <ele>1107.608</ele>
      <time>2021-10-12T15:55:38Z</time>
    </trkpt>
    <trkpt lat="38.602480972" lon="34.894805029">
      <ele>1107.613</ele>
      <time>2021-10-12T15:55:39Z</time>
    </trkpt>
    <trkpt lat="38.602459012" lon="34.894778961">
      <ele>1107.618</ele>
      <time>2021-10-12T15:55:40Z</time>
    </trkpt>
    <trkpt lat="38.602437973" lon="34.894758007">
      <ele>1107.619</ele>
      <time>2021-10-12T15:55:41Z</time>
    </trkpt>
    <trkpt lat="38.602421964" lon="34.894726994">
      <ele>1107.697</ele>
      <time>2021-10-12T15:55:42Z</time>
    </trkpt>
    <trkpt lat="38.60240302" lon="34.89470101">
      <ele>1107.701</ele>
      <time>2021-10-12T15:55:43Z</time>
    </trkpt>
    <trkpt lat="38.602386005" lon="34.89467402">
      <ele>1107.692</ele>
      <time>2021-10-12T15:55:44Z</time>
    </trkpt>
    <trkpt lat="38.602363039" lon="34.894648036">
      <ele>1107.642</ele>
      <time>2021-10-12T15:55:45Z</time>
    </trkpt>
    <trkpt lat="38.602343006" lon="34.894621968">
      <ele>1107.592</ele>
      <time>2021-10-12T15:55:46Z</time>
    </trkpt>
    <trkpt lat="38.602325991" lon="34.89459699">
      <ele>1107.542</ele>
      <time>2021-10-12T15:55:47Z</time>
    </trkpt>
    <trkpt lat="38.602308976" lon="34.894568995">
      <ele>1107.485</ele>
      <time>2021-10-12T15:55:48Z</time>
    </trkpt>
    <trkpt lat="38.602292966" lon="34.894545022">
      <ele>1107.417</ele>
      <time>2021-10-12T15:55:49Z</time>
    </trkpt>
    <trkpt lat="38.602276035" lon="34.894528007">
      <ele>1107.329</ele>
      <time>2021-10-12T15:55:50Z</time>
    </trkpt>
    <trkpt lat="38.602259019" lon="34.894505963">
      <ele>1107.236</ele>
      <time>2021-10-12T15:55:51Z</time>
    </trkpt>
    <trkpt lat="38.602237981" lon="34.894484002">
      <ele>1107.105</ele>
      <time>2021-10-12T15:55:52Z</time>
    </trkpt>
    <trkpt lat="38.602217026" lon="34.894462042">
      <ele>1107.019</ele>
      <time>2021-10-12T15:55:53Z</time>
    </trkpt>
    <trkpt lat="38.602193976" lon="34.894434968">
      <ele>1107.194</ele>
      <time>2021-10-12T15:55:54Z</time>
    </trkpt>
    <trkpt lat="38.602174027" lon="34.89440999">
      <ele>1107.481</ele>
      <time>2021-10-12T15:55:55Z</time>
    </trkpt>
    <trkpt lat="38.602152988" lon="34.894384006">
      <ele>1107.739</ele>
      <time>2021-10-12T15:55:56Z</time>
    </trkpt>
    <trkpt lat="38.602129016" lon="34.894358022">
      <ele>1107.956</ele>
      <time>2021-10-12T15:55:57Z</time>
    </trkpt>
    <trkpt lat="38.602107977" lon="34.894327009">
      <ele>1108.158</ele>
      <time>2021-10-12T15:55:58Z</time>
    </trkpt>
    <trkpt lat="38.602088029" lon="34.894302031">
      <ele>1108.278</ele>
      <time>2021-10-12T15:55:59Z</time>
    </trkpt>
    <trkpt lat="38.602070007" lon="34.894275963">
      <ele>1108.37</ele>
      <time>2021-10-12T15:56:00Z</time>
    </trkpt>
    <trkpt lat="38.602050981" lon="34.894260038">
      <ele>1108.38</ele>
      <time>2021-10-12T15:56:01Z</time>
    </trkpt>
    <trkpt lat="38.602031032" lon="34.894237993">
      <ele>1108.383</ele>
      <time>2021-10-12T15:56:02Z</time>
    </trkpt>
    <trkpt lat="38.602008987" lon="34.894208992">
      <ele>1108.358</ele>
      <time>2021-10-12T15:56:03Z</time>
    </trkpt>
    <trkpt lat="38.601987027" lon="34.894182002">
      <ele>1108.281</ele>
      <time>2021-10-12T15:56:05Z</time>
    </trkpt>
    <trkpt lat="38.601968" lon="34.894151995">
      <ele>1108.231</ele>
      <time>2021-10-12T15:56:06Z</time>
    </trkpt>
    <trkpt lat="38.601946961" lon="34.894122994">
      <ele>1108.178</ele>
      <time>2021-10-12T15:56:07Z</time>
    </trkpt>
    <trkpt lat="38.601926006" lon="34.894093992">
      <ele>1108.227</ele>
      <time>2021-10-12T15:56:08Z</time>
    </trkpt>
    <trkpt lat="38.601904968" lon="34.894064991">
      <ele>1108.262</ele>
      <time>2021-10-12T15:56:09Z</time>
    </trkpt>
    <trkpt lat="38.601885019" lon="34.89403096">
      <ele>1108.28</ele>
      <time>2021-10-12T15:56:10Z</time>
    </trkpt>
    <trkpt lat="38.601870015" lon="34.894006988">
      <ele>1108.267</ele>
      <time>2021-10-12T15:56:11Z</time>
    </trkpt>
    <trkpt lat="38.601845037" lon="34.893978992">
      <ele>1108.192</ele>
      <time>2021-10-12T15:56:12Z</time>
    </trkpt>
    <trkpt lat="38.601822993" lon="34.893950997">
      <ele>1108.097</ele>
      <time>2021-10-12T15:56:14Z</time>
    </trkpt>
    <trkpt lat="38.601799021" lon="34.893921996">
      <ele>1107.959</ele>
      <time>2021-10-12T15:56:15Z</time>
    </trkpt>
    <trkpt lat="38.601779994" lon="34.893898023">
      <ele>1107.822</ele>
      <time>2021-10-12T15:56:16Z</time>
    </trkpt>
    <trkpt lat="38.601760967" lon="34.893874973">
      <ele>1107.713</ele>
      <time>2021-10-12T15:56:17Z</time>
    </trkpt>
    <trkpt lat="38.601740012" lon="34.893851001">
      <ele>1107.6</ele>
      <time>2021-10-12T15:56:18Z</time>
    </trkpt>
    <trkpt lat="38.601718973" lon="34.893825017">
      <ele>1107.463</ele>
      <time>2021-10-12T15:56:19Z</time>
    </trkpt>
    <trkpt lat="38.60170397" lon="34.893800039">
      <ele>1107.354</ele>
      <time>2021-10-12T15:56:20Z</time>
    </trkpt>
    <trkpt lat="38.60168796" lon="34.893763997">
      <ele>1107.222</ele>
      <time>2021-10-12T15:56:21Z</time>
    </trkpt>
    <trkpt lat="38.601674968" lon="34.893733989">
      <ele>1107.093</ele>
      <time>2021-10-12T15:56:22Z</time>
    </trkpt>
    <trkpt lat="38.601661976" lon="34.893702976">
      <ele>1107.017</ele>
      <time>2021-10-12T15:56:23Z</time>
    </trkpt>
    <trkpt lat="38.601644961" lon="34.893674981">
      <ele>1107.078</ele>
      <time>2021-10-12T15:56:24Z</time>
    </trkpt>
    <trkpt lat="38.60162803" lon="34.893646985">
      <ele>1107.139</ele>
      <time>2021-10-12T15:56:25Z</time>
    </trkpt>
    <trkpt lat="38.601607997" lon="34.893617984">
      <ele>1107.211</ele>
      <time>2021-10-12T15:56:26Z</time>
    </trkpt>
    <trkpt lat="38.601590982" lon="34.893588983">
      <ele>1107.432</ele>
      <time>2021-10-12T15:56:27Z</time>
    </trkpt>
    <trkpt lat="38.601572039" lon="34.893558975">
      <ele>1107.716</ele>
      <time>2021-10-12T15:56:28Z</time>
    </trkpt>
    <trkpt lat="38.601558041" lon="34.893529974">
      <ele>1107.975</ele>
      <time>2021-10-12T15:56:29Z</time>
    </trkpt>
    <trkpt lat="38.601535996" lon="34.893501978">
      <ele>1108.256</ele>
      <time>2021-10-12T15:56:31Z</time>
    </trkpt>
    <trkpt lat="38.601515964" lon="34.893481024">
      <ele>1108.479</ele>
      <time>2021-10-12T15:56:31Z</time>
    </trkpt>
    <trkpt lat="38.601490986" lon="34.893465014">
      <ele>1108.684</ele>
      <time>2021-10-12T15:56:33Z</time>
    </trkpt>
    <trkpt lat="38.601467013" lon="34.893452022">
      <ele>1108.864</ele>
      <time>2021-10-12T15:56:33Z</time>
    </trkpt>
    <trkpt lat="38.601443041" lon="34.893440036">
      <ele>1109.037</ele>
      <time>2021-10-12T15:56:34Z</time>
    </trkpt>
    <trkpt lat="38.601413034" lon="34.893443976">
      <ele>1109.116</ele>
      <time>2021-10-12T15:56:36Z</time>
    </trkpt>
    <trkpt lat="38.601380009" lon="34.893447999">
      <ele>1109.174</ele>
      <time>2021-10-12T15:56:37Z</time>
    </trkpt>
    <trkpt lat="38.601348996" lon="34.89345504">
      <ele>1109.124</ele>
      <time>2021-10-12T15:56:38Z</time>
    </trkpt>
    <trkpt lat="38.601322006" lon="34.893463003">
      <ele>1109.066</ele>
      <time>2021-10-12T15:56:39Z</time>
    </trkpt>
    <trkpt lat="38.601290993" lon="34.893472977">
      <ele>1108.995</ele>
      <time>2021-10-12T15:56:40Z</time>
    </trkpt>
    <trkpt lat="38.601268027" lon="34.893482029">
      <ele>1108.929</ele>
      <time>2021-10-12T15:56:41Z</time>
    </trkpt>
    <trkpt lat="38.601241959" lon="34.89349301">
      <ele>1108.85</ele>
      <time>2021-10-12T15:56:42Z</time>
    </trkpt>
    <trkpt lat="38.601213964" lon="34.893504996">
      <ele>1108.764</ele>
      <time>2021-10-12T15:56:43Z</time>
    </trkpt>
    <trkpt lat="38.601186974" lon="34.893509019">
      <ele>1108.735</ele>
      <time>2021-10-12T15:56:44Z</time>
    </trkpt>
    <trkpt lat="38.60116099" lon="34.893516982">
      <ele>1108.678</ele>
      <time>2021-10-12T15:56:45Z</time>
    </trkpt>
    <trkpt lat="38.601129977" lon="34.893519999">
      <ele>1108.656</ele>
      <time>2021-10-12T15:56:46Z</time>
    </trkpt>
    <trkpt lat="38.601101981" lon="34.893523017">
      <ele>1108.646</ele>
      <time>2021-10-12T15:56:47Z</time>
    </trkpt>
    <trkpt lat="38.60107298" lon="34.89352704">
      <ele>1108.659</ele>
      <time>2021-10-12T15:56:48Z</time>
    </trkpt>
    <trkpt lat="38.601043979" lon="34.893532991">
      <ele>1108.668</ele>
      <time>2021-10-12T15:56:49Z</time>
    </trkpt>
    <trkpt lat="38.601015983" lon="34.893540032">
      <ele>1108.679</ele>
      <time>2021-10-12T15:56:51Z</time>
    </trkpt>
    <trkpt lat="38.600988993" lon="34.893546989">
      <ele>1108.698</ele>
      <time>2021-10-12T15:56:52Z</time>
    </trkpt>
    <trkpt lat="38.600962004" lon="34.893555036">
      <ele>1108.724</ele>
      <time>2021-10-12T15:56:53Z</time>
    </trkpt>
    <trkpt lat="38.60093602" lon="34.893560987">
      <ele>1108.764</ele>
      <time>2021-10-12T15:56:54Z</time>
    </trkpt>
    <trkpt lat="38.600908024" lon="34.893566016">
      <ele>1108.818</ele>
      <time>2021-10-12T15:56:55Z</time>
    </trkpt>
    <trkpt lat="38.600879023" lon="34.893568028">
      <ele>1108.887</ele>
      <time>2021-10-12T15:56:56Z</time>
    </trkpt>
    <trkpt lat="38.600850021" lon="34.893569034">
      <ele>1108.958</ele>
      <time>2021-10-12T15:56:57Z</time>
    </trkpt>
    <trkpt lat="38.600822026" lon="34.893567022">
      <ele>1109.15</ele>
      <time>2021-10-12T15:56:58Z</time>
    </trkpt>
    <trkpt lat="38.60079797" lon="34.893566016">
      <ele>1109.468</ele>
      <time>2021-10-12T15:56:59Z</time>
    </trkpt>
    <trkpt lat="38.60069504" lon="34.893541038">
      <ele>1110.74</ele>
      <time>2021-10-12T15:57:03Z</time>
    </trkpt>
    <trkpt lat="38.600585992" lon="34.893531986">
      <ele>1112.054</ele>
      <time>2021-10-12T15:57:07Z</time>
    </trkpt>
    <trkpt lat="38.600557996" lon="34.893528968">
      <ele>1112.379</ele>
      <time>2021-10-12T15:57:08Z</time>
    </trkpt>
    <trkpt lat="38.600525977" lon="34.893522011">
      <ele>1112.644</ele>
      <time>2021-10-12T15:57:09Z</time>
    </trkpt>
    <trkpt lat="38.600494964" lon="34.893512037">
      <ele>1112.863</ele>
      <time>2021-10-12T15:57:10Z</time>
    </trkpt>
    <trkpt lat="38.600464035" lon="34.893504996">
      <ele>1113.099</ele>
      <time>2021-10-12T15:57:11Z</time>
    </trkpt>
    <trkpt lat="38.600430004" lon="34.89349301">
      <ele>1113.313</ele>
      <time>2021-10-12T15:57:13Z</time>
    </trkpt>
    <trkpt lat="38.600394968" lon="34.893482029">
      <ele>1113.536</ele>
      <time>2021-10-12T15:57:14Z</time>
    </trkpt>
    <trkpt lat="38.600358004" lon="34.893469959">
      <ele>1113.756</ele>
      <time>2021-10-12T15:57:15Z</time>
    </trkpt>
    <trkpt lat="38.600321962" lon="34.893458979">
      <ele>1113.967</ele>
      <time>2021-10-12T15:57:17Z</time>
    </trkpt>
    <trkpt lat="38.600288015" lon="34.893452022">
      <ele>1114.192</ele>
      <time>2021-10-12T15:57:18Z</time>
    </trkpt>
    <trkpt lat="38.600258008" lon="34.893444981">
      <ele>1114.292</ele>
      <time>2021-10-12T15:57:19Z</time>
    </trkpt>
    <trkpt lat="38.600142002" lon="34.893425032">
      <ele>1114.474</ele>
      <time>2021-10-12T15:57:23Z</time>
    </trkpt>
    <trkpt lat="38.600036977" lon="34.893416986">
      <ele>1114.687</ele>
      <time>2021-10-12T15:57:27Z</time>
    </trkpt>
    <trkpt lat="38.600008981" lon="34.893405">
      <ele>1114.523</ele>
      <time>2021-10-12T15:57:28Z</time>
    </trkpt>
    <trkpt lat="38.599956008" lon="34.893389996">
      <ele>1114.922</ele>
      <time>2021-10-12T15:57:30Z</time>
    </trkpt>
    <trkpt lat="38.599926" lon="34.893383039">
      <ele>1115.235</ele>
      <time>2021-10-12T15:57:31Z</time>
    </trkpt>
    <trkpt lat="38.599893982" lon="34.893383039">
      <ele>1115.737</ele>
      <time>2021-10-12T15:57:33Z</time>
    </trkpt>
    <trkpt lat="38.59986498" lon="34.893381028">
      <ele>1116.141</ele>
      <time>2021-10-12T15:57:34Z</time>
    </trkpt>
    <trkpt lat="38.599835979" lon="34.893384967">
      <ele>1116.697</ele>
      <time>2021-10-12T15:57:35Z</time>
    </trkpt>
    <trkpt lat="38.599804966" lon="34.89338899">
      <ele>1117.292</ele>
      <time>2021-10-12T15:57:36Z</time>
    </trkpt>
    <trkpt lat="38.599775964" lon="34.89338899">
      <ele>1117.752</ele>
      <time>2021-10-12T15:57:37Z</time>
    </trkpt>
    <trkpt lat="38.599752998" lon="34.893387984">
      <ele>1118.087</ele>
      <time>2021-10-12T15:57:38Z</time>
    </trkpt>
    <trkpt lat="38.599735983" lon="34.893370969">
      <ele>1117.872</ele>
      <time>2021-10-12T15:57:39Z</time>
    </trkpt>
    <trkpt lat="38.599719973" lon="34.893345991">
      <ele>1117.436</ele>
      <time>2021-10-12T15:57:40Z</time>
    </trkpt>
    <trkpt lat="38.599716034" lon="34.893317996">
      <ele>1116.921</ele>
      <time>2021-10-12T15:57:40Z</time>
    </trkpt>
    <trkpt lat="38.599726008" lon="34.89329">
      <ele>1116.174</ele>
      <time>2021-10-12T15:57:41Z</time>
    </trkpt>
    <trkpt lat="38.599736989" lon="34.893268961">
      <ele>1115.678</ele>
      <time>2021-10-12T15:57:42Z</time>
    </trkpt>
    <trkpt lat="38.599737994" lon="34.893238032">
      <ele>1115.135</ele>
      <time>2021-10-12T15:57:43Z</time>
    </trkpt>
    <trkpt lat="38.599720979" lon="34.893210037">
      <ele>1114.815</ele>
      <time>2021-10-12T15:57:44Z</time>
    </trkpt>
    <trkpt lat="38.599694995" lon="34.893185981">
      <ele>1115.074</ele>
      <time>2021-10-12T15:57:45Z</time>
    </trkpt>
    <trkpt lat="38.599662976" lon="34.893172989">
      <ele>1115.664</ele>
      <time>2021-10-12T15:57:46Z</time>
    </trkpt>
    <trkpt lat="38.599642022" lon="34.893167038">
      <ele>1116.087</ele>
      <time>2021-10-12T15:57:47Z</time>
    </trkpt>
    <trkpt lat="38.599619977" lon="34.89315304">
      <ele>1116.351</ele>
      <time>2021-10-12T15:57:48Z</time>
    </trkpt>
    <trkpt lat="38.599596005" lon="34.893135019">
      <ele>1116.547</ele>
      <time>2021-10-12T15:57:49Z</time>
    </trkpt>
    <trkpt lat="38.599573039" lon="34.893118003">
      <ele>1116.709</ele>
      <time>2021-10-12T15:57:50Z</time>
    </trkpt>
    <trkpt lat="38.599544959" lon="34.893103">
      <ele>1117.01</ele>
      <time>2021-10-12T15:57:51Z</time>
    </trkpt>
    <trkpt lat="38.599521993" lon="34.893092019">
      <ele>1117.265</ele>
      <time>2021-10-12T15:57:52Z</time>
    </trkpt>
    <trkpt lat="38.599493997" lon="34.893082967">
      <ele>1117.666</ele>
      <time>2021-10-12T15:57:53Z</time>
    </trkpt>
    <trkpt lat="38.599470025" lon="34.893078022">
      <ele>1118.072</ele>
      <time>2021-10-12T15:57:54Z</time>
    </trkpt>
    <trkpt lat="38.599439012" lon="34.893067963">
      <ele>1118.532</ele>
      <time>2021-10-12T15:57:55Z</time>
    </trkpt>
    <trkpt lat="38.599414034" lon="34.893052038">
      <ele>1118.929</ele>
      <time>2021-10-12T15:57:56Z</time>
    </trkpt>
    <trkpt lat="38.599389978" lon="34.893039968">
      <ele>1119.496</ele>
      <time>2021-10-12T15:57:57Z</time>
    </trkpt>
    <trkpt lat="38.59930004" lon="34.892995041">
      <ele>1121.354</ele>
      <time>2021-10-12T15:58:01Z</time>
    </trkpt>
    <trkpt lat="38.599268021" lon="34.892985988">
      <ele>1122.078</ele>
      <time>2021-10-12T15:58:02Z</time>
    </trkpt>
    <trkpt lat="38.599231979" lon="34.892980037">
      <ele>1122.965</ele>
      <time>2021-10-12T15:58:03Z</time>
    </trkpt>
    <trkpt lat="38.599145981" lon="34.892935026">
      <ele>1123.966</ele>
      <time>2021-10-12T15:58:07Z</time>
    </trkpt>
    <trkpt lat="38.599084038" lon="34.892884986">
      <ele>1123.94</ele>
      <time>2021-10-12T15:58:10Z</time>
    </trkpt>
    <trkpt lat="38.599020001" lon="34.892830001">
      <ele>1124.001</ele>
      <time>2021-10-12T15:58:12Z</time>
    </trkpt>
    <trkpt lat="38.598998962" lon="34.892792031">
      <ele>1123.575</ele>
      <time>2021-10-12T15:58:14Z</time>
    </trkpt>
    <trkpt lat="38.59897499" lon="34.892703015">
      <ele>1122.215</ele>
      <time>2021-10-12T15:58:17Z</time>
    </trkpt>
    <trkpt lat="38.598960992" lon="34.892574018">
      <ele>1119.782</ele>
      <time>2021-10-12T15:58:20Z</time>
    </trkpt>
    <trkpt lat="38.598961998" lon="34.89241099">
      <ele>1116.657</ele>
      <time>2021-10-12T15:58:25Z</time>
    </trkpt>
    <trkpt lat="38.598969961" lon="34.892276041">
      <ele>1114.296</ele>
      <time>2021-10-12T15:58:29Z</time>
    </trkpt>
    <trkpt lat="38.598990999" lon="34.892156012">
      <ele>1113.44</ele>
      <time>2021-10-12T15:58:33Z</time>
    </trkpt>
    <trkpt lat="38.599000974" lon="34.89201704">
      <ele>1113.789</ele>
      <time>2021-10-12T15:58:37Z</time>
    </trkpt>
    <trkpt lat="38.599004997" lon="34.891888965">
      <ele>1114.083</ele>
      <time>2021-10-12T15:58:40Z</time>
    </trkpt>
    <trkpt lat="38.599024024" lon="34.89174597">
      <ele>1114.348</ele>
      <time>2021-10-12T15:58:45Z</time>
    </trkpt>
    <trkpt lat="38.599045984" lon="34.891633987">
      <ele>1114.683</ele>
      <time>2021-10-12T15:58:48Z</time>
    </trkpt>
    <trkpt lat="38.599072974" lon="34.891484035">
      <ele>1115.32</ele>
      <time>2021-10-12T15:58:52Z</time>
    </trkpt>
    <trkpt lat="38.599085966" lon="34.891401976">
      <ele>1115.662</ele>
      <time>2021-10-12T15:58:55Z</time>
    </trkpt>
    <trkpt lat="38.599094013" lon="34.891364006">
      <ele>1115.715</ele>
      <time>2021-10-12T15:58:56Z</time>
    </trkpt>
    <trkpt lat="38.59909703" lon="34.891321007">
      <ele>1115.688</ele>
      <time>2021-10-12T15:58:57Z</time>
    </trkpt>
    <trkpt lat="38.599102981" lon="34.891283959">
      <ele>1115.684</ele>
      <time>2021-10-12T15:58:58Z</time>
    </trkpt>
    <trkpt lat="38.599110022" lon="34.891245989">
      <ele>1115.691</ele>
      <time>2021-10-12T15:58:59Z</time>
    </trkpt>
    <trkpt lat="38.599118991" lon="34.891210031">
      <ele>1115.718</ele>
      <time>2021-10-12T15:59:01Z</time>
    </trkpt>
    <trkpt lat="38.599119997" lon="34.891169965">
      <ele>1115.7</ele>
      <time>2021-10-12T15:59:02Z</time>
    </trkpt>
    <trkpt lat="38.599129971" lon="34.891128978">
      <ele>1115.744</ele>
      <time>2021-10-12T15:59:03Z</time>
    </trkpt>
    <trkpt lat="38.599169031" lon="34.891022025">
      <ele>1115.694</ele>
      <time>2021-10-12T15:59:06Z</time>
    </trkpt>
    <trkpt lat="38.599176994" lon="34.890989">
      <ele>1115.618</ele>
      <time>2021-10-12T15:59:07Z</time>
    </trkpt>
    <trkpt lat="38.59918504" lon="34.890957987">
      <ele>1115.545</ele>
      <time>2021-10-12T15:59:08Z</time>
    </trkpt>
    <trkpt lat="38.599180011" lon="34.890926974">
      <ele>1115.401</ele>
      <time>2021-10-12T15:59:09Z</time>
    </trkpt>
    <trkpt lat="38.599170037" lon="34.890899984">
      <ele>1115.255</ele>
      <time>2021-10-12T15:59:10Z</time>
    </trkpt>
    <trkpt lat="38.599159978" lon="34.890874">
      <ele>1115.098</ele>
      <time>2021-10-12T15:59:11Z</time>
    </trkpt>
    <trkpt lat="38.599150004" lon="34.890848016">
      <ele>1114.933</ele>
      <time>2021-10-12T15:59:12Z</time>
    </trkpt>
    <trkpt lat="38.599133994" lon="34.890817003">
      <ele>1114.786</ele>
      <time>2021-10-12T15:59:13Z</time>
    </trkpt>
    <trkpt lat="38.599121002" lon="34.890784984">
      <ele>1114.757</ele>
      <time>2021-10-12T15:59:14Z</time>
    </trkpt>
    <trkpt lat="38.599105999" lon="34.890754977">
      <ele>1114.748</ele>
      <time>2021-10-12T15:59:15Z</time>
    </trkpt>
    <trkpt lat="38.599087978" lon="34.890722958">
      <ele>1114.771</ele>
      <time>2021-10-12T15:59:16Z</time>
    </trkpt>
    <trkpt lat="38.599069035" lon="34.890692029">
      <ele>1114.833</ele>
      <time>2021-10-12T15:59:17Z</time>
    </trkpt>
    <trkpt lat="38.599051014" lon="34.89066001">
      <ele>1114.947</ele>
      <time>2021-10-12T15:59:18Z</time>
    </trkpt>
    <trkpt lat="38.599033998" lon="34.890632015">
      <ele>1115.083</ele>
      <time>2021-10-12T15:59:19Z</time>
    </trkpt>
    <trkpt lat="38.599013966" lon="34.890605025">
      <ele>1115.256</ele>
      <time>2021-10-12T15:59:20Z</time>
    </trkpt>
    <trkpt lat="38.598994017" lon="34.890579041">
      <ele>1115.464</ele>
      <time>2021-10-12T15:59:22Z</time>
    </trkpt>
    <trkpt lat="38.598973984" lon="34.890545011">
      <ele>1115.846</ele>
      <time>2021-10-12T15:59:23Z</time>
    </trkpt>
    <trkpt lat="38.598955963" lon="34.890520032">
      <ele>1116.27</ele>
      <time>2021-10-12T15:59:24Z</time>
    </trkpt>
    <trkpt lat="38.598934002" lon="34.890491031">
      <ele>1116.767</ele>
      <time>2021-10-12T15:59:25Z</time>
    </trkpt>
    <trkpt lat="38.598911036" lon="34.890467981">
      <ele>1117.181</ele>
      <time>2021-10-12T15:59:26Z</time>
    </trkpt>
    <trkpt lat="38.598888991" lon="34.890444009">
      <ele>1117.606</ele>
      <time>2021-10-12T15:59:27Z</time>
    </trkpt>
    <trkpt lat="38.598868037" lon="34.890419031">
      <ele>1117.853</ele>
      <time>2021-10-12T15:59:28Z</time>
    </trkpt>
    <trkpt lat="38.598846998" lon="34.89039598">
      <ele>1118.083</ele>
      <time>2021-10-12T15:59:29Z</time>
    </trkpt>
    <trkpt lat="38.598825959" lon="34.890377959">
      <ele>1118.249</ele>
      <time>2021-10-12T15:59:30Z</time>
    </trkpt>
    <trkpt lat="38.598806011" lon="34.890363039">
      <ele>1118.382</ele>
      <time>2021-10-12T15:59:31Z</time>
    </trkpt>
    <trkpt lat="38.598782038" lon="34.890349042">
      <ele>1118.49</ele>
      <time>2021-10-12T15:59:32Z</time>
    </trkpt>
    <trkpt lat="38.598758988" lon="34.890331021">
      <ele>1118.676</ele>
      <time>2021-10-12T15:59:33Z</time>
    </trkpt>
    <trkpt lat="38.598736022" lon="34.890314005">
      <ele>1118.856</ele>
      <time>2021-10-12T15:59:34Z</time>
    </trkpt>
    <trkpt lat="38.598711966" lon="34.890299002">
      <ele>1119.009</ele>
      <time>2021-10-12T15:59:35Z</time>
    </trkpt>
    <trkpt lat="38.598687993" lon="34.890285004">
      <ele>1119.154</ele>
      <time>2021-10-12T15:59:36Z</time>
    </trkpt>
    <trkpt lat="38.59861901" lon="34.890243011">
      <ele>1119.407</ele>
      <time>2021-10-12T15:59:39Z</time>
    </trkpt>
    <trkpt lat="38.598543992" lon="34.890199006">
      <ele>1119.057</ele>
      <time>2021-10-12T15:59:42Z</time>
    </trkpt>
    <trkpt lat="38.598518008" lon="34.890176039">
      <ele>1118.971</ele>
      <time>2021-10-12T15:59:43Z</time>
    </trkpt>
    <trkpt lat="38.598497976" lon="34.890148966">
      <ele>1118.98</ele>
      <time>2021-10-12T15:59:44Z</time>
    </trkpt>
    <trkpt lat="38.598479033" lon="34.890129017">
      <ele>1118.926</ele>
      <time>2021-10-12T15:59:45Z</time>
    </trkpt>
    <trkpt lat="38.598457994" lon="34.890106972">
      <ele>1118.852</ele>
      <time>2021-10-12T15:59:46Z</time>
    </trkpt>
    <trkpt lat="38.598433016" lon="34.890087023">
      <ele>1118.696</ele>
      <time>2021-10-12T15:59:47Z</time>
    </trkpt>
    <trkpt lat="38.598408038" lon="34.890070008">
      <ele>1118.504</ele>
      <time>2021-10-12T15:59:48Z</time>
    </trkpt>
    <trkpt lat="38.598379958" lon="34.890055005">
      <ele>1118.242</ele>
      <time>2021-10-12T15:59:49Z</time>
    </trkpt>
    <trkpt lat="38.598348023" lon="34.890037989">
      <ele>1117.931</ele>
      <time>2021-10-12T15:59:50Z</time>
    </trkpt>
    <trkpt lat="38.598322039" lon="34.89002198">
      <ele>1117.811</ele>
      <time>2021-10-12T15:59:52Z</time>
    </trkpt>
    <trkpt lat="38.598298989" lon="34.890007982">
      <ele>1117.83</ele>
      <time>2021-10-12T15:59:53Z</time>
    </trkpt>
    <trkpt lat="38.598270994" lon="34.889989961">
      <ele>1117.848</ele>
      <time>2021-10-12T15:59:54Z</time>
    </trkpt>
    <trkpt lat="38.59824501" lon="34.889973029">
      <ele>1117.876</ele>
      <time>2021-10-12T15:59:55Z</time>
    </trkpt>
    <trkpt lat="38.598219026" lon="34.889955008">
      <ele>1117.912</ele>
      <time>2021-10-12T15:59:56Z</time>
    </trkpt>
    <trkpt lat="38.598190024" lon="34.889938999">
      <ele>1117.923</ele>
      <time>2021-10-12T15:59:57Z</time>
    </trkpt>
    <trkpt lat="38.598164041" lon="34.889921984">
      <ele>1117.952</ele>
      <time>2021-10-12T15:59:58Z</time>
    </trkpt>
    <trkpt lat="38.598144008" lon="34.889903963">
      <ele>1118.01</ele>
      <time>2021-10-12T15:59:59Z</time>
    </trkpt>
    <trkpt lat="38.598120036" lon="34.889887031">
      <ele>1118.046</ele>
      <time>2021-10-12T16:00:00Z</time>
    </trkpt>
    <trkpt lat="38.598093968" lon="34.889862975">
      <ele>1118.125</ele>
      <time>2021-10-12T16:00:01Z</time>
    </trkpt>
    <trkpt lat="38.598071001" lon="34.889843026">
      <ele>1118.186</ele>
      <time>2021-10-12T16:00:02Z</time>
    </trkpt>
    <trkpt lat="38.598044012" lon="34.889825005">
      <ele>1118.275</ele>
      <time>2021-10-12T16:00:03Z</time>
    </trkpt>
    <trkpt lat="38.598017022" lon="34.88980799">
      <ele>1118.425</ele>
      <time>2021-10-12T16:00:04Z</time>
    </trkpt>
    <trkpt lat="38.597982991" lon="34.88979701">
      <ele>1118.532</ele>
      <time>2021-10-12T16:00:06Z</time>
    </trkpt>
    <trkpt lat="38.597951978" lon="34.889788041">
      <ele>1118.614</ele>
      <time>2021-10-12T16:00:07Z</time>
    </trkpt>
    <trkpt lat="38.597925995" lon="34.889788963">
      <ele>1118.632</ele>
      <time>2021-10-12T16:00:08Z</time>
    </trkpt>
    <trkpt lat="38.597900011" lon="34.889788041">
      <ele>1118.659</ele>
      <time>2021-10-12T16:00:09Z</time>
    </trkpt>
    <trkpt lat="38.597876038" lon="34.889784018">
      <ele>1118.699</ele>
      <time>2021-10-12T16:00:10Z</time>
    </trkpt>
    <trkpt lat="38.597850977" lon="34.889792986">
      <ele>1118.678</ele>
      <time>2021-10-12T16:00:11Z</time>
    </trkpt>
    <trkpt lat="38.597829016" lon="34.889794998">
      <ele>1118.69</ele>
      <time>2021-10-12T16:00:12Z</time>
    </trkpt>
    <trkpt lat="38.597810995" lon="34.889805978">
      <ele>1118.662</ele>
      <time>2021-10-12T16:00:12Z</time>
    </trkpt>
    <trkpt lat="38.597787023" lon="34.889816036">
      <ele>1118.651</ele>
      <time>2021-10-12T16:00:13Z</time>
    </trkpt>
    <trkpt lat="38.597760033" lon="34.889826011">
      <ele>1118.634</ele>
      <time>2021-10-12T16:00:14Z</time>
    </trkpt>
    <trkpt lat="38.597710999" lon="34.889853001">
      <ele>1118.628</ele>
      <time>2021-10-12T16:00:16Z</time>
    </trkpt>
    <trkpt lat="38.597687026" lon="34.889863981">
      <ele>1118.663</ele>
      <time>2021-10-12T16:00:17Z</time>
    </trkpt>
    <trkpt lat="38.59757999" lon="34.88988502">
      <ele>1118.954</ele>
      <time>2021-10-12T16:00:21Z</time>
    </trkpt>
    <trkpt lat="38.597486028" lon="34.889904968">
      <ele>1119.283</ele>
      <time>2021-10-12T16:00:25Z</time>
    </trkpt>
    <trkpt lat="38.597381003" lon="34.88992299">
      <ele>1119.136</ele>
      <time>2021-10-12T16:00:29Z</time>
    </trkpt>
    <trkpt lat="38.597278995" lon="34.889973029">
      <ele>1119.087</ele>
      <time>2021-10-12T16:00:33Z</time>
    </trkpt>
    <trkpt lat="38.597168019" lon="34.889989039">
      <ele>1119.343</ele>
      <time>2021-10-12T16:00:37Z</time>
    </trkpt>
    <trkpt lat="38.597142035" lon="34.889983004">
      <ele>1119.498</ele>
      <time>2021-10-12T16:00:38Z</time>
    </trkpt>
    <trkpt lat="38.597118985" lon="34.889983004">
      <ele>1119.659</ele>
      <time>2021-10-12T16:00:39Z</time>
    </trkpt>
    <trkpt lat="38.597099036" lon="34.889975041">
      <ele>1119.757</ele>
      <time>2021-10-12T16:00:39Z</time>
    </trkpt>
    <trkpt lat="38.597075986" lon="34.889968">
      <ele>1119.877</ele>
      <time>2021-10-12T16:00:40Z</time>
    </trkpt>
    <trkpt lat="38.597052014" lon="34.889955008">
      <ele>1119.964</ele>
      <time>2021-10-12T16:00:41Z</time>
    </trkpt>
    <trkpt lat="38.597029969" lon="34.889942016">
      <ele>1120.031</ele>
      <time>2021-10-12T16:00:42Z</time>
    </trkpt>
    <trkpt lat="38.597005997" lon="34.889927013">
      <ele>1120.09</ele>
      <time>2021-10-12T16:00:43Z</time>
    </trkpt>
    <trkpt lat="38.596980013" lon="34.889909998">
      <ele>1120.137</ele>
      <time>2021-10-12T16:00:44Z</time>
    </trkpt>
    <trkpt lat="38.596952017" lon="34.889893988">
      <ele>1120.193</ele>
      <time>2021-10-12T16:00:45Z</time>
    </trkpt>
    <trkpt lat="38.596926033" lon="34.889880996">
      <ele>1120.853</ele>
      <time>2021-10-12T16:00:46Z</time>
    </trkpt>
    <trkpt lat="38.596903989" lon="34.889861969">
      <ele>1121.537</ele>
      <time>2021-10-12T16:00:47Z</time>
    </trkpt>
    <trkpt lat="38.596881023" lon="34.889840009">
      <ele>1122.193</ele>
      <time>2021-10-12T16:00:48Z</time>
    </trkpt>
    <trkpt lat="38.596859984" lon="34.889819976">
      <ele>1122.761</ele>
      <time>2021-10-12T16:00:49Z</time>
    </trkpt>
    <trkpt lat="38.596837018" lon="34.889801033">
      <ele>1123.377</ele>
      <time>2021-10-12T16:00:50Z</time>
    </trkpt>
    <trkpt lat="38.596814973" lon="34.889782006">
      <ele>1123.926</ele>
      <time>2021-10-12T16:00:51Z</time>
    </trkpt>
    <trkpt lat="38.596788989" lon="34.88975401">
      <ele>1124.458</ele>
      <time>2021-10-12T16:00:53Z</time>
    </trkpt>
    <trkpt lat="38.596765017" lon="34.88973096">
      <ele>1124.937</ele>
      <time>2021-10-12T16:00:54Z</time>
    </trkpt>
    <trkpt lat="38.596742973" lon="34.889711011">
      <ele>1125.429</ele>
      <time>2021-10-12T16:00:55Z</time>
    </trkpt>
    <trkpt lat="38.596725035" lon="34.889687961">
      <ele>1125.791</ele>
      <time>2021-10-12T16:00:56Z</time>
    </trkpt>
    <trkpt lat="38.59670802" lon="34.889663989">
      <ele>1126.094</ele>
      <time>2021-10-12T16:00:57Z</time>
    </trkpt>
    <trkpt lat="38.596689999" lon="34.889642028">
      <ele>1126.426</ele>
      <time>2021-10-12T16:00:58Z</time>
    </trkpt>
    <trkpt lat="38.596671978" lon="34.889621995">
      <ele>1126.759</ele>
      <time>2021-10-12T16:00:58Z</time>
    </trkpt>
    <trkpt lat="38.596658986" lon="34.889597017">
      <ele>1127.228</ele>
      <time>2021-10-12T16:00:59Z</time>
    </trkpt>
    <trkpt lat="38.596647" lon="34.889564998">
      <ele>1127.789</ele>
      <time>2021-10-12T16:01:00Z</time>
    </trkpt>
    <trkpt lat="38.596633002" lon="34.889528034">
      <ele>1128.448</ele>
      <time>2021-10-12T16:01:02Z</time>
    </trkpt>
    <trkpt lat="38.596624034" lon="34.889487969">
      <ele>1128.693</ele>
      <time>2021-10-12T16:01:03Z</time>
    </trkpt>
    <trkpt lat="38.596622022" lon="34.889442036">
      <ele>1128.352</ele>
      <time>2021-10-12T16:01:04Z</time>
    </trkpt>
    <trkpt lat="38.596641971" lon="34.889307003">
      <ele>1125.701</ele>
      <time>2021-10-12T16:01:08Z</time>
    </trkpt>
    <trkpt lat="38.59668497" lon="34.889188986">
      <ele>1122.881</ele>
      <time>2021-10-12T16:01:12Z</time>
    </trkpt>
    <trkpt lat="38.596728975" lon="34.889064012">
      <ele>1122.269</ele>
      <time>2021-10-12T16:01:16Z</time>
    </trkpt>
    <trkpt lat="38.596748002" lon="34.889026964">
      <ele>1122.123</ele>
      <time>2021-10-12T16:01:17Z</time>
    </trkpt>
    <trkpt lat="38.59676904" lon="34.889003998">
      <ele>1121.957</ele>
      <time>2021-10-12T16:01:18Z</time>
    </trkpt>
    <trkpt lat="38.596787984" lon="34.88897902">
      <ele>1121.843</ele>
      <time>2021-10-12T16:01:19Z</time>
    </trkpt>
    <trkpt lat="38.596808016" lon="34.888956975">
      <ele>1121.733</ele>
      <time>2021-10-12T16:01:20Z</time>
    </trkpt>
    <trkpt lat="38.596827965" lon="34.888933003">
      <ele>1121.654</ele>
      <time>2021-10-12T16:01:21Z</time>
    </trkpt>
    <trkpt lat="38.596854033" lon="34.888910037">
      <ele>1121.548</ele>
      <time>2021-10-12T16:01:22Z</time>
    </trkpt>
    <trkpt lat="38.596874988" lon="34.888893021">
      <ele>1121.478</ele>
      <time>2021-10-12T16:01:23Z</time>
    </trkpt>
    <trkpt lat="38.596965009" lon="34.888803">
      <ele>1121.618</ele>
      <time>2021-10-12T16:01:27Z</time>
    </trkpt>
    <trkpt lat="38.597024018" lon="34.88869898">
      <ele>1122.367</ele>
      <time>2021-10-12T16:01:31Z</time>
    </trkpt>
    <trkpt lat="38.597031981" lon="34.888675008">
      <ele>1122.54</ele>
      <time>2021-10-12T16:01:32Z</time>
    </trkpt>
    <trkpt lat="38.597036004" lon="34.888640977">
      <ele>1122.785</ele>
      <time>2021-10-12T16:01:33Z</time>
    </trkpt>
    <trkpt lat="38.597052014" lon="34.888605019">
      <ele>1123.022</ele>
      <time>2021-10-12T16:01:34Z</time>
    </trkpt>
    <trkpt lat="38.597061988" lon="34.888573">
      <ele>1123.137</ele>
      <time>2021-10-12T16:01:35Z</time>
    </trkpt>
    <trkpt lat="38.597102975" lon="34.888495971">
      <ele>1123.415</ele>
      <time>2021-10-12T16:01:38Z</time>
    </trkpt>
    <trkpt lat="38.597116973" lon="34.888478033">
      <ele>1123.479</ele>
      <time>2021-10-12T16:01:39Z</time>
    </trkpt>
    <trkpt lat="38.597128959" lon="34.888446014">
      <ele>1123.594</ele>
      <time>2021-10-12T16:01:40Z</time>
    </trkpt>
    <trkpt lat="38.597145975" lon="34.88841299">
      <ele>1123.713</ele>
      <time>2021-10-12T16:01:41Z</time>
    </trkpt>
    <trkpt lat="38.597165002" lon="34.888382982">
      <ele>1123.821</ele>
      <time>2021-10-12T16:01:42Z</time>
    </trkpt>
    <trkpt lat="38.59718604" lon="34.888319029">
      <ele>1124.007</ele>
      <time>2021-10-12T16:01:44Z</time>
    </trkpt>
    <trkpt lat="38.59718998" lon="34.888282986">
      <ele>1124.021</ele>
      <time>2021-10-12T16:01:45Z</time>
    </trkpt>
    <trkpt lat="38.597199032" lon="34.888245016">
      <ele>1124.027</ele>
      <time>2021-10-12T16:01:46Z</time>
    </trkpt>
    <trkpt lat="38.597214036" lon="34.888183996">
      <ele>1124.016</ele>
      <time>2021-10-12T16:01:48Z</time>
    </trkpt>
    <trkpt lat="38.597220993" lon="34.888159018">
      <ele>1124.003</ele>
      <time>2021-10-12T16:01:49Z</time>
    </trkpt>
    <trkpt lat="38.597221998" lon="34.888132028">
      <ele>1124.001</ele>
      <time>2021-10-12T16:01:50Z</time>
    </trkpt>
    <trkpt lat="38.597227028" lon="34.888106966">
      <ele>1124.066</ele>
      <time>2021-10-12T16:01:50Z</time>
    </trkpt>
    <trkpt lat="38.597233985" lon="34.888078971">
      <ele>1124.166</ele>
      <time>2021-10-12T16:01:51Z</time>
    </trkpt>
    <trkpt lat="38.597244965" lon="34.888052987">
      <ele>1124.32</ele>
      <time>2021-10-12T16:01:52Z</time>
    </trkpt>
    <trkpt lat="38.597253012" lon="34.888020968">
      <ele>1124.346</ele>
      <time>2021-10-12T16:01:53Z</time>
    </trkpt>
    <trkpt lat="38.597256029" lon="34.887989033">
      <ele>1124.306</ele>
      <time>2021-10-12T16:01:54Z</time>
    </trkpt>
    <trkpt lat="38.59726198" lon="34.887951985">
      <ele>1124.306</ele>
      <time>2021-10-12T16:01:55Z</time>
    </trkpt>
    <trkpt lat="38.597270027" lon="34.887918038">
      <ele>1124.364</ele>
      <time>2021-10-12T16:01:56Z</time>
    </trkpt>
    <trkpt lat="38.597280001" lon="34.88788099">
      <ele>1124.465</ele>
      <time>2021-10-12T16:01:57Z</time>
    </trkpt>
    <trkpt lat="38.597287964" lon="34.887851989">
      <ele>1124.561</ele>
      <time>2021-10-12T16:01:58Z</time>
    </trkpt>
    <trkpt lat="38.597304979" lon="34.887742018">
      <ele>1124.749</ele>
      <time>2021-10-12T16:02:01Z</time>
    </trkpt>
    <trkpt lat="38.597329035" lon="34.887627019">
      <ele>1125.098</ele>
      <time>2021-10-12T16:02:05Z</time>
    </trkpt>
    <trkpt lat="38.597336998" lon="34.88750699">
      <ele>1125.076</ele>
      <time>2021-10-12T16:02:08Z</time>
    </trkpt>
    <trkpt lat="38.59734999" lon="34.887437001">
      <ele>1125.422</ele>
      <time>2021-10-12T16:02:10Z</time>
    </trkpt>
    <trkpt lat="38.597368011" lon="34.887300041">
      <ele>1125.966</ele>
      <time>2021-10-12T16:02:14Z</time>
    </trkpt>
    <trkpt lat="38.597371029" lon="34.887243966">
      <ele>1126.106</ele>
      <time>2021-10-12T16:02:16Z</time>
    </trkpt>
    <trkpt lat="38.597368011" lon="34.887211025">
      <ele>1126.159</ele>
      <time>2021-10-12T16:02:17Z</time>
    </trkpt>
    <trkpt lat="38.597363988" lon="34.887181018">
      <ele>1126.262</ele>
      <time>2021-10-12T16:02:18Z</time>
    </trkpt>
    <trkpt lat="38.597357031" lon="34.887147993">
      <ele>1126.346</ele>
      <time>2021-10-12T16:02:19Z</time>
    </trkpt>
    <trkpt lat="38.597345967" lon="34.887113962">
      <ele>1126.388</ele>
      <time>2021-10-12T16:02:20Z</time>
    </trkpt>
    <trkpt lat="38.597335992" lon="34.887080016">
      <ele>1126.453</ele>
      <time>2021-10-12T16:02:21Z</time>
    </trkpt>
    <trkpt lat="38.597326018" lon="34.887053026">
      <ele>1126.485</ele>
      <time>2021-10-12T16:02:22Z</time>
    </trkpt>
    <trkpt lat="38.597314032" lon="34.88702503">
      <ele>1126.507</ele>
      <time>2021-10-12T16:02:23Z</time>
    </trkpt>
    <trkpt lat="38.597297017" lon="34.886994017">
      <ele>1126.499</ele>
      <time>2021-10-12T16:02:24Z</time>
    </trkpt>
    <trkpt lat="38.597282013" lon="34.886959987">
      <ele>1126.546</ele>
      <time>2021-10-12T16:02:25Z</time>
    </trkpt>
    <trkpt lat="38.597264998" lon="34.886920005">
      <ele>1126.401</ele>
      <time>2021-10-12T16:02:26Z</time>
    </trkpt>
    <trkpt lat="38.597251" lon="34.886882035">
      <ele>1126.133</ele>
      <time>2021-10-12T16:02:28Z</time>
    </trkpt>
    <trkpt lat="38.597239014" lon="34.886843981">
      <ele>1125.863</ele>
      <time>2021-10-12T16:02:29Z</time>
    </trkpt>
    <trkpt lat="38.59722401" lon="34.886809029">
      <ele>1125.538</ele>
      <time>2021-10-12T16:02:30Z</time>
    </trkpt>
    <trkpt lat="38.59721303" lon="34.886772987">
      <ele>1125.429</ele>
      <time>2021-10-12T16:02:31Z</time>
    </trkpt>
    <trkpt lat="38.597200038" lon="34.886736022">
      <ele>1125.349</ele>
      <time>2021-10-12T16:02:32Z</time>
    </trkpt>
    <trkpt lat="38.597181011" lon="34.886700986">
      <ele>1125.29</ele>
      <time>2021-10-12T16:02:33Z</time>
    </trkpt>
    <trkpt lat="38.597163996" lon="34.886667961">
      <ele>1125.215</ele>
      <time>2021-10-12T16:02:35Z</time>
    </trkpt>
    <trkpt lat="38.597147986" lon="34.88663896">
      <ele>1125.34</ele>
      <time>2021-10-12T16:02:36Z</time>
    </trkpt>
    <trkpt lat="38.597129965" lon="34.886609036">
      <ele>1125.471</ele>
      <time>2021-10-12T16:02:37Z</time>
    </trkpt>
    <trkpt lat="38.597116973" lon="34.886582969">
      <ele>1125.566</ele>
      <time>2021-10-12T16:02:38Z</time>
    </trkpt>
    <trkpt lat="38.59710197" lon="34.886550028">
      <ele>1125.671</ele>
      <time>2021-10-12T16:02:39Z</time>
    </trkpt>
    <trkpt lat="38.597084032" lon="34.886515997">
      <ele>1125.77</ele>
      <time>2021-10-12T16:02:40Z</time>
    </trkpt>
    <trkpt lat="38.597065005" lon="34.886484984">
      <ele>1125.85</ele>
      <time>2021-10-12T16:02:41Z</time>
    </trkpt>
    <trkpt lat="38.597046984" lon="34.886457995">
      <ele>1125.908</ele>
      <time>2021-10-12T16:02:42Z</time>
    </trkpt>
    <trkpt lat="38.597029969" lon="34.886432011">
      <ele>1125.952</ele>
      <time>2021-10-12T16:02:43Z</time>
    </trkpt>
    <trkpt lat="38.597014965" lon="34.886402003">
      <ele>1125.988</ele>
      <time>2021-10-12T16:02:44Z</time>
    </trkpt>
    <trkpt lat="38.596999962" lon="34.886374008">
      <ele>1126.021</ele>
      <time>2021-10-12T16:02:45Z</time>
    </trkpt>
    <trkpt lat="38.596989987" lon="34.886348024">
      <ele>1126.048</ele>
      <time>2021-10-12T16:02:46Z</time>
    </trkpt>
    <trkpt lat="38.596970038" lon="34.886317011">
      <ele>1126.048</ele>
      <time>2021-10-12T16:02:47Z</time>
    </trkpt>
    <trkpt lat="38.596951012" lon="34.886291027">
      <ele>1126.017</ele>
      <time>2021-10-12T16:02:48Z</time>
    </trkpt>
    <trkpt lat="38.59693299" lon="34.886264959">
      <ele>1126.211</ele>
      <time>2021-10-12T16:02:49Z</time>
    </trkpt>
    <trkpt lat="38.596916981" lon="34.88623403">
      <ele>1126.483</ele>
      <time>2021-10-12T16:02:50Z</time>
    </trkpt>
    <trkpt lat="38.59689896" lon="34.886208968">
      <ele>1126.77</ele>
      <time>2021-10-12T16:02:51Z</time>
    </trkpt>
    <trkpt lat="38.596875994" lon="34.886181979">
      <ele>1127.111</ele>
      <time>2021-10-12T16:02:52Z</time>
    </trkpt>
    <trkpt lat="38.596854033" lon="34.886158006">
      <ele>1127.412</ele>
      <time>2021-10-12T16:02:53Z</time>
    </trkpt>
    <trkpt lat="38.596830983" lon="34.886129005">
      <ele>1127.686</ele>
      <time>2021-10-12T16:02:55Z</time>
    </trkpt>
    <trkpt lat="38.59681204" lon="34.886102015">
      <ele>1127.893</ele>
      <time>2021-10-12T16:02:56Z</time>
    </trkpt>
    <trkpt lat="38.59679603" lon="34.886076031">
      <ele>1128.061</ele>
      <time>2021-10-12T16:02:57Z</time>
    </trkpt>
    <trkpt lat="38.596780021" lon="34.886050969">
      <ele>1128.2</ele>
      <time>2021-10-12T16:02:58Z</time>
    </trkpt>
    <trkpt lat="38.596763005" lon="34.88603102">
      <ele>1128.336</ele>
      <time>2021-10-12T16:02:58Z</time>
    </trkpt>
    <trkpt lat="38.596746996" lon="34.886010988">
      <ele>1128.435</ele>
      <time>2021-10-12T16:02:59Z</time>
    </trkpt>
    <trkpt lat="38.596730987" lon="34.885991039">
      <ele>1128.51</ele>
      <time>2021-10-12T16:03:00Z</time>
    </trkpt>
    <trkpt lat="38.596713971" lon="34.88597">
      <ele>1128.562</ele>
      <time>2021-10-12T16:03:01Z</time>
    </trkpt>
    <trkpt lat="38.596697962" lon="34.885946028">
      <ele>1128.562</ele>
      <time>2021-10-12T16:03:02Z</time>
    </trkpt>
    <trkpt lat="38.596682958" lon="34.885915015">
      <ele>1128.478</ele>
      <time>2021-10-12T16:03:03Z</time>
    </trkpt>
    <trkpt lat="38.596664015" lon="34.885890037">
      <ele>1128.452</ele>
      <time>2021-10-12T16:03:04Z</time>
    </trkpt>
    <trkpt lat="38.596647" lon="34.885862963">
      <ele>1128.519</ele>
      <time>2021-10-12T16:03:05Z</time>
    </trkpt>
    <trkpt lat="38.596630991" lon="34.885834968">
      <ele>1128.528</ele>
      <time>2021-10-12T16:03:06Z</time>
    </trkpt>
    <trkpt lat="38.596619004" lon="34.885805966">
      <ele>1128.472</ele>
      <time>2021-10-12T16:03:07Z</time>
    </trkpt>
    <trkpt lat="38.596608024" lon="34.885773025">
      <ele>1128.364</ele>
      <time>2021-10-12T16:03:08Z</time>
    </trkpt>
    <trkpt lat="38.596594026" lon="34.885737989">
      <ele>1128.27</ele>
      <time>2021-10-12T16:03:09Z</time>
    </trkpt>
    <trkpt lat="38.596578017" lon="34.88570597">
      <ele>1128.213</ele>
      <time>2021-10-12T16:03:10Z</time>
    </trkpt>
    <trkpt lat="38.596556978" lon="34.885675963">
      <ele>1128.223</ele>
      <time>2021-10-12T16:03:11Z</time>
    </trkpt>
    <trkpt lat="38.596534012" lon="34.885644028">
      <ele>1128.222</ele>
      <time>2021-10-12T16:03:13Z</time>
    </trkpt>
    <trkpt lat="38.596514985" lon="34.885609997">
      <ele>1128.137</ele>
      <time>2021-10-12T16:03:14Z</time>
    </trkpt>
    <trkpt lat="38.596500987" lon="34.885577979">
      <ele>1127.999</ele>
      <time>2021-10-12T16:03:15Z</time>
    </trkpt>
    <trkpt lat="38.596489001" lon="34.885544032">
      <ele>1127.881</ele>
      <time>2021-10-12T16:03:16Z</time>
    </trkpt>
    <trkpt lat="38.596477015" lon="34.885513019">
      <ele>1127.888</ele>
      <time>2021-10-12T16:03:17Z</time>
    </trkpt>
    <trkpt lat="38.596461006" lon="34.885488041">
      <ele>1127.924</ele>
      <time>2021-10-12T16:03:18Z</time>
    </trkpt>
    <trkpt lat="38.596439967" lon="34.885467002">
      <ele>1127.987</ele>
      <time>2021-10-12T16:03:19Z</time>
    </trkpt>
    <trkpt lat="38.596417001" lon="34.88545401">
      <ele>1128.076</ele>
      <time>2021-10-12T16:03:20Z</time>
    </trkpt>
    <trkpt lat="38.596396968" lon="34.885447975">
      <ele>1128.172</ele>
      <time>2021-10-12T16:03:21Z</time>
    </trkpt>
    <trkpt lat="38.596374001" lon="34.885446969">
      <ele>1128.433</ele>
      <time>2021-10-12T16:03:21Z</time>
    </trkpt>
    <trkpt lat="38.596352963" lon="34.885445964">
      <ele>1128.728</ele>
      <time>2021-10-12T16:03:22Z</time>
    </trkpt>
    <trkpt lat="38.596325973" lon="34.885422997">
      <ele>1128.952</ele>
      <time>2021-10-12T16:03:23Z</time>
    </trkpt>
    <trkpt lat="38.596315999" lon="34.885393996">
      <ele>1128.886</ele>
      <time>2021-10-12T16:03:24Z</time>
    </trkpt>
    <trkpt lat="38.596304012" lon="34.885368012">
      <ele>1128.872</ele>
      <time>2021-10-12T16:03:25Z</time>
    </trkpt>
    <trkpt lat="38.596286997" lon="34.885352002">
      <ele>1129.002</ele>
      <time>2021-10-12T16:03:26Z</time>
    </trkpt>
    <trkpt lat="38.596263025" lon="34.885326019">
      <ele>1129.16</ele>
      <time>2021-10-12T16:03:27Z</time>
    </trkpt>
    <trkpt lat="38.596240981" lon="34.885294">
      <ele>1129.247</ele>
      <time>2021-10-12T16:03:28Z</time>
    </trkpt>
    <trkpt lat="38.596227989" lon="34.88527799">
      <ele>1129.318</ele>
      <time>2021-10-12T16:03:29Z</time>
    </trkpt>
    <trkpt lat="38.596198987" lon="34.885255024">
      <ele>1129.679</ele>
      <time>2021-10-12T16:03:30Z</time>
    </trkpt>
    <trkpt lat="38.596165963" lon="34.885242032">
      <ele>1130.107</ele>
      <time>2021-10-12T16:03:32Z</time>
    </trkpt>
    <trkpt lat="38.596148025" lon="34.885238009">
      <ele>1130.344</ele>
      <time>2021-10-12T16:03:32Z</time>
    </trkpt>
    <trkpt lat="38.596124975" lon="34.885234991">
      <ele>1130.654</ele>
      <time>2021-10-12T16:03:33Z</time>
    </trkpt>
    <trkpt lat="38.596101003" lon="34.885229962">
      <ele>1131.132</ele>
      <time>2021-10-12T16:03:34Z</time>
    </trkpt>
    <trkpt lat="38.596081976" lon="34.885232979">
      <ele>1131.712</ele>
      <time>2021-10-12T16:03:35Z</time>
    </trkpt>
    <trkpt lat="38.596062027" lon="34.885233985">
      <ele>1132.312</ele>
      <time>2021-10-12T16:03:35Z</time>
    </trkpt>
    <trkpt lat="38.596035959" lon="34.885231974">
      <ele>1133.089</ele>
      <time>2021-10-12T16:03:36Z</time>
    </trkpt>
    <trkpt lat="38.59601601" lon="34.885235997">
      <ele>1133.691</ele>
      <time>2021-10-12T16:03:37Z</time>
    </trkpt>
    <trkpt lat="38.595996983" lon="34.885242032">
      <ele>1134.264</ele>
      <time>2021-10-12T16:03:38Z</time>
    </trkpt>
    <trkpt lat="38.595976029" lon="34.885245971">
      <ele>1134.887</ele>
      <time>2021-10-12T16:03:39Z</time>
    </trkpt>
    <trkpt lat="38.595958007" lon="34.885251001">
      <ele>1135.419</ele>
      <time>2021-10-12T16:03:39Z</time>
    </trkpt>
    <trkpt lat="38.595924983" lon="34.885246977">
      <ele>1136.398</ele>
      <time>2021-10-12T16:03:41Z</time>
    </trkpt>
    <trkpt lat="38.595900005" lon="34.885231974">
      <ele>1137.166</ele>
      <time>2021-10-12T16:03:42Z</time>
    </trkpt>
    <trkpt lat="38.595876032" lon="34.88521697">
      <ele>1137.922</ele>
      <time>2021-10-12T16:03:43Z</time>
    </trkpt>
    <trkpt lat="38.595851976" lon="34.885199033">
      <ele>1138.709</ele>
      <time>2021-10-12T16:03:44Z</time>
    </trkpt>
    <trkpt lat="38.595826998" lon="34.885187969">
      <ele>1139.491</ele>
      <time>2021-10-12T16:03:45Z</time>
    </trkpt>
    <trkpt lat="38.595794979" lon="34.885183023">
      <ele>1140.352</ele>
      <time>2021-10-12T16:03:46Z</time>
    </trkpt>
    <trkpt lat="38.595768996" lon="34.885181012">
      <ele>1141.04</ele>
      <time>2021-10-12T16:03:47Z</time>
    </trkpt>
    <trkpt lat="38.595741" lon="34.885173971">
      <ele>1141.784</ele>
      <time>2021-10-12T16:03:48Z</time>
    </trkpt>
    <trkpt lat="38.59571401" lon="34.885159973">
      <ele>1142.496</ele>
      <time>2021-10-12T16:03:49Z</time>
    </trkpt>
    <trkpt lat="38.595691966" lon="34.885142036">
      <ele>1143.063</ele>
      <time>2021-10-12T16:03:50Z</time>
    </trkpt>
    <trkpt lat="38.595667994" lon="34.885122003">
      <ele>1143.655</ele>
      <time>2021-10-12T16:03:51Z</time>
    </trkpt>
    <trkpt lat="38.595639998" lon="34.885102976">
      <ele>1144.321</ele>
      <time>2021-10-12T16:03:52Z</time>
    </trkpt>
    <trkpt lat="38.595612003" lon="34.885075986">
      <ele>1144.943</ele>
      <time>2021-10-12T16:03:53Z</time>
    </trkpt>
    <trkpt lat="38.595584007" lon="34.885051008">
      <ele>1145.531</ele>
      <time>2021-10-12T16:03:55Z</time>
    </trkpt>
    <trkpt lat="38.595558023" lon="34.885028042">
      <ele>1146.046</ele>
      <time>2021-10-12T16:03:56Z</time>
    </trkpt>
    <trkpt lat="38.595534973" lon="34.885008009">
      <ele>1146.63</ele>
      <time>2021-10-12T16:03:57Z</time>
    </trkpt>
    <trkpt lat="38.595509995" lon="34.884988982">
      <ele>1147.14</ele>
      <time>2021-10-12T16:03:58Z</time>
    </trkpt>
    <trkpt lat="38.595493985" lon="34.884976996">
      <ele>1147.405</ele>
      <time>2021-10-12T16:03:59Z</time>
    </trkpt>
    <trkpt lat="38.595477976" lon="34.884966016">
      <ele>1147.677</ele>
      <time>2021-10-12T16:03:59Z</time>
    </trkpt>
    <trkpt lat="38.595454004" lon="34.884964004">
      <ele>1148.312</ele>
      <time>2021-10-12T16:04:00Z</time>
    </trkpt>
    <trkpt lat="38.595425002" lon="34.884968027">
      <ele>1149.191</ele>
      <time>2021-10-12T16:04:01Z</time>
    </trkpt>
    <trkpt lat="38.59540497" lon="34.884978002">
      <ele>1149.934</ele>
      <time>2021-10-12T16:04:02Z</time>
    </trkpt>
    <trkpt lat="38.595382003" lon="34.884986971">
      <ele>1150.752</ele>
      <time>2021-10-12T16:04:03Z</time>
    </trkpt>
    <trkpt lat="38.595357025" lon="34.884994011">
      <ele>1151.601</ele>
      <time>2021-10-12T16:04:04Z</time>
    </trkpt>
    <trkpt lat="38.595336992" lon="34.884984959">
      <ele>1151.993</ele>
      <time>2021-10-12T16:04:05Z</time>
    </trkpt>
    <trkpt lat="38.59531696" lon="34.884994011">
      <ele>1152.748</ele>
      <time>2021-10-12T16:04:06Z</time>
    </trkpt>
    <trkpt lat="38.595293993" lon="34.884994011">
      <ele>1153.406</ele>
      <time>2021-10-12T16:04:06Z</time>
    </trkpt>
    <trkpt lat="38.595273038" lon="34.884992">
      <ele>1153.981</ele>
      <time>2021-10-12T16:04:07Z</time>
    </trkpt>
    <trkpt lat="38.595254011" lon="34.884994011">
      <ele>1154.641</ele>
      <time>2021-10-12T16:04:08Z</time>
    </trkpt>
    <trkpt lat="38.595234985" lon="34.884987976">
      <ele>1155.127</ele>
      <time>2021-10-12T16:04:09Z</time>
    </trkpt>
    <trkpt lat="38.595215036" lon="34.884981019">
      <ele>1155.623</ele>
      <time>2021-10-12T16:04:09Z</time>
    </trkpt>
    <trkpt lat="38.595188968" lon="34.884971967">
      <ele>1156.272</ele>
      <time>2021-10-12T16:04:10Z</time>
    </trkpt>
    <trkpt lat="38.595168013" lon="34.884966016">
      <ele>1156.822</ele>
      <time>2021-10-12T16:04:11Z</time>
    </trkpt>
    <trkpt lat="38.595142029" lon="34.884969033">
      <ele>1157.729</ele>
      <time>2021-10-12T16:04:12Z</time>
    </trkpt>
    <trkpt lat="38.595123002" lon="34.884966016">
      <ele>1158.281</ele>
      <time>2021-10-12T16:04:13Z</time>
    </trkpt>
    <trkpt lat="38.595100036" lon="34.884962998">
      <ele>1158.96</ele>
      <time>2021-10-12T16:04:14Z</time>
    </trkpt>
    <trkpt lat="38.595076986" lon="34.884959981">
      <ele>1159.641</ele>
      <time>2021-10-12T16:04:15Z</time>
    </trkpt>
    <trkpt lat="38.595055025" lon="34.884957969">
      <ele>1160.309</ele>
      <time>2021-10-12T16:04:15Z</time>
    </trkpt>
    <trkpt lat="38.595029041" lon="34.88497599">
      <ele>1161.54</ele>
      <time>2021-10-12T16:04:16Z</time>
    </trkpt>
    <trkpt lat="38.595006997" lon="34.884980014">
      <ele>1162.342</ele>
      <time>2021-10-12T16:04:17Z</time>
    </trkpt>
    <trkpt lat="38.594985036" lon="34.884984037">
      <ele>1162.712</ele>
      <time>2021-10-12T16:04:18Z</time>
    </trkpt>
    <trkpt lat="38.594957963" lon="34.884978002">
      <ele>1162.688</ele>
      <time>2021-10-12T16:04:19Z</time>
    </trkpt>
    <trkpt lat="38.594927033" lon="34.884979008">
      <ele>1162.829</ele>
      <time>2021-10-12T16:04:20Z</time>
    </trkpt>
    <trkpt lat="38.594894009" lon="34.884984037">
      <ele>1163.059</ele>
      <time>2021-10-12T16:04:21Z</time>
    </trkpt>
    <trkpt lat="38.594867019" lon="34.884989988">
      <ele>1163.28</ele>
      <time>2021-10-12T16:04:22Z</time>
    </trkpt>
    <trkpt lat="38.594836006" lon="34.884994011">
      <ele>1163.474</ele>
      <time>2021-10-12T16:04:24Z</time>
    </trkpt>
    <trkpt lat="38.594799964" lon="34.885012032">
      <ele>1163.881</ele>
      <time>2021-10-12T16:04:25Z</time>
    </trkpt>
    <trkpt lat="38.594785966" lon="34.885028042">
      <ele>1164.151</ele>
      <time>2021-10-12T16:04:26Z</time>
    </trkpt>
    <trkpt lat="38.594772974" lon="34.885042962">
      <ele>1164.408</ele>
      <time>2021-10-12T16:04:26Z</time>
    </trkpt>
    <trkpt lat="38.594755959" lon="34.885057965">
      <ele>1164.688</ele>
      <time>2021-10-12T16:04:27Z</time>
    </trkpt>
    <trkpt lat="38.594741039" lon="34.885070035">
      <ele>1164.924</ele>
      <time>2021-10-12T16:04:28Z</time>
    </trkpt>
    <trkpt lat="38.594724024" lon="34.885081016">
      <ele>1165.158</ele>
      <time>2021-10-12T16:04:29Z</time>
    </trkpt>
    <trkpt lat="38.594700973" lon="34.885085961">
      <ele>1165.338</ele>
      <time>2021-10-12T16:04:29Z</time>
    </trkpt>
    <trkpt lat="38.59468203" lon="34.885094007">
      <ele>1165.547</ele>
      <time>2021-10-12T16:04:30Z</time>
    </trkpt>
    <trkpt lat="38.594663003" lon="34.885100964">
      <ele>1165.745</ele>
      <time>2021-10-12T16:04:31Z</time>
    </trkpt>
    <trkpt lat="38.594640959" lon="34.885112029">
      <ele>1166.024</ele>
      <time>2021-10-12T16:04:32Z</time>
    </trkpt>
    <trkpt lat="38.594618998" lon="34.885128038">
      <ele>1166.387</ele>
      <time>2021-10-12T16:04:33Z</time>
    </trkpt>
    <trkpt lat="38.594596032" lon="34.885143042">
      <ele>1166.748</ele>
      <time>2021-10-12T16:04:34Z</time>
    </trkpt>
    <trkpt lat="38.594575999" lon="34.885157961">
      <ele>1167.1</ele>
      <time>2021-10-12T16:04:34Z</time>
    </trkpt>
    <trkpt lat="38.594556972" lon="34.88516802">
      <ele>1167.374</ele>
      <time>2021-10-12T16:04:35Z</time>
    </trkpt>
    <trkpt lat="38.594537023" lon="34.885174977">
      <ele>1167.606</ele>
      <time>2021-10-12T16:04:36Z</time>
    </trkpt>
    <trkpt lat="38.594502993" lon="34.885188974">
      <ele>1168.047</ele>
      <time>2021-10-12T16:04:37Z</time>
    </trkpt>
    <trkpt lat="38.594468962" lon="34.885184029">
      <ele>1168.166</ele>
      <time>2021-10-12T16:04:39Z</time>
    </trkpt>
    <trkpt lat="38.594435016" lon="34.885170031">
      <ele>1168.074</ele>
      <time>2021-10-12T16:04:40Z</time>
    </trkpt>
    <trkpt lat="38.594416995" lon="34.885156034">
      <ele>1167.852</ele>
      <time>2021-10-12T16:04:41Z</time>
    </trkpt>
    <trkpt lat="38.594400985" lon="34.885143964">
      <ele>1167.667</ele>
      <time>2021-10-12T16:04:41Z</time>
    </trkpt>
    <trkpt lat="38.594385982" lon="34.885129966">
      <ele>1167.451</ele>
      <time>2021-10-12T16:04:42Z</time>
    </trkpt>
    <trkpt lat="38.59437299" lon="34.885109011">
      <ele>1167.118</ele>
      <time>2021-10-12T16:04:43Z</time>
    </trkpt>
    <trkpt lat="38.59435698" lon="34.885083027">
      <ele>1166.715</ele>
      <time>2021-10-12T16:04:44Z</time>
    </trkpt>
    <trkpt lat="38.594328985" lon="34.885075986">
      <ele>1166.67</ele>
      <time>2021-10-12T16:04:45Z</time>
    </trkpt>
    <trkpt lat="38.594303001" lon="34.885089984">
      <ele>1166.964</ele>
      <time>2021-10-12T16:04:46Z</time>
    </trkpt>
    <trkpt lat="38.594299983" lon="34.885116974">
      <ele>1167.407</ele>
      <time>2021-10-12T16:04:47Z</time>
    </trkpt>
    <trkpt lat="38.594310042" lon="34.885142036">
      <ele>1167.793</ele>
      <time>2021-10-12T16:04:48Z</time>
    </trkpt>
    <trkpt lat="38.594318004" lon="34.885167014">
      <ele>1168.188</ele>
      <time>2021-10-12T16:04:48Z</time>
    </trkpt>
    <trkpt lat="38.594327979" lon="34.885195009">
      <ele>1168.635</ele>
      <time>2021-10-12T16:04:49Z</time>
    </trkpt>
    <trkpt lat="38.594328985" lon="34.885225017">
      <ele>1169.129</ele>
      <time>2021-10-12T16:04:50Z</time>
    </trkpt>
    <trkpt lat="38.594324961" lon="34.88525603">
      <ele>1169.642</ele>
      <time>2021-10-12T16:04:51Z</time>
    </trkpt>
    <trkpt lat="38.594322028" lon="34.885286959">
      <ele>1170.147</ele>
      <time>2021-10-12T16:04:52Z</time>
    </trkpt>
    <trkpt lat="38.594318004" lon="34.885318978">
      <ele>1170.661</ele>
      <time>2021-10-12T16:04:53Z</time>
    </trkpt>
    <trkpt lat="38.594322028" lon="34.885348985">
      <ele>1171.138</ele>
      <time>2021-10-12T16:04:54Z</time>
    </trkpt>
    <trkpt lat="38.594334014" lon="34.885369018">
      <ele>1171.444</ele>
      <time>2021-10-12T16:04:54Z</time>
    </trkpt>
    <trkpt lat="38.594343988" lon="34.885402964">
      <ele>1171.966</ele>
      <time>2021-10-12T16:04:56Z</time>
    </trkpt>
    <trkpt lat="38.594348012" lon="34.885425009">
      <ele>1172.304</ele>
      <time>2021-10-12T16:04:56Z</time>
    </trkpt>
    <trkpt lat="38.594352035" lon="34.885448981">
      <ele>1172.67</ele>
      <time>2021-10-12T16:04:57Z</time>
    </trkpt>
    <trkpt lat="38.594357986" lon="34.885473037">
      <ele>1173.031</ele>
      <time>2021-10-12T16:04:58Z</time>
    </trkpt>
    <trkpt lat="38.594359998" lon="34.885500027">
      <ele>1173.444</ele>
      <time>2021-10-12T16:04:58Z</time>
    </trkpt>
    <trkpt lat="38.594357986" lon="34.885544032">
      <ele>1174.132</ele>
      <time>2021-10-12T16:05:00Z</time>
    </trkpt>
    <trkpt lat="38.594347006" lon="34.885587031">
      <ele>1174.697</ele>
      <time>2021-10-12T16:05:01Z</time>
    </trkpt>
    <trkpt lat="38.594336025" lon="34.885607986">
      <ele>1174.989</ele>
      <time>2021-10-12T16:05:02Z</time>
    </trkpt>
    <trkpt lat="38.594324039" lon="34.885629024">
      <ele>1175.306</ele>
      <time>2021-10-12T16:05:02Z</time>
    </trkpt>
    <trkpt lat="38.594310042" lon="34.885648973">
      <ele>1175.645</ele>
      <time>2021-10-12T16:05:03Z</time>
    </trkpt>
    <trkpt lat="38.594293026" lon="34.885662971">
      <ele>1175.951</ele>
      <time>2021-10-12T16:05:04Z</time>
    </trkpt>
    <trkpt lat="38.594275005" lon="34.885677975">
      <ele>1176.298</ele>
      <time>2021-10-12T16:05:05Z</time>
    </trkpt>
    <trkpt lat="38.594260002" lon="34.885695996">
      <ele>1176.682</ele>
      <time>2021-10-12T16:05:06Z</time>
    </trkpt>
    <trkpt lat="38.59424701" lon="34.885716029">
      <ele>1177.098</ele>
      <time>2021-10-12T16:05:06Z</time>
    </trkpt>
    <trkpt lat="38.594233012" lon="34.885742012">
      <ele>1177.636</ele>
      <time>2021-10-12T16:05:07Z</time>
    </trkpt>
    <trkpt lat="38.594221026" lon="34.88577202">
      <ele>1178.243</ele>
      <time>2021-10-12T16:05:08Z</time>
    </trkpt>
    <trkpt lat="38.594211973" lon="34.885801021">
      <ele>1178.823</ele>
      <time>2021-10-12T16:05:09Z</time>
    </trkpt>
    <trkpt lat="38.594203005" lon="34.885829017">
      <ele>1179.405</ele>
      <time>2021-10-12T16:05:10Z</time>
    </trkpt>
    <trkpt lat="38.594199987" lon="34.885857012">
      <ele>1179.936</ele>
      <time>2021-10-12T16:05:11Z</time>
    </trkpt>
    <trkpt lat="38.594199987" lon="34.885887019">
      <ele>1180.463</ele>
      <time>2021-10-12T16:05:12Z</time>
    </trkpt>
    <trkpt lat="38.594195964" lon="34.885919038">
      <ele>1181.088</ele>
      <time>2021-10-12T16:05:13Z</time>
    </trkpt>
    <trkpt lat="38.594189007" lon="34.885946028">
      <ele>1181.674</ele>
      <time>2021-10-12T16:05:13Z</time>
    </trkpt>
    <trkpt lat="38.59418096" lon="34.885968994">
      <ele>1182.211</ele>
      <time>2021-10-12T16:05:14Z</time>
    </trkpt>
    <trkpt lat="38.594164029" lon="34.885988021">
      <ele>1182.775</ele>
      <time>2021-10-12T16:05:15Z</time>
    </trkpt>
    <trkpt lat="38.594151959" lon="34.88600797">
      <ele>1183.091</ele>
      <time>2021-10-12T16:05:16Z</time>
    </trkpt>
    <trkpt lat="38.594123963" lon="34.886038983">
      <ele>1183.548</ele>
      <time>2021-10-12T16:05:17Z</time>
    </trkpt>
    <trkpt lat="38.594103009" lon="34.886049042">
      <ele>1183.654</ele>
      <time>2021-10-12T16:05:18Z</time>
    </trkpt>
    <trkpt lat="38.594083982" lon="34.88605801">
      <ele>1183.747</ele>
      <time>2021-10-12T16:05:19Z</time>
    </trkpt>
    <trkpt lat="38.594062021" lon="34.886057004">
      <ele>1183.649</ele>
      <time>2021-10-12T16:05:20Z</time>
    </trkpt>
    <trkpt lat="38.594037965" lon="34.886055999">
      <ele>1183.545</ele>
      <time>2021-10-12T16:05:20Z</time>
    </trkpt>
    <trkpt lat="38.594016004" lon="34.886060022">
      <ele>1183.538</ele>
      <time>2021-10-12T16:05:21Z</time>
    </trkpt>
    <trkpt lat="38.593991026" lon="34.886073014">
      <ele>1183.682</ele>
      <time>2021-10-12T16:05:22Z</time>
    </trkpt>
    <trkpt lat="38.593959007" lon="34.886098998">
      <ele>1184.034</ele>
      <time>2021-10-12T16:05:24Z</time>
    </trkpt>
    <trkpt lat="38.593940986" lon="34.886115007">
      <ele>1184.246</ele>
      <time>2021-10-12T16:05:24Z</time>
    </trkpt>
    <trkpt lat="38.593919026" lon="34.886134034">
      <ele>1184.448</ele>
      <time>2021-10-12T16:05:25Z</time>
    </trkpt>
    <trkpt lat="38.593893964" lon="34.886153983">
      <ele>1184.638</ele>
      <time>2021-10-12T16:05:27Z</time>
    </trkpt>
    <trkpt lat="38.593870997" lon="34.886170998">
      <ele>1184.784</ele>
      <time>2021-10-12T16:05:27Z</time>
    </trkpt>
    <trkpt lat="38.593848031" lon="34.886188013">
      <ele>1184.92</ele>
      <time>2021-10-12T16:05:28Z</time>
    </trkpt>
    <trkpt lat="38.593826992" lon="34.886205029">
      <ele>1185.054</ele>
      <time>2021-10-12T16:05:29Z</time>
    </trkpt>
    <trkpt lat="38.593805032" lon="34.88622196">
      <ele>1185.174</ele>
      <time>2021-10-12T16:05:30Z</time>
    </trkpt>
    <trkpt lat="38.593782987" lon="34.886238975">
      <ele>1185.285</ele>
      <time>2021-10-12T16:05:31Z</time>
    </trkpt>
    <trkpt lat="38.593763039" lon="34.886259008">
      <ele>1185.435</ele>
      <time>2021-10-12T16:05:32Z</time>
    </trkpt>
    <trkpt lat="38.593744012" lon="34.886281975">
      <ele>1185.618</ele>
      <time>2021-10-12T16:05:33Z</time>
    </trkpt>
    <trkpt lat="38.593725991" lon="34.886307037">
      <ele>1185.821</ele>
      <time>2021-10-12T16:05:34Z</time>
    </trkpt>
    <trkpt lat="38.593708975" lon="34.886334026">
      <ele>1186.043</ele>
      <time>2021-10-12T16:05:35Z</time>
    </trkpt>
    <trkpt lat="38.593690032" lon="34.886361016">
      <ele>1186.239</ele>
      <time>2021-10-12T16:05:36Z</time>
    </trkpt>
    <trkpt lat="38.593673017" lon="34.886390017">
      <ele>1186.452</ele>
      <time>2021-10-12T16:05:37Z</time>
    </trkpt>
    <trkpt lat="38.593659019" lon="34.886422036">
      <ele>1186.505</ele>
      <time>2021-10-12T16:05:38Z</time>
    </trkpt>
    <trkpt lat="38.593642004" lon="34.886454977">
      <ele>1186.513</ele>
      <time>2021-10-12T16:05:40Z</time>
    </trkpt>
    <trkpt lat="38.593627" lon="34.886492025">
      <ele>1186.528</ele>
      <time>2021-10-12T16:05:41Z</time>
    </trkpt>
    <trkpt lat="38.593609985" lon="34.886527983">
      <ele>1186.495</ele>
      <time>2021-10-12T16:05:42Z</time>
    </trkpt>
    <trkpt lat="38.593595987" lon="34.886562014">
      <ele>1186.548</ele>
      <time>2021-10-12T16:05:43Z</time>
    </trkpt>
    <trkpt lat="38.59357696" lon="34.886593027">
      <ele>1186.579</ele>
      <time>2021-10-12T16:05:44Z</time>
    </trkpt>
    <trkpt lat="38.593551982" lon="34.886618005">
      <ele>1186.575</ele>
      <time>2021-10-12T16:05:45Z</time>
    </trkpt>
    <trkpt lat="38.593523987" lon="34.886637032">
      <ele>1186.546</ele>
      <time>2021-10-12T16:05:47Z</time>
    </trkpt>
    <trkpt lat="38.593493979" lon="34.886643989">
      <ele>1186.462</ele>
      <time>2021-10-12T16:05:48Z</time>
    </trkpt>
    <trkpt lat="38.59346699" lon="34.886638038">
      <ele>1186.325</ele>
      <time>2021-10-12T16:05:49Z</time>
    </trkpt>
    <trkpt lat="38.593441006" lon="34.886628985">
      <ele>1186.169</ele>
      <time>2021-10-12T16:05:50Z</time>
    </trkpt>
    <trkpt lat="38.59341301" lon="34.886616999">
      <ele>1185.981</ele>
      <time>2021-10-12T16:05:51Z</time>
    </trkpt>
    <trkpt lat="38.593389038" lon="34.886603002">
      <ele>1185.788</ele>
      <time>2021-10-12T16:05:52Z</time>
    </trkpt>
    <trkpt lat="38.593360037" lon="34.88659001">
      <ele>1185.571</ele>
      <time>2021-10-12T16:05:53Z</time>
    </trkpt>
    <trkpt lat="38.593328018" lon="34.886580035">
      <ele>1185.338</ele>
      <time>2021-10-12T16:05:54Z</time>
    </trkpt>
    <trkpt lat="38.593293987" lon="34.886568971">
      <ele>1185.013</ele>
      <time>2021-10-12T16:05:55Z</time>
    </trkpt>
    <trkpt lat="38.593260963" lon="34.886560002">
      <ele>1184.711</ele>
      <time>2021-10-12T16:05:57Z</time>
    </trkpt>
    <trkpt lat="38.593225004" lon="34.886546005">
      <ele>1184.351</ele>
      <time>2021-10-12T16:05:58Z</time>
    </trkpt>
    <trkpt lat="38.593189968" lon="34.886531001">
      <ele>1183.991</ele>
      <time>2021-10-12T16:05:59Z</time>
    </trkpt>
    <trkpt lat="38.593158033" lon="34.886519015">
      <ele>1183.675</ele>
      <time>2021-10-12T16:06:01Z</time>
    </trkpt>
    <trkpt lat="38.593129031" lon="34.88650904">
      <ele>1183.394</ele>
      <time>2021-10-12T16:06:02Z</time>
    </trkpt>
    <trkpt lat="38.593098018" lon="34.886500994">
      <ele>1183.113</ele>
      <time>2021-10-12T16:06:03Z</time>
    </trkpt>
    <trkpt lat="38.593064994" lon="34.886494959">
      <ele>1182.832</ele>
      <time>2021-10-12T16:06:04Z</time>
    </trkpt>
    <trkpt lat="38.593031969" lon="34.886482973">
      <ele>1182.79</ele>
      <time>2021-10-12T16:06:05Z</time>
    </trkpt>
    <trkpt lat="38.593001962" lon="34.886478027">
      <ele>1182.904</ele>
      <time>2021-10-12T16:06:07Z</time>
    </trkpt>
    <trkpt lat="38.592973966" lon="34.88647501">
      <ele>1183.025</ele>
      <time>2021-10-12T16:06:08Z</time>
    </trkpt>
    <trkpt lat="38.592945971" lon="34.886469981">
      <ele>1183.143</ele>
      <time>2021-10-12T16:06:09Z</time>
    </trkpt>
    <trkpt lat="38.592912024" lon="34.88646403">
      <ele>1183.295</ele>
      <time>2021-10-12T16:06:10Z</time>
    </trkpt>
    <trkpt lat="38.592877993" lon="34.886455983">
      <ele>1183.453</ele>
      <time>2021-10-12T16:06:11Z</time>
    </trkpt>
    <trkpt lat="38.592843963" lon="34.886454977">
      <ele>1183.637</ele>
      <time>2021-10-12T16:06:12Z</time>
    </trkpt>
    <trkpt lat="38.592811022" lon="34.886456989">
      <ele>1183.819</ele>
      <time>2021-10-12T16:06:14Z</time>
    </trkpt>
    <trkpt lat="38.59277498" lon="34.886460006">
      <ele>1184.01</ele>
      <time>2021-10-12T16:06:15Z</time>
    </trkpt>
    <trkpt lat="38.592744973" lon="34.88646403">
      <ele>1184.118</ele>
      <time>2021-10-12T16:06:16Z</time>
    </trkpt>
    <trkpt lat="38.592713038" lon="34.886471992">
      <ele>1184.233</ele>
      <time>2021-10-12T16:06:17Z</time>
    </trkpt>
    <trkpt lat="38.592680013" lon="34.886480039">
      <ele>1184.352</ele>
      <time>2021-10-12T16:06:19Z</time>
    </trkpt>
    <trkpt lat="38.592646988" lon="34.886489008">
      <ele>1184.471</ele>
      <time>2021-10-12T16:06:20Z</time>
    </trkpt>
    <trkpt lat="38.592613963" lon="34.886495965">
      <ele>1184.59</ele>
      <time>2021-10-12T16:06:21Z</time>
    </trkpt>
    <trkpt lat="38.59258404" lon="34.886499988">
      <ele>1184.697</ele>
      <time>2021-10-12T16:06:22Z</time>
    </trkpt>
    <trkpt lat="38.592552021" lon="34.886500994">
      <ele>1184.813</ele>
      <time>2021-10-12T16:06:23Z</time>
    </trkpt>
    <trkpt lat="38.592520002" lon="34.886507029">
      <ele>1184.928</ele>
      <time>2021-10-12T16:06:25Z</time>
    </trkpt>
    <trkpt lat="38.592488989" lon="34.886513986">
      <ele>1185.018</ele>
      <time>2021-10-12T16:06:26Z</time>
    </trkpt>
    <trkpt lat="38.592457976" lon="34.886523038">
      <ele>1185.073</ele>
      <time>2021-10-12T16:06:27Z</time>
    </trkpt>
    <trkpt lat="38.592426963" lon="34.886531001">
      <ele>1185.135</ele>
      <time>2021-10-12T16:06:28Z</time>
    </trkpt>
    <trkpt lat="38.592394022" lon="34.886538042">
      <ele>1185.205</ele>
      <time>2021-10-12T16:06:29Z</time>
    </trkpt>
    <trkpt lat="38.592360998" lon="34.886546005">
      <ele>1185.283</ele>
      <time>2021-10-12T16:06:31Z</time>
    </trkpt>
    <trkpt lat="38.59233099" lon="34.886554973">
      <ele>1185.364</ele>
      <time>2021-10-12T16:06:32Z</time>
    </trkpt>
    <trkpt lat="38.592299977" lon="34.886564026">
      <ele>1185.454</ele>
      <time>2021-10-12T16:06:33Z</time>
    </trkpt>
    <trkpt lat="38.592270976" lon="34.886574">
      <ele>1185.549</ele>
      <time>2021-10-12T16:06:34Z</time>
    </trkpt>
    <trkpt lat="38.592240969" lon="34.886583975">
      <ele>1185.655</ele>
      <time>2021-10-12T16:06:35Z</time>
    </trkpt>
    <trkpt lat="38.592207022" lon="34.886592021">
      <ele>1185.731</ele>
      <time>2021-10-12T16:06:36Z</time>
    </trkpt>
    <trkpt lat="38.592177015" lon="34.886603002">
      <ele>1185.771</ele>
      <time>2021-10-12T16:06:38Z</time>
    </trkpt>
    <trkpt lat="38.59214399" lon="34.886613982">
      <ele>1185.81</ele>
      <time>2021-10-12T16:06:39Z</time>
    </trkpt>
    <trkpt lat="38.592114989" lon="34.886623034">
      <ele>1185.843</ele>
      <time>2021-10-12T16:06:40Z</time>
    </trkpt>
    <trkpt lat="38.592085987" lon="34.886632003">
      <ele>1185.875</ele>
      <time>2021-10-12T16:06:41Z</time>
    </trkpt>
    <trkpt lat="38.592054974" lon="34.886640972">
      <ele>1185.907</ele>
      <time>2021-10-12T16:06:42Z</time>
    </trkpt>
    <trkpt lat="38.592025973" lon="34.88665103">
      <ele>1185.944</ele>
      <time>2021-10-12T16:06:43Z</time>
    </trkpt>
    <trkpt lat="38.591995966" lon="34.886659998">
      <ele>1185.976</ele>
      <time>2021-10-12T16:06:44Z</time>
    </trkpt>
    <trkpt lat="38.591965958" lon="34.886669973">
      <ele>1185.999</ele>
      <time>2021-10-12T16:06:46Z</time>
    </trkpt>
    <trkpt lat="38.591937041" lon="34.886680031">
      <ele>1185.999</ele>
      <time>2021-10-12T16:06:47Z</time>
    </trkpt>
    <trkpt lat="38.59190804" lon="34.886691011">
      <ele>1185.989</ele>
      <time>2021-10-12T16:06:48Z</time>
    </trkpt>
    <trkpt lat="38.59187996" lon="34.886702998">
      <ele>1185.97</ele>
      <time>2021-10-12T16:06:49Z</time>
    </trkpt>
    <trkpt lat="38.591854982" lon="34.886714984">
      <ele>1185.944</ele>
      <time>2021-10-12T16:06:50Z</time>
    </trkpt>
    <trkpt lat="38.591824975" lon="34.886729987">
      <ele>1185.902</ele>
      <time>2021-10-12T16:06:51Z</time>
    </trkpt>
    <trkpt lat="38.591796979" lon="34.886747003">
      <ele>1185.846</ele>
      <time>2021-10-12T16:06:52Z</time>
    </trkpt>
    <trkpt lat="38.591768984" lon="34.886767035">
      <ele>1185.772</ele>
      <time>2021-10-12T16:06:53Z</time>
    </trkpt>
    <trkpt lat="38.591741994" lon="34.886784973">
      <ele>1185.69</ele>
      <time>2021-10-12T16:06:55Z</time>
    </trkpt>
    <trkpt lat="38.59171601" lon="34.886804">
      <ele>1185.593</ele>
      <time>2021-10-12T16:06:56Z</time>
    </trkpt>
    <trkpt lat="38.59168902" lon="34.886819003">
      <ele>1185.496</ele>
      <time>2021-10-12T16:06:57Z</time>
    </trkpt>
    <trkpt lat="38.591662031" lon="34.886836018">
      <ele>1185.374</ele>
      <time>2021-10-12T16:06:58Z</time>
    </trkpt>
    <trkpt lat="38.591632023" lon="34.886853034">
      <ele>1185.204</ele>
      <time>2021-10-12T16:06:59Z</time>
    </trkpt>
    <trkpt lat="38.59160101" lon="34.886870971">
      <ele>1185.028</ele>
      <time>2021-10-12T16:07:00Z</time>
    </trkpt>
    <trkpt lat="38.591569997" lon="34.886888992">
      <ele>1184.852</ele>
      <time>2021-10-12T16:07:02Z</time>
    </trkpt>
    <trkpt lat="38.591534961" lon="34.886901984">
      <ele>1184.679</ele>
      <time>2021-10-12T16:07:03Z</time>
    </trkpt>
    <trkpt lat="38.591501014" lon="34.88691397">
      <ele>1184.513</ele>
      <time>2021-10-12T16:07:04Z</time>
    </trkpt>
    <trkpt lat="38.59146799" lon="34.886927968">
      <ele>1184.344</ele>
      <time>2021-10-12T16:07:06Z</time>
    </trkpt>
    <trkpt lat="38.591429014" lon="34.88694096">
      <ele>1184.157</ele>
      <time>2021-10-12T16:07:07Z</time>
    </trkpt>
    <trkpt lat="38.591391966" lon="34.88695303">
      <ele>1183.95</ele>
      <time>2021-10-12T16:07:08Z</time>
    </trkpt>
    <trkpt lat="38.591356007" lon="34.88696401">
      <ele>1183.969</ele>
      <time>2021-10-12T16:07:10Z</time>
    </trkpt>
    <trkpt lat="38.591321977" lon="34.886975996">
      <ele>1183.986</ele>
      <time>2021-10-12T16:07:11Z</time>
    </trkpt>
    <trkpt lat="38.591287024" lon="34.886991">
      <ele>1183.97</ele>
      <time>2021-10-12T16:07:13Z</time>
    </trkpt>
    <trkpt lat="38.591249976" lon="34.887008015">
      <ele>1183.928</ele>
      <time>2021-10-12T16:07:14Z</time>
    </trkpt>
    <trkpt lat="38.591218963" lon="34.887026958">
      <ele>1183.836</ele>
      <time>2021-10-12T16:07:15Z</time>
    </trkpt>
    <trkpt lat="38.591190968" lon="34.887047997">
      <ele>1183.701</ele>
      <time>2021-10-12T16:07:16Z</time>
    </trkpt>
    <trkpt lat="38.591161966" lon="34.887068029">
      <ele>1183.564</ele>
      <time>2021-10-12T16:07:18Z</time>
    </trkpt>
    <trkpt lat="38.591133971" lon="34.887090996">
      <ele>1183.378</ele>
      <time>2021-10-12T16:07:19Z</time>
    </trkpt>
    <trkpt lat="38.591105975" lon="34.887117986">
      <ele>1183.156</ele>
      <time>2021-10-12T16:07:20Z</time>
    </trkpt>
    <trkpt lat="38.591079991" lon="34.887146987">
      <ele>1183.006</ele>
      <time>2021-10-12T16:07:21Z</time>
    </trkpt>
    <trkpt lat="38.591059037" lon="34.887174983">
      <ele>1182.853</ele>
      <time>2021-10-12T16:07:23Z</time>
    </trkpt>
    <trkpt lat="38.59104001" lon="34.887200966">
      <ele>1182.722</ele>
      <time>2021-10-12T16:07:24Z</time>
    </trkpt>
    <trkpt lat="38.591027018" lon="34.887225023">
      <ele>1182.585</ele>
      <time>2021-10-12T16:07:24Z</time>
    </trkpt>
    <trkpt lat="38.591014026" lon="34.887245977">
      <ele>1182.528</ele>
      <time>2021-10-12T16:07:25Z</time>
    </trkpt>
    <trkpt lat="38.590996005" lon="34.887265004">
      <ele>1182.521</ele>
      <time>2021-10-12T16:07:26Z</time>
    </trkpt>
    <trkpt lat="38.590978989" lon="34.887282019">
      <ele>1182.521</ele>
      <time>2021-10-12T16:07:27Z</time>
    </trkpt>
    <trkpt lat="38.59095904" lon="34.887295011">
      <ele>1182.571</ele>
      <time>2021-10-12T16:07:28Z</time>
    </trkpt>
    <trkpt lat="38.590932973" lon="34.887305992">
      <ele>1182.679</ele>
      <time>2021-10-12T16:07:29Z</time>
    </trkpt>
    <trkpt lat="38.590905983" lon="34.887314038">
      <ele>1182.816</ele>
      <time>2021-10-12T16:07:30Z</time>
    </trkpt>
    <trkpt lat="38.590875976" lon="34.887324013">
      <ele>1182.96</ele>
      <time>2021-10-12T16:07:31Z</time>
    </trkpt>
    <trkpt lat="38.590842029" lon="34.887334993">
      <ele>1183.125</ele>
      <time>2021-10-12T16:07:32Z</time>
    </trkpt>
    <trkpt lat="38.590809004" lon="34.887345973">
      <ele>1183.236</ele>
      <time>2021-10-12T16:07:34Z</time>
    </trkpt>
    <trkpt lat="38.590773968" lon="34.88735796">
      <ele>1183.341</ele>
      <time>2021-10-12T16:07:35Z</time>
    </trkpt>
    <trkpt lat="38.590740021" lon="34.887368018">
      <ele>1183.463</ele>
      <time>2021-10-12T16:07:36Z</time>
    </trkpt>
    <trkpt lat="38.590705991" lon="34.887374975">
      <ele>1183.611</ele>
      <time>2021-10-12T16:07:37Z</time>
    </trkpt>
    <trkpt lat="38.590670032" lon="34.887380004">
      <ele>1183.786</ele>
      <time>2021-10-12T16:07:39Z</time>
    </trkpt>
    <trkpt lat="38.590636002" lon="34.887387967">
      <ele>1183.941</ele>
      <time>2021-10-12T16:07:40Z</time>
    </trkpt>
    <trkpt lat="38.590601971" lon="34.887398025">
      <ele>1184.094</ele>
      <time>2021-10-12T16:07:41Z</time>
    </trkpt>
    <trkpt lat="38.590570958" lon="34.887403976">
      <ele>1184.254</ele>
      <time>2021-10-12T16:07:42Z</time>
    </trkpt>
    <trkpt lat="38.590542041" lon="34.887411017">
      <ele>1184.484</ele>
      <time>2021-10-12T16:07:44Z</time>
    </trkpt>
    <trkpt lat="38.590516979" lon="34.887420991">
      <ele>1184.761</ele>
      <time>2021-10-12T16:07:45Z</time>
    </trkpt>
    <trkpt lat="38.590494012" lon="34.887439013">
      <ele>1185.008</ele>
      <time>2021-10-12T16:07:46Z</time>
    </trkpt>
    <trkpt lat="38.590476997" lon="34.887459967">
      <ele>1185.194</ele>
      <time>2021-10-12T16:07:46Z</time>
    </trkpt>
    <trkpt lat="38.59045797" lon="34.887478994">
      <ele>1185.428</ele>
      <time>2021-10-12T16:07:47Z</time>
    </trkpt>
    <trkpt lat="38.590439027" lon="34.887499027">
      <ele>1185.679</ele>
      <time>2021-10-12T16:07:48Z</time>
    </trkpt>
    <trkpt lat="38.590425029" lon="34.887520988">
      <ele>1185.915</ele>
      <time>2021-10-12T16:07:49Z</time>
    </trkpt>
    <trkpt lat="38.590418994" lon="34.887543032">
      <ele>1186.043</ele>
      <time>2021-10-12T16:07:50Z</time>
    </trkpt>
    <trkpt lat="38.590399968" lon="34.887584019">
      <ele>1186.41</ele>
      <time>2021-10-12T16:07:51Z</time>
    </trkpt>
    <trkpt lat="38.590393011" lon="34.88760598">
      <ele>1186.564</ele>
      <time>2021-10-12T16:07:52Z</time>
    </trkpt>
    <trkpt lat="38.590383036" lon="34.887628024">
      <ele>1186.771</ele>
      <time>2021-10-12T16:07:53Z</time>
    </trkpt>
    <trkpt lat="38.590372978" lon="34.887646968">
      <ele>1186.977</ele>
      <time>2021-10-12T16:07:53Z</time>
    </trkpt>
    <trkpt lat="38.590357974" lon="34.887668006">
      <ele>1187.275</ele>
      <time>2021-10-12T16:07:54Z</time>
    </trkpt>
    <trkpt lat="38.590341965" lon="34.887687033">
      <ele>1187.593</ele>
      <time>2021-10-12T16:07:55Z</time>
    </trkpt>
    <trkpt lat="38.590325033" lon="34.887702959">
      <ele>1187.926</ele>
      <time>2021-10-12T16:07:56Z</time>
    </trkpt>
    <trkpt lat="38.590293014" lon="34.887728021">
      <ele>1188.556</ele>
      <time>2021-10-12T16:07:57Z</time>
    </trkpt>
    <trkpt lat="38.590277005" lon="34.887746042">
      <ele>1188.891</ele>
      <time>2021-10-12T16:07:58Z</time>
    </trkpt>
    <trkpt lat="38.590262001" lon="34.887766996">
      <ele>1189.075</ele>
      <time>2021-10-12T16:07:59Z</time>
    </trkpt>
    <trkpt lat="38.590242974" lon="34.887789963">
      <ele>1189.212</ele>
      <time>2021-10-12T16:08:00Z</time>
    </trkpt>
    <trkpt lat="38.590229983" lon="34.887814019">
      <ele>1189.236</ele>
      <time>2021-10-12T16:08:00Z</time>
    </trkpt>
    <trkpt lat="38.590225037" lon="34.887836985">
      <ele>1189.207</ele>
      <time>2021-10-12T16:08:01Z</time>
    </trkpt>
    <trkpt lat="38.590217996" lon="34.887862969">
      <ele>1189.19</ele>
      <time>2021-10-12T16:08:02Z</time>
    </trkpt>
    <trkpt lat="38.590211039" lon="34.887889037">
      <ele>1189.176</ele>
      <time>2021-10-12T16:08:03Z</time>
    </trkpt>
    <trkpt lat="38.590205004" lon="34.887914015">
      <ele>1189.162</ele>
      <time>2021-10-12T16:08:03Z</time>
    </trkpt>
    <trkpt lat="38.590202993" lon="34.887938993">
      <ele>1189.114</ele>
      <time>2021-10-12T16:08:04Z</time>
    </trkpt>
    <trkpt lat="38.590197042" lon="34.887965983">
      <ele>1189.101</ele>
      <time>2021-10-12T16:08:05Z</time>
    </trkpt>
    <trkpt lat="38.590187989" lon="34.887991967">
      <ele>1189.125</ele>
      <time>2021-10-12T16:08:06Z</time>
    </trkpt>
    <trkpt lat="38.590177009" lon="34.888019962">
      <ele>1189.17</ele>
      <time>2021-10-12T16:08:07Z</time>
    </trkpt>
    <trkpt lat="38.59016804" lon="34.88804603">
      <ele>1189.206</ele>
      <time>2021-10-12T16:08:08Z</time>
    </trkpt>
    <trkpt lat="38.590157982" lon="34.888075031">
      <ele>1189.264</ele>
      <time>2021-10-12T16:08:09Z</time>
    </trkpt>
    <trkpt lat="38.590145996" lon="34.888106966">
      <ele>1189.335</ele>
      <time>2021-10-12T16:08:10Z</time>
    </trkpt>
    <trkpt lat="38.590138033" lon="34.888136974">
      <ele>1189.362</ele>
      <time>2021-10-12T16:08:10Z</time>
    </trkpt>
    <trkpt lat="38.590125041" lon="34.888168992">
      <ele>1189.425</ele>
      <time>2021-10-12T16:08:12Z</time>
    </trkpt>
    <trkpt lat="38.590110959" lon="34.888204029">
      <ele>1189.481</ele>
      <time>2021-10-12T16:08:13Z</time>
    </trkpt>
    <trkpt lat="38.590100985" lon="34.88823303">
      <ele>1189.503</ele>
      <time>2021-10-12T16:08:14Z</time>
    </trkpt>
    <trkpt lat="38.590088999" lon="34.888263959">
      <ele>1189.529</ele>
      <time>2021-10-12T16:08:15Z</time>
    </trkpt>
    <trkpt lat="38.590073995" lon="34.888295978">
      <ele>1189.566</ele>
      <time>2021-10-12T16:08:16Z</time>
    </trkpt>
    <trkpt lat="38.590059998" lon="34.888327997">
      <ele>1189.583</ele>
      <time>2021-10-12T16:08:17Z</time>
    </trkpt>
    <trkpt lat="38.590043988" lon="34.888360016">
      <ele>1189.618</ele>
      <time>2021-10-12T16:08:18Z</time>
    </trkpt>
    <trkpt lat="38.59002999" lon="34.888391029">
      <ele>1189.621</ele>
      <time>2021-10-12T16:08:19Z</time>
    </trkpt>
    <trkpt lat="38.590013981" lon="34.888425982">
      <ele>1189.599</ele>
      <time>2021-10-12T16:08:20Z</time>
    </trkpt>
    <trkpt lat="38.589997971" lon="34.888462024">
      <ele>1189.541</ele>
      <time>2021-10-12T16:08:21Z</time>
    </trkpt>
    <trkpt lat="38.589984979" lon="34.888498988">
      <ele>1189.425</ele>
      <time>2021-10-12T16:08:22Z</time>
    </trkpt>
    <trkpt lat="38.589970982" lon="34.888537964">
      <ele>1189.291</ele>
      <time>2021-10-12T16:08:24Z</time>
    </trkpt>
    <trkpt lat="38.589954972" lon="34.888573">
      <ele>1189.159</ele>
      <time>2021-10-12T16:08:25Z</time>
    </trkpt>
    <trkpt lat="38.589940974" lon="34.888605019">
      <ele>1189.027</ele>
      <time>2021-10-12T16:08:26Z</time>
    </trkpt>
    <trkpt lat="38.589923037" lon="34.88863796">
      <ele>1188.78</ele>
      <time>2021-10-12T16:08:27Z</time>
    </trkpt>
    <trkpt lat="38.589905016" lon="34.888670985">
      <ele>1188.495</ele>
      <time>2021-10-12T16:08:28Z</time>
    </trkpt>
    <trkpt lat="38.589886995" lon="34.888700992">
      <ele>1188.221</ele>
      <time>2021-10-12T16:08:29Z</time>
    </trkpt>
    <trkpt lat="38.589867968" lon="34.888734017">
      <ele>1187.905</ele>
      <time>2021-10-12T16:08:31Z</time>
    </trkpt>
    <trkpt lat="38.589850031" lon="34.888764024">
      <ele>1187.602</ele>
      <time>2021-10-12T16:08:32Z</time>
    </trkpt>
    <trkpt lat="38.589829998" lon="34.888792019">
      <ele>1187.299</ele>
      <time>2021-10-12T16:08:33Z</time>
    </trkpt>
    <trkpt lat="38.589809965" lon="34.888822027">
      <ele>1186.962</ele>
      <time>2021-10-12T16:08:34Z</time>
    </trkpt>
    <trkpt lat="38.589792028" lon="34.888854967">
      <ele>1186.587</ele>
      <time>2021-10-12T16:08:35Z</time>
    </trkpt>
    <trkpt lat="38.589774007" lon="34.888888998">
      <ele>1186.186</ele>
      <time>2021-10-12T16:08:36Z</time>
    </trkpt>
    <trkpt lat="38.589760009" lon="34.88892504">
      <ele>1185.988</ele>
      <time>2021-10-12T16:08:37Z</time>
    </trkpt>
    <trkpt lat="38.589747017" lon="34.888962004">
      <ele>1185.803</ele>
      <time>2021-10-12T16:08:39Z</time>
    </trkpt>
    <trkpt lat="38.589737965" lon="34.888996035">
      <ele>1185.649</ele>
      <time>2021-10-12T16:08:40Z</time>
    </trkpt>
    <trkpt lat="38.589736037" lon="34.889032999">
      <ele>1185.505</ele>
      <time>2021-10-12T16:08:41Z</time>
    </trkpt>
    <trkpt lat="38.589736959" lon="34.889068035">
      <ele>1185.374</ele>
      <time>2021-10-12T16:08:42Z</time>
    </trkpt>
    <trkpt lat="38.589748023" lon="34.889096031">
      <ele>1185.278</ele>
      <time>2021-10-12T16:08:43Z</time>
    </trkpt>
    <trkpt lat="38.589764033" lon="34.889126038">
      <ele>1185.168</ele>
      <time>2021-10-12T16:08:44Z</time>
    </trkpt>
    <trkpt lat="38.589782976" lon="34.889158979">
      <ele>1185.034</ele>
      <time>2021-10-12T16:08:45Z</time>
    </trkpt>
    <trkpt lat="38.589810971" lon="34.88918798">
      <ele>1185.0</ele>
      <time>2021-10-12T16:08:46Z</time>
    </trkpt>
    <trkpt lat="38.589901999" lon="34.889260987">
      <ele>1185.0</ele>
      <time>2021-10-12T16:08:50Z</time>
    </trkpt>
    <trkpt lat="38.589929994" lon="34.889289988">
      <ele>1185.0</ele>
      <time>2021-10-12T16:08:52Z</time>
    </trkpt>
    <trkpt lat="38.589952039" lon="34.889323013">
      <ele>1185.0</ele>
      <time>2021-10-12T16:08:53Z</time>
    </trkpt>
    <trkpt lat="38.589987997" lon="34.88944103">
      <ele>1185.0</ele>
      <time>2021-10-12T16:08:56Z</time>
    </trkpt>
    <trkpt lat="38.589981962" lon="34.889483023">
      <ele>1184.74</ele>
      <time>2021-10-12T16:08:58Z</time>
    </trkpt>
    <trkpt lat="38.589972993" lon="34.889526023">
      <ele>1184.47</ele>
      <time>2021-10-12T16:08:59Z</time>
    </trkpt>
    <trkpt lat="38.589960001" lon="34.889569022">
      <ele>1184.232</ele>
      <time>2021-10-12T16:09:00Z</time>
    </trkpt>
    <trkpt lat="38.589946004" lon="34.889609003">
      <ele>1184.045</ele>
      <time>2021-10-12T16:09:02Z</time>
    </trkpt>
    <trkpt lat="38.589936029" lon="34.889648985">
      <ele>1183.866</ele>
      <time>2021-10-12T16:09:03Z</time>
    </trkpt>
    <trkpt lat="38.589923037" lon="34.889688967">
      <ele>1183.727</ele>
      <time>2021-10-12T16:09:04Z</time>
    </trkpt>
    <trkpt lat="38.589911973" lon="34.889729032">
      <ele>1183.577</ele>
      <time>2021-10-12T16:09:05Z</time>
    </trkpt>
    <trkpt lat="38.589895964" lon="34.889767002">
      <ele>1183.366</ele>
      <time>2021-10-12T16:09:07Z</time>
    </trkpt>
    <trkpt lat="38.589881966" lon="34.889806984">
      <ele>1183.11</ele>
      <time>2021-10-12T16:09:08Z</time>
    </trkpt>
    <trkpt lat="38.589863023" lon="34.889845038">
      <ele>1182.884</ele>
      <time>2021-10-12T16:09:09Z</time>
    </trkpt>
    <trkpt lat="38.589848019" lon="34.889886025">
      <ele>1182.592</ele>
      <time>2021-10-12T16:09:10Z</time>
    </trkpt>
    <trkpt lat="38.589834021" lon="34.889921984">
      <ele>1182.327</ele>
      <time>2021-10-12T16:09:12Z</time>
    </trkpt>
    <trkpt lat="38.589819018" lon="34.88996096">
      <ele>1182.024</ele>
      <time>2021-10-12T16:09:13Z</time>
    </trkpt>
    <trkpt lat="38.589804014" lon="34.890003037">
      <ele>1181.684</ele>
      <time>2021-10-12T16:09:14Z</time>
    </trkpt>
    <trkpt lat="38.589792028" lon="34.890043018">
      <ele>1181.439</ele>
      <time>2021-10-12T16:09:15Z</time>
    </trkpt>
    <trkpt lat="38.589779958" lon="34.890081994">
      <ele>1181.202</ele>
      <time>2021-10-12T16:09:17Z</time>
    </trkpt>
    <trkpt lat="38.589767972" lon="34.890119964">
      <ele>1180.972</ele>
      <time>2021-10-12T16:09:18Z</time>
    </trkpt>
    <trkpt lat="38.589759003" lon="34.89016003">
      <ele>1180.715</ele>
      <time>2021-10-12T16:09:19Z</time>
    </trkpt>
    <trkpt lat="38.589749029" lon="34.890201017">
      <ele>1180.456</ele>
      <time>2021-10-12T16:09:20Z</time>
    </trkpt>
    <trkpt lat="38.589736959" lon="34.890242005">
      <ele>1180.205</ele>
      <time>2021-10-12T16:09:22Z</time>
    </trkpt>
    <trkpt lat="38.589722961" lon="34.890283998">
      <ele>1179.975</ele>
      <time>2021-10-12T16:09:23Z</time>
    </trkpt>
    <trkpt lat="38.589713993" lon="34.890322974">
      <ele>1179.862</ele>
      <time>2021-10-12T16:09:24Z</time>
    </trkpt>
    <trkpt lat="38.589687003" lon="34.890408972">
      <ele>1179.595</ele>
      <time>2021-10-12T16:09:27Z</time>
    </trkpt>
    <trkpt lat="38.589668982" lon="34.890451971">
      <ele>1179.444</ele>
      <time>2021-10-12T16:09:28Z</time>
    </trkpt>
    <trkpt lat="38.589652972" lon="34.890494971">
      <ele>1179.272</ele>
      <time>2021-10-12T16:09:30Z</time>
    </trkpt>
    <trkpt lat="38.58963998" lon="34.890535036">
      <ele>1179.096</ele>
      <time>2021-10-12T16:09:31Z</time>
    </trkpt>
    <trkpt lat="38.589629" lon="34.890576024">
      <ele>1178.926</ele>
      <time>2021-10-12T16:09:32Z</time>
    </trkpt>
    <trkpt lat="38.589620031" lon="34.890621034">
      <ele>1178.764</ele>
      <time>2021-10-12T16:09:33Z</time>
    </trkpt>
    <trkpt lat="38.589611985" lon="34.890665039">
      <ele>1178.606</ele>
      <time>2021-10-12T16:09:35Z</time>
    </trkpt>
    <trkpt lat="38.589597987" lon="34.890705021">
      <ele>1178.462</ele>
      <time>2021-10-12T16:09:36Z</time>
    </trkpt>
    <trkpt lat="38.589583989" lon="34.890746009">
      <ele>1178.314</ele>
      <time>2021-10-12T16:09:37Z</time>
    </trkpt>
    <trkpt lat="38.589569991" lon="34.890784984">
      <ele>1178.174</ele>
      <time>2021-10-12T16:09:39Z</time>
    </trkpt>
    <trkpt lat="38.589560017" lon="34.890823038">
      <ele>1178.037</ele>
      <time>2021-10-12T16:09:40Z</time>
    </trkpt>
    <trkpt lat="38.589548031" lon="34.890861008">
      <ele>1177.938</ele>
      <time>2021-10-12T16:09:41Z</time>
    </trkpt>
    <trkpt lat="38.589535039" lon="34.890903002">
      <ele>1177.831</ele>
      <time>2021-10-12T16:09:42Z</time>
    </trkpt>
    <trkpt lat="38.589522969" lon="34.890943989">
      <ele>1177.714</ele>
      <time>2021-10-12T16:09:43Z</time>
    </trkpt>
    <trkpt lat="38.589509977" lon="34.890985982">
      <ele>1177.58</ele>
      <time>2021-10-12T16:09:45Z</time>
    </trkpt>
    <trkpt lat="38.589498997" lon="34.891028982">
      <ele>1177.434</ele>
      <time>2021-10-12T16:09:46Z</time>
    </trkpt>
    <trkpt lat="38.589481981" lon="34.891073992">
      <ele>1177.251</ele>
      <time>2021-10-12T16:09:48Z</time>
    </trkpt>
    <trkpt lat="38.589465972" lon="34.89111498">
      <ele>1177.064</ele>
      <time>2021-10-12T16:09:49Z</time>
    </trkpt>
    <trkpt lat="38.589450968" lon="34.89115404">
      <ele>1176.869</ele>
      <time>2021-10-12T16:09:50Z</time>
    </trkpt>
    <trkpt lat="38.589437976" lon="34.891195027">
      <ele>1176.658</ele>
      <time>2021-10-12T16:09:51Z</time>
    </trkpt>
    <trkpt lat="38.589418028" lon="34.891235009">
      <ele>1176.406</ele>
      <time>2021-10-12T16:09:53Z</time>
    </trkpt>
    <trkpt lat="38.589403024" lon="34.891274991">
      <ele>1176.2</ele>
      <time>2021-10-12T16:09:54Z</time>
    </trkpt>
    <trkpt lat="38.589390032" lon="34.891314972">
      <ele>1176.018</ele>
      <time>2021-10-12T16:09:55Z</time>
    </trkpt>
    <trkpt lat="38.589375028" lon="34.891357971">
      <ele>1175.834</ele>
      <time>2021-10-12T16:09:57Z</time>
    </trkpt>
    <trkpt lat="38.589357007" lon="34.891398959">
      <ele>1175.66</ele>
      <time>2021-10-12T16:09:58Z</time>
    </trkpt>
    <trkpt lat="38.589338986" lon="34.891436007">
      <ele>1175.515</ele>
      <time>2021-10-12T16:09:59Z</time>
    </trkpt>
    <trkpt lat="38.589323983" lon="34.891473977">
      <ele>1175.393</ele>
      <time>2021-10-12T16:10:01Z</time>
    </trkpt>
    <trkpt lat="38.589305962" lon="34.891513037">
      <ele>1175.277</ele>
      <time>2021-10-12T16:10:02Z</time>
    </trkpt>
    <trkpt lat="38.589293975" lon="34.891552012">
      <ele>1175.189</ele>
      <time>2021-10-12T16:10:03Z</time>
    </trkpt>
    <trkpt lat="38.589277966" lon="34.891590988">
      <ele>1175.109</ele>
      <time>2021-10-12T16:10:04Z</time>
    </trkpt>
    <trkpt lat="38.589253994" lon="34.891637005">
      <ele>1175.034</ele>
      <time>2021-10-12T16:10:06Z</time>
    </trkpt>
    <trkpt lat="38.589233961" lon="34.891676987">
      <ele>1174.954</ele>
      <time>2021-10-12T16:10:07Z</time>
    </trkpt>
    <trkpt lat="38.589215018" lon="34.89171504">
      <ele>1174.796</ele>
      <time>2021-10-12T16:10:09Z</time>
    </trkpt>
    <trkpt lat="38.58920102" lon="34.891750999">
      <ele>1174.659</ele>
      <time>2021-10-12T16:10:10Z</time>
    </trkpt>
    <trkpt lat="38.589182999" lon="34.891787963">
      <ele>1174.538</ele>
      <time>2021-10-12T16:10:11Z</time>
    </trkpt>
    <trkpt lat="38.589165984" lon="34.891822999">
      <ele>1174.439</ele>
      <time>2021-10-12T16:10:12Z</time>
    </trkpt>
    <trkpt lat="38.589147963" lon="34.891855018">
      <ele>1174.368</ele>
      <time>2021-10-12T16:10:13Z</time>
    </trkpt>
    <trkpt lat="38.589130025" lon="34.891889971">
      <ele>1174.302</ele>
      <time>2021-10-12T16:10:15Z</time>
    </trkpt>
    <trkpt lat="38.589114016" lon="34.891925007">
      <ele>1174.246</ele>
      <time>2021-10-12T16:10:16Z</time>
    </trkpt>
    <trkpt lat="38.589098006" lon="34.891955014">
      <ele>1174.219</ele>
      <time>2021-10-12T16:10:17Z</time>
    </trkpt>
    <trkpt lat="38.589084009" lon="34.891984016">
      <ele>1174.198</ele>
      <time>2021-10-12T16:10:18Z</time>
    </trkpt>
    <trkpt lat="38.589067999" lon="34.892012011">
      <ele>1174.198</ele>
      <time>2021-10-12T16:10:19Z</time>
    </trkpt>
    <trkpt lat="38.589048972" lon="34.892045036">
      <ele>1174.215</ele>
      <time>2021-10-12T16:10:20Z</time>
    </trkpt>
    <trkpt lat="38.589032963" lon="34.892075965">
      <ele>1174.236</ele>
      <time>2021-10-12T16:10:21Z</time>
    </trkpt>
    <trkpt lat="38.589017037" lon="34.892106978">
      <ele>1174.269</ele>
      <time>2021-10-12T16:10:22Z</time>
    </trkpt>
    <trkpt lat="38.589002034" lon="34.892138997">
      <ele>1174.307</ele>
      <time>2021-10-12T16:10:23Z</time>
    </trkpt>
    <trkpt lat="38.588984013" lon="34.892172022">
      <ele>1174.377</ele>
      <time>2021-10-12T16:10:25Z</time>
    </trkpt>
    <trkpt lat="38.588969009" lon="34.892204041">
      <ele>1174.442</ele>
      <time>2021-10-12T16:10:26Z</time>
    </trkpt>
    <trkpt lat="38.588954005" lon="34.892235976">
      <ele>1174.52</ele>
      <time>2021-10-12T16:10:27Z</time>
    </trkpt>
    <trkpt lat="38.58893699" lon="34.892269">
      <ele>1174.625</ele>
      <time>2021-10-12T16:10:28Z</time>
    </trkpt>
    <trkpt lat="38.588918969" lon="34.892300013">
      <ele>1174.753</ele>
      <time>2021-10-12T16:10:29Z</time>
    </trkpt>
    <trkpt lat="38.588903965" lon="34.892328009">
      <ele>1174.871</ele>
      <time>2021-10-12T16:10:30Z</time>
    </trkpt>
    <trkpt lat="38.588886028" lon="34.89235701">
      <ele>1175.01</ele>
      <time>2021-10-12T16:10:31Z</time>
    </trkpt>
    <trkpt lat="38.588869013" lon="34.892387018">
      <ele>1175.072</ele>
      <time>2021-10-12T16:10:32Z</time>
    </trkpt>
    <trkpt lat="38.588850992" lon="34.892419036">
      <ele>1175.136</ele>
      <time>2021-10-12T16:10:33Z</time>
    </trkpt>
    <trkpt lat="38.588832971" lon="34.892451977">
      <ele>1175.201</ele>
      <time>2021-10-12T16:10:34Z</time>
    </trkpt>
    <trkpt lat="38.588816039" lon="34.892483996">
      <ele>1175.262</ele>
      <time>2021-10-12T16:10:35Z</time>
    </trkpt>
    <trkpt lat="38.588798018" lon="34.892516015">
      <ele>1175.327</ele>
      <time>2021-10-12T16:10:37Z</time>
    </trkpt>
    <trkpt lat="38.588779997" lon="34.892547028">
      <ele>1175.392</ele>
      <time>2021-10-12T16:10:38Z</time>
    </trkpt>
    <trkpt lat="38.58876097" lon="34.892578963">
      <ele>1175.461</ele>
      <time>2021-10-12T16:10:39Z</time>
    </trkpt>
    <trkpt lat="38.588741021" lon="34.892612994">
      <ele>1175.532</ele>
      <time>2021-10-12T16:10:40Z</time>
    </trkpt>
    <trkpt lat="38.588724006" lon="34.892647024">
      <ele>1175.594</ele>
      <time>2021-10-12T16:10:41Z</time>
    </trkpt>
    <trkpt lat="38.588703973" lon="34.892679965">
      <ele>1175.666</ele>
      <time>2021-10-12T16:10:43Z</time>
    </trkpt>
    <trkpt lat="38.58868503" lon="34.892710978">
      <ele>1175.734</ele>
      <time>2021-10-12T16:10:44Z</time>
    </trkpt>
    <trkpt lat="38.588669021" lon="34.892742997">
      <ele>1175.792</ele>
      <time>2021-10-12T16:10:45Z</time>
    </trkpt>
    <trkpt lat="38.588648988" lon="34.892775016">
      <ele>1175.864</ele>
      <time>2021-10-12T16:10:46Z</time>
    </trkpt>
    <trkpt lat="38.588629961" lon="34.892808041">
      <ele>1176.034</ele>
      <time>2021-10-12T16:10:47Z</time>
    </trkpt>
    <trkpt lat="38.588615963" lon="34.892837964">
      <ele>1176.195</ele>
      <time>2021-10-12T16:10:48Z</time>
    </trkpt>
    <trkpt lat="38.58859702" lon="34.892868977">
      <ele>1176.194</ele>
      <time>2021-10-12T16:10:49Z</time>
    </trkpt>
    <trkpt lat="38.588581011" lon="34.892895967">
      <ele>1176.117</ele>
      <time>2021-10-12T16:10:50Z</time>
    </trkpt>
    <trkpt lat="38.588563995" lon="34.892927986">
      <ele>1176.018</ele>
      <time>2021-10-12T16:10:51Z</time>
    </trkpt>
    <trkpt lat="38.588544969" lon="34.89296101">
      <ele>1175.869</ele>
      <time>2021-10-12T16:10:53Z</time>
    </trkpt>
    <trkpt lat="38.58852502" lon="34.892993029">
      <ele>1175.675</ele>
      <time>2021-10-12T16:10:54Z</time>
    </trkpt>
    <trkpt lat="38.588505993" lon="34.893027982">
      <ele>1175.462</ele>
      <time>2021-10-12T16:10:55Z</time>
    </trkpt>
    <trkpt lat="38.588486966" lon="34.893061006">
      <ele>1175.162</ele>
      <time>2021-10-12T16:10:56Z</time>
    </trkpt>
    <trkpt lat="38.588469028" lon="34.893097971">
      <ele>1174.574</ele>
      <time>2021-10-12T16:10:57Z</time>
    </trkpt>
    <trkpt lat="38.588451007" lon="34.893136024">
      <ele>1173.992</ele>
      <time>2021-10-12T16:10:59Z</time>
    </trkpt>
    <trkpt lat="38.588429969" lon="34.893172989">
      <ele>1173.399</ele>
      <time>2021-10-12T16:11:00Z</time>
    </trkpt>
    <trkpt lat="38.588413037" lon="34.893204002">
      <ele>1172.926</ele>
      <time>2021-10-12T16:11:01Z</time>
    </trkpt>
    <trkpt lat="38.588397028" lon="34.893230991">
      <ele>1172.509</ele>
      <time>2021-10-12T16:11:02Z</time>
    </trkpt>
    <trkpt lat="38.588381018" lon="34.893258987">
      <ele>1172.096</ele>
      <time>2021-10-12T16:11:03Z</time>
    </trkpt>
    <trkpt lat="38.58835998" lon="34.893292012">
      <ele>1171.6</ele>
      <time>2021-10-12T16:11:04Z</time>
    </trkpt>
    <trkpt lat="38.588331984" lon="34.893325958">
      <ele>1171.038</ele>
      <time>2021-10-12T16:11:06Z</time>
    </trkpt>
    <trkpt lat="38.58831103" lon="34.893358983">
      <ele>1170.574</ele>
      <time>2021-10-12T16:11:07Z</time>
    </trkpt>
    <trkpt lat="38.588284962" lon="34.893393014">
      <ele>1170.048</ele>
      <time>2021-10-12T16:11:08Z</time>
    </trkpt>
    <trkpt lat="38.588259984" lon="34.893426038">
      <ele>1169.54</ele>
      <time>2021-10-12T16:11:10Z</time>
    </trkpt>
    <trkpt lat="38.588236012" lon="34.893456968">
      <ele>1169.059</ele>
      <time>2021-10-12T16:11:11Z</time>
    </trkpt>
    <trkpt lat="38.588208016" lon="34.893484041">
      <ele>1168.561</ele>
      <time>2021-10-12T16:11:12Z</time>
    </trkpt>
    <trkpt lat="38.588183038" lon="34.893509019">
      <ele>1168.112</ele>
      <time>2021-10-12T16:11:14Z</time>
    </trkpt>
    <trkpt lat="38.588155964" lon="34.893533997">
      <ele>1167.64</ele>
      <time>2021-10-12T16:11:15Z</time>
    </trkpt>
    <trkpt lat="38.588126041" lon="34.893564004">
      <ele>1167.1</ele>
      <time>2021-10-12T16:11:16Z</time>
    </trkpt>
    <trkpt lat="38.588097962" lon="34.893586971">
      <ele>1166.632</ele>
      <time>2021-10-12T16:11:17Z</time>
    </trkpt>
    <trkpt lat="38.588067032" lon="34.893610021">
      <ele>1166.132</ele>
      <time>2021-10-12T16:11:19Z</time>
    </trkpt>
    <trkpt lat="38.588036019" lon="34.893632988">
      <ele>1165.618</ele>
      <time>2021-10-12T16:11:20Z</time>
    </trkpt>
    <trkpt lat="38.588005006" lon="34.893652014">
      <ele>1165.167</ele>
      <time>2021-10-12T16:11:21Z</time>
    </trkpt>
    <trkpt lat="38.587974999" lon="34.89366903">
      <ele>1164.734</ele>
      <time>2021-10-12T16:11:23Z</time>
    </trkpt>
    <trkpt lat="38.587945998" lon="34.893684033">
      <ele>1164.32</ele>
      <time>2021-10-12T16:11:24Z</time>
    </trkpt>
    <trkpt lat="38.587916996" lon="34.893699959">
      <ele>1163.883</ele>
      <time>2021-10-12T16:11:25Z</time>
    </trkpt>
    <trkpt lat="38.587887995" lon="34.893714041">
      <ele>1163.458</ele>
      <time>2021-10-12T16:11:26Z</time>
    </trkpt>
    <trkpt lat="38.587857988" lon="34.893729966">
      <ele>1162.99</ele>
      <time>2021-10-12T16:11:27Z</time>
    </trkpt>
    <trkpt lat="38.587824963" lon="34.893751005">
      <ele>1162.411</ele>
      <time>2021-10-12T16:11:29Z</time>
    </trkpt>
    <trkpt lat="38.587791016" lon="34.893770032">
      <ele>1161.834</ele>
      <time>2021-10-12T16:11:30Z</time>
    </trkpt>
    <trkpt lat="38.587756986" lon="34.893788975">
      <ele>1161.337</ele>
      <time>2021-10-12T16:11:31Z</time>
    </trkpt>
    <trkpt lat="38.587721027" lon="34.89380599">
      <ele>1160.928</ele>
      <time>2021-10-12T16:11:33Z</time>
    </trkpt>
    <trkpt lat="38.587683979" lon="34.893818982">
      <ele>1160.584</ele>
      <time>2021-10-12T16:11:34Z</time>
    </trkpt>
    <trkpt lat="38.587653972" lon="34.893837003">
      <ele>1160.218</ele>
      <time>2021-10-12T16:11:35Z</time>
    </trkpt>
    <trkpt lat="38.587622037" lon="34.893851001">
      <ele>1159.908</ele>
      <time>2021-10-12T16:11:37Z</time>
    </trkpt>
    <trkpt lat="38.587589012" lon="34.893863993">
      <ele>1159.618</ele>
      <time>2021-10-12T16:11:38Z</time>
    </trkpt>
    <trkpt lat="38.587555988" lon="34.893880002">
      <ele>1159.304</ele>
      <time>2021-10-12T16:11:39Z</time>
    </trkpt>
    <trkpt lat="38.587523969" lon="34.893900035">
      <ele>1159.006</ele>
      <time>2021-10-12T16:11:41Z</time>
    </trkpt>
    <trkpt lat="38.587494968" lon="34.893921996">
      <ele>1158.775</ele>
      <time>2021-10-12T16:11:42Z</time>
    </trkpt>
    <trkpt lat="38.587463032" lon="34.893949991">
      <ele>1158.635</ele>
      <time>2021-10-12T16:11:43Z</time>
    </trkpt>
    <trkpt lat="38.587435959" lon="34.893979998">
      <ele>1158.423</ele>
      <time>2021-10-12T16:11:45Z</time>
    </trkpt>
    <trkpt lat="38.587407041" lon="34.894014029">
      <ele>1158.132</ele>
      <time>2021-10-12T16:11:46Z</time>
    </trkpt>
    <trkpt lat="38.587374017" lon="34.894044036">
      <ele>1157.83</ele>
      <time>2021-10-12T16:11:48Z</time>
    </trkpt>
    <trkpt lat="38.587345015" lon="34.894074965">
      <ele>1157.471</ele>
      <time>2021-10-12T16:11:49Z</time>
    </trkpt>
    <trkpt lat="38.587320037" lon="34.894106984">
      <ele>1157.06</ele>
      <time>2021-10-12T16:11:50Z</time>
    </trkpt>
    <trkpt lat="38.58730101" lon="34.894141015">
      <ele>1156.601</ele>
      <time>2021-10-12T16:11:51Z</time>
    </trkpt>
    <trkpt lat="38.587276032" lon="34.894175967">
      <ele>1156.066</ele>
      <time>2021-10-12T16:11:53Z</time>
    </trkpt>
    <trkpt lat="38.587252982" lon="34.894214021">
      <ele>1155.448</ele>
      <time>2021-10-12T16:11:54Z</time>
    </trkpt>
    <trkpt lat="38.587231021" lon="34.894251991">
      <ele>1154.813</ele>
      <time>2021-10-12T16:11:56Z</time>
    </trkpt>
    <trkpt lat="38.587210989" lon="34.894287027">
      <ele>1154.267</ele>
      <time>2021-10-12T16:11:57Z</time>
    </trkpt>
    <trkpt lat="38.587193973" lon="34.89431804">
      <ele>1153.82</ele>
      <time>2021-10-12T16:11:58Z</time>
    </trkpt>
    <trkpt lat="38.587177964" lon="34.89434503">
      <ele>1153.432</ele>
      <time>2021-10-12T16:11:59Z</time>
    </trkpt>
    <trkpt lat="38.587158015" lon="34.894378977">
      <ele>1152.943</ele>
      <time>2021-10-12T16:12:00Z</time>
    </trkpt>
    <trkpt lat="38.587137982" lon="34.894414013">
      <ele>1152.438</ele>
      <time>2021-10-12T16:12:01Z</time>
    </trkpt>
    <trkpt lat="38.587119961" lon="34.894446032">
      <ele>1151.983</ele>
      <time>2021-10-12T16:12:03Z</time>
    </trkpt>
    <trkpt lat="38.587102024" lon="34.894480985">
      <ele>1151.605</ele>
      <time>2021-10-12T16:12:04Z</time>
    </trkpt>
    <trkpt lat="38.587079979" lon="34.894518033">
      <ele>1151.205</ele>
      <time>2021-10-12T16:12:05Z</time>
    </trkpt>
    <trkpt lat="38.587061036" lon="34.894551979">
      <ele>1150.839</ele>
      <time>2021-10-12T16:12:06Z</time>
    </trkpt>
    <trkpt lat="38.587042009" lon="34.894587016">
      <ele>1150.46</ele>
      <time>2021-10-12T16:12:08Z</time>
    </trkpt>
    <trkpt lat="38.587019965" lon="34.89462004">
      <ele>1150.104</ele>
      <time>2021-10-12T16:12:09Z</time>
    </trkpt>
    <trkpt lat="38.586996999" lon="34.89465801">
      <ele>1149.693</ele>
      <time>2021-10-12T16:12:10Z</time>
    </trkpt>
    <trkpt lat="38.586973026" lon="34.89469598">
      <ele>1149.283</ele>
      <time>2021-10-12T16:12:12Z</time>
    </trkpt>
    <trkpt lat="38.58694897" lon="34.894731017">
      <ele>1148.873</ele>
      <time>2021-10-12T16:12:13Z</time>
    </trkpt>
    <trkpt lat="38.586926004" lon="34.894767981">
      <ele>1148.407</ele>
      <time>2021-10-12T16:12:14Z</time>
    </trkpt>
    <trkpt lat="38.586899014" lon="34.894802012">
      <ele>1148.015</ele>
      <time>2021-10-12T16:12:16Z</time>
    </trkpt>
    <trkpt lat="38.586872024" lon="34.894835958">
      <ele>1147.623</ele>
      <time>2021-10-12T16:12:17Z</time>
    </trkpt>
    <trkpt lat="38.586839" lon="34.89486496">
      <ele>1147.324</ele>
      <time>2021-10-12T16:12:19Z</time>
    </trkpt>
    <trkpt lat="38.586807987" lon="34.894892033">
      <ele>1147.046</ele>
      <time>2021-10-12T16:12:20Z</time>
    </trkpt>
    <trkpt lat="38.58677798" lon="34.89492204">
      <ele>1146.722</ele>
      <time>2021-10-12T16:12:21Z</time>
    </trkpt>
    <trkpt lat="38.586747972" lon="34.894948024">
      <ele>1146.456</ele>
      <time>2021-10-12T16:12:23Z</time>
    </trkpt>
    <trkpt lat="38.586719977" lon="34.894970991">
      <ele>1146.226</ele>
      <time>2021-10-12T16:12:24Z</time>
    </trkpt>
    <trkpt lat="38.58668997" lon="34.894991023">
      <ele>1146.045</ele>
      <time>2021-10-12T16:12:25Z</time>
    </trkpt>
    <trkpt lat="38.586663986" lon="34.895008961">
      <ele>1145.955</ele>
      <time>2021-10-12T16:12:26Z</time>
    </trkpt>
    <trkpt lat="38.58663599" lon="34.89502497">
      <ele>1146.041</ele>
      <time>2021-10-12T16:12:28Z</time>
    </trkpt>
    <trkpt lat="38.586612018" lon="34.89504098">
      <ele>1146.098</ele>
      <time>2021-10-12T16:12:29Z</time>
    </trkpt>
    <trkpt lat="38.586587962" lon="34.895062018">
      <ele>1146.12</ele>
      <time>2021-10-12T16:12:30Z</time>
    </trkpt>
    <trkpt lat="38.58656399" lon="34.895080039">
      <ele>1146.163</ele>
      <time>2021-10-12T16:12:31Z</time>
    </trkpt>
    <trkpt lat="38.586539011" lon="34.895095965">
      <ele>1146.228</ele>
      <time>2021-10-12T16:12:32Z</time>
    </trkpt>
    <trkpt lat="38.586512022" lon="34.895109041">
      <ele>1146.328</ele>
      <time>2021-10-12T16:12:33Z</time>
    </trkpt>
    <trkpt lat="38.586452007" lon="34.895148017">
      <ele>1146.48</ele>
      <time>2021-10-12T16:12:35Z</time>
    </trkpt>
    <trkpt lat="38.586423006" lon="34.89516696">
      <ele>1146.552</ele>
      <time>2021-10-12T16:12:36Z</time>
    </trkpt>
    <trkpt lat="38.586396016" lon="34.895186992">
      <ele>1146.602</ele>
      <time>2021-10-12T16:12:38Z</time>
    </trkpt>
    <trkpt lat="38.586363997" lon="34.895209037">
      <ele>1146.786</ele>
      <time>2021-10-12T16:12:39Z</time>
    </trkpt>
    <trkpt lat="38.586327033" lon="34.89522798">
      <ele>1147.067</ele>
      <time>2021-10-12T16:12:40Z</time>
    </trkpt>
    <trkpt lat="38.586297026" lon="34.895246001">
      <ele>1147.259</ele>
      <time>2021-10-12T16:12:42Z</time>
    </trkpt>
    <trkpt lat="38.586265007" lon="34.895265028">
      <ele>1147.45</ele>
      <time>2021-10-12T16:12:43Z</time>
    </trkpt>
    <trkpt lat="38.586237011" lon="34.895282965">
      <ele>1147.603</ele>
      <time>2021-10-12T16:12:44Z</time>
    </trkpt>
    <trkpt lat="38.586205998" lon="34.895301992">
      <ele>1147.801</ele>
      <time>2021-10-12T16:12:45Z</time>
    </trkpt>
    <trkpt lat="38.586176997" lon="34.895323031">
      <ele>1147.963</ele>
      <time>2021-10-12T16:12:47Z</time>
    </trkpt>
    <trkpt lat="38.586150007" lon="34.895348009">
      <ele>1148.074</ele>
      <time>2021-10-12T16:12:48Z</time>
    </trkpt>
    <trkpt lat="38.586122012" lon="34.895368041">
      <ele>1148.232</ele>
      <time>2021-10-12T16:12:49Z</time>
    </trkpt>
    <trkpt lat="38.586090999" lon="34.895394025">
      <ele>1148.392</ele>
      <time>2021-10-12T16:12:50Z</time>
    </trkpt>
    <trkpt lat="38.586068032" lon="34.89541498">
      <ele>1148.479</ele>
      <time>2021-10-12T16:12:51Z</time>
    </trkpt>
    <trkpt lat="38.586040959" lon="34.895434007">
      <ele>1148.601</ele>
      <time>2021-10-12T16:12:53Z</time>
    </trkpt>
    <trkpt lat="38.586016987" lon="34.895452028">
      <ele>1148.676</ele>
      <time>2021-10-12T16:12:54Z</time>
    </trkpt>
    <trkpt lat="38.585991003" lon="34.89546896">
      <ele>1148.758</ele>
      <time>2021-10-12T16:12:55Z</time>
    </trkpt>
    <trkpt lat="38.585968958" lon="34.895483041">
      <ele>1148.813</ele>
      <time>2021-10-12T16:12:56Z</time>
    </trkpt>
    <trkpt lat="38.585946998" lon="34.895498967">
      <ele>1148.83</ele>
      <time>2021-10-12T16:12:57Z</time>
    </trkpt>
    <trkpt lat="38.585925959" lon="34.895514976">
      <ele>1148.82</ele>
      <time>2021-10-12T16:12:57Z</time>
    </trkpt>
    <trkpt lat="38.585908022" lon="34.895531991">
      <ele>1148.756</ele>
      <time>2021-10-12T16:12:58Z</time>
    </trkpt>
    <trkpt lat="38.585881032" lon="34.895550013">
      <ele>1148.73</ele>
      <time>2021-10-12T16:12:59Z</time>
    </trkpt>
    <trkpt lat="38.585857982" lon="34.895566022">
      <ele>1148.744</ele>
      <time>2021-10-12T16:13:00Z</time>
    </trkpt>
    <trkpt lat="38.585841972" lon="34.89558002">
      <ele>1148.759</ele>
      <time>2021-10-12T16:13:01Z</time>
    </trkpt>
    <trkpt lat="38.585815988" lon="34.895599969">
      <ele>1148.805</ele>
      <time>2021-10-12T16:13:02Z</time>
    </trkpt>
    <trkpt lat="38.585795034" lon="34.895614972">
      <ele>1148.848</ele>
      <time>2021-10-12T16:13:03Z</time>
    </trkpt>
    <trkpt lat="38.585776007" lon="34.895631988">
      <ele>1148.862</ele>
      <time>2021-10-12T16:13:04Z</time>
    </trkpt>
    <trkpt lat="38.585751029" lon="34.895650009">
      <ele>1148.913</ele>
      <time>2021-10-12T16:13:05Z</time>
    </trkpt>
    <trkpt lat="38.585725967" lon="34.89566803">
      <ele>1148.963</ele>
      <time>2021-10-12T16:13:06Z</time>
    </trkpt>
    <trkpt lat="38.585704006" lon="34.895684961">
      <ele>1148.999</ele>
      <time>2021-10-12T16:13:07Z</time>
    </trkpt>
    <trkpt lat="38.585679028" lon="34.895700971">
      <ele>1149.064</ele>
      <time>2021-10-12T16:13:08Z</time>
    </trkpt>
    <trkpt lat="38.585656984" lon="34.895721003">
      <ele>1149.078</ele>
      <time>2021-10-12T16:13:09Z</time>
    </trkpt>
    <trkpt lat="38.585634017" lon="34.895737013">
      <ele>1149.129</ele>
      <time>2021-10-12T16:13:10Z</time>
    </trkpt>
    <trkpt lat="38.585609039" lon="34.89575604">
      <ele>1149.171</ele>
      <time>2021-10-12T16:13:11Z</time>
    </trkpt>
    <trkpt lat="38.585555982" lon="34.895773977">
      <ele>1149.424</ele>
      <time>2021-10-12T16:13:13Z</time>
    </trkpt>
    <trkpt lat="38.585444" lon="34.895799961">
      <ele>1150.043</ele>
      <time>2021-10-12T16:13:17Z</time>
    </trkpt>
    <trkpt lat="38.585346015" lon="34.895841032">
      <ele>1150.502</ele>
      <time>2021-10-12T16:13:21Z</time>
    </trkpt>
    <trkpt lat="38.585253982" lon="34.895886965">
      <ele>1151.257</ele>
      <time>2021-10-12T16:13:25Z</time>
    </trkpt>
    <trkpt lat="38.585139988" lon="34.895912027">
      <ele>1152.488</ele>
      <time>2021-10-12T16:13:29Z</time>
    </trkpt>
    <trkpt lat="38.585080979" lon="34.895934993">
      <ele>1153.125</ele>
      <time>2021-10-12T16:13:31Z</time>
    </trkpt>
    <trkpt lat="38.585051978" lon="34.895952009">
      <ele>1153.439</ele>
      <time>2021-10-12T16:13:33Z</time>
    </trkpt>
    <trkpt lat="38.585021971" lon="34.895966006">
      <ele>1153.763</ele>
      <time>2021-10-12T16:13:34Z</time>
    </trkpt>
    <trkpt lat="38.584993975" lon="34.895975981">
      <ele>1154.022</ele>
      <time>2021-10-12T16:13:35Z</time>
    </trkpt>
    <trkpt lat="38.584963968" lon="34.895986961">
      <ele>1154.13</ele>
      <time>2021-10-12T16:13:36Z</time>
    </trkpt>
    <trkpt lat="38.584871013" lon="34.896026021">
      <ele>1154.464</ele>
      <time>2021-10-12T16:13:40Z</time>
    </trkpt>
    <trkpt lat="38.584842011" lon="34.896040019">
      <ele>1154.569</ele>
      <time>2021-10-12T16:13:41Z</time>
    </trkpt>
    <trkpt lat="38.58481301" lon="34.896052005">
      <ele>1154.673</ele>
      <time>2021-10-12T16:13:42Z</time>
    </trkpt>
    <trkpt lat="38.58478602" lon="34.896062985">
      <ele>1154.77</ele>
      <time>2021-10-12T16:13:43Z</time>
    </trkpt>
    <trkpt lat="38.58475903" lon="34.896068014">
      <ele>1154.867</ele>
      <time>2021-10-12T16:13:44Z</time>
    </trkpt>
    <trkpt lat="38.584732963" lon="34.896073965">
      <ele>1154.961</ele>
      <time>2021-10-12T16:13:45Z</time>
    </trkpt>
    <trkpt lat="38.584707985" lon="34.89608">
      <ele>1154.903</ele>
      <time>2021-10-12T16:13:46Z</time>
    </trkpt>
    <trkpt lat="38.584679989" lon="34.89609601">
      <ele>1154.704</ele>
      <time>2021-10-12T16:13:47Z</time>
    </trkpt>
    <trkpt lat="38.584656017" lon="34.896103973">
      <ele>1154.529</ele>
      <time>2021-10-12T16:13:48Z</time>
    </trkpt>
    <trkpt lat="38.584629027" lon="34.896111013">
      <ele>1154.329</ele>
      <time>2021-10-12T16:13:49Z</time>
    </trkpt>
    <trkpt lat="38.584603965" lon="34.896118976">
      <ele>1154.214</ele>
      <time>2021-10-12T16:13:50Z</time>
    </trkpt>
    <trkpt lat="38.58457203" lon="34.89613004">
      <ele>1154.044</ele>
      <time>2021-10-12T16:13:51Z</time>
    </trkpt>
    <trkpt lat="38.584541017" lon="34.896136997">
      <ele>1153.825</ele>
      <time>2021-10-12T16:13:52Z</time>
    </trkpt>
    <trkpt lat="38.584507992" lon="34.896154013">
      <ele>1153.599</ele>
      <time>2021-10-12T16:13:54Z</time>
    </trkpt>
    <trkpt lat="38.584476979" lon="34.896163987">
      <ele>1153.323</ele>
      <time>2021-10-12T16:13:55Z</time>
    </trkpt>
    <trkpt lat="38.58444999" lon="34.896173039">
      <ele>1153.058</ele>
      <time>2021-10-12T16:13:56Z</time>
    </trkpt>
    <trkpt lat="38.584417971" lon="34.896183014">
      <ele>1152.975</ele>
      <time>2021-10-12T16:13:57Z</time>
    </trkpt>
    <trkpt lat="38.584392993" lon="34.896192988">
      <ele>1152.945</ele>
      <time>2021-10-12T16:13:58Z</time>
    </trkpt>
    <trkpt lat="38.584367009" lon="34.896203969">
      <ele>1152.907</ele>
      <time>2021-10-12T16:13:59Z</time>
    </trkpt>
    <trkpt lat="38.584339013" lon="34.896214027">
      <ele>1152.859</ele>
      <time>2021-10-12T16:14:00Z</time>
    </trkpt>
    <trkpt lat="38.584316969" lon="34.896225007">
      <ele>1152.812</ele>
      <time>2021-10-12T16:14:01Z</time>
    </trkpt>
    <trkpt lat="38.58429702" lon="34.896240011">
      <ele>1152.754</ele>
      <time>2021-10-12T16:14:02Z</time>
    </trkpt>
    <trkpt lat="38.584276987" lon="34.896249985">
      <ele>1152.699</ele>
      <time>2021-10-12T16:14:03Z</time>
    </trkpt>
    <trkpt lat="38.584252009" lon="34.896260966">
      <ele>1152.626</ele>
      <time>2021-10-12T16:14:04Z</time>
    </trkpt>
    <trkpt lat="38.584226025" lon="34.896271024">
      <ele>1152.547</ele>
      <time>2021-10-12T16:14:05Z</time>
    </trkpt>
    <trkpt lat="38.584203981" lon="34.896279993">
      <ele>1152.474</ele>
      <time>2021-10-12T16:14:05Z</time>
    </trkpt>
    <trkpt lat="38.584177997" lon="34.896288961">
      <ele>1152.386</ele>
      <time>2021-10-12T16:14:06Z</time>
    </trkpt>
    <trkpt lat="38.584151007" lon="34.896300025">
      <ele>1152.394</ele>
      <time>2021-10-12T16:14:08Z</time>
    </trkpt>
    <trkpt lat="38.584126029" lon="34.896319974">
      <ele>1152.431</ele>
      <time>2021-10-12T16:14:09Z</time>
    </trkpt>
    <trkpt lat="38.584099039" lon="34.896339001">
      <ele>1152.467</ele>
      <time>2021-10-12T16:14:10Z</time>
    </trkpt>
    <trkpt lat="38.584073978" lon="34.896360962">
      <ele>1152.468</ele>
      <time>2021-10-12T16:14:11Z</time>
    </trkpt>
    <trkpt lat="38.584054029" lon="34.896386024">
      <ele>1152.42</ele>
      <time>2021-10-12T16:14:12Z</time>
    </trkpt>
    <trkpt lat="38.584027961" lon="34.896400021">
      <ele>1152.519</ele>
      <time>2021-10-12T16:14:13Z</time>
    </trkpt>
    <trkpt lat="38.584006" lon="34.896417959">
      <ele>1152.623</ele>
      <time>2021-10-12T16:14:14Z</time>
    </trkpt>
    <trkpt lat="38.583982028" lon="34.896440003">
      <ele>1152.726</ele>
      <time>2021-10-12T16:14:15Z</time>
    </trkpt>
    <trkpt lat="38.583956966" lon="34.896457018">
      <ele>1152.815</ele>
      <time>2021-10-12T16:14:16Z</time>
    </trkpt>
    <trkpt lat="38.583934" lon="34.896475039">
      <ele>1152.888</ele>
      <time>2021-10-12T16:14:17Z</time>
    </trkpt>
    <trkpt lat="38.583912039" lon="34.896494988">
      <ele>1152.948</ele>
      <time>2021-10-12T16:14:18Z</time>
    </trkpt>
    <trkpt lat="38.583893012" lon="34.896514015">
      <ele>1152.992</ele>
      <time>2021-10-12T16:14:19Z</time>
    </trkpt>
    <trkpt lat="38.583873985" lon="34.89653497">
      <ele>1153.051</ele>
      <time>2021-10-12T16:14:20Z</time>
    </trkpt>
    <trkpt lat="38.58385697" lon="34.896555003">
      <ele>1153.092</ele>
      <time>2021-10-12T16:14:21Z</time>
    </trkpt>
    <trkpt lat="38.583836015" lon="34.896579981">
      <ele>1153.119</ele>
      <time>2021-10-12T16:14:22Z</time>
    </trkpt>
    <trkpt lat="38.583817994" lon="34.896604037">
      <ele>1153.115</ele>
      <time>2021-10-12T16:14:23Z</time>
    </trkpt>
    <trkpt lat="38.583801985" lon="34.896631027">
      <ele>1153.08</ele>
      <time>2021-10-12T16:14:24Z</time>
    </trkpt>
    <trkpt lat="38.583778013" lon="34.896653993">
      <ele>1153.036</ele>
      <time>2021-10-12T16:14:25Z</time>
    </trkpt>
    <trkpt lat="38.583755968" lon="34.896680983">
      <ele>1153.027</ele>
      <time>2021-10-12T16:14:26Z</time>
    </trkpt>
    <trkpt lat="38.583736019" lon="34.896708978">
      <ele>1153.068</ele>
      <time>2021-10-12T16:14:27Z</time>
    </trkpt>
    <trkpt lat="38.583714981" lon="34.896743009">
      <ele>1153.103</ele>
      <time>2021-10-12T16:14:28Z</time>
    </trkpt>
    <trkpt lat="38.583695032" lon="34.896767987">
      <ele>1153.11</ele>
      <time>2021-10-12T16:14:29Z</time>
    </trkpt>
    <trkpt lat="38.583679022" lon="34.896786008">
      <ele>1153.105</ele>
      <time>2021-10-12T16:14:30Z</time>
    </trkpt>
    <trkpt lat="38.583657984" lon="34.896803023">
      <ele>1153.083</ele>
      <time>2021-10-12T16:14:31Z</time>
    </trkpt>
    <trkpt lat="38.583637029" lon="34.896819033">
      <ele>1153.051</ele>
      <time>2021-10-12T16:14:32Z</time>
    </trkpt>
    <trkpt lat="38.583616996" lon="34.896833031">
      <ele>1153.013</ele>
      <time>2021-10-12T16:14:33Z</time>
    </trkpt>
    <trkpt lat="38.583596963" lon="34.89684904">
      <ele>1153.0</ele>
      <time>2021-10-12T16:14:34Z</time>
    </trkpt>
    <trkpt lat="38.583579026" lon="34.89686396">
      <ele>1153.0</ele>
      <time>2021-10-12T16:14:35Z</time>
    </trkpt>
    <trkpt lat="38.583564023" lon="34.896879969">
      <ele>1153.0</ele>
      <time>2021-10-12T16:14:35Z</time>
    </trkpt>
    <trkpt lat="38.583546001" lon="34.896902014">
      <ele>1153.0</ele>
      <time>2021-10-12T16:14:36Z</time>
    </trkpt>
    <trkpt lat="38.583525969" lon="34.896922968">
      <ele>1153.0</ele>
      <time>2021-10-12T16:14:37Z</time>
    </trkpt>
    <trkpt lat="38.583500991" lon="34.896945013">
      <ele>1153.005</ele>
      <time>2021-10-12T16:14:38Z</time>
    </trkpt>
    <trkpt lat="38.58348297" lon="34.896967979">
      <ele>1153.215</ele>
      <time>2021-10-12T16:14:39Z</time>
    </trkpt>
    <trkpt lat="38.583462015" lon="34.896993041">
      <ele>1153.431</ele>
      <time>2021-10-12T16:14:40Z</time>
    </trkpt>
    <trkpt lat="38.583442988" lon="34.897013996">
      <ele>1153.6</ele>
      <time>2021-10-12T16:14:41Z</time>
    </trkpt>
    <trkpt lat="38.583423039" lon="34.897035034">
      <ele>1153.758</ele>
      <time>2021-10-12T16:14:42Z</time>
    </trkpt>
    <trkpt lat="38.58340703" lon="34.897060012">
      <ele>1153.942</ele>
      <time>2021-10-12T16:14:43Z</time>
    </trkpt>
    <trkpt lat="38.583385991" lon="34.897083985">
      <ele>1154.1</ele>
      <time>2021-10-12T16:14:44Z</time>
    </trkpt>
    <trkpt lat="38.583366964" lon="34.897109969">
      <ele>1154.264</ele>
      <time>2021-10-12T16:14:45Z</time>
    </trkpt>
    <trkpt lat="38.583347015" lon="34.897133019">
      <ele>1154.391</ele>
      <time>2021-10-12T16:14:46Z</time>
    </trkpt>
    <trkpt lat="38.583297981" lon="34.897213988">
      <ele>1155.195</ele>
      <time>2021-10-12T16:14:49Z</time>
    </trkpt>
    <trkpt lat="38.583282977" lon="34.897280037">
      <ele>1155.817</ele>
      <time>2021-10-12T16:14:51Z</time>
    </trkpt>
    <trkpt lat="38.58327602" lon="34.897411969">
      <ele>1156.92</ele>
      <time>2021-10-12T16:14:55Z</time>
    </trkpt>
    <trkpt lat="38.583278032" lon="34.897443987">
      <ele>1157.154</ele>
      <time>2021-10-12T16:14:56Z</time>
    </trkpt>
    <trkpt lat="38.583283983" lon="34.897475">
      <ele>1157.337</ele>
      <time>2021-10-12T16:14:57Z</time>
    </trkpt>
    <trkpt lat="38.583293036" lon="34.897506014">
      <ele>1157.475</ele>
      <time>2021-10-12T16:14:58Z</time>
    </trkpt>
    <trkpt lat="38.583297981" lon="34.89753996">
      <ele>1157.651</ele>
      <time>2021-10-12T16:14:59Z</time>
    </trkpt>
    <trkpt lat="38.583297981" lon="34.897572985">
      <ele>1157.874</ele>
      <time>2021-10-12T16:15:00Z</time>
    </trkpt>
    <trkpt lat="38.583300998" lon="34.897607015">
      <ele>1158.075</ele>
      <time>2021-10-12T16:15:01Z</time>
    </trkpt>
    <trkpt lat="38.583300998" lon="34.897645991">
      <ele>1158.339</ele>
      <time>2021-10-12T16:15:02Z</time>
    </trkpt>
    <trkpt lat="38.583302004" lon="34.897687985">
      <ele>1158.616</ele>
      <time>2021-10-12T16:15:03Z</time>
    </trkpt>
    <trkpt lat="38.583295969" lon="34.89772696">
      <ele>1158.928</ele>
      <time>2021-10-12T16:15:04Z</time>
    </trkpt>
    <trkpt lat="38.583295969" lon="34.897764008">
      <ele>1159.177</ele>
      <time>2021-10-12T16:15:05Z</time>
    </trkpt>
    <trkpt lat="38.583291024" lon="34.897798039">
      <ele>1159.366</ele>
      <time>2021-10-12T16:15:06Z</time>
    </trkpt>
    <trkpt lat="38.583287001" lon="34.897831986">
      <ele>1159.496</ele>
      <time>2021-10-12T16:15:07Z</time>
    </trkpt>
    <trkpt lat="38.583287001" lon="34.897862999">
      <ele>1159.589</ele>
      <time>2021-10-12T16:15:08Z</time>
    </trkpt>
    <trkpt lat="38.583291024" lon="34.897892">
      <ele>1159.653</ele>
      <time>2021-10-12T16:15:09Z</time>
    </trkpt>
    <trkpt lat="38.583287001" lon="34.897921002">
      <ele>1159.763</ele>
      <time>2021-10-12T16:15:10Z</time>
    </trkpt>
    <trkpt lat="38.583255988" lon="34.898046982">
      <ele>1160.256</ele>
      <time>2021-10-12T16:15:14Z</time>
    </trkpt>
    <trkpt lat="38.583216006" lon="34.898151001">
      <ele>1160.819</ele>
      <time>2021-10-12T16:15:17Z</time>
    </trkpt>
    <trkpt lat="38.583197985" lon="34.898184026">
      <ele>1160.962</ele>
      <time>2021-10-12T16:15:18Z</time>
    </trkpt>
    <trkpt lat="38.583140988" lon="34.898283016">
      <ele>1161.196</ele>
      <time>2021-10-12T16:15:22Z</time>
    </trkpt>
    <trkpt lat="38.583121961" lon="34.898313023">
      <ele>1161.204</ele>
      <time>2021-10-12T16:15:23Z</time>
    </trkpt>
    <trkpt lat="38.583048033" lon="34.89839701">
      <ele>1161.446</ele>
      <time>2021-10-12T16:15:27Z</time>
    </trkpt>
    <trkpt lat="38.58301702" lon="34.898422994">
      <ele>1161.556</ele>
      <time>2021-10-12T16:15:28Z</time>
    </trkpt>
    <trkpt lat="38.582933033" lon="34.898465993">
      <ele>1161.534</ele>
      <time>2021-10-12T16:15:31Z</time>
    </trkpt>
    <trkpt lat="38.582885005" lon="34.898488959">
      <ele>1161.433</ele>
      <time>2021-10-12T16:15:33Z</time>
    </trkpt>
    <trkpt lat="38.582813004" lon="34.898514021">
      <ele>1161.165</ele>
      <time>2021-10-12T16:15:36Z</time>
    </trkpt>
    <trkpt lat="38.582739998" lon="34.89856096">
      <ele>1161.272</ele>
      <time>2021-10-12T16:15:39Z</time>
    </trkpt>
    <trkpt lat="38.58267202" lon="34.898640001">
      <ele>1162.019</ele>
      <time>2021-10-12T16:15:42Z</time>
    </trkpt>
    <trkpt lat="38.582575964" lon="34.898702027">
      <ele>1162.811</ele>
      <time>2021-10-12T16:15:46Z</time>
    </trkpt>
    <trkpt lat="38.582532965" lon="34.898722982">
      <ele>1162.954</ele>
      <time>2021-10-12T16:15:48Z</time>
    </trkpt>
    <trkpt lat="38.582511004" lon="34.898741003">
      <ele>1162.995</ele>
      <time>2021-10-12T16:15:49Z</time>
    </trkpt>
    <trkpt lat="38.582489965" lon="34.89876003">
      <ele>1163.017</ele>
      <time>2021-10-12T16:15:50Z</time>
    </trkpt>
    <trkpt lat="38.582469011" lon="34.898779979">
      <ele>1163.044</ele>
      <time>2021-10-12T16:15:51Z</time>
    </trkpt>
    <trkpt lat="38.582449984" lon="34.898792971">
      <ele>1163.062</ele>
      <time>2021-10-12T16:15:52Z</time>
    </trkpt>
    <trkpt lat="38.582428023" lon="34.898811998">
      <ele>1163.072</ele>
      <time>2021-10-12T16:15:53Z</time>
    </trkpt>
    <trkpt lat="38.582373038" lon="34.898839993">
      <ele>1163.08</ele>
      <time>2021-10-12T16:15:55Z</time>
    </trkpt>
    <trkpt lat="38.582347976" lon="34.898852985">
      <ele>1163.071</ele>
      <time>2021-10-12T16:15:56Z</time>
    </trkpt>
    <trkpt lat="38.582327021" lon="34.898864971">
      <ele>1163.054</ele>
      <time>2021-10-12T16:15:57Z</time>
    </trkpt>
    <trkpt lat="38.582302965" lon="34.898877041">
      <ele>1163.03</ele>
      <time>2021-10-12T16:15:58Z</time>
    </trkpt>
    <trkpt lat="38.582279999" lon="34.898883998">
      <ele>1163.014</ele>
      <time>2021-10-12T16:15:59Z</time>
    </trkpt>
    <trkpt lat="38.58225896" lon="34.898895985">
      <ele>1163.036</ele>
      <time>2021-10-12T16:16:00Z</time>
    </trkpt>
    <trkpt lat="38.582238005" lon="34.898913">
      <ele>1163.102</ele>
      <time>2021-10-12T16:16:01Z</time>
    </trkpt>
    <trkpt lat="38.582218979" lon="34.898930015">
      <ele>1163.158</ele>
      <time>2021-10-12T16:16:01Z</time>
    </trkpt>
    <trkpt lat="38.58219903" lon="34.898951976">
      <ele>1163.292</ele>
      <time>2021-10-12T16:16:02Z</time>
    </trkpt>
    <trkpt lat="38.582177991" lon="34.898976032">
      <ele>1163.423</ele>
      <time>2021-10-12T16:16:03Z</time>
    </trkpt>
    <trkpt lat="38.58215603" lon="34.898997992">
      <ele>1163.537</ele>
      <time>2021-10-12T16:16:04Z</time>
    </trkpt>
    <trkpt lat="38.58213298" lon="34.89902297">
      <ele>1163.649</ele>
      <time>2021-10-12T16:16:06Z</time>
    </trkpt>
    <trkpt lat="38.582108002" lon="34.899046021">
      <ele>1163.744</ele>
      <time>2021-10-12T16:16:07Z</time>
    </trkpt>
    <trkpt lat="38.582085036" lon="34.899064964">
      <ele>1163.815</ele>
      <time>2021-10-12T16:16:08Z</time>
    </trkpt>
    <trkpt lat="38.58206098" lon="34.899091031">
      <ele>1163.886</ele>
      <time>2021-10-12T16:16:09Z</time>
    </trkpt>
    <trkpt lat="38.582040025" lon="34.899111986">
      <ele>1163.932</ele>
      <time>2021-10-12T16:16:10Z</time>
    </trkpt>
    <trkpt lat="38.582022004" lon="34.899136964">
      <ele>1163.97</ele>
      <time>2021-10-12T16:16:11Z</time>
    </trkpt>
    <trkpt lat="38.582002977" lon="34.899154985">
      <ele>1163.991</ele>
      <time>2021-10-12T16:16:12Z</time>
    </trkpt>
    <trkpt lat="38.581985962" lon="34.899173006">
      <ele>1164.049</ele>
      <time>2021-10-12T16:16:13Z</time>
    </trkpt>
    <trkpt lat="38.58196903" lon="34.899187004">
      <ele>1164.153</ele>
      <time>2021-10-12T16:16:13Z</time>
    </trkpt>
    <trkpt lat="38.581952015" lon="34.89919899">
      <ele>1164.236</ele>
      <time>2021-10-12T16:16:14Z</time>
    </trkpt>
    <trkpt lat="38.581932988" lon="34.899217011">
      <ele>1164.43</ele>
      <time>2021-10-12T16:16:15Z</time>
    </trkpt>
    <trkpt lat="38.581911027" lon="34.899236038">
      <ele>1164.68</ele>
      <time>2021-10-12T16:16:16Z</time>
    </trkpt>
    <trkpt lat="38.581892001" lon="34.899251964">
      <ele>1164.876</ele>
      <time>2021-10-12T16:16:17Z</time>
    </trkpt>
    <trkpt lat="38.581873979" lon="34.899268979">
      <ele>1165.057</ele>
      <time>2021-10-12T16:16:18Z</time>
    </trkpt>
    <trkpt lat="38.581855958" lon="34.899290018">
      <ele>1165.242</ele>
      <time>2021-10-12T16:16:18Z</time>
    </trkpt>
    <trkpt lat="38.581836009" lon="34.89931399">
      <ele>1165.427</ele>
      <time>2021-10-12T16:16:19Z</time>
    </trkpt>
    <trkpt lat="38.581817988" lon="34.899333017">
      <ele>1165.563</ele>
      <time>2021-10-12T16:16:20Z</time>
    </trkpt>
    <trkpt lat="38.581799967" lon="34.899353972">
      <ele>1165.687</ele>
      <time>2021-10-12T16:16:21Z</time>
    </trkpt>
    <trkpt lat="38.581783036" lon="34.899376016">
      <ele>1165.794</ele>
      <time>2021-10-12T16:16:22Z</time>
    </trkpt>
    <trkpt lat="38.581765015" lon="34.899399988">
      <ele>1165.887</ele>
      <time>2021-10-12T16:16:23Z</time>
    </trkpt>
    <trkpt lat="38.581746994" lon="34.899423039">
      <ele>1165.955</ele>
      <time>2021-10-12T16:16:24Z</time>
    </trkpt>
    <trkpt lat="38.58173199" lon="34.899446005">
      <ele>1166.003</ele>
      <time>2021-10-12T16:16:25Z</time>
    </trkpt>
    <trkpt lat="38.581718998" lon="34.899475006">
      <ele>1166.041</ele>
      <time>2021-10-12T16:16:26Z</time>
    </trkpt>
    <trkpt lat="38.581689997" lon="34.899555976">
      <ele>1166.067</ele>
      <time>2021-10-12T16:16:28Z</time>
    </trkpt>
    <trkpt lat="38.581673987" lon="34.899582965">
      <ele>1166.026</ele>
      <time>2021-10-12T16:16:29Z</time>
    </trkpt>
    <trkpt lat="38.581662001" lon="34.899610039">
      <ele>1166.044</ele>
      <time>2021-10-12T16:16:30Z</time>
    </trkpt>
    <trkpt lat="38.581610033" lon="34.899725961">
      <ele>1166.663</ele>
      <time>2021-10-12T16:16:34Z</time>
    </trkpt>
    <trkpt lat="38.581571979" lon="34.899834003">
      <ele>1168.495</ele>
      <time>2021-10-12T16:16:38Z</time>
    </trkpt>
    <trkpt lat="38.581521017" lon="34.899949003">
      <ele>1170.411</ele>
      <time>2021-10-12T16:16:41Z</time>
    </trkpt>
    <trkpt lat="38.581465026" lon="34.900055034">
      <ele>1172.155</ele>
      <time>2021-10-12T16:16:45Z</time>
    </trkpt>
    <trkpt lat="38.581450023" lon="34.900076995">
      <ele>1172.513</ele>
      <time>2021-10-12T16:16:46Z</time>
    </trkpt>
    <trkpt lat="38.581432002" lon="34.900095016">
      <ele>1172.822</ele>
      <time>2021-10-12T16:16:47Z</time>
    </trkpt>
    <trkpt lat="38.581418004" lon="34.900114965">
      <ele>1173.119</ele>
      <time>2021-10-12T16:16:48Z</time>
    </trkpt>
    <trkpt lat="38.581401994" lon="34.900133992">
      <ele>1173.398</ele>
      <time>2021-10-12T16:16:48Z</time>
    </trkpt>
    <trkpt lat="38.581389003" lon="34.900157042">
      <ele>1173.696</ele>
      <time>2021-10-12T16:16:49Z</time>
    </trkpt>
    <trkpt lat="38.581373999" lon="34.900180008">
      <ele>1173.998</ele>
      <time>2021-10-12T16:16:50Z</time>
    </trkpt>
    <trkpt lat="38.581358995" lon="34.900200963">
      <ele>1174.278</ele>
      <time>2021-10-12T16:16:51Z</time>
    </trkpt>
    <trkpt lat="38.58134198" lon="34.90021999">
      <ele>1174.545</ele>
      <time>2021-10-12T16:16:52Z</time>
    </trkpt>
    <trkpt lat="38.581324965" lon="34.900240023">
      <ele>1174.822</ele>
      <time>2021-10-12T16:16:53Z</time>
    </trkpt>
    <trkpt lat="38.581311973" lon="34.900259972">
      <ele>1175.085</ele>
      <time>2021-10-12T16:16:53Z</time>
    </trkpt>
    <trkpt lat="38.581298981" lon="34.900280004">
      <ele>1175.345</ele>
      <time>2021-10-12T16:16:54Z</time>
    </trkpt>
    <trkpt lat="38.581284983" lon="34.900299031">
      <ele>1175.575</ele>
      <time>2021-10-12T16:16:55Z</time>
    </trkpt>
    <trkpt lat="38.581268974" lon="34.900315041">
      <ele>1175.776</ele>
      <time>2021-10-12T16:16:56Z</time>
    </trkpt>
    <trkpt lat="38.581251036" lon="34.900328033">
      <ele>1175.949</ele>
      <time>2021-10-12T16:16:56Z</time>
    </trkpt>
    <trkpt lat="38.581222035" lon="34.900354017">
      <ele>1176.259</ele>
      <time>2021-10-12T16:16:58Z</time>
    </trkpt>
    <trkpt lat="38.581208037" lon="34.900370026">
      <ele>1176.431</ele>
      <time>2021-10-12T16:16:58Z</time>
    </trkpt>
    <trkpt lat="38.581194039" lon="34.90038503">
      <ele>1176.589</ele>
      <time>2021-10-12T16:16:59Z</time>
    </trkpt>
    <trkpt lat="38.581177024" lon="34.900401039">
      <ele>1176.755</ele>
      <time>2021-10-12T16:17:00Z</time>
    </trkpt>
    <trkpt lat="38.581153974" lon="34.900425011">
      <ele>1176.988</ele>
      <time>2021-10-12T16:17:01Z</time>
    </trkpt>
    <trkpt lat="38.581134025" lon="34.900449989">
      <ele>1177.209</ele>
      <time>2021-10-12T16:17:02Z</time>
    </trkpt>
    <trkpt lat="38.581110975" lon="34.90047304">
      <ele>1177.407</ele>
      <time>2021-10-12T16:17:03Z</time>
    </trkpt>
    <trkpt lat="38.581087003" lon="34.900503969">
      <ele>1177.873</ele>
      <time>2021-10-12T16:17:04Z</time>
    </trkpt>
    <trkpt lat="38.581069987" lon="34.90054504">
      <ele>1178.363</ele>
      <time>2021-10-12T16:17:06Z</time>
    </trkpt>
    <trkpt lat="38.581058001" lon="34.900564989">
      <ele>1178.777</ele>
      <time>2021-10-12T16:17:06Z</time>
    </trkpt>
    <trkpt lat="38.581038974" lon="34.900598014">
      <ele>1179.696</ele>
      <time>2021-10-12T16:17:08Z</time>
    </trkpt>
    <trkpt lat="38.581029" lon="34.900618969">
      <ele>1180.257</ele>
      <time>2021-10-12T16:17:08Z</time>
    </trkpt>
    <trkpt lat="38.581005028" lon="34.900648976">
      <ele>1181.164</ele>
      <time>2021-10-12T16:17:10Z</time>
    </trkpt>
    <trkpt lat="38.580996981" lon="34.900669008">
      <ele>1181.683</ele>
      <time>2021-10-12T16:17:10Z</time>
    </trkpt>
    <trkpt lat="38.580987006" lon="34.900689041">
      <ele>1182.224</ele>
      <time>2021-10-12T16:17:11Z</time>
    </trkpt>
    <trkpt lat="38.580965968" lon="34.900706979">
      <ele>1182.838</ele>
      <time>2021-10-12T16:17:12Z</time>
    </trkpt>
    <trkpt lat="38.580953982" lon="34.900730029">
      <ele>1183.466</ele>
      <time>2021-10-12T16:17:13Z</time>
    </trkpt>
    <trkpt lat="38.580936966" lon="34.900756013">
      <ele>1184.211</ele>
      <time>2021-10-12T16:17:14Z</time>
    </trkpt>
    <trkpt lat="38.580927998" lon="34.900776967">
      <ele>1184.76</ele>
      <time>2021-10-12T16:17:14Z</time>
    </trkpt>
    <trkpt lat="38.580910983" lon="34.900793983">
      <ele>1185.311</ele>
      <time>2021-10-12T16:17:15Z</time>
    </trkpt>
    <trkpt lat="38.580896985" lon="34.900809992">
      <ele>1185.808</ele>
      <time>2021-10-12T16:17:16Z</time>
    </trkpt>
    <trkpt lat="38.580861026" lon="34.900838993">
      <ele>1186.786</ele>
      <time>2021-10-12T16:17:17Z</time>
    </trkpt>
    <trkpt lat="38.580839988" lon="34.900853997">
      <ele>1187.229</ele>
      <time>2021-10-12T16:17:18Z</time>
    </trkpt>
    <trkpt lat="38.580820961" lon="34.900880987">
      <ele>1187.738</ele>
      <time>2021-10-12T16:17:19Z</time>
    </trkpt>
    <trkpt lat="38.580804029" lon="34.900898002">
      <ele>1188.061</ele>
      <time>2021-10-12T16:17:20Z</time>
    </trkpt>
    <trkpt lat="38.580790032" lon="34.900917029">
      <ele>1188.408</ele>
      <time>2021-10-12T16:17:21Z</time>
    </trkpt>
    <trkpt lat="38.580780979" lon="34.900937984">
      <ele>1188.766</ele>
      <time>2021-10-12T16:17:22Z</time>
    </trkpt>
    <trkpt lat="38.58076497" lon="34.900961034">
      <ele>1189.198</ele>
      <time>2021-10-12T16:17:23Z</time>
    </trkpt>
    <trkpt lat="38.580735968" lon="34.900974026">
      <ele>1189.554</ele>
      <time>2021-10-12T16:17:24Z</time>
    </trkpt>
    <trkpt lat="38.580705961" lon="34.901002022">
      <ele>1190.166</ele>
      <time>2021-10-12T16:17:25Z</time>
    </trkpt>
    <trkpt lat="38.580691041" lon="34.901019037">
      <ele>1190.529</ele>
      <time>2021-10-12T16:17:26Z</time>
    </trkpt>
    <trkpt lat="38.580676038" lon="34.90103404">
      <ele>1190.866</ele>
      <time>2021-10-12T16:17:27Z</time>
    </trkpt>
    <trkpt lat="38.58066204" lon="34.90104896">
      <ele>1191.2</ele>
      <time>2021-10-12T16:17:27Z</time>
    </trkpt>
    <trkpt lat="38.580646031" lon="34.901063964">
      <ele>1191.555</ele>
      <time>2021-10-12T16:17:28Z</time>
    </trkpt>
    <trkpt lat="38.580619963" lon="34.901092965">
      <ele>1192.225</ele>
      <time>2021-10-12T16:17:29Z</time>
    </trkpt>
    <trkpt lat="38.580600014" lon="34.90112599">
      <ele>1192.939</ele>
      <time>2021-10-12T16:17:30Z</time>
    </trkpt>
    <trkpt lat="38.580586016" lon="34.901144011">
      <ele>1193.36</ele>
      <time>2021-10-12T16:17:31Z</time>
    </trkpt>
    <trkpt lat="38.58057403" lon="34.901162032">
      <ele>1193.771</ele>
      <time>2021-10-12T16:17:32Z</time>
    </trkpt>
    <trkpt lat="38.58056196" lon="34.901179969">
      <ele>1194.188</ele>
      <time>2021-10-12T16:17:33Z</time>
    </trkpt>
    <trkpt lat="38.58054704" lon="34.901198996">
      <ele>1194.726</ele>
      <time>2021-10-12T16:17:33Z</time>
    </trkpt>
    <trkpt lat="38.580524996" lon="34.901229003">
      <ele>1195.625</ele>
      <time>2021-10-12T16:17:35Z</time>
    </trkpt>
    <trkpt lat="38.580493983" lon="34.901250964">
      <ele>1196.514</ele>
      <time>2021-10-12T16:17:36Z</time>
    </trkpt>
    <trkpt lat="38.580478979" lon="34.901264962">
      <ele>1196.995</ele>
      <time>2021-10-12T16:17:37Z</time>
    </trkpt>
    <trkpt lat="38.580463976" lon="34.90127896">
      <ele>1197.47</ele>
      <time>2021-10-12T16:17:37Z</time>
    </trkpt>
    <trkpt lat="38.580447966" lon="34.90129103">
      <ele>1197.924</ele>
      <time>2021-10-12T16:17:38Z</time>
    </trkpt>
    <trkpt lat="38.580422988" lon="34.901309973">
      <ele>1198.624</ele>
      <time>2021-10-12T16:17:39Z</time>
    </trkpt>
    <trkpt lat="38.580393987" lon="34.901332017">
      <ele>1199.422</ele>
      <time>2021-10-12T16:17:40Z</time>
    </trkpt>
    <trkpt lat="38.580377977" lon="34.901344003">
      <ele>1199.852</ele>
      <time>2021-10-12T16:17:41Z</time>
    </trkpt>
    <trkpt lat="38.580350988" lon="34.901364036">
      <ele>1200.564</ele>
      <time>2021-10-12T16:17:42Z</time>
    </trkpt>
    <trkpt lat="38.580325004" lon="34.901388008">
      <ele>1201.307</ele>
      <time>2021-10-12T16:17:43Z</time>
    </trkpt>
    <trkpt lat="38.58029902" lon="34.901414998">
      <ele>1201.708</ele>
      <time>2021-10-12T16:17:44Z</time>
    </trkpt>
    <trkpt lat="38.58027203" lon="34.901441988">
      <ele>1202.025</ele>
      <time>2021-10-12T16:17:46Z</time>
    </trkpt>
    <trkpt lat="38.580244035" lon="34.901469983">
      <ele>1202.157</ele>
      <time>2021-10-12T16:17:47Z</time>
    </trkpt>
    <trkpt lat="38.580229031" lon="34.901485993">
      <ele>1202.237</ele>
      <time>2021-10-12T16:17:48Z</time>
    </trkpt>
    <trkpt lat="38.580215033" lon="34.901500996">
      <ele>1202.317</ele>
      <time>2021-10-12T16:17:48Z</time>
    </trkpt>
    <trkpt lat="38.580197012" lon="34.901514994">
      <ele>1202.423</ele>
      <time>2021-10-12T16:17:49Z</time>
    </trkpt>
    <trkpt lat="38.580167005" lon="34.901543995">
      <ele>1202.621</ele>
      <time>2021-10-12T16:17:51Z</time>
    </trkpt>
    <trkpt lat="38.58014999" lon="34.901560005">
      <ele>1202.743</ele>
      <time>2021-10-12T16:17:51Z</time>
    </trkpt>
    <trkpt lat="38.580126017" lon="34.901582971">
      <ele>1202.928</ele>
      <time>2021-10-12T16:17:53Z</time>
    </trkpt>
    <trkpt lat="38.580101961" lon="34.901609039">
      <ele>1203.135</ele>
      <time>2021-10-12T16:17:54Z</time>
    </trkpt>
    <trkpt lat="38.580074972" lon="34.901636029">
      <ele>1203.38</ele>
      <time>2021-10-12T16:17:55Z</time>
    </trkpt>
    <trkpt lat="38.580049993" lon="34.901666036">
      <ele>1203.638</ele>
      <time>2021-10-12T16:17:56Z</time>
    </trkpt>
    <trkpt lat="38.580035996" lon="34.901681961">
      <ele>1203.528</ele>
      <time>2021-10-12T16:17:57Z</time>
    </trkpt>
    <trkpt lat="38.580021998" lon="34.901698977">
      <ele>1203.386</ele>
      <time>2021-10-12T16:17:58Z</time>
    </trkpt>
    <trkpt lat="38.580008" lon="34.901715992">
      <ele>1203.237</ele>
      <time>2021-10-12T16:17:58Z</time>
    </trkpt>
    <trkpt lat="38.579994002" lon="34.901735019">
      <ele>1202.988</ele>
      <time>2021-10-12T16:17:59Z</time>
    </trkpt>
    <trkpt lat="38.579978999" lon="34.90175304">
      <ele>1202.676</ele>
      <time>2021-10-12T16:18:00Z</time>
    </trkpt>
    <trkpt lat="38.579961983" lon="34.90176796">
      <ele>1202.417</ele>
      <time>2021-10-12T16:18:01Z</time>
    </trkpt>
    <trkpt lat="38.57994304" lon="34.901781036">
      <ele>1202.196</ele>
      <time>2021-10-12T16:18:01Z</time>
    </trkpt>
    <trkpt lat="38.579922002" lon="34.90179101">
      <ele>1202.025</ele>
      <time>2021-10-12T16:18:02Z</time>
    </trkpt>
    <trkpt lat="38.579899035" lon="34.90180199">
      <ele>1201.856</ele>
      <time>2021-10-12T16:18:03Z</time>
    </trkpt>
    <trkpt lat="38.579879003" lon="34.901813976">
      <ele>1201.701</ele>
      <time>2021-10-12T16:18:04Z</time>
    </trkpt>
    <trkpt lat="38.57985503" lon="34.901826968">
      <ele>1201.551</ele>
      <time>2021-10-12T16:18:05Z</time>
    </trkpt>
    <trkpt lat="38.579830974" lon="34.901835015">
      <ele>1201.465</ele>
      <time>2021-10-12T16:18:06Z</time>
    </trkpt>
    <trkpt lat="38.579809014" lon="34.901843984">
      <ele>1201.388</ele>
      <time>2021-10-12T16:18:07Z</time>
    </trkpt>
    <trkpt lat="38.579786969" lon="34.901851024">
      <ele>1201.338</ele>
      <time>2021-10-12T16:18:08Z</time>
    </trkpt>
    <trkpt lat="38.579765009" lon="34.901859993">
      <ele>1201.29</ele>
      <time>2021-10-12T16:18:08Z</time>
    </trkpt>
    <trkpt lat="38.579742964" lon="34.901871979">
      <ele>1201.245</ele>
      <time>2021-10-12T16:18:09Z</time>
    </trkpt>
    <trkpt lat="38.579719998" lon="34.901881032">
      <ele>1201.239</ele>
      <time>2021-10-12T16:18:10Z</time>
    </trkpt>
    <trkpt lat="38.579696026" lon="34.90189">
      <ele>1201.329</ele>
      <time>2021-10-12T16:18:11Z</time>
    </trkpt>
    <trkpt lat="38.579675993" lon="34.901897963">
      <ele>1201.417</ele>
      <time>2021-10-12T16:18:12Z</time>
    </trkpt>
    <trkpt lat="38.579654032" lon="34.90190601">
      <ele>1201.527</ele>
      <time>2021-10-12T16:18:13Z</time>
    </trkpt>
    <trkpt lat="38.579634" lon="34.901919002">
      <ele>1201.64</ele>
      <time>2021-10-12T16:18:14Z</time>
    </trkpt>
    <trkpt lat="38.579616984" lon="34.901936017">
      <ele>1201.754</ele>
      <time>2021-10-12T16:18:14Z</time>
    </trkpt>
    <trkpt lat="38.57959603" lon="34.901952026">
      <ele>1201.946</ele>
      <time>2021-10-12T16:18:15Z</time>
    </trkpt>
    <trkpt lat="38.579579014" lon="34.901968036">
      <ele>1202.162</ele>
      <time>2021-10-12T16:18:16Z</time>
    </trkpt>
    <trkpt lat="38.579558982" lon="34.901984967">
      <ele>1202.433</ele>
      <time>2021-10-12T16:18:17Z</time>
    </trkpt>
    <trkpt lat="38.579540038" lon="34.902003994">
      <ele>1202.734</ele>
      <time>2021-10-12T16:18:18Z</time>
    </trkpt>
    <trkpt lat="38.579523023" lon="34.902022015">
      <ele>1203.035</ele>
      <time>2021-10-12T16:18:19Z</time>
    </trkpt>
    <trkpt lat="38.579505002" lon="34.902041964">
      <ele>1203.388</ele>
      <time>2021-10-12T16:18:20Z</time>
    </trkpt>
    <trkpt lat="38.579487987" lon="34.902058979">
      <ele>1203.73</ele>
      <time>2021-10-12T16:18:20Z</time>
    </trkpt>
    <trkpt lat="38.579473989" lon="34.902073983">
      <ele>1204.037</ele>
      <time>2021-10-12T16:18:21Z</time>
    </trkpt>
    <trkpt lat="38.579459991" lon="34.90209301">
      <ele>1204.403</ele>
      <time>2021-10-12T16:18:22Z</time>
    </trkpt>
    <trkpt lat="38.579446999" lon="34.902112037">
      <ele>1204.775</ele>
      <time>2021-10-12T16:18:23Z</time>
    </trkpt>
    <trkpt lat="38.579435013" lon="34.90213098">
      <ele>1205.117</ele>
      <time>2021-10-12T16:18:23Z</time>
    </trkpt>
    <trkpt lat="38.579423027" lon="34.902151013">
      <ele>1205.48</ele>
      <time>2021-10-12T16:18:24Z</time>
    </trkpt>
    <trkpt lat="38.579404" lon="34.902186971">
      <ele>1206.146</ele>
      <time>2021-10-12T16:18:25Z</time>
    </trkpt>
    <trkpt lat="38.579383967" lon="34.902223013">
      <ele>1206.88</ele>
      <time>2021-10-12T16:18:27Z</time>
    </trkpt>
    <trkpt lat="38.579362007" lon="34.902262995">
      <ele>1207.671</ele>
      <time>2021-10-12T16:18:28Z</time>
    </trkpt>
    <trkpt lat="38.579347003" lon="34.902301971">
      <ele>1208.365</ele>
      <time>2021-10-12T16:18:29Z</time>
    </trkpt>
    <trkpt lat="38.579335017" lon="34.902338013">
      <ele>1208.991</ele>
      <time>2021-10-12T16:18:30Z</time>
    </trkpt>
    <trkpt lat="38.579322025" lon="34.90237196">
      <ele>1209.618</ele>
      <time>2021-10-12T16:18:31Z</time>
    </trkpt>
    <trkpt lat="38.579309033" lon="34.902414959">
      <ele>1210.37</ele>
      <time>2021-10-12T16:18:33Z</time>
    </trkpt>
    <trkpt lat="38.579301992" lon="34.902437003">
      <ele>1210.767</ele>
      <time>2021-10-12T16:18:33Z</time>
    </trkpt>
    <trkpt lat="38.579296041" lon="34.90245997">
      <ele>1211.162</ele>
      <time>2021-10-12T16:18:34Z</time>
    </trkpt>
    <trkpt lat="38.579295035" lon="34.902500035">
      <ele>1211.69</ele>
      <time>2021-10-12T16:18:35Z</time>
    </trkpt>
    <trkpt lat="38.579290006" lon="34.902542029">
      <ele>1212.167</ele>
      <time>2021-10-12T16:18:37Z</time>
    </trkpt>
    <trkpt lat="38.579282966" lon="34.902567007">
      <ele>1212.529</ele>
      <time>2021-10-12T16:18:37Z</time>
    </trkpt>
    <trkpt lat="38.579281038" lon="34.902591985">
      <ele>1212.798</ele>
      <time>2021-10-12T16:18:38Z</time>
    </trkpt>
    <trkpt lat="38.57927802" lon="34.90263599">
      <ele>1213.268</ele>
      <time>2021-10-12T16:18:39Z</time>
    </trkpt>
    <trkpt lat="38.57927802" lon="34.90265904">
      <ele>1213.484</ele>
      <time>2021-10-12T16:18:40Z</time>
    </trkpt>
    <trkpt lat="38.57927802" lon="34.902702961">
      <ele>1213.895</ele>
      <time>2021-10-12T16:18:41Z</time>
    </trkpt>
    <trkpt lat="38.579276009" lon="34.902728023">
      <ele>1214.171</ele>
      <time>2021-10-12T16:18:42Z</time>
    </trkpt>
    <trkpt lat="38.579268968" lon="34.902757024">
      <ele>1214.594</ele>
      <time>2021-10-12T16:18:43Z</time>
    </trkpt>
    <trkpt lat="38.579269974" lon="34.902786026">
      <ele>1214.82</ele>
      <time>2021-10-12T16:18:44Z</time>
    </trkpt>
    <trkpt lat="38.579259999" lon="34.902819972">
      <ele>1215.238</ele>
      <time>2021-10-12T16:18:45Z</time>
    </trkpt>
    <trkpt lat="38.579253964" lon="34.902843023">
      <ele>1215.497</ele>
      <time>2021-10-12T16:18:45Z</time>
    </trkpt>
    <trkpt lat="38.579246001" lon="34.902875042">
      <ele>1215.837</ele>
      <time>2021-10-12T16:18:46Z</time>
    </trkpt>
    <trkpt lat="38.579239966" lon="34.902905971">
      <ele>1216.122</ele>
      <time>2021-10-12T16:18:47Z</time>
    </trkpt>
    <trkpt lat="38.579237033" lon="34.902933966">
      <ele>1216.327</ele>
      <time>2021-10-12T16:18:48Z</time>
    </trkpt>
    <trkpt lat="38.579237033" lon="34.902958022">
      <ele>1216.458</ele>
      <time>2021-10-12T16:18:49Z</time>
    </trkpt>
    <trkpt lat="38.579234015" lon="34.902986018">
      <ele>1216.658</ele>
      <time>2021-10-12T16:18:50Z</time>
    </trkpt>
    <trkpt lat="38.57922798" lon="34.903016025">
      <ele>1216.912</ele>
      <time>2021-10-12T16:18:51Z</time>
    </trkpt>
    <trkpt lat="38.579226974" lon="34.903041003">
      <ele>1217.056</ele>
      <time>2021-10-12T16:18:51Z</time>
    </trkpt>
    <trkpt lat="38.579230998" lon="34.903070005">
      <ele>1217.037</ele>
      <time>2021-10-12T16:18:52Z</time>
    </trkpt>
    <trkpt lat="38.579237033" lon="34.903094983">
      <ele>1216.879</ele>
      <time>2021-10-12T16:18:53Z</time>
    </trkpt>
    <trkpt lat="38.57924399" lon="34.903131025">
      <ele>1216.66</ele>
      <time>2021-10-12T16:18:54Z</time>
    </trkpt>
    <trkpt lat="38.579240972" lon="34.903164972">
      <ele>1216.614</ele>
      <time>2021-10-12T16:18:55Z</time>
    </trkpt>
    <trkpt lat="38.579237033" lon="34.903209982">
      <ele>1216.564</ele>
      <time>2021-10-12T16:18:56Z</time>
    </trkpt>
    <trkpt lat="38.579234015" lon="34.903236972">
      <ele>1216.555</ele>
      <time>2021-10-12T16:18:57Z</time>
    </trkpt>
    <trkpt lat="38.579228986" lon="34.903261028">
      <ele>1216.605</ele>
      <time>2021-10-12T16:18:58Z</time>
    </trkpt>
    <trkpt lat="38.579222029" lon="34.903285">
      <ele>1216.709</ele>
      <time>2021-10-12T16:18:59Z</time>
    </trkpt>
    <trkpt lat="38.579213982" lon="34.903308973">
      <ele>1216.852</ele>
      <time>2021-10-12T16:18:59Z</time>
    </trkpt>
    <trkpt lat="38.579201996" lon="34.903334035">
      <ele>1217.109</ele>
      <time>2021-10-12T16:19:00Z</time>
    </trkpt>
    <trkpt lat="38.57919001" lon="34.903358007">
      <ele>1217.389</ele>
      <time>2021-10-12T16:19:01Z</time>
    </trkpt>
    <trkpt lat="38.579178024" lon="34.903382985">
      <ele>1217.692</ele>
      <time>2021-10-12T16:19:02Z</time>
    </trkpt>
    <trkpt lat="38.579165032" lon="34.903407963">
      <ele>1218.047</ele>
      <time>2021-10-12T16:19:03Z</time>
    </trkpt>
    <trkpt lat="38.579153968" lon="34.903436964">
      <ele>1218.366</ele>
      <time>2021-10-12T16:19:04Z</time>
    </trkpt>
    <trkpt lat="38.579140976" lon="34.903465966">
      <ele>1218.74</ele>
      <time>2021-10-12T16:19:05Z</time>
    </trkpt>
    <trkpt lat="38.57912899" lon="34.903493961">
      <ele>1219.085</ele>
      <time>2021-10-12T16:19:06Z</time>
    </trkpt>
    <trkpt lat="38.579111975" lon="34.90352598">
      <ele>1219.575</ele>
      <time>2021-10-12T16:19:07Z</time>
    </trkpt>
    <trkpt lat="38.579093032" lon="34.903553976">
      <ele>1220.121</ele>
      <time>2021-10-12T16:19:08Z</time>
    </trkpt>
    <trkpt lat="38.579071993" lon="34.903582977">
      <ele>1220.727</ele>
      <time>2021-10-12T16:19:09Z</time>
    </trkpt>
    <trkpt lat="38.579055984" lon="34.903609967">
      <ele>1221.188</ele>
      <time>2021-10-12T16:19:10Z</time>
    </trkpt>
    <trkpt lat="38.57903704" lon="34.903633017">
      <ele>1221.576</ele>
      <time>2021-10-12T16:19:11Z</time>
    </trkpt>
    <trkpt lat="38.579016002" lon="34.903660007">
      <ele>1221.987</ele>
      <time>2021-10-12T16:19:12Z</time>
    </trkpt>
    <trkpt lat="38.578996975" lon="34.903684985">
      <ele>1222.355</ele>
      <time>2021-10-12T16:19:13Z</time>
    </trkpt>
    <trkpt lat="38.578978032" lon="34.903711975">
      <ele>1222.706</ele>
      <time>2021-10-12T16:19:14Z</time>
    </trkpt>
    <trkpt lat="38.578955987" lon="34.903741982">
      <ele>1223.125</ele>
      <time>2021-10-12T16:19:15Z</time>
    </trkpt>
    <trkpt lat="38.578936039" lon="34.903768972">
      <ele>1223.505</ele>
      <time>2021-10-12T16:19:16Z</time>
    </trkpt>
    <trkpt lat="38.578913994" lon="34.903796967">
      <ele>1223.939</ele>
      <time>2021-10-12T16:19:17Z</time>
    </trkpt>
    <trkpt lat="38.57888801" lon="34.903826974">
      <ele>1224.465</ele>
      <time>2021-10-12T16:19:19Z</time>
    </trkpt>
    <trkpt lat="38.57886496" lon="34.90385497">
      <ele>1224.772</ele>
      <time>2021-10-12T16:19:20Z</time>
    </trkpt>
    <trkpt lat="38.578838976" lon="34.903884977">
      <ele>1225.109</ele>
      <time>2021-10-12T16:19:21Z</time>
    </trkpt>
    <trkpt lat="38.57881601" lon="34.903912973">
      <ele>1225.378</ele>
      <time>2021-10-12T16:19:22Z</time>
    </trkpt>
    <trkpt lat="38.578797989" lon="34.90394298">
      <ele>1225.51</ele>
      <time>2021-10-12T16:19:24Z</time>
    </trkpt>
    <trkpt lat="38.578779968" lon="34.903973993">
      <ele>1225.62</ele>
      <time>2021-10-12T16:19:25Z</time>
    </trkpt>
    <trkpt lat="38.578764042" lon="34.904002994">
      <ele>1225.691</ele>
      <time>2021-10-12T16:19:26Z</time>
    </trkpt>
    <trkpt lat="38.578746021" lon="34.904034007">
      <ele>1225.772</ele>
      <time>2021-10-12T16:19:27Z</time>
    </trkpt>
    <trkpt lat="38.578731017" lon="34.904064015">
      <ele>1225.791</ele>
      <time>2021-10-12T16:19:28Z</time>
    </trkpt>
    <trkpt lat="38.578715008" lon="34.904094022">
      <ele>1225.817</ele>
      <time>2021-10-12T16:19:29Z</time>
    </trkpt>
    <trkpt lat="38.578698998" lon="34.904123023">
      <ele>1225.84</ele>
      <time>2021-10-12T16:19:30Z</time>
    </trkpt>
    <trkpt lat="38.578686006" lon="34.904152025">
      <ele>1225.796</ele>
      <time>2021-10-12T16:19:31Z</time>
    </trkpt>
    <trkpt lat="38.578669997" lon="34.904182032">
      <ele>1225.754</ele>
      <time>2021-10-12T16:19:32Z</time>
    </trkpt>
    <trkpt lat="38.578654993" lon="34.90421799">
      <ele>1225.559</ele>
      <time>2021-10-12T16:19:33Z</time>
    </trkpt>
    <trkpt lat="38.578643007" lon="34.904250009">
      <ele>1225.329</ele>
      <time>2021-10-12T16:19:34Z</time>
    </trkpt>
    <trkpt lat="38.578632027" lon="34.904282028">
      <ele>1225.056</ele>
      <time>2021-10-12T16:19:35Z</time>
    </trkpt>
    <trkpt lat="38.57862398" lon="34.904313041">
      <ele>1224.734</ele>
      <time>2021-10-12T16:19:36Z</time>
    </trkpt>
    <trkpt lat="38.578618029" lon="34.904345982">
      <ele>1224.342</ele>
      <time>2021-10-12T16:19:37Z</time>
    </trkpt>
    <trkpt lat="38.578614006" lon="34.90438303">
      <ele>1223.857</ele>
      <time>2021-10-12T16:19:38Z</time>
    </trkpt>
    <trkpt lat="38.578609983" lon="34.904415971">
      <ele>1223.434</ele>
      <time>2021-10-12T16:19:39Z</time>
    </trkpt>
    <trkpt lat="38.578609983" lon="34.904448995">
      <ele>1223.024</ele>
      <time>2021-10-12T16:19:40Z</time>
    </trkpt>
    <trkpt lat="38.578607971" lon="34.90448596">
      <ele>1223.063</ele>
      <time>2021-10-12T16:19:41Z</time>
    </trkpt>
    <trkpt lat="38.578604031" lon="34.90451999">
      <ele>1223.132</ele>
      <time>2021-10-12T16:19:42Z</time>
    </trkpt>
    <trkpt lat="38.578591961" lon="34.904553015">
      <ele>1223.333</ele>
      <time>2021-10-12T16:19:43Z</time>
    </trkpt>
    <trkpt lat="38.578578969" lon="34.904582016">
      <ele>1223.522</ele>
      <time>2021-10-12T16:19:44Z</time>
    </trkpt>
    <trkpt lat="38.57856296" lon="34.904606994">
      <ele>1223.736</ele>
      <time>2021-10-12T16:19:45Z</time>
    </trkpt>
    <trkpt lat="38.578543011" lon="34.904629961">
      <ele>1223.98</ele>
      <time>2021-10-12T16:19:46Z</time>
    </trkpt>
    <trkpt lat="38.578518033" lon="34.904655023">
      <ele>1224.248</ele>
      <time>2021-10-12T16:19:47Z</time>
    </trkpt>
    <trkpt lat="38.57848702" lon="34.904682012">
      <ele>1224.534</ele>
      <time>2021-10-12T16:19:49Z</time>
    </trkpt>
    <trkpt lat="38.578453995" lon="34.904712019">
      <ele>1224.759</ele>
      <time>2021-10-12T16:19:50Z</time>
    </trkpt>
    <trkpt lat="38.578426" lon="34.904735992">
      <ele>1224.9</ele>
      <time>2021-10-12T16:19:51Z</time>
    </trkpt>
    <trkpt lat="38.578396998" lon="34.904758036">
      <ele>1225.055</ele>
      <time>2021-10-12T16:19:53Z</time>
    </trkpt>
    <trkpt lat="38.578366991" lon="34.904777985">
      <ele>1225.235</ele>
      <time>2021-10-12T16:19:54Z</time>
    </trkpt>
    <trkpt lat="38.578340001" lon="34.904800029">
      <ele>1225.368</ele>
      <time>2021-10-12T16:19:55Z</time>
    </trkpt>
    <trkpt lat="38.578312006" lon="34.904824002">
      <ele>1225.288</ele>
      <time>2021-10-12T16:19:56Z</time>
    </trkpt>
    <trkpt lat="38.578285016" lon="34.904847974">
      <ele>1225.111</ele>
      <time>2021-10-12T16:19:58Z</time>
    </trkpt>
    <trkpt lat="38.578258026" lon="34.904874042">
      <ele>1224.882</ele>
      <time>2021-10-12T16:19:59Z</time>
    </trkpt>
    <trkpt lat="38.578230031" lon="34.904898014">
      <ele>1224.635</ele>
      <time>2021-10-12T16:20:00Z</time>
    </trkpt>
    <trkpt lat="38.578201029" lon="34.904922992">
      <ele>1224.342</ele>
      <time>2021-10-12T16:20:01Z</time>
    </trkpt>
    <trkpt lat="38.578173034" lon="34.904946964">
      <ele>1224.025</ele>
      <time>2021-10-12T16:20:03Z</time>
    </trkpt>
    <trkpt lat="38.578144033" lon="34.904972026">
      <ele>1223.657</ele>
      <time>2021-10-12T16:20:04Z</time>
    </trkpt>
    <trkpt lat="38.578117965" lon="34.904999016">
      <ele>1223.237</ele>
      <time>2021-10-12T16:20:05Z</time>
    </trkpt>
    <trkpt lat="38.578092987" lon="34.905029023">
      <ele>1223.03</ele>
      <time>2021-10-12T16:20:06Z</time>
    </trkpt>
    <trkpt lat="38.578067003" lon="34.905060958">
      <ele>1222.822</ele>
      <time>2021-10-12T16:20:08Z</time>
    </trkpt>
    <trkpt lat="38.578043031" lon="34.905093983">
      <ele>1222.722</ele>
      <time>2021-10-12T16:20:09Z</time>
    </trkpt>
    <trkpt lat="38.578020986" lon="34.905128013">
      <ele>1222.721</ele>
      <time>2021-10-12T16:20:10Z</time>
    </trkpt>
    <trkpt lat="38.577995002" lon="34.905164978">
      <ele>1222.754</ele>
      <time>2021-10-12T16:20:12Z</time>
    </trkpt>
    <trkpt lat="38.577973042" lon="34.905200014">
      <ele>1222.791</ele>
      <time>2021-10-12T16:20:13Z</time>
    </trkpt>
    <trkpt lat="38.577950997" lon="34.905232033">
      <ele>1222.856</ele>
      <time>2021-10-12T16:20:14Z</time>
    </trkpt>
    <trkpt lat="38.577927025" lon="34.905261034">
      <ele>1222.958</ele>
      <time>2021-10-12T16:20:16Z</time>
    </trkpt>
    <trkpt lat="38.577903975" lon="34.905290036">
      <ele>1223.115</ele>
      <time>2021-10-12T16:20:17Z</time>
    </trkpt>
    <trkpt lat="38.57788302" lon="34.905325994">
      <ele>1223.35</ele>
      <time>2021-10-12T16:20:18Z</time>
    </trkpt>
    <trkpt lat="38.577862987" lon="34.905365976">
      <ele>1223.607</ele>
      <time>2021-10-12T16:20:19Z</time>
    </trkpt>
    <trkpt lat="38.577846978" lon="34.905410986">
      <ele>1223.862</ele>
      <time>2021-10-12T16:20:21Z</time>
    </trkpt>
    <trkpt lat="38.577831974" lon="34.905454991">
      <ele>1224.123</ele>
      <time>2021-10-12T16:20:22Z</time>
    </trkpt>
    <trkpt lat="38.577824011" lon="34.905495979">
      <ele>1224.322</ele>
      <time>2021-10-12T16:20:24Z</time>
    </trkpt>
    <trkpt lat="38.577819988" lon="34.905539984">
      <ele>1224.497</ele>
      <time>2021-10-12T16:20:25Z</time>
    </trkpt>
    <trkpt lat="38.577814959" lon="34.905582983">
      <ele>1224.5</ele>
      <time>2021-10-12T16:20:26Z</time>
    </trkpt>
    <trkpt lat="38.577816971" lon="34.905622965">
      <ele>1224.334</ele>
      <time>2021-10-12T16:20:27Z</time>
    </trkpt>
    <trkpt lat="38.577816971" lon="34.905665042">
      <ele>1224.183</ele>
      <time>2021-10-12T16:20:28Z</time>
    </trkpt>
    <trkpt lat="38.577818982" lon="34.905702006">
      <ele>1224.028</ele>
      <time>2021-10-12T16:20:30Z</time>
    </trkpt>
    <trkpt lat="38.577822" lon="34.905736037">
      <ele>1223.873</ele>
      <time>2021-10-12T16:20:31Z</time>
    </trkpt>
    <trkpt lat="38.577825017" lon="34.905770989">
      <ele>1223.714</ele>
      <time>2021-10-12T16:20:32Z</time>
    </trkpt>
    <trkpt lat="38.577829963" lon="34.905808959">
      <ele>1223.524</ele>
      <time>2021-10-12T16:20:33Z</time>
    </trkpt>
    <trkpt lat="38.577834992" lon="34.905848019">
      <ele>1223.297</ele>
      <time>2021-10-12T16:20:34Z</time>
    </trkpt>
    <trkpt lat="38.577844966" lon="34.905881966">
      <ele>1222.972</ele>
      <time>2021-10-12T16:20:35Z</time>
    </trkpt>
    <trkpt lat="38.577853013" lon="34.905923959">
      <ele>1222.596</ele>
      <time>2021-10-12T16:20:36Z</time>
    </trkpt>
    <trkpt lat="38.577858964" lon="34.905960001">
      <ele>1222.267</ele>
      <time>2021-10-12T16:20:37Z</time>
    </trkpt>
    <trkpt lat="38.577864999" lon="34.905997971">
      <ele>1221.907</ele>
      <time>2021-10-12T16:20:38Z</time>
    </trkpt>
    <trkpt lat="38.57787204" lon="34.906038959">
      <ele>1221.488</ele>
      <time>2021-10-12T16:20:40Z</time>
    </trkpt>
    <trkpt lat="38.57787204" lon="34.906071983">
      <ele>1221.248</ele>
      <time>2021-10-12T16:20:41Z</time>
    </trkpt>
    <trkpt lat="38.577881008" lon="34.90610702">
      <ele>1220.801</ele>
      <time>2021-10-12T16:20:42Z</time>
    </trkpt>
    <trkpt lat="38.577887965" lon="34.906139961">
      <ele>1220.683</ele>
      <time>2021-10-12T16:20:43Z</time>
    </trkpt>
    <trkpt lat="38.577898024" lon="34.906171979">
      <ele>1220.527</ele>
      <time>2021-10-12T16:20:44Z</time>
    </trkpt>
    <trkpt lat="38.577901963" lon="34.906205004">
      <ele>1220.504</ele>
      <time>2021-10-12T16:20:45Z</time>
    </trkpt>
    <trkpt lat="38.577909004" lon="34.906236017">
      <ele>1220.403</ele>
      <time>2021-10-12T16:20:45Z</time>
    </trkpt>
    <trkpt lat="38.577915039" lon="34.906269964">
      <ele>1220.324</ele>
      <time>2021-10-12T16:20:47Z</time>
    </trkpt>
    <trkpt lat="38.577913027" lon="34.906308018">
      <ele>1220.442</ele>
      <time>2021-10-12T16:20:48Z</time>
    </trkpt>
    <trkpt lat="38.577914033" lon="34.906343976">
      <ele>1220.484</ele>
      <time>2021-10-12T16:20:49Z</time>
    </trkpt>
    <trkpt lat="38.57791001" lon="34.90638203">
      <ele>1220.655</ele>
      <time>2021-10-12T16:20:50Z</time>
    </trkpt>
    <trkpt lat="38.577907998" lon="34.90642">
      <ele>1220.606</ele>
      <time>2021-10-12T16:20:51Z</time>
    </trkpt>
    <trkpt lat="38.577900035" lon="34.90645403">
      <ele>1220.685</ele>
      <time>2021-10-12T16:20:52Z</time>
    </trkpt>
    <trkpt lat="38.57788696" lon="34.906495018">
      <ele>1220.867</ele>
      <time>2021-10-12T16:20:53Z</time>
    </trkpt>
    <trkpt lat="38.57787204" lon="34.906536005">
      <ele>1221.095</ele>
      <time>2021-10-12T16:20:55Z</time>
    </trkpt>
    <trkpt lat="38.577857958" lon="34.906576993">
      <ele>1221.302</ele>
      <time>2021-10-12T16:20:56Z</time>
    </trkpt>
    <trkpt lat="38.57784396" lon="34.90661798">
      <ele>1221.507</ele>
      <time>2021-10-12T16:20:57Z</time>
    </trkpt>
    <trkpt lat="38.577828035" lon="34.90665704">
      <ele>1221.768</ele>
      <time>2021-10-12T16:20:58Z</time>
    </trkpt>
    <trkpt lat="38.577810014" lon="34.906700039">
      <ele>1221.841</ele>
      <time>2021-10-12T16:21:00Z</time>
    </trkpt>
    <trkpt lat="38.577789981" lon="34.906739015">
      <ele>1221.923</ele>
      <time>2021-10-12T16:21:01Z</time>
    </trkpt>
    <trkpt lat="38.57777196" lon="34.906773968">
      <ele>1221.975</ele>
      <time>2021-10-12T16:21:02Z</time>
    </trkpt>
    <trkpt lat="38.577756034" lon="34.906807998">
      <ele>1221.983</ele>
      <time>2021-10-12T16:21:04Z</time>
    </trkpt>
    <trkpt lat="38.577740025" lon="34.906840017">
      <ele>1222.028</ele>
      <time>2021-10-12T16:21:05Z</time>
    </trkpt>
    <trkpt lat="38.577719992" lon="34.906872036">
      <ele>1222.184</ele>
      <time>2021-10-12T16:21:06Z</time>
    </trkpt>
    <trkpt lat="38.577701971" lon="34.906903971">
      <ele>1222.308</ele>
      <time>2021-10-12T16:21:07Z</time>
    </trkpt>
    <trkpt lat="38.57768001" lon="34.906938002">
      <ele>1222.525</ele>
      <time>2021-10-12T16:21:08Z</time>
    </trkpt>
    <trkpt lat="38.577657966" lon="34.906971026">
      <ele>1222.882</ele>
      <time>2021-10-12T16:21:09Z</time>
    </trkpt>
    <trkpt lat="38.577639023" lon="34.907002039">
      <ele>1223.186</ele>
      <time>2021-10-12T16:21:11Z</time>
    </trkpt>
    <trkpt lat="38.577623013" lon="34.907033974">
      <ele>1223.398</ele>
      <time>2021-10-12T16:21:12Z</time>
    </trkpt>
    <trkpt lat="38.577601975" lon="34.907071022">
      <ele>1223.686</ele>
      <time>2021-10-12T16:21:13Z</time>
    </trkpt>
    <trkpt lat="38.577582026" lon="34.907109998">
      <ele>1223.917</ele>
      <time>2021-10-12T16:21:14Z</time>
    </trkpt>
    <trkpt lat="38.577564005" lon="34.907147968">
      <ele>1224.091</ele>
      <time>2021-10-12T16:21:16Z</time>
    </trkpt>
    <trkpt lat="38.57754196" lon="34.907189962">
      <ele>1224.308</ele>
      <time>2021-10-12T16:21:17Z</time>
    </trkpt>
    <trkpt lat="38.577527041" lon="34.907223992">
      <ele>1224.41</ele>
      <time>2021-10-12T16:21:18Z</time>
    </trkpt>
    <trkpt lat="38.577512959" lon="34.907258023">
      <ele>1224.597</ele>
      <time>2021-10-12T16:21:19Z</time>
    </trkpt>
    <trkpt lat="38.577507008" lon="34.907289036">
      <ele>1224.614</ele>
      <time>2021-10-12T16:21:20Z</time>
    </trkpt>
    <trkpt lat="38.577498039" lon="34.907318959">
      <ele>1224.67</ele>
      <time>2021-10-12T16:21:21Z</time>
    </trkpt>
    <trkpt lat="38.57748203" lon="34.907347038">
      <ele>1224.716</ele>
      <time>2021-10-12T16:21:22Z</time>
    </trkpt>
    <trkpt lat="38.577465015" lon="34.907381991">
      <ele>1224.73</ele>
      <time>2021-10-12T16:21:23Z</time>
    </trkpt>
    <trkpt lat="38.577450011" lon="34.907405963">
      <ele>1224.759</ele>
      <time>2021-10-12T16:21:24Z</time>
    </trkpt>
    <trkpt lat="38.577429978" lon="34.907433037">
      <ele>1224.806</ele>
      <time>2021-10-12T16:21:25Z</time>
    </trkpt>
    <trkpt lat="38.577411035" lon="34.907459021">
      <ele>1224.835</ele>
      <time>2021-10-12T16:21:26Z</time>
    </trkpt>
    <trkpt lat="38.57739402" lon="34.907485005">
      <ele>1224.838</ele>
      <time>2021-10-12T16:21:27Z</time>
    </trkpt>
    <trkpt lat="38.577375999" lon="34.907513">
      <ele>1224.872</ele>
      <time>2021-10-12T16:21:29Z</time>
    </trkpt>
    <trkpt lat="38.577364013" lon="34.907543007">
      <ele>1224.903</ele>
      <time>2021-10-12T16:21:29Z</time>
    </trkpt>
    <trkpt lat="38.577352026" lon="34.907577038">
      <ele>1224.918</ele>
      <time>2021-10-12T16:21:31Z</time>
    </trkpt>
    <trkpt lat="38.577339035" lon="34.907610985">
      <ele>1224.927</ele>
      <time>2021-10-12T16:21:32Z</time>
    </trkpt>
    <trkpt lat="38.577325959" lon="34.907645015">
      <ele>1224.926</ele>
      <time>2021-10-12T16:21:33Z</time>
    </trkpt>
    <trkpt lat="38.577311039" lon="34.907677034">
      <ele>1224.927</ele>
      <time>2021-10-12T16:21:34Z</time>
    </trkpt>
    <trkpt lat="38.577296035" lon="34.907706035">
      <ele>1224.924</ele>
      <time>2021-10-12T16:21:35Z</time>
    </trkpt>
    <trkpt lat="38.577282038" lon="34.90773797">
      <ele>1224.897</ele>
      <time>2021-10-12T16:21:36Z</time>
    </trkpt>
    <trkpt lat="38.577267034" lon="34.907768983">
      <ele>1224.865</ele>
      <time>2021-10-12T16:21:37Z</time>
    </trkpt>
    <trkpt lat="38.57725203" lon="34.907799996">
      <ele>1224.821</ele>
      <time>2021-10-12T16:21:38Z</time>
    </trkpt>
    <trkpt lat="38.577234009" lon="34.907830004">
      <ele>1224.778</ele>
      <time>2021-10-12T16:21:39Z</time>
    </trkpt>
    <trkpt lat="38.577213977" lon="34.907862023">
      <ele>1224.688</ele>
      <time>2021-10-12T16:21:40Z</time>
    </trkpt>
    <trkpt lat="38.57719101" lon="34.907889012">
      <ele>1224.555</ele>
      <time>2021-10-12T16:21:41Z</time>
    </trkpt>
    <trkpt lat="38.577169972" lon="34.907917008">
      <ele>1224.404</ele>
      <time>2021-10-12T16:21:43Z</time>
    </trkpt>
    <trkpt lat="38.577149017" lon="34.907947015">
      <ele>1224.23</ele>
      <time>2021-10-12T16:21:44Z</time>
    </trkpt>
    <trkpt lat="38.577130996" lon="34.907986997">
      <ele>1223.999</ele>
      <time>2021-10-12T16:21:45Z</time>
    </trkpt>
    <trkpt lat="38.57711398" lon="34.908025973">
      <ele>1223.758</ele>
      <time>2021-10-12T16:21:46Z</time>
    </trkpt>
    <trkpt lat="38.577093026" lon="34.908063021">
      <ele>1223.51</ele>
      <time>2021-10-12T16:21:48Z</time>
    </trkpt>
    <trkpt lat="38.577073999" lon="34.908100991">
      <ele>1223.292</ele>
      <time>2021-10-12T16:21:49Z</time>
    </trkpt>
    <trkpt lat="38.57705296" lon="34.908137033">
      <ele>1223.033</ele>
      <time>2021-10-12T16:21:50Z</time>
    </trkpt>
    <trkpt lat="38.577036029" lon="34.908170979">
      <ele>1222.773</ele>
      <time>2021-10-12T16:21:52Z</time>
    </trkpt>
    <trkpt lat="38.577018008" lon="34.908204004">
      <ele>1222.479</ele>
      <time>2021-10-12T16:21:53Z</time>
    </trkpt>
    <trkpt lat="38.576980038" lon="34.908282962">
      <ele>1221.701</ele>
      <time>2021-10-12T16:21:55Z</time>
    </trkpt>
    <trkpt lat="38.576961011" lon="34.908317998">
      <ele>1221.283</ele>
      <time>2021-10-12T16:21:57Z</time>
    </trkpt>
    <trkpt lat="38.576941984" lon="34.908354962">
      <ele>1220.835</ele>
      <time>2021-10-12T16:21:58Z</time>
    </trkpt>
    <trkpt lat="38.576913988" lon="34.908391004">
      <ele>1220.452</ele>
      <time>2021-10-12T16:21:59Z</time>
    </trkpt>
    <trkpt lat="38.576890016" lon="34.908421012">
      <ele>1220.111</ele>
      <time>2021-10-12T16:22:01Z</time>
    </trkpt>
    <trkpt lat="38.57686596" lon="34.908453031">
      <ele>1219.734</ele>
      <time>2021-10-12T16:22:02Z</time>
    </trkpt>
    <trkpt lat="38.576846011" lon="34.908483038">
      <ele>1219.377</ele>
      <time>2021-10-12T16:22:03Z</time>
    </trkpt>
    <trkpt lat="38.576824972" lon="34.90850701">
      <ele>1219.051</ele>
      <time>2021-10-12T16:22:04Z</time>
    </trkpt>
    <trkpt lat="38.576802006" lon="34.908531988">
      <ele>1218.69</ele>
      <time>2021-10-12T16:22:05Z</time>
    </trkpt>
    <trkpt lat="38.576777028" lon="34.908558978">
      <ele>1218.283</ele>
      <time>2021-10-12T16:22:06Z</time>
    </trkpt>
    <trkpt lat="38.576753978" lon="34.908586973">
      <ele>1217.862</ele>
      <time>2021-10-12T16:22:08Z</time>
    </trkpt>
    <trkpt lat="38.576732017" lon="34.908616981">
      <ele>1217.402</ele>
      <time>2021-10-12T16:22:09Z</time>
    </trkpt>
    <trkpt lat="38.576708967" lon="34.908650005">
      <ele>1216.863</ele>
      <time>2021-10-12T16:22:10Z</time>
    </trkpt>
    <trkpt lat="38.576689018" lon="34.908684036">
      <ele>1216.352</ele>
      <time>2021-10-12T16:22:11Z</time>
    </trkpt>
    <trkpt lat="38.576673009" lon="34.908716977">
      <ele>1215.894</ele>
      <time>2021-10-12T16:22:12Z</time>
    </trkpt>
    <trkpt lat="38.57665197" lon="34.908751007">
      <ele>1215.462</ele>
      <time>2021-10-12T16:22:14Z</time>
    </trkpt>
    <trkpt lat="38.576629004" lon="34.908786966">
      <ele>1215.015</ele>
      <time>2021-10-12T16:22:15Z</time>
    </trkpt>
    <trkpt lat="38.576606959" lon="34.908824014">
      <ele>1214.536</ele>
      <time>2021-10-12T16:22:16Z</time>
    </trkpt>
    <trkpt lat="38.576593967" lon="34.908861984">
      <ele>1214.054</ele>
      <time>2021-10-12T16:22:18Z</time>
    </trkpt>
    <trkpt lat="38.576582987" lon="34.908901965">
      <ele>1213.51</ele>
      <time>2021-10-12T16:22:19Z</time>
    </trkpt>
    <trkpt lat="38.576573012" lon="34.90894597">
      <ele>1212.841</ele>
      <time>2021-10-12T16:22:20Z</time>
    </trkpt>
    <trkpt lat="38.57656002" lon="34.908988969">
      <ele>1212.175</ele>
      <time>2021-10-12T16:22:21Z</time>
    </trkpt>
    <trkpt lat="38.576546023" lon="34.90903398">
      <ele>1211.476</ele>
      <time>2021-10-12T16:22:23Z</time>
    </trkpt>
    <trkpt lat="38.576531019" lon="34.909077985">
      <ele>1210.789</ele>
      <time>2021-10-12T16:22:24Z</time>
    </trkpt>
    <trkpt lat="38.576521967" lon="34.909119979">
      <ele>1210.151</ele>
      <time>2021-10-12T16:22:26Z</time>
    </trkpt>
    <trkpt lat="38.576512998" lon="34.909163984">
      <ele>1209.485</ele>
      <time>2021-10-12T16:22:27Z</time>
    </trkpt>
    <trkpt lat="38.576504029" lon="34.909206983">
      <ele>1209.124</ele>
      <time>2021-10-12T16:22:28Z</time>
    </trkpt>
    <trkpt lat="38.576496989" lon="34.909245037">
      <ele>1208.825</ele>
      <time>2021-10-12T16:22:29Z</time>
    </trkpt>
    <trkpt lat="38.576485002" lon="34.909286024">
      <ele>1208.487</ele>
      <time>2021-10-12T16:22:31Z</time>
    </trkpt>
    <trkpt lat="38.576474022" lon="34.909327012">
      <ele>1208.152</ele>
      <time>2021-10-12T16:22:32Z</time>
    </trkpt>
    <trkpt lat="38.576458013" lon="34.909366993">
      <ele>1207.806</ele>
      <time>2021-10-12T16:22:33Z</time>
    </trkpt>
    <trkpt lat="38.576446027" lon="34.909406975">
      <ele>1207.475</ele>
      <time>2021-10-12T16:22:34Z</time>
    </trkpt>
    <trkpt lat="38.576434962" lon="34.909444023">
      <ele>1207.169</ele>
      <time>2021-10-12T16:22:36Z</time>
    </trkpt>
    <trkpt lat="38.576427" lon="34.909475036">
      <ele>1207.012</ele>
      <time>2021-10-12T16:22:36Z</time>
    </trkpt>
    <trkpt lat="38.576409984" lon="34.909510994">
      <ele>1206.818</ele>
      <time>2021-10-12T16:22:38Z</time>
    </trkpt>
    <trkpt lat="38.576391963" lon="34.909550976">
      <ele>1206.623</ele>
      <time>2021-10-12T16:22:39Z</time>
    </trkpt>
    <trkpt lat="38.57637302" lon="34.909591042">
      <ele>1206.442</ele>
      <time>2021-10-12T16:22:40Z</time>
    </trkpt>
    <trkpt lat="38.576353993" lon="34.909633035">
      <ele>1206.236</ele>
      <time>2021-10-12T16:22:42Z</time>
    </trkpt>
    <trkpt lat="38.576337984" lon="34.909674022">
      <ele>1206.022</ele>
      <time>2021-10-12T16:22:43Z</time>
    </trkpt>
    <trkpt lat="38.576323986" lon="34.909716016">
      <ele>1205.794</ele>
      <time>2021-10-12T16:22:44Z</time>
    </trkpt>
    <trkpt lat="38.576317029" lon="34.909762032">
      <ele>1205.561</ele>
      <time>2021-10-12T16:22:46Z</time>
    </trkpt>
    <trkpt lat="38.576308982" lon="34.909810983">
      <ele>1205.301</ele>
      <time>2021-10-12T16:22:47Z</time>
    </trkpt>
    <trkpt lat="38.576304037" lon="34.909860017">
      <ele>1205.047</ele>
      <time>2021-10-12T16:22:49Z</time>
    </trkpt>
    <trkpt lat="38.576302025" lon="34.909905028">
      <ele>1204.823</ele>
      <time>2021-10-12T16:22:50Z</time>
    </trkpt>
    <trkpt lat="38.576294985" lon="34.90995096">
      <ele>1204.56</ele>
      <time>2021-10-12T16:22:51Z</time>
    </trkpt>
    <trkpt lat="38.576289034" lon="34.909994965">
      <ele>1204.306</ele>
      <time>2021-10-12T16:22:53Z</time>
    </trkpt>
    <trkpt lat="38.57628501" lon="34.910039976">
      <ele>1203.82</ele>
      <time>2021-10-12T16:22:54Z</time>
    </trkpt>
    <trkpt lat="38.576278975" lon="34.910088005">
      <ele>1203.258</ele>
      <time>2021-10-12T16:22:55Z</time>
    </trkpt>
    <trkpt lat="38.576269001" lon="34.910137961">
      <ele>1202.647</ele>
      <time>2021-10-12T16:22:57Z</time>
    </trkpt>
    <trkpt lat="38.576260032" lon="34.910185989">
      <ele>1202.064</ele>
      <time>2021-10-12T16:22:58Z</time>
    </trkpt>
    <trkpt lat="38.576248968" lon="34.910233011">
      <ele>1201.476</ele>
      <time>2021-10-12T16:23:00Z</time>
    </trkpt>
    <trkpt lat="38.576238994" lon="34.910279028">
      <ele>1200.907</ele>
      <time>2021-10-12T16:23:01Z</time>
    </trkpt>
    <trkpt lat="38.57622399" lon="34.910324039">
      <ele>1200.313</ele>
      <time>2021-10-12T16:23:03Z</time>
    </trkpt>
    <trkpt lat="38.576204963" lon="34.910368966">
      <ele>1199.691</ele>
      <time>2021-10-12T16:23:04Z</time>
    </trkpt>
    <trkpt lat="38.57618602" lon="34.910406014">
      <ele>1199.154</ele>
      <time>2021-10-12T16:23:05Z</time>
    </trkpt>
    <trkpt lat="38.576164981" lon="34.910441972">
      <ele>1198.615</ele>
      <time>2021-10-12T16:23:07Z</time>
    </trkpt>
    <trkpt lat="38.576145032" lon="34.910481032">
      <ele>1198.049</ele>
      <time>2021-10-12T16:23:08Z</time>
    </trkpt>
    <trkpt lat="38.576119971" lon="34.910519002">
      <ele>1197.459</ele>
      <time>2021-10-12T16:23:09Z</time>
    </trkpt>
    <trkpt lat="38.576092981" lon="34.910554038">
      <ele>1196.951</ele>
      <time>2021-10-12T16:23:11Z</time>
    </trkpt>
    <trkpt lat="38.576068003" lon="34.910584968">
      <ele>1196.633</ele>
      <time>2021-10-12T16:23:12Z</time>
    </trkpt>
    <trkpt lat="38.576042019" lon="34.910613969">
      <ele>1196.331</ele>
      <time>2021-10-12T16:23:13Z</time>
    </trkpt>
    <trkpt lat="38.576019974" lon="34.910643976">
      <ele>1196.035</ele>
      <time>2021-10-12T16:23:15Z</time>
    </trkpt>
    <trkpt lat="38.575998014" lon="34.910673983">
      <ele>1195.74</ele>
      <time>2021-10-12T16:23:16Z</time>
    </trkpt>
    <trkpt lat="38.575975969" lon="34.910703991">
      <ele>1195.445</ele>
      <time>2021-10-12T16:23:17Z</time>
    </trkpt>
    <trkpt lat="38.575958032" lon="34.910733998">
      <ele>1195.164</ele>
      <time>2021-10-12T16:23:18Z</time>
    </trkpt>
    <trkpt lat="38.575942023" lon="34.910764005">
      <ele>1194.89</ele>
      <time>2021-10-12T16:23:19Z</time>
    </trkpt>
    <trkpt lat="38.57592199" lon="34.910796024">
      <ele>1194.588</ele>
      <time>2021-10-12T16:23:20Z</time>
    </trkpt>
    <trkpt lat="38.575902963" lon="34.910830976">
      <ele>1194.268</ele>
      <time>2021-10-12T16:23:22Z</time>
    </trkpt>
    <trkpt lat="38.575888965" lon="34.910865007">
      <ele>1193.972</ele>
      <time>2021-10-12T16:23:23Z</time>
    </trkpt>
    <trkpt lat="38.575873962" lon="34.91089996">
      <ele>1193.667</ele>
      <time>2021-10-12T16:23:24Z</time>
    </trkpt>
    <trkpt lat="38.575859964" lon="34.910939019">
      <ele>1193.335</ele>
      <time>2021-10-12T16:23:25Z</time>
    </trkpt>
    <trkpt lat="38.57584496" lon="34.910973972">
      <ele>1193.029</ele>
      <time>2021-10-12T16:23:26Z</time>
    </trkpt>
    <trkpt lat="38.575825011" lon="34.911014037">
      <ele>1192.669</ele>
      <time>2021-10-12T16:23:28Z</time>
    </trkpt>
    <trkpt lat="38.575807996" lon="34.911052007">
      <ele>1192.334</ele>
      <time>2021-10-12T16:23:29Z</time>
    </trkpt>
    <trkpt lat="38.575793998" lon="34.911089977">
      <ele>1192.011</ele>
      <time>2021-10-12T16:23:30Z</time>
    </trkpt>
    <trkpt lat="38.575776983" lon="34.911130965">
      <ele>1191.854</ele>
      <time>2021-10-12T16:23:31Z</time>
    </trkpt>
    <trkpt lat="38.575760974" lon="34.911172958">
      <ele>1191.904</ele>
      <time>2021-10-12T16:23:33Z</time>
    </trkpt>
    <trkpt lat="38.575741025" lon="34.911213024">
      <ele>1191.913</ele>
      <time>2021-10-12T16:23:34Z</time>
    </trkpt>
    <trkpt lat="38.575726021" lon="34.911245964">
      <ele>1191.912</ele>
      <time>2021-10-12T16:23:35Z</time>
    </trkpt>
    <trkpt lat="38.575708" lon="34.911282007">
      <ele>1191.886</ele>
      <time>2021-10-12T16:23:37Z</time>
    </trkpt>
    <trkpt lat="38.575687967" lon="34.91131302">
      <ele>1191.823</ele>
      <time>2021-10-12T16:23:38Z</time>
    </trkpt>
    <trkpt lat="38.575662989" lon="34.911344033">
      <ele>1191.711</ele>
      <time>2021-10-12T16:23:39Z</time>
    </trkpt>
    <trkpt lat="38.575632982" lon="34.911377979">
      <ele>1191.547</ele>
      <time>2021-10-12T16:23:40Z</time>
    </trkpt>
    <trkpt lat="38.575604986" lon="34.911404969">
      <ele>1191.308</ele>
      <time>2021-10-12T16:23:42Z</time>
    </trkpt>
    <trkpt lat="38.575573973" lon="34.911431959">
      <ele>1190.988</ele>
      <time>2021-10-12T16:23:43Z</time>
    </trkpt>
    <trkpt lat="38.575542038" lon="34.911458027">
      <ele>1190.544</ele>
      <time>2021-10-12T16:23:45Z</time>
    </trkpt>
    <trkpt lat="38.575513959" lon="34.911477976">
      <ele>1190.032</ele>
      <time>2021-10-12T16:23:46Z</time>
    </trkpt>
    <trkpt lat="38.575484036" lon="34.911499014">
      <ele>1189.472</ele>
      <time>2021-10-12T16:23:47Z</time>
    </trkpt>
    <trkpt lat="38.575455034" lon="34.911517035">
      <ele>1188.924</ele>
      <time>2021-10-12T16:23:48Z</time>
    </trkpt>
    <trkpt lat="38.575427039" lon="34.911535978">
      <ele>1188.375</ele>
      <time>2021-10-12T16:23:49Z</time>
    </trkpt>
    <trkpt lat="38.575403988" lon="34.911557017">
      <ele>1187.882</ele>
      <time>2021-10-12T16:23:50Z</time>
    </trkpt>
    <trkpt lat="38.57537901" lon="34.911583001">
      <ele>1187.315</ele>
      <time>2021-10-12T16:23:52Z</time>
    </trkpt>
    <trkpt lat="38.575365013" lon="34.911614014">
      <ele>1186.89</ele>
      <time>2021-10-12T16:23:53Z</time>
    </trkpt>
    <trkpt lat="38.575352021" lon="34.911649972">
      <ele>1186.441</ele>
      <time>2021-10-12T16:23:54Z</time>
    </trkpt>
    <trkpt lat="38.575343974" lon="34.911685009">
      <ele>1186.125</ele>
      <time>2021-10-12T16:23:55Z</time>
    </trkpt>
    <trkpt lat="38.575333999" lon="34.911719039">
      <ele>1185.823</ele>
      <time>2021-10-12T16:23:56Z</time>
    </trkpt>
    <trkpt lat="38.575321008" lon="34.911756003">
      <ele>1185.457</ele>
      <time>2021-10-12T16:23:57Z</time>
    </trkpt>
    <trkpt lat="38.575303992" lon="34.911790034">
      <ele>1185.028</ele>
      <time>2021-10-12T16:23:58Z</time>
    </trkpt>
    <trkpt lat="38.575285971" lon="34.911823981">
      <ele>1184.581</ele>
      <time>2021-10-12T16:23:59Z</time>
    </trkpt>
    <trkpt lat="38.575269962" lon="34.911858011">
      <ele>1184.151</ele>
      <time>2021-10-12T16:24:01Z</time>
    </trkpt>
    <trkpt lat="38.57525303" lon="34.911892042">
      <ele>1183.671</ele>
      <time>2021-10-12T16:24:02Z</time>
    </trkpt>
    <trkpt lat="38.575238027" lon="34.911925988">
      <ele>1183.217</ele>
      <time>2021-10-12T16:24:03Z</time>
    </trkpt>
    <trkpt lat="38.575220006" lon="34.911958007">
      <ele>1182.713</ele>
      <time>2021-10-12T16:24:04Z</time>
    </trkpt>
    <trkpt lat="38.575206008" lon="34.911990026">
      <ele>1182.328</ele>
      <time>2021-10-12T16:24:05Z</time>
    </trkpt>
    <trkpt lat="38.575186981" lon="34.912019027">
      <ele>1181.858</ele>
      <time>2021-10-12T16:24:06Z</time>
    </trkpt>
    <trkpt lat="38.57516896" lon="34.912046017">
      <ele>1181.427</ele>
      <time>2021-10-12T16:24:07Z</time>
    </trkpt>
    <trkpt lat="38.575153034" lon="34.912069989">
      <ele>1181.057</ele>
      <time>2021-10-12T16:24:08Z</time>
    </trkpt>
    <trkpt lat="38.575135013" lon="34.912097985">
      <ele>1180.648</ele>
      <time>2021-10-12T16:24:09Z</time>
    </trkpt>
    <trkpt lat="38.575115986" lon="34.912124975">
      <ele>1180.234</ele>
      <time>2021-10-12T16:24:10Z</time>
    </trkpt>
    <trkpt lat="38.575097965" lon="34.912153976">
      <ele>1179.85</ele>
      <time>2021-10-12T16:24:11Z</time>
    </trkpt>
    <trkpt lat="38.575084973" lon="34.912187001">
      <ele>1179.568</ele>
      <time>2021-10-12T16:24:12Z</time>
    </trkpt>
    <trkpt lat="38.575067036" lon="34.912218014">
      <ele>1179.21</ele>
      <time>2021-10-12T16:24:14Z</time>
    </trkpt>
    <trkpt lat="38.575052032" lon="34.912253972">
      <ele>1178.915</ele>
      <time>2021-10-12T16:24:15Z</time>
    </trkpt>
    <trkpt lat="38.575039962" lon="34.912285991">
      <ele>1178.686</ele>
      <time>2021-10-12T16:24:16Z</time>
    </trkpt>
    <trkpt lat="38.575027976" lon="34.912321027">
      <ele>1178.468</ele>
      <time>2021-10-12T16:24:17Z</time>
    </trkpt>
    <trkpt lat="38.575018002" lon="34.91235598">
      <ele>1178.293</ele>
      <time>2021-10-12T16:24:18Z</time>
    </trkpt>
    <trkpt lat="38.575010039" lon="34.912393028">
      <ele>1178.158</ele>
      <time>2021-10-12T16:24:19Z</time>
    </trkpt>
    <trkpt lat="38.574998975" lon="34.912429992">
      <ele>1177.989</ele>
      <time>2021-10-12T16:24:20Z</time>
    </trkpt>
    <trkpt lat="38.574996041" lon="34.912466034">
      <ele>1177.957</ele>
      <time>2021-10-12T16:24:21Z</time>
    </trkpt>
    <trkpt lat="38.574989" lon="34.912507022">
      <ele>1177.806</ele>
      <time>2021-10-12T16:24:23Z</time>
    </trkpt>
    <trkpt lat="38.574986989" lon="34.912544992">
      <ele>1177.381</ele>
      <time>2021-10-12T16:24:24Z</time>
    </trkpt>
    <trkpt lat="38.57498196" lon="34.91258204">
      <ele>1176.938</ele>
      <time>2021-10-12T16:24:25Z</time>
    </trkpt>
    <trkpt lat="38.574970979" lon="34.912619004">
      <ele>1176.446</ele>
      <time>2021-10-12T16:24:26Z</time>
    </trkpt>
    <trkpt lat="38.574961005" lon="34.912651023">
      <ele>1176.024</ele>
      <time>2021-10-12T16:24:27Z</time>
    </trkpt>
    <trkpt lat="38.57495103" lon="34.912683964">
      <ele>1175.601</ele>
      <time>2021-10-12T16:24:28Z</time>
    </trkpt>
    <trkpt lat="38.574939966" lon="34.912714977">
      <ele>1175.197</ele>
      <time>2021-10-12T16:24:29Z</time>
    </trkpt>
    <trkpt lat="38.57492798" lon="34.912748002">
      <ele>1174.775</ele>
      <time>2021-10-12T16:24:30Z</time>
    </trkpt>
    <trkpt lat="38.574914988" lon="34.912784966">
      <ele>1174.266</ele>
      <time>2021-10-12T16:24:31Z</time>
    </trkpt>
    <trkpt lat="38.574901996" lon="34.912824025">
      <ele>1173.521</ele>
      <time>2021-10-12T16:24:32Z</time>
    </trkpt>
    <trkpt lat="38.574885987" lon="34.912863001">
      <ele>1172.771</ele>
      <time>2021-10-12T16:24:34Z</time>
    </trkpt>
    <trkpt lat="38.57486302" lon="34.912900971">
      <ele>1172.015</ele>
      <time>2021-10-12T16:24:35Z</time>
    </trkpt>
    <trkpt lat="38.574841982" lon="34.912937013">
      <ele>1171.322</ele>
      <time>2021-10-12T16:24:36Z</time>
    </trkpt>
    <trkpt lat="38.574821027" lon="34.91297096">
      <ele>1170.682</ele>
      <time>2021-10-12T16:24:38Z</time>
    </trkpt>
    <trkpt lat="38.574794959" lon="34.913005996">
      <ele>1170.022</ele>
      <time>2021-10-12T16:24:39Z</time>
    </trkpt>
    <trkpt lat="38.574769981" lon="34.91303701">
      <ele>1169.45</ele>
      <time>2021-10-12T16:24:40Z</time>
    </trkpt>
    <trkpt lat="38.574742991" lon="34.913067017">
      <ele>1168.868</ele>
      <time>2021-10-12T16:24:42Z</time>
    </trkpt>
    <trkpt lat="38.574719019" lon="34.91309803">
      <ele>1168.241</ele>
      <time>2021-10-12T16:24:43Z</time>
    </trkpt>
    <trkpt lat="38.574700998" lon="34.913129965">
      <ele>1167.722</ele>
      <time>2021-10-12T16:24:44Z</time>
    </trkpt>
    <trkpt lat="38.574681971" lon="34.913159972">
      <ele>1167.284</ele>
      <time>2021-10-12T16:24:45Z</time>
    </trkpt>
    <trkpt lat="38.574662022" lon="34.913190985">
      <ele>1166.879</ele>
      <time>2021-10-12T16:24:46Z</time>
    </trkpt>
    <trkpt lat="38.574640984" lon="34.913225016">
      <ele>1166.485</ele>
      <time>2021-10-12T16:24:48Z</time>
    </trkpt>
    <trkpt lat="38.574622963" lon="34.913251">
      <ele>1166.236</ele>
      <time>2021-10-12T16:24:49Z</time>
    </trkpt>
    <trkpt lat="38.574599996" lon="34.913270026">
      <ele>1166.159</ele>
      <time>2021-10-12T16:24:50Z</time>
    </trkpt>
    <trkpt lat="38.574579041" lon="34.91328503">
      <ele>1166.147</ele>
      <time>2021-10-12T16:24:50Z</time>
    </trkpt>
    <trkpt lat="38.57455398" lon="34.913300034">
      <ele>1166.199</ele>
      <time>2021-10-12T16:24:51Z</time>
    </trkpt>
    <trkpt lat="38.574532019" lon="34.913311014">
      <ele>1166.291</ele>
      <time>2021-10-12T16:24:52Z</time>
    </trkpt>
    <trkpt lat="38.574507963" lon="34.913317971">
      <ele>1166.463</ele>
      <time>2021-10-12T16:24:53Z</time>
    </trkpt>
    <trkpt lat="38.574486002" lon="34.913329035">
      <ele>1166.589</ele>
      <time>2021-10-12T16:24:54Z</time>
    </trkpt>
    <trkpt lat="38.574464042" lon="34.913338004">
      <ele>1166.739</ele>
      <time>2021-10-12T16:24:55Z</time>
    </trkpt>
    <trkpt lat="38.57443898" lon="34.913345966">
      <ele>1166.962</ele>
      <time>2021-10-12T16:24:56Z</time>
    </trkpt>
    <trkpt lat="38.574420037" lon="34.913359964">
      <ele>1167.152</ele>
      <time>2021-10-12T16:24:57Z</time>
    </trkpt>
    <trkpt lat="38.574398998" lon="34.913372034">
      <ele>1167.4</ele>
      <time>2021-10-12T16:24:58Z</time>
    </trkpt>
    <trkpt lat="38.574377038" lon="34.913381003">
      <ele>1167.698</ele>
      <time>2021-10-12T16:24:58Z</time>
    </trkpt>
    <trkpt lat="38.574358011" lon="34.913389971">
      <ele>1167.944</ele>
      <time>2021-10-12T16:24:59Z</time>
    </trkpt>
    <trkpt lat="38.574337978" lon="34.913398018">
      <ele>1168.218</ele>
      <time>2021-10-12T16:25:00Z</time>
    </trkpt>
    <trkpt lat="38.574319035" lon="34.913401036">
      <ele>1168.526</ele>
      <time>2021-10-12T16:25:01Z</time>
    </trkpt>
    <trkpt lat="38.574301014" lon="34.913406987">
      <ele>1168.786</ele>
      <time>2021-10-12T16:25:01Z</time>
    </trkpt>
    <trkpt lat="38.574283998" lon="34.913415033">
      <ele>1169.006</ele>
      <time>2021-10-12T16:25:02Z</time>
    </trkpt>
    <trkpt lat="38.574264972" lon="34.913426014">
      <ele>1169.23</ele>
      <time>2021-10-12T16:25:03Z</time>
    </trkpt>
    <trkpt lat="38.574246028" lon="34.913438">
      <ele>1169.441</ele>
      <time>2021-10-12T16:25:04Z</time>
    </trkpt>
    <trkpt lat="38.574225996" lon="34.913450992">
      <ele>1169.661</ele>
      <time>2021-10-12T16:25:04Z</time>
    </trkpt>
    <trkpt lat="38.574207975" lon="34.91346499">
      <ele>1169.835</ele>
      <time>2021-10-12T16:25:05Z</time>
    </trkpt>
    <trkpt lat="38.574192971" lon="34.913477981">
      <ele>1169.964</ele>
      <time>2021-10-12T16:25:06Z</time>
    </trkpt>
    <trkpt lat="38.57417604" lon="34.913488962">
      <ele>1170.151</ele>
      <time>2021-10-12T16:25:07Z</time>
    </trkpt>
    <trkpt lat="38.574155001" lon="34.913502038">
      <ele>1170.505</ele>
      <time>2021-10-12T16:25:07Z</time>
    </trkpt>
    <trkpt lat="38.574135974" lon="34.913516035">
      <ele>1170.876</ele>
      <time>2021-10-12T16:25:08Z</time>
    </trkpt>
    <trkpt lat="38.574118959" lon="34.913531039">
      <ele>1171.166</ele>
      <time>2021-10-12T16:25:09Z</time>
    </trkpt>
    <trkpt lat="38.574101022" lon="34.913543025">
      <ele>1171.505</ele>
      <time>2021-10-12T16:25:10Z</time>
    </trkpt>
    <trkpt lat="38.574084006" lon="34.913550988">
      <ele>1171.861</ele>
      <time>2021-10-12T16:25:10Z</time>
    </trkpt>
    <trkpt lat="38.57404897" lon="34.913573032">
      <ele>1172.493</ele>
      <time>2021-10-12T16:25:12Z</time>
    </trkpt>
    <trkpt lat="38.574028015" lon="34.913585018">
      <ele>1172.87</ele>
      <time>2021-10-12T16:25:13Z</time>
    </trkpt>
    <trkpt lat="38.574007982" lon="34.913600022">
      <ele>1173.164</ele>
      <time>2021-10-12T16:25:14Z</time>
    </trkpt>
    <trkpt lat="38.573989961" lon="34.913615026">
      <ele>1173.383</ele>
      <time>2021-10-12T16:25:14Z</time>
    </trkpt>
    <trkpt lat="38.573971018" lon="34.913631035">
      <ele>1173.572</ele>
      <time>2021-10-12T16:25:15Z</time>
    </trkpt>
    <trkpt lat="38.573952997" lon="34.913642015">
      <ele>1173.828</ele>
      <time>2021-10-12T16:25:16Z</time>
    </trkpt>
    <trkpt lat="38.573932964" lon="34.913654001">
      <ele>1174.117</ele>
      <time>2021-10-12T16:25:17Z</time>
    </trkpt>
    <trkpt lat="38.573914021" lon="34.913667999">
      <ele>1174.343</ele>
      <time>2021-10-12T16:25:18Z</time>
    </trkpt>
    <trkpt lat="38.573897006" lon="34.913681997">
      <ele>1174.52</ele>
      <time>2021-10-12T16:25:18Z</time>
    </trkpt>
    <trkpt lat="38.573879991" lon="34.913693983">
      <ele>1174.829</ele>
      <time>2021-10-12T16:25:19Z</time>
    </trkpt>
    <trkpt lat="38.573864987" lon="34.913707981">
      <ele>1175.117</ele>
      <time>2021-10-12T16:25:20Z</time>
    </trkpt>
    <trkpt lat="38.573831962" lon="34.913733965">
      <ele>1175.838</ele>
      <time>2021-10-12T16:25:21Z</time>
    </trkpt>
    <trkpt lat="38.573813019" lon="34.913748968">
      <ele>1176.25</ele>
      <time>2021-10-12T16:25:22Z</time>
    </trkpt>
    <trkpt lat="38.573794998" lon="34.913763972">
      <ele>1176.629</ele>
      <time>2021-10-12T16:25:23Z</time>
    </trkpt>
    <trkpt lat="38.573778989" lon="34.913779981">
      <ele>1176.917</ele>
      <time>2021-10-12T16:25:24Z</time>
    </trkpt>
    <trkpt lat="38.573764991" lon="34.913799008">
      <ele>1177.078</ele>
      <time>2021-10-12T16:25:24Z</time>
    </trkpt>
    <trkpt lat="38.573749987" lon="34.913819963">
      <ele>1177.241</ele>
      <time>2021-10-12T16:25:25Z</time>
    </trkpt>
    <trkpt lat="38.57373599" lon="34.913841002">
      <ele>1177.366</ele>
      <time>2021-10-12T16:25:26Z</time>
    </trkpt>
    <trkpt lat="38.573721992" lon="34.913862962">
      <ele>1177.475</ele>
      <time>2021-10-12T16:25:27Z</time>
    </trkpt>
    <trkpt lat="38.573710006" lon="34.913879978">
      <ele>1177.6</ele>
      <time>2021-10-12T16:25:27Z</time>
    </trkpt>
    <trkpt lat="38.573688967" lon="34.913914008">
      <ele>1177.821</ele>
      <time>2021-10-12T16:25:29Z</time>
    </trkpt>
    <trkpt lat="38.573669018" lon="34.913947033">
      <ele>1178.0</ele>
      <time>2021-10-12T16:25:30Z</time>
    </trkpt>
    <trkpt lat="38.573656026" lon="34.913982991">
      <ele>1177.854</ele>
      <time>2021-10-12T16:25:31Z</time>
    </trkpt>
    <trkpt lat="38.57364798" lon="34.91400403">
      <ele>1177.765</ele>
      <time>2021-10-12T16:25:32Z</time>
    </trkpt>
    <trkpt lat="38.573636999" lon="34.914047029">
      <ele>1177.381</ele>
      <time>2021-10-12T16:25:33Z</time>
    </trkpt>
    <trkpt lat="38.573628031" lon="34.914086005">
      <ele>1176.972</ele>
      <time>2021-10-12T16:25:34Z</time>
    </trkpt>
    <trkpt lat="38.57362099" lon="34.914108971">
      <ele>1176.767</ele>
      <time>2021-10-12T16:25:35Z</time>
    </trkpt>
    <trkpt lat="38.573614033" lon="34.91413001">
      <ele>1176.582</ele>
      <time>2021-10-12T16:25:36Z</time>
    </trkpt>
    <trkpt lat="38.57360498" lon="34.914153982">
      <ele>1176.32</ele>
      <time>2021-10-12T16:25:36Z</time>
    </trkpt>
    <trkpt lat="38.573595006" lon="34.914177032">
      <ele>1176.078</ele>
      <time>2021-10-12T16:25:37Z</time>
    </trkpt>
    <trkpt lat="38.573585032" lon="34.914198993">
      <ele>1175.888</ele>
      <time>2021-10-12T16:25:38Z</time>
    </trkpt>
    <trkpt lat="38.573574973" lon="34.914222965">
      <ele>1175.657</ele>
      <time>2021-10-12T16:25:39Z</time>
    </trkpt>
    <trkpt lat="38.573564999" lon="34.914246015">
      <ele>1175.427</ele>
      <time>2021-10-12T16:25:39Z</time>
    </trkpt>
    <trkpt lat="38.573552007" lon="34.914264036">
      <ele>1175.3</ele>
      <time>2021-10-12T16:25:40Z</time>
    </trkpt>
    <trkpt lat="38.573529962" lon="34.914279962">
      <ele>1175.299</ele>
      <time>2021-10-12T16:25:41Z</time>
    </trkpt>
    <trkpt lat="38.573510014" lon="34.914294966">
      <ele>1175.272</ele>
      <time>2021-10-12T16:25:42Z</time>
    </trkpt>
    <trkpt lat="38.573491992" lon="34.91430603">
      <ele>1175.278</ele>
      <time>2021-10-12T16:25:43Z</time>
    </trkpt>
    <trkpt lat="38.573471038" lon="34.914319022">
      <ele>1175.27</ele>
      <time>2021-10-12T16:25:44Z</time>
    </trkpt>
    <trkpt lat="38.573448993" lon="34.914326984">
      <ele>1175.352</ele>
      <time>2021-10-12T16:25:44Z</time>
    </trkpt>
    <trkpt lat="38.573425021" lon="34.914328996">
      <ele>1175.559</ele>
      <time>2021-10-12T16:25:45Z</time>
    </trkpt>
    <trkpt lat="38.573400965" lon="34.914332014">
      <ele>1175.744</ele>
      <time>2021-10-12T16:25:46Z</time>
    </trkpt>
    <trkpt lat="38.573376993" lon="34.914335031">
      <ele>1175.925</ele>
      <time>2021-10-12T16:25:47Z</time>
    </trkpt>
    <trkpt lat="38.573352015" lon="34.914336037">
      <ele>1176.155</ele>
      <time>2021-10-12T16:25:48Z</time>
    </trkpt>
    <trkpt lat="38.573325025" lon="34.914337965">
      <ele>1176.378</ele>
      <time>2021-10-12T16:25:49Z</time>
    </trkpt>
    <trkpt lat="38.573300969" lon="34.914337965">
      <ele>1176.605</ele>
      <time>2021-10-12T16:25:50Z</time>
    </trkpt>
    <trkpt lat="38.573274985" lon="34.914337965">
      <ele>1176.85</ele>
      <time>2021-10-12T16:25:51Z</time>
    </trkpt>
    <trkpt lat="38.573250007" lon="34.914337965">
      <ele>1177.085</ele>
      <time>2021-10-12T16:25:52Z</time>
    </trkpt>
    <trkpt lat="38.573222011" lon="34.914337965">
      <ele>1177.349</ele>
      <time>2021-10-12T16:25:53Z</time>
    </trkpt>
    <trkpt lat="38.573195022" lon="34.914335031">
      <ele>1177.661</ele>
      <time>2021-10-12T16:25:54Z</time>
    </trkpt>
    <trkpt lat="38.573167026" lon="34.914336037">
      <ele>1177.904</ele>
      <time>2021-10-12T16:25:55Z</time>
    </trkpt>
    <trkpt lat="38.57313903" lon="34.914340982">
      <ele>1178.073</ele>
      <time>2021-10-12T16:25:56Z</time>
    </trkpt>
    <trkpt lat="38.573112041" lon="34.914342994">
      <ele>1178.29</ele>
      <time>2021-10-12T16:25:57Z</time>
    </trkpt>
    <trkpt lat="38.573083039" lon="34.914345006">
      <ele>1178.528</ele>
      <time>2021-10-12T16:25:58Z</time>
    </trkpt>
    <trkpt lat="38.573053032" lon="34.914349029">
      <ele>1178.708</ele>
      <time>2021-10-12T16:25:59Z</time>
    </trkpt>
    <trkpt lat="38.573022019" lon="34.91435104">
      <ele>1178.561</ele>
      <time>2021-10-12T16:26:00Z</time>
    </trkpt>
    <trkpt lat="38.572993018" lon="34.91435498">
      <ele>1178.385</ele>
      <time>2021-10-12T16:26:01Z</time>
    </trkpt>
    <trkpt lat="38.572959993" lon="34.914360009">
      <ele>1178.176</ele>
      <time>2021-10-12T16:26:03Z</time>
    </trkpt>
    <trkpt lat="38.57292504" lon="34.91436596">
      <ele>1177.943</ele>
      <time>2021-10-12T16:26:04Z</time>
    </trkpt>
    <trkpt lat="38.572893022" lon="34.914370989">
      <ele>1177.737</ele>
      <time>2021-10-12T16:26:05Z</time>
    </trkpt>
    <trkpt lat="38.572857985" lon="34.914377024">
      <ele>1177.502</ele>
      <time>2021-10-12T16:26:06Z</time>
    </trkpt>
    <trkpt lat="38.572826972" lon="34.91438197">
      <ele>1177.302</ele>
      <time>2021-10-12T16:26:08Z</time>
    </trkpt>
    <trkpt lat="38.572796965" lon="34.914386999">
      <ele>1177.103</ele>
      <time>2021-10-12T16:26:09Z</time>
    </trkpt>
    <trkpt lat="38.572767964" lon="34.914392028">
      <ele>1176.859</ele>
      <time>2021-10-12T16:26:10Z</time>
    </trkpt>
    <trkpt lat="38.57274198" lon="34.914399991">
      <ele>1176.501</ele>
      <time>2021-10-12T16:26:11Z</time>
    </trkpt>
    <trkpt lat="38.572711973" lon="34.914410971">
      <ele>1176.072</ele>
      <time>2021-10-12T16:26:12Z</time>
    </trkpt>
    <trkpt lat="38.572680037" lon="34.914421029">
      <ele>1175.658</ele>
      <time>2021-10-12T16:26:13Z</time>
    </trkpt>
    <trkpt lat="38.572651958" lon="34.914426981">
      <ele>1175.351</ele>
      <time>2021-10-12T16:26:14Z</time>
    </trkpt>
    <trkpt lat="38.572624968" lon="34.91443201">
      <ele>1175.074</ele>
      <time>2021-10-12T16:26:15Z</time>
    </trkpt>
    <trkpt lat="38.572595967" lon="34.914436033">
      <ele>1174.803</ele>
      <time>2021-10-12T16:26:16Z</time>
    </trkpt>
    <trkpt lat="38.572564032" lon="34.914441984">
      <ele>1174.492</ele>
      <time>2021-10-12T16:26:17Z</time>
    </trkpt>
    <trkpt lat="38.572534025" lon="34.914447013">
      <ele>1174.199</ele>
      <time>2021-10-12T16:26:19Z</time>
    </trkpt>
    <trkpt lat="38.572502006" lon="34.914451037">
      <ele>1173.896</ele>
      <time>2021-10-12T16:26:20Z</time>
    </trkpt>
    <trkpt lat="38.572473004" lon="34.914455982">
      <ele>1173.505</ele>
      <time>2021-10-12T16:26:21Z</time>
    </trkpt>
    <trkpt lat="38.572444003" lon="34.914461011">
      <ele>1173.109</ele>
      <time>2021-10-12T16:26:22Z</time>
    </trkpt>
    <trkpt lat="38.572415002" lon="34.914468974">
      <ele>1172.668</ele>
      <time>2021-10-12T16:26:23Z</time>
    </trkpt>
    <trkpt lat="38.572387006" lon="34.914474003">
      <ele>1172.291</ele>
      <time>2021-10-12T16:26:24Z</time>
    </trkpt>
    <trkpt lat="38.572355993" lon="34.914476015">
      <ele>1171.935</ele>
      <time>2021-10-12T16:26:25Z</time>
    </trkpt>
    <trkpt lat="38.572325986" lon="34.914475009">
      <ele>1171.639</ele>
      <time>2021-10-12T16:26:26Z</time>
    </trkpt>
    <trkpt lat="38.572295979" lon="34.914475009">
      <ele>1171.327</ele>
      <time>2021-10-12T16:26:27Z</time>
    </trkpt>
    <trkpt lat="38.57226396" lon="34.914468974">
      <ele>1171.084</ele>
      <time>2021-10-12T16:26:29Z</time>
    </trkpt>
    <trkpt lat="38.572233031" lon="34.914458999">
      <ele>1170.905</ele>
      <time>2021-10-12T16:26:30Z</time>
    </trkpt>
    <trkpt lat="38.572203023" lon="34.91444299">
      <ele>1170.739</ele>
      <time>2021-10-12T16:26:31Z</time>
    </trkpt>
    <trkpt lat="38.572171004" lon="34.914419018">
      <ele>1170.52</ele>
      <time>2021-10-12T16:26:32Z</time>
    </trkpt>
    <trkpt lat="38.572144015" lon="34.914384987">
      <ele>1170.456</ele>
      <time>2021-10-12T16:26:34Z</time>
    </trkpt>
    <trkpt lat="38.572123982" lon="34.914344">
      <ele>1170.542</ele>
      <time>2021-10-12T16:26:35Z</time>
    </trkpt>
    <trkpt lat="38.572107973" lon="34.914299995">
      <ele>1170.701</ele>
      <time>2021-10-12T16:26:37Z</time>
    </trkpt>
    <trkpt lat="38.572093975" lon="34.914258001">
      <ele>1170.857</ele>
      <time>2021-10-12T16:26:38Z</time>
    </trkpt>
    <trkpt lat="38.572080983" lon="34.914216008">
      <ele>1171.015</ele>
      <time>2021-10-12T16:26:39Z</time>
    </trkpt>
    <trkpt lat="38.57207302" lon="34.914177032">
      <ele>1171.222</ele>
      <time>2021-10-12T16:26:40Z</time>
    </trkpt>
    <trkpt lat="38.572067991" lon="34.914134033">
      <ele>1171.524</ele>
      <time>2021-10-12T16:26:42Z</time>
    </trkpt>
    <trkpt lat="38.572061034" lon="34.914093968">
      <ele>1171.774</ele>
      <time>2021-10-12T16:26:43Z</time>
    </trkpt>
    <trkpt lat="38.572053993" lon="34.914051974">
      <ele>1172.048</ele>
      <time>2021-10-12T16:26:44Z</time>
    </trkpt>
    <trkpt lat="38.572044019" lon="34.914008975">
      <ele>1172.292</ele>
      <time>2021-10-12T16:26:45Z</time>
    </trkpt>
    <trkpt lat="38.572037984" lon="34.913967988">
      <ele>1172.589</ele>
      <time>2021-10-12T16:26:47Z</time>
    </trkpt>
    <trkpt lat="38.572034966" lon="34.913928006">
      <ele>1172.927</ele>
      <time>2021-10-12T16:26:48Z</time>
    </trkpt>
    <trkpt lat="38.572029015" lon="34.913888024">
      <ele>1173.226</ele>
      <time>2021-10-12T16:26:49Z</time>
    </trkpt>
    <trkpt lat="38.572028009" lon="34.913846031">
      <ele>1173.62</ele>
      <time>2021-10-12T16:26:50Z</time>
    </trkpt>
    <trkpt lat="38.572025998" lon="34.91380102">
      <ele>1174.03</ele>
      <time>2021-10-12T16:26:51Z</time>
    </trkpt>
    <trkpt lat="38.572029015" lon="34.913758021">
      <ele>1174.488</ele>
      <time>2021-10-12T16:26:53Z</time>
    </trkpt>
    <trkpt lat="38.572037984" lon="34.913718039">
      <ele>1174.985</ele>
      <time>2021-10-12T16:26:54Z</time>
    </trkpt>
    <trkpt lat="38.572041001" lon="34.913676968">
      <ele>1175.414</ele>
      <time>2021-10-12T16:26:55Z</time>
    </trkpt>
    <trkpt lat="38.572042007" lon="34.91363598">
      <ele>1175.817</ele>
      <time>2021-10-12T16:26:56Z</time>
    </trkpt>
    <trkpt lat="38.57204603" lon="34.913600022">
      <ele>1176.242</ele>
      <time>2021-10-12T16:26:57Z</time>
    </trkpt>
    <trkpt lat="38.57204603" lon="34.913566997">
      <ele>1176.674</ele>
      <time>2021-10-12T16:26:58Z</time>
    </trkpt>
    <trkpt lat="38.57203899" lon="34.913542019">
      <ele>1176.931</ele>
      <time>2021-10-12T16:26:59Z</time>
    </trkpt>
    <trkpt lat="38.572025998" lon="34.913517041">
      <ele>1177.136</ele>
      <time>2021-10-12T16:27:00Z</time>
    </trkpt>
    <trkpt lat="38.572006971" lon="34.91349902">
      <ele>1177.199</ele>
      <time>2021-10-12T16:27:01Z</time>
    </trkpt>
    <trkpt lat="38.571979981" lon="34.913486028">
      <ele>1177.127</ele>
      <time>2021-10-12T16:27:02Z</time>
    </trkpt>
    <trkpt lat="38.571948968" lon="34.913474964">
      <ele>1177.001</ele>
      <time>2021-10-12T16:27:03Z</time>
    </trkpt>
    <trkpt lat="38.571918961" lon="34.913465995">
      <ele>1176.723</ele>
      <time>2021-10-12T16:27:04Z</time>
    </trkpt>
    <trkpt lat="38.571892977" lon="34.913455015">
      <ele>1176.507</ele>
      <time>2021-10-12T16:27:05Z</time>
    </trkpt>
    <trkpt lat="38.571867999" lon="34.913440011">
      <ele>1176.363</ele>
      <time>2021-10-12T16:27:06Z</time>
    </trkpt>
    <trkpt lat="38.571845032" lon="34.913429031">
      <ele>1176.19</ele>
      <time>2021-10-12T16:27:07Z</time>
    </trkpt>
    <trkpt lat="38.57181997" lon="34.913417967">
      <ele>1175.989</ele>
      <time>2021-10-12T16:27:08Z</time>
    </trkpt>
    <trkpt lat="38.571794992" lon="34.913412016">
      <ele>1175.715</ele>
      <time>2021-10-12T16:27:09Z</time>
    </trkpt>
    <trkpt lat="38.571762973" lon="34.913414028">
      <ele>1175.225</ele>
      <time>2021-10-12T16:27:10Z</time>
    </trkpt>
    <trkpt lat="38.571729027" lon="34.913407993">
      <ele>1174.823</ele>
      <time>2021-10-12T16:27:12Z</time>
    </trkpt>
    <trkpt lat="38.571698014" lon="34.913404975">
      <ele>1174.42</ele>
      <time>2021-10-12T16:27:13Z</time>
    </trkpt>
    <trkpt lat="38.571663983" lon="34.913399024">
      <ele>1174.008</ele>
      <time>2021-10-12T16:27:14Z</time>
    </trkpt>
    <trkpt lat="38.57163297" lon="34.913388966">
      <ele>1173.617</ele>
      <time>2021-10-12T16:27:15Z</time>
    </trkpt>
    <trkpt lat="38.571598018" lon="34.913386032">
      <ele>1173.052</ele>
      <time>2021-10-12T16:27:16Z</time>
    </trkpt>
    <trkpt lat="38.571563987" lon="34.913381003">
      <ele>1172.529</ele>
      <time>2021-10-12T16:27:18Z</time>
    </trkpt>
    <trkpt lat="38.57153004" lon="34.913371028">
      <ele>1172.065</ele>
      <time>2021-10-12T16:27:19Z</time>
    </trkpt>
    <trkpt lat="38.571499027" lon="34.913358958">
      <ele>1171.669</ele>
      <time>2021-10-12T16:27:20Z</time>
    </trkpt>
    <trkpt lat="38.571464997" lon="34.913347978">
      <ele>1171.197</ele>
      <time>2021-10-12T16:27:22Z</time>
    </trkpt>
    <trkpt lat="38.571433984" lon="34.913335992">
      <ele>1170.781</ele>
      <time>2021-10-12T16:27:23Z</time>
    </trkpt>
    <trkpt lat="38.571404982" lon="34.913318977">
      <ele>1170.493</ele>
      <time>2021-10-12T16:27:24Z</time>
    </trkpt>
    <trkpt lat="38.571372963" lon="34.913297016">
      <ele>1170.393</ele>
      <time>2021-10-12T16:27:25Z</time>
    </trkpt>
    <trkpt lat="38.571343962" lon="34.913274972">
      <ele>1170.449</ele>
      <time>2021-10-12T16:27:27Z</time>
    </trkpt>
    <trkpt lat="38.571322002" lon="34.913248988">
      <ele>1170.587</ele>
      <time>2021-10-12T16:27:28Z</time>
    </trkpt>
    <trkpt lat="38.571295012" lon="34.913219986">
      <ele>1170.68</ele>
      <time>2021-10-12T16:27:29Z</time>
    </trkpt>
    <trkpt lat="38.57127104" lon="34.913190985">
      <ele>1170.766</ele>
      <time>2021-10-12T16:27:30Z</time>
    </trkpt>
    <trkpt lat="38.571243966" lon="34.913167013">
      <ele>1170.727</ele>
      <time>2021-10-12T16:27:31Z</time>
    </trkpt>
    <trkpt lat="38.571213037" lon="34.913151003">
      <ele>1170.528</ele>
      <time>2021-10-12T16:27:33Z</time>
    </trkpt>
    <trkpt lat="38.571185041" lon="34.913138011">
      <ele>1170.313</ele>
      <time>2021-10-12T16:27:34Z</time>
    </trkpt>
    <trkpt lat="38.571162997" lon="34.913134994">
      <ele>1170.068</ele>
      <time>2021-10-12T16:27:35Z</time>
    </trkpt>
    <trkpt lat="38.571101977" lon="34.913263991">
      <ele>1168.705</ele>
      <time>2021-10-12T16:27:39Z</time>
    </trkpt>
    <trkpt lat="38.571088985" lon="34.913301961">
      <ele>1168.756</ele>
      <time>2021-10-12T16:27:40Z</time>
    </trkpt>
    <trkpt lat="38.571078004" lon="34.913335992">
      <ele>1168.843</ele>
      <time>2021-10-12T16:27:41Z</time>
    </trkpt>
    <trkpt lat="38.571069036" lon="34.913371028">
      <ele>1169.175</ele>
      <time>2021-10-12T16:27:42Z</time>
    </trkpt>
    <trkpt lat="38.571064007" lon="34.913406987">
      <ele>1169.407</ele>
      <time>2021-10-12T16:27:43Z</time>
    </trkpt>
    <trkpt lat="38.571060989" lon="34.913441017">
      <ele>1169.581</ele>
      <time>2021-10-12T16:27:44Z</time>
    </trkpt>
    <trkpt lat="38.571061995" lon="34.91347203">
      <ele>1169.649</ele>
      <time>2021-10-12T16:27:45Z</time>
    </trkpt>
    <trkpt lat="38.571057972" lon="34.913504971">
      <ele>1169.839</ele>
      <time>2021-10-12T16:27:46Z</time>
    </trkpt>
    <trkpt lat="38.571059983" lon="34.913535984">
      <ele>1169.884</ele>
      <time>2021-10-12T16:27:47Z</time>
    </trkpt>
    <trkpt lat="38.571059983" lon="34.913568003">
      <ele>1169.978</ele>
      <time>2021-10-12T16:27:48Z</time>
    </trkpt>
    <trkpt lat="38.571064007" lon="34.913688032">
      <ele>1169.834</ele>
      <time>2021-10-12T16:27:52Z</time>
    </trkpt>
    <trkpt lat="38.571070964" lon="34.913818035">
      <ele>1169.338</ele>
      <time>2021-10-12T16:27:55Z</time>
    </trkpt>
    <trkpt lat="38.571094014" lon="34.913935969">
      <ele>1168.821</ele>
      <time>2021-10-12T16:27:59Z</time>
    </trkpt>
    <trkpt lat="38.571101977" lon="34.913965976">
      <ele>1168.809</ele>
      <time>2021-10-12T16:28:00Z</time>
    </trkpt>
    <trkpt lat="38.571112035" lon="34.913996989">
      <ele>1168.768</ele>
      <time>2021-10-12T16:28:01Z</time>
    </trkpt>
    <trkpt lat="38.571138019" lon="34.914133027">
      <ele>1169.309</ele>
      <time>2021-10-12T16:28:05Z</time>
    </trkpt>
    <trkpt lat="38.571145982" lon="34.914252972">
      <ele>1169.372</ele>
      <time>2021-10-12T16:28:08Z</time>
    </trkpt>
    <trkpt lat="38.571137013" lon="34.914402002">
      <ele>1169.534</ele>
      <time>2021-10-12T16:28:13Z</time>
    </trkpt>
    <trkpt lat="38.571111029" lon="34.914495964">
      <ele>1169.445</ele>
      <time>2021-10-12T16:28:16Z</time>
    </trkpt>
    <trkpt lat="38.571101977" lon="34.914527982">
      <ele>1169.285</ele>
      <time>2021-10-12T16:28:17Z</time>
    </trkpt>
    <trkpt lat="38.571087979" lon="34.914560001">
      <ele>1169.217</ele>
      <time>2021-10-12T16:28:18Z</time>
    </trkpt>
    <trkpt lat="38.571078004" lon="34.914585985">
      <ele>1169.126</ele>
      <time>2021-10-12T16:28:18Z</time>
    </trkpt>
    <trkpt lat="38.57106803" lon="34.914614987">
      <ele>1168.993</ele>
      <time>2021-10-12T16:28:19Z</time>
    </trkpt>
    <trkpt lat="38.571056966" lon="34.914643988">
      <ele>1168.874</ele>
      <time>2021-10-12T16:28:20Z</time>
    </trkpt>
    <trkpt lat="38.571047997" lon="34.914672989">
      <ele>1168.708</ele>
      <time>2021-10-12T16:28:21Z</time>
    </trkpt>
    <trkpt lat="38.571038023" lon="34.914704002">
      <ele>1168.53</ele>
      <time>2021-10-12T16:28:22Z</time>
    </trkpt>
    <trkpt lat="38.571027964" lon="34.914727975">
      <ele>1168.401</ele>
      <time>2021-10-12T16:28:23Z</time>
    </trkpt>
    <trkpt lat="38.571015978" lon="34.914748007">
      <ele>1168.277</ele>
      <time>2021-10-12T16:28:24Z</time>
    </trkpt>
    <trkpt lat="38.570997035" lon="34.914764017">
      <ele>1168.328</ele>
      <time>2021-10-12T16:28:25Z</time>
    </trkpt>
    <trkpt lat="38.570978008" lon="34.914763011">
      <ele>1168.668</ele>
      <time>2021-10-12T16:28:25Z</time>
    </trkpt>
    <trkpt lat="38.570965016" lon="34.914735015">
      <ele>1169.397</ele>
      <time>2021-10-12T16:28:26Z</time>
    </trkpt>
    <trkpt lat="38.570963005" lon="34.914695034">
      <ele>1170.012</ele>
      <time>2021-10-12T16:28:27Z</time>
    </trkpt>
    <trkpt lat="38.57095697" lon="34.914652035">
      <ele>1170.673</ele>
      <time>2021-10-12T16:28:29Z</time>
    </trkpt>
    <trkpt lat="38.570951018" lon="34.914607024">
      <ele>1171.365</ele>
      <time>2021-10-12T16:28:30Z</time>
    </trkpt>
    <trkpt lat="38.570945989" lon="34.914582968">
      <ele>1171.774</ele>
      <time>2021-10-12T16:28:31Z</time>
    </trkpt>
    <trkpt lat="38.570941966" lon="34.914552039">
      <ele>1172.256</ele>
      <time>2021-10-12T16:28:32Z</time>
    </trkpt>
    <trkpt lat="38.57094096" lon="34.914524965">
      <ele>1172.628</ele>
      <time>2021-10-12T16:28:32Z</time>
    </trkpt>
    <trkpt lat="38.570937021" lon="34.914500993">
      <ele>1173.022</ele>
      <time>2021-10-12T16:28:33Z</time>
    </trkpt>
    <trkpt lat="38.570930986" lon="34.914476015">
      <ele>1173.476</ele>
      <time>2021-10-12T16:28:34Z</time>
    </trkpt>
    <trkpt lat="38.570928974" lon="34.914451037">
      <ele>1173.847</ele>
      <time>2021-10-12T16:28:35Z</time>
    </trkpt>
    <trkpt lat="38.570922017" lon="34.914424969">
      <ele>1174.132</ele>
      <time>2021-10-12T16:28:35Z</time>
    </trkpt>
    <trkpt lat="38.570917994" lon="34.914396973">
      <ele>1174.29</ele>
      <time>2021-10-12T16:28:36Z</time>
    </trkpt>
    <trkpt lat="38.570911037" lon="34.914370989">
      <ele>1174.512</ele>
      <time>2021-10-12T16:28:37Z</time>
    </trkpt>
    <trkpt lat="38.570905002" lon="34.914348023">
      <ele>1174.71</ele>
      <time>2021-10-12T16:28:38Z</time>
    </trkpt>
    <trkpt lat="38.570887987" lon="34.914310975">
      <ele>1175.205</ele>
      <time>2021-10-12T16:28:39Z</time>
    </trkpt>
    <trkpt lat="38.570869965" lon="34.914292032">
      <ele>1175.685</ele>
      <time>2021-10-12T16:28:40Z</time>
    </trkpt>
    <trkpt lat="38.570851022" lon="34.91429396">
      <ele>1176.125</ele>
      <time>2021-10-12T16:28:40Z</time>
    </trkpt>
    <trkpt lat="38.570834007" lon="34.914299995">
      <ele>1176.504</ele>
      <time>2021-10-12T16:28:41Z</time>
    </trkpt>
    <trkpt lat="38.570813974" lon="34.914312987">
      <ele>1176.789</ele>
      <time>2021-10-12T16:28:42Z</time>
    </trkpt>
    <trkpt lat="38.570804" lon="34.914331008">
      <ele>1176.893</ele>
      <time>2021-10-12T16:28:43Z</time>
    </trkpt>
    <trkpt lat="38.570788996" lon="34.914357997">
      <ele>1177.06</ele>
      <time>2021-10-12T16:28:44Z</time>
    </trkpt>
    <trkpt lat="38.570767036" lon="34.914379036">
      <ele>1177.373</ele>
      <time>2021-10-12T16:28:45Z</time>
    </trkpt>
    <trkpt lat="38.570748009" lon="34.914400997">
      <ele>1177.644</ele>
      <time>2021-10-12T16:28:46Z</time>
    </trkpt>
    <trkpt lat="38.570731999" lon="34.914423041">
      <ele>1177.873</ele>
      <time>2021-10-12T16:28:46Z</time>
    </trkpt>
    <trkpt lat="38.570713978" lon="34.914440978">
      <ele>1178.156</ele>
      <time>2021-10-12T16:28:47Z</time>
    </trkpt>
    <trkpt lat="38.570696963" lon="34.914457994">
      <ele>1178.26</ele>
      <time>2021-10-12T16:28:48Z</time>
    </trkpt>
    <trkpt lat="38.570679026" lon="34.914477021">
      <ele>1178.308</ele>
      <time>2021-10-12T16:28:49Z</time>
    </trkpt>
    <trkpt lat="38.570658993" lon="34.914491018">
      <ele>1178.467</ele>
      <time>2021-10-12T16:28:50Z</time>
    </trkpt>
    <trkpt lat="38.570636027" lon="34.914501999">
      <ele>1178.723</ele>
      <time>2021-10-12T16:28:51Z</time>
    </trkpt>
    <trkpt lat="38.570618005" lon="34.914507028">
      <ele>1178.975</ele>
      <time>2021-10-12T16:28:51Z</time>
    </trkpt>
    <trkpt lat="38.570598979" lon="34.914506022">
      <ele>1179.332</ele>
      <time>2021-10-12T16:28:52Z</time>
    </trkpt>
    <trkpt lat="38.57057903" lon="34.914499987">
      <ele>1179.778</ele>
      <time>2021-10-12T16:28:53Z</time>
    </trkpt>
    <trkpt lat="38.570555979" lon="34.914501999">
      <ele>1180.164</ele>
      <time>2021-10-12T16:28:54Z</time>
    </trkpt>
    <trkpt lat="38.570533013" lon="34.914491018">
      <ele>1180.41</ele>
      <time>2021-10-12T16:28:55Z</time>
    </trkpt>
    <trkpt lat="38.570514992" lon="34.914475009">
      <ele>1180.706</ele>
      <time>2021-10-12T16:28:55Z</time>
    </trkpt>
    <trkpt lat="38.570499988" lon="34.914455982">
      <ele>1181.034</ele>
      <time>2021-10-12T16:28:56Z</time>
    </trkpt>
    <trkpt lat="38.570484985" lon="34.914429998">
      <ele>1181.307</ele>
      <time>2021-10-12T16:28:57Z</time>
    </trkpt>
    <trkpt lat="38.570466964" lon="34.91440502">
      <ele>1181.5</ele>
      <time>2021-10-12T16:28:58Z</time>
    </trkpt>
    <trkpt lat="38.570443997" lon="34.91437803">
      <ele>1181.786</ele>
      <time>2021-10-12T16:28:59Z</time>
    </trkpt>
    <trkpt lat="38.570429999" lon="34.914359003">
      <ele>1182.008</ele>
      <time>2021-10-12T16:29:00Z</time>
    </trkpt>
    <trkpt lat="38.57041399" lon="34.914339976">
      <ele>1182.276</ele>
      <time>2021-10-12T16:29:01Z</time>
    </trkpt>
    <trkpt lat="38.570400998" lon="34.914322961">
      <ele>1182.53</ele>
      <time>2021-10-12T16:29:02Z</time>
    </trkpt>
    <trkpt lat="38.570392029" lon="34.914301001">
      <ele>1182.805</ele>
      <time>2021-10-12T16:29:02Z</time>
    </trkpt>
    <trkpt lat="38.57037602" lon="34.91427904">
      <ele>1183.186</ele>
      <time>2021-10-12T16:29:03Z</time>
    </trkpt>
    <trkpt lat="38.570363028" lon="34.914250961">
      <ele>1183.624</ele>
      <time>2021-10-12T16:29:04Z</time>
    </trkpt>
    <trkpt lat="38.570350036" lon="34.914224977">
      <ele>1184.078</ele>
      <time>2021-10-12T16:29:05Z</time>
    </trkpt>
    <trkpt lat="38.57033696" lon="34.914198993">
      <ele>1184.568</ele>
      <time>2021-10-12T16:29:06Z</time>
    </trkpt>
    <trkpt lat="38.570322962" lon="34.914169991">
      <ele>1185.147</ele>
      <time>2021-10-12T16:29:07Z</time>
    </trkpt>
    <trkpt lat="38.570310976" lon="34.914144007">
      <ele>1185.556</ele>
      <time>2021-10-12T16:29:08Z</time>
    </trkpt>
    <trkpt lat="38.570301002" lon="34.914122969">
      <ele>1185.883</ele>
      <time>2021-10-12T16:29:08Z</time>
    </trkpt>
    <trkpt lat="38.570284992" lon="34.914093968">
      <ele>1186.387</ele>
      <time>2021-10-12T16:29:09Z</time>
    </trkpt>
    <trkpt lat="38.570268983" lon="34.914067984">
      <ele>1186.817</ele>
      <time>2021-10-12T16:29:10Z</time>
    </trkpt>
    <trkpt lat="38.570254985" lon="34.914042">
      <ele>1187.181</ele>
      <time>2021-10-12T16:29:11Z</time>
    </trkpt>
    <trkpt lat="38.570238976" lon="34.914009981">
      <ele>1187.626</ele>
      <time>2021-10-12T16:29:12Z</time>
    </trkpt>
    <trkpt lat="38.570220033" lon="34.91398802">
      <ele>1188.044</ele>
      <time>2021-10-12T16:29:13Z</time>
    </trkpt>
    <trkpt lat="38.570206035" lon="34.913960025">
      <ele>1188.455</ele>
      <time>2021-10-12T16:29:14Z</time>
    </trkpt>
    <trkpt lat="38.570191031" lon="34.913933035">
      <ele>1188.882</ele>
      <time>2021-10-12T16:29:15Z</time>
    </trkpt>
    <trkpt lat="38.570179967" lon="34.913909985">
      <ele>1189.23</ele>
      <time>2021-10-12T16:29:16Z</time>
    </trkpt>
    <trkpt lat="38.57016203" lon="34.913885007">
      <ele>1189.687</ele>
      <time>2021-10-12T16:29:17Z</time>
    </trkpt>
    <trkpt lat="38.570144009" lon="34.91386204">
      <ele>1190.069</ele>
      <time>2021-10-12T16:29:18Z</time>
    </trkpt>
    <trkpt lat="38.570127999" lon="34.91383899">
      <ele>1190.433</ele>
      <time>2021-10-12T16:29:19Z</time>
    </trkpt>
    <trkpt lat="38.570110984" lon="34.913819963">
      <ele>1190.799</ele>
      <time>2021-10-12T16:29:20Z</time>
    </trkpt>
    <trkpt lat="38.570092041" lon="34.91380102">
      <ele>1191.202</ele>
      <time>2021-10-12T16:29:21Z</time>
    </trkpt>
    <trkpt lat="38.570073014" lon="34.913787022">
      <ele>1191.586</ele>
      <time>2021-10-12T16:29:21Z</time>
    </trkpt>
    <trkpt lat="38.570055999" lon="34.913772019">
      <ele>1191.95</ele>
      <time>2021-10-12T16:29:22Z</time>
    </trkpt>
    <trkpt lat="38.570038984" lon="34.913758021">
      <ele>1192.315</ele>
      <time>2021-10-12T16:29:23Z</time>
    </trkpt>
    <trkpt lat="38.570022974" lon="34.913742011">
      <ele>1192.683</ele>
      <time>2021-10-12T16:29:24Z</time>
    </trkpt>
    <trkpt lat="38.570005037" lon="34.913728014">
      <ele>1193.075</ele>
      <time>2021-10-12T16:29:24Z</time>
    </trkpt>
    <trkpt lat="38.56998601" lon="34.913718039">
      <ele>1193.35</ele>
      <time>2021-10-12T16:29:25Z</time>
    </trkpt>
    <trkpt lat="38.56996296" lon="34.913709993">
      <ele>1193.602</ele>
      <time>2021-10-12T16:29:26Z</time>
    </trkpt>
    <trkpt lat="38.569944017" lon="34.913700018">
      <ele>1193.827</ele>
      <time>2021-10-12T16:29:27Z</time>
    </trkpt>
    <trkpt lat="38.569923984" lon="34.913688032">
      <ele>1194.069</ele>
      <time>2021-10-12T16:29:28Z</time>
    </trkpt>
    <trkpt lat="38.569905041" lon="34.913673028">
      <ele>1194.314</ele>
      <time>2021-10-12T16:29:29Z</time>
    </trkpt>
    <trkpt lat="38.569884002" lon="34.913661964">
      <ele>1194.545</ele>
      <time>2021-10-12T16:29:29Z</time>
    </trkpt>
    <trkpt lat="38.569864975" lon="34.913650984">
      <ele>1194.755</ele>
      <time>2021-10-12T16:29:30Z</time>
    </trkpt>
    <trkpt lat="38.569843015" lon="34.913636986">
      <ele>1194.997</ele>
      <time>2021-10-12T16:29:31Z</time>
    </trkpt>
    <trkpt lat="38.569821976" lon="34.913625">
      <ele>1195.214</ele>
      <time>2021-10-12T16:29:32Z</time>
    </trkpt>
    <trkpt lat="38.569798004" lon="34.913607985">
      <ele>1195.443</ele>
      <time>2021-10-12T16:29:33Z</time>
    </trkpt>
    <trkpt lat="38.569775959" lon="34.91359801">
      <ele>1195.566</ele>
      <time>2021-10-12T16:29:34Z</time>
    </trkpt>
    <trkpt lat="38.569753999" lon="34.913589964">
      <ele>1195.695</ele>
      <time>2021-10-12T16:29:35Z</time>
    </trkpt>
    <trkpt lat="38.569732038" lon="34.913579989">
      <ele>1195.817</ele>
      <time>2021-10-12T16:29:36Z</time>
    </trkpt>
    <trkpt lat="38.569709994" lon="34.913571021">
      <ele>1196.044</ele>
      <time>2021-10-12T16:29:36Z</time>
    </trkpt>
    <trkpt lat="38.569687027" lon="34.91356398">
      <ele>1196.38</ele>
      <time>2021-10-12T16:29:37Z</time>
    </trkpt>
    <trkpt lat="38.569664983" lon="34.913556017">
      <ele>1196.708</ele>
      <time>2021-10-12T16:29:38Z</time>
    </trkpt>
    <trkpt lat="38.56964604" lon="34.913544031">
      <ele>1196.988</ele>
      <time>2021-10-12T16:29:39Z</time>
    </trkpt>
    <trkpt lat="38.569627013" lon="34.913529027">
      <ele>1197.278</ele>
      <time>2021-10-12T16:29:40Z</time>
    </trkpt>
    <trkpt lat="38.569609998" lon="34.913517041">
      <ele>1197.551</ele>
      <time>2021-10-12T16:29:40Z</time>
    </trkpt>
    <trkpt lat="38.569591977" lon="34.913512012">
      <ele>1197.853</ele>
      <time>2021-10-12T16:29:41Z</time>
    </trkpt>
    <trkpt lat="38.569560964" lon="34.913501032">
      <ele>1198.386</ele>
      <time>2021-10-12T16:29:42Z</time>
    </trkpt>
    <trkpt lat="38.569545038" lon="34.913488962">
      <ele>1198.673</ele>
      <time>2021-10-12T16:29:43Z</time>
    </trkpt>
    <trkpt lat="38.569514025" lon="34.913474964">
      <ele>1199.243</ele>
      <time>2021-10-12T16:29:44Z</time>
    </trkpt>
    <trkpt lat="38.569484018" lon="34.913456021">
      <ele>1199.829</ele>
      <time>2021-10-12T16:29:45Z</time>
    </trkpt>
    <trkpt lat="38.569469014" lon="34.913443029">
      <ele>1200.144</ele>
      <time>2021-10-12T16:29:46Z</time>
    </trkpt>
    <trkpt lat="38.569454011" lon="34.913430037">
      <ele>1200.469</ele>
      <time>2021-10-12T16:29:47Z</time>
    </trkpt>
    <trkpt lat="38.569422998" lon="34.913408998">
      <ele>1201.156</ele>
      <time>2021-10-12T16:29:48Z</time>
    </trkpt>
    <trkpt lat="38.569393996" lon="34.913386032">
      <ele>1201.787</ele>
      <time>2021-10-12T16:29:49Z</time>
    </trkpt>
    <trkpt lat="38.569379998" lon="34.913370023">
      <ele>1202.089</ele>
      <time>2021-10-12T16:29:50Z</time>
    </trkpt>
    <trkpt lat="38.569356026" lon="34.913344961">
      <ele>1202.576</ele>
      <time>2021-10-12T16:29:51Z</time>
    </trkpt>
    <trkpt lat="38.569336999" lon="34.913319983">
      <ele>1202.886</ele>
      <time>2021-10-12T16:29:52Z</time>
    </trkpt>
    <trkpt lat="38.569315961" lon="34.91328897">
      <ele>1203.153</ele>
      <time>2021-10-12T16:29:53Z</time>
    </trkpt>
    <trkpt lat="38.569303975" lon="34.913269021">
      <ele>1203.297</ele>
      <time>2021-10-12T16:29:54Z</time>
    </trkpt>
    <trkpt lat="38.569284026" lon="34.913228033">
      <ele>1203.508</ele>
      <time>2021-10-12T16:29:56Z</time>
    </trkpt>
    <trkpt lat="38.569273967" lon="34.913205989">
      <ele>1203.61</ele>
      <time>2021-10-12T16:29:56Z</time>
    </trkpt>
    <trkpt lat="38.569258042" lon="34.913169025">
      <ele>1203.764</ele>
      <time>2021-10-12T16:29:57Z</time>
    </trkpt>
    <trkpt lat="38.56924396" lon="34.913153015">
      <ele>1203.96</ele>
      <time>2021-10-12T16:29:58Z</time>
    </trkpt>
    <trkpt lat="38.569208002" lon="34.913052013">
      <ele>1204.243</ele>
      <time>2021-10-12T16:30:01Z</time>
    </trkpt>
    <trkpt lat="38.569201967" lon="34.913028963">
      <ele>1204.269</ele>
      <time>2021-10-12T16:30:02Z</time>
    </trkpt>
    <trkpt lat="38.569183024" lon="34.912988981">
      <ele>1204.466</ele>
      <time>2021-10-12T16:30:03Z</time>
    </trkpt>
    <trkpt lat="38.569167014" lon="34.912970038">
      <ele>1204.686</ele>
      <time>2021-10-12T16:30:04Z</time>
    </trkpt>
    <trkpt lat="38.569155028" lon="34.912947994">
      <ele>1204.99</ele>
      <time>2021-10-12T16:30:05Z</time>
    </trkpt>
    <trkpt lat="38.56914103" lon="34.912927961">
      <ele>1205.371</ele>
      <time>2021-10-12T16:30:06Z</time>
    </trkpt>
    <trkpt lat="38.569128038" lon="34.912910024">
      <ele>1205.728</ele>
      <time>2021-10-12T16:30:07Z</time>
    </trkpt>
    <trkpt lat="38.569113035" lon="34.912888985">
      <ele>1206.138</ele>
      <time>2021-10-12T16:30:07Z</time>
    </trkpt>
    <trkpt lat="38.569099959" lon="34.912869958">
      <ele>1206.493</ele>
      <time>2021-10-12T16:30:08Z</time>
    </trkpt>
    <trkpt lat="38.569084033" lon="34.912850009">
      <ele>1206.937</ele>
      <time>2021-10-12T16:30:09Z</time>
    </trkpt>
    <trkpt lat="38.569070036" lon="34.912825031">
      <ele>1207.301</ele>
      <time>2021-10-12T16:30:10Z</time>
    </trkpt>
    <trkpt lat="38.569056038" lon="34.912798041">
      <ele>1207.657</ele>
      <time>2021-10-12T16:30:11Z</time>
    </trkpt>
    <trkpt lat="38.569041034" lon="34.912773985">
      <ele>1208.073</ele>
      <time>2021-10-12T16:30:12Z</time>
    </trkpt>
    <trkpt lat="38.569027958" lon="34.912752025">
      <ele>1208.494</ele>
      <time>2021-10-12T16:30:12Z</time>
    </trkpt>
    <trkpt lat="38.569012033" lon="34.912731992">
      <ele>1208.973</ele>
      <time>2021-10-12T16:30:13Z</time>
    </trkpt>
    <trkpt lat="38.568998035" lon="34.91270802">
      <ele>1209.356</ele>
      <time>2021-10-12T16:30:14Z</time>
    </trkpt>
    <trkpt lat="38.568984959" lon="34.912685975">
      <ele>1209.684</ele>
      <time>2021-10-12T16:30:15Z</time>
    </trkpt>
    <trkpt lat="38.568972973" lon="34.912666027">
      <ele>1209.958</ele>
      <time>2021-10-12T16:30:16Z</time>
    </trkpt>
    <trkpt lat="38.568960987" lon="34.912642976">
      <ele>1210.197</ele>
      <time>2021-10-12T16:30:16Z</time>
    </trkpt>
    <trkpt lat="38.568949001" lon="34.912621016">
      <ele>1210.412</ele>
      <time>2021-10-12T16:30:17Z</time>
    </trkpt>
    <trkpt lat="38.568935003" lon="34.912599977">
      <ele>1210.651</ele>
      <time>2021-10-12T16:30:18Z</time>
    </trkpt>
    <trkpt lat="38.568918994" lon="34.912578017">
      <ele>1210.898</ele>
      <time>2021-10-12T16:30:19Z</time>
    </trkpt>
    <trkpt lat="38.568904996" lon="34.912555972">
      <ele>1211.066</ele>
      <time>2021-10-12T16:30:20Z</time>
    </trkpt>
    <trkpt lat="38.568890998" lon="34.912538035">
      <ele>1211.232</ele>
      <time>2021-10-12T16:30:20Z</time>
    </trkpt>
    <trkpt lat="38.568879012" lon="34.91252102">
      <ele>1211.302</ele>
      <time>2021-10-12T16:30:21Z</time>
    </trkpt>
    <trkpt lat="38.568864008" lon="34.91250501">
      <ele>1211.399</ele>
      <time>2021-10-12T16:30:22Z</time>
    </trkpt>
    <trkpt lat="38.568850011" lon="34.912486989">
      <ele>1211.54</ele>
      <time>2021-10-12T16:30:23Z</time>
    </trkpt>
    <trkpt lat="38.568836013" lon="34.912464023">
      <ele>1211.687</ele>
      <time>2021-10-12T16:30:23Z</time>
    </trkpt>
    <trkpt lat="38.568822015" lon="34.912448013">
      <ele>1211.828</ele>
      <time>2021-10-12T16:30:24Z</time>
    </trkpt>
    <trkpt lat="38.568806006" lon="34.912430998">
      <ele>1211.971</ele>
      <time>2021-10-12T16:30:25Z</time>
    </trkpt>
    <trkpt lat="38.568792008" lon="34.912414989">
      <ele>1212.075</ele>
      <time>2021-10-12T16:30:26Z</time>
    </trkpt>
    <trkpt lat="38.568775998" lon="34.912403002">
      <ele>1212.2</ele>
      <time>2021-10-12T16:30:26Z</time>
    </trkpt>
    <trkpt lat="38.568755966" lon="34.91239001">
      <ele>1212.346</ele>
      <time>2021-10-12T16:30:27Z</time>
    </trkpt>
    <trkpt lat="38.568736017" lon="34.912380036">
      <ele>1212.488</ele>
      <time>2021-10-12T16:30:28Z</time>
    </trkpt>
    <trkpt lat="38.568715984" lon="34.912374001">
      <ele>1212.643</ele>
      <time>2021-10-12T16:30:29Z</time>
    </trkpt>
    <trkpt lat="38.568697041" lon="34.912374001">
      <ele>1212.823</ele>
      <time>2021-10-12T16:30:29Z</time>
    </trkpt>
    <trkpt lat="38.568678014" lon="34.912375007">
      <ele>1213.012</ele>
      <time>2021-10-12T16:30:30Z</time>
    </trkpt>
    <trkpt lat="38.568654042" lon="34.912376013">
      <ele>1213.25</ele>
      <time>2021-10-12T16:30:31Z</time>
    </trkpt>
    <trkpt lat="38.568629986" lon="34.912377018">
      <ele>1213.49</ele>
      <time>2021-10-12T16:30:32Z</time>
    </trkpt>
    <trkpt lat="38.568607019" lon="34.912380036">
      <ele>1213.727</ele>
      <time>2021-10-12T16:30:33Z</time>
    </trkpt>
    <trkpt lat="38.568582041" lon="34.912385987">
      <ele>1213.935</ele>
      <time>2021-10-12T16:30:34Z</time>
    </trkpt>
    <trkpt lat="38.568555973" lon="34.91239001">
      <ele>1214.131</ele>
      <time>2021-10-12T16:30:35Z</time>
    </trkpt>
    <trkpt lat="38.56852999" lon="34.91239504">
      <ele>1214.34</ele>
      <time>2021-10-12T16:30:36Z</time>
    </trkpt>
    <trkpt lat="38.568503" lon="34.912400991">
      <ele>1214.57</ele>
      <time>2021-10-12T16:30:37Z</time>
    </trkpt>
    <trkpt lat="38.568477016" lon="34.912409959">
      <ele>1214.837</ele>
      <time>2021-10-12T16:30:38Z</time>
    </trkpt>
    <trkpt lat="38.568453966" lon="34.912419012">
      <ele>1215.092</ele>
      <time>2021-10-12T16:30:39Z</time>
    </trkpt>
    <trkpt lat="38.568427982" lon="34.912428986">
      <ele>1215.383</ele>
      <time>2021-10-12T16:30:40Z</time>
    </trkpt>
    <trkpt lat="38.568406021" lon="34.912437033">
      <ele>1215.629</ele>
      <time>2021-10-12T16:30:40Z</time>
    </trkpt>
    <trkpt lat="38.568381965" lon="34.912448013">
      <ele>1215.934</ele>
      <time>2021-10-12T16:30:41Z</time>
    </trkpt>
    <trkpt lat="38.568357993" lon="34.912456982">
      <ele>1216.217</ele>
      <time>2021-10-12T16:30:42Z</time>
    </trkpt>
    <trkpt lat="38.568337038" lon="34.912464023">
      <ele>1216.457</ele>
      <time>2021-10-12T16:30:43Z</time>
    </trkpt>
    <trkpt lat="38.568312982" lon="34.912473997">
      <ele>1216.552</ele>
      <time>2021-10-12T16:30:44Z</time>
    </trkpt>
    <trkpt lat="38.56828901" lon="34.912489001">
      <ele>1216.682</ele>
      <time>2021-10-12T16:30:45Z</time>
    </trkpt>
    <trkpt lat="38.568261014" lon="34.912506016">
      <ele>1216.826</ele>
      <time>2021-10-12T16:30:46Z</time>
    </trkpt>
    <trkpt lat="38.568236036" lon="34.912523031">
      <ele>1216.981</ele>
      <time>2021-10-12T16:30:47Z</time>
    </trkpt>
    <trkpt lat="38.568210974" lon="34.912541974">
      <ele>1217.164</ele>
      <time>2021-10-12T16:30:48Z</time>
    </trkpt>
    <trkpt lat="38.56818499" lon="34.912557984">
      <ele>1217.301</ele>
      <time>2021-10-12T16:30:49Z</time>
    </trkpt>
    <trkpt lat="38.568159007" lon="34.912572987">
      <ele>1217.423</ele>
      <time>2021-10-12T16:30:50Z</time>
    </trkpt>
    <trkpt lat="38.568135034" lon="34.912588997">
      <ele>1217.568</ele>
      <time>2021-10-12T16:30:51Z</time>
    </trkpt>
    <trkpt lat="38.568108967" lon="34.912606012">
      <ele>1217.719</ele>
      <time>2021-10-12T16:30:52Z</time>
    </trkpt>
    <trkpt lat="38.568081977" lon="34.912623027">
      <ele>1217.867</ele>
      <time>2021-10-12T16:30:54Z</time>
    </trkpt>
    <trkpt lat="38.568056999" lon="34.912638031">
      <ele>1217.993</ele>
      <time>2021-10-12T16:30:55Z</time>
    </trkpt>
    <trkpt lat="38.568031015" lon="34.912652029">
      <ele>1218.101</ele>
      <time>2021-10-12T16:30:56Z</time>
    </trkpt>
    <trkpt lat="38.56800897" lon="34.912664015">
      <ele>1218.194</ele>
      <time>2021-10-12T16:30:57Z</time>
    </trkpt>
    <trkpt lat="38.567986004" lon="34.912678013">
      <ele>1218.313</ele>
      <time>2021-10-12T16:30:57Z</time>
    </trkpt>
    <trkpt lat="38.56796002" lon="34.912689999">
      <ele>1218.392</ele>
      <time>2021-10-12T16:30:58Z</time>
    </trkpt>
    <trkpt lat="38.567934036" lon="34.912702991">
      <ele>1218.486</ele>
      <time>2021-10-12T16:31:00Z</time>
    </trkpt>
    <trkpt lat="38.567912998" lon="34.912714977">
      <ele>1218.582</ele>
      <time>2021-10-12T16:31:00Z</time>
    </trkpt>
    <trkpt lat="38.567892965" lon="34.912726041">
      <ele>1218.67</ele>
      <time>2021-10-12T16:31:01Z</time>
    </trkpt>
    <trkpt lat="38.567869999" lon="34.912736015">
      <ele>1218.731</ele>
      <time>2021-10-12T16:31:02Z</time>
    </trkpt>
    <trkpt lat="38.56784896" lon="34.912744984">
      <ele>1218.784</ele>
      <time>2021-10-12T16:31:03Z</time>
    </trkpt>
    <trkpt lat="38.567824988" lon="34.912754036">
      <ele>1218.828</ele>
      <time>2021-10-12T16:31:04Z</time>
    </trkpt>
    <trkpt lat="38.567805961" lon="34.912760993">
      <ele>1218.86</ele>
      <time>2021-10-12T16:31:05Z</time>
    </trkpt>
    <trkpt lat="38.567784" lon="34.912770968">
      <ele>1218.924</ele>
      <time>2021-10-12T16:31:05Z</time>
    </trkpt>
    <trkpt lat="38.567762962" lon="34.912782032">
      <ele>1219.168</ele>
      <time>2021-10-12T16:31:06Z</time>
    </trkpt>
    <trkpt lat="38.567742007" lon="34.912794018">
      <ele>1219.491</ele>
      <time>2021-10-12T16:31:07Z</time>
    </trkpt>
    <trkpt lat="38.56771904" lon="34.91280701">
      <ele>1219.844</ele>
      <time>2021-10-12T16:31:08Z</time>
    </trkpt>
    <trkpt lat="38.567700014" lon="34.91281799">
      <ele>1220.139</ele>
      <time>2021-10-12T16:31:09Z</time>
    </trkpt>
    <trkpt lat="38.567677969" lon="34.912830982">
      <ele>1220.485</ele>
      <time>2021-10-12T16:31:10Z</time>
    </trkpt>
    <trkpt lat="38.567656009" lon="34.912843974">
      <ele>1220.83</ele>
      <time>2021-10-12T16:31:11Z</time>
    </trkpt>
    <trkpt lat="38.567635976" lon="34.91286099">
      <ele>1221.219</ele>
      <time>2021-10-12T16:31:11Z</time>
    </trkpt>
    <trkpt lat="38.567620972" lon="34.912878005">
      <ele>1221.572</ele>
      <time>2021-10-12T16:31:12Z</time>
    </trkpt>
    <trkpt lat="38.567604041" lon="34.912892003">
      <ele>1221.896</ele>
      <time>2021-10-12T16:31:13Z</time>
    </trkpt>
    <trkpt lat="38.56758602" lon="34.912908012">
      <ele>1222.256</ele>
      <time>2021-10-12T16:31:14Z</time>
    </trkpt>
    <trkpt lat="38.567550983" lon="34.912929973">
      <ele>1222.825</ele>
      <time>2021-10-12T16:31:15Z</time>
    </trkpt>
    <trkpt lat="38.567521982" lon="34.912951011">
      <ele>1223.336</ele>
      <time>2021-10-12T16:31:16Z</time>
    </trkpt>
    <trkpt lat="38.567502033" lon="34.912968026">
      <ele>1223.725</ele>
      <time>2021-10-12T16:31:17Z</time>
    </trkpt>
    <trkpt lat="38.567484012" lon="34.91298303">
      <ele>1224.028</ele>
      <time>2021-10-12T16:31:18Z</time>
    </trkpt>
    <trkpt lat="38.567468002" lon="34.91299904">
      <ele>1224.325</ele>
      <time>2021-10-12T16:31:19Z</time>
    </trkpt>
    <trkpt lat="38.56744797" lon="34.913016977">
      <ele>1224.658</ele>
      <time>2021-10-12T16:31:20Z</time>
    </trkpt>
    <trkpt lat="38.567432966" lon="34.913032986">
      <ele>1224.936</ele>
      <time>2021-10-12T16:31:21Z</time>
    </trkpt>
    <trkpt lat="38.567418968" lon="34.913052013">
      <ele>1225.244</ele>
      <time>2021-10-12T16:31:21Z</time>
    </trkpt>
    <trkpt lat="38.567400025" lon="34.913066011">
      <ele>1225.459</ele>
      <time>2021-10-12T16:31:22Z</time>
    </trkpt>
    <trkpt lat="38.567379992" lon="34.913080009">
      <ele>1225.658</ele>
      <time>2021-10-12T16:31:23Z</time>
    </trkpt>
    <trkpt lat="38.56735602" lon="34.913096018">
      <ele>1225.88</ele>
      <time>2021-10-12T16:31:24Z</time>
    </trkpt>
    <trkpt lat="38.567330958" lon="34.913104987">
      <ele>1226.034</ele>
      <time>2021-10-12T16:31:25Z</time>
    </trkpt>
    <trkpt lat="38.567307992" lon="34.913106998">
      <ele>1226.119</ele>
      <time>2021-10-12T16:31:26Z</time>
    </trkpt>
    <trkpt lat="38.56728402" lon="34.913111022">
      <ele>1226.221</ele>
      <time>2021-10-12T16:31:27Z</time>
    </trkpt>
    <trkpt lat="38.567259964" lon="34.913111022">
      <ele>1226.291</ele>
      <time>2021-10-12T16:31:28Z</time>
    </trkpt>
    <trkpt lat="38.567235991" lon="34.91310901">
      <ele>1226.345</ele>
      <time>2021-10-12T16:31:28Z</time>
    </trkpt>
    <trkpt lat="38.567215037" lon="34.913108004">
      <ele>1226.415</ele>
      <time>2021-10-12T16:31:29Z</time>
    </trkpt>
    <trkpt lat="38.567189975" lon="34.913106998">
      <ele>1226.538</ele>
      <time>2021-10-12T16:31:30Z</time>
    </trkpt>
    <trkpt lat="38.567166002" lon="34.91310901">
      <ele>1226.673</ele>
      <time>2021-10-12T16:31:31Z</time>
    </trkpt>
    <trkpt lat="38.567143036" lon="34.913110016">
      <ele>1226.795</ele>
      <time>2021-10-12T16:31:32Z</time>
    </trkpt>
    <trkpt lat="38.567120992" lon="34.91310901">
      <ele>1226.903</ele>
      <time>2021-10-12T16:31:33Z</time>
    </trkpt>
    <trkpt lat="38.567100959" lon="34.913112028">
      <ele>1227.013</ele>
      <time>2021-10-12T16:31:33Z</time>
    </trkpt>
    <trkpt lat="38.56708101" lon="34.913110016">
      <ele>1227.11</ele>
      <time>2021-10-12T16:31:34Z</time>
    </trkpt>
    <trkpt lat="38.56705402" lon="34.91310901">
      <ele>1227.246</ele>
      <time>2021-10-12T16:31:35Z</time>
    </trkpt>
    <trkpt lat="38.566957042" lon="34.913113033">
      <ele>1227.731</ele>
      <time>2021-10-12T16:31:39Z</time>
    </trkpt>
    <trkpt lat="38.566919994" lon="34.913091995">
      <ele>1228.033</ele>
      <time>2021-10-12T16:31:40Z</time>
    </trkpt>
    <trkpt lat="38.566901973" lon="34.913080009">
      <ele>1228.204</ele>
      <time>2021-10-12T16:31:41Z</time>
    </trkpt>
    <trkpt lat="38.566871965" lon="34.91303701">
      <ele>1228.473</ele>
      <time>2021-10-12T16:31:43Z</time>
    </trkpt>
    <trkpt lat="38.566855034" lon="34.912997028">
      <ele>1228.501</ele>
      <time>2021-10-12T16:31:44Z</time>
    </trkpt>
    <trkpt lat="38.566841036" lon="34.912971966">
      <ele>1228.556</ele>
      <time>2021-10-12T16:31:45Z</time>
    </trkpt>
    <trkpt lat="38.56682796" lon="34.912946988">
      <ele>1228.612</ele>
      <time>2021-10-12T16:31:46Z</time>
    </trkpt>
    <trkpt lat="38.566821003" lon="34.912924021">
      <ele>1228.626</ele>
      <time>2021-10-12T16:31:47Z</time>
    </trkpt>
    <trkpt lat="38.566810023" lon="34.91289502">
      <ele>1228.67</ele>
      <time>2021-10-12T16:31:47Z</time>
    </trkpt>
    <trkpt lat="38.566798037" lon="34.91286803">
      <ele>1228.735</ele>
      <time>2021-10-12T16:31:48Z</time>
    </trkpt>
    <trkpt lat="38.56678999" lon="34.91284498">
      <ele>1228.776</ele>
      <time>2021-10-12T16:31:49Z</time>
    </trkpt>
    <trkpt lat="38.566778004" lon="34.912826959">
      <ele>1228.869</ele>
      <time>2021-10-12T16:31:50Z</time>
    </trkpt>
    <trkpt lat="38.56676803" lon="34.91280701">
      <ele>1228.944</ele>
      <time>2021-10-12T16:31:50Z</time>
    </trkpt>
    <trkpt lat="38.566751014" lon="34.912771974">
      <ele>1229.047</ele>
      <time>2021-10-12T16:31:52Z</time>
    </trkpt>
    <trkpt lat="38.566718996" lon="34.91275697">
      <ele>1229.285</ele>
      <time>2021-10-12T16:31:53Z</time>
    </trkpt>
    <trkpt lat="38.566687983" lon="34.912740961">
      <ele>1229.505</ele>
      <time>2021-10-12T16:31:54Z</time>
    </trkpt>
    <trkpt lat="38.56665303" lon="34.912731992">
      <ele>1229.736</ele>
      <time>2021-10-12T16:31:55Z</time>
    </trkpt>
    <trkpt lat="38.566634003" lon="34.91272998">
      <ele>1229.814</ele>
      <time>2021-10-12T16:31:56Z</time>
    </trkpt>
    <trkpt lat="38.566615982" lon="34.912731992">
      <ele>1229.913</ele>
      <time>2021-10-12T16:31:57Z</time>
    </trkpt>
    <trkpt lat="38.566582035" lon="34.912734004">
      <ele>1230.086</ele>
      <time>2021-10-12T16:31:58Z</time>
    </trkpt>
    <trkpt lat="38.566545993" lon="34.912734004">
      <ele>1230.256</ele>
      <time>2021-10-12T16:31:59Z</time>
    </trkpt>
    <trkpt lat="38.566523027" lon="34.912739033">
      <ele>1230.382</ele>
      <time>2021-10-12T16:32:00Z</time>
    </trkpt>
    <trkpt lat="38.566500982" lon="34.912738027">
      <ele>1230.481</ele>
      <time>2021-10-12T16:32:01Z</time>
    </trkpt>
    <trkpt lat="38.56647701" lon="34.912736015">
      <ele>1230.587</ele>
      <time>2021-10-12T16:32:02Z</time>
    </trkpt>
    <trkpt lat="38.566452032" lon="34.912737021">
      <ele>1230.706</ele>
      <time>2021-10-12T16:32:03Z</time>
    </trkpt>
    <trkpt lat="38.566429988" lon="34.912738027">
      <ele>1230.81</ele>
      <time>2021-10-12T16:32:04Z</time>
    </trkpt>
    <trkpt lat="38.566406015" lon="34.912738027">
      <ele>1230.921</ele>
      <time>2021-10-12T16:32:05Z</time>
    </trkpt>
    <trkpt lat="38.566381037" lon="34.912734004">
      <ele>1231.004</ele>
      <time>2021-10-12T16:32:06Z</time>
    </trkpt>
    <trkpt lat="38.566355975" lon="34.91272998">
      <ele>1231.02</ele>
      <time>2021-10-12T16:32:06Z</time>
    </trkpt>
    <trkpt lat="38.566328986" lon="34.912726041">
      <ele>1231.04</ele>
      <time>2021-10-12T16:32:07Z</time>
    </trkpt>
    <trkpt lat="38.566301996" lon="34.912721012">
      <ele>1231.064</ele>
      <time>2021-10-12T16:32:09Z</time>
    </trkpt>
    <trkpt lat="38.566275006" lon="34.912715983">
      <ele>1231.091</ele>
      <time>2021-10-12T16:32:10Z</time>
    </trkpt>
    <trkpt lat="38.566250028" lon="34.912711037">
      <ele>1231.12</ele>
      <time>2021-10-12T16:32:10Z</time>
    </trkpt>
    <trkpt lat="38.566225972" lon="34.912707014">
      <ele>1231.149</ele>
      <time>2021-10-12T16:32:11Z</time>
    </trkpt>
    <trkpt lat="38.566203006" lon="34.912700979">
      <ele>1231.185</ele>
      <time>2021-10-12T16:32:12Z</time>
    </trkpt>
    <trkpt lat="38.566180961" lon="34.912696034">
      <ele>1231.22</ele>
      <time>2021-10-12T16:32:13Z</time>
    </trkpt>
    <trkpt lat="38.566157995" lon="34.91269201">
      <ele>1231.257</ele>
      <time>2021-10-12T16:32:14Z</time>
    </trkpt>
    <trkpt lat="38.566136034" lon="34.912685975">
      <ele>1231.301</ele>
      <time>2021-10-12T16:32:15Z</time>
    </trkpt>
    <trkpt lat="38.566110972" lon="34.91268497">
      <ele>1231.334</ele>
      <time>2021-10-12T16:32:16Z</time>
    </trkpt>
    <trkpt lat="38.566085994" lon="34.912683964">
      <ele>1231.308</ele>
      <time>2021-10-12T16:32:17Z</time>
    </trkpt>
    <trkpt lat="38.566062022" lon="34.912687987">
      <ele>1231.261</ele>
      <time>2021-10-12T16:32:17Z</time>
    </trkpt>
    <trkpt lat="38.56603696" lon="34.912689999">
      <ele>1231.218</ele>
      <time>2021-10-12T16:32:18Z</time>
    </trkpt>
    <trkpt lat="38.566013994" lon="34.912694022">
      <ele>1231.163</ele>
      <time>2021-10-12T16:32:19Z</time>
    </trkpt>
    <trkpt lat="38.565991027" lon="34.91269704">
      <ele>1231.11</ele>
      <time>2021-10-12T16:32:20Z</time>
    </trkpt>
    <trkpt lat="38.565966971" lon="34.912702991">
      <ele>1231.03</ele>
      <time>2021-10-12T16:32:21Z</time>
    </trkpt>
    <trkpt lat="38.565946016" lon="34.912711037">
      <ele>1230.932</ele>
      <time>2021-10-12T16:32:22Z</time>
    </trkpt>
    <trkpt lat="38.565923972" lon="34.912717994">
      <ele>1230.832</ele>
      <time>2021-10-12T16:32:23Z</time>
    </trkpt>
    <trkpt lat="38.565903017" lon="34.912724029">
      <ele>1230.734</ele>
      <time>2021-10-12T16:32:23Z</time>
    </trkpt>
    <trkpt lat="38.565880973" lon="34.912730986">
      <ele>1230.619</ele>
      <time>2021-10-12T16:32:24Z</time>
    </trkpt>
    <trkpt lat="38.565854989" lon="34.91273501">
      <ele>1230.516</ele>
      <time>2021-10-12T16:32:25Z</time>
    </trkpt>
    <trkpt lat="38.565833028" lon="34.912731992">
      <ele>1230.498</ele>
      <time>2021-10-12T16:32:26Z</time>
    </trkpt>
    <trkpt lat="38.56581199" lon="34.912727969">
      <ele>1230.755</ele>
      <time>2021-10-12T16:32:27Z</time>
    </trkpt>
    <trkpt lat="38.565793969" lon="34.912723023">
      <ele>1230.989</ele>
      <time>2021-10-12T16:32:28Z</time>
    </trkpt>
    <trkpt lat="38.565777037" lon="34.912712965">
      <ele>1231.261</ele>
      <time>2021-10-12T16:32:28Z</time>
    </trkpt>
    <trkpt lat="38.56576304" lon="34.912697962">
      <ele>1231.548</ele>
      <time>2021-10-12T16:32:29Z</time>
    </trkpt>
    <trkpt lat="38.565736972" lon="34.912667032">
      <ele>1232.098</ele>
      <time>2021-10-12T16:32:30Z</time>
    </trkpt>
    <trkpt lat="38.565715011" lon="34.912634008">
      <ele>1232.61</ele>
      <time>2021-10-12T16:32:32Z</time>
    </trkpt>
    <trkpt lat="38.565690033" lon="34.912602995">
      <ele>1233.111</ele>
      <time>2021-10-12T16:32:33Z</time>
    </trkpt>
    <trkpt lat="38.565676035" lon="34.912583968">
      <ele>1233.397</ele>
      <time>2021-10-12T16:32:34Z</time>
    </trkpt>
    <trkpt lat="38.565662038" lon="34.912561001">
      <ele>1233.71</ele>
      <time>2021-10-12T16:32:34Z</time>
    </trkpt>
    <trkpt lat="38.565650973" lon="34.91254298">
      <ele>1233.95</ele>
      <time>2021-10-12T16:32:35Z</time>
    </trkpt>
    <trkpt lat="38.565634964" lon="34.91250501">
      <ele>1234.387</ele>
      <time>2021-10-12T16:32:36Z</time>
    </trkpt>
    <trkpt lat="38.565623984" lon="34.912483972">
      <ele>1234.637</ele>
      <time>2021-10-12T16:32:37Z</time>
    </trkpt>
    <trkpt lat="38.565614009" lon="34.912456982">
      <ele>1234.921</ele>
      <time>2021-10-12T16:32:38Z</time>
    </trkpt>
    <trkpt lat="38.565604035" lon="34.912434015">
      <ele>1235.167</ele>
      <time>2021-10-12T16:32:39Z</time>
    </trkpt>
    <trkpt lat="38.565593977" lon="34.912412977">
      <ele>1235.393</ele>
      <time>2021-10-12T16:32:39Z</time>
    </trkpt>
    <trkpt lat="38.565582996" lon="34.912393028">
      <ele>1235.611</ele>
      <time>2021-10-12T16:32:40Z</time>
    </trkpt>
    <trkpt lat="38.56557101" lon="34.912371989">
      <ele>1235.836</ele>
      <time>2021-10-12T16:32:41Z</time>
    </trkpt>
    <trkpt lat="38.565555001" lon="34.912356986">
      <ele>1236.036</ele>
      <time>2021-10-12T16:32:42Z</time>
    </trkpt>
    <trkpt lat="38.565541003" lon="34.912337037">
      <ele>1236.321</ele>
      <time>2021-10-12T16:32:42Z</time>
    </trkpt>
    <trkpt lat="38.565524993" lon="34.912313987">
      <ele>1236.632</ele>
      <time>2021-10-12T16:32:43Z</time>
    </trkpt>
    <trkpt lat="38.565508984" lon="34.91229496">
      <ele>1236.899</ele>
      <time>2021-10-12T16:32:44Z</time>
    </trkpt>
    <trkpt lat="38.565490041" lon="34.912274005">
      <ele>1237.187</ele>
      <time>2021-10-12T16:32:45Z</time>
    </trkpt>
    <trkpt lat="38.565474031" lon="34.91225196">
      <ele>1237.436</ele>
      <time>2021-10-12T16:32:46Z</time>
    </trkpt>
    <trkpt lat="38.56545601" lon="34.912223965">
      <ele>1237.709</ele>
      <time>2021-10-12T16:32:47Z</time>
    </trkpt>
    <trkpt lat="38.565444024" lon="34.912195969">
      <ele>1237.784</ele>
      <time>2021-10-12T16:32:48Z</time>
    </trkpt>
    <trkpt lat="38.565432038" lon="34.912170991">
      <ele>1237.828</ele>
      <time>2021-10-12T16:32:49Z</time>
    </trkpt>
    <trkpt lat="38.56541804" lon="34.912151964">
      <ele>1237.867</ele>
      <time>2021-10-12T16:32:49Z</time>
    </trkpt>
    <trkpt lat="38.565403037" lon="34.912127992">
      <ele>1237.879</ele>
      <time>2021-10-12T16:32:50Z</time>
    </trkpt>
    <trkpt lat="38.565388033" lon="34.912105026">
      <ele>1237.865</ele>
      <time>2021-10-12T16:32:51Z</time>
    </trkpt>
    <trkpt lat="38.565375041" lon="34.912078036">
      <ele>1237.807</ele>
      <time>2021-10-12T16:32:52Z</time>
    </trkpt>
    <trkpt lat="38.565363977" lon="34.912045011">
      <ele>1237.697</ele>
      <time>2021-10-12T16:32:53Z</time>
    </trkpt>
    <trkpt lat="38.565350985" lon="34.912010981">
      <ele>1237.553</ele>
      <time>2021-10-12T16:32:54Z</time>
    </trkpt>
    <trkpt lat="38.56534604" lon="34.911976028">
      <ele>1237.389</ele>
      <time>2021-10-12T16:32:55Z</time>
    </trkpt>
    <trkpt lat="38.565342017" lon="34.911939986">
      <ele>1237.199</ele>
      <time>2021-10-12T16:32:56Z</time>
    </trkpt>
    <trkpt lat="38.565335982" lon="34.911906039">
      <ele>1236.933</ele>
      <time>2021-10-12T16:32:57Z</time>
    </trkpt>
    <trkpt lat="38.565326007" lon="34.911869997">
      <ele>1236.638</ele>
      <time>2021-10-12T16:32:58Z</time>
    </trkpt>
    <trkpt lat="38.56531796" lon="34.911840996">
      <ele>1236.4</ele>
      <time>2021-10-12T16:32:59Z</time>
    </trkpt>
    <trkpt lat="38.565309998" lon="34.911805959">
      <ele>1236.119</ele>
      <time>2021-10-12T16:33:00Z</time>
    </trkpt>
    <trkpt lat="38.565303041" lon="34.911768995">
      <ele>1235.828</ele>
      <time>2021-10-12T16:33:02Z</time>
    </trkpt>
    <trkpt lat="38.565303963" lon="34.911733037">
      <ele>1235.572</ele>
      <time>2021-10-12T16:33:03Z</time>
    </trkpt>
    <trkpt lat="38.565303963" lon="34.911696995">
      <ele>1235.313</ele>
      <time>2021-10-12T16:33:04Z</time>
    </trkpt>
    <trkpt lat="38.565309998" lon="34.911659025">
      <ele>1235.061</ele>
      <time>2021-10-12T16:33:05Z</time>
    </trkpt>
    <trkpt lat="38.565321984" lon="34.911619965">
      <ele>1234.823</ele>
      <time>2021-10-12T16:33:06Z</time>
    </trkpt>
    <trkpt lat="38.565335982" lon="34.911584007">
      <ele>1234.614</ele>
      <time>2021-10-12T16:33:07Z</time>
    </trkpt>
    <trkpt lat="38.565352997" lon="34.91154897">
      <ele>1234.423</ele>
      <time>2021-10-12T16:33:08Z</time>
    </trkpt>
    <trkpt lat="38.565372024" lon="34.911517035">
      <ele>1234.262</ele>
      <time>2021-10-12T16:33:10Z</time>
    </trkpt>
    <trkpt lat="38.565389961" lon="34.911486022">
      <ele>1234.103</ele>
      <time>2021-10-12T16:33:11Z</time>
    </trkpt>
    <trkpt lat="38.565404965" lon="34.911451992">
      <ele>1233.912</ele>
      <time>2021-10-12T16:33:12Z</time>
    </trkpt>
    <trkpt lat="38.565411" lon="34.911416033">
      <ele>1233.675</ele>
      <time>2021-10-12T16:33:13Z</time>
    </trkpt>
    <trkpt lat="38.565409994" lon="34.911377979">
      <ele>1233.439</ele>
      <time>2021-10-12T16:33:14Z</time>
    </trkpt>
    <trkpt lat="38.565395996" lon="34.91133498">
      <ele>1233.26</ele>
      <time>2021-10-12T16:33:15Z</time>
    </trkpt>
    <trkpt lat="38.565388033" lon="34.911294999">
      <ele>1233.129</ele>
      <time>2021-10-12T16:33:16Z</time>
    </trkpt>
    <trkpt lat="38.565386022" lon="34.911249988">
      <ele>1233.0</ele>
      <time>2021-10-12T16:33:18Z</time>
    </trkpt>
    <trkpt lat="38.56538401" lon="34.911206989">
      <ele>1232.882</ele>
      <time>2021-10-12T16:33:19Z</time>
    </trkpt>
    <trkpt lat="38.565380992" lon="34.911168013">
      <ele>1232.781</ele>
      <time>2021-10-12T16:33:20Z</time>
    </trkpt>
    <trkpt lat="38.565381998" lon="34.911131971">
      <ele>1232.681</ele>
      <time>2021-10-12T16:33:21Z</time>
    </trkpt>
    <trkpt lat="38.565379987" lon="34.911095006">
      <ele>1232.611</ele>
      <time>2021-10-12T16:33:22Z</time>
    </trkpt>
    <trkpt lat="38.565378981" lon="34.911061982">
      <ele>1232.571</ele>
      <time>2021-10-12T16:33:23Z</time>
    </trkpt>
    <trkpt lat="38.565377975" lon="34.911024012">
      <ele>1232.526</ele>
      <time>2021-10-12T16:33:24Z</time>
    </trkpt>
    <trkpt lat="38.565370012" lon="34.910989981">
      <ele>1232.523</ele>
      <time>2021-10-12T16:33:25Z</time>
    </trkpt>
    <trkpt lat="38.565365989" lon="34.910953017">
      <ele>1232.502</ele>
      <time>2021-10-12T16:33:27Z</time>
    </trkpt>
    <trkpt lat="38.56536096" lon="34.910913035">
      <ele>1232.487</ele>
      <time>2021-10-12T16:33:28Z</time>
    </trkpt>
    <trkpt lat="38.56535702" lon="34.910875987">
      <ele>1232.473</ele>
      <time>2021-10-12T16:33:29Z</time>
    </trkpt>
    <trkpt lat="38.565350985" lon="34.910838017">
      <ele>1232.477</ele>
      <time>2021-10-12T16:33:30Z</time>
    </trkpt>
    <trkpt lat="38.565346962" lon="34.910799041">
      <ele>1232.502</ele>
      <time>2021-10-12T16:33:31Z</time>
    </trkpt>
    <trkpt lat="38.565345034" lon="34.910759982">
      <ele>1232.516</ele>
      <time>2021-10-12T16:33:32Z</time>
    </trkpt>
    <trkpt lat="38.565344028" lon="34.910722012">
      <ele>1232.523</ele>
      <time>2021-10-12T16:33:33Z</time>
    </trkpt>
    <trkpt lat="38.565346962" lon="34.91068597">
      <ele>1232.502</ele>
      <time>2021-10-12T16:33:34Z</time>
    </trkpt>
    <trkpt lat="38.565351991" lon="34.910647999">
      <ele>1232.466</ele>
      <time>2021-10-12T16:33:35Z</time>
    </trkpt>
    <trkpt lat="38.565360038" lon="34.910612963">
      <ele>1232.408</ele>
      <time>2021-10-12T16:33:37Z</time>
    </trkpt>
    <trkpt lat="38.565366995" lon="34.910584968">
      <ele>1232.358</ele>
      <time>2021-10-12T16:33:37Z</time>
    </trkpt>
    <trkpt lat="38.565376969" lon="34.910552027">
      <ele>1232.303</ele>
      <time>2021-10-12T16:33:38Z</time>
    </trkpt>
    <trkpt lat="38.565378981" lon="34.910522019">
      <ele>1232.436</ele>
      <time>2021-10-12T16:33:39Z</time>
    </trkpt>
    <trkpt lat="38.565377975" lon="34.91049503">
      <ele>1232.575</ele>
      <time>2021-10-12T16:33:40Z</time>
    </trkpt>
    <trkpt lat="38.565368" lon="34.91047198">
      <ele>1232.749</ele>
      <time>2021-10-12T16:33:41Z</time>
    </trkpt>
    <trkpt lat="38.565351991" lon="34.910453036">
      <ele>1232.933</ele>
      <time>2021-10-12T16:33:42Z</time>
    </trkpt>
    <trkpt lat="38.565332964" lon="34.910441972">
      <ele>1233.093</ele>
      <time>2021-10-12T16:33:42Z</time>
    </trkpt>
    <trkpt lat="38.565235985" lon="34.910510033">
      <ele>1233.038</ele>
      <time>2021-10-12T16:33:46Z</time>
    </trkpt>
    <trkpt lat="38.565210002" lon="34.910535011">
      <ele>1232.848</ele>
      <time>2021-10-12T16:33:48Z</time>
    </trkpt>
    <trkpt lat="38.565182006" lon="34.910565019">
      <ele>1232.655</ele>
      <time>2021-10-12T16:33:49Z</time>
    </trkpt>
    <trkpt lat="38.56515401" lon="34.91059402">
      <ele>1232.554</ele>
      <time>2021-10-12T16:33:50Z</time>
    </trkpt>
    <trkpt lat="38.56513096" lon="34.910626039">
      <ele>1232.471</ele>
      <time>2021-10-12T16:33:52Z</time>
    </trkpt>
    <trkpt lat="38.565105982" lon="34.910657974">
      <ele>1232.382</ele>
      <time>2021-10-12T16:33:53Z</time>
    </trkpt>
    <trkpt lat="38.565077987" lon="34.910695022">
      <ele>1232.281</ele>
      <time>2021-10-12T16:33:54Z</time>
    </trkpt>
    <trkpt lat="38.56505502" lon="34.910728969">
      <ele>1232.198</ele>
      <time>2021-10-12T16:33:56Z</time>
    </trkpt>
    <trkpt lat="38.565029036" lon="34.910764005">
      <ele>1232.105</ele>
      <time>2021-10-12T16:33:57Z</time>
    </trkpt>
    <trkpt lat="38.565005986" lon="34.91079703">
      <ele>1232.022</ele>
      <time>2021-10-12T16:33:58Z</time>
    </trkpt>
    <trkpt lat="38.564982014" lon="34.910826031">
      <ele>1231.937</ele>
      <time>2021-10-12T16:34:00Z</time>
    </trkpt>
    <trkpt lat="38.564954018" lon="34.910853021">
      <ele>1231.823</ele>
      <time>2021-10-12T16:34:01Z</time>
    </trkpt>
    <trkpt lat="38.564927028" lon="34.910877999">
      <ele>1231.695</ele>
      <time>2021-10-12T16:34:02Z</time>
    </trkpt>
    <trkpt lat="38.564897021" lon="34.910899037">
      <ele>1231.542</ele>
      <time>2021-10-12T16:34:03Z</time>
    </trkpt>
    <trkpt lat="38.564869026" lon="34.910918986">
      <ele>1231.383</ele>
      <time>2021-10-12T16:34:05Z</time>
    </trkpt>
    <trkpt lat="38.56484103" lon="34.910939019">
      <ele>1231.21</ele>
      <time>2021-10-12T16:34:06Z</time>
    </trkpt>
    <trkpt lat="38.564810017" lon="34.910966009">
      <ele>1230.989</ele>
      <time>2021-10-12T16:34:07Z</time>
    </trkpt>
    <trkpt lat="38.564777998" lon="34.910998028">
      <ele>1230.727</ele>
      <time>2021-10-12T16:34:09Z</time>
    </trkpt>
    <trkpt lat="38.564752014" lon="34.911023006">
      <ele>1230.498</ele>
      <time>2021-10-12T16:34:10Z</time>
    </trkpt>
    <trkpt lat="38.564722007" lon="34.911055025">
      <ele>1230.202</ele>
      <time>2021-10-12T16:34:11Z</time>
    </trkpt>
    <trkpt lat="38.564696023" lon="34.91108302">
      <ele>1230.101</ele>
      <time>2021-10-12T16:34:13Z</time>
    </trkpt>
    <trkpt lat="38.564666016" lon="34.911114033">
      <ele>1229.998</ele>
      <time>2021-10-12T16:34:14Z</time>
    </trkpt>
    <trkpt lat="38.56463802" lon="34.911142029">
      <ele>1229.966</ele>
      <time>2021-10-12T16:34:15Z</time>
    </trkpt>
    <trkpt lat="38.564609019" lon="34.91117103">
      <ele>1229.912</ele>
      <time>2021-10-12T16:34:17Z</time>
    </trkpt>
    <trkpt lat="38.564580018" lon="34.911201959">
      <ele>1229.833</ele>
      <time>2021-10-12T16:34:18Z</time>
    </trkpt>
    <trkpt lat="38.564556967" lon="34.911232973">
      <ele>1229.739</ele>
      <time>2021-10-12T16:34:19Z</time>
    </trkpt>
    <trkpt lat="38.564532995" lon="34.911260968">
      <ele>1229.632</ele>
      <time>2021-10-12T16:34:21Z</time>
    </trkpt>
    <trkpt lat="38.564508017" lon="34.911289969">
      <ele>1229.503</ele>
      <time>2021-10-12T16:34:22Z</time>
    </trkpt>
    <trkpt lat="38.564486979" lon="34.911319977">
      <ele>1229.363</ele>
      <time>2021-10-12T16:34:23Z</time>
    </trkpt>
    <trkpt lat="38.564464012" lon="34.911354007">
      <ele>1229.187</ele>
      <time>2021-10-12T16:34:24Z</time>
    </trkpt>
    <trkpt lat="38.564440962" lon="34.911384014">
      <ele>1229.018</ele>
      <time>2021-10-12T16:34:26Z</time>
    </trkpt>
    <trkpt lat="38.564417996" lon="34.911415027">
      <ele>1229.161</ele>
      <time>2021-10-12T16:34:27Z</time>
    </trkpt>
    <trkpt lat="38.564391006" lon="34.911448974">
      <ele>1229.308</ele>
      <time>2021-10-12T16:34:28Z</time>
    </trkpt>
    <trkpt lat="38.564364016" lon="34.911480993">
      <ele>1229.375</ele>
      <time>2021-10-12T16:34:30Z</time>
    </trkpt>
    <trkpt lat="38.564338032" lon="34.911509994">
      <ele>1229.371</ele>
      <time>2021-10-12T16:34:31Z</time>
    </trkpt>
    <trkpt lat="38.56431297" lon="34.91153799">
      <ele>1229.311</ele>
      <time>2021-10-12T16:34:32Z</time>
    </trkpt>
    <trkpt lat="38.564290004" lon="34.911562968">
      <ele>1229.208</ele>
      <time>2021-10-12T16:34:33Z</time>
    </trkpt>
    <trkpt lat="38.564263014" lon="34.911586018">
      <ele>1229.029</ele>
      <time>2021-10-12T16:34:34Z</time>
    </trkpt>
    <trkpt lat="38.564236024" lon="34.911605967">
      <ele>1228.804</ele>
      <time>2021-10-12T16:34:36Z</time>
    </trkpt>
    <trkpt lat="38.564208029" lon="34.911627006">
      <ele>1228.526</ele>
      <time>2021-10-12T16:34:37Z</time>
    </trkpt>
    <trkpt lat="38.564177016" lon="34.911649972">
      <ele>1228.165</ele>
      <time>2021-10-12T16:34:38Z</time>
    </trkpt>
    <trkpt lat="38.564148014" lon="34.911674028">
      <ele>1227.82</ele>
      <time>2021-10-12T16:34:39Z</time>
    </trkpt>
    <trkpt lat="38.564115996" lon="34.911696995">
      <ele>1227.502</ele>
      <time>2021-10-12T16:34:41Z</time>
    </trkpt>
    <trkpt lat="38.564083977" lon="34.911720967">
      <ele>1227.128</ele>
      <time>2021-10-12T16:34:42Z</time>
    </trkpt>
    <trkpt lat="38.564052964" lon="34.911743011">
      <ele>1226.709</ele>
      <time>2021-10-12T16:34:43Z</time>
    </trkpt>
    <trkpt lat="38.56402304" lon="34.911767989">
      <ele>1226.248</ele>
      <time>2021-10-12T16:34:45Z</time>
    </trkpt>
    <trkpt lat="38.563994039" lon="34.91179104">
      <ele>1225.749</ele>
      <time>2021-10-12T16:34:46Z</time>
    </trkpt>
    <trkpt lat="38.563961014" lon="34.911815012">
      <ele>1225.127</ele>
      <time>2021-10-12T16:34:47Z</time>
    </trkpt>
    <trkpt lat="38.563925978" lon="34.911838984">
      <ele>1224.408</ele>
      <time>2021-10-12T16:34:49Z</time>
    </trkpt>
    <trkpt lat="38.563893959" lon="34.911860023">
      <ele>1223.701</ele>
      <time>2021-10-12T16:34:50Z</time>
    </trkpt>
    <trkpt lat="38.563865041" lon="34.911879972">
      <ele>1223.141</ele>
      <time>2021-10-12T16:34:51Z</time>
    </trkpt>
    <trkpt lat="38.563837968" lon="34.911893969">
      <ele>1222.663</ele>
      <time>2021-10-12T16:34:52Z</time>
    </trkpt>
    <trkpt lat="38.563809972" lon="34.911912996">
      <ele>1222.122</ele>
      <time>2021-10-12T16:34:54Z</time>
    </trkpt>
    <trkpt lat="38.563781977" lon="34.911935963">
      <ele>1221.533</ele>
      <time>2021-10-12T16:34:55Z</time>
    </trkpt>
    <trkpt lat="38.563758004" lon="34.911959013">
      <ele>1221.013</ele>
      <time>2021-10-12T16:34:56Z</time>
    </trkpt>
    <trkpt lat="38.563731015" lon="34.911983991">
      <ele>1220.422</ele>
      <time>2021-10-12T16:34:57Z</time>
    </trkpt>
    <trkpt lat="38.563707964" lon="34.912012992">
      <ele>1219.826</ele>
      <time>2021-10-12T16:34:58Z</time>
    </trkpt>
    <trkpt lat="38.563681981" lon="34.912040988">
      <ele>1219.155</ele>
      <time>2021-10-12T16:35:00Z</time>
    </trkpt>
    <trkpt lat="38.56366002" lon="34.912066972">
      <ele>1218.536</ele>
      <time>2021-10-12T16:35:01Z</time>
    </trkpt>
    <trkpt lat="38.563640993" lon="34.912091028">
      <ele>1217.961</ele>
      <time>2021-10-12T16:35:02Z</time>
    </trkpt>
    <trkpt lat="38.563622972" lon="34.912117012">
      <ele>1217.36</ele>
      <time>2021-10-12T16:35:03Z</time>
    </trkpt>
    <trkpt lat="38.563606041" lon="34.912142996">
      <ele>1216.788</ele>
      <time>2021-10-12T16:35:04Z</time>
    </trkpt>
    <trkpt lat="38.563590031" lon="34.912175015">
      <ele>1216.219</ele>
      <time>2021-10-12T16:35:05Z</time>
    </trkpt>
    <trkpt lat="38.563575028" lon="34.912211979">
      <ele>1215.596</ele>
      <time>2021-10-12T16:35:06Z</time>
    </trkpt>
    <trkpt lat="38.563560024" lon="34.912253972">
      <ele>1215.15</ele>
      <time>2021-10-12T16:35:07Z</time>
    </trkpt>
    <trkpt lat="38.563546026" lon="34.912294038">
      <ele>1214.804</ele>
      <time>2021-10-12T16:35:09Z</time>
    </trkpt>
    <trkpt lat="38.563533034" lon="34.912337959">
      <ele>1214.459</ele>
      <time>2021-10-12T16:35:10Z</time>
    </trkpt>
    <trkpt lat="38.563505039" lon="34.912465028">
      <ele>1213.598</ele>
      <time>2021-10-12T16:35:14Z</time>
    </trkpt>
    <trkpt lat="38.563503027" lon="34.91250501">
      <ele>1213.426</ele>
      <time>2021-10-12T16:35:15Z</time>
    </trkpt>
    <trkpt lat="38.56349498" lon="34.912548009">
      <ele>1213.155</ele>
      <time>2021-10-12T16:35:16Z</time>
    </trkpt>
    <trkpt lat="38.563488023" lon="34.912591008">
      <ele>1212.9</ele>
      <time>2021-10-12T16:35:18Z</time>
    </trkpt>
    <trkpt lat="38.563486012" lon="34.912631996">
      <ele>1212.723</ele>
      <time>2021-10-12T16:35:19Z</time>
    </trkpt>
    <trkpt lat="38.563478971" lon="34.912670972">
      <ele>1212.482</ele>
      <time>2021-10-12T16:35:20Z</time>
    </trkpt>
    <trkpt lat="38.563468996" lon="34.912710031">
      <ele>1212.197</ele>
      <time>2021-10-12T16:35:21Z</time>
    </trkpt>
    <trkpt lat="38.563461034" lon="34.912751019">
      <ele>1211.935</ele>
      <time>2021-10-12T16:35:22Z</time>
    </trkpt>
    <trkpt lat="38.563439995" lon="34.912792007">
      <ele>1211.504</ele>
      <time>2021-10-12T16:35:24Z</time>
    </trkpt>
    <trkpt lat="38.56342298" lon="34.912828971">
      <ele>1211.166</ele>
      <time>2021-10-12T16:35:25Z</time>
    </trkpt>
    <trkpt lat="38.563407976" lon="34.912861995">
      <ele>1210.853</ele>
      <time>2021-10-12T16:35:26Z</time>
    </trkpt>
    <trkpt lat="38.563390039" lon="34.912896026">
      <ele>1210.478</ele>
      <time>2021-10-12T16:35:27Z</time>
    </trkpt>
    <trkpt lat="38.563369" lon="34.91293299">
      <ele>1210.027</ele>
      <time>2021-10-12T16:35:29Z</time>
    </trkpt>
    <trkpt lat="38.563348968" lon="34.912965009">
      <ele>1209.589</ele>
      <time>2021-10-12T16:35:30Z</time>
    </trkpt>
    <trkpt lat="38.56333103" lon="34.912999962">
      <ele>1209.175</ele>
      <time>2021-10-12T16:35:31Z</time>
    </trkpt>
    <trkpt lat="38.563310998" lon="34.913038015">
      <ele>1208.822</ele>
      <time>2021-10-12T16:35:32Z</time>
    </trkpt>
    <trkpt lat="38.563289959" lon="34.913073974">
      <ele>1208.532</ele>
      <time>2021-10-12T16:35:34Z</time>
    </trkpt>
    <trkpt lat="38.56327001" lon="34.913108004">
      <ele>1208.316</ele>
      <time>2021-10-12T16:35:35Z</time>
    </trkpt>
    <trkpt lat="38.563248971" lon="34.913143963">
      <ele>1208.089</ele>
      <time>2021-10-12T16:35:36Z</time>
    </trkpt>
    <trkpt lat="38.563230028" lon="34.913181011">
      <ele>1207.884</ele>
      <time>2021-10-12T16:35:38Z</time>
    </trkpt>
    <trkpt lat="38.563209996" lon="34.913215963">
      <ele>1207.668</ele>
      <time>2021-10-12T16:35:39Z</time>
    </trkpt>
    <trkpt lat="38.563188035" lon="34.913248988">
      <ele>1207.431</ele>
      <time>2021-10-12T16:35:40Z</time>
    </trkpt>
    <trkpt lat="38.563160961" lon="34.913286036">
      <ele>1207.138</ele>
      <time>2021-10-12T16:35:42Z</time>
    </trkpt>
    <trkpt lat="38.563135983" lon="34.913323">
      <ele>1206.869</ele>
      <time>2021-10-12T16:35:43Z</time>
    </trkpt>
    <trkpt lat="38.563112011" lon="34.913356025">
      <ele>1206.658</ele>
      <time>2021-10-12T16:35:44Z</time>
    </trkpt>
    <trkpt lat="38.563088039" lon="34.913389971">
      <ele>1206.507</ele>
      <time>2021-10-12T16:35:46Z</time>
    </trkpt>
    <trkpt lat="38.563063983" lon="34.913425008">
      <ele>1206.401</ele>
      <time>2021-10-12T16:35:47Z</time>
    </trkpt>
    <trkpt lat="38.563050991" lon="34.913456021">
      <ele>1206.402</ele>
      <time>2021-10-12T16:35:48Z</time>
    </trkpt>
    <trkpt lat="38.563036993" lon="34.913489968">
      <ele>1206.393</ele>
      <time>2021-10-12T16:35:49Z</time>
    </trkpt>
    <trkpt lat="38.56302199" lon="34.913523998">
      <ele>1206.362</ele>
      <time>2021-10-12T16:35:50Z</time>
    </trkpt>
    <trkpt lat="38.563002041" lon="34.913559034">
      <ele>1206.271</ele>
      <time>2021-10-12T16:35:51Z</time>
    </trkpt>
    <trkpt lat="38.562979996" lon="34.913597004">
      <ele>1206.147</ele>
      <time>2021-10-12T16:35:53Z</time>
    </trkpt>
    <trkpt lat="38.562959041" lon="34.913633969">
      <ele>1205.875</ele>
      <time>2021-10-12T16:35:54Z</time>
    </trkpt>
    <trkpt lat="38.562939009" lon="34.913669005">
      <ele>1205.533</ele>
      <time>2021-10-12T16:35:55Z</time>
    </trkpt>
    <trkpt lat="38.562916964" lon="34.913707981">
      <ele>1205.154</ele>
      <time>2021-10-12T16:35:57Z</time>
    </trkpt>
    <trkpt lat="38.562898021" lon="34.913742011">
      <ele>1204.827</ele>
      <time>2021-10-12T16:35:58Z</time>
    </trkpt>
    <trkpt lat="38.562872037" lon="34.913782999">
      <ele>1204.399</ele>
      <time>2021-10-12T16:36:00Z</time>
    </trkpt>
    <trkpt lat="38.562849993" lon="34.913818035">
      <ele>1204.035</ele>
      <time>2021-10-12T16:36:01Z</time>
    </trkpt>
    <trkpt lat="38.562824009" lon="34.913858017">
      <ele>1203.61</ele>
      <time>2021-10-12T16:36:02Z</time>
    </trkpt>
    <trkpt lat="38.562797019" lon="34.913895987">
      <ele>1203.128</ele>
      <time>2021-10-12T16:36:04Z</time>
    </trkpt>
    <trkpt lat="38.562775981" lon="34.913934963">
      <ele>1202.511</ele>
      <time>2021-10-12T16:36:05Z</time>
    </trkpt>
    <trkpt lat="38.562761983" lon="34.913976034">
      <ele>1202.151</ele>
      <time>2021-10-12T16:36:07Z</time>
    </trkpt>
    <trkpt lat="38.562743962" lon="34.91401501">
      <ele>1201.87</ele>
      <time>2021-10-12T16:36:08Z</time>
    </trkpt>
    <trkpt lat="38.562726025" lon="34.914045017">
      <ele>1201.71</ele>
      <time>2021-10-12T16:36:09Z</time>
    </trkpt>
    <trkpt lat="38.562701968" lon="34.914077036">
      <ele>1201.611</ele>
      <time>2021-10-12T16:36:10Z</time>
    </trkpt>
    <trkpt lat="38.562677996" lon="34.914105032">
      <ele>1201.584</ele>
      <time>2021-10-12T16:36:11Z</time>
    </trkpt>
    <trkpt lat="38.56265503" lon="34.914134033">
      <ele>1201.574</ele>
      <time>2021-10-12T16:36:13Z</time>
    </trkpt>
    <trkpt lat="38.56263198" lon="34.914162029">
      <ele>1201.607</ele>
      <time>2021-10-12T16:36:14Z</time>
    </trkpt>
    <trkpt lat="38.562610019" lon="34.914187007">
      <ele>1201.665</ele>
      <time>2021-10-12T16:36:15Z</time>
    </trkpt>
    <trkpt lat="38.562589986" lon="34.914207961">
      <ele>1201.731</ele>
      <time>2021-10-12T16:36:16Z</time>
    </trkpt>
    <trkpt lat="38.562571965" lon="34.914226988">
      <ele>1201.788</ele>
      <time>2021-10-12T16:36:17Z</time>
    </trkpt>
    <trkpt lat="38.56255101" lon="34.914244004">
      <ele>1201.892</ele>
      <time>2021-10-12T16:36:18Z</time>
    </trkpt>
    <trkpt lat="38.562528966" lon="34.91426697">
      <ele>1201.965</ele>
      <time>2021-10-12T16:36:19Z</time>
    </trkpt>
    <trkpt lat="38.562506" lon="34.91429002">
      <ele>1202.047</ele>
      <time>2021-10-12T16:36:20Z</time>
    </trkpt>
    <trkpt lat="38.562490996" lon="34.914307036">
      <ele>1202.249</ele>
      <time>2021-10-12T16:36:21Z</time>
    </trkpt>
    <trkpt lat="38.562478004" lon="34.914323967">
      <ele>1202.501</ele>
      <time>2021-10-12T16:36:21Z</time>
    </trkpt>
    <trkpt lat="38.562464006" lon="34.914341988">
      <ele>1202.774</ele>
      <time>2021-10-12T16:36:22Z</time>
    </trkpt>
    <trkpt lat="38.562447997" lon="34.914365038">
      <ele>1203.069</ele>
      <time>2021-10-12T16:36:23Z</time>
    </trkpt>
    <trkpt lat="38.562430982" lon="34.914391022">
      <ele>1203.372</ele>
      <time>2021-10-12T16:36:24Z</time>
    </trkpt>
    <trkpt lat="38.562422013" lon="34.914416">
      <ele>1203.451</ele>
      <time>2021-10-12T16:36:25Z</time>
    </trkpt>
    <trkpt lat="38.562410027" lon="34.91444299">
      <ele>1203.602</ele>
      <time>2021-10-12T16:36:26Z</time>
    </trkpt>
    <trkpt lat="38.562404998" lon="34.914467968">
      <ele>1203.482</ele>
      <time>2021-10-12T16:36:26Z</time>
    </trkpt>
    <trkpt lat="38.562398963" lon="34.91449303">
      <ele>1203.385</ele>
      <time>2021-10-12T16:36:27Z</time>
    </trkpt>
    <trkpt lat="38.562394017" lon="34.914519014">
      <ele>1203.247</ele>
      <time>2021-10-12T16:36:28Z</time>
    </trkpt>
    <trkpt lat="38.562392006" lon="34.914543992">
      <ele>1203.035</ele>
      <time>2021-10-12T16:36:29Z</time>
    </trkpt>
    <trkpt lat="38.562389994" lon="34.914569976">
      <ele>1202.812</ele>
      <time>2021-10-12T16:36:29Z</time>
    </trkpt>
    <trkpt lat="38.562385971" lon="34.914595038">
      <ele>1202.658</ele>
      <time>2021-10-12T16:36:30Z</time>
    </trkpt>
    <trkpt lat="38.562384965" lon="34.914618004">
      <ele>1202.439</ele>
      <time>2021-10-12T16:36:31Z</time>
    </trkpt>
    <trkpt lat="38.562383959" lon="34.914643988">
      <ele>1202.187</ele>
      <time>2021-10-12T16:36:31Z</time>
    </trkpt>
    <trkpt lat="38.562381025" lon="34.91466796">
      <ele>1202.013</ele>
      <time>2021-10-12T16:36:32Z</time>
    </trkpt>
    <trkpt lat="38.562383037" lon="34.914712971">
      <ele>1201.468</ele>
      <time>2021-10-12T16:36:33Z</time>
    </trkpt>
    <trkpt lat="38.562382031" lon="34.914736021">
      <ele>1201.412</ele>
      <time>2021-10-12T16:36:34Z</time>
    </trkpt>
    <trkpt lat="38.562379014" lon="34.914759994">
      <ele>1201.519</ele>
      <time>2021-10-12T16:36:35Z</time>
    </trkpt>
    <trkpt lat="38.56237499" lon="34.914782038">
      <ele>1201.643</ele>
      <time>2021-10-12T16:36:36Z</time>
    </trkpt>
    <trkpt lat="38.562367028" lon="34.91481699">
      <ele>1201.859</ele>
      <time>2021-10-12T16:36:37Z</time>
    </trkpt>
    <trkpt lat="38.562354036" lon="34.914837023">
      <ele>1202.162</ele>
      <time>2021-10-12T16:36:37Z</time>
    </trkpt>
    <trkpt lat="38.562330985" lon="34.914869964">
      <ele>1202.637</ele>
      <time>2021-10-12T16:36:39Z</time>
    </trkpt>
    <trkpt lat="38.562311037" lon="34.914887985">
      <ele>1203.012</ele>
      <time>2021-10-12T16:36:40Z</time>
    </trkpt>
    <trkpt lat="38.562282035" lon="34.914917992">
      <ele>1203.475</ele>
      <time>2021-10-12T16:36:41Z</time>
    </trkpt>
    <trkpt lat="38.562262002" lon="34.914934002">
      <ele>1203.766</ele>
      <time>2021-10-12T16:36:42Z</time>
    </trkpt>
    <trkpt lat="38.56224197" lon="34.914948">
      <ele>1204.037</ele>
      <time>2021-10-12T16:36:43Z</time>
    </trkpt>
    <trkpt lat="38.562219003" lon="34.914961997">
      <ele>1204.355</ele>
      <time>2021-10-12T16:36:44Z</time>
    </trkpt>
    <trkpt lat="38.562191008" lon="34.914978007">
      <ele>1204.945</ele>
      <time>2021-10-12T16:36:45Z</time>
    </trkpt>
    <trkpt lat="38.562164018" lon="34.914994016">
      <ele>1205.51</ele>
      <time>2021-10-12T16:36:46Z</time>
    </trkpt>
    <trkpt lat="38.562142979" lon="34.915010026">
      <ele>1205.997</ele>
      <time>2021-10-12T16:36:47Z</time>
    </trkpt>
    <trkpt lat="38.56212303" lon="34.915026035">
      <ele>1206.5</ele>
      <time>2021-10-12T16:36:48Z</time>
    </trkpt>
    <trkpt lat="38.562102998" lon="34.915044978">
      <ele>1207.004</ele>
      <time>2021-10-12T16:36:49Z</time>
    </trkpt>
    <trkpt lat="38.562092017" lon="34.915065011">
      <ele>1207.281</ele>
      <time>2021-10-12T16:36:49Z</time>
    </trkpt>
    <trkpt lat="38.562081037" lon="34.915087977">
      <ele>1207.558</ele>
      <time>2021-10-12T16:36:50Z</time>
    </trkpt>
    <trkpt lat="38.562075002" lon="34.915112033">
      <ele>1207.71</ele>
      <time>2021-10-12T16:36:51Z</time>
    </trkpt>
    <trkpt lat="38.562070979" lon="34.915135">
      <ele>1207.811</ele>
      <time>2021-10-12T16:36:51Z</time>
    </trkpt>
    <trkpt lat="38.562070979" lon="34.915157966">
      <ele>1207.811</ele>
      <time>2021-10-12T16:36:52Z</time>
    </trkpt>
    <trkpt lat="38.562069973" lon="34.915183028">
      <ele>1207.837</ele>
      <time>2021-10-12T16:36:53Z</time>
    </trkpt>
    <trkpt lat="38.562068967" lon="34.915225022">
      <ele>1207.862</ele>
      <time>2021-10-12T16:36:54Z</time>
    </trkpt>
    <trkpt lat="38.562064022" lon="34.915248994">
      <ele>1207.987</ele>
      <time>2021-10-12T16:36:55Z</time>
    </trkpt>
    <trkpt lat="38.56206201" lon="34.915274978">
      <ele>1208.037</ele>
      <time>2021-10-12T16:36:56Z</time>
    </trkpt>
    <trkpt lat="38.56206201" lon="34.915299034">
      <ele>1208.09</ele>
      <time>2021-10-12T16:36:56Z</time>
    </trkpt>
    <trkpt lat="38.562059999" lon="34.915343961">
      <ele>1208.246</ele>
      <time>2021-10-12T16:36:58Z</time>
    </trkpt>
    <trkpt lat="38.562055975" lon="34.915368017">
      <ele>1208.386</ele>
      <time>2021-10-12T16:36:58Z</time>
    </trkpt>
    <trkpt lat="38.562052036" lon="34.915390983">
      <ele>1208.513</ele>
      <time>2021-10-12T16:36:59Z</time>
    </trkpt>
    <trkpt lat="38.562044995" lon="34.915414033">
      <ele>1208.686</ele>
      <time>2021-10-12T16:37:00Z</time>
    </trkpt>
    <trkpt lat="38.562032003" lon="34.915435994">
      <ele>1208.942</ele>
      <time>2021-10-12T16:37:00Z</time>
    </trkpt>
    <trkpt lat="38.562014988" lon="34.915456027">
      <ele>1209.232</ele>
      <time>2021-10-12T16:37:01Z</time>
    </trkpt>
    <trkpt lat="38.561999984" lon="34.915473964">
      <ele>1209.459</ele>
      <time>2021-10-12T16:37:02Z</time>
    </trkpt>
    <trkpt lat="38.56198498" lon="34.915489974">
      <ele>1209.66</ele>
      <time>2021-10-12T16:37:03Z</time>
    </trkpt>
    <trkpt lat="38.56196302" lon="34.915510006">
      <ele>1209.919</ele>
      <time>2021-10-12T16:37:04Z</time>
    </trkpt>
    <trkpt lat="38.561940975" lon="34.915530039">
      <ele>1210.107</ele>
      <time>2021-10-12T16:37:05Z</time>
    </trkpt>
    <trkpt lat="38.561919015" lon="34.91554697">
      <ele>1210.128</ele>
      <time>2021-10-12T16:37:06Z</time>
    </trkpt>
    <trkpt lat="38.561894037" lon="34.915561974">
      <ele>1210.142</ele>
      <time>2021-10-12T16:37:07Z</time>
    </trkpt>
    <trkpt lat="38.561869981" lon="34.915578989">
      <ele>1210.093</ele>
      <time>2021-10-12T16:37:08Z</time>
    </trkpt>
    <trkpt lat="38.561843997" lon="34.915593993">
      <ele>1210.023</ele>
      <time>2021-10-12T16:37:09Z</time>
    </trkpt>
    <trkpt lat="38.56181399" lon="34.915612014">
      <ele>1209.885</ele>
      <time>2021-10-12T16:37:10Z</time>
    </trkpt>
    <trkpt lat="38.561790017" lon="34.915628023">
      <ele>1209.715</ele>
      <time>2021-10-12T16:37:11Z</time>
    </trkpt>
    <trkpt lat="38.561759004" lon="34.915645039">
      <ele>1209.485</ele>
      <time>2021-10-12T16:37:12Z</time>
    </trkpt>
    <trkpt lat="38.561730003" lon="34.915659036">
      <ele>1209.249</ele>
      <time>2021-10-12T16:37:13Z</time>
    </trkpt>
    <trkpt lat="38.561702007" lon="34.915671023">
      <ele>1209.006</ele>
      <time>2021-10-12T16:37:15Z</time>
    </trkpt>
    <trkpt lat="38.561677029" lon="34.915683009">
      <ele>1208.737</ele>
      <time>2021-10-12T16:37:16Z</time>
    </trkpt>
    <trkpt lat="38.561649034" lon="34.915698012">
      <ele>1208.245</ele>
      <time>2021-10-12T16:37:17Z</time>
    </trkpt>
    <trkpt lat="38.56162196" lon="34.915709998">
      <ele>1207.737</ele>
      <time>2021-10-12T16:37:18Z</time>
    </trkpt>
    <trkpt lat="38.561593965" lon="34.915718967">
      <ele>1207.273</ele>
      <time>2021-10-12T16:37:19Z</time>
    </trkpt>
    <trkpt lat="38.561565969" lon="34.915729025">
      <ele>1206.79</ele>
      <time>2021-10-12T16:37:20Z</time>
    </trkpt>
    <trkpt lat="38.561534034" lon="34.915737994">
      <ele>1206.284</ele>
      <time>2021-10-12T16:37:21Z</time>
    </trkpt>
    <trkpt lat="38.561501009" lon="34.915752998">
      <ele>1205.657</ele>
      <time>2021-10-12T16:37:22Z</time>
    </trkpt>
    <trkpt lat="38.561472008" lon="34.915764984">
      <ele>1205.128</ele>
      <time>2021-10-12T16:37:23Z</time>
    </trkpt>
    <trkpt lat="38.561435966" lon="34.915780993">
      <ele>1204.451</ele>
      <time>2021-10-12T16:37:25Z</time>
    </trkpt>
    <trkpt lat="38.561405959" lon="34.915794991">
      <ele>1203.875</ele>
      <time>2021-10-12T16:37:26Z</time>
    </trkpt>
    <trkpt lat="38.561376035" lon="34.915806977">
      <ele>1203.428</ele>
      <time>2021-10-12T16:37:27Z</time>
    </trkpt>
    <trkpt lat="38.561343011" lon="34.91581603">
      <ele>1203.146</ele>
      <time>2021-10-12T16:37:29Z</time>
    </trkpt>
    <trkpt lat="38.561309986" lon="34.915824998">
      <ele>1202.866</ele>
      <time>2021-10-12T16:37:30Z</time>
    </trkpt>
    <trkpt lat="38.561277967" lon="34.915832961">
      <ele>1202.607</ele>
      <time>2021-10-12T16:37:31Z</time>
    </trkpt>
    <trkpt lat="38.561242009" lon="34.915838996">
      <ele>1202.41</ele>
      <time>2021-10-12T16:37:32Z</time>
    </trkpt>
    <trkpt lat="38.561208984" lon="34.915840002">
      <ele>1202.28</ele>
      <time>2021-10-12T16:37:34Z</time>
    </trkpt>
    <trkpt lat="38.561174031" lon="34.915846959">
      <ele>1202.079</ele>
      <time>2021-10-12T16:37:35Z</time>
    </trkpt>
    <trkpt lat="38.561138995" lon="34.915852994">
      <ele>1201.888</ele>
      <time>2021-10-12T16:37:36Z</time>
    </trkpt>
    <trkpt lat="38.56110597" lon="34.915857017">
      <ele>1201.709</ele>
      <time>2021-10-12T16:37:37Z</time>
    </trkpt>
    <trkpt lat="38.561072024" lon="34.915860035">
      <ele>1201.444</ele>
      <time>2021-10-12T16:37:39Z</time>
    </trkpt>
    <trkpt lat="38.561040005" lon="34.915858023">
      <ele>1201.244</ele>
      <time>2021-10-12T16:37:40Z</time>
    </trkpt>
    <trkpt lat="38.56100698" lon="34.915862968">
      <ele>1200.97</ele>
      <time>2021-10-12T16:37:41Z</time>
    </trkpt>
    <trkpt lat="38.560975967" lon="34.915866992">
      <ele>1200.722</ele>
      <time>2021-10-12T16:37:42Z</time>
    </trkpt>
    <trkpt lat="38.560945038" lon="34.915871015">
      <ele>1200.478</ele>
      <time>2021-10-12T16:37:43Z</time>
    </trkpt>
    <trkpt lat="38.560914025" lon="34.915876966">
      <ele>1200.221</ele>
      <time>2021-10-12T16:37:45Z</time>
    </trkpt>
    <trkpt lat="38.560877983" lon="34.915887024">
      <ele>1199.904</ele>
      <time>2021-10-12T16:37:46Z</time>
    </trkpt>
    <trkpt lat="38.560840013" lon="34.915903034">
      <ele>1199.54</ele>
      <time>2021-10-12T16:37:47Z</time>
    </trkpt>
    <trkpt lat="38.560802964" lon="34.915918959">
      <ele>1199.308</ele>
      <time>2021-10-12T16:37:49Z</time>
    </trkpt>
    <trkpt lat="38.560770024" lon="34.915933963">
      <ele>1199.13</ele>
      <time>2021-10-12T16:37:50Z</time>
    </trkpt>
    <trkpt lat="38.560738005" lon="34.915949972">
      <ele>1198.961</ele>
      <time>2021-10-12T16:37:51Z</time>
    </trkpt>
    <trkpt lat="38.560703974" lon="34.915966988">
      <ele>1198.796</ele>
      <time>2021-10-12T16:37:53Z</time>
    </trkpt>
    <trkpt lat="38.560674973" lon="34.915974028">
      <ele>1198.706</ele>
      <time>2021-10-12T16:37:54Z</time>
    </trkpt>
    <trkpt lat="38.560645971" lon="34.915984003">
      <ele>1198.607</ele>
      <time>2021-10-12T16:37:55Z</time>
    </trkpt>
    <trkpt lat="38.560617976" lon="34.915998001">
      <ele>1198.499</ele>
      <time>2021-10-12T16:37:56Z</time>
    </trkpt>
    <trkpt lat="38.560587969" lon="34.916018033">
      <ele>1198.374</ele>
      <time>2021-10-12T16:37:57Z</time>
    </trkpt>
    <trkpt lat="38.560554022" lon="34.916043011">
      <ele>1198.244</ele>
      <time>2021-10-12T16:37:59Z</time>
    </trkpt>
    <trkpt lat="38.560525021" lon="34.91606799">
      <ele>1198.138</ele>
      <time>2021-10-12T16:38:00Z</time>
    </trkpt>
    <trkpt lat="38.560496019" lon="34.916096991">
      <ele>1198.04</ele>
      <time>2021-10-12T16:38:01Z</time>
    </trkpt>
    <trkpt lat="38.560471041" lon="34.916126998">
      <ele>1198.035</ele>
      <time>2021-10-12T16:38:03Z</time>
    </trkpt>
    <trkpt lat="38.560446985" lon="34.916159017">
      <ele>1198.135</ele>
      <time>2021-10-12T16:38:04Z</time>
    </trkpt>
    <trkpt lat="38.56042997" lon="34.916187013">
      <ele>1198.247</ele>
      <time>2021-10-12T16:38:05Z</time>
    </trkpt>
    <trkpt lat="38.560413038" lon="34.916210985">
      <ele>1198.369</ele>
      <time>2021-10-12T16:38:06Z</time>
    </trkpt>
    <trkpt lat="38.560397029" lon="34.916235963">
      <ele>1198.513</ele>
      <time>2021-10-12T16:38:07Z</time>
    </trkpt>
    <trkpt lat="38.560384037" lon="34.916260019">
      <ele>1198.662</ele>
      <time>2021-10-12T16:38:08Z</time>
    </trkpt>
    <trkpt lat="38.560371967" lon="34.916286003">
      <ele>1198.832</ele>
      <time>2021-10-12T16:38:09Z</time>
    </trkpt>
    <trkpt lat="38.560366016" lon="34.916309975">
      <ele>1198.977</ele>
      <time>2021-10-12T16:38:09Z</time>
    </trkpt>
    <trkpt lat="38.560358975" lon="34.916334031">
      <ele>1199.136</ele>
      <time>2021-10-12T16:38:10Z</time>
    </trkpt>
    <trkpt lat="38.560351012" lon="34.916359009">
      <ele>1199.314</ele>
      <time>2021-10-12T16:38:11Z</time>
    </trkpt>
    <trkpt lat="38.560345983" lon="34.916382981">
      <ele>1199.477</ele>
      <time>2021-10-12T16:38:12Z</time>
    </trkpt>
    <trkpt lat="38.560343971" lon="34.916410977">
      <ele>1199.584</ele>
      <time>2021-10-12T16:38:12Z</time>
    </trkpt>
    <trkpt lat="38.560339026" lon="34.916436039">
      <ele>1199.691</ele>
      <time>2021-10-12T16:38:13Z</time>
    </trkpt>
    <trkpt lat="38.560333997" lon="34.916461017">
      <ele>1199.802</ele>
      <time>2021-10-12T16:38:14Z</time>
    </trkpt>
    <trkpt lat="38.560328968" lon="34.916489013">
      <ele>1199.925</ele>
      <time>2021-10-12T16:38:15Z</time>
    </trkpt>
    <trkpt lat="38.560324023" lon="34.916516002">
      <ele>1200.048</ele>
      <time>2021-10-12T16:38:16Z</time>
    </trkpt>
    <trkpt lat="38.560315976" lon="34.916541986">
      <ele>1200.2</ele>
      <time>2021-10-12T16:38:16Z</time>
    </trkpt>
    <trkpt lat="38.560312036" lon="34.916571993">
      <ele>1200.331</ele>
      <time>2021-10-12T16:38:17Z</time>
    </trkpt>
    <trkpt lat="38.560306001" lon="34.916597977">
      <ele>1200.473</ele>
      <time>2021-10-12T16:38:18Z</time>
    </trkpt>
    <trkpt lat="38.560298039" lon="34.916626979">
      <ele>1200.649</ele>
      <time>2021-10-12T16:38:19Z</time>
    </trkpt>
    <trkpt lat="38.560295021" lon="34.916653968">
      <ele>1200.771</ele>
      <time>2021-10-12T16:38:20Z</time>
    </trkpt>
    <trkpt lat="38.560260991" lon="34.916768968">
      <ele>1200.445</ele>
      <time>2021-10-12T16:38:23Z</time>
    </trkpt>
    <trkpt lat="38.56025001" lon="34.916796042">
      <ele>1200.368</ele>
      <time>2021-10-12T16:38:24Z</time>
    </trkpt>
    <trkpt lat="38.560236013" lon="34.916827977">
      <ele>1200.29</ele>
      <time>2021-10-12T16:38:25Z</time>
    </trkpt>
    <trkpt lat="38.560222015" lon="34.916861001">
      <ele>1200.203</ele>
      <time>2021-10-12T16:38:26Z</time>
    </trkpt>
    <trkpt lat="38.560205" lon="34.91689302">
      <ele>1200.156</ele>
      <time>2021-10-12T16:38:27Z</time>
    </trkpt>
    <trkpt lat="38.560184967" lon="34.916925961">
      <ele>1200.135</ele>
      <time>2021-10-12T16:38:29Z</time>
    </trkpt>
    <trkpt lat="38.560166024" lon="34.916956974">
      <ele>1200.099</ele>
      <time>2021-10-12T16:38:30Z</time>
    </trkpt>
    <trkpt lat="38.560146997" lon="34.916987987">
      <ele>1200.025</ele>
      <time>2021-10-12T16:38:31Z</time>
    </trkpt>
    <trkpt lat="38.56012797" lon="34.917021012">
      <ele>1199.918</ele>
      <time>2021-10-12T16:38:32Z</time>
    </trkpt>
    <trkpt lat="38.560110033" lon="34.917053031">
      <ele>1199.794</ele>
      <time>2021-10-12T16:38:33Z</time>
    </trkpt>
    <trkpt lat="38.56009" lon="34.917085972">
      <ele>1199.665</ele>
      <time>2021-10-12T16:38:34Z</time>
    </trkpt>
    <trkpt lat="38.560071979" lon="34.917115979">
      <ele>1199.53</ele>
      <time>2021-10-12T16:38:36Z</time>
    </trkpt>
    <trkpt lat="38.560045995" lon="34.917146992">
      <ele>1199.436</ele>
      <time>2021-10-12T16:38:37Z</time>
    </trkpt>
    <trkpt lat="38.560022023" lon="34.917173982">
      <ele>1199.349</ele>
      <time>2021-10-12T16:38:38Z</time>
    </trkpt>
    <trkpt lat="38.560002996" lon="34.917197032">
      <ele>1199.25</ele>
      <time>2021-10-12T16:38:39Z</time>
    </trkpt>
    <trkpt lat="38.559982041" lon="34.917225027">
      <ele>1199.183</ele>
      <time>2021-10-12T16:38:40Z</time>
    </trkpt>
    <trkpt lat="38.559961002" lon="34.917254029">
      <ele>1199.275</ele>
      <time>2021-10-12T16:38:41Z</time>
    </trkpt>
    <trkpt lat="38.559939964" lon="34.917282024">
      <ele>1199.34</ele>
      <time>2021-10-12T16:38:42Z</time>
    </trkpt>
    <trkpt lat="38.559921021" lon="34.91731002">
      <ele>1199.357</ele>
      <time>2021-10-12T16:38:44Z</time>
    </trkpt>
    <trkpt lat="38.559898976" lon="34.91733701">
      <ele>1199.377</ele>
      <time>2021-10-12T16:38:45Z</time>
    </trkpt>
    <trkpt lat="38.559873998" lon="34.917365005">
      <ele>1199.38</ele>
      <time>2021-10-12T16:38:46Z</time>
    </trkpt>
    <trkpt lat="38.559847008" lon="34.917390989">
      <ele>1199.375</ele>
      <time>2021-10-12T16:38:47Z</time>
    </trkpt>
    <trkpt lat="38.559821025" lon="34.917414961">
      <ele>1199.345</ele>
      <time>2021-10-12T16:38:48Z</time>
    </trkpt>
    <trkpt lat="38.559796968" lon="34.917434994">
      <ele>1199.307</ele>
      <time>2021-10-12T16:38:49Z</time>
    </trkpt>
    <trkpt lat="38.559774002" lon="34.917452009">
      <ele>1199.267</ele>
      <time>2021-10-12T16:38:50Z</time>
    </trkpt>
    <trkpt lat="38.559747012" lon="34.917471036">
      <ele>1199.205</ele>
      <time>2021-10-12T16:38:51Z</time>
    </trkpt>
    <trkpt lat="38.559722034" lon="34.917489979">
      <ele>1199.11</ele>
      <time>2021-10-12T16:38:53Z</time>
    </trkpt>
    <trkpt lat="38.559693033" lon="34.917505989">
      <ele>1199.184</ele>
      <time>2021-10-12T16:38:54Z</time>
    </trkpt>
    <trkpt lat="38.559663026" lon="34.91752401">
      <ele>1199.303</ele>
      <time>2021-10-12T16:38:55Z</time>
    </trkpt>
    <trkpt lat="38.55963503" lon="34.917539014">
      <ele>1199.399</ele>
      <time>2021-10-12T16:38:56Z</time>
    </trkpt>
    <trkpt lat="38.559609968" lon="34.917552005">
      <ele>1199.47</ele>
      <time>2021-10-12T16:38:57Z</time>
    </trkpt>
    <trkpt lat="38.559589013" lon="34.917566003">
      <ele>1199.494</ele>
      <time>2021-10-12T16:38:58Z</time>
    </trkpt>
    <trkpt lat="38.559566969" lon="34.917583019">
      <ele>1199.485</ele>
      <time>2021-10-12T16:38:59Z</time>
    </trkpt>
    <trkpt lat="38.559542997" lon="34.917601962">
      <ele>1199.45</ele>
      <time>2021-10-12T16:39:00Z</time>
    </trkpt>
    <trkpt lat="38.559521958" lon="34.917626018">
      <ele>1199.334</ele>
      <time>2021-10-12T16:39:01Z</time>
    </trkpt>
    <trkpt lat="38.559498992" lon="34.917652002">
      <ele>1199.181</ele>
      <time>2021-10-12T16:39:02Z</time>
    </trkpt>
    <trkpt lat="38.559478959" lon="34.917681003">
      <ele>1198.959</ele>
      <time>2021-10-12T16:39:03Z</time>
    </trkpt>
    <trkpt lat="38.55945901" lon="34.91771101">
      <ele>1198.696</ele>
      <time>2021-10-12T16:39:04Z</time>
    </trkpt>
    <trkpt lat="38.559440989" lon="34.917738">
      <ele>1198.446</ele>
      <time>2021-10-12T16:39:05Z</time>
    </trkpt>
    <trkpt lat="38.559425985" lon="34.917765995">
      <ele>1198.199</ele>
      <time>2021-10-12T16:39:06Z</time>
    </trkpt>
    <trkpt lat="38.559406959" lon="34.917801032">
      <ele>1197.968</ele>
      <time>2021-10-12T16:39:08Z</time>
    </trkpt>
    <trkpt lat="38.559389021" lon="34.917835984">
      <ele>1197.78</ele>
      <time>2021-10-12T16:39:09Z</time>
    </trkpt>
    <trkpt lat="38.559371" lon="34.917870015">
      <ele>1197.6</ele>
      <time>2021-10-12T16:39:10Z</time>
    </trkpt>
    <trkpt lat="38.559357002" lon="34.917902034">
      <ele>1197.42</ele>
      <time>2021-10-12T16:39:11Z</time>
    </trkpt>
    <trkpt lat="38.559334036" lon="34.917937992">
      <ele>1197.244</ele>
      <time>2021-10-12T16:39:12Z</time>
    </trkpt>
    <trkpt lat="38.559315009" lon="34.917969005">
      <ele>1197.089</ele>
      <time>2021-10-12T16:39:14Z</time>
    </trkpt>
    <trkpt lat="38.55929397" lon="34.918001024">
      <ele>1196.934</ele>
      <time>2021-10-12T16:39:15Z</time>
    </trkpt>
    <trkpt lat="38.559275027" lon="34.918033965">
      <ele>1196.765</ele>
      <time>2021-10-12T16:39:16Z</time>
    </trkpt>
    <trkpt lat="38.559257006" lon="34.918067995">
      <ele>1196.585</ele>
      <time>2021-10-12T16:39:17Z</time>
    </trkpt>
    <trkpt lat="38.559238985" lon="34.91810102">
      <ele>1196.412</ele>
      <time>2021-10-12T16:39:18Z</time>
    </trkpt>
    <trkpt lat="38.559219036" lon="34.918133961">
      <ele>1196.247</ele>
      <time>2021-10-12T16:39:20Z</time>
    </trkpt>
    <trkpt lat="38.559203027" lon="34.918167992">
      <ele>1196.06</ele>
      <time>2021-10-12T16:39:21Z</time>
    </trkpt>
    <trkpt lat="38.559186012" lon="34.918202022">
      <ele>1195.876</ele>
      <time>2021-10-12T16:39:22Z</time>
    </trkpt>
    <trkpt lat="38.559165979" lon="34.91823798">
      <ele>1195.692</ele>
      <time>2021-10-12T16:39:23Z</time>
    </trkpt>
    <trkpt lat="38.559148042" lon="34.918269999">
      <ele>1195.605</ele>
      <time>2021-10-12T16:39:24Z</time>
    </trkpt>
    <trkpt lat="38.559125997" lon="34.91830403">
      <ele>1195.519</ele>
      <time>2021-10-12T16:39:26Z</time>
    </trkpt>
    <trkpt lat="38.559105964" lon="34.918337977">
      <ele>1195.404</ele>
      <time>2021-10-12T16:39:27Z</time>
    </trkpt>
    <trkpt lat="38.559088027" lon="34.918371001">
      <ele>1195.295</ele>
      <time>2021-10-12T16:39:28Z</time>
    </trkpt>
    <trkpt lat="38.559067994" lon="34.918405032">
      <ele>1195.194</ele>
      <time>2021-10-12T16:39:29Z</time>
    </trkpt>
    <trkpt lat="38.55904704" lon="34.918435039">
      <ele>1195.129</ele>
      <time>2021-10-12T16:39:30Z</time>
    </trkpt>
    <trkpt lat="38.559033042" lon="34.918459011">
      <ele>1195.057</ele>
      <time>2021-10-12T16:39:31Z</time>
    </trkpt>
    <trkpt lat="38.559010997" lon="34.91849103">
      <ele>1194.985</ele>
      <time>2021-10-12T16:39:33Z</time>
    </trkpt>
    <trkpt lat="38.558990965" lon="34.918522965">
      <ele>1194.9</ele>
      <time>2021-10-12T16:39:34Z</time>
    </trkpt>
    <trkpt lat="38.558967998" lon="34.918549033">
      <ele>1194.877</ele>
      <time>2021-10-12T16:39:35Z</time>
    </trkpt>
    <trkpt lat="38.558942014" lon="34.918575017">
      <ele>1194.877</ele>
      <time>2021-10-12T16:39:36Z</time>
    </trkpt>
    <trkpt lat="38.558913013" lon="34.918599995">
      <ele>1194.906</ele>
      <time>2021-10-12T16:39:37Z</time>
    </trkpt>
    <trkpt lat="38.558884012" lon="34.91862799">
      <ele>1195.069</ele>
      <time>2021-10-12T16:39:39Z</time>
    </trkpt>
    <trkpt lat="38.558857022" lon="34.918653974">
      <ele>1195.441</ele>
      <time>2021-10-12T16:39:40Z</time>
    </trkpt>
    <trkpt lat="38.558827015" lon="34.918684987">
      <ele>1195.832</ele>
      <time>2021-10-12T16:39:41Z</time>
    </trkpt>
    <trkpt lat="38.558801031" lon="34.918711977">
      <ele>1196.15</ele>
      <time>2021-10-12T16:39:43Z</time>
    </trkpt>
    <trkpt lat="38.558769012" lon="34.918740978">
      <ele>1196.524</ele>
      <time>2021-10-12T16:39:44Z</time>
    </trkpt>
    <trkpt lat="38.55874001" lon="34.918766962">
      <ele>1196.843</ele>
      <time>2021-10-12T16:39:45Z</time>
    </trkpt>
    <trkpt lat="38.558712015" lon="34.918791018">
      <ele>1197.135</ele>
      <time>2021-10-12T16:39:47Z</time>
    </trkpt>
    <trkpt lat="38.558687037" lon="34.918809962">
      <ele>1197.386</ele>
      <time>2021-10-12T16:39:48Z</time>
    </trkpt>
    <trkpt lat="38.558659041" lon="34.918827983">
      <ele>1197.664</ele>
      <time>2021-10-12T16:39:49Z</time>
    </trkpt>
    <trkpt lat="38.558632974" lon="34.91884701">
      <ele>1197.903</ele>
      <time>2021-10-12T16:39:50Z</time>
    </trkpt>
    <trkpt lat="38.558600033" lon="34.918866036">
      <ele>1198.132</ele>
      <time>2021-10-12T16:39:51Z</time>
    </trkpt>
    <trkpt lat="38.558570025" lon="34.918885985">
      <ele>1198.163</ele>
      <time>2021-10-12T16:39:53Z</time>
    </trkpt>
    <trkpt lat="38.558537001" lon="34.918898977">
      <ele>1198.158</ele>
      <time>2021-10-12T16:39:54Z</time>
    </trkpt>
    <trkpt lat="38.558511017" lon="34.91890803">
      <ele>1198.154</ele>
      <time>2021-10-12T16:39:55Z</time>
    </trkpt>
    <trkpt lat="38.558485033" lon="34.918912975">
      <ele>1198.194</ele>
      <time>2021-10-12T16:39:56Z</time>
    </trkpt>
    <trkpt lat="38.558456032" lon="34.918916998">
      <ele>1198.255</ele>
      <time>2021-10-12T16:39:57Z</time>
    </trkpt>
    <trkpt lat="38.558426024" lon="34.918918004">
      <ele>1198.352</ele>
      <time>2021-10-12T16:39:58Z</time>
    </trkpt>
    <trkpt lat="38.558399035" lon="34.918920016">
      <ele>1198.427</ele>
      <time>2021-10-12T16:39:59Z</time>
    </trkpt>
    <trkpt lat="38.55836601" lon="34.918921022">
      <ele>1198.535</ele>
      <time>2021-10-12T16:40:00Z</time>
    </trkpt>
    <trkpt lat="38.558265008" lon="34.918930996">
      <ele>1198.545</ele>
      <time>2021-10-12T16:40:04Z</time>
    </trkpt>
    <trkpt lat="38.558160989" lon="34.918934014">
      <ele>1198.513</ele>
      <time>2021-10-12T16:40:08Z</time>
    </trkpt>
    <trkpt lat="38.558049006" lon="34.918947006">
      <ele>1198.41</ele>
      <time>2021-10-12T16:40:12Z</time>
    </trkpt>
    <trkpt lat="38.557943981" lon="34.918948011">
      <ele>1198.994</ele>
      <time>2021-10-12T16:40:16Z</time>
    </trkpt>
    <trkpt lat="38.557837028" lon="34.918966033">
      <ele>1199.303</ele>
      <time>2021-10-12T16:40:20Z</time>
    </trkpt>
    <trkpt lat="38.557726974" lon="34.91898003">
      <ele>1199.602</ele>
      <time>2021-10-12T16:40:24Z</time>
    </trkpt>
    <trkpt lat="38.557638964" lon="34.918990005">
      <ele>1199.862</ele>
      <time>2021-10-12T16:40:27Z</time>
    </trkpt>
    <trkpt lat="38.557615997" lon="34.919001991">
      <ele>1199.784</ele>
      <time>2021-10-12T16:40:28Z</time>
    </trkpt>
    <trkpt lat="38.557607029" lon="34.919077009">
      <ele>1198.645</ele>
      <time>2021-10-12T16:40:30Z</time>
    </trkpt>
    <trkpt lat="38.55760904" lon="34.919110034">
      <ele>1198.11</ele>
      <time>2021-10-12T16:40:31Z</time>
    </trkpt>
    <trkpt lat="38.557621026" lon="34.919141969">
      <ele>1197.523</ele>
      <time>2021-10-12T16:40:32Z</time>
    </trkpt>
    <trkpt lat="38.557669977" lon="34.919240037">
      <ele>1196.512</ele>
      <time>2021-10-12T16:40:36Z</time>
    </trkpt>
    <trkpt lat="38.557701996" lon="34.919347996">
      <ele>1195.893</ele>
      <time>2021-10-12T16:40:39Z</time>
    </trkpt>
    <trkpt lat="38.55771197" lon="34.919386972">
      <ele>1195.681</ele>
      <time>2021-10-12T16:40:40Z</time>
    </trkpt>
    <trkpt lat="38.557598982" lon="34.919138029">
      <ele>1197.736</ele>
      <time>2021-10-12T16:40:49Z</time>
    </trkpt>
    <trkpt lat="38.557582973" lon="34.919117996">
      <ele>1198.156</ele>
      <time>2021-10-12T16:40:49Z</time>
    </trkpt>
    <trkpt lat="38.557565035" lon="34.91909503">
      <ele>1198.624</ele>
      <time>2021-10-12T16:40:50Z</time>
    </trkpt>
    <trkpt lat="38.557545003" lon="34.919077009">
      <ele>1199.019</ele>
      <time>2021-10-12T16:40:51Z</time>
    </trkpt>
    <trkpt lat="38.557525976" lon="34.919063011">
      <ele>1199.341</ele>
      <time>2021-10-12T16:40:52Z</time>
    </trkpt>
    <trkpt lat="38.557505021" lon="34.919052031">
      <ele>1199.622</ele>
      <time>2021-10-12T16:40:53Z</time>
    </trkpt>
    <trkpt lat="38.557488006" lon="34.919039961">
      <ele>1199.934</ele>
      <time>2021-10-12T16:40:54Z</time>
    </trkpt>
    <trkpt lat="38.557468979" lon="34.919024035">
      <ele>1200.332</ele>
      <time>2021-10-12T16:40:55Z</time>
    </trkpt>
    <trkpt lat="38.557447018" lon="34.919011965">
      <ele>1200.694</ele>
      <time>2021-10-12T16:40:55Z</time>
    </trkpt>
    <trkpt lat="38.557383986" lon="34.918982964">
      <ele>1201.622</ele>
      <time>2021-10-12T16:40:58Z</time>
    </trkpt>
    <trkpt lat="38.557364037" lon="34.91897299">
      <ele>1201.916</ele>
      <time>2021-10-12T16:40:59Z</time>
    </trkpt>
    <trkpt lat="38.557336964" lon="34.918967038">
      <ele>1202.214</ele>
      <time>2021-10-12T16:41:00Z</time>
    </trkpt>
    <trkpt lat="38.557296982" lon="34.91896796">
      <ele>1202.531</ele>
      <time>2021-10-12T16:41:01Z</time>
    </trkpt>
    <trkpt lat="38.557272004" lon="34.918969972">
      <ele>1202.714</ele>
      <time>2021-10-12T16:41:02Z</time>
    </trkpt>
    <trkpt lat="38.55720696" lon="34.918978019">
      <ele>1203.055</ele>
      <time>2021-10-12T16:41:05Z</time>
    </trkpt>
    <trkpt lat="38.557187011" lon="34.918984976">
      <ele>1203.006</ele>
      <time>2021-10-12T16:41:05Z</time>
    </trkpt>
    <trkpt lat="38.557165973" lon="34.918996962">
      <ele>1202.912</ele>
      <time>2021-10-12T16:41:06Z</time>
    </trkpt>
    <trkpt lat="38.557144012" lon="34.919012971">
      <ele>1202.786</ele>
      <time>2021-10-12T16:41:07Z</time>
    </trkpt>
    <trkpt lat="38.557122974" lon="34.919027975">
      <ele>1202.677</ele>
      <time>2021-10-12T16:41:08Z</time>
    </trkpt>
    <trkpt lat="38.557104031" lon="34.91904499">
      <ele>1202.553</ele>
      <time>2021-10-12T16:41:09Z</time>
    </trkpt>
    <trkpt lat="38.557081986" lon="34.919062005">
      <ele>1202.445</ele>
      <time>2021-10-12T16:41:10Z</time>
    </trkpt>
    <trkpt lat="38.557062959" lon="34.919080026">
      <ele>1202.33</ele>
      <time>2021-10-12T16:41:11Z</time>
    </trkpt>
    <trkpt lat="38.557042005" lon="34.91909503">
      <ele>1202.255</ele>
      <time>2021-10-12T16:41:12Z</time>
    </trkpt>
    <trkpt lat="38.557018032" lon="34.919111039">
      <ele>1202.189</ele>
      <time>2021-10-12T16:41:13Z</time>
    </trkpt>
    <trkpt lat="38.556988025" lon="34.919128977">
      <ele>1202.136</ele>
      <time>2021-10-12T16:41:14Z</time>
    </trkpt>
    <trkpt lat="38.556951983" lon="34.919145992">
      <ele>1202.124</ele>
      <time>2021-10-12T16:41:15Z</time>
    </trkpt>
    <trkpt lat="38.556929016" lon="34.919154961">
      <ele>1202.14</ele>
      <time>2021-10-12T16:41:16Z</time>
    </trkpt>
    <trkpt lat="38.556903033" lon="34.919167031">
      <ele>1202.148</ele>
      <time>2021-10-12T16:41:17Z</time>
    </trkpt>
    <trkpt lat="38.556877971" lon="34.91918304">
      <ele>1202.18</ele>
      <time>2021-10-12T16:41:18Z</time>
    </trkpt>
    <trkpt lat="38.556849975" lon="34.919197038">
      <ele>1202.231</ele>
      <time>2021-10-12T16:41:19Z</time>
    </trkpt>
    <trkpt lat="38.556822985" lon="34.919212041">
      <ele>1202.274</ele>
      <time>2021-10-12T16:41:20Z</time>
    </trkpt>
    <trkpt lat="38.556793984" lon="34.919227967">
      <ele>1202.321</ele>
      <time>2021-10-12T16:41:22Z</time>
    </trkpt>
    <trkpt lat="38.556764983" lon="34.919241965">
      <ele>1202.375</ele>
      <time>2021-10-12T16:41:23Z</time>
    </trkpt>
    <trkpt lat="38.556736987" lon="34.919255041">
      <ele>1202.429</ele>
      <time>2021-10-12T16:41:24Z</time>
    </trkpt>
    <trkpt lat="38.556707986" lon="34.919267027">
      <ele>1202.49</ele>
      <time>2021-10-12T16:41:25Z</time>
    </trkpt>
    <trkpt lat="38.556683008" lon="34.919271972">
      <ele>1202.562</ele>
      <time>2021-10-12T16:41:26Z</time>
    </trkpt>
    <trkpt lat="38.556660963" lon="34.919279013">
      <ele>1202.628</ele>
      <time>2021-10-12T16:41:27Z</time>
    </trkpt>
    <trkpt lat="38.556634979" lon="34.919290999">
      <ele>1202.729</ele>
      <time>2021-10-12T16:41:28Z</time>
    </trkpt>
    <trkpt lat="38.556613019" lon="34.919298962">
      <ele>1202.818</ele>
      <time>2021-10-12T16:41:29Z</time>
    </trkpt>
    <trkpt lat="38.556590974" lon="34.91931296">
      <ele>1202.875</ele>
      <time>2021-10-12T16:41:29Z</time>
    </trkpt>
    <trkpt lat="38.556568008" lon="34.919327963">
      <ele>1202.923</ele>
      <time>2021-10-12T16:41:30Z</time>
    </trkpt>
    <trkpt lat="38.556542024" lon="34.919341961">
      <ele>1202.983</ele>
      <time>2021-10-12T16:41:31Z</time>
    </trkpt>
    <trkpt lat="38.556514028" lon="34.919355959">
      <ele>1203.043</ele>
      <time>2021-10-12T16:41:33Z</time>
    </trkpt>
    <trkpt lat="38.556488967" lon="34.91937004">
      <ele>1203.079</ele>
      <time>2021-10-12T16:41:34Z</time>
    </trkpt>
    <trkpt lat="38.556462983" lon="34.919385966">
      <ele>1203.098</ele>
      <time>2021-10-12T16:41:35Z</time>
    </trkpt>
    <trkpt lat="38.556434987" lon="34.91940097">
      <ele>1203.121</ele>
      <time>2021-10-12T16:41:36Z</time>
    </trkpt>
    <trkpt lat="38.556407997" lon="34.919413039">
      <ele>1203.15</ele>
      <time>2021-10-12T16:41:37Z</time>
    </trkpt>
    <trkpt lat="38.556378996" lon="34.919429971">
      <ele>1203.149</ele>
      <time>2021-10-12T16:41:38Z</time>
    </trkpt>
    <trkpt lat="38.556351" lon="34.919452015">
      <ele>1203.074</ele>
      <time>2021-10-12T16:41:39Z</time>
    </trkpt>
    <trkpt lat="38.556321999" lon="34.919473976">
      <ele>1202.977</ele>
      <time>2021-10-12T16:41:40Z</time>
    </trkpt>
    <trkpt lat="38.556294004" lon="34.919497026">
      <ele>1202.834</ele>
      <time>2021-10-12T16:41:42Z</time>
    </trkpt>
    <trkpt lat="38.55626802" lon="34.91951203">
      <ele>1202.737</ele>
      <time>2021-10-12T16:41:43Z</time>
    </trkpt>
    <trkpt lat="38.556242036" lon="34.919528039">
      <ele>1202.609</ele>
      <time>2021-10-12T16:41:44Z</time>
    </trkpt>
    <trkpt lat="38.556211023" lon="34.919548994">
      <ele>1202.406</ele>
      <time>2021-10-12T16:41:45Z</time>
    </trkpt>
    <trkpt lat="38.556185039" lon="34.919567015">
      <ele>1202.204</ele>
      <time>2021-10-12T16:41:46Z</time>
    </trkpt>
    <trkpt lat="38.556157965" lon="34.919579001">
      <ele>1202.057</ele>
      <time>2021-10-12T16:41:47Z</time>
    </trkpt>
    <trkpt lat="38.556131981" lon="34.919592999">
      <ele>1201.866</ele>
      <time>2021-10-12T16:41:48Z</time>
    </trkpt>
    <trkpt lat="38.556107003" lon="34.919605991">
      <ele>1201.751</ele>
      <time>2021-10-12T16:41:49Z</time>
    </trkpt>
    <trkpt lat="38.556083031" lon="34.919622">
      <ele>1201.957</ele>
      <time>2021-10-12T16:41:50Z</time>
    </trkpt>
    <trkpt lat="38.556055035" lon="34.919637004">
      <ele>1202.22</ele>
      <time>2021-10-12T16:41:51Z</time>
    </trkpt>
    <trkpt lat="38.556027962" lon="34.919651002">
      <ele>1202.453</ele>
      <time>2021-10-12T16:41:53Z</time>
    </trkpt>
    <trkpt lat="38.556004995" lon="34.919664999">
      <ele>1202.588</ele>
      <time>2021-10-12T16:41:53Z</time>
    </trkpt>
    <trkpt lat="38.555978006" lon="34.919682015">
      <ele>1202.704</ele>
      <time>2021-10-12T16:41:55Z</time>
    </trkpt>
    <trkpt lat="38.555945987" lon="34.919701042">
      <ele>1202.819</ele>
      <time>2021-10-12T16:41:56Z</time>
    </trkpt>
    <trkpt lat="38.555921009" lon="34.919714034">
      <ele>1202.916</ele>
      <time>2021-10-12T16:41:57Z</time>
    </trkpt>
    <trkpt lat="38.555893013" lon="34.919729037">
      <ele>1203.058</ele>
      <time>2021-10-12T16:41:58Z</time>
    </trkpt>
    <trkpt lat="38.555863006" lon="34.919748986">
      <ele>1203.218</ele>
      <time>2021-10-12T16:41:59Z</time>
    </trkpt>
    <trkpt lat="38.555837022" lon="34.919768013">
      <ele>1203.294</ele>
      <time>2021-10-12T16:42:00Z</time>
    </trkpt>
    <trkpt lat="38.555811038" lon="34.91978704">
      <ele>1203.511</ele>
      <time>2021-10-12T16:42:02Z</time>
    </trkpt>
    <trkpt lat="38.555784971" lon="34.919812018">
      <ele>1203.639</ele>
      <time>2021-10-12T16:42:03Z</time>
    </trkpt>
    <trkpt lat="38.555757981" lon="34.919830961">
      <ele>1203.849</ele>
      <time>2021-10-12T16:42:04Z</time>
    </trkpt>
    <trkpt lat="38.555734009" lon="34.919853006">
      <ele>1203.925</ele>
      <time>2021-10-12T16:42:05Z</time>
    </trkpt>
    <trkpt lat="38.555706013" lon="34.91987396">
      <ele>1204.064</ele>
      <time>2021-10-12T16:42:06Z</time>
    </trkpt>
    <trkpt lat="38.555680029" lon="34.919894999">
      <ele>1204.137</ele>
      <time>2021-10-12T16:42:07Z</time>
    </trkpt>
    <trkpt lat="38.555654967" lon="34.919912014">
      <ele>1204.242</ele>
      <time>2021-10-12T16:42:08Z</time>
    </trkpt>
    <trkpt lat="38.555632001" lon="34.919930035">
      <ele>1204.272</ele>
      <time>2021-10-12T16:42:09Z</time>
    </trkpt>
    <trkpt lat="38.555605011" lon="34.919945039">
      <ele>1204.405</ele>
      <time>2021-10-12T16:42:10Z</time>
    </trkpt>
    <trkpt lat="38.555577016" lon="34.919962976">
      <ele>1204.47</ele>
      <time>2021-10-12T16:42:12Z</time>
    </trkpt>
    <trkpt lat="38.555551032" lon="34.919978986">
      <ele>1204.504</ele>
      <time>2021-10-12T16:42:13Z</time>
    </trkpt>
    <trkpt lat="38.555524042" lon="34.919992983">
      <ele>1204.495</ele>
      <time>2021-10-12T16:42:14Z</time>
    </trkpt>
    <trkpt lat="38.55549898" lon="34.920003042">
      <ele>1204.552</ele>
      <time>2021-10-12T16:42:15Z</time>
    </trkpt>
    <trkpt lat="38.555469979" lon="34.920008993">
      <ele>1204.742</ele>
      <time>2021-10-12T16:42:16Z</time>
    </trkpt>
    <trkpt lat="38.555438966" lon="34.920008993">
      <ele>1205.07</ele>
      <time>2021-10-12T16:42:17Z</time>
    </trkpt>
    <trkpt lat="38.555407031" lon="34.920011004">
      <ele>1205.364</ele>
      <time>2021-10-12T16:42:18Z</time>
    </trkpt>
    <trkpt lat="38.555373" lon="34.920002036">
      <ele>1205.925</ele>
      <time>2021-10-12T16:42:19Z</time>
    </trkpt>
    <trkpt lat="38.555347016" lon="34.92000103">
      <ele>1206.228</ele>
      <time>2021-10-12T16:42:20Z</time>
    </trkpt>
    <trkpt lat="38.555318015" lon="34.92000103">
      <ele>1206.541</ele>
      <time>2021-10-12T16:42:21Z</time>
    </trkpt>
    <trkpt lat="38.555291025" lon="34.919998012">
      <ele>1206.907</ele>
      <time>2021-10-12T16:42:22Z</time>
    </trkpt>
    <trkpt lat="38.555264035" lon="34.919997007">
      <ele>1207.174</ele>
      <time>2021-10-12T16:42:23Z</time>
    </trkpt>
    <trkpt lat="38.555238973" lon="34.919996001">
      <ele>1207.38</ele>
      <time>2021-10-12T16:42:24Z</time>
    </trkpt>
    <trkpt lat="38.55522003" lon="34.919992983">
      <ele>1207.593</ele>
      <time>2021-10-12T16:42:25Z</time>
    </trkpt>
    <trkpt lat="38.555193963" lon="34.919993989">
      <ele>1207.755</ele>
      <time>2021-10-12T16:42:26Z</time>
    </trkpt>
    <trkpt lat="38.555166973" lon="34.919999018">
      <ele>1207.823</ele>
      <time>2021-10-12T16:42:27Z</time>
    </trkpt>
    <trkpt lat="38.555144006" lon="34.920002036">
      <ele>1207.915</ele>
      <time>2021-10-12T16:42:28Z</time>
    </trkpt>
    <trkpt lat="38.55512104" lon="34.920002036">
      <ele>1208.081</ele>
      <time>2021-10-12T16:42:29Z</time>
    </trkpt>
    <trkpt lat="38.555095978" lon="34.920000024">
      <ele>1208.308</ele>
      <time>2021-10-12T16:42:30Z</time>
    </trkpt>
    <trkpt lat="38.555072006" lon="34.920000024">
      <ele>1208.481</ele>
      <time>2021-10-12T16:42:31Z</time>
    </trkpt>
    <trkpt lat="38.555051973" lon="34.919996001">
      <ele>1208.727</ele>
      <time>2021-10-12T16:42:31Z</time>
    </trkpt>
    <trkpt lat="38.555030013" lon="34.919989966">
      <ele>1209.037</ele>
      <time>2021-10-12T16:42:32Z</time>
    </trkpt>
    <trkpt lat="38.555010986" lon="34.919989966">
      <ele>1209.174</ele>
      <time>2021-10-12T16:42:33Z</time>
    </trkpt>
    <trkpt lat="38.554989025" lon="34.91998896">
      <ele>1209.316</ele>
      <time>2021-10-12T16:42:34Z</time>
    </trkpt>
    <trkpt lat="38.554965975" lon="34.919990972">
      <ele>1209.346</ele>
      <time>2021-10-12T16:42:35Z</time>
    </trkpt>
    <trkpt lat="38.554943008" lon="34.919990972">
      <ele>1209.426</ele>
      <time>2021-10-12T16:42:35Z</time>
    </trkpt>
    <trkpt lat="38.554917024" lon="34.919986026">
      <ele>1209.636</ele>
      <time>2021-10-12T16:42:36Z</time>
    </trkpt>
    <trkpt lat="38.55489498" lon="34.919983009">
      <ele>1209.783</ele>
      <time>2021-10-12T16:42:37Z</time>
    </trkpt>
    <trkpt lat="38.554868996" lon="34.919976974">
      <ele>1210.013</ele>
      <time>2021-10-12T16:42:38Z</time>
    </trkpt>
    <trkpt lat="38.554845024" lon="34.919973034">
      <ele>1210.183</ele>
      <time>2021-10-12T16:42:39Z</time>
    </trkpt>
    <trkpt lat="38.554823985" lon="34.919964988">
      <ele>1210.436</ele>
      <time>2021-10-12T16:42:40Z</time>
    </trkpt>
    <trkpt lat="38.554802025" lon="34.919957025">
      <ele>1210.685</ele>
      <time>2021-10-12T16:42:41Z</time>
    </trkpt>
    <trkpt lat="38.55477998" lon="34.919956019">
      <ele>1210.775</ele>
      <time>2021-10-12T16:42:42Z</time>
    </trkpt>
    <trkpt lat="38.55475802" lon="34.919951996">
      <ele>1210.93</ele>
      <time>2021-10-12T16:42:42Z</time>
    </trkpt>
    <trkpt lat="38.554732036" lon="34.919945039">
      <ele>1211.159</ele>
      <time>2021-10-12T16:42:43Z</time>
    </trkpt>
    <trkpt lat="38.554706974" lon="34.91994001">
      <ele>1211.351</ele>
      <time>2021-10-12T16:42:44Z</time>
    </trkpt>
    <trkpt lat="38.554683002" lon="34.919933975">
      <ele>1211.567</ele>
      <time>2021-10-12T16:42:45Z</time>
    </trkpt>
    <trkpt lat="38.554658024" lon="34.919927018">
      <ele>1211.808</ele>
      <time>2021-10-12T16:42:46Z</time>
    </trkpt>
    <trkpt lat="38.554633968" lon="34.919916959">
      <ele>1212.111</ele>
      <time>2021-10-12T16:42:47Z</time>
    </trkpt>
    <trkpt lat="38.55460899" lon="34.919903968">
      <ele>1212.482</ele>
      <time>2021-10-12T16:42:48Z</time>
    </trkpt>
    <trkpt lat="38.554582" lon="34.919893993">
      <ele>1212.795</ele>
      <time>2021-10-12T16:42:49Z</time>
    </trkpt>
    <trkpt lat="38.554557022" lon="34.919884019">
      <ele>1213.1</ele>
      <time>2021-10-12T16:42:50Z</time>
    </trkpt>
    <trkpt lat="38.55452802" lon="34.919876978">
      <ele>1213.356</ele>
      <time>2021-10-12T16:42:51Z</time>
    </trkpt>
    <trkpt lat="38.554500025" lon="34.919870021">
      <ele>1213.607</ele>
      <time>2021-10-12T16:42:52Z</time>
    </trkpt>
    <trkpt lat="38.554473035" lon="34.919864992">
      <ele>1213.813</ele>
      <time>2021-10-12T16:42:53Z</time>
    </trkpt>
    <trkpt lat="38.554443028" lon="34.919856023">
      <ele>1214.107</ele>
      <time>2021-10-12T16:42:54Z</time>
    </trkpt>
    <trkpt lat="38.554416038" lon="34.919847976">
      <ele>1214.228</ele>
      <time>2021-10-12T16:42:55Z</time>
    </trkpt>
    <trkpt lat="38.554388965" lon="34.919839008">
      <ele>1214.362</ele>
      <time>2021-10-12T16:42:56Z</time>
    </trkpt>
    <trkpt lat="38.554359963" lon="34.919830961">
      <ele>1214.466</ele>
      <time>2021-10-12T16:42:58Z</time>
    </trkpt>
    <trkpt lat="38.554331968" lon="34.919826016">
      <ele>1214.504</ele>
      <time>2021-10-12T16:42:59Z</time>
    </trkpt>
    <trkpt lat="38.55430196" lon="34.919822998">
      <ele>1214.496</ele>
      <time>2021-10-12T16:43:00Z</time>
    </trkpt>
    <trkpt lat="38.554271031" lon="34.919821993">
      <ele>1214.445</ele>
      <time>2021-10-12T16:43:01Z</time>
    </trkpt>
    <trkpt lat="38.554244041" lon="34.919816041">
      <ele>1214.496</ele>
      <time>2021-10-12T16:43:02Z</time>
    </trkpt>
    <trkpt lat="38.55421504" lon="34.919815036">
      <ele>1214.445</ele>
      <time>2021-10-12T16:43:03Z</time>
    </trkpt>
    <trkpt lat="38.554186039" lon="34.919812018">
      <ele>1214.431</ele>
      <time>2021-10-12T16:43:04Z</time>
    </trkpt>
    <trkpt lat="38.554157959" lon="34.919806989">
      <ele>1214.462</ele>
      <time>2021-10-12T16:43:05Z</time>
    </trkpt>
    <trkpt lat="38.554129964" lon="34.91979802">
      <ele>1214.576</ele>
      <time>2021-10-12T16:43:06Z</time>
    </trkpt>
    <trkpt lat="38.554100962" lon="34.919785028">
      <ele>1214.74</ele>
      <time>2021-10-12T16:43:07Z</time>
    </trkpt>
    <trkpt lat="38.554070033" lon="34.919772036">
      <ele>1214.88</ele>
      <time>2021-10-12T16:43:08Z</time>
    </trkpt>
    <trkpt lat="38.554042038" lon="34.919755021">
      <ele>1215.067</ele>
      <time>2021-10-12T16:43:10Z</time>
    </trkpt>
    <trkpt lat="38.55401597" lon="34.919735994">
      <ele>1215.263</ele>
      <time>2021-10-12T16:43:11Z</time>
    </trkpt>
    <trkpt lat="38.553985041" lon="34.919718979">
      <ele>1215.432</ele>
      <time>2021-10-12T16:43:12Z</time>
    </trkpt>
    <trkpt lat="38.553959979" lon="34.919702969">
      <ele>1215.759</ele>
      <time>2021-10-12T16:43:13Z</time>
    </trkpt>
    <trkpt lat="38.553933995" lon="34.919686038">
      <ele>1216.095</ele>
      <time>2021-10-12T16:43:14Z</time>
    </trkpt>
    <trkpt lat="38.553908011" lon="34.919671034">
      <ele>1216.371</ele>
      <time>2021-10-12T16:43:15Z</time>
    </trkpt>
    <trkpt lat="38.553883033" lon="34.919656031">
      <ele>1216.637</ele>
      <time>2021-10-12T16:43:16Z</time>
    </trkpt>
    <trkpt lat="38.553857971" lon="34.919640021">
      <ele>1216.894</ele>
      <time>2021-10-12T16:43:17Z</time>
    </trkpt>
    <trkpt lat="38.553832993" lon="34.919629041">
      <ele>1217.012</ele>
      <time>2021-10-12T16:43:18Z</time>
    </trkpt>
    <trkpt lat="38.553810026" lon="34.919617977">
      <ele>1217.13</ele>
      <time>2021-10-12T16:43:19Z</time>
    </trkpt>
    <trkpt lat="38.55378597" lon="34.919609008">
      <ele>1217.18</ele>
      <time>2021-10-12T16:43:20Z</time>
    </trkpt>
    <trkpt lat="38.553763004" lon="34.919598028">
      <ele>1217.271</ele>
      <time>2021-10-12T16:43:21Z</time>
    </trkpt>
    <trkpt lat="38.553739032" lon="34.919592999">
      <ele>1217.215</ele>
      <time>2021-10-12T16:43:22Z</time>
    </trkpt>
    <trkpt lat="38.55371397" lon="34.919590987">
      <ele>1217.082</ele>
      <time>2021-10-12T16:43:23Z</time>
    </trkpt>
    <trkpt lat="38.553691003" lon="34.919585036">
      <ele>1217.041</ele>
      <time>2021-10-12T16:43:24Z</time>
    </trkpt>
    <trkpt lat="38.55366502" lon="34.919580007">
      <ele>1216.953</ele>
      <time>2021-10-12T16:43:25Z</time>
    </trkpt>
    <trkpt lat="38.553636018" lon="34.919574978">
      <ele>1216.835</ele>
      <time>2021-10-12T16:43:26Z</time>
    </trkpt>
    <trkpt lat="38.553611962" lon="34.919570033">
      <ele>1216.746</ele>
      <time>2021-10-12T16:43:27Z</time>
    </trkpt>
    <trkpt lat="38.553588996" lon="34.919559974">
      <ele>1216.907</ele>
      <time>2021-10-12T16:43:27Z</time>
    </trkpt>
    <trkpt lat="38.553565023" lon="34.919553017">
      <ele>1217.009</ele>
      <time>2021-10-12T16:43:28Z</time>
    </trkpt>
    <trkpt lat="38.553539962" lon="34.919545976">
      <ele>1217.104</ele>
      <time>2021-10-12T16:43:29Z</time>
    </trkpt>
    <trkpt lat="38.553515989" lon="34.919536002">
      <ele>1217.235</ele>
      <time>2021-10-12T16:43:30Z</time>
    </trkpt>
    <trkpt lat="38.553493023" lon="34.919528961">
      <ele>1217.312</ele>
      <time>2021-10-12T16:43:31Z</time>
    </trkpt>
    <trkpt lat="38.553469973" lon="34.919517981">
      <ele>1217.437</ele>
      <time>2021-10-12T16:43:32Z</time>
    </trkpt>
    <trkpt lat="38.553441977" lon="34.919513036">
      <ele>1217.457</ele>
      <time>2021-10-12T16:43:33Z</time>
    </trkpt>
    <trkpt lat="38.553416999" lon="34.919505995">
      <ele>1217.503</ele>
      <time>2021-10-12T16:43:34Z</time>
    </trkpt>
    <trkpt lat="38.553390009" lon="34.919499038">
      <ele>1217.534</ele>
      <time>2021-10-12T16:43:35Z</time>
    </trkpt>
    <trkpt lat="38.553366037" lon="34.919489985">
      <ele>1217.587</ele>
      <time>2021-10-12T16:43:36Z</time>
    </trkpt>
    <trkpt lat="38.553339969" lon="34.919483028">
      <ele>1217.601</ele>
      <time>2021-10-12T16:43:37Z</time>
    </trkpt>
    <trkpt lat="38.553313985" lon="34.919476993">
      <ele>1217.603</ele>
      <time>2021-10-12T16:43:38Z</time>
    </trkpt>
    <trkpt lat="38.553290013" lon="34.919469031">
      <ele>1217.62</ele>
      <time>2021-10-12T16:43:39Z</time>
    </trkpt>
    <trkpt lat="38.553264029" lon="34.919460984">
      <ele>1217.616</ele>
      <time>2021-10-12T16:43:40Z</time>
    </trkpt>
    <trkpt lat="38.553237962" lon="34.919456961">
      <ele>1217.568</ele>
      <time>2021-10-12T16:43:41Z</time>
    </trkpt>
    <trkpt lat="38.553214995" lon="34.919451009">
      <ele>1217.533</ele>
      <time>2021-10-12T16:43:42Z</time>
    </trkpt>
    <trkpt lat="38.553190017" lon="34.919442963">
      <ele>1217.508</ele>
      <time>2021-10-12T16:43:43Z</time>
    </trkpt>
    <trkpt lat="38.553164033" lon="34.919439023">
      <ele>1217.472</ele>
      <time>2021-10-12T16:43:44Z</time>
    </trkpt>
    <trkpt lat="38.553137966" lon="34.919432988">
      <ele>1217.457</ele>
      <time>2021-10-12T16:43:45Z</time>
    </trkpt>
    <trkpt lat="38.553116005" lon="34.919426031">
      <ele>1217.46</ele>
      <time>2021-10-12T16:43:45Z</time>
    </trkpt>
    <trkpt lat="38.553093961" lon="34.919417985">
      <ele>1217.464</ele>
      <time>2021-10-12T16:43:46Z</time>
    </trkpt>
    <trkpt lat="38.553074012" lon="34.919403987">
      <ele>1217.532</ele>
      <time>2021-10-12T16:43:47Z</time>
    </trkpt>
    <trkpt lat="38.553054985" lon="34.919395018">
      <ele>1217.537</ele>
      <time>2021-10-12T16:43:48Z</time>
    </trkpt>
    <trkpt lat="38.553035036" lon="34.919384038">
      <ele>1217.768</ele>
      <time>2021-10-12T16:43:49Z</time>
    </trkpt>
    <trkpt lat="38.553013997" lon="34.91937398">
      <ele>1217.984</ele>
      <time>2021-10-12T16:43:49Z</time>
    </trkpt>
    <trkpt lat="38.552993964" lon="34.919359982">
      <ele>1218.221</ele>
      <time>2021-10-12T16:43:50Z</time>
    </trkpt>
    <trkpt lat="38.552974015" lon="34.919342967">
      <ele>1218.469</ele>
      <time>2021-10-12T16:43:51Z</time>
    </trkpt>
    <trkpt lat="38.552955994" lon="34.919330981">
      <ele>1218.649</ele>
      <time>2021-10-12T16:43:52Z</time>
    </trkpt>
    <trkpt lat="38.552936967" lon="34.919314971">
      <ele>1218.854</ele>
      <time>2021-10-12T16:43:53Z</time>
    </trkpt>
    <trkpt lat="38.55291903" lon="34.919306003">
      <ele>1218.988</ele>
      <time>2021-10-12T16:43:54Z</time>
    </trkpt>
    <trkpt lat="38.552901009" lon="34.919296028">
      <ele>1219.121</ele>
      <time>2021-10-12T16:43:54Z</time>
    </trkpt>
    <trkpt lat="38.552882988" lon="34.91928203">
      <ele>1219.27</ele>
      <time>2021-10-12T16:43:55Z</time>
    </trkpt>
    <trkpt lat="38.552863039" lon="34.919267027">
      <ele>1219.417</ele>
      <time>2021-10-12T16:43:56Z</time>
    </trkpt>
    <trkpt lat="38.552825991" lon="34.919244982">
      <ele>1219.62</ele>
      <time>2021-10-12T16:43:57Z</time>
    </trkpt>
    <trkpt lat="38.552806964" lon="34.919235008">
      <ele>1219.702</ele>
      <time>2021-10-12T16:43:58Z</time>
    </trkpt>
    <trkpt lat="38.552790033" lon="34.919224028">
      <ele>1219.775</ele>
      <time>2021-10-12T16:43:59Z</time>
    </trkpt>
    <trkpt lat="38.55277" lon="34.91921003">
      <ele>1219.9</ele>
      <time>2021-10-12T16:44:00Z</time>
    </trkpt>
    <trkpt lat="38.552753991" lon="34.919199971">
      <ele>1220.051</ele>
      <time>2021-10-12T16:44:00Z</time>
    </trkpt>
    <trkpt lat="38.552735969" lon="34.919187985">
      <ele>1220.224</ele>
      <time>2021-10-12T16:44:01Z</time>
    </trkpt>
    <trkpt lat="38.55271602" lon="34.919178011">
      <ele>1220.404</ele>
      <time>2021-10-12T16:44:02Z</time>
    </trkpt>
    <trkpt lat="38.552696994" lon="34.919168036">
      <ele>1220.577</ele>
      <time>2021-10-12T16:44:03Z</time>
    </trkpt>
    <trkpt lat="38.552676961" lon="34.919158984">
      <ele>1220.771</ele>
      <time>2021-10-12T16:44:03Z</time>
    </trkpt>
    <trkpt lat="38.552652989" lon="34.919151021">
      <ele>1220.986</ele>
      <time>2021-10-12T16:44:04Z</time>
    </trkpt>
    <trkpt lat="38.552631028" lon="34.919141969">
      <ele>1221.187</ele>
      <time>2021-10-12T16:44:05Z</time>
    </trkpt>
    <trkpt lat="38.552605966" lon="34.919130988">
      <ele>1221.414</ele>
      <time>2021-10-12T16:44:06Z</time>
    </trkpt>
    <trkpt lat="38.552586017" lon="34.919114979">
      <ele>1221.624</ele>
      <time>2021-10-12T16:44:07Z</time>
    </trkpt>
    <trkpt lat="38.552560033" lon="34.919101987">
      <ele>1221.851</ele>
      <time>2021-10-12T16:44:08Z</time>
    </trkpt>
    <trkpt lat="38.552537989" lon="34.919094024">
      <ele>1222.024</ele>
      <time>2021-10-12T16:44:09Z</time>
    </trkpt>
    <trkpt lat="38.55251804" lon="34.919087989">
      <ele>1222.172</ele>
      <time>2021-10-12T16:44:10Z</time>
    </trkpt>
    <trkpt lat="38.552495996" lon="34.919078015">
      <ele>1222.377</ele>
      <time>2021-10-12T16:44:11Z</time>
    </trkpt>
    <trkpt lat="38.552477974" lon="34.919067034">
      <ele>1222.676</ele>
      <time>2021-10-12T16:44:11Z</time>
    </trkpt>
    <trkpt lat="38.552451991" lon="34.919061">
      <ele>1223.072</ele>
      <time>2021-10-12T16:44:12Z</time>
    </trkpt>
    <trkpt lat="38.55243003" lon="34.919053037">
      <ele>1223.417</ele>
      <time>2021-10-12T16:44:13Z</time>
    </trkpt>
    <trkpt lat="38.552408991" lon="34.919045996">
      <ele>1223.745</ele>
      <time>2021-10-12T16:44:14Z</time>
    </trkpt>
    <trkpt lat="38.552388959" lon="34.919035016">
      <ele>1224.073</ele>
      <time>2021-10-12T16:44:15Z</time>
    </trkpt>
    <trkpt lat="38.552370016" lon="34.91902303">
      <ele>1224.389</ele>
      <time>2021-10-12T16:44:16Z</time>
    </trkpt>
    <trkpt lat="38.552349983" lon="34.919012971">
      <ele>1224.714</ele>
      <time>2021-10-12T16:44:16Z</time>
    </trkpt>
    <trkpt lat="38.552331962" lon="34.918999979">
      <ele>1225.02</ele>
      <time>2021-10-12T16:44:17Z</time>
    </trkpt>
    <trkpt lat="38.552311007" lon="34.918990005">
      <ele>1225.357</ele>
      <time>2021-10-12T16:44:18Z</time>
    </trkpt>
    <trkpt lat="38.55229198" lon="34.91898003">
      <ele>1225.667</ele>
      <time>2021-10-12T16:44:19Z</time>
    </trkpt>
    <trkpt lat="38.552259961" lon="34.918953963">
      <ele>1226.222</ele>
      <time>2021-10-12T16:44:20Z</time>
    </trkpt>
    <trkpt lat="38.552244036" lon="34.918940971">
      <ele>1226.498</ele>
      <time>2021-10-12T16:44:21Z</time>
    </trkpt>
    <trkpt lat="38.552226014" lon="34.918923033">
      <ele>1226.822</ele>
      <time>2021-10-12T16:44:22Z</time>
    </trkpt>
    <trkpt lat="38.552205982" lon="34.918904006">
      <ele>1227.176</ele>
      <time>2021-10-12T16:44:23Z</time>
    </trkpt>
    <trkpt lat="38.552184021" lon="34.918883974">
      <ele>1227.568</ele>
      <time>2021-10-12T16:44:24Z</time>
    </trkpt>
    <trkpt lat="38.552168012" lon="34.918860001">
      <ele>1227.885</ele>
      <time>2021-10-12T16:44:25Z</time>
    </trkpt>
    <trkpt lat="38.552150996" lon="34.918836029">
      <ele>1228.216</ele>
      <time>2021-10-12T16:44:25Z</time>
    </trkpt>
    <trkpt lat="38.552136999" lon="34.918813985">
      <ele>1228.497</ele>
      <time>2021-10-12T16:44:26Z</time>
    </trkpt>
    <trkpt lat="38.552123001" lon="34.918795042">
      <ele>1228.767</ele>
      <time>2021-10-12T16:44:27Z</time>
    </trkpt>
    <trkpt lat="38.552110009" lon="34.918772997">
      <ele>1229.033</ele>
      <time>2021-10-12T16:44:28Z</time>
    </trkpt>
    <trkpt lat="38.552096011" lon="34.918751959">
      <ele>1229.31</ele>
      <time>2021-10-12T16:44:29Z</time>
    </trkpt>
    <trkpt lat="38.552081008" lon="34.918725975">
      <ele>1229.62</ele>
      <time>2021-10-12T16:44:30Z</time>
    </trkpt>
    <trkpt lat="38.55206701" lon="34.918706026">
      <ele>1229.893</ele>
      <time>2021-10-12T16:44:30Z</time>
    </trkpt>
    <trkpt lat="38.552053012" lon="34.918683982">
      <ele>1230.174</ele>
      <time>2021-10-12T16:44:31Z</time>
    </trkpt>
    <trkpt lat="38.552031973" lon="34.918665038">
      <ele>1230.545</ele>
      <time>2021-10-12T16:44:32Z</time>
    </trkpt>
    <trkpt lat="38.55201697" lon="34.918642994">
      <ele>1230.841</ele>
      <time>2021-10-12T16:44:33Z</time>
    </trkpt>
    <trkpt lat="38.55200096" lon="34.918621033">
      <ele>1231.15</ele>
      <time>2021-10-12T16:44:34Z</time>
    </trkpt>
    <trkpt lat="38.551984029" lon="34.918599995">
      <ele>1231.441</ele>
      <time>2021-10-12T16:44:35Z</time>
    </trkpt>
    <trkpt lat="38.551966008" lon="34.91858298">
      <ele>1231.705</ele>
      <time>2021-10-12T16:44:36Z</time>
    </trkpt>
    <trkpt lat="38.551945975" lon="34.918556996">
      <ele>1231.98</ele>
      <time>2021-10-12T16:44:37Z</time>
    </trkpt>
    <trkpt lat="38.551926026" lon="34.918536041">
      <ele>1232.133</ele>
      <time>2021-10-12T16:44:38Z</time>
    </trkpt>
    <trkpt lat="38.551912028" lon="34.918516008">
      <ele>1232.233</ele>
      <time>2021-10-12T16:44:38Z</time>
    </trkpt>
    <trkpt lat="38.551896019" lon="34.918493042">
      <ele>1232.349</ele>
      <time>2021-10-12T16:44:39Z</time>
    </trkpt>
    <trkpt lat="38.551881015" lon="34.918470997">
      <ele>1232.457</ele>
      <time>2021-10-12T16:44:40Z</time>
    </trkpt>
    <trkpt lat="38.551861988" lon="34.918447025">
      <ele>1232.594</ele>
      <time>2021-10-12T16:44:41Z</time>
    </trkpt>
    <trkpt lat="38.551843967" lon="34.918429004">
      <ele>1232.723</ele>
      <time>2021-10-12T16:44:42Z</time>
    </trkpt>
    <trkpt lat="38.551828964" lon="34.918412995">
      <ele>1232.831</ele>
      <time>2021-10-12T16:44:43Z</time>
    </trkpt>
    <trkpt lat="38.551813038" lon="34.918392962">
      <ele>1232.946</ele>
      <time>2021-10-12T16:44:43Z</time>
    </trkpt>
    <trkpt lat="38.551798034" lon="34.918373013">
      <ele>1233.054</ele>
      <time>2021-10-12T16:44:44Z</time>
    </trkpt>
    <trkpt lat="38.551781019" lon="34.918351974">
      <ele>1233.177</ele>
      <time>2021-10-12T16:44:45Z</time>
    </trkpt>
    <trkpt lat="38.551761992" lon="34.918330014">
      <ele>1233.314</ele>
      <time>2021-10-12T16:44:46Z</time>
    </trkpt>
    <trkpt lat="38.551744977" lon="34.918309981">
      <ele>1233.436</ele>
      <time>2021-10-12T16:44:47Z</time>
    </trkpt>
    <trkpt lat="38.551725028" lon="34.918293972">
      <ele>1233.58</ele>
      <time>2021-10-12T16:44:48Z</time>
    </trkpt>
    <trkpt lat="38.551706001" lon="34.918269999">
      <ele>1233.717</ele>
      <time>2021-10-12T16:44:49Z</time>
    </trkpt>
    <trkpt lat="38.551684041" lon="34.918249967">
      <ele>1233.875</ele>
      <time>2021-10-12T16:44:50Z</time>
    </trkpt>
    <trkpt lat="38.55162696" lon="34.91820504">
      <ele>1234.22</ele>
      <time>2021-10-12T16:44:52Z</time>
    </trkpt>
    <trkpt lat="38.551603993" lon="34.918184001">
      <ele>1234.33</ele>
      <time>2021-10-12T16:44:53Z</time>
    </trkpt>
    <trkpt lat="38.551553031" lon="34.918152988">
      <ele>1234.553</ele>
      <time>2021-10-12T16:44:55Z</time>
    </trkpt>
    <trkpt lat="38.551531993" lon="34.918139996">
      <ele>1234.632</ele>
      <time>2021-10-12T16:44:56Z</time>
    </trkpt>
    <trkpt lat="38.551511038" lon="34.918121975">
      <ele>1234.694</ele>
      <time>2021-10-12T16:44:57Z</time>
    </trkpt>
    <trkpt lat="38.551485976" lon="34.918108983">
      <ele>1234.776</ele>
      <time>2021-10-12T16:44:58Z</time>
    </trkpt>
    <trkpt lat="38.551384974" lon="34.918058021">
      <ele>1235.023</ele>
      <time>2021-10-12T16:45:02Z</time>
    </trkpt>
    <trkpt lat="38.551357985" lon="34.918042012">
      <ele>1235.062</ele>
      <time>2021-10-12T16:45:03Z</time>
    </trkpt>
    <trkpt lat="38.551333006" lon="34.918026002">
      <ele>1235.095</ele>
      <time>2021-10-12T16:45:04Z</time>
    </trkpt>
    <trkpt lat="38.551283972" lon="34.917995995">
      <ele>1235.163</ele>
      <time>2021-10-12T16:45:06Z</time>
    </trkpt>
    <trkpt lat="38.551263018" lon="34.917979985">
      <ele>1235.181</ele>
      <time>2021-10-12T16:45:07Z</time>
    </trkpt>
    <trkpt lat="38.551242985" lon="34.917959031">
      <ele>1235.178</ele>
      <time>2021-10-12T16:45:08Z</time>
    </trkpt>
    <trkpt lat="38.551218007" lon="34.917940004">
      <ele>1235.199</ele>
      <time>2021-10-12T16:45:09Z</time>
    </trkpt>
    <trkpt lat="38.551195962" lon="34.91791402">
      <ele>1235.185</ele>
      <time>2021-10-12T16:45:10Z</time>
    </trkpt>
    <trkpt lat="38.551176013" lon="34.91789097">
      <ele>1235.174</ele>
      <time>2021-10-12T16:45:11Z</time>
    </trkpt>
    <trkpt lat="38.551156987" lon="34.917870015">
      <ele>1235.167</ele>
      <time>2021-10-12T16:45:12Z</time>
    </trkpt>
    <trkpt lat="38.551139971" lon="34.917845037">
      <ele>1235.138</ele>
      <time>2021-10-12T16:45:13Z</time>
    </trkpt>
    <trkpt lat="38.551122034" lon="34.917823998">
      <ele>1235.127</ele>
      <time>2021-10-12T16:45:14Z</time>
    </trkpt>
    <trkpt lat="38.551105019" lon="34.917798014">
      <ele>1235.115</ele>
      <time>2021-10-12T16:45:15Z</time>
    </trkpt>
    <trkpt lat="38.551089009" lon="34.917778987">
      <ele>1235.163</ele>
      <time>2021-10-12T16:45:16Z</time>
    </trkpt>
    <trkpt lat="38.551074006" lon="34.917755015">
      <ele>1235.267</ele>
      <time>2021-10-12T16:45:17Z</time>
    </trkpt>
    <trkpt lat="38.551055985" lon="34.917730037">
      <ele>1235.397</ele>
      <time>2021-10-12T16:45:18Z</time>
    </trkpt>
    <trkpt lat="38.551037041" lon="34.917704975">
      <ele>1235.533</ele>
      <time>2021-10-12T16:45:19Z</time>
    </trkpt>
    <trkpt lat="38.551013991" lon="34.917679997">
      <ele>1235.699</ele>
      <time>2021-10-12T16:45:20Z</time>
    </trkpt>
    <trkpt lat="38.550993958" lon="34.917647978">
      <ele>1235.843</ele>
      <time>2021-10-12T16:45:21Z</time>
    </trkpt>
    <trkpt lat="38.550973004" lon="34.917618977">
      <ele>1235.994</ele>
      <time>2021-10-12T16:45:22Z</time>
    </trkpt>
    <trkpt lat="38.550951965" lon="34.917595005">
      <ele>1236.146</ele>
      <time>2021-10-12T16:45:23Z</time>
    </trkpt>
    <trkpt lat="38.550930005" lon="34.917569021">
      <ele>1236.304</ele>
      <time>2021-10-12T16:45:25Z</time>
    </trkpt>
    <trkpt lat="38.550905026" lon="34.917546976">
      <ele>1236.484</ele>
      <time>2021-10-12T16:45:26Z</time>
    </trkpt>
    <trkpt lat="38.550820034" lon="34.917451004">
      <ele>1237.0</ele>
      <time>2021-10-12T16:45:30Z</time>
    </trkpt>
    <trkpt lat="38.550802013" lon="34.917429965">
      <ele>1237.0</ele>
      <time>2021-10-12T16:45:31Z</time>
    </trkpt>
    <trkpt lat="38.55078198" lon="34.91740901">
      <ele>1237.0</ele>
      <time>2021-10-12T16:45:32Z</time>
    </trkpt>
    <trkpt lat="38.550761025" lon="34.917387972">
      <ele>1237.0</ele>
      <time>2021-10-12T16:45:33Z</time>
    </trkpt>
    <trkpt lat="38.550738981" lon="34.917370034">
      <ele>1237.0</ele>
      <time>2021-10-12T16:45:34Z</time>
    </trkpt>
    <trkpt lat="38.550715009" lon="34.917354025">
      <ele>1237.0</ele>
      <time>2021-10-12T16:45:35Z</time>
    </trkpt>
    <trkpt lat="38.55069397" lon="34.917333992">
      <ele>1237.0</ele>
      <time>2021-10-12T16:45:36Z</time>
    </trkpt>
    <trkpt lat="38.550676033" lon="34.917316977">
      <ele>1237.0</ele>
      <time>2021-10-12T16:45:36Z</time>
    </trkpt>
    <trkpt lat="38.550659018" lon="34.917303985">
      <ele>1237.0</ele>
      <time>2021-10-12T16:45:37Z</time>
    </trkpt>
    <trkpt lat="38.550643008" lon="34.91728697">
      <ele>1237.0</ele>
      <time>2021-10-12T16:45:38Z</time>
    </trkpt>
    <trkpt lat="38.550625993" lon="34.917268027">
      <ele>1237.0</ele>
      <time>2021-10-12T16:45:39Z</time>
    </trkpt>
    <trkpt lat="38.550607972" lon="34.917245982">
      <ele>1237.0</ele>
      <time>2021-10-12T16:45:40Z</time>
    </trkpt>
    <trkpt lat="38.550591962" lon="34.917225027">
      <ele>1237.0</ele>
      <time>2021-10-12T16:45:41Z</time>
    </trkpt>
    <trkpt lat="38.550575031" lon="34.917201977">
      <ele>1237.068</ele>
      <time>2021-10-12T16:45:42Z</time>
    </trkpt>
    <trkpt lat="38.550559022" lon="34.917180017">
      <ele>1237.15</ele>
      <time>2021-10-12T16:45:42Z</time>
    </trkpt>
    <trkpt lat="38.550544018" lon="34.917157972">
      <ele>1237.273</ele>
      <time>2021-10-12T16:45:43Z</time>
    </trkpt>
    <trkpt lat="38.550527003" lon="34.917136012">
      <ele>1237.413</ele>
      <time>2021-10-12T16:45:44Z</time>
    </trkpt>
    <trkpt lat="38.550510993" lon="34.917116985">
      <ele>1237.539</ele>
      <time>2021-10-12T16:45:45Z</time>
    </trkpt>
    <trkpt lat="38.550491966" lon="34.917098042">
      <ele>1237.676</ele>
      <time>2021-10-12T16:45:46Z</time>
    </trkpt>
    <trkpt lat="38.550473023" lon="34.917078009">
      <ele>1237.816</ele>
      <time>2021-10-12T16:45:47Z</time>
    </trkpt>
    <trkpt lat="38.55045299" lon="34.917063005">
      <ele>1237.942</ele>
      <time>2021-10-12T16:45:48Z</time>
    </trkpt>
    <trkpt lat="38.550436981" lon="34.917043978">
      <ele>1238.069</ele>
      <time>2021-10-12T16:45:48Z</time>
    </trkpt>
    <trkpt lat="38.550418038" lon="34.917024029">
      <ele>1238.209</ele>
      <time>2021-10-12T16:45:49Z</time>
    </trkpt>
    <trkpt lat="38.550393982" lon="34.917007014">
      <ele>1238.356</ele>
      <time>2021-10-12T16:45:50Z</time>
    </trkpt>
    <trkpt lat="38.550375961" lon="34.916986981">
      <ele>1238.493</ele>
      <time>2021-10-12T16:45:51Z</time>
    </trkpt>
    <trkpt lat="38.550358023" lon="34.916971978">
      <ele>1238.612</ele>
      <time>2021-10-12T16:45:52Z</time>
    </trkpt>
    <trkpt lat="38.550338997" lon="34.91695798">
      <ele>1238.731</ele>
      <time>2021-10-12T16:45:53Z</time>
    </trkpt>
    <trkpt lat="38.55031997" lon="34.916940965">
      <ele>1238.871</ele>
      <time>2021-10-12T16:45:54Z</time>
    </trkpt>
    <trkpt lat="38.550303038" lon="34.916923027">
      <ele>1239.056</ele>
      <time>2021-10-12T16:45:55Z</time>
    </trkpt>
    <trkpt lat="38.550286023" lon="34.916910036">
      <ele>1239.214</ele>
      <time>2021-10-12T16:45:55Z</time>
    </trkpt>
    <trkpt lat="38.550272025" lon="34.916890003">
      <ele>1239.433</ele>
      <time>2021-10-12T16:45:56Z</time>
    </trkpt>
    <trkpt lat="38.55025501" lon="34.916877011">
      <ele>1239.649</ele>
      <time>2021-10-12T16:45:57Z</time>
    </trkpt>
    <trkpt lat="38.550236989" lon="34.916870976">
      <ele>1239.823</ele>
      <time>2021-10-12T16:45:57Z</time>
    </trkpt>
    <trkpt lat="38.550203964" lon="34.91685899">
      <ele>1240.147</ele>
      <time>2021-10-12T16:45:59Z</time>
    </trkpt>
    <trkpt lat="38.550168006" lon="34.916850021">
      <ele>1240.47</ele>
      <time>2021-10-12T16:46:00Z</time>
    </trkpt>
    <trkpt lat="38.550147973" lon="34.916850021">
      <ele>1240.614</ele>
      <time>2021-10-12T16:46:01Z</time>
    </trkpt>
    <trkpt lat="38.550126012" lon="34.916848009">
      <ele>1240.787</ele>
      <time>2021-10-12T16:46:02Z</time>
    </trkpt>
    <trkpt lat="38.550107991" lon="34.916843986">
      <ele>1240.946</ele>
      <time>2021-10-12T16:46:02Z</time>
    </trkpt>
    <trkpt lat="38.550087037" lon="34.916839041">
      <ele>1241.132</ele>
      <time>2021-10-12T16:46:03Z</time>
    </trkpt>
    <trkpt lat="38.550062981" lon="34.916836023">
      <ele>1241.327</ele>
      <time>2021-10-12T16:46:04Z</time>
    </trkpt>
    <trkpt lat="38.550038002" lon="34.916832">
      <ele>1241.536</ele>
      <time>2021-10-12T16:46:05Z</time>
    </trkpt>
    <trkpt lat="38.55001797" lon="34.916828983">
      <ele>1241.702</ele>
      <time>2021-10-12T16:46:06Z</time>
    </trkpt>
    <trkpt lat="38.54999098" lon="34.916828983">
      <ele>1241.896</ele>
      <time>2021-10-12T16:46:07Z</time>
    </trkpt>
    <trkpt lat="38.549961979" lon="34.916832">
      <ele>1242.083</ele>
      <time>2021-10-12T16:46:08Z</time>
    </trkpt>
    <trkpt lat="38.549866006" lon="34.916850021">
      <ele>1242.645</ele>
      <time>2021-10-12T16:46:11Z</time>
    </trkpt>
    <trkpt lat="38.549842034" lon="34.916852033">
      <ele>1242.803</ele>
      <time>2021-10-12T16:46:12Z</time>
    </trkpt>
    <trkpt lat="38.54981496" lon="34.916852033">
      <ele>1242.998</ele>
      <time>2021-10-12T16:46:13Z</time>
    </trkpt>
    <trkpt lat="38.549789982" lon="34.916855972">
      <ele>1243.149</ele>
      <time>2021-10-12T16:46:14Z</time>
    </trkpt>
    <trkpt lat="38.54976601" lon="34.916862007">
      <ele>1243.278</ele>
      <time>2021-10-12T16:46:15Z</time>
    </trkpt>
    <trkpt lat="38.549743965" lon="34.91686997">
      <ele>1243.38</ele>
      <time>2021-10-12T16:46:16Z</time>
    </trkpt>
    <trkpt lat="38.549725022" lon="34.916876005">
      <ele>1243.473</ele>
      <time>2021-10-12T16:46:17Z</time>
    </trkpt>
    <trkpt lat="38.549702978" lon="34.916883968">
      <ele>1243.505</ele>
      <time>2021-10-12T16:46:17Z</time>
    </trkpt>
    <trkpt lat="38.549681017" lon="34.916891009">
      <ele>1243.533</ele>
      <time>2021-10-12T16:46:18Z</time>
    </trkpt>
    <trkpt lat="38.549657967" lon="34.916900983">
      <ele>1243.544</ele>
      <time>2021-10-12T16:46:19Z</time>
    </trkpt>
    <trkpt lat="38.549637012" lon="34.916902995">
      <ele>1243.605</ele>
      <time>2021-10-12T16:46:20Z</time>
    </trkpt>
    <trkpt lat="38.549615974" lon="34.916910036">
      <ele>1243.63</ele>
      <time>2021-10-12T16:46:21Z</time>
    </trkpt>
    <trkpt lat="38.549595019" lon="34.916921016">
      <ele>1243.627</ele>
      <time>2021-10-12T16:46:22Z</time>
    </trkpt>
    <trkpt lat="38.549574986" lon="34.91693099">
      <ele>1243.627</ele>
      <time>2021-10-12T16:46:22Z</time>
    </trkpt>
    <trkpt lat="38.549551014" lon="34.916945994">
      <ele>1243.602</ele>
      <time>2021-10-12T16:46:23Z</time>
    </trkpt>
    <trkpt lat="38.549529975" lon="34.916959992">
      <ele>1243.541</ele>
      <time>2021-10-12T16:46:24Z</time>
    </trkpt>
    <trkpt lat="38.54950198" lon="34.916977007">
      <ele>1243.465</ele>
      <time>2021-10-12T16:46:25Z</time>
    </trkpt>
    <trkpt lat="38.549478007" lon="34.916991005">
      <ele>1243.397</ele>
      <time>2021-10-12T16:46:26Z</time>
    </trkpt>
    <trkpt lat="38.549453029" lon="34.917006008">
      <ele>1243.311</ele>
      <time>2021-10-12T16:46:27Z</time>
    </trkpt>
    <trkpt lat="38.549426962" lon="34.917021012">
      <ele>1243.11</ele>
      <time>2021-10-12T16:46:29Z</time>
    </trkpt>
    <trkpt lat="38.549406007" lon="34.917030986">
      <ele>1242.927</ele>
      <time>2021-10-12T16:46:29Z</time>
    </trkpt>
    <trkpt lat="38.54938698" lon="34.917040961">
      <ele>1242.751</ele>
      <time>2021-10-12T16:46:30Z</time>
    </trkpt>
    <trkpt lat="38.549369965" lon="34.917050013">
      <ele>1242.592</ele>
      <time>2021-10-12T16:46:31Z</time>
    </trkpt>
    <trkpt lat="38.549346998" lon="34.91706904">
      <ele>1242.304</ele>
      <time>2021-10-12T16:46:32Z</time>
    </trkpt>
    <trkpt lat="38.54932202" lon="34.917086978">
      <ele>1242.02</ele>
      <time>2021-10-12T16:46:33Z</time>
    </trkpt>
    <trkpt lat="38.549297964" lon="34.917103993">
      <ele>1241.75</ele>
      <time>2021-10-12T16:46:34Z</time>
    </trkpt>
    <trkpt lat="38.549266029" lon="34.917122014">
      <ele>1241.44</ele>
      <time>2021-10-12T16:46:35Z</time>
    </trkpt>
    <trkpt lat="38.549233004" lon="34.91714498">
      <ele>1241.073</ele>
      <time>2021-10-12T16:46:37Z</time>
    </trkpt>
    <trkpt lat="38.549200986" lon="34.917165013">
      <ele>1240.741</ele>
      <time>2021-10-12T16:46:38Z</time>
    </trkpt>
    <trkpt lat="38.549168967" lon="34.917182028">
      <ele>1240.442</ele>
      <time>2021-10-12T16:46:39Z</time>
    </trkpt>
    <trkpt lat="38.549138959" lon="34.917197032">
      <ele>1240.372</ele>
      <time>2021-10-12T16:46:40Z</time>
    </trkpt>
    <trkpt lat="38.549110964" lon="34.91721103">
      <ele>1240.321</ele>
      <time>2021-10-12T16:46:41Z</time>
    </trkpt>
    <trkpt lat="38.549082968" lon="34.917229973">
      <ele>1240.254</ele>
      <time>2021-10-12T16:46:43Z</time>
    </trkpt>
    <trkpt lat="38.549055979" lon="34.917243971">
      <ele>1240.273</ele>
      <time>2021-10-12T16:46:44Z</time>
    </trkpt>
    <trkpt lat="38.549025971" lon="34.91725998">
      <ele>1240.303</ele>
      <time>2021-10-12T16:46:45Z</time>
    </trkpt>
    <trkpt lat="38.548997976" lon="34.917275989">
      <ele>1240.338</ele>
      <time>2021-10-12T16:46:46Z</time>
    </trkpt>
    <trkpt lat="38.548967969" lon="34.917291999">
      <ele>1240.393</ele>
      <time>2021-10-12T16:46:47Z</time>
    </trkpt>
    <trkpt lat="38.548939973" lon="34.917312032">
      <ele>1240.433</ele>
      <time>2021-10-12T16:46:48Z</time>
    </trkpt>
    <trkpt lat="38.548916001" lon="34.917325024">
      <ele>1240.496</ele>
      <time>2021-10-12T16:46:49Z</time>
    </trkpt>
    <trkpt lat="38.548892029" lon="34.917338016">
      <ele>1240.567</ele>
      <time>2021-10-12T16:46:50Z</time>
    </trkpt>
    <trkpt lat="38.548867973" lon="34.917351007">
      <ele>1240.838</ele>
      <time>2021-10-12T16:46:51Z</time>
    </trkpt>
    <trkpt lat="38.548845006" lon="34.917365005">
      <ele>1241.118</ele>
      <time>2021-10-12T16:46:52Z</time>
    </trkpt>
    <trkpt lat="38.548820028" lon="34.917380009">
      <ele>1241.424</ele>
      <time>2021-10-12T16:46:53Z</time>
    </trkpt>
    <trkpt lat="38.548795972" lon="34.917394007">
      <ele>1241.72</ele>
      <time>2021-10-12T16:46:54Z</time>
    </trkpt>
    <trkpt lat="38.548778035" lon="34.917403981">
      <ele>1241.942</ele>
      <time>2021-10-12T16:46:55Z</time>
    </trkpt>
    <trkpt lat="38.548759008" lon="34.917415967">
      <ele>1242.173</ele>
      <time>2021-10-12T16:46:56Z</time>
    </trkpt>
    <trkpt lat="38.548739981" lon="34.917427031">
      <ele>1242.407</ele>
      <time>2021-10-12T16:46:57Z</time>
    </trkpt>
    <trkpt lat="38.548719026" lon="34.917438012">
      <ele>1242.669</ele>
      <time>2021-10-12T16:46:57Z</time>
    </trkpt>
    <trkpt lat="38.548703017" lon="34.91744698">
      <ele>1242.867</ele>
      <time>2021-10-12T16:46:58Z</time>
    </trkpt>
    <trkpt lat="38.548681978" lon="34.917457961">
      <ele>1243.131</ele>
      <time>2021-10-12T16:46:59Z</time>
    </trkpt>
    <trkpt lat="38.548654988" lon="34.91747397">
      <ele>1243.462</ele>
      <time>2021-10-12T16:47:00Z</time>
    </trkpt>
    <trkpt lat="38.548632022" lon="34.917488974">
      <ele>1243.739</ele>
      <time>2021-10-12T16:47:01Z</time>
    </trkpt>
    <trkpt lat="38.548605032" lon="34.917501966">
      <ele>1244.052</ele>
      <time>2021-10-12T16:47:02Z</time>
    </trkpt>
    <trkpt lat="38.548577037" lon="34.917516969">
      <ele>1244.246</ele>
      <time>2021-10-12T16:47:03Z</time>
    </trkpt>
    <trkpt lat="38.548549963" lon="34.917533984">
      <ele>1244.416</ele>
      <time>2021-10-12T16:47:04Z</time>
    </trkpt>
    <trkpt lat="38.548520962" lon="34.917552005">
      <ele>1244.599</ele>
      <time>2021-10-12T16:47:05Z</time>
    </trkpt>
    <trkpt lat="38.548493972" lon="34.917569021">
      <ele>1244.768</ele>
      <time>2021-10-12T16:47:07Z</time>
    </trkpt>
    <trkpt lat="38.548466982" lon="34.91758503">
      <ele>1244.944</ele>
      <time>2021-10-12T16:47:08Z</time>
    </trkpt>
    <trkpt lat="38.548438987" lon="34.917600034">
      <ele>1245.139</ele>
      <time>2021-10-12T16:47:09Z</time>
    </trkpt>
    <trkpt lat="38.548415015" lon="34.917611014">
      <ele>1245.319</ele>
      <time>2021-10-12T16:47:10Z</time>
    </trkpt>
    <trkpt lat="38.548390036" lon="34.917621994">
      <ele>1245.509</ele>
      <time>2021-10-12T16:47:11Z</time>
    </trkpt>
    <trkpt lat="38.548364975" lon="34.917630963">
      <ele>1245.715</ele>
      <time>2021-10-12T16:47:12Z</time>
    </trkpt>
    <trkpt lat="38.548339996" lon="34.917641021">
      <ele>1245.913</ele>
      <time>2021-10-12T16:47:13Z</time>
    </trkpt>
    <trkpt lat="38.548316024" lon="34.917654013">
      <ele>1245.863</ele>
      <time>2021-10-12T16:47:14Z</time>
    </trkpt>
    <trkpt lat="38.548294986" lon="34.917667005">
      <ele>1245.743</ele>
      <time>2021-10-12T16:47:14Z</time>
    </trkpt>
    <trkpt lat="38.548274031" lon="34.917683015">
      <ele>1245.609</ele>
      <time>2021-10-12T16:47:15Z</time>
    </trkpt>
    <trkpt lat="38.548247963" lon="34.917702964">
      <ele>1245.456</ele>
      <time>2021-10-12T16:47:17Z</time>
    </trkpt>
    <trkpt lat="38.548224997" lon="34.917718973">
      <ele>1245.341</ele>
      <time>2021-10-12T16:47:17Z</time>
    </trkpt>
    <trkpt lat="38.54820203" lon="34.917738">
      <ele>1245.219</ele>
      <time>2021-10-12T16:47:18Z</time>
    </trkpt>
    <trkpt lat="38.548177974" lon="34.917761972">
      <ele>1245.082</ele>
      <time>2021-10-12T16:47:20Z</time>
    </trkpt>
    <trkpt lat="38.548159031" lon="34.917789968">
      <ele>1244.912</ele>
      <time>2021-10-12T16:47:21Z</time>
    </trkpt>
    <trkpt lat="38.548142016" lon="34.917821987">
      <ele>1244.682</ele>
      <time>2021-10-12T16:47:22Z</time>
    </trkpt>
    <trkpt lat="38.548121983" lon="34.917856017">
      <ele>1244.437</ele>
      <time>2021-10-12T16:47:23Z</time>
    </trkpt>
    <trkpt lat="38.548108991" lon="34.91789097">
      <ele>1244.185</ele>
      <time>2021-10-12T16:47:24Z</time>
    </trkpt>
    <trkpt lat="38.548097005" lon="34.917931035">
      <ele>1243.897</ele>
      <time>2021-10-12T16:47:25Z</time>
    </trkpt>
    <trkpt lat="38.548085019" lon="34.917974034">
      <ele>1243.587</ele>
      <time>2021-10-12T16:47:27Z</time>
    </trkpt>
    <trkpt lat="38.548075967" lon="34.918015022">
      <ele>1243.292</ele>
      <time>2021-10-12T16:47:28Z</time>
    </trkpt>
    <trkpt lat="38.548060963" lon="34.918059027">
      <ele>1242.975</ele>
      <time>2021-10-12T16:47:29Z</time>
    </trkpt>
    <trkpt lat="38.548049983" lon="34.918095991">
      <ele>1242.669</ele>
      <time>2021-10-12T16:47:31Z</time>
    </trkpt>
    <trkpt lat="38.548044031" lon="34.918132033">
      <ele>1242.366</ele>
      <time>2021-10-12T16:47:32Z</time>
    </trkpt>
    <trkpt lat="38.548036991" lon="34.918171009">
      <ele>1242.035</ele>
      <time>2021-10-12T16:47:33Z</time>
    </trkpt>
    <trkpt lat="38.54803104" lon="34.918214008">
      <ele>1241.683</ele>
      <time>2021-10-12T16:47:34Z</time>
    </trkpt>
    <trkpt lat="38.548021987" lon="34.918258013">
      <ele>1241.301</ele>
      <time>2021-10-12T16:47:35Z</time>
    </trkpt>
    <trkpt lat="38.548014024" lon="34.918300007">
      <ele>1240.941</ele>
      <time>2021-10-12T16:47:37Z</time>
    </trkpt>
    <trkpt lat="38.548001032" lon="34.918342">
      <ele>1240.508</ele>
      <time>2021-10-12T16:47:38Z</time>
    </trkpt>
    <trkpt lat="38.547986029" lon="34.918377036">
      <ele>1239.988</ele>
      <time>2021-10-12T16:47:39Z</time>
    </trkpt>
    <trkpt lat="38.547963984" lon="34.918411989">
      <ele>1239.398</ele>
      <time>2021-10-12T16:47:40Z</time>
    </trkpt>
    <trkpt lat="38.547938" lon="34.918447025">
      <ele>1238.753</ele>
      <time>2021-10-12T16:47:42Z</time>
    </trkpt>
    <trkpt lat="38.547907993" lon="34.918480972">
      <ele>1238.061</ele>
      <time>2021-10-12T16:47:43Z</time>
    </trkpt>
    <trkpt lat="38.547884021" lon="34.918507962">
      <ele>1237.491</ele>
      <time>2021-10-12T16:47:44Z</time>
    </trkpt>
    <trkpt lat="38.547860971" lon="34.918536041">
      <ele>1236.899</ele>
      <time>2021-10-12T16:47:46Z</time>
    </trkpt>
    <trkpt lat="38.547833981" lon="34.918562025">
      <ele>1236.278</ele>
      <time>2021-10-12T16:47:47Z</time>
    </trkpt>
    <trkpt lat="38.54781202" lon="34.918587003">
      <ele>1235.706</ele>
      <time>2021-10-12T16:47:48Z</time>
    </trkpt>
    <trkpt lat="38.547785031" lon="34.918614998">
      <ele>1235.064</ele>
      <time>2021-10-12T16:47:49Z</time>
    </trkpt>
    <trkpt lat="38.547754018" lon="34.918644">
      <ele>1234.635</ele>
      <time>2021-10-12T16:47:51Z</time>
    </trkpt>
    <trkpt lat="38.54772904" lon="34.91867099">
      <ele>1234.296</ele>
      <time>2021-10-12T16:47:52Z</time>
    </trkpt>
    <trkpt lat="38.547700038" lon="34.918694962">
      <ele>1233.943</ele>
      <time>2021-10-12T16:47:53Z</time>
    </trkpt>
    <trkpt lat="38.54767397" lon="34.918712983">
      <ele>1233.649</ele>
      <time>2021-10-12T16:47:54Z</time>
    </trkpt>
    <trkpt lat="38.547643041" lon="34.918735027">
      <ele>1233.315</ele>
      <time>2021-10-12T16:47:56Z</time>
    </trkpt>
    <trkpt lat="38.54761404" lon="34.918760005">
      <ele>1233.012</ele>
      <time>2021-10-12T16:47:57Z</time>
    </trkpt>
    <trkpt lat="38.547589984" lon="34.918788001">
      <ele>1232.766</ele>
      <time>2021-10-12T16:47:58Z</time>
    </trkpt>
    <trkpt lat="38.547569029" lon="34.918817002">
      <ele>1232.561</ele>
      <time>2021-10-12T16:47:59Z</time>
    </trkpt>
    <trkpt lat="38.547545979" lon="34.918850027">
      <ele>1232.354</ele>
      <time>2021-10-12T16:48:01Z</time>
    </trkpt>
    <trkpt lat="38.547524018" lon="34.918882968">
      <ele>1232.175</ele>
      <time>2021-10-12T16:48:02Z</time>
    </trkpt>
    <trkpt lat="38.547504991" lon="34.918916998">
      <ele>1232.034</ele>
      <time>2021-10-12T16:48:03Z</time>
    </trkpt>
    <trkpt lat="38.547485964" lon="34.918953041">
      <ele>1231.938</ele>
      <time>2021-10-12T16:48:04Z</time>
    </trkpt>
    <trkpt lat="38.547470961" lon="34.918986987">
      <ele>1231.859</ele>
      <time>2021-10-12T16:48:05Z</time>
    </trkpt>
    <trkpt lat="38.547451012" lon="34.919025041">
      <ele>1231.737</ele>
      <time>2021-10-12T16:48:07Z</time>
    </trkpt>
    <trkpt lat="38.547429973" lon="34.919063011">
      <ele>1231.59</ele>
      <time>2021-10-12T16:48:08Z</time>
    </trkpt>
    <trkpt lat="38.547413964" lon="34.919096036">
      <ele>1231.459</ele>
      <time>2021-10-12T16:48:09Z</time>
    </trkpt>
    <trkpt lat="38.547399966" lon="34.919127971">
      <ele>1231.33</ele>
      <time>2021-10-12T16:48:10Z</time>
    </trkpt>
    <trkpt lat="38.547386974" lon="34.919160996">
      <ele>1231.195</ele>
      <time>2021-10-12T16:48:11Z</time>
    </trkpt>
    <trkpt lat="38.547368031" lon="34.91919402">
      <ele>1230.9</ele>
      <time>2021-10-12T16:48:13Z</time>
    </trkpt>
    <trkpt lat="38.547338024" lon="34.919226961">
      <ele>1230.526</ele>
      <time>2021-10-12T16:48:14Z</time>
    </trkpt>
    <trkpt lat="38.547313968" lon="34.919253029">
      <ele>1230.247</ele>
      <time>2021-10-12T16:48:15Z</time>
    </trkpt>
    <trkpt lat="38.547292007" lon="34.919277001">
      <ele>1230.005</ele>
      <time>2021-10-12T16:48:16Z</time>
    </trkpt>
    <trkpt lat="38.547262" lon="34.919299968">
      <ele>1229.738</ele>
      <time>2021-10-12T16:48:18Z</time>
    </trkpt>
    <trkpt lat="38.547232999" lon="34.919315977">
      <ele>1229.519</ele>
      <time>2021-10-12T16:48:19Z</time>
    </trkpt>
    <trkpt lat="38.547198968" lon="34.919328969">
      <ele>1229.416</ele>
      <time>2021-10-12T16:48:20Z</time>
    </trkpt>
    <trkpt lat="38.547162004" lon="34.919338021">
      <ele>1229.383</ele>
      <time>2021-10-12T16:48:21Z</time>
    </trkpt>
    <trkpt lat="38.547126967" lon="34.919337016">
      <ele>1229.387</ele>
      <time>2021-10-12T16:48:23Z</time>
    </trkpt>
    <trkpt lat="38.547090003" lon="34.919332992">
      <ele>1229.401</ele>
      <time>2021-10-12T16:48:24Z</time>
    </trkpt>
    <trkpt lat="38.547057984" lon="34.919330981">
      <ele>1229.408</ele>
      <time>2021-10-12T16:48:25Z</time>
    </trkpt>
    <trkpt lat="38.547019009" lon="34.919332992">
      <ele>1229.401</ele>
      <time>2021-10-12T16:48:27Z</time>
    </trkpt>
    <trkpt lat="38.546984978" lon="34.919335004">
      <ele>1229.394</ele>
      <time>2021-10-12T16:48:28Z</time>
    </trkpt>
    <trkpt lat="38.546952037" lon="34.919341039">
      <ele>1229.372</ele>
      <time>2021-10-12T16:48:29Z</time>
    </trkpt>
    <trkpt lat="38.546923036" lon="34.919349002">
      <ele>1229.498</ele>
      <time>2021-10-12T16:48:30Z</time>
    </trkpt>
    <trkpt lat="38.546896968" lon="34.919372974">
      <ele>1229.599</ele>
      <time>2021-10-12T16:48:31Z</time>
    </trkpt>
    <trkpt lat="38.546879031" lon="34.91939703">
      <ele>1229.642</ele>
      <time>2021-10-12T16:48:32Z</time>
    </trkpt>
    <trkpt lat="38.546866961" lon="34.919423014">
      <ele>1229.635</ele>
      <time>2021-10-12T16:48:33Z</time>
    </trkpt>
    <trkpt lat="38.546856986" lon="34.919452015">
      <ele>1229.575</ele>
      <time>2021-10-12T16:48:34Z</time>
    </trkpt>
    <trkpt lat="38.546848018" lon="34.919481017">
      <ele>1229.431</ele>
      <time>2021-10-12T16:48:35Z</time>
    </trkpt>
    <trkpt lat="38.546837959" lon="34.919513036">
      <ele>1229.273</ele>
      <time>2021-10-12T16:48:36Z</time>
    </trkpt>
    <trkpt lat="38.546828991" lon="34.919547988">
      <ele>1229.086</ele>
      <time>2021-10-12T16:48:37Z</time>
    </trkpt>
    <trkpt lat="38.546825973" lon="34.919583024">
      <ele>1228.855</ele>
      <time>2021-10-12T16:48:38Z</time>
    </trkpt>
    <trkpt lat="38.546818011" lon="34.919622">
      <ele>1228.632</ele>
      <time>2021-10-12T16:48:39Z</time>
    </trkpt>
    <trkpt lat="38.546809964" lon="34.919663994">
      <ele>1228.388</ele>
      <time>2021-10-12T16:48:41Z</time>
    </trkpt>
    <trkpt lat="38.546799989" lon="34.919701964">
      <ele>1228.186</ele>
      <time>2021-10-12T16:48:42Z</time>
    </trkpt>
    <trkpt lat="38.546785992" lon="34.919737">
      <ele>1228.012</ele>
      <time>2021-10-12T16:48:43Z</time>
    </trkpt>
    <trkpt lat="38.546769982" lon="34.919770025">
      <ele>1227.848</ele>
      <time>2021-10-12T16:48:44Z</time>
    </trkpt>
    <trkpt lat="38.546751039" lon="34.919801038">
      <ele>1227.739</ele>
      <time>2021-10-12T16:48:45Z</time>
    </trkpt>
    <trkpt lat="38.546730001" lon="34.919830039">
      <ele>1227.679</ele>
      <time>2021-10-12T16:48:46Z</time>
    </trkpt>
    <trkpt lat="38.546710974" lon="34.919860968">
      <ele>1227.602</ele>
      <time>2021-10-12T16:48:48Z</time>
    </trkpt>
    <trkpt lat="38.546687001" lon="34.919894999">
      <ele>1227.564</ele>
      <time>2021-10-12T16:48:49Z</time>
    </trkpt>
    <trkpt lat="38.546667974" lon="34.919925006">
      <ele>1227.527</ele>
      <time>2021-10-12T16:48:50Z</time>
    </trkpt>
    <trkpt lat="38.546650037" lon="34.919957025">
      <ele>1227.429</ele>
      <time>2021-10-12T16:48:51Z</time>
    </trkpt>
    <trkpt lat="38.546635034" lon="34.919989966">
      <ele>1227.3</ele>
      <time>2021-10-12T16:48:52Z</time>
    </trkpt>
    <trkpt lat="38.546625981" lon="34.920026008">
      <ele>1227.119</ele>
      <time>2021-10-12T16:48:53Z</time>
    </trkpt>
    <trkpt lat="38.546618018" lon="34.92006599">
      <ele>1226.917</ele>
      <time>2021-10-12T16:48:55Z</time>
    </trkpt>
    <trkpt lat="38.546604021" lon="34.920190964">
      <ele>1226.231</ele>
      <time>2021-10-12T16:48:58Z</time>
    </trkpt>
    <trkpt lat="38.546568984" lon="34.920300012">
      <ele>1226.055</ele>
      <time>2021-10-12T16:49:02Z</time>
    </trkpt>
    <trkpt lat="38.546502013" lon="34.920381987">
      <ele>1226.778</ele>
      <time>2021-10-12T16:49:05Z</time>
    </trkpt>
    <trkpt lat="38.546438981" lon="34.920467986">
      <ele>1227.459</ele>
      <time>2021-10-12T16:49:08Z</time>
    </trkpt>
    <trkpt lat="38.546380978" lon="34.920575023">
      <ele>1228.083</ele>
      <time>2021-10-12T16:49:12Z</time>
    </trkpt>
    <trkpt lat="38.546316018" lon="34.92069304">
      <ele>1228.657</ele>
      <time>2021-10-12T16:49:16Z</time>
    </trkpt>
    <trkpt lat="38.546244018" lon="34.92080301">
      <ele>1229.1</ele>
      <time>2021-10-12T16:49:21Z</time>
    </trkpt>
    <trkpt lat="38.546229014" lon="34.920828994">
      <ele>1229.16</ele>
      <time>2021-10-12T16:49:22Z</time>
    </trkpt>
    <trkpt lat="38.546211999" lon="34.920859002">
      <ele>1229.307</ele>
      <time>2021-10-12T16:49:23Z</time>
    </trkpt>
    <trkpt lat="38.546194984" lon="34.920886997">
      <ele>1229.454</ele>
      <time>2021-10-12T16:49:24Z</time>
    </trkpt>
    <trkpt lat="38.546177968" lon="34.920914993">
      <ele>1229.589</ele>
      <time>2021-10-12T16:49:25Z</time>
    </trkpt>
    <trkpt lat="38.546093982" lon="34.921014989">
      <ele>1230.021</ele>
      <time>2021-10-12T16:49:29Z</time>
    </trkpt>
    <trkpt lat="38.546015024" lon="34.921102999">
      <ele>1230.01</ele>
      <time>2021-10-12T16:49:33Z</time>
    </trkpt>
    <trkpt lat="38.545947969" lon="34.921192015">
      <ele>1229.709</ele>
      <time>2021-10-12T16:49:36Z</time>
    </trkpt>
    <trkpt lat="38.545874041" lon="34.921280025">
      <ele>1229.392</ele>
      <time>2021-10-12T16:49:40Z</time>
    </trkpt>
    <trkpt lat="38.545857025" lon="34.921301985">
      <ele>1229.313</ele>
      <time>2021-10-12T16:49:41Z</time>
    </trkpt>
    <trkpt lat="38.545839004" lon="34.921321012">
      <ele>1229.244</ele>
      <time>2021-10-12T16:49:42Z</time>
    </trkpt>
    <trkpt lat="38.54581696" lon="34.921344984">
      <ele>1229.217</ele>
      <time>2021-10-12T16:49:43Z</time>
    </trkpt>
    <trkpt lat="38.545793993" lon="34.921368035">
      <ele>1229.217</ele>
      <time>2021-10-12T16:49:44Z</time>
    </trkpt>
    <trkpt lat="38.545769015" lon="34.921388989">
      <ele>1229.231</ele>
      <time>2021-10-12T16:49:45Z</time>
    </trkpt>
    <trkpt lat="38.545745965" lon="34.921411034">
      <ele>1229.21</ele>
      <time>2021-10-12T16:49:46Z</time>
    </trkpt>
    <trkpt lat="38.545719981" lon="34.921432994">
      <ele>1229.184</ele>
      <time>2021-10-12T16:49:47Z</time>
    </trkpt>
    <trkpt lat="38.545695003" lon="34.921452021">
      <ele>1229.158</ele>
      <time>2021-10-12T16:49:48Z</time>
    </trkpt>
    <trkpt lat="38.545660973" lon="34.921473982">
      <ele>1229.124</ele>
      <time>2021-10-12T16:49:50Z</time>
    </trkpt>
    <trkpt lat="38.545631971" lon="34.921496026">
      <ele>1229.06</ele>
      <time>2021-10-12T16:49:51Z</time>
    </trkpt>
    <trkpt lat="38.545600036" lon="34.921514969">
      <ele>1229.005</ele>
      <time>2021-10-12T16:49:52Z</time>
    </trkpt>
    <trkpt lat="38.545572041" lon="34.92153802">
      <ele>1228.899</ele>
      <time>2021-10-12T16:49:54Z</time>
    </trkpt>
    <trkpt lat="38.545540022" lon="34.921556963">
      <ele>1228.812</ele>
      <time>2021-10-12T16:49:55Z</time>
    </trkpt>
    <trkpt lat="38.545514038" lon="34.921579007">
      <ele>1228.678</ele>
      <time>2021-10-12T16:49:56Z</time>
    </trkpt>
    <trkpt lat="38.545488976" lon="34.921593005">
      <ele>1228.594</ele>
      <time>2021-10-12T16:49:57Z</time>
    </trkpt>
    <trkpt lat="38.545461986" lon="34.921608008">
      <ele>1228.493</ele>
      <time>2021-10-12T16:49:58Z</time>
    </trkpt>
    <trkpt lat="38.545433991" lon="34.921624018">
      <ele>1228.374</ele>
      <time>2021-10-12T16:49:59Z</time>
    </trkpt>
    <trkpt lat="38.545411024" lon="34.92163701">
      <ele>1228.269</ele>
      <time>2021-10-12T16:50:00Z</time>
    </trkpt>
    <trkpt lat="38.545385962" lon="34.921648996">
      <ele>1228.166</ele>
      <time>2021-10-12T16:50:01Z</time>
    </trkpt>
    <trkpt lat="38.545356039" lon="34.921656959">
      <ele>1228.095</ele>
      <time>2021-10-12T16:50:02Z</time>
    </trkpt>
    <trkpt lat="38.545321003" lon="34.921662994">
      <ele>1228.038</ele>
      <time>2021-10-12T16:50:04Z</time>
    </trkpt>
    <trkpt lat="38.54528999" lon="34.921656959">
      <ele>1228.103</ele>
      <time>2021-10-12T16:50:05Z</time>
    </trkpt>
    <trkpt lat="38.545263" lon="34.921654025">
      <ele>1228.296</ele>
      <time>2021-10-12T16:50:06Z</time>
    </trkpt>
    <trkpt lat="38.54523601" lon="34.921651008">
      <ele>1228.62</ele>
      <time>2021-10-12T16:50:07Z</time>
    </trkpt>
    <trkpt lat="38.545211032" lon="34.921648996">
      <ele>1228.912</ele>
      <time>2021-10-12T16:50:08Z</time>
    </trkpt>
    <trkpt lat="38.545181025" lon="34.92164799">
      <ele>1229.247</ele>
      <time>2021-10-12T16:50:09Z</time>
    </trkpt>
    <trkpt lat="38.545153029" lon="34.92164799">
      <ele>1229.549</ele>
      <time>2021-10-12T16:50:10Z</time>
    </trkpt>
    <trkpt lat="38.545127967" lon="34.921648996">
      <ele>1229.809</ele>
      <time>2021-10-12T16:50:11Z</time>
    </trkpt>
    <trkpt lat="38.545100978" lon="34.921652013">
      <ele>1230.068</ele>
      <time>2021-10-12T16:50:12Z</time>
    </trkpt>
    <trkpt lat="38.545074994" lon="34.921656037">
      <ele>1230.305</ele>
      <time>2021-10-12T16:50:13Z</time>
    </trkpt>
    <trkpt lat="38.545048004" lon="34.921656959">
      <ele>1230.586</ele>
      <time>2021-10-12T16:50:14Z</time>
    </trkpt>
    <trkpt lat="38.545029983" lon="34.921656037">
      <ele>1230.791</ele>
      <time>2021-10-12T16:50:15Z</time>
    </trkpt>
    <trkpt lat="38.545008022" lon="34.92165897">
      <ele>1230.996</ele>
      <time>2021-10-12T16:50:15Z</time>
    </trkpt>
    <trkpt lat="38.544984972" lon="34.921662994">
      <ele>1231.201</ele>
      <time>2021-10-12T16:50:16Z</time>
    </trkpt>
    <trkpt lat="38.544962006" lon="34.92167104">
      <ele>1231.334</ele>
      <time>2021-10-12T16:50:17Z</time>
    </trkpt>
    <trkpt lat="38.544939961" lon="34.92168596">
      <ele>1231.316</ele>
      <time>2021-10-12T16:50:18Z</time>
    </trkpt>
    <trkpt lat="38.544914983" lon="34.921704987">
      <ele>1231.271</ele>
      <time>2021-10-12T16:50:19Z</time>
    </trkpt>
    <trkpt lat="38.544888999" lon="34.921722002">
      <ele>1231.282</ele>
      <time>2021-10-12T16:50:20Z</time>
    </trkpt>
    <trkpt lat="38.544863015" lon="34.921737006">
      <ele>1231.338</ele>
      <time>2021-10-12T16:50:21Z</time>
    </trkpt>
    <trkpt lat="38.544836026" lon="34.921747986">
      <ele>1231.48</ele>
      <time>2021-10-12T16:50:22Z</time>
    </trkpt>
    <trkpt lat="38.544806018" lon="34.921760978">
      <ele>1231.634</ele>
      <time>2021-10-12T16:50:23Z</time>
    </trkpt>
    <trkpt lat="38.544778023" lon="34.92177397">
      <ele>1231.775</ele>
      <time>2021-10-12T16:50:25Z</time>
    </trkpt>
    <trkpt lat="38.544752039" lon="34.921798026">
      <ele>1231.736</ele>
      <time>2021-10-12T16:50:26Z</time>
    </trkpt>
    <trkpt lat="38.544724965" lon="34.921820993">
      <ele>1231.743</ele>
      <time>2021-10-12T16:50:27Z</time>
    </trkpt>
    <trkpt lat="38.544699987" lon="34.921843037">
      <ele>1231.46</ele>
      <time>2021-10-12T16:50:28Z</time>
    </trkpt>
    <trkpt lat="38.544675009" lon="34.921866003">
      <ele>1231.13</ele>
      <time>2021-10-12T16:50:29Z</time>
    </trkpt>
    <trkpt lat="38.544645002" lon="34.921887964">
      <ele>1230.813</ele>
      <time>2021-10-12T16:50:30Z</time>
    </trkpt>
    <trkpt lat="38.544617007" lon="34.921907997">
      <ele>1230.525</ele>
      <time>2021-10-12T16:50:32Z</time>
    </trkpt>
    <trkpt lat="38.544590017" lon="34.921919983">
      <ele>1230.352</ele>
      <time>2021-10-12T16:50:33Z</time>
    </trkpt>
    <trkpt lat="38.544563027" lon="34.921930963">
      <ele>1230.194</ele>
      <time>2021-10-12T16:50:34Z</time>
    </trkpt>
    <trkpt lat="38.544539977" lon="34.921940016">
      <ele>1230.064</ele>
      <time>2021-10-12T16:50:35Z</time>
    </trkpt>
    <trkpt lat="38.54452204" lon="34.921946973">
      <ele>1229.979</ele>
      <time>2021-10-12T16:50:35Z</time>
    </trkpt>
    <trkpt lat="38.544499995" lon="34.921957031">
      <ele>1229.9</ele>
      <time>2021-10-12T16:50:36Z</time>
    </trkpt>
    <trkpt lat="38.544478035" lon="34.921969017">
      <ele>1229.812</ele>
      <time>2021-10-12T16:50:37Z</time>
    </trkpt>
    <trkpt lat="38.544460014" lon="34.921984021">
      <ele>1229.707</ele>
      <time>2021-10-12T16:50:38Z</time>
    </trkpt>
    <trkpt lat="38.544442998" lon="34.921999024">
      <ele>1229.607</ele>
      <time>2021-10-12T16:50:39Z</time>
    </trkpt>
    <trkpt lat="38.544425983" lon="34.922015034">
      <ele>1229.492</ele>
      <time>2021-10-12T16:50:39Z</time>
    </trkpt>
    <trkpt lat="38.544412991" lon="34.922035988">
      <ele>1229.341</ele>
      <time>2021-10-12T16:50:40Z</time>
    </trkpt>
    <trkpt lat="38.544395976" lon="34.922060966">
      <ele>1229.161</ele>
      <time>2021-10-12T16:50:41Z</time>
    </trkpt>
    <trkpt lat="38.544377033" lon="34.922089968">
      <ele>1228.952</ele>
      <time>2021-10-12T16:50:42Z</time>
    </trkpt>
    <trkpt lat="38.544358006" lon="34.922118969">
      <ele>1228.743</ele>
      <time>2021-10-12T16:50:43Z</time>
    </trkpt>
    <trkpt lat="38.544335961" lon="34.922154006">
      <ele>1228.491</ele>
      <time>2021-10-12T16:50:45Z</time>
    </trkpt>
    <trkpt lat="38.544309977" lon="34.922183007">
      <ele>1228.282</ele>
      <time>2021-10-12T16:50:46Z</time>
    </trkpt>
    <trkpt lat="38.54427997" lon="34.922204968">
      <ele>1228.124</ele>
      <time>2021-10-12T16:50:47Z</time>
    </trkpt>
    <trkpt lat="38.544250969" lon="34.922223995">
      <ele>1227.996</ele>
      <time>2021-10-12T16:50:48Z</time>
    </trkpt>
    <trkpt lat="38.544223979" lon="34.922238998">
      <ele>1227.952</ele>
      <time>2021-10-12T16:50:50Z</time>
    </trkpt>
    <trkpt lat="38.544189027" lon="34.922257019">
      <ele>1227.885</ele>
      <time>2021-10-12T16:50:51Z</time>
    </trkpt>
    <trkpt lat="38.544157008" lon="34.92227504">
      <ele>1227.873</ele>
      <time>2021-10-12T16:50:52Z</time>
    </trkpt>
    <trkpt lat="38.544130018" lon="34.922290966">
      <ele>1227.984</ele>
      <time>2021-10-12T16:50:53Z</time>
    </trkpt>
    <trkpt lat="38.544099005" lon="34.922309993">
      <ele>1228.094</ele>
      <time>2021-10-12T16:50:55Z</time>
    </trkpt>
    <trkpt lat="38.544076039" lon="34.922322985">
      <ele>1228.171</ele>
      <time>2021-10-12T16:50:56Z</time>
    </trkpt>
    <trkpt lat="38.544048965" lon="34.922335977">
      <ele>1228.264</ele>
      <time>2021-10-12T16:50:57Z</time>
    </trkpt>
    <trkpt lat="38.544020969" lon="34.922347963">
      <ele>1228.359</ele>
      <time>2021-10-12T16:50:58Z</time>
    </trkpt>
    <trkpt lat="38.543994986" lon="34.922358021">
      <ele>1228.445</ele>
      <time>2021-10-12T16:50:59Z</time>
    </trkpt>
    <trkpt lat="38.54396699" lon="34.922369001">
      <ele>1228.529</ele>
      <time>2021-10-12T16:51:00Z</time>
    </trkpt>
    <trkpt lat="38.54394" lon="34.922380988">
      <ele>1228.594</ele>
      <time>2021-10-12T16:51:01Z</time>
    </trkpt>
    <trkpt lat="38.543912005" lon="34.922392974">
      <ele>1228.655</ele>
      <time>2021-10-12T16:51:02Z</time>
    </trkpt>
    <trkpt lat="38.543881997" lon="34.922399009">
      <ele>1228.696</ele>
      <time>2021-10-12T16:51:03Z</time>
    </trkpt>
    <trkpt lat="38.543852996" lon="34.922404038">
      <ele>1228.522</ele>
      <time>2021-10-12T16:51:04Z</time>
    </trkpt>
    <trkpt lat="38.543825001" lon="34.922412001">
      <ele>1228.319</ele>
      <time>2021-10-12T16:51:05Z</time>
    </trkpt>
    <trkpt lat="38.543791976" lon="34.922423987">
      <ele>1228.04</ele>
      <time>2021-10-12T16:51:06Z</time>
    </trkpt>
    <trkpt lat="38.543759035" lon="34.922431028">
      <ele>1227.794</ele>
      <time>2021-10-12T16:51:08Z</time>
    </trkpt>
    <trkpt lat="38.543725004" lon="34.922446031">
      <ele>1227.438</ele>
      <time>2021-10-12T16:51:09Z</time>
    </trkpt>
    <trkpt lat="38.54369198" lon="34.922467992">
      <ele>1226.976</ele>
      <time>2021-10-12T16:51:10Z</time>
    </trkpt>
    <trkpt lat="38.543661973" lon="34.92249297">
      <ele>1226.458</ele>
      <time>2021-10-12T16:51:12Z</time>
    </trkpt>
    <trkpt lat="38.543639006" lon="34.922513003">
      <ele>1226.145</ele>
      <time>2021-10-12T16:51:13Z</time>
    </trkpt>
    <trkpt lat="38.543618973" lon="34.922537981">
      <ele>1225.912</ele>
      <time>2021-10-12T16:51:14Z</time>
    </trkpt>
    <trkpt lat="38.543597013" lon="34.92256497">
      <ele>1225.754</ele>
      <time>2021-10-12T16:51:15Z</time>
    </trkpt>
    <trkpt lat="38.543578992" lon="34.922590032">
      <ele>1225.638</ele>
      <time>2021-10-12T16:51:16Z</time>
    </trkpt>
    <trkpt lat="38.543561976" lon="34.922611993">
      <ele>1225.526</ele>
      <time>2021-10-12T16:51:17Z</time>
    </trkpt>
    <trkpt lat="38.543547979" lon="34.922636971">
      <ele>1225.395</ele>
      <time>2021-10-12T16:51:18Z</time>
    </trkpt>
    <trkpt lat="38.543533981" lon="34.922663961">
      <ele>1225.246</ele>
      <time>2021-10-12T16:51:19Z</time>
    </trkpt>
    <trkpt lat="38.543517971" lon="34.922693968">
      <ele>1225.068</ele>
      <time>2021-10-12T16:51:20Z</time>
    </trkpt>
    <trkpt lat="38.543500034" lon="34.922721963">
      <ele>1224.881</ele>
      <time>2021-10-12T16:51:21Z</time>
    </trkpt>
    <trkpt lat="38.543481007" lon="34.922746019">
      <ele>1224.7</ele>
      <time>2021-10-12T16:51:22Z</time>
    </trkpt>
    <trkpt lat="38.543457035" lon="34.922765968">
      <ele>1224.511</ele>
      <time>2021-10-12T16:51:23Z</time>
    </trkpt>
    <trkpt lat="38.543432979" lon="34.922779966">
      <ele>1224.359</ele>
      <time>2021-10-12T16:51:24Z</time>
    </trkpt>
    <trkpt lat="38.543408001" lon="34.92279497">
      <ele>1224.269</ele>
      <time>2021-10-12T16:51:25Z</time>
    </trkpt>
    <trkpt lat="38.543384029" lon="34.922812991">
      <ele>1224.183</ele>
      <time>2021-10-12T16:51:26Z</time>
    </trkpt>
    <trkpt lat="38.543357961" lon="34.922835035">
      <ele>1224.089</ele>
      <time>2021-10-12T16:51:27Z</time>
    </trkpt>
    <trkpt lat="38.543333989" lon="34.922852973">
      <ele>1224.002</ele>
      <time>2021-10-12T16:51:28Z</time>
    </trkpt>
    <trkpt lat="38.543313034" lon="34.922874011">
      <ele>1224.267</ele>
      <time>2021-10-12T16:51:29Z</time>
    </trkpt>
    <trkpt lat="38.543291995" lon="34.922894966">
      <ele>1224.532</ele>
      <time>2021-10-12T16:51:30Z</time>
    </trkpt>
    <trkpt lat="38.543268023" lon="34.922918016">
      <ele>1224.822</ele>
      <time>2021-10-12T16:51:31Z</time>
    </trkpt>
    <trkpt lat="38.54324799" lon="34.922939977">
      <ele>1225.05</ele>
      <time>2021-10-12T16:51:32Z</time>
    </trkpt>
    <trkpt lat="38.543229969" lon="34.922959004">
      <ele>1225.246</ele>
      <time>2021-10-12T16:51:33Z</time>
    </trkpt>
    <trkpt lat="38.543209014" lon="34.92298197">
      <ele>1225.461</ele>
      <time>2021-10-12T16:51:34Z</time>
    </trkpt>
    <trkpt lat="38.543190993" lon="34.923006026">
      <ele>1225.629</ele>
      <time>2021-10-12T16:51:35Z</time>
    </trkpt>
    <trkpt lat="38.543170961" lon="34.923026981">
      <ele>1225.814</ele>
      <time>2021-10-12T16:51:36Z</time>
    </trkpt>
    <trkpt lat="38.543150006" lon="34.923045002">
      <ele>1226.005</ele>
      <time>2021-10-12T16:51:37Z</time>
    </trkpt>
    <trkpt lat="38.543135002" lon="34.923057994">
      <ele>1226.142</ele>
      <time>2021-10-12T16:51:38Z</time>
    </trkpt>
    <trkpt lat="38.543115975" lon="34.923077021">
      <ele>1226.347</ele>
      <time>2021-10-12T16:51:38Z</time>
    </trkpt>
    <trkpt lat="38.543096026" lon="34.923095042">
      <ele>1226.563</ele>
      <time>2021-10-12T16:51:39Z</time>
    </trkpt>
    <trkpt lat="38.543074988" lon="34.923119014">
      <ele>1226.79</ele>
      <time>2021-10-12T16:51:40Z</time>
    </trkpt>
    <trkpt lat="38.543055039" lon="34.923142986">
      <ele>1227.011</ele>
      <time>2021-10-12T16:51:41Z</time>
    </trkpt>
    <trkpt lat="38.543036012" lon="34.923169976">
      <ele>1227.422</ele>
      <time>2021-10-12T16:51:42Z</time>
    </trkpt>
    <trkpt lat="38.543016985" lon="34.923193026">
      <ele>1227.833</ele>
      <time>2021-10-12T16:51:43Z</time>
    </trkpt>
    <trkpt lat="38.542958982" lon="34.923290005">
      <ele>1229.086</ele>
      <time>2021-10-12T16:51:47Z</time>
    </trkpt>
    <trkpt lat="38.542912966" lon="34.923401987">
      <ele>1230.2</ele>
      <time>2021-10-12T16:51:51Z</time>
    </trkpt>
    <trkpt lat="38.542871978" lon="34.923473988">
      <ele>1231.137</ele>
      <time>2021-10-12T16:51:53Z</time>
    </trkpt>
    <trkpt lat="38.54285798" lon="34.923492009">
      <ele>1231.433</ele>
      <time>2021-10-12T16:51:54Z</time>
    </trkpt>
    <trkpt lat="38.542844988" lon="34.92351003">
      <ele>1231.702</ele>
      <time>2021-10-12T16:51:55Z</time>
    </trkpt>
    <trkpt lat="38.542817999" lon="34.923535008">
      <ele>1232.236</ele>
      <time>2021-10-12T16:51:56Z</time>
    </trkpt>
    <trkpt lat="38.542787991" lon="34.923563004">
      <ele>1232.81</ele>
      <time>2021-10-12T16:51:57Z</time>
    </trkpt>
    <trkpt lat="38.542768965" lon="34.923580019">
      <ele>1233.106</ele>
      <time>2021-10-12T16:51:58Z</time>
    </trkpt>
    <trkpt lat="38.542751027" lon="34.923595022">
      <ele>1233.306</ele>
      <time>2021-10-12T16:51:59Z</time>
    </trkpt>
    <trkpt lat="38.542733006" lon="34.923603991">
      <ele>1233.496</ele>
      <time>2021-10-12T16:52:00Z</time>
    </trkpt>
    <trkpt lat="38.542712973" lon="34.923615977">
      <ele>1233.661</ele>
      <time>2021-10-12T16:52:00Z</time>
    </trkpt>
    <trkpt lat="38.542693025" lon="34.923631987">
      <ele>1233.742</ele>
      <time>2021-10-12T16:52:01Z</time>
    </trkpt>
    <trkpt lat="38.54267098" lon="34.923650008">
      <ele>1233.82</ele>
      <time>2021-10-12T16:52:02Z</time>
    </trkpt>
    <trkpt lat="38.542648014" lon="34.92367004">
      <ele>1233.878</ele>
      <time>2021-10-12T16:52:03Z</time>
    </trkpt>
    <trkpt lat="38.542621024" lon="34.923684038">
      <ele>1234.02</ele>
      <time>2021-10-12T16:52:04Z</time>
    </trkpt>
    <trkpt lat="38.542596968" lon="34.923699042">
      <ele>1234.114</ele>
      <time>2021-10-12T16:52:05Z</time>
    </trkpt>
    <trkpt lat="38.542567967" lon="34.923715973">
      <ele>1234.226</ele>
      <time>2021-10-12T16:52:07Z</time>
    </trkpt>
    <trkpt lat="38.542541983" lon="34.923728965">
      <ele>1234.338</ele>
      <time>2021-10-12T16:52:08Z</time>
    </trkpt>
    <trkpt lat="38.542512981" lon="34.923739024">
      <ele>1234.5</ele>
      <time>2021-10-12T16:52:09Z</time>
    </trkpt>
    <trkpt lat="38.542481968" lon="34.923747992">
      <ele>1234.652</ele>
      <time>2021-10-12T16:52:10Z</time>
    </trkpt>
    <trkpt lat="38.542450033" lon="34.923752015">
      <ele>1234.838</ele>
      <time>2021-10-12T16:52:11Z</time>
    </trkpt>
    <trkpt lat="38.542421032" lon="34.923760984">
      <ele>1234.95</ele>
      <time>2021-10-12T16:52:12Z</time>
    </trkpt>
    <trkpt lat="38.542393036" lon="34.923773976">
      <ele>1235.011</ele>
      <time>2021-10-12T16:52:13Z</time>
    </trkpt>
    <trkpt lat="38.542364035" lon="34.923793003">
      <ele>1235.015</ele>
      <time>2021-10-12T16:52:15Z</time>
    </trkpt>
    <trkpt lat="38.542338973" lon="34.923820999">
      <ele>1234.893</ele>
      <time>2021-10-12T16:52:16Z</time>
    </trkpt>
    <trkpt lat="38.542321036" lon="34.923848994">
      <ele>1234.719</ele>
      <time>2021-10-12T16:52:17Z</time>
    </trkpt>
    <trkpt lat="38.542306032" lon="34.923880007">
      <ele>1234.492</ele>
      <time>2021-10-12T16:52:18Z</time>
    </trkpt>
    <trkpt lat="38.542291028" lon="34.92391102">
      <ele>1234.285</ele>
      <time>2021-10-12T16:52:19Z</time>
    </trkpt>
    <trkpt lat="38.542274013" lon="34.923943961">
      <ele>1234.069</ele>
      <time>2021-10-12T16:52:20Z</time>
    </trkpt>
    <trkpt lat="38.542255992" lon="34.923978997">
      <ele>1233.823</ele>
      <time>2021-10-12T16:52:21Z</time>
    </trkpt>
    <trkpt lat="38.542240988" lon="34.924012022">
      <ele>1233.565</ele>
      <time>2021-10-12T16:52:22Z</time>
    </trkpt>
    <trkpt lat="38.542224979" lon="34.924046975">
      <ele>1233.278</ele>
      <time>2021-10-12T16:52:24Z</time>
    </trkpt>
    <trkpt lat="38.542210981" lon="34.924082011">
      <ele>1232.902</ele>
      <time>2021-10-12T16:52:25Z</time>
    </trkpt>
    <trkpt lat="38.542190026" lon="34.924116042">
      <ele>1232.526</ele>
      <time>2021-10-12T16:52:26Z</time>
    </trkpt>
    <trkpt lat="38.542167982" lon="34.924149988">
      <ele>1232.168</ele>
      <time>2021-10-12T16:52:27Z</time>
    </trkpt>
    <trkpt lat="38.542146022" lon="34.924177984">
      <ele>1231.889</ele>
      <time>2021-10-12T16:52:28Z</time>
    </trkpt>
    <trkpt lat="38.542122971" lon="34.924201034">
      <ele>1231.673</ele>
      <time>2021-10-12T16:52:29Z</time>
    </trkpt>
    <trkpt lat="38.542091958" lon="34.924220983">
      <ele>1231.505</ele>
      <time>2021-10-12T16:52:31Z</time>
    </trkpt>
    <trkpt lat="38.542063041" lon="34.924231963">
      <ele>1231.43</ele>
      <time>2021-10-12T16:52:32Z</time>
    </trkpt>
    <trkpt lat="38.54202901" lon="34.924242022">
      <ele>1231.375</ele>
      <time>2021-10-12T16:52:33Z</time>
    </trkpt>
    <trkpt lat="38.541996991" lon="34.924249984">
      <ele>1231.343</ele>
      <time>2021-10-12T16:52:34Z</time>
    </trkpt>
    <trkpt lat="38.541965978" lon="34.924259037">
      <ele>1231.309</ele>
      <time>2021-10-12T16:52:36Z</time>
    </trkpt>
    <trkpt lat="38.541932032" lon="34.924265994">
      <ele>1231.224</ele>
      <time>2021-10-12T16:52:37Z</time>
    </trkpt>
    <trkpt lat="38.541898001" lon="34.924271023">
      <ele>1231.019</ele>
      <time>2021-10-12T16:52:38Z</time>
    </trkpt>
    <trkpt lat="38.54186397" lon="34.924270017">
      <ele>1230.858</ele>
      <time>2021-10-12T16:52:39Z</time>
    </trkpt>
    <trkpt lat="38.541832035" lon="34.924268005">
      <ele>1230.718</ele>
      <time>2021-10-12T16:52:41Z</time>
    </trkpt>
    <trkpt lat="38.541801022" lon="34.924263982">
      <ele>1230.602</ele>
      <time>2021-10-12T16:52:42Z</time>
    </trkpt>
    <trkpt lat="38.541770009" lon="34.924259959">
      <ele>1230.489</ele>
      <time>2021-10-12T16:52:43Z</time>
    </trkpt>
    <trkpt lat="38.541742014" lon="34.924251996">
      <ele>1230.433</ele>
      <time>2021-10-12T16:52:44Z</time>
    </trkpt>
    <trkpt lat="38.541712007" lon="34.924248978">
      <ele>1230.323</ele>
      <time>2021-10-12T16:52:45Z</time>
    </trkpt>
    <trkpt lat="38.541681999" lon="34.924245961">
      <ele>1230.215</ele>
      <time>2021-10-12T16:52:46Z</time>
    </trkpt>
    <trkpt lat="38.541646963" lon="34.924244033">
      <ele>1230.011</ele>
      <time>2021-10-12T16:52:47Z</time>
    </trkpt>
    <trkpt lat="38.54161704" lon="34.924237998">
      <ele>1229.831</ele>
      <time>2021-10-12T16:52:49Z</time>
    </trkpt>
    <trkpt lat="38.541586027" lon="34.924230035">
      <ele>1229.643</ele>
      <time>2021-10-12T16:52:50Z</time>
    </trkpt>
    <trkpt lat="38.541551996" lon="34.924220983">
      <ele>1229.417</ele>
      <time>2021-10-12T16:52:51Z</time>
    </trkpt>
    <trkpt lat="38.541520983" lon="34.924212014">
      <ele>1229.194</ele>
      <time>2021-10-12T16:52:52Z</time>
    </trkpt>
    <trkpt lat="38.541490976" lon="34.924200028">
      <ele>1228.97</ele>
      <time>2021-10-12T16:52:53Z</time>
    </trkpt>
    <trkpt lat="38.541460969" lon="34.924191982">
      <ele>1228.708</ele>
      <time>2021-10-12T16:52:54Z</time>
    </trkpt>
    <trkpt lat="38.541433979" lon="34.92418997">
      <ele>1228.446</ele>
      <time>2021-10-12T16:52:55Z</time>
    </trkpt>
    <trkpt lat="38.541404977" lon="34.924193993">
      <ele>1228.157</ele>
      <time>2021-10-12T16:52:57Z</time>
    </trkpt>
    <trkpt lat="38.541382011" lon="34.924217965">
      <ele>1228.034</ele>
      <time>2021-10-12T16:52:58Z</time>
    </trkpt>
    <trkpt lat="38.541370025" lon="34.924249984">
      <ele>1228.109</ele>
      <time>2021-10-12T16:52:59Z</time>
    </trkpt>
    <trkpt lat="38.541361978" lon="34.924286027">
      <ele>1228.18</ele>
      <time>2021-10-12T16:53:00Z</time>
    </trkpt>
    <trkpt lat="38.541350998" lon="34.924321985">
      <ele>1228.289</ele>
      <time>2021-10-12T16:53:01Z</time>
    </trkpt>
    <trkpt lat="38.541356027" lon="34.924381999">
      <ele>1228.302</ele>
      <time>2021-10-12T16:53:03Z</time>
    </trkpt>
    <trkpt lat="38.541392991" lon="34.92442701">
      <ele>1228.003</ele>
      <time>2021-10-12T16:53:05Z</time>
    </trkpt>
    <trkpt lat="38.541405983" lon="34.924451988">
      <ele>1227.997</ele>
      <time>2021-10-12T16:53:05Z</time>
    </trkpt>
    <trkpt lat="38.541422999" lon="34.924477972">
      <ele>1227.97</ele>
      <time>2021-10-12T16:53:06Z</time>
    </trkpt>
    <trkpt lat="38.541438002" lon="34.924500016">
      <ele>1227.929</ele>
      <time>2021-10-12T16:53:07Z</time>
    </trkpt>
    <trkpt lat="38.541456023" lon="34.924520971">
      <ele>1227.867</ele>
      <time>2021-10-12T16:53:08Z</time>
    </trkpt>
    <trkpt lat="38.541477984" lon="34.924547961">
      <ele>1227.761</ele>
      <time>2021-10-12T16:53:09Z</time>
    </trkpt>
    <trkpt lat="38.541500028" lon="34.924574029">
      <ele>1227.627</ele>
      <time>2021-10-12T16:53:10Z</time>
    </trkpt>
    <trkpt lat="38.541534981" lon="34.924633959">
      <ele>1227.282</ele>
      <time>2021-10-12T16:53:13Z</time>
    </trkpt>
    <trkpt lat="38.541568005" lon="34.924701015">
      <ele>1226.809</ele>
      <time>2021-10-12T16:53:15Z</time>
    </trkpt>
    <trkpt lat="38.541617962" lon="34.924840992">
      <ele>1227.281</ele>
      <time>2021-10-12T16:53:19Z</time>
    </trkpt>
    <trkpt lat="38.541631959" lon="34.924921039">
      <ele>1227.771</ele>
      <time>2021-10-12T16:53:22Z</time>
    </trkpt>
    <trkpt lat="38.541645035" lon="34.924955992">
      <ele>1227.904</ele>
      <time>2021-10-12T16:53:23Z</time>
    </trkpt>
    <trkpt lat="38.541673031" lon="34.925093958">
      <ele>1229.622</ele>
      <time>2021-10-12T16:53:27Z</time>
    </trkpt>
    <trkpt lat="38.541711001" lon="34.925223039">
      <ele>1231.311</ele>
      <time>2021-10-12T16:53:31Z</time>
    </trkpt>
    <trkpt lat="38.54172701" lon="34.925250029">
      <ele>1231.479</ele>
      <time>2021-10-12T16:53:32Z</time>
    </trkpt>
    <trkpt lat="38.541746037" lon="34.925275007">
      <ele>1231.53</ele>
      <time>2021-10-12T16:53:33Z</time>
    </trkpt>
    <trkpt lat="38.541762969" lon="34.925299985">
      <ele>1231.426</ele>
      <time>2021-10-12T16:53:34Z</time>
    </trkpt>
    <trkpt lat="38.541785013" lon="34.925326975">
      <ele>1231.224</ele>
      <time>2021-10-12T16:53:35Z</time>
    </trkpt>
    <trkpt lat="38.541806974" lon="34.925352959">
      <ele>1231.016</ele>
      <time>2021-10-12T16:53:36Z</time>
    </trkpt>
    <trkpt lat="38.541885009" lon="34.925437029">
      <ele>1230.216</ele>
      <time>2021-10-12T16:53:40Z</time>
    </trkpt>
    <trkpt lat="38.541901018" lon="34.925456978">
      <ele>1230.072</ele>
      <time>2021-10-12T16:53:41Z</time>
    </trkpt>
    <trkpt lat="38.541985005" lon="34.92553602">
      <ele>1229.275</ele>
      <time>2021-10-12T16:53:45Z</time>
    </trkpt>
    <trkpt lat="38.542049965" lon="34.925636016">
      <ele>1228.37</ele>
      <time>2021-10-12T16:53:48Z</time>
    </trkpt>
    <trkpt lat="38.54209397" lon="34.925749004">
      <ele>1227.472</ele>
      <time>2021-10-12T16:53:52Z</time>
    </trkpt>
    <trkpt lat="38.542110985" lon="34.925861992">
      <ele>1226.858</ele>
      <time>2021-10-12T16:53:55Z</time>
    </trkpt>
    <trkpt lat="38.542110985" lon="34.925942039">
      <ele>1226.454</ele>
      <time>2021-10-12T16:53:58Z</time>
    </trkpt>
    <trkpt lat="38.542101011" lon="34.92598596">
      <ele>1226.393</ele>
      <time>2021-10-12T16:53:59Z</time>
    </trkpt>
    <trkpt lat="38.542094976" lon="34.926028959">
      <ele>1226.264</ele>
      <time>2021-10-12T16:54:00Z</time>
    </trkpt>
    <trkpt lat="38.542091958" lon="34.926070031">
      <ele>1226.093</ele>
      <time>2021-10-12T16:54:02Z</time>
    </trkpt>
    <trkpt lat="38.542088019" lon="34.926110012">
      <ele>1225.938</ele>
      <time>2021-10-12T16:54:03Z</time>
    </trkpt>
    <trkpt lat="38.542088019" lon="34.926143037">
      <ele>1225.821</ele>
      <time>2021-10-12T16:54:04Z</time>
    </trkpt>
    <trkpt lat="38.542091036" lon="34.926175978">
      <ele>1225.669</ele>
      <time>2021-10-12T16:54:05Z</time>
    </trkpt>
    <trkpt lat="38.54209003" lon="34.92621202">
      <ele>1225.558</ele>
      <time>2021-10-12T16:54:06Z</time>
    </trkpt>
    <trkpt lat="38.542089025" lon="34.926247979">
      <ele>1225.446</ele>
      <time>2021-10-12T16:54:07Z</time>
    </trkpt>
    <trkpt lat="38.54209003" lon="34.926282009">
      <ele>1225.318</ele>
      <time>2021-10-12T16:54:08Z</time>
    </trkpt>
    <trkpt lat="38.542085001" lon="34.926317967">
      <ele>1225.24</ele>
      <time>2021-10-12T16:54:09Z</time>
    </trkpt>
    <trkpt lat="38.542078966" lon="34.926357027">
      <ele>1225.15</ele>
      <time>2021-10-12T16:54:10Z</time>
    </trkpt>
    <trkpt lat="38.542076033" lon="34.926392986">
      <ele>1225.045</ele>
      <time>2021-10-12T16:54:11Z</time>
    </trkpt>
    <trkpt lat="38.542074021" lon="34.926430034">
      <ele>1224.988</ele>
      <time>2021-10-12T16:54:12Z</time>
    </trkpt>
    <trkpt lat="38.542067986" lon="34.926470015">
      <ele>1224.948</ele>
      <time>2021-10-12T16:54:13Z</time>
    </trkpt>
    <trkpt lat="38.542063041" lon="34.926505974">
      <ele>1224.905</ele>
      <time>2021-10-12T16:54:14Z</time>
    </trkpt>
    <trkpt lat="38.542059017" lon="34.926540004">
      <ele>1224.855</ele>
      <time>2021-10-12T16:54:15Z</time>
    </trkpt>
    <trkpt lat="38.542056" lon="34.926573029">
      <ele>1224.8</ele>
      <time>2021-10-12T16:54:16Z</time>
    </trkpt>
    <trkpt lat="38.542052982" lon="34.926604964">
      <ele>1224.745</ele>
      <time>2021-10-12T16:54:17Z</time>
    </trkpt>
    <trkpt lat="38.542049965" lon="34.926637989">
      <ele>1224.684</ele>
      <time>2021-10-12T16:54:18Z</time>
    </trkpt>
    <trkpt lat="38.542047031" lon="34.926672019">
      <ele>1224.65</ele>
      <time>2021-10-12T16:54:19Z</time>
    </trkpt>
    <trkpt lat="38.542040996" lon="34.926708983">
      <ele>1224.805</ele>
      <time>2021-10-12T16:54:20Z</time>
    </trkpt>
    <trkpt lat="38.542021969" lon="34.926746031">
      <ele>1225.007</ele>
      <time>2021-10-12T16:54:22Z</time>
    </trkpt>
    <trkpt lat="38.54200596" lon="34.926776038">
      <ele>1225.172</ele>
      <time>2021-10-12T16:54:23Z</time>
    </trkpt>
    <trkpt lat="38.54199104" lon="34.92680504">
      <ele>1225.33</ele>
      <time>2021-10-12T16:54:24Z</time>
    </trkpt>
    <trkpt lat="38.541972013" lon="34.926836975">
      <ele>1225.514</ele>
      <time>2021-10-12T16:54:25Z</time>
    </trkpt>
    <trkpt lat="38.541953992" lon="34.926872011">
      <ele>1225.705</ele>
      <time>2021-10-12T16:54:26Z</time>
    </trkpt>
    <trkpt lat="38.541943012" lon="34.926900007">
      <ele>1225.852</ele>
      <time>2021-10-12T16:54:27Z</time>
    </trkpt>
    <trkpt lat="38.541935971" lon="34.92693102">
      <ele>1226.016</ele>
      <time>2021-10-12T16:54:28Z</time>
    </trkpt>
    <trkpt lat="38.541932032" lon="34.92695801">
      <ele>1226.14</ele>
      <time>2021-10-12T16:54:29Z</time>
    </trkpt>
    <trkpt lat="38.541915016" lon="34.927006038">
      <ele>1226.457</ele>
      <time>2021-10-12T16:54:30Z</time>
    </trkpt>
    <trkpt lat="38.541902024" lon="34.927035039">
      <ele>1226.681</ele>
      <time>2021-10-12T16:54:31Z</time>
    </trkpt>
    <trkpt lat="38.541889032" lon="34.927057">
      <ele>1226.885</ele>
      <time>2021-10-12T16:54:32Z</time>
    </trkpt>
    <trkpt lat="38.541880986" lon="34.92708399">
      <ele>1227.074</ele>
      <time>2021-10-12T16:54:33Z</time>
    </trkpt>
    <trkpt lat="38.541867994" lon="34.927112991">
      <ele>1227.324</ele>
      <time>2021-10-12T16:54:34Z</time>
    </trkpt>
    <trkpt lat="38.541851984" lon="34.927138975">
      <ele>1227.599</ele>
      <time>2021-10-12T16:54:35Z</time>
    </trkpt>
    <trkpt lat="38.541833963" lon="34.927164037">
      <ele>1227.9</ele>
      <time>2021-10-12T16:54:36Z</time>
    </trkpt>
    <trkpt lat="38.541816026" lon="34.927189015">
      <ele>1228.212</ele>
      <time>2021-10-12T16:54:37Z</time>
    </trkpt>
    <trkpt lat="38.541794987" lon="34.927210975">
      <ele>1228.552</ele>
      <time>2021-10-12T16:54:38Z</time>
    </trkpt>
    <trkpt lat="38.541775038" lon="34.92723302">
      <ele>1228.806</ele>
      <time>2021-10-12T16:54:39Z</time>
    </trkpt>
    <trkpt lat="38.541759029" lon="34.927261015">
      <ele>1228.909</ele>
      <time>2021-10-12T16:54:40Z</time>
    </trkpt>
    <trkpt lat="38.541734973" lon="34.927291023">
      <ele>1229.076</ele>
      <time>2021-10-12T16:54:41Z</time>
    </trkpt>
    <trkpt lat="38.541709995" lon="34.927313989">
      <ele>1229.253</ele>
      <time>2021-10-12T16:54:42Z</time>
    </trkpt>
    <trkpt lat="38.541684011" lon="34.92734299">
      <ele>1229.405</ele>
      <time>2021-10-12T16:54:43Z</time>
    </trkpt>
    <trkpt lat="38.541660961" lon="34.92736998">
      <ele>1229.468</ele>
      <time>2021-10-12T16:54:45Z</time>
    </trkpt>
    <trkpt lat="38.541631959" lon="34.927389007">
      <ele>1229.4</ele>
      <time>2021-10-12T16:54:46Z</time>
    </trkpt>
    <trkpt lat="38.541602036" lon="34.927401999">
      <ele>1229.353</ele>
      <time>2021-10-12T16:54:47Z</time>
    </trkpt>
    <trkpt lat="38.541571023" lon="34.927411973">
      <ele>1229.317</ele>
      <time>2021-10-12T16:54:48Z</time>
    </trkpt>
    <trkpt lat="38.541542022" lon="34.927422032">
      <ele>1229.281</ele>
      <time>2021-10-12T16:54:49Z</time>
    </trkpt>
    <trkpt lat="38.541510003" lon="34.927428989">
      <ele>1229.256</ele>
      <time>2021-10-12T16:54:50Z</time>
    </trkpt>
    <trkpt lat="38.54148997" lon="34.927429995">
      <ele>1229.252</ele>
      <time>2021-10-12T16:54:51Z</time>
    </trkpt>
    <trkpt lat="38.541463986" lon="34.927437035">
      <ele>1229.227</ele>
      <time>2021-10-12T16:54:52Z</time>
    </trkpt>
    <trkpt lat="38.541436996" lon="34.927441981">
      <ele>1229.209</ele>
      <time>2021-10-12T16:54:53Z</time>
    </trkpt>
    <trkpt lat="38.541404977" lon="34.927448016">
      <ele>1229.187</ele>
      <time>2021-10-12T16:54:54Z</time>
    </trkpt>
    <trkpt lat="38.541381005" lon="34.927454973">
      <ele>1229.167</ele>
      <time>2021-10-12T16:54:55Z</time>
    </trkpt>
    <trkpt lat="38.541358039" lon="34.927463019">
      <ele>1229.148</ele>
      <time>2021-10-12T16:54:56Z</time>
    </trkpt>
    <trkpt lat="38.541332977" lon="34.927474">
      <ele>1229.112</ele>
      <time>2021-10-12T16:54:57Z</time>
    </trkpt>
    <trkpt lat="38.541307999" lon="34.927480035">
      <ele>1229.093</ele>
      <time>2021-10-12T16:54:58Z</time>
    </trkpt>
    <trkpt lat="38.541283021" lon="34.927487997">
      <ele>1229.06</ele>
      <time>2021-10-12T16:54:59Z</time>
    </trkpt>
    <trkpt lat="38.541256031" lon="34.927505013">
      <ele>1228.982</ele>
      <time>2021-10-12T16:55:00Z</time>
    </trkpt>
    <trkpt lat="38.541228035" lon="34.92752404">
      <ele>1228.913</ele>
      <time>2021-10-12T16:55:01Z</time>
    </trkpt>
    <trkpt lat="38.541181013" lon="34.927553963">
      <ele>1228.806</ele>
      <time>2021-10-12T16:55:03Z</time>
    </trkpt>
    <trkpt lat="38.541145977" lon="34.927581036">
      <ele>1228.708</ele>
      <time>2021-10-12T16:55:05Z</time>
    </trkpt>
    <trkpt lat="38.541111024" lon="34.927608026">
      <ele>1228.612</ele>
      <time>2021-10-12T16:55:06Z</time>
    </trkpt>
    <trkpt lat="38.541080011" lon="34.927631998">
      <ele>1228.696</ele>
      <time>2021-10-12T16:55:08Z</time>
    </trkpt>
    <trkpt lat="38.541048998" lon="34.927654965">
      <ele>1228.765</ele>
      <time>2021-10-12T16:55:09Z</time>
    </trkpt>
    <trkpt lat="38.541012034" lon="34.927678015">
      <ele>1228.844</ele>
      <time>2021-10-12T16:55:10Z</time>
    </trkpt>
    <trkpt lat="38.540976997" lon="34.927707016">
      <ele>1228.861</ele>
      <time>2021-10-12T16:55:12Z</time>
    </trkpt>
    <trkpt lat="38.540943973" lon="34.927734006">
      <ele>1228.854</ele>
      <time>2021-10-12T16:55:13Z</time>
    </trkpt>
    <trkpt lat="38.54091296" lon="34.927758984">
      <ele>1228.829</ele>
      <time>2021-10-12T16:55:15Z</time>
    </trkpt>
    <trkpt lat="38.540883958" lon="34.92778304">
      <ele>1228.799</ele>
      <time>2021-10-12T16:55:16Z</time>
    </trkpt>
    <trkpt lat="38.540854035" lon="34.927807013">
      <ele>1228.82</ele>
      <time>2021-10-12T16:55:17Z</time>
    </trkpt>
    <trkpt lat="38.540826039" lon="34.927831991">
      <ele>1228.884</ele>
      <time>2021-10-12T16:55:19Z</time>
    </trkpt>
    <trkpt lat="38.540797038" lon="34.927856969">
      <ele>1229.107</ele>
      <time>2021-10-12T16:55:20Z</time>
    </trkpt>
    <trkpt lat="38.540771976" lon="34.927883036">
      <ele>1229.284</ele>
      <time>2021-10-12T16:55:21Z</time>
    </trkpt>
    <trkpt lat="38.540744986" lon="34.927912038">
      <ele>1229.471</ele>
      <time>2021-10-12T16:55:22Z</time>
    </trkpt>
    <trkpt lat="38.540720008" lon="34.927941039">
      <ele>1229.636</ele>
      <time>2021-10-12T16:55:24Z</time>
    </trkpt>
    <trkpt lat="38.540699976" lon="34.927970963">
      <ele>1229.745</ele>
      <time>2021-10-12T16:55:25Z</time>
    </trkpt>
    <trkpt lat="38.540677009" lon="34.928002981">
      <ele>1229.878</ele>
      <time>2021-10-12T16:55:26Z</time>
    </trkpt>
    <trkpt lat="38.540655971" lon="34.928032989">
      <ele>1229.997</ele>
      <time>2021-10-12T16:55:27Z</time>
    </trkpt>
    <trkpt lat="38.54063401" lon="34.928065008">
      <ele>1230.128</ele>
      <time>2021-10-12T16:55:29Z</time>
    </trkpt>
    <trkpt lat="38.540613977" lon="34.928098032">
      <ele>1230.248</ele>
      <time>2021-10-12T16:55:30Z</time>
    </trkpt>
    <trkpt lat="38.54059604" lon="34.928128039">
      <ele>1230.34</ele>
      <time>2021-10-12T16:55:31Z</time>
    </trkpt>
    <trkpt lat="38.540576007" lon="34.92816098">
      <ele>1230.428</ele>
      <time>2021-10-12T16:55:32Z</time>
    </trkpt>
    <trkpt lat="38.540553963" lon="34.928192999">
      <ele>1230.525</ele>
      <time>2021-10-12T16:55:33Z</time>
    </trkpt>
    <trkpt lat="38.54053502" lon="34.928219989">
      <ele>1230.674</ele>
      <time>2021-10-12T16:55:34Z</time>
    </trkpt>
    <trkpt lat="38.540511969" lon="34.928252008">
      <ele>1230.874</ele>
      <time>2021-10-12T16:55:36Z</time>
    </trkpt>
    <trkpt lat="38.540489003" lon="34.928281009">
      <ele>1231.102</ele>
      <time>2021-10-12T16:55:37Z</time>
    </trkpt>
    <trkpt lat="38.540467964" lon="34.928307999">
      <ele>1231.324</ele>
      <time>2021-10-12T16:55:38Z</time>
    </trkpt>
    <trkpt lat="38.540440975" lon="34.928337">
      <ele>1231.631</ele>
      <time>2021-10-12T16:55:39Z</time>
    </trkpt>
    <trkpt lat="38.540421026" lon="34.928360973">
      <ele>1231.79</ele>
      <time>2021-10-12T16:55:40Z</time>
    </trkpt>
    <trkpt lat="38.540401999" lon="34.928385029">
      <ele>1231.922</ele>
      <time>2021-10-12T16:55:41Z</time>
    </trkpt>
    <trkpt lat="38.540381966" lon="34.928407995">
      <ele>1232.063</ele>
      <time>2021-10-12T16:55:42Z</time>
    </trkpt>
    <trkpt lat="38.540364029" lon="34.928430961">
      <ele>1232.164</ele>
      <time>2021-10-12T16:55:43Z</time>
    </trkpt>
    <trkpt lat="38.540339973" lon="34.928460969">
      <ele>1232.288</ele>
      <time>2021-10-12T16:55:44Z</time>
    </trkpt>
    <trkpt lat="38.540314995" lon="34.928487958">
      <ele>1232.425</ele>
      <time>2021-10-12T16:55:46Z</time>
    </trkpt>
    <trkpt lat="38.540290017" lon="34.928514026">
      <ele>1232.551</ele>
      <time>2021-10-12T16:55:47Z</time>
    </trkpt>
    <trkpt lat="38.540263027" lon="34.928539004">
      <ele>1232.612</ele>
      <time>2021-10-12T16:55:48Z</time>
    </trkpt>
    <trkpt lat="38.540236959" lon="34.928560965">
      <ele>1232.628</ele>
      <time>2021-10-12T16:55:49Z</time>
    </trkpt>
    <trkpt lat="38.540212987" lon="34.928588038">
      <ele>1232.613</ele>
      <time>2021-10-12T16:55:50Z</time>
    </trkpt>
    <trkpt lat="38.540188009" lon="34.928608993">
      <ele>1232.659</ele>
      <time>2021-10-12T16:55:51Z</time>
    </trkpt>
    <trkpt lat="38.540169988" lon="34.928630032">
      <ele>1232.666</ele>
      <time>2021-10-12T16:55:52Z</time>
    </trkpt>
    <trkpt lat="38.540146016" lon="34.928654004">
      <ele>1232.713</ele>
      <time>2021-10-12T16:55:54Z</time>
    </trkpt>
    <trkpt lat="38.540124977" lon="34.928672025">
      <ele>1232.782</ele>
      <time>2021-10-12T16:55:54Z</time>
    </trkpt>
    <trkpt lat="38.540109973" lon="34.928699015">
      <ele>1232.766</ele>
      <time>2021-10-12T16:55:55Z</time>
    </trkpt>
    <trkpt lat="38.540092036" lon="34.928733967">
      <ele>1232.749</ele>
      <time>2021-10-12T16:55:57Z</time>
    </trkpt>
    <trkpt lat="38.540079966" lon="34.92876498">
      <ele>1232.711</ele>
      <time>2021-10-12T16:55:58Z</time>
    </trkpt>
    <trkpt lat="38.540063035" lon="34.928798005">
      <ele>1232.721</ele>
      <time>2021-10-12T16:55:59Z</time>
    </trkpt>
    <trkpt lat="38.540049959" lon="34.928833041">
      <ele>1232.698</ele>
      <time>2021-10-12T16:56:00Z</time>
    </trkpt>
    <trkpt lat="38.540025987" lon="34.928873023">
      <ele>1232.782</ele>
      <time>2021-10-12T16:56:01Z</time>
    </trkpt>
    <trkpt lat="38.54000302" lon="34.928908981">
      <ele>1232.824</ele>
      <time>2021-10-12T16:56:03Z</time>
    </trkpt>
    <trkpt lat="38.539987011" lon="34.928939994">
      <ele>1232.734</ele>
      <time>2021-10-12T16:56:04Z</time>
    </trkpt>
    <trkpt lat="38.539971001" lon="34.928977964">
      <ele>1232.601</ele>
      <time>2021-10-12T16:56:05Z</time>
    </trkpt>
    <trkpt lat="38.539951975" lon="34.929014007">
      <ele>1232.523</ele>
      <time>2021-10-12T16:56:06Z</time>
    </trkpt>
    <trkpt lat="38.539934037" lon="34.929052982">
      <ele>1232.434</ele>
      <time>2021-10-12T16:56:08Z</time>
    </trkpt>
    <trkpt lat="38.539917022" lon="34.929092964">
      <ele>1232.348</ele>
      <time>2021-10-12T16:56:09Z</time>
    </trkpt>
    <trkpt lat="38.539901013" lon="34.929123977">
      <ele>1232.322</ele>
      <time>2021-10-12T16:56:10Z</time>
    </trkpt>
    <trkpt lat="38.539878968" lon="34.929160019">
      <ele>1232.345</ele>
      <time>2021-10-12T16:56:11Z</time>
    </trkpt>
    <trkpt lat="38.539858013" lon="34.929195978">
      <ele>1232.374</ele>
      <time>2021-10-12T16:56:13Z</time>
    </trkpt>
    <trkpt lat="38.539836975" lon="34.929225985">
      <ele>1232.422</ele>
      <time>2021-10-12T16:56:14Z</time>
    </trkpt>
    <trkpt lat="38.539813003" lon="34.929255992">
      <ele>1232.482</ele>
      <time>2021-10-12T16:56:15Z</time>
    </trkpt>
    <trkpt lat="38.539787019" lon="34.929283988">
      <ele>1232.554</ele>
      <time>2021-10-12T16:56:16Z</time>
    </trkpt>
    <trkpt lat="38.539762041" lon="34.929306032">
      <ele>1232.638</ele>
      <time>2021-10-12T16:56:17Z</time>
    </trkpt>
    <trkpt lat="38.539735973" lon="34.929326987">
      <ele>1232.726</ele>
      <time>2021-10-12T16:56:19Z</time>
    </trkpt>
    <trkpt lat="38.539709989" lon="34.929350037">
      <ele>1232.724</ele>
      <time>2021-10-12T16:56:20Z</time>
    </trkpt>
    <trkpt lat="38.539689034" lon="34.929365963">
      <ele>1232.685</ele>
      <time>2021-10-12T16:56:21Z</time>
    </trkpt>
    <trkpt lat="38.539665984" lon="34.929382978">
      <ele>1232.645</ele>
      <time>2021-10-12T16:56:22Z</time>
    </trkpt>
    <trkpt lat="38.539647041" lon="34.92939597">
      <ele>1232.62</ele>
      <time>2021-10-12T16:56:22Z</time>
    </trkpt>
    <trkpt lat="38.539628014" lon="34.929404017">
      <ele>1232.63</ele>
      <time>2021-10-12T16:56:23Z</time>
    </trkpt>
    <trkpt lat="38.539608987" lon="34.929410974">
      <ele>1232.649</ele>
      <time>2021-10-12T16:56:24Z</time>
    </trkpt>
    <trkpt lat="38.539588032" lon="34.929416003">
      <ele>1232.688</ele>
      <time>2021-10-12T16:56:25Z</time>
    </trkpt>
    <trkpt lat="38.539561965" lon="34.929423966">
      <ele>1232.724</ele>
      <time>2021-10-12T16:56:26Z</time>
    </trkpt>
    <trkpt lat="38.539536987" lon="34.929434024">
      <ele>1232.742</ele>
      <time>2021-10-12T16:56:27Z</time>
    </trkpt>
    <trkpt lat="38.539511003" lon="34.929441987">
      <ele>1232.778</ele>
      <time>2021-10-12T16:56:28Z</time>
    </trkpt>
    <trkpt lat="38.539483007" lon="34.929451961">
      <ele>1232.83</ele>
      <time>2021-10-12T16:56:29Z</time>
    </trkpt>
    <trkpt lat="38.539460041" lon="34.92945699">
      <ele>1232.896</ele>
      <time>2021-10-12T16:56:30Z</time>
    </trkpt>
    <trkpt lat="38.539435985" lon="34.929461014">
      <ele>1232.971</ele>
      <time>2021-10-12T16:56:30Z</time>
    </trkpt>
    <trkpt lat="38.539407989" lon="34.929470988">
      <ele>1233.036</ele>
      <time>2021-10-12T16:56:32Z</time>
    </trkpt>
    <trkpt lat="38.539382005" lon="34.929477023">
      <ele>1233.107</ele>
      <time>2021-10-12T16:56:33Z</time>
    </trkpt>
    <trkpt lat="38.539359039" lon="34.929481968">
      <ele>1233.172</ele>
      <time>2021-10-12T16:56:33Z</time>
    </trkpt>
    <trkpt lat="38.539336994" lon="34.929494038">
      <ele>1233.208</ele>
      <time>2021-10-12T16:56:34Z</time>
    </trkpt>
    <trkpt lat="38.539313022" lon="34.929502001">
      <ele>1233.266</ele>
      <time>2021-10-12T16:56:35Z</time>
    </trkpt>
    <trkpt lat="38.539289972" lon="34.929522034">
      <ele>1233.277</ele>
      <time>2021-10-12T16:56:36Z</time>
    </trkpt>
    <trkpt lat="38.539264994" lon="34.929535026">
      <ele>1233.32</ele>
      <time>2021-10-12T16:56:37Z</time>
    </trkpt>
    <trkpt lat="38.539217971" lon="34.929552963">
      <ele>1233.425</ele>
      <time>2021-10-12T16:56:39Z</time>
    </trkpt>
    <trkpt lat="38.539196011" lon="34.929552963">
      <ele>1233.504</ele>
      <time>2021-10-12T16:56:40Z</time>
    </trkpt>
    <trkpt lat="38.539166003" lon="34.929565033">
      <ele>1233.567</ele>
      <time>2021-10-12T16:56:41Z</time>
    </trkpt>
    <trkpt lat="38.53913499" lon="34.929579031">
      <ele>1233.574</ele>
      <time>2021-10-12T16:56:42Z</time>
    </trkpt>
    <trkpt lat="38.539104983" lon="34.929591017">
      <ele>1233.577</ele>
      <time>2021-10-12T16:56:43Z</time>
    </trkpt>
    <trkpt lat="38.539071959" lon="34.929608032">
      <ele>1233.551</ele>
      <time>2021-10-12T16:56:45Z</time>
    </trkpt>
    <trkpt lat="38.539037006" lon="34.929629993">
      <ele>1233.487</ele>
      <time>2021-10-12T16:56:46Z</time>
    </trkpt>
    <trkpt lat="38.53900197" lon="34.929646002">
      <ele>1233.437</ele>
      <time>2021-10-12T16:56:48Z</time>
    </trkpt>
    <trkpt lat="38.53898596" lon="34.929664023">
      <ele>1233.346</ele>
      <time>2021-10-12T16:56:48Z</time>
    </trkpt>
    <trkpt lat="38.538939022" lon="34.92969797">
      <ele>1233.159</ele>
      <time>2021-10-12T16:56:50Z</time>
    </trkpt>
    <trkpt lat="38.53891396" lon="34.929716997">
      <ele>1233.036</ele>
      <time>2021-10-12T16:56:51Z</time>
    </trkpt>
    <trkpt lat="38.53888697" lon="34.929738035">
      <ele>1232.887</ele>
      <time>2021-10-12T16:56:53Z</time>
    </trkpt>
    <trkpt lat="38.538804995" lon="34.929806013">
      <ele>1232.488</ele>
      <time>2021-10-12T16:56:56Z</time>
    </trkpt>
    <trkpt lat="38.538743975" lon="34.929858986">
      <ele>1232.272</ele>
      <time>2021-10-12T16:56:59Z</time>
    </trkpt>
    <trkpt lat="38.53870701" lon="34.929879019">
      <ele>1232.241</ele>
      <time>2021-10-12T16:57:00Z</time>
    </trkpt>
    <trkpt lat="38.538646996" lon="34.92992403">
      <ele>1232.18</ele>
      <time>2021-10-12T16:57:03Z</time>
    </trkpt>
    <trkpt lat="38.53861196" lon="34.929953031">
      <ele>1232.167</ele>
      <time>2021-10-12T16:57:05Z</time>
    </trkpt>
    <trkpt lat="38.538582958" lon="34.929979015">
      <ele>1232.278</ele>
      <time>2021-10-12T16:57:06Z</time>
    </trkpt>
    <trkpt lat="38.53855798" lon="34.930001982">
      <ele>1232.375</ele>
      <time>2021-10-12T16:57:07Z</time>
    </trkpt>
    <trkpt lat="38.538534008" lon="34.93002696">
      <ele>1232.458</ele>
      <time>2021-10-12T16:57:08Z</time>
    </trkpt>
    <trkpt lat="38.538507018" lon="34.93005001">
      <ele>1232.569</ele>
      <time>2021-10-12T16:57:09Z</time>
    </trkpt>
    <trkpt lat="38.538474999" lon="34.930077">
      <ele>1232.703</ele>
      <time>2021-10-12T16:57:11Z</time>
    </trkpt>
    <trkpt lat="38.538449015" lon="34.930099966">
      <ele>1232.807</ele>
      <time>2021-10-12T16:57:12Z</time>
    </trkpt>
    <trkpt lat="38.538423032" lon="34.930123016">
      <ele>1232.911</ele>
      <time>2021-10-12T16:57:13Z</time>
    </trkpt>
    <trkpt lat="38.538396964" lon="34.930145983">
      <ele>1233.016</ele>
      <time>2021-10-12T16:57:14Z</time>
    </trkpt>
    <trkpt lat="38.53837098" lon="34.93016501">
      <ele>1233.135</ele>
      <time>2021-10-12T16:57:15Z</time>
    </trkpt>
    <trkpt lat="38.538349019" lon="34.930187976">
      <ele>1233.21</ele>
      <time>2021-10-12T16:57:16Z</time>
    </trkpt>
    <trkpt lat="38.538324963" lon="34.930205997">
      <ele>1233.266</ele>
      <time>2021-10-12T16:57:17Z</time>
    </trkpt>
    <trkpt lat="38.538303003" lon="34.930224018">
      <ele>1233.215</ele>
      <time>2021-10-12T16:57:18Z</time>
    </trkpt>
    <trkpt lat="38.538280036" lon="34.930242039">
      <ele>1233.153</ele>
      <time>2021-10-12T16:57:19Z</time>
    </trkpt>
    <trkpt lat="38.53825598" lon="34.930260982">
      <ele>1233.077</ele>
      <time>2021-10-12T16:57:20Z</time>
    </trkpt>
    <trkpt lat="38.538232008" lon="34.930276992">
      <ele>1233.004</ele>
      <time>2021-10-12T16:57:21Z</time>
    </trkpt>
    <trkpt lat="38.538208036" lon="34.93029099">
      <ele>1232.931</ele>
      <time>2021-10-12T16:57:22Z</time>
    </trkpt>
    <trkpt lat="38.53818398" lon="34.930305993">
      <ele>1232.844</ele>
      <time>2021-10-12T16:57:23Z</time>
    </trkpt>
    <trkpt lat="38.538160007" lon="34.930318985">
      <ele>1232.759</ele>
      <time>2021-10-12T16:57:24Z</time>
    </trkpt>
    <trkpt lat="38.538137041" lon="34.930332983">
      <ele>1232.661</ele>
      <time>2021-10-12T16:57:25Z</time>
    </trkpt>
    <trkpt lat="38.538108962" lon="34.930344969">
      <ele>1232.563</ele>
      <time>2021-10-12T16:57:26Z</time>
    </trkpt>
    <trkpt lat="38.538080966" lon="34.930355027">
      <ele>1232.469</ele>
      <time>2021-10-12T16:57:28Z</time>
    </trkpt>
    <trkpt lat="38.538054982" lon="34.930363996">
      <ele>1232.378</ele>
      <time>2021-10-12T16:57:29Z</time>
    </trkpt>
    <trkpt lat="38.538024975" lon="34.930374976">
      <ele>1232.229</ele>
      <time>2021-10-12T16:57:30Z</time>
    </trkpt>
    <trkpt lat="38.53799304" lon="34.930387968">
      <ele>1232.071</ele>
      <time>2021-10-12T16:57:31Z</time>
    </trkpt>
    <trkpt lat="38.537963033" lon="34.930402972">
      <ele>1231.916</ele>
      <time>2021-10-12T16:57:32Z</time>
    </trkpt>
    <trkpt lat="38.537933026" lon="34.930415964">
      <ele>1231.783</ele>
      <time>2021-10-12T16:57:33Z</time>
    </trkpt>
    <trkpt lat="38.537904024" lon="34.930429962">
      <ele>1231.658</ele>
      <time>2021-10-12T16:57:34Z</time>
    </trkpt>
    <trkpt lat="38.537877034" lon="34.930441026">
      <ele>1231.56</ele>
      <time>2021-10-12T16:57:35Z</time>
    </trkpt>
    <trkpt lat="38.53785499" lon="34.930455023">
      <ele>1231.463</ele>
      <time>2021-10-12T16:57:36Z</time>
    </trkpt>
    <trkpt lat="38.537828" lon="34.930469021">
      <ele>1231.368</ele>
      <time>2021-10-12T16:57:37Z</time>
    </trkpt>
    <trkpt lat="38.537800005" lon="34.930481007">
      <ele>1231.29</ele>
      <time>2021-10-12T16:57:39Z</time>
    </trkpt>
    <trkpt lat="38.537774021" lon="34.930491988">
      <ele>1231.242</ele>
      <time>2021-10-12T16:57:40Z</time>
    </trkpt>
    <trkpt lat="38.537748959" lon="34.930502968">
      <ele>1231.293</ele>
      <time>2021-10-12T16:57:41Z</time>
    </trkpt>
    <trkpt lat="38.537720963" lon="34.930514032">
      <ele>1231.354</ele>
      <time>2021-10-12T16:57:42Z</time>
    </trkpt>
    <trkpt lat="38.537691962" lon="34.930531969">
      <ele>1231.394</ele>
      <time>2021-10-12T16:57:43Z</time>
    </trkpt>
    <trkpt lat="38.537660027" lon="34.930548985">
      <ele>1231.448</ele>
      <time>2021-10-12T16:57:44Z</time>
    </trkpt>
    <trkpt lat="38.53763002" lon="34.930563988">
      <ele>1231.485</ele>
      <time>2021-10-12T16:57:45Z</time>
    </trkpt>
    <trkpt lat="38.537600012" lon="34.930578992">
      <ele>1231.502</ele>
      <time>2021-10-12T16:57:47Z</time>
    </trkpt>
    <trkpt lat="38.537573023" lon="34.930590978">
      <ele>1231.516</ele>
      <time>2021-10-12T16:57:48Z</time>
    </trkpt>
    <trkpt lat="38.537545027" lon="34.930604976">
      <ele>1231.511</ele>
      <time>2021-10-12T16:57:49Z</time>
    </trkpt>
    <trkpt lat="38.537516026" lon="34.930619979">
      <ele>1231.492</ele>
      <time>2021-10-12T16:57:50Z</time>
    </trkpt>
    <trkpt lat="38.537489958" lon="34.93063096">
      <ele>1231.493</ele>
      <time>2021-10-12T16:57:51Z</time>
    </trkpt>
    <trkpt lat="38.537463974" lon="34.930645041">
      <ele>1231.485</ele>
      <time>2021-10-12T16:57:52Z</time>
    </trkpt>
    <trkpt lat="38.537435979" lon="34.930658033">
      <ele>1231.493</ele>
      <time>2021-10-12T16:57:53Z</time>
    </trkpt>
    <trkpt lat="38.537413012" lon="34.930672031">
      <ele>1231.475</ele>
      <time>2021-10-12T16:57:54Z</time>
    </trkpt>
    <trkpt lat="38.537386023" lon="34.93068804">
      <ele>1231.456</ele>
      <time>2021-10-12T16:57:55Z</time>
    </trkpt>
    <trkpt lat="38.537361966" lon="34.930699021">
      <ele>1231.464</ele>
      <time>2021-10-12T16:57:56Z</time>
    </trkpt>
    <trkpt lat="38.537336988" lon="34.930712013">
      <ele>1231.46</ele>
      <time>2021-10-12T16:57:57Z</time>
    </trkpt>
    <trkpt lat="38.537307987" lon="34.930719975">
      <ele>1231.507</ele>
      <time>2021-10-12T16:57:58Z</time>
    </trkpt>
    <trkpt lat="38.537280997" lon="34.930727016">
      <ele>1231.554</ele>
      <time>2021-10-12T16:57:59Z</time>
    </trkpt>
    <trkpt lat="38.537256019" lon="34.930731962">
      <ele>1231.608</ele>
      <time>2021-10-12T16:58:00Z</time>
    </trkpt>
    <trkpt lat="38.537228024" lon="34.930739002">
      <ele>1231.658</ele>
      <time>2021-10-12T16:58:01Z</time>
    </trkpt>
    <trkpt lat="38.537201034" lon="34.930744031">
      <ele>1231.695</ele>
      <time>2021-10-12T16:58:02Z</time>
    </trkpt>
    <trkpt lat="38.537174966" lon="34.930747971">
      <ele>1231.732</ele>
      <time>2021-10-12T16:58:03Z</time>
    </trkpt>
    <trkpt lat="38.537145965" lon="34.930754006">
      <ele>1231.767</ele>
      <time>2021-10-12T16:58:04Z</time>
    </trkpt>
    <trkpt lat="38.537117969" lon="34.930758029">
      <ele>1231.816</ele>
      <time>2021-10-12T16:58:05Z</time>
    </trkpt>
    <trkpt lat="38.537088968" lon="34.930766998">
      <ele>1231.843</ele>
      <time>2021-10-12T16:58:06Z</time>
    </trkpt>
    <trkpt lat="38.537059966" lon="34.930773033">
      <ele>1231.891</ele>
      <time>2021-10-12T16:58:07Z</time>
    </trkpt>
    <trkpt lat="38.537030965" lon="34.93077999">
      <ele>1231.94</ele>
      <time>2021-10-12T16:58:08Z</time>
    </trkpt>
    <trkpt lat="38.537001964" lon="34.930783007">
      <ele>1232.012</ele>
      <time>2021-10-12T16:58:10Z</time>
    </trkpt>
    <trkpt lat="38.53697204" lon="34.930786025">
      <ele>1232.088</ele>
      <time>2021-10-12T16:58:11Z</time>
    </trkpt>
    <trkpt lat="38.536943039" lon="34.930792982">
      <ele>1232.145</ele>
      <time>2021-10-12T16:58:12Z</time>
    </trkpt>
    <trkpt lat="38.536912026" lon="34.93080304">
      <ele>1232.096</ele>
      <time>2021-10-12T16:58:13Z</time>
    </trkpt>
    <trkpt lat="38.536881013" lon="34.93081402">
      <ele>1232.054</ele>
      <time>2021-10-12T16:58:14Z</time>
    </trkpt>
    <trkpt lat="38.536851006" lon="34.930820977">
      <ele>1232.03</ele>
      <time>2021-10-12T16:58:15Z</time>
    </trkpt>
    <trkpt lat="38.536816975" lon="34.930831036">
      <ele>1232.004</ele>
      <time>2021-10-12T16:58:17Z</time>
    </trkpt>
    <trkpt lat="38.536753021" lon="34.930847967">
      <ele>1231.984</ele>
      <time>2021-10-12T16:58:19Z</time>
    </trkpt>
    <trkpt lat="38.536722008" lon="34.930857019">
      <ele>1231.983</ele>
      <time>2021-10-12T16:58:20Z</time>
    </trkpt>
    <trkpt lat="38.536694013" lon="34.930864982">
      <ele>1231.989</ele>
      <time>2021-10-12T16:58:21Z</time>
    </trkpt>
    <trkpt lat="38.5364516" lon="34.931007326">
      <ele>1232.774</ele>
      <time>2021-10-12T16:58:31Z</time>
    </trkpt>
    <trkpt lat="38.53615022" lon="34.931219661">
      <ele>1233.468</ele>
      <time>2021-10-12T16:58:44Z</time>
    </trkpt>
    <trkpt lat="38.535773151" lon="34.931496432">
      <ele>1233.737</ele>
      <time>2021-10-12T16:59:00Z</time>
    </trkpt>
    <trkpt lat="38.535496787" lon="34.93171451">
      <ele>1235.172</ele>
      <time>2021-10-12T16:59:12Z</time>
    </trkpt>
    <trkpt lat="38.535258025" lon="34.931936022">
      <ele>1236.112</ele>
      <time>2021-10-12T16:59:23Z</time>
    </trkpt>
    <trkpt lat="38.535238998" lon="34.931957982">
      <ele>1236.328</ele>
      <time>2021-10-12T16:59:24Z</time>
    </trkpt>
    <trkpt lat="38.535217037" lon="34.931982961">
      <ele>1236.576</ele>
      <time>2021-10-12T16:59:25Z</time>
    </trkpt>
    <trkpt lat="38.535198011" lon="34.932003999">
      <ele>1236.789</ele>
      <time>2021-10-12T16:59:26Z</time>
    </trkpt>
    <trkpt lat="38.535178984" lon="34.93202596">
      <ele>1237.005</ele>
      <time>2021-10-12T16:59:27Z</time>
    </trkpt>
    <trkpt lat="38.535156017" lon="34.932046998">
      <ele>1237.246</ele>
      <time>2021-10-12T16:59:28Z</time>
    </trkpt>
    <trkpt lat="38.535132967" lon="34.932066025">
      <ele>1237.48</ele>
      <time>2021-10-12T16:59:29Z</time>
    </trkpt>
    <trkpt lat="38.535108995" lon="34.93208304">
      <ele>1237.714</ele>
      <time>2021-10-12T16:59:30Z</time>
    </trkpt>
    <trkpt lat="38.535084017" lon="34.932099972">
      <ele>1237.955</ele>
      <time>2021-10-12T16:59:31Z</time>
    </trkpt>
    <trkpt lat="38.535059039" lon="34.932117993">
      <ele>1238.2</ele>
      <time>2021-10-12T16:59:32Z</time>
    </trkpt>
    <trkpt lat="38.535036994" lon="34.932132997">
      <ele>1238.412</ele>
      <time>2021-10-12T16:59:33Z</time>
    </trkpt>
    <trkpt lat="38.53501101" lon="34.932150012">
      <ele>1238.661</ele>
      <time>2021-10-12T16:59:34Z</time>
    </trkpt>
    <trkpt lat="38.534987038" lon="34.932167027">
      <ele>1238.801</ele>
      <time>2021-10-12T16:59:35Z</time>
    </trkpt>
    <trkpt lat="38.53496097" lon="34.932183959">
      <ele>1238.862</ele>
      <time>2021-10-12T16:59:36Z</time>
    </trkpt>
    <trkpt lat="38.534933981" lon="34.932199968">
      <ele>1238.92</ele>
      <time>2021-10-12T16:59:37Z</time>
    </trkpt>
    <trkpt lat="38.534910008" lon="34.93221296">
      <ele>1238.967</ele>
      <time>2021-10-12T16:59:38Z</time>
    </trkpt>
    <trkpt lat="38.53488503" lon="34.932224024">
      <ele>1239.0</ele>
      <time>2021-10-12T16:59:39Z</time>
    </trkpt>
    <trkpt lat="38.53483499" lon="34.932245985">
      <ele>1239.0</ele>
      <time>2021-10-12T16:59:41Z</time>
    </trkpt>
    <trkpt lat="38.534780005" lon="34.93227398">
      <ele>1239.0</ele>
      <time>2021-10-12T16:59:43Z</time>
    </trkpt>
    <trkpt lat="38.534749998" lon="34.932287978">
      <ele>1239.0</ele>
      <time>2021-10-12T16:59:45Z</time>
    </trkpt>
    <trkpt lat="38.534720996" lon="34.93230097">
      <ele>1238.998</ele>
      <time>2021-10-12T16:59:46Z</time>
    </trkpt>
    <trkpt lat="38.534696018" lon="34.932309017">
      <ele>1238.965</ele>
      <time>2021-10-12T16:59:47Z</time>
    </trkpt>
    <trkpt lat="38.534673974" lon="34.932314968">
      <ele>1238.942</ele>
      <time>2021-10-12T16:59:47Z</time>
    </trkpt>
    <trkpt lat="38.534642961" lon="34.932323014">
      <ele>1238.922</ele>
      <time>2021-10-12T16:59:49Z</time>
    </trkpt>
    <trkpt lat="38.534613037" lon="34.932329971">
      <ele>1238.912</ele>
      <time>2021-10-12T16:59:50Z</time>
    </trkpt>
    <trkpt lat="38.534582024" lon="34.932329971">
      <ele>1238.887</ele>
      <time>2021-10-12T16:59:51Z</time>
    </trkpt>
    <trkpt lat="38.534554029" lon="34.932333995">
      <ele>1238.882</ele>
      <time>2021-10-12T16:59:52Z</time>
    </trkpt>
    <trkpt lat="38.534523016" lon="34.932338018">
      <ele>1238.881</ele>
      <time>2021-10-12T16:59:53Z</time>
    </trkpt>
    <trkpt lat="38.534493009" lon="34.932341035">
      <ele>1238.881</ele>
      <time>2021-10-12T16:59:54Z</time>
    </trkpt>
    <trkpt lat="38.534464007" lon="34.932342041">
      <ele>1238.872</ele>
      <time>2021-10-12T16:59:55Z</time>
    </trkpt>
    <trkpt lat="38.534438023" lon="34.932343969">
      <ele>1238.923</ele>
      <time>2021-10-12T16:59:56Z</time>
    </trkpt>
    <trkpt lat="38.534412039" lon="34.932342041">
      <ele>1239.096</ele>
      <time>2021-10-12T16:59:57Z</time>
    </trkpt>
    <trkpt lat="38.534386978" lon="34.932341035">
      <ele>1239.269</ele>
      <time>2021-10-12T16:59:58Z</time>
    </trkpt>
    <trkpt lat="38.534360994" lon="34.932342963">
      <ele>1239.47</ele>
      <time>2021-10-12T16:59:59Z</time>
    </trkpt>
    <trkpt lat="38.534334004" lon="34.932343969">
      <ele>1239.672</ele>
      <time>2021-10-12T17:00:00Z</time>
    </trkpt>
    <trkpt lat="38.53430802" lon="34.93234003">
      <ele>1239.83</ele>
      <time>2021-10-12T17:00:01Z</time>
    </trkpt>
    <trkpt lat="38.534278013" lon="34.932338018">
      <ele>1240.032</ele>
      <time>2021-10-12T17:00:02Z</time>
    </trkpt>
    <trkpt lat="38.534248006" lon="34.932338018">
      <ele>1240.248</ele>
      <time>2021-10-12T17:00:03Z</time>
    </trkpt>
    <trkpt lat="38.53422001" lon="34.932341035">
      <ele>1240.471</ele>
      <time>2021-10-12T17:00:04Z</time>
    </trkpt>
    <trkpt lat="38.534194026" lon="34.932342041">
      <ele>1240.666</ele>
      <time>2021-10-12T17:00:05Z</time>
    </trkpt>
    <trkpt lat="38.534168964" lon="34.93234003">
      <ele>1240.832</ele>
      <time>2021-10-12T17:00:06Z</time>
    </trkpt>
    <trkpt lat="38.534140969" lon="34.932337012">
      <ele>1241.104</ele>
      <time>2021-10-12T17:00:07Z</time>
    </trkpt>
    <trkpt lat="38.534084978" lon="34.932333995">
      <ele>1241.687</ele>
      <time>2021-10-12T17:00:09Z</time>
    </trkpt>
    <trkpt lat="38.534058994" lon="34.932329971">
      <ele>1241.939</ele>
      <time>2021-10-12T17:00:10Z</time>
    </trkpt>
    <trkpt lat="38.534029992" lon="34.932327038">
      <ele>1242.231</ele>
      <time>2021-10-12T17:00:11Z</time>
    </trkpt>
    <trkpt lat="38.534004008" lon="34.932326032">
      <ele>1242.504</ele>
      <time>2021-10-12T17:00:12Z</time>
    </trkpt>
    <trkpt lat="38.533976013" lon="34.93232796">
      <ele>1242.82</ele>
      <time>2021-10-12T17:00:13Z</time>
    </trkpt>
    <trkpt lat="38.533948017" lon="34.932328966">
      <ele>1243.13</ele>
      <time>2021-10-12T17:00:14Z</time>
    </trkpt>
    <trkpt lat="38.533920022" lon="34.932327038">
      <ele>1243.418</ele>
      <time>2021-10-12T17:00:15Z</time>
    </trkpt>
    <trkpt lat="38.533892026" lon="34.932325026">
      <ele>1243.706</ele>
      <time>2021-10-12T17:00:16Z</time>
    </trkpt>
    <trkpt lat="38.533864031" lon="34.932321003">
      <ele>1243.827</ele>
      <time>2021-10-12T17:00:18Z</time>
    </trkpt>
    <trkpt lat="38.533837963" lon="34.932318991">
      <ele>1243.936</ele>
      <time>2021-10-12T17:00:18Z</time>
    </trkpt>
    <trkpt lat="38.533810973" lon="34.932317985">
      <ele>1244.057</ele>
      <time>2021-10-12T17:00:19Z</time>
    </trkpt>
    <trkpt lat="38.533785995" lon="34.932317985">
      <ele>1244.175</ele>
      <time>2021-10-12T17:00:20Z</time>
    </trkpt>
    <trkpt lat="38.533756994" lon="34.932314968">
      <ele>1244.3</ele>
      <time>2021-10-12T17:00:21Z</time>
    </trkpt>
    <trkpt lat="38.533732016" lon="34.932312034">
      <ele>1244.411</ele>
      <time>2021-10-12T17:00:22Z</time>
    </trkpt>
    <trkpt lat="38.533706032" lon="34.932311028">
      <ele>1244.535</ele>
      <time>2021-10-12T17:00:23Z</time>
    </trkpt>
    <trkpt lat="38.533679964" lon="34.932310022">
      <ele>1244.661</ele>
      <time>2021-10-12T17:00:24Z</time>
    </trkpt>
    <trkpt lat="38.533654986" lon="34.932308011">
      <ele>1244.782</ele>
      <time>2021-10-12T17:00:25Z</time>
    </trkpt>
    <trkpt lat="38.533629002" lon="34.932304993">
      <ele>1244.91</ele>
      <time>2021-10-12T17:00:26Z</time>
    </trkpt>
    <trkpt lat="38.533604024" lon="34.932298036">
      <ele>1244.974</ele>
      <time>2021-10-12T17:00:27Z</time>
    </trkpt>
    <trkpt lat="38.533307975" lon="34.932255959">
      <ele>1243.989</ele>
      <time>2021-10-12T17:00:38Z</time>
    </trkpt>
    <trkpt lat="38.53328702" lon="34.932255037">
      <ele>1243.98</ele>
      <time>2021-10-12T17:00:39Z</time>
    </trkpt>
    <trkpt lat="38.533262964" lon="34.932253025">
      <ele>1243.972</ele>
      <time>2021-10-12T17:00:40Z</time>
    </trkpt>
    <trkpt lat="38.533235975" lon="34.932247996">
      <ele>1243.967</ele>
      <time>2021-10-12T17:00:41Z</time>
    </trkpt>
    <trkpt lat="38.533206973" lon="34.932240034">
      <ele>1243.971</ele>
      <time>2021-10-12T17:00:42Z</time>
    </trkpt>
    <trkpt lat="38.533183001" lon="34.932232993">
      <ele>1243.979</ele>
      <time>2021-10-12T17:00:43Z</time>
    </trkpt>
    <trkpt lat="38.533157017" lon="34.93222503">
      <ele>1243.994</ele>
      <time>2021-10-12T17:00:44Z</time>
    </trkpt>
    <trkpt lat="38.533133967" lon="34.932218995">
      <ele>1244.0</ele>
      <time>2021-10-12T17:00:45Z</time>
    </trkpt>
    <trkpt lat="38.533109995" lon="34.932212038">
      <ele>1244.0</ele>
      <time>2021-10-12T17:00:46Z</time>
    </trkpt>
    <trkpt lat="38.533060038" lon="34.932199968">
      <ele>1244.0</ele>
      <time>2021-10-12T17:00:48Z</time>
    </trkpt>
    <trkpt lat="38.533031959" lon="34.932190999">
      <ele>1244.094</ele>
      <time>2021-10-12T17:00:49Z</time>
    </trkpt>
    <trkpt lat="38.533005975" lon="34.932179013">
      <ele>1244.206</ele>
      <time>2021-10-12T17:00:50Z</time>
    </trkpt>
    <trkpt lat="38.532956019" lon="34.932161998">
      <ele>1244.436</ele>
      <time>2021-10-12T17:00:52Z</time>
    </trkpt>
    <trkpt lat="38.532933975" lon="34.932155963">
      <ele>1244.542</ele>
      <time>2021-10-12T17:00:52Z</time>
    </trkpt>
    <trkpt lat="38.532912014" lon="34.932146994">
      <ele>1244.657</ele>
      <time>2021-10-12T17:00:53Z</time>
    </trkpt>
    <trkpt lat="38.532887036" lon="34.932140037">
      <ele>1244.786</ele>
      <time>2021-10-12T17:00:54Z</time>
    </trkpt>
    <trkpt lat="38.532864992" lon="34.932135008">
      <ele>1244.901</ele>
      <time>2021-10-12T17:00:55Z</time>
    </trkpt>
    <trkpt lat="38.532843031" lon="34.932129979">
      <ele>1245.019</ele>
      <time>2021-10-12T17:00:56Z</time>
    </trkpt>
    <trkpt lat="38.532817969" lon="34.932125034">
      <ele>1245.155</ele>
      <time>2021-10-12T17:00:57Z</time>
    </trkpt>
    <trkpt lat="38.532792991" lon="34.932116987">
      <ele>1245.303</ele>
      <time>2021-10-12T17:00:58Z</time>
    </trkpt>
    <trkpt lat="38.532769019" lon="34.932109024">
      <ele>1245.483</ele>
      <time>2021-10-12T17:00:59Z</time>
    </trkpt>
    <trkpt lat="38.532744963" lon="34.932098966">
      <ele>1245.732</ele>
      <time>2021-10-12T17:01:00Z</time>
    </trkpt>
    <trkpt lat="38.532723002" lon="34.932091003">
      <ele>1245.96</ele>
      <time>2021-10-12T17:01:00Z</time>
    </trkpt>
    <trkpt lat="38.532701042" lon="34.932087986">
      <ele>1246.169</ele>
      <time>2021-10-12T17:01:01Z</time>
    </trkpt>
    <trkpt lat="38.532655025" lon="34.932081029">
      <ele>1246.617</ele>
      <time>2021-10-12T17:01:03Z</time>
    </trkpt>
    <trkpt lat="38.532630969" lon="34.932079017">
      <ele>1246.845</ele>
      <time>2021-10-12T17:01:04Z</time>
    </trkpt>
    <trkpt lat="38.532605991" lon="34.932076">
      <ele>1247.089</ele>
      <time>2021-10-12T17:01:05Z</time>
    </trkpt>
    <trkpt lat="38.532581013" lon="34.932071976">
      <ele>1247.341</ele>
      <time>2021-10-12T17:01:06Z</time>
    </trkpt>
    <trkpt lat="38.532555029" lon="34.932065019">
      <ele>1247.624</ele>
      <time>2021-10-12T17:01:07Z</time>
    </trkpt>
    <trkpt lat="38.532529967" lon="34.93205999">
      <ele>1247.889</ele>
      <time>2021-10-12T17:01:08Z</time>
    </trkpt>
    <trkpt lat="38.532504989" lon="34.932054039">
      <ele>1248.164</ele>
      <time>2021-10-12T17:01:09Z</time>
    </trkpt>
    <trkpt lat="38.532475987" lon="34.932045992">
      <ele>1248.41</ele>
      <time>2021-10-12T17:01:10Z</time>
    </trkpt>
    <trkpt lat="38.532454027" lon="34.932040963">
      <ele>1248.579</ele>
      <time>2021-10-12T17:01:10Z</time>
    </trkpt>
    <trkpt lat="38.532435" lon="34.932037024">
      <ele>1248.723</ele>
      <time>2021-10-12T17:01:11Z</time>
    </trkpt>
    <trkpt lat="38.532412034" lon="34.932033001">
      <ele>1248.895</ele>
      <time>2021-10-12T17:01:12Z</time>
    </trkpt>
    <trkpt lat="38.532388983" lon="34.93202596">
      <ele>1249.095</ele>
      <time>2021-10-12T17:01:13Z</time>
    </trkpt>
    <trkpt lat="38.532365011" lon="34.932021014">
      <ele>1249.287</ele>
      <time>2021-10-12T17:01:14Z</time>
    </trkpt>
    <trkpt lat="38.532341039" lon="34.932013974">
      <ele>1249.501</ele>
      <time>2021-10-12T17:01:15Z</time>
    </trkpt>
    <trkpt lat="38.532312959" lon="34.932006011">
      <ele>1249.754</ele>
      <time>2021-10-12T17:01:16Z</time>
    </trkpt>
    <trkpt lat="38.532284964" lon="34.931999976">
      <ele>1249.994</ele>
      <time>2021-10-12T17:01:17Z</time>
    </trkpt>
    <trkpt lat="38.532260992" lon="34.93199503">
      <ele>1250.2</ele>
      <time>2021-10-12T17:01:18Z</time>
    </trkpt>
    <trkpt lat="38.532237019" lon="34.931992013">
      <ele>1250.389</ele>
      <time>2021-10-12T17:01:19Z</time>
    </trkpt>
    <trkpt lat="38.532211035" lon="34.931985978">
      <ele>1250.557</ele>
      <time>2021-10-12T17:01:20Z</time>
    </trkpt>
    <trkpt lat="38.532186979" lon="34.931979021">
      <ele>1250.642</ele>
      <time>2021-10-12T17:01:21Z</time>
    </trkpt>
    <trkpt lat="38.532160996" lon="34.931970974">
      <ele>1250.735</ele>
      <time>2021-10-12T17:01:22Z</time>
    </trkpt>
    <trkpt lat="38.532133" lon="34.931964017">
      <ele>1250.811</ele>
      <time>2021-10-12T17:01:23Z</time>
    </trkpt>
    <trkpt lat="38.532107016" lon="34.931957982">
      <ele>1250.874</ele>
      <time>2021-10-12T17:01:24Z</time>
    </trkpt>
    <trkpt lat="38.53208296" lon="34.931953037">
      <ele>1250.923</ele>
      <time>2021-10-12T17:01:24Z</time>
    </trkpt>
    <trkpt lat="38.532057982" lon="34.931947002">
      <ele>1250.978</ele>
      <time>2021-10-12T17:01:25Z</time>
    </trkpt>
    <trkpt lat="38.532031998" lon="34.931942979">
      <ele>1251.011</ele>
      <time>2021-10-12T17:01:26Z</time>
    </trkpt>
    <trkpt lat="38.532008026" lon="34.931939039">
      <ele>1251.039</ele>
      <time>2021-10-12T17:01:27Z</time>
    </trkpt>
    <trkpt lat="38.531984976" lon="34.93193401">
      <ele>1251.075</ele>
      <time>2021-10-12T17:01:28Z</time>
    </trkpt>
    <trkpt lat="38.531963015" lon="34.931926969">
      <ele>1251.126</ele>
      <time>2021-10-12T17:01:29Z</time>
    </trkpt>
    <trkpt lat="38.531922027" lon="34.931910038">
      <ele>1251.248</ele>
      <time>2021-10-12T17:01:31Z</time>
    </trkpt>
    <trkpt lat="38.531898977" lon="34.931907021">
      <ele>1251.269</ele>
      <time>2021-10-12T17:01:31Z</time>
    </trkpt>
    <trkpt lat="38.531873999" lon="34.931902997">
      <ele>1251.298</ele>
      <time>2021-10-12T17:01:32Z</time>
    </trkpt>
    <trkpt lat="38.531850027" lon="34.931896962">
      <ele>1251.342</ele>
      <time>2021-10-12T17:01:33Z</time>
    </trkpt>
    <trkpt lat="38.531823959" lon="34.931890005">
      <ele>1251.392</ele>
      <time>2021-10-12T17:01:34Z</time>
    </trkpt>
    <trkpt lat="38.531798981" lon="34.931885982">
      <ele>1251.421</ele>
      <time>2021-10-12T17:01:35Z</time>
    </trkpt>
    <trkpt lat="38.531776015" lon="34.931879025">
      <ele>1251.471</ele>
      <time>2021-10-12T17:01:36Z</time>
    </trkpt>
    <trkpt lat="38.53175397" lon="34.931875002">
      <ele>1251.5</ele>
      <time>2021-10-12T17:01:37Z</time>
    </trkpt>
    <trkpt lat="38.53173201" lon="34.931866033">
      <ele>1251.565</ele>
      <time>2021-10-12T17:01:38Z</time>
    </trkpt>
    <trkpt lat="38.531709965" lon="34.93186201">
      <ele>1251.594</ele>
      <time>2021-10-12T17:01:39Z</time>
    </trkpt>
    <trkpt lat="38.531686999" lon="34.931858992">
      <ele>1251.615</ele>
      <time>2021-10-12T17:01:39Z</time>
    </trkpt>
    <trkpt lat="38.531666966" lon="34.931858992">
      <ele>1251.615</ele>
      <time>2021-10-12T17:01:40Z</time>
    </trkpt>
    <trkpt lat="38.531641988" lon="34.931856981">
      <ele>1251.691</ele>
      <time>2021-10-12T17:01:41Z</time>
    </trkpt>
    <trkpt lat="38.53161701" lon="34.931850024">
      <ele>1251.798</ele>
      <time>2021-10-12T17:01:42Z</time>
    </trkpt>
    <trkpt lat="38.531595971" lon="34.931846">
      <ele>1251.873</ele>
      <time>2021-10-12T17:01:43Z</time>
    </trkpt>
    <trkpt lat="38.531575017" lon="34.931841977">
      <ele>1251.946</ele>
      <time>2021-10-12T17:01:44Z</time>
    </trkpt>
    <trkpt lat="38.531552972" lon="34.931836026">
      <ele>1252.03</ele>
      <time>2021-10-12T17:01:44Z</time>
    </trkpt>
    <trkpt lat="38.531530006" lon="34.931829991">
      <ele>1252.113</ele>
      <time>2021-10-12T17:01:45Z</time>
    </trkpt>
    <trkpt lat="38.531508967" lon="34.931825968">
      <ele>1252.179</ele>
      <time>2021-10-12T17:01:46Z</time>
    </trkpt>
    <trkpt lat="38.53149103" lon="34.931823034">
      <ele>1252.23</ele>
      <time>2021-10-12T17:01:47Z</time>
    </trkpt>
    <trkpt lat="38.531466974" lon="34.931816999">
      <ele>1252.307</ele>
      <time>2021-10-12T17:01:48Z</time>
    </trkpt>
    <trkpt lat="38.531443002" lon="34.931810964">
      <ele>1252.379</ele>
      <time>2021-10-12T17:01:49Z</time>
    </trkpt>
    <trkpt lat="38.531419029" lon="34.931803001">
      <ele>1252.456</ele>
      <time>2021-10-12T17:01:49Z</time>
    </trkpt>
    <trkpt lat="38.531394973" lon="34.931795038">
      <ele>1252.528</ele>
      <time>2021-10-12T17:01:50Z</time>
    </trkpt>
    <trkpt lat="38.531374019" lon="34.931790009">
      <ele>1252.693</ele>
      <time>2021-10-12T17:01:51Z</time>
    </trkpt>
    <trkpt lat="38.531350968" lon="34.93178498">
      <ele>1252.925</ele>
      <time>2021-10-12T17:01:52Z</time>
    </trkpt>
    <trkpt lat="38.531326996" lon="34.931783974">
      <ele>1253.152</ele>
      <time>2021-10-12T17:01:53Z</time>
    </trkpt>
    <trkpt lat="38.531303024" lon="34.93178498">
      <ele>1253.37</ele>
      <time>2021-10-12T17:01:54Z</time>
    </trkpt>
    <trkpt lat="38.531277962" lon="34.931780035">
      <ele>1253.627</ele>
      <time>2021-10-12T17:01:55Z</time>
    </trkpt>
    <trkpt lat="38.531251978" lon="34.931772994">
      <ele>1253.907</ele>
      <time>2021-10-12T17:01:56Z</time>
    </trkpt>
    <trkpt lat="38.531227" lon="34.931766959">
      <ele>1254.177</ele>
      <time>2021-10-12T17:01:57Z</time>
    </trkpt>
    <trkpt lat="38.531204034" lon="34.931763019">
      <ele>1254.419</ele>
      <time>2021-10-12T17:01:58Z</time>
    </trkpt>
    <trkpt lat="38.531179978" lon="34.931758996">
      <ele>1254.674</ele>
      <time>2021-10-12T17:01:58Z</time>
    </trkpt>
    <trkpt lat="38.531156005" lon="34.931753967">
      <ele>1254.937</ele>
      <time>2021-10-12T17:01:59Z</time>
    </trkpt>
    <trkpt lat="38.531132033" lon="34.931752039">
      <ele>1255.183</ele>
      <time>2021-10-12T17:02:00Z</time>
    </trkpt>
    <trkpt lat="38.531107977" lon="34.931750027">
      <ele>1255.414</ele>
      <time>2021-10-12T17:02:01Z</time>
    </trkpt>
    <trkpt lat="38.531085011" lon="34.93174701">
      <ele>1255.543</ele>
      <time>2021-10-12T17:02:02Z</time>
    </trkpt>
    <trkpt lat="38.53106196" lon="34.931741981">
      <ele>1255.683</ele>
      <time>2021-10-12T17:02:03Z</time>
    </trkpt>
    <trkpt lat="38.531038994" lon="34.93173603">
      <ele>1255.825</ele>
      <time>2021-10-12T17:02:04Z</time>
    </trkpt>
    <trkpt lat="38.530998006" lon="34.931719014">
      <ele>1256.107</ele>
      <time>2021-10-12T17:02:05Z</time>
    </trkpt>
    <trkpt lat="38.530975962" lon="34.931711974">
      <ele>1256.24</ele>
      <time>2021-10-12T17:02:06Z</time>
    </trkpt>
    <trkpt lat="38.530952996" lon="34.931708034">
      <ele>1256.356</ele>
      <time>2021-10-12T17:02:07Z</time>
    </trkpt>
    <trkpt lat="38.530930029" lon="34.931703005">
      <ele>1256.476</ele>
      <time>2021-10-12T17:02:08Z</time>
    </trkpt>
    <trkpt lat="38.530905973" lon="34.931700993">
      <ele>1256.583</ele>
      <time>2021-10-12T17:02:09Z</time>
    </trkpt>
    <trkpt lat="38.530884013" lon="34.931697976">
      <ele>1256.684</ele>
      <time>2021-10-12T17:02:10Z</time>
    </trkpt>
    <trkpt lat="38.530858029" lon="34.931694958">
      <ele>1256.8</ele>
      <time>2021-10-12T17:02:11Z</time>
    </trkpt>
    <trkpt lat="38.530832967" lon="34.931691019">
      <ele>1256.914</ele>
      <time>2021-10-12T17:02:11Z</time>
    </trkpt>
    <trkpt lat="38.530808995" lon="34.93168599">
      <ele>1257.012</ele>
      <time>2021-10-12T17:02:12Z</time>
    </trkpt>
    <trkpt lat="38.530782005" lon="34.93168599">
      <ele>1257.102</ele>
      <time>2021-10-12T17:02:13Z</time>
    </trkpt>
    <trkpt lat="38.530757027" lon="34.931679033">
      <ele>1257.218</ele>
      <time>2021-10-12T17:02:14Z</time>
    </trkpt>
    <trkpt lat="38.530731965" lon="34.931674004">
      <ele>1257.329</ele>
      <time>2021-10-12T17:02:15Z</time>
    </trkpt>
    <trkpt lat="38.530705981" lon="34.931666963">
      <ele>1257.457</ele>
      <time>2021-10-12T17:02:16Z</time>
    </trkpt>
    <trkpt lat="38.530656025" lon="34.931664029">
      <ele>1257.648</ele>
      <time>2021-10-12T17:02:18Z</time>
    </trkpt>
    <trkpt lat="38.530630963" lon="34.931664029">
      <ele>1257.738</ele>
      <time>2021-10-12T17:02:19Z</time>
    </trkpt>
    <trkpt lat="38.530606991" lon="34.931663023">
      <ele>1257.828</ele>
      <time>2021-10-12T17:02:20Z</time>
    </trkpt>
    <trkpt lat="38.530582013" lon="34.931661012">
      <ele>1257.925</ele>
      <time>2021-10-12T17:02:21Z</time>
    </trkpt>
    <trkpt lat="38.530557035" lon="34.931654977">
      <ele>1258.037</ele>
      <time>2021-10-12T17:02:22Z</time>
    </trkpt>
    <trkpt lat="38.530535996" lon="34.931650031">
      <ele>1258.064</ele>
      <time>2021-10-12T17:02:23Z</time>
    </trkpt>
    <trkpt lat="38.530512024" lon="34.931641985">
      <ele>1258.103</ele>
      <time>2021-10-12T17:02:23Z</time>
    </trkpt>
    <trkpt lat="38.530487968" lon="34.931639973">
      <ele>1258.119</ele>
      <time>2021-10-12T17:02:24Z</time>
    </trkpt>
    <trkpt lat="38.53046299" lon="34.931636034">
      <ele>1258.147</ele>
      <time>2021-10-12T17:02:25Z</time>
    </trkpt>
    <trkpt lat="38.530437006" lon="34.931631004">
      <ele>1258.183</ele>
      <time>2021-10-12T17:02:26Z</time>
    </trkpt>
    <trkpt lat="38.530414961" lon="34.931625975">
      <ele>1258.221</ele>
      <time>2021-10-12T17:02:27Z</time>
    </trkpt>
    <trkpt lat="38.530393001" lon="34.931619018">
      <ele>1258.272</ele>
      <time>2021-10-12T17:02:28Z</time>
    </trkpt>
    <trkpt lat="38.530369028" lon="34.931614995">
      <ele>1258.311</ele>
      <time>2021-10-12T17:02:29Z</time>
    </trkpt>
    <trkpt lat="38.530345978" lon="34.931617007">
      <ele>1258.314</ele>
      <time>2021-10-12T17:02:30Z</time>
    </trkpt>
    <trkpt lat="38.530323012" lon="34.931614995">
      <ele>1258.342</ele>
      <time>2021-10-12T17:02:31Z</time>
    </trkpt>
    <trkpt lat="38.530299962" lon="34.931611978">
      <ele>1258.378</ele>
      <time>2021-10-12T17:02:31Z</time>
    </trkpt>
    <trkpt lat="38.530275989" lon="34.93160896">
      <ele>1258.422</ele>
      <time>2021-10-12T17:02:32Z</time>
    </trkpt>
    <trkpt lat="38.530252017" lon="34.931608038">
      <ele>1258.515</ele>
      <time>2021-10-12T17:02:33Z</time>
    </trkpt>
    <trkpt lat="38.530229973" lon="34.931605021">
      <ele>1258.616</ele>
      <time>2021-10-12T17:02:34Z</time>
    </trkpt>
    <trkpt lat="38.530203989" lon="34.93159798">
      <ele>1258.76</ele>
      <time>2021-10-12T17:02:35Z</time>
    </trkpt>
    <trkpt lat="38.530180017" lon="34.931592029">
      <ele>1258.889</ele>
      <time>2021-10-12T17:02:36Z</time>
    </trkpt>
    <trkpt lat="38.53015596" lon="34.931583982">
      <ele>1259.034</ele>
      <time>2021-10-12T17:02:37Z</time>
    </trkpt>
    <trkpt lat="38.530109022" lon="34.931569984">
      <ele>1259.304</ele>
      <time>2021-10-12T17:02:39Z</time>
    </trkpt>
    <trkpt lat="38.530084966" lon="34.931564033">
      <ele>1259.433</ele>
      <time>2021-10-12T17:02:39Z</time>
    </trkpt>
    <trkpt lat="38.530063005" lon="34.931555986">
      <ele>1259.57</ele>
      <time>2021-10-12T17:02:40Z</time>
    </trkpt>
    <trkpt lat="38.530039033" lon="34.931547018">
      <ele>1259.721</ele>
      <time>2021-10-12T17:02:41Z</time>
    </trkpt>
    <trkpt lat="38.530016989" lon="34.931539977">
      <ele>1259.851</ele>
      <time>2021-10-12T17:02:42Z</time>
    </trkpt>
    <trkpt lat="38.52999704" lon="34.93153302">
      <ele>1259.989</ele>
      <time>2021-10-12T17:02:43Z</time>
    </trkpt>
    <trkpt lat="38.529973989" lon="34.931525979">
      <ele>1260.246</ele>
      <time>2021-10-12T17:02:44Z</time>
    </trkpt>
    <trkpt lat="38.529950017" lon="34.931519022">
      <ele>1260.507</ele>
      <time>2021-10-12T17:02:45Z</time>
    </trkpt>
    <trkpt lat="38.529925039" lon="34.931510976">
      <ele>1260.779</ele>
      <time>2021-10-12T17:02:46Z</time>
    </trkpt>
    <trkpt lat="38.529898971" lon="34.931501001">
      <ele>1261.067</ele>
      <time>2021-10-12T17:02:47Z</time>
    </trkpt>
    <trkpt lat="38.529872987" lon="34.931493038">
      <ele>1261.336</ele>
      <time>2021-10-12T17:02:48Z</time>
    </trkpt>
    <trkpt lat="38.529847004" lon="34.931483986">
      <ele>1261.605</ele>
      <time>2021-10-12T17:02:49Z</time>
    </trkpt>
    <trkpt lat="38.52982102" lon="34.931474011">
      <ele>1261.873</ele>
      <time>2021-10-12T17:02:50Z</time>
    </trkpt>
    <trkpt lat="38.529795036" lon="34.931464037">
      <ele>1262.134</ele>
      <time>2021-10-12T17:02:51Z</time>
    </trkpt>
    <trkpt lat="38.52976704" lon="34.931454984">
      <ele>1262.401</ele>
      <time>2021-10-12T17:02:52Z</time>
    </trkpt>
    <trkpt lat="38.529742984" lon="34.931446016">
      <ele>1262.629</ele>
      <time>2021-10-12T17:02:53Z</time>
    </trkpt>
    <trkpt lat="38.529718006" lon="34.931436963">
      <ele>1262.83</ele>
      <time>2021-10-12T17:02:54Z</time>
    </trkpt>
    <trkpt lat="38.529694034" lon="34.931427995">
      <ele>1262.874</ele>
      <time>2021-10-12T17:02:54Z</time>
    </trkpt>
    <trkpt lat="38.529669978" lon="34.93141802">
      <ele>1262.915</ele>
      <time>2021-10-12T17:02:55Z</time>
    </trkpt>
    <trkpt lat="38.529646005" lon="34.931407962">
      <ele>1262.95</ele>
      <time>2021-10-12T17:02:56Z</time>
    </trkpt>
    <trkpt lat="38.529620022" lon="34.931399999">
      <ele>1262.975</ele>
      <time>2021-10-12T17:02:57Z</time>
    </trkpt>
    <trkpt lat="38.529595966" lon="34.931392036">
      <ele>1262.994</ele>
      <time>2021-10-12T17:02:58Z</time>
    </trkpt>
    <trkpt lat="38.529572999" lon="34.931382984">
      <ele>1263.011</ele>
      <time>2021-10-12T17:02:59Z</time>
    </trkpt>
    <trkpt lat="38.529551039" lon="34.931376027">
      <ele>1263.029</ele>
      <time>2021-10-12T17:03:00Z</time>
    </trkpt>
    <trkpt lat="38.529528994" lon="34.93136798">
      <ele>1263.052</ele>
      <time>2021-10-12T17:03:01Z</time>
    </trkpt>
    <trkpt lat="38.529504016" lon="34.931360018">
      <ele>1263.082</ele>
      <time>2021-10-12T17:03:02Z</time>
    </trkpt>
    <trkpt lat="38.52947996" lon="34.931351971">
      <ele>1263.116</ele>
      <time>2021-10-12T17:03:03Z</time>
    </trkpt>
    <trkpt lat="38.529457999" lon="34.931345014">
      <ele>1263.15</ele>
      <time>2021-10-12T17:03:04Z</time>
    </trkpt>
    <trkpt lat="38.529434027" lon="34.931336967">
      <ele>1263.149</ele>
      <time>2021-10-12T17:03:04Z</time>
    </trkpt>
    <trkpt lat="38.529410977" lon="34.931329004">
      <ele>1263.095</ele>
      <time>2021-10-12T17:03:05Z</time>
    </trkpt>
    <trkpt lat="38.529391028" lon="34.93131903">
      <ele>1263.059</ele>
      <time>2021-10-12T17:03:06Z</time>
    </trkpt>
    <trkpt lat="38.529375019" lon="34.93130696">
      <ele>1263.045</ele>
      <time>2021-10-12T17:03:07Z</time>
    </trkpt>
    <trkpt lat="38.529362027" lon="34.931287011">
      <ele>1263.07</ele>
      <time>2021-10-12T17:03:08Z</time>
    </trkpt>
    <trkpt lat="38.529349035" lon="34.931259016">
      <ele>1263.124</ele>
      <time>2021-10-12T17:03:09Z</time>
    </trkpt>
    <trkpt lat="38.529337971" lon="34.931229008">
      <ele>1263.192</ele>
      <time>2021-10-12T17:03:10Z</time>
    </trkpt>
    <trkpt lat="38.52932699" lon="34.931201013">
      <ele>1263.254</ele>
      <time>2021-10-12T17:03:10Z</time>
    </trkpt>
    <trkpt lat="38.529313998" lon="34.931173017">
      <ele>1263.308</ele>
      <time>2021-10-12T17:03:11Z</time>
    </trkpt>
    <trkpt lat="38.529298995" lon="34.93115399">
      <ele>1263.322</ele>
      <time>2021-10-12T17:03:12Z</time>
    </trkpt>
    <trkpt lat="38.529279968" lon="34.931140998">
      <ele>1263.3</ele>
      <time>2021-10-12T17:03:13Z</time>
    </trkpt>
    <trkpt lat="38.529260019" lon="34.931125995">
      <ele>1263.282</ele>
      <time>2021-10-12T17:03:14Z</time>
    </trkpt>
    <trkpt lat="38.529240992" lon="34.931109985">
      <ele>1263.272</ele>
      <time>2021-10-12T17:03:15Z</time>
    </trkpt>
    <trkpt lat="38.529223977" lon="34.931090036">
      <ele>1263.282</ele>
      <time>2021-10-12T17:03:15Z</time>
    </trkpt>
    <trkpt lat="38.529208973" lon="34.93106598">
      <ele>1263.315</ele>
      <time>2021-10-12T17:03:16Z</time>
    </trkpt>
    <trkpt lat="38.529195981" lon="34.93104402">
      <ele>1263.347</ele>
      <time>2021-10-12T17:03:17Z</time>
    </trkpt>
    <trkpt lat="38.529182989" lon="34.931022981">
      <ele>1263.376</ele>
      <time>2021-10-12T17:03:18Z</time>
    </trkpt>
    <trkpt lat="38.529168991" lon="34.931002026">
      <ele>1263.401</ele>
      <time>2021-10-12T17:03:19Z</time>
    </trkpt>
    <trkpt lat="38.529153988" lon="34.930981994">
      <ele>1263.532</ele>
      <time>2021-10-12T17:03:20Z</time>
    </trkpt>
    <trkpt lat="38.529137978" lon="34.930961961">
      <ele>1263.696</ele>
      <time>2021-10-12T17:03:20Z</time>
    </trkpt>
    <trkpt lat="38.529123981" lon="34.93094">
      <ele>1263.864</ele>
      <time>2021-10-12T17:03:21Z</time>
    </trkpt>
    <trkpt lat="38.529106965" lon="34.930922985">
      <ele>1264.038</ele>
      <time>2021-10-12T17:03:22Z</time>
    </trkpt>
    <trkpt lat="38.529088022" lon="34.930907981">
      <ele>1264.221</ele>
      <time>2021-10-12T17:03:23Z</time>
    </trkpt>
    <trkpt lat="38.529068995" lon="34.930889038">
      <ele>1264.432</ele>
      <time>2021-10-12T17:03:24Z</time>
    </trkpt>
    <trkpt lat="38.529050974" lon="34.930871017">
      <ele>1264.641</ele>
      <time>2021-10-12T17:03:25Z</time>
    </trkpt>
    <trkpt lat="38.529034965" lon="34.930850985">
      <ele>1264.855</ele>
      <time>2021-10-12T17:03:25Z</time>
    </trkpt>
    <trkpt lat="38.529016022" lon="34.930828018">
      <ele>1265.093</ele>
      <time>2021-10-12T17:03:26Z</time>
    </trkpt>
    <trkpt lat="38.529000012" lon="34.93080698">
      <ele>1265.238</ele>
      <time>2021-10-12T17:03:27Z</time>
    </trkpt>
    <trkpt lat="38.528982997" lon="34.930784013">
      <ele>1265.383</ele>
      <time>2021-10-12T17:03:28Z</time>
    </trkpt>
    <trkpt lat="38.528965982" lon="34.930761969">
      <ele>1265.516</ele>
      <time>2021-10-12T17:03:29Z</time>
    </trkpt>
    <trkpt lat="38.528948966" lon="34.930745037">
      <ele>1265.636</ele>
      <time>2021-10-12T17:03:30Z</time>
    </trkpt>
    <trkpt lat="38.528933041" lon="34.930728022">
      <ele>1265.742</ele>
      <time>2021-10-12T17:03:31Z</time>
    </trkpt>
    <trkpt lat="38.528916026" lon="34.930713018">
      <ele>1265.847</ele>
      <time>2021-10-12T17:03:31Z</time>
    </trkpt>
    <trkpt lat="38.528895993" lon="34.930698015">
      <ele>1265.961</ele>
      <time>2021-10-12T17:03:32Z</time>
    </trkpt>
    <trkpt lat="38.528872021" lon="34.930682005">
      <ele>1266.304</ele>
      <time>2021-10-12T17:03:33Z</time>
    </trkpt>
    <trkpt lat="38.528833967" lon="34.930645041">
      <ele>1266.989</ele>
      <time>2021-10-12T17:03:35Z</time>
    </trkpt>
    <trkpt lat="38.528816029" lon="34.930619979">
      <ele>1267.311</ele>
      <time>2021-10-12T17:03:36Z</time>
    </trkpt>
    <trkpt lat="38.52880002" lon="34.930597013">
      <ele>1267.6</ele>
      <time>2021-10-12T17:03:37Z</time>
    </trkpt>
    <trkpt lat="38.528786022" lon="34.93057698">
      <ele>1267.852</ele>
      <time>2021-10-12T17:03:38Z</time>
    </trkpt>
    <trkpt lat="38.528774036" lon="34.930552002">
      <ele>1268.064</ele>
      <time>2021-10-12T17:03:39Z</time>
    </trkpt>
    <trkpt lat="38.528752998" lon="34.930518977">
      <ele>1268.384</ele>
      <time>2021-10-12T17:03:40Z</time>
    </trkpt>
    <trkpt lat="38.528737994" lon="34.930500034">
      <ele>1268.59</ele>
      <time>2021-10-12T17:03:41Z</time>
    </trkpt>
    <trkpt lat="38.528719973" lon="34.930481007">
      <ele>1268.819</ele>
      <time>2021-10-12T17:03:41Z</time>
    </trkpt>
    <trkpt lat="38.528703041" lon="34.930460975">
      <ele>1269.002</ele>
      <time>2021-10-12T17:03:42Z</time>
    </trkpt>
    <trkpt lat="38.528686026" lon="34.930439014">
      <ele>1269.152</ele>
      <time>2021-10-12T17:03:43Z</time>
    </trkpt>
    <trkpt lat="38.528666999" lon="34.930415042">
      <ele>1269.288</ele>
      <time>2021-10-12T17:03:44Z</time>
    </trkpt>
    <trkpt lat="38.528647972" lon="34.930387968">
      <ele>1269.37</ele>
      <time>2021-10-12T17:03:45Z</time>
    </trkpt>
    <trkpt lat="38.528628023" lon="34.930360978">
      <ele>1269.423</ele>
      <time>2021-10-12T17:03:46Z</time>
    </trkpt>
    <trkpt lat="38.528611008" lon="34.930337006">
      <ele>1269.428</ele>
      <time>2021-10-12T17:03:47Z</time>
    </trkpt>
    <trkpt lat="38.528594999" lon="34.930312028">
      <ele>1269.471</ele>
      <time>2021-10-12T17:03:48Z</time>
    </trkpt>
    <trkpt lat="38.528581001" lon="34.930284033">
      <ele>1269.476</ele>
      <time>2021-10-12T17:03:49Z</time>
    </trkpt>
    <trkpt lat="38.528567003" lon="34.930260982">
      <ele>1269.686</ele>
      <time>2021-10-12T17:03:50Z</time>
    </trkpt>
    <trkpt lat="38.528554011" lon="34.930234998">
      <ele>1269.945</ele>
      <time>2021-10-12T17:03:51Z</time>
    </trkpt>
    <trkpt lat="38.528541019" lon="34.930212032">
      <ele>1270.186</ele>
      <time>2021-10-12T17:03:52Z</time>
    </trkpt>
    <trkpt lat="38.528529033" lon="34.930189988">
      <ele>1270.405</ele>
      <time>2021-10-12T17:03:52Z</time>
    </trkpt>
    <trkpt lat="38.528517969" lon="34.930170039">
      <ele>1270.599</ele>
      <time>2021-10-12T17:03:53Z</time>
    </trkpt>
    <trkpt lat="38.528496008" lon="34.930132991">
      <ele>1270.963</ele>
      <time>2021-10-12T17:03:55Z</time>
    </trkpt>
    <trkpt lat="38.528477987" lon="34.930110024">
      <ele>1271.231</ele>
      <time>2021-10-12T17:03:55Z</time>
    </trkpt>
    <trkpt lat="38.528462984" lon="34.930094015">
      <ele>1271.442</ele>
      <time>2021-10-12T17:03:56Z</time>
    </trkpt>
    <trkpt lat="38.528429037" lon="34.930055039">
      <ele>1271.898</ele>
      <time>2021-10-12T17:03:58Z</time>
    </trkpt>
    <trkpt lat="38.52841001" lon="34.930041041">
      <ele>1272.131</ele>
      <time>2021-10-12T17:03:59Z</time>
    </trkpt>
    <trkpt lat="38.528389977" lon="34.93002696">
      <ele>1272.368</ele>
      <time>2021-10-12T17:04:00Z</time>
    </trkpt>
    <trkpt lat="38.528369023" lon="34.930014974">
      <ele>1272.608</ele>
      <time>2021-10-12T17:04:00Z</time>
    </trkpt>
    <trkpt lat="38.528352007" lon="34.930000976">
      <ele>1272.798</ele>
      <time>2021-10-12T17:04:01Z</time>
    </trkpt>
    <trkpt lat="38.52833298" lon="34.92998396">
      <ele>1273.005</ele>
      <time>2021-10-12T17:04:02Z</time>
    </trkpt>
    <trkpt lat="38.52831102" lon="34.929968035">
      <ele>1273.312</ele>
      <time>2021-10-12T17:04:03Z</time>
    </trkpt>
    <trkpt lat="38.528286964" lon="34.929952025">
      <ele>1273.639</ele>
      <time>2021-10-12T17:04:04Z</time>
    </trkpt>
    <trkpt lat="38.52826098" lon="34.929934004">
      <ele>1273.98</ele>
      <time>2021-10-12T17:04:05Z</time>
    </trkpt>
    <trkpt lat="38.528237008" lon="34.929916989">
      <ele>1274.283</ele>
      <time>2021-10-12T17:04:06Z</time>
    </trkpt>
    <trkpt lat="38.528209012" lon="34.929901985">
      <ele>1274.632</ele>
      <time>2021-10-12T17:04:07Z</time>
    </trkpt>
    <trkpt lat="38.528181016" lon="34.929882959">
      <ele>1274.962</ele>
      <time>2021-10-12T17:04:08Z</time>
    </trkpt>
    <trkpt lat="38.528156038" lon="34.929868039">
      <ele>1275.25</ele>
      <time>2021-10-12T17:04:09Z</time>
    </trkpt>
    <trkpt lat="38.528131982" lon="34.92985798">
      <ele>1275.529</ele>
      <time>2021-10-12T17:04:10Z</time>
    </trkpt>
    <trkpt lat="38.528107004" lon="34.929839037">
      <ele>1275.787</ele>
      <time>2021-10-12T17:04:11Z</time>
    </trkpt>
    <trkpt lat="38.528082026" lon="34.929823028">
      <ele>1276.042</ele>
      <time>2021-10-12T17:04:12Z</time>
    </trkpt>
    <trkpt lat="38.528068028" lon="34.929799978">
      <ele>1276.133</ele>
      <time>2021-10-12T17:04:13Z</time>
    </trkpt>
    <trkpt lat="38.528067023" lon="34.929767959">
      <ele>1276.034</ele>
      <time>2021-10-12T17:04:14Z</time>
    </trkpt>
    <trkpt lat="38.528071968" lon="34.929741975">
      <ele>1275.89</ele>
      <time>2021-10-12T17:04:15Z</time>
    </trkpt>
    <trkpt lat="38.52808102" lon="34.929716997">
      <ele>1275.727</ele>
      <time>2021-10-12T17:04:16Z</time>
    </trkpt>
    <trkpt lat="38.528089989" lon="34.929690007">
      <ele>1275.642</ele>
      <time>2021-10-12T17:04:17Z</time>
    </trkpt>
    <trkpt lat="38.528096024" lon="34.929665029">
      <ele>1275.593</ele>
      <time>2021-10-12T17:04:17Z</time>
    </trkpt>
    <trkpt lat="38.528100969" lon="34.929640973">
      <ele>1275.557</ele>
      <time>2021-10-12T17:04:18Z</time>
    </trkpt>
    <trkpt lat="38.528104993" lon="34.929617001">
      <ele>1275.533</ele>
      <time>2021-10-12T17:04:19Z</time>
    </trkpt>
    <trkpt lat="38.528099963" lon="34.92957199">
      <ele>1275.607</ele>
      <time>2021-10-12T17:04:20Z</time>
    </trkpt>
    <trkpt lat="38.528093006" lon="34.929547012">
      <ele>1275.681</ele>
      <time>2021-10-12T17:04:21Z</time>
    </trkpt>
    <trkpt lat="38.528078003" lon="34.929515999">
      <ele>1275.818</ele>
      <time>2021-10-12T17:04:22Z</time>
    </trkpt>
    <trkpt lat="38.528053025" lon="34.929485992">
      <ele>1276.035</ele>
      <time>2021-10-12T17:04:23Z</time>
    </trkpt>
    <trkpt lat="38.528022012" lon="34.929465959">
      <ele>1276.474</ele>
      <time>2021-10-12T17:04:25Z</time>
    </trkpt>
    <trkpt lat="38.528003991" lon="34.929461014">
      <ele>1276.731</ele>
      <time>2021-10-12T17:04:25Z</time>
    </trkpt>
    <trkpt lat="38.527970966" lon="34.929466965">
      <ele>1277.193</ele>
      <time>2021-10-12T17:04:26Z</time>
    </trkpt>
    <trkpt lat="38.527936013" lon="34.929475011">
      <ele>1277.674</ele>
      <time>2021-10-12T17:04:28Z</time>
    </trkpt>
    <trkpt lat="38.527913969" lon="34.929476017">
      <ele>1277.981</ele>
      <time>2021-10-12T17:04:29Z</time>
    </trkpt>
    <trkpt lat="38.52789402" lon="34.929473">
      <ele>1278.266</ele>
      <time>2021-10-12T17:04:29Z</time>
    </trkpt>
    <trkpt lat="38.527874993" lon="34.929464031">
      <ele>1278.554</ele>
      <time>2021-10-12T17:04:30Z</time>
    </trkpt>
    <trkpt lat="38.527855966" lon="34.929451961">
      <ele>1278.855</ele>
      <time>2021-10-12T17:04:31Z</time>
    </trkpt>
    <trkpt lat="38.527838029" lon="34.929441987">
      <ele>1279.139</ele>
      <time>2021-10-12T17:04:32Z</time>
    </trkpt>
    <trkpt lat="38.527821014" lon="34.92943">
      <ele>1279.421</ele>
      <time>2021-10-12T17:04:32Z</time>
    </trkpt>
    <trkpt lat="38.527800981" lon="34.929418014">
      <ele>1279.753</ele>
      <time>2021-10-12T17:04:33Z</time>
    </trkpt>
    <trkpt lat="38.527783966" lon="34.929403011">
      <ele>1280.057</ele>
      <time>2021-10-12T17:04:34Z</time>
    </trkpt>
    <trkpt lat="38.52776804" lon="34.929387001">
      <ele>1280.417</ele>
      <time>2021-10-12T17:04:35Z</time>
    </trkpt>
    <trkpt lat="38.527752031" lon="34.92936898">
      <ele>1280.828</ele>
      <time>2021-10-12T17:04:35Z</time>
    </trkpt>
    <trkpt lat="38.527737027" lon="34.929351965">
      <ele>1281.213</ele>
      <time>2021-10-12T17:04:36Z</time>
    </trkpt>
    <trkpt lat="38.527723029" lon="34.929335034">
      <ele>1281.576</ele>
      <time>2021-10-12T17:04:37Z</time>
    </trkpt>
    <trkpt lat="38.527708026" lon="34.929315001">
      <ele>1281.973</ele>
      <time>2021-10-12T17:04:38Z</time>
    </trkpt>
    <trkpt lat="38.52769101" lon="34.929295974">
      <ele>1282.409</ele>
      <time>2021-10-12T17:04:39Z</time>
    </trkpt>
    <trkpt lat="38.527677013" lon="34.929277031">
      <ele>1282.779</ele>
      <time>2021-10-12T17:04:39Z</time>
    </trkpt>
    <trkpt lat="38.527665026" lon="34.929256998">
      <ele>1283.11</ele>
      <time>2021-10-12T17:04:40Z</time>
    </trkpt>
    <trkpt lat="38.527654968" lon="34.929237971">
      <ele>1283.396</ele>
      <time>2021-10-12T17:04:41Z</time>
    </trkpt>
    <trkpt lat="38.527646" lon="34.929218022">
      <ele>1283.662</ele>
      <time>2021-10-12T17:04:41Z</time>
    </trkpt>
    <trkpt lat="38.527636025" lon="34.929197989">
      <ele>1283.949</ele>
      <time>2021-10-12T17:04:42Z</time>
    </trkpt>
    <trkpt lat="38.527623033" lon="34.929173011">
      <ele>1284.32</ele>
      <time>2021-10-12T17:04:43Z</time>
    </trkpt>
    <trkpt lat="38.527603" lon="34.929150967">
      <ele>1284.811</ele>
      <time>2021-10-12T17:04:44Z</time>
    </trkpt>
    <trkpt lat="38.527582968" lon="34.929137975">
      <ele>1285.28</ele>
      <time>2021-10-12T17:04:45Z</time>
    </trkpt>
    <trkpt lat="38.527566036" lon="34.929124983">
      <ele>1285.688</ele>
      <time>2021-10-12T17:04:45Z</time>
    </trkpt>
    <trkpt lat="38.527543992" lon="34.92910604">
      <ele>1286.233</ele>
      <time>2021-10-12T17:04:46Z</time>
    </trkpt>
    <trkpt lat="38.527524965" lon="34.929100005">
      <ele>1286.679</ele>
      <time>2021-10-12T17:04:47Z</time>
    </trkpt>
    <trkpt lat="38.527501998" lon="34.929091036">
      <ele>1287.227</ele>
      <time>2021-10-12T17:04:48Z</time>
    </trkpt>
    <trkpt lat="38.527475009" lon="34.929072009">
      <ele>1287.911</ele>
      <time>2021-10-12T17:04:49Z</time>
    </trkpt>
    <trkpt lat="38.527457993" lon="34.929063963">
      <ele>1288.333</ele>
      <time>2021-10-12T17:04:50Z</time>
    </trkpt>
    <trkpt lat="38.527433015" lon="34.929054994">
      <ele>1288.946</ele>
      <time>2021-10-12T17:04:51Z</time>
    </trkpt>
    <trkpt lat="38.527411977" lon="34.929046025">
      <ele>1289.473</ele>
      <time>2021-10-12T17:04:52Z</time>
    </trkpt>
    <trkpt lat="38.527391022" lon="34.929040996">
      <ele>1289.984</ele>
      <time>2021-10-12T17:04:52Z</time>
    </trkpt>
    <trkpt lat="38.527368978" lon="34.929033034">
      <ele>1290.538</ele>
      <time>2021-10-12T17:04:53Z</time>
    </trkpt>
    <trkpt lat="38.527347017" lon="34.929026999">
      <ele>1291.084</ele>
      <time>2021-10-12T17:04:54Z</time>
    </trkpt>
    <trkpt lat="38.527325979" lon="34.929020964">
      <ele>1291.612</ele>
      <time>2021-10-12T17:04:55Z</time>
    </trkpt>
    <trkpt lat="38.527303012" lon="34.929013001">
      <ele>1292.2</ele>
      <time>2021-10-12T17:04:56Z</time>
    </trkpt>
    <trkpt lat="38.527280968" lon="34.929010989">
      <ele>1292.733</ele>
      <time>2021-10-12T17:04:57Z</time>
    </trkpt>
    <trkpt lat="38.527262025" lon="34.929008977">
      <ele>1293.194</ele>
      <time>2021-10-12T17:04:57Z</time>
    </trkpt>
    <trkpt lat="38.527237969" lon="34.929010989">
      <ele>1293.749</ele>
      <time>2021-10-12T17:04:58Z</time>
    </trkpt>
    <trkpt lat="38.527217014" lon="34.929006966">
      <ele>1294.228</ele>
      <time>2021-10-12T17:04:59Z</time>
    </trkpt>
    <trkpt lat="38.527190024" lon="34.929007972">
      <ele>1294.623</ele>
      <time>2021-10-12T17:05:00Z</time>
    </trkpt>
    <trkpt lat="38.527169991" lon="34.929011995">
      <ele>1294.887</ele>
      <time>2021-10-12T17:05:01Z</time>
    </trkpt>
    <trkpt lat="38.527148031" lon="34.929022975">
      <ele>1295.112</ele>
      <time>2021-10-12T17:05:02Z</time>
    </trkpt>
    <trkpt lat="38.527126992" lon="34.929030016">
      <ele>1295.35</ele>
      <time>2021-10-12T17:05:02Z</time>
    </trkpt>
    <trkpt lat="38.527102014" lon="34.929040996">
      <ele>1295.595</ele>
      <time>2021-10-12T17:05:03Z</time>
    </trkpt>
    <trkpt lat="38.52707997" lon="34.92904502">
      <ele>1295.861</ele>
      <time>2021-10-12T17:05:04Z</time>
    </trkpt>
    <trkpt lat="38.527055997" lon="34.929051977">
      <ele>1296.115</ele>
      <time>2021-10-12T17:05:05Z</time>
    </trkpt>
    <trkpt lat="38.527029008" lon="34.929053988">
      <ele>1296.462</ele>
      <time>2021-10-12T17:05:06Z</time>
    </trkpt>
    <trkpt lat="38.527011992" lon="34.929047031">
      <ele>1296.784</ele>
      <time>2021-10-12T17:05:07Z</time>
    </trkpt>
    <trkpt lat="38.526986009" lon="34.929046025">
      <ele>1297.158</ele>
      <time>2021-10-12T17:05:08Z</time>
    </trkpt>
    <trkpt lat="38.526962958" lon="34.929044014">
      <ele>1297.507</ele>
      <time>2021-10-12T17:05:09Z</time>
    </trkpt>
    <trkpt lat="38.526934041" lon="34.929034961">
      <ele>1297.991</ele>
      <time>2021-10-12T17:05:10Z</time>
    </trkpt>
    <trkpt lat="38.526925994" lon="34.929028004">
      <ele>1298.163</ele>
      <time>2021-10-12T17:05:10Z</time>
    </trkpt>
    <trkpt lat="38.526905039" lon="34.929011995">
      <ele>1298.574</ele>
      <time>2021-10-12T17:05:11Z</time>
    </trkpt>
    <trkpt lat="38.526887018" lon="34.928997997">
      <ele>1298.924</ele>
      <time>2021-10-12T17:05:12Z</time>
    </trkpt>
    <trkpt lat="38.52686204" lon="34.928981988">
      <ele>1299.352</ele>
      <time>2021-10-12T17:05:13Z</time>
    </trkpt>
    <trkpt lat="38.526824992" lon="34.928965978">
      <ele>1299.869</ele>
      <time>2021-10-12T17:05:14Z</time>
    </trkpt>
    <trkpt lat="38.526803032" lon="34.928963967">
      <ele>1300.075</ele>
      <time>2021-10-12T17:05:15Z</time>
    </trkpt>
    <trkpt lat="38.52677797" lon="34.928962961">
      <ele>1300.292</ele>
      <time>2021-10-12T17:05:16Z</time>
    </trkpt>
    <trkpt lat="38.526755003" lon="34.928962039">
      <ele>1300.49</ele>
      <time>2021-10-12T17:05:17Z</time>
    </trkpt>
    <trkpt lat="38.526734971" lon="34.928963967">
      <ele>1300.631</ele>
      <time>2021-10-12T17:05:18Z</time>
    </trkpt>
    <trkpt lat="38.52671301" lon="34.928964972">
      <ele>1300.799</ele>
      <time>2021-10-12T17:05:18Z</time>
    </trkpt>
    <trkpt lat="38.526690966" lon="34.928963967">
      <ele>1300.991</ele>
      <time>2021-10-12T17:05:19Z</time>
    </trkpt>
    <trkpt lat="38.526672022" lon="34.928964972">
      <ele>1301.134</ele>
      <time>2021-10-12T17:05:20Z</time>
    </trkpt>
    <trkpt lat="38.526654001" lon="34.928966984">
      <ele>1301.489</ele>
      <time>2021-10-12T17:05:21Z</time>
    </trkpt>
    <trkpt lat="38.52663598" lon="34.928966984">
      <ele>1301.961</ele>
      <time>2021-10-12T17:05:21Z</time>
    </trkpt>
    <trkpt lat="38.526617959" lon="34.928965978">
      <ele>1302.444</ele>
      <time>2021-10-12T17:05:22Z</time>
    </trkpt>
    <trkpt lat="38.526585018" lon="34.928973019">
      <ele>1303.238</ele>
      <time>2021-10-12T17:05:23Z</time>
    </trkpt>
    <trkpt lat="38.526542019" lon="34.928972013">
      <ele>1304.378</ele>
      <time>2021-10-12T17:05:25Z</time>
    </trkpt>
    <trkpt lat="38.526520981" lon="34.928975031">
      <ele>1304.904</ele>
      <time>2021-10-12T17:05:26Z</time>
    </trkpt>
    <trkpt lat="38.526502959" lon="34.928975031">
      <ele>1305.378</ele>
      <time>2021-10-12T17:05:26Z</time>
    </trkpt>
    <trkpt lat="38.526474042" lon="34.928974025">
      <ele>1306.147</ele>
      <time>2021-10-12T17:05:27Z</time>
    </trkpt>
    <trkpt lat="38.526447974" lon="34.928976959">
      <ele>1306.81</ele>
      <time>2021-10-12T17:05:28Z</time>
    </trkpt>
    <trkpt lat="38.52642199" lon="34.928981988">
      <ele>1307.456</ele>
      <time>2021-10-12T17:05:29Z</time>
    </trkpt>
    <trkpt lat="38.526392989" lon="34.928985005">
      <ele>1308.2</ele>
      <time>2021-10-12T17:05:30Z</time>
    </trkpt>
    <trkpt lat="38.526373962" lon="34.928988023">
      <ele>1308.716</ele>
      <time>2021-10-12T17:05:31Z</time>
    </trkpt>
    <trkpt lat="38.526356025" lon="34.928990034">
      <ele>1309.218</ele>
      <time>2021-10-12T17:05:32Z</time>
    </trkpt>
    <trkpt lat="38.526317971" lon="34.928999003">
      <ele>1310.25</ele>
      <time>2021-10-12T17:05:33Z</time>
    </trkpt>
    <trkpt lat="38.526300034" lon="34.929005038">
      <ele>1310.723</ele>
      <time>2021-10-12T17:05:34Z</time>
    </trkpt>
    <trkpt lat="38.526282012" lon="34.929007972">
      <ele>1311.221</ele>
      <time>2021-10-12T17:05:34Z</time>
    </trkpt>
    <trkpt lat="38.526249994" lon="34.929008977">
      <ele>1312.136</ele>
      <time>2021-10-12T17:05:36Z</time>
    </trkpt>
    <trkpt lat="38.526221998" lon="34.92900596">
      <ele>1312.964</ele>
      <time>2021-10-12T17:05:37Z</time>
    </trkpt>
    <trkpt lat="38.526199032" lon="34.929002021">
      <ele>1313.653</ele>
      <time>2021-10-12T17:05:38Z</time>
    </trkpt>
    <trkpt lat="38.526174976" lon="34.929006966">
      <ele>1314.311</ele>
      <time>2021-10-12T17:05:38Z</time>
    </trkpt>
    <trkpt lat="38.526154021" lon="34.928997997">
      <ele>1314.979</ele>
      <time>2021-10-12T17:05:39Z</time>
    </trkpt>
    <trkpt lat="38.526131976" lon="34.928985005">
      <ele>1315.707</ele>
      <time>2021-10-12T17:05:40Z</time>
    </trkpt>
    <trkpt lat="38.526111022" lon="34.92897897">
      <ele>1316.352</ele>
      <time>2021-10-12T17:05:41Z</time>
    </trkpt>
    <trkpt lat="38.526093001" lon="34.928974025">
      <ele>1316.608</ele>
      <time>2021-10-12T17:05:42Z</time>
    </trkpt>
    <trkpt lat="38.526071962" lon="34.928971007">
      <ele>1316.889</ele>
      <time>2021-10-12T17:05:42Z</time>
    </trkpt>
    <trkpt lat="38.526046984" lon="34.928963967">
      <ele>1317.258</ele>
      <time>2021-10-12T17:05:43Z</time>
    </trkpt>
    <trkpt lat="38.526026029" lon="34.928962039">
      <ele>1317.537</ele>
      <time>2021-10-12T17:05:44Z</time>
    </trkpt>
    <trkpt lat="38.526005996" lon="34.928970002">
      <ele>1317.709</ele>
      <time>2021-10-12T17:05:45Z</time>
    </trkpt>
    <trkpt lat="38.525987975" lon="34.928983999">
      <ele>1317.785</ele>
      <time>2021-10-12T17:05:46Z</time>
    </trkpt>
    <trkpt lat="38.525970038" lon="34.92899498">
      <ele>1317.88</ele>
      <time>2021-10-12T17:05:46Z</time>
    </trkpt>
    <trkpt lat="38.525948999" lon="34.929007972">
      <ele>1317.977</ele>
      <time>2021-10-12T17:05:47Z</time>
    </trkpt>
    <trkpt lat="38.525924021" lon="34.929019036">
      <ele>1318.126</ele>
      <time>2021-10-12T17:05:48Z</time>
    </trkpt>
    <trkpt lat="38.525896026" lon="34.929028004">
      <ele>1318.32</ele>
      <time>2021-10-12T17:05:49Z</time>
    </trkpt>
    <trkpt lat="38.525861995" lon="34.929034039">
      <ele>1318.605</ele>
      <time>2021-10-12T17:05:51Z</time>
    </trkpt>
    <trkpt lat="38.525832994" lon="34.929039991">
      <ele>1318.829</ele>
      <time>2021-10-12T17:05:52Z</time>
    </trkpt>
    <trkpt lat="38.525813967" lon="34.929047031">
      <ele>1319.011</ele>
      <time>2021-10-12T17:05:52Z</time>
    </trkpt>
    <trkpt lat="38.525795024" lon="34.929050971">
      <ele>1319.241</ele>
      <time>2021-10-12T17:05:53Z</time>
    </trkpt>
    <trkpt lat="38.525759988" lon="34.929067986">
      <ele>1319.554</ele>
      <time>2021-10-12T17:05:55Z</time>
    </trkpt>
    <trkpt lat="38.525737021" lon="34.929079972">
      <ele>1319.766</ele>
      <time>2021-10-12T17:05:55Z</time>
    </trkpt>
    <trkpt lat="38.525717994" lon="34.929091036">
      <ele>1319.939</ele>
      <time>2021-10-12T17:05:56Z</time>
    </trkpt>
    <trkpt lat="38.525697961" lon="34.929101011">
      <ele>1320.152</ele>
      <time>2021-10-12T17:05:57Z</time>
    </trkpt>
    <trkpt lat="38.525672983" lon="34.929101011">
      <ele>1320.559</ele>
      <time>2021-10-12T17:05:58Z</time>
    </trkpt>
    <trkpt lat="38.525651023" lon="34.929109979">
      <ele>1320.83</ele>
      <time>2021-10-12T17:05:59Z</time>
    </trkpt>
    <trkpt lat="38.525622021" lon="34.929134035">
      <ele>1321.095</ele>
      <time>2021-10-12T17:06:00Z</time>
    </trkpt>
    <trkpt lat="38.525591008" lon="34.929157002">
      <ele>1321.44</ele>
      <time>2021-10-12T17:06:01Z</time>
    </trkpt>
    <trkpt lat="38.525568964" lon="34.929168988">
      <ele>1321.75</ele>
      <time>2021-10-12T17:06:02Z</time>
    </trkpt>
    <trkpt lat="38.525533006" lon="34.929194972">
      <ele>1322.393</ele>
      <time>2021-10-12T17:06:04Z</time>
    </trkpt>
    <trkpt lat="38.525510961" lon="34.929200001">
      <ele>1322.863</ele>
      <time>2021-10-12T17:06:05Z</time>
    </trkpt>
    <trkpt lat="38.525492018" lon="34.929207964">
      <ele>1323.258</ele>
      <time>2021-10-12T17:06:05Z</time>
    </trkpt>
    <trkpt lat="38.525472991" lon="34.929217016">
      <ele>1323.656</ele>
      <time>2021-10-12T17:06:06Z</time>
    </trkpt>
    <trkpt lat="38.525453964" lon="34.929224979">
      <ele>1324.061</ele>
      <time>2021-10-12T17:06:07Z</time>
    </trkpt>
    <trkpt lat="38.525435021" lon="34.929233026">
      <ele>1324.468</ele>
      <time>2021-10-12T17:06:08Z</time>
    </trkpt>
    <trkpt lat="38.525417" lon="34.929238977">
      <ele>1324.862</ele>
      <time>2021-10-12T17:06:08Z</time>
    </trkpt>
    <trkpt lat="38.525395961" lon="34.929241994">
      <ele>1325.332</ele>
      <time>2021-10-12T17:06:09Z</time>
    </trkpt>
    <trkpt lat="38.525378024" lon="34.929245012">
      <ele>1325.733</ele>
      <time>2021-10-12T17:06:10Z</time>
    </trkpt>
    <trkpt lat="38.525358997" lon="34.929248029">
      <ele>1326.16</ele>
      <time>2021-10-12T17:06:10Z</time>
    </trkpt>
    <trkpt lat="38.525338965" lon="34.929252975">
      <ele>1326.61</ele>
      <time>2021-10-12T17:06:11Z</time>
    </trkpt>
    <trkpt lat="38.525320021" lon="34.929255992">
      <ele>1327.039</ele>
      <time>2021-10-12T17:06:12Z</time>
    </trkpt>
    <trkpt lat="38.525302" lon="34.929260015">
      <ele>1327.447</ele>
      <time>2021-10-12T17:06:13Z</time>
    </trkpt>
    <trkpt lat="38.525279034" lon="34.929266972">
      <ele>1327.971</ele>
      <time>2021-10-12T17:06:13Z</time>
    </trkpt>
    <trkpt lat="38.525260007" lon="34.929273007">
      <ele>1328.192</ele>
      <time>2021-10-12T17:06:14Z</time>
    </trkpt>
    <trkpt lat="38.525241986" lon="34.929281976">
      <ele>1328.387</ele>
      <time>2021-10-12T17:06:15Z</time>
    </trkpt>
    <trkpt lat="38.525222037" lon="34.929285999">
      <ele>1328.602</ele>
      <time>2021-10-12T17:06:16Z</time>
    </trkpt>
    <trkpt lat="38.525204016" lon="34.929292034">
      <ele>1328.797</ele>
      <time>2021-10-12T17:06:16Z</time>
    </trkpt>
    <trkpt lat="38.525171997" lon="34.92930402">
      <ele>1329.142</ele>
      <time>2021-10-12T17:06:18Z</time>
    </trkpt>
    <trkpt lat="38.525153976" lon="34.929310977">
      <ele>1329.337</ele>
      <time>2021-10-12T17:06:18Z</time>
    </trkpt>
    <trkpt lat="38.525135033" lon="34.929319024">
      <ele>1329.542</ele>
      <time>2021-10-12T17:06:19Z</time>
    </trkpt>
    <trkpt lat="38.525115" lon="34.929325981">
      <ele>1329.758</ele>
      <time>2021-10-12T17:06:20Z</time>
    </trkpt>
    <trkpt lat="38.525095973" lon="34.92933101">
      <ele>1329.963</ele>
      <time>2021-10-12T17:06:21Z</time>
    </trkpt>
    <trkpt lat="38.525078036" lon="34.929337967">
      <ele>1330.157</ele>
      <time>2021-10-12T17:06:21Z</time>
    </trkpt>
    <trkpt lat="38.525055991" lon="34.929346014">
      <ele>1330.395</ele>
      <time>2021-10-12T17:06:22Z</time>
    </trkpt>
    <trkpt lat="38.525034031" lon="34.929353977">
      <ele>1330.632</ele>
      <time>2021-10-12T17:06:23Z</time>
    </trkpt>
    <trkpt lat="38.525012992" lon="34.929358">
      <ele>1330.86</ele>
      <time>2021-10-12T17:06:24Z</time>
    </trkpt>
    <trkpt lat="38.52498902" lon="34.929362023">
      <ele>1331.063</ele>
      <time>2021-10-12T17:06:25Z</time>
    </trkpt>
    <trkpt lat="38.524966976" lon="34.929367974">
      <ele>1331.184</ele>
      <time>2021-10-12T17:06:25Z</time>
    </trkpt>
    <trkpt lat="38.524945015" lon="34.929371998">
      <ele>1331.301</ele>
      <time>2021-10-12T17:06:26Z</time>
    </trkpt>
    <trkpt lat="38.524923977" lon="34.929379961">
      <ele>1331.401</ele>
      <time>2021-10-12T17:06:27Z</time>
    </trkpt>
    <trkpt lat="38.524904028" lon="34.929388007">
      <ele>1331.486</ele>
      <time>2021-10-12T17:06:28Z</time>
    </trkpt>
    <trkpt lat="38.524880977" lon="34.929393036">
      <ele>1331.587</ele>
      <time>2021-10-12T17:06:29Z</time>
    </trkpt>
    <trkpt lat="38.524858011" lon="34.929398987">
      <ele>1331.678</ele>
      <time>2021-10-12T17:06:30Z</time>
    </trkpt>
    <trkpt lat="38.524838984" lon="34.929408962">
      <ele>1331.728</ele>
      <time>2021-10-12T17:06:30Z</time>
    </trkpt>
    <trkpt lat="38.524819035" lon="34.929414997">
      <ele>1331.79</ele>
      <time>2021-10-12T17:06:31Z</time>
    </trkpt>
    <trkpt lat="38.524797997" lon="34.92941902">
      <ele>1331.86</ele>
      <time>2021-10-12T17:06:32Z</time>
    </trkpt>
    <trkpt lat="38.52477897" lon="34.929423966">
      <ele>1331.913</ele>
      <time>2021-10-12T17:06:33Z</time>
    </trkpt>
    <trkpt lat="38.524759021" lon="34.929427989">
      <ele>1331.97</ele>
      <time>2021-10-12T17:06:33Z</time>
    </trkpt>
    <trkpt lat="38.524738988" lon="34.929431006">
      <ele>1332.031</ele>
      <time>2021-10-12T17:06:34Z</time>
    </trkpt>
    <trkpt lat="38.524719039" lon="34.929433018">
      <ele>1332.105</ele>
      <time>2021-10-12T17:06:35Z</time>
    </trkpt>
    <trkpt lat="38.524698" lon="34.929437041">
      <ele>1332.228</ele>
      <time>2021-10-12T17:06:36Z</time>
    </trkpt>
    <trkpt lat="38.524673022" lon="34.929440981">
      <ele>1332.379</ele>
      <time>2021-10-12T17:06:37Z</time>
    </trkpt>
    <trkpt lat="38.524649972" lon="34.92944601">
      <ele>1332.503</ele>
      <time>2021-10-12T17:06:37Z</time>
    </trkpt>
    <trkpt lat="38.524626" lon="34.929451039">
      <ele>1332.622</ele>
      <time>2021-10-12T17:06:38Z</time>
    </trkpt>
    <trkpt lat="38.524604961" lon="34.929455984">
      <ele>1332.72</ele>
      <time>2021-10-12T17:06:39Z</time>
    </trkpt>
    <trkpt lat="38.524583001" lon="34.929461014">
      <ele>1332.823</ele>
      <time>2021-10-12T17:06:40Z</time>
    </trkpt>
    <trkpt lat="38.524562968" lon="34.929466965">
      <ele>1332.903</ele>
      <time>2021-10-12T17:06:41Z</time>
    </trkpt>
    <trkpt lat="38.524542013" lon="34.929476017">
      <ele>1332.957</ele>
      <time>2021-10-12T17:06:42Z</time>
    </trkpt>
    <trkpt lat="38.524518963" lon="34.92948398">
      <ele>1333.036</ele>
      <time>2021-10-12T17:06:42Z</time>
    </trkpt>
    <trkpt lat="38.52447697" lon="34.929499989">
      <ele>1333.166</ele>
      <time>2021-10-12T17:06:44Z</time>
    </trkpt>
    <trkpt lat="38.524457021" lon="34.929509042">
      <ele>1333.212</ele>
      <time>2021-10-12T17:06:45Z</time>
    </trkpt>
    <trkpt lat="38.524436988" lon="34.929519016">
      <ele>1333.256</ele>
      <time>2021-10-12T17:06:46Z</time>
    </trkpt>
    <trkpt lat="38.524416033" lon="34.929527985">
      <ele>1333.333</ele>
      <time>2021-10-12T17:06:46Z</time>
    </trkpt>
    <trkpt lat="38.524394995" lon="34.929537959">
      <ele>1333.406</ele>
      <time>2021-10-12T17:06:47Z</time>
    </trkpt>
    <trkpt lat="38.524377979" lon="34.929548018">
      <ele>1333.449</ele>
      <time>2021-10-12T17:06:48Z</time>
    </trkpt>
    <trkpt lat="38.524359958" lon="34.929552963">
      <ele>1333.555</ele>
      <time>2021-10-12T17:06:49Z</time>
    </trkpt>
    <trkpt lat="38.524342021" lon="34.92955598">
      <ele>1333.681</ele>
      <time>2021-10-12T17:06:49Z</time>
    </trkpt>
    <trkpt lat="38.524320982" lon="34.929556986">
      <ele>1333.854</ele>
      <time>2021-10-12T17:06:50Z</time>
    </trkpt>
    <trkpt lat="38.524300028" lon="34.929558998">
      <ele>1334.017</ele>
      <time>2021-10-12T17:06:51Z</time>
    </trkpt>
    <trkpt lat="38.524277983" lon="34.929562015">
      <ele>1334.182</ele>
      <time>2021-10-12T17:06:52Z</time>
    </trkpt>
    <trkpt lat="38.524254011" lon="34.929567967">
      <ele>1334.342</ele>
      <time>2021-10-12T17:06:53Z</time>
    </trkpt>
    <trkpt lat="38.524231967" lon="34.929570984">
      <ele>1334.512</ele>
      <time>2021-10-12T17:06:53Z</time>
    </trkpt>
    <trkpt lat="38.524206989" lon="34.929577019">
      <ele>1334.686</ele>
      <time>2021-10-12T17:06:54Z</time>
    </trkpt>
    <trkpt lat="38.524186034" lon="34.929580037">
      <ele>1334.85</ele>
      <time>2021-10-12T17:06:55Z</time>
    </trkpt>
    <trkpt lat="38.524161978" lon="34.929583976">
      <ele>1335.063</ele>
      <time>2021-10-12T17:06:56Z</time>
    </trkpt>
    <trkpt lat="38.524138005" lon="34.929583976">
      <ele>1335.408</ele>
      <time>2021-10-12T17:06:57Z</time>
    </trkpt>
    <trkpt lat="38.524090983" lon="34.929590011">
      <ele>1336.042</ele>
      <time>2021-10-12T17:06:59Z</time>
    </trkpt>
    <trkpt lat="38.524068017" lon="34.929593029">
      <ele>1336.351</ele>
      <time>2021-10-12T17:06:59Z</time>
    </trkpt>
    <trkpt lat="38.524044966" lon="34.929596968">
      <ele>1336.654</ele>
      <time>2021-10-12T17:07:00Z</time>
    </trkpt>
    <trkpt lat="38.524020994" lon="34.929596968">
      <ele>1337.0</ele>
      <time>2021-10-12T17:07:01Z</time>
    </trkpt>
    <trkpt lat="38.523998028" lon="34.929600991">
      <ele>1337.301</ele>
      <time>2021-10-12T17:07:02Z</time>
    </trkpt>
    <trkpt lat="38.523975983" lon="34.929607026">
      <ele>1337.575</ele>
      <time>2021-10-12T17:07:03Z</time>
    </trkpt>
    <trkpt lat="38.523952011" lon="34.929611972">
      <ele>1337.885</ele>
      <time>2021-10-12T17:07:04Z</time>
    </trkpt>
    <trkpt lat="38.523928039" lon="34.929617001">
      <ele>1338.194</ele>
      <time>2021-10-12T17:07:05Z</time>
    </trkpt>
    <trkpt lat="38.523902977" lon="34.929623036">
      <ele>1338.511</ele>
      <time>2021-10-12T17:07:06Z</time>
    </trkpt>
    <trkpt lat="38.52388001" lon="34.929626975">
      <ele>1338.814</ele>
      <time>2021-10-12T17:07:07Z</time>
    </trkpt>
    <trkpt lat="38.523859978" lon="34.929627981">
      <ele>1339.095</ele>
      <time>2021-10-12T17:07:07Z</time>
    </trkpt>
    <trkpt lat="38.523838017" lon="34.929627981">
      <ele>1339.411</ele>
      <time>2021-10-12T17:07:08Z</time>
    </trkpt>
    <trkpt lat="38.523813039" lon="34.929626975">
      <ele>1339.778</ele>
      <time>2021-10-12T17:07:09Z</time>
    </trkpt>
    <trkpt lat="38.523792" lon="34.929626975">
      <ele>1340.081</ele>
      <time>2021-10-12T17:07:10Z</time>
    </trkpt>
    <trkpt lat="38.52377004" lon="34.929625969">
      <ele>1340.404</ele>
      <time>2021-10-12T17:07:11Z</time>
    </trkpt>
    <trkpt lat="38.523749001" lon="34.929624964">
      <ele>1340.715</ele>
      <time>2021-10-12T17:07:11Z</time>
    </trkpt>
    <trkpt lat="38.523728969" lon="34.929625969">
      <ele>1340.996</ele>
      <time>2021-10-12T17:07:12Z</time>
    </trkpt>
    <trkpt lat="38.523708014" lon="34.929629993">
      <ele>1341.269</ele>
      <time>2021-10-12T17:07:13Z</time>
    </trkpt>
    <trkpt lat="38.523687981" lon="34.92963301">
      <ele>1341.535</ele>
      <time>2021-10-12T17:07:14Z</time>
    </trkpt>
    <trkpt lat="38.52366602" lon="34.929636028">
      <ele>1341.83</ele>
      <time>2021-10-12T17:07:14Z</time>
    </trkpt>
    <trkpt lat="38.523645988" lon="34.929641979">
      <ele>1342.076</ele>
      <time>2021-10-12T17:07:15Z</time>
    </trkpt>
    <trkpt lat="38.523623021" lon="34.929650025">
      <ele>1342.348</ele>
      <time>2021-10-12T17:07:16Z</time>
    </trkpt>
    <trkpt lat="38.523598965" lon="34.929657988">
      <ele>1342.627</ele>
      <time>2021-10-12T17:07:17Z</time>
    </trkpt>
    <trkpt lat="38.523571976" lon="34.929667963">
      <ele>1342.927</ele>
      <time>2021-10-12T17:07:18Z</time>
    </trkpt>
    <trkpt lat="38.523548003" lon="34.929676009">
      <ele>1343.204</ele>
      <time>2021-10-12T17:07:19Z</time>
    </trkpt>
    <trkpt lat="38.523524031" lon="34.929681038">
      <ele>1343.504</ele>
      <time>2021-10-12T17:07:20Z</time>
    </trkpt>
    <trkpt lat="38.523497963" lon="34.929690007">
      <ele>1343.814</ele>
      <time>2021-10-12T17:07:21Z</time>
    </trkpt>
    <trkpt lat="38.523472985" lon="34.929699982">
      <ele>1344.109</ele>
      <time>2021-10-12T17:07:22Z</time>
    </trkpt>
    <trkpt lat="38.523449013" lon="34.929708028">
      <ele>1344.407</ele>
      <time>2021-10-12T17:07:23Z</time>
    </trkpt>
    <trkpt lat="38.523425963" lon="34.929719009">
      <ele>1344.682</ele>
      <time>2021-10-12T17:07:24Z</time>
    </trkpt>
    <trkpt lat="38.523404002" lon="34.929728983">
      <ele>1344.885</ele>
      <time>2021-10-12T17:07:25Z</time>
    </trkpt>
    <trkpt lat="38.523378018" lon="34.929739963">
      <ele>1345.101</ele>
      <time>2021-10-12T17:07:26Z</time>
    </trkpt>
    <trkpt lat="38.52335304" lon="34.929752033">
      <ele>1345.287</ele>
      <time>2021-10-12T17:07:27Z</time>
    </trkpt>
    <trkpt lat="38.523328984" lon="34.929764019">
      <ele>1345.416</ele>
      <time>2021-10-12T17:07:28Z</time>
    </trkpt>
    <trkpt lat="38.523303" lon="34.929778017">
      <ele>1345.328</ele>
      <time>2021-10-12T17:07:29Z</time>
    </trkpt>
    <trkpt lat="38.523280034" lon="34.929794027">
      <ele>1345.207</ele>
      <time>2021-10-12T17:07:30Z</time>
    </trkpt>
    <trkpt lat="38.523257989" lon="34.929811042">
      <ele>1345.079</ele>
      <time>2021-10-12T17:07:30Z</time>
    </trkpt>
    <trkpt lat="38.523235023" lon="34.929827973">
      <ele>1344.966</ele>
      <time>2021-10-12T17:07:31Z</time>
    </trkpt>
    <trkpt lat="38.52321499" lon="34.929844989">
      <ele>1344.846</ele>
      <time>2021-10-12T17:07:32Z</time>
    </trkpt>
    <trkpt lat="38.52319303" lon="34.929859992">
      <ele>1344.772</ele>
      <time>2021-10-12T17:07:33Z</time>
    </trkpt>
    <trkpt lat="38.523172997" lon="34.929874996">
      <ele>1344.695</ele>
      <time>2021-10-12T17:07:34Z</time>
    </trkpt>
    <trkpt lat="38.523154976" lon="34.929891005">
      <ele>1344.602</ele>
      <time>2021-10-12T17:07:35Z</time>
    </trkpt>
    <trkpt lat="38.523132009" lon="34.929907015">
      <ele>1344.546</ele>
      <time>2021-10-12T17:07:36Z</time>
    </trkpt>
    <trkpt lat="38.523108037" lon="34.929922018">
      <ele>1344.517</ele>
      <time>2021-10-12T17:07:37Z</time>
    </trkpt>
    <trkpt lat="38.523084987" lon="34.929937022">
      <ele>1344.492</ele>
      <time>2021-10-12T17:07:38Z</time>
    </trkpt>
    <trkpt lat="38.523061015" lon="34.929952025">
      <ele>1344.482</ele>
      <time>2021-10-12T17:07:39Z</time>
    </trkpt>
    <trkpt lat="38.523037964" lon="34.929966023">
      <ele>1344.43</ele>
      <time>2021-10-12T17:07:40Z</time>
    </trkpt>
    <trkpt lat="38.523011981" lon="34.929974992">
      <ele>1344.427</ele>
      <time>2021-10-12T17:07:41Z</time>
    </trkpt>
    <trkpt lat="38.522983985" lon="34.929979015">
      <ele>1344.484</ele>
      <time>2021-10-12T17:07:42Z</time>
    </trkpt>
    <trkpt lat="38.522958001" lon="34.929980021">
      <ele>1344.567</ele>
      <time>2021-10-12T17:07:43Z</time>
    </trkpt>
    <trkpt lat="38.522907039" lon="34.929967029">
      <ele>1344.891</ele>
      <time>2021-10-12T17:07:45Z</time>
    </trkpt>
    <trkpt lat="38.522882983" lon="34.929954959">
      <ele>1345.108</ele>
      <time>2021-10-12T17:07:46Z</time>
    </trkpt>
    <trkpt lat="38.522856999" lon="34.929944985">
      <ele>1345.309</ele>
      <time>2021-10-12T17:07:47Z</time>
    </trkpt>
    <trkpt lat="38.522831015" lon="34.92993501">
      <ele>1345.51</ele>
      <time>2021-10-12T17:07:48Z</time>
    </trkpt>
    <trkpt lat="38.522805031" lon="34.929929981">
      <ele>1345.658</ele>
      <time>2021-10-12T17:07:49Z</time>
    </trkpt>
    <trkpt lat="38.522774018" lon="34.92992403">
      <ele>1345.881</ele>
      <time>2021-10-12T17:07:50Z</time>
    </trkpt>
    <trkpt lat="38.522741999" lon="34.929919001">
      <ele>1346.444</ele>
      <time>2021-10-12T17:07:51Z</time>
    </trkpt>
    <trkpt lat="38.522680979" lon="34.929903997">
      <ele>1347.538</ele>
      <time>2021-10-12T17:07:53Z</time>
    </trkpt>
    <trkpt lat="38.522623982" lon="34.92990098">
      <ele>1348.443</ele>
      <time>2021-10-12T17:07:55Z</time>
    </trkpt>
    <trkpt lat="38.522597998" lon="34.92989704">
      <ele>1348.868</ele>
      <time>2021-10-12T17:07:56Z</time>
    </trkpt>
    <trkpt lat="38.522574026" lon="34.929894023">
      <ele>1349.252</ele>
      <time>2021-10-12T17:07:57Z</time>
    </trkpt>
    <trkpt lat="38.522550976" lon="34.929886982">
      <ele>1349.639</ele>
      <time>2021-10-12T17:07:58Z</time>
    </trkpt>
    <trkpt lat="38.522529015" lon="34.929881031">
      <ele>1349.995</ele>
      <time>2021-10-12T17:07:59Z</time>
    </trkpt>
    <trkpt lat="38.522508983" lon="34.929874996">
      <ele>1350.317</ele>
      <time>2021-10-12T17:08:00Z</time>
    </trkpt>
    <trkpt lat="38.522487022" lon="34.929866027">
      <ele>1350.553</ele>
      <time>2021-10-12T17:08:01Z</time>
    </trkpt>
    <trkpt lat="38.522463972" lon="34.929860998">
      <ele>1350.695</ele>
      <time>2021-10-12T17:08:01Z</time>
    </trkpt>
    <trkpt lat="38.52244" lon="34.929854963">
      <ele>1350.841</ele>
      <time>2021-10-12T17:08:02Z</time>
    </trkpt>
    <trkpt lat="38.522392977" lon="34.929840965">
      <ele>1351.123</ele>
      <time>2021-10-12T17:08:04Z</time>
    </trkpt>
    <trkpt lat="38.522369005" lon="34.929831997">
      <ele>1351.263</ele>
      <time>2021-10-12T17:08:05Z</time>
    </trkpt>
    <trkpt lat="38.522346038" lon="34.929821016">
      <ele>1351.396</ele>
      <time>2021-10-12T17:08:06Z</time>
    </trkpt>
    <trkpt lat="38.522323994" lon="34.929811042">
      <ele>1351.516</ele>
      <time>2021-10-12T17:08:07Z</time>
    </trkpt>
    <trkpt lat="38.522300022" lon="34.929804001">
      <ele>1351.637</ele>
      <time>2021-10-12T17:08:08Z</time>
    </trkpt>
    <trkpt lat="38.522276971" lon="34.929799978">
      <ele>1351.748</ele>
      <time>2021-10-12T17:08:09Z</time>
    </trkpt>
    <trkpt lat="38.522252999" lon="34.929798972">
      <ele>1351.859</ele>
      <time>2021-10-12T17:08:10Z</time>
    </trkpt>
    <trkpt lat="38.522231039" lon="34.929795032">
      <ele>1351.96</ele>
      <time>2021-10-12T17:08:10Z</time>
    </trkpt>
    <trkpt lat="38.522212012" lon="34.929794027">
      <ele>1352.037</ele>
      <time>2021-10-12T17:08:11Z</time>
    </trkpt>
    <trkpt lat="38.522192985" lon="34.929791009">
      <ele>1352.105</ele>
      <time>2021-10-12T17:08:12Z</time>
    </trkpt>
    <trkpt lat="38.52217203" lon="34.929786986">
      <ele>1352.181</ele>
      <time>2021-10-12T17:08:13Z</time>
    </trkpt>
    <trkpt lat="38.522150991" lon="34.929780029">
      <ele>1352.256</ele>
      <time>2021-10-12T17:08:13Z</time>
    </trkpt>
    <trkpt lat="38.522129031" lon="34.929771982">
      <ele>1352.335</ele>
      <time>2021-10-12T17:08:14Z</time>
    </trkpt>
    <trkpt lat="38.522108998" lon="34.929763013">
      <ele>1352.408</ele>
      <time>2021-10-12T17:08:15Z</time>
    </trkpt>
    <trkpt lat="38.52208796" lon="34.929753961">
      <ele>1352.483</ele>
      <time>2021-10-12T17:08:16Z</time>
    </trkpt>
    <trkpt lat="38.522069016" lon="34.929745998">
      <ele>1352.552</ele>
      <time>2021-10-12T17:08:17Z</time>
    </trkpt>
    <trkpt lat="38.52204999" lon="34.929739963">
      <ele>1352.62</ele>
      <time>2021-10-12T17:08:17Z</time>
    </trkpt>
    <trkpt lat="38.522029035" lon="34.929730995">
      <ele>1352.695</ele>
      <time>2021-10-12T17:08:18Z</time>
    </trkpt>
    <trkpt lat="38.521983018" lon="34.929709034">
      <ele>1352.855</ele>
      <time>2021-10-12T17:08:20Z</time>
    </trkpt>
    <trkpt lat="38.521963991" lon="34.92969797">
      <ele>1352.923</ele>
      <time>2021-10-12T17:08:21Z</time>
    </trkpt>
    <trkpt lat="38.521943958" lon="34.92968699">
      <ele>1353.003</ele>
      <time>2021-10-12T17:08:21Z</time>
    </trkpt>
    <trkpt lat="38.521923004" lon="34.929675004">
      <ele>1353.141</ele>
      <time>2021-10-12T17:08:22Z</time>
    </trkpt>
    <trkpt lat="38.521902971" lon="34.929662012">
      <ele>1353.266</ele>
      <time>2021-10-12T17:08:23Z</time>
    </trkpt>
    <trkpt lat="38.521882016" lon="34.929650025">
      <ele>1353.391</ele>
      <time>2021-10-12T17:08:24Z</time>
    </trkpt>
    <trkpt lat="38.521859972" lon="34.929636028">
      <ele>1353.514</ele>
      <time>2021-10-12T17:08:25Z</time>
    </trkpt>
    <trkpt lat="38.521839017" lon="34.929621024">
      <ele>1353.621</ele>
      <time>2021-10-12T17:08:26Z</time>
    </trkpt>
    <trkpt lat="38.521817978" lon="34.929608032">
      <ele>1353.723</ele>
      <time>2021-10-12T17:08:27Z</time>
    </trkpt>
    <trkpt lat="38.521799035" lon="34.929596968">
      <ele>1353.811</ele>
      <time>2021-10-12T17:08:27Z</time>
    </trkpt>
    <trkpt lat="38.521779003" lon="34.929585988">
      <ele>1353.899</ele>
      <time>2021-10-12T17:08:28Z</time>
    </trkpt>
    <trkpt lat="38.521757964" lon="34.929574002">
      <ele>1353.984</ele>
      <time>2021-10-12T17:08:29Z</time>
    </trkpt>
    <trkpt lat="38.521738015" lon="34.929564027">
      <ele>1354.063</ele>
      <time>2021-10-12T17:08:30Z</time>
    </trkpt>
    <trkpt lat="38.521715971" lon="34.92955598">
      <ele>1354.153</ele>
      <time>2021-10-12T17:08:31Z</time>
    </trkpt>
    <trkpt lat="38.52169401" lon="34.929546006">
      <ele>1354.231</ele>
      <time>2021-10-12T17:08:32Z</time>
    </trkpt>
    <trkpt lat="38.521672972" lon="34.929537037">
      <ele>1354.303</ele>
      <time>2021-10-12T17:08:32Z</time>
    </trkpt>
    <trkpt lat="38.521651011" lon="34.929528991">
      <ele>1354.383</ele>
      <time>2021-10-12T17:08:33Z</time>
    </trkpt>
    <trkpt lat="38.521629972" lon="34.929520022">
      <ele>1354.464</ele>
      <time>2021-10-12T17:08:34Z</time>
    </trkpt>
    <trkpt lat="38.521610023" lon="34.929509042">
      <ele>1354.546</ele>
      <time>2021-10-12T17:08:35Z</time>
    </trkpt>
    <trkpt lat="38.521587979" lon="34.929496972">
      <ele>1354.649</ele>
      <time>2021-10-12T17:08:36Z</time>
    </trkpt>
    <trkpt lat="38.521566018" lon="34.92948398">
      <ele>1354.764</ele>
      <time>2021-10-12T17:08:37Z</time>
    </trkpt>
    <trkpt lat="38.521545986" lon="34.929469982">
      <ele>1354.881</ele>
      <time>2021-10-12T17:08:38Z</time>
    </trkpt>
    <trkpt lat="38.521524025" lon="34.92945699">
      <ele>1355.026</ele>
      <time>2021-10-12T17:08:38Z</time>
    </trkpt>
    <trkpt lat="38.521504998" lon="34.929442992">
      <ele>1355.166</ele>
      <time>2021-10-12T17:08:39Z</time>
    </trkpt>
    <trkpt lat="38.52148396" lon="34.92943">
      <ele>1355.333</ele>
      <time>2021-10-12T17:08:40Z</time>
    </trkpt>
    <trkpt lat="38.521461999" lon="34.929414997">
      <ele>1355.502</ele>
      <time>2021-10-12T17:08:41Z</time>
    </trkpt>
    <trkpt lat="38.52144096" lon="34.929402005">
      <ele>1355.654</ele>
      <time>2021-10-12T17:08:42Z</time>
    </trkpt>
    <trkpt lat="38.521420006" lon="34.929387001">
      <ele>1355.799</ele>
      <time>2021-10-12T17:08:43Z</time>
    </trkpt>
    <trkpt lat="38.521398967" lon="34.929370992">
      <ele>1355.937</ele>
      <time>2021-10-12T17:08:44Z</time>
    </trkpt>
    <trkpt lat="38.521380024" lon="34.929358">
      <ele>1356.0</ele>
      <time>2021-10-12T17:08:44Z</time>
    </trkpt>
    <trkpt lat="38.521359991" lon="34.929345008">
      <ele>1356.0</ele>
      <time>2021-10-12T17:08:45Z</time>
    </trkpt>
    <trkpt lat="38.521342976" lon="34.929332016">
      <ele>1356.0</ele>
      <time>2021-10-12T17:08:46Z</time>
    </trkpt>
    <trkpt lat="38.521325039" lon="34.92932003">
      <ele>1356.0</ele>
      <time>2021-10-12T17:08:47Z</time>
    </trkpt>
    <trkpt lat="38.521308023" lon="34.929307038">
      <ele>1356.0</ele>
      <time>2021-10-12T17:08:48Z</time>
    </trkpt>
    <trkpt lat="38.521288997" lon="34.92929304">
      <ele>1356.0</ele>
      <time>2021-10-12T17:08:48Z</time>
    </trkpt>
    <trkpt lat="38.521270975" lon="34.929279964">
      <ele>1356.0</ele>
      <time>2021-10-12T17:08:49Z</time>
    </trkpt>
    <trkpt lat="38.521251027" lon="34.929268984">
      <ele>1356.0</ele>
      <time>2021-10-12T17:08:50Z</time>
    </trkpt>
    <trkpt lat="38.521230994" lon="34.929256998">
      <ele>1356.0</ele>
      <time>2021-10-12T17:08:51Z</time>
    </trkpt>
    <trkpt lat="38.521212973" lon="34.929245012">
      <ele>1356.0</ele>
      <time>2021-10-12T17:08:51Z</time>
    </trkpt>
    <trkpt lat="38.521193024" lon="34.92923202">
      <ele>1356.0</ele>
      <time>2021-10-12T17:08:52Z</time>
    </trkpt>
    <trkpt lat="38.521175003" lon="34.92922104">
      <ele>1356.0</ele>
      <time>2021-10-12T17:08:53Z</time>
    </trkpt>
    <trkpt lat="38.52115497" lon="34.929211987">
      <ele>1356.0</ele>
      <time>2021-10-12T17:08:54Z</time>
    </trkpt>
    <trkpt lat="38.521132004" lon="34.929204024">
      <ele>1356.0</ele>
      <time>2021-10-12T17:08:55Z</time>
    </trkpt>
    <trkpt lat="38.521085987" lon="34.929191032">
      <ele>1356.181</ele>
      <time>2021-10-12T17:08:56Z</time>
    </trkpt>
    <trkpt lat="38.521064026" lon="34.929188015">
      <ele>1356.339</ele>
      <time>2021-10-12T17:08:57Z</time>
    </trkpt>
    <trkpt lat="38.521041982" lon="34.929187009">
      <ele>1356.498</ele>
      <time>2021-10-12T17:08:58Z</time>
    </trkpt>
    <trkpt lat="38.521015998" lon="34.92918198">
      <ele>1356.685</ele>
      <time>2021-10-12T17:08:59Z</time>
    </trkpt>
    <trkpt lat="38.520966964" lon="34.929174017">
      <ele>1357.038</ele>
      <time>2021-10-12T17:09:01Z</time>
    </trkpt>
    <trkpt lat="38.520917008" lon="34.929165971">
      <ele>1357.401</ele>
      <time>2021-10-12T17:09:03Z</time>
    </trkpt>
    <trkpt lat="38.52089203" lon="34.929164965">
      <ele>1357.585</ele>
      <time>2021-10-12T17:09:04Z</time>
    </trkpt>
    <trkpt lat="38.52086504" lon="34.929165971">
      <ele>1357.775</ele>
      <time>2021-10-12T17:09:05Z</time>
    </trkpt>
    <trkpt lat="38.520838972" lon="34.929164965">
      <ele>1357.966</ele>
      <time>2021-10-12T17:09:06Z</time>
    </trkpt>
    <trkpt lat="38.520813994" lon="34.929165971">
      <ele>1358.142</ele>
      <time>2021-10-12T17:09:07Z</time>
    </trkpt>
    <trkpt lat="38.52078801" lon="34.929165971">
      <ele>1358.328</ele>
      <time>2021-10-12T17:09:08Z</time>
    </trkpt>
    <trkpt lat="38.520764038" lon="34.929161025">
      <ele>1358.514</ele>
      <time>2021-10-12T17:09:08Z</time>
    </trkpt>
    <trkpt lat="38.520741994" lon="34.929164965">
      <ele>1358.662</ele>
      <time>2021-10-12T17:09:09Z</time>
    </trkpt>
    <trkpt lat="38.520715004" lon="34.929163037">
      <ele>1358.859</ele>
      <time>2021-10-12T17:09:10Z</time>
    </trkpt>
    <trkpt lat="38.520687008" lon="34.929163037">
      <ele>1359.06</ele>
      <time>2021-10-12T17:09:11Z</time>
    </trkpt>
    <trkpt lat="38.52066203" lon="34.929163959">
      <ele>1359.237</ele>
      <time>2021-10-12T17:09:12Z</time>
    </trkpt>
    <trkpt lat="38.520636968" lon="34.929162031">
      <ele>1359.419</ele>
      <time>2021-10-12T17:09:13Z</time>
    </trkpt>
    <trkpt lat="38.520612996" lon="34.929162031">
      <ele>1359.59</ele>
      <time>2021-10-12T17:09:14Z</time>
    </trkpt>
    <trkpt lat="38.520587012" lon="34.929160019">
      <ele>1359.776</ele>
      <time>2021-10-12T17:09:15Z</time>
    </trkpt>
    <trkpt lat="38.520540996" lon="34.929163037">
      <ele>1360.052</ele>
      <time>2021-10-12T17:09:17Z</time>
    </trkpt>
    <trkpt lat="38.520518029" lon="34.929162031">
      <ele>1360.135</ele>
      <time>2021-10-12T17:09:18Z</time>
    </trkpt>
    <trkpt lat="38.520491961" lon="34.929153984">
      <ele>1360.229</ele>
      <time>2021-10-12T17:09:19Z</time>
    </trkpt>
    <trkpt lat="38.520467989" lon="34.929149961">
      <ele>1360.315</ele>
      <time>2021-10-12T17:09:19Z</time>
    </trkpt>
    <trkpt lat="38.520446029" lon="34.929147027">
      <ele>1360.394</ele>
      <time>2021-10-12T17:09:20Z</time>
    </trkpt>
    <trkpt lat="38.520422978" lon="34.929146022">
      <ele>1360.477</ele>
      <time>2021-10-12T17:09:21Z</time>
    </trkpt>
    <trkpt lat="38.520400012" lon="34.929141998">
      <ele>1360.56</ele>
      <time>2021-10-12T17:09:22Z</time>
    </trkpt>
    <trkpt lat="38.520377968" lon="34.929140992">
      <ele>1360.639</ele>
      <time>2021-10-12T17:09:23Z</time>
    </trkpt>
    <trkpt lat="38.520355001" lon="34.929137975">
      <ele>1360.722</ele>
      <time>2021-10-12T17:09:24Z</time>
    </trkpt>
    <trkpt lat="38.520332035" lon="34.929135041">
      <ele>1360.805</ele>
      <time>2021-10-12T17:09:25Z</time>
    </trkpt>
    <trkpt lat="38.520306973" lon="34.929132024">
      <ele>1360.895</ele>
      <time>2021-10-12T17:09:25Z</time>
    </trkpt>
    <trkpt lat="38.520284006" lon="34.929130012">
      <ele>1360.978</ele>
      <time>2021-10-12T17:09:26Z</time>
    </trkpt>
    <trkpt lat="38.520260034" lon="34.929124983">
      <ele>1361.118</ele>
      <time>2021-10-12T17:09:27Z</time>
    </trkpt>
    <trkpt lat="38.520233966" lon="34.929120038">
      <ele>1361.289</ele>
      <time>2021-10-12T17:09:28Z</time>
    </trkpt>
    <trkpt lat="38.520212006" lon="34.92911702">
      <ele>1361.431</ele>
      <time>2021-10-12T17:09:29Z</time>
    </trkpt>
    <trkpt lat="38.520188034" lon="34.929111991">
      <ele>1361.583</ele>
      <time>2021-10-12T17:09:30Z</time>
    </trkpt>
    <trkpt lat="38.520161966" lon="34.929106962">
      <ele>1361.744</ele>
      <time>2021-10-12T17:09:31Z</time>
    </trkpt>
    <trkpt lat="38.520136988" lon="34.929101011">
      <ele>1361.894</ele>
      <time>2021-10-12T17:09:32Z</time>
    </trkpt>
    <trkpt lat="38.520114021" lon="34.929094976">
      <ele>1362.027</ele>
      <time>2021-10-12T17:09:33Z</time>
    </trkpt>
    <trkpt lat="38.520092983" lon="34.929091036">
      <ele>1362.149</ele>
      <time>2021-10-12T17:09:33Z</time>
    </trkpt>
    <trkpt lat="38.520070016" lon="34.92908299">
      <ele>1362.271</ele>
      <time>2021-10-12T17:09:34Z</time>
    </trkpt>
    <trkpt lat="38.520046966" lon="34.929077961">
      <ele>1362.396</ele>
      <time>2021-10-12T17:09:35Z</time>
    </trkpt>
    <trkpt lat="38.520024" lon="34.929075027">
      <ele>1362.526</ele>
      <time>2021-10-12T17:09:36Z</time>
    </trkpt>
    <trkpt lat="38.520000027" lon="34.929072009">
      <ele>1362.659</ele>
      <time>2021-10-12T17:09:37Z</time>
    </trkpt>
    <trkpt lat="38.519979995" lon="34.929067986">
      <ele>1362.84</ele>
      <time>2021-10-12T17:09:38Z</time>
    </trkpt>
    <trkpt lat="38.51995904" lon="34.929064969">
      <ele>1363.037</ele>
      <time>2021-10-12T17:09:38Z</time>
    </trkpt>
    <trkpt lat="38.519934984" lon="34.929060023">
      <ele>1363.264</ele>
      <time>2021-10-12T17:09:39Z</time>
    </trkpt>
    <trkpt lat="38.519910006" lon="34.929053988">
      <ele>1363.505</ele>
      <time>2021-10-12T17:09:40Z</time>
    </trkpt>
    <trkpt lat="38.519885028" lon="34.929048037">
      <ele>1363.754</ele>
      <time>2021-10-12T17:09:41Z</time>
    </trkpt>
    <trkpt lat="38.519861978" lon="34.929044014">
      <ele>1363.991</ele>
      <time>2021-10-12T17:09:42Z</time>
    </trkpt>
    <trkpt lat="38.519838005" lon="34.929040996">
      <ele>1364.242</ele>
      <time>2021-10-12T17:09:43Z</time>
    </trkpt>
    <trkpt lat="38.519815961" lon="34.929035967">
      <ele>1364.478</ele>
      <time>2021-10-12T17:09:44Z</time>
    </trkpt>
    <trkpt lat="38.519794" lon="34.929032028">
      <ele>1364.717</ele>
      <time>2021-10-12T17:09:45Z</time>
    </trkpt>
    <trkpt lat="38.51977204" lon="34.92902901">
      <ele>1364.959</ele>
      <time>2021-10-12T17:09:45Z</time>
    </trkpt>
    <trkpt lat="38.519746978" lon="34.929023981">
      <ele>1365.244</ele>
      <time>2021-10-12T17:09:46Z</time>
    </trkpt>
    <trkpt lat="38.519722" lon="34.929022975">
      <ele>1365.519</ele>
      <time>2021-10-12T17:09:47Z</time>
    </trkpt>
    <trkpt lat="38.519696016" lon="34.929020042">
      <ele>1365.761</ele>
      <time>2021-10-12T17:09:48Z</time>
    </trkpt>
    <trkpt lat="38.519671038" lon="34.929016018">
      <ele>1365.995</ele>
      <time>2021-10-12T17:09:49Z</time>
    </trkpt>
    <trkpt lat="38.519648993" lon="34.929014007">
      <ele>1366.196</ele>
      <time>2021-10-12T17:09:50Z</time>
    </trkpt>
    <trkpt lat="38.519628039" lon="34.929014007">
      <ele>1366.38</ele>
      <time>2021-10-12T17:09:51Z</time>
    </trkpt>
    <trkpt lat="38.519609012" lon="34.929015012">
      <ele>1366.546</ele>
      <time>2021-10-12T17:09:52Z</time>
    </trkpt>
    <trkpt lat="38.519588979" lon="34.929014007">
      <ele>1366.725</ele>
      <time>2021-10-12T17:09:52Z</time>
    </trkpt>
    <trkpt lat="38.519567018" lon="34.929011995">
      <ele>1366.922</ele>
      <time>2021-10-12T17:09:53Z</time>
    </trkpt>
    <trkpt lat="38.51954598" lon="34.929010989">
      <ele>1367.108</ele>
      <time>2021-10-12T17:09:54Z</time>
    </trkpt>
    <trkpt lat="38.519524019" lon="34.929007972">
      <ele>1367.304</ele>
      <time>2021-10-12T17:09:55Z</time>
    </trkpt>
    <trkpt lat="38.519499041" lon="34.928999003">
      <ele>1367.529</ele>
      <time>2021-10-12T17:09:56Z</time>
    </trkpt>
    <trkpt lat="38.519474985" lon="34.928992968">
      <ele>1367.739</ele>
      <time>2021-10-12T17:09:57Z</time>
    </trkpt>
    <trkpt lat="38.519451013" lon="34.928987017">
      <ele>1367.944</ele>
      <time>2021-10-12T17:09:57Z</time>
    </trkpt>
    <trkpt lat="38.519427041" lon="34.928981988">
      <ele>1367.979</ele>
      <time>2021-10-12T17:09:58Z</time>
    </trkpt>
    <trkpt lat="38.519401979" lon="34.928976037">
      <ele>1367.952</ele>
      <time>2021-10-12T17:09:59Z</time>
    </trkpt>
    <trkpt lat="38.519375995" lon="34.92896799">
      <ele>1367.93</ele>
      <time>2021-10-12T17:10:00Z</time>
    </trkpt>
    <trkpt lat="38.519351017" lon="34.928962039">
      <ele>1367.911</ele>
      <time>2021-10-12T17:10:01Z</time>
    </trkpt>
    <trkpt lat="38.519326961" lon="34.928958016">
      <ele>1367.895</ele>
      <time>2021-10-12T17:10:02Z</time>
    </trkpt>
    <trkpt lat="38.519302988" lon="34.928950975">
      <ele>1367.886</ele>
      <time>2021-10-12T17:10:03Z</time>
    </trkpt>
    <trkpt lat="38.519279016" lon="34.928945024">
      <ele>1367.88</ele>
      <time>2021-10-12T17:10:04Z</time>
    </trkpt>
    <trkpt lat="38.519254038" lon="34.928943012">
      <ele>1367.866</ele>
      <time>2021-10-12T17:10:05Z</time>
    </trkpt>
    <trkpt lat="38.519228976" lon="34.928938989">
      <ele>1367.86</ele>
      <time>2021-10-12T17:10:06Z</time>
    </trkpt>
    <trkpt lat="38.519202992" lon="34.928933037">
      <ele>1367.862</ele>
      <time>2021-10-12T17:10:07Z</time>
    </trkpt>
    <trkpt lat="38.51917902" lon="34.928928008">
      <ele>1367.865</ele>
      <time>2021-10-12T17:10:08Z</time>
    </trkpt>
    <trkpt lat="38.519154964" lon="34.92891904">
      <ele>1367.98</ele>
      <time>2021-10-12T17:10:09Z</time>
    </trkpt>
    <trkpt lat="38.519133003" lon="34.928914011">
      <ele>1368.163</ele>
      <time>2021-10-12T17:10:09Z</time>
    </trkpt>
    <trkpt lat="38.519110037" lon="34.92890697">
      <ele>1368.356</ele>
      <time>2021-10-12T17:10:10Z</time>
    </trkpt>
    <trkpt lat="38.519085981" lon="34.928900013">
      <ele>1368.553</ele>
      <time>2021-10-12T17:10:11Z</time>
    </trkpt>
    <trkpt lat="38.519063015" lon="34.928895989">
      <ele>1368.73</ele>
      <time>2021-10-12T17:10:12Z</time>
    </trkpt>
    <trkpt lat="38.519039964" lon="34.928894984">
      <ele>1368.9</ele>
      <time>2021-10-12T17:10:13Z</time>
    </trkpt>
    <trkpt lat="38.519018004" lon="34.928890038">
      <ele>1369.068</ele>
      <time>2021-10-12T17:10:14Z</time>
    </trkpt>
    <trkpt lat="38.518998977" lon="34.92889096">
      <ele>1369.204</ele>
      <time>2021-10-12T17:10:14Z</time>
    </trkpt>
    <trkpt lat="38.518977016" lon="34.92889096">
      <ele>1369.363</ele>
      <time>2021-10-12T17:10:15Z</time>
    </trkpt>
    <trkpt lat="38.518958995" lon="34.928893978">
      <ele>1369.491</ele>
      <time>2021-10-12T17:10:16Z</time>
    </trkpt>
    <trkpt lat="38.518939968" lon="34.928896995">
      <ele>1369.627</ele>
      <time>2021-10-12T17:10:17Z</time>
    </trkpt>
    <trkpt lat="38.518920019" lon="34.928896995">
      <ele>1369.773</ele>
      <time>2021-10-12T17:10:17Z</time>
    </trkpt>
    <trkpt lat="38.518867968" lon="34.928888027">
      <ele>1370.226</ele>
      <time>2021-10-12T17:10:19Z</time>
    </trkpt>
    <trkpt lat="38.51884299" lon="34.928882997">
      <ele>1370.492</ele>
      <time>2021-10-12T17:10:20Z</time>
    </trkpt>
    <trkpt lat="38.518823041" lon="34.92887998">
      <ele>1370.704</ele>
      <time>2021-10-12T17:10:21Z</time>
    </trkpt>
    <trkpt lat="38.518788004" lon="34.928884003">
      <ele>1371.083</ele>
      <time>2021-10-12T17:10:22Z</time>
    </trkpt>
    <trkpt lat="38.518756991" lon="34.928898001">
      <ele>1371.424</ele>
      <time>2021-10-12T17:10:24Z</time>
    </trkpt>
    <trkpt lat="38.51873897" lon="34.928904036">
      <ele>1371.619</ele>
      <time>2021-10-12T17:10:24Z</time>
    </trkpt>
    <trkpt lat="38.518703012" lon="34.928916022">
      <ele>1372.007</ele>
      <time>2021-10-12T17:10:26Z</time>
    </trkpt>
    <trkpt lat="38.51867401" lon="34.928933037">
      <ele>1372.321</ele>
      <time>2021-10-12T17:10:27Z</time>
    </trkpt>
    <trkpt lat="38.518642997" lon="34.928959021">
      <ele>1372.656</ele>
      <time>2021-10-12T17:10:28Z</time>
    </trkpt>
    <trkpt lat="38.518617013" lon="34.928991962">
      <ele>1372.936</ele>
      <time>2021-10-12T17:10:30Z</time>
    </trkpt>
    <trkpt lat="38.518597987" lon="34.929007972">
      <ele>1373.155</ele>
      <time>2021-10-12T17:10:30Z</time>
    </trkpt>
    <trkpt lat="38.518583989" lon="34.929023981">
      <ele>1373.338</ele>
      <time>2021-10-12T17:10:31Z</time>
    </trkpt>
    <trkpt lat="38.518554987" lon="34.929050971">
      <ele>1373.758</ele>
      <time>2021-10-12T17:10:32Z</time>
    </trkpt>
    <trkpt lat="38.51852498" lon="34.929075027">
      <ele>1374.243</ele>
      <time>2021-10-12T17:10:34Z</time>
    </trkpt>
    <trkpt lat="38.518496985" lon="34.929088019">
      <ele>1374.705</ele>
      <time>2021-10-12T17:10:35Z</time>
    </trkpt>
    <trkpt lat="38.518473012" lon="34.929097993">
      <ele>1375.117</ele>
      <time>2021-10-12T17:10:36Z</time>
    </trkpt>
    <trkpt lat="38.518448034" lon="34.929109979">
      <ele>1375.576</ele>
      <time>2021-10-12T17:10:37Z</time>
    </trkpt>
    <trkpt lat="38.518428002" lon="34.929120038">
      <ele>1375.964</ele>
      <time>2021-10-12T17:10:38Z</time>
    </trkpt>
    <trkpt lat="38.518407969" lon="34.929134035">
      <ele>1376.399</ele>
      <time>2021-10-12T17:10:38Z</time>
    </trkpt>
    <trkpt lat="38.518386008" lon="34.929135963">
      <ele>1376.783</ele>
      <time>2021-10-12T17:10:39Z</time>
    </trkpt>
    <trkpt lat="38.518363042" lon="34.929132024">
      <ele>1377.131</ele>
      <time>2021-10-12T17:10:40Z</time>
    </trkpt>
    <trkpt lat="38.51833798" lon="34.929136969">
      <ele>1377.601</ele>
      <time>2021-10-12T17:10:41Z</time>
    </trkpt>
    <trkpt lat="38.518313002" lon="34.929138981">
      <ele>1378.067</ele>
      <time>2021-10-12T17:10:42Z</time>
    </trkpt>
    <trkpt lat="38.518290035" lon="34.929140992">
      <ele>1378.502</ele>
      <time>2021-10-12T17:10:43Z</time>
    </trkpt>
    <trkpt lat="38.518265979" lon="34.929141998">
      <ele>1378.946</ele>
      <time>2021-10-12T17:10:44Z</time>
    </trkpt>
    <trkpt lat="38.518243013" lon="34.929139987">
      <ele>1379.338</ele>
      <time>2021-10-12T17:10:44Z</time>
    </trkpt>
    <trkpt lat="38.518216023" lon="34.92913303">
      <ele>1379.748</ele>
      <time>2021-10-12T17:10:46Z</time>
    </trkpt>
    <trkpt lat="38.518199008" lon="34.929124983">
      <ele>1379.968</ele>
      <time>2021-10-12T17:10:46Z</time>
    </trkpt>
    <trkpt lat="38.518166989" lon="34.929121966">
      <ele>1380.511</ele>
      <time>2021-10-12T17:10:47Z</time>
    </trkpt>
    <trkpt lat="38.518132037" lon="34.929118026">
      <ele>1381.098</ele>
      <time>2021-10-12T17:10:49Z</time>
    </trkpt>
    <trkpt lat="38.518099012" lon="34.929109979">
      <ele>1381.606</ele>
      <time>2021-10-12T17:10:50Z</time>
    </trkpt>
    <trkpt lat="38.518080991" lon="34.92910604">
      <ele>1381.887</ele>
      <time>2021-10-12T17:10:51Z</time>
    </trkpt>
    <trkpt lat="38.518061964" lon="34.929102017">
      <ele>1382.186</ele>
      <time>2021-10-12T17:10:51Z</time>
    </trkpt>
    <trkpt lat="38.518026005" lon="34.929097993">
      <ele>1382.897</ele>
      <time>2021-10-12T17:10:53Z</time>
    </trkpt>
    <trkpt lat="38.517993987" lon="34.92909397">
      <ele>1383.545</ele>
      <time>2021-10-12T17:10:54Z</time>
    </trkpt>
    <trkpt lat="38.51797496" lon="34.929092964">
      <ele>1383.945</ele>
      <time>2021-10-12T17:10:55Z</time>
    </trkpt>
    <trkpt lat="38.517940007" lon="34.929098999">
      <ele>1384.765</ele>
      <time>2021-10-12T17:10:56Z</time>
    </trkpt>
    <trkpt lat="38.517911006" lon="34.929104028">
      <ele>1385.446</ele>
      <time>2021-10-12T17:10:57Z</time>
    </trkpt>
    <trkpt lat="38.517868007" lon="34.929111991">
      <ele>1386.461</ele>
      <time>2021-10-12T17:10:59Z</time>
    </trkpt>
    <trkpt lat="38.51785602" lon="34.929118026">
      <ele>1386.785</ele>
      <time>2021-10-12T17:10:59Z</time>
    </trkpt>
    <trkpt lat="38.51783297" lon="34.929128001">
      <ele>1387.39</ele>
      <time>2021-10-12T17:11:00Z</time>
    </trkpt>
    <trkpt lat="38.517806986" lon="34.929128001">
      <ele>1387.952</ele>
      <time>2021-10-12T17:11:01Z</time>
    </trkpt>
    <trkpt lat="38.517779997" lon="34.929128001">
      <ele>1388.534</ele>
      <time>2021-10-12T17:11:02Z</time>
    </trkpt>
    <trkpt lat="38.517753007" lon="34.929128001">
      <ele>1388.952</ele>
      <time>2021-10-12T17:11:03Z</time>
    </trkpt>
    <trkpt lat="38.517728029" lon="34.929125989">
      <ele>1389.303</ele>
      <time>2021-10-12T17:11:04Z</time>
    </trkpt>
    <trkpt lat="38.51769601" lon="34.929132024">
      <ele>1389.84</ele>
      <time>2021-10-12T17:11:05Z</time>
    </trkpt>
    <trkpt lat="38.51765804" lon="34.929132024">
      <ele>1390.404</ele>
      <time>2021-10-12T17:11:06Z</time>
    </trkpt>
    <trkpt lat="38.517639013" lon="34.929132024">
      <ele>1390.686</ele>
      <time>2021-10-12T17:11:07Z</time>
    </trkpt>
    <trkpt lat="38.517600037" lon="34.929138981">
      <ele>1391.324</ele>
      <time>2021-10-12T17:11:09Z</time>
    </trkpt>
    <trkpt lat="38.517576987" lon="34.929146022">
      <ele>1391.722</ele>
      <time>2021-10-12T17:11:09Z</time>
    </trkpt>
    <trkpt lat="38.517557038" lon="34.929149961">
      <ele>1392.046</ele>
      <time>2021-10-12T17:11:10Z</time>
    </trkpt>
    <trkpt lat="38.517535999" lon="34.929149039">
      <ele>1392.346</ele>
      <time>2021-10-12T17:11:11Z</time>
    </trkpt>
    <trkpt lat="38.517515967" lon="34.929148033">
      <ele>1392.632</ele>
      <time>2021-10-12T17:11:12Z</time>
    </trkpt>
    <trkpt lat="38.517481014" lon="34.929146022">
      <ele>1393.188</ele>
      <time>2021-10-12T17:11:13Z</time>
    </trkpt>
    <trkpt lat="38.517461987" lon="34.929147027">
      <ele>1393.533</ele>
      <time>2021-10-12T17:11:14Z</time>
    </trkpt>
    <trkpt lat="38.517442038" lon="34.929149961">
      <ele>1393.91</ele>
      <time>2021-10-12T17:11:14Z</time>
    </trkpt>
    <trkpt lat="38.517413037" lon="34.929152979">
      <ele>1394.451</ele>
      <time>2021-10-12T17:11:16Z</time>
    </trkpt>
    <trkpt lat="38.517396022" lon="34.929161025">
      <ele>1394.823</ele>
      <time>2021-10-12T17:11:16Z</time>
    </trkpt>
    <trkpt lat="38.51736702" lon="34.929177035">
      <ele>1395.47</ele>
      <time>2021-10-12T17:11:17Z</time>
    </trkpt>
    <trkpt lat="38.517338019" lon="34.929188015">
      <ele>1396.057</ele>
      <time>2021-10-12T17:11:18Z</time>
    </trkpt>
    <trkpt lat="38.517284961" lon="34.929191032">
      <ele>1396.998</ele>
      <time>2021-10-12T17:11:20Z</time>
    </trkpt>
    <trkpt lat="38.517264007" lon="34.929184997">
      <ele>1397.334</ele>
      <time>2021-10-12T17:11:21Z</time>
    </trkpt>
    <trkpt lat="38.517245986" lon="34.929183992">
      <ele>1397.645</ele>
      <time>2021-10-12T17:11:22Z</time>
    </trkpt>
    <trkpt lat="38.517227964" lon="34.92917804">
      <ele>1397.939</ele>
      <time>2021-10-12T17:11:23Z</time>
    </trkpt>
    <trkpt lat="38.517209021" lon="34.929169994">
      <ele>1398.06</ele>
      <time>2021-10-12T17:11:23Z</time>
    </trkpt>
    <trkpt lat="38.517173985" lon="34.929146022">
      <ele>1397.977</ele>
      <time>2021-10-12T17:11:25Z</time>
    </trkpt>
    <trkpt lat="38.51715697" lon="34.929136969">
      <ele>1397.964</ele>
      <time>2021-10-12T17:11:25Z</time>
    </trkpt>
    <trkpt lat="38.517139032" lon="34.929124983">
      <ele>1397.939</ele>
      <time>2021-10-12T17:11:26Z</time>
    </trkpt>
    <trkpt lat="38.517123023" lon="34.929109979">
      <ele>1397.891</ele>
      <time>2021-10-12T17:11:27Z</time>
    </trkpt>
    <trkpt lat="38.51710299" lon="34.929096987">
      <ele>1397.892</ele>
      <time>2021-10-12T17:11:28Z</time>
    </trkpt>
    <trkpt lat="38.517080024" lon="34.929080978">
      <ele>1397.902</ele>
      <time>2021-10-12T17:11:29Z</time>
    </trkpt>
    <trkpt lat="38.517058985" lon="34.929064969">
      <ele>1397.92</ele>
      <time>2021-10-12T17:11:30Z</time>
    </trkpt>
    <trkpt lat="38.517038031" lon="34.929051977">
      <ele>1397.972</ele>
      <time>2021-10-12T17:11:31Z</time>
    </trkpt>
    <trkpt lat="38.517016992" lon="34.929042002">
      <ele>1398.056</ele>
      <time>2021-10-12T17:11:31Z</time>
    </trkpt>
    <trkpt lat="38.516971981" lon="34.929014007">
      <ele>1398.242</ele>
      <time>2021-10-12T17:11:33Z</time>
    </trkpt>
    <trkpt lat="38.516944991" lon="34.929002021">
      <ele>1398.403</ele>
      <time>2021-10-12T17:11:34Z</time>
    </trkpt>
    <trkpt lat="38.51691599" lon="34.928989029">
      <ele>1398.733</ele>
      <time>2021-10-12T17:11:35Z</time>
    </trkpt>
    <trkpt lat="38.516887994" lon="34.928976037">
      <ele>1399.063</ele>
      <time>2021-10-12T17:11:37Z</time>
    </trkpt>
    <trkpt lat="38.516861005" lon="34.928964972">
      <ele>1399.393</ele>
      <time>2021-10-12T17:11:38Z</time>
    </trkpt>
    <trkpt lat="38.516833009" lon="34.928960027">
      <ele>1399.758</ele>
      <time>2021-10-12T17:11:39Z</time>
    </trkpt>
    <trkpt lat="38.516798979" lon="34.928948041">
      <ele>1400.196</ele>
      <time>2021-10-12T17:11:40Z</time>
    </trkpt>
    <trkpt lat="38.516767966" lon="34.928938989">
      <ele>1400.607</ele>
      <time>2021-10-12T17:11:41Z</time>
    </trkpt>
    <trkpt lat="38.516737036" lon="34.928927002">
      <ele>1401.021</ele>
      <time>2021-10-12T17:11:42Z</time>
    </trkpt>
    <trkpt lat="38.516704012" lon="34.928909987">
      <ele>1401.472</ele>
      <time>2021-10-12T17:11:44Z</time>
    </trkpt>
    <trkpt lat="38.516671993" lon="34.928894984">
      <ele>1401.924</ele>
      <time>2021-10-12T17:11:45Z</time>
    </trkpt>
    <trkpt lat="38.516643997" lon="34.928877968">
      <ele>1402.529</ele>
      <time>2021-10-12T17:11:46Z</time>
    </trkpt>
    <trkpt lat="38.516622037" lon="34.928856008">
      <ele>1403.082</ele>
      <time>2021-10-12T17:11:47Z</time>
    </trkpt>
    <trkpt lat="38.516599992" lon="34.928843016">
      <ele>1403.605</ele>
      <time>2021-10-12T17:11:48Z</time>
    </trkpt>
    <trkpt lat="38.51657996" lon="34.928826001">
      <ele>1404.099</ele>
      <time>2021-10-12T17:11:49Z</time>
    </trkpt>
    <trkpt lat="38.516559005" lon="34.928805968">
      <ele>1404.624</ele>
      <time>2021-10-12T17:11:50Z</time>
    </trkpt>
    <trkpt lat="38.516539978" lon="34.928790964">
      <ele>1405.089</ele>
      <time>2021-10-12T17:11:51Z</time>
    </trkpt>
    <trkpt lat="38.516522041" lon="34.928766992">
      <ele>1405.563</ele>
      <time>2021-10-12T17:11:52Z</time>
    </trkpt>
    <trkpt lat="38.516501002" lon="34.928746959">
      <ele>1406.089</ele>
      <time>2021-10-12T17:11:53Z</time>
    </trkpt>
    <trkpt lat="38.516479963" lon="34.928726004">
      <ele>1406.619</ele>
      <time>2021-10-12T17:11:54Z</time>
    </trkpt>
    <trkpt lat="38.51646102" lon="34.928704966">
      <ele>1407.104</ele>
      <time>2021-10-12T17:11:54Z</time>
    </trkpt>
    <trkpt lat="38.516442999" lon="34.928681999">
      <ele>1407.576</ele>
      <time>2021-10-12T17:11:55Z</time>
    </trkpt>
    <trkpt lat="38.516421961" lon="34.928663978">
      <ele>1408.095</ele>
      <time>2021-10-12T17:11:56Z</time>
    </trkpt>
    <trkpt lat="38.516397988" lon="34.928644029">
      <ele>1408.685</ele>
      <time>2021-10-12T17:11:57Z</time>
    </trkpt>
    <trkpt lat="38.516375022" lon="34.928620979">
      <ele>1409.064</ele>
      <time>2021-10-12T17:11:59Z</time>
    </trkpt>
    <trkpt lat="38.516354989" lon="34.928599019">
      <ele>1409.282</ele>
      <time>2021-10-12T17:12:00Z</time>
    </trkpt>
    <trkpt lat="38.516336968" lon="34.92857798">
      <ele>1409.471</ele>
      <time>2021-10-12T17:12:00Z</time>
    </trkpt>
    <trkpt lat="38.516316013" lon="34.928555014">
      <ele>1409.674</ele>
      <time>2021-10-12T17:12:01Z</time>
    </trkpt>
    <trkpt lat="38.516292963" lon="34.928530036">
      <ele>1409.882</ele>
      <time>2021-10-12T17:12:03Z</time>
    </trkpt>
    <trkpt lat="38.516268991" lon="34.928506985">
      <ele>1410.076</ele>
      <time>2021-10-12T17:12:04Z</time>
    </trkpt>
    <trkpt lat="38.516248036" lon="34.928487958">
      <ele>1410.233</ele>
      <time>2021-10-12T17:12:05Z</time>
    </trkpt>
    <trkpt lat="38.516233033" lon="34.928467004">
      <ele>1410.35</ele>
      <time>2021-10-12T17:12:05Z</time>
    </trkpt>
    <trkpt lat="38.516215011" lon="34.928448983">
      <ele>1410.47</ele>
      <time>2021-10-12T17:12:06Z</time>
    </trkpt>
    <trkpt lat="38.516195985" lon="34.928429034">
      <ele>1410.589</ele>
      <time>2021-10-12T17:12:07Z</time>
    </trkpt>
    <trkpt lat="38.516176036" lon="34.928407995">
      <ele>1410.703</ele>
      <time>2021-10-12T17:12:08Z</time>
    </trkpt>
    <trkpt lat="38.516160026" lon="34.928389974">
      <ele>1410.788</ele>
      <time>2021-10-12T17:12:09Z</time>
    </trkpt>
    <trkpt lat="38.516144017" lon="34.928371031">
      <ele>1410.865</ele>
      <time>2021-10-12T17:12:10Z</time>
    </trkpt>
    <trkpt lat="38.516123984" lon="34.928349992">
      <ele>1410.951</ele>
      <time>2021-10-12T17:12:11Z</time>
    </trkpt>
    <trkpt lat="38.516106969" lon="34.928331971">
      <ele>1410.99</ele>
      <time>2021-10-12T17:12:12Z</time>
    </trkpt>
    <trkpt lat="38.516089031" lon="34.928314034">
      <ele>1410.996</ele>
      <time>2021-10-12T17:12:12Z</time>
    </trkpt>
    <trkpt lat="38.516073022" lon="34.928288972">
      <ele>1411.044</ele>
      <time>2021-10-12T17:12:13Z</time>
    </trkpt>
    <trkpt lat="38.516055001" lon="34.928272041">
      <ele>1411.063</ele>
      <time>2021-10-12T17:12:14Z</time>
    </trkpt>
    <trkpt lat="38.516018959" lon="34.92823801">
      <ele>1411.125</ele>
      <time>2021-10-12T17:12:16Z</time>
    </trkpt>
    <trkpt lat="38.516003033" lon="34.92822703">
      <ele>1411.143</ele>
      <time>2021-10-12T17:12:16Z</time>
    </trkpt>
    <trkpt lat="38.515956011" lon="34.928186964">
      <ele>1411.263</ele>
      <time>2021-10-12T17:12:19Z</time>
    </trkpt>
    <trkpt lat="38.515940001" lon="34.928159975">
      <ele>1411.393</ele>
      <time>2021-10-12T17:12:20Z</time>
    </trkpt>
    <trkpt lat="38.515922986" lon="34.928140026">
      <ele>1411.49</ele>
      <time>2021-10-12T17:12:20Z</time>
    </trkpt>
    <trkpt lat="38.515906977" lon="34.928119993">
      <ele>1411.598</ele>
      <time>2021-10-12T17:12:21Z</time>
    </trkpt>
    <trkpt lat="38.515890967" lon="34.928100966">
      <ele>1411.707</ele>
      <time>2021-10-12T17:12:22Z</time>
    </trkpt>
    <trkpt lat="38.51587303" lon="34.928084034">
      <ele>1411.81</ele>
      <time>2021-10-12T17:12:23Z</time>
    </trkpt>
    <trkpt lat="38.515856015" lon="34.928062996">
      <ele>1411.949</ele>
      <time>2021-10-12T17:12:24Z</time>
    </trkpt>
    <trkpt lat="38.515841011" lon="34.928043969">
      <ele>1412.081</ele>
      <time>2021-10-12T17:12:25Z</time>
    </trkpt>
    <trkpt lat="38.515826007" lon="34.92802796">
      <ele>1412.172</ele>
      <time>2021-10-12T17:12:25Z</time>
    </trkpt>
    <trkpt lat="38.51581201" lon="34.92801304">
      <ele>1412.229</ele>
      <time>2021-10-12T17:12:26Z</time>
    </trkpt>
    <trkpt lat="38.515796" lon="34.927999964">
      <ele>1412.266</ele>
      <time>2021-10-12T17:12:27Z</time>
    </trkpt>
    <trkpt lat="38.515778985" lon="34.92798496">
      <ele>1412.313</ele>
      <time>2021-10-12T17:12:27Z</time>
    </trkpt>
    <trkpt lat="38.51576197" lon="34.927971968">
      <ele>1412.345</ele>
      <time>2021-10-12T17:12:28Z</time>
    </trkpt>
    <trkpt lat="38.515722994" lon="34.927933998">
      <ele>1412.478</ele>
      <time>2021-10-12T17:12:30Z</time>
    </trkpt>
    <trkpt lat="38.515702039" lon="34.927917989">
      <ele>1412.518</ele>
      <time>2021-10-12T17:12:31Z</time>
    </trkpt>
    <trkpt lat="38.515681" lon="34.927902985">
      <ele>1412.55</ele>
      <time>2021-10-12T17:12:32Z</time>
    </trkpt>
    <trkpt lat="38.515659962" lon="34.927886976">
      <ele>1412.59</ele>
      <time>2021-10-12T17:12:33Z</time>
    </trkpt>
    <trkpt lat="38.515640013" lon="34.927871972">
      <ele>1412.626</ele>
      <time>2021-10-12T17:12:34Z</time>
    </trkpt>
    <trkpt lat="38.515620986" lon="34.927859986">
      <ele>1412.644</ele>
      <time>2021-10-12T17:12:34Z</time>
    </trkpt>
    <trkpt lat="38.51559802" lon="34.927841965">
      <ele>1412.691</ele>
      <time>2021-10-12T17:12:35Z</time>
    </trkpt>
    <trkpt lat="38.515575975" lon="34.927826962">
      <ele>1412.719</ele>
      <time>2021-10-12T17:12:36Z</time>
    </trkpt>
    <trkpt lat="38.515556026" lon="34.92781003">
      <ele>1412.769</ele>
      <time>2021-10-12T17:12:37Z</time>
    </trkpt>
    <trkpt lat="38.51553197" lon="34.927792009">
      <ele>1412.884</ele>
      <time>2021-10-12T17:12:38Z</time>
    </trkpt>
    <trkpt lat="38.515507998" lon="34.927774994">
      <ele>1413.0</ele>
      <time>2021-10-12T17:12:39Z</time>
    </trkpt>
    <trkpt lat="38.515484026" lon="34.927756973">
      <ele>1413.0</ele>
      <time>2021-10-12T17:12:40Z</time>
    </trkpt>
    <trkpt lat="38.51545603" lon="34.927740041">
      <ele>1413.0</ele>
      <time>2021-10-12T17:12:41Z</time>
    </trkpt>
    <trkpt lat="38.515430968" lon="34.92772202">
      <ele>1413.0</ele>
      <time>2021-10-12T17:12:42Z</time>
    </trkpt>
    <trkpt lat="38.515403979" lon="34.927699976">
      <ele>1413.0</ele>
      <time>2021-10-12T17:12:44Z</time>
    </trkpt>
    <trkpt lat="38.515379" lon="34.927680027">
      <ele>1413.0</ele>
      <time>2021-10-12T17:12:45Z</time>
    </trkpt>
    <trkpt lat="38.515354022" lon="34.927659994">
      <ele>1413.0</ele>
      <time>2021-10-12T17:12:46Z</time>
    </trkpt>
    <trkpt lat="38.515330972" lon="34.927636022">
      <ele>1413.0</ele>
      <time>2021-10-12T17:12:47Z</time>
    </trkpt>
    <trkpt lat="38.515304988" lon="34.927612972">
      <ele>1413.0</ele>
      <time>2021-10-12T17:12:48Z</time>
    </trkpt>
    <trkpt lat="38.515277999" lon="34.927592017">
      <ele>1413.0</ele>
      <time>2021-10-12T17:12:49Z</time>
    </trkpt>
    <trkpt lat="38.515251009" lon="34.927569972">
      <ele>1413.337</ele>
      <time>2021-10-12T17:12:50Z</time>
    </trkpt>
    <trkpt lat="38.515227037" lon="34.927551029">
      <ele>1413.664</ele>
      <time>2021-10-12T17:12:51Z</time>
    </trkpt>
    <trkpt lat="38.515203986" lon="34.927532002">
      <ele>1414.001</ele>
      <time>2021-10-12T17:12:52Z</time>
    </trkpt>
    <trkpt lat="38.51518102" lon="34.927515993">
      <ele>1414.353</ele>
      <time>2021-10-12T17:12:53Z</time>
    </trkpt>
    <trkpt lat="38.51515797" lon="34.927498978">
      <ele>1414.714</ele>
      <time>2021-10-12T17:12:54Z</time>
    </trkpt>
    <trkpt lat="38.515136009" lon="34.927483974">
      <ele>1414.868</ele>
      <time>2021-10-12T17:12:55Z</time>
    </trkpt>
    <trkpt lat="38.515113965" lon="34.927469976">
      <ele>1415.035</ele>
      <time>2021-10-12T17:12:56Z</time>
    </trkpt>
    <trkpt lat="38.515094016" lon="34.927458996">
      <ele>1415.203</ele>
      <time>2021-10-12T17:12:57Z</time>
    </trkpt>
    <trkpt lat="38.515074989" lon="34.927448016">
      <ele>1415.359</ele>
      <time>2021-10-12T17:12:58Z</time>
    </trkpt>
    <trkpt lat="38.515054034" lon="34.927439969">
      <ele>1415.574</ele>
      <time>2021-10-12T17:12:59Z</time>
    </trkpt>
    <trkpt lat="38.515022015" lon="34.927421026">
      <ele>1415.83</ele>
      <time>2021-10-12T17:13:00Z</time>
    </trkpt>
    <trkpt lat="38.515005" lon="34.92740904">
      <ele>1415.946</ele>
      <time>2021-10-12T17:13:01Z</time>
    </trkpt>
    <trkpt lat="38.514969964" lon="34.92739303">
      <ele>1416.252</ele>
      <time>2021-10-12T17:13:02Z</time>
    </trkpt>
    <trkpt lat="38.514936017" lon="34.927376015">
      <ele>1416.558</ele>
      <time>2021-10-12T17:13:03Z</time>
    </trkpt>
    <trkpt lat="38.514917996" lon="34.927366963">
      <ele>1416.732</ele>
      <time>2021-10-12T17:13:04Z</time>
    </trkpt>
    <trkpt lat="38.514887989" lon="34.927352965">
      <ele>1417.049</ele>
      <time>2021-10-12T17:13:05Z</time>
    </trkpt>
    <trkpt lat="38.514868962" lon="34.92734802">
      <ele>1417.29</ele>
      <time>2021-10-12T17:13:06Z</time>
    </trkpt>
    <trkpt lat="38.514848007" lon="34.927345002">
      <ele>1417.578</ele>
      <time>2021-10-12T17:13:07Z</time>
    </trkpt>
    <trkpt lat="38.514826968" lon="34.927336033">
      <ele>1417.833</ele>
      <time>2021-10-12T17:13:08Z</time>
    </trkpt>
    <trkpt lat="38.514806014" lon="34.927326981">
      <ele>1418.096</ele>
      <time>2021-10-12T17:13:08Z</time>
    </trkpt>
    <trkpt lat="38.514784975" lon="34.927319018">
      <ele>1418.376</ele>
      <time>2021-10-12T17:13:09Z</time>
    </trkpt>
    <trkpt lat="38.51476402" lon="34.927311977">
      <ele>1418.668</ele>
      <time>2021-10-12T17:13:10Z</time>
    </trkpt>
    <trkpt lat="38.514745999" lon="34.927304015">
      <ele>1418.917</ele>
      <time>2021-10-12T17:13:11Z</time>
    </trkpt>
    <trkpt lat="38.514727978" lon="34.927300997">
      <ele>1419.192</ele>
      <time>2021-10-12T17:13:11Z</time>
    </trkpt>
    <trkpt lat="38.514685985" lon="34.927303009">
      <ele>1419.682</ele>
      <time>2021-10-12T17:13:13Z</time>
    </trkpt>
    <trkpt lat="38.514666036" lon="34.927300997">
      <ele>1419.89</ele>
      <time>2021-10-12T17:13:14Z</time>
    </trkpt>
    <trkpt lat="38.514648015" lon="34.92729404">
      <ele>1420.06</ele>
      <time>2021-10-12T17:13:14Z</time>
    </trkpt>
    <trkpt lat="38.514630999" lon="34.927282976">
      <ele>1420.204</ele>
      <time>2021-10-12T17:13:15Z</time>
    </trkpt>
    <trkpt lat="38.514615996" lon="34.927268978">
      <ele>1420.316</ele>
      <time>2021-10-12T17:13:16Z</time>
    </trkpt>
    <trkpt lat="38.514581965" lon="34.927244">
      <ele>1420.593</ele>
      <time>2021-10-12T17:13:17Z</time>
    </trkpt>
    <trkpt lat="38.514563022" lon="34.927227991">
      <ele>1420.74</ele>
      <time>2021-10-12T17:13:18Z</time>
    </trkpt>
    <trkpt lat="38.514539972" lon="34.927208964">
      <ele>1420.856</ele>
      <time>2021-10-12T17:13:19Z</time>
    </trkpt>
    <trkpt lat="38.514519017" lon="34.92719396">
      <ele>1420.964</ele>
      <time>2021-10-12T17:13:20Z</time>
    </trkpt>
    <trkpt lat="38.514498984" lon="34.927180968">
      <ele>1421.085</ele>
      <time>2021-10-12T17:13:21Z</time>
    </trkpt>
    <trkpt lat="38.514453974" lon="34.927150039">
      <ele>1421.368</ele>
      <time>2021-10-12T17:13:23Z</time>
    </trkpt>
    <trkpt lat="38.514428996" lon="34.927127995">
      <ele>1421.47</ele>
      <time>2021-10-12T17:13:24Z</time>
    </trkpt>
    <trkpt lat="38.514404017" lon="34.927102011">
      <ele>1421.508</ele>
      <time>2021-10-12T17:13:25Z</time>
    </trkpt>
    <trkpt lat="38.514356995" lon="34.927054988">
      <ele>1421.551</ele>
      <time>2021-10-12T17:13:27Z</time>
    </trkpt>
    <trkpt lat="38.514335034" lon="34.92703001">
      <ele>1421.525</ele>
      <time>2021-10-12T17:13:28Z</time>
    </trkpt>
    <trkpt lat="38.514311984" lon="34.927007966">
      <ele>1421.52</ele>
      <time>2021-10-12T17:13:29Z</time>
    </trkpt>
    <trkpt lat="38.514292035" lon="34.926982988">
      <ele>1421.451</ele>
      <time>2021-10-12T17:13:30Z</time>
    </trkpt>
    <trkpt lat="38.514268985" lon="34.926961027">
      <ele>1421.42</ele>
      <time>2021-10-12T17:13:32Z</time>
    </trkpt>
    <trkpt lat="38.514245013" lon="34.926934037">
      <ele>1421.415</ele>
      <time>2021-10-12T17:13:33Z</time>
    </trkpt>
    <trkpt lat="38.514220035" lon="34.926906042">
      <ele>1421.563</ele>
      <time>2021-10-12T17:13:34Z</time>
    </trkpt>
    <trkpt lat="38.51419799" lon="34.92687704">
      <ele>1421.72</ele>
      <time>2021-10-12T17:13:35Z</time>
    </trkpt>
    <trkpt lat="38.51417603" lon="34.926851979">
      <ele>1421.91</ele>
      <time>2021-10-12T17:13:36Z</time>
    </trkpt>
    <trkpt lat="38.514120961" lon="34.926777966">
      <ele>1422.823</ele>
      <time>2021-10-12T17:13:39Z</time>
    </trkpt>
    <trkpt lat="38.514104029" lon="34.926752988">
      <ele>1423.127</ele>
      <time>2021-10-12T17:13:40Z</time>
    </trkpt>
    <trkpt lat="38.514086008" lon="34.926723987">
      <ele>1423.452</ele>
      <time>2021-10-12T17:13:41Z</time>
    </trkpt>
    <trkpt lat="38.514069999" lon="34.92669398">
      <ele>1423.74</ele>
      <time>2021-10-12T17:13:42Z</time>
    </trkpt>
    <trkpt lat="38.514054995" lon="34.926665984">
      <ele>1424.01</ele>
      <time>2021-10-12T17:13:43Z</time>
    </trkpt>
    <trkpt lat="38.514042003" lon="34.926635977">
      <ele>1424.233</ele>
      <time>2021-10-12T17:13:44Z</time>
    </trkpt>
    <trkpt lat="38.514025994" lon="34.926572023">
      <ele>1424.536</ele>
      <time>2021-10-12T17:13:46Z</time>
    </trkpt>
    <trkpt lat="38.514020965" lon="34.926540004">
      <ele>1424.645</ele>
      <time>2021-10-12T17:13:47Z</time>
    </trkpt>
    <trkpt lat="38.514018031" lon="34.926505974">
      <ele>1424.716</ele>
      <time>2021-10-12T17:13:48Z</time>
    </trkpt>
    <trkpt lat="38.514017025" lon="34.926444031">
      <ele>1424.756</ele>
      <time>2021-10-12T17:13:50Z</time>
    </trkpt>
    <trkpt lat="38.514015013" lon="34.926412012">
      <ele>1424.814</ele>
      <time>2021-10-12T17:13:51Z</time>
    </trkpt>
    <trkpt lat="38.514016019" lon="34.926384017">
      <ele>1424.795</ele>
      <time>2021-10-12T17:13:52Z</time>
    </trkpt>
    <trkpt lat="38.514016019" lon="34.926351998">
      <ele>1424.785</ele>
      <time>2021-10-12T17:13:53Z</time>
    </trkpt>
    <trkpt lat="38.514015013" lon="34.926325008">
      <ele>1424.801</ele>
      <time>2021-10-12T17:13:53Z</time>
    </trkpt>
    <trkpt lat="38.514024988" lon="34.92628796">
      <ele>1424.563</ele>
      <time>2021-10-12T17:13:55Z</time>
    </trkpt>
    <trkpt lat="38.514023982" lon="34.926258037">
      <ele>1424.583</ele>
      <time>2021-10-12T17:13:55Z</time>
    </trkpt>
    <trkpt lat="38.514024988" lon="34.926226018">
      <ele>1424.559</ele>
      <time>2021-10-12T17:13:56Z</time>
    </trkpt>
    <trkpt lat="38.514026999" lon="34.926192993">
      <ele>1424.516</ele>
      <time>2021-10-12T17:13:57Z</time>
    </trkpt>
    <trkpt lat="38.514029011" lon="34.92616198">
      <ele>1424.476</ele>
      <time>2021-10-12T17:13:58Z</time>
    </trkpt>
    <trkpt lat="38.514032029" lon="34.926135996">
      <ele>1424.421</ele>
      <time>2021-10-12T17:13:59Z</time>
    </trkpt>
    <trkpt lat="38.514036974" lon="34.926111018">
      <ele>1424.335</ele>
      <time>2021-10-12T17:14:00Z</time>
    </trkpt>
    <trkpt lat="38.514047032" lon="34.926063996">
      <ele>1424.662</ele>
      <time>2021-10-12T17:14:01Z</time>
    </trkpt>
    <trkpt lat="38.514050972" lon="34.926039018">
      <ele>1424.861</ele>
      <time>2021-10-12T17:14:02Z</time>
    </trkpt>
    <trkpt lat="38.514053989" lon="34.92601404">
      <ele>1425.077</ele>
      <time>2021-10-12T17:14:03Z</time>
    </trkpt>
    <trkpt lat="38.514052983" lon="34.925985038">
      <ele>1425.408</ele>
      <time>2021-10-12T17:14:03Z</time>
    </trkpt>
    <trkpt lat="38.514052983" lon="34.925957965">
      <ele>1425.7</ele>
      <time>2021-10-12T17:14:04Z</time>
    </trkpt>
    <trkpt lat="38.514048038" lon="34.925928041">
      <ele>1426.112</ele>
      <time>2021-10-12T17:14:05Z</time>
    </trkpt>
    <trkpt lat="38.514046026" lon="34.925898034">
      <ele>1426.473</ele>
      <time>2021-10-12T17:14:06Z</time>
    </trkpt>
    <trkpt lat="38.514045021" lon="34.925869033">
      <ele>1426.804</ele>
      <time>2021-10-12T17:14:07Z</time>
    </trkpt>
    <trkpt lat="38.514048038" lon="34.925844977">
      <ele>1427.01</ele>
      <time>2021-10-12T17:14:08Z</time>
    </trkpt>
    <trkpt lat="38.514050972" lon="34.925819999">
      <ele>1427.199</ele>
      <time>2021-10-12T17:14:08Z</time>
    </trkpt>
    <trkpt lat="38.514053989" lon="34.925768031">
      <ele>1427.594</ele>
      <time>2021-10-12T17:14:10Z</time>
    </trkpt>
    <trkpt lat="38.514053989" lon="34.925740035">
      <ele>1427.836</ele>
      <time>2021-10-12T17:14:11Z</time>
    </trkpt>
    <trkpt lat="38.514053989" lon="34.925715979">
      <ele>1428.045</ele>
      <time>2021-10-12T17:14:11Z</time>
    </trkpt>
    <trkpt lat="38.514052983" lon="34.925692007">
      <ele>1428.272</ele>
      <time>2021-10-12T17:14:12Z</time>
    </trkpt>
    <trkpt lat="38.514050972" lon="34.925665017">
      <ele>1428.547</ele>
      <time>2021-10-12T17:14:13Z</time>
    </trkpt>
    <trkpt lat="38.514049966" lon="34.925641967">
      <ele>1428.768</ele>
      <time>2021-10-12T17:14:13Z</time>
    </trkpt>
    <trkpt lat="38.514047032" lon="34.925616989">
      <ele>1429.047</ele>
      <time>2021-10-12T17:14:14Z</time>
    </trkpt>
    <trkpt lat="38.514043009" lon="34.925592011">
      <ele>1429.35</ele>
      <time>2021-10-12T17:14:15Z</time>
    </trkpt>
    <trkpt lat="38.514036974" lon="34.925568961">
      <ele>1429.682</ele>
      <time>2021-10-12T17:14:16Z</time>
    </trkpt>
    <trkpt lat="38.514030017" lon="34.925523028">
      <ele>1429.892</ele>
      <time>2021-10-12T17:14:17Z</time>
    </trkpt>
    <trkpt lat="38.514022976" lon="34.925499978">
      <ele>1430.007</ele>
      <time>2021-10-12T17:14:18Z</time>
    </trkpt>
    <trkpt lat="38.514015013" lon="34.925477011">
      <ele>1430.147</ele>
      <time>2021-10-12T17:14:18Z</time>
    </trkpt>
    <trkpt lat="38.514006967" lon="34.925453039">
      <ele>1430.293</ele>
      <time>2021-10-12T17:14:19Z</time>
    </trkpt>
    <trkpt lat="38.513988024" lon="34.925419008">
      <ele>1430.683</ele>
      <time>2021-10-12T17:14:20Z</time>
    </trkpt>
    <trkpt lat="38.513977965" lon="34.925396964">
      <ele>1430.893</ele>
      <time>2021-10-12T17:14:21Z</time>
    </trkpt>
    <trkpt lat="38.513957011" lon="34.925361006">
      <ele>1431.357</ele>
      <time>2021-10-12T17:14:22Z</time>
    </trkpt>
    <trkpt lat="38.513947958" lon="34.925340973">
      <ele>1431.56</ele>
      <time>2021-10-12T17:14:23Z</time>
    </trkpt>
    <trkpt lat="38.513938989" lon="34.925317001">
      <ele>1431.763</ele>
      <time>2021-10-12T17:14:24Z</time>
    </trkpt>
    <trkpt lat="38.513931027" lon="34.925292023">
      <ele>1431.946</ele>
      <time>2021-10-12T17:14:25Z</time>
    </trkpt>
    <trkpt lat="38.51392298" lon="34.925270984">
      <ele>1432.086</ele>
      <time>2021-10-12T17:14:25Z</time>
    </trkpt>
    <trkpt lat="38.513913006" lon="34.925247012">
      <ele>1432.152</ele>
      <time>2021-10-12T17:14:26Z</time>
    </trkpt>
    <trkpt lat="38.513904959" lon="34.925217004">
      <ele>1432.132</ele>
      <time>2021-10-12T17:14:27Z</time>
    </trkpt>
    <trkpt lat="38.513896996" lon="34.92519496">
      <ele>1432.182</ele>
      <time>2021-10-12T17:14:28Z</time>
    </trkpt>
    <trkpt lat="38.513889033" lon="34.925171994">
      <ele>1432.234</ele>
      <time>2021-10-12T17:14:29Z</time>
    </trkpt>
    <trkpt lat="38.513881993" lon="34.925147016">
      <ele>1432.32</ele>
      <time>2021-10-12T17:14:29Z</time>
    </trkpt>
    <trkpt lat="38.513873024" lon="34.925122038">
      <ele>1432.475</ele>
      <time>2021-10-12T17:14:30Z</time>
    </trkpt>
    <trkpt lat="38.513863971" lon="34.925100999">
      <ele>1432.657</ele>
      <time>2021-10-12T17:14:31Z</time>
    </trkpt>
    <trkpt lat="38.513851985" lon="34.925074009">
      <ele>1432.897</ele>
      <time>2021-10-12T17:14:32Z</time>
    </trkpt>
    <trkpt lat="38.513843017" lon="34.925050037">
      <ele>1433.041</ele>
      <time>2021-10-12T17:14:32Z</time>
    </trkpt>
    <trkpt lat="38.513831031" lon="34.925022963">
      <ele>1433.265</ele>
      <time>2021-10-12T17:14:33Z</time>
    </trkpt>
    <trkpt lat="38.513817033" lon="34.924994968">
      <ele>1433.473</ele>
      <time>2021-10-12T17:14:34Z</time>
    </trkpt>
    <trkpt lat="38.513804041" lon="34.92496999">
      <ele>1433.373</ele>
      <time>2021-10-12T17:14:35Z</time>
    </trkpt>
    <trkpt lat="38.513789037" lon="34.924941994">
      <ele>1433.267</ele>
      <time>2021-10-12T17:14:36Z</time>
    </trkpt>
    <trkpt lat="38.513775039" lon="34.924926991">
      <ele>1433.414</ele>
      <time>2021-10-12T17:14:37Z</time>
    </trkpt>
    <trkpt lat="38.51375903" lon="34.924909975">
      <ele>1433.579</ele>
      <time>2021-10-12T17:14:38Z</time>
    </trkpt>
    <trkpt lat="38.513742015" lon="34.924889021">
      <ele>1433.679</ele>
      <time>2021-10-12T17:14:39Z</time>
    </trkpt>
    <trkpt lat="38.513704967" lon="34.924851973">
      <ele>1434.071</ele>
      <time>2021-10-12T17:14:40Z</time>
    </trkpt>
    <trkpt lat="38.513642019" lon="34.924792964">
      <ele>1434.753</ele>
      <time>2021-10-12T17:14:43Z</time>
    </trkpt>
    <trkpt lat="38.513529031" lon="34.924723981">
      <ele>1435.224</ele>
      <time>2021-10-12T17:14:48Z</time>
    </trkpt>
    <trkpt lat="38.513485026" lon="34.924715012">
      <ele>1435.622</ele>
      <time>2021-10-12T17:14:49Z</time>
    </trkpt>
    <trkpt lat="38.513410008" lon="34.924710989">
      <ele>1436.584</ele>
      <time>2021-10-12T17:14:52Z</time>
    </trkpt>
    <trkpt lat="38.513384024" lon="34.924710989">
      <ele>1436.954</ele>
      <time>2021-10-12T17:14:53Z</time>
    </trkpt>
    <trkpt lat="38.51335804" lon="34.924707972">
      <ele>1437.238</ele>
      <time>2021-10-12T17:14:54Z</time>
    </trkpt>
    <trkpt lat="38.513329038" lon="34.924707972">
      <ele>1437.576</ele>
      <time>2021-10-12T17:14:55Z</time>
    </trkpt>
    <trkpt lat="38.513301965" lon="34.924710989">
      <ele>1437.573</ele>
      <time>2021-10-12T17:14:56Z</time>
    </trkpt>
    <trkpt lat="38.513275981" lon="34.924720041">
      <ele>1437.734</ele>
      <time>2021-10-12T17:14:57Z</time>
    </trkpt>
    <trkpt lat="38.513224013" lon="34.924734961">
      <ele>1437.936</ele>
      <time>2021-10-12T17:14:59Z</time>
    </trkpt>
    <trkpt lat="38.513119994" lon="34.924792964">
      <ele>1439.347</ele>
      <time>2021-10-12T17:15:03Z</time>
    </trkpt>
    <trkpt lat="38.513099039" lon="34.924806962">
      <ele>1439.759</ele>
      <time>2021-10-12T17:15:04Z</time>
    </trkpt>
    <trkpt lat="38.513078" lon="34.924819032">
      <ele>1440.133</ele>
      <time>2021-10-12T17:15:05Z</time>
    </trkpt>
    <trkpt lat="38.512982028" lon="34.924861025">
      <ele>1442.291</ele>
      <time>2021-10-12T17:15:09Z</time>
    </trkpt>
    <trkpt lat="38.512958977" lon="34.924875023">
      <ele>1442.959</ele>
      <time>2021-10-12T17:15:10Z</time>
    </trkpt>
    <trkpt lat="38.512936011" lon="34.924888015">
      <ele>1443.579</ele>
      <time>2021-10-12T17:15:11Z</time>
    </trkpt>
    <trkpt lat="38.512910027" lon="34.924896983">
      <ele>1444.099</ele>
      <time>2021-10-12T17:15:12Z</time>
    </trkpt>
    <trkpt lat="38.512884965" lon="34.92490897">
      <ele>1444.681</ele>
      <time>2021-10-12T17:15:13Z</time>
    </trkpt>
    <trkpt lat="38.512858981" lon="34.924920034">
      <ele>1445.232</ele>
      <time>2021-10-12T17:15:14Z</time>
    </trkpt>
    <trkpt lat="38.512832997" lon="34.924931014">
      <ele>1445.765</ele>
      <time>2021-10-12T17:15:15Z</time>
    </trkpt>
    <trkpt lat="38.512805002" lon="34.924940988">
      <ele>1446.275</ele>
      <time>2021-10-12T17:15:16Z</time>
    </trkpt>
    <trkpt lat="38.51278103" lon="34.924951969">
      <ele>1446.762</ele>
      <time>2021-10-12T17:15:17Z</time>
    </trkpt>
    <trkpt lat="38.512750017" lon="34.924964039">
      <ele>1447.32</ele>
      <time>2021-10-12T17:15:18Z</time>
    </trkpt>
    <trkpt lat="38.512725038" lon="34.924966972">
      <ele>1447.593</ele>
      <time>2021-10-12T17:15:19Z</time>
    </trkpt>
    <trkpt lat="38.512696959" lon="34.924965966">
      <ele>1447.796</ele>
      <time>2021-10-12T17:15:20Z</time>
    </trkpt>
    <trkpt lat="38.512670975" lon="34.924967978">
      <ele>1448.051</ele>
      <time>2021-10-12T17:15:21Z</time>
    </trkpt>
    <trkpt lat="38.512640968" lon="34.924964039">
      <ele>1448.206</ele>
      <time>2021-10-12T17:15:22Z</time>
    </trkpt>
    <trkpt lat="38.512609033" lon="34.924946018">
      <ele>1448.091</ele>
      <time>2021-10-12T17:15:23Z</time>
    </trkpt>
    <trkpt lat="38.51257802" lon="34.924927996">
      <ele>1447.997</ele>
      <time>2021-10-12T17:15:25Z</time>
    </trkpt>
    <trkpt lat="38.512515994" lon="34.924801011">
      <ele>1446.221</ele>
      <time>2021-10-12T17:15:29Z</time>
    </trkpt>
    <trkpt lat="38.51249001" lon="34.924691962">
      <ele>1444.751</ele>
      <time>2021-10-12T17:15:32Z</time>
    </trkpt>
    <trkpt lat="38.51247903" lon="34.924658015">
      <ele>1444.483</ele>
      <time>2021-10-12T17:15:33Z</time>
    </trkpt>
    <trkpt lat="38.512469977" lon="34.924622979">
      <ele>1444.156</ele>
      <time>2021-10-12T17:15:34Z</time>
    </trkpt>
    <trkpt lat="38.512460003" lon="34.924590038">
      <ele>1443.91</ele>
      <time>2021-10-12T17:15:35Z</time>
    </trkpt>
    <trkpt lat="38.512448017" lon="34.924558019">
      <ele>1443.763</ele>
      <time>2021-10-12T17:15:36Z</time>
    </trkpt>
    <trkpt lat="38.512411974" lon="34.924479984">
      <ele>1443.728</ele>
      <time>2021-10-12T17:15:39Z</time>
    </trkpt>
    <trkpt lat="38.512365036" lon="34.92441603">
      <ele>1444.3</ele>
      <time>2021-10-12T17:15:42Z</time>
    </trkpt>
    <trkpt lat="38.512350032" lon="34.924389962">
      <ele>1444.297</ele>
      <time>2021-10-12T17:15:43Z</time>
    </trkpt>
    <trkpt lat="38.512337962" lon="34.924371019">
      <ele>1444.313</ele>
      <time>2021-10-12T17:15:43Z</time>
    </trkpt>
    <trkpt lat="38.512305021" lon="34.92432802">
      <ele>1444.46</ele>
      <time>2021-10-12T17:15:45Z</time>
    </trkpt>
    <trkpt lat="38.512239978" lon="34.924232969">
      <ele>1444.178</ele>
      <time>2021-10-12T17:15:49Z</time>
    </trkpt>
    <trkpt lat="38.512174012" lon="34.924147977">
      <ele>1444.068</ele>
      <time>2021-10-12T17:15:52Z</time>
    </trkpt>
    <trkpt lat="38.512113998" lon="34.924043035">
      <ele>1443.044</ele>
      <time>2021-10-12T17:15:56Z</time>
    </trkpt>
    <trkpt lat="38.512040991" lon="34.923963994">
      <ele>1442.812</ele>
      <time>2021-10-12T17:15:59Z</time>
    </trkpt>
    <trkpt lat="38.511962034" lon="34.923879001">
      <ele>1442.386</ele>
      <time>2021-10-12T17:16:03Z</time>
    </trkpt>
    <trkpt lat="38.51186296" lon="34.923803983">
      <ele>1446.573</ele>
      <time>2021-10-12T17:16:08Z</time>
    </trkpt>
    <trkpt lat="38.511774028" lon="34.923738018">
      <ele>1450.661</ele>
      <time>2021-10-12T17:16:11Z</time>
    </trkpt>
    <trkpt lat="38.511684006" lon="34.923663">
      <ele>1454.286</ele>
      <time>2021-10-12T17:16:15Z</time>
    </trkpt>
    <trkpt lat="38.511592979" lon="34.923622012">
      <ele>1457.723</ele>
      <time>2021-10-12T17:16:19Z</time>
    </trkpt>
    <trkpt lat="38.511500023" lon="34.923587982">
      <ele>1461.499</ele>
      <time>2021-10-12T17:16:23Z</time>
    </trkpt>
    <trkpt lat="38.51143498" lon="34.923502989">
      <ele>1463.351</ele>
      <time>2021-10-12T17:16:26Z</time>
    </trkpt>
    <trkpt lat="38.511392986" lon="34.923436018">
      <ele>1464.296</ele>
      <time>2021-10-12T17:16:28Z</time>
    </trkpt>
    <trkpt lat="38.511390975" lon="34.923410034">
      <ele>1464.012</ele>
      <time>2021-10-12T17:16:29Z</time>
    </trkpt>
    <trkpt lat="38.511389969" lon="34.923380027">
      <ele>1463.625</ele>
      <time>2021-10-12T17:16:30Z</time>
    </trkpt>
    <trkpt lat="38.511392986" lon="34.923353959">
      <ele>1463.119</ele>
      <time>2021-10-12T17:16:31Z</time>
    </trkpt>
    <trkpt lat="38.511398016" lon="34.923327975">
      <ele>1462.57</ele>
      <time>2021-10-12T17:16:32Z</time>
    </trkpt>
    <trkpt lat="38.511410002" lon="34.923304003">
      <ele>1461.909</ele>
      <time>2021-10-12T17:16:32Z</time>
    </trkpt>
    <trkpt lat="38.511419976" lon="34.923281958">
      <ele>1461.37</ele>
      <time>2021-10-12T17:16:33Z</time>
    </trkpt>
    <trkpt lat="38.511430034" lon="34.923261004">
      <ele>1460.856</ele>
      <time>2021-10-12T17:16:34Z</time>
    </trkpt>
    <trkpt lat="38.511440009" lon="34.923241977">
      <ele>1460.376</ele>
      <time>2021-10-12T17:16:35Z</time>
    </trkpt>
    <trkpt lat="38.511461969" lon="34.923205012">
      <ele>1459.405</ele>
      <time>2021-10-12T17:16:36Z</time>
    </trkpt>
    <trkpt lat="38.511491977" lon="34.923191015">
      <ele>1458.282</ele>
      <time>2021-10-12T17:16:37Z</time>
    </trkpt>
    <trkpt lat="38.511536987" lon="34.92315799">
      <ele>1456.686</ele>
      <time>2021-10-12T17:16:39Z</time>
    </trkpt>
    <trkpt lat="38.511549979" lon="34.923139969">
      <ele>1456.263</ele>
      <time>2021-10-12T17:16:40Z</time>
    </trkpt>
    <trkpt lat="38.511565989" lon="34.923123959">
      <ele>1455.764</ele>
      <time>2021-10-12T17:16:40Z</time>
    </trkpt>
    <trkpt lat="38.511580992" lon="34.92310904">
      <ele>1455.32</ele>
      <time>2021-10-12T17:16:41Z</time>
    </trkpt>
    <trkpt lat="38.511598008" lon="34.923094036">
      <ele>1454.837</ele>
      <time>2021-10-12T17:16:42Z</time>
    </trkpt>
    <trkpt lat="38.511615023" lon="34.923079032">
      <ele>1454.381</ele>
      <time>2021-10-12T17:16:43Z</time>
    </trkpt>
    <trkpt lat="38.511632038" lon="34.923063023">
      <ele>1453.957</ele>
      <time>2021-10-12T17:16:44Z</time>
    </trkpt>
    <trkpt lat="38.511675959" lon="34.92300502">
      <ele>1452.972</ele>
      <time>2021-10-12T17:16:46Z</time>
    </trkpt>
    <trkpt lat="38.511694986" lon="34.922975013">
      <ele>1452.695</ele>
      <time>2021-10-12T17:16:47Z</time>
    </trkpt>
    <trkpt lat="38.51169901" lon="34.922934026">
      <ele>1452.826</ele>
      <time>2021-10-12T17:16:48Z</time>
    </trkpt>
    <trkpt lat="38.511696998" lon="34.922909969">
      <ele>1452.989</ele>
      <time>2021-10-12T17:16:49Z</time>
    </trkpt>
    <trkpt lat="38.511689035" lon="34.922874011">
      <ele>1453.3</ele>
      <time>2021-10-12T17:16:50Z</time>
    </trkpt>
    <trkpt lat="38.511677971" lon="34.922842998">
      <ele>1453.605</ele>
      <time>2021-10-12T17:16:51Z</time>
    </trkpt>
    <trkpt lat="38.511662968" lon="34.922829">
      <ele>1453.911</ele>
      <time>2021-10-12T17:16:52Z</time>
    </trkpt>
    <trkpt lat="38.511640001" lon="34.922810979">
      <ele>1454.564</ele>
      <time>2021-10-12T17:16:53Z</time>
    </trkpt>
    <trkpt lat="38.511538229" lon="34.922718695">
      <ele>1456.942</ele>
      <time>2021-10-12T17:16:57Z</time>
    </trkpt>
    <trkpt lat="38.511363631" lon="34.92266149">
      <ele>1460.539</ele>
      <time>2021-10-12T17:17:04Z</time>
    </trkpt>
    <trkpt lat="38.51114321" lon="34.922577542">
      <ele>1465.769</ele>
      <time>2021-10-12T17:17:12Z</time>
    </trkpt>
    <trkpt lat="38.51084058" lon="34.922429189">
      <ele>1473.21</ele>
      <time>2021-10-12T17:17:24Z</time>
    </trkpt>
    <trkpt lat="38.51052724" lon="34.922245336">
      <ele>1481.103</ele>
      <time>2021-10-12T17:17:37Z</time>
    </trkpt>
    <trkpt lat="38.510347266" lon="34.922154398">
      <ele>1488.905</ele>
      <time>2021-10-12T17:17:44Z</time>
    </trkpt>
    <trkpt lat="38.510182282" lon="34.922101738">
      <ele>1496.36</ele>
      <time>2021-10-12T17:17:51Z</time>
    </trkpt>
    <trkpt lat="38.510041673" lon="34.922088503">
      <ele>1503.421</ele>
      <time>2021-10-12T17:17:56Z</time>
    </trkpt>
    <trkpt lat="38.509921048" lon="34.922027112">
      <ele>1509.52</ele>
      <time>2021-10-12T17:18:01Z</time>
    </trkpt>
    <trkpt lat="38.50990153" lon="34.921842514">
      <ele>1508.517</ele>
      <time>2021-10-12T17:18:06Z</time>
    </trkpt>
    <trkpt lat="38.50991798" lon="34.921634529">
      <ele>1505.849</ele>
      <time>2021-10-12T17:18:12Z</time>
    </trkpt>
    <trkpt lat="38.509868354" lon="34.921334301">
      <ele>1506.977</ele>
      <time>2021-10-12T17:18:21Z</time>
    </trkpt>
    <trkpt lat="38.509753028" lon="34.920990923">
      <ele>1514.424</ele>
      <time>2021-10-12T17:18:32Z</time>
    </trkpt>
    <trkpt lat="38.509525409" lon="34.920619237">
      <ele>1525.99</ele>
      <time>2021-10-12T17:18:46Z</time>
    </trkpt>
    <trkpt lat="38.509176308" lon="34.920192611">
      <ele>1537.685</ele>
      <time>2021-10-12T17:19:04Z</time>
    </trkpt>
    <trkpt lat="38.508848308" lon="34.919700823">
      <ele>1543.252</ele>
      <time>2021-10-12T17:19:22Z</time>
    </trkpt>
    <trkpt lat="38.508544728" lon="34.919220474">
      <ele>1551.78</ele>
      <time>2021-10-12T17:19:40Z</time>
    </trkpt>
    <trkpt lat="38.50836145" lon="34.918755286">
      <ele>1556.887</ele>
      <time>2021-10-12T17:19:55Z</time>
    </trkpt>
    <trkpt lat="38.508323743" lon="34.918322375">
      <ele>1561.609</ele>
      <time>2021-10-12T17:20:08Z</time>
    </trkpt>
    <trkpt lat="38.508363621" lon="34.917962751">
      <ele>1566.987</ele>
      <time>2021-10-12T17:20:19Z</time>
    </trkpt>
    <trkpt lat="38.508410878" lon="34.917756247">
      <ele>1569.872</ele>
      <time>2021-10-12T17:20:25Z</time>
    </trkpt>
    <trkpt lat="38.508419586" lon="34.917641035">
      <ele>1573.139</ele>
      <time>2021-10-12T17:20:28Z</time>
    </trkpt>
    <trkpt lat="38.50831289" lon="34.917586617">
      <ele>1578.094</ele>
      <time>2021-10-12T17:20:32Z</time>
    </trkpt>
    <trkpt lat="38.508121665" lon="34.917648043">
      <ele>1581.832</ele>
      <time>2021-10-12T17:20:40Z</time>
    </trkpt>
    <trkpt lat="38.507916702" lon="34.91771709">
      <ele>1585.919</ele>
      <time>2021-10-12T17:20:48Z</time>
    </trkpt>
    <trkpt lat="38.507764087" lon="34.917719749">
      <ele>1590.2</ele>
      <time>2021-10-12T17:20:53Z</time>
    </trkpt>
    <trkpt lat="38.507595212" lon="34.917678242">
      <ele>1592.479</ele>
      <time>2021-10-12T17:21:00Z</time>
    </trkpt>
    <trkpt lat="38.507386018" lon="34.917623">
      <ele>1594.378</ele>
      <time>2021-10-12T17:21:08Z</time>
    </trkpt>
    <trkpt lat="38.507360034" lon="34.917621994">
      <ele>1594.569</ele>
      <time>2021-10-12T17:21:09Z</time>
    </trkpt>
    <trkpt lat="38.507328015" lon="34.917614032">
      <ele>1594.828</ele>
      <time>2021-10-12T17:21:10Z</time>
    </trkpt>
    <trkpt lat="38.507307982" lon="34.917614032">
      <ele>1594.972</ele>
      <time>2021-10-12T17:21:10Z</time>
    </trkpt>
    <trkpt lat="38.507283004" lon="34.917615959">
      <ele>1595.145</ele>
      <time>2021-10-12T17:21:11Z</time>
    </trkpt>
    <trkpt lat="38.507262971" lon="34.917615959">
      <ele>1595.289</ele>
      <time>2021-10-12T17:21:12Z</time>
    </trkpt>
    <trkpt lat="38.507236987" lon="34.917616965">
      <ele>1595.473</ele>
      <time>2021-10-12T17:21:13Z</time>
    </trkpt>
    <trkpt lat="38.507211003" lon="34.917618977">
      <ele>1595.67</ele>
      <time>2021-10-12T17:21:14Z</time>
    </trkpt>
    <trkpt lat="38.507186025" lon="34.917618977">
      <ele>1595.888</ele>
      <time>2021-10-12T17:21:15Z</time>
    </trkpt>
    <trkpt lat="38.50715803" lon="34.917618977">
      <ele>1596.133</ele>
      <time>2021-10-12T17:21:16Z</time>
    </trkpt>
    <trkpt lat="38.507130034" lon="34.917619983">
      <ele>1596.375</ele>
      <time>2021-10-12T17:21:17Z</time>
    </trkpt>
    <trkpt lat="38.507105978" lon="34.917624006">
      <ele>1596.577</ele>
      <time>2021-10-12T17:21:18Z</time>
    </trkpt>
    <trkpt lat="38.507086029" lon="34.917629035">
      <ele>1596.744</ele>
      <time>2021-10-12T17:21:19Z</time>
    </trkpt>
    <trkpt lat="38.507067002" lon="34.91763901">
      <ele>1596.897</ele>
      <time>2021-10-12T17:21:19Z</time>
    </trkpt>
    <trkpt lat="38.50704697" lon="34.917653007">
      <ele>1597.059</ele>
      <time>2021-10-12T17:21:20Z</time>
    </trkpt>
    <trkpt lat="38.507028027" lon="34.917673962">
      <ele>1597.21</ele>
      <time>2021-10-12T17:21:21Z</time>
    </trkpt>
    <trkpt lat="38.507015035" lon="34.917699024">
      <ele>1597.31</ele>
      <time>2021-10-12T17:21:22Z</time>
    </trkpt>
    <trkpt lat="38.507002965" lon="34.91772702">
      <ele>1597.406</ele>
      <time>2021-10-12T17:21:23Z</time>
    </trkpt>
    <trkpt lat="38.50699299" lon="34.917760966">
      <ele>1597.486</ele>
      <time>2021-10-12T17:21:24Z</time>
    </trkpt>
    <trkpt lat="38.506985027" lon="34.917798014">
      <ele>1597.499</ele>
      <time>2021-10-12T17:21:25Z</time>
    </trkpt>
    <trkpt lat="38.506977987" lon="34.91783699">
      <ele>1597.45</ele>
      <time>2021-10-12T17:21:26Z</time>
    </trkpt>
    <trkpt lat="38.506972035" lon="34.917877978">
      <ele>1597.377</ele>
      <time>2021-10-12T17:21:28Z</time>
    </trkpt>
    <trkpt lat="38.506968012" lon="34.917920977">
      <ele>1597.274</ele>
      <time>2021-10-12T17:21:29Z</time>
    </trkpt>
    <trkpt lat="38.506962983" lon="34.917963976">
      <ele>1597.174</ele>
      <time>2021-10-12T17:21:30Z</time>
    </trkpt>
    <trkpt lat="38.506966" lon="34.918007981">
      <ele>1597.003</ele>
      <time>2021-10-12T17:21:31Z</time>
    </trkpt>
    <trkpt lat="38.50697103" lon="34.918048969">
      <ele>1596.83</ele>
      <time>2021-10-12T17:21:33Z</time>
    </trkpt>
    <trkpt lat="38.506979998" lon="34.91809004">
      <ele>1596.744</ele>
      <time>2021-10-12T17:21:34Z</time>
    </trkpt>
    <trkpt lat="38.506985027" lon="34.918132033">
      <ele>1596.708</ele>
      <time>2021-10-12T17:21:35Z</time>
    </trkpt>
    <trkpt lat="38.506991984" lon="34.918173021">
      <ele>1596.658</ele>
      <time>2021-10-12T17:21:36Z</time>
    </trkpt>
    <trkpt lat="38.506999025" lon="34.918211997">
      <ele>1596.607</ele>
      <time>2021-10-12T17:21:37Z</time>
    </trkpt>
    <trkpt lat="38.507005982" lon="34.918251978">
      <ele>1596.557</ele>
      <time>2021-10-12T17:21:39Z</time>
    </trkpt>
    <trkpt lat="38.507012017" lon="34.918291038">
      <ele>1596.513</ele>
      <time>2021-10-12T17:21:40Z</time>
    </trkpt>
    <trkpt lat="38.507012017" lon="34.918330014">
      <ele>1596.513</ele>
      <time>2021-10-12T17:21:41Z</time>
    </trkpt>
    <trkpt lat="38.507017968" lon="34.918455994">
      <ele>1596.588</ele>
      <time>2021-10-12T17:21:45Z</time>
    </trkpt>
    <trkpt lat="38.507020986" lon="34.918492036">
      <ele>1596.606</ele>
      <time>2021-10-12T17:21:46Z</time>
    </trkpt>
    <trkpt lat="38.507026015" lon="34.918578034">
      <ele>1596.671</ele>
      <time>2021-10-12T17:21:48Z</time>
    </trkpt>
    <trkpt lat="38.507026015" lon="34.918651963">
      <ele>1596.81</ele>
      <time>2021-10-12T17:21:50Z</time>
    </trkpt>
    <trkpt lat="38.507017968" lon="34.918692028">
      <ele>1596.95</ele>
      <time>2021-10-12T17:21:52Z</time>
    </trkpt>
    <trkpt lat="38.507012017" lon="34.918728992">
      <ele>1597.078</ele>
      <time>2021-10-12T17:21:53Z</time>
    </trkpt>
    <trkpt lat="38.506995002" lon="34.918808034">
      <ele>1597.398</ele>
      <time>2021-10-12T17:21:55Z</time>
    </trkpt>
    <trkpt lat="38.506986033" lon="34.91884701">
      <ele>1597.572</ele>
      <time>2021-10-12T17:21:56Z</time>
    </trkpt>
    <trkpt lat="38.506972035" lon="34.918882968">
      <ele>1597.782</ele>
      <time>2021-10-12T17:21:57Z</time>
    </trkpt>
    <trkpt lat="38.506958038" lon="34.91891901">
      <ele>1597.913</ele>
      <time>2021-10-12T17:21:59Z</time>
    </trkpt>
    <trkpt lat="38.506940017" lon="34.918952035">
      <ele>1597.984</ele>
      <time>2021-10-12T17:22:00Z</time>
    </trkpt>
    <trkpt lat="38.506923001" lon="34.918987993">
      <ele>1597.923</ele>
      <time>2021-10-12T17:22:01Z</time>
    </trkpt>
    <trkpt lat="38.506907998" lon="34.91902303">
      <ele>1597.869</ele>
      <time>2021-10-12T17:22:02Z</time>
    </trkpt>
    <trkpt lat="38.506891988" lon="34.919053959">
      <ele>1597.811</ele>
      <time>2021-10-12T17:22:03Z</time>
    </trkpt>
    <trkpt lat="38.506874973" lon="34.919084972">
      <ele>1597.75</ele>
      <time>2021-10-12T17:22:04Z</time>
    </trkpt>
    <trkpt lat="38.506858964" lon="34.919113973">
      <ele>1597.692</ele>
      <time>2021-10-12T17:22:05Z</time>
    </trkpt>
    <trkpt lat="38.506843038" lon="34.919141969">
      <ele>1597.635</ele>
      <time>2021-10-12T17:22:06Z</time>
    </trkpt>
    <trkpt lat="38.50682904" lon="34.919168036">
      <ele>1597.585</ele>
      <time>2021-10-12T17:22:07Z</time>
    </trkpt>
    <trkpt lat="38.506811019" lon="34.919195026">
      <ele>1597.52</ele>
      <time>2021-10-12T17:22:08Z</time>
    </trkpt>
    <trkpt lat="38.506794004" lon="34.919220004">
      <ele>1597.458</ele>
      <time>2021-10-12T17:22:09Z</time>
    </trkpt>
    <trkpt lat="38.506774977" lon="34.919244982">
      <ele>1597.39</ele>
      <time>2021-10-12T17:22:10Z</time>
    </trkpt>
    <trkpt lat="38.506756034" lon="34.91926996">
      <ele>1597.322</ele>
      <time>2021-10-12T17:22:11Z</time>
    </trkpt>
    <trkpt lat="38.506711023" lon="34.919324024">
      <ele>1597.16</ele>
      <time>2021-10-12T17:22:13Z</time>
    </trkpt>
    <trkpt lat="38.506696019" lon="34.919344978">
      <ele>1597.106</ele>
      <time>2021-10-12T17:22:14Z</time>
    </trkpt>
    <trkpt lat="38.506675987" lon="34.919370962">
      <ele>1597.034</ele>
      <time>2021-10-12T17:22:15Z</time>
    </trkpt>
    <trkpt lat="38.506650003" lon="34.919396024">
      <ele>1597.05</ele>
      <time>2021-10-12T17:22:17Z</time>
    </trkpt>
    <trkpt lat="38.506622007" lon="34.919419996">
      <ele>1597.147</ele>
      <time>2021-10-12T17:22:18Z</time>
    </trkpt>
    <trkpt lat="38.506597029" lon="34.919442963">
      <ele>1597.249</ele>
      <time>2021-10-12T17:22:19Z</time>
    </trkpt>
    <trkpt lat="38.506568028" lon="34.919466013">
      <ele>1597.433</ele>
      <time>2021-10-12T17:22:20Z</time>
    </trkpt>
    <trkpt lat="38.506536009" lon="34.919487974">
      <ele>1597.627</ele>
      <time>2021-10-12T17:22:22Z</time>
    </trkpt>
    <trkpt lat="38.506507007" lon="34.919508006">
      <ele>1597.804</ele>
      <time>2021-10-12T17:22:23Z</time>
    </trkpt>
    <trkpt lat="38.506482029" lon="34.919527033">
      <ele>1597.962</ele>
      <time>2021-10-12T17:22:24Z</time>
    </trkpt>
    <trkpt lat="38.506453028" lon="34.919546982">
      <ele>1598.138</ele>
      <time>2021-10-12T17:22:25Z</time>
    </trkpt>
    <trkpt lat="38.506425032" lon="34.919567015">
      <ele>1598.311</ele>
      <time>2021-10-12T17:22:26Z</time>
    </trkpt>
    <trkpt lat="38.506394019" lon="34.919585036">
      <ele>1598.488</ele>
      <time>2021-10-12T17:22:28Z</time>
    </trkpt>
    <trkpt lat="38.506368035" lon="34.919601968">
      <ele>1598.567</ele>
      <time>2021-10-12T17:22:29Z</time>
    </trkpt>
    <trkpt lat="38.506339034" lon="34.919616971">
      <ele>1598.621</ele>
      <time>2021-10-12T17:22:30Z</time>
    </trkpt>
    <trkpt lat="38.506306009" lon="34.919634992">
      <ele>1598.686</ele>
      <time>2021-10-12T17:22:31Z</time>
    </trkpt>
    <trkpt lat="38.506278014" lon="34.919656031">
      <ele>1598.762</ele>
      <time>2021-10-12T17:22:32Z</time>
    </trkpt>
    <trkpt lat="38.506251024" lon="34.919674974">
      <ele>1598.83</ele>
      <time>2021-10-12T17:22:33Z</time>
    </trkpt>
    <trkpt lat="38.506225962" lon="34.919691989">
      <ele>1598.891</ele>
      <time>2021-10-12T17:22:35Z</time>
    </trkpt>
    <trkpt lat="38.506198972" lon="34.919713028">
      <ele>1598.967</ele>
      <time>2021-10-12T17:22:36Z</time>
    </trkpt>
    <trkpt lat="38.506172989" lon="34.919733983">
      <ele>1599.009</ele>
      <time>2021-10-12T17:22:37Z</time>
    </trkpt>
    <trkpt lat="38.506145999" lon="34.919756027">
      <ele>1599.015</ele>
      <time>2021-10-12T17:22:38Z</time>
    </trkpt>
    <trkpt lat="38.506120015" lon="34.919776982">
      <ele>1599.006</ele>
      <time>2021-10-12T17:22:39Z</time>
    </trkpt>
    <trkpt lat="38.506093025" lon="34.919799026">
      <ele>1598.87</ele>
      <time>2021-10-12T17:22:40Z</time>
    </trkpt>
    <trkpt lat="38.506067041" lon="34.919816963">
      <ele>1598.683</ele>
      <time>2021-10-12T17:22:41Z</time>
    </trkpt>
    <trkpt lat="38.506041979" lon="34.91983599">
      <ele>1598.502</ele>
      <time>2021-10-12T17:22:43Z</time>
    </trkpt>
    <trkpt lat="38.50601499" lon="34.919856023">
      <ele>1598.308</ele>
      <time>2021-10-12T17:22:44Z</time>
    </trkpt>
    <trkpt lat="38.505985988" lon="34.919878989">
      <ele>1598.099</ele>
      <time>2021-10-12T17:22:45Z</time>
    </trkpt>
    <trkpt lat="38.505958999" lon="34.919903968">
      <ele>1597.905</ele>
      <time>2021-10-12T17:22:46Z</time>
    </trkpt>
    <trkpt lat="38.505934021" lon="34.919932969">
      <ele>1597.725</ele>
      <time>2021-10-12T17:22:47Z</time>
    </trkpt>
    <trkpt lat="38.505909964" lon="34.919962976">
      <ele>1597.552</ele>
      <time>2021-10-12T17:22:49Z</time>
    </trkpt>
    <trkpt lat="38.505885992" lon="34.919990972">
      <ele>1597.379</ele>
      <time>2021-10-12T17:22:50Z</time>
    </trkpt>
    <trkpt lat="38.505863026" lon="34.920018967">
      <ele>1597.214</ele>
      <time>2021-10-12T17:22:51Z</time>
    </trkpt>
    <trkpt lat="38.505842993" lon="34.920048974">
      <ele>1597.07</ele>
      <time>2021-10-12T17:22:52Z</time>
    </trkpt>
    <trkpt lat="38.50582296" lon="34.92007697">
      <ele>1596.963</ele>
      <time>2021-10-12T17:22:53Z</time>
    </trkpt>
    <trkpt lat="38.505798988" lon="34.920107983">
      <ele>1596.876</ele>
      <time>2021-10-12T17:22:55Z</time>
    </trkpt>
    <trkpt lat="38.505773004" lon="34.920140002">
      <ele>1596.783</ele>
      <time>2021-10-12T17:22:56Z</time>
    </trkpt>
    <trkpt lat="38.50575096" lon="34.920170009">
      <ele>1596.703</ele>
      <time>2021-10-12T17:22:57Z</time>
    </trkpt>
    <trkpt lat="38.505731011" lon="34.920195993">
      <ele>1596.632</ele>
      <time>2021-10-12T17:22:58Z</time>
    </trkpt>
    <trkpt lat="38.505708966" lon="34.920221977">
      <ele>1596.552</ele>
      <time>2021-10-12T17:22:59Z</time>
    </trkpt>
    <trkpt lat="38.505687006" lon="34.920249972">
      <ele>1596.473</ele>
      <time>2021-10-12T17:23:00Z</time>
    </trkpt>
    <trkpt lat="38.505666973" lon="34.920281991">
      <ele>1596.401</ele>
      <time>2021-10-12T17:23:02Z</time>
    </trkpt>
    <trkpt lat="38.505647024" lon="34.920311999">
      <ele>1596.329</ele>
      <time>2021-10-12T17:23:03Z</time>
    </trkpt>
    <trkpt lat="38.505621962" lon="34.920345023">
      <ele>1596.239</ele>
      <time>2021-10-12T17:23:04Z</time>
    </trkpt>
    <trkpt lat="38.505598996" lon="34.920376036">
      <ele>1596.156</ele>
      <time>2021-10-12T17:23:05Z</time>
    </trkpt>
    <trkpt lat="38.505578041" lon="34.92040596">
      <ele>1596.081</ele>
      <time>2021-10-12T17:23:06Z</time>
    </trkpt>
    <trkpt lat="38.50556002" lon="34.920435967">
      <ele>1596.016</ele>
      <time>2021-10-12T17:23:08Z</time>
    </trkpt>
    <trkpt lat="38.505538981" lon="34.920463962">
      <ele>1595.98</ele>
      <time>2021-10-12T17:23:09Z</time>
    </trkpt>
    <trkpt lat="38.505519032" lon="34.920496987">
      <ele>1595.972</ele>
      <time>2021-10-12T17:23:10Z</time>
    </trkpt>
    <trkpt lat="38.505483996" lon="34.92055499">
      <ele>1595.999</ele>
      <time>2021-10-12T17:23:12Z</time>
    </trkpt>
    <trkpt lat="38.505463963" lon="34.920583991">
      <ele>1596.102</ele>
      <time>2021-10-12T17:23:13Z</time>
    </trkpt>
    <trkpt lat="38.505444014" lon="34.92061601">
      <ele>1596.218</ele>
      <time>2021-10-12T17:23:14Z</time>
    </trkpt>
    <trkpt lat="38.505422976" lon="34.920644006">
      <ele>1596.318</ele>
      <time>2021-10-12T17:23:15Z</time>
    </trkpt>
    <trkpt lat="38.505403027" lon="34.920670995">
      <ele>1596.416</ele>
      <time>2021-10-12T17:23:17Z</time>
    </trkpt>
    <trkpt lat="38.505385006" lon="34.920696979">
      <ele>1596.509</ele>
      <time>2021-10-12T17:23:18Z</time>
    </trkpt>
    <trkpt lat="38.505344018" lon="34.920750037">
      <ele>1596.7</ele>
      <time>2021-10-12T17:23:20Z</time>
    </trkpt>
    <trkpt lat="38.505323986" lon="34.920775015">
      <ele>1596.79</ele>
      <time>2021-10-12T17:23:21Z</time>
    </trkpt>
    <trkpt lat="38.505279981" lon="34.920824971">
      <ele>1596.97</ele>
      <time>2021-10-12T17:23:23Z</time>
    </trkpt>
    <trkpt lat="38.50526196" lon="34.920851961">
      <ele>1597.006</ele>
      <time>2021-10-12T17:23:24Z</time>
    </trkpt>
    <trkpt lat="38.505245028" lon="34.920877023">
      <ele>1597.021</ele>
      <time>2021-10-12T17:23:25Z</time>
    </trkpt>
    <trkpt lat="38.505229019" lon="34.920900995">
      <ele>1597.025</ele>
      <time>2021-10-12T17:23:26Z</time>
    </trkpt>
    <trkpt lat="38.505215021" lon="34.92093402">
      <ele>1597.055</ele>
      <time>2021-10-12T17:23:27Z</time>
    </trkpt>
    <trkpt lat="38.505198006" lon="34.920965033">
      <ele>1597.051</ele>
      <time>2021-10-12T17:23:28Z</time>
    </trkpt>
    <trkpt lat="38.505181996" lon="34.920999985">
      <ele>1597.048</ele>
      <time>2021-10-12T17:23:29Z</time>
    </trkpt>
    <trkpt lat="38.505164981" lon="34.921036027">
      <ele>1597.027</ele>
      <time>2021-10-12T17:23:30Z</time>
    </trkpt>
    <trkpt lat="38.505150983" lon="34.92107098">
      <ele>1597.009</ele>
      <time>2021-10-12T17:23:32Z</time>
    </trkpt>
    <trkpt lat="38.50513598" lon="34.921106016">
      <ele>1596.97</ele>
      <time>2021-10-12T17:23:33Z</time>
    </trkpt>
    <trkpt lat="38.505117958" lon="34.921139041">
      <ele>1596.807</ele>
      <time>2021-10-12T17:23:34Z</time>
    </trkpt>
    <trkpt lat="38.505102033" lon="34.921172988">
      <ele>1596.653</ele>
      <time>2021-10-12T17:23:35Z</time>
    </trkpt>
    <trkpt lat="38.505085018" lon="34.921206012">
      <ele>1596.508</ele>
      <time>2021-10-12T17:23:36Z</time>
    </trkpt>
    <trkpt lat="38.505070014" lon="34.921237025">
      <ele>1596.39</ele>
      <time>2021-10-12T17:23:37Z</time>
    </trkpt>
    <trkpt lat="38.505052999" lon="34.92126896">
      <ele>1596.273</ele>
      <time>2021-10-12T17:23:38Z</time>
    </trkpt>
    <trkpt lat="38.505032966" lon="34.921297962">
      <ele>1596.158</ele>
      <time>2021-10-12T17:23:40Z</time>
    </trkpt>
    <trkpt lat="38.505012011" lon="34.921326963">
      <ele>1596.053</ele>
      <time>2021-10-12T17:23:41Z</time>
    </trkpt>
    <trkpt lat="38.504974041" lon="34.921388989">
      <ele>1595.907</ele>
      <time>2021-10-12T17:23:43Z</time>
    </trkpt>
    <trkpt lat="38.50495602" lon="34.921422014">
      <ele>1595.842</ele>
      <time>2021-10-12T17:23:44Z</time>
    </trkpt>
    <trkpt lat="38.504934981" lon="34.921455961">
      <ele>1595.766</ele>
      <time>2021-10-12T17:23:45Z</time>
    </trkpt>
    <trkpt lat="38.50491696" lon="34.921492003">
      <ele>1595.701</ele>
      <time>2021-10-12T17:23:47Z</time>
    </trkpt>
    <trkpt lat="38.504898017" lon="34.921529973">
      <ele>1595.633</ele>
      <time>2021-10-12T17:23:48Z</time>
    </trkpt>
    <trkpt lat="38.504883014" lon="34.921564003">
      <ele>1595.579</ele>
      <time>2021-10-12T17:23:49Z</time>
    </trkpt>
    <trkpt lat="38.50486801" lon="34.921598034">
      <ele>1595.525</ele>
      <time>2021-10-12T17:23:50Z</time>
    </trkpt>
    <trkpt lat="38.504853006" lon="34.921633992">
      <ele>1595.471</ele>
      <time>2021-10-12T17:23:51Z</time>
    </trkpt>
    <trkpt lat="38.504835991" lon="34.921669029">
      <ele>1595.418</ele>
      <time>2021-10-12T17:23:53Z</time>
    </trkpt>
    <trkpt lat="38.504818976" lon="34.921703981">
      <ele>1595.483</ele>
      <time>2021-10-12T17:23:54Z</time>
    </trkpt>
    <trkpt lat="38.504803972" lon="34.921736">
      <ele>1595.544</ele>
      <time>2021-10-12T17:23:55Z</time>
    </trkpt>
    <trkpt lat="38.504789975" lon="34.921767013">
      <ele>1595.605</ele>
      <time>2021-10-12T17:23:56Z</time>
    </trkpt>
    <trkpt lat="38.504776983" lon="34.92179702">
      <ele>1595.666</ele>
      <time>2021-10-12T17:23:57Z</time>
    </trkpt>
    <trkpt lat="38.504761979" lon="34.921828033">
      <ele>1595.724</ele>
      <time>2021-10-12T17:23:58Z</time>
    </trkpt>
    <trkpt lat="38.504744964" lon="34.921859968">
      <ele>1595.778</ele>
      <time>2021-10-12T17:23:59Z</time>
    </trkpt>
    <trkpt lat="38.504724009" lon="34.921892993">
      <ele>1595.821</ele>
      <time>2021-10-12T17:24:00Z</time>
    </trkpt>
    <trkpt lat="38.504704982" lon="34.921925012">
      <ele>1595.926</ele>
      <time>2021-10-12T17:24:01Z</time>
    </trkpt>
    <trkpt lat="38.504688973" lon="34.921954013">
      <ele>1596.034</ele>
      <time>2021-10-12T17:24:02Z</time>
    </trkpt>
    <trkpt lat="38.504675981" lon="34.921982009">
      <ele>1596.135</ele>
      <time>2021-10-12T17:24:03Z</time>
    </trkpt>
    <trkpt lat="38.504658965" lon="34.922013022">
      <ele>1596.247</ele>
      <time>2021-10-12T17:24:05Z</time>
    </trkpt>
    <trkpt lat="38.504643962" lon="34.922043029">
      <ele>1596.355</ele>
      <time>2021-10-12T17:24:06Z</time>
    </trkpt>
    <trkpt lat="38.504629964" lon="34.922072031">
      <ele>1596.459</ele>
      <time>2021-10-12T17:24:07Z</time>
    </trkpt>
    <trkpt lat="38.504612027" lon="34.922102038">
      <ele>1596.567</ele>
      <time>2021-10-12T17:24:08Z</time>
    </trkpt>
    <trkpt lat="38.504593" lon="34.922131961">
      <ele>1596.675</ele>
      <time>2021-10-12T17:24:09Z</time>
    </trkpt>
    <trkpt lat="38.504574979" lon="34.92216398">
      <ele>1596.79</ele>
      <time>2021-10-12T17:24:10Z</time>
    </trkpt>
    <trkpt lat="38.504556036" lon="34.922195999">
      <ele>1596.906</ele>
      <time>2021-10-12T17:24:11Z</time>
    </trkpt>
    <trkpt lat="38.504533991" lon="34.922228018">
      <ele>1597.021</ele>
      <time>2021-10-12T17:24:12Z</time>
    </trkpt>
    <trkpt lat="38.504513036" lon="34.922258025">
      <ele>1597.129</ele>
      <time>2021-10-12T17:24:13Z</time>
    </trkpt>
    <trkpt lat="38.504493004" lon="34.922288032">
      <ele>1597.237</ele>
      <time>2021-10-12T17:24:15Z</time>
    </trkpt>
    <trkpt lat="38.504479006" lon="34.922315022">
      <ele>1597.334</ele>
      <time>2021-10-12T17:24:16Z</time>
    </trkpt>
    <trkpt lat="38.504461991" lon="34.922345029">
      <ele>1597.442</ele>
      <time>2021-10-12T17:24:17Z</time>
    </trkpt>
    <trkpt lat="38.504447993" lon="34.922370007">
      <ele>1597.532</ele>
      <time>2021-10-12T17:24:18Z</time>
    </trkpt>
    <trkpt lat="38.504432989" lon="34.922399009">
      <ele>1597.61</ele>
      <time>2021-10-12T17:24:19Z</time>
    </trkpt>
    <trkpt lat="38.504419997" lon="34.922427004">
      <ele>1597.672</ele>
      <time>2021-10-12T17:24:20Z</time>
    </trkpt>
    <trkpt lat="38.504408011" lon="34.922457011">
      <ele>1597.734</ele>
      <time>2021-10-12T17:24:20Z</time>
    </trkpt>
    <trkpt lat="38.504388984" lon="34.922488024">
      <ele>1597.766</ele>
      <time>2021-10-12T17:24:22Z</time>
    </trkpt>
    <trkpt lat="38.504373981" lon="34.922518032">
      <ele>1597.811</ele>
      <time>2021-10-12T17:24:23Z</time>
    </trkpt>
    <trkpt lat="38.504359983" lon="34.922548039">
      <ele>1597.869</ele>
      <time>2021-10-12T17:24:24Z</time>
    </trkpt>
    <trkpt lat="38.504345985" lon="34.92257704">
      <ele>1597.923</ele>
      <time>2021-10-12T17:24:25Z</time>
    </trkpt>
    <trkpt lat="38.504329976" lon="34.922606042">
      <ele>1597.97</ele>
      <time>2021-10-12T17:24:26Z</time>
    </trkpt>
    <trkpt lat="38.504315978" lon="34.922636971">
      <ele>1598.031</ele>
      <time>2021-10-12T17:24:27Z</time>
    </trkpt>
    <trkpt lat="38.504303992" lon="34.92266899">
      <ele>1598.103</ele>
      <time>2021-10-12T17:24:28Z</time>
    </trkpt>
    <trkpt lat="38.504291" lon="34.922702014">
      <ele>1598.175</ele>
      <time>2021-10-12T17:24:29Z</time>
    </trkpt>
    <trkpt lat="38.504278008" lon="34.922737973">
      <ele>1598.258</ele>
      <time>2021-10-12T17:24:30Z</time>
    </trkpt>
    <trkpt lat="38.504266022" lon="34.922774015">
      <ele>1598.344</ele>
      <time>2021-10-12T17:24:31Z</time>
    </trkpt>
    <trkpt lat="38.504256969" lon="34.922808968">
      <ele>1598.401</ele>
      <time>2021-10-12T17:24:32Z</time>
    </trkpt>
    <trkpt lat="38.504244983" lon="34.922840986">
      <ele>1598.445</ele>
      <time>2021-10-12T17:24:33Z</time>
    </trkpt>
    <trkpt lat="38.504235009" lon="34.922874011">
      <ele>1598.507</ele>
      <time>2021-10-12T17:24:34Z</time>
    </trkpt>
    <trkpt lat="38.504227968" lon="34.922908964">
      <ele>1598.589</ele>
      <time>2021-10-12T17:24:35Z</time>
    </trkpt>
    <trkpt lat="38.504220005" lon="34.922944">
      <ele>1598.676</ele>
      <time>2021-10-12T17:24:36Z</time>
    </trkpt>
    <trkpt lat="38.504211958" lon="34.922979958">
      <ele>1598.772</ele>
      <time>2021-10-12T17:24:37Z</time>
    </trkpt>
    <trkpt lat="38.504203996" lon="34.923016001">
      <ele>1598.877</ele>
      <time>2021-10-12T17:24:39Z</time>
    </trkpt>
    <trkpt lat="38.504194021" lon="34.923050031">
      <ele>1598.982</ele>
      <time>2021-10-12T17:24:40Z</time>
    </trkpt>
    <trkpt lat="38.504183041" lon="34.923085989">
      <ele>1599.11</ele>
      <time>2021-10-12T17:24:41Z</time>
    </trkpt>
    <trkpt lat="38.504172983" lon="34.923119014">
      <ele>1599.228</ele>
      <time>2021-10-12T17:24:42Z</time>
    </trkpt>
    <trkpt lat="38.504157979" lon="34.923153967">
      <ele>1599.323</ele>
      <time>2021-10-12T17:24:43Z</time>
    </trkpt>
    <trkpt lat="38.504144987" lon="34.923187997">
      <ele>1599.399</ele>
      <time>2021-10-12T17:24:44Z</time>
    </trkpt>
    <trkpt lat="38.504135013" lon="34.923224039">
      <ele>1599.493</ele>
      <time>2021-10-12T17:24:45Z</time>
    </trkpt>
    <trkpt lat="38.504121015" lon="34.923258992">
      <ele>1599.568</ele>
      <time>2021-10-12T17:24:46Z</time>
    </trkpt>
    <trkpt lat="38.504109029" lon="34.923293022">
      <ele>1599.647</ele>
      <time>2021-10-12T17:24:47Z</time>
    </trkpt>
    <trkpt lat="38.504097965" lon="34.923326969">
      <ele>1599.73</ele>
      <time>2021-10-12T17:24:48Z</time>
    </trkpt>
    <trkpt lat="38.504091008" lon="34.923363011">
      <ele>1599.834</ele>
      <time>2021-10-12T17:24:49Z</time>
    </trkpt>
    <trkpt lat="38.504079022" lon="34.923397964">
      <ele>1599.917</ele>
      <time>2021-10-12T17:24:51Z</time>
    </trkpt>
    <trkpt lat="38.504069969" lon="34.923438029">
      <ele>1600.029</ele>
      <time>2021-10-12T17:24:52Z</time>
    </trkpt>
    <trkpt lat="38.504058989" lon="34.923472982">
      <ele>1600.115</ele>
      <time>2021-10-12T17:24:53Z</time>
    </trkpt>
    <trkpt lat="38.50405002" lon="34.923508018">
      <ele>1600.209</ele>
      <time>2021-10-12T17:24:54Z</time>
    </trkpt>
    <trkpt lat="38.504044991" lon="34.923542971">
      <ele>1600.317</ele>
      <time>2021-10-12T17:24:55Z</time>
    </trkpt>
    <trkpt lat="38.504040968" lon="34.923579013">
      <ele>1600.432</ele>
      <time>2021-10-12T17:24:56Z</time>
    </trkpt>
    <trkpt lat="38.504034011" lon="34.923617989">
      <ele>1600.51</ele>
      <time>2021-10-12T17:24:57Z</time>
    </trkpt>
    <trkpt lat="38.504022025" lon="34.923657971">
      <ele>1600.398</ele>
      <time>2021-10-12T17:24:58Z</time>
    </trkpt>
    <trkpt lat="38.504014984" lon="34.92369703">
      <ele>1600.314</ele>
      <time>2021-10-12T17:25:00Z</time>
    </trkpt>
    <trkpt lat="38.504004003" lon="34.923735">
      <ele>1600.23</ele>
      <time>2021-10-12T17:25:01Z</time>
    </trkpt>
    <trkpt lat="38.503997969" lon="34.923768025">
      <ele>1600.171</ele>
      <time>2021-10-12T17:25:02Z</time>
    </trkpt>
    <trkpt lat="38.503986988" lon="34.923800966">
      <ele>1600.112</ele>
      <time>2021-10-12T17:25:03Z</time>
    </trkpt>
    <trkpt lat="38.503976008" lon="34.92383399">
      <ele>1600.062</ele>
      <time>2021-10-12T17:25:04Z</time>
    </trkpt>
    <trkpt lat="38.503967961" lon="34.923862992">
      <ele>1600.027</ele>
      <time>2021-10-12T17:25:05Z</time>
    </trkpt>
    <trkpt lat="38.503954969" lon="34.923895011">
      <ele>1599.983</ele>
      <time>2021-10-12T17:25:06Z</time>
    </trkpt>
    <trkpt lat="38.503944995" lon="34.923928035">
      <ele>1599.888</ele>
      <time>2021-10-12T17:25:07Z</time>
    </trkpt>
    <trkpt lat="38.50393502" lon="34.923960976">
      <ele>1599.784</ele>
      <time>2021-10-12T17:25:08Z</time>
    </trkpt>
    <trkpt lat="38.503926974" lon="34.923989978">
      <ele>1599.686</ele>
      <time>2021-10-12T17:25:09Z</time>
    </trkpt>
    <trkpt lat="38.503919011" lon="34.924024008">
      <ele>1599.566</ele>
      <time>2021-10-12T17:25:10Z</time>
    </trkpt>
    <trkpt lat="38.503909037" lon="34.924058039">
      <ele>1599.435</ele>
      <time>2021-10-12T17:25:11Z</time>
    </trkpt>
    <trkpt lat="38.503887998" lon="34.924132973">
      <ele>1599.121</ele>
      <time>2021-10-12T17:25:13Z</time>
    </trkpt>
    <trkpt lat="38.503878023" lon="34.924165998">
      <ele>1599.002</ele>
      <time>2021-10-12T17:25:14Z</time>
    </trkpt>
    <trkpt lat="38.503867965" lon="34.924198017">
      <ele>1599.0</ele>
      <time>2021-10-12T17:25:15Z</time>
    </trkpt>
    <trkpt lat="38.503853967" lon="34.924230035">
      <ele>1599.0</ele>
      <time>2021-10-12T17:25:16Z</time>
    </trkpt>
    <trkpt lat="38.503842987" lon="34.924264988">
      <ele>1599.0</ele>
      <time>2021-10-12T17:25:17Z</time>
    </trkpt>
    <trkpt lat="38.503828989" lon="34.92430103">
      <ele>1599.0</ele>
      <time>2021-10-12T17:25:19Z</time>
    </trkpt>
    <trkpt lat="38.503819015" lon="34.924333971">
      <ele>1599.0</ele>
      <time>2021-10-12T17:25:20Z</time>
    </trkpt>
    <trkpt lat="38.503802" lon="34.924371019">
      <ele>1599.0</ele>
      <time>2021-10-12T17:25:21Z</time>
    </trkpt>
    <trkpt lat="38.503789008" lon="34.924405972">
      <ele>1599.0</ele>
      <time>2021-10-12T17:25:22Z</time>
    </trkpt>
    <trkpt lat="38.503779033" lon="34.92444302">
      <ele>1599.0</ele>
      <time>2021-10-12T17:25:23Z</time>
    </trkpt>
    <trkpt lat="38.503769981" lon="34.924479984">
      <ele>1599.0</ele>
      <time>2021-10-12T17:25:24Z</time>
    </trkpt>
    <trkpt lat="38.503756989" lon="34.924518038">
      <ele>1599.0</ele>
      <time>2021-10-12T17:25:25Z</time>
    </trkpt>
    <trkpt lat="38.503747014" lon="34.924553996">
      <ele>1599.0</ele>
      <time>2021-10-12T17:25:27Z</time>
    </trkpt>
    <trkpt lat="38.503735028" lon="34.924590038">
      <ele>1599.0</ele>
      <time>2021-10-12T17:25:28Z</time>
    </trkpt>
    <trkpt lat="38.503722036" lon="34.924628008">
      <ele>1599.0</ele>
      <time>2021-10-12T17:25:29Z</time>
    </trkpt>
    <trkpt lat="38.50370896" lon="34.924663967">
      <ele>1599.0</ele>
      <time>2021-10-12T17:25:30Z</time>
    </trkpt>
    <trkpt lat="38.503694963" lon="34.924695985">
      <ele>1599.0</ele>
      <time>2021-10-12T17:25:31Z</time>
    </trkpt>
    <trkpt lat="38.503680965" lon="34.92472901">
      <ele>1599.018</ele>
      <time>2021-10-12T17:25:32Z</time>
    </trkpt>
    <trkpt lat="38.503665961" lon="34.924764968">
      <ele>1599.123</ele>
      <time>2021-10-12T17:25:33Z</time>
    </trkpt>
    <trkpt lat="38.503653975" lon="34.924801011">
      <ele>1599.24</ele>
      <time>2021-10-12T17:25:34Z</time>
    </trkpt>
    <trkpt lat="38.503637966" lon="34.924834035">
      <ele>1599.364</ele>
      <time>2021-10-12T17:25:36Z</time>
    </trkpt>
    <trkpt lat="38.503621034" lon="34.924867982">
      <ele>1599.506</ele>
      <time>2021-10-12T17:25:37Z</time>
    </trkpt>
    <trkpt lat="38.503603013" lon="34.924900001">
      <ele>1599.65</ele>
      <time>2021-10-12T17:25:38Z</time>
    </trkpt>
    <trkpt lat="38.50358801" lon="34.924934031">
      <ele>1599.782</ele>
      <time>2021-10-12T17:25:39Z</time>
    </trkpt>
    <trkpt lat="38.503572" lon="34.92496999">
      <ele>1599.907</ele>
      <time>2021-10-12T17:25:40Z</time>
    </trkpt>
    <trkpt lat="38.503558002" lon="34.925007038">
      <ele>1600.0</ele>
      <time>2021-10-12T17:25:41Z</time>
    </trkpt>
    <trkpt lat="38.503541993" lon="34.925042996">
      <ele>1600.0</ele>
      <time>2021-10-12T17:25:43Z</time>
    </trkpt>
    <trkpt lat="38.503529001" lon="34.925079038">
      <ele>1600.0</ele>
      <time>2021-10-12T17:25:44Z</time>
    </trkpt>
    <trkpt lat="38.503513997" lon="34.925113991">
      <ele>1600.0</ele>
      <time>2021-10-12T17:25:45Z</time>
    </trkpt>
    <trkpt lat="38.503480973" lon="34.925175011">
      <ele>1600.0</ele>
      <time>2021-10-12T17:25:47Z</time>
    </trkpt>
    <trkpt lat="38.503466975" lon="34.925206024">
      <ele>1600.0</ele>
      <time>2021-10-12T17:25:48Z</time>
    </trkpt>
    <trkpt lat="38.50344996" lon="34.925237037">
      <ele>1600.0</ele>
      <time>2021-10-12T17:25:49Z</time>
    </trkpt>
    <trkpt lat="38.503429005" lon="34.925267966">
      <ele>1600.0</ele>
      <time>2021-10-12T17:25:50Z</time>
    </trkpt>
    <trkpt lat="38.50341199" lon="34.925297974">
      <ele>1600.0</ele>
      <time>2021-10-12T17:25:52Z</time>
    </trkpt>
    <trkpt lat="38.503391035" lon="34.925330998">
      <ele>1600.0</ele>
      <time>2021-10-12T17:25:53Z</time>
    </trkpt>
    <trkpt lat="38.503372008" lon="34.925361006">
      <ele>1600.0</ele>
      <time>2021-10-12T17:25:54Z</time>
    </trkpt>
    <trkpt lat="38.503349964" lon="34.92539403">
      <ele>1600.0</ele>
      <time>2021-10-12T17:25:55Z</time>
    </trkpt>
    <trkpt lat="38.503332026" lon="34.925424038">
      <ele>1599.988</ele>
      <time>2021-10-12T17:25:56Z</time>
    </trkpt>
    <trkpt lat="38.503316017" lon="34.925454967">
      <ele>1599.836</ele>
      <time>2021-10-12T17:25:57Z</time>
    </trkpt>
    <trkpt lat="38.503297996" lon="34.925492015">
      <ele>1599.647</ele>
      <time>2021-10-12T17:25:59Z</time>
    </trkpt>
    <trkpt lat="38.503281986" lon="34.925525961">
      <ele>1599.465</ele>
      <time>2021-10-12T17:26:00Z</time>
    </trkpt>
    <trkpt lat="38.503262959" lon="34.92555798">
      <ele>1599.236</ele>
      <time>2021-10-12T17:26:01Z</time>
    </trkpt>
    <trkpt lat="38.503245022" lon="34.925591005">
      <ele>1599.0</ele>
      <time>2021-10-12T17:26:02Z</time>
    </trkpt>
    <trkpt lat="38.503225995" lon="34.92562403">
      <ele>1598.785</ele>
      <time>2021-10-12T17:26:03Z</time>
    </trkpt>
    <trkpt lat="38.503207974" lon="34.925656971">
      <ele>1598.611</ele>
      <time>2021-10-12T17:26:04Z</time>
    </trkpt>
    <trkpt lat="38.503185008" lon="34.925692007">
      <ele>1598.431</ele>
      <time>2021-10-12T17:26:06Z</time>
    </trkpt>
    <trkpt lat="38.503163969" lon="34.92572302">
      <ele>1598.303</ele>
      <time>2021-10-12T17:26:07Z</time>
    </trkpt>
    <trkpt lat="38.50314402" lon="34.925753027">
      <ele>1598.214</ele>
      <time>2021-10-12T17:26:08Z</time>
    </trkpt>
    <trkpt lat="38.503128011" lon="34.925780017">
      <ele>1598.169</ele>
      <time>2021-10-12T17:26:09Z</time>
    </trkpt>
    <trkpt lat="38.503110996" lon="34.925812036">
      <ele>1598.154</ele>
      <time>2021-10-12T17:26:10Z</time>
    </trkpt>
    <trkpt lat="38.503091969" lon="34.925842965">
      <ele>1598.166</ele>
      <time>2021-10-12T17:26:11Z</time>
    </trkpt>
    <trkpt lat="38.503076965" lon="34.925872972">
      <ele>1598.22</ele>
      <time>2021-10-12T17:26:12Z</time>
    </trkpt>
    <trkpt lat="38.503061961" lon="34.925903985">
      <ele>1598.277</ele>
      <time>2021-10-12T17:26:13Z</time>
    </trkpt>
    <trkpt lat="38.503044024" lon="34.925933992">
      <ele>1598.377</ele>
      <time>2021-10-12T17:26:15Z</time>
    </trkpt>
    <trkpt lat="38.503027009" lon="34.925961988">
      <ele>1598.511</ele>
      <time>2021-10-12T17:26:16Z</time>
    </trkpt>
    <trkpt lat="38.503013011" lon="34.925991995">
      <ele>1598.659</ele>
      <time>2021-10-12T17:26:17Z</time>
    </trkpt>
    <trkpt lat="38.502998007" lon="34.926026026">
      <ele>1598.837</ele>
      <time>2021-10-12T17:26:18Z</time>
    </trkpt>
    <trkpt lat="38.502979986" lon="34.926059972">
      <ele>1599.038</ele>
      <time>2021-10-12T17:26:19Z</time>
    </trkpt>
    <trkpt lat="38.502962971" lon="34.92608998">
      <ele>1599.232</ele>
      <time>2021-10-12T17:26:20Z</time>
    </trkpt>
    <trkpt lat="38.502946962" lon="34.926119987">
      <ele>1599.455</ele>
      <time>2021-10-12T17:26:21Z</time>
    </trkpt>
    <trkpt lat="38.502929024" lon="34.926154017">
      <ele>1599.764</ele>
      <time>2021-10-12T17:26:22Z</time>
    </trkpt>
    <trkpt lat="38.502912009" lon="34.926186036">
      <ele>1600.056</ele>
      <time>2021-10-12T17:26:23Z</time>
    </trkpt>
    <trkpt lat="38.502899017" lon="34.926216966">
      <ele>1600.326</ele>
      <time>2021-10-12T17:26:24Z</time>
    </trkpt>
    <trkpt lat="38.502885019" lon="34.926244961">
      <ele>1600.578</ele>
      <time>2021-10-12T17:26:25Z</time>
    </trkpt>
    <trkpt lat="38.50286901" lon="34.926273962">
      <ele>1600.844</ele>
      <time>2021-10-12T17:26:26Z</time>
    </trkpt>
    <trkpt lat="38.502851995" lon="34.926304976">
      <ele>1601.129</ele>
      <time>2021-10-12T17:26:27Z</time>
    </trkpt>
    <trkpt lat="38.502834979" lon="34.926335989">
      <ele>1601.413</ele>
      <time>2021-10-12T17:26:29Z</time>
    </trkpt>
    <trkpt lat="38.502816958" lon="34.926365996">
      <ele>1601.694</ele>
      <time>2021-10-12T17:26:30Z</time>
    </trkpt>
    <trkpt lat="38.502798015" lon="34.926398015">
      <ele>1601.96</ele>
      <time>2021-10-12T17:26:31Z</time>
    </trkpt>
    <trkpt lat="38.502782006" lon="34.926427016">
      <ele>1602.122</ele>
      <time>2021-10-12T17:26:32Z</time>
    </trkpt>
    <trkpt lat="38.50277002" lon="34.926457023">
      <ele>1602.301</ele>
      <time>2021-10-12T17:26:33Z</time>
    </trkpt>
    <trkpt lat="38.502753004" lon="34.92648703">
      <ele>1602.532</ele>
      <time>2021-10-12T17:26:34Z</time>
    </trkpt>
    <trkpt lat="38.502735989" lon="34.92651796">
      <ele>1602.766</ele>
      <time>2021-10-12T17:26:35Z</time>
    </trkpt>
    <trkpt lat="38.50271998" lon="34.926546039">
      <ele>1602.982</ele>
      <time>2021-10-12T17:26:36Z</time>
    </trkpt>
    <trkpt lat="38.502701037" lon="34.926575962">
      <ele>1603.226</ele>
      <time>2021-10-12T17:26:37Z</time>
    </trkpt>
    <trkpt lat="38.502684021" lon="34.92660597">
      <ele>1603.457</ele>
      <time>2021-10-12T17:26:38Z</time>
    </trkpt>
    <trkpt lat="38.502668012" lon="34.926634971">
      <ele>1603.676</ele>
      <time>2021-10-12T17:26:39Z</time>
    </trkpt>
    <trkpt lat="38.502652002" lon="34.926662967">
      <ele>1603.892</ele>
      <time>2021-10-12T17:26:40Z</time>
    </trkpt>
    <trkpt lat="38.502633981" lon="34.926692974">
      <ele>1604.039</ele>
      <time>2021-10-12T17:26:41Z</time>
    </trkpt>
    <trkpt lat="38.502617972" lon="34.926724993">
      <ele>1604.182</ele>
      <time>2021-10-12T17:26:42Z</time>
    </trkpt>
    <trkpt lat="38.502601963" lon="34.926762041">
      <ele>1604.357</ele>
      <time>2021-10-12T17:26:44Z</time>
    </trkpt>
    <trkpt lat="38.502586037" lon="34.926801017">
      <ele>1604.565</ele>
      <time>2021-10-12T17:26:45Z</time>
    </trkpt>
    <trkpt lat="38.502570027" lon="34.926837981">
      <ele>1604.802</ele>
      <time>2021-10-12T17:26:46Z</time>
    </trkpt>
    <trkpt lat="38.502555024" lon="34.926876035">
      <ele>1605.059</ele>
      <time>2021-10-12T17:26:47Z</time>
    </trkpt>
    <trkpt lat="38.50254002" lon="34.926914005">
      <ele>1605.346</ele>
      <time>2021-10-12T17:26:49Z</time>
    </trkpt>
    <trkpt lat="38.502525017" lon="34.926949041">
      <ele>1605.593</ele>
      <time>2021-10-12T17:26:50Z</time>
    </trkpt>
    <trkpt lat="38.502513031" lon="34.926982988">
      <ele>1605.409</ele>
      <time>2021-10-12T17:26:51Z</time>
    </trkpt>
    <trkpt lat="38.502500039" lon="34.927020036">
      <ele>1605.183</ele>
      <time>2021-10-12T17:26:52Z</time>
    </trkpt>
    <trkpt lat="38.502490986" lon="34.927058006">
      <ele>1604.833</ele>
      <time>2021-10-12T17:26:53Z</time>
    </trkpt>
    <trkpt lat="38.502484029" lon="34.92709497">
      <ele>1604.494</ele>
      <time>2021-10-12T17:26:54Z</time>
    </trkpt>
    <trkpt lat="38.502471037" lon="34.927133024">
      <ele>1604.209</ele>
      <time>2021-10-12T17:26:56Z</time>
    </trkpt>
    <trkpt lat="38.502459973" lon="34.927173005">
      <ele>1603.913</ele>
      <time>2021-10-12T17:26:57Z</time>
    </trkpt>
    <trkpt lat="38.502445975" lon="34.92720997">
      <ele>1603.699</ele>
      <time>2021-10-12T17:26:58Z</time>
    </trkpt>
    <trkpt lat="38.502432983" lon="34.927249029">
      <ele>1603.507</ele>
      <time>2021-10-12T17:26:59Z</time>
    </trkpt>
    <trkpt lat="38.502422003" lon="34.927286999">
      <ele>1603.31</ele>
      <time>2021-10-12T17:27:00Z</time>
    </trkpt>
    <trkpt lat="38.502408005" lon="34.927328993">
      <ele>1603.097</ele>
      <time>2021-10-12T17:27:02Z</time>
    </trkpt>
    <trkpt lat="38.502386967" lon="34.927403005">
      <ele>1602.654</ele>
      <time>2021-10-12T17:27:04Z</time>
    </trkpt>
    <trkpt lat="38.502373975" lon="34.927441981">
      <ele>1602.42</ele>
      <time>2021-10-12T17:27:05Z</time>
    </trkpt>
    <trkpt lat="38.502357965" lon="34.927512975">
      <ele>1601.859</ele>
      <time>2021-10-12T17:27:07Z</time>
    </trkpt>
    <trkpt lat="38.502347991" lon="34.927552035">
      <ele>1601.43</ele>
      <time>2021-10-12T17:27:09Z</time>
    </trkpt>
    <trkpt lat="38.502334999" lon="34.927594028">
      <ele>1600.971</ele>
      <time>2021-10-12T17:27:10Z</time>
    </trkpt>
    <trkpt lat="38.502325024" lon="34.927635016">
      <ele>1600.495</ele>
      <time>2021-10-12T17:27:11Z</time>
    </trkpt>
    <trkpt lat="38.502313038" lon="34.927673992">
      <ele>1600.045</ele>
      <time>2021-10-12T17:27:12Z</time>
    </trkpt>
    <trkpt lat="38.502301974" lon="34.927713973">
      <ele>1599.566</ele>
      <time>2021-10-12T17:27:14Z</time>
    </trkpt>
    <trkpt lat="38.502290994" lon="34.927755967">
      <ele>1599.047</ele>
      <time>2021-10-12T17:27:15Z</time>
    </trkpt>
    <trkpt lat="38.502278002" lon="34.927800978">
      <ele>1598.632</ele>
      <time>2021-10-12T17:27:16Z</time>
    </trkpt>
    <trkpt lat="38.502266016" lon="34.927845988">
      <ele>1598.351</ele>
      <time>2021-10-12T17:27:18Z</time>
    </trkpt>
    <trkpt lat="38.50225403" lon="34.927894017">
      <ele>1598.049</ele>
      <time>2021-10-12T17:27:19Z</time>
    </trkpt>
    <trkpt lat="38.50223802" lon="34.927941039">
      <ele>1597.768</ele>
      <time>2021-10-12T17:27:21Z</time>
    </trkpt>
    <trkpt lat="38.502225028" lon="34.927984038">
      <ele>1597.505</ele>
      <time>2021-10-12T17:27:22Z</time>
    </trkpt>
    <trkpt lat="38.502211031" lon="34.92802402">
      <ele>1597.272</ele>
      <time>2021-10-12T17:27:23Z</time>
    </trkpt>
    <trkpt lat="38.502200972" lon="34.928059978">
      <ele>1597.059</ele>
      <time>2021-10-12T17:27:24Z</time>
    </trkpt>
    <trkpt lat="38.502186975" lon="34.92809996">
      <ele>1596.947</ele>
      <time>2021-10-12T17:27:26Z</time>
    </trkpt>
    <trkpt lat="38.502173983" lon="34.928138014">
      <ele>1596.825</ele>
      <time>2021-10-12T17:27:27Z</time>
    </trkpt>
    <trkpt lat="38.502163002" lon="34.928183025">
      <ele>1596.656</ele>
      <time>2021-10-12T17:27:28Z</time>
    </trkpt>
    <trkpt lat="38.502147999" lon="34.928228036">
      <ele>1596.48</ele>
      <time>2021-10-12T17:27:30Z</time>
    </trkpt>
    <trkpt lat="38.502136013" lon="34.928270029">
      <ele>1596.299</ele>
      <time>2021-10-12T17:27:31Z</time>
    </trkpt>
    <trkpt lat="38.502125032" lon="34.928312022">
      <ele>1596.104</ele>
      <time>2021-10-12T17:27:32Z</time>
    </trkpt>
    <trkpt lat="38.502113968" lon="34.928358961">
      <ele>1596.0</ele>
      <time>2021-10-12T17:27:34Z</time>
    </trkpt>
    <trkpt lat="38.502104999" lon="34.928400032">
      <ele>1596.0</ele>
      <time>2021-10-12T17:27:35Z</time>
    </trkpt>
    <trkpt lat="38.502093013" lon="34.928442026">
      <ele>1596.0</ele>
      <time>2021-10-12T17:27:36Z</time>
    </trkpt>
    <trkpt lat="38.502081027" lon="34.928483013">
      <ele>1596.0</ele>
      <time>2021-10-12T17:27:37Z</time>
    </trkpt>
    <trkpt lat="38.502069963" lon="34.928524001">
      <ele>1596.0</ele>
      <time>2021-10-12T17:27:39Z</time>
    </trkpt>
    <trkpt lat="38.502057977" lon="34.928565994">
      <ele>1596.0</ele>
      <time>2021-10-12T17:27:40Z</time>
    </trkpt>
    <trkpt lat="38.502044985" lon="34.928603964">
      <ele>1596.0</ele>
      <time>2021-10-12T17:27:41Z</time>
    </trkpt>
    <trkpt lat="38.502019001" lon="34.928679988">
      <ele>1595.752</ele>
      <time>2021-10-12T17:27:44Z</time>
    </trkpt>
    <trkpt lat="38.502003998" lon="34.928722987">
      <ele>1595.597</ele>
      <time>2021-10-12T17:27:45Z</time>
    </trkpt>
    <trkpt lat="38.50199" lon="34.928770009">
      <ele>1595.428</ele>
      <time>2021-10-12T17:27:46Z</time>
    </trkpt>
    <trkpt lat="38.501979019" lon="34.928813009">
      <ele>1595.273</ele>
      <time>2021-10-12T17:27:48Z</time>
    </trkpt>
    <trkpt lat="38.501970973" lon="34.928853996">
      <ele>1595.126</ele>
      <time>2021-10-12T17:27:49Z</time>
    </trkpt>
    <trkpt lat="38.501955969" lon="34.928936977">
      <ele>1594.82</ele>
      <time>2021-10-12T17:27:51Z</time>
    </trkpt>
    <trkpt lat="38.501948006" lon="34.928979976">
      <ele>1594.668</ele>
      <time>2021-10-12T17:27:53Z</time>
    </trkpt>
    <trkpt lat="38.501945995" lon="34.929026999">
      <ele>1594.5</ele>
      <time>2021-10-12T17:27:54Z</time>
    </trkpt>
    <trkpt lat="38.501940966" lon="34.929071004">
      <ele>1594.365</ele>
      <time>2021-10-12T17:27:55Z</time>
    </trkpt>
    <trkpt lat="38.501935015" lon="34.929116014">
      <ele>1594.244</ele>
      <time>2021-10-12T17:27:57Z</time>
    </trkpt>
    <trkpt lat="38.501926968" lon="34.929162031">
      <ele>1594.141</ele>
      <time>2021-10-12T17:27:58Z</time>
    </trkpt>
    <trkpt lat="38.501923028" lon="34.929207042">
      <ele>1594.009</ele>
      <time>2021-10-12T17:27:59Z</time>
    </trkpt>
    <trkpt lat="38.501917999" lon="34.929247024">
      <ele>1593.901</ele>
      <time>2021-10-12T17:28:01Z</time>
    </trkpt>
    <trkpt lat="38.501908025" lon="34.929292034">
      <ele>1593.811</ele>
      <time>2021-10-12T17:28:02Z</time>
    </trkpt>
    <trkpt lat="38.501902996" lon="34.929336961">
      <ele>1593.685</ele>
      <time>2021-10-12T17:28:03Z</time>
    </trkpt>
    <trkpt lat="38.501896039" lon="34.929381972">
      <ele>1593.573</ele>
      <time>2021-10-12T17:28:05Z</time>
    </trkpt>
    <trkpt lat="38.501890004" lon="34.929424971">
      <ele>1593.462</ele>
      <time>2021-10-12T17:28:06Z</time>
    </trkpt>
    <trkpt lat="38.501884975" lon="34.929470988">
      <ele>1593.353</ele>
      <time>2021-10-12T17:28:07Z</time>
    </trkpt>
    <trkpt lat="38.501880029" lon="34.92951801">
      <ele>1593.26</ele>
      <time>2021-10-12T17:28:09Z</time>
    </trkpt>
    <trkpt lat="38.501879023" lon="34.92955598">
      <ele>1593.164</ele>
      <time>2021-10-12T17:28:10Z</time>
    </trkpt>
    <trkpt lat="38.501876006" lon="34.929594034">
      <ele>1593.087</ele>
      <time>2021-10-12T17:28:11Z</time>
    </trkpt>
    <trkpt lat="38.501870977" lon="34.929632004">
      <ele>1593.032</ele>
      <time>2021-10-12T17:28:12Z</time>
    </trkpt>
    <trkpt lat="38.501867037" lon="34.929673998">
      <ele>1592.961</ele>
      <time>2021-10-12T17:28:13Z</time>
    </trkpt>
    <trkpt lat="38.501861002" lon="34.929714985">
      <ele>1592.919</ele>
      <time>2021-10-12T17:28:14Z</time>
    </trkpt>
    <trkpt lat="38.501854967" lon="34.929752033">
      <ele>1592.932</ele>
      <time>2021-10-12T17:28:15Z</time>
    </trkpt>
    <trkpt lat="38.50184801" lon="34.929792015">
      <ele>1592.954</ele>
      <time>2021-10-12T17:28:17Z</time>
    </trkpt>
    <trkpt lat="38.501839964" lon="34.929835014">
      <ele>1592.976</ele>
      <time>2021-10-12T17:28:18Z</time>
    </trkpt>
    <trkpt lat="38.501835018" lon="34.929874996">
      <ele>1592.965</ele>
      <time>2021-10-12T17:28:19Z</time>
    </trkpt>
    <trkpt lat="38.501830995" lon="34.929915983">
      <ele>1592.94</ele>
      <time>2021-10-12T17:28:20Z</time>
    </trkpt>
    <trkpt lat="38.501821021" lon="34.929959988">
      <ele>1592.953</ele>
      <time>2021-10-12T17:28:22Z</time>
    </trkpt>
    <trkpt lat="38.501816997" lon="34.930001982">
      <ele>1592.903</ele>
      <time>2021-10-12T17:28:23Z</time>
    </trkpt>
    <trkpt lat="38.501811968" lon="34.930041963">
      <ele>1592.652</ele>
      <time>2021-10-12T17:28:24Z</time>
    </trkpt>
    <trkpt lat="38.501805011" lon="34.93008404">
      <ele>1592.399</ele>
      <time>2021-10-12T17:28:25Z</time>
    </trkpt>
    <trkpt lat="38.501798976" lon="34.930123016">
      <ele>1592.162</ele>
      <time>2021-10-12T17:28:26Z</time>
    </trkpt>
    <trkpt lat="38.501792019" lon="34.930166015">
      <ele>1591.902</ele>
      <time>2021-10-12T17:28:28Z</time>
    </trkpt>
    <trkpt lat="38.50178699" lon="34.930207003">
      <ele>1591.643</ele>
      <time>2021-10-12T17:28:29Z</time>
    </trkpt>
    <trkpt lat="38.501781039" lon="34.930246985">
      <ele>1591.398</ele>
      <time>2021-10-12T17:28:30Z</time>
    </trkpt>
    <trkpt lat="38.501773998" lon="34.930288978">
      <ele>1591.122</ele>
      <time>2021-10-12T17:28:31Z</time>
    </trkpt>
    <trkpt lat="38.501768969" lon="34.930331977">
      <ele>1590.75</ele>
      <time>2021-10-12T17:28:33Z</time>
    </trkpt>
    <trkpt lat="38.50176503" lon="34.930375982">
      <ele>1590.356</ele>
      <time>2021-10-12T17:28:34Z</time>
    </trkpt>
    <trkpt lat="38.501762012" lon="34.930415042">
      <ele>1590.001</ele>
      <time>2021-10-12T17:28:35Z</time>
    </trkpt>
    <trkpt lat="38.501756983" lon="34.930453012">
      <ele>1589.662</ele>
      <time>2021-10-12T17:28:36Z</time>
    </trkpt>
    <trkpt lat="38.50175296" lon="34.930489976">
      <ele>1589.324</ele>
      <time>2021-10-12T17:28:37Z</time>
    </trkpt>
    <trkpt lat="38.501748014" lon="34.930530963">
      <ele>1588.947</ele>
      <time>2021-10-12T17:28:38Z</time>
    </trkpt>
    <trkpt lat="38.501741979" lon="34.930571029">
      <ele>1588.617</ele>
      <time>2021-10-12T17:28:40Z</time>
    </trkpt>
    <trkpt lat="38.50173804" lon="34.930610005">
      <ele>1588.351</ele>
      <time>2021-10-12T17:28:41Z</time>
    </trkpt>
    <trkpt lat="38.501735022" lon="34.930650992">
      <ele>1588.067</ele>
      <time>2021-10-12T17:28:42Z</time>
    </trkpt>
    <trkpt lat="38.501729993" lon="34.93069198">
      <ele>1587.79</ele>
      <time>2021-10-12T17:28:43Z</time>
    </trkpt>
    <trkpt lat="38.501723036" lon="34.930732967">
      <ele>1587.52</ele>
      <time>2021-10-12T17:28:44Z</time>
    </trkpt>
    <trkpt lat="38.50171499" lon="34.930774039">
      <ele>1587.253</ele>
      <time>2021-10-12T17:28:46Z</time>
    </trkpt>
    <trkpt lat="38.501709038" lon="34.930817038">
      <ele>1586.965</ele>
      <time>2021-10-12T17:28:47Z</time>
    </trkpt>
    <trkpt lat="38.501704009" lon="34.930862971">
      <ele>1586.866</ele>
      <time>2021-10-12T17:28:48Z</time>
    </trkpt>
    <trkpt lat="38.501696968" lon="34.930903958">
      <ele>1586.891</ele>
      <time>2021-10-12T17:28:49Z</time>
    </trkpt>
    <trkpt lat="38.501690011" lon="34.930946035">
      <ele>1586.916</ele>
      <time>2021-10-12T17:28:51Z</time>
    </trkpt>
    <trkpt lat="38.501689006" lon="34.930980988">
      <ele>1586.92</ele>
      <time>2021-10-12T17:28:52Z</time>
    </trkpt>
    <trkpt lat="38.501686994" lon="34.93102097">
      <ele>1586.927</ele>
      <time>2021-10-12T17:28:53Z</time>
    </trkpt>
    <trkpt lat="38.501682971" lon="34.931064975">
      <ele>1586.941</ele>
      <time>2021-10-12T17:28:54Z</time>
    </trkpt>
    <trkpt lat="38.501681965" lon="34.931106968">
      <ele>1586.945</ele>
      <time>2021-10-12T17:28:55Z</time>
    </trkpt>
    <trkpt lat="38.501681965" lon="34.931147033">
      <ele>1586.816</ele>
      <time>2021-10-12T17:28:57Z</time>
    </trkpt>
    <trkpt lat="38.501680037" lon="34.931190033">
      <ele>1586.668</ele>
      <time>2021-10-12T17:28:58Z</time>
    </trkpt>
    <trkpt lat="38.501682971" lon="34.931233032">
      <ele>1586.502</ele>
      <time>2021-10-12T17:28:59Z</time>
    </trkpt>
    <trkpt lat="38.501686994" lon="34.931277037">
      <ele>1586.329</ele>
      <time>2021-10-12T17:29:00Z</time>
    </trkpt>
    <trkpt lat="38.501691017" lon="34.931364963">
      <ele>1585.998</ele>
      <time>2021-10-12T17:29:03Z</time>
    </trkpt>
    <trkpt lat="38.501692023" lon="34.931413997">
      <ele>1585.646</ele>
      <time>2021-10-12T17:29:04Z</time>
    </trkpt>
    <trkpt lat="38.501684982" lon="34.931460014">
      <ele>1585.183</ele>
      <time>2021-10-12T17:29:06Z</time>
    </trkpt>
    <trkpt lat="38.501675008" lon="34.931501001">
      <ele>1584.771</ele>
      <time>2021-10-12T17:29:07Z</time>
    </trkpt>
    <trkpt lat="38.501666961" lon="34.931546012">
      <ele>1584.303</ele>
      <time>2021-10-12T17:29:08Z</time>
    </trkpt>
    <trkpt lat="38.501663022" lon="34.931591023">
      <ele>1583.827</ele>
      <time>2021-10-12T17:29:10Z</time>
    </trkpt>
    <trkpt lat="38.501658998" lon="34.931634022">
      <ele>1583.377</ele>
      <time>2021-10-12T17:29:11Z</time>
    </trkpt>
    <trkpt lat="38.501647012" lon="34.931674004">
      <ele>1582.967</ele>
      <time>2021-10-12T17:29:12Z</time>
    </trkpt>
    <trkpt lat="38.50163402" lon="34.931713985">
      <ele>1582.456</ele>
      <time>2021-10-12T17:29:13Z</time>
    </trkpt>
    <trkpt lat="38.501618011" lon="34.931754973">
      <ele>1581.959</ele>
      <time>2021-10-12T17:29:15Z</time>
    </trkpt>
    <trkpt lat="38.501603007" lon="34.931794032">
      <ele>1581.5</ele>
      <time>2021-10-12T17:29:16Z</time>
    </trkpt>
    <trkpt lat="38.501588004" lon="34.931833008">
      <ele>1581.057</ele>
      <time>2021-10-12T17:29:17Z</time>
    </trkpt>
    <trkpt lat="38.501574006" lon="34.931870978">
      <ele>1580.637</ele>
      <time>2021-10-12T17:29:18Z</time>
    </trkpt>
    <trkpt lat="38.501557996" lon="34.931910038">
      <ele>1580.229</ele>
      <time>2021-10-12T17:29:20Z</time>
    </trkpt>
    <trkpt lat="38.501539975" lon="34.931948008">
      <ele>1579.874</ele>
      <time>2021-10-12T17:29:21Z</time>
    </trkpt>
    <trkpt lat="38.501522038" lon="34.93198799">
      <ele>1579.571</ele>
      <time>2021-10-12T17:29:22Z</time>
    </trkpt>
    <trkpt lat="38.501509968" lon="34.932023026">
      <ele>1579.28</ele>
      <time>2021-10-12T17:29:24Z</time>
    </trkpt>
    <trkpt lat="38.501493959" lon="34.932062002">
      <ele>1578.974</ele>
      <time>2021-10-12T17:29:25Z</time>
    </trkpt>
    <trkpt lat="38.501479039" lon="34.932103995">
      <ele>1578.628</ele>
      <time>2021-10-12T17:29:26Z</time>
    </trkpt>
    <trkpt lat="38.501465041" lon="34.932140959">
      <ele>1578.329</ele>
      <time>2021-10-12T17:29:27Z</time>
    </trkpt>
    <trkpt lat="38.501450038" lon="34.932181025">
      <ele>1578.005</ele>
      <time>2021-10-12T17:29:29Z</time>
    </trkpt>
    <trkpt lat="38.501410978" lon="34.932254031">
      <ele>1577.621</ele>
      <time>2021-10-12T17:29:31Z</time>
    </trkpt>
    <trkpt lat="38.501393963" lon="34.932286972">
      <ele>1577.502</ele>
      <time>2021-10-12T17:29:32Z</time>
    </trkpt>
    <trkpt lat="38.501378037" lon="34.932322009">
      <ele>1577.463</ele>
      <time>2021-10-12T17:29:34Z</time>
    </trkpt>
    <trkpt lat="38.501361022" lon="34.932357967">
      <ele>1577.475</ele>
      <time>2021-10-12T17:29:35Z</time>
    </trkpt>
    <trkpt lat="38.501340989" lon="34.932393003">
      <ele>1577.527</ele>
      <time>2021-10-12T17:29:36Z</time>
    </trkpt>
    <trkpt lat="38.501325985" lon="34.93242301">
      <ele>1577.523</ele>
      <time>2021-10-12T17:29:37Z</time>
    </trkpt>
    <trkpt lat="38.501304025" lon="34.932458969">
      <ele>1577.563</ele>
      <time>2021-10-12T17:29:38Z</time>
    </trkpt>
    <trkpt lat="38.501283992" lon="34.932496017">
      <ele>1577.545</ele>
      <time>2021-10-12T17:29:40Z</time>
    </trkpt>
    <trkpt lat="38.501264965" lon="34.932531975">
      <ele>1577.503</ele>
      <time>2021-10-12T17:29:41Z</time>
    </trkpt>
    <trkpt lat="38.501248034" lon="34.932569023">
      <ele>1577.405</ele>
      <time>2021-10-12T17:29:42Z</time>
    </trkpt>
    <trkpt lat="38.501235042" lon="34.932601964">
      <ele>1577.278</ele>
      <time>2021-10-12T17:29:43Z</time>
    </trkpt>
    <trkpt lat="38.501221966" lon="34.932633983">
      <ele>1577.149</ele>
      <time>2021-10-12T17:29:44Z</time>
    </trkpt>
    <trkpt lat="38.501207968" lon="34.932666002">
      <ele>1577.021</ele>
      <time>2021-10-12T17:29:45Z</time>
    </trkpt>
    <trkpt lat="38.501189025" lon="34.932699027">
      <ele>1576.93</ele>
      <time>2021-10-12T17:29:47Z</time>
    </trkpt>
    <trkpt lat="38.50117201" lon="34.932731967">
      <ele>1576.801</ele>
      <time>2021-10-12T17:29:48Z</time>
    </trkpt>
    <trkpt lat="38.501160024" lon="34.93276801">
      <ele>1576.571</ele>
      <time>2021-10-12T17:29:49Z</time>
    </trkpt>
    <trkpt lat="38.50114896" lon="34.932803968">
      <ele>1576.158</ele>
      <time>2021-10-12T17:29:50Z</time>
    </trkpt>
    <trkpt lat="38.501135968" lon="34.932842022">
      <ele>1575.637</ele>
      <time>2021-10-12T17:29:51Z</time>
    </trkpt>
    <trkpt lat="38.501088023" lon="34.932960039">
      <ele>1574.023</ele>
      <time>2021-10-12T17:29:55Z</time>
    </trkpt>
    <trkpt lat="38.501032032" lon="34.93307001">
      <ele>1572.931</ele>
      <time>2021-10-12T17:29:59Z</time>
    </trkpt>
    <trkpt lat="38.500967994" lon="34.933166988">
      <ele>1572.456</ele>
      <time>2021-10-12T17:30:03Z</time>
    </trkpt>
    <trkpt lat="38.500944022" lon="34.933201019">
      <ele>1572.311</ele>
      <time>2021-10-12T17:30:04Z</time>
    </trkpt>
    <trkpt lat="38.500922984" lon="34.933234965">
      <ele>1572.126</ele>
      <time>2021-10-12T17:30:05Z</time>
    </trkpt>
    <trkpt lat="38.500898005" lon="34.933266984">
      <ele>1572.024</ele>
      <time>2021-10-12T17:30:06Z</time>
    </trkpt>
    <trkpt lat="38.500875961" lon="34.933297997">
      <ele>1571.895</ele>
      <time>2021-10-12T17:30:08Z</time>
    </trkpt>
    <trkpt lat="38.500854" lon="34.933331022">
      <ele>1571.736</ele>
      <time>2021-10-12T17:30:09Z</time>
    </trkpt>
    <trkpt lat="38.500834974" lon="34.933363041">
      <ele>1571.657</ele>
      <time>2021-10-12T17:30:10Z</time>
    </trkpt>
    <trkpt lat="38.500812007" lon="34.933398999">
      <ele>1571.638</ele>
      <time>2021-10-12T17:30:11Z</time>
    </trkpt>
    <trkpt lat="38.500793986" lon="34.93343303">
      <ele>1571.53</ele>
      <time>2021-10-12T17:30:13Z</time>
    </trkpt>
    <trkpt lat="38.500778982" lon="34.933469994">
      <ele>1571.31</ele>
      <time>2021-10-12T17:30:14Z</time>
    </trkpt>
    <trkpt lat="38.500762973" lon="34.933510982">
      <ele>1571.024</ele>
      <time>2021-10-12T17:30:15Z</time>
    </trkpt>
    <trkpt lat="38.500750987" lon="34.933550963">
      <ele>1570.667</ele>
      <time>2021-10-12T17:30:16Z</time>
    </trkpt>
    <trkpt lat="38.50073196" lon="34.933594968">
      <ele>1570.312</ele>
      <time>2021-10-12T17:30:18Z</time>
    </trkpt>
    <trkpt lat="38.500721985" lon="34.933632016">
      <ele>1569.886</ele>
      <time>2021-10-12T17:30:19Z</time>
    </trkpt>
    <trkpt lat="38.500711005" lon="34.933671998">
      <ele>1569.374</ele>
      <time>2021-10-12T17:30:20Z</time>
    </trkpt>
    <trkpt lat="38.500696002" lon="34.933708962">
      <ele>1568.904</ele>
      <time>2021-10-12T17:30:21Z</time>
    </trkpt>
    <trkpt lat="38.500680998" lon="34.933745004">
      <ele>1568.406</ele>
      <time>2021-10-12T17:30:23Z</time>
    </trkpt>
    <trkpt lat="38.500667" lon="34.93378398">
      <ele>1567.811</ele>
      <time>2021-10-12T17:30:24Z</time>
    </trkpt>
    <trkpt lat="38.500654008" lon="34.933821028">
      <ele>1567.206</ele>
      <time>2021-10-12T17:30:25Z</time>
    </trkpt>
    <trkpt lat="38.500636993" lon="34.933857992">
      <ele>1566.57</ele>
      <time>2021-10-12T17:30:26Z</time>
    </trkpt>
    <trkpt lat="38.500620984" lon="34.933894034">
      <ele>1565.92</ele>
      <time>2021-10-12T17:30:27Z</time>
    </trkpt>
    <trkpt lat="38.500604974" lon="34.93392597">
      <ele>1565.404</ele>
      <time>2021-10-12T17:30:29Z</time>
    </trkpt>
    <trkpt lat="38.500586031" lon="34.93396">
      <ele>1564.804</ele>
      <time>2021-10-12T17:30:30Z</time>
    </trkpt>
    <trkpt lat="38.500564992" lon="34.933995036">
      <ele>1564.128</ele>
      <time>2021-10-12T17:30:31Z</time>
    </trkpt>
    <trkpt lat="38.500510007" lon="34.934087992">
      <ele>1562.837</ele>
      <time>2021-10-12T17:30:34Z</time>
    </trkpt>
    <trkpt lat="38.500467008" lon="34.934152029">
      <ele>1561.935</ele>
      <time>2021-10-12T17:30:37Z</time>
    </trkpt>
    <trkpt lat="38.500445969" lon="34.93418497">
      <ele>1561.579</ele>
      <time>2021-10-12T17:30:38Z</time>
    </trkpt>
    <trkpt lat="38.500424009" lon="34.934215983">
      <ele>1561.34</ele>
      <time>2021-10-12T17:30:39Z</time>
    </trkpt>
    <trkpt lat="38.500401964" lon="34.934244985">
      <ele>1561.074</ele>
      <time>2021-10-12T17:30:41Z</time>
    </trkpt>
    <trkpt lat="38.500378998" lon="34.934275998">
      <ele>1560.734</ele>
      <time>2021-10-12T17:30:42Z</time>
    </trkpt>
    <trkpt lat="38.500356032" lon="34.934303993">
      <ele>1560.383</ele>
      <time>2021-10-12T17:30:43Z</time>
    </trkpt>
    <trkpt lat="38.500331976" lon="34.934334001">
      <ele>1559.95</ele>
      <time>2021-10-12T17:30:44Z</time>
    </trkpt>
    <trkpt lat="38.500308003" lon="34.934357973">
      <ele>1559.564</ele>
      <time>2021-10-12T17:30:45Z</time>
    </trkpt>
    <trkpt lat="38.500280008" lon="34.934382029">
      <ele>1559.126</ele>
      <time>2021-10-12T17:30:47Z</time>
    </trkpt>
    <trkpt lat="38.500253018" lon="34.934410024">
      <ele>1558.731</ele>
      <time>2021-10-12T17:30:48Z</time>
    </trkpt>
    <trkpt lat="38.500230974" lon="34.934437014">
      <ele>1558.311</ele>
      <time>2021-10-12T17:30:49Z</time>
    </trkpt>
    <trkpt lat="38.500209013" lon="34.934460986">
      <ele>1558.218</ele>
      <time>2021-10-12T17:30:50Z</time>
    </trkpt>
    <trkpt lat="38.500184035" lon="34.934487976">
      <ele>1558.232</ele>
      <time>2021-10-12T17:30:51Z</time>
    </trkpt>
    <trkpt lat="38.500159979" lon="34.934511026">
      <ele>1558.221</ele>
      <time>2021-10-12T17:30:52Z</time>
    </trkpt>
    <trkpt lat="38.500129972" lon="34.934534999">
      <ele>1558.185</ele>
      <time>2021-10-12T17:30:54Z</time>
    </trkpt>
    <trkpt lat="38.500096025" lon="34.934557965">
      <ele>1558.12</ele>
      <time>2021-10-12T17:30:55Z</time>
    </trkpt>
    <trkpt lat="38.500064006" lon="34.93457498">
      <ele>1558.046</ele>
      <time>2021-10-12T17:30:56Z</time>
    </trkpt>
    <trkpt lat="38.50002503" lon="34.934588978">
      <ele>1557.963</ele>
      <time>2021-10-12T17:30:58Z</time>
    </trkpt>
    <trkpt lat="38.499994017" lon="34.934604988">
      <ele>1557.853</ele>
      <time>2021-10-12T17:30:59Z</time>
    </trkpt>
    <trkpt lat="38.499960992" lon="34.934624014">
      <ele>1557.757</ele>
      <time>2021-10-12T17:31:00Z</time>
    </trkpt>
    <trkpt lat="38.499927968" lon="34.934643041">
      <ele>1557.644</ele>
      <time>2021-10-12T17:31:02Z</time>
    </trkpt>
    <trkpt lat="38.499897039" lon="34.934657961">
      <ele>1557.548</ele>
      <time>2021-10-12T17:31:03Z</time>
    </trkpt>
    <trkpt lat="38.499862002" lon="34.934672965">
      <ele>1557.443</ele>
      <time>2021-10-12T17:31:04Z</time>
    </trkpt>
    <trkpt lat="38.499826966" lon="34.934683023">
      <ele>1557.37</ele>
      <time>2021-10-12T17:31:06Z</time>
    </trkpt>
    <trkpt lat="38.499795031" lon="34.934691992">
      <ele>1557.298</ele>
      <time>2021-10-12T17:31:07Z</time>
    </trkpt>
    <trkpt lat="38.499762006" lon="34.934698027">
      <ele>1557.249</ele>
      <time>2021-10-12T17:31:08Z</time>
    </trkpt>
    <trkpt lat="38.499728981" lon="34.934701966">
      <ele>1557.217</ele>
      <time>2021-10-12T17:31:09Z</time>
    </trkpt>
    <trkpt lat="38.499696963" lon="34.934706995">
      <ele>1556.816</ele>
      <time>2021-10-12T17:31:11Z</time>
    </trkpt>
    <trkpt lat="38.499665027" lon="34.934714036">
      <ele>1556.283</ele>
      <time>2021-10-12T17:31:12Z</time>
    </trkpt>
    <trkpt lat="38.499633009" lon="34.93471697">
      <ele>1555.79</ele>
      <time>2021-10-12T17:31:13Z</time>
    </trkpt>
    <trkpt lat="38.499598978" lon="34.934721999">
      <ele>1555.229</ele>
      <time>2021-10-12T17:31:14Z</time>
    </trkpt>
    <trkpt lat="38.499565031" lon="34.93472904">
      <ele>1554.81</ele>
      <time>2021-10-12T17:31:16Z</time>
    </trkpt>
    <trkpt lat="38.499533013" lon="34.934733985">
      <ele>1554.402</ele>
      <time>2021-10-12T17:31:17Z</time>
    </trkpt>
    <trkpt lat="38.499500994" lon="34.934741026">
      <ele>1554.017</ele>
      <time>2021-10-12T17:31:18Z</time>
    </trkpt>
    <trkpt lat="38.499468975" lon="34.934747983">
      <ele>1553.631</ele>
      <time>2021-10-12T17:31:19Z</time>
    </trkpt>
    <trkpt lat="38.499411978" lon="34.934769021">
      <ele>1553.331</ele>
      <time>2021-10-12T17:31:21Z</time>
    </trkpt>
    <trkpt lat="38.499381971" lon="34.934781007">
      <ele>1553.328</ele>
      <time>2021-10-12T17:31:22Z</time>
    </trkpt>
    <trkpt lat="38.499355987" lon="34.934795005">
      <ele>1553.399</ele>
      <time>2021-10-12T17:31:24Z</time>
    </trkpt>
    <trkpt lat="38.499330003" lon="34.934811015">
      <ele>1553.53</ele>
      <time>2021-10-12T17:31:25Z</time>
    </trkpt>
    <trkpt lat="38.499303013" lon="34.934831969">
      <ele>1553.77</ele>
      <time>2021-10-12T17:31:26Z</time>
    </trkpt>
    <trkpt lat="38.499277029" lon="34.934844039">
      <ele>1553.903</ele>
      <time>2021-10-12T17:31:27Z</time>
    </trkpt>
    <trkpt lat="38.499247022" lon="34.934857031">
      <ele>1554.069</ele>
      <time>2021-10-12T17:31:28Z</time>
    </trkpt>
    <trkpt lat="38.499217015" lon="34.934860971">
      <ele>1554.088</ele>
      <time>2021-10-12T17:31:29Z</time>
    </trkpt>
    <trkpt lat="38.49918399" lon="34.934859965">
      <ele>1554.007</ele>
      <time>2021-10-12T17:31:30Z</time>
    </trkpt>
    <trkpt lat="38.499151971" lon="34.934857031">
      <ele>1553.962</ele>
      <time>2021-10-12T17:31:31Z</time>
    </trkpt>
    <trkpt lat="38.499120036" lon="34.934853008">
      <ele>1553.973</ele>
      <time>2021-10-12T17:31:33Z</time>
    </trkpt>
    <trkpt lat="38.499083994" lon="34.934850996">
      <ele>1554.036</ele>
      <time>2021-10-12T17:31:34Z</time>
    </trkpt>
    <trkpt lat="38.499054993" lon="34.934836999">
      <ele>1553.742</ele>
      <time>2021-10-12T17:31:35Z</time>
    </trkpt>
    <trkpt lat="38.499024985" lon="34.934824007">
      <ele>1553.436</ele>
      <time>2021-10-12T17:31:36Z</time>
    </trkpt>
    <trkpt lat="38.498992966" lon="34.934809003">
      <ele>1553.031</ele>
      <time>2021-10-12T17:31:38Z</time>
    </trkpt>
    <trkpt lat="38.498962959" lon="34.934791988">
      <ele>1552.51</ele>
      <time>2021-10-12T17:31:39Z</time>
    </trkpt>
    <trkpt lat="38.498933036" lon="34.934772961">
      <ele>1551.869</ele>
      <time>2021-10-12T17:31:40Z</time>
    </trkpt>
    <trkpt lat="38.498905962" lon="34.934754018">
      <ele>1551.178</ele>
      <time>2021-10-12T17:31:41Z</time>
    </trkpt>
    <trkpt lat="38.498821976" lon="34.93470096">
      <ele>1549.62</ele>
      <time>2021-10-12T17:31:45Z</time>
    </trkpt>
    <trkpt lat="38.498798003" lon="34.934696015">
      <ele>1549.499</ele>
      <time>2021-10-12T17:31:46Z</time>
    </trkpt>
    <trkpt lat="38.498775037" lon="34.934679">
      <ele>1549.122</ele>
      <time>2021-10-12T17:31:47Z</time>
    </trkpt>
    <trkpt lat="38.498750981" lon="34.934666008">
      <ele>1548.789</ele>
      <time>2021-10-12T17:31:48Z</time>
    </trkpt>
    <trkpt lat="38.498720974" lon="34.934646981">
      <ele>1548.262</ele>
      <time>2021-10-12T17:31:49Z</time>
    </trkpt>
    <trkpt lat="38.498692978" lon="34.934631977">
      <ele>1547.784</ele>
      <time>2021-10-12T17:31:50Z</time>
    </trkpt>
    <trkpt lat="38.498665988" lon="34.934618985">
      <ele>1547.32</ele>
      <time>2021-10-12T17:31:51Z</time>
    </trkpt>
    <trkpt lat="38.49864101" lon="34.93460197">
      <ele>1546.723</ele>
      <time>2021-10-12T17:31:52Z</time>
    </trkpt>
    <trkpt lat="38.498593988" lon="34.934561988">
      <ele>1545.402</ele>
      <time>2021-10-12T17:31:54Z</time>
    </trkpt>
    <trkpt lat="38.498563981" lon="34.934542039">
      <ele>1544.82</ele>
      <time>2021-10-12T17:31:55Z</time>
    </trkpt>
    <trkpt lat="38.498533973" lon="34.93452603">
      <ele>1544.317</ele>
      <time>2021-10-12T17:31:57Z</time>
    </trkpt>
    <trkpt lat="38.49843096" lon="34.934464004">
      <ele>1542.052</ele>
      <time>2021-10-12T17:32:01Z</time>
    </trkpt>
    <trkpt lat="38.498333981" lon="34.934421005">
      <ele>1540.581</ele>
      <time>2021-10-12T17:32:05Z</time>
    </trkpt>
    <trkpt lat="38.498297017" lon="34.934404995">
      <ele>1540.328</ele>
      <time>2021-10-12T17:32:06Z</time>
    </trkpt>
    <trkpt lat="38.498260975" lon="34.934401978">
      <ele>1540.297</ele>
      <time>2021-10-12T17:32:07Z</time>
    </trkpt>
    <trkpt lat="38.498228034" lon="34.934398038">
      <ele>1540.227</ele>
      <time>2021-10-12T17:32:09Z</time>
    </trkpt>
    <trkpt lat="38.498192998" lon="34.93439896">
      <ele>1540.273</ele>
      <time>2021-10-12T17:32:10Z</time>
    </trkpt>
    <trkpt lat="38.498161985" lon="34.934399966">
      <ele>1540.322</ele>
      <time>2021-10-12T17:32:11Z</time>
    </trkpt>
    <trkpt lat="38.498132983" lon="34.934394015">
      <ele>1540.159</ele>
      <time>2021-10-12T17:32:12Z</time>
    </trkpt>
    <trkpt lat="38.498103982" lon="34.934397032">
      <ele>1540.268</ele>
      <time>2021-10-12T17:32:13Z</time>
    </trkpt>
    <trkpt lat="38.49800298" lon="34.934404995">
      <ele>1539.714</ele>
      <time>2021-10-12T17:32:17Z</time>
    </trkpt>
    <trkpt lat="38.49789896" lon="34.934419999">
      <ele>1538.45</ele>
      <time>2021-10-12T17:32:21Z</time>
    </trkpt>
    <trkpt lat="38.497828972" lon="34.934422011">
      <ele>1537.312</ele>
      <time>2021-10-12T17:32:23Z</time>
    </trkpt>
    <trkpt lat="38.497726964" lon="34.934436008">
      <ele>1534.82</ele>
      <time>2021-10-12T17:32:27Z</time>
    </trkpt>
    <trkpt lat="38.497665022" lon="34.934445983">
      <ele>1532.592</ele>
      <time>2021-10-12T17:32:29Z</time>
    </trkpt>
    <trkpt lat="38.497631997" lon="34.934456041">
      <ele>1531.64</ele>
      <time>2021-10-12T17:32:31Z</time>
    </trkpt>
    <trkpt lat="38.497602995" lon="34.934464004">
      <ele>1530.746</ele>
      <time>2021-10-12T17:32:32Z</time>
    </trkpt>
    <trkpt lat="38.497567959" lon="34.934471967">
      <ele>1529.581</ele>
      <time>2021-10-12T17:32:33Z</time>
    </trkpt>
    <trkpt lat="38.497530995" lon="34.934478002">
      <ele>1528.248</ele>
      <time>2021-10-12T17:32:35Z</time>
    </trkpt>
    <trkpt lat="38.497424964" lon="34.934539022">
      <ele>1526.741</ele>
      <time>2021-10-12T17:32:39Z</time>
    </trkpt>
    <trkpt lat="38.497394035" lon="34.934562994">
      <ele>1526.581</ele>
      <time>2021-10-12T17:32:40Z</time>
    </trkpt>
    <trkpt lat="38.497366039" lon="34.934587972">
      <ele>1526.509</ele>
      <time>2021-10-12T17:32:41Z</time>
    </trkpt>
    <trkpt lat="38.497339971" lon="34.934612028">
      <ele>1526.446</ele>
      <time>2021-10-12T17:32:43Z</time>
    </trkpt>
    <trkpt lat="38.497294961" lon="34.934670031">
      <ele>1526.73</ele>
      <time>2021-10-12T17:32:45Z</time>
    </trkpt>
    <trkpt lat="38.497223966" lon="34.93476701">
      <ele>1528.305</ele>
      <time>2021-10-12T17:32:49Z</time>
    </trkpt>
    <trkpt lat="38.497163029" lon="34.934862982">
      <ele>1530.207</ele>
      <time>2021-10-12T17:32:52Z</time>
    </trkpt>
    <trkpt lat="38.497144002" lon="34.934896007">
      <ele>1530.71</ele>
      <time>2021-10-12T17:32:54Z</time>
    </trkpt>
    <trkpt lat="38.497078037" lon="34.934999021">
      <ele>1531.139</ele>
      <time>2021-10-12T17:32:58Z</time>
    </trkpt>
    <trkpt lat="38.497022968" lon="34.935102034">
      <ele>1532.165</ele>
      <time>2021-10-12T17:33:01Z</time>
    </trkpt>
    <trkpt lat="38.496967983" lon="34.935200019">
      <ele>1533.557</ele>
      <time>2021-10-12T17:33:05Z</time>
    </trkpt>
    <trkpt lat="38.496915009" lon="34.935294986">
      <ele>1534.754</ele>
      <time>2021-10-12T17:33:08Z</time>
    </trkpt>
    <trkpt lat="38.496838985" lon="34.93538199">
      <ele>1532.866</ele>
      <time>2021-10-12T17:33:12Z</time>
    </trkpt>
    <trkpt lat="38.496768996" lon="34.935477963">
      <ele>1531.193</ele>
      <time>2021-10-12T17:33:16Z</time>
    </trkpt>
    <trkpt lat="38.496713005" lon="34.935523979">
      <ele>1528.537</ele>
      <time>2021-10-12T17:33:18Z</time>
    </trkpt>
    <trkpt lat="38.496637987" lon="34.93559598">
      <ele>1525.096</ele>
      <time>2021-10-12T17:33:22Z</time>
    </trkpt>
    <trkpt lat="38.496617032" lon="34.935624981">
      <ele>1524.363</ele>
      <time>2021-10-12T17:33:23Z</time>
    </trkpt>
    <trkpt lat="38.496595994" lon="34.935652977">
      <ele>1523.546</ele>
      <time>2021-10-12T17:33:24Z</time>
    </trkpt>
    <trkpt lat="38.496573027" lon="34.935680972">
      <ele>1522.528</ele>
      <time>2021-10-12T17:33:25Z</time>
    </trkpt>
    <trkpt lat="38.496552994" lon="34.93570704">
      <ele>1521.645</ele>
      <time>2021-10-12T17:33:26Z</time>
    </trkpt>
    <trkpt lat="38.49653204" lon="34.935737969">
      <ele>1520.778</ele>
      <time>2021-10-12T17:33:27Z</time>
    </trkpt>
    <trkpt lat="38.496517036" lon="34.935767977">
      <ele>1520.335</ele>
      <time>2021-10-12T17:33:28Z</time>
    </trkpt>
    <trkpt lat="38.496503038" lon="34.935801001">
      <ele>1520.021</ele>
      <time>2021-10-12T17:33:29Z</time>
    </trkpt>
    <trkpt lat="38.49649298" lon="34.935838971">
      <ele>1520.12</ele>
      <time>2021-10-12T17:33:31Z</time>
    </trkpt>
    <trkpt lat="38.496484011" lon="34.935874008">
      <ele>1520.143</ele>
      <time>2021-10-12T17:33:32Z</time>
    </trkpt>
    <trkpt lat="38.496471019" lon="34.93590896">
      <ele>1519.841</ele>
      <time>2021-10-12T17:33:33Z</time>
    </trkpt>
    <trkpt lat="38.496460039" lon="34.935945002">
      <ele>1519.756</ele>
      <time>2021-10-12T17:33:34Z</time>
    </trkpt>
    <trkpt lat="38.496454004" lon="34.935983978">
      <ele>1520.168</ele>
      <time>2021-10-12T17:33:35Z</time>
    </trkpt>
    <trkpt lat="38.496443024" lon="34.936023038">
      <ele>1520.192</ele>
      <time>2021-10-12T17:33:36Z</time>
    </trkpt>
    <trkpt lat="38.496433971" lon="34.936060002">
      <ele>1520.342</ele>
      <time>2021-10-12T17:33:37Z</time>
    </trkpt>
    <trkpt lat="38.496417962" lon="34.936137032">
      <ele>1520.823</ele>
      <time>2021-10-12T17:33:40Z</time>
    </trkpt>
    <trkpt lat="38.496412011" lon="34.936170978">
      <ele>1521.053</ele>
      <time>2021-10-12T17:33:41Z</time>
    </trkpt>
    <trkpt lat="38.496406982" lon="34.936206015">
      <ele>1521.394</ele>
      <time>2021-10-12T17:33:42Z</time>
    </trkpt>
    <trkpt lat="38.496400025" lon="34.936240967">
      <ele>1521.612</ele>
      <time>2021-10-12T17:33:43Z</time>
    </trkpt>
    <trkpt lat="38.49639399" lon="34.93627701">
      <ele>1521.944</ele>
      <time>2021-10-12T17:33:44Z</time>
    </trkpt>
    <trkpt lat="38.496388961" lon="34.936315985">
      <ele>1522.43</ele>
      <time>2021-10-12T17:33:45Z</time>
    </trkpt>
    <trkpt lat="38.496384015" lon="34.936354961">
      <ele>1522.973</ele>
      <time>2021-10-12T17:33:46Z</time>
    </trkpt>
    <trkpt lat="38.49637798" lon="34.936392009">
      <ele>1523.333</ele>
      <time>2021-10-12T17:33:47Z</time>
    </trkpt>
    <trkpt lat="38.496370018" lon="34.936429979">
      <ele>1522.865</ele>
      <time>2021-10-12T17:33:48Z</time>
    </trkpt>
    <trkpt lat="38.496363983" lon="34.936469961">
      <ele>1522.528</ele>
      <time>2021-10-12T17:33:50Z</time>
    </trkpt>
    <trkpt lat="38.496358031" lon="34.936510026">
      <ele>1522.208</ele>
      <time>2021-10-12T17:33:51Z</time>
    </trkpt>
    <trkpt lat="38.496354008" lon="34.936550008">
      <ele>1522.011</ele>
      <time>2021-10-12T17:33:52Z</time>
    </trkpt>
    <trkpt lat="38.496347973" lon="34.936590996">
      <ele>1521.71</ele>
      <time>2021-10-12T17:33:53Z</time>
    </trkpt>
    <trkpt lat="38.49634001" lon="34.936630977">
      <ele>1521.315</ele>
      <time>2021-10-12T17:33:54Z</time>
    </trkpt>
    <trkpt lat="38.496333975" lon="34.936670959">
      <ele>1521.05</ele>
      <time>2021-10-12T17:33:56Z</time>
    </trkpt>
    <trkpt lat="38.496327018" lon="34.936710019">
      <ele>1520.815</ele>
      <time>2021-10-12T17:33:57Z</time>
    </trkpt>
    <trkpt lat="38.496322995" lon="34.936747989">
      <ele>1520.734</ele>
      <time>2021-10-12T17:33:58Z</time>
    </trkpt>
    <trkpt lat="38.496314026" lon="34.936789982">
      <ele>1520.401</ele>
      <time>2021-10-12T17:33:59Z</time>
    </trkpt>
    <trkpt lat="38.49630598" lon="34.936829042">
      <ele>1520.107</ele>
      <time>2021-10-12T17:34:00Z</time>
    </trkpt>
    <trkpt lat="38.496296005" lon="34.936865">
      <ele>1519.698</ele>
      <time>2021-10-12T17:34:01Z</time>
    </trkpt>
    <trkpt lat="38.496285025" lon="34.936904982">
      <ele>1519.249</ele>
      <time>2021-10-12T17:34:03Z</time>
    </trkpt>
    <trkpt lat="38.496276978" lon="34.936945969">
      <ele>1518.954</ele>
      <time>2021-10-12T17:34:04Z</time>
    </trkpt>
    <trkpt lat="38.496272033" lon="34.936985029">
      <ele>1518.605</ele>
      <time>2021-10-12T17:34:05Z</time>
    </trkpt>
    <trkpt lat="38.496269016" lon="34.937026016">
      <ele>1518.36</ele>
      <time>2021-10-12T17:34:06Z</time>
    </trkpt>
    <trkpt lat="38.496270021" lon="34.937063986">
      <ele>1518.335</ele>
      <time>2021-10-12T17:34:07Z</time>
    </trkpt>
    <trkpt lat="38.496270021" lon="34.93710598">
      <ele>1518.248</ele>
      <time>2021-10-12T17:34:08Z</time>
    </trkpt>
    <trkpt lat="38.496272033" lon="34.937146967">
      <ele>1518.267</ele>
      <time>2021-10-12T17:34:10Z</time>
    </trkpt>
    <trkpt lat="38.496276978" lon="34.937188961">
      <ele>1518.431</ele>
      <time>2021-10-12T17:34:11Z</time>
    </trkpt>
    <trkpt lat="38.496276978" lon="34.937233971">
      <ele>1518.317</ele>
      <time>2021-10-12T17:34:12Z</time>
    </trkpt>
    <trkpt lat="38.496275973" lon="34.937283006">
      <ele>1518.09</ele>
      <time>2021-10-12T17:34:14Z</time>
    </trkpt>
    <trkpt lat="38.496276978" lon="34.937324999">
      <ele>1517.99</ele>
      <time>2021-10-12T17:34:15Z</time>
    </trkpt>
    <trkpt lat="38.496281002" lon="34.937371016">
      <ele>1518.027</ele>
      <time>2021-10-12T17:34:16Z</time>
    </trkpt>
    <trkpt lat="38.496287037" lon="34.93740798">
      <ele>1518.198</ele>
      <time>2021-10-12T17:34:17Z</time>
    </trkpt>
    <trkpt lat="38.496287959" lon="34.937449973">
      <ele>1518.093</ele>
      <time>2021-10-12T17:34:19Z</time>
    </trkpt>
    <trkpt lat="38.496291982" lon="34.937494984">
      <ele>1518.134</ele>
      <time>2021-10-12T17:34:20Z</time>
    </trkpt>
    <trkpt lat="38.496294999" lon="34.937537983">
      <ele>1517.858</ele>
      <time>2021-10-12T17:34:21Z</time>
    </trkpt>
    <trkpt lat="38.496299023" lon="34.937576959">
      <ele>1517.64</ele>
      <time>2021-10-12T17:34:22Z</time>
    </trkpt>
    <trkpt lat="38.496304974" lon="34.937619036">
      <ele>1517.485</ele>
      <time>2021-10-12T17:34:23Z</time>
    </trkpt>
    <trkpt lat="38.496313021" lon="34.937658012">
      <ele>1517.47</ele>
      <time>2021-10-12T17:34:25Z</time>
    </trkpt>
    <trkpt lat="38.496318972" lon="34.937696988">
      <ele>1517.349</ele>
      <time>2021-10-12T17:34:26Z</time>
    </trkpt>
    <trkpt lat="38.496326013" lon="34.937735964">
      <ele>1517.283</ele>
      <time>2021-10-12T17:34:27Z</time>
    </trkpt>
    <trkpt lat="38.496334981" lon="34.937772006">
      <ele>1517.345</ele>
      <time>2021-10-12T17:34:28Z</time>
    </trkpt>
    <trkpt lat="38.496339004" lon="34.937811987">
      <ele>1516.835</ele>
      <time>2021-10-12T17:34:29Z</time>
    </trkpt>
    <trkpt lat="38.496344034" lon="34.937851969">
      <ele>1516.309</ele>
      <time>2021-10-12T17:34:30Z</time>
    </trkpt>
    <trkpt lat="38.496355014" lon="34.937890023">
      <ele>1516.065</ele>
      <time>2021-10-12T17:34:32Z</time>
    </trkpt>
    <trkpt lat="38.496360965" lon="34.937934028">
      <ele>1515.444</ele>
      <time>2021-10-12T17:34:33Z</time>
    </trkpt>
    <trkpt lat="38.496367" lon="34.937969986">
      <ele>1514.963</ele>
      <time>2021-10-12T17:34:34Z</time>
    </trkpt>
    <trkpt lat="38.496380998" lon="34.938005023">
      <ele>1514.787</ele>
      <time>2021-10-12T17:34:35Z</time>
    </trkpt>
    <trkpt lat="38.496419974" lon="34.938118011">
      <ele>1514.154</ele>
      <time>2021-10-12T17:34:39Z</time>
    </trkpt>
    <trkpt lat="38.496435983" lon="34.938157992">
      <ele>1513.922</ele>
      <time>2021-10-12T17:34:40Z</time>
    </trkpt>
    <trkpt lat="38.496446041" lon="34.938192023">
      <ele>1513.511</ele>
      <time>2021-10-12T17:34:41Z</time>
    </trkpt>
    <trkpt lat="38.496460961" lon="34.938267041">
      <ele>1512.183</ele>
      <time>2021-10-12T17:34:43Z</time>
    </trkpt>
    <trkpt lat="38.496469008" lon="34.938300988">
      <ele>1511.548</ele>
      <time>2021-10-12T17:34:44Z</time>
    </trkpt>
    <trkpt lat="38.496478982" lon="34.938336024">
      <ele>1510.882</ele>
      <time>2021-10-12T17:34:45Z</time>
    </trkpt>
    <trkpt lat="38.496494992" lon="34.938414982">
      <ele>1509.304</ele>
      <time>2021-10-12T17:34:48Z</time>
    </trkpt>
    <trkpt lat="38.496499015" lon="34.938457981">
      <ele>1508.331</ele>
      <time>2021-10-12T17:34:49Z</time>
    </trkpt>
    <trkpt lat="38.49650396" lon="34.93849704">
      <ele>1507.461</ele>
      <time>2021-10-12T17:34:50Z</time>
    </trkpt>
    <trkpt lat="38.496513013" lon="34.938534005">
      <ele>1506.701</ele>
      <time>2021-10-12T17:34:51Z</time>
    </trkpt>
    <trkpt lat="38.496520976" lon="34.938577004">
      <ele>1505.756</ele>
      <time>2021-10-12T17:34:53Z</time>
    </trkpt>
    <trkpt lat="38.496528016" lon="34.938620003">
      <ele>1504.875</ele>
      <time>2021-10-12T17:34:54Z</time>
    </trkpt>
    <trkpt lat="38.496531034" lon="34.938663002">
      <ele>1504.3</ele>
      <time>2021-10-12T17:34:55Z</time>
    </trkpt>
    <trkpt lat="38.496536985" lon="34.938702984">
      <ele>1503.81</ele>
      <time>2021-10-12T17:34:56Z</time>
    </trkpt>
    <trkpt lat="38.496544026" lon="34.938740032">
      <ele>1503.378</ele>
      <time>2021-10-12T17:34:57Z</time>
    </trkpt>
    <trkpt lat="38.496546037" lon="34.938779008">
      <ele>1502.845</ele>
      <time>2021-10-12T17:34:59Z</time>
    </trkpt>
    <trkpt lat="38.496548971" lon="34.938819995">
      <ele>1502.297</ele>
      <time>2021-10-12T17:35:00Z</time>
    </trkpt>
    <trkpt lat="38.496550983" lon="34.938857965">
      <ele>1501.779</ele>
      <time>2021-10-12T17:35:01Z</time>
    </trkpt>
    <trkpt lat="38.496552994" lon="34.938899959">
      <ele>1501.213</ele>
      <time>2021-10-12T17:35:02Z</time>
    </trkpt>
    <trkpt lat="38.496559029" lon="34.938944969">
      <ele>1500.675</ele>
      <time>2021-10-12T17:35:03Z</time>
    </trkpt>
    <trkpt lat="38.496563975" lon="34.93898998">
      <ele>1500.105</ele>
      <time>2021-10-12T17:35:05Z</time>
    </trkpt>
    <trkpt lat="38.496562969" lon="34.939031973">
      <ele>1499.508</ele>
      <time>2021-10-12T17:35:06Z</time>
    </trkpt>
    <trkpt lat="38.496559029" lon="34.939075978">
      <ele>1498.865</ele>
      <time>2021-10-12T17:35:07Z</time>
    </trkpt>
    <trkpt lat="38.496556012" lon="34.939123001">
      <ele>1498.2</ele>
      <time>2021-10-12T17:35:09Z</time>
    </trkpt>
    <trkpt lat="38.49654696" lon="34.939163988">
      <ele>1497.605</ele>
      <time>2021-10-12T17:35:10Z</time>
    </trkpt>
    <trkpt lat="38.496538997" lon="34.93920397">
      <ele>1496.651</ele>
      <time>2021-10-12T17:35:11Z</time>
    </trkpt>
    <trkpt lat="38.496527011" lon="34.939241018">
      <ele>1495.76</ele>
      <time>2021-10-12T17:35:12Z</time>
    </trkpt>
    <trkpt lat="38.496506978" lon="34.939312013">
      <ele>1494.142</ele>
      <time>2021-10-12T17:35:14Z</time>
    </trkpt>
    <trkpt lat="38.496497003" lon="34.939347971">
      <ele>1493.364</ele>
      <time>2021-10-12T17:35:16Z</time>
    </trkpt>
    <trkpt lat="38.496489041" lon="34.939383008">
      <ele>1492.624</ele>
      <time>2021-10-12T17:35:17Z</time>
    </trkpt>
    <trkpt lat="38.496464984" lon="34.93945702">
      <ele>1491.267</ele>
      <time>2021-10-12T17:35:19Z</time>
    </trkpt>
    <trkpt lat="38.496425003" lon="34.939587023">
      <ele>1489.933</ele>
      <time>2021-10-12T17:35:23Z</time>
    </trkpt>
    <trkpt lat="38.496414023" lon="34.939738987">
      <ele>1488.265</ele>
      <time>2021-10-12T17:35:27Z</time>
    </trkpt>
    <trkpt lat="38.496419974" lon="34.939859016">
      <ele>1486.741</ele>
      <time>2021-10-12T17:35:31Z</time>
    </trkpt>
    <trkpt lat="38.496433971" lon="34.939977033">
      <ele>1484.977</ele>
      <time>2021-10-12T17:35:34Z</time>
    </trkpt>
    <trkpt lat="38.496446041" lon="34.94009899">
      <ele>1483.421</ele>
      <time>2021-10-12T17:35:38Z</time>
    </trkpt>
    <trkpt lat="38.496451993" lon="34.94022497">
      <ele>1482.011</ele>
      <time>2021-10-12T17:35:42Z</time>
    </trkpt>
    <trkpt lat="38.496446041" lon="34.940372994">
      <ele>1479.549</ele>
      <time>2021-10-12T17:35:46Z</time>
    </trkpt>
    <trkpt lat="38.496426009" lon="34.940492017">
      <ele>1477.44</ele>
      <time>2021-10-12T17:35:49Z</time>
    </trkpt>
    <trkpt lat="38.496413017" lon="34.940609029">
      <ele>1475.184</ele>
      <time>2021-10-12T17:35:53Z</time>
    </trkpt>
    <trkpt lat="38.496413017" lon="34.940726962">
      <ele>1472.71</ele>
      <time>2021-10-12T17:35:56Z</time>
    </trkpt>
    <trkpt lat="38.496425003" lon="34.940875992">
      <ele>1469.626</ele>
      <time>2021-10-12T17:36:01Z</time>
    </trkpt>
    <trkpt lat="38.49643196" lon="34.941000966">
      <ele>1467.749</ele>
      <time>2021-10-12T17:36:04Z</time>
    </trkpt>
    <trkpt lat="38.496442018" lon="34.941117978">
      <ele>1465.915</ele>
      <time>2021-10-12T17:36:08Z</time>
    </trkpt>
    <trkpt lat="38.496448975" lon="34.941252004">
      <ele>1463.273</ele>
      <time>2021-10-12T17:36:12Z</time>
    </trkpt>
    <trkpt lat="38.496449981" lon="34.941327022">
      <ele>1461.843</ele>
      <time>2021-10-12T17:36:14Z</time>
    </trkpt>
    <trkpt lat="38.496454004" lon="34.941369016">
      <ele>1460.968</ele>
      <time>2021-10-12T17:36:15Z</time>
    </trkpt>
    <trkpt lat="38.496464984" lon="34.941491978">
      <ele>1458.297</ele>
      <time>2021-10-12T17:36:19Z</time>
    </trkpt>
    <trkpt lat="38.496463979" lon="34.94153196">
      <ele>1457.524</ele>
      <time>2021-10-12T17:36:20Z</time>
    </trkpt>
    <trkpt lat="38.496464984" lon="34.941573031">
      <ele>1456.679</ele>
      <time>2021-10-12T17:36:21Z</time>
    </trkpt>
    <trkpt lat="38.49646599" lon="34.94171896">
      <ele>1453.702</ele>
      <time>2021-10-12T17:36:25Z</time>
    </trkpt>
    <trkpt lat="38.496452998" lon="34.941868996">
      <ele>1450.951</ele>
      <time>2021-10-12T17:36:30Z</time>
    </trkpt>
    <trkpt lat="38.496415028" lon="34.942011992">
      <ele>1448.905</ele>
      <time>2021-10-12T17:36:34Z</time>
    </trkpt>
    <trkpt lat="38.496374963" lon="34.942145012">
      <ele>1446.946</ele>
      <time>2021-10-12T17:36:38Z</time>
    </trkpt>
    <trkpt lat="38.496312015" lon="34.942266969">
      <ele>1445.167</ele>
      <time>2021-10-12T17:36:42Z</time>
    </trkpt>
    <trkpt lat="38.496294999" lon="34.94229597">
      <ele>1444.652</ele>
      <time>2021-10-12T17:36:44Z</time>
    </trkpt>
    <trkpt lat="38.496281002" lon="34.942326983">
      <ele>1444.009</ele>
      <time>2021-10-12T17:36:45Z</time>
    </trkpt>
    <trkpt lat="38.496263986" lon="34.942361014">
      <ele>1443.301</ele>
      <time>2021-10-12T17:36:46Z</time>
    </trkpt>
    <trkpt lat="38.496245965" lon="34.942390015">
      <ele>1442.723</ele>
      <time>2021-10-12T17:36:47Z</time>
    </trkpt>
    <trkpt lat="38.496226016" lon="34.942419017">
      <ele>1442.142</ele>
      <time>2021-10-12T17:36:48Z</time>
    </trkpt>
    <trkpt lat="38.496209001" lon="34.94245003">
      <ele>1441.435</ele>
      <time>2021-10-12T17:36:49Z</time>
    </trkpt>
    <trkpt lat="38.496193998" lon="34.942480959">
      <ele>1440.681</ele>
      <time>2021-10-12T17:36:50Z</time>
    </trkpt>
    <trkpt lat="38.496171031" lon="34.94250996">
      <ele>1440.066</ele>
      <time>2021-10-12T17:36:51Z</time>
    </trkpt>
    <trkpt lat="38.496154016" lon="34.94253804">
      <ele>1439.441</ele>
      <time>2021-10-12T17:36:52Z</time>
    </trkpt>
    <trkpt lat="38.496134989" lon="34.942564024">
      <ele>1438.898</ele>
      <time>2021-10-12T17:36:53Z</time>
    </trkpt>
    <trkpt lat="38.496116968" lon="34.942587996">
      <ele>1438.402</ele>
      <time>2021-10-12T17:36:54Z</time>
    </trkpt>
    <trkpt lat="38.496098025" lon="34.942611968">
      <ele>1438.02</ele>
      <time>2021-10-12T17:36:55Z</time>
    </trkpt>
    <trkpt lat="38.49607598" lon="34.942636024">
      <ele>1437.717</ele>
      <time>2021-10-12T17:36:56Z</time>
    </trkpt>
    <trkpt lat="38.496057959" lon="34.942665026">
      <ele>1437.168</ele>
      <time>2021-10-12T17:36:57Z</time>
    </trkpt>
    <trkpt lat="38.496039016" lon="34.942692015">
      <ele>1436.668</ele>
      <time>2021-10-12T17:36:58Z</time>
    </trkpt>
    <trkpt lat="38.496016972" lon="34.942720011">
      <ele>1436.16</ele>
      <time>2021-10-12T17:37:00Z</time>
    </trkpt>
    <trkpt lat="38.495995011" lon="34.942750018">
      <ele>1435.555</ele>
      <time>2021-10-12T17:37:01Z</time>
    </trkpt>
    <trkpt lat="38.49597699" lon="34.942784971">
      <ele>1434.672</ele>
      <time>2021-10-12T17:37:02Z</time>
    </trkpt>
    <trkpt lat="38.49595503" lon="34.942815984">
      <ele>1433.889</ele>
      <time>2021-10-12T17:37:03Z</time>
    </trkpt>
    <trkpt lat="38.495932985" lon="34.942846997">
      <ele>1433.144</ele>
      <time>2021-10-12T17:37:04Z</time>
    </trkpt>
    <trkpt lat="38.495907001" lon="34.942877004">
      <ele>1432.535</ele>
      <time>2021-10-12T17:37:06Z</time>
    </trkpt>
    <trkpt lat="38.495859979" lon="34.942938024">
      <ele>1431.314</ele>
      <time>2021-10-12T17:37:08Z</time>
    </trkpt>
    <trkpt lat="38.495841036" lon="34.942964008">
      <ele>1430.818</ele>
      <time>2021-10-12T17:37:09Z</time>
    </trkpt>
    <trkpt lat="38.49582402" lon="34.942986974">
      <ele>1430.431</ele>
      <time>2021-10-12T17:37:10Z</time>
    </trkpt>
    <trkpt lat="38.495802982" lon="34.943012958">
      <ele>1430.053</ele>
      <time>2021-10-12T17:37:11Z</time>
    </trkpt>
    <trkpt lat="38.495785967" lon="34.943037014">
      <ele>1429.635</ele>
      <time>2021-10-12T17:37:12Z</time>
    </trkpt>
    <trkpt lat="38.495767023" lon="34.943061993">
      <ele>1429.236</ele>
      <time>2021-10-12T17:37:13Z</time>
    </trkpt>
    <trkpt lat="38.495747996" lon="34.943088982">
      <ele>1428.807</ele>
      <time>2021-10-12T17:37:14Z</time>
    </trkpt>
    <trkpt lat="38.495723018" lon="34.943115972">
      <ele>1428.47</ele>
      <time>2021-10-12T17:37:16Z</time>
    </trkpt>
    <trkpt lat="38.495700974" lon="34.943140028">
      <ele>1428.136</ele>
      <time>2021-10-12T17:37:17Z</time>
    </trkpt>
    <trkpt lat="38.495682031" lon="34.943162994">
      <ele>1427.753</ele>
      <time>2021-10-12T17:37:18Z</time>
    </trkpt>
    <trkpt lat="38.495663004" lon="34.943185961">
      <ele>1427.348</ele>
      <time>2021-10-12T17:37:19Z</time>
    </trkpt>
    <trkpt lat="38.495641965" lon="34.943209011">
      <ele>1426.953</ele>
      <time>2021-10-12T17:37:20Z</time>
    </trkpt>
    <trkpt lat="38.495618999" lon="34.943232983">
      <ele>1426.534</ele>
      <time>2021-10-12T17:37:21Z</time>
    </trkpt>
    <trkpt lat="38.495596033" lon="34.943257039">
      <ele>1426.084</ele>
      <time>2021-10-12T17:37:22Z</time>
    </trkpt>
    <trkpt lat="38.495573988" lon="34.943282017">
      <ele>1425.557</ele>
      <time>2021-10-12T17:37:23Z</time>
    </trkpt>
    <trkpt lat="38.495545993" lon="34.943308001">
      <ele>1424.975</ele>
      <time>2021-10-12T17:37:24Z</time>
    </trkpt>
    <trkpt lat="38.495521015" lon="34.943331974">
      <ele>1424.296</ele>
      <time>2021-10-12T17:37:25Z</time>
    </trkpt>
    <trkpt lat="38.495499976" lon="34.943357036">
      <ele>1423.496</ele>
      <time>2021-10-12T17:37:26Z</time>
    </trkpt>
    <trkpt lat="38.49547701" lon="34.943384025">
      <ele>1422.586</ele>
      <time>2021-10-12T17:37:28Z</time>
    </trkpt>
    <trkpt lat="38.495452031" lon="34.943412021">
      <ele>1421.596</ele>
      <time>2021-10-12T17:37:29Z</time>
    </trkpt>
    <trkpt lat="38.49542697" lon="34.943434987">
      <ele>1420.758</ele>
      <time>2021-10-12T17:37:30Z</time>
    </trkpt>
    <trkpt lat="38.495400986" lon="34.943461977">
      <ele>1419.709</ele>
      <time>2021-10-12T17:37:31Z</time>
    </trkpt>
    <trkpt lat="38.495378019" lon="34.943488967">
      <ele>1418.601</ele>
      <time>2021-10-12T17:37:32Z</time>
    </trkpt>
    <trkpt lat="38.495353041" lon="34.943510005">
      <ele>1417.707</ele>
      <time>2021-10-12T17:37:33Z</time>
    </trkpt>
    <trkpt lat="38.495309036" lon="34.943550993">
      <ele>1415.853</ele>
      <time>2021-10-12T17:37:35Z</time>
    </trkpt>
    <trkpt lat="38.49528498" lon="34.943577982">
      <ele>1414.567</ele>
      <time>2021-10-12T17:37:37Z</time>
    </trkpt>
    <trkpt lat="38.495260002" lon="34.943600027">
      <ele>1413.585</ele>
      <time>2021-10-12T17:37:38Z</time>
    </trkpt>
    <trkpt lat="38.49521298" lon="34.943639003">
      <ele>1412.306</ele>
      <time>2021-10-12T17:37:40Z</time>
    </trkpt>
    <trkpt lat="38.495182972" lon="34.943660963">
      <ele>1411.665</ele>
      <time>2021-10-12T17:37:41Z</time>
    </trkpt>
    <trkpt lat="38.495155983" lon="34.943683008">
      <ele>1410.996</ele>
      <time>2021-10-12T17:37:42Z</time>
    </trkpt>
    <trkpt lat="38.495133016" lon="34.943703962">
      <ele>1410.339</ele>
      <time>2021-10-12T17:37:43Z</time>
    </trkpt>
    <trkpt lat="38.495107032" lon="34.943728019">
      <ele>1409.568</ele>
      <time>2021-10-12T17:37:45Z</time>
    </trkpt>
    <trkpt lat="38.495083982" lon="34.943750985">
      <ele>1408.814</ele>
      <time>2021-10-12T17:37:46Z</time>
    </trkpt>
    <trkpt lat="38.495057998" lon="34.943775963">
      <ele>1407.98</ele>
      <time>2021-10-12T17:37:47Z</time>
    </trkpt>
    <trkpt lat="38.495028997" lon="34.943803037">
      <ele>1407.058</ele>
      <time>2021-10-12T17:37:48Z</time>
    </trkpt>
    <trkpt lat="38.495003013" lon="34.943830026">
      <ele>1406.117</ele>
      <time>2021-10-12T17:37:49Z</time>
    </trkpt>
    <trkpt lat="38.494976023" lon="34.943859028">
      <ele>1405.593</ele>
      <time>2021-10-12T17:37:51Z</time>
    </trkpt>
    <trkpt lat="38.494948028" lon="34.943879982">
      <ele>1405.443</ele>
      <time>2021-10-12T17:37:52Z</time>
    </trkpt>
    <trkpt lat="38.494920032" lon="34.943901021">
      <ele>1405.365</ele>
      <time>2021-10-12T17:37:53Z</time>
    </trkpt>
    <trkpt lat="38.494892037" lon="34.943918036">
      <ele>1405.452</ele>
      <time>2021-10-12T17:37:54Z</time>
    </trkpt>
    <trkpt lat="38.494863035" lon="34.943934968">
      <ele>1405.55</ele>
      <time>2021-10-12T17:37:55Z</time>
    </trkpt>
    <trkpt lat="38.494834034" lon="34.943953995">
      <ele>1405.57</ele>
      <time>2021-10-12T17:37:57Z</time>
    </trkpt>
    <trkpt lat="38.494806038" lon="34.943972016">
      <ele>1405.587</ele>
      <time>2021-10-12T17:37:58Z</time>
    </trkpt>
    <trkpt lat="38.494780976" lon="34.943993976">
      <ele>1405.406</ele>
      <time>2021-10-12T17:37:59Z</time>
    </trkpt>
    <trkpt lat="38.494757004" lon="34.944015015">
      <ele>1405.219</ele>
      <time>2021-10-12T17:38:00Z</time>
    </trkpt>
    <trkpt lat="38.494732026" lon="34.944037981">
      <ele>1404.977</ele>
      <time>2021-10-12T17:38:01Z</time>
    </trkpt>
    <trkpt lat="38.494705958" lon="34.944062037">
      <ele>1404.705</ele>
      <time>2021-10-12T17:38:02Z</time>
    </trkpt>
    <trkpt lat="38.494679974" lon="34.944085004">
      <ele>1404.451</ele>
      <time>2021-10-12T17:38:03Z</time>
    </trkpt>
    <trkpt lat="38.494649967" lon="34.944110988">
      <ele>1404.157</ele>
      <time>2021-10-12T17:38:05Z</time>
    </trkpt>
    <trkpt lat="38.494596994" lon="34.944153987">
      <ele>1403.686</ele>
      <time>2021-10-12T17:38:07Z</time>
    </trkpt>
    <trkpt lat="38.494568998" lon="34.944173014">
      <ele>1403.504</ele>
      <time>2021-10-12T17:38:08Z</time>
    </trkpt>
    <trkpt lat="38.49454402" lon="34.944193969">
      <ele>1403.099</ele>
      <time>2021-10-12T17:38:09Z</time>
    </trkpt>
    <trkpt lat="38.494518036" lon="34.944216013">
      <ele>1402.638</ele>
      <time>2021-10-12T17:38:11Z</time>
    </trkpt>
    <trkpt lat="38.494490962" lon="34.944229005">
      <ele>1402.545</ele>
      <time>2021-10-12T17:38:12Z</time>
    </trkpt>
    <trkpt lat="38.494464979" lon="34.944243003">
      <ele>1402.373</ele>
      <time>2021-10-12T17:38:13Z</time>
    </trkpt>
    <trkpt lat="38.494438995" lon="34.944252977">
      <ele>1402.264</ele>
      <time>2021-10-12T17:38:14Z</time>
    </trkpt>
    <trkpt lat="38.494412005" lon="34.944266975">
      <ele>1401.634</ele>
      <time>2021-10-12T17:38:15Z</time>
    </trkpt>
    <trkpt lat="38.494388033" lon="34.944281979">
      <ele>1400.984</ele>
      <time>2021-10-12T17:38:16Z</time>
    </trkpt>
    <trkpt lat="38.494363977" lon="34.944295976">
      <ele>1400.394</ele>
      <time>2021-10-12T17:38:17Z</time>
    </trkpt>
    <trkpt lat="38.49434101" lon="34.944313997">
      <ele>1399.658</ele>
      <time>2021-10-12T17:38:18Z</time>
    </trkpt>
    <trkpt lat="38.494316032" lon="34.94433797">
      <ele>1398.708</ele>
      <time>2021-10-12T17:38:19Z</time>
    </trkpt>
    <trkpt lat="38.494293988" lon="34.944369989">
      <ele>1397.468</ele>
      <time>2021-10-12T17:38:20Z</time>
    </trkpt>
    <trkpt lat="38.494272027" lon="34.944403013">
      <ele>1396.225</ele>
      <time>2021-10-12T17:38:21Z</time>
    </trkpt>
    <trkpt lat="38.494250989" lon="34.94443696">
      <ele>1394.982</ele>
      <time>2021-10-12T17:38:23Z</time>
    </trkpt>
    <trkpt lat="38.494239002" lon="34.944474008">
      <ele>1393.809</ele>
      <time>2021-10-12T17:38:24Z</time>
    </trkpt>
    <trkpt lat="38.494233973" lon="34.944507033">
      <ele>1392.784</ele>
      <time>2021-10-12T17:38:25Z</time>
    </trkpt>
    <trkpt lat="38.494229028" lon="34.944540979">
      <ele>1391.726</ele>
      <time>2021-10-12T17:38:26Z</time>
    </trkpt>
    <trkpt lat="38.494219976" lon="34.944576016">
      <ele>1390.636</ele>
      <time>2021-10-12T17:38:27Z</time>
    </trkpt>
    <trkpt lat="38.494216036" lon="34.94461298">
      <ele>1389.47</ele>
      <time>2021-10-12T17:38:28Z</time>
    </trkpt>
    <trkpt lat="38.494217964" lon="34.94464701">
      <ele>1388.387</ele>
      <time>2021-10-12T17:38:29Z</time>
    </trkpt>
    <trkpt lat="38.49421897" lon="34.944681041">
      <ele>1387.306</ele>
      <time>2021-10-12T17:38:30Z</time>
    </trkpt>
    <trkpt lat="38.494223999" lon="34.944714988">
      <ele>1386.229</ele>
      <time>2021-10-12T17:38:31Z</time>
    </trkpt>
    <trkpt lat="38.49423104" lon="34.944748012">
      <ele>1385.486</ele>
      <time>2021-10-12T17:38:32Z</time>
    </trkpt>
    <trkpt lat="38.49424202" lon="34.944781037">
      <ele>1384.844</ele>
      <time>2021-10-12T17:38:33Z</time>
    </trkpt>
    <trkpt lat="38.494259035" lon="34.94481096">
      <ele>1384.296</ele>
      <time>2021-10-12T17:38:34Z</time>
    </trkpt>
    <trkpt lat="38.494277978" lon="34.944843985">
      <ele>1383.721</ele>
      <time>2021-10-12T17:38:35Z</time>
    </trkpt>
    <trkpt lat="38.494295999" lon="34.944871981">
      <ele>1383.267</ele>
      <time>2021-10-12T17:38:36Z</time>
    </trkpt>
    <trkpt lat="38.494312009" lon="34.944899976">
      <ele>1382.83</ele>
      <time>2021-10-12T17:38:37Z</time>
    </trkpt>
    <trkpt lat="38.494329024" lon="34.944933001">
      <ele>1382.334</ele>
      <time>2021-10-12T17:38:38Z</time>
    </trkpt>
    <trkpt lat="38.494343022" lon="34.944966026">
      <ele>1381.848</ele>
      <time>2021-10-12T17:38:40Z</time>
    </trkpt>
    <trkpt lat="38.49435702" lon="34.944997039">
      <ele>1381.42</ele>
      <time>2021-10-12T17:38:41Z</time>
    </trkpt>
    <trkpt lat="38.494365988" lon="34.94503702">
      <ele>1380.998</ele>
      <time>2021-10-12T17:38:42Z</time>
    </trkpt>
    <trkpt lat="38.494386021" lon="34.945067028">
      <ele>1380.805</ele>
      <time>2021-10-12T17:38:43Z</time>
    </trkpt>
    <trkpt lat="38.494403036" lon="34.945098963">
      <ele>1380.58</ele>
      <time>2021-10-12T17:38:44Z</time>
    </trkpt>
    <trkpt lat="38.494422985" lon="34.945127964">
      <ele>1380.428</ele>
      <time>2021-10-12T17:38:45Z</time>
    </trkpt>
    <trkpt lat="38.494442012" lon="34.945155038">
      <ele>1380.303</ele>
      <time>2021-10-12T17:38:46Z</time>
    </trkpt>
    <trkpt lat="38.49445601" lon="34.945190996">
      <ele>1379.825</ele>
      <time>2021-10-12T17:38:47Z</time>
    </trkpt>
    <trkpt lat="38.494473025" lon="34.945223015">
      <ele>1379.303</ele>
      <time>2021-10-12T17:38:49Z</time>
    </trkpt>
    <trkpt lat="38.494488029" lon="34.945255034">
      <ele>1378.788</ele>
      <time>2021-10-12T17:38:50Z</time>
    </trkpt>
    <trkpt lat="38.49450496" lon="34.945289986">
      <ele>1378.205</ele>
      <time>2021-10-12T17:38:51Z</time>
    </trkpt>
    <trkpt lat="38.494519964" lon="34.94532804">
      <ele>1377.592</ele>
      <time>2021-10-12T17:38:52Z</time>
    </trkpt>
    <trkpt lat="38.494532034" lon="34.945356036">
      <ele>1377.12</ele>
      <time>2021-10-12T17:38:53Z</time>
    </trkpt>
    <trkpt lat="38.494543014" lon="34.945385037">
      <ele>1376.64</ele>
      <time>2021-10-12T17:38:54Z</time>
    </trkpt>
    <trkpt lat="38.494555" lon="34.945412027">
      <ele>1376.164</ele>
      <time>2021-10-12T17:38:55Z</time>
    </trkpt>
    <trkpt lat="38.494562041" lon="34.945445973">
      <ele>1375.657</ele>
      <time>2021-10-12T17:38:56Z</time>
    </trkpt>
    <trkpt lat="38.494567992" lon="34.945482016">
      <ele>1375.133</ele>
      <time>2021-10-12T17:38:57Z</time>
    </trkpt>
    <trkpt lat="38.494576961" lon="34.945525015">
      <ele>1374.474</ele>
      <time>2021-10-12T17:38:58Z</time>
    </trkpt>
    <trkpt lat="38.49458199" lon="34.945563991">
      <ele>1373.913</ele>
      <time>2021-10-12T17:38:59Z</time>
    </trkpt>
    <trkpt lat="38.494586013" lon="34.945600033">
      <ele>1373.403</ele>
      <time>2021-10-12T17:39:00Z</time>
    </trkpt>
    <trkpt lat="38.494587019" lon="34.945635991">
      <ele>1372.937</ele>
      <time>2021-10-12T17:39:01Z</time>
    </trkpt>
    <trkpt lat="38.494584002" lon="34.94566801">
      <ele>1372.574</ele>
      <time>2021-10-12T17:39:02Z</time>
    </trkpt>
    <trkpt lat="38.494584002" lon="34.945746968">
      <ele>1371.58</ele>
      <time>2021-10-12T17:39:05Z</time>
    </trkpt>
    <trkpt lat="38.494584002" lon="34.945786027">
      <ele>1371.088</ele>
      <time>2021-10-12T17:39:06Z</time>
    </trkpt>
    <trkpt lat="38.494580984" lon="34.945821986">
      <ele>1370.669</ele>
      <time>2021-10-12T17:39:07Z</time>
    </trkpt>
    <trkpt lat="38.494577967" lon="34.945860039">
      <ele>1370.074</ele>
      <time>2021-10-12T17:39:08Z</time>
    </trkpt>
    <trkpt lat="38.494574027" lon="34.945900021">
      <ele>1369.384</ele>
      <time>2021-10-12T17:39:09Z</time>
    </trkpt>
    <trkpt lat="38.494570004" lon="34.945938997">
      <ele>1368.706</ele>
      <time>2021-10-12T17:39:10Z</time>
    </trkpt>
    <trkpt lat="38.494567992" lon="34.945973027">
      <ele>1368.096</ele>
      <time>2021-10-12T17:39:11Z</time>
    </trkpt>
    <trkpt lat="38.494563969" lon="34.946008986">
      <ele>1367.459</ele>
      <time>2021-10-12T17:39:12Z</time>
    </trkpt>
    <trkpt lat="38.494557012" lon="34.946047962">
      <ele>1366.775</ele>
      <time>2021-10-12T17:39:14Z</time>
    </trkpt>
    <trkpt lat="38.494549971" lon="34.946088027">
      <ele>1366.056</ele>
      <time>2021-10-12T17:39:15Z</time>
    </trkpt>
    <trkpt lat="38.494537985" lon="34.946127003">
      <ele>1365.396</ele>
      <time>2021-10-12T17:39:16Z</time>
    </trkpt>
    <trkpt lat="38.494534967" lon="34.946163967">
      <ele>1364.785</ele>
      <time>2021-10-12T17:39:17Z</time>
    </trkpt>
    <trkpt lat="38.494534967" lon="34.946199004">
      <ele>1364.195</ele>
      <time>2021-10-12T17:39:18Z</time>
    </trkpt>
    <trkpt lat="38.494537985" lon="34.946236974">
      <ele>1363.55</ele>
      <time>2021-10-12T17:39:19Z</time>
    </trkpt>
    <trkpt lat="38.494539997" lon="34.946276033">
      <ele>1362.892</ele>
      <time>2021-10-12T17:39:20Z</time>
    </trkpt>
    <trkpt lat="38.494535973" lon="34.946318027">
      <ele>1362.191</ele>
      <time>2021-10-12T17:39:21Z</time>
    </trkpt>
    <trkpt lat="38.494533962" lon="34.946358008">
      <ele>1361.52</ele>
      <time>2021-10-12T17:39:23Z</time>
    </trkpt>
    <trkpt lat="38.494530022" lon="34.946400002">
      <ele>1360.868</ele>
      <time>2021-10-12T17:39:24Z</time>
    </trkpt>
    <trkpt lat="38.49452801" lon="34.946437972">
      <ele>1360.417</ele>
      <time>2021-10-12T17:39:25Z</time>
    </trkpt>
    <trkpt lat="38.494527005" lon="34.946470996">
      <ele>1360.025</ele>
      <time>2021-10-12T17:39:26Z</time>
    </trkpt>
    <trkpt lat="38.494519042" lon="34.94654702">
      <ele>1359.139</ele>
      <time>2021-10-12T17:39:28Z</time>
    </trkpt>
    <trkpt lat="38.494519964" lon="34.946579961">
      <ele>1358.749</ele>
      <time>2021-10-12T17:39:29Z</time>
    </trkpt>
    <trkpt lat="38.49452801" lon="34.946608962">
      <ele>1358.385</ele>
      <time>2021-10-12T17:39:30Z</time>
    </trkpt>
    <trkpt lat="38.494545026" lon="34.94663503">
      <ele>1358.021</ele>
      <time>2021-10-12T17:39:31Z</time>
    </trkpt>
    <trkpt lat="38.494558018" lon="34.946666965">
      <ele>1357.586</ele>
      <time>2021-10-12T17:39:32Z</time>
    </trkpt>
    <trkpt lat="38.49457101" lon="34.946696972">
      <ele>1357.058</ele>
      <time>2021-10-12T17:39:33Z</time>
    </trkpt>
    <trkpt lat="38.494587019" lon="34.94672304">
      <ele>1356.571</ele>
      <time>2021-10-12T17:39:34Z</time>
    </trkpt>
    <trkpt lat="38.494609986" lon="34.946735026">
      <ele>1356.273</ele>
      <time>2021-10-12T17:39:35Z</time>
    </trkpt>
    <trkpt lat="38.494634964" lon="34.946737038">
      <ele>1356.127</ele>
      <time>2021-10-12T17:39:36Z</time>
    </trkpt>
    <trkpt lat="38.494658014" lon="34.94672304">
      <ele>1356.263</ele>
      <time>2021-10-12T17:39:37Z</time>
    </trkpt>
    <trkpt lat="38.49468098" lon="34.946692027">
      <ele>1356.706</ele>
      <time>2021-10-12T17:39:38Z</time>
    </trkpt>
    <trkpt lat="38.494706964" lon="34.946668977">
      <ele>1357.014</ele>
      <time>2021-10-12T17:39:39Z</time>
    </trkpt>
    <trkpt lat="38.494730014" lon="34.946643999">
      <ele>1357.13</ele>
      <time>2021-10-12T17:39:40Z</time>
    </trkpt>
    <trkpt lat="38.494753987" lon="34.94662296">
      <ele>1356.829</ele>
      <time>2021-10-12T17:39:41Z</time>
    </trkpt>
    <trkpt lat="38.494777959" lon="34.946602006">
      <ele>1356.527</ele>
      <time>2021-10-12T17:39:43Z</time>
    </trkpt>
    <trkpt lat="38.494800003" lon="34.946576022">
      <ele>1356.345</ele>
      <time>2021-10-12T17:39:44Z</time>
    </trkpt>
    <trkpt lat="38.494824981" lon="34.946546014">
      <ele>1356.148</ele>
      <time>2021-10-12T17:39:45Z</time>
    </trkpt>
    <trkpt lat="38.494843002" lon="34.946515001">
      <ele>1356.14</ele>
      <time>2021-10-12T17:39:46Z</time>
    </trkpt>
    <trkpt lat="38.49486798" lon="34.946481977">
      <ele>1355.986</ele>
      <time>2021-10-12T17:39:47Z</time>
    </trkpt>
    <trkpt lat="38.494909974" lon="34.946405031">
      <ele>1356.036</ele>
      <time>2021-10-12T17:39:50Z</time>
    </trkpt>
    <trkpt lat="38.494922966" lon="34.946362032">
      <ele>1356.258</ele>
      <time>2021-10-12T17:39:51Z</time>
    </trkpt>
    <trkpt lat="38.494931012" lon="34.946319032">
      <ele>1356.555</ele>
      <time>2021-10-12T17:39:53Z</time>
    </trkpt>
    <trkpt lat="38.494941993" lon="34.946278967">
      <ele>1356.732</ele>
      <time>2021-10-12T17:39:54Z</time>
    </trkpt>
    <trkpt lat="38.494952973" lon="34.946234962">
      <ele>1356.941</ele>
      <time>2021-10-12T17:39:55Z</time>
    </trkpt>
    <trkpt lat="38.494963031" lon="34.946191041">
      <ele>1357.163</ele>
      <time>2021-10-12T17:39:57Z</time>
    </trkpt>
    <trkpt lat="38.494970994" lon="34.946149969">
      <ele>1357.401</ele>
      <time>2021-10-12T17:39:58Z</time>
    </trkpt>
    <trkpt lat="38.494979041" lon="34.946108982">
      <ele>1357.641</ele>
      <time>2021-10-12T17:39:59Z</time>
    </trkpt>
    <trkpt lat="38.494989015" lon="34.946075035">
      <ele>1357.961</ele>
      <time>2021-10-12T17:40:00Z</time>
    </trkpt>
    <trkpt lat="38.495003013" lon="34.946044022">
      <ele>1358.178</ele>
      <time>2021-10-12T17:40:01Z</time>
    </trkpt>
    <trkpt lat="38.495017011" lon="34.946015021">
      <ele>1358.567</ele>
      <time>2021-10-12T17:40:02Z</time>
    </trkpt>
    <trkpt lat="38.495037965" lon="34.945989037">
      <ele>1358.847</ele>
      <time>2021-10-12T17:40:03Z</time>
    </trkpt>
    <trkpt lat="38.495057998" lon="34.945960036">
      <ele>1359.207</ele>
      <time>2021-10-12T17:40:04Z</time>
    </trkpt>
    <trkpt lat="38.495088005" lon="34.945942014">
      <ele>1359.286</ele>
      <time>2021-10-12T17:40:06Z</time>
    </trkpt>
    <trkpt lat="38.495118013" lon="34.945940003">
      <ele>1359.067</ele>
      <time>2021-10-12T17:40:07Z</time>
    </trkpt>
    <trkpt lat="38.495145002" lon="34.945944026">
      <ele>1358.755</ele>
      <time>2021-10-12T17:40:08Z</time>
    </trkpt>
    <trkpt lat="38.495253967" lon="34.946018038">
      <ele>1356.239</ele>
      <time>2021-10-12T17:40:12Z</time>
    </trkpt>
    <trkpt lat="38.495332003" lon="34.946092973">
      <ele>1354.587</ele>
      <time>2021-10-12T17:40:16Z</time>
    </trkpt>
    <trkpt lat="38.495430993" lon="34.946161034">
      <ele>1353.275</ele>
      <time>2021-10-12T17:40:20Z</time>
    </trkpt>
    <trkpt lat="38.495486984" lon="34.946189029">
      <ele>1352.648</ele>
      <time>2021-10-12T17:40:22Z</time>
    </trkpt>
    <trkpt lat="38.495519003" lon="34.946201015">
      <ele>1352.364</ele>
      <time>2021-10-12T17:40:24Z</time>
    </trkpt>
    <trkpt lat="38.495548004" lon="34.946209984">
      <ele>1352.145</ele>
      <time>2021-10-12T17:40:25Z</time>
    </trkpt>
    <trkpt lat="38.495581029" lon="34.946219958">
      <ele>1351.718</ele>
      <time>2021-10-12T17:40:26Z</time>
    </trkpt>
    <trkpt lat="38.495611036" lon="34.946217025">
      <ele>1351.626</ele>
      <time>2021-10-12T17:40:27Z</time>
    </trkpt>
    <trkpt lat="38.495641965" lon="34.946215013">
      <ele>1351.502</ele>
      <time>2021-10-12T17:40:28Z</time>
    </trkpt>
    <trkpt lat="38.495679013" lon="34.946217025">
      <ele>1351.23</ele>
      <time>2021-10-12T17:40:29Z</time>
    </trkpt>
    <trkpt lat="38.495714972" lon="34.946219958">
      <ele>1350.942</ele>
      <time>2021-10-12T17:40:31Z</time>
    </trkpt>
    <trkpt lat="38.495745985" lon="34.946222976">
      <ele>1350.683</ele>
      <time>2021-10-12T17:40:32Z</time>
    </trkpt>
    <trkpt lat="38.495778004" lon="34.946232028">
      <ele>1350.265</ele>
      <time>2021-10-12T17:40:33Z</time>
    </trkpt>
    <trkpt lat="38.495811028" lon="34.946239991">
      <ele>1349.876</ele>
      <time>2021-10-12T17:40:34Z</time>
    </trkpt>
    <trkpt lat="38.495848998" lon="34.94624502">
      <ele>1349.454</ele>
      <time>2021-10-12T17:40:36Z</time>
    </trkpt>
    <trkpt lat="38.495882023" lon="34.946251977">
      <ele>1348.927</ele>
      <time>2021-10-12T17:40:37Z</time>
    </trkpt>
    <trkpt lat="38.495913036" lon="34.946257006">
      <ele>1348.477</ele>
      <time>2021-10-12T17:40:38Z</time>
    </trkpt>
    <trkpt lat="38.495945977" lon="34.94626103">
      <ele>1348.038</ele>
      <time>2021-10-12T17:40:39Z</time>
    </trkpt>
    <trkpt lat="38.495985037" lon="34.946263963">
      <ele>1347.565</ele>
      <time>2021-10-12T17:40:41Z</time>
    </trkpt>
    <trkpt lat="38.496017978" lon="34.946265975">
      <ele>1347.18</ele>
      <time>2021-10-12T17:40:42Z</time>
    </trkpt>
    <trkpt lat="38.496052008" lon="34.946274022">
      <ele>1346.669</ele>
      <time>2021-10-12T17:40:43Z</time>
    </trkpt>
    <trkpt lat="38.496083021" lon="34.946289025">
      <ele>1346.073</ele>
      <time>2021-10-12T17:40:45Z</time>
    </trkpt>
    <trkpt lat="38.496109005" lon="34.946319032">
      <ele>1345.276</ele>
      <time>2021-10-12T17:40:46Z</time>
    </trkpt>
    <trkpt lat="38.496128032" lon="34.946361026">
      <ele>1344.374</ele>
      <time>2021-10-12T17:40:47Z</time>
    </trkpt>
    <trkpt lat="38.496148987" lon="34.946402013">
      <ele>1343.538</ele>
      <time>2021-10-12T17:40:49Z</time>
    </trkpt>
    <trkpt lat="38.496147981" lon="34.946521958">
      <ele>1341.818</ele>
      <time>2021-10-12T17:40:52Z</time>
    </trkpt>
    <trkpt lat="38.496157033" lon="34.946593037">
      <ele>1340.73</ele>
      <time>2021-10-12T17:40:54Z</time>
    </trkpt>
    <trkpt lat="38.496162985" lon="34.946631007">
      <ele>1340.14</ele>
      <time>2021-10-12T17:40:55Z</time>
    </trkpt>
    <trkpt lat="38.496171031" lon="34.946665959">
      <ele>1339.579</ele>
      <time>2021-10-12T17:40:57Z</time>
    </trkpt>
    <trkpt lat="38.496178994" lon="34.946700996">
      <ele>1338.954</ele>
      <time>2021-10-12T17:40:58Z</time>
    </trkpt>
    <trkpt lat="38.496188968" lon="34.946740977">
      <ele>1338.252</ele>
      <time>2021-10-12T17:40:59Z</time>
    </trkpt>
    <trkpt lat="38.496198021" lon="34.946776014">
      <ele>1337.652</ele>
      <time>2021-10-12T17:41:00Z</time>
    </trkpt>
    <trkpt lat="38.496205984" lon="34.946815995">
      <ele>1336.996</ele>
      <time>2021-10-12T17:41:01Z</time>
    </trkpt>
    <trkpt lat="38.496213024" lon="34.94685296">
      <ele>1336.405</ele>
      <time>2021-10-12T17:41:02Z</time>
    </trkpt>
    <trkpt lat="38.496220987" lon="34.946889002">
      <ele>1335.84</ele>
      <time>2021-10-12T17:41:03Z</time>
    </trkpt>
    <trkpt lat="38.496227022" lon="34.946927978">
      <ele>1335.247</ele>
      <time>2021-10-12T17:41:04Z</time>
    </trkpt>
    <trkpt lat="38.496230962" lon="34.946971983">
      <ele>1334.646</ele>
      <time>2021-10-12T17:41:06Z</time>
    </trkpt>
    <trkpt lat="38.496233979" lon="34.947014982">
      <ele>1334.097</ele>
      <time>2021-10-12T17:41:07Z</time>
    </trkpt>
    <trkpt lat="38.496236997" lon="34.947059993">
      <ele>1333.525</ele>
      <time>2021-10-12T17:41:08Z</time>
    </trkpt>
    <trkpt lat="38.496238003" lon="34.947106009">
      <ele>1332.939</ele>
      <time>2021-10-12T17:41:10Z</time>
    </trkpt>
    <trkpt lat="38.496236997" lon="34.947152026">
      <ele>1332.349</ele>
      <time>2021-10-12T17:41:11Z</time>
    </trkpt>
    <trkpt lat="38.496234985" lon="34.947198965">
      <ele>1331.744</ele>
      <time>2021-10-12T17:41:12Z</time>
    </trkpt>
    <trkpt lat="38.496236997" lon="34.947241964">
      <ele>1331.279</ele>
      <time>2021-10-12T17:41:14Z</time>
    </trkpt>
    <trkpt lat="38.496242026" lon="34.947275994">
      <ele>1330.993</ele>
      <time>2021-10-12T17:41:15Z</time>
    </trkpt>
    <trkpt lat="38.496222" lon="34.947295">
      <ele>1330.771</ele>
      <time>2021-10-12T17:41:16Z</time>
    </trkpt>
    <trkpt lat="38.496197" lon="34.947306">
      <ele>1330.613</ele>
      <time>2021-10-12T17:41:17Z</time>
    </trkpt>
    <trkpt lat="38.496152135" lon="34.947367156">
      <ele>1330.027</ele>
      <time>2021-10-12T17:41:19Z</time>
    </trkpt>
    <trkpt lat="38.495980606" lon="34.947449531">
      <ele>1329.449</ele>
      <time>2021-10-12T17:41:26Z</time>
    </trkpt>
    <trkpt lat="38.495823651" lon="34.947465333">
      <ele>1329.448</ele>
      <time>2021-10-12T17:41:32Z</time>
    </trkpt>
    <trkpt lat="38.495730283" lon="34.947543071">
      <ele>1329.317</ele>
      <time>2021-10-12T17:41:36Z</time>
    </trkpt>
    <trkpt lat="38.495648496" lon="34.947679838">
      <ele>1328.174</ele>
      <time>2021-10-12T17:41:41Z</time>
    </trkpt>
    <trkpt lat="38.495601792" lon="34.947822415">
      <ele>1326.813</ele>
      <time>2021-10-12T17:41:45Z</time>
    </trkpt>
    <trkpt lat="38.495591182" lon="34.947921659">
      <ele>1326.416</ele>
      <time>2021-10-12T17:41:48Z</time>
    </trkpt>
    <trkpt lat="38.495659636" lon="34.948106275">
      <ele>1325.374</ele>
      <time>2021-10-12T17:41:54Z</time>
    </trkpt>
    <trkpt lat="38.495726991" lon="34.948356185">
      <ele>1323.633</ele>
      <time>2021-10-12T17:42:02Z</time>
    </trkpt>
    <trkpt lat="38.495784454" lon="34.948524612">
      <ele>1322.096</ele>
      <time>2021-10-12T17:42:07Z</time>
    </trkpt>
    <trkpt lat="38.495823756" lon="34.948685663">
      <ele>1320.557</ele>
      <time>2021-10-12T17:42:12Z</time>
    </trkpt>
    <trkpt lat="38.495749" lon="34.948741">
      <ele>1320.834</ele>
      <time>2021-10-12T17:42:15Z</time>
    </trkpt>
    <trkpt lat="38.495676" lon="34.948839">
      <ele>1320.594</ele>
      <time>2021-10-12T17:42:19Z</time>
    </trkpt>
    <trkpt lat="38.495625" lon="34.94894">
      <ele>1320.178</ele>
      <time>2021-10-12T17:42:23Z</time>
    </trkpt>
    <trkpt lat="38.495603" lon="34.949183">
      <ele>1318.712</ele>
      <time>2021-10-12T17:42:30Z</time>
    </trkpt>
    <trkpt lat="38.49566008" lon="34.949304339">
      <ele>1317.632</ele>
      <time>2021-10-12T17:42:34Z</time>
    </trkpt>
    <trkpt lat="38.495787027" lon="34.949398589">
      <ele>1316.497</ele>
      <time>2021-10-12T17:42:39Z</time>
    </trkpt>
    <trkpt lat="38.495886396" lon="34.949526091">
      <ele>1315.333</ele>
      <time>2021-10-12T17:42:44Z</time>
    </trkpt>
    <trkpt lat="38.495902245" lon="34.949761394">
      <ele>1313.931</ele>
      <time>2021-10-12T17:42:51Z</time>
    </trkpt>
    <trkpt lat="38.495920271" lon="34.949836991">
      <ele>1313.357</ele>
      <time>2021-10-12T17:42:54Z</time>
    </trkpt>
    <trkpt lat="38.495943965" lon="34.950030036">
      <ele>1311.611</ele>
      <time>2021-10-12T17:42:59Z</time>
    </trkpt>
    <trkpt lat="38.495999032" lon="34.950131493">
      <ele>1310.389</ele>
      <time>2021-10-12T17:43:03Z</time>
    </trkpt>
    <trkpt lat="38.496015945" lon="34.950254494">
      <ele>1308.938</ele>
      <time>2021-10-12T17:43:07Z</time>
    </trkpt>
    <trkpt lat="38.496013445" lon="34.950360242">
      <ele>1307.862</ele>
      <time>2021-10-12T17:43:10Z</time>
    </trkpt>
    <trkpt lat="38.49598797" lon="34.95049498">
      <ele>1306.558</ele>
      <time>2021-10-12T17:43:14Z</time>
    </trkpt>
    <trkpt lat="38.495961986" lon="34.950640993">
      <ele>1305.692</ele>
      <time>2021-10-12T17:43:18Z</time>
    </trkpt>
    <trkpt lat="38.495958969" lon="34.950678963">
      <ele>1305.556</ele>
      <time>2021-10-12T17:43:19Z</time>
    </trkpt>
    <trkpt lat="38.495944971" lon="34.950763034">
      <ele>1305.253</ele>
      <time>2021-10-12T17:43:22Z</time>
    </trkpt>
    <trkpt lat="38.495936003" lon="34.950806033">
      <ele>1305.098</ele>
      <time>2021-10-12T17:43:23Z</time>
    </trkpt>
    <trkpt lat="38.495933991" lon="34.950846015">
      <ele>1304.938</ele>
      <time>2021-10-12T17:43:24Z</time>
    </trkpt>
    <trkpt lat="38.495903984" lon="34.95099999">
      <ele>1304.247</ele>
      <time>2021-10-12T17:43:29Z</time>
    </trkpt>
    <trkpt lat="38.495881017" lon="34.951121025">
      <ele>1303.799</ele>
      <time>2021-10-12T17:43:32Z</time>
    </trkpt>
    <trkpt lat="38.49586702" lon="34.951255973">
      <ele>1303.42</ele>
      <time>2021-10-12T17:43:36Z</time>
    </trkpt>
    <trkpt lat="38.495858973" lon="34.951380026">
      <ele>1303.029</ele>
      <time>2021-10-12T17:43:40Z</time>
    </trkpt>
    <trkpt lat="38.495856039" lon="34.95146703">
      <ele>1303.258</ele>
      <time>2021-10-12T17:43:42Z</time>
    </trkpt>
    <trkpt lat="38.495826032" lon="34.951610025">
      <ele>1303.854</ele>
      <time>2021-10-12T17:43:47Z</time>
    </trkpt>
    <trkpt lat="38.495797031" lon="34.951736005">
      <ele>1304.478</ele>
      <time>2021-10-12T17:43:51Z</time>
    </trkpt>
    <trkpt lat="38.495755959" lon="34.951846981">
      <ele>1305.025</ele>
      <time>2021-10-12T17:43:54Z</time>
    </trkpt>
    <trkpt lat="38.495696029" lon="34.951946978">
      <ele>1305.485</ele>
      <time>2021-10-12T17:43:58Z</time>
    </trkpt>
    <trkpt lat="38.495628973" lon="34.952045968">
      <ele>1305.198</ele>
      <time>2021-10-12T17:44:02Z</time>
    </trkpt>
    <trkpt lat="38.495574994" lon="34.952098019">
      <ele>1304.902</ele>
      <time>2021-10-12T17:44:04Z</time>
    </trkpt>
    <trkpt lat="38.49554901" lon="34.952120986">
      <ele>1304.767</ele>
      <time>2021-10-12T17:44:05Z</time>
    </trkpt>
    <trkpt lat="38.495525038" lon="34.952145964">
      <ele>1304.739</ele>
      <time>2021-10-12T17:44:06Z</time>
    </trkpt>
    <trkpt lat="38.495476004" lon="34.952179994">
      <ele>1304.833</ele>
      <time>2021-10-12T17:44:08Z</time>
    </trkpt>
    <trkpt lat="38.495440967" lon="34.952194998">
      <ele>1304.981</ele>
      <time>2021-10-12T17:44:10Z</time>
    </trkpt>
    <trkpt lat="38.495410038" lon="34.952203967">
      <ele>1305.145</ele>
      <time>2021-10-12T17:44:11Z</time>
    </trkpt>
    <trkpt lat="38.495377013" lon="34.952216037">
      <ele>1305.316</ele>
      <time>2021-10-12T17:44:12Z</time>
    </trkpt>
    <trkpt lat="38.495319011" lon="34.952214025">
      <ele>1305.737</ele>
      <time>2021-10-12T17:44:14Z</time>
    </trkpt>
    <trkpt lat="38.495210968" lon="34.952165997">
      <ele>1306.635</ele>
      <time>2021-10-12T17:44:19Z</time>
    </trkpt>
    <trkpt lat="38.495094962" lon="34.952155016">
      <ele>1307.399</ele>
      <time>2021-10-12T17:44:23Z</time>
    </trkpt>
    <trkpt lat="38.494980969" lon="34.95215904">
      <ele>1308.016</ele>
      <time>2021-10-12T17:44:27Z</time>
    </trkpt>
    <trkpt lat="38.494925983" lon="34.952118974">
      <ele>1308.099</ele>
      <time>2021-10-12T17:44:29Z</time>
    </trkpt>
    <trkpt lat="38.494892037" lon="34.952093996">
      <ele>1308.179</ele>
      <time>2021-10-12T17:44:31Z</time>
    </trkpt>
    <trkpt lat="38.494864041" lon="34.952073963">
      <ele>1308.261</ele>
      <time>2021-10-12T17:44:32Z</time>
    </trkpt>
    <trkpt lat="38.494838979" lon="34.952054014">
      <ele>1308.351</ele>
      <time>2021-10-12T17:44:33Z</time>
    </trkpt>
    <trkpt lat="38.494759016" lon="34.952001041">
      <ele>1308.691</ele>
      <time>2021-10-12T17:44:37Z</time>
    </trkpt>
    <trkpt lat="38.494700007" lon="34.951980002">
      <ele>1308.962</ele>
      <time>2021-10-12T17:44:39Z</time>
    </trkpt>
    <trkpt lat="38.494666982" lon="34.951962987">
      <ele>1309.145</ele>
      <time>2021-10-12T17:44:40Z</time>
    </trkpt>
    <trkpt lat="38.494635969" lon="34.951949995">
      <ele>1309.297</ele>
      <time>2021-10-12T17:44:41Z</time>
    </trkpt>
    <trkpt lat="38.494610991" lon="34.951945972">
      <ele>1309.397</ele>
      <time>2021-10-12T17:44:42Z</time>
    </trkpt>
    <trkpt lat="38.494579978" lon="34.951938009">
      <ele>1309.512</ele>
      <time>2021-10-12T17:44:43Z</time>
    </trkpt>
    <trkpt lat="38.494498003" lon="34.951925017">
      <ele>1309.807</ele>
      <time>2021-10-12T17:44:47Z</time>
    </trkpt>
    <trkpt lat="38.494474031" lon="34.951928034">
      <ele>1309.893</ele>
      <time>2021-10-12T17:44:47Z</time>
    </trkpt>
    <trkpt lat="38.494383004" lon="34.951976985">
      <ele>1310.612</ele>
      <time>2021-10-12T17:44:51Z</time>
    </trkpt>
    <trkpt lat="38.494292982" lon="34.952043034">
      <ele>1311.249</ele>
      <time>2021-10-12T17:44:55Z</time>
    </trkpt>
    <trkpt lat="38.494190974" lon="34.952101959">
      <ele>1311.703</ele>
      <time>2021-10-12T17:44:59Z</time>
    </trkpt>
    <trkpt lat="38.494128026" lon="34.952132972">
      <ele>1311.598</ele>
      <time>2021-10-12T17:45:02Z</time>
    </trkpt>
    <trkpt lat="38.494098019" lon="34.952147976">
      <ele>1311.469</ele>
      <time>2021-10-12T17:45:03Z</time>
    </trkpt>
    <trkpt lat="38.494068012" lon="34.952168008">
      <ele>1311.321</ele>
      <time>2021-10-12T17:45:04Z</time>
    </trkpt>
    <trkpt lat="38.494040016" lon="34.952189969">
      <ele>1311.179</ele>
      <time>2021-10-12T17:45:05Z</time>
    </trkpt>
    <trkpt lat="38.494014032" lon="34.952216959">
      <ele>1311.027</ele>
      <time>2021-10-12T17:45:06Z</time>
    </trkpt>
    <trkpt lat="38.493984025" lon="34.952242021">
      <ele>1310.857</ele>
      <time>2021-10-12T17:45:08Z</time>
    </trkpt>
    <trkpt lat="38.493958041" lon="34.952265993">
      <ele>1310.685</ele>
      <time>2021-10-12T17:45:09Z</time>
    </trkpt>
    <trkpt lat="38.493933985" lon="34.952289965">
      <ele>1310.512</ele>
      <time>2021-10-12T17:45:10Z</time>
    </trkpt>
    <trkpt lat="38.493903978" lon="34.952305974">
      <ele>1310.397</ele>
      <time>2021-10-12T17:45:11Z</time>
    </trkpt>
    <trkpt lat="38.493879" lon="34.952318966">
      <ele>1310.173</ele>
      <time>2021-10-12T17:45:12Z</time>
    </trkpt>
    <trkpt lat="38.493849998" lon="34.952330031">
      <ele>1309.718</ele>
      <time>2021-10-12T17:45:13Z</time>
    </trkpt>
    <trkpt lat="38.493824014" lon="34.952341011">
      <ele>1309.31</ele>
      <time>2021-10-12T17:45:14Z</time>
    </trkpt>
    <trkpt lat="38.493798031" lon="34.952354003">
      <ele>1308.898</ele>
      <time>2021-10-12T17:45:15Z</time>
    </trkpt>
    <trkpt lat="38.493771963" lon="34.952368001">
      <ele>1308.488</ele>
      <time>2021-10-12T17:45:17Z</time>
    </trkpt>
    <trkpt lat="38.493745979" lon="34.952383004">
      <ele>1308.082</ele>
      <time>2021-10-12T17:45:18Z</time>
    </trkpt>
    <trkpt lat="38.493718989" lon="34.952402031">
      <ele>1307.655</ele>
      <time>2021-10-12T17:45:19Z</time>
    </trkpt>
    <trkpt lat="38.493670961" lon="34.952442013">
      <ele>1306.9</ele>
      <time>2021-10-12T17:45:21Z</time>
    </trkpt>
    <trkpt lat="38.493643971" lon="34.952463973">
      <ele>1306.5</ele>
      <time>2021-10-12T17:45:22Z</time>
    </trkpt>
    <trkpt lat="38.493615976" lon="34.952486018">
      <ele>1306.104</ele>
      <time>2021-10-12T17:45:23Z</time>
    </trkpt>
    <trkpt lat="38.493589992" lon="34.952510996">
      <ele>1305.997</ele>
      <time>2021-10-12T17:45:24Z</time>
    </trkpt>
    <trkpt lat="38.493566019" lon="34.952532034">
      <ele>1305.981</ele>
      <time>2021-10-12T17:45:26Z</time>
    </trkpt>
    <trkpt lat="38.493540036" lon="34.952555001">
      <ele>1305.949</ele>
      <time>2021-10-12T17:45:27Z</time>
    </trkpt>
    <trkpt lat="38.493515979" lon="34.952580985">
      <ele>1305.9</ele>
      <time>2021-10-12T17:45:28Z</time>
    </trkpt>
    <trkpt lat="38.493495025" lon="34.952607974">
      <ele>1305.838</ele>
      <time>2021-10-12T17:45:29Z</time>
    </trkpt>
    <trkpt lat="38.493410032" lon="34.952707971">
      <ele>1305.458</ele>
      <time>2021-10-12T17:45:33Z</time>
    </trkpt>
    <trkpt lat="38.493376002" lon="34.952769997">
      <ele>1305.177</ele>
      <time>2021-10-12T17:45:35Z</time>
    </trkpt>
    <trkpt lat="38.493356975" lon="34.952802015">
      <ele>1305.078</ele>
      <time>2021-10-12T17:45:37Z</time>
    </trkpt>
    <trkpt lat="38.49333602" lon="34.952835962">
      <ele>1305.008</ele>
      <time>2021-10-12T17:45:38Z</time>
    </trkpt>
    <trkpt lat="38.493317999" lon="34.952866975">
      <ele>1305.073</ele>
      <time>2021-10-12T17:45:39Z</time>
    </trkpt>
    <trkpt lat="38.493299978" lon="34.952896982">
      <ele>1305.172</ele>
      <time>2021-10-12T17:45:40Z</time>
    </trkpt>
    <trkpt lat="38.493278017" lon="34.952930007">
      <ele>1305.308</ele>
      <time>2021-10-12T17:45:41Z</time>
    </trkpt>
    <trkpt lat="38.493254967" lon="34.952958003">
      <ele>1305.465</ele>
      <time>2021-10-12T17:45:43Z</time>
    </trkpt>
    <trkpt lat="38.493196964" lon="34.953042995">
      <ele>1305.96</ele>
      <time>2021-10-12T17:45:46Z</time>
    </trkpt>
    <trkpt lat="38.49317601" lon="34.953080965">
      <ele>1306.133</ele>
      <time>2021-10-12T17:45:47Z</time>
    </trkpt>
    <trkpt lat="38.493161006" lon="34.953111978">
      <ele>1306.241</ele>
      <time>2021-10-12T17:45:48Z</time>
    </trkpt>
    <trkpt lat="38.493142985" lon="34.95313704">
      <ele>1306.371</ele>
      <time>2021-10-12T17:45:49Z</time>
    </trkpt>
    <trkpt lat="38.49312203" lon="34.953159001">
      <ele>1306.521</ele>
      <time>2021-10-12T17:45:50Z</time>
    </trkpt>
    <trkpt lat="38.493104009" lon="34.953179033">
      <ele>1306.651</ele>
      <time>2021-10-12T17:45:51Z</time>
    </trkpt>
    <trkpt lat="38.493083976" lon="34.953202">
      <ele>1306.795</ele>
      <time>2021-10-12T17:45:52Z</time>
    </trkpt>
    <trkpt lat="38.493067967" lon="34.953227984">
      <ele>1306.911</ele>
      <time>2021-10-12T17:45:53Z</time>
    </trkpt>
    <trkpt lat="38.493053969" lon="34.953255979">
      <ele>1307.011</ele>
      <time>2021-10-12T17:45:54Z</time>
    </trkpt>
    <trkpt lat="38.493037038" lon="34.953287998">
      <ele>1307.133</ele>
      <time>2021-10-12T17:45:55Z</time>
    </trkpt>
    <trkpt lat="38.493009964" lon="34.953310965">
      <ele>1307.328</ele>
      <time>2021-10-12T17:45:56Z</time>
    </trkpt>
    <trkpt lat="38.492981968" lon="34.953338038">
      <ele>1307.513</ele>
      <time>2021-10-12T17:45:58Z</time>
    </trkpt>
    <trkpt lat="38.492959002" lon="34.953366034">
      <ele>1307.577</ele>
      <time>2021-10-12T17:45:59Z</time>
    </trkpt>
    <trkpt lat="38.492937041" lon="34.953396041">
      <ele>1307.628</ele>
      <time>2021-10-12T17:46:00Z</time>
    </trkpt>
    <trkpt lat="38.492916003" lon="34.953423031">
      <ele>1307.682</ele>
      <time>2021-10-12T17:46:01Z</time>
    </trkpt>
    <trkpt lat="38.49289597" lon="34.953452032">
      <ele>1307.722</ele>
      <time>2021-10-12T17:46:02Z</time>
    </trkpt>
    <trkpt lat="38.492876021" lon="34.953478016">
      <ele>1307.772</ele>
      <time>2021-10-12T17:46:03Z</time>
    </trkpt>
    <trkpt lat="38.492851965" lon="34.953505006">
      <ele>1307.848</ele>
      <time>2021-10-12T17:46:04Z</time>
    </trkpt>
    <trkpt lat="38.49283101" lon="34.953527972">
      <ele>1307.916</ele>
      <time>2021-10-12T17:46:05Z</time>
    </trkpt>
    <trkpt lat="38.492809972" lon="34.953546999">
      <ele>1307.999</ele>
      <time>2021-10-12T17:46:06Z</time>
    </trkpt>
    <trkpt lat="38.492784994" lon="34.953570971">
      <ele>1308.093</ele>
      <time>2021-10-12T17:46:08Z</time>
    </trkpt>
    <trkpt lat="38.492762027" lon="34.95359201">
      <ele>1308.129</ele>
      <time>2021-10-12T17:46:09Z</time>
    </trkpt>
    <trkpt lat="38.492739983" lon="34.953611959">
      <ele>1308.133</ele>
      <time>2021-10-12T17:46:10Z</time>
    </trkpt>
    <trkpt lat="38.492713999" lon="34.953624029">
      <ele>1308.183</ele>
      <time>2021-10-12T17:46:11Z</time>
    </trkpt>
    <trkpt lat="38.492689021" lon="34.953642972">
      <ele>1308.205</ele>
      <time>2021-10-12T17:46:12Z</time>
    </trkpt>
    <trkpt lat="38.49265499" lon="34.953666022">
      <ele>1308.244</ele>
      <time>2021-10-12T17:46:13Z</time>
    </trkpt>
    <trkpt lat="38.492625989" lon="34.953688988">
      <ele>1308.266</ele>
      <time>2021-10-12T17:46:14Z</time>
    </trkpt>
    <trkpt lat="38.492596988" lon="34.953713967">
      <ele>1308.281</ele>
      <time>2021-10-12T17:46:16Z</time>
    </trkpt>
    <trkpt lat="38.492573015" lon="34.953729976">
      <ele>1308.309</ele>
      <time>2021-10-12T17:46:17Z</time>
    </trkpt>
    <trkpt lat="38.492544014" lon="34.953749003">
      <ele>1308.345</ele>
      <time>2021-10-12T17:46:18Z</time>
    </trkpt>
    <trkpt lat="38.492516018" lon="34.953760989">
      <ele>1308.403</ele>
      <time>2021-10-12T17:46:19Z</time>
    </trkpt>
    <trkpt lat="38.492484" lon="34.953778004">
      <ele>1308.434</ele>
      <time>2021-10-12T17:46:20Z</time>
    </trkpt>
    <trkpt lat="38.492456004" lon="34.953790996">
      <ele>1308.455</ele>
      <time>2021-10-12T17:46:21Z</time>
    </trkpt>
    <trkpt lat="38.49243002" lon="34.953806">
      <ele>1308.475</ele>
      <time>2021-10-12T17:46:22Z</time>
    </trkpt>
    <trkpt lat="38.492405964" lon="34.953819998">
      <ele>1308.503</ele>
      <time>2021-10-12T17:46:23Z</time>
    </trkpt>
    <trkpt lat="38.492378974" lon="34.953831984">
      <ele>1308.551</ele>
      <time>2021-10-12T17:46:25Z</time>
    </trkpt>
    <trkpt lat="38.492359025" lon="34.95384397">
      <ele>1308.587</ele>
      <time>2021-10-12T17:46:25Z</time>
    </trkpt>
    <trkpt lat="38.492337987" lon="34.95385604">
      <ele>1308.633</ele>
      <time>2021-10-12T17:46:26Z</time>
    </trkpt>
    <trkpt lat="38.492312003" lon="34.953866014">
      <ele>1308.703</ele>
      <time>2021-10-12T17:46:27Z</time>
    </trkpt>
    <trkpt lat="38.492281996" lon="34.953874983">
      <ele>1308.796</ele>
      <time>2021-10-12T17:46:28Z</time>
    </trkpt>
    <trkpt lat="38.492246959" lon="34.95389401">
      <ele>1308.911</ele>
      <time>2021-10-12T17:46:30Z</time>
    </trkpt>
    <trkpt lat="38.492218042" lon="34.953902978">
      <ele>1309.0</ele>
      <time>2021-10-12T17:46:31Z</time>
    </trkpt>
    <trkpt lat="38.492189962" lon="34.953909013">
      <ele>1309.0</ele>
      <time>2021-10-12T17:46:32Z</time>
    </trkpt>
    <trkpt lat="38.492160039" lon="34.953913959">
      <ele>1309.0</ele>
      <time>2021-10-12T17:46:33Z</time>
    </trkpt>
    <trkpt lat="38.492047973" lon="34.953929968">
      <ele>1309.0</ele>
      <time>2021-10-12T17:46:37Z</time>
    </trkpt>
    <trkpt lat="38.491973961" lon="34.953998029">
      <ele>1309.0</ele>
      <time>2021-10-12T17:46:41Z</time>
    </trkpt>
    <trkpt lat="38.491872037" lon="34.954052009">
      <ele>1309.368</ele>
      <time>2021-10-12T17:46:45Z</time>
    </trkpt>
    <trkpt lat="38.491767012" lon="34.95411898">
      <ele>1309.748</ele>
      <time>2021-10-12T17:46:49Z</time>
    </trkpt>
    <trkpt lat="38.49167699" lon="34.954172038">
      <ele>1309.925</ele>
      <time>2021-10-12T17:46:53Z</time>
    </trkpt>
    <trkpt lat="38.491569031" lon="34.954211013">
      <ele>1310.032</ele>
      <time>2021-10-12T17:46:57Z</time>
    </trkpt>
    <trkpt lat="38.49150097" lon="34.954235991">
      <ele>1310.097</ele>
      <time>2021-10-12T17:46:59Z</time>
    </trkpt>
    <trkpt lat="38.491470041" lon="34.954245966">
      <ele>1310.137</ele>
      <time>2021-10-12T17:47:01Z</time>
    </trkpt>
    <trkpt lat="38.491439028" lon="34.954258036">
      <ele>1310.162</ele>
      <time>2021-10-12T17:47:02Z</time>
    </trkpt>
    <trkpt lat="38.491400974" lon="34.954271028">
      <ele>1310.205</ele>
      <time>2021-10-12T17:47:03Z</time>
    </trkpt>
    <trkpt lat="38.491369039" lon="34.954278991">
      <ele>1310.22</ele>
      <time>2021-10-12T17:47:04Z</time>
    </trkpt>
    <trkpt lat="38.491309024" lon="34.954298018">
      <ele>1310.19</ele>
      <time>2021-10-12T17:47:07Z</time>
    </trkpt>
    <trkpt lat="38.491281029" lon="34.954306986">
      <ele>1310.186</ele>
      <time>2021-10-12T17:47:08Z</time>
    </trkpt>
    <trkpt lat="38.491254961" lon="34.954315033">
      <ele>1310.189</ele>
      <time>2021-10-12T17:47:09Z</time>
    </trkpt>
    <trkpt lat="38.491234006" lon="34.954325007">
      <ele>1310.178</ele>
      <time>2021-10-12T17:47:10Z</time>
    </trkpt>
    <trkpt lat="38.491210034" lon="34.954333976">
      <ele>1310.183</ele>
      <time>2021-10-12T17:47:11Z</time>
    </trkpt>
    <trkpt lat="38.491186984" lon="34.95434504">
      <ele>1310.182</ele>
      <time>2021-10-12T17:47:12Z</time>
    </trkpt>
    <trkpt lat="38.491165023" lon="34.95435996">
      <ele>1310.169</ele>
      <time>2021-10-12T17:47:12Z</time>
    </trkpt>
    <trkpt lat="38.491144991" lon="34.954377981">
      <ele>1310.146</ele>
      <time>2021-10-12T17:47:13Z</time>
    </trkpt>
    <trkpt lat="38.490972499" lon="34.954611247">
      <ele>1310.0</ele>
      <time>2021-10-12T17:47:23Z</time>
    </trkpt>
    <trkpt lat="38.49094441" lon="34.954795005">
      <ele>1310.0</ele>
      <time>2021-10-12T17:47:28Z</time>
    </trkpt>
    <trkpt lat="38.490755004" lon="34.955066853">
      <ele>1310.173</ele>
      <time>2021-10-12T17:47:39Z</time>
    </trkpt>
    <trkpt lat="38.490640121" lon="34.955694092">
      <ele>1313.649</ele>
      <time>2021-10-12T17:47:57Z</time>
    </trkpt>
    <trkpt lat="38.490537198" lon="34.956081489">
      <ele>1315.761</ele>
      <time>2021-10-12T17:48:09Z</time>
    </trkpt>
    <trkpt lat="38.490383335" lon="34.956663242">
      <ele>1313.637</ele>
      <time>2021-10-12T17:48:27Z</time>
    </trkpt>
    <trkpt lat="38.490260454" lon="34.95717093">
      <ele>1312.938</ele>
      <time>2021-10-12T17:48:43Z</time>
    </trkpt>
    <trkpt lat="38.490266487" lon="34.957712686">
      <ele>1314.756</ele>
      <time>2021-10-12T17:48:58Z</time>
    </trkpt>
    <trkpt lat="38.490346313" lon="34.958400441">
      <ele>1317.06</ele>
      <time>2021-10-12T17:49:19Z</time>
    </trkpt>
    <trkpt lat="38.490292228" lon="34.959088521">
      <ele>1317.089</ele>
      <time>2021-10-12T17:49:39Z</time>
    </trkpt>
    <trkpt lat="38.490181571" lon="34.959409555">
      <ele>1317.874</ele>
      <time>2021-10-12T17:49:49Z</time>
    </trkpt>
    <trkpt lat="38.489930738" lon="34.95999993">
      <ele>1320.0</ele>
      <time>2021-10-12T17:50:08Z</time>
    </trkpt>
    <trkpt lat="38.489727067" lon="34.960518951">
      <ele>1322.721</ele>
      <time>2021-10-12T17:50:25Z</time>
    </trkpt>
    <trkpt lat="38.489435388" lon="34.961269226">
      <ele>1326.218</ele>
      <time>2021-10-12T17:50:50Z</time>
    </trkpt>
    <trkpt lat="38.489202279" lon="34.962346163">
      <ele>1336.76</ele>
      <time>2021-10-12T17:51:22Z</time>
    </trkpt>
    <trkpt lat="38.48920777" lon="34.96373772">
      <ele>1343.071</ele>
      <time>2021-10-12T17:52:03Z</time>
    </trkpt>
    <trkpt lat="38.489223378" lon="34.964525977">
      <ele>1345.856</ele>
      <time>2021-10-12T17:52:25Z</time>
    </trkpt>
    <trkpt lat="38.489368321" lon="34.965173433">
      <ele>1347.975</ele>
      <time>2021-10-12T17:52:45Z</time>
    </trkpt>
    <trkpt lat="38.4894821" lon="34.965691109">
      <ele>1352.352</ele>
      <time>2021-10-12T17:53:01Z</time>
    </trkpt>
    <trkpt lat="38.489610831" lon="34.966224544">
      <ele>1354.462</ele>
      <time>2021-10-12T17:53:17Z</time>
    </trkpt>
    <trkpt lat="38.489680171" lon="34.966849415">
      <ele>1361.065</ele>
      <time>2021-10-12T17:53:35Z</time>
    </trkpt>
    <trkpt lat="38.489753414" lon="34.967388579">
      <ele>1362.903</ele>
      <time>2021-10-12T17:53:51Z</time>
    </trkpt>
    <trkpt lat="38.489715763" lon="34.967721261">
      <ele>1363.972</ele>
      <time>2021-10-12T17:54:01Z</time>
    </trkpt>
    <trkpt lat="38.489882559" lon="34.968244359">
      <ele>1369.197</ele>
      <time>2021-10-12T17:54:17Z</time>
    </trkpt>
    <trkpt lat="38.489965649" lon="34.968803542">
      <ele>1378.374</ele>
      <time>2021-10-12T17:54:34Z</time>
    </trkpt>
    <trkpt lat="38.490151668" lon="34.969101622">
      <ele>1384.134</ele>
      <time>2021-10-12T17:54:45Z</time>
    </trkpt>
    <trkpt lat="38.490460346" lon="34.969261102">
      <ele>1388.914</ele>
      <time>2021-10-12T17:54:57Z</time>
    </trkpt>
    <trkpt lat="38.490659271" lon="34.969332167">
      <ele>1391.544</ele>
      <time>2021-10-12T17:55:05Z</time>
    </trkpt>
    <trkpt lat="38.490825655" lon="34.969397208">
      <ele>1393.782</ele>
      <time>2021-10-12T17:55:11Z</time>
    </trkpt>
    <trkpt lat="38.490906009" lon="34.969514437">
      <ele>1398.258</ele>
      <time>2021-10-12T17:55:16Z</time>
    </trkpt>
    <trkpt lat="38.490784247" lon="34.969645115">
      <ele>1400.347</ele>
      <time>2021-10-12T17:55:22Z</time>
    </trkpt>
    <trkpt lat="38.490635368" lon="34.969838797">
      <ele>1404.277</ele>
      <time>2021-10-12T17:55:30Z</time>
    </trkpt>
    <trkpt lat="38.490511849" lon="34.969986008">
      <ele>1407.784</ele>
      <time>2021-10-12T17:55:36Z</time>
    </trkpt>
    <trkpt lat="38.490397551" lon="34.970288175">
      <ele>1412.928</ele>
      <time>2021-10-12T17:55:46Z</time>
    </trkpt>
    <trkpt lat="38.490313337" lon="34.970442621">
      <ele>1414.555</ele>
      <time>2021-10-12T17:55:51Z</time>
    </trkpt>
    <trkpt lat="38.490101544" lon="34.970428142">
      <ele>1410.93</ele>
      <time>2021-10-12T17:55:59Z</time>
    </trkpt>
    <trkpt lat="38.489958793" lon="34.970511788">
      <ele>1411.521</ele>
      <time>2021-10-12T17:56:05Z</time>
    </trkpt>
    <trkpt lat="38.489945439" lon="34.970747553">
      <ele>1417.506</ele>
      <time>2021-10-12T17:56:12Z</time>
    </trkpt>
    <trkpt lat="38.489997397" lon="34.970936185">
      <ele>1422.57</ele>
      <time>2021-10-12T17:56:18Z</time>
    </trkpt>
    <trkpt lat="38.489882421" lon="34.971186679">
      <ele>1427.948</ele>
      <time>2021-10-12T17:56:26Z</time>
    </trkpt>
    <trkpt lat="38.489754451" lon="34.971434582">
      <ele>1432.586</ele>
      <time>2021-10-12T17:56:35Z</time>
    </trkpt>
    <trkpt lat="38.489660055" lon="34.971680309">
      <ele>1436.601</ele>
      <time>2021-10-12T17:56:43Z</time>
    </trkpt>
    <trkpt lat="38.489470068" lon="34.971771392">
      <ele>1436.147</ele>
      <time>2021-10-12T17:56:50Z</time>
    </trkpt>
    <trkpt lat="38.489294373" lon="34.971737557">
      <ele>1434.786</ele>
      <time>2021-10-12T17:56:57Z</time>
    </trkpt>
    <trkpt lat="38.489101969" lon="34.971794009">
      <ele>1437.247</ele>
      <time>2021-10-12T17:57:04Z</time>
    </trkpt>
    <trkpt lat="38.488905222" lon="34.971773069">
      <ele>1439.807</ele>
      <time>2021-10-12T17:57:11Z</time>
    </trkpt>
    <trkpt lat="38.488651969" lon="34.971843115">
      <ele>1442.623</ele>
      <time>2021-10-12T17:57:21Z</time>
    </trkpt>
    <trkpt lat="38.488454377" lon="34.972008679">
      <ele>1445.926</ele>
      <time>2021-10-12T17:57:30Z</time>
    </trkpt>
    <trkpt lat="38.488362313" lon="34.972237003">
      <ele>1450.685</ele>
      <time>2021-10-12T17:57:37Z</time>
    </trkpt>
    <trkpt lat="38.488300878" lon="34.972428782">
      <ele>1454.825</ele>
      <time>2021-10-12T17:57:43Z</time>
    </trkpt>
    <trkpt lat="38.488530237" lon="34.972566876">
      <ele>1461.223</ele>
      <time>2021-10-12T17:57:52Z</time>
    </trkpt>
    <trkpt lat="38.488762795" lon="34.972620716">
      <ele>1466.333</ele>
      <time>2021-10-12T17:58:01Z</time>
    </trkpt>
    <trkpt lat="38.489028107" lon="34.972680953">
      <ele>1470.666</ele>
      <time>2021-10-12T17:58:11Z</time>
    </trkpt>
    <trkpt lat="38.489194209" lon="34.972798427">
      <ele>1475.786</ele>
      <time>2021-10-12T17:58:18Z</time>
    </trkpt>
    <trkpt lat="38.48945452" lon="34.972849247">
      <ele>1476.985</ele>
      <time>2021-10-12T17:58:28Z</time>
    </trkpt>
    <trkpt lat="38.489720822" lon="34.972850121">
      <ele>1481.104</ele>
      <time>2021-10-12T17:58:38Z</time>
    </trkpt>
    <trkpt lat="38.490090056" lon="34.972888055">
      <ele>1487.335</ele>
      <time>2021-10-12T17:58:52Z</time>
    </trkpt>
    <trkpt lat="38.49042062" lon="34.972978126">
      <ele>1496.247</ele>
      <time>2021-10-12T17:59:04Z</time>
    </trkpt>
    <trkpt lat="38.490643185" lon="34.973021547">
      <ele>1502.38</ele>
      <time>2021-10-12T17:59:12Z</time>
    </trkpt>
    <trkpt lat="38.490868974" lon="34.973048">
      <ele>1507.521</ele>
      <time>2021-10-12T17:59:21Z</time>
    </trkpt>
    <trkpt lat="38.490894958" lon="34.973038025">
      <ele>1507.683</ele>
      <time>2021-10-12T17:59:22Z</time>
    </trkpt>
    <trkpt lat="38.49092002" lon="34.973029979">
      <ele>1507.924</ele>
      <time>2021-10-12T17:59:23Z</time>
    </trkpt>
    <trkpt lat="38.490964025" lon="34.973015981">
      <ele>1508.366</ele>
      <time>2021-10-12T17:59:24Z</time>
    </trkpt>
    <trkpt lat="38.490991015" lon="34.973012041">
      <ele>1508.869</ele>
      <time>2021-10-12T17:59:25Z</time>
    </trkpt>
    <trkpt lat="38.491013981" lon="34.973006006">
      <ele>1509.171</ele>
      <time>2021-10-12T17:59:26Z</time>
    </trkpt>
    <trkpt lat="38.491034014" lon="34.972998966">
      <ele>1509.352</ele>
      <time>2021-10-12T17:59:27Z</time>
    </trkpt>
    <trkpt lat="38.491065027" lon="34.972991003">
      <ele>1509.779</ele>
      <time>2021-10-12T17:59:28Z</time>
    </trkpt>
    <trkpt lat="38.49108397" lon="34.972989997">
      <ele>1510.225</ele>
      <time>2021-10-12T17:59:29Z</time>
    </trkpt>
    <trkpt lat="38.491101991" lon="34.972986979">
      <ele>1510.553</ele>
      <time>2021-10-12T17:59:30Z</time>
    </trkpt>
    <trkpt lat="38.491120012" lon="34.972981028">
      <ele>1510.775</ele>
      <time>2021-10-12T17:59:30Z</time>
    </trkpt>
    <trkpt lat="38.491158988" lon="34.972968036">
      <ele>1511.292</ele>
      <time>2021-10-12T17:59:32Z</time>
    </trkpt>
    <trkpt lat="38.491178015" lon="34.972964013">
      <ele>1511.645</ele>
      <time>2021-10-12T17:59:32Z</time>
    </trkpt>
    <trkpt lat="38.491197964" lon="34.972960996">
      <ele>1512.069</ele>
      <time>2021-10-12T17:59:33Z</time>
    </trkpt>
    <trkpt lat="38.491220009" lon="34.972957978">
      <ele>1512.549</ele>
      <time>2021-10-12T17:59:34Z</time>
    </trkpt>
    <trkpt lat="38.491239036" lon="34.972952027">
      <ele>1512.785</ele>
      <time>2021-10-12T17:59:35Z</time>
    </trkpt>
    <trkpt lat="38.491260996" lon="34.97294398">
      <ele>1512.984</ele>
      <time>2021-10-12T17:59:36Z</time>
    </trkpt>
    <trkpt lat="38.491282035" lon="34.972940041">
      <ele>1513.364</ele>
      <time>2021-10-12T17:59:36Z</time>
    </trkpt>
    <trkpt lat="38.491299972" lon="34.972935012">
      <ele>1513.592</ele>
      <time>2021-10-12T17:59:37Z</time>
    </trkpt>
    <trkpt lat="38.491317993" lon="34.972929982">
      <ele>1513.816</ele>
      <time>2021-10-12T17:59:38Z</time>
    </trkpt>
    <trkpt lat="38.491348" lon="34.972926965">
      <ele>1514.473</ele>
      <time>2021-10-12T17:59:39Z</time>
    </trkpt>
    <trkpt lat="38.491368033" lon="34.972925959">
      <ele>1514.965</ele>
      <time>2021-10-12T17:59:40Z</time>
    </trkpt>
    <trkpt lat="38.491387982" lon="34.972926965">
      <ele>1515.568</ele>
      <time>2021-10-12T17:59:40Z</time>
    </trkpt>
    <trkpt lat="38.491411032" lon="34.972927971">
      <ele>1516.16</ele>
      <time>2021-10-12T17:59:41Z</time>
    </trkpt>
    <trkpt lat="38.491435004" lon="34.972928977">
      <ele>1516.766</ele>
      <time>2021-10-12T17:59:42Z</time>
    </trkpt>
    <trkpt lat="38.491455037" lon="34.972939035">
      <ele>1517.779</ele>
      <time>2021-10-12T17:59:43Z</time>
    </trkpt>
    <trkpt lat="38.491475992" lon="34.972942974">
      <ele>1518.464</ele>
      <time>2021-10-12T17:59:44Z</time>
    </trkpt>
    <trkpt lat="38.49150097" lon="34.972950015">
      <ele>1519.398</ele>
      <time>2021-10-12T17:59:45Z</time>
    </trkpt>
    <trkpt lat="38.491523014" lon="34.972955966">
      <ele>1520.197</ele>
      <time>2021-10-12T17:59:45Z</time>
    </trkpt>
    <trkpt lat="38.491547992" lon="34.972958984">
      <ele>1520.899</ele>
      <time>2021-10-12T17:59:46Z</time>
    </trkpt>
    <trkpt lat="38.491571965" lon="34.972960996">
      <ele>1521.522</ele>
      <time>2021-10-12T17:59:47Z</time>
    </trkpt>
    <trkpt lat="38.491594009" lon="34.972965019">
      <ele>1522.199</ele>
      <time>2021-10-12T17:59:48Z</time>
    </trkpt>
    <trkpt lat="38.491614042" lon="34.972966025">
      <ele>1522.68</ele>
      <time>2021-10-12T17:59:49Z</time>
    </trkpt>
    <trkpt lat="38.491638014" lon="34.972966025">
      <ele>1523.194</ele>
      <time>2021-10-12T17:59:50Z</time>
    </trkpt>
    <trkpt lat="38.491658969" lon="34.972966025">
      <ele>1523.645</ele>
      <time>2021-10-12T17:59:50Z</time>
    </trkpt>
    <trkpt lat="38.491677996" lon="34.972964013">
      <ele>1523.933</ele>
      <time>2021-10-12T17:59:51Z</time>
    </trkpt>
    <trkpt lat="38.491700962" lon="34.972964013">
      <ele>1524.374</ele>
      <time>2021-10-12T17:59:52Z</time>
    </trkpt>
    <trkpt lat="38.491722001" lon="34.972960996">
      <ele>1524.638</ele>
      <time>2021-10-12T17:59:53Z</time>
    </trkpt>
    <trkpt lat="38.491745973" lon="34.972965019">
      <ele>1525.283</ele>
      <time>2021-10-12T17:59:54Z</time>
    </trkpt>
    <trkpt lat="38.491772963" lon="34.972965019">
      <ele>1525.801</ele>
      <time>2021-10-12T17:59:55Z</time>
    </trkpt>
    <trkpt lat="38.491795007" lon="34.972964013">
      <ele>1526.178</ele>
      <time>2021-10-12T17:59:56Z</time>
    </trkpt>
    <trkpt lat="38.491828032" lon="34.972964013">
      <ele>1526.812</ele>
      <time>2021-10-12T17:59:57Z</time>
    </trkpt>
    <trkpt lat="38.491839012" lon="34.972964013">
      <ele>1527.023</ele>
      <time>2021-10-12T17:59:57Z</time>
    </trkpt>
    <trkpt lat="38.491860973" lon="34.972963007">
      <ele>1527.399</ele>
      <time>2021-10-12T17:59:58Z</time>
    </trkpt>
    <trkpt lat="38.491887962" lon="34.972964013">
      <ele>1527.962</ele>
      <time>2021-10-12T17:59:59Z</time>
    </trkpt>
    <trkpt lat="38.491913024" lon="34.972954961">
      <ele>1528.048</ele>
      <time>2021-10-12T18:00:00Z</time>
    </trkpt>
    <trkpt lat="38.491935991" lon="34.972948004">
      <ele>1528.19</ele>
      <time>2021-10-12T18:00:01Z</time>
    </trkpt>
    <trkpt lat="38.491959041" lon="34.972941969">
      <ele>1528.535</ele>
      <time>2021-10-12T18:00:02Z</time>
    </trkpt>
    <trkpt lat="38.491981002" lon="34.972936017">
      <ele>1528.945</ele>
      <time>2021-10-12T18:00:03Z</time>
    </trkpt>
    <trkpt lat="38.492002962" lon="34.972927971">
      <ele>1529.27</ele>
      <time>2021-10-12T18:00:03Z</time>
    </trkpt>
    <trkpt lat="38.492024001" lon="34.972919002">
      <ele>1529.533</ele>
      <time>2021-10-12T18:00:04Z</time>
    </trkpt>
    <trkpt lat="38.492045961" lon="34.972912967">
      <ele>1529.951</ele>
      <time>2021-10-12T18:00:05Z</time>
    </trkpt>
    <trkpt lat="38.492067" lon="34.97292202">
      <ele>1530.973</ele>
      <time>2021-10-12T18:00:06Z</time>
    </trkpt>
    <trkpt lat="38.492086027" lon="34.972928977">
      <ele>1531.842</ele>
      <time>2021-10-12T18:00:07Z</time>
    </trkpt>
    <trkpt lat="38.49210497" lon="34.972929982">
      <ele>1532.46</ele>
      <time>2021-10-12T18:00:07Z</time>
    </trkpt>
    <trkpt lat="38.492123997" lon="34.972945992">
      <ele>1533.693</ele>
      <time>2021-10-12T18:00:08Z</time>
    </trkpt>
    <trkpt lat="38.492127014" lon="34.972969964">
      <ele>1534.763</ele>
      <time>2021-10-12T18:00:09Z</time>
    </trkpt>
    <trkpt lat="38.492119974" lon="34.972992009">
      <ele>1535.455</ele>
      <time>2021-10-12T18:00:10Z</time>
    </trkpt>
    <trkpt lat="38.492108993" lon="34.973013969">
      <ele>1536.031</ele>
      <time>2021-10-12T18:00:10Z</time>
    </trkpt>
    <trkpt lat="38.492099019" lon="34.973036014">
      <ele>1536.647</ele>
      <time>2021-10-12T18:00:11Z</time>
    </trkpt>
    <trkpt lat="38.492092984" lon="34.973065015">
      <ele>1537.752</ele>
      <time>2021-10-12T18:00:12Z</time>
    </trkpt>
    <trkpt lat="38.492091978" lon="34.973089993">
      <ele>1538.977</ele>
      <time>2021-10-12T18:00:13Z</time>
    </trkpt>
    <trkpt lat="38.492079992" lon="34.973113965">
      <ele>1539.853</ele>
      <time>2021-10-12T18:00:13Z</time>
    </trkpt>
    <trkpt lat="38.492063982" lon="34.973126035">
      <ele>1540.03</ele>
      <time>2021-10-12T18:00:14Z</time>
    </trkpt>
    <trkpt lat="38.492046967" lon="34.973142967">
      <ele>1540.441</ele>
      <time>2021-10-12T18:00:15Z</time>
    </trkpt>
    <trkpt lat="38.49202903" lon="34.973170962">
      <ele>1541.415</ele>
      <time>2021-10-12T18:00:16Z</time>
    </trkpt>
    <trkpt lat="38.492008997" lon="34.973196024">
      <ele>1542.209</ele>
      <time>2021-10-12T18:00:17Z</time>
    </trkpt>
    <trkpt lat="38.491997011" lon="34.973213961">
      <ele>1542.852</ele>
      <time>2021-10-12T18:00:18Z</time>
    </trkpt>
    <trkpt lat="38.491977984" lon="34.973247992">
      <ele>1544.19</ele>
      <time>2021-10-12T18:00:19Z</time>
    </trkpt>
    <trkpt lat="38.491963986" lon="34.973270958">
      <ele>1545.085</ele>
      <time>2021-10-12T18:00:20Z</time>
    </trkpt>
    <trkpt lat="38.491926016" lon="34.973302977">
      <ele>1545.852</ele>
      <time>2021-10-12T18:00:21Z</time>
    </trkpt>
    <trkpt lat="38.491905984" lon="34.973336002">
      <ele>1547.008</ele>
      <time>2021-10-12T18:00:23Z</time>
    </trkpt>
    <trkpt lat="38.491889974" lon="34.973356035">
      <ele>1547.412</ele>
      <time>2021-10-12T18:00:23Z</time>
    </trkpt>
    <trkpt lat="38.491868014" lon="34.97340004">
      <ele>1548.681</ele>
      <time>2021-10-12T18:00:25Z</time>
    </trkpt>
    <trkpt lat="38.491882011" lon="34.973419989">
      <ele>1549.945</ele>
      <time>2021-10-12T18:00:26Z</time>
    </trkpt>
    <trkpt lat="38.491902966" lon="34.973413032">
      <ele>1550.248</ele>
      <time>2021-10-12T18:00:27Z</time>
    </trkpt>
    <trkpt lat="38.491928028" lon="34.973404985">
      <ele>1550.623</ele>
      <time>2021-10-12T18:00:28Z</time>
    </trkpt>
    <trkpt lat="38.491953006" lon="34.973397022">
      <ele>1550.943</ele>
      <time>2021-10-12T18:00:28Z</time>
    </trkpt>
    <trkpt lat="38.491975972" lon="34.97339501">
      <ele>1551.371</ele>
      <time>2021-10-12T18:00:29Z</time>
    </trkpt>
    <trkpt lat="38.491992988" lon="34.973386042">
      <ele>1551.359</ele>
      <time>2021-10-12T18:00:30Z</time>
    </trkpt>
    <trkpt lat="38.492035987" lon="34.973379001">
      <ele>1552.004</ele>
      <time>2021-10-12T18:00:32Z</time>
    </trkpt>
    <trkpt lat="38.492059959" lon="34.973372966">
      <ele>1552.267</ele>
      <time>2021-10-12T18:00:33Z</time>
    </trkpt>
    <trkpt lat="38.492088038" lon="34.973368021">
      <ele>1552.665</ele>
      <time>2021-10-12T18:00:34Z</time>
    </trkpt>
    <trkpt lat="38.492114022" lon="34.97336098">
      <ele>1552.918</ele>
      <time>2021-10-12T18:00:35Z</time>
    </trkpt>
    <trkpt lat="38.492137995" lon="34.973356035">
      <ele>1553.218</ele>
      <time>2021-10-12T18:00:35Z</time>
    </trkpt>
    <trkpt lat="38.492162973" lon="34.973345976">
      <ele>1553.302</ele>
      <time>2021-10-12T18:00:36Z</time>
    </trkpt>
    <trkpt lat="38.492186023" lon="34.973339019">
      <ele>1553.482</ele>
      <time>2021-10-12T18:00:37Z</time>
    </trkpt>
    <trkpt lat="38.492209995" lon="34.973329967">
      <ele>1553.577</ele>
      <time>2021-10-12T18:00:38Z</time>
    </trkpt>
    <trkpt lat="38.492236985" lon="34.973322004">
      <ele>1553.955</ele>
      <time>2021-10-12T18:00:39Z</time>
    </trkpt>
    <trkpt lat="38.492261041" lon="34.973315969">
      <ele>1554.471</ele>
      <time>2021-10-12T18:00:40Z</time>
    </trkpt>
    <trkpt lat="38.492284007" lon="34.97331203">
      <ele>1555.056</ele>
      <time>2021-10-12T18:00:41Z</time>
    </trkpt>
    <trkpt lat="38.49230404" lon="34.973309012">
      <ele>1555.59</ele>
      <time>2021-10-12T18:00:42Z</time>
    </trkpt>
    <trkpt lat="38.492323989" lon="34.973304989">
      <ele>1556.083</ele>
      <time>2021-10-12T18:00:43Z</time>
    </trkpt>
    <trkpt lat="38.492343016" lon="34.973298032">
      <ele>1556.427</ele>
      <time>2021-10-12T18:00:43Z</time>
    </trkpt>
    <trkpt lat="38.492362965" lon="34.973294009">
      <ele>1556.935</ele>
      <time>2021-10-12T18:00:44Z</time>
    </trkpt>
    <trkpt lat="38.492393978" lon="34.973289985">
      <ele>1557.826</ele>
      <time>2021-10-12T18:00:45Z</time>
    </trkpt>
    <trkpt lat="38.492416022" lon="34.973287974">
      <ele>1558.498</ele>
      <time>2021-10-12T18:00:46Z</time>
    </trkpt>
    <trkpt lat="38.49243396" lon="34.973275987">
      <ele>1558.649</ele>
      <time>2021-10-12T18:00:47Z</time>
    </trkpt>
    <trkpt lat="38.492458016" lon="34.973271964">
      <ele>1559.33</ele>
      <time>2021-10-12T18:00:48Z</time>
    </trkpt>
    <trkpt lat="38.492480982" lon="34.973248998">
      <ele>1559.285</ele>
      <time>2021-10-12T18:00:49Z</time>
    </trkpt>
    <trkpt lat="38.492500009" lon="34.973244974">
      <ele>1559.819</ele>
      <time>2021-10-12T18:00:49Z</time>
    </trkpt>
    <trkpt lat="38.492520964" lon="34.973240029">
      <ele>1560.045</ele>
      <time>2021-10-12T18:00:50Z</time>
    </trkpt>
    <trkpt lat="38.49254502" lon="34.973226031">
      <ele>1560.062</ele>
      <time>2021-10-12T18:00:51Z</time>
    </trkpt>
    <trkpt lat="38.492563041" lon="34.973230977">
      <ele>1560.581</ele>
      <time>2021-10-12T18:00:52Z</time>
    </trkpt>
    <trkpt lat="38.492579972" lon="34.97324598">
      <ele>1561.353</ele>
      <time>2021-10-12T18:00:53Z</time>
    </trkpt>
    <trkpt lat="38.492596988" lon="34.973262995">
      <ele>1562.134</ele>
      <time>2021-10-12T18:00:53Z</time>
    </trkpt>
    <trkpt lat="38.492597993" lon="34.973297026">
      <ele>1563.074</ele>
      <time>2021-10-12T18:00:54Z</time>
    </trkpt>
    <trkpt lat="38.492590031" lon="34.973317981">
      <ele>1563.545</ele>
      <time>2021-10-12T18:00:55Z</time>
    </trkpt>
    <trkpt lat="38.492573015" lon="34.973328039">
      <ele>1563.633</ele>
      <time>2021-10-12T18:00:56Z</time>
    </trkpt>
    <trkpt lat="38.492548037" lon="34.973342037">
      <ele>1563.675</ele>
      <time>2021-10-12T18:00:57Z</time>
    </trkpt>
    <trkpt lat="38.492525993" lon="34.973371038">
      <ele>1563.959</ele>
      <time>2021-10-12T18:00:58Z</time>
    </trkpt>
    <trkpt lat="38.492516018" lon="34.973391993">
      <ele>1564.229</ele>
      <time>2021-10-12T18:00:59Z</time>
    </trkpt>
    <trkpt lat="38.492496992" lon="34.973391993">
      <ele>1563.977</ele>
      <time>2021-10-12T18:00:59Z</time>
    </trkpt>
    <trkpt lat="38.492480982" lon="34.973401967">
      <ele>1563.755</ele>
      <time>2021-10-12T18:01:00Z</time>
    </trkpt>
    <trkpt lat="38.492462039" lon="34.973413032">
      <ele>1563.518</ele>
      <time>2021-10-12T18:01:01Z</time>
    </trkpt>
    <trkpt lat="38.492433038" lon="34.973426023">
      <ele>1563.142</ele>
      <time>2021-10-12T18:01:02Z</time>
    </trkpt>
    <trkpt lat="38.492356008" lon="34.973498024">
      <ele>1563.758</ele>
      <time>2021-10-12T18:01:05Z</time>
    </trkpt>
    <trkpt lat="38.492294988" lon="34.973540017">
      <ele>1564.471</ele>
      <time>2021-10-12T18:01:08Z</time>
    </trkpt>
    <trkpt lat="38.492246037" lon="34.973582011">
      <ele>1565.796</ele>
      <time>2021-10-12T18:01:10Z</time>
    </trkpt>
    <trkpt lat="38.492223993" lon="34.973593997">
      <ele>1566.209</ele>
      <time>2021-10-12T18:01:11Z</time>
    </trkpt>
    <trkpt lat="38.492203038" lon="34.973615035">
      <ele>1566.59</ele>
      <time>2021-10-12T18:01:12Z</time>
    </trkpt>
    <trkpt lat="38.492179988" lon="34.973632973">
      <ele>1566.365</ele>
      <time>2021-10-12T18:01:13Z</time>
    </trkpt>
    <trkpt lat="38.492160039" lon="34.973652">
      <ele>1566.268</ele>
      <time>2021-10-12T18:01:14Z</time>
    </trkpt>
    <trkpt lat="38.492140006" lon="34.973674966">
      <ele>1566.282</ele>
      <time>2021-10-12T18:01:15Z</time>
    </trkpt>
    <trkpt lat="38.492123997" lon="34.973694999">
      <ele>1566.355</ele>
      <time>2021-10-12T18:01:16Z</time>
    </trkpt>
    <trkpt lat="38.492098013" lon="34.973715032">
      <ele>1566.242</ele>
      <time>2021-10-12T18:01:17Z</time>
    </trkpt>
    <trkpt lat="38.492088038" lon="34.973719977">
      <ele>1566.146</ele>
      <time>2021-10-12T18:01:17Z</time>
    </trkpt>
    <trkpt lat="38.492071023" lon="34.973731963">
      <ele>1566.076</ele>
      <time>2021-10-12T18:01:18Z</time>
    </trkpt>
    <trkpt lat="38.492054008" lon="34.973746967">
      <ele>1566.095</ele>
      <time>2021-10-12T18:01:19Z</time>
    </trkpt>
    <trkpt lat="38.492028024" lon="34.973757025">
      <ele>1565.834</ele>
      <time>2021-10-12T18:01:20Z</time>
    </trkpt>
    <trkpt lat="38.492001034" lon="34.973769011">
      <ele>1565.626</ele>
      <time>2021-10-12T18:01:21Z</time>
    </trkpt>
    <trkpt lat="38.491949989" lon="34.973791977">
      <ele>1565.31</ele>
      <time>2021-10-12T18:01:23Z</time>
    </trkpt>
    <trkpt lat="38.491930962" lon="34.973797007">
      <ele>1565.063</ele>
      <time>2021-10-12T18:01:24Z</time>
    </trkpt>
    <trkpt lat="38.491912019" lon="34.973798012">
      <ele>1564.685</ele>
      <time>2021-10-12T18:01:24Z</time>
    </trkpt>
    <trkpt lat="38.49189098" lon="34.973799018">
      <ele>1564.263</ele>
      <time>2021-10-12T18:01:25Z</time>
    </trkpt>
    <trkpt lat="38.491871031" lon="34.973802036">
      <ele>1563.929</ele>
      <time>2021-10-12T18:01:26Z</time>
    </trkpt>
    <trkpt lat="38.491847981" lon="34.973805975">
      <ele>1563.565</ele>
      <time>2021-10-12T18:01:27Z</time>
    </trkpt>
    <trkpt lat="38.491823003" lon="34.973814022">
      <ele>1563.304</ele>
      <time>2021-10-12T18:01:28Z</time>
    </trkpt>
    <trkpt lat="38.491798025" lon="34.973821985">
      <ele>1563.057</ele>
      <time>2021-10-12T18:01:29Z</time>
    </trkpt>
    <trkpt lat="38.491769023" lon="34.973831959">
      <ele>1562.815</ele>
      <time>2021-10-12T18:01:30Z</time>
    </trkpt>
    <trkpt lat="38.491741028" lon="34.973841012">
      <ele>1562.581</ele>
      <time>2021-10-12T18:01:31Z</time>
    </trkpt>
    <trkpt lat="38.491714038" lon="34.97384998">
      <ele>1562.384</ele>
      <time>2021-10-12T18:01:32Z</time>
    </trkpt>
    <trkpt lat="38.491689982" lon="34.97386096">
      <ele>1562.339</ele>
      <time>2021-10-12T18:01:33Z</time>
    </trkpt>
    <trkpt lat="38.491668021" lon="34.973871019">
      <ele>1562.318</ele>
      <time>2021-10-12T18:01:34Z</time>
    </trkpt>
    <trkpt lat="38.491642037" lon="34.973885017">
      <ele>1562.757</ele>
      <time>2021-10-12T18:01:35Z</time>
    </trkpt>
    <trkpt lat="38.491616976" lon="34.973899014">
      <ele>1563.149</ele>
      <time>2021-10-12T18:01:36Z</time>
    </trkpt>
    <trkpt lat="38.491594009" lon="34.973911">
      <ele>1563.455</ele>
      <time>2021-10-12T18:01:37Z</time>
    </trkpt>
    <trkpt lat="38.491572971" lon="34.973926004">
      <ele>1563.865</ele>
      <time>2021-10-12T18:01:38Z</time>
    </trkpt>
    <trkpt lat="38.491554027" lon="34.973944025">
      <ele>1564.381</ele>
      <time>2021-10-12T18:01:38Z</time>
    </trkpt>
    <trkpt lat="38.491537012" lon="34.973963974">
      <ele>1564.966</ele>
      <time>2021-10-12T18:01:39Z</time>
    </trkpt>
    <trkpt lat="38.491517985" lon="34.973985013">
      <ele>1565.579</ele>
      <time>2021-10-12T18:01:40Z</time>
    </trkpt>
    <trkpt lat="38.491499964" lon="34.97400404">
      <ele>1566.131</ele>
      <time>2021-10-12T18:01:41Z</time>
    </trkpt>
    <trkpt lat="38.491483033" lon="34.974022983">
      <ele>1566.684</ele>
      <time>2021-10-12T18:01:42Z</time>
    </trkpt>
    <trkpt lat="38.491465012" lon="34.974039998">
      <ele>1567.17</ele>
      <time>2021-10-12T18:01:43Z</time>
    </trkpt>
    <trkpt lat="38.491450008" lon="34.974057013">
      <ele>1567.667</ele>
      <time>2021-10-12T18:01:43Z</time>
    </trkpt>
    <trkpt lat="38.49143601" lon="34.974076962">
      <ele>1568.263</ele>
      <time>2021-10-12T18:01:44Z</time>
    </trkpt>
    <trkpt lat="38.491422012" lon="34.974095989">
      <ele>1568.829</ele>
      <time>2021-10-12T18:01:45Z</time>
    </trkpt>
    <trkpt lat="38.491410026" lon="34.974115016">
      <ele>1569.403</ele>
      <time>2021-10-12T18:01:46Z</time>
    </trkpt>
    <trkpt lat="38.491398962" lon="34.974136977">
      <ele>1570.074</ele>
      <time>2021-10-12T18:01:46Z</time>
    </trkpt>
    <trkpt lat="38.491387982" lon="34.974160027">
      <ele>1570.778</ele>
      <time>2021-10-12T18:01:47Z</time>
    </trkpt>
    <trkpt lat="38.491380019" lon="34.974186011">
      <ele>1571.287</ele>
      <time>2021-10-12T18:01:48Z</time>
    </trkpt>
    <trkpt lat="38.491373984" lon="34.974210989">
      <ele>1571.699</ele>
      <time>2021-10-12T18:01:49Z</time>
    </trkpt>
    <trkpt lat="38.491367027" lon="34.974237978">
      <ele>1572.146</ele>
      <time>2021-10-12T18:01:50Z</time>
    </trkpt>
    <trkpt lat="38.491361998" lon="34.974265974">
      <ele>1572.629</ele>
      <time>2021-10-12T18:01:51Z</time>
    </trkpt>
    <trkpt lat="38.491355041" lon="34.974292964">
      <ele>1573.085</ele>
      <time>2021-10-12T18:01:51Z</time>
    </trkpt>
    <trkpt lat="38.491345989" lon="34.974320037">
      <ele>1573.537</ele>
      <time>2021-10-12T18:01:52Z</time>
    </trkpt>
    <trkpt lat="38.491336014" lon="34.974352978">
      <ele>1574.101</ele>
      <time>2021-10-12T18:01:53Z</time>
    </trkpt>
    <trkpt lat="38.49132604" lon="34.974380974">
      <ele>1574.58</ele>
      <time>2021-10-12T18:01:54Z</time>
    </trkpt>
    <trkpt lat="38.491316987" lon="34.974411987">
      <ele>1575.127</ele>
      <time>2021-10-12T18:01:55Z</time>
    </trkpt>
    <trkpt lat="38.491314976" lon="34.974438976">
      <ele>1575.63</ele>
      <time>2021-10-12T18:01:56Z</time>
    </trkpt>
    <trkpt lat="38.491308019" lon="34.974468984">
      <ele>1575.86</ele>
      <time>2021-10-12T18:01:57Z</time>
    </trkpt>
    <trkpt lat="38.491302989" lon="34.974498991">
      <ele>1576.023</ele>
      <time>2021-10-12T18:01:58Z</time>
    </trkpt>
    <trkpt lat="38.49129796" lon="34.974528998">
      <ele>1576.182</ele>
      <time>2021-10-12T18:01:59Z</time>
    </trkpt>
    <trkpt lat="38.491288992" lon="34.974558">
      <ele>1576.311</ele>
      <time>2021-10-12T18:01:59Z</time>
    </trkpt>
    <trkpt lat="38.491282035" lon="34.974584989">
      <ele>1576.433</ele>
      <time>2021-10-12T18:02:00Z</time>
    </trkpt>
    <trkpt lat="38.491274994" lon="34.974610973">
      <ele>1576.543</ele>
      <time>2021-10-12T18:02:01Z</time>
    </trkpt>
    <trkpt lat="38.491268037" lon="34.974637041">
      <ele>1576.65</ele>
      <time>2021-10-12T18:02:02Z</time>
    </trkpt>
    <trkpt lat="38.491263008" lon="34.974663025">
      <ele>1576.764</ele>
      <time>2021-10-12T18:02:03Z</time>
    </trkpt>
    <trkpt lat="38.491253033" lon="34.974724967">
      <ele>1577.032</ele>
      <time>2021-10-12T18:02:04Z</time>
    </trkpt>
    <trkpt lat="38.491248004" lon="34.974754974">
      <ele>1577.105</ele>
      <time>2021-10-12T18:02:05Z</time>
    </trkpt>
    <trkpt lat="38.491242975" lon="34.974783976">
      <ele>1577.183</ele>
      <time>2021-10-12T18:02:06Z</time>
    </trkpt>
    <trkpt lat="38.49123803" lon="34.974815995">
      <ele>1577.28</ele>
      <time>2021-10-12T18:02:07Z</time>
    </trkpt>
    <trkpt lat="38.491235012" lon="34.974848013">
      <ele>1577.394</ele>
      <time>2021-10-12T18:02:08Z</time>
    </trkpt>
    <trkpt lat="38.491230989" lon="34.974881038">
      <ele>1577.513</ele>
      <time>2021-10-12T18:02:09Z</time>
    </trkpt>
    <trkpt lat="38.491228977" lon="34.974912973">
      <ele>1577.639</ele>
      <time>2021-10-12T18:02:10Z</time>
    </trkpt>
    <trkpt lat="38.49122596" lon="34.974945998">
      <ele>1577.772</ele>
      <time>2021-10-12T18:02:11Z</time>
    </trkpt>
    <trkpt lat="38.491225038" lon="34.974977011">
      <ele>1577.902</ele>
      <time>2021-10-12T18:02:12Z</time>
    </trkpt>
    <trkpt lat="38.491227971" lon="34.975038031">
      <ele>1577.942</ele>
      <time>2021-10-12T18:02:14Z</time>
    </trkpt>
    <trkpt lat="38.491233001" lon="34.975067033">
      <ele>1577.894</ele>
      <time>2021-10-12T18:02:15Z</time>
    </trkpt>
    <trkpt lat="38.491243981" lon="34.975091005">
      <ele>1577.843</ele>
      <time>2021-10-12T18:02:15Z</time>
    </trkpt>
    <trkpt lat="38.491257979" lon="34.975111037">
      <ele>1577.789</ele>
      <time>2021-10-12T18:02:16Z</time>
    </trkpt>
    <trkpt lat="38.491276" lon="34.975128975">
      <ele>1577.724</ele>
      <time>2021-10-12T18:02:17Z</time>
    </trkpt>
    <trkpt lat="38.491298966" lon="34.975139033">
      <ele>1577.662</ele>
      <time>2021-10-12T18:02:18Z</time>
    </trkpt>
    <trkpt lat="38.491322016" lon="34.975142973">
      <ele>1577.609</ele>
      <time>2021-10-12T18:02:19Z</time>
    </trkpt>
    <trkpt lat="38.491350012" lon="34.975144984">
      <ele>1577.551</ele>
      <time>2021-10-12T18:02:20Z</time>
    </trkpt>
    <trkpt lat="38.491378007" lon="34.975141967">
      <ele>1577.509</ele>
      <time>2021-10-12T18:02:21Z</time>
    </trkpt>
    <trkpt lat="38.491406003" lon="34.97513501">
      <ele>1577.637</ele>
      <time>2021-10-12T18:02:22Z</time>
    </trkpt>
    <trkpt lat="38.49143601" lon="34.975126041">
      <ele>1577.886</ele>
      <time>2021-10-12T18:02:23Z</time>
    </trkpt>
    <trkpt lat="38.491466017" lon="34.975119">
      <ele>1578.127</ele>
      <time>2021-10-12T18:02:24Z</time>
    </trkpt>
    <trkpt lat="38.491495019" lon="34.975109026">
      <ele>1578.372</ele>
      <time>2021-10-12T18:02:25Z</time>
    </trkpt>
    <trkpt lat="38.491526032" lon="34.975099973">
      <ele>1578.628</ele>
      <time>2021-10-12T18:02:26Z</time>
    </trkpt>
    <trkpt lat="38.491555033" lon="34.975089999">
      <ele>1578.872</ele>
      <time>2021-10-12T18:02:28Z</time>
    </trkpt>
    <trkpt lat="38.491586968" lon="34.975082036">
      <ele>1579.131</ele>
      <time>2021-10-12T18:02:29Z</time>
    </trkpt>
    <trkpt lat="38.491614964" lon="34.975069966">
      <ele>1579.376</ele>
      <time>2021-10-12T18:02:30Z</time>
    </trkpt>
    <trkpt lat="38.491641032" lon="34.975056974">
      <ele>1579.61</ele>
      <time>2021-10-12T18:02:31Z</time>
    </trkpt>
    <trkpt lat="38.491669027" lon="34.975044988">
      <ele>1579.848</ele>
      <time>2021-10-12T18:02:32Z</time>
    </trkpt>
    <trkpt lat="38.491696017" lon="34.975035014">
      <ele>1579.993</ele>
      <time>2021-10-12T18:02:33Z</time>
    </trkpt>
    <trkpt lat="38.491724012" lon="34.975025039">
      <ele>1580.135</ele>
      <time>2021-10-12T18:02:34Z</time>
    </trkpt>
    <trkpt lat="38.49175402" lon="34.975015987">
      <ele>1580.275</ele>
      <time>2021-10-12T18:02:35Z</time>
    </trkpt>
    <trkpt lat="38.491782015" lon="34.975001989">
      <ele>1580.411</ele>
      <time>2021-10-12T18:02:36Z</time>
    </trkpt>
    <trkpt lat="38.491810011" lon="34.974990003">
      <ele>1580.461</ele>
      <time>2021-10-12T18:02:37Z</time>
    </trkpt>
    <trkpt lat="38.491840018" lon="34.974979023">
      <ele>1580.501</ele>
      <time>2021-10-12T18:02:39Z</time>
    </trkpt>
    <trkpt lat="38.491867008" lon="34.974967958">
      <ele>1580.523</ele>
      <time>2021-10-12T18:02:40Z</time>
    </trkpt>
    <trkpt lat="38.491896009" lon="34.974952033">
      <ele>1580.51</ele>
      <time>2021-10-12T18:02:41Z</time>
    </trkpt>
    <trkpt lat="38.491924005" lon="34.974937029">
      <ele>1580.49</ele>
      <time>2021-10-12T18:02:42Z</time>
    </trkpt>
    <trkpt lat="38.491950994" lon="34.974924037">
      <ele>1580.429</ele>
      <time>2021-10-12T18:02:43Z</time>
    </trkpt>
    <trkpt lat="38.491979996" lon="34.974911967">
      <ele>1580.238</ele>
      <time>2021-10-12T18:02:44Z</time>
    </trkpt>
    <trkpt lat="38.492007991" lon="34.97489797">
      <ele>1580.037</ele>
      <time>2021-10-12T18:02:45Z</time>
    </trkpt>
    <trkpt lat="38.492033975" lon="34.974883972">
      <ele>1579.842</ele>
      <time>2021-10-12T18:02:46Z</time>
    </trkpt>
    <trkpt lat="38.492061971" lon="34.974867962">
      <ele>1579.626</ele>
      <time>2021-10-12T18:02:47Z</time>
    </trkpt>
    <trkpt lat="38.492088038" lon="34.974855976">
      <ele>1579.446</ele>
      <time>2021-10-12T18:02:48Z</time>
    </trkpt>
    <trkpt lat="38.492116034" lon="34.974842984">
      <ele>1579.252</ele>
      <time>2021-10-12T18:02:50Z</time>
    </trkpt>
    <trkpt lat="38.492143024" lon="34.974829992">
      <ele>1579.061</ele>
      <time>2021-10-12T18:02:51Z</time>
    </trkpt>
    <trkpt lat="38.492170013" lon="34.974815995">
      <ele>1578.863</ele>
      <time>2021-10-12T18:02:52Z</time>
    </trkpt>
    <trkpt lat="38.492198009" lon="34.974804008">
      <ele>1578.676</ele>
      <time>2021-10-12T18:02:53Z</time>
    </trkpt>
    <trkpt lat="38.492224999" lon="34.974792022">
      <ele>1578.51</ele>
      <time>2021-10-12T18:02:54Z</time>
    </trkpt>
    <trkpt lat="38.492251989" lon="34.974780958">
      <ele>1578.507</ele>
      <time>2021-10-12T18:02:55Z</time>
    </trkpt>
    <trkpt lat="38.492278978" lon="34.974766038">
      <ele>1578.488</ele>
      <time>2021-10-12T18:02:56Z</time>
    </trkpt>
    <trkpt lat="38.492305968" lon="34.974752963">
      <ele>1578.489</ele>
      <time>2021-10-12T18:02:57Z</time>
    </trkpt>
    <trkpt lat="38.492333042" lon="34.974739971">
      <ele>1578.501</ele>
      <time>2021-10-12T18:02:58Z</time>
    </trkpt>
    <trkpt lat="38.492360031" lon="34.974725973">
      <ele>1578.516</ele>
      <time>2021-10-12T18:02:59Z</time>
    </trkpt>
    <trkpt lat="38.492385009" lon="34.974714993">
      <ele>1578.545</ele>
      <time>2021-10-12T18:03:00Z</time>
    </trkpt>
    <trkpt lat="38.492414011" lon="34.974703006">
      <ele>1578.573</ele>
      <time>2021-10-12T18:03:01Z</time>
    </trkpt>
    <trkpt lat="38.492441" lon="34.97469102">
      <ele>1578.587</ele>
      <time>2021-10-12T18:03:02Z</time>
    </trkpt>
    <trkpt lat="38.492466984" lon="34.974678028">
      <ele>1578.582</ele>
      <time>2021-10-12T18:03:03Z</time>
    </trkpt>
    <trkpt lat="38.49249498" lon="34.974664031">
      <ele>1578.567</ele>
      <time>2021-10-12T18:03:05Z</time>
    </trkpt>
    <trkpt lat="38.49252197" lon="34.974650033">
      <ele>1578.422</ele>
      <time>2021-10-12T18:03:06Z</time>
    </trkpt>
    <trkpt lat="38.492548037" lon="34.974632012">
      <ele>1578.234</ele>
      <time>2021-10-12T18:03:07Z</time>
    </trkpt>
    <trkpt lat="38.492574021" lon="34.974616002">
      <ele>1578.071</ele>
      <time>2021-10-12T18:03:08Z</time>
    </trkpt>
    <trkpt lat="38.492600005" lon="34.974600999">
      <ele>1577.924</ele>
      <time>2021-10-12T18:03:09Z</time>
    </trkpt>
    <trkpt lat="38.492629007" lon="34.974585995">
      <ele>1577.783</ele>
      <time>2021-10-12T18:03:10Z</time>
    </trkpt>
    <trkpt lat="38.492657002" lon="34.974569986">
      <ele>1577.648</ele>
      <time>2021-10-12T18:03:11Z</time>
    </trkpt>
    <trkpt lat="38.49268198" lon="34.97455297">
      <ele>1577.525</ele>
      <time>2021-10-12T18:03:12Z</time>
    </trkpt>
    <trkpt lat="38.49270897" lon="34.974535033">
      <ele>1577.407</ele>
      <time>2021-10-12T18:03:13Z</time>
    </trkpt>
    <trkpt lat="38.492734032" lon="34.974517012">
      <ele>1577.302</ele>
      <time>2021-10-12T18:03:14Z</time>
    </trkpt>
    <trkpt lat="38.492761021" lon="34.974498991">
      <ele>1577.208</ele>
      <time>2021-10-12T18:03:15Z</time>
    </trkpt>
    <trkpt lat="38.492788011" lon="34.974478958">
      <ele>1577.193</ele>
      <time>2021-10-12T18:03:17Z</time>
    </trkpt>
    <trkpt lat="38.492813995" lon="34.974459009">
      <ele>1577.306</ele>
      <time>2021-10-12T18:03:18Z</time>
    </trkpt>
    <trkpt lat="38.492841991" lon="34.974440988">
      <ele>1577.443</ele>
      <time>2021-10-12T18:03:19Z</time>
    </trkpt>
    <trkpt lat="38.492867975" lon="34.974421961">
      <ele>1577.54</ele>
      <time>2021-10-12T18:03:20Z</time>
    </trkpt>
    <trkpt lat="38.492892031" lon="34.974400001">
      <ele>1577.634</ele>
      <time>2021-10-12T18:03:21Z</time>
    </trkpt>
    <trkpt lat="38.49291902" lon="34.974379968">
      <ele>1577.789</ele>
      <time>2021-10-12T18:03:22Z</time>
    </trkpt>
    <trkpt lat="38.492945004" lon="34.974361025">
      <ele>1577.965</ele>
      <time>2021-10-12T18:03:23Z</time>
    </trkpt>
    <trkpt lat="38.492973" lon="34.974337975">
      <ele>1578.178</ele>
      <time>2021-10-12T18:03:25Z</time>
    </trkpt>
    <trkpt lat="38.492998984" lon="34.974312996">
      <ele>1578.4</ele>
      <time>2021-10-12T18:03:26Z</time>
    </trkpt>
    <trkpt lat="38.493024968" lon="34.974292964">
      <ele>1578.66</ele>
      <time>2021-10-12T18:03:27Z</time>
    </trkpt>
    <trkpt lat="38.493051035" lon="34.974276032">
      <ele>1578.948</ele>
      <time>2021-10-12T18:03:28Z</time>
    </trkpt>
    <trkpt lat="38.493075008" lon="34.974256">
      <ele>1579.045</ele>
      <time>2021-10-12T18:03:29Z</time>
    </trkpt>
    <trkpt lat="38.493097974" lon="34.974234039">
      <ele>1579.074</ele>
      <time>2021-10-12T18:03:30Z</time>
    </trkpt>
    <trkpt lat="38.493124042" lon="34.974210989">
      <ele>1579.079</ele>
      <time>2021-10-12T18:03:31Z</time>
    </trkpt>
    <trkpt lat="38.493147008" lon="34.974185005">
      <ele>1579.043</ele>
      <time>2021-10-12T18:03:32Z</time>
    </trkpt>
    <trkpt lat="38.49317098" lon="34.974161033">
      <ele>1578.98</ele>
      <time>2021-10-12T18:03:34Z</time>
    </trkpt>
    <trkpt lat="38.493196964" lon="34.974137982">
      <ele>1578.897</ele>
      <time>2021-10-12T18:03:35Z</time>
    </trkpt>
    <trkpt lat="38.493250022" lon="34.97409096">
      <ele>1578.727</ele>
      <time>2021-10-12T18:03:37Z</time>
    </trkpt>
    <trkpt lat="38.493275" lon="34.974066988">
      <ele>1578.641</ele>
      <time>2021-10-12T18:03:38Z</time>
    </trkpt>
    <trkpt lat="38.49329696" lon="34.97404201">
      <ele>1578.551</ele>
      <time>2021-10-12T18:03:39Z</time>
    </trkpt>
    <trkpt lat="38.493322022" lon="34.97401502">
      <ele>1578.454</ele>
      <time>2021-10-12T18:03:41Z</time>
    </trkpt>
    <trkpt lat="38.493347" lon="34.973993981">
      <ele>1578.378</ele>
      <time>2021-10-12T18:03:42Z</time>
    </trkpt>
    <trkpt lat="38.493370973" lon="34.973972021">
      <ele>1578.299</ele>
      <time>2021-10-12T18:03:43Z</time>
    </trkpt>
    <trkpt lat="38.493395029" lon="34.973950982">
      <ele>1578.224</ele>
      <time>2021-10-12T18:03:44Z</time>
    </trkpt>
    <trkpt lat="38.493419001" lon="34.97392701">
      <ele>1578.137</ele>
      <time>2021-10-12T18:03:45Z</time>
    </trkpt>
    <trkpt lat="38.493443979" lon="34.973905971">
      <ele>1578.061</ele>
      <time>2021-10-12T18:03:46Z</time>
    </trkpt>
    <trkpt lat="38.49347298" lon="34.973885017">
      <ele>1578.0</ele>
      <time>2021-10-12T18:03:47Z</time>
    </trkpt>
    <trkpt lat="38.49349997" lon="34.97386096">
      <ele>1578.0</ele>
      <time>2021-10-12T18:03:49Z</time>
    </trkpt>
    <trkpt lat="38.493525032" lon="34.973840006">
      <ele>1578.0</ele>
      <time>2021-10-12T18:03:50Z</time>
    </trkpt>
    <trkpt lat="38.49355001" lon="34.973817961">
      <ele>1578.0</ele>
      <time>2021-10-12T18:03:51Z</time>
    </trkpt>
    <trkpt lat="38.493574988" lon="34.973797007">
      <ele>1578.0</ele>
      <time>2021-10-12T18:03:52Z</time>
    </trkpt>
    <trkpt lat="38.493603989" lon="34.97377798">
      <ele>1578.0</ele>
      <time>2021-10-12T18:03:53Z</time>
    </trkpt>
    <trkpt lat="38.493631985" lon="34.97376197">
      <ele>1578.075</ele>
      <time>2021-10-12T18:03:54Z</time>
    </trkpt>
    <trkpt lat="38.493657969" lon="34.973747972">
      <ele>1578.169</ele>
      <time>2021-10-12T18:03:55Z</time>
    </trkpt>
    <trkpt lat="38.493715972" lon="34.973717965">
      <ele>1578.377</ele>
      <time>2021-10-12T18:03:58Z</time>
    </trkpt>
    <trkpt lat="38.493745979" lon="34.973703967">
      <ele>1578.486</ele>
      <time>2021-10-12T18:03:59Z</time>
    </trkpt>
    <trkpt lat="38.493775986" lon="34.973693993">
      <ele>1578.594</ele>
      <time>2021-10-12T18:04:00Z</time>
    </trkpt>
    <trkpt lat="38.493806999" lon="34.97368603">
      <ele>1578.705</ele>
      <time>2021-10-12T18:04:01Z</time>
    </trkpt>
    <trkpt lat="38.493840024" lon="34.973682007">
      <ele>1578.824</ele>
      <time>2021-10-12T18:04:02Z</time>
    </trkpt>
    <trkpt lat="38.493871037" lon="34.973678989">
      <ele>1578.936</ele>
      <time>2021-10-12T18:04:04Z</time>
    </trkpt>
    <trkpt lat="38.49390096" lon="34.973678989">
      <ele>1579.011</ele>
      <time>2021-10-12T18:04:05Z</time>
    </trkpt>
    <trkpt lat="38.493931973" lon="34.973678989">
      <ele>1579.038</ele>
      <time>2021-10-12T18:04:06Z</time>
    </trkpt>
    <trkpt lat="38.493962986" lon="34.973681001">
      <ele>1579.067</ele>
      <time>2021-10-12T18:04:07Z</time>
    </trkpt>
    <trkpt lat="38.493992994" lon="34.973688042">
      <ele>1579.104</ele>
      <time>2021-10-12T18:04:08Z</time>
    </trkpt>
    <trkpt lat="38.494023001" lon="34.973692987">
      <ele>1579.142</ele>
      <time>2021-10-12T18:04:09Z</time>
    </trkpt>
    <trkpt lat="38.494054014" lon="34.973696005">
      <ele>1579.182</ele>
      <time>2021-10-12T18:04:10Z</time>
    </trkpt>
    <trkpt lat="38.494086033" lon="34.973696005">
      <ele>1579.217</ele>
      <time>2021-10-12T18:04:12Z</time>
    </trkpt>
    <trkpt lat="38.494117968" lon="34.973693993">
      <ele>1579.246</ele>
      <time>2021-10-12T18:04:13Z</time>
    </trkpt>
    <trkpt lat="38.494149987" lon="34.973688964">
      <ele>1579.263</ele>
      <time>2021-10-12T18:04:14Z</time>
    </trkpt>
    <trkpt lat="38.494183011" lon="34.97368603">
      <ele>1579.27</ele>
      <time>2021-10-12T18:04:15Z</time>
    </trkpt>
    <trkpt lat="38.49421503" lon="34.973683013">
      <ele>1579.259</ele>
      <time>2021-10-12T18:04:16Z</time>
    </trkpt>
    <trkpt lat="38.494246965" lon="34.973677984">
      <ele>1579.241</ele>
      <time>2021-10-12T18:04:17Z</time>
    </trkpt>
    <trkpt lat="38.494277978" lon="34.973671027">
      <ele>1579.216</ele>
      <time>2021-10-12T18:04:19Z</time>
    </trkpt>
    <trkpt lat="38.494308991" lon="34.97366298">
      <ele>1579.187</ele>
      <time>2021-10-12T18:04:20Z</time>
    </trkpt>
    <trkpt lat="38.494338999" lon="34.973655017">
      <ele>1579.158</ele>
      <time>2021-10-12T18:04:21Z</time>
    </trkpt>
    <trkpt lat="38.494369006" lon="34.973644959">
      <ele>1579.122</ele>
      <time>2021-10-12T18:04:22Z</time>
    </trkpt>
    <trkpt lat="38.494399013" lon="34.973631967">
      <ele>1579.075</ele>
      <time>2021-10-12T18:04:23Z</time>
    </trkpt>
    <trkpt lat="38.494428014" lon="34.973619981">
      <ele>1579.032</ele>
      <time>2021-10-12T18:04:24Z</time>
    </trkpt>
    <trkpt lat="38.494453998" lon="34.973602965">
      <ele>1578.972</ele>
      <time>2021-10-12T18:04:25Z</time>
    </trkpt>
    <trkpt lat="38.494478976" lon="34.973588968">
      <ele>1578.93</ele>
      <time>2021-10-12T18:04:27Z</time>
    </trkpt>
    <trkpt lat="38.494505966" lon="34.973573964">
      <ele>1578.896</ele>
      <time>2021-10-12T18:04:28Z</time>
    </trkpt>
    <trkpt lat="38.494532034" lon="34.973559966">
      <ele>1578.874</ele>
      <time>2021-10-12T18:04:29Z</time>
    </trkpt>
    <trkpt lat="38.494556006" lon="34.973543035">
      <ele>1578.853</ele>
      <time>2021-10-12T18:04:30Z</time>
    </trkpt>
    <trkpt lat="38.494580984" lon="34.973519985">
      <ele>1578.833</ele>
      <time>2021-10-12T18:04:31Z</time>
    </trkpt>
    <trkpt lat="38.494604034" lon="34.973496012">
      <ele>1578.824</ele>
      <time>2021-10-12T18:04:32Z</time>
    </trkpt>
    <trkpt lat="38.494628007" lon="34.973472962">
      <ele>1578.831</ele>
      <time>2021-10-12T18:04:33Z</time>
    </trkpt>
    <trkpt lat="38.49465399" lon="34.973449996">
      <ele>1578.858</ele>
      <time>2021-10-12T18:04:34Z</time>
    </trkpt>
    <trkpt lat="38.494679974" lon="34.973423006">
      <ele>1578.897</ele>
      <time>2021-10-12T18:04:35Z</time>
    </trkpt>
    <trkpt lat="38.494705958" lon="34.973399034">
      <ele>1578.955</ele>
      <time>2021-10-12T18:04:37Z</time>
    </trkpt>
    <trkpt lat="38.494729009" lon="34.973376989">
      <ele>1579.0</ele>
      <time>2021-10-12T18:04:38Z</time>
    </trkpt>
    <trkpt lat="38.494752981" lon="34.97335704">
      <ele>1579.0</ele>
      <time>2021-10-12T18:04:39Z</time>
    </trkpt>
    <trkpt lat="38.494777037" lon="34.973336002">
      <ele>1579.0</ele>
      <time>2021-10-12T18:04:40Z</time>
    </trkpt>
    <trkpt lat="38.494800003" lon="34.973311024">
      <ele>1579.0</ele>
      <time>2021-10-12T18:04:41Z</time>
    </trkpt>
    <trkpt lat="38.494824981" lon="34.973287974">
      <ele>1579.0</ele>
      <time>2021-10-12T18:04:42Z</time>
    </trkpt>
    <trkpt lat="38.494849959" lon="34.973265007">
      <ele>1579.0</ele>
      <time>2021-10-12T18:04:43Z</time>
    </trkpt>
    <trkpt lat="38.494874015" lon="34.973242963">
      <ele>1579.0</ele>
      <time>2021-10-12T18:04:44Z</time>
    </trkpt>
    <trkpt lat="38.494899999" lon="34.973222008">
      <ele>1579.0</ele>
      <time>2021-10-12T18:04:45Z</time>
    </trkpt>
    <trkpt lat="38.494927995" lon="34.973203987">
      <ele>1579.0</ele>
      <time>2021-10-12T18:04:47Z</time>
    </trkpt>
    <trkpt lat="38.49495599" lon="34.973185966">
      <ele>1579.0</ele>
      <time>2021-10-12T18:04:48Z</time>
    </trkpt>
    <trkpt lat="38.494983986" lon="34.973166017">
      <ele>1579.0</ele>
      <time>2021-10-12T18:04:49Z</time>
    </trkpt>
    <trkpt lat="38.495010976" lon="34.973143972">
      <ele>1578.96</ele>
      <time>2021-10-12T18:04:50Z</time>
    </trkpt>
    <trkpt lat="38.495037965" lon="34.973124024">
      <ele>1578.863</ele>
      <time>2021-10-12T18:04:51Z</time>
    </trkpt>
    <trkpt lat="38.495064033" lon="34.973106002">
      <ele>1578.769</ele>
      <time>2021-10-12T18:04:52Z</time>
    </trkpt>
    <trkpt lat="38.495091023" lon="34.973084964">
      <ele>1578.672</ele>
      <time>2021-10-12T18:04:54Z</time>
    </trkpt>
    <trkpt lat="38.495118013" lon="34.973068032">
      <ele>1578.575</ele>
      <time>2021-10-12T18:04:55Z</time>
    </trkpt>
    <trkpt lat="38.495150032" lon="34.973052023">
      <ele>1578.454</ele>
      <time>2021-10-12T18:04:56Z</time>
    </trkpt>
    <trkpt lat="38.495178027" lon="34.973038025">
      <ele>1578.336</ele>
      <time>2021-10-12T18:04:57Z</time>
    </trkpt>
    <trkpt lat="38.495208034" lon="34.973024027">
      <ele>1578.223</ele>
      <time>2021-10-12T18:04:58Z</time>
    </trkpt>
    <trkpt lat="38.495238042" lon="34.973007012">
      <ele>1578.118</ele>
      <time>2021-10-12T18:04:59Z</time>
    </trkpt>
    <trkpt lat="38.495266959" lon="34.972987985">
      <ele>1578.029</ele>
      <time>2021-10-12T18:05:01Z</time>
    </trkpt>
    <trkpt lat="38.495296966" lon="34.972969964">
      <ele>1577.793</ele>
      <time>2021-10-12T18:05:02Z</time>
    </trkpt>
    <trkpt lat="38.495327979" lon="34.972955966">
      <ele>1577.458</ele>
      <time>2021-10-12T18:05:03Z</time>
    </trkpt>
    <trkpt lat="38.495358992" lon="34.972946998">
      <ele>1577.123</ele>
      <time>2021-10-12T18:05:04Z</time>
    </trkpt>
    <trkpt lat="38.495421018" lon="34.972924031">
      <ele>1576.453</ele>
      <time>2021-10-12T18:05:07Z</time>
    </trkpt>
    <trkpt lat="38.495453959" lon="34.972915985">
      <ele>1576.097</ele>
      <time>2021-10-12T18:05:08Z</time>
    </trkpt>
    <trkpt lat="38.495486984" lon="34.972907016">
      <ele>1575.741</ele>
      <time>2021-10-12T18:05:09Z</time>
    </trkpt>
    <trkpt lat="38.495515985" lon="34.972897042">
      <ele>1575.427</ele>
      <time>2021-10-12T18:05:10Z</time>
    </trkpt>
    <trkpt lat="38.495548004" lon="34.972886983">
      <ele>1575.082</ele>
      <time>2021-10-12T18:05:12Z</time>
    </trkpt>
    <trkpt lat="38.495577006" lon="34.972873991">
      <ele>1574.819</ele>
      <time>2021-10-12T18:05:13Z</time>
    </trkpt>
    <trkpt lat="38.495606007" lon="34.972863011">
      <ele>1574.581</ele>
      <time>2021-10-12T18:05:14Z</time>
    </trkpt>
    <trkpt lat="38.49563702" lon="34.972853037">
      <ele>1574.334</ele>
      <time>2021-10-12T18:05:15Z</time>
    </trkpt>
    <trkpt lat="38.495668033" lon="34.97284499">
      <ele>1574.092</ele>
      <time>2021-10-12T18:05:16Z</time>
    </trkpt>
    <trkpt lat="38.495698962" lon="34.972836021">
      <ele>1573.859</ele>
      <time>2021-10-12T18:05:17Z</time>
    </trkpt>
    <trkpt lat="38.495729975" lon="34.972824035">
      <ele>1573.64</ele>
      <time>2021-10-12T18:05:18Z</time>
    </trkpt>
    <trkpt lat="38.495757971" lon="34.972810959">
      <ele>1573.456</ele>
      <time>2021-10-12T18:05:20Z</time>
    </trkpt>
    <trkpt lat="38.495788984" lon="34.972798973">
      <ele>1573.255</ele>
      <time>2021-10-12T18:05:21Z</time>
    </trkpt>
    <trkpt lat="38.49581698" lon="34.972787993">
      <ele>1573.083</ele>
      <time>2021-10-12T18:05:22Z</time>
    </trkpt>
    <trkpt lat="38.495845981" lon="34.972776007">
      <ele>1573.0</ele>
      <time>2021-10-12T18:05:23Z</time>
    </trkpt>
    <trkpt lat="38.495873976" lon="34.972761003">
      <ele>1573.009</ele>
      <time>2021-10-12T18:05:24Z</time>
    </trkpt>
    <trkpt lat="38.495902978" lon="34.972748011">
      <ele>1573.027</ele>
      <time>2021-10-12T18:05:25Z</time>
    </trkpt>
    <trkpt lat="38.495930973" lon="34.972734014">
      <ele>1573.055</ele>
      <time>2021-10-12T18:05:26Z</time>
    </trkpt>
    <trkpt lat="38.495962992" lon="34.972718004">
      <ele>1573.1</ele>
      <time>2021-10-12T18:05:28Z</time>
    </trkpt>
    <trkpt lat="38.495990988" lon="34.972704006">
      <ele>1573.151</ele>
      <time>2021-10-12T18:05:29Z</time>
    </trkpt>
    <trkpt lat="38.496019989" lon="34.972690009">
      <ele>1573.212</ele>
      <time>2021-10-12T18:05:30Z</time>
    </trkpt>
    <trkpt lat="38.496049996" lon="34.972676011">
      <ele>1573.286</ele>
      <time>2021-10-12T18:05:31Z</time>
    </trkpt>
    <trkpt lat="38.496080004" lon="34.972664025">
      <ele>1573.364</ele>
      <time>2021-10-12T18:05:32Z</time>
    </trkpt>
    <trkpt lat="38.496111017" lon="34.972651033">
      <ele>1573.456</ele>
      <time>2021-10-12T18:05:33Z</time>
    </trkpt>
    <trkpt lat="38.49614203" lon="34.972638041">
      <ele>1573.614</ele>
      <time>2021-10-12T18:05:35Z</time>
    </trkpt>
    <trkpt lat="38.496172037" lon="34.972623037">
      <ele>1573.776</ele>
      <time>2021-10-12T18:05:36Z</time>
    </trkpt>
    <trkpt lat="38.496202966" lon="34.972606022">
      <ele>1573.949</ele>
      <time>2021-10-12T18:05:37Z</time>
    </trkpt>
    <trkpt lat="38.49623004" lon="34.972594036">
      <ele>1574.09</ele>
      <time>2021-10-12T18:05:38Z</time>
    </trkpt>
    <trkpt lat="38.496259041" lon="34.972583978">
      <ele>1574.23</ele>
      <time>2021-10-12T18:05:39Z</time>
    </trkpt>
    <trkpt lat="38.496311009" lon="34.972557994">
      <ele>1574.511</ele>
      <time>2021-10-12T18:05:41Z</time>
    </trkpt>
    <trkpt lat="38.496336993" lon="34.972546007">
      <ele>1574.648</ele>
      <time>2021-10-12T18:05:42Z</time>
    </trkpt>
    <trkpt lat="38.496362977" lon="34.972533016">
      <ele>1574.788</ele>
      <time>2021-10-12T18:05:43Z</time>
    </trkpt>
    <trkpt lat="38.496387033" lon="34.972517006">
      <ele>1574.932</ele>
      <time>2021-10-12T18:05:44Z</time>
    </trkpt>
    <trkpt lat="38.49641704" lon="34.972503008">
      <ele>1574.989</ele>
      <time>2021-10-12T18:05:46Z</time>
    </trkpt>
    <trkpt lat="38.496443024" lon="34.972490016">
      <ele>1575.007</ele>
      <time>2021-10-12T18:05:47Z</time>
    </trkpt>
    <trkpt lat="38.496469008" lon="34.972475013">
      <ele>1575.026</ele>
      <time>2021-10-12T18:05:48Z</time>
    </trkpt>
    <trkpt lat="38.496499015" lon="34.972461015">
      <ele>1575.056</ele>
      <time>2021-10-12T18:05:49Z</time>
    </trkpt>
    <trkpt lat="38.496526005" lon="34.972447017">
      <ele>1575.094</ele>
      <time>2021-10-12T18:05:50Z</time>
    </trkpt>
    <trkpt lat="38.496551989" lon="34.972436037">
      <ele>1575.135</ele>
      <time>2021-10-12T18:05:51Z</time>
    </trkpt>
    <trkpt lat="38.496585013" lon="34.972422039">
      <ele>1575.198</ele>
      <time>2021-10-12T18:05:52Z</time>
    </trkpt>
    <trkpt lat="38.496614015" lon="34.97240603">
      <ele>1575.274</ele>
      <time>2021-10-12T18:05:53Z</time>
    </trkpt>
    <trkpt lat="38.49664201" lon="34.972393038">
      <ele>1575.351</ele>
      <time>2021-10-12T18:05:55Z</time>
    </trkpt>
    <trkpt lat="38.496669" lon="34.97237904">
      <ele>1575.427</ele>
      <time>2021-10-12T18:05:56Z</time>
    </trkpt>
    <trkpt lat="38.496694984" lon="34.972363031">
      <ele>1575.391</ele>
      <time>2021-10-12T18:05:57Z</time>
    </trkpt>
    <trkpt lat="38.496722979" lon="34.972347021">
      <ele>1575.348</ele>
      <time>2021-10-12T18:05:58Z</time>
    </trkpt>
    <trkpt lat="38.496749969" lon="34.972334029">
      <ele>1575.298</ele>
      <time>2021-10-12T18:05:59Z</time>
    </trkpt>
    <trkpt lat="38.496776959" lon="34.972320031">
      <ele>1575.251</ele>
      <time>2021-10-12T18:06:00Z</time>
    </trkpt>
    <trkpt lat="38.49680596" lon="34.972303016">
      <ele>1575.208</ele>
      <time>2021-10-12T18:06:01Z</time>
    </trkpt>
    <trkpt lat="38.496832028" lon="34.972284995">
      <ele>1575.179</ele>
      <time>2021-10-12T18:06:02Z</time>
    </trkpt>
    <trkpt lat="38.496859018" lon="34.972266974">
      <ele>1575.146</ele>
      <time>2021-10-12T18:06:03Z</time>
    </trkpt>
    <trkpt lat="38.496883996" lon="34.972249959">
      <ele>1575.118</ele>
      <time>2021-10-12T18:06:04Z</time>
    </trkpt>
    <trkpt lat="38.496906962" lon="34.972234033">
      <ele>1575.092</ele>
      <time>2021-10-12T18:06:05Z</time>
    </trkpt>
    <trkpt lat="38.496932024" lon="34.972219029">
      <ele>1575.056</ele>
      <time>2021-10-12T18:06:06Z</time>
    </trkpt>
    <trkpt lat="38.496951973" lon="34.972200003">
      <ele>1575.078</ele>
      <time>2021-10-12T18:06:07Z</time>
    </trkpt>
    <trkpt lat="38.496976029" lon="34.972177958">
      <ele>1575.141</ele>
      <time>2021-10-12T18:06:08Z</time>
    </trkpt>
    <trkpt lat="38.497000001" lon="34.972154992">
      <ele>1575.194</ele>
      <time>2021-10-12T18:06:10Z</time>
    </trkpt>
    <trkpt lat="38.497022968" lon="34.972132025">
      <ele>1575.233</ele>
      <time>2021-10-12T18:06:11Z</time>
    </trkpt>
    <trkpt lat="38.497049036" lon="34.972111993">
      <ele>1575.247</ele>
      <time>2021-10-12T18:06:12Z</time>
    </trkpt>
    <trkpt lat="38.497075019" lon="34.972091038">
      <ele>1575.25</ele>
      <time>2021-10-12T18:06:13Z</time>
    </trkpt>
    <trkpt lat="38.497102009" lon="34.972069999">
      <ele>1575.237</ele>
      <time>2021-10-12T18:06:14Z</time>
    </trkpt>
    <trkpt lat="38.497128999" lon="34.972050972">
      <ele>1575.207</ele>
      <time>2021-10-12T18:06:15Z</time>
    </trkpt>
    <trkpt lat="38.497159006" lon="34.972036975">
      <ele>1575.152</ele>
      <time>2021-10-12T18:06:16Z</time>
    </trkpt>
    <trkpt lat="38.497187002" lon="34.972022977">
      <ele>1575.091</ele>
      <time>2021-10-12T18:06:17Z</time>
    </trkpt>
    <trkpt lat="38.497218015" lon="34.972007973">
      <ele>1575.012</ele>
      <time>2021-10-12T18:06:19Z</time>
    </trkpt>
    <trkpt lat="38.497247016" lon="34.971990036">
      <ele>1575.0</ele>
      <time>2021-10-12T18:06:20Z</time>
    </trkpt>
    <trkpt lat="38.497274006" lon="34.971972015">
      <ele>1575.0</ele>
      <time>2021-10-12T18:06:21Z</time>
    </trkpt>
    <trkpt lat="38.497305019" lon="34.971956005">
      <ele>1575.0</ele>
      <time>2021-10-12T18:06:22Z</time>
    </trkpt>
    <trkpt lat="38.49733402" lon="34.971939996">
      <ele>1574.99</ele>
      <time>2021-10-12T18:06:23Z</time>
    </trkpt>
    <trkpt lat="38.497357992" lon="34.971921975">
      <ele>1574.959</ele>
      <time>2021-10-12T18:06:24Z</time>
    </trkpt>
    <trkpt lat="38.497385988" lon="34.971906971">
      <ele>1574.945</ele>
      <time>2021-10-12T18:06:26Z</time>
    </trkpt>
    <trkpt lat="38.497413984" lon="34.971891968">
      <ele>1574.942</ele>
      <time>2021-10-12T18:06:27Z</time>
    </trkpt>
    <trkpt lat="38.497442985" lon="34.971876964">
      <ele>1574.95</ele>
      <time>2021-10-12T18:06:28Z</time>
    </trkpt>
    <trkpt lat="38.497470981" lon="34.971865984">
      <ele>1574.97</ele>
      <time>2021-10-12T18:06:29Z</time>
    </trkpt>
    <trkpt lat="38.497499982" lon="34.971856009">
      <ele>1575.0</ele>
      <time>2021-10-12T18:06:30Z</time>
    </trkpt>
    <trkpt lat="38.497527977" lon="34.971847963">
      <ele>1575.136</ele>
      <time>2021-10-12T18:06:31Z</time>
    </trkpt>
    <trkpt lat="38.497554967" lon="34.971843017">
      <ele>1575.27</ele>
      <time>2021-10-12T18:06:32Z</time>
    </trkpt>
    <trkpt lat="38.497584974" lon="34.97184">
      <ele>1575.421</ele>
      <time>2021-10-12T18:06:33Z</time>
    </trkpt>
    <trkpt lat="38.497613976" lon="34.971835976">
      <ele>1575.571</ele>
      <time>2021-10-12T18:06:34Z</time>
    </trkpt>
    <trkpt lat="38.497640966" lon="34.971832037">
      <ele>1575.713</ele>
      <time>2021-10-12T18:06:35Z</time>
    </trkpt>
    <trkpt lat="38.497668961" lon="34.971829019">
      <ele>1575.861</ele>
      <time>2021-10-12T18:06:36Z</time>
    </trkpt>
    <trkpt lat="38.497697962" lon="34.97182399">
      <ele>1576.022</ele>
      <time>2021-10-12T18:06:37Z</time>
    </trkpt>
    <trkpt lat="38.497726042" lon="34.971819967">
      <ele>1576.178</ele>
      <time>2021-10-12T18:06:39Z</time>
    </trkpt>
    <trkpt lat="38.497754037" lon="34.971816028">
      <ele>1576.337</ele>
      <time>2021-10-12T18:06:40Z</time>
    </trkpt>
    <trkpt lat="38.497781027" lon="34.971809993">
      <ele>1576.513</ele>
      <time>2021-10-12T18:06:41Z</time>
    </trkpt>
    <trkpt lat="38.497804999" lon="34.971803036">
      <ele>1576.755</ele>
      <time>2021-10-12T18:06:41Z</time>
    </trkpt>
    <trkpt lat="38.497831989" lon="34.971794989">
      <ele>1577.033</ele>
      <time>2021-10-12T18:06:43Z</time>
    </trkpt>
    <trkpt lat="38.497855961" lon="34.971789038">
      <ele>1577.28</ele>
      <time>2021-10-12T18:06:43Z</time>
    </trkpt>
    <trkpt lat="38.497883035" lon="34.971784009">
      <ele>1577.554</ele>
      <time>2021-10-12T18:06:44Z</time>
    </trkpt>
    <trkpt lat="38.497907007" lon="34.971776968">
      <ele>1577.814</ele>
      <time>2021-10-12T18:06:45Z</time>
    </trkpt>
    <trkpt lat="38.497931985" lon="34.971771017">
      <ele>1578.081</ele>
      <time>2021-10-12T18:06:46Z</time>
    </trkpt>
    <trkpt lat="38.497957969" lon="34.971769005">
      <ele>1578.339</ele>
      <time>2021-10-12T18:06:47Z</time>
    </trkpt>
    <trkpt lat="38.497984959" lon="34.971769005">
      <ele>1578.594</ele>
      <time>2021-10-12T18:06:48Z</time>
    </trkpt>
    <trkpt lat="38.498011027" lon="34.971764982">
      <ele>1578.868</ele>
      <time>2021-10-12T18:06:49Z</time>
    </trkpt>
    <trkpt lat="38.498041034" lon="34.971760036">
      <ele>1579.188</ele>
      <time>2021-10-12T18:06:50Z</time>
    </trkpt>
    <trkpt lat="38.498067018" lon="34.971754001">
      <ele>1579.412</ele>
      <time>2021-10-12T18:06:51Z</time>
    </trkpt>
    <trkpt lat="38.498097025" lon="34.971747966">
      <ele>1579.564</ele>
      <time>2021-10-12T18:06:52Z</time>
    </trkpt>
    <trkpt lat="38.49812896" lon="34.971745033">
      <ele>1579.7</ele>
      <time>2021-10-12T18:06:54Z</time>
    </trkpt>
    <trkpt lat="38.498158967" lon="34.97174101">
      <ele>1579.837</ele>
      <time>2021-10-12T18:06:55Z</time>
    </trkpt>
    <trkpt lat="38.498190986" lon="34.971733969">
      <ele>1580.003</ele>
      <time>2021-10-12T18:06:56Z</time>
    </trkpt>
    <trkpt lat="38.498220993" lon="34.971728018">
      <ele>1580.154</ele>
      <time>2021-10-12T18:06:57Z</time>
    </trkpt>
    <trkpt lat="38.498278996" lon="34.971719971">
      <ele>1580.421</ele>
      <time>2021-10-12T18:06:59Z</time>
    </trkpt>
    <trkpt lat="38.49830498" lon="34.971716031">
      <ele>1580.543</ele>
      <time>2021-10-12T18:07:00Z</time>
    </trkpt>
    <trkpt lat="38.498332975" lon="34.971709996">
      <ele>1580.687</ele>
      <time>2021-10-12T18:07:01Z</time>
    </trkpt>
    <trkpt lat="38.498363988" lon="34.971705973">
      <ele>1580.622</ele>
      <time>2021-10-12T18:07:02Z</time>
    </trkpt>
    <trkpt lat="38.498391984" lon="34.971701028">
      <ele>1580.568</ele>
      <time>2021-10-12T18:07:03Z</time>
    </trkpt>
    <trkpt lat="38.498421991" lon="34.971697005">
      <ele>1580.497</ele>
      <time>2021-10-12T18:07:05Z</time>
    </trkpt>
    <trkpt lat="38.498449987" lon="34.971694993">
      <ele>1580.419</ele>
      <time>2021-10-12T18:07:06Z</time>
    </trkpt>
    <trkpt lat="38.498478988" lon="34.971693987">
      <ele>1580.331</ele>
      <time>2021-10-12T18:07:07Z</time>
    </trkpt>
    <trkpt lat="38.498510001" lon="34.971697005">
      <ele>1580.215</ele>
      <time>2021-10-12T18:07:08Z</time>
    </trkpt>
    <trkpt lat="38.498540008" lon="34.971702034">
      <ele>1580.096</ele>
      <time>2021-10-12T18:07:09Z</time>
    </trkpt>
    <trkpt lat="38.498568004" lon="34.971707985">
      <ele>1579.983</ele>
      <time>2021-10-12T18:07:10Z</time>
    </trkpt>
    <trkpt lat="38.498598011" lon="34.971709996">
      <ele>1579.884</ele>
      <time>2021-10-12T18:07:11Z</time>
    </trkpt>
    <trkpt lat="38.498628018" lon="34.971712008">
      <ele>1579.776</ele>
      <time>2021-10-12T18:07:12Z</time>
    </trkpt>
    <trkpt lat="38.49865702" lon="34.971716031">
      <ele>1579.657</ele>
      <time>2021-10-12T18:07:13Z</time>
    </trkpt>
    <trkpt lat="38.498687027" lon="34.971723994">
      <ele>1579.52</ele>
      <time>2021-10-12T18:07:14Z</time>
    </trkpt>
    <trkpt lat="38.498716028" lon="34.971729023">
      <ele>1579.398</ele>
      <time>2021-10-12T18:07:15Z</time>
    </trkpt>
    <trkpt lat="38.498746036" lon="34.971733969">
      <ele>1579.272</ele>
      <time>2021-10-12T18:07:17Z</time>
    </trkpt>
    <trkpt lat="38.49877202" lon="34.971736986">
      <ele>1579.168</ele>
      <time>2021-10-12T18:07:18Z</time>
    </trkpt>
    <trkpt lat="38.498798003" lon="34.971738998">
      <ele>1579.067</ele>
      <time>2021-10-12T18:07:19Z</time>
    </trkpt>
    <trkpt lat="38.498849971" lon="34.971747966">
      <ele>1578.847</ele>
      <time>2021-10-12T18:07:20Z</time>
    </trkpt>
    <trkpt lat="38.498876039" lon="34.971748972">
      <ele>1578.75</ele>
      <time>2021-10-12T18:07:21Z</time>
    </trkpt>
    <trkpt lat="38.498900011" lon="34.97175199">
      <ele>1578.693</ele>
      <time>2021-10-12T18:07:22Z</time>
    </trkpt>
    <trkpt lat="38.498923983" lon="34.971754001">
      <ele>1578.686</ele>
      <time>2021-10-12T18:07:23Z</time>
    </trkpt>
    <trkpt lat="38.498946028" lon="34.97175199">
      <ele>1578.693</ele>
      <time>2021-10-12T18:07:24Z</time>
    </trkpt>
    <trkpt lat="38.498972012" lon="34.971746961">
      <ele>1578.711</ele>
      <time>2021-10-12T18:07:25Z</time>
    </trkpt>
    <trkpt lat="38.499002019" lon="34.971746039">
      <ele>1578.714</ele>
      <time>2021-10-12T18:07:26Z</time>
    </trkpt>
    <trkpt lat="38.499032026" lon="34.971746039">
      <ele>1578.714</ele>
      <time>2021-10-12T18:07:27Z</time>
    </trkpt>
    <trkpt lat="38.499059016" lon="34.971746039">
      <ele>1578.714</ele>
      <time>2021-10-12T18:07:28Z</time>
    </trkpt>
    <trkpt lat="38.499089023" lon="34.971748972">
      <ele>1578.704</ele>
      <time>2021-10-12T18:07:29Z</time>
    </trkpt>
    <trkpt lat="38.499120036" lon="34.971746961">
      <ele>1578.711</ele>
      <time>2021-10-12T18:07:31Z</time>
    </trkpt>
    <trkpt lat="38.499152977" lon="34.971749978">
      <ele>1578.7</ele>
      <time>2021-10-12T18:07:32Z</time>
    </trkpt>
    <trkpt lat="38.499186002" lon="34.971752996">
      <ele>1578.759</ele>
      <time>2021-10-12T18:07:33Z</time>
    </trkpt>
    <trkpt lat="38.499215003" lon="34.971757019">
      <ele>1578.849</ele>
      <time>2021-10-12T18:07:34Z</time>
    </trkpt>
    <trkpt lat="38.499241993" lon="34.971760036">
      <ele>1578.935</ele>
      <time>2021-10-12T18:07:35Z</time>
    </trkpt>
    <trkpt lat="38.499269988" lon="34.97176297">
      <ele>1579.025</ele>
      <time>2021-10-12T18:07:36Z</time>
    </trkpt>
    <trkpt lat="38.499296978" lon="34.971767999">
      <ele>1579.104</ele>
      <time>2021-10-12T18:07:37Z</time>
    </trkpt>
    <trkpt lat="38.499323968" lon="34.971777974">
      <ele>1579.166</ele>
      <time>2021-10-12T18:07:38Z</time>
    </trkpt>
    <trkpt lat="38.499351041" lon="34.971785014">
      <ele>1579.238</ele>
      <time>2021-10-12T18:07:39Z</time>
    </trkpt>
    <trkpt lat="38.499376019" lon="34.97178996">
      <ele>1579.31</ele>
      <time>2021-10-12T18:07:40Z</time>
    </trkpt>
    <trkpt lat="38.499404015" lon="34.971794989">
      <ele>1579.392</ele>
      <time>2021-10-12T18:07:41Z</time>
    </trkpt>
    <trkpt lat="38.499433016" lon="34.97180203">
      <ele>1579.472</ele>
      <time>2021-10-12T18:07:42Z</time>
    </trkpt>
    <trkpt lat="38.499459" lon="34.971808987">
      <ele>1579.514</ele>
      <time>2021-10-12T18:07:43Z</time>
    </trkpt>
    <trkpt lat="38.499490013" lon="34.971819967">
      <ele>1579.539</ele>
      <time>2021-10-12T18:07:44Z</time>
    </trkpt>
    <trkpt lat="38.499518009" lon="34.971827008">
      <ele>1579.576</ele>
      <time>2021-10-12T18:07:45Z</time>
    </trkpt>
    <trkpt lat="38.499548016" lon="34.971832959">
      <ele>1579.625</ele>
      <time>2021-10-12T18:07:47Z</time>
    </trkpt>
    <trkpt lat="38.499578023" lon="34.97184">
      <ele>1579.676</ele>
      <time>2021-10-12T18:07:48Z</time>
    </trkpt>
    <trkpt lat="38.499607025" lon="34.971846035">
      <ele>1579.732</ele>
      <time>2021-10-12T18:07:49Z</time>
    </trkpt>
    <trkpt lat="38.49963896" lon="34.97185098">
      <ele>1579.801</ele>
      <time>2021-10-12T18:07:50Z</time>
    </trkpt>
    <trkpt lat="38.499668967" lon="34.971859027">
      <ele>1579.867</ele>
      <time>2021-10-12T18:07:51Z</time>
    </trkpt>
    <trkpt lat="38.499696041" lon="34.971865984">
      <ele>1579.932</ele>
      <time>2021-10-12T18:07:52Z</time>
    </trkpt>
    <trkpt lat="38.499724958" lon="34.971870007">
      <ele>1580.012</ele>
      <time>2021-10-12T18:07:53Z</time>
    </trkpt>
    <trkpt lat="38.499754965" lon="34.97187797">
      <ele>1580.146</ele>
      <time>2021-10-12T18:07:54Z</time>
    </trkpt>
    <trkpt lat="38.499782961" lon="34.971882999">
      <ele>1580.267</ele>
      <time>2021-10-12T18:07:55Z</time>
    </trkpt>
    <trkpt lat="38.49981104" lon="34.971888028">
      <ele>1580.385</ele>
      <time>2021-10-12T18:07:56Z</time>
    </trkpt>
    <trkpt lat="38.499836018" lon="34.971894985">
      <ele>1580.483</ele>
      <time>2021-10-12T18:07:57Z</time>
    </trkpt>
    <trkpt lat="38.499862002" lon="34.971903032">
      <ele>1580.578</ele>
      <time>2021-10-12T18:07:58Z</time>
    </trkpt>
    <trkpt lat="38.499891004" lon="34.971909989">
      <ele>1580.683</ele>
      <time>2021-10-12T18:07:59Z</time>
    </trkpt>
    <trkpt lat="38.499914976" lon="34.971918035">
      <ele>1580.76</ele>
      <time>2021-10-12T18:08:00Z</time>
    </trkpt>
    <trkpt lat="38.499941966" lon="34.971927004">
      <ele>1580.841</ele>
      <time>2021-10-12T18:08:01Z</time>
    </trkpt>
    <trkpt lat="38.499970967" lon="34.971933961">
      <ele>1580.929</ele>
      <time>2021-10-12T18:08:03Z</time>
    </trkpt>
    <trkpt lat="38.49999804" lon="34.971935973">
      <ele>1581.023</ele>
      <time>2021-10-12T18:08:04Z</time>
    </trkpt>
    <trkpt lat="38.500026036" lon="34.971941002">
      <ele>1581.106</ele>
      <time>2021-10-12T18:08:05Z</time>
    </trkpt>
    <trkpt lat="38.500054032" lon="34.971947037">
      <ele>1581.183</ele>
      <time>2021-10-12T18:08:06Z</time>
    </trkpt>
    <trkpt lat="38.500081021" lon="34.971953994">
      <ele>1581.247</ele>
      <time>2021-10-12T18:08:07Z</time>
    </trkpt>
    <trkpt lat="38.500110023" lon="34.97196204">
      <ele>1581.308</ele>
      <time>2021-10-12T18:08:08Z</time>
    </trkpt>
    <trkpt lat="38.500139024" lon="34.971968997">
      <ele>1581.368</ele>
      <time>2021-10-12T18:08:09Z</time>
    </trkpt>
    <trkpt lat="38.500170037" lon="34.971976038">
      <ele>1581.429</ele>
      <time>2021-10-12T18:08:10Z</time>
    </trkpt>
    <trkpt lat="38.500200966" lon="34.971977966">
      <ele>1581.515</ele>
      <time>2021-10-12T18:08:11Z</time>
    </trkpt>
    <trkpt lat="38.500229968" lon="34.971981989">
      <ele>1581.581</ele>
      <time>2021-10-12T18:08:12Z</time>
    </trkpt>
    <trkpt lat="38.500259975" lon="34.971982995">
      <ele>1581.667</ele>
      <time>2021-10-12T18:08:13Z</time>
    </trkpt>
    <trkpt lat="38.500289982" lon="34.971982995">
      <ele>1581.722</ele>
      <time>2021-10-12T18:08:14Z</time>
    </trkpt>
    <trkpt lat="38.500318984" lon="34.971981989">
      <ele>1581.73</ele>
      <time>2021-10-12T18:08:16Z</time>
    </trkpt>
    <trkpt lat="38.500351002" lon="34.971981989">
      <ele>1581.73</ele>
      <time>2021-10-12T18:08:17Z</time>
    </trkpt>
    <trkpt lat="38.50038101" lon="34.971981989">
      <ele>1581.73</ele>
      <time>2021-10-12T18:08:18Z</time>
    </trkpt>
    <trkpt lat="38.500411017" lon="34.971977966">
      <ele>1581.759</ele>
      <time>2021-10-12T18:08:19Z</time>
    </trkpt>
    <trkpt lat="38.50044203" lon="34.971973021">
      <ele>1581.794</ele>
      <time>2021-10-12T18:08:20Z</time>
    </trkpt>
    <trkpt lat="38.500472037" lon="34.971970003">
      <ele>1581.816</ele>
      <time>2021-10-12T18:08:21Z</time>
    </trkpt>
    <trkpt lat="38.500501039" lon="34.971963968">
      <ele>1581.859</ele>
      <time>2021-10-12T18:08:22Z</time>
    </trkpt>
    <trkpt lat="38.500531968" lon="34.971960029">
      <ele>1581.888</ele>
      <time>2021-10-12T18:08:23Z</time>
    </trkpt>
    <trkpt lat="38.500559963" lon="34.971954999">
      <ele>1581.924</ele>
      <time>2021-10-12T18:08:24Z</time>
    </trkpt>
    <trkpt lat="38.500587959" lon="34.971947959">
      <ele>1581.975</ele>
      <time>2021-10-12T18:08:26Z</time>
    </trkpt>
    <trkpt lat="38.500617966" lon="34.971944019">
      <ele>1582.001</ele>
      <time>2021-10-12T18:08:27Z</time>
    </trkpt>
    <trkpt lat="38.500650991" lon="34.971939996">
      <ele>1582.011</ele>
      <time>2021-10-12T18:08:28Z</time>
    </trkpt>
    <trkpt lat="38.500682004" lon="34.971933961">
      <ele>1582.021</ele>
      <time>2021-10-12T18:08:29Z</time>
    </trkpt>
    <trkpt lat="38.500709999" lon="34.971925998">
      <ele>1582.029</ele>
      <time>2021-10-12T18:08:30Z</time>
    </trkpt>
    <trkpt lat="38.500737995" lon="34.971919041">
      <ele>1582.031</ele>
      <time>2021-10-12T18:08:31Z</time>
    </trkpt>
    <trkpt lat="38.500772025" lon="34.971914012">
      <ele>1582.024</ele>
      <time>2021-10-12T18:08:32Z</time>
    </trkpt>
    <trkpt lat="38.500802033" lon="34.971908983">
      <ele>1582.014</ele>
      <time>2021-10-12T18:08:34Z</time>
    </trkpt>
    <trkpt lat="38.500834974" lon="34.971903032">
      <ele>1581.994</ele>
      <time>2021-10-12T18:08:35Z</time>
    </trkpt>
    <trkpt lat="38.500865987" lon="34.971892973">
      <ele>1581.882</ele>
      <time>2021-10-12T18:08:36Z</time>
    </trkpt>
    <trkpt lat="38.500894988" lon="34.971881993">
      <ele>1581.778</ele>
      <time>2021-10-12T18:08:37Z</time>
    </trkpt>
    <trkpt lat="38.500926001" lon="34.971871013">
      <ele>1581.666</ele>
      <time>2021-10-12T18:08:38Z</time>
    </trkpt>
    <trkpt lat="38.500959026" lon="34.971864978">
      <ele>1581.548</ele>
      <time>2021-10-12T18:08:39Z</time>
    </trkpt>
    <trkpt lat="38.500990961" lon="34.971859027">
      <ele>1581.433</ele>
      <time>2021-10-12T18:08:41Z</time>
    </trkpt>
    <trkpt lat="38.50102298" lon="34.971849974">
      <ele>1581.317</ele>
      <time>2021-10-12T18:08:42Z</time>
    </trkpt>
    <trkpt lat="38.501053993" lon="34.971836982">
      <ele>1581.206</ele>
      <time>2021-10-12T18:08:43Z</time>
    </trkpt>
    <trkpt lat="38.501086012" lon="34.971828014">
      <ele>1581.09</ele>
      <time>2021-10-12T18:08:44Z</time>
    </trkpt>
    <trkpt lat="38.501115013" lon="34.971820973">
      <ele>1580.992</ele>
      <time>2021-10-12T18:08:45Z</time>
    </trkpt>
    <trkpt lat="38.501146026" lon="34.971816028">
      <ele>1580.932</ele>
      <time>2021-10-12T18:08:47Z</time>
    </trkpt>
    <trkpt lat="38.501176033" lon="34.971807981">
      <ele>1580.881</ele>
      <time>2021-10-12T18:08:48Z</time>
    </trkpt>
    <trkpt lat="38.501206962" lon="34.97180203">
      <ele>1580.832</ele>
      <time>2021-10-12T18:08:49Z</time>
    </trkpt>
    <trkpt lat="38.50123697" lon="34.971793983">
      <ele>1580.792</ele>
      <time>2021-10-12T18:08:50Z</time>
    </trkpt>
    <trkpt lat="38.501269994" lon="34.971789038">
      <ele>1580.748</ele>
      <time>2021-10-12T18:08:51Z</time>
    </trkpt>
    <trkpt lat="38.501304025" lon="34.971781997">
      <ele>1580.712</ele>
      <time>2021-10-12T18:08:53Z</time>
    </trkpt>
    <trkpt lat="38.501337972" lon="34.971775962">
      <ele>1580.679</ele>
      <time>2021-10-12T18:08:54Z</time>
    </trkpt>
    <trkpt lat="38.501372002" lon="34.971771017">
      <ele>1580.647</ele>
      <time>2021-10-12T18:08:55Z</time>
    </trkpt>
    <trkpt lat="38.501404021" lon="34.971765988">
      <ele>1580.533</ele>
      <time>2021-10-12T18:08:56Z</time>
    </trkpt>
    <trkpt lat="38.501433022" lon="34.971759031">
      <ele>1580.35</ele>
      <time>2021-10-12T18:08:57Z</time>
    </trkpt>
    <trkpt lat="38.501460012" lon="34.971755007">
      <ele>1580.17</ele>
      <time>2021-10-12T18:08:58Z</time>
    </trkpt>
    <trkpt lat="38.501490019" lon="34.97175199">
      <ele>1579.965</ele>
      <time>2021-10-12T18:08:59Z</time>
    </trkpt>
    <trkpt lat="38.501523966" lon="34.971756013">
      <ele>1579.706</ele>
      <time>2021-10-12T18:09:01Z</time>
    </trkpt>
    <trkpt lat="38.501557996" lon="34.971758025">
      <ele>1579.454</ele>
      <time>2021-10-12T18:09:02Z</time>
    </trkpt>
    <trkpt lat="38.501590015" lon="34.971759031">
      <ele>1579.219</ele>
      <time>2021-10-12T18:09:03Z</time>
    </trkpt>
    <trkpt lat="38.50162304" lon="34.971759031">
      <ele>1578.982</ele>
      <time>2021-10-12T18:09:04Z</time>
    </trkpt>
    <trkpt lat="38.501654975" lon="34.971758025">
      <ele>1578.755</ele>
      <time>2021-10-12T18:09:06Z</time>
    </trkpt>
    <trkpt lat="38.501683977" lon="34.971752996">
      <ele>1578.502</ele>
      <time>2021-10-12T18:09:07Z</time>
    </trkpt>
    <trkpt lat="38.501715995" lon="34.971747966">
      <ele>1578.175</ele>
      <time>2021-10-12T18:09:08Z</time>
    </trkpt>
    <trkpt lat="38.501746003" lon="34.971742015">
      <ele>1577.872</ele>
      <time>2021-10-12T18:09:09Z</time>
    </trkpt>
    <trkpt lat="38.501775004" lon="34.971734975">
      <ele>1577.584</ele>
      <time>2021-10-12T18:09:10Z</time>
    </trkpt>
    <trkpt lat="38.501806017" lon="34.971727012">
      <ele>1577.278</ele>
      <time>2021-10-12T18:09:11Z</time>
    </trkpt>
    <trkpt lat="38.501838036" lon="34.971719971">
      <ele>1576.957</ele>
      <time>2021-10-12T18:09:12Z</time>
    </trkpt>
    <trkpt lat="38.501868965" lon="34.971711002">
      <ele>1576.656</ele>
      <time>2021-10-12T18:09:14Z</time>
    </trkpt>
    <trkpt lat="38.50190199" lon="34.971702034">
      <ele>1576.331</ele>
      <time>2021-10-12T18:09:15Z</time>
    </trkpt>
    <trkpt lat="38.501934009" lon="34.971691975">
      <ele>1576.022</ele>
      <time>2021-10-12T18:09:16Z</time>
    </trkpt>
    <trkpt lat="38.501964016" lon="34.971678983">
      <ele>1575.888</ele>
      <time>2021-10-12T18:09:17Z</time>
    </trkpt>
    <trkpt lat="38.501993017" lon="34.971665991">
      <ele>1575.828</ele>
      <time>2021-10-12T18:09:18Z</time>
    </trkpt>
    <trkpt lat="38.502023024" lon="34.971654005">
      <ele>1575.763</ele>
      <time>2021-10-12T18:09:20Z</time>
    </trkpt>
    <trkpt lat="38.502053032" lon="34.971645959">
      <ele>1575.684</ele>
      <time>2021-10-12T18:09:21Z</time>
    </trkpt>
    <trkpt lat="38.502084967" lon="34.971639002">
      <ele>1575.594</ele>
      <time>2021-10-12T18:09:22Z</time>
    </trkpt>
    <trkpt lat="38.50211598" lon="34.971630033">
      <ele>1575.514</ele>
      <time>2021-10-12T18:09:23Z</time>
    </trkpt>
    <trkpt lat="38.502145987" lon="34.971621986">
      <ele>1575.435</ele>
      <time>2021-10-12T18:09:24Z</time>
    </trkpt>
    <trkpt lat="38.502180018" lon="34.97161">
      <ele>1575.356</ele>
      <time>2021-10-12T18:09:25Z</time>
    </trkpt>
    <trkpt lat="38.502215976" lon="34.971598014">
      <ele>1575.27</ele>
      <time>2021-10-12T18:09:27Z</time>
    </trkpt>
    <trkpt lat="38.502252018" lon="34.971588962">
      <ele>1575.142</ele>
      <time>2021-10-12T18:09:28Z</time>
    </trkpt>
    <trkpt lat="38.502317984" lon="34.971579993">
      <ele>1574.86</ele>
      <time>2021-10-12T18:09:31Z</time>
    </trkpt>
    <trkpt lat="38.502352014" lon="34.971578987">
      <ele>1574.701</ele>
      <time>2021-10-12T18:09:32Z</time>
    </trkpt>
    <trkpt lat="38.502386967" lon="34.971576976">
      <ele>1574.538</ele>
      <time>2021-10-12T18:09:33Z</time>
    </trkpt>
    <trkpt lat="38.502419991" lon="34.971577981">
      <ele>1574.38</ele>
      <time>2021-10-12T18:09:34Z</time>
    </trkpt>
    <trkpt lat="38.502449999" lon="34.971583011">
      <ele>1574.234</ele>
      <time>2021-10-12T18:09:36Z</time>
    </trkpt>
    <trkpt lat="38.502484029" lon="34.971584016">
      <ele>1574.075</ele>
      <time>2021-10-12T18:09:37Z</time>
    </trkpt>
    <trkpt lat="38.50251697" lon="34.971586028">
      <ele>1573.896</ele>
      <time>2021-10-12T18:09:38Z</time>
    </trkpt>
    <trkpt lat="38.502552006" lon="34.971586028">
      <ele>1573.68</ele>
      <time>2021-10-12T18:09:39Z</time>
    </trkpt>
    <trkpt lat="38.502586037" lon="34.971586028">
      <ele>1573.47</ele>
      <time>2021-10-12T18:09:41Z</time>
    </trkpt>
    <trkpt lat="38.502616966" lon="34.971586028">
      <ele>1573.28</ele>
      <time>2021-10-12T18:09:42Z</time>
    </trkpt>
    <trkpt lat="38.502649991" lon="34.97158804">
      <ele>1573.073</ele>
      <time>2021-10-12T18:09:43Z</time>
    </trkpt>
    <trkpt lat="38.502685027" lon="34.971589968">
      <ele>1572.852</ele>
      <time>2021-10-12T18:09:44Z</time>
    </trkpt>
    <trkpt lat="38.50271998" lon="34.971589968">
      <ele>1572.635</ele>
      <time>2021-10-12T18:09:46Z</time>
    </trkpt>
    <trkpt lat="38.502753004" lon="34.971588962">
      <ele>1572.433</ele>
      <time>2021-10-12T18:09:47Z</time>
    </trkpt>
    <trkpt lat="38.502784017" lon="34.971586028">
      <ele>1572.245</ele>
      <time>2021-10-12T18:09:48Z</time>
    </trkpt>
    <trkpt lat="38.502814025" lon="34.971585022">
      <ele>1572.033</ele>
      <time>2021-10-12T18:09:49Z</time>
    </trkpt>
    <trkpt lat="38.50284596" lon="34.971582005">
      <ele>1571.814</ele>
      <time>2021-10-12T18:09:50Z</time>
    </trkpt>
    <trkpt lat="38.50287999" lon="34.971579993">
      <ele>1571.576</ele>
      <time>2021-10-12T18:09:52Z</time>
    </trkpt>
    <trkpt lat="38.502914021" lon="34.971577981">
      <ele>1571.338</ele>
      <time>2021-10-12T18:09:53Z</time>
    </trkpt>
    <trkpt lat="38.502947967" lon="34.971576976">
      <ele>1571.098</ele>
      <time>2021-10-12T18:09:54Z</time>
    </trkpt>
    <trkpt lat="38.502976969" lon="34.97157203">
      <ele>1570.907</ele>
      <time>2021-10-12T18:09:55Z</time>
    </trkpt>
    <trkpt lat="38.503007982" lon="34.97156499">
      <ele>1570.709</ele>
      <time>2021-10-12T18:09:56Z</time>
    </trkpt>
    <trkpt lat="38.503042012" lon="34.971559038">
      <ele>1570.485</ele>
      <time>2021-10-12T18:09:58Z</time>
    </trkpt>
    <trkpt lat="38.503075037" lon="34.971553003">
      <ele>1570.269</ele>
      <time>2021-10-12T18:09:59Z</time>
    </trkpt>
    <trkpt lat="38.503107978" lon="34.971549986">
      <ele>1570.043</ele>
      <time>2021-10-12T18:10:00Z</time>
    </trkpt>
    <trkpt lat="38.503137985" lon="34.971542023">
      <ele>1569.855</ele>
      <time>2021-10-12T18:10:01Z</time>
    </trkpt>
    <trkpt lat="38.503166987" lon="34.971528025">
      <ele>1569.697</ele>
      <time>2021-10-12T18:10:02Z</time>
    </trkpt>
    <trkpt lat="38.503199005" lon="34.971512016">
      <ele>1569.524</ele>
      <time>2021-10-12T18:10:04Z</time>
    </trkpt>
    <trkpt lat="38.503229013" lon="34.971495001">
      <ele>1569.369</ele>
      <time>2021-10-12T18:10:05Z</time>
    </trkpt>
    <trkpt lat="38.50325902" lon="34.971477985">
      <ele>1569.214</ele>
      <time>2021-10-12T18:10:06Z</time>
    </trkpt>
    <trkpt lat="38.503290033" lon="34.971458958">
      <ele>1569.06</ele>
      <time>2021-10-12T18:10:07Z</time>
    </trkpt>
    <trkpt lat="38.503318029" lon="34.971438004">
      <ele>1568.933</ele>
      <time>2021-10-12T18:10:08Z</time>
    </trkpt>
    <trkpt lat="38.503348036" lon="34.971419983">
      <ele>1568.835</ele>
      <time>2021-10-12T18:10:10Z</time>
    </trkpt>
    <trkpt lat="38.503377959" lon="34.97140104">
      <ele>1568.796</ele>
      <time>2021-10-12T18:10:11Z</time>
    </trkpt>
    <trkpt lat="38.503407966" lon="34.971387964">
      <ele>1568.737</ele>
      <time>2021-10-12T18:10:12Z</time>
    </trkpt>
    <trkpt lat="38.503440991" lon="34.971375978">
      <ele>1568.687</ele>
      <time>2021-10-12T18:10:13Z</time>
    </trkpt>
    <trkpt lat="38.50347301" lon="34.971366003">
      <ele>1568.621</ele>
      <time>2021-10-12T18:10:15Z</time>
    </trkpt>
    <trkpt lat="38.503503017" lon="34.971352005">
      <ele>1568.574</ele>
      <time>2021-10-12T18:10:16Z</time>
    </trkpt>
    <trkpt lat="38.503533024" lon="34.971338008">
      <ele>1568.516</ele>
      <time>2021-10-12T18:10:17Z</time>
    </trkpt>
    <trkpt lat="38.503564959" lon="34.971320992">
      <ele>1568.451</ele>
      <time>2021-10-12T18:10:18Z</time>
    </trkpt>
    <trkpt lat="38.50359899" lon="34.971303977">
      <ele>1568.363</ele>
      <time>2021-10-12T18:10:20Z</time>
    </trkpt>
    <trkpt lat="38.503635032" lon="34.971290985">
      <ele>1568.064</ele>
      <time>2021-10-12T18:10:21Z</time>
    </trkpt>
    <trkpt lat="38.503665961" lon="34.971285034">
      <ele>1567.708</ele>
      <time>2021-10-12T18:10:22Z</time>
    </trkpt>
    <trkpt lat="38.503703009" lon="34.971281011">
      <ele>1567.267</ele>
      <time>2021-10-12T18:10:24Z</time>
    </trkpt>
    <trkpt lat="38.503741985" lon="34.971280005">
      <ele>1566.794</ele>
      <time>2021-10-12T18:10:25Z</time>
    </trkpt>
    <trkpt lat="38.503781967" lon="34.971283022">
      <ele>1566.301</ele>
      <time>2021-10-12T18:10:26Z</time>
    </trkpt>
    <trkpt lat="38.503814992" lon="34.971294003">
      <ele>1565.889</ele>
      <time>2021-10-12T18:10:28Z</time>
    </trkpt>
    <trkpt lat="38.50384701" lon="34.971305989">
      <ele>1565.497</ele>
      <time>2021-10-12T18:10:29Z</time>
    </trkpt>
    <trkpt lat="38.503880035" lon="34.971317975">
      <ele>1565.104</ele>
      <time>2021-10-12T18:10:30Z</time>
    </trkpt>
    <trkpt lat="38.503915993" lon="34.971333984">
      <ele>1564.415</ele>
      <time>2021-10-12T18:10:32Z</time>
    </trkpt>
    <trkpt lat="38.503949018" lon="34.971344965">
      <ele>1563.701</ele>
      <time>2021-10-12T18:10:33Z</time>
    </trkpt>
    <trkpt lat="38.503979025" lon="34.971355023">
      <ele>1563.053</ele>
      <time>2021-10-12T18:10:34Z</time>
    </trkpt>
    <trkpt lat="38.504012972" lon="34.971360974">
      <ele>1562.32</ele>
      <time>2021-10-12T18:10:35Z</time>
    </trkpt>
    <trkpt lat="38.504043985" lon="34.971363991">
      <ele>1561.65</ele>
      <time>2021-10-12T18:10:36Z</time>
    </trkpt>
    <trkpt lat="38.50407701" lon="34.971364997">
      <ele>1560.937</ele>
      <time>2021-10-12T18:10:38Z</time>
    </trkpt>
    <trkpt lat="38.50411104" lon="34.971363991">
      <ele>1560.202</ele>
      <time>2021-10-12T18:10:39Z</time>
    </trkpt>
    <trkpt lat="38.504143981" lon="34.971367009">
      <ele>1559.49</ele>
      <time>2021-10-12T18:10:40Z</time>
    </trkpt>
    <trkpt lat="38.504176" lon="34.971372038">
      <ele>1558.933</ele>
      <time>2021-10-12T18:10:41Z</time>
    </trkpt>
    <trkpt lat="38.504212964" lon="34.971378995">
      <ele>1558.667</ele>
      <time>2021-10-12T18:10:43Z</time>
    </trkpt>
    <trkpt lat="38.504245989" lon="34.971389975">
      <ele>1558.431</ele>
      <time>2021-10-12T18:10:44Z</time>
    </trkpt>
    <trkpt lat="38.504277002" lon="34.971403973">
      <ele>1558.217</ele>
      <time>2021-10-12T18:10:45Z</time>
    </trkpt>
    <trkpt lat="38.504308015" lon="34.971424006">
      <ele>1557.98</ele>
      <time>2021-10-12T18:10:46Z</time>
    </trkpt>
    <trkpt lat="38.504364006" lon="34.971507993">
      <ele>1557.399</ele>
      <time>2021-10-12T18:10:50Z</time>
    </trkpt>
    <trkpt lat="38.504382027" lon="34.971549986">
      <ele>1557.13</ele>
      <time>2021-10-12T18:10:51Z</time>
    </trkpt>
    <trkpt lat="38.504413962" lon="34.971640008">
      <ele>1556.514</ele>
      <time>2021-10-12T18:10:54Z</time>
    </trkpt>
    <trkpt lat="38.504447993" lon="34.971726006">
      <ele>1555.987</ele>
      <time>2021-10-12T18:10:57Z</time>
    </trkpt>
    <trkpt lat="38.504462996" lon="34.971769005">
      <ele>1555.933</ele>
      <time>2021-10-12T18:10:58Z</time>
    </trkpt>
    <trkpt lat="38.504476994" lon="34.971816028">
      <ele>1555.883</ele>
      <time>2021-10-12T18:11:00Z</time>
    </trkpt>
    <trkpt lat="38.50448898" lon="34.971862966">
      <ele>1555.84</ele>
      <time>2021-10-12T18:11:01Z</time>
    </trkpt>
    <trkpt lat="38.504497027" lon="34.971904038">
      <ele>1555.811</ele>
      <time>2021-10-12T18:11:02Z</time>
    </trkpt>
    <trkpt lat="38.504505996" lon="34.971945025">
      <ele>1555.777</ele>
      <time>2021-10-12T18:11:03Z</time>
    </trkpt>
    <trkpt lat="38.504513958" lon="34.971990036">
      <ele>1555.668</ele>
      <time>2021-10-12T18:11:05Z</time>
    </trkpt>
    <trkpt lat="38.504518988" lon="34.972034963">
      <ele>1555.557</ele>
      <time>2021-10-12T18:11:06Z</time>
    </trkpt>
    <trkpt lat="38.504520999" lon="34.972082991">
      <ele>1555.449</ele>
      <time>2021-10-12T18:11:08Z</time>
    </trkpt>
    <trkpt lat="38.504524017" lon="34.972123979">
      <ele>1555.343</ele>
      <time>2021-10-12T18:11:09Z</time>
    </trkpt>
    <trkpt lat="38.504545977" lon="34.972196985">
      <ele>1554.97</ele>
      <time>2021-10-12T18:11:11Z</time>
    </trkpt>
    <trkpt lat="38.504563998" lon="34.972225986">
      <ele>1554.695</ele>
      <time>2021-10-12T18:11:12Z</time>
    </trkpt>
    <trkpt lat="38.504587971" lon="34.972249037">
      <ele>1554.353</ele>
      <time>2021-10-12T18:11:13Z</time>
    </trkpt>
    <trkpt lat="38.504623007" lon="34.97226798">
      <ele>1553.907</ele>
      <time>2021-10-12T18:11:15Z</time>
    </trkpt>
    <trkpt lat="38.504653014" lon="34.972286001">
      <ele>1553.518</ele>
      <time>2021-10-12T18:11:16Z</time>
    </trkpt>
    <trkpt lat="38.504678998" lon="34.972313996">
      <ele>1553.136</ele>
      <time>2021-10-12T18:11:17Z</time>
    </trkpt>
    <trkpt lat="38.504703976" lon="34.972338974">
      <ele>1552.777</ele>
      <time>2021-10-12T18:11:18Z</time>
    </trkpt>
    <trkpt lat="38.50472996" lon="34.972356996">
      <ele>1552.501</ele>
      <time>2021-10-12T18:11:19Z</time>
    </trkpt>
    <trkpt lat="38.504758961" lon="34.972377028">
      <ele>1552.369</ele>
      <time>2021-10-12T18:11:21Z</time>
    </trkpt>
    <trkpt lat="38.504791986" lon="34.972399995">
      <ele>1552.199</ele>
      <time>2021-10-12T18:11:22Z</time>
    </trkpt>
    <trkpt lat="38.504825011" lon="34.972422961">
      <ele>1552.01</ele>
      <time>2021-10-12T18:11:23Z</time>
    </trkpt>
    <trkpt lat="38.504853006" lon="34.972447017">
      <ele>1551.81</ele>
      <time>2021-10-12T18:11:25Z</time>
    </trkpt>
    <trkpt lat="38.504881002" lon="34.972469984">
      <ele>1551.598</ele>
      <time>2021-10-12T18:11:26Z</time>
    </trkpt>
    <trkpt lat="38.504908998" lon="34.972492028">
      <ele>1551.376</ele>
      <time>2021-10-12T18:11:27Z</time>
    </trkpt>
    <trkpt lat="38.504936993" lon="34.972516">
      <ele>1551.227</ele>
      <time>2021-10-12T18:11:28Z</time>
    </trkpt>
    <trkpt lat="38.504963983" lon="34.972539973">
      <ele>1551.13</ele>
      <time>2021-10-12T18:11:30Z</time>
    </trkpt>
    <trkpt lat="38.504990973" lon="34.972565034">
      <ele>1551.032</ele>
      <time>2021-10-12T18:11:31Z</time>
    </trkpt>
    <trkpt lat="38.50501704" lon="34.972583978">
      <ele>1551.0</ele>
      <time>2021-10-12T18:11:32Z</time>
    </trkpt>
    <trkpt lat="38.505043024" lon="34.972605016">
      <ele>1551.0</ele>
      <time>2021-10-12T18:11:33Z</time>
    </trkpt>
    <trkpt lat="38.505069008" lon="34.972627982">
      <ele>1551.0</ele>
      <time>2021-10-12T18:11:34Z</time>
    </trkpt>
    <trkpt lat="38.50509298" lon="34.972644998">
      <ele>1551.0</ele>
      <time>2021-10-12T18:11:35Z</time>
    </trkpt>
    <trkpt lat="38.50511997" lon="34.972669976">
      <ele>1551.0</ele>
      <time>2021-10-12T18:11:36Z</time>
    </trkpt>
    <trkpt lat="38.50514696" lon="34.97269202">
      <ele>1551.0</ele>
      <time>2021-10-12T18:11:38Z</time>
    </trkpt>
    <trkpt lat="38.505173028" lon="34.972712975">
      <ele>1551.0</ele>
      <time>2021-10-12T18:11:39Z</time>
    </trkpt>
    <trkpt lat="38.505197" lon="34.972739965">
      <ele>1551.0</ele>
      <time>2021-10-12T18:11:40Z</time>
    </trkpt>
    <trkpt lat="38.505221978" lon="34.972764021">
      <ele>1551.0</ele>
      <time>2021-10-12T18:11:41Z</time>
    </trkpt>
    <trkpt lat="38.50524704" lon="34.972786987">
      <ele>1550.971</ele>
      <time>2021-10-12T18:11:42Z</time>
    </trkpt>
    <trkpt lat="38.505275035" lon="34.972816994">
      <ele>1550.86</ele>
      <time>2021-10-12T18:11:44Z</time>
    </trkpt>
    <trkpt lat="38.505300013" lon="34.972843984">
      <ele>1550.682</ele>
      <time>2021-10-12T18:11:45Z</time>
    </trkpt>
    <trkpt lat="38.505324991" lon="34.972868962">
      <ele>1550.502</ele>
      <time>2021-10-12T18:11:46Z</time>
    </trkpt>
    <trkpt lat="38.505349969" lon="34.972894024">
      <ele>1550.322</ele>
      <time>2021-10-12T18:11:47Z</time>
    </trkpt>
    <trkpt lat="38.505375031" lon="34.972916991">
      <ele>1550.149</ele>
      <time>2021-10-12T18:11:48Z</time>
    </trkpt>
    <trkpt lat="38.505401015" lon="34.972926965">
      <ele>1550.019</ele>
      <time>2021-10-12T18:11:49Z</time>
    </trkpt>
    <trkpt lat="38.505423982" lon="34.972927971">
      <ele>1549.933</ele>
      <time>2021-10-12T18:11:50Z</time>
    </trkpt>
    <trkpt lat="38.505444014" lon="34.97292202">
      <ele>1549.882</ele>
      <time>2021-10-12T18:11:51Z</time>
    </trkpt>
    <trkpt lat="38.505452983" lon="34.972901987">
      <ele>1549.922</ele>
      <time>2021-10-12T18:11:52Z</time>
    </trkpt>
    <trkpt lat="38.505460024" lon="34.972870974">
      <ele>1550.008</ele>
      <time>2021-10-12T18:11:53Z</time>
    </trkpt>
    <trkpt lat="38.505466981" lon="34.972825963">
      <ele>1550.145</ele>
      <time>2021-10-12T18:11:54Z</time>
    </trkpt>
    <trkpt lat="38.505476033" lon="34.972788999">
      <ele>1550.246</ele>
      <time>2021-10-12T18:11:55Z</time>
    </trkpt>
    <trkpt lat="38.505485002" lon="34.972751029">
      <ele>1550.254</ele>
      <time>2021-10-12T18:11:56Z</time>
    </trkpt>
    <trkpt lat="38.505491959" lon="34.972710041">
      <ele>1550.229</ele>
      <time>2021-10-12T18:11:57Z</time>
    </trkpt>
    <trkpt lat="38.505501011" lon="34.972666958">
      <ele>1550.196</ele>
      <time>2021-10-12T18:11:59Z</time>
    </trkpt>
    <trkpt lat="38.505507968" lon="34.972623037">
      <ele>1550.171</ele>
      <time>2021-10-12T18:12:00Z</time>
    </trkpt>
    <trkpt lat="38.505516015" lon="34.972579032">
      <ele>1550.142</ele>
      <time>2021-10-12T18:12:01Z</time>
    </trkpt>
    <trkpt lat="38.505526995" lon="34.972537961">
      <ele>1550.103</ele>
      <time>2021-10-12T18:12:03Z</time>
    </trkpt>
    <trkpt lat="38.505539987" lon="34.972496973">
      <ele>1550.056</ele>
      <time>2021-10-12T18:12:04Z</time>
    </trkpt>
    <trkpt lat="38.505552979" lon="34.972461015">
      <ele>1550.009</ele>
      <time>2021-10-12T18:12:05Z</time>
    </trkpt>
    <trkpt lat="38.505567983" lon="34.972420027">
      <ele>1550.013</ele>
      <time>2021-10-12T18:12:06Z</time>
    </trkpt>
    <trkpt lat="38.505584998" lon="34.972381974">
      <ele>1550.045</ele>
      <time>2021-10-12T18:12:08Z</time>
    </trkpt>
    <trkpt lat="38.505601007" lon="34.972346015">
      <ele>1550.091</ele>
      <time>2021-10-12T18:12:09Z</time>
    </trkpt>
    <trkpt lat="38.505620034" lon="34.972309973">
      <ele>1550.159</ele>
      <time>2021-10-12T18:12:10Z</time>
    </trkpt>
    <trkpt lat="38.505638978" lon="34.972274015">
      <ele>1550.244</ele>
      <time>2021-10-12T18:12:11Z</time>
    </trkpt>
    <trkpt lat="38.505658004" lon="34.972241996">
      <ele>1550.343</ele>
      <time>2021-10-12T18:12:12Z</time>
    </trkpt>
    <trkpt lat="38.505678959" lon="34.972207965">
      <ele>1550.547</ele>
      <time>2021-10-12T18:12:14Z</time>
    </trkpt>
    <trkpt lat="38.505695974" lon="34.97217997">
      <ele>1550.81</ele>
      <time>2021-10-12T18:12:15Z</time>
    </trkpt>
    <trkpt lat="38.50571299" lon="34.972148035">
      <ele>1551.101</ele>
      <time>2021-10-12T18:12:16Z</time>
    </trkpt>
    <trkpt lat="38.505732017" lon="34.972112998">
      <ele>1551.422</ele>
      <time>2021-10-12T18:12:17Z</time>
    </trkpt>
    <trkpt lat="38.505749032" lon="34.972078968">
      <ele>1551.728</ele>
      <time>2021-10-12T18:12:18Z</time>
    </trkpt>
    <trkpt lat="38.505765963" lon="34.972045021">
      <ele>1552.033</ele>
      <time>2021-10-12T18:12:19Z</time>
    </trkpt>
    <trkpt lat="38.505783984" lon="34.972013002">
      <ele>1552.329</ele>
      <time>2021-10-12T18:12:21Z</time>
    </trkpt>
    <trkpt lat="38.505802006" lon="34.971981989">
      <ele>1552.617</ele>
      <time>2021-10-12T18:12:22Z</time>
    </trkpt>
    <trkpt lat="38.505843999" lon="34.971920969">
      <ele>1553.081</ele>
      <time>2021-10-12T18:12:24Z</time>
    </trkpt>
    <trkpt lat="38.505871994" lon="34.971894985">
      <ele>1553.153</ele>
      <time>2021-10-12T18:12:25Z</time>
    </trkpt>
    <trkpt lat="38.505902002" lon="34.971876964">
      <ele>1553.183</ele>
      <time>2021-10-12T18:12:27Z</time>
    </trkpt>
    <trkpt lat="38.505933015" lon="34.971867995">
      <ele>1553.176</ele>
      <time>2021-10-12T18:12:28Z</time>
    </trkpt>
    <trkpt lat="38.505962016" lon="34.97186196">
      <ele>1553.159</ele>
      <time>2021-10-12T18:12:29Z</time>
    </trkpt>
    <trkpt lat="38.505991017" lon="34.971852992">
      <ele>1553.142</ele>
      <time>2021-10-12T18:12:30Z</time>
    </trkpt>
    <trkpt lat="38.505991017" lon="34.971878976">
      <ele>1553.102</ele>
      <time>2021-10-12T18:12:31Z</time>
    </trkpt>
    <trkpt lat="38.505980037" lon="34.971898003">
      <ele>1553.079</ele>
      <time>2021-10-12T18:12:31Z</time>
    </trkpt>
    <trkpt lat="38.505996969" lon="34.971908983">
      <ele>1553.052</ele>
      <time>2021-10-12T18:12:32Z</time>
    </trkpt>
    <trkpt lat="38.506017001" lon="34.971918035">
      <ele>1553.032</ele>
      <time>2021-10-12T18:12:33Z</time>
    </trkpt>
    <trkpt lat="38.506042985" lon="34.971930021">
      <ele>1553.013</ele>
      <time>2021-10-12T18:12:34Z</time>
    </trkpt>
    <trkpt lat="38.506069975" lon="34.971945025">
      <ele>1552.996</ele>
      <time>2021-10-12T18:12:35Z</time>
    </trkpt>
    <trkpt lat="38.506096965" lon="34.971956005">
      <ele>1552.917</ele>
      <time>2021-10-12T18:12:36Z</time>
    </trkpt>
    <trkpt lat="38.50612496" lon="34.971971009">
      <ele>1552.669</ele>
      <time>2021-10-12T18:12:37Z</time>
    </trkpt>
    <trkpt lat="38.50615304" lon="34.971986013">
      <ele>1552.293</ele>
      <time>2021-10-12T18:12:38Z</time>
    </trkpt>
    <trkpt lat="38.506182963" lon="34.972003028">
      <ele>1551.911</ele>
      <time>2021-10-12T18:12:40Z</time>
    </trkpt>
    <trkpt lat="38.506210959" lon="34.972023983">
      <ele>1551.555</ele>
      <time>2021-10-12T18:12:41Z</time>
    </trkpt>
    <trkpt lat="38.506237026" lon="34.972039992">
      <ele>1551.264</ele>
      <time>2021-10-12T18:12:42Z</time>
    </trkpt>
    <trkpt lat="38.50626301" lon="34.972058013">
      <ele>1550.989</ele>
      <time>2021-10-12T18:12:43Z</time>
    </trkpt>
    <trkpt lat="38.506313972" lon="34.972089026">
      <ele>1550.528</ele>
      <time>2021-10-12T18:12:45Z</time>
    </trkpt>
    <trkpt lat="38.506341968" lon="34.972106963">
      <ele>1550.309</ele>
      <time>2021-10-12T18:12:46Z</time>
    </trkpt>
    <trkpt lat="38.50636703" lon="34.972118028">
      <ele>1550.138</ele>
      <time>2021-10-12T18:12:47Z</time>
    </trkpt>
    <trkpt lat="38.506397037" lon="34.972130014">
      <ele>1549.99</ele>
      <time>2021-10-12T18:12:48Z</time>
    </trkpt>
    <trkpt lat="38.506426038" lon="34.972142">
      <ele>1549.944</ele>
      <time>2021-10-12T18:12:49Z</time>
    </trkpt>
    <trkpt lat="38.506458979" lon="34.972154992">
      <ele>1549.87</ele>
      <time>2021-10-12T18:12:51Z</time>
    </trkpt>
    <trkpt lat="38.506490998" lon="34.972163038">
      <ele>1549.789</ele>
      <time>2021-10-12T18:12:52Z</time>
    </trkpt>
    <trkpt lat="38.506523017" lon="34.972168989">
      <ele>1549.702</ele>
      <time>2021-10-12T18:12:53Z</time>
    </trkpt>
    <trkpt lat="38.506553024" lon="34.972174019">
      <ele>1549.614</ele>
      <time>2021-10-12T18:12:54Z</time>
    </trkpt>
    <trkpt lat="38.506583031" lon="34.972180976">
      <ele>1549.509</ele>
      <time>2021-10-12T18:12:55Z</time>
    </trkpt>
    <trkpt lat="38.506610021" lon="34.972190028">
      <ele>1549.388</ele>
      <time>2021-10-12T18:12:56Z</time>
    </trkpt>
    <trkpt lat="38.506638017" lon="34.972194973">
      <ele>1549.279</ele>
      <time>2021-10-12T18:12:57Z</time>
    </trkpt>
    <trkpt lat="38.506666012" lon="34.972200003">
      <ele>1549.162</ele>
      <time>2021-10-12T18:12:58Z</time>
    </trkpt>
    <trkpt lat="38.506694008" lon="34.972204026">
      <ele>1549.328</ele>
      <time>2021-10-12T18:13:00Z</time>
    </trkpt>
    <trkpt lat="38.506724015" lon="34.97220696">
      <ele>1549.523</ele>
      <time>2021-10-12T18:13:01Z</time>
    </trkpt>
    <trkpt lat="38.506753016" lon="34.972206037">
      <ele>1549.738</ele>
      <time>2021-10-12T18:13:02Z</time>
    </trkpt>
    <trkpt lat="38.506779" lon="34.972202014">
      <ele>1549.954</ele>
      <time>2021-10-12T18:13:03Z</time>
    </trkpt>
    <trkpt lat="38.506804984" lon="34.972194973">
      <ele>1550.192</ele>
      <time>2021-10-12T18:13:04Z</time>
    </trkpt>
    <trkpt lat="38.506833985" lon="34.972193968">
      <ele>1550.408</ele>
      <time>2021-10-12T18:13:05Z</time>
    </trkpt>
    <trkpt lat="38.506861981" lon="34.972190028">
      <ele>1550.638</ele>
      <time>2021-10-12T18:13:06Z</time>
    </trkpt>
    <trkpt lat="38.506888971" lon="34.972183993">
      <ele>1550.876</ele>
      <time>2021-10-12T18:13:07Z</time>
    </trkpt>
    <trkpt lat="38.506918978" lon="34.972180976">
      <ele>1551.114</ele>
      <time>2021-10-12T18:13:08Z</time>
    </trkpt>
    <trkpt lat="38.506947979" lon="34.97217603">
      <ele>1551.358</ele>
      <time>2021-10-12T18:13:09Z</time>
    </trkpt>
    <trkpt lat="38.506976981" lon="34.972171001">
      <ele>1551.603</ele>
      <time>2021-10-12T18:13:10Z</time>
    </trkpt>
    <trkpt lat="38.507005982" lon="34.972167984">
      <ele>1551.834</ele>
      <time>2021-10-12T18:13:11Z</time>
    </trkpt>
    <trkpt lat="38.507031966" lon="34.972165972">
      <ele>1552.035</ele>
      <time>2021-10-12T18:13:12Z</time>
    </trkpt>
    <trkpt lat="38.507058034" lon="34.972161027">
      <ele>1552.258</ele>
      <time>2021-10-12T18:13:13Z</time>
    </trkpt>
    <trkpt lat="38.507088041" lon="34.972163038">
      <ele>1552.46</ele>
      <time>2021-10-12T18:13:14Z</time>
    </trkpt>
    <trkpt lat="38.507116958" lon="34.97216396">
      <ele>1552.662</ele>
      <time>2021-10-12T18:13:15Z</time>
    </trkpt>
    <trkpt lat="38.507147972" lon="34.972162032">
      <ele>1552.899</ele>
      <time>2021-10-12T18:13:16Z</time>
    </trkpt>
    <trkpt lat="38.507177979" lon="34.972165972">
      <ele>1553.086</ele>
      <time>2021-10-12T18:13:18Z</time>
    </trkpt>
    <trkpt lat="38.507209998" lon="34.972164966">
      <ele>1553.324</ele>
      <time>2021-10-12T18:13:19Z</time>
    </trkpt>
    <trkpt lat="38.507235982" lon="34.972155998">
      <ele>1553.576</ele>
      <time>2021-10-12T18:13:20Z</time>
    </trkpt>
    <trkpt lat="38.507259032" lon="34.972149963">
      <ele>1553.785</ele>
      <time>2021-10-12T18:13:21Z</time>
    </trkpt>
    <trkpt lat="38.507279987" lon="34.972142">
      <ele>1553.994</ele>
      <time>2021-10-12T18:13:21Z</time>
    </trkpt>
    <trkpt lat="38.507306976" lon="34.972136971">
      <ele>1554.224</ele>
      <time>2021-10-12T18:13:22Z</time>
    </trkpt>
    <trkpt lat="38.507332038" lon="34.972131019">
      <ele>1554.447</ele>
      <time>2021-10-12T18:13:23Z</time>
    </trkpt>
    <trkpt lat="38.507358022" lon="34.97212599">
      <ele>1554.671</ele>
      <time>2021-10-12T18:13:24Z</time>
    </trkpt>
    <trkpt lat="38.507387023" lon="34.972123979">
      <ele>1554.894</ele>
      <time>2021-10-12T18:13:25Z</time>
    </trkpt>
    <trkpt lat="38.507413007" lon="34.972112998">
      <ele>1555.16</ele>
      <time>2021-10-12T18:13:26Z</time>
    </trkpt>
    <trkpt lat="38.50744402" lon="34.972111993">
      <ele>1555.391</ele>
      <time>2021-10-12T18:13:28Z</time>
    </trkpt>
    <trkpt lat="38.507474028" lon="34.972108975">
      <ele>1555.628</ele>
      <time>2021-10-12T18:13:29Z</time>
    </trkpt>
    <trkpt lat="38.507504035" lon="34.972106963">
      <ele>1555.824</ele>
      <time>2021-10-12T18:13:30Z</time>
    </trkpt>
    <trkpt lat="38.50753203" lon="34.972100006">
      <ele>1555.829</ele>
      <time>2021-10-12T18:13:31Z</time>
    </trkpt>
    <trkpt lat="38.507558014" lon="34.972093971">
      <ele>1555.827</ele>
      <time>2021-10-12T18:13:32Z</time>
    </trkpt>
    <trkpt lat="38.50758601" lon="34.972091038">
      <ele>1555.798</ele>
      <time>2021-10-12T18:13:33Z</time>
    </trkpt>
    <trkpt lat="38.507610988" lon="34.97208802">
      <ele>1555.773</ele>
      <time>2021-10-12T18:13:34Z</time>
    </trkpt>
    <trkpt lat="38.507661028" lon="34.972073017">
      <ele>1555.763</ele>
      <time>2021-10-12T18:13:36Z</time>
    </trkpt>
    <trkpt lat="38.507691035" lon="34.972067988">
      <ele>1555.729</ele>
      <time>2021-10-12T18:13:37Z</time>
    </trkpt>
    <trkpt lat="38.507716013" lon="34.972059019">
      <ele>1555.718</ele>
      <time>2021-10-12T18:13:38Z</time>
    </trkpt>
    <trkpt lat="38.507741997" lon="34.972048961">
      <ele>1555.704</ele>
      <time>2021-10-12T18:13:39Z</time>
    </trkpt>
    <trkpt lat="38.507765969" lon="34.972040998">
      <ele>1555.68</ele>
      <time>2021-10-12T18:13:40Z</time>
    </trkpt>
    <trkpt lat="38.507791031" lon="34.972034041">
      <ele>1555.662</ele>
      <time>2021-10-12T18:13:41Z</time>
    </trkpt>
    <trkpt lat="38.507817015" lon="34.972024988">
      <ele>1555.669</ele>
      <time>2021-10-12T18:13:42Z</time>
    </trkpt>
    <trkpt lat="38.507844005" lon="34.972008979">
      <ele>1555.712</ele>
      <time>2021-10-12T18:13:43Z</time>
    </trkpt>
    <trkpt lat="38.507869989" lon="34.971995987">
      <ele>1555.753</ele>
      <time>2021-10-12T18:13:44Z</time>
    </trkpt>
    <trkpt lat="38.507895973" lon="34.971982995">
      <ele>1555.802</ele>
      <time>2021-10-12T18:13:45Z</time>
    </trkpt>
    <trkpt lat="38.507920029" lon="34.971972015">
      <ele>1555.85</ele>
      <time>2021-10-12T18:13:46Z</time>
    </trkpt>
    <trkpt lat="38.507947018" lon="34.971958017">
      <ele>1555.921</ele>
      <time>2021-10-12T18:13:47Z</time>
    </trkpt>
    <trkpt lat="38.507998986" lon="34.971931027">
      <ele>1556.097</ele>
      <time>2021-10-12T18:13:49Z</time>
    </trkpt>
    <trkpt lat="38.508022958" lon="34.971921975">
      <ele>1556.162</ele>
      <time>2021-10-12T18:13:50Z</time>
    </trkpt>
    <trkpt lat="38.508049026" lon="34.971906971">
      <ele>1556.27</ele>
      <time>2021-10-12T18:13:51Z</time>
    </trkpt>
    <trkpt lat="38.508072998" lon="34.971890962">
      <ele>1556.46</ele>
      <time>2021-10-12T18:13:52Z</time>
    </trkpt>
    <trkpt lat="38.508097976" lon="34.971875958">
      <ele>1556.683</ele>
      <time>2021-10-12T18:13:53Z</time>
    </trkpt>
    <trkpt lat="38.508121027" lon="34.971865984">
      <ele>1556.867</ele>
      <time>2021-10-12T18:13:54Z</time>
    </trkpt>
    <trkpt lat="38.508140976" lon="34.971851986">
      <ele>1557.076</ele>
      <time>2021-10-12T18:13:55Z</time>
    </trkpt>
    <trkpt lat="38.508186992" lon="34.971821979">
      <ele>1557.564</ele>
      <time>2021-10-12T18:13:57Z</time>
    </trkpt>
    <trkpt lat="38.508209037" lon="34.971809993">
      <ele>1557.788</ele>
      <time>2021-10-12T18:13:57Z</time>
    </trkpt>
    <trkpt lat="38.508228986" lon="34.971795995">
      <ele>1558.027</ele>
      <time>2021-10-12T18:13:58Z</time>
    </trkpt>
    <trkpt lat="38.50825103" lon="34.971779985">
      <ele>1558.304</ele>
      <time>2021-10-12T18:13:59Z</time>
    </trkpt>
    <trkpt lat="38.508270979" lon="34.971765988">
      <ele>1558.559</ele>
      <time>2021-10-12T18:14:00Z</time>
    </trkpt>
    <trkpt lat="38.508292018" lon="34.971754001">
      <ele>1558.806</ele>
      <time>2021-10-12T18:14:01Z</time>
    </trkpt>
    <trkpt lat="38.508313978" lon="34.971744027">
      <ele>1559.045</ele>
      <time>2021-10-12T18:14:02Z</time>
    </trkpt>
    <trkpt lat="38.508337028" lon="34.971732041">
      <ele>1559.303</ele>
      <time>2021-10-12T18:14:03Z</time>
    </trkpt>
    <trkpt lat="38.508364018" lon="34.971720977">
      <ele>1559.478</ele>
      <time>2021-10-12T18:14:04Z</time>
    </trkpt>
    <trkpt lat="38.508390002" lon="34.971708991">
      <ele>1559.636</ele>
      <time>2021-10-12T18:14:05Z</time>
    </trkpt>
    <trkpt lat="38.508413974" lon="34.971695999">
      <ele>1559.775</ele>
      <time>2021-10-12T18:14:06Z</time>
    </trkpt>
    <trkpt lat="38.508439958" lon="34.971680995">
      <ele>1559.905</ele>
      <time>2021-10-12T18:14:07Z</time>
    </trkpt>
    <trkpt lat="38.508463008" lon="34.971664986">
      <ele>1560.015</ele>
      <time>2021-10-12T18:14:08Z</time>
    </trkpt>
    <trkpt lat="38.508487986" lon="34.971651994">
      <ele>1560.135</ele>
      <time>2021-10-12T18:14:09Z</time>
    </trkpt>
    <trkpt lat="38.508512964" lon="34.971644031">
      <ele>1560.216</ele>
      <time>2021-10-12T18:14:10Z</time>
    </trkpt>
    <trkpt lat="38.508538026" lon="34.971634978">
      <ele>1560.312</ele>
      <time>2021-10-12T18:14:11Z</time>
    </trkpt>
    <trkpt lat="38.508582031" lon="34.971620981">
      <ele>1560.476</ele>
      <time>2021-10-12T18:14:12Z</time>
    </trkpt>
    <trkpt lat="38.508607009" lon="34.971612012">
      <ele>1560.587</ele>
      <time>2021-10-12T18:14:13Z</time>
    </trkpt>
    <trkpt lat="38.508631987" lon="34.971602038">
      <ele>1560.848</ele>
      <time>2021-10-12T18:14:14Z</time>
    </trkpt>
    <trkpt lat="38.508656966" lon="34.971597008">
      <ele>1561.082</ele>
      <time>2021-10-12T18:14:15Z</time>
    </trkpt>
    <trkpt lat="38.508682027" lon="34.971592985">
      <ele>1561.306</ele>
      <time>2021-10-12T18:14:16Z</time>
    </trkpt>
    <trkpt lat="38.508708011" lon="34.971588962">
      <ele>1561.537</ele>
      <time>2021-10-12T18:14:17Z</time>
    </trkpt>
    <trkpt lat="38.508732989" lon="34.97158804">
      <ele>1561.727</ele>
      <time>2021-10-12T18:14:18Z</time>
    </trkpt>
    <trkpt lat="38.508758973" lon="34.971586028">
      <ele>1561.936</ele>
      <time>2021-10-12T18:14:19Z</time>
    </trkpt>
    <trkpt lat="38.508784035" lon="34.971586028">
      <ele>1562.116</ele>
      <time>2021-10-12T18:14:20Z</time>
    </trkpt>
    <trkpt lat="38.508809013" lon="34.971580999">
      <ele>1562.35</ele>
      <time>2021-10-12T18:14:21Z</time>
    </trkpt>
    <trkpt lat="38.508839021" lon="34.971573958">
      <ele>1562.642</ele>
      <time>2021-10-12T18:14:22Z</time>
    </trkpt>
    <trkpt lat="38.508867016" lon="34.971568007">
      <ele>1562.908</ele>
      <time>2021-10-12T18:14:23Z</time>
    </trkpt>
    <trkpt lat="38.508895012" lon="34.971571025">
      <ele>1563.033</ele>
      <time>2021-10-12T18:14:24Z</time>
    </trkpt>
    <trkpt lat="38.508924013" lon="34.971571025">
      <ele>1563.033</ele>
      <time>2021-10-12T18:14:25Z</time>
    </trkpt>
    <trkpt lat="38.508949997" lon="34.971568007">
      <ele>1563.066</ele>
      <time>2021-10-12T18:14:26Z</time>
    </trkpt>
    <trkpt lat="38.508971035" lon="34.971549986">
      <ele>1563.26</ele>
      <time>2021-10-12T18:14:27Z</time>
    </trkpt>
    <trkpt lat="38.508996014" lon="34.971541017">
      <ele>1563.357</ele>
      <time>2021-10-12T18:14:28Z</time>
    </trkpt>
    <trkpt lat="38.509019986" lon="34.971530037">
      <ele>1563.476</ele>
      <time>2021-10-12T18:14:29Z</time>
    </trkpt>
    <trkpt lat="38.509044042" lon="34.971522996">
      <ele>1563.552</ele>
      <time>2021-10-12T18:14:30Z</time>
    </trkpt>
    <trkpt lat="38.509070026" lon="34.971510004">
      <ele>1563.692</ele>
      <time>2021-10-12T18:14:31Z</time>
    </trkpt>
    <trkpt lat="38.509095004" lon="34.971501036">
      <ele>1563.789</ele>
      <time>2021-10-12T18:14:32Z</time>
    </trkpt>
    <trkpt lat="38.509122999" lon="34.971490977">
      <ele>1563.897</ele>
      <time>2021-10-12T18:14:33Z</time>
    </trkpt>
    <trkpt lat="38.509148983" lon="34.971483015">
      <ele>1563.983</ele>
      <time>2021-10-12T18:14:34Z</time>
    </trkpt>
    <trkpt lat="38.509175973" lon="34.971473962">
      <ele>1564.158</ele>
      <time>2021-10-12T18:14:35Z</time>
    </trkpt>
    <trkpt lat="38.509201035" lon="34.971469017">
      <ele>1564.418</ele>
      <time>2021-10-12T18:14:36Z</time>
    </trkpt>
    <trkpt lat="38.509226013" lon="34.971463988">
      <ele>1564.674</ele>
      <time>2021-10-12T18:14:37Z</time>
    </trkpt>
    <trkpt lat="38.509253003" lon="34.971456025">
      <ele>1564.972</ele>
      <time>2021-10-12T18:14:38Z</time>
    </trkpt>
    <trkpt lat="38.509275969" lon="34.971447978">
      <ele>1565.233</ele>
      <time>2021-10-12T18:14:39Z</time>
    </trkpt>
    <trkpt lat="38.509303965" lon="34.971442027">
      <ele>1565.509</ele>
      <time>2021-10-12T18:14:40Z</time>
    </trkpt>
    <trkpt lat="38.509330032" lon="34.97143398">
      <ele>1565.785</ele>
      <time>2021-10-12T18:14:41Z</time>
    </trkpt>
    <trkpt lat="38.509351993" lon="34.971428029">
      <ele>1566.006</ele>
      <time>2021-10-12T18:14:42Z</time>
    </trkpt>
    <trkpt lat="38.509378983" lon="34.971423">
      <ele>1566.254</ele>
      <time>2021-10-12T18:14:43Z</time>
    </trkpt>
    <trkpt lat="38.509403961" lon="34.971420988">
      <ele>1566.461</ele>
      <time>2021-10-12T18:14:44Z</time>
    </trkpt>
    <trkpt lat="38.509430028" lon="34.971417971">
      <ele>1566.681</ele>
      <time>2021-10-12T18:14:45Z</time>
    </trkpt>
    <trkpt lat="38.50945903" lon="34.97141202">
      <ele>1566.842</ele>
      <time>2021-10-12T18:14:46Z</time>
    </trkpt>
    <trkpt lat="38.509484008" lon="34.971413026">
      <ele>1566.851</ele>
      <time>2021-10-12T18:14:47Z</time>
    </trkpt>
    <trkpt lat="38.509508986" lon="34.971407996">
      <ele>1566.894</ele>
      <time>2021-10-12T18:14:47Z</time>
    </trkpt>
    <trkpt lat="38.509536982" lon="34.971406991">
      <ele>1566.913</ele>
      <time>2021-10-12T18:14:49Z</time>
    </trkpt>
    <trkpt lat="38.509565983" lon="34.971401962">
      <ele>1566.947</ele>
      <time>2021-10-12T18:14:50Z</time>
    </trkpt>
    <trkpt lat="38.509592973" lon="34.971387964">
      <ele>1567.005</ele>
      <time>2021-10-12T18:14:51Z</time>
    </trkpt>
    <trkpt lat="38.509618035" lon="34.971376983">
      <ele>1567.059</ele>
      <time>2021-10-12T18:14:52Z</time>
    </trkpt>
    <trkpt lat="38.509642007" lon="34.971366003">
      <ele>1567.106</ele>
      <time>2021-10-12T18:14:53Z</time>
    </trkpt>
    <trkpt lat="38.509668997" lon="34.971357035">
      <ele>1567.137</ele>
      <time>2021-10-12T18:14:54Z</time>
    </trkpt>
    <trkpt lat="38.509695986" lon="34.971344965">
      <ele>1567.173</ele>
      <time>2021-10-12T18:14:55Z</time>
    </trkpt>
    <trkpt lat="38.509723982" lon="34.971331973">
      <ele>1567.199</ele>
      <time>2021-10-12T18:14:56Z</time>
    </trkpt>
    <trkpt lat="38.509749966" lon="34.971326021">
      <ele>1567.126</ele>
      <time>2021-10-12T18:14:57Z</time>
    </trkpt>
    <trkpt lat="38.509774022" lon="34.971319987">
      <ele>1567.062</ele>
      <time>2021-10-12T18:14:58Z</time>
    </trkpt>
    <trkpt lat="38.509797994" lon="34.971314035">
      <ele>1566.997</ele>
      <time>2021-10-12T18:14:59Z</time>
    </trkpt>
    <trkpt lat="38.509824984" lon="34.971308">
      <ele>1566.921</ele>
      <time>2021-10-12T18:15:00Z</time>
    </trkpt>
    <trkpt lat="38.509849962" lon="34.971300038">
      <ele>1566.86</ele>
      <time>2021-10-12T18:15:01Z</time>
    </trkpt>
    <trkpt lat="38.50987603" lon="34.971289979">
      <ele>1566.802</ele>
      <time>2021-10-12T18:15:02Z</time>
    </trkpt>
    <trkpt lat="38.509900002" lon="34.971281011">
      <ele>1566.748</ele>
      <time>2021-10-12T18:15:02Z</time>
    </trkpt>
    <trkpt lat="38.509923974" lon="34.971269025">
      <ele>1566.705</ele>
      <time>2021-10-12T18:15:03Z</time>
    </trkpt>
    <trkpt lat="38.509949036" lon="34.971258966">
      <ele>1566.651</ele>
      <time>2021-10-12T18:15:04Z</time>
    </trkpt>
    <trkpt lat="38.509974014" lon="34.971253015">
      <ele>1566.583</ele>
      <time>2021-10-12T18:15:05Z</time>
    </trkpt>
    <trkpt lat="38.51000201" lon="34.971251003">
      <ele>1566.507</ele>
      <time>2021-10-12T18:15:06Z</time>
    </trkpt>
    <trkpt lat="38.510031011" lon="34.971247986">
      <ele>1566.674</ele>
      <time>2021-10-12T18:15:07Z</time>
    </trkpt>
    <trkpt lat="38.510055989" lon="34.971242035">
      <ele>1566.825</ele>
      <time>2021-10-12T18:15:08Z</time>
    </trkpt>
    <trkpt lat="38.510079039" lon="34.971234994">
      <ele>1566.965</ele>
      <time>2021-10-12T18:15:09Z</time>
    </trkpt>
    <trkpt lat="38.510104017" lon="34.971230971">
      <ele>1567.105</ele>
      <time>2021-10-12T18:15:10Z</time>
    </trkpt>
    <trkpt lat="38.51013503" lon="34.971228037">
      <ele>1567.27</ele>
      <time>2021-10-12T18:15:11Z</time>
    </trkpt>
    <trkpt lat="38.510161014" lon="34.971220996">
      <ele>1567.413</ele>
      <time>2021-10-12T18:15:12Z</time>
    </trkpt>
    <trkpt lat="38.51018901" lon="34.97121999">
      <ele>1567.555</ele>
      <time>2021-10-12T18:15:13Z</time>
    </trkpt>
    <trkpt lat="38.510214994" lon="34.971213033">
      <ele>1567.691</ele>
      <time>2021-10-12T18:15:14Z</time>
    </trkpt>
    <trkpt lat="38.510238966" lon="34.971210016">
      <ele>1567.811</ele>
      <time>2021-10-12T18:15:15Z</time>
    </trkpt>
    <trkpt lat="38.510262016" lon="34.971205993">
      <ele>1567.924</ele>
      <time>2021-10-12T18:15:16Z</time>
    </trkpt>
    <trkpt lat="38.510289006" lon="34.971200041">
      <ele>1568.081</ele>
      <time>2021-10-12T18:15:17Z</time>
    </trkpt>
    <trkpt lat="38.51031499" lon="34.97119803">
      <ele>1568.268</ele>
      <time>2021-10-12T18:15:18Z</time>
    </trkpt>
    <trkpt lat="38.510338962" lon="34.971196018">
      <ele>1568.441</ele>
      <time>2021-10-12T18:15:19Z</time>
    </trkpt>
    <trkpt lat="38.510385985" lon="34.971193001">
      <ele>1568.779</ele>
      <time>2021-10-12T18:15:21Z</time>
    </trkpt>
    <trkpt lat="38.510408029" lon="34.971191995">
      <ele>1568.938</ele>
      <time>2021-10-12T18:15:22Z</time>
    </trkpt>
    <trkpt lat="38.510427978" lon="34.971196018">
      <ele>1569.081</ele>
      <time>2021-10-12T18:15:22Z</time>
    </trkpt>
    <trkpt lat="38.510451028" lon="34.971196018">
      <ele>1569.247</ele>
      <time>2021-10-12T18:15:23Z</time>
    </trkpt>
    <trkpt lat="38.510472989" lon="34.97119803">
      <ele>1569.406</ele>
      <time>2021-10-12T18:15:24Z</time>
    </trkpt>
    <trkpt lat="38.510496961" lon="34.971191995">
      <ele>1569.578</ele>
      <time>2021-10-12T18:15:25Z</time>
    </trkpt>
    <trkpt lat="38.510547001" lon="34.971184032">
      <ele>1569.938</ele>
      <time>2021-10-12T18:15:27Z</time>
    </trkpt>
    <trkpt lat="38.510570973" lon="34.971184032">
      <ele>1570.263</ele>
      <time>2021-10-12T18:15:28Z</time>
    </trkpt>
    <trkpt lat="38.51059" lon="34.97118202">
      <ele>1570.588</ele>
      <time>2021-10-12T18:15:28Z</time>
    </trkpt>
    <trkpt lat="38.510613972" lon="34.971177997">
      <ele>1571.001</ele>
      <time>2021-10-12T18:15:29Z</time>
    </trkpt>
    <trkpt lat="38.510631993" lon="34.971175985">
      <ele>1571.312</ele>
      <time>2021-10-12T18:15:30Z</time>
    </trkpt>
    <trkpt lat="38.510654038" lon="34.971172968">
      <ele>1571.694</ele>
      <time>2021-10-12T18:15:31Z</time>
    </trkpt>
    <trkpt lat="38.51067801" lon="34.971170034">
      <ele>1572.111</ele>
      <time>2021-10-12T18:15:32Z</time>
    </trkpt>
    <trkpt lat="38.510699971" lon="34.971169028">
      <ele>1572.491</ele>
      <time>2021-10-12T18:15:32Z</time>
    </trkpt>
    <trkpt lat="38.510725033" lon="34.971168023">
      <ele>1572.926</ele>
      <time>2021-10-12T18:15:33Z</time>
    </trkpt>
    <trkpt lat="38.510746993" lon="34.971166011">
      <ele>1573.31</ele>
      <time>2021-10-12T18:15:34Z</time>
    </trkpt>
    <trkpt lat="38.510768032" lon="34.971166011">
      <ele>1573.673</ele>
      <time>2021-10-12T18:15:35Z</time>
    </trkpt>
    <trkpt lat="38.510792004" lon="34.971169028">
      <ele>1574.079</ele>
      <time>2021-10-12T18:15:36Z</time>
    </trkpt>
    <trkpt lat="38.51081497" lon="34.971169028">
      <ele>1574.475</ele>
      <time>2021-10-12T18:15:37Z</time>
    </trkpt>
    <trkpt lat="38.510867022" lon="34.971173974">
      <ele>1575.138</ele>
      <time>2021-10-12T18:15:39Z</time>
    </trkpt>
    <trkpt lat="38.510887977" lon="34.97117498">
      <ele>1575.36</ele>
      <time>2021-10-12T18:15:39Z</time>
    </trkpt>
    <trkpt lat="38.510911027" lon="34.971171962">
      <ele>1575.62</ele>
      <time>2021-10-12T18:15:40Z</time>
    </trkpt>
    <trkpt lat="38.510936005" lon="34.971172968">
      <ele>1575.886</ele>
      <time>2021-10-12T18:15:41Z</time>
    </trkpt>
    <trkpt lat="38.510958971" lon="34.97117498">
      <ele>1576.127</ele>
      <time>2021-10-12T18:15:42Z</time>
    </trkpt>
    <trkpt lat="38.510984033" lon="34.971173974">
      <ele>1576.401</ele>
      <time>2021-10-12T18:15:43Z</time>
    </trkpt>
    <trkpt lat="38.511009011" lon="34.97117498">
      <ele>1576.667</ele>
      <time>2021-10-12T18:15:44Z</time>
    </trkpt>
    <trkpt lat="38.511032984" lon="34.971173974">
      <ele>1576.93</ele>
      <time>2021-10-12T18:15:45Z</time>
    </trkpt>
    <trkpt lat="38.511056034" lon="34.971170034">
      <ele>1577.193</ele>
      <time>2021-10-12T18:15:46Z</time>
    </trkpt>
    <trkpt lat="38.511083024" lon="34.971171962">
      <ele>1577.478</ele>
      <time>2021-10-12T18:15:47Z</time>
    </trkpt>
    <trkpt lat="38.511111019" lon="34.97117104">
      <ele>1577.783</ele>
      <time>2021-10-12T18:15:48Z</time>
    </trkpt>
    <trkpt lat="38.511134991" lon="34.971168023">
      <ele>1577.863</ele>
      <time>2021-10-12T18:15:49Z</time>
    </trkpt>
    <trkpt lat="38.511159969" lon="34.971168023">
      <ele>1577.935</ele>
      <time>2021-10-12T18:15:49Z</time>
    </trkpt>
    <trkpt lat="38.511187965" lon="34.971167017">
      <ele>1578.02</ele>
      <time>2021-10-12T18:15:50Z</time>
    </trkpt>
    <trkpt lat="38.511215961" lon="34.971165005">
      <ele>1578.11</ele>
      <time>2021-10-12T18:15:52Z</time>
    </trkpt>
    <trkpt lat="38.511240017" lon="34.971159976">
      <ele>1578.207</ele>
      <time>2021-10-12T18:15:52Z</time>
    </trkpt>
    <trkpt lat="38.511269018" lon="34.971160982">
      <ele>1578.287</ele>
      <time>2021-10-12T18:15:54Z</time>
    </trkpt>
    <trkpt lat="38.511293996" lon="34.971159976">
      <ele>1578.367</ele>
      <time>2021-10-12T18:15:54Z</time>
    </trkpt>
    <trkpt lat="38.511321992" lon="34.971162993">
      <ele>1578.431</ele>
      <time>2021-10-12T18:15:55Z</time>
    </trkpt>
    <trkpt lat="38.511347976" lon="34.971163999">
      <ele>1578.5</ele>
      <time>2021-10-12T18:15:56Z</time>
    </trkpt>
    <trkpt lat="38.511373037" lon="34.971165005">
      <ele>1578.566</ele>
      <time>2021-10-12T18:15:57Z</time>
    </trkpt>
    <trkpt lat="38.511399021" lon="34.971160982">
      <ele>1578.581</ele>
      <time>2021-10-12T18:15:58Z</time>
    </trkpt>
    <trkpt lat="38.511425005" lon="34.971154025">
      <ele>1578.471</ele>
      <time>2021-10-12T18:15:59Z</time>
    </trkpt>
    <trkpt lat="38.511450989" lon="34.971145978">
      <ele>1578.358</ele>
      <time>2021-10-12T18:16:00Z</time>
    </trkpt>
    <trkpt lat="38.511474961" lon="34.971138015">
      <ele>1578.247</ele>
      <time>2021-10-12T18:16:01Z</time>
    </trkpt>
    <trkpt lat="38.511499017" lon="34.97113198">
      <ele>1578.116</ele>
      <time>2021-10-12T18:16:02Z</time>
    </trkpt>
    <trkpt lat="38.511525001" lon="34.971128963">
      <ele>1577.954</ele>
      <time>2021-10-12T18:16:03Z</time>
    </trkpt>
    <trkpt lat="38.511548974" lon="34.971126029">
      <ele>1577.802</ele>
      <time>2021-10-12T18:16:04Z</time>
    </trkpt>
    <trkpt lat="38.511572024" lon="34.971124018">
      <ele>1577.65</ele>
      <time>2021-10-12T18:16:05Z</time>
    </trkpt>
    <trkpt lat="38.511598008" lon="34.971126029">
      <ele>1577.468</ele>
      <time>2021-10-12T18:16:06Z</time>
    </trkpt>
    <trkpt lat="38.511623992" lon="34.971128041">
      <ele>1577.289</ele>
      <time>2021-10-12T18:16:07Z</time>
    </trkpt>
    <trkpt lat="38.511649976" lon="34.97113198">
      <ele>1577.111</ele>
      <time>2021-10-12T18:16:08Z</time>
    </trkpt>
    <trkpt lat="38.511674032" lon="34.97113198">
      <ele>1576.998</ele>
      <time>2021-10-12T18:16:09Z</time>
    </trkpt>
    <trkpt lat="38.51169901" lon="34.971138015">
      <ele>1576.989</ele>
      <time>2021-10-12T18:16:10Z</time>
    </trkpt>
    <trkpt lat="38.511723988" lon="34.971142961">
      <ele>1576.976</ele>
      <time>2021-10-12T18:16:11Z</time>
    </trkpt>
    <trkpt lat="38.511750977" lon="34.971145978">
      <ele>1576.962</ele>
      <time>2021-10-12T18:16:12Z</time>
    </trkpt>
    <trkpt lat="38.511776039" lon="34.971143967">
      <ele>1576.953</ele>
      <time>2021-10-12T18:16:12Z</time>
    </trkpt>
    <trkpt lat="38.511803029" lon="34.971143967">
      <ele>1576.942</ele>
      <time>2021-10-12T18:16:13Z</time>
    </trkpt>
    <trkpt lat="38.511825996" lon="34.971140027">
      <ele>1576.94</ele>
      <time>2021-10-12T18:16:14Z</time>
    </trkpt>
    <trkpt lat="38.511851979" lon="34.971139021">
      <ele>1576.933</ele>
      <time>2021-10-12T18:16:15Z</time>
    </trkpt>
    <trkpt lat="38.511877963" lon="34.971139021">
      <ele>1576.924</ele>
      <time>2021-10-12T18:16:16Z</time>
    </trkpt>
    <trkpt lat="38.511902019" lon="34.971139021">
      <ele>1576.915</ele>
      <time>2021-10-12T18:16:17Z</time>
    </trkpt>
    <trkpt lat="38.511925992" lon="34.97113701">
      <ele>1576.913</ele>
      <time>2021-10-12T18:16:18Z</time>
    </trkpt>
    <trkpt lat="38.511952981" lon="34.97113701">
      <ele>1576.91</ele>
      <time>2021-10-12T18:16:19Z</time>
    </trkpt>
    <trkpt lat="38.511977959" lon="34.971134998">
      <ele>1576.924</ele>
      <time>2021-10-12T18:16:20Z</time>
    </trkpt>
    <trkpt lat="38.512003021" lon="34.971132986">
      <ele>1576.938</ele>
      <time>2021-10-12T18:16:21Z</time>
    </trkpt>
    <trkpt lat="38.512029005" lon="34.971129969">
      <ele>1576.953</ele>
      <time>2021-10-12T18:16:22Z</time>
    </trkpt>
    <trkpt lat="38.512052977" lon="34.971127035">
      <ele>1576.965</ele>
      <time>2021-10-12T18:16:23Z</time>
    </trkpt>
    <trkpt lat="38.512078961" lon="34.971124018">
      <ele>1576.976</ele>
      <time>2021-10-12T18:16:24Z</time>
    </trkpt>
    <trkpt lat="38.512106035" lon="34.971122006">
      <ele>1576.984</ele>
      <time>2021-10-12T18:16:25Z</time>
    </trkpt>
    <trkpt lat="38.512130007" lon="34.971117983">
      <ele>1576.992</ele>
      <time>2021-10-12T18:16:26Z</time>
    </trkpt>
    <trkpt lat="38.512154985" lon="34.971115971">
      <ele>1576.996</ele>
      <time>2021-10-12T18:16:26Z</time>
    </trkpt>
    <trkpt lat="38.512181975" lon="34.971114965">
      <ele>1576.998</ele>
      <time>2021-10-12T18:16:27Z</time>
    </trkpt>
    <trkpt lat="38.512206031" lon="34.971112031">
      <ele>1577.0</ele>
      <time>2021-10-12T18:16:28Z</time>
    </trkpt>
    <trkpt lat="38.512235032" lon="34.971108008">
      <ele>1577.047</ele>
      <time>2021-10-12T18:16:29Z</time>
    </trkpt>
    <trkpt lat="38.512259005" lon="34.971098034">
      <ele>1577.139</ele>
      <time>2021-10-12T18:16:30Z</time>
    </trkpt>
    <trkpt lat="38.512289012" lon="34.971090993">
      <ele>1577.258</ele>
      <time>2021-10-12T18:16:32Z</time>
    </trkpt>
    <trkpt lat="38.512317007" lon="34.971081018">
      <ele>1577.378</ele>
      <time>2021-10-12T18:16:33Z</time>
    </trkpt>
    <trkpt lat="38.512341985" lon="34.97107096">
      <ele>1577.493</ele>
      <time>2021-10-12T18:16:34Z</time>
    </trkpt>
    <trkpt lat="38.512369981" lon="34.97105604">
      <ele>1577.637</ele>
      <time>2021-10-12T18:16:35Z</time>
    </trkpt>
    <trkpt lat="38.512399988" lon="34.971044976">
      <ele>1577.792</ele>
      <time>2021-10-12T18:16:36Z</time>
    </trkpt>
    <trkpt lat="38.51242899" lon="34.971035002">
      <ele>1577.948</ele>
      <time>2021-10-12T18:16:37Z</time>
    </trkpt>
    <trkpt lat="38.512458997" lon="34.97102201">
      <ele>1578.126</ele>
      <time>2021-10-12T18:16:38Z</time>
    </trkpt>
    <trkpt lat="38.51249001" lon="34.97101103">
      <ele>1578.311</ele>
      <time>2021-10-12T18:16:39Z</time>
    </trkpt>
    <trkpt lat="38.512514988" lon="34.970999965">
      <ele>1578.486</ele>
      <time>2021-10-12T18:16:40Z</time>
    </trkpt>
    <trkpt lat="38.512539966" lon="34.970986973">
      <ele>1578.67</ele>
      <time>2021-10-12T18:16:41Z</time>
    </trkpt>
    <trkpt lat="38.512564022" lon="34.970972976">
      <ele>1578.844</ele>
      <time>2021-10-12T18:16:42Z</time>
    </trkpt>
    <trkpt lat="38.512592018" lon="34.970961995">
      <ele>1579.022</ele>
      <time>2021-10-12T18:16:43Z</time>
    </trkpt>
    <trkpt lat="38.512620013" lon="34.970953027">
      <ele>1579.187</ele>
      <time>2021-10-12T18:16:44Z</time>
    </trkpt>
    <trkpt lat="38.512644991" lon="34.970943974">
      <ele>1579.332</ele>
      <time>2021-10-12T18:16:45Z</time>
    </trkpt>
    <trkpt lat="38.512694025" lon="34.970920002">
      <ele>1579.604</ele>
      <time>2021-10-12T18:16:47Z</time>
    </trkpt>
    <trkpt lat="38.512739036" lon="34.970895024">
      <ele>1579.83</ele>
      <time>2021-10-12T18:16:49Z</time>
    </trkpt>
    <trkpt lat="38.512762003" lon="34.970885972">
      <ele>1579.932</ele>
      <time>2021-10-12T18:16:50Z</time>
    </trkpt>
    <trkpt lat="38.512783963" lon="34.970871974">
      <ele>1580.022</ele>
      <time>2021-10-12T18:16:51Z</time>
    </trkpt>
    <trkpt lat="38.512806008" lon="34.97085697">
      <ele>1580.102</ele>
      <time>2021-10-12T18:16:52Z</time>
    </trkpt>
    <trkpt lat="38.51282998" lon="34.970843978">
      <ele>1580.188</ele>
      <time>2021-10-12T18:16:53Z</time>
    </trkpt>
    <trkpt lat="38.512855042" lon="34.970825035">
      <ele>1580.308</ele>
      <time>2021-10-12T18:16:54Z</time>
    </trkpt>
    <trkpt lat="38.512881026" lon="34.970806008">
      <ele>1580.47</ele>
      <time>2021-10-12T18:16:55Z</time>
    </trkpt>
    <trkpt lat="38.51290701" lon="34.970786981">
      <ele>1580.632</ele>
      <time>2021-10-12T18:16:56Z</time>
    </trkpt>
    <trkpt lat="38.512932993" lon="34.970773989">
      <ele>1580.772</ele>
      <time>2021-10-12T18:16:57Z</time>
    </trkpt>
    <trkpt lat="38.512956966" lon="34.970758986">
      <ele>1580.913</ele>
      <time>2021-10-12T18:16:58Z</time>
    </trkpt>
    <trkpt lat="38.512983033" lon="34.970749011">
      <ele>1581.042</ele>
      <time>2021-10-12T18:16:59Z</time>
    </trkpt>
    <trkpt lat="38.513009017" lon="34.970739959">
      <ele>1581.169</ele>
      <time>2021-10-12T18:17:00Z</time>
    </trkpt>
    <trkpt lat="38.513037013" lon="34.97073099">
      <ele>1581.302</ele>
      <time>2021-10-12T18:17:01Z</time>
    </trkpt>
    <trkpt lat="38.513091998" lon="34.97072001">
      <ele>1581.408</ele>
      <time>2021-10-12T18:17:03Z</time>
    </trkpt>
    <trkpt lat="38.513119994" lon="34.97070903">
      <ele>1581.447</ele>
      <time>2021-10-12T18:17:04Z</time>
    </trkpt>
    <trkpt lat="38.513146983" lon="34.970701989">
      <ele>1581.473</ele>
      <time>2021-10-12T18:17:05Z</time>
    </trkpt>
    <trkpt lat="38.513171962" lon="34.970691008">
      <ele>1581.512</ele>
      <time>2021-10-12T18:17:06Z</time>
    </trkpt>
    <trkpt lat="38.51320398" lon="34.970681034">
      <ele>1581.548</ele>
      <time>2021-10-12T18:17:08Z</time>
    </trkpt>
    <trkpt lat="38.513231976" lon="34.970672987">
      <ele>1581.577</ele>
      <time>2021-10-12T18:17:09Z</time>
    </trkpt>
    <trkpt lat="38.513260977" lon="34.970663013">
      <ele>1581.613</ele>
      <time>2021-10-12T18:17:10Z</time>
    </trkpt>
    <trkpt lat="38.513289979" lon="34.970653038">
      <ele>1581.649</ele>
      <time>2021-10-12T18:17:11Z</time>
    </trkpt>
    <trkpt lat="38.513317974" lon="34.97064298">
      <ele>1581.685</ele>
      <time>2021-10-12T18:17:12Z</time>
    </trkpt>
    <trkpt lat="38.513349993" lon="34.970636023">
      <ele>1581.788</ele>
      <time>2021-10-12T18:17:13Z</time>
    </trkpt>
    <trkpt lat="38.513377989" lon="34.970628982">
      <ele>1581.939</ele>
      <time>2021-10-12T18:17:14Z</time>
    </trkpt>
    <trkpt lat="38.513405984" lon="34.970618002">
      <ele>1582.096</ele>
      <time>2021-10-12T18:17:15Z</time>
    </trkpt>
    <trkpt lat="38.513431968" lon="34.970606016">
      <ele>1582.238</ele>
      <time>2021-10-12T18:17:16Z</time>
    </trkpt>
    <trkpt lat="38.513456024" lon="34.970589001">
      <ele>1582.374</ele>
      <time>2021-10-12T18:17:17Z</time>
    </trkpt>
    <trkpt lat="38.513485026" lon="34.970576009">
      <ele>1582.513</ele>
      <time>2021-10-12T18:17:18Z</time>
    </trkpt>
    <trkpt lat="38.513513021" lon="34.970565028">
      <ele>1582.635</ele>
      <time>2021-10-12T18:17:20Z</time>
    </trkpt>
    <trkpt lat="38.513539005" lon="34.970557988">
      <ele>1582.738</ele>
      <time>2021-10-12T18:17:21Z</time>
    </trkpt>
    <trkpt lat="38.513563983" lon="34.970547007">
      <ele>1582.83</ele>
      <time>2021-10-12T18:17:22Z</time>
    </trkpt>
    <trkpt lat="38.513588039" lon="34.97053301">
      <ele>1582.917</ele>
      <time>2021-10-12T18:17:22Z</time>
    </trkpt>
    <trkpt lat="38.513613017" lon="34.970520018">
      <ele>1583.007</ele>
      <time>2021-10-12T18:17:23Z</time>
    </trkpt>
    <trkpt lat="38.513641013" lon="34.970508032">
      <ele>1583.108</ele>
      <time>2021-10-12T18:17:25Z</time>
    </trkpt>
    <trkpt lat="38.513665991" lon="34.970493028">
      <ele>1583.198</ele>
      <time>2021-10-12T18:17:26Z</time>
    </trkpt>
    <trkpt lat="38.513691975" lon="34.97047903">
      <ele>1583.291</ele>
      <time>2021-10-12T18:17:27Z</time>
    </trkpt>
    <trkpt lat="38.513718965" lon="34.970466038">
      <ele>1583.388</ele>
      <time>2021-10-12T18:17:28Z</time>
    </trkpt>
    <trkpt lat="38.513746038" lon="34.970452962">
      <ele>1583.486</ele>
      <time>2021-10-12T18:17:29Z</time>
    </trkpt>
    <trkpt lat="38.513774034" lon="34.970442988">
      <ele>1583.587</ele>
      <time>2021-10-12T18:17:30Z</time>
    </trkpt>
    <trkpt lat="38.513799012" lon="34.970432008">
      <ele>1583.676</ele>
      <time>2021-10-12T18:17:31Z</time>
    </trkpt>
    <trkpt lat="38.513827007" lon="34.970422033">
      <ele>1583.777</ele>
      <time>2021-10-12T18:17:32Z</time>
    </trkpt>
    <trkpt lat="38.513852991" lon="34.970417004">
      <ele>1583.871</ele>
      <time>2021-10-12T18:17:33Z</time>
    </trkpt>
    <trkpt lat="38.513877969" lon="34.970410969">
      <ele>1583.961</ele>
      <time>2021-10-12T18:17:34Z</time>
    </trkpt>
    <trkpt lat="38.513903031" lon="34.970403006">
      <ele>1584.0</ele>
      <time>2021-10-12T18:17:35Z</time>
    </trkpt>
    <trkpt lat="38.513925998" lon="34.97039102">
      <ele>1584.0</ele>
      <time>2021-10-12T18:17:36Z</time>
    </trkpt>
    <trkpt lat="38.513950976" lon="34.970378028">
      <ele>1584.0</ele>
      <time>2021-10-12T18:17:37Z</time>
    </trkpt>
    <trkpt lat="38.513978971" lon="34.970362019">
      <ele>1584.0</ele>
      <time>2021-10-12T18:17:38Z</time>
    </trkpt>
    <trkpt lat="38.514002021" lon="34.970349027">
      <ele>1584.0</ele>
      <time>2021-10-12T18:17:39Z</time>
    </trkpt>
    <trkpt lat="38.514025994" lon="34.970334023">
      <ele>1584.0</ele>
      <time>2021-10-12T18:17:40Z</time>
    </trkpt>
    <trkpt lat="38.514050972" lon="34.970317008">
      <ele>1584.0</ele>
      <time>2021-10-12T18:17:41Z</time>
    </trkpt>
    <trkpt lat="38.514077039" lon="34.970299993">
      <ele>1584.0</ele>
      <time>2021-10-12T18:17:42Z</time>
    </trkpt>
    <trkpt lat="38.514100006" lon="34.970283983">
      <ele>1584.0</ele>
      <time>2021-10-12T18:17:43Z</time>
    </trkpt>
    <trkpt lat="38.514122972" lon="34.970266968">
      <ele>1583.994</ele>
      <time>2021-10-12T18:17:44Z</time>
    </trkpt>
    <trkpt lat="38.51414904" lon="34.97025297">
      <ele>1583.994</ele>
      <time>2021-10-12T18:17:45Z</time>
    </trkpt>
    <trkpt lat="38.514174018" lon="34.970237967">
      <ele>1583.977</ele>
      <time>2021-10-12T18:17:46Z</time>
    </trkpt>
    <trkpt lat="38.514200002" lon="34.970223969">
      <ele>1583.903</ele>
      <time>2021-10-12T18:17:47Z</time>
    </trkpt>
    <trkpt lat="38.514230009" lon="34.970207959">
      <ele>1583.829</ele>
      <time>2021-10-12T18:17:48Z</time>
    </trkpt>
    <trkpt lat="38.514259011" lon="34.970194967">
      <ele>1583.767</ele>
      <time>2021-10-12T18:17:49Z</time>
    </trkpt>
    <trkpt lat="38.514289018" lon="34.970179964">
      <ele>1583.715</ele>
      <time>2021-10-12T18:17:51Z</time>
    </trkpt>
    <trkpt lat="38.514321037" lon="34.97016496">
      <ele>1583.67</ele>
      <time>2021-10-12T18:17:52Z</time>
    </trkpt>
    <trkpt lat="38.514348026" lon="34.970150962">
      <ele>1583.645</ele>
      <time>2021-10-12T18:17:53Z</time>
    </trkpt>
    <trkpt lat="38.514377028" lon="34.970132019">
      <ele>1583.64</ele>
      <time>2021-10-12T18:17:54Z</time>
    </trkpt>
    <trkpt lat="38.514407035" lon="34.970115004">
      <ele>1583.642</ele>
      <time>2021-10-12T18:17:55Z</time>
    </trkpt>
    <trkpt lat="38.514433019" lon="34.970101006">
      <ele>1583.651</ele>
      <time>2021-10-12T18:17:56Z</time>
    </trkpt>
    <trkpt lat="38.514461014" lon="34.970079968">
      <ele>1583.652</ele>
      <time>2021-10-12T18:17:58Z</time>
    </trkpt>
    <trkpt lat="38.514492027" lon="34.970060019">
      <ele>1583.613</ele>
      <time>2021-10-12T18:17:59Z</time>
    </trkpt>
    <trkpt lat="38.514520023" lon="34.970048033">
      <ele>1583.555</ele>
      <time>2021-10-12T18:18:00Z</time>
    </trkpt>
    <trkpt lat="38.514542989" lon="34.970033029">
      <ele>1583.526</ele>
      <time>2021-10-12T18:18:01Z</time>
    </trkpt>
    <trkpt lat="38.514566962" lon="34.970019031">
      <ele>1583.49</ele>
      <time>2021-10-12T18:18:02Z</time>
    </trkpt>
    <trkpt lat="38.514594035" lon="34.970005034">
      <ele>1583.443</ele>
      <time>2021-10-12T18:18:03Z</time>
    </trkpt>
    <trkpt lat="38.514618007" lon="34.969991036">
      <ele>1583.375</ele>
      <time>2021-10-12T18:18:04Z</time>
    </trkpt>
    <trkpt lat="38.514667964" lon="34.969960023">
      <ele>1583.195</ele>
      <time>2021-10-12T18:18:06Z</time>
    </trkpt>
    <trkpt lat="38.51469202" lon="34.969949964">
      <ele>1583.109</ele>
      <time>2021-10-12T18:18:07Z</time>
    </trkpt>
    <trkpt lat="38.514718004" lon="34.969934961">
      <ele>1583.015</ele>
      <time>2021-10-12T18:18:08Z</time>
    </trkpt>
    <trkpt lat="38.514742982" lon="34.969920963">
      <ele>1582.947</ele>
      <time>2021-10-12T18:18:09Z</time>
    </trkpt>
    <trkpt lat="38.51476796" lon="34.969905037">
      <ele>1582.892</ele>
      <time>2021-10-12T18:18:10Z</time>
    </trkpt>
    <trkpt lat="38.514794027" lon="34.969889028">
      <ele>1582.845</ele>
      <time>2021-10-12T18:18:11Z</time>
    </trkpt>
    <trkpt lat="38.514819006" lon="34.969872013">
      <ele>1582.812</ele>
      <time>2021-10-12T18:18:12Z</time>
    </trkpt>
    <trkpt lat="38.514843984" lon="34.969853992">
      <ele>1582.792</ele>
      <time>2021-10-12T18:18:13Z</time>
    </trkpt>
    <trkpt lat="38.51486804" lon="34.969835971">
      <ele>1582.785</ele>
      <time>2021-10-12T18:18:14Z</time>
    </trkpt>
    <trkpt lat="38.514888994" lon="34.969819039">
      <ele>1582.791</ele>
      <time>2021-10-12T18:18:15Z</time>
    </trkpt>
    <trkpt lat="38.514913972" lon="34.969804035">
      <ele>1582.797</ele>
      <time>2021-10-12T18:18:16Z</time>
    </trkpt>
    <trkpt lat="38.514939034" lon="34.969790038">
      <ele>1582.809</ele>
      <time>2021-10-12T18:18:17Z</time>
    </trkpt>
    <trkpt lat="38.514965018" lon="34.96977604">
      <ele>1582.831</ele>
      <time>2021-10-12T18:18:18Z</time>
    </trkpt>
    <trkpt lat="38.514992008" lon="34.969760031">
      <ele>1582.868</ele>
      <time>2021-10-12T18:18:19Z</time>
    </trkpt>
    <trkpt lat="38.515014974" lon="34.969746033">
      <ele>1582.919</ele>
      <time>2021-10-12T18:18:20Z</time>
    </trkpt>
    <trkpt lat="38.515071971" lon="34.969709991">
      <ele>1582.956</ele>
      <time>2021-10-12T18:18:23Z</time>
    </trkpt>
    <trkpt lat="38.515098961" lon="34.969691969">
      <ele>1582.891</ele>
      <time>2021-10-12T18:18:24Z</time>
    </trkpt>
    <trkpt lat="38.515125029" lon="34.969676966">
      <ele>1582.837</ele>
      <time>2021-10-12T18:18:25Z</time>
    </trkpt>
    <trkpt lat="38.515151013" lon="34.969662968">
      <ele>1582.787</ele>
      <time>2021-10-12T18:18:26Z</time>
    </trkpt>
    <trkpt lat="38.515175991" lon="34.96964897">
      <ele>1582.736</ele>
      <time>2021-10-12T18:18:27Z</time>
    </trkpt>
    <trkpt lat="38.51520298" lon="34.969632039">
      <ele>1582.675</ele>
      <time>2021-10-12T18:18:28Z</time>
    </trkpt>
    <trkpt lat="38.515227959" lon="34.969618041">
      <ele>1582.625</ele>
      <time>2021-10-12T18:18:29Z</time>
    </trkpt>
    <trkpt lat="38.515252015" lon="34.969609994">
      <ele>1582.596</ele>
      <time>2021-10-12T18:18:30Z</time>
    </trkpt>
    <trkpt lat="38.51528001" lon="34.969602032">
      <ele>1582.563</ele>
      <time>2021-10-12T18:18:31Z</time>
    </trkpt>
    <trkpt lat="38.515310017" lon="34.969598008">
      <ele>1582.489</ele>
      <time>2021-10-12T18:18:32Z</time>
    </trkpt>
    <trkpt lat="38.515340025" lon="34.969597002">
      <ele>1582.426</ele>
      <time>2021-10-12T18:18:33Z</time>
    </trkpt>
    <trkpt lat="38.51536802" lon="34.969594991">
      <ele>1582.366</ele>
      <time>2021-10-12T18:18:34Z</time>
    </trkpt>
    <trkpt lat="38.515396016" lon="34.969591973">
      <ele>1582.305</ele>
      <time>2021-10-12T18:18:35Z</time>
    </trkpt>
    <trkpt lat="38.515427029" lon="34.969592979">
      <ele>1582.247</ele>
      <time>2021-10-12T18:18:36Z</time>
    </trkpt>
    <trkpt lat="38.515460975" lon="34.969593985">
      <ele>1582.183</ele>
      <time>2021-10-12T18:18:38Z</time>
    </trkpt>
    <trkpt lat="38.515491989" lon="34.969602032">
      <ele>1582.13</ele>
      <time>2021-10-12T18:18:39Z</time>
    </trkpt>
    <trkpt lat="38.515526019" lon="34.969605971">
      <ele>1582.062</ele>
      <time>2021-10-12T18:18:40Z</time>
    </trkpt>
    <trkpt lat="38.515553009" lon="34.969603959">
      <ele>1582.005</ele>
      <time>2021-10-12T18:18:41Z</time>
    </trkpt>
    <trkpt lat="38.515579998" lon="34.969602032">
      <ele>1581.874</ele>
      <time>2021-10-12T18:18:42Z</time>
    </trkpt>
    <trkpt lat="38.515610006" lon="34.969606977">
      <ele>1581.723</ele>
      <time>2021-10-12T18:18:43Z</time>
    </trkpt>
    <trkpt lat="38.515640013" lon="34.969609994">
      <ele>1581.573</ele>
      <time>2021-10-12T18:18:44Z</time>
    </trkpt>
    <trkpt lat="38.515669014" lon="34.969618041">
      <ele>1581.438</ele>
      <time>2021-10-12T18:18:45Z</time>
    </trkpt>
    <trkpt lat="38.515698016" lon="34.96962701">
      <ele>1581.311</ele>
      <time>2021-10-12T18:18:47Z</time>
    </trkpt>
    <trkpt lat="38.515727017" lon="34.969643019">
      <ele>1581.207</ele>
      <time>2021-10-12T18:18:48Z</time>
    </trkpt>
    <trkpt lat="38.51575803" lon="34.96966104">
      <ele>1581.111</ele>
      <time>2021-10-12T18:18:49Z</time>
    </trkpt>
    <trkpt lat="38.515787032" lon="34.969674032">
      <ele>1581.022</ele>
      <time>2021-10-12T18:18:50Z</time>
    </trkpt>
    <trkpt lat="38.515817039" lon="34.96968803">
      <ele>1580.943</ele>
      <time>2021-10-12T18:18:51Z</time>
    </trkpt>
    <trkpt lat="38.51584604" lon="34.969698004">
      <ele>1580.829</ele>
      <time>2021-10-12T18:18:52Z</time>
    </trkpt>
    <trkpt lat="38.515875963" lon="34.969704039">
      <ele>1580.648</ele>
      <time>2021-10-12T18:18:53Z</time>
    </trkpt>
    <trkpt lat="38.515904965" lon="34.969704039">
      <ele>1580.453</ele>
      <time>2021-10-12T18:18:55Z</time>
    </trkpt>
    <trkpt lat="38.515932038" lon="34.969704039">
      <ele>1580.27</ele>
      <time>2021-10-12T18:18:56Z</time>
    </trkpt>
    <trkpt lat="38.515959028" lon="34.969704039">
      <ele>1580.089</ele>
      <time>2021-10-12T18:18:57Z</time>
    </trkpt>
    <trkpt lat="38.515985012" lon="34.969704961">
      <ele>1579.914</ele>
      <time>2021-10-12T18:18:58Z</time>
    </trkpt>
    <trkpt lat="38.516014013" lon="34.969707979">
      <ele>1579.715</ele>
      <time>2021-10-12T18:18:59Z</time>
    </trkpt>
    <trkpt lat="38.516044021" lon="34.969712002">
      <ele>1579.502</ele>
      <time>2021-10-12T18:19:00Z</time>
    </trkpt>
    <trkpt lat="38.516066987" lon="34.969722982">
      <ele>1579.318</ele>
      <time>2021-10-12T18:19:01Z</time>
    </trkpt>
    <trkpt lat="38.516090037" lon="34.969749972">
      <ele>1579.152</ele>
      <time>2021-10-12T18:19:02Z</time>
    </trkpt>
    <trkpt lat="38.516109986" lon="34.969776962">
      <ele>1579.008</ele>
      <time>2021-10-12T18:19:03Z</time>
    </trkpt>
    <trkpt lat="38.516130019" lon="34.969808981">
      <ele>1578.957</ele>
      <time>2021-10-12T18:19:04Z</time>
    </trkpt>
    <trkpt lat="38.516145023" lon="34.969844017">
      <ele>1578.893</ele>
      <time>2021-10-12T18:19:05Z</time>
    </trkpt>
    <trkpt lat="38.51616296" lon="34.969876036">
      <ele>1578.793</ele>
      <time>2021-10-12T18:19:06Z</time>
    </trkpt>
    <trkpt lat="38.516183998" lon="34.96990202">
      <ele>1578.66</ele>
      <time>2021-10-12T18:19:07Z</time>
    </trkpt>
    <trkpt lat="38.516209982" lon="34.969922975">
      <ele>1578.486</ele>
      <time>2021-10-12T18:19:09Z</time>
    </trkpt>
    <trkpt lat="38.516235966" lon="34.969946025">
      <ele>1578.276</ele>
      <time>2021-10-12T18:19:10Z</time>
    </trkpt>
    <trkpt lat="38.516264968" lon="34.969971003">
      <ele>1578.008</ele>
      <time>2021-10-12T18:19:11Z</time>
    </trkpt>
    <trkpt lat="38.51629003" lon="34.969991036">
      <ele>1577.753</ele>
      <time>2021-10-12T18:19:12Z</time>
    </trkpt>
    <trkpt lat="38.516315008" lon="34.970015008">
      <ele>1577.478</ele>
      <time>2021-10-12T18:19:13Z</time>
    </trkpt>
    <trkpt lat="38.51633898" lon="34.970039986">
      <ele>1577.215</ele>
      <time>2021-10-12T18:19:14Z</time>
    </trkpt>
    <trkpt lat="38.516359013" lon="34.970063958">
      <ele>1576.985</ele>
      <time>2021-10-12T18:19:15Z</time>
    </trkpt>
    <trkpt lat="38.516381979" lon="34.970081979">
      <ele>1576.755</ele>
      <time>2021-10-12T18:19:16Z</time>
    </trkpt>
    <trkpt lat="38.516408969" lon="34.970102012">
      <ele>1576.56</ele>
      <time>2021-10-12T18:19:18Z</time>
    </trkpt>
    <trkpt lat="38.516438976" lon="34.970119027">
      <ele>1576.391</ele>
      <time>2021-10-12T18:19:19Z</time>
    </trkpt>
    <trkpt lat="38.516470995" lon="34.97012699">
      <ele>1576.247</ele>
      <time>2021-10-12T18:19:20Z</time>
    </trkpt>
    <trkpt lat="38.51649899" lon="34.970125984">
      <ele>1576.15</ele>
      <time>2021-10-12T18:19:21Z</time>
    </trkpt>
    <trkpt lat="38.516526986" lon="34.970115004">
      <ele>1576.089</ele>
      <time>2021-10-12T18:19:22Z</time>
    </trkpt>
    <trkpt lat="38.516551964" lon="34.970098995">
      <ele>1576.057</ele>
      <time>2021-10-12T18:19:23Z</time>
    </trkpt>
    <trkpt lat="38.516578032" lon="34.970080974">
      <ele>1576.028</ele>
      <time>2021-10-12T18:19:24Z</time>
    </trkpt>
    <trkpt lat="38.516602004" lon="34.970061025">
      <ele>1576.013</ele>
      <time>2021-10-12T18:19:25Z</time>
    </trkpt>
    <trkpt lat="38.516627988" lon="34.970035963">
      <ele>1576.01</ele>
      <time>2021-10-12T18:19:27Z</time>
    </trkpt>
    <trkpt lat="38.516653972" lon="34.970014002">
      <ele>1575.995</ele>
      <time>2021-10-12T18:19:28Z</time>
    </trkpt>
    <trkpt lat="38.516683979" lon="34.969988018">
      <ele>1576.084</ele>
      <time>2021-10-12T18:19:29Z</time>
    </trkpt>
    <trkpt lat="38.516713986" lon="34.969963962">
      <ele>1576.237</ele>
      <time>2021-10-12T18:19:30Z</time>
    </trkpt>
    <trkpt lat="38.516744999" lon="34.969938984">
      <ele>1576.377</ele>
      <time>2021-10-12T18:19:32Z</time>
    </trkpt>
    <trkpt lat="38.516774001" lon="34.969918029">
      <ele>1576.476</ele>
      <time>2021-10-12T18:19:33Z</time>
    </trkpt>
    <trkpt lat="38.516805014" lon="34.969899002">
      <ele>1576.546</ele>
      <time>2021-10-12T18:19:34Z</time>
    </trkpt>
    <trkpt lat="38.516835021" lon="34.969881987">
      <ele>1576.592</ele>
      <time>2021-10-12T18:19:35Z</time>
    </trkpt>
    <trkpt lat="38.516863016" lon="34.969865978">
      <ele>1576.624</ele>
      <time>2021-10-12T18:19:37Z</time>
    </trkpt>
    <trkpt lat="38.516893024" lon="34.96984804">
      <ele>1576.648</ele>
      <time>2021-10-12T18:19:38Z</time>
    </trkpt>
    <trkpt lat="38.516922025" lon="34.969828008">
      <ele>1576.669</ele>
      <time>2021-10-12T18:19:39Z</time>
    </trkpt>
    <trkpt lat="38.516952032" lon="34.969807975">
      <ele>1576.645</ele>
      <time>2021-10-12T18:19:40Z</time>
    </trkpt>
    <trkpt lat="38.516980028" lon="34.969789032">
      <ele>1576.534</ele>
      <time>2021-10-12T18:19:41Z</time>
    </trkpt>
    <trkpt lat="38.517009029" lon="34.969770005">
      <ele>1576.403</ele>
      <time>2021-10-12T18:19:43Z</time>
    </trkpt>
    <trkpt lat="38.517039958" lon="34.969751984">
      <ele>1576.242</ele>
      <time>2021-10-12T18:19:44Z</time>
    </trkpt>
    <trkpt lat="38.517068038" lon="34.969733041">
      <ele>1576.089</ele>
      <time>2021-10-12T18:19:45Z</time>
    </trkpt>
    <trkpt lat="38.517095027" lon="34.969716026">
      <ele>1575.938</ele>
      <time>2021-10-12T18:19:46Z</time>
    </trkpt>
    <trkpt lat="38.517123023" lon="34.96969901">
      <ele>1575.798</ele>
      <time>2021-10-12T18:19:47Z</time>
    </trkpt>
    <trkpt lat="38.517149007" lon="34.969680989">
      <ele>1575.676</ele>
      <time>2021-10-12T18:19:48Z</time>
    </trkpt>
    <trkpt lat="38.517177003" lon="34.96966498">
      <ele>1575.532</ele>
      <time>2021-10-12T18:19:50Z</time>
    </trkpt>
    <trkpt lat="38.517206004" lon="34.969646037">
      <ele>1575.391</ele>
      <time>2021-10-12T18:19:51Z</time>
    </trkpt>
    <trkpt lat="38.517233999" lon="34.969629021">
      <ele>1575.293</ele>
      <time>2021-10-12T18:19:52Z</time>
    </trkpt>
    <trkpt lat="38.517263001" lon="34.969617035">
      <ele>1575.232</ele>
      <time>2021-10-12T18:19:53Z</time>
    </trkpt>
    <trkpt lat="38.517293008" lon="34.969605971">
      <ele>1575.164</ele>
      <time>2021-10-12T18:19:54Z</time>
    </trkpt>
    <trkpt lat="38.517321004" lon="34.969590968">
      <ele>1575.117</ele>
      <time>2021-10-12T18:19:55Z</time>
    </trkpt>
    <trkpt lat="38.517354028" lon="34.969575964">
      <ele>1575.052</ele>
      <time>2021-10-12T18:19:57Z</time>
    </trkpt>
    <trkpt lat="38.517410019" lon="34.969548974">
      <ele>1574.948</ele>
      <time>2021-10-12T18:19:59Z</time>
    </trkpt>
    <trkpt lat="38.517439021" lon="34.969533971">
      <ele>1574.897</ele>
      <time>2021-10-12T18:20:00Z</time>
    </trkpt>
    <trkpt lat="38.517467016" lon="34.969516033">
      <ele>1574.861</ele>
      <time>2021-10-12T18:20:01Z</time>
    </trkpt>
    <trkpt lat="38.517497024" lon="34.96950103">
      <ele>1574.807</ele>
      <time>2021-10-12T18:20:02Z</time>
    </trkpt>
    <trkpt lat="38.517526025" lon="34.969488038">
      <ele>1574.951</ele>
      <time>2021-10-12T18:20:04Z</time>
    </trkpt>
    <trkpt lat="38.517554021" lon="34.969475968">
      <ele>1575.103</ele>
      <time>2021-10-12T18:20:05Z</time>
    </trkpt>
    <trkpt lat="38.517584028" lon="34.969468005">
      <ele>1575.243</ele>
      <time>2021-10-12T18:20:06Z</time>
    </trkpt>
    <trkpt lat="38.517612023" lon="34.969459036">
      <ele>1575.372</ele>
      <time>2021-10-12T18:20:07Z</time>
    </trkpt>
    <trkpt lat="38.517643958" lon="34.969448978">
      <ele>1575.51</ele>
      <time>2021-10-12T18:20:08Z</time>
    </trkpt>
    <trkpt lat="38.517673966" lon="34.969441015">
      <ele>1575.636</ele>
      <time>2021-10-12T18:20:09Z</time>
    </trkpt>
    <trkpt lat="38.517703973" lon="34.969432969">
      <ele>1575.756</ele>
      <time>2021-10-12T18:20:10Z</time>
    </trkpt>
    <trkpt lat="38.517734986" lon="34.969426012">
      <ele>1575.866</ele>
      <time>2021-10-12T18:20:11Z</time>
    </trkpt>
    <trkpt lat="38.51776801" lon="34.969419977">
      <ele>1575.971</ele>
      <time>2021-10-12T18:20:13Z</time>
    </trkpt>
    <trkpt lat="38.517799024" lon="34.969414026">
      <ele>1576.0</ele>
      <time>2021-10-12T18:20:14Z</time>
    </trkpt>
    <trkpt lat="38.517831964" lon="34.969411008">
      <ele>1576.0</ele>
      <time>2021-10-12T18:20:15Z</time>
    </trkpt>
    <trkpt lat="38.517862977" lon="34.969403967">
      <ele>1576.0</ele>
      <time>2021-10-12T18:20:16Z</time>
    </trkpt>
    <trkpt lat="38.517926009" lon="34.969388964">
      <ele>1576.0</ele>
      <time>2021-10-12T18:20:19Z</time>
    </trkpt>
    <trkpt lat="38.517956017" lon="34.969379995">
      <ele>1576.0</ele>
      <time>2021-10-12T18:20:20Z</time>
    </trkpt>
    <trkpt lat="38.517988035" lon="34.969371026">
      <ele>1576.0</ele>
      <time>2021-10-12T18:20:21Z</time>
    </trkpt>
    <trkpt lat="38.518020976" lon="34.96935904">
      <ele>1576.0</ele>
      <time>2021-10-12T18:20:22Z</time>
    </trkpt>
    <trkpt lat="38.518054001" lon="34.969344959">
      <ele>1576.0</ele>
      <time>2021-10-12T18:20:24Z</time>
    </trkpt>
    <trkpt lat="38.518080991" lon="34.969333978">
      <ele>1575.964</ele>
      <time>2021-10-12T18:20:25Z</time>
    </trkpt>
    <trkpt lat="38.518110998" lon="34.969328027">
      <ele>1575.916</ele>
      <time>2021-10-12T18:20:26Z</time>
    </trkpt>
    <trkpt lat="38.518141005" lon="34.96932501">
      <ele>1575.868</ele>
      <time>2021-10-12T18:20:27Z</time>
    </trkpt>
    <trkpt lat="38.518171012" lon="34.969322998">
      <ele>1575.818</ele>
      <time>2021-10-12T18:20:28Z</time>
    </trkpt>
    <trkpt lat="38.518202025" lon="34.969321992">
      <ele>1575.768</ele>
      <time>2021-10-12T18:20:29Z</time>
    </trkpt>
    <trkpt lat="38.518232033" lon="34.969321992">
      <ele>1575.72</ele>
      <time>2021-10-12T18:20:30Z</time>
    </trkpt>
    <trkpt lat="38.518260028" lon="34.969321992">
      <ele>1575.676</ele>
      <time>2021-10-12T18:20:31Z</time>
    </trkpt>
    <trkpt lat="38.518291963" lon="34.969327021">
      <ele>1575.64</ele>
      <time>2021-10-12T18:20:32Z</time>
    </trkpt>
    <trkpt lat="38.518319959" lon="34.969330039">
      <ele>1575.608</ele>
      <time>2021-10-12T18:20:33Z</time>
    </trkpt>
    <trkpt lat="38.518350972" lon="34.969333978">
      <ele>1575.564</ele>
      <time>2021-10-12T18:20:35Z</time>
    </trkpt>
    <trkpt lat="38.518386008" lon="34.969338002">
      <ele>1575.5</ele>
      <time>2021-10-12T18:20:36Z</time>
    </trkpt>
    <trkpt lat="38.518419033" lon="34.969342025">
      <ele>1575.437</ele>
      <time>2021-10-12T18:20:37Z</time>
    </trkpt>
    <trkpt lat="38.518449962" lon="34.969342025">
      <ele>1575.366</ele>
      <time>2021-10-12T18:20:38Z</time>
    </trkpt>
    <trkpt lat="38.518484998" lon="34.969343031">
      <ele>1575.288</ele>
      <time>2021-10-12T18:20:40Z</time>
    </trkpt>
    <trkpt lat="38.518518023" lon="34.969344959">
      <ele>1575.215</ele>
      <time>2021-10-12T18:20:41Z</time>
    </trkpt>
    <trkpt lat="38.518552976" lon="34.969347976">
      <ele>1575.137</ele>
      <time>2021-10-12T18:20:42Z</time>
    </trkpt>
    <trkpt lat="38.518588012" lon="34.969348982">
      <ele>1575.055</ele>
      <time>2021-10-12T18:20:43Z</time>
    </trkpt>
    <trkpt lat="38.518620031" lon="34.969351999">
      <ele>1575.0</ele>
      <time>2021-10-12T18:20:45Z</time>
    </trkpt>
    <trkpt lat="38.518654983" lon="34.969358034">
      <ele>1575.0</ele>
      <time>2021-10-12T18:20:46Z</time>
    </trkpt>
    <trkpt lat="38.518688008" lon="34.96936298">
      <ele>1575.0</ele>
      <time>2021-10-12T18:20:47Z</time>
    </trkpt>
    <trkpt lat="38.518721033" lon="34.969370021">
      <ele>1575.0</ele>
      <time>2021-10-12T18:20:48Z</time>
    </trkpt>
    <trkpt lat="38.51875498" lon="34.969374966">
      <ele>1575.0</ele>
      <time>2021-10-12T18:20:50Z</time>
    </trkpt>
    <trkpt lat="38.518785993" lon="34.969382007">
      <ele>1575.0</ele>
      <time>2021-10-12T18:20:51Z</time>
    </trkpt>
    <trkpt lat="38.518819017" lon="34.969391981">
      <ele>1575.0</ele>
      <time>2021-10-12T18:20:52Z</time>
    </trkpt>
    <trkpt lat="38.518851036" lon="34.969399022">
      <ele>1575.0</ele>
      <time>2021-10-12T18:20:53Z</time>
    </trkpt>
    <trkpt lat="38.518883977" lon="34.969410002">
      <ele>1575.0</ele>
      <time>2021-10-12T18:20:55Z</time>
    </trkpt>
    <trkpt lat="38.518915996" lon="34.969420983">
      <ele>1575.008</ele>
      <time>2021-10-12T18:20:56Z</time>
    </trkpt>
    <trkpt lat="38.518948015" lon="34.969430035">
      <ele>1575.011</ele>
      <time>2021-10-12T18:20:57Z</time>
    </trkpt>
    <trkpt lat="38.518981962" lon="34.969437998">
      <ele>1575.008</ele>
      <time>2021-10-12T18:20:58Z</time>
    </trkpt>
    <trkpt lat="38.519014986" lon="34.969446966">
      <ele>1575.0</ele>
      <time>2021-10-12T18:20:59Z</time>
    </trkpt>
    <trkpt lat="38.519047005" lon="34.969453001">
      <ele>1575.0</ele>
      <time>2021-10-12T18:21:01Z</time>
    </trkpt>
    <trkpt lat="38.519079024" lon="34.96946197">
      <ele>1575.0</ele>
      <time>2021-10-12T18:21:02Z</time>
    </trkpt>
    <trkpt lat="38.519141972" lon="34.969476974">
      <ele>1575.0</ele>
      <time>2021-10-12T18:21:04Z</time>
    </trkpt>
    <trkpt lat="38.519202992" lon="34.969511004">
      <ele>1575.099</ele>
      <time>2021-10-12T18:21:07Z</time>
    </trkpt>
    <trkpt lat="38.519233" lon="34.969531037">
      <ele>1575.164</ele>
      <time>2021-10-12T18:21:08Z</time>
    </trkpt>
    <trkpt lat="38.519260995" lon="34.969550986">
      <ele>1575.209</ele>
      <time>2021-10-12T18:21:09Z</time>
    </trkpt>
    <trkpt lat="38.519288991" lon="34.969575042">
      <ele>1575.233</ele>
      <time>2021-10-12T18:21:10Z</time>
    </trkpt>
    <trkpt lat="38.519312963" lon="34.96960002">
      <ele>1575.232</ele>
      <time>2021-10-12T18:21:12Z</time>
    </trkpt>
    <trkpt lat="38.51935898" lon="34.969652994">
      <ele>1575.173</ele>
      <time>2021-10-12T18:21:14Z</time>
    </trkpt>
    <trkpt lat="38.51938203" lon="34.969685012">
      <ele>1575.104</ele>
      <time>2021-10-12T18:21:15Z</time>
    </trkpt>
    <trkpt lat="38.519399967" lon="34.969716026">
      <ele>1575.019</ele>
      <time>2021-10-12T18:21:16Z</time>
    </trkpt>
    <trkpt lat="38.519414971" lon="34.969746033">
      <ele>1574.923</ele>
      <time>2021-10-12T18:21:17Z</time>
    </trkpt>
    <trkpt lat="38.519426035" lon="34.969777968">
      <ele>1574.813</ele>
      <time>2021-10-12T18:21:18Z</time>
    </trkpt>
    <trkpt lat="38.519429974" lon="34.96981401">
      <ele>1574.687</ele>
      <time>2021-10-12T18:21:19Z</time>
    </trkpt>
    <trkpt lat="38.519431986" lon="34.96985198">
      <ele>1574.554</ele>
      <time>2021-10-12T18:21:20Z</time>
    </trkpt>
    <trkpt lat="38.519441038" lon="34.969890034">
      <ele>1574.403</ele>
      <time>2021-10-12T18:21:22Z</time>
    </trkpt>
    <trkpt lat="38.519449001" lon="34.969928004">
      <ele>1574.226</ele>
      <time>2021-10-12T18:21:23Z</time>
    </trkpt>
    <trkpt lat="38.51945797" lon="34.969965974">
      <ele>1574.025</ele>
      <time>2021-10-12T18:21:24Z</time>
    </trkpt>
    <trkpt lat="38.51947004" lon="34.970004028">
      <ele>1573.816</ele>
      <time>2021-10-12T18:21:25Z</time>
    </trkpt>
    <trkpt lat="38.519484038" lon="34.970041998">
      <ele>1573.715</ele>
      <time>2021-10-12T18:21:26Z</time>
    </trkpt>
    <trkpt lat="38.519499963" lon="34.970077034">
      <ele>1573.6</ele>
      <time>2021-10-12T18:21:27Z</time>
    </trkpt>
    <trkpt lat="38.519513961" lon="34.970113998">
      <ele>1573.499</ele>
      <time>2021-10-12T18:21:29Z</time>
    </trkpt>
    <trkpt lat="38.519551009" lon="34.970185999">
      <ele>1573.233</ele>
      <time>2021-10-12T18:21:31Z</time>
    </trkpt>
    <trkpt lat="38.519571964" lon="34.970219024">
      <ele>1573.082</ele>
      <time>2021-10-12T18:21:32Z</time>
    </trkpt>
    <trkpt lat="38.519594008" lon="34.97025297">
      <ele>1572.923</ele>
      <time>2021-10-12T18:21:34Z</time>
    </trkpt>
    <trkpt lat="38.519614963" lon="34.970283983">
      <ele>1572.777</ele>
      <time>2021-10-12T18:21:35Z</time>
    </trkpt>
    <trkpt lat="38.519638013" lon="34.97031399">
      <ele>1572.658</ele>
      <time>2021-10-12T18:21:36Z</time>
    </trkpt>
    <trkpt lat="38.519662991" lon="34.970338969">
      <ele>1572.553</ele>
      <time>2021-10-12T18:21:37Z</time>
    </trkpt>
    <trkpt lat="38.519690987" lon="34.97036403">
      <ele>1572.466</ele>
      <time>2021-10-12T18:21:39Z</time>
    </trkpt>
    <trkpt lat="38.519716971" lon="34.970385991">
      <ele>1572.413</ele>
      <time>2021-10-12T18:21:40Z</time>
    </trkpt>
    <trkpt lat="38.519744966" lon="34.970406024">
      <ele>1572.424</ele>
      <time>2021-10-12T18:21:41Z</time>
    </trkpt>
    <trkpt lat="38.519775979" lon="34.97042899">
      <ele>1572.439</ele>
      <time>2021-10-12T18:21:42Z</time>
    </trkpt>
    <trkpt lat="38.519803975" lon="34.970452962">
      <ele>1572.445</ele>
      <time>2021-10-12T18:21:43Z</time>
    </trkpt>
    <trkpt lat="38.519830965" lon="34.970477019">
      <ele>1572.436</ele>
      <time>2021-10-12T18:21:45Z</time>
    </trkpt>
    <trkpt lat="38.519857032" lon="34.970499985">
      <ele>1572.412</ele>
      <time>2021-10-12T18:21:46Z</time>
    </trkpt>
    <trkpt lat="38.51988201" lon="34.970524963">
      <ele>1572.378</ele>
      <time>2021-10-12T18:21:47Z</time>
    </trkpt>
    <trkpt lat="38.519909" lon="34.970551031">
      <ele>1572.322</ele>
      <time>2021-10-12T18:21:48Z</time>
    </trkpt>
    <trkpt lat="38.519933978" lon="34.970580032">
      <ele>1572.217</ele>
      <time>2021-10-12T18:21:50Z</time>
    </trkpt>
    <trkpt lat="38.519962979" lon="34.970600987">
      <ele>1572.111</ele>
      <time>2021-10-12T18:21:51Z</time>
    </trkpt>
    <trkpt lat="38.519993993" lon="34.970610961">
      <ele>1572.017</ele>
      <time>2021-10-12T18:21:52Z</time>
    </trkpt>
    <trkpt lat="38.520022994" lon="34.970613979">
      <ele>1571.983</ele>
      <time>2021-10-12T18:21:53Z</time>
    </trkpt>
    <trkpt lat="38.520054007" lon="34.970612973">
      <ele>1571.96</ele>
      <time>2021-10-12T18:21:54Z</time>
    </trkpt>
    <trkpt lat="38.52011201" lon="34.970614985">
      <ele>1571.914</ele>
      <time>2021-10-12T18:21:56Z</time>
    </trkpt>
    <trkpt lat="38.520140005" lon="34.970611967">
      <ele>1571.898</ele>
      <time>2021-10-12T18:21:57Z</time>
    </trkpt>
    <trkpt lat="38.52017303" lon="34.970613979">
      <ele>1571.869</ele>
      <time>2021-10-12T18:21:59Z</time>
    </trkpt>
    <trkpt lat="38.520205971" lon="34.970613979">
      <ele>1571.844</ele>
      <time>2021-10-12T18:22:00Z</time>
    </trkpt>
    <trkpt lat="38.52023799" lon="34.970610039">
      <ele>1571.832</ele>
      <time>2021-10-12T18:22:01Z</time>
    </trkpt>
    <trkpt lat="38.520270009" lon="34.970606016">
      <ele>1571.823</ele>
      <time>2021-10-12T18:22:02Z</time>
    </trkpt>
    <trkpt lat="38.520302027" lon="34.970602999">
      <ele>1571.829</ele>
      <time>2021-10-12T18:22:03Z</time>
    </trkpt>
    <trkpt lat="38.520333041" lon="34.970599981">
      <ele>1571.84</ele>
      <time>2021-10-12T18:22:05Z</time>
    </trkpt>
    <trkpt lat="38.520359024" lon="34.970593024">
      <ele>1571.865</ele>
      <time>2021-10-12T18:22:06Z</time>
    </trkpt>
    <trkpt lat="38.520389032" lon="34.970590007">
      <ele>1571.876</ele>
      <time>2021-10-12T18:22:07Z</time>
    </trkpt>
    <trkpt lat="38.520421972" lon="34.970589001">
      <ele>1571.88</ele>
      <time>2021-10-12T18:22:08Z</time>
    </trkpt>
    <trkpt lat="38.520487016" lon="34.970583972">
      <ele>1571.898</ele>
      <time>2021-10-12T18:22:10Z</time>
    </trkpt>
    <trkpt lat="38.520519035" lon="34.97058196">
      <ele>1571.905</ele>
      <time>2021-10-12T18:22:11Z</time>
    </trkpt>
    <trkpt lat="38.520549964" lon="34.970580032">
      <ele>1571.912</ele>
      <time>2021-10-12T18:22:13Z</time>
    </trkpt>
    <trkpt lat="38.520581983" lon="34.970579026">
      <ele>1571.82</ele>
      <time>2021-10-12T18:22:14Z</time>
    </trkpt>
    <trkpt lat="38.520610984" lon="34.97057802">
      <ele>1571.72</ele>
      <time>2021-10-12T18:22:15Z</time>
    </trkpt>
    <trkpt lat="38.520645015" lon="34.970581038">
      <ele>1571.586</ele>
      <time>2021-10-12T18:22:16Z</time>
    </trkpt>
    <trkpt lat="38.520675022" lon="34.97058196">
      <ele>1571.475</ele>
      <time>2021-10-12T18:22:17Z</time>
    </trkpt>
    <trkpt lat="38.520706035" lon="34.970580032">
      <ele>1571.37</ele>
      <time>2021-10-12T18:22:18Z</time>
    </trkpt>
    <trkpt lat="38.520739982" lon="34.970579026">
      <ele>1571.252</ele>
      <time>2021-10-12T18:22:20Z</time>
    </trkpt>
    <trkpt lat="38.520770995" lon="34.970575003">
      <ele>1571.154</ele>
      <time>2021-10-12T18:22:21Z</time>
    </trkpt>
    <trkpt lat="38.520806031" lon="34.970572991">
      <ele>1571.036</ele>
      <time>2021-10-12T18:22:22Z</time>
    </trkpt>
    <trkpt lat="38.520840984" lon="34.970571985">
      <ele>1570.938</ele>
      <time>2021-10-12T18:22:23Z</time>
    </trkpt>
    <trkpt lat="38.520874009" lon="34.970568968">
      <ele>1570.938</ele>
      <time>2021-10-12T18:22:25Z</time>
    </trkpt>
    <trkpt lat="38.520907033" lon="34.97056704">
      <ele>1570.937</ele>
      <time>2021-10-12T18:22:26Z</time>
    </trkpt>
    <trkpt lat="38.52094098" lon="34.970565028">
      <ele>1570.939</ele>
      <time>2021-10-12T18:22:27Z</time>
    </trkpt>
    <trkpt lat="38.520972999" lon="34.970566034">
      <ele>1570.924</ele>
      <time>2021-10-12T18:22:28Z</time>
    </trkpt>
    <trkpt lat="38.521006024" lon="34.970565028">
      <ele>1570.923</ele>
      <time>2021-10-12T18:22:29Z</time>
    </trkpt>
    <trkpt lat="38.521035025" lon="34.970564023">
      <ele>1570.925</ele>
      <time>2021-10-12T18:22:31Z</time>
    </trkpt>
    <trkpt lat="38.521066038" lon="34.970564023">
      <ele>1570.918</ele>
      <time>2021-10-12T18:22:32Z</time>
    </trkpt>
    <trkpt lat="38.521097973" lon="34.970564023">
      <ele>1570.911</ele>
      <time>2021-10-12T18:22:33Z</time>
    </trkpt>
    <trkpt lat="38.521129992" lon="34.970565028">
      <ele>1570.9</ele>
      <time>2021-10-12T18:22:34Z</time>
    </trkpt>
    <trkpt lat="38.521159999" lon="34.970564023">
      <ele>1570.914</ele>
      <time>2021-10-12T18:22:35Z</time>
    </trkpt>
    <trkpt lat="38.521187995" lon="34.970559999">
      <ele>1570.956</ele>
      <time>2021-10-12T18:22:36Z</time>
    </trkpt>
    <trkpt lat="38.521223031" lon="34.970559999">
      <ele>1570.958</ele>
      <time>2021-10-12T18:22:38Z</time>
    </trkpt>
    <trkpt lat="38.52125396" lon="34.970561005">
      <ele>1570.951</ele>
      <time>2021-10-12T18:22:39Z</time>
    </trkpt>
    <trkpt lat="38.521322021" lon="34.970561005">
      <ele>1570.956</ele>
      <time>2021-10-12T18:22:41Z</time>
    </trkpt>
    <trkpt lat="38.521353034" lon="34.970561005">
      <ele>1570.958</ele>
      <time>2021-10-12T18:22:42Z</time>
    </trkpt>
    <trkpt lat="38.521383964" lon="34.970558994">
      <ele>1570.975</ele>
      <time>2021-10-12T18:22:43Z</time>
    </trkpt>
    <trkpt lat="38.521413971" lon="34.97055497">
      <ele>1571.187</ele>
      <time>2021-10-12T18:22:45Z</time>
    </trkpt>
    <trkpt lat="38.521444984" lon="34.970551031">
      <ele>1571.449</ele>
      <time>2021-10-12T18:22:46Z</time>
    </trkpt>
    <trkpt lat="38.521473985" lon="34.970547007">
      <ele>1571.696</ele>
      <time>2021-10-12T18:22:47Z</time>
    </trkpt>
    <trkpt lat="38.52150701" lon="34.970546002">
      <ele>1571.939</ele>
      <time>2021-10-12T18:22:48Z</time>
    </trkpt>
    <trkpt lat="38.521535005" lon="34.970538039">
      <ele>1572.208</ele>
      <time>2021-10-12T18:22:49Z</time>
    </trkpt>
    <trkpt lat="38.521565013" lon="34.970535021">
      <ele>1572.443</ele>
      <time>2021-10-12T18:22:50Z</time>
    </trkpt>
    <trkpt lat="38.521596026" lon="34.970532004">
      <ele>1572.683</ele>
      <time>2021-10-12T18:22:51Z</time>
    </trkpt>
    <trkpt lat="38.521626033" lon="34.970532004">
      <ele>1572.889</ele>
      <time>2021-10-12T18:22:52Z</time>
    </trkpt>
    <trkpt lat="38.52165604" lon="34.970535021">
      <ele>1573.074</ele>
      <time>2021-10-12T18:22:54Z</time>
    </trkpt>
    <trkpt lat="38.52168303" lon="34.970535021">
      <ele>1573.148</ele>
      <time>2021-10-12T18:22:55Z</time>
    </trkpt>
    <trkpt lat="38.521713037" lon="34.970530998">
      <ele>1573.177</ele>
      <time>2021-10-12T18:22:56Z</time>
    </trkpt>
    <trkpt lat="38.521742038" lon="34.970529992">
      <ele>1573.184</ele>
      <time>2021-10-12T18:22:57Z</time>
    </trkpt>
    <trkpt lat="38.521771962" lon="34.97052798">
      <ele>1573.199</ele>
      <time>2021-10-12T18:22:58Z</time>
    </trkpt>
    <trkpt lat="38.521800963" lon="34.97052798">
      <ele>1573.199</ele>
      <time>2021-10-12T18:22:59Z</time>
    </trkpt>
    <trkpt lat="38.521825019" lon="34.970521023">
      <ele>1573.249</ele>
      <time>2021-10-12T18:23:00Z</time>
    </trkpt>
    <trkpt lat="38.521854021" lon="34.970515994">
      <ele>1573.285</ele>
      <time>2021-10-12T18:23:01Z</time>
    </trkpt>
    <trkpt lat="38.52188604" lon="34.970518006">
      <ele>1573.27</ele>
      <time>2021-10-12T18:23:02Z</time>
    </trkpt>
    <trkpt lat="38.521917975" lon="34.970518006">
      <ele>1573.27</ele>
      <time>2021-10-12T18:23:03Z</time>
    </trkpt>
    <trkpt lat="38.521950999" lon="34.970514989">
      <ele>1573.268</ele>
      <time>2021-10-12T18:23:05Z</time>
    </trkpt>
    <trkpt lat="38.521984024" lon="34.970515994">
      <ele>1573.142</ele>
      <time>2021-10-12T18:23:06Z</time>
    </trkpt>
    <trkpt lat="38.522016965" lon="34.970514989">
      <ele>1573.031</ele>
      <time>2021-10-12T18:23:07Z</time>
    </trkpt>
    <trkpt lat="38.522050995" lon="34.970515994">
      <ele>1572.901</ele>
      <time>2021-10-12T18:23:08Z</time>
    </trkpt>
    <trkpt lat="38.52208402" lon="34.970519012">
      <ele>1572.761</ele>
      <time>2021-10-12T18:23:09Z</time>
    </trkpt>
    <trkpt lat="38.522114027" lon="34.970525969">
      <ele>1572.603</ele>
      <time>2021-10-12T18:23:11Z</time>
    </trkpt>
    <trkpt lat="38.52214504" lon="34.970532004">
      <ele>1572.447</ele>
      <time>2021-10-12T18:23:12Z</time>
    </trkpt>
    <trkpt lat="38.52217597" lon="34.97054399">
      <ele>1572.25</ele>
      <time>2021-10-12T18:23:13Z</time>
    </trkpt>
    <trkpt lat="38.522206983" lon="34.970553964">
      <ele>1572.066</ele>
      <time>2021-10-12T18:23:14Z</time>
    </trkpt>
    <trkpt lat="38.522233972" lon="34.970561005">
      <ele>1571.98</ele>
      <time>2021-10-12T18:23:15Z</time>
    </trkpt>
    <trkpt lat="38.522260962" lon="34.970566034">
      <ele>1571.962</ele>
      <time>2021-10-12T18:23:16Z</time>
    </trkpt>
    <trkpt lat="38.522290969" lon="34.970571985">
      <ele>1571.941</ele>
      <time>2021-10-12T18:23:17Z</time>
    </trkpt>
    <trkpt lat="38.522321982" lon="34.970575003">
      <ele>1571.93</ele>
      <time>2021-10-12T18:23:18Z</time>
    </trkpt>
    <trkpt lat="38.52235199" lon="34.970579026">
      <ele>1571.916</ele>
      <time>2021-10-12T18:23:20Z</time>
    </trkpt>
    <trkpt lat="38.522377973" lon="34.970581038">
      <ele>1571.908</ele>
      <time>2021-10-12T18:23:21Z</time>
    </trkpt>
    <trkpt lat="38.522407981" lon="34.970580032">
      <ele>1571.912</ele>
      <time>2021-10-12T18:23:22Z</time>
    </trkpt>
    <trkpt lat="38.522433965" lon="34.97058196">
      <ele>1571.905</ele>
      <time>2021-10-12T18:23:23Z</time>
    </trkpt>
    <trkpt lat="38.522464978" lon="34.97058196">
      <ele>1571.905</ele>
      <time>2021-10-12T18:23:24Z</time>
    </trkpt>
    <trkpt lat="38.522496996" lon="34.970584977">
      <ele>1571.894</ele>
      <time>2021-10-12T18:23:25Z</time>
    </trkpt>
    <trkpt lat="38.522529015" lon="34.970591012">
      <ele>1571.899</ele>
      <time>2021-10-12T18:23:26Z</time>
    </trkpt>
    <trkpt lat="38.522560028" lon="34.970596042">
      <ele>1571.917</ele>
      <time>2021-10-12T18:23:27Z</time>
    </trkpt>
    <trkpt lat="38.522591041" lon="34.970604004">
      <ele>1571.94</ele>
      <time>2021-10-12T18:23:28Z</time>
    </trkpt>
    <trkpt lat="38.522656001" lon="34.970625965">
      <ele>1572.031</ele>
      <time>2021-10-12T18:23:31Z</time>
    </trkpt>
    <trkpt lat="38.522689026" lon="34.970643986">
      <ele>1572.115</ele>
      <time>2021-10-12T18:23:32Z</time>
    </trkpt>
    <trkpt lat="38.522718027" lon="34.970662007">
      <ele>1572.218</ele>
      <time>2021-10-12T18:23:33Z</time>
    </trkpt>
    <trkpt lat="38.522746023" lon="34.970681034">
      <ele>1572.348</ele>
      <time>2021-10-12T18:23:35Z</time>
    </trkpt>
    <trkpt lat="38.522774018" lon="34.970697965">
      <ele>1572.499</ele>
      <time>2021-10-12T18:23:36Z</time>
    </trkpt>
    <trkpt lat="38.522794973" lon="34.970715987">
      <ele>1572.542</ele>
      <time>2021-10-12T18:23:37Z</time>
    </trkpt>
    <trkpt lat="38.522819029" lon="34.970739037">
      <ele>1572.562</ele>
      <time>2021-10-12T18:23:38Z</time>
    </trkpt>
    <trkpt lat="38.522843001" lon="34.97075798">
      <ele>1572.558</ele>
      <time>2021-10-12T18:23:39Z</time>
    </trkpt>
    <trkpt lat="38.522865968" lon="34.970777007">
      <ele>1572.544</ele>
      <time>2021-10-12T18:23:40Z</time>
    </trkpt>
    <trkpt lat="38.522890024" lon="34.970797962">
      <ele>1572.52</ele>
      <time>2021-10-12T18:23:41Z</time>
    </trkpt>
    <trkpt lat="38.522916008" lon="34.970819">
      <ele>1572.476</ele>
      <time>2021-10-12T18:23:42Z</time>
    </trkpt>
    <trkpt lat="38.52296697" lon="34.970860993">
      <ele>1572.355</ele>
      <time>2021-10-12T18:23:44Z</time>
    </trkpt>
    <trkpt lat="38.522988008" lon="34.970882032">
      <ele>1572.333</ele>
      <time>2021-10-12T18:23:45Z</time>
    </trkpt>
    <trkpt lat="38.523011981" lon="34.970902987">
      <ele>1572.329</ele>
      <time>2021-10-12T18:23:46Z</time>
    </trkpt>
    <trkpt lat="38.523036037" lon="34.970926037">
      <ele>1572.357</ele>
      <time>2021-10-12T18:23:48Z</time>
    </trkpt>
    <trkpt lat="38.523059003" lon="34.970947998">
      <ele>1572.42</ele>
      <time>2021-10-12T18:23:49Z</time>
    </trkpt>
    <trkpt lat="38.523082975" lon="34.970969036">
      <ele>1572.539</ele>
      <time>2021-10-12T18:23:50Z</time>
    </trkpt>
    <trkpt lat="38.523107031" lon="34.970987979">
      <ele>1572.639</ele>
      <time>2021-10-12T18:23:51Z</time>
    </trkpt>
    <trkpt lat="38.523131004" lon="34.971010024">
      <ele>1572.735</ele>
      <time>2021-10-12T18:23:52Z</time>
    </trkpt>
    <trkpt lat="38.523157993" lon="34.971031984">
      <ele>1572.82</ele>
      <time>2021-10-12T18:23:53Z</time>
    </trkpt>
    <trkpt lat="38.523182971" lon="34.971051011">
      <ele>1572.883</ele>
      <time>2021-10-12T18:23:54Z</time>
    </trkpt>
    <trkpt lat="38.523209039" lon="34.971071966">
      <ele>1572.937</ele>
      <time>2021-10-12T18:23:55Z</time>
    </trkpt>
    <trkpt lat="38.523234017" lon="34.971087975">
      <ele>1572.97</ele>
      <time>2021-10-12T18:23:56Z</time>
    </trkpt>
    <trkpt lat="38.523260001" lon="34.971107002">
      <ele>1572.996</ele>
      <time>2021-10-12T18:23:57Z</time>
    </trkpt>
    <trkpt lat="38.523285985" lon="34.971128041">
      <ele>1573.0</ele>
      <time>2021-10-12T18:23:59Z</time>
    </trkpt>
    <trkpt lat="38.523312975" lon="34.971151007">
      <ele>1573.0</ele>
      <time>2021-10-12T18:24:00Z</time>
    </trkpt>
    <trkpt lat="38.52334097" lon="34.971173974">
      <ele>1573.021</ele>
      <time>2021-10-12T18:24:01Z</time>
    </trkpt>
    <trkpt lat="38.523366032" lon="34.971194007">
      <ele>1573.083</ele>
      <time>2021-10-12T18:24:02Z</time>
    </trkpt>
    <trkpt lat="38.52339101" lon="34.971212028">
      <ele>1573.132</ele>
      <time>2021-10-12T18:24:03Z</time>
    </trkpt>
    <trkpt lat="38.523416994" lon="34.971228959">
      <ele>1573.173</ele>
      <time>2021-10-12T18:24:04Z</time>
    </trkpt>
    <trkpt lat="38.523441972" lon="34.971247986">
      <ele>1573.198</ele>
      <time>2021-10-12T18:24:05Z</time>
    </trkpt>
    <trkpt lat="38.52349503" lon="34.971285034">
      <ele>1573.218</ele>
      <time>2021-10-12T18:24:08Z</time>
    </trkpt>
    <trkpt lat="38.523523025" lon="34.971301965">
      <ele>1573.214</ele>
      <time>2021-10-12T18:24:09Z</time>
    </trkpt>
    <trkpt lat="38.523549009" lon="34.971318981">
      <ele>1573.195</ele>
      <time>2021-10-12T18:24:10Z</time>
    </trkpt>
    <trkpt lat="38.523572981" lon="34.971338008">
      <ele>1573.158</ele>
      <time>2021-10-12T18:24:11Z</time>
    </trkpt>
    <trkpt lat="38.523600977" lon="34.971357035">
      <ele>1573.11</ele>
      <time>2021-10-12T18:24:12Z</time>
    </trkpt>
    <trkpt lat="38.523627967" lon="34.971373966">
      <ele>1573.057</ele>
      <time>2021-10-12T18:24:13Z</time>
    </trkpt>
    <trkpt lat="38.523656968" lon="34.971389975">
      <ele>1572.996</ele>
      <time>2021-10-12T18:24:14Z</time>
    </trkpt>
    <trkpt lat="38.523685969" lon="34.971405985">
      <ele>1572.938</ele>
      <time>2021-10-12T18:24:15Z</time>
    </trkpt>
    <trkpt lat="38.523712037" lon="34.971419983">
      <ele>1572.888</ele>
      <time>2021-10-12T18:24:16Z</time>
    </trkpt>
    <trkpt lat="38.523738021" lon="34.97143398">
      <ele>1572.838</ele>
      <time>2021-10-12T18:24:17Z</time>
    </trkpt>
    <trkpt lat="38.523766017" lon="34.971444039">
      <ele>1572.801</ele>
      <time>2021-10-12T18:24:19Z</time>
    </trkpt>
    <trkpt lat="38.523796024" lon="34.971456025">
      <ele>1572.758</ele>
      <time>2021-10-12T18:24:20Z</time>
    </trkpt>
    <trkpt lat="38.523827037" lon="34.971470023">
      <ele>1572.708</ele>
      <time>2021-10-12T18:24:21Z</time>
    </trkpt>
    <trkpt lat="38.523856038" lon="34.971479997">
      <ele>1572.672</ele>
      <time>2021-10-12T18:24:22Z</time>
    </trkpt>
    <trkpt lat="38.523888979" lon="34.971489972">
      <ele>1572.636</ele>
      <time>2021-10-12T18:24:23Z</time>
    </trkpt>
    <trkpt lat="38.523919992" lon="34.971497012">
      <ele>1572.611</ele>
      <time>2021-10-12T18:24:24Z</time>
    </trkpt>
    <trkpt lat="38.523952011" lon="34.971504975">
      <ele>1572.582</ele>
      <time>2021-10-12T18:24:26Z</time>
    </trkpt>
    <trkpt lat="38.523983024" lon="34.971512016">
      <ele>1572.557</ele>
      <time>2021-10-12T18:24:27Z</time>
    </trkpt>
    <trkpt lat="38.524013031" lon="34.971518973">
      <ele>1572.532</ele>
      <time>2021-10-12T18:24:28Z</time>
    </trkpt>
    <trkpt lat="38.524042033" lon="34.97152702">
      <ele>1572.503</ele>
      <time>2021-10-12T18:24:29Z</time>
    </trkpt>
    <trkpt lat="38.524073968" lon="34.971535988">
      <ele>1572.47</ele>
      <time>2021-10-12T18:24:30Z</time>
    </trkpt>
    <trkpt lat="38.524104981" lon="34.971543029">
      <ele>1572.445</ele>
      <time>2021-10-12T18:24:31Z</time>
    </trkpt>
    <trkpt lat="38.524134988" lon="34.971549986">
      <ele>1572.42</ele>
      <time>2021-10-12T18:24:33Z</time>
    </trkpt>
    <trkpt lat="38.524199026" lon="34.971563984">
      <ele>1572.443</ele>
      <time>2021-10-12T18:24:35Z</time>
    </trkpt>
    <trkpt lat="38.524231967" lon="34.97157203">
      <ele>1572.496</ele>
      <time>2021-10-12T18:24:36Z</time>
    </trkpt>
    <trkpt lat="38.524260968" lon="34.971579993">
      <ele>1572.546</ele>
      <time>2021-10-12T18:24:37Z</time>
    </trkpt>
    <trkpt lat="38.524293993" lon="34.971589968">
      <ele>1572.608</ele>
      <time>2021-10-12T18:24:39Z</time>
    </trkpt>
    <trkpt lat="38.524322994" lon="34.971601032">
      <ele>1572.666</ele>
      <time>2021-10-12T18:24:40Z</time>
    </trkpt>
    <trkpt lat="38.524351995" lon="34.971607989">
      <ele>1572.737</ele>
      <time>2021-10-12T18:24:41Z</time>
    </trkpt>
    <trkpt lat="38.524384014" lon="34.971615029">
      <ele>1572.823</ele>
      <time>2021-10-12T18:24:42Z</time>
    </trkpt>
    <trkpt lat="38.524415027" lon="34.971617963">
      <ele>1572.913</ele>
      <time>2021-10-12T18:24:43Z</time>
    </trkpt>
    <trkpt lat="38.524444029" lon="34.971618969">
      <ele>1572.999</ele>
      <time>2021-10-12T18:24:44Z</time>
    </trkpt>
    <trkpt lat="38.524472024" lon="34.971625004">
      <ele>1573.129</ele>
      <time>2021-10-12T18:24:45Z</time>
    </trkpt>
    <trkpt lat="38.52450002" lon="34.971630033">
      <ele>1573.253</ele>
      <time>2021-10-12T18:24:46Z</time>
    </trkpt>
    <trkpt lat="38.524529021" lon="34.97163699">
      <ele>1573.37</ele>
      <time>2021-10-12T18:24:47Z</time>
    </trkpt>
    <trkpt lat="38.52456104" lon="34.97164797">
      <ele>1573.476</ele>
      <time>2021-10-12T18:24:49Z</time>
    </trkpt>
    <trkpt lat="38.524590963" lon="34.971654005">
      <ele>1573.576</ele>
      <time>2021-10-12T18:24:50Z</time>
    </trkpt>
    <trkpt lat="38.524620971" lon="34.97166398">
      <ele>1573.648</ele>
      <time>2021-10-12T18:24:51Z</time>
    </trkpt>
    <trkpt lat="38.52465299" lon="34.971677978">
      <ele>1573.679</ele>
      <time>2021-10-12T18:24:52Z</time>
    </trkpt>
    <trkpt lat="38.524682997" lon="34.971685018">
      <ele>1573.736</ele>
      <time>2021-10-12T18:24:53Z</time>
    </trkpt>
    <trkpt lat="38.524746029" lon="34.971702034">
      <ele>1573.82</ele>
      <time>2021-10-12T18:24:56Z</time>
    </trkpt>
    <trkpt lat="38.524809983" lon="34.971721983">
      <ele>1573.855</ele>
      <time>2021-10-12T18:24:58Z</time>
    </trkpt>
    <trkpt lat="38.524844013" lon="34.971730029">
      <ele>1573.882</ele>
      <time>2021-10-12T18:24:59Z</time>
    </trkpt>
    <trkpt lat="38.524876032" lon="34.971738998">
      <ele>1573.889</ele>
      <time>2021-10-12T18:25:01Z</time>
    </trkpt>
    <trkpt lat="38.524908973" lon="34.97175199">
      <ele>1573.851</ele>
      <time>2021-10-12T18:25:02Z</time>
    </trkpt>
    <trkpt lat="38.524939986" lon="34.971763976">
      <ele>1573.809</ele>
      <time>2021-10-12T18:25:03Z</time>
    </trkpt>
    <trkpt lat="38.524966976" lon="34.97177504">
      <ele>1573.757</ele>
      <time>2021-10-12T18:25:04Z</time>
    </trkpt>
    <trkpt lat="38.524997989" lon="34.971787026">
      <ele>1573.696</ele>
      <time>2021-10-12T18:25:05Z</time>
    </trkpt>
    <trkpt lat="38.525027996" lon="34.971801024">
      <ele>1573.598</ele>
      <time>2021-10-12T18:25:07Z</time>
    </trkpt>
    <trkpt lat="38.525055991" lon="34.971812004">
      <ele>1573.536</ele>
      <time>2021-10-12T18:25:08Z</time>
    </trkpt>
    <trkpt lat="38.525087005" lon="34.971821979">
      <ele>1573.498</ele>
      <time>2021-10-12T18:25:09Z</time>
    </trkpt>
    <trkpt lat="38.525115" lon="34.971830025">
      <ele>1573.479</ele>
      <time>2021-10-12T18:25:10Z</time>
    </trkpt>
    <trkpt lat="38.525144001" lon="34.971837988">
      <ele>1573.469</ele>
      <time>2021-10-12T18:25:11Z</time>
    </trkpt>
    <trkpt lat="38.525174009" lon="34.971843017">
      <ele>1573.493</ele>
      <time>2021-10-12T18:25:12Z</time>
    </trkpt>
    <trkpt lat="38.525207033" lon="34.971846035">
      <ele>1573.544</ele>
      <time>2021-10-12T18:25:13Z</time>
    </trkpt>
    <trkpt lat="38.52524098" lon="34.971849974">
      <ele>1573.593</ele>
      <time>2021-10-12T18:25:15Z</time>
    </trkpt>
    <trkpt lat="38.525274005" lon="34.971849974">
      <ele>1573.671</ele>
      <time>2021-10-12T18:25:16Z</time>
    </trkpt>
    <trkpt lat="38.525302" lon="34.97185098">
      <ele>1573.701</ele>
      <time>2021-10-12T18:25:17Z</time>
    </trkpt>
    <trkpt lat="38.525334019" lon="34.971853998">
      <ele>1573.722</ele>
      <time>2021-10-12T18:25:18Z</time>
    </trkpt>
    <trkpt lat="38.525365032" lon="34.971858021">
      <ele>1573.741</ele>
      <time>2021-10-12T18:25:19Z</time>
    </trkpt>
    <trkpt lat="38.525396967" lon="34.971862966">
      <ele>1573.764</ele>
      <time>2021-10-12T18:25:20Z</time>
    </trkpt>
    <trkpt lat="38.52542798" lon="34.971863972">
      <ele>1573.807</ele>
      <time>2021-10-12T18:25:21Z</time>
    </trkpt>
    <trkpt lat="38.52545497" lon="34.971864978">
      <ele>1573.845</ele>
      <time>2021-10-12T18:25:22Z</time>
    </trkpt>
    <trkpt lat="38.525484977" lon="34.97186699">
      <ele>1573.888</ele>
      <time>2021-10-12T18:25:24Z</time>
    </trkpt>
    <trkpt lat="38.525513979" lon="34.971870007">
      <ele>1573.931</ele>
      <time>2021-10-12T18:25:25Z</time>
    </trkpt>
    <trkpt lat="38.525544992" lon="34.971872019">
      <ele>1573.982</ele>
      <time>2021-10-12T18:25:26Z</time>
    </trkpt>
    <trkpt lat="38.525572987" lon="34.971872019">
      <ele>1573.97</ele>
      <time>2021-10-12T18:25:27Z</time>
    </trkpt>
    <trkpt lat="38.525601989" lon="34.971871013">
      <ele>1573.921</ele>
      <time>2021-10-12T18:25:28Z</time>
    </trkpt>
    <trkpt lat="38.525627973" lon="34.971865984">
      <ele>1573.887</ele>
      <time>2021-10-12T18:25:29Z</time>
    </trkpt>
    <trkpt lat="38.525659991" lon="34.971865984">
      <ele>1573.836</ele>
      <time>2021-10-12T18:25:30Z</time>
    </trkpt>
    <trkpt lat="38.525688993" lon="34.971862966">
      <ele>1573.801</ele>
      <time>2021-10-12T18:25:31Z</time>
    </trkpt>
    <trkpt lat="38.525721012" lon="34.971859027">
      <ele>1573.771</ele>
      <time>2021-10-12T18:25:32Z</time>
    </trkpt>
    <trkpt lat="38.52574599" lon="34.97185098">
      <ele>1573.776</ele>
      <time>2021-10-12T18:25:33Z</time>
    </trkpt>
    <trkpt lat="38.525771974" lon="34.971848968">
      <ele>1573.756</ele>
      <time>2021-10-12T18:25:34Z</time>
    </trkpt>
    <trkpt lat="38.525801981" lon="34.971844023">
      <ele>1573.754</ele>
      <time>2021-10-12T18:25:35Z</time>
    </trkpt>
    <trkpt lat="38.525832994" lon="34.971838994">
      <ele>1573.76</ele>
      <time>2021-10-12T18:25:37Z</time>
    </trkpt>
    <trkpt lat="38.525858978" lon="34.971833965">
      <ele>1573.888</ele>
      <time>2021-10-12T18:25:38Z</time>
    </trkpt>
    <trkpt lat="38.525888985" lon="34.971827008">
      <ele>1574.046</ele>
      <time>2021-10-12T18:25:39Z</time>
    </trkpt>
    <trkpt lat="38.525916981" lon="34.971822985">
      <ele>1574.176</ele>
      <time>2021-10-12T18:25:40Z</time>
    </trkpt>
    <trkpt lat="38.525946988" lon="34.971820973">
      <ele>1574.298</ele>
      <time>2021-10-12T18:25:41Z</time>
    </trkpt>
    <trkpt lat="38.525975989" lon="34.971822985">
      <ele>1574.388</ele>
      <time>2021-10-12T18:25:42Z</time>
    </trkpt>
    <trkpt lat="38.526003985" lon="34.971826002">
      <ele>1574.467</ele>
      <time>2021-10-12T18:25:43Z</time>
    </trkpt>
    <trkpt lat="38.526033992" lon="34.971834971">
      <ele>1574.511</ele>
      <time>2021-10-12T18:25:44Z</time>
    </trkpt>
    <trkpt lat="38.526061988" lon="34.971846035">
      <ele>1574.532</ele>
      <time>2021-10-12T18:25:45Z</time>
    </trkpt>
    <trkpt lat="38.526091995" lon="34.97186196">
      <ele>1574.525</ele>
      <time>2021-10-12T18:25:46Z</time>
    </trkpt>
    <trkpt lat="38.526118984" lon="34.971879981">
      <ele>1574.451</ele>
      <time>2021-10-12T18:25:47Z</time>
    </trkpt>
    <trkpt lat="38.526144968" lon="34.971898003">
      <ele>1574.294</ele>
      <time>2021-10-12T18:25:49Z</time>
    </trkpt>
    <trkpt lat="38.526171036" lon="34.971913006">
      <ele>1574.178</ele>
      <time>2021-10-12T18:25:50Z</time>
    </trkpt>
    <trkpt lat="38.526198026" lon="34.971921975">
      <ele>1574.111</ele>
      <time>2021-10-12T18:25:51Z</time>
    </trkpt>
    <trkpt lat="38.526223004" lon="34.971932033">
      <ele>1574.053</ele>
      <time>2021-10-12T18:25:52Z</time>
    </trkpt>
    <trkpt lat="38.526253011" lon="34.97194997">
      <ele>1573.981</ele>
      <time>2021-10-12T18:25:53Z</time>
    </trkpt>
    <trkpt lat="38.526283018" lon="34.97196598">
      <ele>1573.941</ele>
      <time>2021-10-12T18:25:54Z</time>
    </trkpt>
    <trkpt lat="38.52631202" lon="34.971982995">
      <ele>1573.923</ele>
      <time>2021-10-12T18:25:55Z</time>
    </trkpt>
    <trkpt lat="38.526340015" lon="34.971996993">
      <ele>1573.933</ele>
      <time>2021-10-12T18:25:56Z</time>
    </trkpt>
    <trkpt lat="38.526371028" lon="34.972002022">
      <ele>1573.973</ele>
      <time>2021-10-12T18:25:58Z</time>
    </trkpt>
    <trkpt lat="38.526405981" lon="34.972008979">
      <ele>1573.877</ele>
      <time>2021-10-12T18:25:59Z</time>
    </trkpt>
    <trkpt lat="38.526435988" lon="34.972018031">
      <ele>1573.661</ele>
      <time>2021-10-12T18:26:00Z</time>
    </trkpt>
    <trkpt lat="38.526506983" lon="34.972030018">
      <ele>1573.15</ele>
      <time>2021-10-12T18:26:03Z</time>
    </trkpt>
    <trkpt lat="38.526537996" lon="34.972033035">
      <ele>1572.926</ele>
      <time>2021-10-12T18:26:04Z</time>
    </trkpt>
    <trkpt lat="38.526566997" lon="34.972034963">
      <ele>1572.718</ele>
      <time>2021-10-12T18:26:05Z</time>
    </trkpt>
    <trkpt lat="38.526597004" lon="34.972032029">
      <ele>1572.502</ele>
      <time>2021-10-12T18:26:06Z</time>
    </trkpt>
    <trkpt lat="38.526626006" lon="34.972030018">
      <ele>1572.293</ele>
      <time>2021-10-12T18:26:07Z</time>
    </trkpt>
    <trkpt lat="38.526655007" lon="34.972032029">
      <ele>1572.084</ele>
      <time>2021-10-12T18:26:08Z</time>
    </trkpt>
    <trkpt lat="38.526683003" lon="34.972033035">
      <ele>1571.922</ele>
      <time>2021-10-12T18:26:09Z</time>
    </trkpt>
    <trkpt lat="38.526714016" lon="34.972034963">
      <ele>1571.774</ele>
      <time>2021-10-12T18:26:10Z</time>
    </trkpt>
    <trkpt lat="38.526745029" lon="34.97203798">
      <ele>1571.623</ele>
      <time>2021-10-12T18:26:11Z</time>
    </trkpt>
    <trkpt lat="38.526776964" lon="34.972039992">
      <ele>1571.466</ele>
      <time>2021-10-12T18:26:13Z</time>
    </trkpt>
    <trkpt lat="38.526807977" lon="34.972040998">
      <ele>1571.314</ele>
      <time>2021-10-12T18:26:14Z</time>
    </trkpt>
    <trkpt lat="38.526836978" lon="34.97203798">
      <ele>1571.18</ele>
      <time>2021-10-12T18:26:15Z</time>
    </trkpt>
    <trkpt lat="38.526866985" lon="34.972030018">
      <ele>1571.057</ele>
      <time>2021-10-12T18:26:16Z</time>
    </trkpt>
    <trkpt lat="38.526897999" lon="34.972024988">
      <ele>1570.926</ele>
      <time>2021-10-12T18:26:17Z</time>
    </trkpt>
    <trkpt lat="38.526929012" lon="34.972019959">
      <ele>1570.799</ele>
      <time>2021-10-12T18:26:18Z</time>
    </trkpt>
    <trkpt lat="38.526959019" lon="34.972011996">
      <ele>1570.704</ele>
      <time>2021-10-12T18:26:19Z</time>
    </trkpt>
    <trkpt lat="38.526986009" lon="34.972005961">
      <ele>1570.629</ele>
      <time>2021-10-12T18:26:20Z</time>
    </trkpt>
    <trkpt lat="38.527010987" lon="34.97200001">
      <ele>1570.56</ele>
      <time>2021-10-12T18:26:21Z</time>
    </trkpt>
    <trkpt lat="38.527037976" lon="34.971993975">
      <ele>1570.485</ele>
      <time>2021-10-12T18:26:22Z</time>
    </trkpt>
    <trkpt lat="38.527065972" lon="34.971981989">
      <ele>1570.427</ele>
      <time>2021-10-12T18:26:23Z</time>
    </trkpt>
    <trkpt lat="38.527094973" lon="34.971964974">
      <ele>1570.384</ele>
      <time>2021-10-12T18:26:25Z</time>
    </trkpt>
    <trkpt lat="38.527126992" lon="34.971947959">
      <ele>1570.33</ele>
      <time>2021-10-12T18:26:26Z</time>
    </trkpt>
    <trkpt lat="38.527155994" lon="34.971933039">
      <ele>1570.248</ele>
      <time>2021-10-12T18:26:27Z</time>
    </trkpt>
    <trkpt lat="38.527189018" lon="34.971920969">
      <ele>1570.13</ele>
      <time>2021-10-12T18:26:28Z</time>
    </trkpt>
    <trkpt lat="38.527248027" lon="34.971896997">
      <ele>1569.846</ele>
      <time>2021-10-12T18:26:31Z</time>
    </trkpt>
    <trkpt lat="38.52727904" lon="34.971886016">
      <ele>1569.677</ele>
      <time>2021-10-12T18:26:32Z</time>
    </trkpt>
    <trkpt lat="38.527310975" lon="34.971871013">
      <ele>1569.53</ele>
      <time>2021-10-12T18:26:33Z</time>
    </trkpt>
    <trkpt lat="38.527345005" lon="34.971859027">
      <ele>1569.388</ele>
      <time>2021-10-12T18:26:34Z</time>
    </trkpt>
    <trkpt lat="38.527377024" lon="34.971848968">
      <ele>1569.269</ele>
      <time>2021-10-12T18:26:36Z</time>
    </trkpt>
    <trkpt lat="38.527408037" lon="34.97184">
      <ele>1569.165</ele>
      <time>2021-10-12T18:26:37Z</time>
    </trkpt>
    <trkpt lat="38.527437961" lon="34.971833965">
      <ele>1569.064</ele>
      <time>2021-10-12T18:26:38Z</time>
    </trkpt>
    <trkpt lat="38.527472997" lon="34.971828014">
      <ele>1568.951</ele>
      <time>2021-10-12T18:26:39Z</time>
    </trkpt>
    <trkpt lat="38.527506022" lon="34.97182399">
      <ele>1568.898</ele>
      <time>2021-10-12T18:26:40Z</time>
    </trkpt>
    <trkpt lat="38.527538041" lon="34.971815022">
      <ele>1569.133</ele>
      <time>2021-10-12T18:26:42Z</time>
    </trkpt>
    <trkpt lat="38.527566958" lon="34.971809993">
      <ele>1569.326</ele>
      <time>2021-10-12T18:26:43Z</time>
    </trkpt>
    <trkpt lat="38.527596965" lon="34.971807981">
      <ele>1569.503</ele>
      <time>2021-10-12T18:26:44Z</time>
    </trkpt>
    <trkpt lat="38.527627978" lon="34.971801024">
      <ele>1569.731</ele>
      <time>2021-10-12T18:26:45Z</time>
    </trkpt>
    <trkpt lat="38.527654968" lon="34.971787026">
      <ele>1570.007</ele>
      <time>2021-10-12T18:26:46Z</time>
    </trkpt>
    <trkpt lat="38.527685981" lon="34.971775962">
      <ele>1570.289</ele>
      <time>2021-10-12T18:26:47Z</time>
    </trkpt>
    <trkpt lat="38.527716994" lon="34.971763976">
      <ele>1570.588</ele>
      <time>2021-10-12T18:26:49Z</time>
    </trkpt>
    <trkpt lat="38.527745996" lon="34.971752996">
      <ele>1570.874</ele>
      <time>2021-10-12T18:26:50Z</time>
    </trkpt>
    <trkpt lat="38.527772985" lon="34.971740004">
      <ele>1571.178</ele>
      <time>2021-10-12T18:26:51Z</time>
    </trkpt>
    <trkpt lat="38.527801987" lon="34.971729023">
      <ele>1571.346</ele>
      <time>2021-10-12T18:26:52Z</time>
    </trkpt>
    <trkpt lat="38.527829982" lon="34.971717037">
      <ele>1571.49</ele>
      <time>2021-10-12T18:26:53Z</time>
    </trkpt>
    <trkpt lat="38.52785999" lon="34.971703961">
      <ele>1571.637</ele>
      <time>2021-10-12T18:26:54Z</time>
    </trkpt>
    <trkpt lat="38.527892008" lon="34.971689964">
      <ele>1571.783</ele>
      <time>2021-10-12T18:26:55Z</time>
    </trkpt>
    <trkpt lat="38.527923021" lon="34.971678983">
      <ele>1571.89</ele>
      <time>2021-10-12T18:26:57Z</time>
    </trkpt>
    <trkpt lat="38.527952023" lon="34.971668003">
      <ele>1571.989</ele>
      <time>2021-10-12T18:26:58Z</time>
    </trkpt>
    <trkpt lat="38.527981024" lon="34.971655011">
      <ele>1571.958</ele>
      <time>2021-10-12T18:26:59Z</time>
    </trkpt>
    <trkpt lat="38.52800902" lon="34.971645037">
      <ele>1571.922</ele>
      <time>2021-10-12T18:27:00Z</time>
    </trkpt>
    <trkpt lat="38.528039027" lon="34.971635984">
      <ele>1571.89</ele>
      <time>2021-10-12T18:27:01Z</time>
    </trkpt>
    <trkpt lat="38.52807398" lon="34.971625004">
      <ele>1571.737</ele>
      <time>2021-10-12T18:27:02Z</time>
    </trkpt>
    <trkpt lat="38.528104993" lon="34.971613018">
      <ele>1571.52</ele>
      <time>2021-10-12T18:27:04Z</time>
    </trkpt>
    <trkpt lat="38.528133994" lon="34.971601032">
      <ele>1571.332</ele>
      <time>2021-10-12T18:27:05Z</time>
    </trkpt>
    <trkpt lat="38.528164001" lon="34.971590973">
      <ele>1571.159</ele>
      <time>2021-10-12T18:27:06Z</time>
    </trkpt>
    <trkpt lat="38.528193003" lon="34.971578987">
      <ele>1571.007</ele>
      <time>2021-10-12T18:27:07Z</time>
    </trkpt>
    <trkpt lat="38.528220998" lon="34.971569013">
      <ele>1570.876</ele>
      <time>2021-10-12T18:27:08Z</time>
    </trkpt>
    <trkpt lat="38.528246982" lon="34.971559038">
      <ele>1570.768</ele>
      <time>2021-10-12T18:27:09Z</time>
    </trkpt>
    <trkpt lat="38.528274978" lon="34.971551998">
      <ele>1570.66</ele>
      <time>2021-10-12T18:27:10Z</time>
    </trkpt>
    <trkpt lat="38.528304985" lon="34.971545041">
      <ele>1570.553</ele>
      <time>2021-10-12T18:27:11Z</time>
    </trkpt>
    <trkpt lat="38.528333986" lon="34.971543029">
      <ele>1570.439</ele>
      <time>2021-10-12T18:27:12Z</time>
    </trkpt>
    <trkpt lat="38.528369023" lon="34.971529031">
      <ele>1570.173</ele>
      <time>2021-10-12T18:27:14Z</time>
    </trkpt>
    <trkpt lat="38.528400036" lon="34.971524002">
      <ele>1569.923</ele>
      <time>2021-10-12T18:27:15Z</time>
    </trkpt>
    <trkpt lat="38.528432976" lon="34.971516039">
      <ele>1569.691</ele>
      <time>2021-10-12T18:27:16Z</time>
    </trkpt>
    <trkpt lat="38.528467007" lon="34.971512016">
      <ele>1569.436</ele>
      <time>2021-10-12T18:27:17Z</time>
    </trkpt>
    <trkpt lat="38.52849802" lon="34.971508998">
      <ele>1569.206</ele>
      <time>2021-10-12T18:27:18Z</time>
    </trkpt>
    <trkpt lat="38.528530039" lon="34.971505981">
      <ele>1568.975</ele>
      <time>2021-10-12T18:27:20Z</time>
    </trkpt>
    <trkpt lat="38.52855904" lon="34.971501036">
      <ele>1568.8</ele>
      <time>2021-10-12T18:27:21Z</time>
    </trkpt>
    <trkpt lat="38.528588964" lon="34.971497012">
      <ele>1568.616</ele>
      <time>2021-10-12T18:27:22Z</time>
    </trkpt>
    <trkpt lat="38.528620983" lon="34.971498018">
      <ele>1568.258</ele>
      <time>2021-10-12T18:27:23Z</time>
    </trkpt>
    <trkpt lat="38.528655013" lon="34.971508998">
      <ele>1567.502</ele>
      <time>2021-10-12T18:27:24Z</time>
    </trkpt>
    <trkpt lat="38.528686026" lon="34.971514028">
      <ele>1566.876</ele>
      <time>2021-10-12T18:27:25Z</time>
    </trkpt>
    <trkpt lat="38.528717039" lon="34.971517967">
      <ele>1566.262</ele>
      <time>2021-10-12T18:27:27Z</time>
    </trkpt>
    <trkpt lat="38.528751992" lon="34.971525008">
      <ele>1565.514</ele>
      <time>2021-10-12T18:27:28Z</time>
    </trkpt>
    <trkpt lat="38.528785016" lon="34.971528025">
      <ele>1564.865</ele>
      <time>2021-10-12T18:27:29Z</time>
    </trkpt>
    <trkpt lat="38.528819969" lon="34.971528025">
      <ele>1564.236</ele>
      <time>2021-10-12T18:27:30Z</time>
    </trkpt>
    <trkpt lat="38.528849976" lon="34.971528025">
      <ele>1563.695</ele>
      <time>2021-10-12T18:27:32Z</time>
    </trkpt>
    <trkpt lat="38.528912002" lon="34.97152199">
      <ele>1562.962</ele>
      <time>2021-10-12T18:27:34Z</time>
    </trkpt>
    <trkpt lat="38.528943015" lon="34.971522996">
      <ele>1562.72</ele>
      <time>2021-10-12T18:27:35Z</time>
    </trkpt>
    <trkpt lat="38.52897604" lon="34.971524002">
      <ele>1562.463</ele>
      <time>2021-10-12T18:27:36Z</time>
    </trkpt>
    <trkpt lat="38.52900303" lon="34.971520985">
      <ele>1562.345</ele>
      <time>2021-10-12T18:27:37Z</time>
    </trkpt>
    <trkpt lat="38.529030019" lon="34.971514028">
      <ele>1562.331</ele>
      <time>2021-10-12T18:27:38Z</time>
    </trkpt>
    <trkpt lat="38.529054997" lon="34.971503969">
      <ele>1562.421</ele>
      <time>2021-10-12T18:27:39Z</time>
    </trkpt>
    <trkpt lat="38.529080981" lon="34.971490977">
      <ele>1562.595</ele>
      <time>2021-10-12T18:27:40Z</time>
    </trkpt>
    <trkpt lat="38.529105959" lon="34.971481003">
      <ele>1562.711</ele>
      <time>2021-10-12T18:27:41Z</time>
    </trkpt>
    <trkpt lat="38.529134039" lon="34.971471028">
      <ele>1562.821</ele>
      <time>2021-10-12T18:27:42Z</time>
    </trkpt>
    <trkpt lat="38.529160023" lon="34.971461976">
      <ele>1562.932</ele>
      <time>2021-10-12T18:27:43Z</time>
    </trkpt>
    <trkpt lat="38.52919003" lon="34.971453007">
      <ele>1562.959</ele>
      <time>2021-10-12T18:27:44Z</time>
    </trkpt>
    <trkpt lat="38.529220037" lon="34.971435992">
      <ele>1563.165</ele>
      <time>2021-10-12T18:27:46Z</time>
    </trkpt>
    <trkpt lat="38.529249961" lon="34.971421994">
      <ele>1563.254</ele>
      <time>2021-10-12T18:27:47Z</time>
    </trkpt>
    <trkpt lat="38.529278962" lon="34.971404979">
      <ele>1563.394</ele>
      <time>2021-10-12T18:27:48Z</time>
    </trkpt>
    <trkpt lat="38.529309975" lon="34.97138897">
      <ele>1563.45</ele>
      <time>2021-10-12T18:27:49Z</time>
    </trkpt>
    <trkpt lat="38.529338976" lon="34.971373966">
      <ele>1563.28</ele>
      <time>2021-10-12T18:27:50Z</time>
    </trkpt>
    <trkpt lat="38.529364038" lon="34.971352005">
      <ele>1563.228</ele>
      <time>2021-10-12T18:27:52Z</time>
    </trkpt>
    <trkpt lat="38.529392034" lon="34.971332978">
      <ele>1563.132</ele>
      <time>2021-10-12T18:27:53Z</time>
    </trkpt>
    <trkpt lat="38.529421035" lon="34.971314035">
      <ele>1563.039</ele>
      <time>2021-10-12T18:27:54Z</time>
    </trkpt>
    <trkpt lat="38.529445007" lon="34.971296014">
      <ele>1562.997</ele>
      <time>2021-10-12T18:27:55Z</time>
    </trkpt>
    <trkpt lat="38.529469986" lon="34.971278999">
      <ele>1562.911</ele>
      <time>2021-10-12T18:27:56Z</time>
    </trkpt>
    <trkpt lat="38.529499993" lon="34.971265001">
      <ele>1562.738</ele>
      <time>2021-10-12T18:27:57Z</time>
    </trkpt>
    <trkpt lat="38.529528994" lon="34.971249998">
      <ele>1562.587</ele>
      <time>2021-10-12T18:27:58Z</time>
    </trkpt>
    <trkpt lat="38.529559001" lon="34.971237006">
      <ele>1562.403</ele>
      <time>2021-10-12T18:28:00Z</time>
    </trkpt>
    <trkpt lat="38.529612981" lon="34.971203981">
      <ele>1562.177</ele>
      <time>2021-10-12T18:28:02Z</time>
    </trkpt>
    <trkpt lat="38.529640976" lon="34.971190989">
      <ele>1562.015</ele>
      <time>2021-10-12T18:28:03Z</time>
    </trkpt>
    <trkpt lat="38.529694034" lon="34.971160982">
      <ele>1561.766</ele>
      <time>2021-10-12T18:28:05Z</time>
    </trkpt>
    <trkpt lat="38.529721024" lon="34.971145978">
      <ele>1561.636</ele>
      <time>2021-10-12T18:28:06Z</time>
    </trkpt>
    <trkpt lat="38.529748013" lon="34.971138015">
      <ele>1561.524</ele>
      <time>2021-10-12T18:28:07Z</time>
    </trkpt>
    <trkpt lat="38.529771985" lon="34.971124018">
      <ele>1561.502</ele>
      <time>2021-10-12T18:28:08Z</time>
    </trkpt>
    <trkpt lat="38.529797969" lon="34.971107002">
      <ele>1561.518</ele>
      <time>2021-10-12T18:28:09Z</time>
    </trkpt>
    <trkpt lat="38.529825965" lon="34.971087975">
      <ele>1561.617</ele>
      <time>2021-10-12T18:28:10Z</time>
    </trkpt>
    <trkpt lat="38.529854966" lon="34.971067021">
      <ele>1561.755</ele>
      <time>2021-10-12T18:28:12Z</time>
    </trkpt>
    <trkpt lat="38.529882962" lon="34.971051011">
      <ele>1561.833</ele>
      <time>2021-10-12T18:28:13Z</time>
    </trkpt>
    <trkpt lat="38.529911041" lon="34.971033996">
      <ele>1561.94</ele>
      <time>2021-10-12T18:28:14Z</time>
    </trkpt>
    <trkpt lat="38.529938031" lon="34.971016981">
      <ele>1562.065</ele>
      <time>2021-10-12T18:28:15Z</time>
    </trkpt>
    <trkpt lat="38.529963009" lon="34.971001977">
      <ele>1562.178</ele>
      <time>2021-10-12T18:28:16Z</time>
    </trkpt>
    <trkpt lat="38.529991005" lon="34.97098404">
      <ele>1562.337</ele>
      <time>2021-10-12T18:28:17Z</time>
    </trkpt>
    <trkpt lat="38.530013971" lon="34.970966019">
      <ele>1562.66</ele>
      <time>2021-10-12T18:28:18Z</time>
    </trkpt>
    <trkpt lat="38.530039033" lon="34.97094498">
      <ele>1563.103</ele>
      <time>2021-10-12T18:28:19Z</time>
    </trkpt>
    <trkpt lat="38.530064011" lon="34.970922014">
      <ele>1563.551</ele>
      <time>2021-10-12T18:28:20Z</time>
    </trkpt>
    <trkpt lat="38.530087983" lon="34.970901981">
      <ele>1563.921</ele>
      <time>2021-10-12T18:28:21Z</time>
    </trkpt>
    <trkpt lat="38.530112961" lon="34.97088002">
      <ele>1564.296</ele>
      <time>2021-10-12T18:28:23Z</time>
    </trkpt>
    <trkpt lat="38.530138023" lon="34.970861999">
      <ele>1564.587</ele>
      <time>2021-10-12T18:28:24Z</time>
    </trkpt>
    <trkpt lat="38.530163001" lon="34.970843978">
      <ele>1564.853</ele>
      <time>2021-10-12T18:28:25Z</time>
    </trkpt>
    <trkpt lat="38.530190997" lon="34.970823023">
      <ele>1565.097</ele>
      <time>2021-10-12T18:28:26Z</time>
    </trkpt>
    <trkpt lat="38.530216981" lon="34.970802991">
      <ele>1565.266</ele>
      <time>2021-10-12T18:28:27Z</time>
    </trkpt>
    <trkpt lat="38.53024397" lon="34.97078497">
      <ele>1565.391</ele>
      <time>2021-10-12T18:28:28Z</time>
    </trkpt>
    <trkpt lat="38.530274983" lon="34.970766027">
      <ele>1565.489</ele>
      <time>2021-10-12T18:28:29Z</time>
    </trkpt>
    <trkpt lat="38.530301973" lon="34.970750017">
      <ele>1565.461</ele>
      <time>2021-10-12T18:28:31Z</time>
    </trkpt>
    <trkpt lat="38.53033198" lon="34.970726967">
      <ele>1565.421</ele>
      <time>2021-10-12T18:28:32Z</time>
    </trkpt>
    <trkpt lat="38.530361988" lon="34.970705006">
      <ele>1565.341</ele>
      <time>2021-10-12T18:28:33Z</time>
    </trkpt>
    <trkpt lat="38.530389983" lon="34.970684974">
      <ele>1565.233</ele>
      <time>2021-10-12T18:28:34Z</time>
    </trkpt>
    <trkpt lat="38.530418985" lon="34.970662007">
      <ele>1565.098</ele>
      <time>2021-10-12T18:28:36Z</time>
    </trkpt>
    <trkpt lat="38.530449998" lon="34.97064298">
      <ele>1564.901</ele>
      <time>2021-10-12T18:28:37Z</time>
    </trkpt>
    <trkpt lat="38.530480005" lon="34.970625965">
      <ele>1564.678</ele>
      <time>2021-10-12T18:28:38Z</time>
    </trkpt>
    <trkpt lat="38.53051303" lon="34.970611967">
      <ele>1564.397</ele>
      <time>2021-10-12T18:28:39Z</time>
    </trkpt>
    <trkpt lat="38.530543037" lon="34.970596964">
      <ele>1564.122</ele>
      <time>2021-10-12T18:28:41Z</time>
    </trkpt>
    <trkpt lat="38.53057296" lon="34.970581038">
      <ele>1563.943</ele>
      <time>2021-10-12T18:28:42Z</time>
    </trkpt>
    <trkpt lat="38.530605985" lon="34.97056704">
      <ele>1563.826</ele>
      <time>2021-10-12T18:28:43Z</time>
    </trkpt>
    <trkpt lat="38.530636998" lon="34.970555976">
      <ele>1563.707</ele>
      <time>2021-10-12T18:28:44Z</time>
    </trkpt>
    <trkpt lat="38.530670023" lon="34.970548013">
      <ele>1563.62</ele>
      <time>2021-10-12T18:28:45Z</time>
    </trkpt>
    <trkpt lat="38.530701036" lon="34.970537033">
      <ele>1563.54</ele>
      <time>2021-10-12T18:28:47Z</time>
    </trkpt>
    <trkpt lat="38.530731965" lon="34.970523035">
      <ele>1563.45</ele>
      <time>2021-10-12T18:28:48Z</time>
    </trkpt>
    <trkpt lat="38.530763984" lon="34.970510965">
      <ele>1563.33</ele>
      <time>2021-10-12T18:28:49Z</time>
    </trkpt>
    <trkpt lat="38.530794997" lon="34.970499985">
      <ele>1563.193</ele>
      <time>2021-10-12T18:28:50Z</time>
    </trkpt>
    <trkpt lat="38.530828021" lon="34.970485987">
      <ele>1563.029</ele>
      <time>2021-10-12T18:28:52Z</time>
    </trkpt>
    <trkpt lat="38.530860962" lon="34.970475007">
      <ele>1562.971</ele>
      <time>2021-10-12T18:28:53Z</time>
    </trkpt>
    <trkpt lat="38.53089097" lon="34.970461009">
      <ele>1562.929</ele>
      <time>2021-10-12T18:28:54Z</time>
    </trkpt>
    <trkpt lat="38.530922988" lon="34.970450029">
      <ele>1562.877</ele>
      <time>2021-10-12T18:28:55Z</time>
    </trkpt>
    <trkpt lat="38.530956013" lon="34.970437037">
      <ele>1562.812</ele>
      <time>2021-10-12T18:28:57Z</time>
    </trkpt>
    <trkpt lat="38.53098602" lon="34.970424967">
      <ele>1562.742</ele>
      <time>2021-10-12T18:28:58Z</time>
    </trkpt>
    <trkpt lat="38.531018961" lon="34.970411975">
      <ele>1562.655</ele>
      <time>2021-10-12T18:28:59Z</time>
    </trkpt>
    <trkpt lat="38.531051986" lon="34.970404012">
      <ele>1562.571</ele>
      <time>2021-10-12T18:29:00Z</time>
    </trkpt>
    <trkpt lat="38.531086016" lon="34.970400995">
      <ele>1562.494</ele>
      <time>2021-10-12T18:29:01Z</time>
    </trkpt>
    <trkpt lat="38.531119963" lon="34.970398983">
      <ele>1562.373</ele>
      <time>2021-10-12T18:29:03Z</time>
    </trkpt>
    <trkpt lat="38.531185007" lon="34.970386997">
      <ele>1561.861</ele>
      <time>2021-10-12T18:29:05Z</time>
    </trkpt>
    <trkpt lat="38.531219037" lon="34.970380962">
      <ele>1561.594</ele>
      <time>2021-10-12T18:29:06Z</time>
    </trkpt>
    <trkpt lat="38.531249966" lon="34.970376017">
      <ele>1561.354</ele>
      <time>2021-10-12T18:29:08Z</time>
    </trkpt>
    <trkpt lat="38.531283997" lon="34.970371993">
      <ele>1561.094</ele>
      <time>2021-10-12T18:29:09Z</time>
    </trkpt>
    <trkpt lat="38.53131501" lon="34.970361013">
      <ele>1560.832</ele>
      <time>2021-10-12T18:29:10Z</time>
    </trkpt>
    <trkpt lat="38.531349963" lon="34.970354978">
      <ele>1560.558</ele>
      <time>2021-10-12T18:29:11Z</time>
    </trkpt>
    <trkpt lat="38.531382987" lon="34.970348021">
      <ele>1560.295</ele>
      <time>2021-10-12T18:29:13Z</time>
    </trkpt>
    <trkpt lat="38.531414" lon="34.970338969">
      <ele>1560.11</ele>
      <time>2021-10-12T18:29:14Z</time>
    </trkpt>
    <trkpt lat="38.531446019" lon="34.970327988">
      <ele>1559.938</ele>
      <time>2021-10-12T18:29:15Z</time>
    </trkpt>
    <trkpt lat="38.531478038" lon="34.970322037">
      <ele>1559.787</ele>
      <time>2021-10-12T18:29:16Z</time>
    </trkpt>
    <trkpt lat="38.531509973" lon="34.970312985">
      <ele>1559.636</ele>
      <time>2021-10-12T18:29:17Z</time>
    </trkpt>
    <trkpt lat="38.531541992" lon="34.970302004">
      <ele>1559.488</ele>
      <time>2021-10-12T18:29:19Z</time>
    </trkpt>
    <trkpt lat="38.531573005" lon="34.97029203">
      <ele>1559.354</ele>
      <time>2021-10-12T18:29:20Z</time>
    </trkpt>
    <trkpt lat="38.53160603" lon="34.970281972">
      <ele>1559.222</ele>
      <time>2021-10-12T18:29:21Z</time>
    </trkpt>
    <trkpt lat="38.531641988" lon="34.970277026">
      <ele>1559.092</ele>
      <time>2021-10-12T18:29:22Z</time>
    </trkpt>
    <trkpt lat="38.531673001" lon="34.970264034">
      <ele>1559.049</ele>
      <time>2021-10-12T18:29:24Z</time>
    </trkpt>
    <trkpt lat="38.53170502" lon="34.970250037">
      <ele>1559.1</ele>
      <time>2021-10-12T18:29:25Z</time>
    </trkpt>
    <trkpt lat="38.531737039" lon="34.970237967">
      <ele>1559.143</ele>
      <time>2021-10-12T18:29:26Z</time>
    </trkpt>
    <trkpt lat="38.531768974" lon="34.970228998">
      <ele>1559.176</ele>
      <time>2021-10-12T18:29:27Z</time>
    </trkpt>
    <trkpt lat="38.531800993" lon="34.970218018">
      <ele>1559.215</ele>
      <time>2021-10-12T18:29:29Z</time>
    </trkpt>
    <trkpt lat="38.531829994" lon="34.970207959">
      <ele>1559.251</ele>
      <time>2021-10-12T18:29:30Z</time>
    </trkpt>
    <trkpt lat="38.531861007" lon="34.970197985">
      <ele>1559.287</ele>
      <time>2021-10-12T18:29:31Z</time>
    </trkpt>
    <trkpt lat="38.53189202" lon="34.97018801">
      <ele>1559.323</ele>
      <time>2021-10-12T18:29:32Z</time>
    </trkpt>
    <trkpt lat="38.531924961" lon="34.970176024">
      <ele>1559.366</ele>
      <time>2021-10-12T18:29:33Z</time>
    </trkpt>
    <trkpt lat="38.531958992" lon="34.970168984">
      <ele>1559.392</ele>
      <time>2021-10-12T18:29:35Z</time>
    </trkpt>
    <trkpt lat="38.532024035" lon="34.97015004">
      <ele>1559.46</ele>
      <time>2021-10-12T18:29:37Z</time>
    </trkpt>
    <trkpt lat="38.532056976" lon="34.970136965">
      <ele>1559.507</ele>
      <time>2021-10-12T18:29:38Z</time>
    </trkpt>
    <trkpt lat="38.532091007" lon="34.970125984">
      <ele>1559.546</ele>
      <time>2021-10-12T18:29:40Z</time>
    </trkpt>
    <trkpt lat="38.532125037" lon="34.970115004">
      <ele>1559.586</ele>
      <time>2021-10-12T18:29:41Z</time>
    </trkpt>
    <trkpt lat="38.532157978" lon="34.970100001">
      <ele>1559.64</ele>
      <time>2021-10-12T18:29:42Z</time>
    </trkpt>
    <trkpt lat="38.532189997" lon="34.970086003">
      <ele>1559.69</ele>
      <time>2021-10-12T18:29:43Z</time>
    </trkpt>
    <trkpt lat="38.532224027" lon="34.970069993">
      <ele>1559.742</ele>
      <time>2021-10-12T18:29:45Z</time>
    </trkpt>
    <trkpt lat="38.532253029" lon="34.970057001">
      <ele>1559.684</ele>
      <time>2021-10-12T18:29:46Z</time>
    </trkpt>
    <trkpt lat="38.53228597" lon="34.970047027">
      <ele>1559.601</ele>
      <time>2021-10-12T18:29:47Z</time>
    </trkpt>
    <trkpt lat="38.532317989" lon="34.970033029">
      <ele>1559.536</ele>
      <time>2021-10-12T18:29:48Z</time>
    </trkpt>
    <trkpt lat="38.53234699" lon="34.97001702">
      <ele>1559.49</ele>
      <time>2021-10-12T18:29:50Z</time>
    </trkpt>
    <trkpt lat="38.53238102" lon="34.970004028">
      <ele>1559.414</ele>
      <time>2021-10-12T18:29:51Z</time>
    </trkpt>
    <trkpt lat="38.532412034" lon="34.969988018">
      <ele>1559.36</ele>
      <time>2021-10-12T18:29:52Z</time>
    </trkpt>
    <trkpt lat="38.532444974" lon="34.969972009">
      <ele>1559.299</ele>
      <time>2021-10-12T18:29:53Z</time>
    </trkpt>
    <trkpt lat="38.532477999" lon="34.969955999">
      <ele>1559.238</ele>
      <time>2021-10-12T18:29:55Z</time>
    </trkpt>
    <trkpt lat="38.532509012" lon="34.969937978">
      <ele>1559.14</ele>
      <time>2021-10-12T18:29:56Z</time>
    </trkpt>
    <trkpt lat="38.532540025" lon="34.969919035">
      <ele>1558.943</ele>
      <time>2021-10-12T18:29:57Z</time>
    </trkpt>
    <trkpt lat="38.532568021" lon="34.969901014">
      <ele>1558.796</ele>
      <time>2021-10-12T18:29:58Z</time>
    </trkpt>
    <trkpt lat="38.532596016" lon="34.969883999">
      <ele>1558.669</ele>
      <time>2021-10-12T18:30:00Z</time>
    </trkpt>
    <trkpt lat="38.532626024" lon="34.969865978">
      <ele>1558.559</ele>
      <time>2021-10-12T18:30:01Z</time>
    </trkpt>
    <trkpt lat="38.532654019" lon="34.96984804">
      <ele>1558.49</ele>
      <time>2021-10-12T18:30:02Z</time>
    </trkpt>
    <trkpt lat="38.532685032" lon="34.969831025">
      <ele>1558.42</ele>
      <time>2021-10-12T18:30:03Z</time>
    </trkpt>
    <trkpt lat="38.532715039" lon="34.969813004">
      <ele>1558.393</ele>
      <time>2021-10-12T18:30:04Z</time>
    </trkpt>
    <trkpt lat="38.532744963" lon="34.969795989">
      <ele>1558.384</ele>
      <time>2021-10-12T18:30:06Z</time>
    </trkpt>
    <trkpt lat="38.532775976" lon="34.96977604">
      <ele>1558.428</ele>
      <time>2021-10-12T18:30:07Z</time>
    </trkpt>
    <trkpt lat="38.532805983" lon="34.969758019">
      <ele>1558.41</ele>
      <time>2021-10-12T18:30:08Z</time>
    </trkpt>
    <trkpt lat="38.532834984" lon="34.969741004">
      <ele>1558.385</ele>
      <time>2021-10-12T18:30:09Z</time>
    </trkpt>
    <trkpt lat="38.532863986" lon="34.969726">
      <ele>1558.339</ele>
      <time>2021-10-12T18:30:11Z</time>
    </trkpt>
    <trkpt lat="38.532893993" lon="34.969708985">
      <ele>1558.231</ele>
      <time>2021-10-12T18:30:12Z</time>
    </trkpt>
    <trkpt lat="38.532922994" lon="34.969691969">
      <ele>1558.12</ele>
      <time>2021-10-12T18:30:13Z</time>
    </trkpt>
    <trkpt lat="38.532948978" lon="34.969674032">
      <ele>1558.048</ele>
      <time>2021-10-12T18:30:14Z</time>
    </trkpt>
    <trkpt lat="38.53297404" lon="34.969655005">
      <ele>1558.0</ele>
      <time>2021-10-12T18:30:15Z</time>
    </trkpt>
    <trkpt lat="38.533003042" lon="34.969636984">
      <ele>1557.934</ele>
      <time>2021-10-12T18:30:16Z</time>
    </trkpt>
    <trkpt lat="38.533029025" lon="34.969618963">
      <ele>1557.899</ele>
      <time>2021-10-12T18:30:17Z</time>
    </trkpt>
    <trkpt lat="38.533056015" lon="34.969593985">
      <ele>1557.92</ele>
      <time>2021-10-12T18:30:19Z</time>
    </trkpt>
    <trkpt lat="38.533083005" lon="34.969575042">
      <ele>1557.856</ele>
      <time>2021-10-12T18:30:20Z</time>
    </trkpt>
    <trkpt lat="38.533111" lon="34.969554003">
      <ele>1557.77</ele>
      <time>2021-10-12T18:30:21Z</time>
    </trkpt>
    <trkpt lat="38.533140002" lon="34.969536988">
      <ele>1557.624</ele>
      <time>2021-10-12T18:30:22Z</time>
    </trkpt>
    <trkpt lat="38.533169003" lon="34.969515027">
      <ele>1557.474</ele>
      <time>2021-10-12T18:30:23Z</time>
    </trkpt>
    <trkpt lat="38.533193981" lon="34.96948896">
      <ele>1557.344</ele>
      <time>2021-10-12T18:30:25Z</time>
    </trkpt>
    <trkpt lat="38.533218959" lon="34.969464988">
      <ele>1557.174</ele>
      <time>2021-10-12T18:30:26Z</time>
    </trkpt>
    <trkpt lat="38.53324201" lon="34.969441015">
      <ele>1556.974</ele>
      <time>2021-10-12T18:30:27Z</time>
    </trkpt>
    <trkpt lat="38.53326397" lon="34.969420983">
      <ele>1556.665</ele>
      <time>2021-10-12T18:30:28Z</time>
    </trkpt>
    <trkpt lat="38.533289032" lon="34.969392987">
      <ele>1556.293</ele>
      <time>2021-10-12T18:30:29Z</time>
    </trkpt>
    <trkpt lat="38.533311998" lon="34.969367003">
      <ele>1555.952</ele>
      <time>2021-10-12T18:30:30Z</time>
    </trkpt>
    <trkpt lat="38.533333037" lon="34.969339008">
      <ele>1555.624</ele>
      <time>2021-10-12T18:30:31Z</time>
    </trkpt>
    <trkpt lat="38.533354998" lon="34.969313024">
      <ele>1555.33</ele>
      <time>2021-10-12T18:30:32Z</time>
    </trkpt>
    <trkpt lat="38.533377964" lon="34.96928704">
      <ele>1555.042</ele>
      <time>2021-10-12T18:30:34Z</time>
    </trkpt>
    <trkpt lat="38.533403026" lon="34.969261978">
      <ele>1554.755</ele>
      <time>2021-10-12T18:30:35Z</time>
    </trkpt>
    <trkpt lat="38.53342901" lon="34.969230965">
      <ele>1554.463</ele>
      <time>2021-10-12T18:30:36Z</time>
    </trkpt>
    <trkpt lat="38.533454994" lon="34.969200036">
      <ele>1554.192</ele>
      <time>2021-10-12T18:30:37Z</time>
    </trkpt>
    <trkpt lat="38.533480978" lon="34.969171034">
      <ele>1553.944</ele>
      <time>2021-10-12T18:30:39Z</time>
    </trkpt>
    <trkpt lat="38.533504028" lon="34.969143961">
      <ele>1553.721</ele>
      <time>2021-10-12T18:30:40Z</time>
    </trkpt>
    <trkpt lat="38.533528" lon="34.969116971">
      <ele>1553.473</ele>
      <time>2021-10-12T18:30:41Z</time>
    </trkpt>
    <trkpt lat="38.53355499" lon="34.96909501">
      <ele>1553.198</ele>
      <time>2021-10-12T18:30:42Z</time>
    </trkpt>
    <trkpt lat="38.533582985" lon="34.969068021">
      <ele>1552.883</ele>
      <time>2021-10-12T18:30:44Z</time>
    </trkpt>
    <trkpt lat="38.533609975" lon="34.969046982">
      <ele>1552.579</ele>
      <time>2021-10-12T18:30:45Z</time>
    </trkpt>
    <trkpt lat="38.533637971" lon="34.969024016">
      <ele>1552.296</ele>
      <time>2021-10-12T18:30:46Z</time>
    </trkpt>
    <trkpt lat="38.533667978" lon="34.969000965">
      <ele>1552.034</ele>
      <time>2021-10-12T18:30:47Z</time>
    </trkpt>
    <trkpt lat="38.533696979" lon="34.968980011">
      <ele>1551.816</ele>
      <time>2021-10-12T18:30:48Z</time>
    </trkpt>
    <trkpt lat="38.533725981" lon="34.968957966">
      <ele>1551.629</ele>
      <time>2021-10-12T18:30:50Z</time>
    </trkpt>
    <trkpt lat="38.533751965" lon="34.968938017">
      <ele>1551.49</ele>
      <time>2021-10-12T18:30:51Z</time>
    </trkpt>
    <trkpt lat="38.53377996" lon="34.968913039">
      <ele>1551.373</ele>
      <time>2021-10-12T18:30:52Z</time>
    </trkpt>
    <trkpt lat="38.533804016" lon="34.968886971">
      <ele>1551.306</ele>
      <time>2021-10-12T18:30:53Z</time>
    </trkpt>
    <trkpt lat="38.533827988" lon="34.968858976">
      <ele>1551.219</ele>
      <time>2021-10-12T18:30:54Z</time>
    </trkpt>
    <trkpt lat="38.533851961" lon="34.968828969">
      <ele>1551.133</ele>
      <time>2021-10-12T18:30:56Z</time>
    </trkpt>
    <trkpt lat="38.533874005" lon="34.968795022">
      <ele>1551.054</ele>
      <time>2021-10-12T18:30:57Z</time>
    </trkpt>
    <trkpt lat="38.533895966" lon="34.968755962">
      <ele>1550.962</ele>
      <time>2021-10-12T18:30:58Z</time>
    </trkpt>
    <trkpt lat="38.533914993" lon="34.968716986">
      <ele>1550.848</ele>
      <time>2021-10-12T18:31:00Z</time>
    </trkpt>
    <trkpt lat="38.533932008" lon="34.968679016">
      <ele>1550.727</ele>
      <time>2021-10-12T18:31:01Z</time>
    </trkpt>
    <trkpt lat="38.533948017" lon="34.968641968">
      <ele>1550.598</ele>
      <time>2021-10-12T18:31:02Z</time>
    </trkpt>
    <trkpt lat="38.533961009" lon="34.968607016">
      <ele>1550.455</ele>
      <time>2021-10-12T18:31:03Z</time>
    </trkpt>
    <trkpt lat="38.533974001" lon="34.96857198">
      <ele>1550.149</ele>
      <time>2021-10-12T18:31:04Z</time>
    </trkpt>
    <trkpt lat="38.533986993" lon="34.968537027">
      <ele>1549.854</ele>
      <time>2021-10-12T18:31:06Z</time>
    </trkpt>
    <trkpt lat="38.534017" lon="34.968466032">
      <ele>1549.274</ele>
      <time>2021-10-12T18:31:08Z</time>
    </trkpt>
    <trkpt lat="38.534036027" lon="34.96842999">
      <ele>1548.982</ele>
      <time>2021-10-12T18:31:09Z</time>
    </trkpt>
    <trkpt lat="38.534056982" lon="34.96839596">
      <ele>1548.709</ele>
      <time>2021-10-12T18:31:10Z</time>
    </trkpt>
    <trkpt lat="38.53408196" lon="34.968366036">
      <ele>1548.459</ele>
      <time>2021-10-12T18:31:12Z</time>
    </trkpt>
    <trkpt lat="38.534108028" lon="34.968339968">
      <ele>1548.24</ele>
      <time>2021-10-12T18:31:13Z</time>
    </trkpt>
    <trkpt lat="38.534134012" lon="34.968313985">
      <ele>1547.97</ele>
      <time>2021-10-12T18:31:14Z</time>
    </trkpt>
    <trkpt lat="38.534161001" lon="34.968288001">
      <ele>1547.691</ele>
      <time>2021-10-12T18:31:15Z</time>
    </trkpt>
    <trkpt lat="38.534186985" lon="34.968264028">
      <ele>1547.446</ele>
      <time>2021-10-12T18:31:17Z</time>
    </trkpt>
    <trkpt lat="38.534217998" lon="34.96824299">
      <ele>1547.225</ele>
      <time>2021-10-12T18:31:18Z</time>
    </trkpt>
    <trkpt lat="38.534248006" lon="34.96822698">
      <ele>1547.054</ele>
      <time>2021-10-12T18:31:19Z</time>
    </trkpt>
    <trkpt lat="38.534278013" lon="34.968204014">
      <ele>1546.855</ele>
      <time>2021-10-12T18:31:20Z</time>
    </trkpt>
    <trkpt lat="38.534306008" lon="34.968190016">
      <ele>1546.725</ele>
      <time>2021-10-12T18:31:22Z</time>
    </trkpt>
    <trkpt lat="38.53433501" lon="34.968176018">
      <ele>1546.605</ele>
      <time>2021-10-12T18:31:23Z</time>
    </trkpt>
    <trkpt lat="38.534363005" lon="34.968163026">
      <ele>1546.5</ele>
      <time>2021-10-12T18:31:24Z</time>
    </trkpt>
    <trkpt lat="38.534389995" lon="34.968149029">
      <ele>1546.402</ele>
      <time>2021-10-12T18:31:25Z</time>
    </trkpt>
    <trkpt lat="38.534416985" lon="34.968135031">
      <ele>1546.314</ele>
      <time>2021-10-12T18:31:26Z</time>
    </trkpt>
    <trkpt lat="38.534445986" lon="34.968121033">
      <ele>1546.241</ele>
      <time>2021-10-12T18:31:27Z</time>
    </trkpt>
    <trkpt lat="38.534476999" lon="34.968103012">
      <ele>1546.288</ele>
      <time>2021-10-12T18:31:28Z</time>
    </trkpt>
    <trkpt lat="38.534508012" lon="34.968089014">
      <ele>1546.349</ele>
      <time>2021-10-12T18:31:30Z</time>
    </trkpt>
    <trkpt lat="38.534538019" lon="34.968069987">
      <ele>1546.389</ele>
      <time>2021-10-12T18:31:31Z</time>
    </trkpt>
    <trkpt lat="38.534561992" lon="34.968056995">
      <ele>1546.428</ele>
      <time>2021-10-12T18:31:32Z</time>
    </trkpt>
    <trkpt lat="38.534591999" lon="34.96803998">
      <ele>1546.472</ele>
      <time>2021-10-12T18:31:33Z</time>
    </trkpt>
    <trkpt lat="38.534617983" lon="34.968025982">
      <ele>1546.492</ele>
      <time>2021-10-12T18:31:34Z</time>
    </trkpt>
    <trkpt lat="38.534645978" lon="34.968016008">
      <ele>1546.519</ele>
      <time>2021-10-12T18:31:35Z</time>
    </trkpt>
    <trkpt lat="38.534676991" lon="34.967999998">
      <ele>1546.502</ele>
      <time>2021-10-12T18:31:36Z</time>
    </trkpt>
    <trkpt lat="38.534730971" lon="34.967964962">
      <ele>1546.379</ele>
      <time>2021-10-12T18:31:39Z</time>
    </trkpt>
    <trkpt lat="38.534757961" lon="34.967947025">
      <ele>1546.347</ele>
      <time>2021-10-12T18:31:40Z</time>
    </trkpt>
    <trkpt lat="38.534784028" lon="34.96793001">
      <ele>1546.319</ele>
      <time>2021-10-12T18:31:41Z</time>
    </trkpt>
    <trkpt lat="38.53481303" lon="34.967905032">
      <ele>1546.243</ele>
      <time>2021-10-12T18:31:42Z</time>
    </trkpt>
    <trkpt lat="38.534837002" lon="34.967884999">
      <ele>1546.185</ele>
      <time>2021-10-12T18:31:43Z</time>
    </trkpt>
    <trkpt lat="38.534862986" lon="34.967866978">
      <ele>1546.149</ele>
      <time>2021-10-12T18:31:44Z</time>
    </trkpt>
    <trkpt lat="38.534890981" lon="34.967846023">
      <ele>1546.099</ele>
      <time>2021-10-12T18:31:45Z</time>
    </trkpt>
    <trkpt lat="38.534914032" lon="34.967824984">
      <ele>1546.03</ele>
      <time>2021-10-12T18:31:47Z</time>
    </trkpt>
    <trkpt lat="38.534936998" lon="34.967806963">
      <ele>1545.983</ele>
      <time>2021-10-12T18:31:48Z</time>
    </trkpt>
    <trkpt lat="38.534962982" lon="34.967781985">
      <ele>1545.897</ele>
      <time>2021-10-12T18:31:49Z</time>
    </trkpt>
    <trkpt lat="38.534987038" lon="34.96776103">
      <ele>1545.896</ele>
      <time>2021-10-12T18:31:50Z</time>
    </trkpt>
    <trkpt lat="38.535015034" lon="34.967735969">
      <ele>1545.904</ele>
      <time>2021-10-12T18:31:51Z</time>
    </trkpt>
    <trkpt lat="38.535039006" lon="34.96771602">
      <ele>1545.918</ele>
      <time>2021-10-12T18:31:52Z</time>
    </trkpt>
    <trkpt lat="38.535063984" lon="34.967693975">
      <ele>1545.929</ele>
      <time>2021-10-12T18:31:53Z</time>
    </trkpt>
    <trkpt lat="38.53508804" lon="34.967670003">
      <ele>1545.929</ele>
      <time>2021-10-12T18:31:54Z</time>
    </trkpt>
    <trkpt lat="38.535112012" lon="34.967644019">
      <ele>1545.922</ele>
      <time>2021-10-12T18:31:56Z</time>
    </trkpt>
    <trkpt lat="38.53513699" lon="34.967616023">
      <ele>1545.911</ele>
      <time>2021-10-12T18:31:57Z</time>
    </trkpt>
    <trkpt lat="38.53516004" lon="34.967589034">
      <ele>1545.897</ele>
      <time>2021-10-12T18:31:58Z</time>
    </trkpt>
    <trkpt lat="38.535185019" lon="34.967565984">
      <ele>1545.904</ele>
      <time>2021-10-12T18:31:59Z</time>
    </trkpt>
    <trkpt lat="38.535209997" lon="34.96754">
      <ele>1545.9</ele>
      <time>2021-10-12T18:32:00Z</time>
    </trkpt>
    <trkpt lat="38.535234975" lon="34.967515022">
      <ele>1545.9</ele>
      <time>2021-10-12T18:32:01Z</time>
    </trkpt>
    <trkpt lat="38.535260037" lon="34.967494989">
      <ele>1545.936</ele>
      <time>2021-10-12T18:32:03Z</time>
    </trkpt>
    <trkpt lat="38.535285015" lon="34.96747504">
      <ele>1546.052</ele>
      <time>2021-10-12T18:32:04Z</time>
    </trkpt>
    <trkpt lat="38.535307981" lon="34.967455007">
      <ele>1546.217</ele>
      <time>2021-10-12T18:32:05Z</time>
    </trkpt>
    <trkpt lat="38.535331031" lon="34.967432041">
      <ele>1546.383</ele>
      <time>2021-10-12T18:32:06Z</time>
    </trkpt>
    <trkpt lat="38.535352992" lon="34.96740899">
      <ele>1546.542</ele>
      <time>2021-10-12T18:32:07Z</time>
    </trkpt>
    <trkpt lat="38.535376964" lon="34.967384012">
      <ele>1546.714</ele>
      <time>2021-10-12T18:32:08Z</time>
    </trkpt>
    <trkpt lat="38.535404038" lon="34.967361968">
      <ele>1546.909</ele>
      <time>2021-10-12T18:32:09Z</time>
    </trkpt>
    <trkpt lat="38.535430022" lon="34.967340007">
      <ele>1547.096</ele>
      <time>2021-10-12T18:32:10Z</time>
    </trkpt>
    <trkpt lat="38.535456005" lon="34.967315029">
      <ele>1547.283</ele>
      <time>2021-10-12T18:32:11Z</time>
    </trkpt>
    <trkpt lat="38.535480984" lon="34.967291979">
      <ele>1547.463</ele>
      <time>2021-10-12T18:32:13Z</time>
    </trkpt>
    <trkpt lat="38.535504034" lon="34.967265995">
      <ele>1547.629</ele>
      <time>2021-10-12T18:32:14Z</time>
    </trkpt>
    <trkpt lat="38.535528006" lon="34.967239005">
      <ele>1547.802</ele>
      <time>2021-10-12T18:32:15Z</time>
    </trkpt>
    <trkpt lat="38.535550972" lon="34.96721101">
      <ele>1547.927</ele>
      <time>2021-10-12T18:32:16Z</time>
    </trkpt>
    <trkpt lat="38.535573017" lon="34.96718402">
      <ele>1547.925</ele>
      <time>2021-10-12T18:32:17Z</time>
    </trkpt>
    <trkpt lat="38.535593972" lon="34.967158036">
      <ele>1547.907</ele>
      <time>2021-10-12T18:32:18Z</time>
    </trkpt>
    <trkpt lat="38.535617022" lon="34.967131969">
      <ele>1547.896</ele>
      <time>2021-10-12T18:32:19Z</time>
    </trkpt>
    <trkpt lat="38.535638982" lon="34.967102967">
      <ele>1547.871</ele>
      <time>2021-10-12T18:32:21Z</time>
    </trkpt>
    <trkpt lat="38.535662033" lon="34.967072038">
      <ele>1547.843</ele>
      <time>2021-10-12T18:32:22Z</time>
    </trkpt>
    <trkpt lat="38.535680976" lon="34.967043037">
      <ele>1547.806</ele>
      <time>2021-10-12T18:32:23Z</time>
    </trkpt>
    <trkpt lat="38.535700003" lon="34.967010012">
      <ele>1547.756</ele>
      <time>2021-10-12T18:32:24Z</time>
    </trkpt>
    <trkpt lat="38.535721041" lon="34.966977993">
      <ele>1547.717</ele>
      <time>2021-10-12T18:32:25Z</time>
    </trkpt>
    <trkpt lat="38.535739984" lon="34.966943962">
      <ele>1547.66</ele>
      <time>2021-10-12T18:32:27Z</time>
    </trkpt>
    <trkpt lat="38.535781978" lon="34.966877997">
      <ele>1547.337</ele>
      <time>2021-10-12T18:32:29Z</time>
    </trkpt>
    <trkpt lat="38.535803016" lon="34.966844972">
      <ele>1547.175</ele>
      <time>2021-10-12T18:32:30Z</time>
    </trkpt>
    <trkpt lat="38.535821037" lon="34.966813037">
      <ele>1547.01</ele>
      <time>2021-10-12T18:32:31Z</time>
    </trkpt>
    <trkpt lat="38.53583998" lon="34.966780012">
      <ele>1546.816</ele>
      <time>2021-10-12T18:32:33Z</time>
    </trkpt>
    <trkpt lat="38.535858002" lon="34.966747994">
      <ele>1546.586</ele>
      <time>2021-10-12T18:32:34Z</time>
    </trkpt>
    <trkpt lat="38.535875017" lon="34.966715975">
      <ele>1546.355</ele>
      <time>2021-10-12T18:32:35Z</time>
    </trkpt>
    <trkpt lat="38.535895972" lon="34.966683034">
      <ele>1546.118</ele>
      <time>2021-10-12T18:32:36Z</time>
    </trkpt>
    <trkpt lat="38.535914999" lon="34.966651015">
      <ele>1545.887</ele>
      <time>2021-10-12T18:32:37Z</time>
    </trkpt>
    <trkpt lat="38.535935031" lon="34.966621008">
      <ele>1545.671</ele>
      <time>2021-10-12T18:32:38Z</time>
    </trkpt>
    <trkpt lat="38.535956992" lon="34.966589995">
      <ele>1545.448</ele>
      <time>2021-10-12T18:32:40Z</time>
    </trkpt>
    <trkpt lat="38.53597803" lon="34.966554958">
      <ele>1545.196</ele>
      <time>2021-10-12T18:32:41Z</time>
    </trkpt>
    <trkpt lat="38.535997979" lon="34.966515983">
      <ele>1544.915</ele>
      <time>2021-10-12T18:32:42Z</time>
    </trkpt>
    <trkpt lat="38.536014995" lon="34.966478013">
      <ele>1544.642</ele>
      <time>2021-10-12T18:32:44Z</time>
    </trkpt>
    <trkpt lat="38.536031004" lon="34.966442976">
      <ele>1544.389</ele>
      <time>2021-10-12T18:32:45Z</time>
    </trkpt>
    <trkpt lat="38.536048019" lon="34.966402994">
      <ele>1544.102</ele>
      <time>2021-10-12T18:32:46Z</time>
    </trkpt>
    <trkpt lat="38.536061011" lon="34.966365024">
      <ele>1543.813</ele>
      <time>2021-10-12T18:32:47Z</time>
    </trkpt>
    <trkpt lat="38.536070986" lon="34.966330994">
      <ele>1543.553</ele>
      <time>2021-10-12T18:32:48Z</time>
    </trkpt>
    <trkpt lat="38.536076015" lon="34.966297969">
      <ele>1543.304</ele>
      <time>2021-10-12T18:32:49Z</time>
    </trkpt>
    <trkpt lat="38.536085989" lon="34.966258993">
      <ele>1543.022</ele>
      <time>2021-10-12T18:32:51Z</time>
    </trkpt>
    <trkpt lat="38.536092024" lon="34.966223035">
      <ele>1542.765</ele>
      <time>2021-10-12T18:32:52Z</time>
    </trkpt>
    <trkpt lat="38.536098981" lon="34.966183975">
      <ele>1542.492</ele>
      <time>2021-10-12T18:32:53Z</time>
    </trkpt>
    <trkpt lat="38.536105016" lon="34.966143994">
      <ele>1542.217</ele>
      <time>2021-10-12T18:32:54Z</time>
    </trkpt>
    <trkpt lat="38.536108034" lon="34.966104012">
      <ele>1541.963</ele>
      <time>2021-10-12T18:32:55Z</time>
    </trkpt>
    <trkpt lat="38.536114991" lon="34.966065036">
      <ele>1541.85</ele>
      <time>2021-10-12T18:32:56Z</time>
    </trkpt>
    <trkpt lat="38.536122032" lon="34.966027988">
      <ele>1541.752</ele>
      <time>2021-10-12T18:32:57Z</time>
    </trkpt>
    <trkpt lat="38.536135023" lon="34.96599203">
      <ele>1541.694</ele>
      <time>2021-10-12T18:32:59Z</time>
    </trkpt>
    <trkpt lat="38.536151033" lon="34.965957999">
      <ele>1541.672</ele>
      <time>2021-10-12T18:33:00Z</time>
    </trkpt>
    <trkpt lat="38.536171988" lon="34.96593101">
      <ele>1541.713</ele>
      <time>2021-10-12T18:33:01Z</time>
    </trkpt>
    <trkpt lat="38.536197972" lon="34.965907037">
      <ele>1541.808</ele>
      <time>2021-10-12T18:33:02Z</time>
    </trkpt>
    <trkpt lat="38.536225967" lon="34.965891028">
      <ele>1541.949</ele>
      <time>2021-10-12T18:33:03Z</time>
    </trkpt>
    <trkpt lat="38.536254968" lon="34.965876024">
      <ele>1542.11</ele>
      <time>2021-10-12T18:33:04Z</time>
    </trkpt>
    <trkpt lat="38.53628397" lon="34.965859009">
      <ele>1542.279</ele>
      <time>2021-10-12T18:33:05Z</time>
    </trkpt>
    <trkpt lat="38.536312971" lon="34.965847023">
      <ele>1542.467</ele>
      <time>2021-10-12T18:33:07Z</time>
    </trkpt>
    <trkpt lat="38.536347002" lon="34.965840988">
      <ele>1542.703</ele>
      <time>2021-10-12T18:33:08Z</time>
    </trkpt>
    <trkpt lat="38.536379021" lon="34.965835037">
      <ele>1542.929</ele>
      <time>2021-10-12T18:33:09Z</time>
    </trkpt>
    <trkpt lat="38.536411962" lon="34.965831013">
      <ele>1543.082</ele>
      <time>2021-10-12T18:33:10Z</time>
    </trkpt>
    <trkpt lat="38.536444986" lon="34.965827996">
      <ele>1543.198</ele>
      <time>2021-10-12T18:33:11Z</time>
    </trkpt>
    <trkpt lat="38.536475999" lon="34.965822967">
      <ele>1543.302</ele>
      <time>2021-10-12T18:33:13Z</time>
    </trkpt>
    <trkpt lat="38.536508018" lon="34.965817016">
      <ele>1543.404</ele>
      <time>2021-10-12T18:33:14Z</time>
    </trkpt>
    <trkpt lat="38.536539031" lon="34.965810981">
      <ele>1543.497</ele>
      <time>2021-10-12T18:33:15Z</time>
    </trkpt>
    <trkpt lat="38.536567027" lon="34.965807963">
      <ele>1543.583</ele>
      <time>2021-10-12T18:33:16Z</time>
    </trkpt>
    <trkpt lat="38.536595022" lon="34.965804024">
      <ele>1543.664</ele>
      <time>2021-10-12T18:33:17Z</time>
    </trkpt>
    <trkpt lat="38.536624024" lon="34.965796983">
      <ele>1543.736</ele>
      <time>2021-10-12T18:33:18Z</time>
    </trkpt>
    <trkpt lat="38.536654031" lon="34.965790026">
      <ele>1543.806</ele>
      <time>2021-10-12T18:33:19Z</time>
    </trkpt>
    <trkpt lat="38.536683032" lon="34.965781979">
      <ele>1543.863</ele>
      <time>2021-10-12T18:33:20Z</time>
    </trkpt>
    <trkpt lat="38.53671304" lon="34.96577804">
      <ele>1543.935</ele>
      <time>2021-10-12T18:33:22Z</time>
    </trkpt>
    <trkpt lat="38.536742041" lon="34.965774016">
      <ele>1544.0</ele>
      <time>2021-10-12T18:33:23Z</time>
    </trkpt>
    <trkpt lat="38.536771964" lon="34.965763036">
      <ele>1544.03</ele>
      <time>2021-10-12T18:33:24Z</time>
    </trkpt>
    <trkpt lat="38.536800966" lon="34.965750966">
      <ele>1544.044</ele>
      <time>2021-10-12T18:33:25Z</time>
    </trkpt>
    <trkpt lat="38.536827033" lon="34.965740992">
      <ele>1544.053</ele>
      <time>2021-10-12T18:33:26Z</time>
    </trkpt>
    <trkpt lat="38.536855029" lon="34.965723976">
      <ele>1544.017</ele>
      <time>2021-10-12T18:33:27Z</time>
    </trkpt>
    <trkpt lat="38.53687699" lon="34.965703022">
      <ele>1543.933</ele>
      <time>2021-10-12T18:33:28Z</time>
    </trkpt>
    <trkpt lat="38.536902973" lon="34.965685001">
      <ele>1543.862</ele>
      <time>2021-10-12T18:33:29Z</time>
    </trkpt>
    <trkpt lat="38.536928035" lon="34.965667985">
      <ele>1543.786</ele>
      <time>2021-10-12T18:33:30Z</time>
    </trkpt>
    <trkpt lat="38.536953013" lon="34.96565097">
      <ele>1543.646</ele>
      <time>2021-10-12T18:33:31Z</time>
    </trkpt>
    <trkpt lat="38.536977991" lon="34.965631021">
      <ele>1543.39</ele>
      <time>2021-10-12T18:33:32Z</time>
    </trkpt>
    <trkpt lat="38.537001964" lon="34.965613">
      <ele>1543.164</ele>
      <time>2021-10-12T18:33:33Z</time>
    </trkpt>
    <trkpt lat="38.537030965" lon="34.965593973">
      <ele>1542.922</ele>
      <time>2021-10-12T18:33:35Z</time>
    </trkpt>
    <trkpt lat="38.537059966" lon="34.965574024">
      <ele>1542.689</ele>
      <time>2021-10-12T18:33:36Z</time>
    </trkpt>
    <trkpt lat="38.537088968" lon="34.965558015">
      <ele>1542.493</ele>
      <time>2021-10-12T18:33:37Z</time>
    </trkpt>
    <trkpt lat="38.537117969" lon="34.965544017">
      <ele>1542.344</ele>
      <time>2021-10-12T18:33:38Z</time>
    </trkpt>
    <trkpt lat="38.537149988" lon="34.96553597">
      <ele>1542.223</ele>
      <time>2021-10-12T18:33:39Z</time>
    </trkpt>
    <trkpt lat="38.537179995" lon="34.965529013">
      <ele>1542.123</ele>
      <time>2021-10-12T18:33:40Z</time>
    </trkpt>
    <trkpt lat="38.537212014" lon="34.965519039">
      <ele>1542.027</ele>
      <time>2021-10-12T18:33:42Z</time>
    </trkpt>
    <trkpt lat="38.537247973" lon="34.965510992">
      <ele>1541.907</ele>
      <time>2021-10-12T18:33:43Z</time>
    </trkpt>
    <trkpt lat="38.537279991" lon="34.965501018">
      <ele>1541.792</ele>
      <time>2021-10-12T18:33:44Z</time>
    </trkpt>
    <trkpt lat="38.537315028" lon="34.965494983">
      <ele>1541.666</ele>
      <time>2021-10-12T18:33:46Z</time>
    </trkpt>
    <trkpt lat="38.537350986" lon="34.965494983">
      <ele>1541.536</ele>
      <time>2021-10-12T18:33:47Z</time>
    </trkpt>
    <trkpt lat="38.53738904" lon="34.965505041">
      <ele>1541.399</ele>
      <time>2021-10-12T18:33:48Z</time>
    </trkpt>
    <trkpt lat="38.53742701" lon="34.965516021">
      <ele>1541.263</ele>
      <time>2021-10-12T18:33:50Z</time>
    </trkpt>
    <trkpt lat="38.537461963" lon="34.965525996">
      <ele>1541.137</ele>
      <time>2021-10-12T18:33:51Z</time>
    </trkpt>
    <trkpt lat="38.537499011" lon="34.965541">
      <ele>1541.004</ele>
      <time>2021-10-12T18:33:53Z</time>
    </trkpt>
    <trkpt lat="38.537534969" lon="34.965552986">
      <ele>1540.5</ele>
      <time>2021-10-12T18:33:54Z</time>
    </trkpt>
    <trkpt lat="38.537567994" lon="34.965567989">
      <ele>1540.032</ele>
      <time>2021-10-12T18:33:55Z</time>
    </trkpt>
    <trkpt lat="38.537601018" lon="34.965582993">
      <ele>1539.581</ele>
      <time>2021-10-12T18:33:56Z</time>
    </trkpt>
    <trkpt lat="38.53763002" lon="34.965595985">
      <ele>1539.196</ele>
      <time>2021-10-12T18:33:58Z</time>
    </trkpt>
    <trkpt lat="38.537662039" lon="34.965604031">
      <ele>1538.768</ele>
      <time>2021-10-12T18:33:59Z</time>
    </trkpt>
    <trkpt lat="38.537691962" lon="34.965618029">
      <ele>1538.391</ele>
      <time>2021-10-12T18:34:00Z</time>
    </trkpt>
    <trkpt lat="38.537756" lon="34.965637978">
      <ele>1537.587</ele>
      <time>2021-10-12T18:34:02Z</time>
    </trkpt>
    <trkpt lat="38.537792042" lon="34.965647031">
      <ele>1537.21</ele>
      <time>2021-10-12T18:34:04Z</time>
    </trkpt>
    <trkpt lat="38.537821965" lon="34.96565097">
      <ele>1536.971</ele>
      <time>2021-10-12T18:34:05Z</time>
    </trkpt>
    <trkpt lat="38.537852978" lon="34.965658011">
      <ele>1536.728</ele>
      <time>2021-10-12T18:34:06Z</time>
    </trkpt>
    <trkpt lat="38.537883991" lon="34.965663962">
      <ele>1536.476</ele>
      <time>2021-10-12T18:34:07Z</time>
    </trkpt>
    <trkpt lat="38.537917016" lon="34.965676032">
      <ele>1536.214</ele>
      <time>2021-10-12T18:34:09Z</time>
    </trkpt>
    <trkpt lat="38.537950041" lon="34.965687012">
      <ele>1535.939</ele>
      <time>2021-10-12T18:34:10Z</time>
    </trkpt>
    <trkpt lat="38.53798097" lon="34.965694975">
      <ele>1535.672</ele>
      <time>2021-10-12T18:34:11Z</time>
    </trkpt>
    <trkpt lat="38.538013995" lon="34.965707967">
      <ele>1535.381</ele>
      <time>2021-10-12T18:34:12Z</time>
    </trkpt>
    <trkpt lat="38.538048025" lon="34.965718025">
      <ele>1535.07</ele>
      <time>2021-10-12T18:34:14Z</time>
    </trkpt>
    <trkpt lat="38.538079038" lon="34.965730011">
      <ele>1534.672</ele>
      <time>2021-10-12T18:34:15Z</time>
    </trkpt>
    <trkpt lat="38.538113991" lon="34.965744009">
      <ele>1534.151</ele>
      <time>2021-10-12T18:34:16Z</time>
    </trkpt>
    <trkpt lat="38.538149027" lon="34.965755995">
      <ele>1533.599</ele>
      <time>2021-10-12T18:34:17Z</time>
    </trkpt>
    <trkpt lat="38.538180962" lon="34.96576597">
      <ele>1533.071</ele>
      <time>2021-10-12T18:34:19Z</time>
    </trkpt>
    <trkpt lat="38.538213987" lon="34.96577804">
      <ele>1532.489</ele>
      <time>2021-10-12T18:34:20Z</time>
    </trkpt>
    <trkpt lat="38.538247012" lon="34.965790026">
      <ele>1531.876</ele>
      <time>2021-10-12T18:34:21Z</time>
    </trkpt>
    <trkpt lat="38.538280036" lon="34.965798995">
      <ele>1531.259</ele>
      <time>2021-10-12T18:34:22Z</time>
    </trkpt>
    <trkpt lat="38.538315995" lon="34.965810981">
      <ele>1530.538</ele>
      <time>2021-10-12T18:34:24Z</time>
    </trkpt>
    <trkpt lat="38.538349019" lon="34.965821961">
      <ele>1529.963</ele>
      <time>2021-10-12T18:34:25Z</time>
    </trkpt>
    <trkpt lat="38.538380032" lon="34.965833025">
      <ele>1529.5</ele>
      <time>2021-10-12T18:34:26Z</time>
    </trkpt>
    <trkpt lat="38.538416997" lon="34.965844005">
      <ele>1529.054</ele>
      <time>2021-10-12T18:34:28Z</time>
    </trkpt>
    <trkpt lat="38.53844801" lon="34.96585398">
      <ele>1528.621</ele>
      <time>2021-10-12T18:34:29Z</time>
    </trkpt>
    <trkpt lat="38.538479023" lon="34.965867978">
      <ele>1528.093</ele>
      <time>2021-10-12T18:34:30Z</time>
    </trkpt>
    <trkpt lat="38.538506012" lon="34.965879964">
      <ele>1527.572</ele>
      <time>2021-10-12T18:34:31Z</time>
    </trkpt>
    <trkpt lat="38.53853602" lon="34.965895973">
      <ele>1526.885</ele>
      <time>2021-10-12T18:34:32Z</time>
    </trkpt>
    <trkpt lat="38.538566027" lon="34.965917012">
      <ele>1526.022</ele>
      <time>2021-10-12T18:34:34Z</time>
    </trkpt>
    <trkpt lat="38.538598968" lon="34.965934027">
      <ele>1525.067</ele>
      <time>2021-10-12T18:34:35Z</time>
    </trkpt>
    <trkpt lat="38.538634004" lon="34.965954982">
      <ele>1524.3</ele>
      <time>2021-10-12T18:34:36Z</time>
    </trkpt>
    <trkpt lat="38.538668035" lon="34.96597602">
      <ele>1523.707</ele>
      <time>2021-10-12T18:34:38Z</time>
    </trkpt>
    <trkpt lat="38.538700975" lon="34.965994041">
      <ele>1523.154</ele>
      <time>2021-10-12T18:34:39Z</time>
    </trkpt>
    <trkpt lat="38.538730983" lon="34.966008961">
      <ele>1522.661</ele>
      <time>2021-10-12T18:34:40Z</time>
    </trkpt>
    <trkpt lat="38.538763002" lon="34.966022037">
      <ele>1522.181</ele>
      <time>2021-10-12T18:34:41Z</time>
    </trkpt>
    <trkpt lat="38.538794015" lon="34.96604098">
      <ele>1521.53</ele>
      <time>2021-10-12T18:34:43Z</time>
    </trkpt>
    <trkpt lat="38.538825028" lon="34.966057995">
      <ele>1520.902</ele>
      <time>2021-10-12T18:34:44Z</time>
    </trkpt>
    <trkpt lat="38.538854029" lon="34.966069981">
      <ele>1520.398</ele>
      <time>2021-10-12T18:34:45Z</time>
    </trkpt>
    <trkpt lat="38.53888303" lon="34.966083979">
      <ele>1519.819</ele>
      <time>2021-10-12T18:34:46Z</time>
    </trkpt>
    <trkpt lat="38.538913038" lon="34.966097977">
      <ele>1519.304</ele>
      <time>2021-10-12T18:34:47Z</time>
    </trkpt>
    <trkpt lat="38.538946984" lon="34.966113986">
      <ele>1518.73</ele>
      <time>2021-10-12T18:34:49Z</time>
    </trkpt>
    <trkpt lat="38.538975986" lon="34.966124967">
      <ele>1518.374</ele>
      <time>2021-10-12T18:34:50Z</time>
    </trkpt>
    <trkpt lat="38.539004987" lon="34.966134019">
      <ele>1518.032</ele>
      <time>2021-10-12T18:34:51Z</time>
    </trkpt>
    <trkpt lat="38.539037006" lon="34.966147011">
      <ele>1517.545</ele>
      <time>2021-10-12T18:34:52Z</time>
    </trkpt>
    <trkpt lat="38.539068019" lon="34.96615598">
      <ele>1517.131</ele>
      <time>2021-10-12T18:34:53Z</time>
    </trkpt>
    <trkpt lat="38.539100038" lon="34.966164026">
      <ele>1516.708</ele>
      <time>2021-10-12T18:34:55Z</time>
    </trkpt>
    <trkpt lat="38.539129039" lon="34.966172995">
      <ele>1516.251</ele>
      <time>2021-10-12T18:34:56Z</time>
    </trkpt>
    <trkpt lat="38.53916198" lon="34.966186993">
      <ele>1515.577</ele>
      <time>2021-10-12T18:34:57Z</time>
    </trkpt>
    <trkpt lat="38.539196011" lon="34.966200991">
      <ele>1515.268</ele>
      <time>2021-10-12T18:34:58Z</time>
    </trkpt>
    <trkpt lat="38.53922803" lon="34.966217">
      <ele>1514.895</ele>
      <time>2021-10-12T18:35:00Z</time>
    </trkpt>
    <trkpt lat="38.539258959" lon="34.966234015">
      <ele>1514.427</ele>
      <time>2021-10-12T18:35:01Z</time>
    </trkpt>
    <trkpt lat="38.539359039" lon="34.966281038">
      <ele>1512.877</ele>
      <time>2021-10-12T18:35:05Z</time>
    </trkpt>
    <trkpt lat="38.539389968" lon="34.966292018">
      <ele>1512.456</ele>
      <time>2021-10-12T18:35:06Z</time>
    </trkpt>
    <trkpt lat="38.539419975" lon="34.966301993">
      <ele>1512.045</ele>
      <time>2021-10-12T18:35:07Z</time>
    </trkpt>
    <trkpt lat="38.539454006" lon="34.966311967">
      <ele>1511.609</ele>
      <time>2021-10-12T18:35:08Z</time>
    </trkpt>
    <trkpt lat="38.539486025" lon="34.966324959">
      <ele>1511.026</ele>
      <time>2021-10-12T18:35:10Z</time>
    </trkpt>
    <trkpt lat="38.539550984" lon="34.96634298">
      <ele>1510.212</ele>
      <time>2021-10-12T18:35:12Z</time>
    </trkpt>
    <trkpt lat="38.539583003" lon="34.966336023">
      <ele>1510.569</ele>
      <time>2021-10-12T18:35:13Z</time>
    </trkpt>
    <trkpt lat="38.539617034" lon="34.966338035">
      <ele>1510.494</ele>
      <time>2021-10-12T18:35:15Z</time>
    </trkpt>
    <trkpt lat="38.539648969" lon="34.966345998">
      <ele>1510.121</ele>
      <time>2021-10-12T18:35:16Z</time>
    </trkpt>
    <trkpt lat="38.539680988" lon="34.966350021">
      <ele>1509.938</ele>
      <time>2021-10-12T18:35:17Z</time>
    </trkpt>
    <trkpt lat="38.539719041" lon="34.966352032">
      <ele>1509.856</ele>
      <time>2021-10-12T18:35:18Z</time>
    </trkpt>
    <trkpt lat="38.539752988" lon="34.966353038">
      <ele>1509.6</ele>
      <time>2021-10-12T18:35:20Z</time>
    </trkpt>
    <trkpt lat="38.539787019" lon="34.966353038">
      <ele>1509.37</ele>
      <time>2021-10-12T18:35:21Z</time>
    </trkpt>
    <trkpt lat="38.539819038" lon="34.96635396">
      <ele>1509.107</ele>
      <time>2021-10-12T18:35:22Z</time>
    </trkpt>
    <trkpt lat="38.539849967" lon="34.966350021">
      <ele>1509.104</ele>
      <time>2021-10-12T18:35:23Z</time>
    </trkpt>
    <trkpt lat="38.539879974" lon="34.966349015">
      <ele>1508.955</ele>
      <time>2021-10-12T18:35:24Z</time>
    </trkpt>
    <trkpt lat="38.539909981" lon="34.966348009">
      <ele>1508.808</ele>
      <time>2021-10-12T18:35:26Z</time>
    </trkpt>
    <trkpt lat="38.539940994" lon="34.96634298">
      <ele>1508.869</ele>
      <time>2021-10-12T18:35:27Z</time>
    </trkpt>
    <trkpt lat="38.539967984" lon="34.96634298">
      <ele>1508.691</ele>
      <time>2021-10-12T18:35:28Z</time>
    </trkpt>
    <trkpt lat="38.539997991" lon="34.96634298">
      <ele>1508.492</ele>
      <time>2021-10-12T18:35:29Z</time>
    </trkpt>
    <trkpt lat="38.54003001" lon="34.966343986">
      <ele>1508.623</ele>
      <time>2021-10-12T18:35:30Z</time>
    </trkpt>
    <trkpt lat="38.540059011" lon="34.966343986">
      <ele>1508.815</ele>
      <time>2021-10-12T18:35:31Z</time>
    </trkpt>
    <trkpt lat="38.540113997" lon="34.966341974">
      <ele>1509.285</ele>
      <time>2021-10-12T18:35:33Z</time>
    </trkpt>
    <trkpt lat="38.540146016" lon="34.966343986">
      <ele>1509.391</ele>
      <time>2021-10-12T18:35:34Z</time>
    </trkpt>
    <trkpt lat="38.540180968" lon="34.966347003">
      <ele>1509.467</ele>
      <time>2021-10-12T18:35:36Z</time>
    </trkpt>
    <trkpt lat="38.540218016" lon="34.966347003">
      <ele>1509.713</ele>
      <time>2021-10-12T18:35:37Z</time>
    </trkpt>
    <trkpt lat="38.540249029" lon="34.966347003">
      <ele>1509.92</ele>
      <time>2021-10-12T18:35:38Z</time>
    </trkpt>
    <trkpt lat="38.54028197" lon="34.966338035">
      <ele>1510.503</ele>
      <time>2021-10-12T18:35:39Z</time>
    </trkpt>
    <trkpt lat="38.540316001" lon="34.96634298">
      <ele>1509.763</ele>
      <time>2021-10-12T18:35:41Z</time>
    </trkpt>
    <trkpt lat="38.540348019" lon="34.966338035">
      <ele>1509.552</ele>
      <time>2021-10-12T18:35:42Z</time>
    </trkpt>
    <trkpt lat="38.540375009" lon="34.966334011">
      <ele>1509.366</ele>
      <time>2021-10-12T18:35:43Z</time>
    </trkpt>
    <trkpt lat="38.540407028" lon="34.966329988">
      <ele>1509.107</ele>
      <time>2021-10-12T18:35:44Z</time>
    </trkpt>
    <trkpt lat="38.540428989" lon="34.966327976">
      <ele>1508.893</ele>
      <time>2021-10-12T18:35:45Z</time>
    </trkpt>
    <trkpt lat="38.540456984" lon="34.966325965">
      <ele>1508.591</ele>
      <time>2021-10-12T18:35:46Z</time>
    </trkpt>
    <trkpt lat="38.540570978" lon="34.966314984">
      <ele>1507.584</ele>
      <time>2021-10-12T18:35:50Z</time>
    </trkpt>
    <trkpt lat="38.540669968" lon="34.966313979">
      <ele>1506.73</ele>
      <time>2021-10-12T18:35:54Z</time>
    </trkpt>
    <trkpt lat="38.54077097" lon="34.966316996">
      <ele>1505.671</ele>
      <time>2021-10-12T18:35:57Z</time>
    </trkpt>
    <trkpt lat="38.540870966" lon="34.966298975">
      <ele>1505.705</ele>
      <time>2021-10-12T18:36:01Z</time>
    </trkpt>
    <trkpt lat="38.54097004" lon="34.966287995">
      <ele>1505.688</ele>
      <time>2021-10-12T18:36:05Z</time>
    </trkpt>
    <trkpt lat="38.541067019" lon="34.966282966">
      <ele>1505.414</ele>
      <time>2021-10-12T18:36:08Z</time>
    </trkpt>
    <trkpt lat="38.541099038" lon="34.966281038">
      <ele>1505.331</ele>
      <time>2021-10-12T18:36:10Z</time>
    </trkpt>
    <trkpt lat="38.541129967" lon="34.966279026">
      <ele>1505.229</ele>
      <time>2021-10-12T18:36:11Z</time>
    </trkpt>
    <trkpt lat="38.541162992" lon="34.96627802">
      <ele>1505.055</ele>
      <time>2021-10-12T18:36:12Z</time>
    </trkpt>
    <trkpt lat="38.541195011" lon="34.966272991">
      <ele>1505.035</ele>
      <time>2021-10-12T18:36:13Z</time>
    </trkpt>
    <trkpt lat="38.54122703" lon="34.966268968">
      <ele>1504.971</ele>
      <time>2021-10-12T18:36:14Z</time>
    </trkpt>
    <trkpt lat="38.541257037" lon="34.966264023">
      <ele>1504.947</ele>
      <time>2021-10-12T18:36:16Z</time>
    </trkpt>
    <trkpt lat="38.541284027" lon="34.966256982">
      <ele>1505.01</ele>
      <time>2021-10-12T18:36:17Z</time>
    </trkpt>
    <trkpt lat="38.541314034" lon="34.966248013">
      <ele>1505.107</ele>
      <time>2021-10-12T18:36:18Z</time>
    </trkpt>
    <trkpt lat="38.541375976" lon="34.966225969">
      <ele>1505.38</ele>
      <time>2021-10-12T18:36:20Z</time>
    </trkpt>
    <trkpt lat="38.541407995" lon="34.966212977">
      <ele>1505.475</ele>
      <time>2021-10-12T18:36:21Z</time>
    </trkpt>
    <trkpt lat="38.541440014" lon="34.966203002">
      <ele>1505.408</ele>
      <time>2021-10-12T18:36:23Z</time>
    </trkpt>
    <trkpt lat="38.541470021" lon="34.966195039">
      <ele>1505.289</ele>
      <time>2021-10-12T18:36:24Z</time>
    </trkpt>
    <trkpt lat="38.541500028" lon="34.966183975">
      <ele>1505.249</ele>
      <time>2021-10-12T18:36:25Z</time>
    </trkpt>
    <trkpt lat="38.541528024" lon="34.966178024">
      <ele>1505.07</ele>
      <time>2021-10-12T18:36:26Z</time>
    </trkpt>
    <trkpt lat="38.541557025" lon="34.966172995">
      <ele>1504.843</ele>
      <time>2021-10-12T18:36:27Z</time>
    </trkpt>
    <trkpt lat="38.541586027" lon="34.966167966">
      <ele>1504.61</ele>
      <time>2021-10-12T18:36:28Z</time>
    </trkpt>
    <trkpt lat="38.541614022" lon="34.966165032">
      <ele>1504.326</ele>
      <time>2021-10-12T18:36:29Z</time>
    </trkpt>
    <trkpt lat="38.541639" lon="34.966165032">
      <ele>1504.001</ele>
      <time>2021-10-12T18:36:30Z</time>
    </trkpt>
    <trkpt lat="38.541661967" lon="34.966165032">
      <ele>1503.702</ele>
      <time>2021-10-12T18:36:31Z</time>
    </trkpt>
    <trkpt lat="38.541685017" lon="34.966169978">
      <ele>1503.356</ele>
      <time>2021-10-12T18:36:32Z</time>
    </trkpt>
    <trkpt lat="38.541706977" lon="34.966166038">
      <ele>1503.268</ele>
      <time>2021-10-12T18:36:33Z</time>
    </trkpt>
    <trkpt lat="38.541726004" lon="34.966165032">
      <ele>1503.131</ele>
      <time>2021-10-12T18:36:33Z</time>
    </trkpt>
    <trkpt lat="38.541756012" lon="34.966165032">
      <ele>1502.873</ele>
      <time>2021-10-12T18:36:34Z</time>
    </trkpt>
    <trkpt lat="38.541781995" lon="34.966157991">
      <ele>1502.848</ele>
      <time>2021-10-12T18:36:35Z</time>
    </trkpt>
    <trkpt lat="38.541809991" lon="34.966149023">
      <ele>1502.872</ele>
      <time>2021-10-12T18:36:36Z</time>
    </trkpt>
    <trkpt lat="38.541866988" lon="34.966134019">
      <ele>1502.861</ele>
      <time>2021-10-12T18:36:39Z</time>
    </trkpt>
    <trkpt lat="38.541892972" lon="34.966124967">
      <ele>1502.94</ele>
      <time>2021-10-12T18:36:40Z</time>
    </trkpt>
    <trkpt lat="38.54191904" lon="34.966117004">
      <ele>1502.996</ele>
      <time>2021-10-12T18:36:41Z</time>
    </trkpt>
    <trkpt lat="38.541976959" lon="34.966095965">
      <ele>1503.524</ele>
      <time>2021-10-12T18:36:43Z</time>
    </trkpt>
    <trkpt lat="38.542031022" lon="34.966072999">
      <ele>1504.249</ele>
      <time>2021-10-12T18:36:45Z</time>
    </trkpt>
    <trkpt lat="38.542057006" lon="34.966060007">
      <ele>1504.653</ele>
      <time>2021-10-12T18:36:46Z</time>
    </trkpt>
    <trkpt lat="38.542079972" lon="34.966046009">
      <ele>1505.096</ele>
      <time>2021-10-12T18:36:47Z</time>
    </trkpt>
    <trkpt lat="38.542158008" lon="34.965997981">
      <ele>1506.492</ele>
      <time>2021-10-12T18:36:50Z</time>
    </trkpt>
    <trkpt lat="38.542186003" lon="34.96597996">
      <ele>1506.975</ele>
      <time>2021-10-12T18:36:51Z</time>
    </trkpt>
    <trkpt lat="38.542210981" lon="34.965961017">
      <ele>1507.488</ele>
      <time>2021-10-12T18:36:52Z</time>
    </trkpt>
    <trkpt lat="38.54223202" lon="34.965940984">
      <ele>1508.201</ele>
      <time>2021-10-12T18:36:53Z</time>
    </trkpt>
    <trkpt lat="38.542262027" lon="34.965926986">
      <ele>1508.917</ele>
      <time>2021-10-12T18:36:54Z</time>
    </trkpt>
    <trkpt lat="38.542287005" lon="34.965907959">
      <ele>1509.735</ele>
      <time>2021-10-12T18:36:56Z</time>
    </trkpt>
    <trkpt lat="38.542313995" lon="34.965893961">
      <ele>1510.364</ele>
      <time>2021-10-12T18:36:57Z</time>
    </trkpt>
    <trkpt lat="38.54234199" lon="34.96587703">
      <ele>1511.062</ele>
      <time>2021-10-12T18:36:58Z</time>
    </trkpt>
    <trkpt lat="38.542369986" lon="34.965850962">
      <ele>1511.999</ele>
      <time>2021-10-12T18:36:59Z</time>
    </trkpt>
    <trkpt lat="38.542398987" lon="34.965835037">
      <ele>1512.587</ele>
      <time>2021-10-12T18:37:00Z</time>
    </trkpt>
    <trkpt lat="38.542427989" lon="34.965821039">
      <ele>1513.108</ele>
      <time>2021-10-12T18:37:01Z</time>
    </trkpt>
    <trkpt lat="38.54245699" lon="34.965798995">
      <ele>1513.806</ele>
      <time>2021-10-12T18:37:03Z</time>
    </trkpt>
    <trkpt lat="38.542517005" lon="34.965784997">
      <ele>1514.258</ele>
      <time>2021-10-12T18:37:05Z</time>
    </trkpt>
    <trkpt lat="38.542551035" lon="34.965784997">
      <ele>1514.338</ele>
      <time>2021-10-12T18:37:06Z</time>
    </trkpt>
    <trkpt lat="38.542613983" lon="34.965807041">
      <ele>1513.995</ele>
      <time>2021-10-12T18:37:09Z</time>
    </trkpt>
    <trkpt lat="38.542639967" lon="34.965838976">
      <ele>1513.444</ele>
      <time>2021-10-12T18:37:10Z</time>
    </trkpt>
    <trkpt lat="38.542687995" lon="34.96596898">
      <ele>1512.902</ele>
      <time>2021-10-12T18:37:14Z</time>
    </trkpt>
    <trkpt lat="38.542693025" lon="34.966119016">
      <ele>1512.199</ele>
      <time>2021-10-12T18:37:18Z</time>
    </trkpt>
    <trkpt lat="38.542681038" lon="34.966247007">
      <ele>1510.865</ele>
      <time>2021-10-12T18:37:22Z</time>
    </trkpt>
    <trkpt lat="38.542682966" lon="34.966286989">
      <ele>1510.647</ele>
      <time>2021-10-12T18:37:23Z</time>
    </trkpt>
    <trkpt lat="38.542681038" lon="34.966324037">
      <ele>1510.298</ele>
      <time>2021-10-12T18:37:24Z</time>
    </trkpt>
    <trkpt lat="38.542677015" lon="34.966359995">
      <ele>1509.864</ele>
      <time>2021-10-12T18:37:25Z</time>
    </trkpt>
    <trkpt lat="38.542675003" lon="34.966397965">
      <ele>1509.598</ele>
      <time>2021-10-12T18:37:27Z</time>
    </trkpt>
    <trkpt lat="38.542668968" lon="34.966431996">
      <ele>1509.461</ele>
      <time>2021-10-12T18:37:28Z</time>
    </trkpt>
    <trkpt lat="38.542662011" lon="34.966468038">
      <ele>1509.26</ele>
      <time>2021-10-12T18:37:29Z</time>
    </trkpt>
    <trkpt lat="38.542623036" lon="34.966608016">
      <ele>1507.484</ele>
      <time>2021-10-12T18:37:33Z</time>
    </trkpt>
    <trkpt lat="38.542579031" lon="34.966708012">
      <ele>1504.368</ele>
      <time>2021-10-12T18:37:36Z</time>
    </trkpt>
    <trkpt lat="38.542512981" lon="34.96683198">
      <ele>1498.497</ele>
      <time>2021-10-12T18:37:41Z</time>
    </trkpt>
    <trkpt lat="38.542454978" lon="34.966969024">
      <ele>1493.731</ele>
      <time>2021-10-12T18:37:45Z</time>
    </trkpt>
    <trkpt lat="38.542438969" lon="34.967047982">
      <ele>1492.924</ele>
      <time>2021-10-12T18:37:48Z</time>
    </trkpt>
    <trkpt lat="38.542441987" lon="34.967142027">
      <ele>1493.076</ele>
      <time>2021-10-12T18:37:50Z</time>
    </trkpt>
    <trkpt lat="38.542459002" lon="34.967225008">
      <ele>1493.924</ele>
      <time>2021-10-12T18:37:53Z</time>
    </trkpt>
    <trkpt lat="38.542462019" lon="34.967265995">
      <ele>1493.928</ele>
      <time>2021-10-12T18:37:54Z</time>
    </trkpt>
    <trkpt lat="38.542464031" lon="34.967307989">
      <ele>1493.878</ele>
      <time>2021-10-12T18:37:55Z</time>
    </trkpt>
    <trkpt lat="38.542461013" lon="34.967349982">
      <ele>1493.575</ele>
      <time>2021-10-12T18:37:56Z</time>
    </trkpt>
    <trkpt lat="38.542464031" lon="34.96738703">
      <ele>1493.594</ele>
      <time>2021-10-12T18:37:58Z</time>
    </trkpt>
    <trkpt lat="38.542461013" lon="34.967430029">
      <ele>1493.287</ele>
      <time>2021-10-12T18:37:59Z</time>
    </trkpt>
    <trkpt lat="38.542462019" lon="34.967518961">
      <ele>1493.008</ele>
      <time>2021-10-12T18:38:01Z</time>
    </trkpt>
    <trkpt lat="38.542464031" lon="34.967558021">
      <ele>1492.951</ele>
      <time>2021-10-12T18:38:02Z</time>
    </trkpt>
    <trkpt lat="38.542470988" lon="34.967591967">
      <ele>1493.172</ele>
      <time>2021-10-12T18:38:04Z</time>
    </trkpt>
    <trkpt lat="38.542476017" lon="34.967632033">
      <ele>1493.275</ele>
      <time>2021-10-12T18:38:05Z</time>
    </trkpt>
    <trkpt lat="38.542482974" lon="34.967668997">
      <ele>1493.496</ele>
      <time>2021-10-12T18:38:06Z</time>
    </trkpt>
    <trkpt lat="38.542489009" lon="34.967709985">
      <ele>1493.66</ele>
      <time>2021-10-12T18:38:07Z</time>
    </trkpt>
    <trkpt lat="38.542494038" lon="34.967749966">
      <ele>1493.78</ele>
      <time>2021-10-12T18:38:08Z</time>
    </trkpt>
    <trkpt lat="38.542496972" lon="34.967790032">
      <ele>1493.617</ele>
      <time>2021-10-12T18:38:09Z</time>
    </trkpt>
    <trkpt lat="38.542517005" lon="34.967865972">
      <ele>1493.331</ele>
      <time>2021-10-12T18:38:12Z</time>
    </trkpt>
    <trkpt lat="38.542528991" lon="34.967904026">
      <ele>1493.293</ele>
      <time>2021-10-12T18:38:13Z</time>
    </trkpt>
    <trkpt lat="38.542541983" lon="34.967941996">
      <ele>1493.311</ele>
      <time>2021-10-12T18:38:14Z</time>
    </trkpt>
    <trkpt lat="38.54255598" lon="34.967980972">
      <ele>1493.365</ele>
      <time>2021-10-12T18:38:15Z</time>
    </trkpt>
    <trkpt lat="38.54257199" lon="34.968021037">
      <ele>1493.509</ele>
      <time>2021-10-12T18:38:17Z</time>
    </trkpt>
    <trkpt lat="38.542591017" lon="34.968060013">
      <ele>1493.824</ele>
      <time>2021-10-12T18:38:18Z</time>
    </trkpt>
    <trkpt lat="38.542605015" lon="34.968099995">
      <ele>1493.75</ele>
      <time>2021-10-12T18:38:19Z</time>
    </trkpt>
    <trkpt lat="38.54262203" lon="34.968137965">
      <ele>1493.846</ele>
      <time>2021-10-12T18:38:20Z</time>
    </trkpt>
    <trkpt lat="38.542636028" lon="34.968176018">
      <ele>1493.752</ele>
      <time>2021-10-12T18:38:22Z</time>
    </trkpt>
    <trkpt lat="38.542648014" lon="34.968210971">
      <ele>1493.599</ele>
      <time>2021-10-12T18:38:23Z</time>
    </trkpt>
    <trkpt lat="38.542661006" lon="34.968251958">
      <ele>1493.339</ele>
      <time>2021-10-12T18:38:24Z</time>
    </trkpt>
    <trkpt lat="38.542678021" lon="34.968288001">
      <ele>1493.357</ele>
      <time>2021-10-12T18:38:25Z</time>
    </trkpt>
    <trkpt lat="38.54269403" lon="34.968328988">
      <ele>1493.181</ele>
      <time>2021-10-12T18:38:27Z</time>
    </trkpt>
    <trkpt lat="38.542710962" lon="34.96836897">
      <ele>1492.908</ele>
      <time>2021-10-12T18:38:28Z</time>
    </trkpt>
    <trkpt lat="38.542730995" lon="34.96840803">
      <ele>1492.75</ele>
      <time>2021-10-12T18:38:29Z</time>
    </trkpt>
    <trkpt lat="38.542750021" lon="34.968443988">
      <ele>1492.594</ele>
      <time>2021-10-12T18:38:31Z</time>
    </trkpt>
    <trkpt lat="38.542765025" lon="34.968481036">
      <ele>1492.198</ele>
      <time>2021-10-12T18:38:32Z</time>
    </trkpt>
    <trkpt lat="38.542782962" lon="34.968518">
      <ele>1491.893</ele>
      <time>2021-10-12T18:38:33Z</time>
    </trkpt>
    <trkpt lat="38.542797966" lon="34.968556976">
      <ele>1491.403</ele>
      <time>2021-10-12T18:38:34Z</time>
    </trkpt>
    <trkpt lat="38.542815987" lon="34.968590001">
      <ele>1491.238</ele>
      <time>2021-10-12T18:38:35Z</time>
    </trkpt>
    <trkpt lat="38.542833002" lon="34.968623025">
      <ele>1491.008</ele>
      <time>2021-10-12T18:38:37Z</time>
    </trkpt>
    <trkpt lat="38.542850018" lon="34.968656972">
      <ele>1490.678</ele>
      <time>2021-10-12T18:38:38Z</time>
    </trkpt>
    <trkpt lat="38.542867033" lon="34.968692008">
      <ele>1490.328</ele>
      <time>2021-10-12T18:38:39Z</time>
    </trkpt>
    <trkpt lat="38.542881031" lon="34.968727967">
      <ele>1489.831</ele>
      <time>2021-10-12T18:38:40Z</time>
    </trkpt>
    <trkpt lat="38.542897962" lon="34.968764009">
      <ele>1489.476</ele>
      <time>2021-10-12T18:38:41Z</time>
    </trkpt>
    <trkpt lat="38.542913971" lon="34.968798039">
      <ele>1489.157</ele>
      <time>2021-10-12T18:38:43Z</time>
    </trkpt>
    <trkpt lat="38.542934004" lon="34.968833998">
      <ele>1488.979</ele>
      <time>2021-10-12T18:38:44Z</time>
    </trkpt>
    <trkpt lat="38.542954037" lon="34.968865011">
      <ele>1488.968</ele>
      <time>2021-10-12T18:38:45Z</time>
    </trkpt>
    <trkpt lat="38.542971974" lon="34.96889703">
      <ele>1488.833</ele>
      <time>2021-10-12T18:38:46Z</time>
    </trkpt>
    <trkpt lat="38.542989995" lon="34.968932988">
      <ele>1488.54</ele>
      <time>2021-10-12T18:38:47Z</time>
    </trkpt>
    <trkpt lat="38.543013968" lon="34.968965007">
      <ele>1488.628</ele>
      <time>2021-10-12T18:38:49Z</time>
    </trkpt>
    <trkpt lat="38.543036012" lon="34.968991997">
      <ele>1488.771</ele>
      <time>2021-10-12T18:38:50Z</time>
    </trkpt>
    <trkpt lat="38.543099966" lon="34.969096016">
      <ele>1488.289</ele>
      <time>2021-10-12T18:38:54Z</time>
    </trkpt>
    <trkpt lat="38.543172972" lon="34.969191989">
      <ele>1488.084</ele>
      <time>2021-10-12T18:38:58Z</time>
    </trkpt>
    <trkpt lat="38.543197028" lon="34.969221996">
      <ele>1487.917</ele>
      <time>2021-10-12T18:38:59Z</time>
    </trkpt>
    <trkpt lat="38.543222006" lon="34.969252003">
      <ele>1487.75</ele>
      <time>2021-10-12T18:39:00Z</time>
    </trkpt>
    <trkpt lat="38.543246984" lon="34.969281005">
      <ele>1487.586</ele>
      <time>2021-10-12T18:39:01Z</time>
    </trkpt>
    <trkpt lat="38.54327498" lon="34.969311012">
      <ele>1487.462</ele>
      <time>2021-10-12T18:39:03Z</time>
    </trkpt>
    <trkpt lat="38.543296019" lon="34.969343031">
      <ele>1486.94</ele>
      <time>2021-10-12T18:39:04Z</time>
    </trkpt>
    <trkpt lat="38.543316973" lon="34.969373038">
      <ele>1486.466</ele>
      <time>2021-10-12T18:39:05Z</time>
    </trkpt>
    <trkpt lat="38.543341029" lon="34.969403967">
      <ele>1486.137</ele>
      <time>2021-10-12T18:39:06Z</time>
    </trkpt>
    <trkpt lat="38.543363996" lon="34.969440009">
      <ele>1485.737</ele>
      <time>2021-10-12T18:39:08Z</time>
    </trkpt>
    <trkpt lat="38.543384029" lon="34.969473034">
      <ele>1485.282</ele>
      <time>2021-10-12T18:39:09Z</time>
    </trkpt>
    <trkpt lat="38.543403978" lon="34.969505975">
      <ele>1484.79</ele>
      <time>2021-10-12T18:39:10Z</time>
    </trkpt>
    <trkpt lat="38.543423004" lon="34.969544029">
      <ele>1483.986</ele>
      <time>2021-10-12T18:39:11Z</time>
    </trkpt>
    <trkpt lat="38.543441026" lon="34.969574036">
      <ele>1483.468</ele>
      <time>2021-10-12T18:39:12Z</time>
    </trkpt>
    <trkpt lat="38.543462986" lon="34.969608989">
      <ele>1482.873</ele>
      <time>2021-10-12T18:39:14Z</time>
    </trkpt>
    <trkpt lat="38.543484025" lon="34.969646037">
      <ele>1482.099</ele>
      <time>2021-10-12T18:39:15Z</time>
    </trkpt>
    <trkpt lat="38.543501962" lon="34.969677972">
      <ele>1481.39</ele>
      <time>2021-10-12T18:39:16Z</time>
    </trkpt>
    <trkpt lat="38.543525012" lon="34.969710996">
      <ele>1480.821</ele>
      <time>2021-10-12T18:39:18Z</time>
    </trkpt>
    <trkpt lat="38.543547979" lon="34.969745027">
      <ele>1480.198</ele>
      <time>2021-10-12T18:39:19Z</time>
    </trkpt>
    <trkpt lat="38.543571029" lon="34.969777968">
      <ele>1479.575</ele>
      <time>2021-10-12T18:39:20Z</time>
    </trkpt>
    <trkpt lat="38.543595001" lon="34.969805963">
      <ele>1479.153</ele>
      <time>2021-10-12T18:39:21Z</time>
    </trkpt>
    <trkpt lat="38.543618973" lon="34.969835971">
      <ele>1478.685</ele>
      <time>2021-10-12T18:39:23Z</time>
    </trkpt>
    <trkpt lat="38.543645041" lon="34.969862038">
      <ele>1478.723</ele>
      <time>2021-10-12T18:39:24Z</time>
    </trkpt>
    <trkpt lat="38.543673037" lon="34.969893973">
      <ele>1478.497</ele>
      <time>2021-10-12T18:39:25Z</time>
    </trkpt>
    <trkpt lat="38.543701032" lon="34.969920041">
      <ele>1478.518</ele>
      <time>2021-10-12T18:39:26Z</time>
    </trkpt>
    <trkpt lat="38.543789964" lon="34.970006039">
      <ele>1478.103</ele>
      <time>2021-10-12T18:39:31Z</time>
    </trkpt>
    <trkpt lat="38.543855008" lon="34.970051972">
      <ele>1479.028</ele>
      <time>2021-10-12T18:39:33Z</time>
    </trkpt>
    <trkpt lat="38.543885015" lon="34.970074017">
      <ele>1479.362</ele>
      <time>2021-10-12T18:39:35Z</time>
    </trkpt>
    <trkpt lat="38.543913011" lon="34.970101006">
      <ele>1479.394</ele>
      <time>2021-10-12T18:39:36Z</time>
    </trkpt>
    <trkpt lat="38.543970007" lon="34.97015004">
      <ele>1479.593</ele>
      <time>2021-10-12T18:39:38Z</time>
    </trkpt>
    <trkpt lat="38.54400102" lon="34.970166972">
      <ele>1480.109</ele>
      <time>2021-10-12T18:39:40Z</time>
    </trkpt>
    <trkpt lat="38.544027004" lon="34.97018801">
      <ele>1480.153</ele>
      <time>2021-10-12T18:39:41Z</time>
    </trkpt>
    <trkpt lat="38.544052988" lon="34.970218018">
      <ele>1479.676</ele>
      <time>2021-10-12T18:39:42Z</time>
    </trkpt>
    <trkpt lat="38.544078972" lon="34.970239978">
      <ele>1479.576</ele>
      <time>2021-10-12T18:39:43Z</time>
    </trkpt>
    <trkpt lat="38.54410504" lon="34.970265962">
      <ele>1479.212</ele>
      <time>2021-10-12T18:39:45Z</time>
    </trkpt>
    <trkpt lat="38.544131024" lon="34.970294042">
      <ele>1478.835</ele>
      <time>2021-10-12T18:39:46Z</time>
    </trkpt>
    <trkpt lat="38.544156002" lon="34.970320025">
      <ele>1478.606</ele>
      <time>2021-10-12T18:39:47Z</time>
    </trkpt>
    <trkpt lat="38.544179974" lon="34.970349027">
      <ele>1478.264</ele>
      <time>2021-10-12T18:39:48Z</time>
    </trkpt>
    <trkpt lat="38.544208976" lon="34.970368976">
      <ele>1478.612</ele>
      <time>2021-10-12T18:39:49Z</time>
    </trkpt>
    <trkpt lat="38.544236971" lon="34.970390014">
      <ele>1478.833</ele>
      <time>2021-10-12T18:39:51Z</time>
    </trkpt>
    <trkpt lat="38.544264967" lon="34.970411975">
      <ele>1478.978</ele>
      <time>2021-10-12T18:39:52Z</time>
    </trkpt>
    <trkpt lat="38.54429204" lon="34.970432008">
      <ele>1479.148</ele>
      <time>2021-10-12T18:39:53Z</time>
    </trkpt>
    <trkpt lat="38.544321042" lon="34.970451035">
      <ele>1479.423</ele>
      <time>2021-10-12T18:39:54Z</time>
    </trkpt>
    <trkpt lat="38.544350965" lon="34.970472995">
      <ele>1479.556</ele>
      <time>2021-10-12T18:39:55Z</time>
    </trkpt>
    <trkpt lat="38.544379966" lon="34.970494034">
      <ele>1479.666</ele>
      <time>2021-10-12T18:39:57Z</time>
    </trkpt>
    <trkpt lat="38.54440704" lon="34.970522029">
      <ele>1479.297</ele>
      <time>2021-10-12T18:39:58Z</time>
    </trkpt>
    <trkpt lat="38.544432018" lon="34.970548013">
      <ele>1478.913</ele>
      <time>2021-10-12T18:39:59Z</time>
    </trkpt>
    <trkpt lat="38.544456996" lon="34.970572991">
      <ele>1478.817</ele>
      <time>2021-10-12T18:40:00Z</time>
    </trkpt>
    <trkpt lat="38.544481974" lon="34.970599981">
      <ele>1478.708</ele>
      <time>2021-10-12T18:40:02Z</time>
    </trkpt>
    <trkpt lat="38.54450603" lon="34.970628982">
      <ele>1478.359</ele>
      <time>2021-10-12T18:40:03Z</time>
    </trkpt>
    <trkpt lat="38.544526985" lon="34.970661001">
      <ele>1477.631</ele>
      <time>2021-10-12T18:40:04Z</time>
    </trkpt>
    <trkpt lat="38.544595968" lon="34.970742976">
      <ele>1475.786</ele>
      <time>2021-10-12T18:40:08Z</time>
    </trkpt>
    <trkpt lat="38.54466998" lon="34.970832998">
      <ele>1472.704</ele>
      <time>2021-10-12T18:40:11Z</time>
    </trkpt>
    <trkpt lat="38.544742987" lon="34.970926037">
      <ele>1470.783</ele>
      <time>2021-10-12T18:40:15Z</time>
    </trkpt>
    <trkpt lat="38.54481901" lon="34.971018992">
      <ele>1470.187</ele>
      <time>2021-10-12T18:40:19Z</time>
    </trkpt>
    <trkpt lat="38.544848012" lon="34.971049">
      <ele>1470.098</ele>
      <time>2021-10-12T18:40:20Z</time>
    </trkpt>
    <trkpt lat="38.544925964" lon="34.971141033">
      <ele>1469.027</ele>
      <time>2021-10-12T18:40:24Z</time>
    </trkpt>
    <trkpt lat="38.54499897" lon="34.971236">
      <ele>1467.657</ele>
      <time>2021-10-12T18:40:28Z</time>
    </trkpt>
    <trkpt lat="38.545041969" lon="34.971299032">
      <ele>1466.742</ele>
      <time>2021-10-12T18:40:31Z</time>
    </trkpt>
    <trkpt lat="38.545088992" lon="34.971356029">
      <ele>1466.217</ele>
      <time>2021-10-12T18:40:33Z</time>
    </trkpt>
    <trkpt lat="38.545145988" lon="34.971405985">
      <ele>1466.532</ele>
      <time>2021-10-12T18:40:36Z</time>
    </trkpt>
    <trkpt lat="38.545228969" lon="34.971485026">
      <ele>1467.204</ele>
      <time>2021-10-12T18:40:39Z</time>
    </trkpt>
    <trkpt lat="38.545311028" lon="34.971554009">
      <ele>1468.019</ele>
      <time>2021-10-12T18:40:43Z</time>
    </trkpt>
    <trkpt lat="38.545366013" lon="34.97159902">
      <ele>1467.773</ele>
      <time>2021-10-12T18:40:45Z</time>
    </trkpt>
    <trkpt lat="38.545395015" lon="34.971620981">
      <ele>1467.628</ele>
      <time>2021-10-12T18:40:47Z</time>
    </trkpt>
    <trkpt lat="38.545473972" lon="34.971688036">
      <ele>1466.297</ele>
      <time>2021-10-12T18:40:50Z</time>
    </trkpt>
    <trkpt lat="38.545529963" lon="34.971737992">
      <ele>1464.851</ele>
      <time>2021-10-12T18:40:53Z</time>
    </trkpt>
    <trkpt lat="38.545557037" lon="34.971763976">
      <ele>1464.078</ele>
      <time>2021-10-12T18:40:54Z</time>
    </trkpt>
    <trkpt lat="38.545586038" lon="34.97178602">
      <ele>1463.369</ele>
      <time>2021-10-12T18:40:55Z</time>
    </trkpt>
    <trkpt lat="38.545677988" lon="34.971855003">
      <ele>1460.961</ele>
      <time>2021-10-12T18:40:59Z</time>
    </trkpt>
    <trkpt lat="38.545769015" lon="34.971909989">
      <ele>1459.142</ele>
      <time>2021-10-12T18:41:03Z</time>
    </trkpt>
    <trkpt lat="38.545800028" lon="34.971925998">
      <ele>1458.646</ele>
      <time>2021-10-12T18:41:04Z</time>
    </trkpt>
    <trkpt lat="38.545831041" lon="34.971944019">
      <ele>1457.988</ele>
      <time>2021-10-12T18:41:05Z</time>
    </trkpt>
    <trkpt lat="38.545862976" lon="34.97196204">
      <ele>1457.334</ele>
      <time>2021-10-12T18:41:07Z</time>
    </trkpt>
    <trkpt lat="38.545890972" lon="34.971978972">
      <ele>1456.737</ele>
      <time>2021-10-12T18:41:08Z</time>
    </trkpt>
    <trkpt lat="38.54591704" lon="34.97200001">
      <ele>1455.945</ele>
      <time>2021-10-12T18:41:09Z</time>
    </trkpt>
    <trkpt lat="38.545947969" lon="34.972021971">
      <ele>1455.233</ele>
      <time>2021-10-12T18:41:10Z</time>
    </trkpt>
    <trkpt lat="38.545975965" lon="34.97203798">
      <ele>1454.844</ele>
      <time>2021-10-12T18:41:11Z</time>
    </trkpt>
    <trkpt lat="38.546006978" lon="34.972059019">
      <ele>1454.307</ele>
      <time>2021-10-12T18:41:13Z</time>
    </trkpt>
    <trkpt lat="38.546036985" lon="34.972078968">
      <ele>1453.871</ele>
      <time>2021-10-12T18:41:14Z</time>
    </trkpt>
    <trkpt lat="38.546065986" lon="34.972094977">
      <ele>1453.657</ele>
      <time>2021-10-12T18:41:15Z</time>
    </trkpt>
    <trkpt lat="38.546094988" lon="34.972117022">
      <ele>1453.226</ele>
      <time>2021-10-12T18:41:16Z</time>
    </trkpt>
    <trkpt lat="38.546122983" lon="34.972134959">
      <ele>1453.165</ele>
      <time>2021-10-12T18:41:18Z</time>
    </trkpt>
    <trkpt lat="38.54615299" lon="34.972154992">
      <ele>1453.256</ele>
      <time>2021-10-12T18:41:19Z</time>
    </trkpt>
    <trkpt lat="38.546186015" lon="34.97216396">
      <ele>1453.9</ele>
      <time>2021-10-12T18:41:20Z</time>
    </trkpt>
    <trkpt lat="38.546222979" lon="34.972177958">
      <ele>1454.391</ele>
      <time>2021-10-12T18:41:22Z</time>
    </trkpt>
    <trkpt lat="38.546258016" lon="34.972194973">
      <ele>1454.616</ele>
      <time>2021-10-12T18:41:23Z</time>
    </trkpt>
    <trkpt lat="38.54629104" lon="34.972208971">
      <ele>1454.878</ele>
      <time>2021-10-12T18:41:24Z</time>
    </trkpt>
    <trkpt lat="38.546380978" lon="34.97226798">
      <ele>1455.125</ele>
      <time>2021-10-12T18:41:28Z</time>
    </trkpt>
    <trkpt lat="38.546408974" lon="34.972290024">
      <ele>1455.175</ele>
      <time>2021-10-12T18:41:29Z</time>
    </trkpt>
    <trkpt lat="38.546438981" lon="34.972307039">
      <ele>1455.459</ele>
      <time>2021-10-12T18:41:30Z</time>
    </trkpt>
    <trkpt lat="38.546465971" lon="34.972331012">
      <ele>1455.364</ele>
      <time>2021-10-12T18:41:32Z</time>
    </trkpt>
    <trkpt lat="38.546497989" lon="34.972364036">
      <ele>1455.029</ele>
      <time>2021-10-12T18:41:33Z</time>
    </trkpt>
    <trkpt lat="38.546524979" lon="34.972393038">
      <ele>1454.657</ele>
      <time>2021-10-12T18:41:34Z</time>
    </trkpt>
    <trkpt lat="38.546550963" lon="34.972418016">
      <ele>1454.38</ele>
      <time>2021-10-12T18:41:36Z</time>
    </trkpt>
    <trkpt lat="38.546578037" lon="34.972444">
      <ele>1454.057</ele>
      <time>2021-10-12T18:41:37Z</time>
    </trkpt>
    <trkpt lat="38.546604021" lon="34.972468978">
      <ele>1453.711</ele>
      <time>2021-10-12T18:41:38Z</time>
    </trkpt>
    <trkpt lat="38.546627993" lon="34.972493034">
      <ele>1453.319</ele>
      <time>2021-10-12T18:41:39Z</time>
    </trkpt>
    <trkpt lat="38.546651965" lon="34.972516">
      <ele>1452.941</ele>
      <time>2021-10-12T18:41:40Z</time>
    </trkpt>
    <trkpt lat="38.546675015" lon="34.972537039">
      <ele>1452.632</ele>
      <time>2021-10-12T18:41:41Z</time>
    </trkpt>
    <trkpt lat="38.546700999" lon="34.972558999">
      <ele>1452.387</ele>
      <time>2021-10-12T18:41:43Z</time>
    </trkpt>
    <trkpt lat="38.546750033" lon="34.972599987">
      <ele>1451.865</ele>
      <time>2021-10-12T18:41:45Z</time>
    </trkpt>
    <trkpt lat="38.546778029" lon="34.972624965">
      <ele>1451.448</ele>
      <time>2021-10-12T18:41:46Z</time>
    </trkpt>
    <trkpt lat="38.546806024" lon="34.972646004">
      <ele>1451.179</ele>
      <time>2021-10-12T18:41:47Z</time>
    </trkpt>
    <trkpt lat="38.546832008" lon="34.972666036">
      <ele>1450.877</ele>
      <time>2021-10-12T18:41:48Z</time>
    </trkpt>
    <trkpt lat="38.546855981" lon="34.972690009">
      <ele>1450.311</ele>
      <time>2021-10-12T18:41:49Z</time>
    </trkpt>
    <trkpt lat="38.546881964" lon="34.972710041">
      <ele>1449.955</ele>
      <time>2021-10-12T18:41:51Z</time>
    </trkpt>
    <trkpt lat="38.546905015" lon="34.972733008">
      <ele>1449.359</ele>
      <time>2021-10-12T18:41:52Z</time>
    </trkpt>
    <trkpt lat="38.546932004" lon="34.972750023">
      <ele>1449.121</ele>
      <time>2021-10-12T18:41:53Z</time>
    </trkpt>
    <trkpt lat="38.546957988" lon="34.972766032">
      <ele>1448.887</ele>
      <time>2021-10-12T18:41:54Z</time>
    </trkpt>
    <trkpt lat="38.546981039" lon="34.97278397">
      <ele>1448.523</ele>
      <time>2021-10-12T18:41:55Z</time>
    </trkpt>
    <trkpt lat="38.547002999" lon="34.972798973">
      <ele>1448.349</ele>
      <time>2021-10-12T18:41:56Z</time>
    </trkpt>
    <trkpt lat="38.547025966" lon="34.972818">
      <ele>1448.023</ele>
      <time>2021-10-12T18:41:57Z</time>
    </trkpt>
    <trkpt lat="38.547049016" lon="34.972841972">
      <ele>1447.486</ele>
      <time>2021-10-12T18:41:58Z</time>
    </trkpt>
    <trkpt lat="38.547070976" lon="34.972864017">
      <ele>1447.008</ele>
      <time>2021-10-12T18:41:59Z</time>
    </trkpt>
    <trkpt lat="38.547092015" lon="34.972886983">
      <ele>1446.47</ele>
      <time>2021-10-12T18:42:00Z</time>
    </trkpt>
    <trkpt lat="38.54712001" lon="34.97290601">
      <ele>1446.253</ele>
      <time>2021-10-12T18:42:01Z</time>
    </trkpt>
    <trkpt lat="38.547206009" lon="34.972978011">
      <ele>1445.0</ele>
      <time>2021-10-12T18:42:05Z</time>
    </trkpt>
    <trkpt lat="38.547254959" lon="34.973024027">
      <ele>1443.938</ele>
      <time>2021-10-12T18:42:07Z</time>
    </trkpt>
    <trkpt lat="38.547275998" lon="34.973044982">
      <ele>1443.417</ele>
      <time>2021-10-12T18:42:08Z</time>
    </trkpt>
    <trkpt lat="38.547304999" lon="34.973069038">
      <ele>1443.087</ele>
      <time>2021-10-12T18:42:09Z</time>
    </trkpt>
    <trkpt lat="38.547353027" lon="34.973130981">
      <ele>1442.054</ele>
      <time>2021-10-12T18:42:12Z</time>
    </trkpt>
    <trkpt lat="38.547373982" lon="34.973162999">
      <ele>1441.426</ele>
      <time>2021-10-12T18:42:13Z</time>
    </trkpt>
    <trkpt lat="38.547394015" lon="34.973194012">
      <ele>1440.796</ele>
      <time>2021-10-12T18:42:14Z</time>
    </trkpt>
    <trkpt lat="38.54741103" lon="34.973230977">
      <ele>1439.917</ele>
      <time>2021-10-12T18:42:16Z</time>
    </trkpt>
    <trkpt lat="38.547426034" lon="34.973267019">
      <ele>1439.02</ele>
      <time>2021-10-12T18:42:17Z</time>
    </trkpt>
    <trkpt lat="38.547470961" lon="34.973386042">
      <ele>1435.854</ele>
      <time>2021-10-12T18:42:21Z</time>
    </trkpt>
    <trkpt lat="38.547508009" lon="34.973462988">
      <ele>1433.932</ele>
      <time>2021-10-12T18:42:23Z</time>
    </trkpt>
    <trkpt lat="38.54754799" lon="34.973531971">
      <ele>1432.23</ele>
      <time>2021-10-12T18:42:26Z</time>
    </trkpt>
    <trkpt lat="38.547572969" lon="34.973561978">
      <ele>1431.519</ele>
      <time>2021-10-12T18:42:27Z</time>
    </trkpt>
    <trkpt lat="38.547591995" lon="34.973589974">
      <ele>1430.754</ele>
      <time>2021-10-12T18:42:28Z</time>
    </trkpt>
    <trkpt lat="38.547611022" lon="34.973617969">
      <ele>1429.952</ele>
      <time>2021-10-12T18:42:29Z</time>
    </trkpt>
    <trkpt lat="38.547631977" lon="34.973644037">
      <ele>1429.24</ele>
      <time>2021-10-12T18:42:30Z</time>
    </trkpt>
    <trkpt lat="38.547653016" lon="34.973668009">
      <ele>1428.604</ele>
      <time>2021-10-12T18:42:31Z</time>
    </trkpt>
    <trkpt lat="38.547737002" lon="34.973743027">
      <ele>1426.811</ele>
      <time>2021-10-12T18:42:35Z</time>
    </trkpt>
    <trkpt lat="38.547830041" lon="34.973803042">
      <ele>1426.161</ele>
      <time>2021-10-12T18:42:39Z</time>
    </trkpt>
    <trkpt lat="38.547951998" lon="34.973909995">
      <ele>1425.032</ele>
      <time>2021-10-12T18:42:44Z</time>
    </trkpt>
    <trkpt lat="38.548005978" lon="34.973966992">
      <ele>1424.168</ele>
      <time>2021-10-12T18:42:47Z</time>
    </trkpt>
    <trkpt lat="38.548087031" lon="34.974070005">
      <ele>1422.455</ele>
      <time>2021-10-12T18:42:51Z</time>
    </trkpt>
    <trkpt lat="38.548174035" lon="34.974199003">
      <ele>1421.101</ele>
      <time>2021-10-12T18:42:56Z</time>
    </trkpt>
    <trkpt lat="38.54821804" lon="34.974257005">
      <ele>1420.597</ele>
      <time>2021-10-12T18:42:59Z</time>
    </trkpt>
    <trkpt lat="38.548291968" lon="34.974349039">
      <ele>1419.945</ele>
      <time>2021-10-12T18:43:02Z</time>
    </trkpt>
    <trkpt lat="38.548339996" lon="34.974462027">
      <ele>1417.605</ele>
      <time>2021-10-12T18:43:06Z</time>
    </trkpt>
    <trkpt lat="38.54839297" lon="34.974565962">
      <ele>1415.678</ele>
      <time>2021-10-12T18:43:10Z</time>
    </trkpt>
    <trkpt lat="38.548467988" lon="34.974690014">
      <ele>1413.578</ele>
      <time>2021-10-12T18:43:14Z</time>
    </trkpt>
    <trkpt lat="38.548524985" lon="34.974774001">
      <ele>1412.892</ele>
      <time>2021-10-12T18:43:17Z</time>
    </trkpt>
    <trkpt lat="38.548583994" lon="34.974871986">
      <ele>1411.966</ele>
      <time>2021-10-12T18:43:21Z</time>
    </trkpt>
    <trkpt lat="38.548643002" lon="34.974972988">
      <ele>1410.282</ele>
      <time>2021-10-12T18:43:25Z</time>
    </trkpt>
    <trkpt lat="38.548695976" lon="34.975074995">
      <ele>1408.79</ele>
      <time>2021-10-12T18:43:28Z</time>
    </trkpt>
    <trkpt lat="38.548749033" lon="34.975209022">
      <ele>1406.85</ele>
      <time>2021-10-12T18:43:33Z</time>
    </trkpt>
    <trkpt lat="38.548791027" lon="34.975323016">
      <ele>1405.071</ele>
      <time>2021-10-12T18:43:36Z</time>
    </trkpt>
    <trkpt lat="38.548803013" lon="34.97545897">
      <ele>1402.609</ele>
      <time>2021-10-12T18:43:40Z</time>
    </trkpt>
    <trkpt lat="38.548813993" lon="34.97558604">
      <ele>1400.124</ele>
      <time>2021-10-12T18:43:44Z</time>
    </trkpt>
    <trkpt lat="38.548811981" lon="34.975627027">
      <ele>1399.02</ele>
      <time>2021-10-12T18:43:45Z</time>
    </trkpt>
    <trkpt lat="38.548814999" lon="34.975669021">
      <ele>1397.968</ele>
      <time>2021-10-12T18:43:46Z</time>
    </trkpt>
    <trkpt lat="38.54882204" lon="34.975713026">
      <ele>1396.933</ele>
      <time>2021-10-12T18:43:48Z</time>
    </trkpt>
    <trkpt lat="38.548835032" lon="34.975748984">
      <ele>1396.215</ele>
      <time>2021-10-12T18:43:49Z</time>
    </trkpt>
    <trkpt lat="38.548851963" lon="34.975783015">
      <ele>1395.627</ele>
      <time>2021-10-12T18:43:50Z</time>
    </trkpt>
    <trkpt lat="38.548868978" lon="34.975817967">
      <ele>1395.033</ele>
      <time>2021-10-12T18:43:51Z</time>
    </trkpt>
    <trkpt lat="38.548892029" lon="34.975846969">
      <ele>1394.761</ele>
      <time>2021-10-12T18:43:52Z</time>
    </trkpt>
    <trkpt lat="38.548917007" lon="34.97587203">
      <ele>1394.642</ele>
      <time>2021-10-12T18:43:54Z</time>
    </trkpt>
    <trkpt lat="38.548938967" lon="34.975894997">
      <ele>1394.489</ele>
      <time>2021-10-12T18:43:55Z</time>
    </trkpt>
    <trkpt lat="38.548966041" lon="34.975916035">
      <ele>1394.437</ele>
      <time>2021-10-12T18:43:56Z</time>
    </trkpt>
    <trkpt lat="38.548994036" lon="34.975935984">
      <ele>1394.396</ele>
      <time>2021-10-12T18:43:57Z</time>
    </trkpt>
    <trkpt lat="38.54902396" lon="34.975957023">
      <ele>1394.327</ele>
      <time>2021-10-12T18:43:58Z</time>
    </trkpt>
    <trkpt lat="38.549054973" lon="34.975979989">
      <ele>1394.19</ele>
      <time>2021-10-12T18:44:00Z</time>
    </trkpt>
    <trkpt lat="38.549087998" lon="34.976003962">
      <ele>1394.018</ele>
      <time>2021-10-12T18:44:01Z</time>
    </trkpt>
    <trkpt lat="38.549122028" lon="34.976028018">
      <ele>1393.815</ele>
      <time>2021-10-12T18:44:02Z</time>
    </trkpt>
    <trkpt lat="38.549180031" lon="34.976073029">
      <ele>1393.2</ele>
      <time>2021-10-12T18:44:05Z</time>
    </trkpt>
    <trkpt lat="38.54921096" lon="34.976098007">
      <ele>1392.704</ele>
      <time>2021-10-12T18:44:06Z</time>
    </trkpt>
    <trkpt lat="38.549239961" lon="34.976117034">
      <ele>1392.378</ele>
      <time>2021-10-12T18:44:08Z</time>
    </trkpt>
    <trkpt lat="38.549265023" lon="34.976144023">
      <ele>1391.879</ele>
      <time>2021-10-12T18:44:09Z</time>
    </trkpt>
    <trkpt lat="38.549292013" lon="34.976163972">
      <ele>1391.57</ele>
      <time>2021-10-12T18:44:10Z</time>
    </trkpt>
    <trkpt lat="38.549317997" lon="34.976190962">
      <ele>1391.077</ele>
      <time>2021-10-12T18:44:11Z</time>
    </trkpt>
    <trkpt lat="38.549344987" lon="34.976218035">
      <ele>1390.589</ele>
      <time>2021-10-12T18:44:12Z</time>
    </trkpt>
    <trkpt lat="38.549371976" lon="34.976243014">
      <ele>1390.154</ele>
      <time>2021-10-12T18:44:14Z</time>
    </trkpt>
    <trkpt lat="38.549415981" lon="34.976301016">
      <ele>1389.009</ele>
      <time>2021-10-12T18:44:16Z</time>
    </trkpt>
    <trkpt lat="38.549432997" lon="34.976327">
      <ele>1388.477</ele>
      <time>2021-10-12T18:44:17Z</time>
    </trkpt>
    <trkpt lat="38.549456969" lon="34.976347033">
      <ele>1388.287</ele>
      <time>2021-10-12T18:44:18Z</time>
    </trkpt>
    <trkpt lat="38.549483037" lon="34.976365976">
      <ele>1388.284</ele>
      <time>2021-10-12T18:44:19Z</time>
    </trkpt>
    <trkpt lat="38.549564006" lon="34.976423979">
      <ele>1388.268</ele>
      <time>2021-10-12T18:44:23Z</time>
    </trkpt>
    <trkpt lat="38.549656039" lon="34.976449963">
      <ele>1389.27</ele>
      <time>2021-10-12T18:44:26Z</time>
    </trkpt>
    <trkpt lat="38.549756035" lon="34.976467984">
      <ele>1390.79</ele>
      <time>2021-10-12T18:44:30Z</time>
    </trkpt>
    <trkpt lat="38.549852008" lon="34.976531016">
      <ele>1391.211</ele>
      <time>2021-10-12T18:44:34Z</time>
    </trkpt>
    <trkpt lat="38.549884027" lon="34.976559011">
      <ele>1391.077</ele>
      <time>2021-10-12T18:44:35Z</time>
    </trkpt>
    <trkpt lat="38.54991504" lon="34.97659103">
      <ele>1390.755</ele>
      <time>2021-10-12T18:44:37Z</time>
    </trkpt>
    <trkpt lat="38.549949992" lon="34.976662025">
      <ele>1389.244</ele>
      <time>2021-10-12T18:44:39Z</time>
    </trkpt>
    <trkpt lat="38.549964996" lon="34.976698989">
      <ele>1388.526</ele>
      <time>2021-10-12T18:44:40Z</time>
    </trkpt>
    <trkpt lat="38.549984023" lon="34.976779958">
      <ele>1386.811</ele>
      <time>2021-10-12T18:44:43Z</time>
    </trkpt>
    <trkpt lat="38.549997015" lon="34.976855982">
      <ele>1385.161</ele>
      <time>2021-10-12T18:44:45Z</time>
    </trkpt>
    <trkpt lat="38.550019981" lon="34.976926977">
      <ele>1383.953</ele>
      <time>2021-10-12T18:44:47Z</time>
    </trkpt>
    <trkpt lat="38.550033979" lon="34.97696897">
      <ele>1383.062</ele>
      <time>2021-10-12T18:44:49Z</time>
    </trkpt>
    <trkpt lat="38.550044037" lon="34.977010041">
      <ele>1381.984</ele>
      <time>2021-10-12T18:44:50Z</time>
    </trkpt>
    <trkpt lat="38.550057029" lon="34.977048011">
      <ele>1381.082</ele>
      <time>2021-10-12T18:44:51Z</time>
    </trkpt>
    <trkpt lat="38.550067004" lon="34.977085982">
      <ele>1380.103</ele>
      <time>2021-10-12T18:44:52Z</time>
    </trkpt>
    <trkpt lat="38.550076978" lon="34.977125041">
      <ele>1379.089</ele>
      <time>2021-10-12T18:44:53Z</time>
    </trkpt>
    <trkpt lat="38.550088964" lon="34.977159994">
      <ele>1378.258</ele>
      <time>2021-10-12T18:44:55Z</time>
    </trkpt>
    <trkpt lat="38.55010598" lon="34.977194024">
      <ele>1377.584</ele>
      <time>2021-10-12T18:44:56Z</time>
    </trkpt>
    <trkpt lat="38.550139004" lon="34.977260996">
      <ele>1376.456</ele>
      <time>2021-10-12T18:44:58Z</time>
    </trkpt>
    <trkpt lat="38.550157025" lon="34.977297038">
      <ele>1375.919</ele>
      <time>2021-10-12T18:44:59Z</time>
    </trkpt>
    <trkpt lat="38.55017798" lon="34.977334002">
      <ele>1375.41</ele>
      <time>2021-10-12T18:45:01Z</time>
    </trkpt>
    <trkpt lat="38.550202036" lon="34.977368033">
      <ele>1375.035</ele>
      <time>2021-10-12T18:45:02Z</time>
    </trkpt>
    <trkpt lat="38.550252998" lon="34.977426035">
      <ele>1374.571</ele>
      <time>2021-10-12T18:45:04Z</time>
    </trkpt>
    <trkpt lat="38.550280994" lon="34.977455959">
      <ele>1374.332</ele>
      <time>2021-10-12T18:45:06Z</time>
    </trkpt>
    <trkpt lat="38.550335979" lon="34.977507005">
      <ele>1373.841</ele>
      <time>2021-10-12T18:45:08Z</time>
    </trkpt>
    <trkpt lat="38.550365986" lon="34.977529971">
      <ele>1373.69</ele>
      <time>2021-10-12T18:45:10Z</time>
    </trkpt>
    <trkpt lat="38.550393982" lon="34.977548998">
      <ele>1373.607</ele>
      <time>2021-10-12T18:45:11Z</time>
    </trkpt>
    <trkpt lat="38.550422983" lon="34.977562996">
      <ele>1373.681</ele>
      <time>2021-10-12T18:45:12Z</time>
    </trkpt>
    <trkpt lat="38.550455002" lon="34.977586968">
      <ele>1373.486</ele>
      <time>2021-10-12T18:45:13Z</time>
    </trkpt>
    <trkpt lat="38.550487021" lon="34.977603983">
      <ele>1373.49</ele>
      <time>2021-10-12T18:45:15Z</time>
    </trkpt>
    <trkpt lat="38.550519962" lon="34.977622004">
      <ele>1373.463</ele>
      <time>2021-10-12T18:45:16Z</time>
    </trkpt>
    <trkpt lat="38.550548963" lon="34.977636002">
      <ele>1373.486</ele>
      <time>2021-10-12T18:45:17Z</time>
    </trkpt>
    <trkpt lat="38.550581988" lon="34.977647988">
      <ele>1373.58</ele>
      <time>2021-10-12T18:45:18Z</time>
    </trkpt>
    <trkpt lat="38.550614007" lon="34.977662992">
      <ele>1373.524</ele>
      <time>2021-10-12T18:45:20Z</time>
    </trkpt>
    <trkpt lat="38.550637979" lon="34.977681013">
      <ele>1373.232</ele>
      <time>2021-10-12T18:45:21Z</time>
    </trkpt>
    <trkpt lat="38.550668992" lon="34.977686964">
      <ele>1373.435</ele>
      <time>2021-10-12T18:45:22Z</time>
    </trkpt>
    <trkpt lat="38.550696988" lon="34.977686964">
      <ele>1373.803</ele>
      <time>2021-10-12T18:45:23Z</time>
    </trkpt>
    <trkpt lat="38.550730012" lon="34.977690987">
      <ele>1374.089</ele>
      <time>2021-10-12T18:45:24Z</time>
    </trkpt>
    <trkpt lat="38.550763037" lon="34.97770004">
      <ele>1374.178</ele>
      <time>2021-10-12T18:45:25Z</time>
    </trkpt>
    <trkpt lat="38.550792038" lon="34.977702973">
      <ele>1374.436</ele>
      <time>2021-10-12T18:45:26Z</time>
    </trkpt>
    <trkpt lat="38.550823973" lon="34.977709008">
      <ele>1374.606</ele>
      <time>2021-10-12T18:45:28Z</time>
    </trkpt>
    <trkpt lat="38.550856998" lon="34.977716971">
      <ele>1374.882</ele>
      <time>2021-10-12T18:45:29Z</time>
    </trkpt>
    <trkpt lat="38.550889017" lon="34.977727029">
      <ele>1375.139</ele>
      <time>2021-10-12T18:45:30Z</time>
    </trkpt>
    <trkpt lat="38.550918018" lon="34.977739016">
      <ele>1375.279</ele>
      <time>2021-10-12T18:45:31Z</time>
    </trkpt>
    <trkpt lat="38.550948026" lon="34.977758965">
      <ele>1375.166</ele>
      <time>2021-10-12T18:45:32Z</time>
    </trkpt>
    <trkpt lat="38.550978033" lon="34.977780003">
      <ele>1375.049</ele>
      <time>2021-10-12T18:45:34Z</time>
    </trkpt>
    <trkpt lat="38.551007034" lon="34.97781001">
      <ele>1374.635</ele>
      <time>2021-10-12T18:45:35Z</time>
    </trkpt>
    <trkpt lat="38.551037041" lon="34.977840018">
      <ele>1374.219</ele>
      <time>2021-10-12T18:45:36Z</time>
    </trkpt>
    <trkpt lat="38.551115999" lon="34.977943031">
      <ele>1372.149</ele>
      <time>2021-10-12T18:45:41Z</time>
    </trkpt>
    <trkpt lat="38.551139971" lon="34.977983013">
      <ele>1371.208</ele>
      <time>2021-10-12T18:45:42Z</time>
    </trkpt>
    <trkpt lat="38.551165033" lon="34.97801696">
      <ele>1370.527</ele>
      <time>2021-10-12T18:45:43Z</time>
    </trkpt>
    <trkpt lat="38.551241979" lon="34.978113016">
      <ele>1368.868</ele>
      <time>2021-10-12T18:45:47Z</time>
    </trkpt>
    <trkpt lat="38.551265029" lon="34.978144029">
      <ele>1368.282</ele>
      <time>2021-10-12T18:45:49Z</time>
    </trkpt>
    <trkpt lat="38.55128699" lon="34.978174958">
      <ele>1367.658</ele>
      <time>2021-10-12T18:45:50Z</time>
    </trkpt>
    <trkpt lat="38.551304005" lon="34.978202032">
      <ele>1367.054</ele>
      <time>2021-10-12T18:45:51Z</time>
    </trkpt>
    <trkpt lat="38.55132496" lon="34.978223993">
      <ele>1366.695</ele>
      <time>2021-10-12T18:45:52Z</time>
    </trkpt>
    <trkpt lat="38.551353039" lon="34.978246037">
      <ele>1366.457</ele>
      <time>2021-10-12T18:45:53Z</time>
    </trkpt>
    <trkpt lat="38.551377011" lon="34.978271015">
      <ele>1366.02</ele>
      <time>2021-10-12T18:45:54Z</time>
    </trkpt>
    <trkpt lat="38.551404001" lon="34.978301022">
      <ele>1365.429</ele>
      <time>2021-10-12T18:45:56Z</time>
    </trkpt>
    <trkpt lat="38.551428979" lon="34.978330024">
      <ele>1364.839</ele>
      <time>2021-10-12T18:45:57Z</time>
    </trkpt>
    <trkpt lat="38.551506009" lon="34.978423985">
      <ele>1363.033</ele>
      <time>2021-10-12T18:46:01Z</time>
    </trkpt>
    <trkpt lat="38.55157801" lon="34.978508977">
      <ele>1361.283</ele>
      <time>2021-10-12T18:46:04Z</time>
    </trkpt>
    <trkpt lat="38.551651016" lon="34.978587013">
      <ele>1359.637</ele>
      <time>2021-10-12T18:46:08Z</time>
    </trkpt>
    <trkpt lat="38.55172704" lon="34.978674017">
      <ele>1357.97</ele>
      <time>2021-10-12T18:46:12Z</time>
    </trkpt>
    <trkpt lat="38.551776996" lon="34.978778958">
      <ele>1355.663</ele>
      <time>2021-10-12T18:46:15Z</time>
    </trkpt>
    <trkpt lat="38.551827036" lon="34.978888007">
      <ele>1353.645</ele>
      <time>2021-10-12T18:46:19Z</time>
    </trkpt>
    <trkpt lat="38.551883027" lon="34.979010969">
      <ele>1351.373</ele>
      <time>2021-10-12T18:46:23Z</time>
    </trkpt>
    <trkpt lat="38.551937006" lon="34.979123035">
      <ele>1349.222</ele>
      <time>2021-10-12T18:46:27Z</time>
    </trkpt>
    <trkpt lat="38.551991992" lon="34.979228983">
      <ele>1346.68</ele>
      <time>2021-10-12T18:46:31Z</time>
    </trkpt>
    <trkpt lat="38.55207799" lon="34.979331996">
      <ele>1344.395</ele>
      <time>2021-10-12T18:46:35Z</time>
    </trkpt>
    <trkpt lat="38.552167006" lon="34.979378013">
      <ele>1343.707</ele>
      <time>2021-10-12T18:46:39Z</time>
    </trkpt>
    <trkpt lat="38.552297009" lon="34.979379019">
      <ele>1343.851</ele>
      <time>2021-10-12T18:46:43Z</time>
    </trkpt>
    <trkpt lat="38.552360041" lon="34.979353035">
      <ele>1344.466</ele>
      <time>2021-10-12T18:46:46Z</time>
    </trkpt>
    <trkpt lat="38.552462971" lon="34.979291009">
      <ele>1346.105</ele>
      <time>2021-10-12T18:46:50Z</time>
    </trkpt>
    <trkpt lat="38.552547041" lon="34.979216997">
      <ele>1348.339</ele>
      <time>2021-10-12T18:46:54Z</time>
    </trkpt>
    <trkpt lat="38.552628011" lon="34.979141979">
      <ele>1350.759</ele>
      <time>2021-10-12T18:46:58Z</time>
    </trkpt>
    <trkpt lat="38.552728007" lon="34.979119012">
      <ele>1351.403</ele>
      <time>2021-10-12T18:47:01Z</time>
    </trkpt>
    <trkpt lat="38.552844012" lon="34.97916704">
      <ele>1350.702</ele>
      <time>2021-10-12T18:47:06Z</time>
    </trkpt>
    <trkpt lat="38.552940991" lon="34.979262007">
      <ele>1348.33</ele>
      <time>2021-10-12T18:47:10Z</time>
    </trkpt>
    <trkpt lat="38.553029001" lon="34.979371978">
      <ele>1345.322</ele>
      <time>2021-10-12T18:47:15Z</time>
    </trkpt>
    <trkpt lat="38.553116005" lon="34.979464011">
      <ele>1343.454</ele>
      <time>2021-10-12T18:47:19Z</time>
    </trkpt>
    <trkpt lat="38.553175014" lon="34.979574988">
      <ele>1340.921</ele>
      <time>2021-10-12T18:47:23Z</time>
    </trkpt>
    <trkpt lat="38.553196974" lon="34.979700968">
      <ele>1337.234</ele>
      <time>2021-10-12T18:47:27Z</time>
    </trkpt>
    <trkpt lat="38.553228993" lon="34.97982502">
      <ele>1334.392</ele>
      <time>2021-10-12T18:47:31Z</time>
    </trkpt>
    <trkpt lat="38.55328599" lon="34.97992401">
      <ele>1332.939</ele>
      <time>2021-10-12T18:47:34Z</time>
    </trkpt>
    <trkpt lat="38.55336302" lon="34.98000104">
      <ele>1332.28</ele>
      <time>2021-10-12T18:47:38Z</time>
    </trkpt>
    <trkpt lat="38.553448012" lon="34.980067005">
      <ele>1330.784</ele>
      <time>2021-10-12T18:47:41Z</time>
    </trkpt>
    <trkpt lat="38.553541973" lon="34.980131965">
      <ele>1329.741</ele>
      <time>2021-10-12T18:47:45Z</time>
    </trkpt>
    <trkpt lat="38.553635012" lon="34.980186028">
      <ele>1328.887</ele>
      <time>2021-10-12T18:47:49Z</time>
    </trkpt>
    <trkpt lat="38.553723022" lon="34.980237996">
      <ele>1326.886</ele>
      <time>2021-10-12T18:47:53Z</time>
    </trkpt>
    <trkpt lat="38.553799968" lon="34.98030304">
      <ele>1324.443</ele>
      <time>2021-10-12T18:47:56Z</time>
    </trkpt>
    <trkpt lat="38.553895019" lon="34.980361965">
      <ele>1322.248</ele>
      <time>2021-10-12T18:48:00Z</time>
    </trkpt>
    <trkpt lat="38.553983029" lon="34.980409993">
      <ele>1320.522</ele>
      <time>2021-10-12T18:48:04Z</time>
    </trkpt>
    <trkpt lat="38.554079002" lon="34.980461961">
      <ele>1319.025</ele>
      <time>2021-10-12T18:48:07Z</time>
    </trkpt>
    <trkpt lat="38.554163994" lon="34.980506971">
      <ele>1318.045</ele>
      <time>2021-10-12T18:48:11Z</time>
    </trkpt>
    <trkpt lat="38.554255022" lon="34.980550976">
      <ele>1317.74</ele>
      <time>2021-10-12T18:48:14Z</time>
    </trkpt>
    <trkpt lat="38.554350995" lon="34.980617026">
      <ele>1317.146</ele>
      <time>2021-10-12T18:48:18Z</time>
    </trkpt>
    <trkpt lat="38.554441016" lon="34.980702018">
      <ele>1316.332</ele>
      <time>2021-10-12T18:48:23Z</time>
    </trkpt>
    <trkpt lat="38.55451704" lon="34.980788017">
      <ele>1315.6</ele>
      <time>2021-10-12T18:48:26Z</time>
    </trkpt>
    <trkpt lat="38.554593986" lon="34.980873009">
      <ele>1315.044</ele>
      <time>2021-10-12T18:48:30Z</time>
    </trkpt>
    <trkpt lat="38.554666992" lon="34.980958002">
      <ele>1314.608</ele>
      <time>2021-10-12T18:48:34Z</time>
    </trkpt>
    <trkpt lat="38.554741004" lon="34.981040983">
      <ele>1314.145</ele>
      <time>2021-10-12T18:48:37Z</time>
    </trkpt>
    <trkpt lat="38.554809988" lon="34.981123041">
      <ele>1313.433</ele>
      <time>2021-10-12T18:48:41Z</time>
    </trkpt>
    <trkpt lat="38.554891963" lon="34.981211973">
      <ele>1312.326</ele>
      <time>2021-10-12T18:48:45Z</time>
    </trkpt>
    <trkpt lat="38.554967986" lon="34.981293026">
      <ele>1310.991</ele>
      <time>2021-10-12T18:48:49Z</time>
    </trkpt>
    <trkpt lat="38.555049961" lon="34.981376007">
      <ele>1309.621</ele>
      <time>2021-10-12T18:48:52Z</time>
    </trkpt>
    <trkpt lat="38.555133026" lon="34.981443984">
      <ele>1309.164</ele>
      <time>2021-10-12T18:48:56Z</time>
    </trkpt>
    <trkpt lat="38.55523604" lon="34.981538029">
      <ele>1308.552</ele>
      <time>2021-10-12T18:49:01Z</time>
    </trkpt>
    <trkpt lat="38.55528499" lon="34.981591003">
      <ele>1308.134</ele>
      <time>2021-10-12T18:49:03Z</time>
    </trkpt>
    <trkpt lat="38.555367971" lon="34.981697034">
      <ele>1307.283</ele>
      <time>2021-10-12T18:49:08Z</time>
    </trkpt>
    <trkpt lat="38.555433014" lon="34.981781021">
      <ele>1306.931</ele>
      <time>2021-10-12T18:49:11Z</time>
    </trkpt>
    <trkpt lat="38.555505015" lon="34.981897026">
      <ele>1306.676</ele>
      <time>2021-10-12T18:49:15Z</time>
    </trkpt>
    <trkpt lat="38.555571986" lon="34.981997022">
      <ele>1306.74</ele>
      <time>2021-10-12T18:49:19Z</time>
    </trkpt>
    <trkpt lat="38.555644993" lon="34.98210297">
      <ele>1306.503</ele>
      <time>2021-10-12T18:49:23Z</time>
    </trkpt>
    <trkpt lat="38.555708025" lon="34.982215036">
      <ele>1306.15</ele>
      <time>2021-10-12T18:49:27Z</time>
    </trkpt>
    <trkpt lat="38.555766027" lon="34.982330035">
      <ele>1305.445</ele>
      <time>2021-10-12T18:49:31Z</time>
    </trkpt>
    <trkpt lat="38.55585102" lon="34.982437994">
      <ele>1304.783</ele>
      <time>2021-10-12T18:49:36Z</time>
    </trkpt>
    <trkpt lat="38.55591204" lon="34.982524998">
      <ele>1304.246</ele>
      <time>2021-10-12T18:49:39Z</time>
    </trkpt>
    <trkpt lat="38.555986974" lon="34.98261502">
      <ele>1303.406</ele>
      <time>2021-10-12T18:49:43Z</time>
    </trkpt>
    <trkpt lat="38.556085965" lon="34.982685009">
      <ele>1302.609</ele>
      <time>2021-10-12T18:49:47Z</time>
    </trkpt>
    <trkpt lat="38.556193002" lon="34.982678974">
      <ele>1302.569</ele>
      <time>2021-10-12T18:49:51Z</time>
    </trkpt>
    <trkpt lat="38.556304984" lon="34.982632035">
      <ele>1302.891</ele>
      <time>2021-10-12T18:49:55Z</time>
    </trkpt>
    <trkpt lat="38.556423001" lon="34.982662965">
      <ele>1302.312</ele>
      <time>2021-10-12T18:50:00Z</time>
    </trkpt>
    <trkpt lat="38.556491984" lon="34.982737983">
      <ele>1301.748</ele>
      <time>2021-10-12T18:50:03Z</time>
    </trkpt>
    <trkpt lat="38.556558033" lon="34.982850971">
      <ele>1300.876</ele>
      <time>2021-10-12T18:50:07Z</time>
    </trkpt>
    <trkpt lat="38.556636991" lon="34.982906962">
      <ele>1300.864</ele>
      <time>2021-10-12T18:50:11Z</time>
    </trkpt>
    <trkpt lat="38.55671796" lon="34.982962031">
      <ele>1301.474</ele>
      <time>2021-10-12T18:50:14Z</time>
    </trkpt>
    <trkpt lat="38.556817034" lon="34.982959013">
      <ele>1303.049</ele>
      <time>2021-10-12T18:50:18Z</time>
    </trkpt>
    <trkpt lat="38.556916025" lon="34.982941998">
      <ele>1304.775</ele>
      <time>2021-10-12T18:50:21Z</time>
    </trkpt>
    <trkpt lat="38.557017026" lon="34.982949039">
      <ele>1305.673</ele>
      <time>2021-10-12T18:50:25Z</time>
    </trkpt>
    <trkpt lat="38.55712004" lon="34.983006036">
      <ele>1305.799</ele>
      <time>2021-10-12T18:50:29Z</time>
    </trkpt>
    <trkpt lat="38.557216013" lon="34.983088011">
      <ele>1305.485</ele>
      <time>2021-10-12T18:50:34Z</time>
    </trkpt>
    <trkpt lat="38.55728399" lon="34.98316898">
      <ele>1304.902</ele>
      <time>2021-10-12T18:50:37Z</time>
    </trkpt>
    <trkpt lat="38.557384992" lon="34.983279034">
      <ele>1304.425</ele>
      <time>2021-10-12T18:50:42Z</time>
    </trkpt>
    <trkpt lat="38.557450036" lon="34.983372996">
      <ele>1304.032</ele>
      <time>2021-10-12T18:50:46Z</time>
    </trkpt>
    <trkpt lat="38.557492029" lon="34.983436028">
      <ele>1303.805</ele>
      <time>2021-10-12T18:50:48Z</time>
    </trkpt>
    <trkpt lat="38.557547014" lon="34.983539041">
      <ele>1302.992</ele>
      <time>2021-10-12T18:50:52Z</time>
    </trkpt>
    <trkpt lat="38.557598982" lon="34.983679019">
      <ele>1301.553</ele>
      <time>2021-10-12T18:50:56Z</time>
    </trkpt>
    <trkpt lat="38.557658996" lon="34.983769041">
      <ele>1300.949</ele>
      <time>2021-10-12T18:50:59Z</time>
    </trkpt>
    <trkpt lat="38.557720017" lon="34.983855961">
      <ele>1300.663</ele>
      <time>2021-10-12T18:51:03Z</time>
    </trkpt>
    <trkpt lat="38.557802998" lon="34.983915975">
      <ele>1300.537</ele>
      <time>2021-10-12T18:51:06Z</time>
    </trkpt>
    <trkpt lat="38.557900982" lon="34.983998034">
      <ele>1299.333</ele>
      <time>2021-10-12T18:51:11Z</time>
    </trkpt>
    <trkpt lat="38.557995027" lon="34.984076992">
      <ele>1298.568</ele>
      <time>2021-10-12T18:51:15Z</time>
    </trkpt>
    <trkpt lat="38.558080019" lon="34.984127032">
      <ele>1298.273</ele>
      <time>2021-10-12T18:51:18Z</time>
    </trkpt>
    <trkpt lat="38.558175992" lon="34.98417397">
      <ele>1297.947</ele>
      <time>2021-10-12T18:51:22Z</time>
    </trkpt>
    <trkpt lat="38.558258973" lon="34.984252006">
      <ele>1297.386</ele>
      <time>2021-10-12T18:51:26Z</time>
    </trkpt>
    <trkpt lat="38.558282023" lon="34.984285031">
      <ele>1297.148</ele>
      <time>2021-10-12T18:51:27Z</time>
    </trkpt>
    <trkpt lat="38.558303984" lon="34.98431596">
      <ele>1296.925</ele>
      <time>2021-10-12T18:51:28Z</time>
    </trkpt>
    <trkpt lat="38.558322005" lon="34.984353008">
      <ele>1296.658</ele>
      <time>2021-10-12T18:51:30Z</time>
    </trkpt>
    <trkpt lat="38.558333991" lon="34.984392989">
      <ele>1296.375</ele>
      <time>2021-10-12T18:51:31Z</time>
    </trkpt>
    <trkpt lat="38.558344971" lon="34.984431965">
      <ele>1296.174</ele>
      <time>2021-10-12T18:51:32Z</time>
    </trkpt>
    <trkpt lat="38.558365004" lon="34.984468007">
      <ele>1296.134</ele>
      <time>2021-10-12T18:51:33Z</time>
    </trkpt>
    <trkpt lat="38.558377996" lon="34.98450296">
      <ele>1296.077</ele>
      <time>2021-10-12T18:51:35Z</time>
    </trkpt>
    <trkpt lat="38.558393" lon="34.984536991">
      <ele>1296.025</ele>
      <time>2021-10-12T18:51:36Z</time>
    </trkpt>
    <trkpt lat="38.558410015" lon="34.984569009">
      <ele>1295.98</ele>
      <time>2021-10-12T18:51:37Z</time>
    </trkpt>
    <trkpt lat="38.558426024" lon="34.984605974">
      <ele>1295.892</ele>
      <time>2021-10-12T18:51:38Z</time>
    </trkpt>
    <trkpt lat="38.55848101" lon="34.98474">
      <ele>1295.37</ele>
      <time>2021-10-12T18:51:42Z</time>
    </trkpt>
    <trkpt lat="38.558496013" lon="34.984767996">
      <ele>1295.16</ele>
      <time>2021-10-12T18:51:43Z</time>
    </trkpt>
    <trkpt lat="38.558507999" lon="34.984799009">
      <ele>1294.902</ele>
      <time>2021-10-12T18:51:44Z</time>
    </trkpt>
    <trkpt lat="38.558520991" lon="34.984833039">
      <ele>1294.608</ele>
      <time>2021-10-12T18:51:46Z</time>
    </trkpt>
    <trkpt lat="38.558588969" lon="34.984931024">
      <ele>1293.725</ele>
      <time>2021-10-12T18:51:49Z</time>
    </trkpt>
    <trkpt lat="38.558674967" lon="34.985006964">
      <ele>1293.883</ele>
      <time>2021-10-12T18:51:53Z</time>
    </trkpt>
    <trkpt lat="38.558735987" lon="34.985112995">
      <ele>1294.026</ele>
      <time>2021-10-12T18:51:57Z</time>
    </trkpt>
    <trkpt lat="38.558817962" lon="34.985217014">
      <ele>1294.034</ele>
      <time>2021-10-12T18:52:01Z</time>
    </trkpt>
    <trkpt lat="38.558890969" lon="34.985285997">
      <ele>1293.933</ele>
      <time>2021-10-12T18:52:05Z</time>
    </trkpt>
    <trkpt lat="38.559008986" lon="34.985312987">
      <ele>1294.807</ele>
      <time>2021-10-12T18:52:09Z</time>
    </trkpt>
    <trkpt lat="38.559081992" lon="34.98530603">
      <ele>1295.639</ele>
      <time>2021-10-12T18:52:12Z</time>
    </trkpt>
    <trkpt lat="38.559189029" lon="34.985341989">
      <ele>1295.863</ele>
      <time>2021-10-12T18:52:16Z</time>
    </trkpt>
    <trkpt lat="38.559288019" lon="34.985365961">
      <ele>1295.551</ele>
      <time>2021-10-12T18:52:20Z</time>
    </trkpt>
    <trkpt lat="38.559406037" lon="34.985379959">
      <ele>1295.478</ele>
      <time>2021-10-12T18:52:24Z</time>
    </trkpt>
    <trkpt lat="38.55943596" lon="34.985390017">
      <ele>1295.371</ele>
      <time>2021-10-12T18:52:25Z</time>
    </trkpt>
    <trkpt lat="38.559518019" lon="34.985434022">
      <ele>1294.75</ele>
      <time>2021-10-12T18:52:28Z</time>
    </trkpt>
    <trkpt lat="38.559544003" lon="34.985445002">
      <ele>1294.592</ele>
      <time>2021-10-12T18:52:30Z</time>
    </trkpt>
    <trkpt lat="38.559648022" lon="34.985479033">
      <ele>1294.102</ele>
      <time>2021-10-12T18:52:33Z</time>
    </trkpt>
    <trkpt lat="38.559732009" lon="34.985575005">
      <ele>1292.858</ele>
      <time>2021-10-12T18:52:38Z</time>
    </trkpt>
    <trkpt lat="38.559762016" lon="34.985688999">
      <ele>1291.777</ele>
      <time>2021-10-12T18:52:41Z</time>
    </trkpt>
    <trkpt lat="38.559804009" lon="34.985812968">
      <ele>1290.536</ele>
      <time>2021-10-12T18:52:45Z</time>
    </trkpt>
    <trkpt lat="38.559878021" lon="34.98589796">
      <ele>1289.732</ele>
      <time>2021-10-12T18:52:49Z</time>
    </trkpt>
    <trkpt lat="38.559970977" lon="34.985935008">
      <ele>1289.47</ele>
      <time>2021-10-12T18:52:52Z</time>
    </trkpt>
    <trkpt lat="38.560024034" lon="34.985990999">
      <ele>1288.828</ele>
      <time>2021-10-12T18:52:55Z</time>
    </trkpt>
    <trkpt lat="38.559976473" lon="34.986133931">
      <ele>1286.836</ele>
      <time>2021-10-12T18:52:59Z</time>
    </trkpt>
    <trkpt lat="38.55994538" lon="34.986255732">
      <ele>1285.959</ele>
      <time>2021-10-12T18:53:03Z</time>
    </trkpt>
    <trkpt lat="38.560070871" lon="34.986518075">
      <ele>1283.14</ele>
      <time>2021-10-12T18:53:12Z</time>
    </trkpt>
    <trkpt lat="38.560090071" lon="34.986436801">
      <ele>1284.31</ele>
      <time>2021-10-12T18:53:15Z</time>
    </trkpt>
    <trkpt lat="38.560161607" lon="34.986449998">
      <ele>1284.12</ele>
      <time>2021-10-12T18:53:17Z</time>
    </trkpt>
    <trkpt lat="38.560338695" lon="34.986411483">
      <ele>1284.473</ele>
      <time>2021-10-12T18:53:24Z</time>
    </trkpt>
    <trkpt lat="38.560397384" lon="34.986392758">
      <ele>1284.52</ele>
      <time>2021-10-12T18:53:26Z</time>
    </trkpt>
    <trkpt lat="38.560518986" lon="34.986367011">
      <ele>1284.378</ele>
      <time>2021-10-12T18:53:31Z</time>
    </trkpt>
    <trkpt lat="38.560571037" lon="34.986268021">
      <ele>1285.225</ele>
      <time>2021-10-12T18:53:34Z</time>
    </trkpt>
    <trkpt lat="38.560600039" lon="34.98614003">
      <ele>1286.384</ele>
      <time>2021-10-12T18:53:38Z</time>
    </trkpt>
    <trkpt lat="38.560627028" lon="34.986018995">
      <ele>1287.234</ele>
      <time>2021-10-12T18:53:42Z</time>
    </trkpt>
    <trkpt lat="38.560612025" lon="34.985903995">
      <ele>1288.236</ele>
      <time>2021-10-12T18:53:45Z</time>
    </trkpt>
    <trkpt lat="38.560579" lon="34.985781033">
      <ele>1289.496</ele>
      <time>2021-10-12T18:53:49Z</time>
    </trkpt>
    <trkpt lat="38.560571037" lon="34.985755971">
      <ele>1289.795</ele>
      <time>2021-10-12T18:53:50Z</time>
    </trkpt>
    <trkpt lat="38.560562991" lon="34.985727975">
      <ele>1290.121</ele>
      <time>2021-10-12T18:53:50Z</time>
    </trkpt>
    <trkpt lat="38.56055201" lon="34.98569604">
      <ele>1290.508</ele>
      <time>2021-10-12T18:53:51Z</time>
    </trkpt>
    <trkpt lat="38.560542036" lon="34.985667039">
      <ele>1290.893</ele>
      <time>2021-10-12T18:53:52Z</time>
    </trkpt>
    <trkpt lat="38.560531978" lon="34.985636026">
      <ele>1291.301</ele>
      <time>2021-10-12T18:53:53Z</time>
    </trkpt>
    <trkpt lat="38.560523009" lon="34.985610042">
      <ele>1291.646</ele>
      <time>2021-10-12T18:53:54Z</time>
    </trkpt>
    <trkpt lat="38.560513034" lon="34.985582968">
      <ele>1292.01</ele>
      <time>2021-10-12T18:53:55Z</time>
    </trkpt>
    <trkpt lat="38.560498031" lon="34.985561008">
      <ele>1292.355</ele>
      <time>2021-10-12T18:53:56Z</time>
    </trkpt>
    <trkpt lat="38.56048001" lon="34.985546004">
      <ele>1292.656</ele>
      <time>2021-10-12T18:53:57Z</time>
    </trkpt>
    <trkpt lat="38.560466012" lon="34.985527983">
      <ele>1292.974</ele>
      <time>2021-10-12T18:53:57Z</time>
    </trkpt>
    <trkpt lat="38.560383031" lon="34.985453971">
      <ele>1294.566</ele>
      <time>2021-10-12T18:54:01Z</time>
    </trkpt>
    <trkpt lat="38.560280018" lon="34.985434022">
      <ele>1295.73</ele>
      <time>2021-10-12T18:54:05Z</time>
    </trkpt>
    <trkpt lat="38.560168035" lon="34.985398985">
      <ele>1296.427</ele>
      <time>2021-10-12T18:54:09Z</time>
    </trkpt>
    <trkpt lat="38.560068039" lon="34.985359004">
      <ele>1297.051</ele>
      <time>2021-10-12T18:54:13Z</time>
    </trkpt>
    <trkpt lat="38.560055969" lon="34.985341989">
      <ele>1297.26</ele>
      <time>2021-10-12T18:54:14Z</time>
    </trkpt>
    <trkpt lat="38.560045995" lon="34.985319022">
      <ele>1297.53</ele>
      <time>2021-10-12T18:54:15Z</time>
    </trkpt>
    <trkpt lat="38.56003996" lon="34.98519497">
      <ele>1298.937</ele>
      <time>2021-10-12T18:54:18Z</time>
    </trkpt>
    <trkpt lat="38.56002504" lon="34.985069996">
      <ele>1300.311</ele>
      <time>2021-10-12T18:54:22Z</time>
    </trkpt>
    <trkpt lat="38.560006013" lon="34.985063961">
      <ele>1300.326</ele>
      <time>2021-10-12T18:54:23Z</time>
    </trkpt>
    <trkpt lat="38.55989797" lon="34.985036971">
      <ele>1300.552</ele>
      <time>2021-10-12T18:54:27Z</time>
    </trkpt>
    <trkpt lat="38.559806021" lon="34.985033032">
      <ele>1300.56</ele>
      <time>2021-10-12T18:54:30Z</time>
    </trkpt>
    <trkpt lat="38.55971097" lon="34.984983997">
      <ele>1301.329</ele>
      <time>2021-10-12T18:54:34Z</time>
    </trkpt>
    <trkpt lat="38.559630001" lon="34.98489297">
      <ele>1303.259</ele>
      <time>2021-10-12T18:54:38Z</time>
    </trkpt>
    <trkpt lat="38.559579961" lon="34.984823987">
      <ele>1304.68</ele>
      <time>2021-10-12T18:54:41Z</time>
    </trkpt>
    <trkpt lat="38.559592031" lon="34.984789034">
      <ele>1305.266</ele>
      <time>2021-10-12T18:54:42Z</time>
    </trkpt>
    <trkpt lat="38.559613992" lon="34.984732959">
      <ele>1306.196</ele>
      <time>2021-10-12T18:54:44Z</time>
    </trkpt>
    <trkpt lat="38.559630001" lon="34.984664982">
      <ele>1307.362</ele>
      <time>2021-10-12T18:54:46Z</time>
    </trkpt>
    <trkpt lat="38.559634024" lon="34.984618966">
      <ele>1308.176</ele>
      <time>2021-10-12T18:54:47Z</time>
    </trkpt>
    <trkpt lat="38.559637964" lon="34.984595999">
      <ele>1308.575</ele>
      <time>2021-10-12T18:54:48Z</time>
    </trkpt>
    <trkpt lat="38.559639975" lon="34.984571021">
      <ele>1309.018</ele>
      <time>2021-10-12T18:54:48Z</time>
    </trkpt>
    <trkpt lat="38.559645005" lon="34.984527016">
      <ele>1309.792</ele>
      <time>2021-10-12T18:54:50Z</time>
    </trkpt>
    <trkpt lat="38.559666965" lon="34.984478988">
      <ele>1310.577</ele>
      <time>2021-10-12T18:54:51Z</time>
    </trkpt>
    <trkpt lat="38.55968398" lon="34.984442024">
      <ele>1311.171</ele>
      <time>2021-10-12T18:54:53Z</time>
    </trkpt>
    <trkpt lat="38.559691021" lon="34.984424002">
      <ele>1311.398</ele>
      <time>2021-10-12T18:54:53Z</time>
    </trkpt>
    <trkpt lat="38.559703007" lon="34.984397013">
      <ele>1311.74</ele>
      <time>2021-10-12T18:54:54Z</time>
    </trkpt>
    <trkpt lat="38.559696972" lon="34.984359965">
      <ele>1312.28</ele>
      <time>2021-10-12T18:54:55Z</time>
    </trkpt>
    <trkpt lat="38.559681969" lon="34.984341022">
      <ele>1312.58</ele>
      <time>2021-10-12T18:54:56Z</time>
    </trkpt>
    <trkpt lat="38.55966202" lon="34.984329036">
      <ele>1312.789</ele>
      <time>2021-10-12T18:54:57Z</time>
    </trkpt>
    <trkpt lat="38.559639975" lon="34.984316966">
      <ele>1312.996</ele>
      <time>2021-10-12T18:54:58Z</time>
    </trkpt>
    <trkpt lat="38.559617009" lon="34.984304979">
      <ele>1313.197</ele>
      <time>2021-10-12T18:54:59Z</time>
    </trkpt>
    <trkpt lat="38.559593959" lon="34.984296011">
      <ele>1313.352</ele>
      <time>2021-10-12T18:54:59Z</time>
    </trkpt>
    <trkpt lat="38.559579961" lon="34.98427799">
      <ele>1313.602</ele>
      <time>2021-10-12T18:55:00Z</time>
    </trkpt>
    <trkpt lat="38.559562024" lon="34.984251">
      <ele>1313.961</ele>
      <time>2021-10-12T18:55:01Z</time>
    </trkpt>
    <trkpt lat="38.559545008" lon="34.984234991">
      <ele>1314.173</ele>
      <time>2021-10-12T18:55:02Z</time>
    </trkpt>
    <trkpt lat="38.559546014" lon="34.984202972">
      <ele>1314.56</ele>
      <time>2021-10-12T18:55:03Z</time>
    </trkpt>
    <trkpt lat="38.559554983" lon="34.984171037">
      <ele>1314.947</ele>
      <time>2021-10-12T18:55:04Z</time>
    </trkpt>
    <trkpt lat="38.559565041" lon="34.984146981">
      <ele>1315.265</ele>
      <time>2021-10-12T18:55:05Z</time>
    </trkpt>
    <trkpt lat="38.559577027" lon="34.98412502">
      <ele>1315.586</ele>
      <time>2021-10-12T18:55:05Z</time>
    </trkpt>
    <trkpt lat="38.559581973" lon="34.984102976">
      <ele>1315.913</ele>
      <time>2021-10-12T18:55:06Z</time>
    </trkpt>
    <trkpt lat="38.559576022" lon="34.98407498">
      <ele>1316.286</ele>
      <time>2021-10-12T18:55:07Z</time>
    </trkpt>
    <trkpt lat="38.559559006" lon="34.984044973">
      <ele>1316.599</ele>
      <time>2021-10-12T18:55:08Z</time>
    </trkpt>
    <trkpt lat="38.55953604" lon="34.984014966">
      <ele>1316.813</ele>
      <time>2021-10-12T18:55:09Z</time>
    </trkpt>
    <trkpt lat="38.559521958" lon="34.983998034">
      <ele>1316.892</ele>
      <time>2021-10-12T18:55:10Z</time>
    </trkpt>
    <trkpt lat="38.559507038" lon="34.983978001">
      <ele>1316.971</ele>
      <time>2021-10-12T18:55:11Z</time>
    </trkpt>
    <trkpt lat="38.559492035" lon="34.983950006">
      <ele>1317.094</ele>
      <time>2021-10-12T18:55:12Z</time>
    </trkpt>
    <trkpt lat="38.559478037" lon="34.983906001">
      <ele>1317.331</ele>
      <time>2021-10-12T18:55:13Z</time>
    </trkpt>
    <trkpt lat="38.559472002" lon="34.983883034">
      <ele>1317.544</ele>
      <time>2021-10-12T18:55:14Z</time>
    </trkpt>
    <trkpt lat="38.559464039" lon="34.983856967">
      <ele>1318.087</ele>
      <time>2021-10-12T18:55:15Z</time>
    </trkpt>
    <trkpt lat="38.559454987" lon="34.983831989">
      <ele>1318.586</ele>
      <time>2021-10-12T18:55:15Z</time>
    </trkpt>
    <trkpt lat="38.559444007" lon="34.983806005">
      <ele>1319.082</ele>
      <time>2021-10-12T18:55:16Z</time>
    </trkpt>
    <trkpt lat="38.559435038" lon="34.983777003">
      <ele>1319.663</ele>
      <time>2021-10-12T18:55:17Z</time>
    </trkpt>
    <trkpt lat="38.55942498" lon="34.983751019">
      <ele>1320.125</ele>
      <time>2021-10-12T18:55:18Z</time>
    </trkpt>
    <trkpt lat="38.559411988" lon="34.983726041">
      <ele>1320.479</ele>
      <time>2021-10-12T18:55:19Z</time>
    </trkpt>
    <trkpt lat="38.559400002" lon="34.983698968">
      <ele>1320.868</ele>
      <time>2021-10-12T18:55:20Z</time>
    </trkpt>
    <trkpt lat="38.559384998" lon="34.983669966">
      <ele>1321.2</ele>
      <time>2021-10-12T18:55:21Z</time>
    </trkpt>
    <trkpt lat="38.559354991" lon="34.983616993">
      <ele>1321.625</ele>
      <time>2021-10-12T18:55:23Z</time>
    </trkpt>
    <trkpt lat="38.559326995" lon="34.983561002">
      <ele>1322.227</ele>
      <time>2021-10-12T18:55:25Z</time>
    </trkpt>
    <trkpt lat="38.559314003" lon="34.983535018">
      <ele>1322.502</ele>
      <time>2021-10-12T18:55:26Z</time>
    </trkpt>
    <trkpt lat="38.559302017" lon="34.98351004">
      <ele>1322.771</ele>
      <time>2021-10-12T18:55:26Z</time>
    </trkpt>
    <trkpt lat="38.559291037" lon="34.983481038">
      <ele>1323.153</ele>
      <time>2021-10-12T18:55:27Z</time>
    </trkpt>
    <trkpt lat="38.55928299" lon="34.983453965">
      <ele>1323.563</ele>
      <time>2021-10-12T18:55:28Z</time>
    </trkpt>
    <trkpt lat="38.559273016" lon="34.983429993">
      <ele>1323.842</ele>
      <time>2021-10-12T18:55:29Z</time>
    </trkpt>
    <trkpt lat="38.559263963" lon="34.983403003">
      <ele>1324.209</ele>
      <time>2021-10-12T18:55:30Z</time>
    </trkpt>
    <trkpt lat="38.559254995" lon="34.983377019">
      <ele>1324.55</ele>
      <time>2021-10-12T18:55:31Z</time>
    </trkpt>
    <trkpt lat="38.55924896" lon="34.983345">
      <ele>1325.106</ele>
      <time>2021-10-12T18:55:32Z</time>
    </trkpt>
    <trkpt lat="38.559240997" lon="34.983317005">
      <ele>1325.462</ele>
      <time>2021-10-12T18:55:32Z</time>
    </trkpt>
    <trkpt lat="38.559232028" lon="34.983295966">
      <ele>1325.626</ele>
      <time>2021-10-12T18:55:33Z</time>
    </trkpt>
    <trkpt lat="38.559230017" lon="34.983270988">
      <ele>1326.069</ele>
      <time>2021-10-12T18:55:34Z</time>
    </trkpt>
    <trkpt lat="38.559231022" lon="34.98324601">
      <ele>1326.594</ele>
      <time>2021-10-12T18:55:35Z</time>
    </trkpt>
    <trkpt lat="38.559235968" lon="34.983222038">
      <ele>1327.2</ele>
      <time>2021-10-12T18:55:35Z</time>
    </trkpt>
    <trkpt lat="38.559247032" lon="34.983198987">
      <ele>1327.937</ele>
      <time>2021-10-12T18:55:36Z</time>
    </trkpt>
    <trkpt lat="38.559263963" lon="34.983183984">
      <ele>1328.651</ele>
      <time>2021-10-12T18:55:37Z</time>
    </trkpt>
    <trkpt lat="38.559355997" lon="34.983200999">
      <ele>1330.662</ele>
      <time>2021-10-12T18:55:40Z</time>
    </trkpt>
    <trkpt lat="38.559456998" lon="34.983231006">
      <ele>1332.654</ele>
      <time>2021-10-12T18:55:44Z</time>
    </trkpt>
    <trkpt lat="38.559550038" lon="34.983264031">
      <ele>1333.518</ele>
      <time>2021-10-12T18:55:48Z</time>
    </trkpt>
    <trkpt lat="38.559651962" lon="34.983305018">
      <ele>1334.396</ele>
      <time>2021-10-12T18:55:52Z</time>
    </trkpt>
    <trkpt lat="38.559674006" lon="34.983311975">
      <ele>1334.613</ele>
      <time>2021-10-12T18:55:53Z</time>
    </trkpt>
    <trkpt lat="38.559693033" lon="34.983319016">
      <ele>1334.786</ele>
      <time>2021-10-12T18:55:53Z</time>
    </trkpt>
    <trkpt lat="38.55971097" lon="34.983326979">
      <ele>1334.929</ele>
      <time>2021-10-12T18:55:54Z</time>
    </trkpt>
    <trkpt lat="38.559731003" lon="34.983333014">
      <ele>1335.099</ele>
      <time>2021-10-12T18:55:55Z</time>
    </trkpt>
    <trkpt lat="38.559752963" lon="34.983338965">
      <ele>1335.188</ele>
      <time>2021-10-12T18:55:56Z</time>
    </trkpt>
    <trkpt lat="38.559778025" lon="34.983343994">
      <ele>1335.326</ele>
      <time>2021-10-12T18:55:57Z</time>
    </trkpt>
    <trkpt lat="38.55979898" lon="34.983346006">
      <ele>1335.497</ele>
      <time>2021-10-12T18:55:57Z</time>
    </trkpt>
    <trkpt lat="38.559819013" lon="34.983345">
      <ele>1335.737</ele>
      <time>2021-10-12T18:55:58Z</time>
    </trkpt>
    <trkpt lat="38.559855977" lon="34.983331002">
      <ele>1336.482</ele>
      <time>2021-10-12T18:55:59Z</time>
    </trkpt>
    <trkpt lat="38.559878021" lon="34.983302001">
      <ele>1337.197</ele>
      <time>2021-10-12T18:56:01Z</time>
    </trkpt>
    <trkpt lat="38.55988699" lon="34.983262019">
      <ele>1337.959</ele>
      <time>2021-10-12T18:56:02Z</time>
    </trkpt>
    <trkpt lat="38.559833011" lon="34.983142996">
      <ele>1339.211</ele>
      <time>2021-10-12T18:56:06Z</time>
    </trkpt>
    <trkpt lat="38.559766039" lon="34.983050963">
      <ele>1339.7</ele>
      <time>2021-10-12T18:56:09Z</time>
    </trkpt>
    <trkpt lat="38.559684986" lon="34.982963959">
      <ele>1339.739</ele>
      <time>2021-10-12T18:56:13Z</time>
    </trkpt>
    <trkpt lat="38.559627989" lon="34.982860023">
      <ele>1340.22</ele>
      <time>2021-10-12T18:56:17Z</time>
    </trkpt>
    <trkpt lat="38.559630001" lon="34.982823981">
      <ele>1340.73</ele>
      <time>2021-10-12T18:56:18Z</time>
    </trkpt>
    <trkpt lat="38.559645005" lon="34.982796991">
      <ele>1341.353</ele>
      <time>2021-10-12T18:56:19Z</time>
    </trkpt>
    <trkpt lat="38.559668977" lon="34.982772013">
      <ele>1342.137</ele>
      <time>2021-10-12T18:56:20Z</time>
    </trkpt>
    <trkpt lat="38.559695967" lon="34.982750975">
      <ele>1342.992</ele>
      <time>2021-10-12T18:56:21Z</time>
    </trkpt>
    <trkpt lat="38.559721028" lon="34.982731026">
      <ele>1343.819</ele>
      <time>2021-10-12T18:56:22Z</time>
    </trkpt>
    <trkpt lat="38.559745001" lon="34.98271401">
      <ele>1344.558</ele>
      <time>2021-10-12T18:56:24Z</time>
    </trkpt>
    <trkpt lat="38.559769979" lon="34.982702024">
      <ele>1345.223</ele>
      <time>2021-10-12T18:56:24Z</time>
    </trkpt>
    <trkpt lat="38.559792023" lon="34.982691966">
      <ele>1345.801</ele>
      <time>2021-10-12T18:56:25Z</time>
    </trkpt>
    <trkpt lat="38.559815995" lon="34.982675035">
      <ele>1346.537</ele>
      <time>2021-10-12T18:56:26Z</time>
    </trkpt>
    <trkpt lat="38.559837034" lon="34.982657013">
      <ele>1347.24</ele>
      <time>2021-10-12T18:56:27Z</time>
    </trkpt>
    <trkpt lat="38.559857989" lon="34.982646033">
      <ele>1347.815</ele>
      <time>2021-10-12T18:56:28Z</time>
    </trkpt>
    <trkpt lat="38.559879027" lon="34.982636981">
      <ele>1348.357</ele>
      <time>2021-10-12T18:56:29Z</time>
    </trkpt>
    <trkpt lat="38.559900988" lon="34.982618038">
      <ele>1349.093</ele>
      <time>2021-10-12T18:56:30Z</time>
    </trkpt>
    <trkpt lat="38.55992496" lon="34.982610997">
      <ele>1349.651</ele>
      <time>2021-10-12T18:56:31Z</time>
    </trkpt>
    <trkpt lat="38.55995304" lon="34.982606973">
      <ele>1350.229</ele>
      <time>2021-10-12T18:56:32Z</time>
    </trkpt>
    <trkpt lat="38.560006013" lon="34.982603034">
      <ele>1351.137</ele>
      <time>2021-10-12T18:56:34Z</time>
    </trkpt>
    <trkpt lat="38.560024034" lon="34.982601022">
      <ele>1351.15</ele>
      <time>2021-10-12T18:56:35Z</time>
    </trkpt>
    <trkpt lat="38.560055969" lon="34.982593982">
      <ele>1351.24</ele>
      <time>2021-10-12T18:56:36Z</time>
    </trkpt>
    <trkpt lat="38.56007399" lon="34.982589036">
      <ele>1351.312</ele>
      <time>2021-10-12T18:56:36Z</time>
    </trkpt>
    <trkpt lat="38.560092011" lon="34.982583001">
      <ele>1351.407</ele>
      <time>2021-10-12T18:56:37Z</time>
    </trkpt>
    <trkpt lat="38.560146997" lon="34.982559029">
      <ele>1351.825</ele>
      <time>2021-10-12T18:56:39Z</time>
    </trkpt>
    <trkpt lat="38.560185973" lon="34.982544025">
      <ele>1352.101</ele>
      <time>2021-10-12T18:56:41Z</time>
    </trkpt>
    <trkpt lat="38.560231989" lon="34.98251603">
      <ele>1352.663</ele>
      <time>2021-10-12T18:56:43Z</time>
    </trkpt>
    <trkpt lat="38.560269959" lon="34.982489962">
      <ele>1353.251</ele>
      <time>2021-10-12T18:56:44Z</time>
    </trkpt>
    <trkpt lat="38.560280018" lon="34.982478982">
      <ele>1353.498</ele>
      <time>2021-10-12T18:56:45Z</time>
    </trkpt>
    <trkpt lat="38.56030399" lon="34.982459033">
      <ele>1353.669</ele>
      <time>2021-10-12T18:56:46Z</time>
    </trkpt>
    <trkpt lat="38.560325028" lon="34.982441012">
      <ele>1353.842</ele>
      <time>2021-10-12T18:56:47Z</time>
    </trkpt>
    <trkpt lat="38.560345983" lon="34.982423997">
      <ele>1354.0</ele>
      <time>2021-10-12T18:56:48Z</time>
    </trkpt>
    <trkpt lat="38.560359981" lon="34.98240103">
      <ele>1354.416</ele>
      <time>2021-10-12T18:56:49Z</time>
    </trkpt>
    <trkpt lat="38.560369033" lon="34.98237404">
      <ele>1355.009</ele>
      <time>2021-10-12T18:56:49Z</time>
    </trkpt>
    <trkpt lat="38.560378002" lon="34.982343027">
      <ele>1355.716</ele>
      <time>2021-10-12T18:56:50Z</time>
    </trkpt>
    <trkpt lat="38.560390994" lon="34.982317965">
      <ele>1356.224</ele>
      <time>2021-10-12T18:56:51Z</time>
    </trkpt>
    <trkpt lat="38.560412033" lon="34.982267004">
      <ele>1357.344</ele>
      <time>2021-10-12T18:56:53Z</time>
    </trkpt>
    <trkpt lat="38.560423013" lon="34.982250994">
      <ele>1357.652</ele>
      <time>2021-10-12T18:56:53Z</time>
    </trkpt>
    <trkpt lat="38.560436005" lon="34.982231967">
      <ele>1358.026</ele>
      <time>2021-10-12T18:56:54Z</time>
    </trkpt>
    <trkpt lat="38.560447991" lon="34.982211012">
      <ele>1358.503</ele>
      <time>2021-10-12T18:56:55Z</time>
    </trkpt>
    <trkpt lat="38.560458971" lon="34.982187962">
      <ele>1359.105</ele>
      <time>2021-10-12T18:56:56Z</time>
    </trkpt>
    <trkpt lat="38.560470035" lon="34.982162984">
      <ele>1359.794</ele>
      <time>2021-10-12T18:56:57Z</time>
    </trkpt>
    <trkpt lat="38.560483027" lon="34.982135994">
      <ele>1360.563</ele>
      <time>2021-10-12T18:56:58Z</time>
    </trkpt>
    <trkpt lat="38.560493002" lon="34.98211001">
      <ele>1361.351</ele>
      <time>2021-10-12T18:56:58Z</time>
    </trkpt>
    <trkpt lat="38.560502976" lon="34.98208696">
      <ele>1362.069</ele>
      <time>2021-10-12T18:56:59Z</time>
    </trkpt>
    <trkpt lat="38.560526026" lon="34.982055025">
      <ele>1363.082</ele>
      <time>2021-10-12T18:57:00Z</time>
    </trkpt>
    <trkpt lat="38.560539018" lon="34.982034992">
      <ele>1363.758</ele>
      <time>2021-10-12T18:57:01Z</time>
    </trkpt>
    <trkpt lat="38.560548993" lon="34.982015966">
      <ele>1364.426</ele>
      <time>2021-10-12T18:57:02Z</time>
    </trkpt>
    <trkpt lat="38.560556034" lon="34.981990987">
      <ele>1365.31</ele>
      <time>2021-10-12T18:57:03Z</time>
    </trkpt>
    <trkpt lat="38.560565002" lon="34.981966009">
      <ele>1365.926</ele>
      <time>2021-10-12T18:57:03Z</time>
    </trkpt>
    <trkpt lat="38.560575983" lon="34.98193902">
      <ele>1366.538</ele>
      <time>2021-10-12T18:57:04Z</time>
    </trkpt>
    <trkpt lat="38.56058998" lon="34.98191203">
      <ele>1367.095</ele>
      <time>2021-10-12T18:57:05Z</time>
    </trkpt>
    <trkpt lat="38.560601966" lon="34.981886968">
      <ele>1367.669</ele>
      <time>2021-10-12T18:57:06Z</time>
    </trkpt>
    <trkpt lat="38.560615964" lon="34.981862996">
      <ele>1368.166</ele>
      <time>2021-10-12T18:57:07Z</time>
    </trkpt>
    <trkpt lat="38.560629962" lon="34.981839024">
      <ele>1368.689</ele>
      <time>2021-10-12T18:57:08Z</time>
    </trkpt>
    <trkpt lat="38.560643038" lon="34.981819997">
      <ele>1369.069</ele>
      <time>2021-10-12T18:57:09Z</time>
    </trkpt>
    <trkpt lat="38.560657036" lon="34.981803987">
      <ele>1369.323</ele>
      <time>2021-10-12T18:57:09Z</time>
    </trkpt>
    <trkpt lat="38.560670028" lon="34.981785966">
      <ele>1369.702</ele>
      <time>2021-10-12T18:57:10Z</time>
    </trkpt>
    <trkpt lat="38.560682014" lon="34.981766017">
      <ele>1370.203</ele>
      <time>2021-10-12T18:57:11Z</time>
    </trkpt>
    <trkpt lat="38.560709003" lon="34.981733998">
      <ele>1370.86</ele>
      <time>2021-10-12T18:57:12Z</time>
    </trkpt>
    <trkpt lat="38.560725013" lon="34.981716983">
      <ele>1371.197</ele>
      <time>2021-10-12T18:57:13Z</time>
    </trkpt>
    <trkpt lat="38.560742028" lon="34.981696028">
      <ele>1371.702</ele>
      <time>2021-10-12T18:57:14Z</time>
    </trkpt>
    <trkpt lat="38.560759965" lon="34.981672978">
      <ele>1372.307</ele>
      <time>2021-10-12T18:57:15Z</time>
    </trkpt>
    <trkpt lat="38.560779998" lon="34.981654035">
      <ele>1372.644</ele>
      <time>2021-10-12T18:57:16Z</time>
    </trkpt>
    <trkpt lat="38.560797013" lon="34.981628973">
      <ele>1373.259</ele>
      <time>2021-10-12T18:57:16Z</time>
    </trkpt>
    <trkpt lat="38.560814029" lon="34.981609024">
      <ele>1373.685</ele>
      <time>2021-10-12T18:57:17Z</time>
    </trkpt>
    <trkpt lat="38.560831966" lon="34.981591003">
      <ele>1374.024</ele>
      <time>2021-10-12T18:57:18Z</time>
    </trkpt>
    <trkpt lat="38.560859039" lon="34.981568037">
      <ele>1374.198</ele>
      <time>2021-10-12T18:57:19Z</time>
    </trkpt>
    <trkpt lat="38.560873959" lon="34.981552027">
      <ele>1374.43</ele>
      <time>2021-10-12T18:57:20Z</time>
    </trkpt>
    <trkpt lat="38.560889969" lon="34.981536018">
      <ele>1374.638</ele>
      <time>2021-10-12T18:57:21Z</time>
    </trkpt>
    <trkpt lat="38.560913019" lon="34.981513973">
      <ele>1374.909</ele>
      <time>2021-10-12T18:57:22Z</time>
    </trkpt>
    <trkpt lat="38.560932968" lon="34.981494024">
      <ele>1375.19</ele>
      <time>2021-10-12T18:57:23Z</time>
    </trkpt>
    <trkpt lat="38.560950989" lon="34.981473992">
      <ele>1375.535</ele>
      <time>2021-10-12T18:57:24Z</time>
    </trkpt>
    <trkpt lat="38.560970016" lon="34.981452031">
      <ele>1375.943</ele>
      <time>2021-10-12T18:57:25Z</time>
    </trkpt>
    <trkpt lat="38.560989965" lon="34.981430992">
      <ele>1376.3</ele>
      <time>2021-10-12T18:57:26Z</time>
    </trkpt>
    <trkpt lat="38.561013015" lon="34.981408026">
      <ele>1376.67</ele>
      <time>2021-10-12T18:57:27Z</time>
    </trkpt>
    <trkpt lat="38.561029024" lon="34.981390005">
      <ele>1377.022</ele>
      <time>2021-10-12T18:57:28Z</time>
    </trkpt>
    <trkpt lat="38.561049979" lon="34.981375001">
      <ele>1377.068</ele>
      <time>2021-10-12T18:57:28Z</time>
    </trkpt>
    <trkpt lat="38.561069006" lon="34.981358992">
      <ele>1377.212</ele>
      <time>2021-10-12T18:57:29Z</time>
    </trkpt>
    <trkpt lat="38.561083004" lon="34.981339965">
      <ele>1377.61</ele>
      <time>2021-10-12T18:57:30Z</time>
    </trkpt>
    <trkpt lat="38.561099013" lon="34.981326973">
      <ele>1377.737</ele>
      <time>2021-10-12T18:57:31Z</time>
    </trkpt>
    <trkpt lat="38.561119968" lon="34.981309036">
      <ele>1378.057</ele>
      <time>2021-10-12T18:57:32Z</time>
    </trkpt>
    <trkpt lat="38.561135978" lon="34.981292021">
      <ele>1378.536</ele>
      <time>2021-10-12T18:57:32Z</time>
    </trkpt>
    <trkpt lat="38.561158022" lon="34.981270982">
      <ele>1379.091</ele>
      <time>2021-10-12T18:57:33Z</time>
    </trkpt>
    <trkpt lat="38.561177971" lon="34.981249021">
      <ele>1379.695</ele>
      <time>2021-10-12T18:57:34Z</time>
    </trkpt>
    <trkpt lat="38.561199009" lon="34.981223959">
      <ele>1380.394</ele>
      <time>2021-10-12T18:57:35Z</time>
    </trkpt>
    <trkpt lat="38.561228011" lon="34.98119697">
      <ele>1381.047</ele>
      <time>2021-10-12T18:57:37Z</time>
    </trkpt>
    <trkpt lat="38.561242009" lon="34.981182972">
      <ele>1381.391</ele>
      <time>2021-10-12T18:57:37Z</time>
    </trkpt>
    <trkpt lat="38.561261036" lon="34.981166963">
      <ele>1381.738</ele>
      <time>2021-10-12T18:57:38Z</time>
    </trkpt>
    <trkpt lat="38.561277967" lon="34.981149025">
      <ele>1382.178</ele>
      <time>2021-10-12T18:57:39Z</time>
    </trkpt>
    <trkpt lat="38.561292971" lon="34.981133016">
      <ele>1382.565</ele>
      <time>2021-10-12T18:57:40Z</time>
    </trkpt>
    <trkpt lat="38.561311997" lon="34.981116001">
      <ele>1382.926</ele>
      <time>2021-10-12T18:57:41Z</time>
    </trkpt>
    <trkpt lat="38.561334042" lon="34.981103009">
      <ele>1383.105</ele>
      <time>2021-10-12T18:57:42Z</time>
    </trkpt>
    <trkpt lat="38.561354997" lon="34.981090017">
      <ele>1383.314</ele>
      <time>2021-10-12T18:57:42Z</time>
    </trkpt>
    <trkpt lat="38.561377963" lon="34.981077025">
      <ele>1383.502</ele>
      <time>2021-10-12T18:57:43Z</time>
    </trkpt>
    <trkpt lat="38.561399002" lon="34.981060009">
      <ele>1383.937</ele>
      <time>2021-10-12T18:57:44Z</time>
    </trkpt>
    <trkpt lat="38.561419034" lon="34.981048023">
      <ele>1384.232</ele>
      <time>2021-10-12T18:57:45Z</time>
    </trkpt>
    <trkpt lat="38.561437977" lon="34.981035031">
      <ele>1384.563</ele>
      <time>2021-10-12T18:57:46Z</time>
    </trkpt>
    <trkpt lat="38.56145801" lon="34.981013993">
      <ele>1385.174</ele>
      <time>2021-10-12T18:57:47Z</time>
    </trkpt>
    <trkpt lat="38.561478965" lon="34.980994966">
      <ele>1385.68</ele>
      <time>2021-10-12T18:57:48Z</time>
    </trkpt>
    <trkpt lat="38.561496986" lon="34.980979962">
      <ele>1386.048</ele>
      <time>2021-10-12T18:57:49Z</time>
    </trkpt>
    <trkpt lat="38.561518025" lon="34.980964959">
      <ele>1386.369</ele>
      <time>2021-10-12T18:57:50Z</time>
    </trkpt>
    <trkpt lat="38.561539985" lon="34.980947021">
      <ele>1386.767</ele>
      <time>2021-10-12T18:57:51Z</time>
    </trkpt>
    <trkpt lat="38.561559012" lon="34.980935035">
      <ele>1386.971</ele>
      <time>2021-10-12T18:57:51Z</time>
    </trkpt>
    <trkpt lat="38.561578961" lon="34.980925983">
      <ele>1387.05</ele>
      <time>2021-10-12T18:57:52Z</time>
    </trkpt>
    <trkpt lat="38.561669989" lon="34.980864041">
      <ele>1387.984</ele>
      <time>2021-10-12T18:57:56Z</time>
    </trkpt>
    <trkpt lat="38.56176001" lon="34.980798997">
      <ele>1389.44</ele>
      <time>2021-10-12T18:58:00Z</time>
    </trkpt>
    <trkpt lat="38.561851038" lon="34.980737977">
      <ele>1390.762</ele>
      <time>2021-10-12T18:58:04Z</time>
    </trkpt>
    <trkpt lat="38.561869981" lon="34.980726996">
      <ele>1390.981</ele>
      <time>2021-10-12T18:58:04Z</time>
    </trkpt>
    <trkpt lat="38.561903005" lon="34.980703024">
      <ele>1391.52</ele>
      <time>2021-10-12T18:58:06Z</time>
    </trkpt>
    <trkpt lat="38.561922032" lon="34.980682991">
      <ele>1392.032</ele>
      <time>2021-10-12T18:58:07Z</time>
    </trkpt>
    <trkpt lat="38.56193997" lon="34.980667988">
      <ele>1392.389</ele>
      <time>2021-10-12T18:58:07Z</time>
    </trkpt>
    <trkpt lat="38.561957991" lon="34.980657008">
      <ele>1392.859</ele>
      <time>2021-10-12T18:58:08Z</time>
    </trkpt>
    <trkpt lat="38.561976012" lon="34.980640998">
      <ele>1393.573</ele>
      <time>2021-10-12T18:58:09Z</time>
    </trkpt>
    <trkpt lat="38.561995961" lon="34.980620965">
      <ele>1394.437</ele>
      <time>2021-10-12T18:58:10Z</time>
    </trkpt>
    <trkpt lat="38.562013982" lon="34.980606968">
      <ele>1395.085</ele>
      <time>2021-10-12T18:58:11Z</time>
    </trkpt>
    <trkpt lat="38.562032003" lon="34.980595987">
      <ele>1395.636</ele>
      <time>2021-10-12T18:58:11Z</time>
    </trkpt>
    <trkpt lat="38.562053042" lon="34.980573021">
      <ele>1396.607</ele>
      <time>2021-10-12T18:58:12Z</time>
    </trkpt>
    <trkpt lat="38.562076008" lon="34.980552988">
      <ele>1397.5</ele>
      <time>2021-10-12T18:58:13Z</time>
    </trkpt>
    <trkpt lat="38.562119007" lon="34.980522981">
      <ele>1398.837</ele>
      <time>2021-10-12T18:58:15Z</time>
    </trkpt>
    <trkpt lat="38.562142979" lon="34.980506971">
      <ele>1399.518</ele>
      <time>2021-10-12T18:58:16Z</time>
    </trkpt>
    <trkpt lat="38.562168041" lon="34.980487023">
      <ele>1400.286</ele>
      <time>2021-10-12T18:58:17Z</time>
    </trkpt>
    <trkpt lat="38.562188996" lon="34.980473025">
      <ele>1400.828</ele>
      <time>2021-10-12T18:58:18Z</time>
    </trkpt>
    <trkpt lat="38.562216992" lon="34.980465984">
      <ele>1401.219</ele>
      <time>2021-10-12T18:58:19Z</time>
    </trkpt>
    <trkpt lat="38.56224197" lon="34.980461039">
      <ele>1401.737</ele>
      <time>2021-10-12T18:58:20Z</time>
    </trkpt>
    <trkpt lat="38.562266026" lon="34.980449975">
      <ele>1402.449</ele>
      <time>2021-10-12T18:58:21Z</time>
    </trkpt>
    <trkpt lat="38.562288992" lon="34.98044">
      <ele>1403.114</ele>
      <time>2021-10-12T18:58:22Z</time>
    </trkpt>
    <trkpt lat="38.562309025" lon="34.980432037">
      <ele>1403.675</ele>
      <time>2021-10-12T18:58:23Z</time>
    </trkpt>
    <trkpt lat="38.562332997" lon="34.980421979">
      <ele>1404.36</ele>
      <time>2021-10-12T18:58:24Z</time>
    </trkpt>
    <trkpt lat="38.562358981" lon="34.980412005">
      <ele>1405.079</ele>
      <time>2021-10-12T18:58:25Z</time>
    </trkpt>
    <trkpt lat="38.562384965" lon="34.98040203">
      <ele>1405.798</ele>
      <time>2021-10-12T18:58:26Z</time>
    </trkpt>
    <trkpt lat="38.56241799" lon="34.980392978">
      <ele>1406.621</ele>
      <time>2021-10-12T18:58:27Z</time>
    </trkpt>
    <trkpt lat="38.562451014" lon="34.980384009">
      <ele>1407.441</ele>
      <time>2021-10-12T18:58:28Z</time>
    </trkpt>
    <trkpt lat="38.562558973" lon="34.980404964">
      <ele>1409.033</ele>
      <time>2021-10-12T18:58:32Z</time>
    </trkpt>
    <trkpt lat="38.562642038" lon="34.980476964">
      <ele>1409.493</ele>
      <time>2021-10-12T18:58:36Z</time>
    </trkpt>
    <trkpt lat="38.562706998" lon="34.980577966">
      <ele>1409.496</ele>
      <time>2021-10-12T18:58:40Z</time>
    </trkpt>
    <trkpt lat="38.562756032" lon="34.980699001">
      <ele>1408.67</ele>
      <time>2021-10-12T18:58:44Z</time>
    </trkpt>
    <trkpt lat="38.56279199" lon="34.980812995">
      <ele>1407.969</ele>
      <time>2021-10-12T18:58:47Z</time>
    </trkpt>
    <trkpt lat="38.562831972" lon="34.980944004">
      <ele>1406.543</ele>
      <time>2021-10-12T18:58:51Z</time>
    </trkpt>
    <trkpt lat="38.562870026" lon="34.981060009">
      <ele>1405.812</ele>
      <time>2021-10-12T18:58:55Z</time>
    </trkpt>
    <trkpt lat="38.562891986" lon="34.981106026">
      <ele>1406.098</ele>
      <time>2021-10-12T18:58:57Z</time>
    </trkpt>
    <trkpt lat="38.562901961" lon="34.981131004">
      <ele>1406.249</ele>
      <time>2021-10-12T18:58:58Z</time>
    </trkpt>
    <trkpt lat="38.562913025" lon="34.981155982">
      <ele>1406.474</ele>
      <time>2021-10-12T18:58:58Z</time>
    </trkpt>
    <trkpt lat="38.562928028" lon="34.981179032">
      <ele>1406.953</ele>
      <time>2021-10-12T18:58:59Z</time>
    </trkpt>
    <trkpt lat="38.562948983" lon="34.981201999">
      <ele>1407.766</ele>
      <time>2021-10-12T18:59:00Z</time>
    </trkpt>
    <trkpt lat="38.562965998" lon="34.981226977">
      <ele>1408.285</ele>
      <time>2021-10-12T18:59:01Z</time>
    </trkpt>
    <trkpt lat="38.56298402" lon="34.981252961">
      <ele>1408.821</ele>
      <time>2021-10-12T18:59:02Z</time>
    </trkpt>
    <trkpt lat="38.563002963" lon="34.981271988">
      <ele>1409.526</ele>
      <time>2021-10-12T18:59:03Z</time>
    </trkpt>
    <trkpt lat="38.563017966" lon="34.981294032">
      <ele>1409.927</ele>
      <time>2021-10-12T18:59:04Z</time>
    </trkpt>
    <trkpt lat="38.563035987" lon="34.981318004">
      <ele>1410.438</ele>
      <time>2021-10-12T18:59:05Z</time>
    </trkpt>
    <trkpt lat="38.563049985" lon="34.981344994">
      <ele>1410.641</ele>
      <time>2021-10-12T18:59:06Z</time>
    </trkpt>
    <trkpt lat="38.563067" lon="34.98137299">
      <ele>1411.08</ele>
      <time>2021-10-12T18:59:07Z</time>
    </trkpt>
    <trkpt lat="38.563084016" lon="34.98139604">
      <ele>1411.667</ele>
      <time>2021-10-12T18:59:08Z</time>
    </trkpt>
    <trkpt lat="38.563100025" lon="34.981420012">
      <ele>1412.115</ele>
      <time>2021-10-12T18:59:09Z</time>
    </trkpt>
    <trkpt lat="38.56311704" lon="34.981445996">
      <ele>1412.591</ele>
      <time>2021-10-12T18:59:10Z</time>
    </trkpt>
    <trkpt lat="38.563139001" lon="34.981470974">
      <ele>1413.427</ele>
      <time>2021-10-12T18:59:11Z</time>
    </trkpt>
    <trkpt lat="38.563168002" lon="34.981510034">
      <ele>1414.41</ele>
      <time>2021-10-12T18:59:12Z</time>
    </trkpt>
    <trkpt lat="38.563176971" lon="34.981525037">
      <ele>1414.651</ele>
      <time>2021-10-12T18:59:13Z</time>
    </trkpt>
    <trkpt lat="38.563215025" lon="34.981584968">
      <ele>1415.798</ele>
      <time>2021-10-12T18:59:15Z</time>
    </trkpt>
    <trkpt lat="38.563226005" lon="34.981602989">
      <ele>1416.123</ele>
      <time>2021-10-12T18:59:16Z</time>
    </trkpt>
    <trkpt lat="38.563249977" lon="34.981641965">
      <ele>1416.859</ele>
      <time>2021-10-12T18:59:17Z</time>
    </trkpt>
    <trkpt lat="38.563308986" lon="34.981727963">
      <ele>1418.647</ele>
      <time>2021-10-12T18:59:21Z</time>
    </trkpt>
    <trkpt lat="38.563366989" lon="34.981830977">
      <ele>1419.058</ele>
      <time>2021-10-12T18:59:24Z</time>
    </trkpt>
    <trkpt lat="38.563411999" lon="34.981965004">
      <ele>1418.013</ele>
      <time>2021-10-12T18:59:28Z</time>
    </trkpt>
    <trkpt lat="38.563465979" lon="34.982098024">
      <ele>1417.77</ele>
      <time>2021-10-12T18:59:33Z</time>
    </trkpt>
    <trkpt lat="38.563513001" lon="34.982231967">
      <ele>1417.043</ele>
      <time>2021-10-12T18:59:37Z</time>
    </trkpt>
    <trkpt lat="38.563557006" lon="34.982344033">
      <ele>1416.205</ele>
      <time>2021-10-12T18:59:41Z</time>
    </trkpt>
    <trkpt lat="38.56363303" lon="34.982430032">
      <ele>1418.12</ele>
      <time>2021-10-12T18:59:45Z</time>
    </trkpt>
    <trkpt lat="38.563655997" lon="34.982293993">
      <ele>1423.195</ele>
      <time>2021-10-12T18:59:49Z</time>
    </trkpt>
    <trkpt lat="38.563599" lon="34.98217497">
      <ele>1423.493</ele>
      <time>2021-10-12T18:59:53Z</time>
    </trkpt>
    <trkpt lat="38.563557006" lon="34.982045973">
      <ele>1424.325</ele>
      <time>2021-10-12T18:59:57Z</time>
    </trkpt>
    <trkpt lat="38.563513001" lon="34.981930973">
      <ele>1424.643</ele>
      <time>2021-10-12T19:00:00Z</time>
    </trkpt>
    <trkpt lat="38.563490035" lon="34.981814967">
      <ele>1425.966</ele>
      <time>2021-10-12T19:00:04Z</time>
    </trkpt>
    <trkpt lat="38.563448042" lon="34.981696028">
      <ele>1426.654</ele>
      <time>2021-10-12T19:00:08Z</time>
    </trkpt>
    <trkpt lat="38.563418034" lon="34.981580023">
      <ele>1427.836</ele>
      <time>2021-10-12T19:00:11Z</time>
    </trkpt>
    <trkpt lat="38.563389033" lon="34.98146804">
      <ele>1428.897</ele>
      <time>2021-10-12T19:00:15Z</time>
    </trkpt>
    <trkpt lat="38.563376963" lon="34.981445996">
      <ele>1428.808</ele>
      <time>2021-10-12T19:00:15Z</time>
    </trkpt>
    <trkpt lat="38.563365983" lon="34.981418001">
      <ele>1428.899</ele>
      <time>2021-10-12T19:00:16Z</time>
    </trkpt>
    <trkpt lat="38.563322984" lon="34.981296966">
      <ele>1428.678</ele>
      <time>2021-10-12T19:00:20Z</time>
    </trkpt>
    <trkpt lat="38.563299011" lon="34.981165035">
      <ele>1429.199</ele>
      <time>2021-10-12T19:00:24Z</time>
    </trkpt>
    <trkpt lat="38.563284008" lon="34.981093034">
      <ele>1429.194</ele>
      <time>2021-10-12T19:00:26Z</time>
    </trkpt>
    <trkpt lat="38.56328099" lon="34.981047017">
      <ele>1429.115</ele>
      <time>2021-10-12T19:00:28Z</time>
    </trkpt>
    <trkpt lat="38.563281996" lon="34.981023967">
      <ele>1429.217</ele>
      <time>2021-10-12T19:00:28Z</time>
    </trkpt>
    <trkpt lat="38.563286019" lon="34.980999995">
      <ele>1429.479</ele>
      <time>2021-10-12T19:00:29Z</time>
    </trkpt>
    <trkpt lat="38.563289037" lon="34.980974011">
      <ele>1429.685</ele>
      <time>2021-10-12T19:00:30Z</time>
    </trkpt>
    <trkpt lat="38.563291971" lon="34.980950961">
      <ele>1429.875</ele>
      <time>2021-10-12T19:00:30Z</time>
    </trkpt>
    <trkpt lat="38.563295994" lon="34.980908968">
      <ele>1430.143</ele>
      <time>2021-10-12T19:00:32Z</time>
    </trkpt>
    <trkpt lat="38.563295994" lon="34.980863035">
      <ele>1430.209</ele>
      <time>2021-10-12T19:00:33Z</time>
    </trkpt>
    <trkpt lat="38.563298006" lon="34.980839984">
      <ele>1430.338</ele>
      <time>2021-10-12T19:00:34Z</time>
    </trkpt>
    <trkpt lat="38.563301023" lon="34.980816012">
      <ele>1430.613</ele>
      <time>2021-10-12T19:00:34Z</time>
    </trkpt>
    <trkpt lat="38.56330798" lon="34.980786005">
      <ele>1431.154</ele>
      <time>2021-10-12T19:00:35Z</time>
    </trkpt>
    <trkpt lat="38.563315021" lon="34.980760021">
      <ele>1431.671</ele>
      <time>2021-10-12T19:00:36Z</time>
    </trkpt>
    <trkpt lat="38.563319966" lon="34.980717022">
      <ele>1432.212</ele>
      <time>2021-10-12T19:00:37Z</time>
    </trkpt>
    <trkpt lat="38.563322984" lon="34.980690032">
      <ele>1432.547</ele>
      <time>2021-10-12T19:00:38Z</time>
    </trkpt>
    <trkpt lat="38.563326001" lon="34.980646027">
      <ele>1433.005</ele>
      <time>2021-10-12T19:00:39Z</time>
    </trkpt>
    <trkpt lat="38.563328013" lon="34.980618032">
      <ele>1433.301</ele>
      <time>2021-10-12T19:00:40Z</time>
    </trkpt>
    <trkpt lat="38.56333103" lon="34.980590958">
      <ele>1433.637</ele>
      <time>2021-10-12T19:00:41Z</time>
    </trkpt>
    <trkpt lat="38.56333497" lon="34.980563968">
      <ele>1434.045</ele>
      <time>2021-10-12T19:00:42Z</time>
    </trkpt>
    <trkpt lat="38.56333497" lon="34.98053899">
      <ele>1434.285</ele>
      <time>2021-10-12T19:00:43Z</time>
    </trkpt>
    <trkpt lat="38.56333497" lon="34.980487023">
      <ele>1434.848</ele>
      <time>2021-10-12T19:00:44Z</time>
    </trkpt>
    <trkpt lat="38.56333497" lon="34.980453998">
      <ele>1435.205</ele>
      <time>2021-10-12T19:00:45Z</time>
    </trkpt>
    <trkpt lat="38.563332036" lon="34.980428014">
      <ele>1435.315</ele>
      <time>2021-10-12T19:00:46Z</time>
    </trkpt>
    <trkpt lat="38.563336981" lon="34.980312008">
      <ele>1436.878</ele>
      <time>2021-10-12T19:00:49Z</time>
    </trkpt>
    <trkpt lat="38.563332036" lon="34.98019198">
      <ele>1438.785</ele>
      <time>2021-10-12T19:00:53Z</time>
    </trkpt>
    <trkpt lat="38.563332036" lon="34.980063988">
      <ele>1441.545</ele>
      <time>2021-10-12T19:00:56Z</time>
    </trkpt>
    <trkpt lat="38.563319966" lon="34.979931973">
      <ele>1443.245</ele>
      <time>2021-10-12T19:01:00Z</time>
    </trkpt>
    <trkpt lat="38.56330798" lon="34.979812028">
      <ele>1444.432</ele>
      <time>2021-10-12T19:01:04Z</time>
    </trkpt>
    <trkpt lat="38.563317033" lon="34.979672972">
      <ele>1447.134</ele>
      <time>2021-10-12T19:01:08Z</time>
    </trkpt>
    <trkpt lat="38.563316027" lon="34.979554033">
      <ele>1449.255</ele>
      <time>2021-10-12T19:01:11Z</time>
    </trkpt>
    <trkpt lat="38.563302029" lon="34.979439033">
      <ele>1450.806</ele>
      <time>2021-10-12T19:01:15Z</time>
    </trkpt>
    <trkpt lat="38.563279985" lon="34.979319004">
      <ele>1453.395</ele>
      <time>2021-10-12T19:01:18Z</time>
    </trkpt>
    <trkpt lat="38.56324302" lon="34.979229989">
      <ele>1454.526</ele>
      <time>2021-10-12T19:01:21Z</time>
    </trkpt>
    <trkpt lat="38.56323204" lon="34.979222026">
      <ele>1454.322</ele>
      <time>2021-10-12T19:01:22Z</time>
    </trkpt>
    <trkpt lat="38.563212007" lon="34.979199981">
      <ele>1454.184</ele>
      <time>2021-10-12T19:01:23Z</time>
    </trkpt>
    <trkpt lat="38.563190969" lon="34.979179027">
      <ele>1453.984</ele>
      <time>2021-10-12T19:01:24Z</time>
    </trkpt>
    <trkpt lat="38.563175965" lon="34.979157988">
      <ele>1454.107</ele>
      <time>2021-10-12T19:01:24Z</time>
    </trkpt>
    <trkpt lat="38.563158028" lon="34.979128987">
      <ele>1454.571</ele>
      <time>2021-10-12T19:01:25Z</time>
    </trkpt>
    <trkpt lat="38.563137995" lon="34.979095962">
      <ele>1455.196</ele>
      <time>2021-10-12T19:01:27Z</time>
    </trkpt>
    <trkpt lat="38.563127015" lon="34.979075007">
      <ele>1455.695</ele>
      <time>2021-10-12T19:01:27Z</time>
    </trkpt>
    <trkpt lat="38.56312098" lon="34.979048017">
      <ele>1456.641</ele>
      <time>2021-10-12T19:01:28Z</time>
    </trkpt>
    <trkpt lat="38.563112011" lon="34.979026979">
      <ele>1457.262</ele>
      <time>2021-10-12T19:01:29Z</time>
    </trkpt>
    <trkpt lat="38.563101031" lon="34.979003007">
      <ele>1457.978</ele>
      <time>2021-10-12T19:01:30Z</time>
    </trkpt>
    <trkpt lat="38.563025007" lon="34.978921032">
      <ele>1459.764</ele>
      <time>2021-10-12T19:01:33Z</time>
    </trkpt>
    <trkpt lat="38.562945966" lon="34.97886504">
      <ele>1460.25</ele>
      <time>2021-10-12T19:01:37Z</time>
    </trkpt>
    <trkpt lat="38.562919982" lon="34.978852971">
      <ele>1460.132</ele>
      <time>2021-10-12T19:01:38Z</time>
    </trkpt>
    <trkpt lat="38.562899027" lon="34.978834027">
      <ele>1460.451</ele>
      <time>2021-10-12T19:01:39Z</time>
    </trkpt>
    <trkpt lat="38.56288" lon="34.978822963">
      <ele>1460.487</ele>
      <time>2021-10-12T19:01:40Z</time>
    </trkpt>
    <trkpt lat="38.56285804" lon="34.978811983">
      <ele>1460.462</ele>
      <time>2021-10-12T19:01:40Z</time>
    </trkpt>
    <trkpt lat="38.562837001" lon="34.978791028">
      <ele>1460.922</ele>
      <time>2021-10-12T19:01:41Z</time>
    </trkpt>
    <trkpt lat="38.562821997" lon="34.978770996">
      <ele>1461.497</ele>
      <time>2021-10-12T19:01:42Z</time>
    </trkpt>
    <trkpt lat="38.562786961" lon="34.978740988">
      <ele>1462.118</ele>
      <time>2021-10-12T19:01:44Z</time>
    </trkpt>
    <trkpt lat="38.562766006" lon="34.978729002">
      <ele>1462.434</ele>
      <time>2021-10-12T19:01:45Z</time>
    </trkpt>
    <trkpt lat="38.562745973" lon="34.978707964">
      <ele>1463.318</ele>
      <time>2021-10-12T19:01:46Z</time>
    </trkpt>
    <trkpt lat="38.562724013" lon="34.978693966">
      <ele>1463.851</ele>
      <time>2021-10-12T19:01:46Z</time>
    </trkpt>
    <trkpt lat="38.562700041" lon="34.978677034">
      <ele>1464.488</ele>
      <time>2021-10-12T19:01:47Z</time>
    </trkpt>
    <trkpt lat="38.56267699" lon="34.978657002">
      <ele>1465.247</ele>
      <time>2021-10-12T19:01:49Z</time>
    </trkpt>
    <trkpt lat="38.562653018" lon="34.978641998">
      <ele>1465.756</ele>
      <time>2021-10-12T19:01:49Z</time>
    </trkpt>
    <trkpt lat="38.562627034" lon="34.978626994">
      <ele>1466.233</ele>
      <time>2021-10-12T19:01:51Z</time>
    </trkpt>
    <trkpt lat="38.562602978" lon="34.978610985">
      <ele>1466.747</ele>
      <time>2021-10-12T19:01:52Z</time>
    </trkpt>
    <trkpt lat="38.562580012" lon="34.978592964">
      <ele>1467.425</ele>
      <time>2021-10-12T19:01:53Z</time>
    </trkpt>
    <trkpt lat="38.562560985" lon="34.978574021">
      <ele>1468.175</ele>
      <time>2021-10-12T19:01:53Z</time>
    </trkpt>
    <trkpt lat="38.56254003" lon="34.978557006">
      <ele>1468.82</ele>
      <time>2021-10-12T19:01:54Z</time>
    </trkpt>
    <trkpt lat="38.562518992" lon="34.978540996">
      <ele>1469.418</ele>
      <time>2021-10-12T19:01:55Z</time>
    </trkpt>
    <trkpt lat="38.562494013" lon="34.97852901">
      <ele>1469.916</ele>
      <time>2021-10-12T19:01:56Z</time>
    </trkpt>
    <trkpt lat="38.562470041" lon="34.978520041">
      <ele>1470.623</ele>
      <time>2021-10-12T19:01:57Z</time>
    </trkpt>
    <trkpt lat="38.562443973" lon="34.978513001">
      <ele>1471.256</ele>
      <time>2021-10-12T19:01:58Z</time>
    </trkpt>
    <trkpt lat="38.562418995" lon="34.978507971">
      <ele>1471.777</ele>
      <time>2021-10-12T19:01:59Z</time>
    </trkpt>
    <trkpt lat="38.562396029" lon="34.978500009">
      <ele>1472.397</ele>
      <time>2021-10-12T19:02:00Z</time>
    </trkpt>
    <trkpt lat="38.562377002" lon="34.978496991">
      <ele>1472.748</ele>
      <time>2021-10-12T19:02:01Z</time>
    </trkpt>
    <trkpt lat="38.562351018" lon="34.978496991">
      <ele>1473.045</ele>
      <time>2021-10-12T19:02:02Z</time>
    </trkpt>
    <trkpt lat="38.562256973" lon="34.978482993">
      <ele>1474.688</ele>
      <time>2021-10-12T19:02:05Z</time>
    </trkpt>
    <trkpt lat="38.562158989" lon="34.978479976">
      <ele>1476.774</ele>
      <time>2021-10-12T19:02:09Z</time>
    </trkpt>
    <trkpt lat="38.562067961" lon="34.97849104">
      <ele>1478.567</ele>
      <time>2021-10-12T19:02:12Z</time>
    </trkpt>
    <trkpt lat="38.561969977" lon="34.978514006">
      <ele>1479.929</ele>
      <time>2021-10-12T19:02:16Z</time>
    </trkpt>
    <trkpt lat="38.561880039" lon="34.97852901">
      <ele>1481.002</ele>
      <time>2021-10-12T19:02:19Z</time>
    </trkpt>
    <trkpt lat="38.561789012" lon="34.978528004">
      <ele>1482.687</ele>
      <time>2021-10-12T19:02:23Z</time>
    </trkpt>
    <trkpt lat="38.561711982" lon="34.978528004">
      <ele>1484.074</ele>
      <time>2021-10-12T19:02:25Z</time>
    </trkpt>
    <trkpt lat="38.561616009" lon="34.978511995">
      <ele>1486.016</ele>
      <time>2021-10-12T19:02:29Z</time>
    </trkpt>
    <trkpt lat="38.561524982" lon="34.978522975">
      <ele>1486.12</ele>
      <time>2021-10-12T19:02:32Z</time>
    </trkpt>
    <trkpt lat="38.561432026" lon="34.978530016">
      <ele>1486.38</ele>
      <time>2021-10-12T19:02:36Z</time>
    </trkpt>
    <trkpt lat="38.56133597" lon="34.978544014">
      <ele>1486.903</ele>
      <time>2021-10-12T19:02:39Z</time>
    </trkpt>
    <trkpt lat="38.561245026" lon="34.978564968">
      <ele>1487.246</ele>
      <time>2021-10-12T19:02:43Z</time>
    </trkpt>
    <trkpt lat="38.561153999" lon="34.978546025">
      <ele>1490.32</ele>
      <time>2021-10-12T19:02:46Z</time>
    </trkpt>
    <trkpt lat="38.561063977" lon="34.978516018">
      <ele>1494.371</ele>
      <time>2021-10-12T19:02:50Z</time>
    </trkpt>
    <trkpt lat="38.560966998" lon="34.978503026">
      <ele>1496.981</ele>
      <time>2021-10-12T19:02:53Z</time>
    </trkpt>
    <trkpt lat="38.560873959" lon="34.978490034">
      <ele>1499.333</ele>
      <time>2021-10-12T19:02:57Z</time>
    </trkpt>
    <trkpt lat="38.560745968" lon="34.978454998">
      <ele>1501.737</ele>
      <time>2021-10-12T19:03:02Z</time>
    </trkpt>
    <trkpt lat="38.560682014" lon="34.978416022">
      <ele>1503.414</ele>
      <time>2021-10-12T19:03:04Z</time>
    </trkpt>
    <trkpt lat="38.560580006" lon="34.97841401">
      <ele>1502.941</ele>
      <time>2021-10-12T19:03:08Z</time>
    </trkpt>
    <trkpt lat="38.560553016" lon="34.97841401">
      <ele>1502.769</ele>
      <time>2021-10-12T19:03:09Z</time>
    </trkpt>
    <trkpt lat="38.560458971" lon="34.978361959">
      <ele>1503.476</ele>
      <time>2021-10-12T19:03:13Z</time>
    </trkpt>
    <trkpt lat="38.56036501" lon="34.97829197">
      <ele>1505.043</ele>
      <time>2021-10-12T19:03:17Z</time>
    </trkpt>
    <trkpt lat="38.560280018" lon="34.978195997">
      <ele>1507.965</ele>
      <time>2021-10-12T19:03:21Z</time>
    </trkpt>
    <trkpt lat="38.560220003" lon="34.978104969">
      <ele>1510.238</ele>
      <time>2021-10-12T19:03:24Z</time>
    </trkpt>
    <trkpt lat="38.560153032" lon="34.978005979">
      <ele>1512.094</ele>
      <time>2021-10-12T19:03:28Z</time>
    </trkpt>
    <trkpt lat="38.560088994" lon="34.977917969">
      <ele>1513.357</ele>
      <time>2021-10-12T19:03:32Z</time>
    </trkpt>
    <trkpt lat="38.560027974" lon="34.97786399">
      <ele>1513.633</ele>
      <time>2021-10-12T19:03:35Z</time>
    </trkpt>
    <trkpt lat="38.560004001" lon="34.977845969">
      <ele>1513.65</ele>
      <time>2021-10-12T19:03:36Z</time>
    </trkpt>
    <trkpt lat="38.559966031" lon="34.977830965">
      <ele>1512.839</ele>
      <time>2021-10-12T19:03:37Z</time>
    </trkpt>
    <trkpt lat="38.559943987" lon="34.977812022">
      <ele>1512.726</ele>
      <time>2021-10-12T19:03:38Z</time>
    </trkpt>
    <trkpt lat="38.559924038" lon="34.977792995">
      <ele>1512.703</ele>
      <time>2021-10-12T19:03:39Z</time>
    </trkpt>
    <trkpt lat="38.559905011" lon="34.977773968">
      <ele>1512.741</ele>
      <time>2021-10-12T19:03:40Z</time>
    </trkpt>
    <trkpt lat="38.559887996" lon="34.977752008">
      <ele>1513.063</ele>
      <time>2021-10-12T19:03:41Z</time>
    </trkpt>
    <trkpt lat="38.559880033" lon="34.977728035">
      <ele>1513.806</ele>
      <time>2021-10-12T19:03:41Z</time>
    </trkpt>
    <trkpt lat="38.559864024" lon="34.977697022">
      <ele>1514.587</ele>
      <time>2021-10-12T19:03:43Z</time>
    </trkpt>
    <trkpt lat="38.559848014" lon="34.977674978">
      <ele>1515.004</ele>
      <time>2021-10-12T19:03:43Z</time>
    </trkpt>
    <trkpt lat="38.559830999" lon="34.977657041">
      <ele>1515.226</ele>
      <time>2021-10-12T19:03:44Z</time>
    </trkpt>
    <trkpt lat="38.559810966" lon="34.977642037">
      <ele>1515.235</ele>
      <time>2021-10-12T19:03:45Z</time>
    </trkpt>
    <trkpt lat="38.559791017" lon="34.977632985">
      <ele>1514.995</ele>
      <time>2021-10-12T19:03:46Z</time>
    </trkpt>
    <trkpt lat="38.559774002" lon="34.977616975">
      <ele>1515.174</ele>
      <time>2021-10-12T19:03:47Z</time>
    </trkpt>
    <trkpt lat="38.55969999" lon="34.977538018">
      <ele>1516.362</ele>
      <time>2021-10-12T19:03:50Z</time>
    </trkpt>
    <trkpt lat="38.559630001" lon="34.977463">
      <ele>1516.724</ele>
      <time>2021-10-12T19:03:54Z</time>
    </trkpt>
    <trkpt lat="38.559545008" lon="34.977380019">
      <ele>1516.577</ele>
      <time>2021-10-12T19:03:58Z</time>
    </trkpt>
    <trkpt lat="38.559449036" lon="34.977317993">
      <ele>1515.378</ele>
      <time>2021-10-12T19:04:02Z</time>
    </trkpt>
    <trkpt lat="38.55936002" lon="34.977246998">
      <ele>1514.703</ele>
      <time>2021-10-12T19:04:05Z</time>
    </trkpt>
    <trkpt lat="38.559288019" lon="34.977178015">
      <ele>1514.536</ele>
      <time>2021-10-12T19:04:09Z</time>
    </trkpt>
    <trkpt lat="38.559224987" lon="34.977077013">
      <ele>1515.757</ele>
      <time>2021-10-12T19:04:13Z</time>
    </trkpt>
    <trkpt lat="38.559217025" lon="34.977038037">
      <ele>1516.865</ele>
      <time>2021-10-12T19:04:14Z</time>
    </trkpt>
    <trkpt lat="38.559217025" lon="34.977014987">
      <ele>1517.725</ele>
      <time>2021-10-12T19:04:14Z</time>
    </trkpt>
    <trkpt lat="38.559215013" lon="34.976975005">
      <ele>1519.124</ele>
      <time>2021-10-12T19:04:16Z</time>
    </trkpt>
    <trkpt lat="38.55921099" lon="34.976929994">
      <ele>1520.597</ele>
      <time>2021-10-12T19:04:17Z</time>
    </trkpt>
    <trkpt lat="38.55920596" lon="34.976886995">
      <ele>1521.938</ele>
      <time>2021-10-12T19:04:18Z</time>
    </trkpt>
    <trkpt lat="38.559204033" lon="34.976864029">
      <ele>1522.7</ele>
      <time>2021-10-12T19:04:19Z</time>
    </trkpt>
    <trkpt lat="38.559193974" lon="34.97682103">
      <ele>1523.903</ele>
      <time>2021-10-12T19:04:20Z</time>
    </trkpt>
    <trkpt lat="38.559189029" lon="34.976797979">
      <ele>1524.592</ele>
      <time>2021-10-12T19:04:21Z</time>
    </trkpt>
    <trkpt lat="38.559177965" lon="34.976755986">
      <ele>1525.826</ele>
      <time>2021-10-12T19:04:22Z</time>
    </trkpt>
    <trkpt lat="38.55917302" lon="34.976712987">
      <ele>1527.349</ele>
      <time>2021-10-12T19:04:23Z</time>
    </trkpt>
    <trkpt lat="38.559174025" lon="34.976673005">
      <ele>1528.938</ele>
      <time>2021-10-12T19:04:25Z</time>
    </trkpt>
    <trkpt lat="38.559174025" lon="34.976636963">
      <ele>1529.717</ele>
      <time>2021-10-12T19:04:26Z</time>
    </trkpt>
    <trkpt lat="38.559180982" lon="34.976595975">
      <ele>1530.62</ele>
      <time>2021-10-12T19:04:27Z</time>
    </trkpt>
    <trkpt lat="38.559185006" lon="34.976572003">
      <ele>1531.144</ele>
      <time>2021-10-12T19:04:27Z</time>
    </trkpt>
    <trkpt lat="38.559185006" lon="34.976531016">
      <ele>1531.872</ele>
      <time>2021-10-12T19:04:29Z</time>
    </trkpt>
    <trkpt lat="38.559181988" lon="34.976490028">
      <ele>1532.531</ele>
      <time>2021-10-12T19:04:30Z</time>
    </trkpt>
    <trkpt lat="38.559179977" lon="34.976450969">
      <ele>1533.181</ele>
      <time>2021-10-12T19:04:31Z</time>
    </trkpt>
    <trkpt lat="38.559178971" lon="34.976414004">
      <ele>1533.818</ele>
      <time>2021-10-12T19:04:32Z</time>
    </trkpt>
    <trkpt lat="38.559176959" lon="34.976379974">
      <ele>1534.316</ele>
      <time>2021-10-12T19:04:33Z</time>
    </trkpt>
    <trkpt lat="38.559188023" lon="34.976340998">
      <ele>1534.952</ele>
      <time>2021-10-12T19:04:34Z</time>
    </trkpt>
    <trkpt lat="38.55919498" lon="34.976319037">
      <ele>1535.315</ele>
      <time>2021-10-12T19:04:35Z</time>
    </trkpt>
    <trkpt lat="38.559204033" lon="34.976294981">
      <ele>1535.73</ele>
      <time>2021-10-12T19:04:36Z</time>
    </trkpt>
    <trkpt lat="38.559216019" lon="34.976271009">
      <ele>1536.188</ele>
      <time>2021-10-12T19:04:37Z</time>
    </trkpt>
    <trkpt lat="38.559228005" lon="34.976246031">
      <ele>1536.641</ele>
      <time>2021-10-12T19:04:37Z</time>
    </trkpt>
    <trkpt lat="38.559237979" lon="34.976222981">
      <ele>1537.025</ele>
      <time>2021-10-12T19:04:38Z</time>
    </trkpt>
    <trkpt lat="38.55924896" lon="34.976202026">
      <ele>1537.397</ele>
      <time>2021-10-12T19:04:39Z</time>
    </trkpt>
    <trkpt lat="38.559260024" lon="34.976173025">
      <ele>1537.825</ele>
      <time>2021-10-12T19:04:40Z</time>
    </trkpt>
    <trkpt lat="38.559274022" lon="34.976147041">
      <ele>1538.258</ele>
      <time>2021-10-12T19:04:41Z</time>
    </trkpt>
    <trkpt lat="38.559286008" lon="34.976118039">
      <ele>1538.665</ele>
      <time>2021-10-12T19:04:42Z</time>
    </trkpt>
    <trkpt lat="38.559296988" lon="34.976088032">
      <ele>1539.004</ele>
      <time>2021-10-12T19:04:43Z</time>
    </trkpt>
    <trkpt lat="38.559307968" lon="34.976060037">
      <ele>1539.309</ele>
      <time>2021-10-12T19:04:44Z</time>
    </trkpt>
    <trkpt lat="38.559317021" lon="34.976034975">
      <ele>1539.565</ele>
      <time>2021-10-12T19:04:44Z</time>
    </trkpt>
    <trkpt lat="38.559326995" lon="34.976005973">
      <ele>1539.847</ele>
      <time>2021-10-12T19:04:45Z</time>
    </trkpt>
    <trkpt lat="38.559337975" lon="34.97597496">
      <ele>1540.145</ele>
      <time>2021-10-12T19:04:46Z</time>
    </trkpt>
    <trkpt lat="38.559347028" lon="34.975945959">
      <ele>1540.4</ele>
      <time>2021-10-12T19:04:47Z</time>
    </trkpt>
    <trkpt lat="38.559358008" lon="34.975919975">
      <ele>1540.658</ele>
      <time>2021-10-12T19:04:48Z</time>
    </trkpt>
    <trkpt lat="38.559368988" lon="34.975890974">
      <ele>1540.921</ele>
      <time>2021-10-12T19:04:49Z</time>
    </trkpt>
    <trkpt lat="38.559378963" lon="34.975861972">
      <ele>1541.165</ele>
      <time>2021-10-12T19:04:50Z</time>
    </trkpt>
    <trkpt lat="38.559386004" lon="34.975831965">
      <ele>1541.383</ele>
      <time>2021-10-12T19:04:51Z</time>
    </trkpt>
    <trkpt lat="38.559391033" lon="34.975802042">
      <ele>1541.739</ele>
      <time>2021-10-12T19:04:52Z</time>
    </trkpt>
    <trkpt lat="38.559395978" lon="34.975771029">
      <ele>1542.11</ele>
      <time>2021-10-12T19:04:53Z</time>
    </trkpt>
    <trkpt lat="38.559403019" lon="34.975736998">
      <ele>1542.541</ele>
      <time>2021-10-12T19:04:54Z</time>
    </trkpt>
    <trkpt lat="38.559407964" lon="34.975703973">
      <ele>1542.942</ele>
      <time>2021-10-12T19:04:55Z</time>
    </trkpt>
    <trkpt lat="38.559413999" lon="34.975672038">
      <ele>1543.35</ele>
      <time>2021-10-12T19:04:56Z</time>
    </trkpt>
    <trkpt lat="38.559420034" lon="34.975639014">
      <ele>1543.774</ele>
      <time>2021-10-12T19:04:57Z</time>
    </trkpt>
    <trkpt lat="38.559426991" lon="34.975604983">
      <ele>1544.226</ele>
      <time>2021-10-12T19:04:58Z</time>
    </trkpt>
    <trkpt lat="38.559435038" lon="34.97557397">
      <ele>1544.668</ele>
      <time>2021-10-12T19:04:59Z</time>
    </trkpt>
    <trkpt lat="38.559443001" lon="34.975541029">
      <ele>1544.979</ele>
      <time>2021-10-12T19:05:00Z</time>
    </trkpt>
    <trkpt lat="38.559450042" lon="34.97550901">
      <ele>1545.097</ele>
      <time>2021-10-12T19:05:01Z</time>
    </trkpt>
    <trkpt lat="38.559456998" lon="34.975477997">
      <ele>1545.213</ele>
      <time>2021-10-12T19:05:01Z</time>
    </trkpt>
    <trkpt lat="38.559465967" lon="34.97544799">
      <ele>1545.357</ele>
      <time>2021-10-12T19:05:02Z</time>
    </trkpt>
    <trkpt lat="38.559479965" lon="34.975388981">
      <ele>1545.563</ele>
      <time>2021-10-12T19:05:04Z</time>
    </trkpt>
    <trkpt lat="38.559488012" lon="34.975357968">
      <ele>1545.673</ele>
      <time>2021-10-12T19:05:05Z</time>
    </trkpt>
    <trkpt lat="38.559493963" lon="34.975327039">
      <ele>1545.745</ele>
      <time>2021-10-12T19:05:06Z</time>
    </trkpt>
    <trkpt lat="38.559501003" lon="34.975296026">
      <ele>1545.828</ele>
      <time>2021-10-12T19:05:07Z</time>
    </trkpt>
    <trkpt lat="38.559507038" lon="34.975268031">
      <ele>1545.874</ele>
      <time>2021-10-12T19:05:08Z</time>
    </trkpt>
    <trkpt lat="38.55951299" lon="34.975241041">
      <ele>1545.887</ele>
      <time>2021-10-12T19:05:09Z</time>
    </trkpt>
    <trkpt lat="38.559519025" lon="34.975211034">
      <ele>1545.898</ele>
      <time>2021-10-12T19:05:10Z</time>
    </trkpt>
    <trkpt lat="38.559525982" lon="34.97518396">
      <ele>1545.936</ele>
      <time>2021-10-12T19:05:10Z</time>
    </trkpt>
    <trkpt lat="38.559533022" lon="34.975154037">
      <ele>1545.972</ele>
      <time>2021-10-12T19:05:11Z</time>
    </trkpt>
    <trkpt lat="38.559539979" lon="34.975124029">
      <ele>1546.013</ele>
      <time>2021-10-12T19:05:12Z</time>
    </trkpt>
    <trkpt lat="38.559549032" lon="34.975096034">
      <ele>1546.098</ele>
      <time>2021-10-12T19:05:13Z</time>
    </trkpt>
    <trkpt lat="38.559552971" lon="34.975068038">
      <ele>1546.103</ele>
      <time>2021-10-12T19:05:14Z</time>
    </trkpt>
    <trkpt lat="38.559555989" lon="34.975038031">
      <ele>1546.09</ele>
      <time>2021-10-12T19:05:15Z</time>
    </trkpt>
    <trkpt lat="38.559558" lon="34.975010036">
      <ele>1546.065</ele>
      <time>2021-10-12T19:05:16Z</time>
    </trkpt>
    <trkpt lat="38.559561018" lon="34.974981034">
      <ele>1546.127</ele>
      <time>2021-10-12T19:05:16Z</time>
    </trkpt>
    <trkpt lat="38.559562024" lon="34.974950021">
      <ele>1546.193</ele>
      <time>2021-10-12T19:05:17Z</time>
    </trkpt>
    <trkpt lat="38.559562024" lon="34.974922026">
      <ele>1546.235</ele>
      <time>2021-10-12T19:05:18Z</time>
    </trkpt>
    <trkpt lat="38.559560012" lon="34.974892018">
      <ele>1546.242</ele>
      <time>2021-10-12T19:05:19Z</time>
    </trkpt>
    <trkpt lat="38.559560012" lon="34.974862011">
      <ele>1546.287</ele>
      <time>2021-10-12T19:05:20Z</time>
    </trkpt>
    <trkpt lat="38.559561018" lon="34.974809038">
      <ele>1546.387</ele>
      <time>2021-10-12T19:05:21Z</time>
    </trkpt>
    <trkpt lat="38.559560012" lon="34.974780958">
      <ele>1546.408</ele>
      <time>2021-10-12T19:05:22Z</time>
    </trkpt>
    <trkpt lat="38.559558" lon="34.974754974">
      <ele>1546.405</ele>
      <time>2021-10-12T19:05:23Z</time>
    </trkpt>
    <trkpt lat="38.559553977" lon="34.974726979">
      <ele>1546.359</ele>
      <time>2021-10-12T19:05:24Z</time>
    </trkpt>
    <trkpt lat="38.559548026" lon="34.974700995">
      <ele>1546.362</ele>
      <time>2021-10-12T19:05:25Z</time>
    </trkpt>
    <trkpt lat="38.559539979" lon="34.974672999">
      <ele>1546.357</ele>
      <time>2021-10-12T19:05:25Z</time>
    </trkpt>
    <trkpt lat="38.559532017" lon="34.974643998">
      <ele>1546.366</ele>
      <time>2021-10-12T19:05:26Z</time>
    </trkpt>
    <trkpt lat="38.559528999" lon="34.974614996">
      <ele>1546.481</ele>
      <time>2021-10-12T19:05:27Z</time>
    </trkpt>
    <trkpt lat="38.559526987" lon="34.974588007">
      <ele>1546.606</ele>
      <time>2021-10-12T19:05:28Z</time>
    </trkpt>
    <trkpt lat="38.559522964" lon="34.974560011">
      <ele>1546.699</ele>
      <time>2021-10-12T19:05:29Z</time>
    </trkpt>
    <trkpt lat="38.559518019" lon="34.974532016">
      <ele>1546.777</ele>
      <time>2021-10-12T19:05:30Z</time>
    </trkpt>
    <trkpt lat="38.559513995" lon="34.974505026">
      <ele>1546.87</ele>
      <time>2021-10-12T19:05:30Z</time>
    </trkpt>
    <trkpt lat="38.559511984" lon="34.974478958">
      <ele>1546.997</ele>
      <time>2021-10-12T19:05:31Z</time>
    </trkpt>
    <trkpt lat="38.559509972" lon="34.97445398">
      <ele>1547.119</ele>
      <time>2021-10-12T19:05:32Z</time>
    </trkpt>
    <trkpt lat="38.559507038" lon="34.974427996">
      <ele>1547.264</ele>
      <time>2021-10-12T19:05:33Z</time>
    </trkpt>
    <trkpt lat="38.559504021" lon="34.974400001">
      <ele>1547.449</ele>
      <time>2021-10-12T19:05:34Z</time>
    </trkpt>
    <trkpt lat="38.559502009" lon="34.974370999">
      <ele>1547.665</ele>
      <time>2021-10-12T19:05:34Z</time>
    </trkpt>
    <trkpt lat="38.559497986" lon="34.974343004">
      <ele>1547.848</ele>
      <time>2021-10-12T19:05:35Z</time>
    </trkpt>
    <trkpt lat="38.559493963" lon="34.97431702">
      <ele>1548.022</ele>
      <time>2021-10-12T19:05:36Z</time>
    </trkpt>
    <trkpt lat="38.559484994" lon="34.97429003">
      <ele>1548.154</ele>
      <time>2021-10-12T19:05:37Z</time>
    </trkpt>
    <trkpt lat="38.559483988" lon="34.974261029">
      <ele>1548.411</ele>
      <time>2021-10-12T19:05:38Z</time>
    </trkpt>
    <trkpt lat="38.559481977" lon="34.974234039">
      <ele>1548.641</ele>
      <time>2021-10-12T19:05:38Z</time>
    </trkpt>
    <trkpt lat="38.559480971" lon="34.974207971">
      <ele>1548.876</ele>
      <time>2021-10-12T19:05:39Z</time>
    </trkpt>
    <trkpt lat="38.559477031" lon="34.97417897">
      <ele>1549.117</ele>
      <time>2021-10-12T19:05:40Z</time>
    </trkpt>
    <trkpt lat="38.559472002" lon="34.974149968">
      <ele>1549.319</ele>
      <time>2021-10-12T19:05:41Z</time>
    </trkpt>
    <trkpt lat="38.559467979" lon="34.974118033">
      <ele>1549.52</ele>
      <time>2021-10-12T19:05:42Z</time>
    </trkpt>
    <trkpt lat="38.559464039" lon="34.974085009">
      <ele>1549.729</ele>
      <time>2021-10-12T19:05:43Z</time>
    </trkpt>
    <trkpt lat="38.559460016" lon="34.974056007">
      <ele>1549.909</ele>
      <time>2021-10-12T19:05:44Z</time>
    </trkpt>
    <trkpt lat="38.559453981" lon="34.974030023">
      <ele>1550.052</ele>
      <time>2021-10-12T19:05:45Z</time>
    </trkpt>
    <trkpt lat="38.559450042" lon="34.97400404">
      <ele>1550.211</ele>
      <time>2021-10-12T19:05:45Z</time>
    </trkpt>
    <trkpt lat="38.559446018" lon="34.973977972">
      <ele>1550.37</ele>
      <time>2021-10-12T19:05:46Z</time>
    </trkpt>
    <trkpt lat="38.559440989" lon="34.973954">
      <ele>1550.513</ele>
      <time>2021-10-12T19:05:47Z</time>
    </trkpt>
    <trkpt lat="38.559439983" lon="34.973928016">
      <ele>1550.698</ele>
      <time>2021-10-12T19:05:48Z</time>
    </trkpt>
    <trkpt lat="38.559438977" lon="34.973903038">
      <ele>1550.876</ele>
      <time>2021-10-12T19:05:48Z</time>
    </trkpt>
    <trkpt lat="38.559436966" lon="34.973878982">
      <ele>1551.043</ele>
      <time>2021-10-12T19:05:49Z</time>
    </trkpt>
    <trkpt lat="38.559437972" lon="34.973854003">
      <ele>1551.225</ele>
      <time>2021-10-12T19:05:50Z</time>
    </trkpt>
    <trkpt lat="38.559439983" lon="34.973809998">
      <ele>1551.547</ele>
      <time>2021-10-12T19:05:51Z</time>
    </trkpt>
    <trkpt lat="38.559440989" lon="34.973791977">
      <ele>1551.681</ele>
      <time>2021-10-12T19:05:51Z</time>
    </trkpt>
    <trkpt lat="38.559444007" lon="34.973759037">
      <ele>1551.933</ele>
      <time>2021-10-12T19:05:52Z</time>
    </trkpt>
    <trkpt lat="38.559456998" lon="34.973726012">
      <ele>1552.237</ele>
      <time>2021-10-12T19:05:54Z</time>
    </trkpt>
    <trkpt lat="38.55946999" lon="34.973699022">
      <ele>1552.488</ele>
      <time>2021-10-12T19:05:54Z</time>
    </trkpt>
    <trkpt lat="38.559488012" lon="34.973674966">
      <ele>1552.733</ele>
      <time>2021-10-12T19:05:55Z</time>
    </trkpt>
    <trkpt lat="38.559508966" lon="34.973657029">
      <ele>1552.94</ele>
      <time>2021-10-12T19:05:56Z</time>
    </trkpt>
    <trkpt lat="38.559534028" lon="34.973636996">
      <ele>1553.166</ele>
      <time>2021-10-12T19:05:57Z</time>
    </trkpt>
    <trkpt lat="38.559565963" lon="34.973619981">
      <ele>1553.388</ele>
      <time>2021-10-12T19:05:59Z</time>
    </trkpt>
    <trkpt lat="38.55958499" lon="34.973611012">
      <ele>1553.506</ele>
      <time>2021-10-12T19:05:59Z</time>
    </trkpt>
    <trkpt lat="38.559627989" lon="34.973589974">
      <ele>1553.661</ele>
      <time>2021-10-12T19:06:01Z</time>
    </trkpt>
    <trkpt lat="38.559652967" lon="34.973577987">
      <ele>1553.751</ele>
      <time>2021-10-12T19:06:02Z</time>
    </trkpt>
    <trkpt lat="38.559675012" lon="34.973566001">
      <ele>1553.83</ele>
      <time>2021-10-12T19:06:03Z</time>
    </trkpt>
    <trkpt lat="38.559698984" lon="34.973549992">
      <ele>1553.916</ele>
      <time>2021-10-12T19:06:04Z</time>
    </trkpt>
    <trkpt lat="38.559722034" lon="34.973535994">
      <ele>1553.999</ele>
      <time>2021-10-12T19:06:05Z</time>
    </trkpt>
    <trkpt lat="38.559745001" lon="34.973523002">
      <ele>1554.108</ele>
      <time>2021-10-12T19:06:06Z</time>
    </trkpt>
    <trkpt lat="38.559769979" lon="34.97351001">
      <ele>1554.234</ele>
      <time>2021-10-12T19:06:07Z</time>
    </trkpt>
    <trkpt lat="38.559791017" lon="34.973494001">
      <ele>1554.352</ele>
      <time>2021-10-12T19:06:08Z</time>
    </trkpt>
    <trkpt lat="38.559812978" lon="34.973477991">
      <ele>1554.483</ele>
      <time>2021-10-12T19:06:09Z</time>
    </trkpt>
    <trkpt lat="38.559832005" lon="34.973461982">
      <ele>1554.607</ele>
      <time>2021-10-12T19:06:10Z</time>
    </trkpt>
    <trkpt lat="38.559848014" lon="34.973445972">
      <ele>1554.722</ele>
      <time>2021-10-12T19:06:10Z</time>
    </trkpt>
    <trkpt lat="38.559871987" lon="34.973429963">
      <ele>1554.891</ele>
      <time>2021-10-12T19:06:11Z</time>
    </trkpt>
    <trkpt lat="38.559892019" lon="34.973410014">
      <ele>1555.054</ele>
      <time>2021-10-12T19:06:12Z</time>
    </trkpt>
    <trkpt lat="38.559911968" lon="34.973388975">
      <ele>1555.229</ele>
      <time>2021-10-12T19:06:13Z</time>
    </trkpt>
    <trkpt lat="38.559934013" lon="34.973370032">
      <ele>1555.424</ele>
      <time>2021-10-12T19:06:14Z</time>
    </trkpt>
    <trkpt lat="38.559953962" lon="34.973353017">
      <ele>1555.609</ele>
      <time>2021-10-12T19:06:15Z</time>
    </trkpt>
    <trkpt lat="38.559975" lon="34.973334996">
      <ele>1555.815</ele>
      <time>2021-10-12T19:06:16Z</time>
    </trkpt>
    <trkpt lat="38.559996039" lon="34.973314963">
      <ele>1556.039</ele>
      <time>2021-10-12T19:06:17Z</time>
    </trkpt>
    <trkpt lat="38.560013976" lon="34.973294009">
      <ele>1556.134</ele>
      <time>2021-10-12T19:06:18Z</time>
    </trkpt>
    <trkpt lat="38.560034009" lon="34.97327297">
      <ele>1556.191</ele>
      <time>2021-10-12T19:06:19Z</time>
    </trkpt>
    <trkpt lat="38.560054041" lon="34.973252015">
      <ele>1556.236</ele>
      <time>2021-10-12T19:06:20Z</time>
    </trkpt>
    <trkpt lat="38.56007399" lon="34.973228965">
      <ele>1556.276</ele>
      <time>2021-10-12T19:06:21Z</time>
    </trkpt>
    <trkpt lat="38.560094023" lon="34.973203987">
      <ele>1556.308</ele>
      <time>2021-10-12T19:06:22Z</time>
    </trkpt>
    <trkpt lat="38.560111038" lon="34.97318102">
      <ele>1556.329</ele>
      <time>2021-10-12T19:06:23Z</time>
    </trkpt>
    <trkpt lat="38.560128976" lon="34.973153025">
      <ele>1556.348</ele>
      <time>2021-10-12T19:06:24Z</time>
    </trkpt>
    <trkpt lat="38.560143979" lon="34.973127963">
      <ele>1556.356</ele>
      <time>2021-10-12T19:06:25Z</time>
    </trkpt>
    <trkpt lat="38.560160995" lon="34.973098962">
      <ele>1556.355</ele>
      <time>2021-10-12T19:06:26Z</time>
    </trkpt>
    <trkpt lat="38.560177004" lon="34.973069038">
      <ele>1556.345</ele>
      <time>2021-10-12T19:06:27Z</time>
    </trkpt>
    <trkpt lat="38.560189996" lon="34.973039031">
      <ele>1556.394</ele>
      <time>2021-10-12T19:06:28Z</time>
    </trkpt>
    <trkpt lat="38.560202988" lon="34.973008018">
      <ele>1556.486</ele>
      <time>2021-10-12T19:06:29Z</time>
    </trkpt>
    <trkpt lat="38.560216986" lon="34.972975999">
      <ele>1556.568</ele>
      <time>2021-10-12T19:06:30Z</time>
    </trkpt>
    <trkpt lat="38.560232995" lon="34.972941969">
      <ele>1556.636</ele>
      <time>2021-10-12T19:06:31Z</time>
    </trkpt>
    <trkpt lat="38.56025001" lon="34.972909028">
      <ele>1556.68</ele>
      <time>2021-10-12T19:06:32Z</time>
    </trkpt>
    <trkpt lat="38.560267026" lon="34.972877009">
      <ele>1556.706</ele>
      <time>2021-10-12T19:06:33Z</time>
    </trkpt>
    <trkpt lat="38.560281023" lon="34.972843984">
      <ele>1556.764</ele>
      <time>2021-10-12T19:06:34Z</time>
    </trkpt>
    <trkpt lat="38.560312036" lon="34.972778019">
      <ele>1556.999</ele>
      <time>2021-10-12T19:06:37Z</time>
    </trkpt>
    <trkpt lat="38.560327962" lon="34.972747006">
      <ele>1557.111</ele>
      <time>2021-10-12T19:06:38Z</time>
    </trkpt>
    <trkpt lat="38.560341038" lon="34.972715992">
      <ele>1557.222</ele>
      <time>2021-10-12T19:06:39Z</time>
    </trkpt>
    <trkpt lat="38.560359981" lon="34.972682968">
      <ele>1557.341</ele>
      <time>2021-10-12T19:06:40Z</time>
    </trkpt>
    <trkpt lat="38.56037599" lon="34.972651033">
      <ele>1557.456</ele>
      <time>2021-10-12T19:06:41Z</time>
    </trkpt>
    <trkpt lat="38.560395017" lon="34.972618008">
      <ele>1557.575</ele>
      <time>2021-10-12T19:06:42Z</time>
    </trkpt>
    <trkpt lat="38.560414966" lon="34.972585989">
      <ele>1557.69</ele>
      <time>2021-10-12T19:06:43Z</time>
    </trkpt>
    <trkpt lat="38.560436005" lon="34.972552964">
      <ele>1557.809</ele>
      <time>2021-10-12T19:06:45Z</time>
    </trkpt>
    <trkpt lat="38.560456038" lon="34.972523041">
      <ele>1557.917</ele>
      <time>2021-10-12T19:06:46Z</time>
    </trkpt>
    <trkpt lat="38.560474981" lon="34.972493034">
      <ele>1557.982</ele>
      <time>2021-10-12T19:06:47Z</time>
    </trkpt>
    <trkpt lat="38.560494008" lon="34.972463027">
      <ele>1557.896</ele>
      <time>2021-10-12T19:06:48Z</time>
    </trkpt>
    <trkpt lat="38.56051404" lon="34.972434025">
      <ele>1557.798</ele>
      <time>2021-10-12T19:06:49Z</time>
    </trkpt>
    <trkpt lat="38.560532983" lon="34.972401001">
      <ele>1557.673</ele>
      <time>2021-10-12T19:06:50Z</time>
    </trkpt>
    <trkpt lat="38.56055201" lon="34.972371999">
      <ele>1557.545</ele>
      <time>2021-10-12T19:06:52Z</time>
    </trkpt>
    <trkpt lat="38.560571037" lon="34.97233998">
      <ele>1557.456</ele>
      <time>2021-10-12T19:06:53Z</time>
    </trkpt>
    <trkpt lat="38.56058998" lon="34.972307961">
      <ele>1557.394</ele>
      <time>2021-10-12T19:06:54Z</time>
    </trkpt>
    <trkpt lat="38.560610013" lon="34.97227896">
      <ele>1557.36</ele>
      <time>2021-10-12T19:06:55Z</time>
    </trkpt>
    <trkpt lat="38.560628034" lon="34.972253982">
      <ele>1557.345</ele>
      <time>2021-10-12T19:06:56Z</time>
    </trkpt>
    <trkpt lat="38.560647983" lon="34.972224981">
      <ele>1557.339</ele>
      <time>2021-10-12T19:06:57Z</time>
    </trkpt>
    <trkpt lat="38.560666004" lon="34.972193968">
      <ele>1557.317</ele>
      <time>2021-10-12T19:06:58Z</time>
    </trkpt>
    <trkpt lat="38.560683019" lon="34.972164966">
      <ele>1557.27</ele>
      <time>2021-10-12T19:06:59Z</time>
    </trkpt>
    <trkpt lat="38.560700035" lon="34.972135965">
      <ele>1557.197</ele>
      <time>2021-10-12T19:07:00Z</time>
    </trkpt>
    <trkpt lat="38.560716966" lon="34.972105036">
      <ele>1557.091</ele>
      <time>2021-10-12T19:07:01Z</time>
    </trkpt>
    <trkpt lat="38.56073197" lon="34.972075028">
      <ele>1556.962</ele>
      <time>2021-10-12T19:07:02Z</time>
    </trkpt>
    <trkpt lat="38.560749991" lon="34.972042004">
      <ele>1556.792</ele>
      <time>2021-10-12T19:07:04Z</time>
    </trkpt>
    <trkpt lat="38.560763989" lon="34.972010991">
      <ele>1556.609</ele>
      <time>2021-10-12T19:07:05Z</time>
    </trkpt>
    <trkpt lat="38.560781004" lon="34.971977966">
      <ele>1556.384</ele>
      <time>2021-10-12T19:07:06Z</time>
    </trkpt>
    <trkpt lat="38.560798019" lon="34.971946031">
      <ele>1556.137</ele>
      <time>2021-10-12T19:07:07Z</time>
    </trkpt>
    <trkpt lat="38.560811011" lon="34.971918035">
      <ele>1556.088</ele>
      <time>2021-10-12T19:07:08Z</time>
    </trkpt>
    <trkpt lat="38.560828026" lon="34.971888028">
      <ele>1556.023</ele>
      <time>2021-10-12T19:07:09Z</time>
    </trkpt>
    <trkpt lat="38.560845964" lon="34.971855003">
      <ele>1555.985</ele>
      <time>2021-10-12T19:07:10Z</time>
    </trkpt>
    <trkpt lat="38.560860967" lon="34.971819967">
      <ele>1555.955</ele>
      <time>2021-10-12T19:07:11Z</time>
    </trkpt>
    <trkpt lat="38.560876977" lon="34.971784009">
      <ele>1555.909</ele>
      <time>2021-10-12T19:07:12Z</time>
    </trkpt>
    <trkpt lat="38.56089198" lon="34.971750984">
      <ele>1555.853</ele>
      <time>2021-10-12T19:07:14Z</time>
    </trkpt>
    <trkpt lat="38.56090799" lon="34.971717037">
      <ele>1555.78</ele>
      <time>2021-10-12T19:07:15Z</time>
    </trkpt>
    <trkpt lat="38.560923999" lon="34.971685018">
      <ele>1555.695</ele>
      <time>2021-10-12T19:07:16Z</time>
    </trkpt>
    <trkpt lat="38.560939003" lon="34.971654005">
      <ele>1555.648</ele>
      <time>2021-10-12T19:07:17Z</time>
    </trkpt>
    <trkpt lat="38.560953001" lon="34.971621986">
      <ele>1555.661</ele>
      <time>2021-10-12T19:07:18Z</time>
    </trkpt>
    <trkpt lat="38.560968004" lon="34.971590973">
      <ele>1555.656</ele>
      <time>2021-10-12T19:07:19Z</time>
    </trkpt>
    <trkpt lat="38.560985019" lon="34.971559038">
      <ele>1555.63</ele>
      <time>2021-10-12T19:07:20Z</time>
    </trkpt>
    <trkpt lat="38.561001029" lon="34.971528025">
      <ele>1555.594</ele>
      <time>2021-10-12T19:07:21Z</time>
    </trkpt>
    <trkpt lat="38.561017038" lon="34.971498018">
      <ele>1555.544</ele>
      <time>2021-10-12T19:07:22Z</time>
    </trkpt>
    <trkpt lat="38.561036987" lon="34.971467005">
      <ele>1555.459</ele>
      <time>2021-10-12T19:07:23Z</time>
    </trkpt>
    <trkpt lat="38.561055008" lon="34.971436998">
      <ele>1555.369</ele>
      <time>2021-10-12T19:07:25Z</time>
    </trkpt>
    <trkpt lat="38.561072024" lon="34.971409002">
      <ele>1555.271</ele>
      <time>2021-10-12T19:07:26Z</time>
    </trkpt>
    <trkpt lat="38.561086021" lon="34.971376983">
      <ele>1555.262</ele>
      <time>2021-10-12T19:07:27Z</time>
    </trkpt>
    <trkpt lat="38.561099013" lon="34.971344965">
      <ele>1555.396</ele>
      <time>2021-10-12T19:07:28Z</time>
    </trkpt>
    <trkpt lat="38.561113011" lon="34.971312024">
      <ele>1555.552</ele>
      <time>2021-10-12T19:07:29Z</time>
    </trkpt>
    <trkpt lat="38.561129021" lon="34.971276987">
      <ele>1555.78</ele>
      <time>2021-10-12T19:07:30Z</time>
    </trkpt>
    <trkpt lat="38.561144024" lon="34.971244968">
      <ele>1555.975</ele>
      <time>2021-10-12T19:07:31Z</time>
    </trkpt>
    <trkpt lat="38.561161039" lon="34.971211022">
      <ele>1556.166</ele>
      <time>2021-10-12T19:07:32Z</time>
    </trkpt>
    <trkpt lat="38.561177971" lon="34.971175985">
      <ele>1556.348</ele>
      <time>2021-10-12T19:07:33Z</time>
    </trkpt>
    <trkpt lat="38.561194986" lon="34.971140027">
      <ele>1556.521</ele>
      <time>2021-10-12T19:07:35Z</time>
    </trkpt>
    <trkpt lat="38.561208984" lon="34.97111002">
      <ele>1556.653</ele>
      <time>2021-10-12T19:07:36Z</time>
    </trkpt>
    <trkpt lat="38.561225999" lon="34.971080013">
      <ele>1556.745</ele>
      <time>2021-10-12T19:07:37Z</time>
    </trkpt>
    <trkpt lat="38.561239997" lon="34.971046988">
      <ele>1556.874</ele>
      <time>2021-10-12T19:07:38Z</time>
    </trkpt>
    <trkpt lat="38.561258018" lon="34.971010024">
      <ele>1557.028</ele>
      <time>2021-10-12T19:07:39Z</time>
    </trkpt>
    <trkpt lat="38.561273022" lon="34.970973982">
      <ele>1557.199</ele>
      <time>2021-10-12T19:07:40Z</time>
    </trkpt>
    <trkpt lat="38.561286014" lon="34.970941041">
      <ele>1557.368</ele>
      <time>2021-10-12T19:07:41Z</time>
    </trkpt>
    <trkpt lat="38.561301017" lon="34.970910028">
      <ele>1557.535</ele>
      <time>2021-10-12T19:07:42Z</time>
    </trkpt>
    <trkpt lat="38.561330019" lon="34.970852025">
      <ele>1557.88</ele>
      <time>2021-10-12T19:07:44Z</time>
    </trkpt>
    <trkpt lat="38.561344016" lon="34.970821012">
      <ele>1558.044</ele>
      <time>2021-10-12T19:07:45Z</time>
    </trkpt>
    <trkpt lat="38.561358014" lon="34.970789999">
      <ele>1558.156</ele>
      <time>2021-10-12T19:07:46Z</time>
    </trkpt>
    <trkpt lat="38.561374024" lon="34.970756974">
      <ele>1558.275</ele>
      <time>2021-10-12T19:07:48Z</time>
    </trkpt>
    <trkpt lat="38.561388021" lon="34.970724033">
      <ele>1558.393</ele>
      <time>2021-10-12T19:07:49Z</time>
    </trkpt>
    <trkpt lat="38.561403025" lon="34.970692014">
      <ele>1558.458</ele>
      <time>2021-10-12T19:07:50Z</time>
    </trkpt>
    <trkpt lat="38.561415011" lon="34.970659995">
      <ele>1558.53</ele>
      <time>2021-10-12T19:07:51Z</time>
    </trkpt>
    <trkpt lat="38.561429009" lon="34.970625965">
      <ele>1558.602</ele>
      <time>2021-10-12T19:07:52Z</time>
    </trkpt>
    <trkpt lat="38.561444012" lon="34.970584977">
      <ele>1558.696</ele>
      <time>2021-10-12T19:07:53Z</time>
    </trkpt>
    <trkpt lat="38.561454993" lon="34.970547007">
      <ele>1558.762</ele>
      <time>2021-10-12T19:07:54Z</time>
    </trkpt>
    <trkpt lat="38.561464967" lon="34.970511971">
      <ele>1558.726</ele>
      <time>2021-10-12T19:07:55Z</time>
    </trkpt>
    <trkpt lat="38.561476031" lon="34.970476013">
      <ele>1558.686</ele>
      <time>2021-10-12T19:07:57Z</time>
    </trkpt>
    <trkpt lat="38.561483994" lon="34.970440976">
      <ele>1558.658</ele>
      <time>2021-10-12T19:07:58Z</time>
    </trkpt>
    <trkpt lat="38.561492963" lon="34.97036797">
      <ele>1558.625</ele>
      <time>2021-10-12T19:08:00Z</time>
    </trkpt>
    <trkpt lat="38.561497992" lon="34.970294964">
      <ele>1558.607</ele>
      <time>2021-10-12T19:08:02Z</time>
    </trkpt>
    <trkpt lat="38.561502015" lon="34.970259005">
      <ele>1558.458</ele>
      <time>2021-10-12T19:08:03Z</time>
    </trkpt>
    <trkpt lat="38.561506039" lon="34.970184993">
      <ele>1557.91</ele>
      <time>2021-10-12T19:08:05Z</time>
    </trkpt>
    <trkpt lat="38.561509978" lon="34.97015004">
      <ele>1557.644</ele>
      <time>2021-10-12T19:08:06Z</time>
    </trkpt>
    <trkpt lat="38.561510984" lon="34.970117016">
      <ele>1557.403</ele>
      <time>2021-10-12T19:08:07Z</time>
    </trkpt>
    <trkpt lat="38.561515007" lon="34.970081979">
      <ele>1557.136</ele>
      <time>2021-10-12T19:08:08Z</time>
    </trkpt>
    <trkpt lat="38.561516013" lon="34.970048033">
      <ele>1556.888</ele>
      <time>2021-10-12T19:08:09Z</time>
    </trkpt>
    <trkpt lat="38.56151903" lon="34.970008973">
      <ele>1556.596</ele>
      <time>2021-10-12T19:08:10Z</time>
    </trkpt>
    <trkpt lat="38.56151903" lon="34.969969997">
      <ele>1556.373</ele>
      <time>2021-10-12T19:08:11Z</time>
    </trkpt>
    <trkpt lat="38.561518025" lon="34.969930016">
      <ele>1556.166</ele>
      <time>2021-10-12T19:08:13Z</time>
    </trkpt>
    <trkpt lat="38.561517019" lon="34.969889028">
      <ele>1555.955</ele>
      <time>2021-10-12T19:08:14Z</time>
    </trkpt>
    <trkpt lat="38.561515007" lon="34.969846029">
      <ele>1555.74</ele>
      <time>2021-10-12T19:08:15Z</time>
    </trkpt>
    <trkpt lat="38.561512996" lon="34.969805963">
      <ele>1555.543</ele>
      <time>2021-10-12T19:08:16Z</time>
    </trkpt>
    <trkpt lat="38.561512996" lon="34.969761958">
      <ele>1555.313</ele>
      <time>2021-10-12T19:08:17Z</time>
    </trkpt>
    <trkpt lat="38.561509978" lon="34.969719965">
      <ele>1555.128</ele>
      <time>2021-10-12T19:08:19Z</time>
    </trkpt>
    <trkpt lat="38.561510984" lon="34.96967596">
      <ele>1555.121</ele>
      <time>2021-10-12T19:08:20Z</time>
    </trkpt>
    <trkpt lat="38.561515007" lon="34.969630027">
      <ele>1555.092</ele>
      <time>2021-10-12T19:08:21Z</time>
    </trkpt>
    <trkpt lat="38.561517019" lon="34.969587028">
      <ele>1555.077</ele>
      <time>2021-10-12T19:08:23Z</time>
    </trkpt>
    <trkpt lat="38.56151903" lon="34.969543023">
      <ele>1555.063</ele>
      <time>2021-10-12T19:08:24Z</time>
    </trkpt>
    <trkpt lat="38.561524982" lon="34.969499018">
      <ele>1555.02</ele>
      <time>2021-10-12T19:08:25Z</time>
    </trkpt>
    <trkpt lat="38.561534034" lon="34.969458031">
      <ele>1554.955</ele>
      <time>2021-10-12T19:08:26Z</time>
    </trkpt>
    <trkpt lat="38.561544009" lon="34.969419977">
      <ele>1554.834</ele>
      <time>2021-10-12T19:08:28Z</time>
    </trkpt>
    <trkpt lat="38.561551971" lon="34.969381001">
      <ele>1554.692</ele>
      <time>2021-10-12T19:08:29Z</time>
    </trkpt>
    <trkpt lat="38.561563035" lon="34.969342025">
      <ele>1554.515</ele>
      <time>2021-10-12T19:08:30Z</time>
    </trkpt>
    <trkpt lat="38.561574016" lon="34.969302965">
      <ele>1554.328</ele>
      <time>2021-10-12T19:08:31Z</time>
    </trkpt>
    <trkpt lat="38.561578961" lon="34.969268013">
      <ele>1554.197</ele>
      <time>2021-10-12T19:08:32Z</time>
    </trkpt>
    <trkpt lat="38.561589019" lon="34.969227025">
      <ele>1553.995</ele>
      <time>2021-10-12T19:08:33Z</time>
    </trkpt>
    <trkpt lat="38.561598994" lon="34.969187966">
      <ele>1553.789</ele>
      <time>2021-10-12T19:08:35Z</time>
    </trkpt>
    <trkpt lat="38.561607962" lon="34.969149996">
      <ele>1553.681</ele>
      <time>2021-10-12T19:08:36Z</time>
    </trkpt>
    <trkpt lat="38.561616009" lon="34.969114959">
      <ele>1553.699</ele>
      <time>2021-10-12T19:08:37Z</time>
    </trkpt>
    <trkpt lat="38.561624978" lon="34.969076989">
      <ele>1553.725</ele>
      <time>2021-10-12T19:08:38Z</time>
    </trkpt>
    <trkpt lat="38.561632019" lon="34.96904497">
      <ele>1553.758</ele>
      <time>2021-10-12T19:08:39Z</time>
    </trkpt>
    <trkpt lat="38.561640987" lon="34.969012029">
      <ele>1553.783</ele>
      <time>2021-10-12T19:08:40Z</time>
    </trkpt>
    <trkpt lat="38.561648028" lon="34.968980011">
      <ele>1553.828</ele>
      <time>2021-10-12T19:08:41Z</time>
    </trkpt>
    <trkpt lat="38.561658002" lon="34.968943968">
      <ele>1553.87</ele>
      <time>2021-10-12T19:08:42Z</time>
    </trkpt>
    <trkpt lat="38.561667977" lon="34.968909016">
      <ele>1553.918</ele>
      <time>2021-10-12T19:08:43Z</time>
    </trkpt>
    <trkpt lat="38.561677029" lon="34.968875991">
      <ele>1553.927</ele>
      <time>2021-10-12T19:08:44Z</time>
    </trkpt>
    <trkpt lat="38.561692033" lon="34.96880902">
      <ele>1553.844</ele>
      <time>2021-10-12T19:08:46Z</time>
    </trkpt>
    <trkpt lat="38.561702007" lon="34.968779013">
      <ele>1553.796</ele>
      <time>2021-10-12T19:08:47Z</time>
    </trkpt>
    <trkpt lat="38.561710976" lon="34.968749005">
      <ele>1553.761</ele>
      <time>2021-10-12T19:08:48Z</time>
    </trkpt>
    <trkpt lat="38.561717011" lon="34.968720004">
      <ele>1553.748</ele>
      <time>2021-10-12T19:08:49Z</time>
    </trkpt>
    <trkpt lat="38.56172204" lon="34.968686979">
      <ele>1553.746</ele>
      <time>2021-10-12T19:08:50Z</time>
    </trkpt>
    <trkpt lat="38.561723968" lon="34.968654038">
      <ele>1553.762</ele>
      <time>2021-10-12T19:08:51Z</time>
    </trkpt>
    <trkpt lat="38.561726985" lon="34.968621014">
      <ele>1553.775</ele>
      <time>2021-10-12T19:08:52Z</time>
    </trkpt>
    <trkpt lat="38.561727991" lon="34.968587989">
      <ele>1553.862</ele>
      <time>2021-10-12T19:08:53Z</time>
    </trkpt>
    <trkpt lat="38.561727991" lon="34.968553036">
      <ele>1553.988</ele>
      <time>2021-10-12T19:08:54Z</time>
    </trkpt>
    <trkpt lat="38.561727991" lon="34.968513977">
      <ele>1554.129</ele>
      <time>2021-10-12T19:08:55Z</time>
    </trkpt>
    <trkpt lat="38.56172598" lon="34.96848003">
      <ele>1554.258</ele>
      <time>2021-10-12T19:08:56Z</time>
    </trkpt>
    <trkpt lat="38.561723968" lon="34.968443988">
      <ele>1554.395</ele>
      <time>2021-10-12T19:08:57Z</time>
    </trkpt>
    <trkpt lat="38.561720029" lon="34.968407024">
      <ele>1554.543</ele>
      <time>2021-10-12T19:08:58Z</time>
    </trkpt>
    <trkpt lat="38.561719023" lon="34.968369976">
      <ele>1554.68</ele>
      <time>2021-10-12T19:08:59Z</time>
    </trkpt>
    <trkpt lat="38.561717011" lon="34.968296969">
      <ele>1554.95</ele>
      <time>2021-10-12T19:09:01Z</time>
    </trkpt>
    <trkpt lat="38.561716005" lon="34.968262017">
      <ele>1555.079</ele>
      <time>2021-10-12T19:09:02Z</time>
    </trkpt>
    <trkpt lat="38.561714999" lon="34.968227986">
      <ele>1555.205</ele>
      <time>2021-10-12T19:09:03Z</time>
    </trkpt>
    <trkpt lat="38.561713994" lon="34.968193034">
      <ele>1555.335</ele>
      <time>2021-10-12T19:09:04Z</time>
    </trkpt>
    <trkpt lat="38.561714999" lon="34.968159003">
      <ele>1555.454</ele>
      <time>2021-10-12T19:09:05Z</time>
    </trkpt>
    <trkpt lat="38.561716005" lon="34.968123967">
      <ele>1555.576</ele>
      <time>2021-10-12T19:09:06Z</time>
    </trkpt>
    <trkpt lat="38.561713994" lon="34.968096977">
      <ele>1555.681</ele>
      <time>2021-10-12T19:09:07Z</time>
    </trkpt>
    <trkpt lat="38.561712988" lon="34.96806697">
      <ele>1555.792</ele>
      <time>2021-10-12T19:09:08Z</time>
    </trkpt>
    <trkpt lat="38.561714999" lon="34.968037969">
      <ele>1555.942</ele>
      <time>2021-10-12T19:09:09Z</time>
    </trkpt>
    <trkpt lat="38.561716005" lon="34.968006033">
      <ele>1556.147</ele>
      <time>2021-10-12T19:09:10Z</time>
    </trkpt>
    <trkpt lat="38.561717011" lon="34.967972003">
      <ele>1556.366</ele>
      <time>2021-10-12T19:09:11Z</time>
    </trkpt>
    <trkpt lat="38.561720029" lon="34.967909977">
      <ele>1556.755</ele>
      <time>2021-10-12T19:09:12Z</time>
    </trkpt>
    <trkpt lat="38.561724974" lon="34.967838982">
      <ele>1557.186</ele>
      <time>2021-10-12T19:09:15Z</time>
    </trkpt>
    <trkpt lat="38.561722962" lon="34.967810987">
      <ele>1557.38</ele>
      <time>2021-10-12T19:09:15Z</time>
    </trkpt>
    <trkpt lat="38.561724974" lon="34.967779974">
      <ele>1557.566</ele>
      <time>2021-10-12T19:09:16Z</time>
    </trkpt>
    <trkpt lat="38.561728997" lon="34.967750972">
      <ele>1557.648</ele>
      <time>2021-10-12T19:09:17Z</time>
    </trkpt>
    <trkpt lat="38.56173302" lon="34.967717025">
      <ele>1557.741</ele>
      <time>2021-10-12T19:09:18Z</time>
    </trkpt>
    <trkpt lat="38.561735032" lon="34.967679977">
      <ele>1557.86</ele>
      <time>2021-10-12T19:09:19Z</time>
    </trkpt>
    <trkpt lat="38.561737966" lon="34.967646031">
      <ele>1557.961</ele>
      <time>2021-10-12T19:09:20Z</time>
    </trkpt>
    <trkpt lat="38.561738972" lon="34.967607977">
      <ele>1558.091</ele>
      <time>2021-10-12T19:09:21Z</time>
    </trkpt>
    <trkpt lat="38.561738972" lon="34.967571013">
      <ele>1558.224</ele>
      <time>2021-10-12T19:09:22Z</time>
    </trkpt>
    <trkpt lat="38.561737966" lon="34.96753497">
      <ele>1558.361</ele>
      <time>2021-10-12T19:09:23Z</time>
    </trkpt>
    <trkpt lat="38.56173696" lon="34.967497">
      <ele>1558.497</ele>
      <time>2021-10-12T19:09:24Z</time>
    </trkpt>
    <trkpt lat="38.561736038" lon="34.967463976">
      <ele>1558.533</ele>
      <time>2021-10-12T19:09:25Z</time>
    </trkpt>
    <trkpt lat="38.561734026" lon="34.967427012">
      <ele>1558.579</ele>
      <time>2021-10-12T19:09:27Z</time>
    </trkpt>
    <trkpt lat="38.561730003" lon="34.967388036">
      <ele>1558.636</ele>
      <time>2021-10-12T19:09:28Z</time>
    </trkpt>
    <trkpt lat="38.56172204" lon="34.967349982">
      <ele>1558.709</ele>
      <time>2021-10-12T19:09:29Z</time>
    </trkpt>
    <trkpt lat="38.561712988" lon="34.967313018">
      <ele>1558.779</ele>
      <time>2021-10-12T19:09:30Z</time>
    </trkpt>
    <trkpt lat="38.561705025" lon="34.967274042">
      <ele>1558.836</ele>
      <time>2021-10-12T19:09:31Z</time>
    </trkpt>
    <trkpt lat="38.561701002" lon="34.967235988">
      <ele>1558.87</ele>
      <time>2021-10-12T19:09:32Z</time>
    </trkpt>
    <trkpt lat="38.561693961" lon="34.967158036">
      <ele>1558.693</ele>
      <time>2021-10-12T19:09:35Z</time>
    </trkpt>
    <trkpt lat="38.561690021" lon="34.967123">
      <ele>1558.589</ele>
      <time>2021-10-12T19:09:36Z</time>
    </trkpt>
    <trkpt lat="38.561684992" lon="34.967084024">
      <ele>1558.469</ele>
      <time>2021-10-12T19:09:37Z</time>
    </trkpt>
    <trkpt lat="38.561679963" lon="34.967049994">
      <ele>1558.362</ele>
      <time>2021-10-12T19:09:38Z</time>
    </trkpt>
    <trkpt lat="38.561676024" lon="34.967015041">
      <ele>1558.246</ele>
      <time>2021-10-12T19:09:39Z</time>
    </trkpt>
    <trkpt lat="38.561673006" lon="34.966980005">
      <ele>1558.125</ele>
      <time>2021-10-12T19:09:40Z</time>
    </trkpt>
    <trkpt lat="38.561672" lon="34.966952009">
      <ele>1558.027</ele>
      <time>2021-10-12T19:09:41Z</time>
    </trkpt>
    <trkpt lat="38.561670994" lon="34.96691999">
      <ele>1558.001</ele>
      <time>2021-10-12T19:09:41Z</time>
    </trkpt>
    <trkpt lat="38.561672" lon="34.96688596">
      <ele>1558.004</ele>
      <time>2021-10-12T19:09:42Z</time>
    </trkpt>
    <trkpt lat="38.561670994" lon="34.966851007">
      <ele>1558.005</ele>
      <time>2021-10-12T19:09:43Z</time>
    </trkpt>
    <trkpt lat="38.561673006" lon="34.966814965">
      <ele>1558.011</ele>
      <time>2021-10-12T19:09:45Z</time>
    </trkpt>
    <trkpt lat="38.561674012" lon="34.966782024">
      <ele>1558.015</ele>
      <time>2021-10-12T19:09:45Z</time>
    </trkpt>
    <trkpt lat="38.561685998" lon="34.966715975">
      <ele>1558.057</ele>
      <time>2021-10-12T19:09:47Z</time>
    </trkpt>
    <trkpt lat="38.561695972" lon="34.966650009">
      <ele>1558.165</ele>
      <time>2021-10-12T19:09:49Z</time>
    </trkpt>
    <trkpt lat="38.56169899" lon="34.96661799">
      <ele>1558.292</ele>
      <time>2021-10-12T19:09:50Z</time>
    </trkpt>
    <trkpt lat="38.561702007" lon="34.96658396">
      <ele>1558.425</ele>
      <time>2021-10-12T19:09:51Z</time>
    </trkpt>
    <trkpt lat="38.561706031" lon="34.966552025">
      <ele>1558.554</ele>
      <time>2021-10-12T19:09:52Z</time>
    </trkpt>
    <trkpt lat="38.561707959" lon="34.966520006">
      <ele>1558.677</ele>
      <time>2021-10-12T19:09:53Z</time>
    </trkpt>
    <trkpt lat="38.561707959" lon="34.966487987">
      <ele>1558.792</ele>
      <time>2021-10-12T19:09:54Z</time>
    </trkpt>
    <trkpt lat="38.561705025" lon="34.966455968">
      <ele>1558.897</ele>
      <time>2021-10-12T19:09:55Z</time>
    </trkpt>
    <trkpt lat="38.561707037" lon="34.966424033">
      <ele>1559.019</ele>
      <time>2021-10-12T19:09:56Z</time>
    </trkpt>
    <trkpt lat="38.561707037" lon="34.966388997">
      <ele>1559.145</ele>
      <time>2021-10-12T19:09:57Z</time>
    </trkpt>
    <trkpt lat="38.561706031" lon="34.966356978">
      <ele>1559.355</ele>
      <time>2021-10-12T19:09:58Z</time>
    </trkpt>
    <trkpt lat="38.561705025" lon="34.966321019">
      <ele>1559.593</ele>
      <time>2021-10-12T19:09:59Z</time>
    </trkpt>
    <trkpt lat="38.561704019" lon="34.966285983">
      <ele>1559.826</ele>
      <time>2021-10-12T19:10:00Z</time>
    </trkpt>
    <trkpt lat="38.561702007" lon="34.966251031">
      <ele>1560.057</ele>
      <time>2021-10-12T19:10:01Z</time>
    </trkpt>
    <trkpt lat="38.561701002" lon="34.966213983">
      <ele>1560.305</ele>
      <time>2021-10-12T19:10:02Z</time>
    </trkpt>
    <trkpt lat="38.561699996" lon="34.966180036">
      <ele>1560.534</ele>
      <time>2021-10-12T19:10:03Z</time>
    </trkpt>
    <trkpt lat="38.561697984" lon="34.966149023">
      <ele>1560.742</ele>
      <time>2021-10-12T19:10:04Z</time>
    </trkpt>
    <trkpt lat="38.561693039" lon="34.966115998">
      <ele>1560.966</ele>
      <time>2021-10-12T19:10:05Z</time>
    </trkpt>
    <trkpt lat="38.561685998" lon="34.966084985">
      <ele>1561.0</ele>
      <time>2021-10-12T19:10:06Z</time>
    </trkpt>
    <trkpt lat="38.561679041" lon="34.96605196">
      <ele>1561.0</ele>
      <time>2021-10-12T19:10:07Z</time>
    </trkpt>
    <trkpt lat="38.561672" lon="34.966017008">
      <ele>1561.0</ele>
      <time>2021-10-12T19:10:08Z</time>
    </trkpt>
    <trkpt lat="38.561662026" lon="34.965982977">
      <ele>1560.991</ele>
      <time>2021-10-12T19:10:09Z</time>
    </trkpt>
    <trkpt lat="38.561651967" lon="34.965945007">
      <ele>1560.979</ele>
      <time>2021-10-12T19:10:10Z</time>
    </trkpt>
    <trkpt lat="38.561641993" lon="34.965911983">
      <ele>1560.975</ele>
      <time>2021-10-12T19:10:11Z</time>
    </trkpt>
    <trkpt lat="38.56163403" lon="34.965879964">
      <ele>1560.98</ele>
      <time>2021-10-12T19:10:12Z</time>
    </trkpt>
    <trkpt lat="38.561625984" lon="34.965846017">
      <ele>1560.993</ele>
      <time>2021-10-12T19:10:13Z</time>
    </trkpt>
    <trkpt lat="38.56162196" lon="34.965809975">
      <ele>1561.0</ele>
      <time>2021-10-12T19:10:14Z</time>
    </trkpt>
    <trkpt lat="38.561618021" lon="34.965775022">
      <ele>1561.0</ele>
      <time>2021-10-12T19:10:15Z</time>
    </trkpt>
    <trkpt lat="38.561612992" lon="34.965739986">
      <ele>1561.0</ele>
      <time>2021-10-12T19:10:16Z</time>
    </trkpt>
    <trkpt lat="38.561616009" lon="34.965703022">
      <ele>1561.0</ele>
      <time>2021-10-12T19:10:17Z</time>
    </trkpt>
    <trkpt lat="38.561620032" lon="34.965665974">
      <ele>1561.0</ele>
      <time>2021-10-12T19:10:19Z</time>
    </trkpt>
    <trkpt lat="38.56162196" lon="34.965628004">
      <ele>1561.0</ele>
      <time>2021-10-12T19:10:20Z</time>
    </trkpt>
    <trkpt lat="38.561627995" lon="34.965591962">
      <ele>1561.0</ele>
      <time>2021-10-12T19:10:21Z</time>
    </trkpt>
    <trkpt lat="38.56163403" lon="34.965557009">
      <ele>1561.0</ele>
      <time>2021-10-12T19:10:22Z</time>
    </trkpt>
    <trkpt lat="38.561641993" lon="34.965519961">
      <ele>1560.883</ele>
      <time>2021-10-12T19:10:23Z</time>
    </trkpt>
    <trkpt lat="38.561647022" lon="34.965486014">
      <ele>1560.767</ele>
      <time>2021-10-12T19:10:24Z</time>
    </trkpt>
    <trkpt lat="38.561655991" lon="34.96545299">
      <ele>1560.645</ele>
      <time>2021-10-12T19:10:25Z</time>
    </trkpt>
    <trkpt lat="38.561668983" lon="34.965416025">
      <ele>1560.498</ele>
      <time>2021-10-12T19:10:26Z</time>
    </trkpt>
    <trkpt lat="38.561681975" lon="34.965377972">
      <ele>1560.361</ele>
      <time>2021-10-12T19:10:27Z</time>
    </trkpt>
    <trkpt lat="38.561696978" lon="34.965341007">
      <ele>1560.228</ele>
      <time>2021-10-12T19:10:28Z</time>
    </trkpt>
    <trkpt lat="38.561713994" lon="34.965307983">
      <ele>1560.109</ele>
      <time>2021-10-12T19:10:30Z</time>
    </trkpt>
    <trkpt lat="38.561730003" lon="34.96527303">
      <ele>1559.983</ele>
      <time>2021-10-12T19:10:31Z</time>
    </trkpt>
    <trkpt lat="38.561751042" lon="34.965237994">
      <ele>1559.857</ele>
      <time>2021-10-12T19:10:32Z</time>
    </trkpt>
    <trkpt lat="38.561771996" lon="34.965208992">
      <ele>1559.752</ele>
      <time>2021-10-12T19:10:33Z</time>
    </trkpt>
    <trkpt lat="38.561794041" lon="34.965176973">
      <ele>1559.637</ele>
      <time>2021-10-12T19:10:34Z</time>
    </trkpt>
    <trkpt lat="38.561816001" lon="34.965145038">
      <ele>1559.522</ele>
      <time>2021-10-12T19:10:36Z</time>
    </trkpt>
    <trkpt lat="38.561836034" lon="34.965116959">
      <ele>1559.421</ele>
      <time>2021-10-12T19:10:37Z</time>
    </trkpt>
    <trkpt lat="38.561859" lon="34.965087036">
      <ele>1559.313</ele>
      <time>2021-10-12T19:10:38Z</time>
    </trkpt>
    <trkpt lat="38.561884984" lon="34.96505904">
      <ele>1559.213</ele>
      <time>2021-10-12T19:10:39Z</time>
    </trkpt>
    <trkpt lat="38.561910968" lon="34.965031967">
      <ele>1559.115</ele>
      <time>2021-10-12T19:10:40Z</time>
    </trkpt>
    <trkpt lat="38.561938964" lon="34.965002965">
      <ele>1559.011</ele>
      <time>2021-10-12T19:10:42Z</time>
    </trkpt>
    <trkpt lat="38.561966959" lon="34.964976981">
      <ele>1558.917</ele>
      <time>2021-10-12T19:10:43Z</time>
    </trkpt>
    <trkpt lat="38.561997972" lon="34.964949992">
      <ele>1558.82</ele>
      <time>2021-10-12T19:10:44Z</time>
    </trkpt>
    <trkpt lat="38.56202798" lon="34.964925013">
      <ele>1558.73</ele>
      <time>2021-10-12T19:10:46Z</time>
    </trkpt>
    <trkpt lat="38.562054969" lon="34.964901041">
      <ele>1558.644</ele>
      <time>2021-10-12T19:10:47Z</time>
    </trkpt>
    <trkpt lat="38.562083971" lon="34.964875979">
      <ele>1558.554</ele>
      <time>2021-10-12T19:10:48Z</time>
    </trkpt>
    <trkpt lat="38.562138034" lon="34.964829963">
      <ele>1558.388</ele>
      <time>2021-10-12T19:10:51Z</time>
    </trkpt>
    <trkpt lat="38.562168041" lon="34.96480599">
      <ele>1558.302</ele>
      <time>2021-10-12T19:10:52Z</time>
    </trkpt>
    <trkpt lat="38.56219897" lon="34.964781012">
      <ele>1558.212</ele>
      <time>2021-10-12T19:10:53Z</time>
    </trkpt>
    <trkpt lat="38.562226966" lon="34.964756034">
      <ele>1558.105</ele>
      <time>2021-10-12T19:10:55Z</time>
    </trkpt>
    <trkpt lat="38.562257979" lon="34.964729967">
      <ele>1557.899</ele>
      <time>2021-10-12T19:10:56Z</time>
    </trkpt>
    <trkpt lat="38.562288992" lon="34.964707">
      <ele>1557.705</ele>
      <time>2021-10-12T19:10:57Z</time>
    </trkpt>
    <trkpt lat="38.562320005" lon="34.964683028">
      <ele>1557.507</ele>
      <time>2021-10-12T19:10:59Z</time>
    </trkpt>
    <trkpt lat="38.562351018" lon="34.964658972">
      <ele>1557.309</ele>
      <time>2021-10-12T19:11:00Z</time>
    </trkpt>
    <trkpt lat="38.56238002" lon="34.964639023">
      <ele>1557.132</ele>
      <time>2021-10-12T19:11:01Z</time>
    </trkpt>
    <trkpt lat="38.562411033" lon="34.964619996">
      <ele>1556.952</ele>
      <time>2021-10-12T19:11:03Z</time>
    </trkpt>
    <trkpt lat="38.56244104" lon="34.964599963">
      <ele>1556.772</ele>
      <time>2021-10-12T19:11:04Z</time>
    </trkpt>
    <trkpt lat="38.562470041" lon="34.964580014">
      <ele>1556.596</ele>
      <time>2021-10-12T19:11:05Z</time>
    </trkpt>
    <trkpt lat="38.562502982" lon="34.964561993">
      <ele>1556.417</ele>
      <time>2021-10-12T19:11:06Z</time>
    </trkpt>
    <trkpt lat="38.562535001" lon="34.964547995">
      <ele>1556.294</ele>
      <time>2021-10-12T19:11:08Z</time>
    </trkpt>
    <trkpt lat="38.562568026" lon="34.964533998">
      <ele>1556.156</ele>
      <time>2021-10-12T19:11:09Z</time>
    </trkpt>
    <trkpt lat="38.562599961" lon="34.964523017">
      <ele>1556.025</ele>
      <time>2021-10-12T19:11:10Z</time>
    </trkpt>
    <trkpt lat="38.562630974" lon="34.964512037">
      <ele>1555.887</ele>
      <time>2021-10-12T19:11:11Z</time>
    </trkpt>
    <trkpt lat="38.562662993" lon="34.964498039">
      <ele>1555.719</ele>
      <time>2021-10-12T19:11:13Z</time>
    </trkpt>
    <trkpt lat="38.562694006" lon="34.964484964">
      <ele>1555.549</ele>
      <time>2021-10-12T19:11:14Z</time>
    </trkpt>
    <trkpt lat="38.562723007" lon="34.964465015">
      <ele>1555.331</ele>
      <time>2021-10-12T19:11:15Z</time>
    </trkpt>
    <trkpt lat="38.562749997" lon="34.964443976">
      <ele>1555.1</ele>
      <time>2021-10-12T19:11:16Z</time>
    </trkpt>
    <trkpt lat="38.562772963" lon="34.964422015">
      <ele>1555.017</ele>
      <time>2021-10-12T19:11:17Z</time>
    </trkpt>
    <trkpt lat="38.562795008" lon="34.964398965">
      <ele>1554.99</ele>
      <time>2021-10-12T19:11:18Z</time>
    </trkpt>
    <trkpt lat="38.562817974" lon="34.96437801">
      <ele>1554.965</ele>
      <time>2021-10-12T19:11:19Z</time>
    </trkpt>
    <trkpt lat="38.562841024" lon="34.964358984">
      <ele>1554.93</ele>
      <time>2021-10-12T19:11:20Z</time>
    </trkpt>
    <trkpt lat="38.562867008" lon="34.964337023">
      <ele>1554.876</ele>
      <time>2021-10-12T19:11:21Z</time>
    </trkpt>
    <trkpt lat="38.562893998" lon="34.964313973">
      <ele>1554.803</ele>
      <time>2021-10-12T19:11:23Z</time>
    </trkpt>
    <trkpt lat="38.562921993" lon="34.96429503">
      <ele>1554.721</ele>
      <time>2021-10-12T19:11:24Z</time>
    </trkpt>
    <trkpt lat="38.562953006" lon="34.964273991">
      <ele>1554.613</ele>
      <time>2021-10-12T19:11:25Z</time>
    </trkpt>
    <trkpt lat="38.563012015" lon="34.964230992">
      <ele>1554.352</ele>
      <time>2021-10-12T19:11:28Z</time>
    </trkpt>
    <trkpt lat="38.563043028" lon="34.964209031">
      <ele>1554.191</ele>
      <time>2021-10-12T19:11:29Z</time>
    </trkpt>
    <trkpt lat="38.56307203" lon="34.96419101">
      <ele>1553.92</ele>
      <time>2021-10-12T19:11:30Z</time>
    </trkpt>
    <trkpt lat="38.563102959" lon="34.964176007">
      <ele>1553.533</ele>
      <time>2021-10-12T19:11:31Z</time>
    </trkpt>
    <trkpt lat="38.563133972" lon="34.964166032">
      <ele>1553.15</ele>
      <time>2021-10-12T19:11:33Z</time>
    </trkpt>
    <trkpt lat="38.563165991" lon="34.964155974">
      <ele>1552.754</ele>
      <time>2021-10-12T19:11:34Z</time>
    </trkpt>
    <trkpt lat="38.563197004" lon="34.964142982">
      <ele>1552.344</ele>
      <time>2021-10-12T19:11:35Z</time>
    </trkpt>
    <trkpt lat="38.563230028" lon="34.964128984">
      <ele>1551.895</ele>
      <time>2021-10-12T19:11:36Z</time>
    </trkpt>
    <trkpt lat="38.563263975" lon="34.964113981">
      <ele>1551.417</ele>
      <time>2021-10-12T19:11:38Z</time>
    </trkpt>
    <trkpt lat="38.563297" lon="34.964100989">
      <ele>1550.95</ele>
      <time>2021-10-12T19:11:39Z</time>
    </trkpt>
    <trkpt lat="38.563327007" lon="34.964085985">
      <ele>1550.494</ele>
      <time>2021-10-12T19:11:40Z</time>
    </trkpt>
    <trkpt lat="38.563355003" lon="34.964075005">
      <ele>1550.21</ele>
      <time>2021-10-12T19:11:41Z</time>
    </trkpt>
    <trkpt lat="38.563384004" lon="34.96406503">
      <ele>1549.97</ele>
      <time>2021-10-12T19:11:42Z</time>
    </trkpt>
    <trkpt lat="38.563416023" lon="34.964053966">
      <ele>1549.714</ele>
      <time>2021-10-12T19:11:44Z</time>
    </trkpt>
    <trkpt lat="38.563443013" lon="34.964042986">
      <ele>1549.496</ele>
      <time>2021-10-12T19:11:45Z</time>
    </trkpt>
    <trkpt lat="38.563471008" lon="34.964035023">
      <ele>1549.296</ele>
      <time>2021-10-12T19:11:46Z</time>
    </trkpt>
    <trkpt lat="38.563505039" lon="34.964026976">
      <ele>1549.069</ele>
      <time>2021-10-12T19:11:47Z</time>
    </trkpt>
    <trkpt lat="38.56353404" lon="34.964018008">
      <ele>1548.871</ele>
      <time>2021-10-12T19:11:48Z</time>
    </trkpt>
    <trkpt lat="38.563563041" lon="34.964005016">
      <ele>1548.663</ele>
      <time>2021-10-12T19:11:49Z</time>
    </trkpt>
    <trkpt lat="38.563593971" lon="34.963992024">
      <ele>1548.456</ele>
      <time>2021-10-12T19:11:50Z</time>
    </trkpt>
    <trkpt lat="38.563623978" lon="34.963980038">
      <ele>1548.328</ele>
      <time>2021-10-12T19:11:52Z</time>
    </trkpt>
    <trkpt lat="38.563655997" lon="34.963970985">
      <ele>1548.296</ele>
      <time>2021-10-12T19:11:53Z</time>
    </trkpt>
    <trkpt lat="38.563688016" lon="34.963961011">
      <ele>1548.26</ele>
      <time>2021-10-12T19:11:54Z</time>
    </trkpt>
    <trkpt lat="38.563719029" lon="34.963952964">
      <ele>1548.231</ele>
      <time>2021-10-12T19:11:55Z</time>
    </trkpt>
    <trkpt lat="38.563751969" lon="34.963946007">
      <ele>1548.206</ele>
      <time>2021-10-12T19:11:56Z</time>
    </trkpt>
    <trkpt lat="38.563783988" lon="34.963939972">
      <ele>1548.184</ele>
      <time>2021-10-12T19:11:58Z</time>
    </trkpt>
    <trkpt lat="38.563813996" lon="34.963932009">
      <ele>1548.155</ele>
      <time>2021-10-12T19:11:59Z</time>
    </trkpt>
    <trkpt lat="38.563845009" lon="34.963927986">
      <ele>1548.141</ele>
      <time>2021-10-12T19:12:00Z</time>
    </trkpt>
    <trkpt lat="38.563873004" lon="34.963919017">
      <ele>1548.108</ele>
      <time>2021-10-12T19:12:01Z</time>
    </trkpt>
    <trkpt lat="38.563907035" lon="34.963907031">
      <ele>1548.07</ele>
      <time>2021-10-12T19:12:02Z</time>
    </trkpt>
    <trkpt lat="38.56393897" lon="34.963895967">
      <ele>1548.03</ele>
      <time>2021-10-12T19:12:03Z</time>
    </trkpt>
    <trkpt lat="38.563969983" lon="34.963885993">
      <ele>1547.994</ele>
      <time>2021-10-12T19:12:05Z</time>
    </trkpt>
    <trkpt lat="38.564003007" lon="34.963880042">
      <ele>1547.974</ele>
      <time>2021-10-12T19:12:06Z</time>
    </trkpt>
    <trkpt lat="38.564035026" lon="34.963868978">
      <ele>1547.925</ele>
      <time>2021-10-12T19:12:07Z</time>
    </trkpt>
    <trkpt lat="38.564067967" lon="34.963856991">
      <ele>1547.852</ele>
      <time>2021-10-12T19:12:08Z</time>
    </trkpt>
    <trkpt lat="38.56409898" lon="34.963847017">
      <ele>1547.772</ele>
      <time>2021-10-12T19:12:10Z</time>
    </trkpt>
    <trkpt lat="38.564127982" lon="34.963839976">
      <ele>1547.697</ele>
      <time>2021-10-12T19:12:11Z</time>
    </trkpt>
    <trkpt lat="38.564157989" lon="34.963830002">
      <ele>1547.589</ele>
      <time>2021-10-12T19:12:12Z</time>
    </trkpt>
    <trkpt lat="38.564189002" lon="34.963825978">
      <ele>1547.547</ele>
      <time>2021-10-12T19:12:13Z</time>
    </trkpt>
    <trkpt lat="38.564220015" lon="34.963814998">
      <ele>1547.468</ele>
      <time>2021-10-12T19:12:14Z</time>
    </trkpt>
    <trkpt lat="38.564252034" lon="34.963807035">
      <ele>1547.411</ele>
      <time>2021-10-12T19:12:15Z</time>
    </trkpt>
    <trkpt lat="38.564282963" lon="34.963799994">
      <ele>1547.36</ele>
      <time>2021-10-12T19:12:17Z</time>
    </trkpt>
    <trkpt lat="38.564342977" lon="34.963775016">
      <ele>1547.18</ele>
      <time>2021-10-12T19:12:19Z</time>
    </trkpt>
    <trkpt lat="38.564372985" lon="34.963762024">
      <ele>1547.087</ele>
      <time>2021-10-12T19:12:20Z</time>
    </trkpt>
    <trkpt lat="38.564402992" lon="34.963745009">
      <ele>1546.964</ele>
      <time>2021-10-12T19:12:21Z</time>
    </trkpt>
    <trkpt lat="38.564434005" lon="34.963731011">
      <ele>1546.863</ele>
      <time>2021-10-12T19:12:22Z</time>
    </trkpt>
    <trkpt lat="38.564464012" lon="34.963716008">
      <ele>1546.826</ele>
      <time>2021-10-12T19:12:24Z</time>
    </trkpt>
    <trkpt lat="38.564495025" lon="34.963699998">
      <ele>1546.822</ele>
      <time>2021-10-12T19:12:25Z</time>
    </trkpt>
    <trkpt lat="38.564525032" lon="34.963688012">
      <ele>1546.844</ele>
      <time>2021-10-12T19:12:26Z</time>
    </trkpt>
    <trkpt lat="38.564554034" lon="34.963672003">
      <ele>1546.833</ele>
      <time>2021-10-12T19:12:27Z</time>
    </trkpt>
    <trkpt lat="38.564585969" lon="34.963655993">
      <ele>1546.833</ele>
      <time>2021-10-12T19:12:28Z</time>
    </trkpt>
    <trkpt lat="38.564615976" lon="34.96364099">
      <ele>1546.833</ele>
      <time>2021-10-12T19:12:30Z</time>
    </trkpt>
    <trkpt lat="38.564644977" lon="34.96362498">
      <ele>1546.822</ele>
      <time>2021-10-12T19:12:31Z</time>
    </trkpt>
    <trkpt lat="38.564674985" lon="34.963609977">
      <ele>1546.818</ele>
      <time>2021-10-12T19:12:32Z</time>
    </trkpt>
    <trkpt lat="38.564704992" lon="34.963597991">
      <ele>1546.799</ele>
      <time>2021-10-12T19:12:33Z</time>
    </trkpt>
    <trkpt lat="38.564736005" lon="34.963582987">
      <ele>1546.647</ele>
      <time>2021-10-12T19:12:34Z</time>
    </trkpt>
    <trkpt lat="38.564765006" lon="34.963569995">
      <ele>1546.402</ele>
      <time>2021-10-12T19:12:36Z</time>
    </trkpt>
    <trkpt lat="38.564791996" lon="34.963549962">
      <ele>1546.088</ele>
      <time>2021-10-12T19:12:37Z</time>
    </trkpt>
    <trkpt lat="38.564820997" lon="34.963532025">
      <ele>1545.79</ele>
      <time>2021-10-12T19:12:38Z</time>
    </trkpt>
    <trkpt lat="38.564846981" lon="34.96351501">
      <ele>1545.513</ele>
      <time>2021-10-12T19:12:39Z</time>
    </trkpt>
    <trkpt lat="38.564873971" lon="34.963500006">
      <ele>1545.254</ele>
      <time>2021-10-12T19:12:40Z</time>
    </trkpt>
    <trkpt lat="38.564899033" lon="34.963485003">
      <ele>1545.002</ele>
      <time>2021-10-12T19:12:41Z</time>
    </trkpt>
    <trkpt lat="38.564926023" lon="34.963474022">
      <ele>1544.786</ele>
      <time>2021-10-12T19:12:42Z</time>
    </trkpt>
    <trkpt lat="38.564958964" lon="34.963459019">
      <ele>1544.505</ele>
      <time>2021-10-12T19:12:43Z</time>
    </trkpt>
    <trkpt lat="38.564990982" lon="34.963449966">
      <ele>1544.292</ele>
      <time>2021-10-12T19:12:45Z</time>
    </trkpt>
    <trkpt lat="38.565021995" lon="34.963438986">
      <ele>1544.043</ele>
      <time>2021-10-12T19:12:46Z</time>
    </trkpt>
    <trkpt lat="38.56505502" lon="34.963428006">
      <ele>1543.761</ele>
      <time>2021-10-12T19:12:47Z</time>
    </trkpt>
    <trkpt lat="38.565087039" lon="34.963416019">
      <ele>1543.453</ele>
      <time>2021-10-12T19:12:48Z</time>
    </trkpt>
    <trkpt lat="38.565118974" lon="34.963402022">
      <ele>1543.097</ele>
      <time>2021-10-12T19:12:50Z</time>
    </trkpt>
    <trkpt lat="38.56515401" lon="34.963388024">
      <ele>1542.7</ele>
      <time>2021-10-12T19:12:51Z</time>
    </trkpt>
    <trkpt lat="38.565185023" lon="34.96337302">
      <ele>1542.287</ele>
      <time>2021-10-12T19:12:52Z</time>
    </trkpt>
    <trkpt lat="38.565216037" lon="34.963360028">
      <ele>1541.882</ele>
      <time>2021-10-12T19:12:53Z</time>
    </trkpt>
    <trkpt lat="38.565246966" lon="34.963350976">
      <ele>1541.525</ele>
      <time>2021-10-12T19:12:55Z</time>
    </trkpt>
    <trkpt lat="38.565277979" lon="34.96333899">
      <ele>1541.102</ele>
      <time>2021-10-12T19:12:56Z</time>
    </trkpt>
    <trkpt lat="38.565307986" lon="34.963321975">
      <ele>1540.914</ele>
      <time>2021-10-12T19:12:57Z</time>
    </trkpt>
    <trkpt lat="38.56533397" lon="34.963308983">
      <ele>1540.807</ele>
      <time>2021-10-12T19:12:58Z</time>
    </trkpt>
    <trkpt lat="38.565360038" lon="34.963298002">
      <ele>1540.708</ele>
      <time>2021-10-12T19:12:59Z</time>
    </trkpt>
    <trkpt lat="38.565387027" lon="34.963286016">
      <ele>1540.592</ele>
      <time>2021-10-12T19:13:00Z</time>
    </trkpt>
    <trkpt lat="38.565412005" lon="34.963270007">
      <ele>1540.434</ele>
      <time>2021-10-12T19:13:01Z</time>
    </trkpt>
    <trkpt lat="38.565440001" lon="34.963252991">
      <ele>1540.253</ele>
      <time>2021-10-12T19:13:02Z</time>
    </trkpt>
    <trkpt lat="38.565470008" lon="34.963238994">
      <ele>1540.086</ele>
      <time>2021-10-12T19:13:03Z</time>
    </trkpt>
    <trkpt lat="38.565498004" lon="34.963222984">
      <ele>1539.891</ele>
      <time>2021-10-12T19:13:05Z</time>
    </trkpt>
    <trkpt lat="38.565529017" lon="34.963206975">
      <ele>1539.679</ele>
      <time>2021-10-12T19:13:06Z</time>
    </trkpt>
    <trkpt lat="38.56556003" lon="34.96318996">
      <ele>1539.46</ele>
      <time>2021-10-12T19:13:07Z</time>
    </trkpt>
    <trkpt lat="38.565590037" lon="34.963170011">
      <ele>1539.309</ele>
      <time>2021-10-12T19:13:08Z</time>
    </trkpt>
    <trkpt lat="38.565621972" lon="34.963154001">
      <ele>1539.218</ele>
      <time>2021-10-12T19:13:10Z</time>
    </trkpt>
    <trkpt lat="38.565649968" lon="34.963137992">
      <ele>1539.129</ele>
      <time>2021-10-12T19:13:11Z</time>
    </trkpt>
    <trkpt lat="38.565677963" lon="34.963121982">
      <ele>1539.053</ele>
      <time>2021-10-12T19:13:12Z</time>
    </trkpt>
    <trkpt lat="38.565706965" lon="34.963103039">
      <ele>1538.965</ele>
      <time>2021-10-12T19:13:13Z</time>
    </trkpt>
    <trkpt lat="38.565736972" lon="34.963083006">
      <ele>1538.885</ele>
      <time>2021-10-12T19:13:14Z</time>
    </trkpt>
    <trkpt lat="38.565767985" lon="34.963066997">
      <ele>1538.857</ele>
      <time>2021-10-12T19:13:16Z</time>
    </trkpt>
    <trkpt lat="38.565798998" lon="34.963049982">
      <ele>1538.856</ele>
      <time>2021-10-12T19:13:17Z</time>
    </trkpt>
    <trkpt lat="38.565832023" lon="34.963033972">
      <ele>1538.918</ele>
      <time>2021-10-12T19:13:18Z</time>
    </trkpt>
    <trkpt lat="38.565864963" lon="34.963017041">
      <ele>1538.959</ele>
      <time>2021-10-12T19:13:19Z</time>
    </trkpt>
    <trkpt lat="38.565896982" lon="34.963005977">
      <ele>1539.01</ele>
      <time>2021-10-12T19:13:21Z</time>
    </trkpt>
    <trkpt lat="38.565932019" lon="34.962988961">
      <ele>1539.03</ele>
      <time>2021-10-12T19:13:22Z</time>
    </trkpt>
    <trkpt lat="38.565999996" lon="34.962951997">
      <ele>1539.003</ele>
      <time>2021-10-12T19:13:25Z</time>
    </trkpt>
    <trkpt lat="38.566034026" lon="34.962930037">
      <ele>1538.944</ele>
      <time>2021-10-12T19:13:26Z</time>
    </trkpt>
    <trkpt lat="38.566062022" lon="34.962910004">
      <ele>1538.868</ele>
      <time>2021-10-12T19:13:27Z</time>
    </trkpt>
    <trkpt lat="38.566094041" lon="34.962889971">
      <ele>1538.783</ele>
      <time>2021-10-12T19:13:29Z</time>
    </trkpt>
    <trkpt lat="38.566122958" lon="34.962871028">
      <ele>1538.629</ele>
      <time>2021-10-12T19:13:30Z</time>
    </trkpt>
    <trkpt lat="38.56615196" lon="34.962856025">
      <ele>1538.416</ele>
      <time>2021-10-12T19:13:31Z</time>
    </trkpt>
    <trkpt lat="38.566184985" lon="34.962842027">
      <ele>1538.197</ele>
      <time>2021-10-12T19:13:32Z</time>
    </trkpt>
    <trkpt lat="38.566217003" lon="34.962827023">
      <ele>1537.973</ele>
      <time>2021-10-12T19:13:34Z</time>
    </trkpt>
    <trkpt lat="38.566247011" lon="34.962815037">
      <ele>1537.779</ele>
      <time>2021-10-12T19:13:35Z</time>
    </trkpt>
    <trkpt lat="38.566276012" lon="34.962801961">
      <ele>1537.58</ele>
      <time>2021-10-12T19:13:36Z</time>
    </trkpt>
    <trkpt lat="38.566305013" lon="34.96278503">
      <ele>1537.354</ele>
      <time>2021-10-12T19:13:37Z</time>
    </trkpt>
    <trkpt lat="38.566332003" lon="34.96276902">
      <ele>1537.142</ele>
      <time>2021-10-12T19:13:38Z</time>
    </trkpt>
    <trkpt lat="38.566357987" lon="34.962754017">
      <ele>1536.94</ele>
      <time>2021-10-12T19:13:39Z</time>
    </trkpt>
    <trkpt lat="38.566384977" lon="34.96273499">
      <ele>1536.706</ele>
      <time>2021-10-12T19:13:40Z</time>
    </trkpt>
    <trkpt lat="38.566410961" lon="34.962717975">
      <ele>1536.49</ele>
      <time>2021-10-12T19:13:42Z</time>
    </trkpt>
    <trkpt lat="38.566436023" lon="34.962702971">
      <ele>1536.292</ele>
      <time>2021-10-12T19:13:43Z</time>
    </trkpt>
    <trkpt lat="38.566488996" lon="34.962668018">
      <ele>1535.849</ele>
      <time>2021-10-12T19:13:45Z</time>
    </trkpt>
    <trkpt lat="38.566511963" lon="34.962652009">
      <ele>1535.651</ele>
      <time>2021-10-12T19:13:46Z</time>
    </trkpt>
    <trkpt lat="38.566535013" lon="34.96263097">
      <ele>1535.417</ele>
      <time>2021-10-12T19:13:47Z</time>
    </trkpt>
    <trkpt lat="38.566560997" lon="34.962610016">
      <ele>1535.173</ele>
      <time>2021-10-12T19:13:48Z</time>
    </trkpt>
    <trkpt lat="38.566584969" lon="34.962588977">
      <ele>1534.935</ele>
      <time>2021-10-12T19:13:49Z</time>
    </trkpt>
    <trkpt lat="38.566609025" lon="34.962567016">
      <ele>1534.69</ele>
      <time>2021-10-12T19:13:50Z</time>
    </trkpt>
    <trkpt lat="38.56662998" lon="34.962545978">
      <ele>1534.463</ele>
      <time>2021-10-12T19:13:51Z</time>
    </trkpt>
    <trkpt lat="38.566650013" lon="34.962523011">
      <ele>1534.226</ele>
      <time>2021-10-12T19:13:52Z</time>
    </trkpt>
    <trkpt lat="38.566672979" lon="34.962496022">
      <ele>1534.0</ele>
      <time>2021-10-12T19:13:53Z</time>
    </trkpt>
    <trkpt lat="38.566692006" lon="34.962466015">
      <ele>1534.0</ele>
      <time>2021-10-12T19:13:54Z</time>
    </trkpt>
    <trkpt lat="38.566709021" lon="34.962436007">
      <ele>1534.0</ele>
      <time>2021-10-12T19:13:55Z</time>
    </trkpt>
    <trkpt lat="38.566727964" lon="34.962406">
      <ele>1534.0</ele>
      <time>2021-10-12T19:13:57Z</time>
    </trkpt>
    <trkpt lat="38.566743974" lon="34.962372975">
      <ele>1534.0</ele>
      <time>2021-10-12T19:13:58Z</time>
    </trkpt>
    <trkpt lat="38.566761995" lon="34.962343974">
      <ele>1534.0</ele>
      <time>2021-10-12T19:13:59Z</time>
    </trkpt>
    <trkpt lat="38.566778004" lon="34.962312039">
      <ele>1534.0</ele>
      <time>2021-10-12T19:14:00Z</time>
    </trkpt>
    <trkpt lat="38.566792002" lon="34.962282032">
      <ele>1534.0</ele>
      <time>2021-10-12T19:14:01Z</time>
    </trkpt>
    <trkpt lat="38.566808011" lon="34.962251019">
      <ele>1534.0</ele>
      <time>2021-10-12T19:14:02Z</time>
    </trkpt>
    <trkpt lat="38.566819998" lon="34.962221012">
      <ele>1534.002</ele>
      <time>2021-10-12T19:14:03Z</time>
    </trkpt>
    <trkpt lat="38.566831984" lon="34.962187987">
      <ele>1534.073</ele>
      <time>2021-10-12T19:14:04Z</time>
    </trkpt>
    <trkpt lat="38.566842964" lon="34.962159991">
      <ele>1534.142</ele>
      <time>2021-10-12T19:14:05Z</time>
    </trkpt>
    <trkpt lat="38.566855034" lon="34.962135013">
      <ele>1534.213</ele>
      <time>2021-10-12T19:14:06Z</time>
    </trkpt>
    <trkpt lat="38.56686702" lon="34.962108023">
      <ele>1534.297</ele>
      <time>2021-10-12T19:14:07Z</time>
    </trkpt>
    <trkpt lat="38.566876994" lon="34.962079022">
      <ele>1534.39</ele>
      <time>2021-10-12T19:14:08Z</time>
    </trkpt>
    <trkpt lat="38.566883029" lon="34.962050021">
      <ele>1534.483</ele>
      <time>2021-10-12T19:14:08Z</time>
    </trkpt>
    <trkpt lat="38.566888981" lon="34.962021019">
      <ele>1534.58</ele>
      <time>2021-10-12T19:14:09Z</time>
    </trkpt>
    <trkpt lat="38.566897027" lon="34.961993024">
      <ele>1534.684</ele>
      <time>2021-10-12T19:14:10Z</time>
    </trkpt>
    <trkpt lat="38.566905996" lon="34.961964022">
      <ele>1534.801</ele>
      <time>2021-10-12T19:14:11Z</time>
    </trkpt>
    <trkpt lat="38.566913037" lon="34.961933009">
      <ele>1534.937</ele>
      <time>2021-10-12T19:14:12Z</time>
    </trkpt>
    <trkpt lat="38.566919994" lon="34.961905014">
      <ele>1535.079</ele>
      <time>2021-10-12T19:14:13Z</time>
    </trkpt>
    <trkpt lat="38.566927034" lon="34.961875007">
      <ele>1535.219</ele>
      <time>2021-10-12T19:14:14Z</time>
    </trkpt>
    <trkpt lat="38.566932986" lon="34.961846005">
      <ele>1535.342</ele>
      <time>2021-10-12T19:14:15Z</time>
    </trkpt>
    <trkpt lat="38.566939021" lon="34.96181801">
      <ele>1535.453</ele>
      <time>2021-10-12T19:14:15Z</time>
    </trkpt>
    <trkpt lat="38.566945978" lon="34.961790014">
      <ele>1535.565</ele>
      <time>2021-10-12T19:14:16Z</time>
    </trkpt>
    <trkpt lat="38.566954024" lon="34.96176403">
      <ele>1535.706</ele>
      <time>2021-10-12T19:14:17Z</time>
    </trkpt>
    <trkpt lat="38.566963999" lon="34.961737962">
      <ele>1535.866</ele>
      <time>2021-10-12T19:14:18Z</time>
    </trkpt>
    <trkpt lat="38.566973973" lon="34.961710973">
      <ele>1536.036</ele>
      <time>2021-10-12T19:14:19Z</time>
    </trkpt>
    <trkpt lat="38.566984031" lon="34.961683983">
      <ele>1536.214</ele>
      <time>2021-10-12T19:14:20Z</time>
    </trkpt>
    <trkpt lat="38.567006998" lon="34.961634027">
      <ele>1536.803</ele>
      <time>2021-10-12T19:14:21Z</time>
    </trkpt>
    <trkpt lat="38.56701999" lon="34.961611982">
      <ele>1537.135</ele>
      <time>2021-10-12T19:14:22Z</time>
    </trkpt>
    <trkpt lat="38.567032982" lon="34.961589016">
      <ele>1537.476</ele>
      <time>2021-10-12T19:14:23Z</time>
    </trkpt>
    <trkpt lat="38.567045974" lon="34.961564038">
      <ele>1537.839</ele>
      <time>2021-10-12T19:14:24Z</time>
    </trkpt>
    <trkpt lat="38.567059971" lon="34.961540988">
      <ele>1538.189</ele>
      <time>2021-10-12T19:14:25Z</time>
    </trkpt>
    <trkpt lat="38.567074975" lon="34.96151601">
      <ele>1538.567</ele>
      <time>2021-10-12T19:14:26Z</time>
    </trkpt>
    <trkpt lat="38.567089979" lon="34.961492037">
      <ele>1538.934</ele>
      <time>2021-10-12T19:14:27Z</time>
    </trkpt>
    <trkpt lat="38.567103976" lon="34.961469993">
      <ele>1539.273</ele>
      <time>2021-10-12T19:14:27Z</time>
    </trkpt>
    <trkpt lat="38.567116968" lon="34.961447027">
      <ele>1539.614</ele>
      <time>2021-10-12T19:14:28Z</time>
    </trkpt>
    <trkpt lat="38.567129038" lon="34.961425988">
      <ele>1539.928</ele>
      <time>2021-10-12T19:14:29Z</time>
    </trkpt>
    <trkpt lat="38.567143036" lon="34.961400004">
      <ele>1540.31</ele>
      <time>2021-10-12T19:14:30Z</time>
    </trkpt>
    <trkpt lat="38.56715804" lon="34.961376032">
      <ele>1540.677</ele>
      <time>2021-10-12T19:14:31Z</time>
    </trkpt>
    <trkpt lat="38.567174971" lon="34.961349964">
      <ele>1541.08</ele>
      <time>2021-10-12T19:14:32Z</time>
    </trkpt>
    <trkpt lat="38.567193998" lon="34.961330015">
      <ele>1541.433</ele>
      <time>2021-10-12T19:14:33Z</time>
    </trkpt>
    <trkpt lat="38.567214031" lon="34.961311994">
      <ele>1541.771</ele>
      <time>2021-10-12T19:14:34Z</time>
    </trkpt>
    <trkpt lat="38.567232974" lon="34.961293973">
      <ele>1542.051</ele>
      <time>2021-10-12T19:14:34Z</time>
    </trkpt>
    <trkpt lat="38.567250995" lon="34.961274024">
      <ele>1542.301</ele>
      <time>2021-10-12T19:14:35Z</time>
    </trkpt>
    <trkpt lat="38.567287959" lon="34.961233037">
      <ele>1542.787</ele>
      <time>2021-10-12T19:14:37Z</time>
    </trkpt>
    <trkpt lat="38.56730598" lon="34.961210992">
      <ele>1543.03</ele>
      <time>2021-10-12T19:14:38Z</time>
    </trkpt>
    <trkpt lat="38.567337999" lon="34.961158019">
      <ele>1543.564</ele>
      <time>2021-10-12T19:14:40Z</time>
    </trkpt>
    <trkpt lat="38.567350991" lon="34.96113304">
      <ele>1543.8</ele>
      <time>2021-10-12T19:14:41Z</time>
    </trkpt>
    <trkpt lat="38.56735996" lon="34.961105967">
      <ele>1544.037</ele>
      <time>2021-10-12T19:14:42Z</time>
    </trkpt>
    <trkpt lat="38.567363983" lon="34.961079983">
      <ele>1544.224</ele>
      <time>2021-10-12T19:14:42Z</time>
    </trkpt>
    <trkpt lat="38.567367001" lon="34.961034972">
      <ele>1544.548</ele>
      <time>2021-10-12T19:14:44Z</time>
    </trkpt>
    <trkpt lat="38.567371024" lon="34.960998008">
      <ele>1544.814</ele>
      <time>2021-10-12T19:14:45Z</time>
    </trkpt>
    <trkpt lat="38.567371024" lon="34.960970012">
      <ele>1545.016</ele>
      <time>2021-10-12T19:14:46Z</time>
    </trkpt>
    <trkpt lat="38.567368006" lon="34.960938999">
      <ele>1545.239</ele>
      <time>2021-10-12T19:14:47Z</time>
    </trkpt>
    <trkpt lat="38.567367001" lon="34.960909998">
      <ele>1545.448</ele>
      <time>2021-10-12T19:14:47Z</time>
    </trkpt>
    <trkpt lat="38.567369012" lon="34.960879991">
      <ele>1545.664</ele>
      <time>2021-10-12T19:14:48Z</time>
    </trkpt>
    <trkpt lat="38.567368006" lon="34.960844032">
      <ele>1545.923</ele>
      <time>2021-10-12T19:14:49Z</time>
    </trkpt>
    <trkpt lat="38.567373035" lon="34.960812014">
      <ele>1546.077</ele>
      <time>2021-10-12T19:14:50Z</time>
    </trkpt>
    <trkpt lat="38.567390973" lon="34.96078603">
      <ele>1546.17</ele>
      <time>2021-10-12T19:14:51Z</time>
    </trkpt>
    <trkpt lat="38.567412011" lon="34.960764991">
      <ele>1546.246</ele>
      <time>2021-10-12T19:14:52Z</time>
    </trkpt>
    <trkpt lat="38.567434978" lon="34.960744958">
      <ele>1546.318</ele>
      <time>2021-10-12T19:14:53Z</time>
    </trkpt>
    <trkpt lat="38.567457022" lon="34.960725009">
      <ele>1546.39</ele>
      <time>2021-10-12T19:14:54Z</time>
    </trkpt>
    <trkpt lat="38.567478983" lon="34.960707994">
      <ele>1546.451</ele>
      <time>2021-10-12T19:14:55Z</time>
    </trkpt>
    <trkpt lat="38.567502033" lon="34.96068201">
      <ele>1546.563</ele>
      <time>2021-10-12T19:14:56Z</time>
    </trkpt>
    <trkpt lat="38.567522988" lon="34.960672036">
      <ele>1546.794</ele>
      <time>2021-10-12T19:14:57Z</time>
    </trkpt>
    <trkpt lat="38.567546038" lon="34.960659966">
      <ele>1547.059</ele>
      <time>2021-10-12T19:14:58Z</time>
    </trkpt>
    <trkpt lat="38.567575039" lon="34.960649991">
      <ele>1547.379</ele>
      <time>2021-10-12T19:14:59Z</time>
    </trkpt>
    <trkpt lat="38.567603035" lon="34.960639011">
      <ele>1547.701</ele>
      <time>2021-10-12T19:15:00Z</time>
    </trkpt>
    <trkpt lat="38.567630025" lon="34.960625013">
      <ele>1548.037</ele>
      <time>2021-10-12T19:15:01Z</time>
    </trkpt>
    <trkpt lat="38.567657014" lon="34.96062099">
      <ele>1548.327</ele>
      <time>2021-10-12T19:15:02Z</time>
    </trkpt>
    <trkpt lat="38.567688027" lon="34.960621996">
      <ele>1548.63</ele>
      <time>2021-10-12T19:15:04Z</time>
    </trkpt>
    <trkpt lat="38.567717029" lon="34.960626019">
      <ele>1548.892</ele>
      <time>2021-10-12T19:15:05Z</time>
    </trkpt>
    <trkpt lat="38.567748042" lon="34.960629037">
      <ele>1549.178</ele>
      <time>2021-10-12T19:15:06Z</time>
    </trkpt>
    <trkpt lat="38.567776037" lon="34.960641023">
      <ele>1549.368</ele>
      <time>2021-10-12T19:15:07Z</time>
    </trkpt>
    <trkpt lat="38.567805961" lon="34.960658038">
      <ele>1549.502</ele>
      <time>2021-10-12T19:15:08Z</time>
    </trkpt>
    <trkpt lat="38.567822976" lon="34.960670024">
      <ele>1549.568</ele>
      <time>2021-10-12T19:15:09Z</time>
    </trkpt>
    <trkpt lat="38.567842003" lon="34.960686034">
      <ele>1549.632</ele>
      <time>2021-10-12T19:15:10Z</time>
    </trkpt>
    <trkpt lat="38.567865975" lon="34.960704977">
      <ele>1549.73</ele>
      <time>2021-10-12T19:15:11Z</time>
    </trkpt>
    <trkpt lat="38.567890031" lon="34.960726015">
      <ele>1549.829</ele>
      <time>2021-10-12T19:15:12Z</time>
    </trkpt>
    <trkpt lat="38.567915009" lon="34.960747976">
      <ele>1549.945</ele>
      <time>2021-10-12T19:15:13Z</time>
    </trkpt>
    <trkpt lat="38.56793697" lon="34.96077002">
      <ele>1550.045</ele>
      <time>2021-10-12T19:15:14Z</time>
    </trkpt>
    <trkpt lat="38.567962032" lon="34.960791981">
      <ele>1550.189</ele>
      <time>2021-10-12T19:15:15Z</time>
    </trkpt>
    <trkpt lat="38.567989022" lon="34.960813019">
      <ele>1550.372</ele>
      <time>2021-10-12T19:15:16Z</time>
    </trkpt>
    <trkpt lat="38.568016011" lon="34.96083498">
      <ele>1550.562</ele>
      <time>2021-10-12T19:15:17Z</time>
    </trkpt>
    <trkpt lat="38.568040989" lon="34.960854007">
      <ele>1550.698</ele>
      <time>2021-10-12T19:15:19Z</time>
    </trkpt>
    <trkpt lat="38.568066973" lon="34.960870016">
      <ele>1550.736</ele>
      <time>2021-10-12T19:15:20Z</time>
    </trkpt>
    <trkpt lat="38.568091029" lon="34.960888959">
      <ele>1550.599</ele>
      <time>2021-10-12T19:15:21Z</time>
    </trkpt>
    <trkpt lat="38.568115002" lon="34.960904969">
      <ele>1550.484</ele>
      <time>2021-10-12T19:15:22Z</time>
    </trkpt>
    <trkpt lat="38.568168981" lon="34.960929025">
      <ele>1550.311</ele>
      <time>2021-10-12T19:15:24Z</time>
    </trkpt>
    <trkpt lat="38.568193959" lon="34.96093397">
      <ele>1550.275</ele>
      <time>2021-10-12T19:15:25Z</time>
    </trkpt>
    <trkpt lat="38.568222038" lon="34.960943023">
      <ele>1550.21</ele>
      <time>2021-10-12T19:15:26Z</time>
    </trkpt>
    <trkpt lat="38.568280041" lon="34.960965989">
      <ele>1550.045</ele>
      <time>2021-10-12T19:15:28Z</time>
    </trkpt>
    <trkpt lat="38.568308037" lon="34.960977975">
      <ele>1549.959</ele>
      <time>2021-10-12T19:15:29Z</time>
    </trkpt>
    <trkpt lat="38.568336032" lon="34.960989961">
      <ele>1549.872</ele>
      <time>2021-10-12T19:15:30Z</time>
    </trkpt>
    <trkpt lat="38.56836604" lon="34.961003959">
      <ele>1549.771</ele>
      <time>2021-10-12T19:15:31Z</time>
    </trkpt>
    <trkpt lat="38.568392023" lon="34.961018963">
      <ele>1549.663</ele>
      <time>2021-10-12T19:15:32Z</time>
    </trkpt>
    <trkpt lat="38.568418007" lon="34.961033966">
      <ele>1549.555</ele>
      <time>2021-10-12T19:15:34Z</time>
    </trkpt>
    <trkpt lat="38.568443991" lon="34.961051987">
      <ele>1549.426</ele>
      <time>2021-10-12T19:15:35Z</time>
    </trkpt>
    <trkpt lat="38.568471987" lon="34.961064979">
      <ele>1549.332</ele>
      <time>2021-10-12T19:15:36Z</time>
    </trkpt>
    <trkpt lat="38.568499982" lon="34.961077971">
      <ele>1549.239</ele>
      <time>2021-10-12T19:15:37Z</time>
    </trkpt>
    <trkpt lat="38.568525966" lon="34.961089035">
      <ele>1549.159</ele>
      <time>2021-10-12T19:15:38Z</time>
    </trkpt>
    <trkpt lat="38.56855304" lon="34.961103033">
      <ele>1549.058</ele>
      <time>2021-10-12T19:15:39Z</time>
    </trkpt>
    <trkpt lat="38.568579024" lon="34.961112002">
      <ele>1548.999</ele>
      <time>2021-10-12T19:15:40Z</time>
    </trkpt>
    <trkpt lat="38.568605008" lon="34.961117031">
      <ele>1548.999</ele>
      <time>2021-10-12T19:15:41Z</time>
    </trkpt>
    <trkpt lat="38.568631997" lon="34.961119965">
      <ele>1549.073</ele>
      <time>2021-10-12T19:15:42Z</time>
    </trkpt>
    <trkpt lat="38.568659993" lon="34.961121976">
      <ele>1549.169</ele>
      <time>2021-10-12T19:15:43Z</time>
    </trkpt>
    <trkpt lat="38.568684971" lon="34.961119965">
      <ele>1549.257</ele>
      <time>2021-10-12T19:15:44Z</time>
    </trkpt>
    <trkpt lat="38.568707015" lon="34.961117031">
      <ele>1549.338</ele>
      <time>2021-10-12T19:15:45Z</time>
    </trkpt>
    <trkpt lat="38.568730988" lon="34.961115019">
      <ele>1549.425</ele>
      <time>2021-10-12T19:15:46Z</time>
    </trkpt>
    <trkpt lat="38.568752026" lon="34.961114014">
      <ele>1549.502</ele>
      <time>2021-10-12T19:15:46Z</time>
    </trkpt>
    <trkpt lat="38.56877801" lon="34.961112002">
      <ele>1549.599</ele>
      <time>2021-10-12T19:15:47Z</time>
    </trkpt>
    <trkpt lat="38.568805" lon="34.961108984">
      <ele>1549.708</ele>
      <time>2021-10-12T19:15:48Z</time>
    </trkpt>
    <trkpt lat="38.56882696" lon="34.961105967">
      <ele>1549.8</ele>
      <time>2021-10-12T19:15:49Z</time>
    </trkpt>
    <trkpt lat="38.568854034" lon="34.961102027">
      <ele>1549.911</ele>
      <time>2021-10-12T19:15:50Z</time>
    </trkpt>
    <trkpt lat="38.568879012" lon="34.961096998">
      <ele>1550.017</ele>
      <time>2021-10-12T19:15:51Z</time>
    </trkpt>
    <trkpt lat="38.568908013" lon="34.961092975">
      <ele>1550.139</ele>
      <time>2021-10-12T19:15:52Z</time>
    </trkpt>
    <trkpt lat="38.568933997" lon="34.961090963">
      <ele>1550.247</ele>
      <time>2021-10-12T19:15:53Z</time>
    </trkpt>
    <trkpt lat="38.568956964" lon="34.961087024">
      <ele>1550.353</ele>
      <time>2021-10-12T19:15:54Z</time>
    </trkpt>
    <trkpt lat="38.568984037" lon="34.961085012">
      <ele>1550.469</ele>
      <time>2021-10-12T19:15:55Z</time>
    </trkpt>
    <trkpt lat="38.569011027" lon="34.961080989">
      <ele>1550.596</ele>
      <time>2021-10-12T19:15:56Z</time>
    </trkpt>
    <trkpt lat="38.569067018" lon="34.961078977">
      <ele>1550.831</ele>
      <time>2021-10-12T19:15:58Z</time>
    </trkpt>
    <trkpt lat="38.569093002" lon="34.961076966">
      <ele>1550.948</ele>
      <time>2021-10-12T19:15:59Z</time>
    </trkpt>
    <trkpt lat="38.569120998" lon="34.961071014">
      <ele>1551.101</ele>
      <time>2021-10-12T19:16:00Z</time>
    </trkpt>
    <trkpt lat="38.569148993" lon="34.961065985">
      <ele>1551.251</ele>
      <time>2021-10-12T19:16:01Z</time>
    </trkpt>
    <trkpt lat="38.569173971" lon="34.961062968">
      <ele>1551.395</ele>
      <time>2021-10-12T19:16:02Z</time>
    </trkpt>
    <trkpt lat="38.569199033" lon="34.961055005">
      <ele>1551.613</ele>
      <time>2021-10-12T19:16:03Z</time>
    </trkpt>
    <trkpt lat="38.569221999" lon="34.961050982">
      <ele>1551.788</ele>
      <time>2021-10-12T19:16:04Z</time>
    </trkpt>
    <trkpt lat="38.569244966" lon="34.961046036">
      <ele>1551.966</ele>
      <time>2021-10-12T19:16:05Z</time>
    </trkpt>
    <trkpt lat="38.569269022" lon="34.961038996">
      <ele>1552.161</ele>
      <time>2021-10-12T19:16:06Z</time>
    </trkpt>
    <trkpt lat="38.569290983" lon="34.961033966">
      <ele>1552.326</ele>
      <time>2021-10-12T19:16:06Z</time>
    </trkpt>
    <trkpt lat="38.569315039" lon="34.961029021">
      <ele>1552.501</ele>
      <time>2021-10-12T19:16:07Z</time>
    </trkpt>
    <trkpt lat="38.569335993" lon="34.961023992">
      <ele>1552.655</ele>
      <time>2021-10-12T19:16:08Z</time>
    </trkpt>
    <trkpt lat="38.569360971" lon="34.961015023">
      <ele>1552.849</ele>
      <time>2021-10-12T19:16:09Z</time>
    </trkpt>
    <trkpt lat="38.569386033" lon="34.961008988">
      <ele>1553.024</ele>
      <time>2021-10-12T19:16:10Z</time>
    </trkpt>
    <trkpt lat="38.569411011" lon="34.961003037">
      <ele>1553.195</ele>
      <time>2021-10-12T19:16:11Z</time>
    </trkpt>
    <trkpt lat="38.569435989" lon="34.960994991">
      <ele>1553.37</ele>
      <time>2021-10-12T19:16:12Z</time>
    </trkpt>
    <trkpt lat="38.569459962" lon="34.960988034">
      <ele>1553.524</ele>
      <time>2021-10-12T19:16:13Z</time>
    </trkpt>
    <trkpt lat="38.569483012" lon="34.960979987">
      <ele>1553.676</ele>
      <time>2021-10-12T19:16:14Z</time>
    </trkpt>
    <trkpt lat="38.569506984" lon="34.960975964">
      <ele>1553.821</ele>
      <time>2021-10-12T19:16:15Z</time>
    </trkpt>
    <trkpt lat="38.56953104" lon="34.960968001">
      <ele>1553.988</ele>
      <time>2021-10-12T19:16:16Z</time>
    </trkpt>
    <trkpt lat="38.569554007" lon="34.96096096">
      <ele>1554.148</ele>
      <time>2021-10-12T19:16:16Z</time>
    </trkpt>
    <trkpt lat="38.569578985" lon="34.960956015">
      <ele>1554.313</ele>
      <time>2021-10-12T19:16:17Z</time>
    </trkpt>
    <trkpt lat="38.569603041" lon="34.96094998">
      <ele>1554.482</ele>
      <time>2021-10-12T19:16:18Z</time>
    </trkpt>
    <trkpt lat="38.569629025" lon="34.960941011">
      <ele>1554.684</ele>
      <time>2021-10-12T19:16:19Z</time>
    </trkpt>
    <trkpt lat="38.569655009" lon="34.96093397">
      <ele>1554.879</ele>
      <time>2021-10-12T19:16:20Z</time>
    </trkpt>
    <trkpt lat="38.569677975" lon="34.960926007">
      <ele>1555.067</ele>
      <time>2021-10-12T19:16:21Z</time>
    </trkpt>
    <trkpt lat="38.569703037" lon="34.960917961">
      <ele>1555.274</ele>
      <time>2021-10-12T19:16:22Z</time>
    </trkpt>
    <trkpt lat="38.569726003" lon="34.960909998">
      <ele>1555.489</ele>
      <time>2021-10-12T19:16:23Z</time>
    </trkpt>
    <trkpt lat="38.569747964" lon="34.960901029">
      <ele>1555.791</ele>
      <time>2021-10-12T19:16:24Z</time>
    </trkpt>
    <trkpt lat="38.56977202" lon="34.960888959">
      <ele>1556.137</ele>
      <time>2021-10-12T19:16:25Z</time>
    </trkpt>
    <trkpt lat="38.569793981" lon="34.960875968">
      <ele>1556.468</ele>
      <time>2021-10-12T19:16:26Z</time>
    </trkpt>
    <trkpt lat="38.569816025" lon="34.96086197">
      <ele>1556.807</ele>
      <time>2021-10-12T19:16:27Z</time>
    </trkpt>
    <trkpt lat="38.569837986" lon="34.960847972">
      <ele>1557.145</ele>
      <time>2021-10-12T19:16:27Z</time>
    </trkpt>
    <trkpt lat="38.569857012" lon="34.960833974">
      <ele>1557.451</ele>
      <time>2021-10-12T19:16:28Z</time>
    </trkpt>
    <trkpt lat="38.569878973" lon="34.960817965">
      <ele>1557.859</ele>
      <time>2021-10-12T19:16:29Z</time>
    </trkpt>
    <trkpt lat="38.569900012" lon="34.960802039">
      <ele>1558.258</ele>
      <time>2021-10-12T19:16:30Z</time>
    </trkpt>
    <trkpt lat="38.569919961" lon="34.960788963">
      <ele>1558.615</ele>
      <time>2021-10-12T19:16:31Z</time>
    </trkpt>
    <trkpt lat="38.569939993" lon="34.96077396">
      <ele>1558.993</ele>
      <time>2021-10-12T19:16:32Z</time>
    </trkpt>
    <trkpt lat="38.56995902" lon="34.960761974">
      <ele>1559.328</ele>
      <time>2021-10-12T19:16:33Z</time>
    </trkpt>
    <trkpt lat="38.569978969" lon="34.960751999">
      <ele>1559.651</ele>
      <time>2021-10-12T19:16:33Z</time>
    </trkpt>
    <trkpt lat="38.569999002" lon="34.960742025">
      <ele>1559.975</ele>
      <time>2021-10-12T19:16:34Z</time>
    </trkpt>
    <trkpt lat="38.570019035" lon="34.960731966">
      <ele>1560.344</ele>
      <time>2021-10-12T19:16:35Z</time>
    </trkpt>
    <trkpt lat="38.570040995" lon="34.960721992">
      <ele>1560.734</ele>
      <time>2021-10-12T19:16:36Z</time>
    </trkpt>
    <trkpt lat="38.570061028" lon="34.960710006">
      <ele>1561.113</ele>
      <time>2021-10-12T19:16:37Z</time>
    </trkpt>
    <trkpt lat="38.570080977" lon="34.960701959">
      <ele>1561.447</ele>
      <time>2021-10-12T19:16:37Z</time>
    </trkpt>
    <trkpt lat="38.570103021" lon="34.960691985">
      <ele>1561.821</ele>
      <time>2021-10-12T19:16:38Z</time>
    </trkpt>
    <trkpt lat="38.57012297" lon="34.96068201">
      <ele>1562.164</ele>
      <time>2021-10-12T19:16:39Z</time>
    </trkpt>
    <trkpt lat="38.570143003" lon="34.960673042">
      <ele>1562.493</ele>
      <time>2021-10-12T19:16:40Z</time>
    </trkpt>
    <trkpt lat="38.570163036" lon="34.960666001">
      <ele>1562.801</ele>
      <time>2021-10-12T19:16:41Z</time>
    </trkpt>
    <trkpt lat="38.570184996" lon="34.96065896">
      <ele>1563.129</ele>
      <time>2021-10-12T19:16:41Z</time>
    </trkpt>
    <trkpt lat="38.570207041" lon="34.960656026">
      <ele>1563.421</ele>
      <time>2021-10-12T19:16:42Z</time>
    </trkpt>
    <trkpt lat="38.570250962" lon="34.960652003">
      <ele>1563.982</ele>
      <time>2021-10-12T19:16:44Z</time>
    </trkpt>
    <trkpt lat="38.570272001" lon="34.960652003">
      <ele>1564.236</ele>
      <time>2021-10-12T19:16:45Z</time>
    </trkpt>
    <trkpt lat="38.570291027" lon="34.960648986">
      <ele>1564.486</ele>
      <time>2021-10-12T19:16:45Z</time>
    </trkpt>
    <trkpt lat="38.57032598" lon="34.960646974">
      <ele>1564.919</ele>
      <time>2021-10-12T19:16:47Z</time>
    </trkpt>
    <trkpt lat="38.570355987" lon="34.960641023">
      <ele>1565.316</ele>
      <time>2021-10-12T19:16:48Z</time>
    </trkpt>
    <trkpt lat="38.570382977" lon="34.960634988">
      <ele>1565.673</ele>
      <time>2021-10-12T19:16:49Z</time>
    </trkpt>
    <trkpt lat="38.570404015" lon="34.960642029">
      <ele>1565.882</ele>
      <time>2021-10-12T19:16:50Z</time>
    </trkpt>
    <trkpt lat="38.570426982" lon="34.960649991">
      <ele>1566.114</ele>
      <time>2021-10-12T19:16:51Z</time>
    </trkpt>
    <trkpt lat="38.570469981" lon="34.960664995">
      <ele>1566.56</ele>
      <time>2021-10-12T19:16:52Z</time>
    </trkpt>
    <trkpt lat="38.570489008" lon="34.960669018">
      <ele>1566.775</ele>
      <time>2021-10-12T19:16:53Z</time>
    </trkpt>
    <trkpt lat="38.570509963" lon="34.960673964">
      <ele>1567.011</ele>
      <time>2021-10-12T19:16:54Z</time>
    </trkpt>
    <trkpt lat="38.570532007" lon="34.960676981">
      <ele>1567.271</ele>
      <time>2021-10-12T19:16:55Z</time>
    </trkpt>
    <trkpt lat="38.570552962" lon="34.960681004">
      <ele>1567.516</ele>
      <time>2021-10-12T19:16:55Z</time>
    </trkpt>
    <trkpt lat="38.570575006" lon="34.960686034">
      <ele>1567.67</ele>
      <time>2021-10-12T19:16:56Z</time>
    </trkpt>
    <trkpt lat="38.570595961" lon="34.960691985">
      <ele>1567.8</ele>
      <time>2021-10-12T19:16:57Z</time>
    </trkpt>
    <trkpt lat="38.570617" lon="34.960697014">
      <ele>1567.933</ele>
      <time>2021-10-12T19:16:58Z</time>
    </trkpt>
    <trkpt lat="38.57063896" lon="34.960700031">
      <ele>1568.08</ele>
      <time>2021-10-12T19:16:59Z</time>
    </trkpt>
    <trkpt lat="38.57066201" lon="34.960701959">
      <ele>1568.239</ele>
      <time>2021-10-12T19:16:59Z</time>
    </trkpt>
    <trkpt lat="38.570685983" lon="34.960704977">
      <ele>1568.401</ele>
      <time>2021-10-12T19:17:00Z</time>
    </trkpt>
    <trkpt lat="38.570710039" lon="34.960705983">
      <ele>1568.571</ele>
      <time>2021-10-12T19:17:01Z</time>
    </trkpt>
    <trkpt lat="38.570729988" lon="34.960703971">
      <ele>1568.722</ele>
      <time>2021-10-12T19:17:02Z</time>
    </trkpt>
    <trkpt lat="38.57075002" lon="34.960701959">
      <ele>1568.873</ele>
      <time>2021-10-12T19:17:03Z</time>
    </trkpt>
    <trkpt lat="38.570771981" lon="34.960700031">
      <ele>1569.038</ele>
      <time>2021-10-12T19:17:03Z</time>
    </trkpt>
    <trkpt lat="38.570791008" lon="34.960697014">
      <ele>1569.186</ele>
      <time>2021-10-12T19:17:04Z</time>
    </trkpt>
    <trkpt lat="38.570812969" lon="34.960693996">
      <ele>1569.355</ele>
      <time>2021-10-12T19:17:05Z</time>
    </trkpt>
    <trkpt lat="38.570837025" lon="34.960687961">
      <ele>1569.543</ele>
      <time>2021-10-12T19:17:06Z</time>
    </trkpt>
    <trkpt lat="38.570859991" lon="34.960678993">
      <ele>1569.694</ele>
      <time>2021-10-12T19:17:07Z</time>
    </trkpt>
    <trkpt lat="38.57088103" lon="34.960673042">
      <ele>1569.821</ele>
      <time>2021-10-12T19:17:08Z</time>
    </trkpt>
    <trkpt lat="38.570900979" lon="34.960667007">
      <ele>1569.94</ele>
      <time>2021-10-12T19:17:08Z</time>
    </trkpt>
    <trkpt lat="38.570920005" lon="34.960660972">
      <ele>1570.051</ele>
      <time>2021-10-12T19:17:09Z</time>
    </trkpt>
    <trkpt lat="38.570940038" lon="34.960656026">
      <ele>1570.161</ele>
      <time>2021-10-12T19:17:10Z</time>
    </trkpt>
    <trkpt lat="38.570958981" lon="34.960648986">
      <ele>1570.268</ele>
      <time>2021-10-12T19:17:11Z</time>
    </trkpt>
    <trkpt lat="38.570995023" lon="34.960627025">
      <ele>1570.475</ele>
      <time>2021-10-12T19:17:12Z</time>
    </trkpt>
    <trkpt lat="38.571014972" lon="34.960616967">
      <ele>1570.577</ele>
      <time>2021-10-12T19:17:13Z</time>
    </trkpt>
    <trkpt lat="38.571029976" lon="34.960601041">
      <ele>1570.66</ele>
      <time>2021-10-12T19:17:14Z</time>
    </trkpt>
    <trkpt lat="38.571050009" lon="34.960586959">
      <ele>1570.755</ele>
      <time>2021-10-12T19:17:14Z</time>
    </trkpt>
    <trkpt lat="38.571067024" lon="34.960574973">
      <ele>1570.83</ele>
      <time>2021-10-12T19:17:15Z</time>
    </trkpt>
    <trkpt lat="38.571092002" lon="34.960563993">
      <ele>1570.929</ele>
      <time>2021-10-12T19:17:16Z</time>
    </trkpt>
    <trkpt lat="38.571110023" lon="34.960546978">
      <ele>1571.027</ele>
      <time>2021-10-12T19:17:17Z</time>
    </trkpt>
    <trkpt lat="38.57112796" lon="34.960533986">
      <ele>1571.26</ele>
      <time>2021-10-12T19:17:18Z</time>
    </trkpt>
    <trkpt lat="38.571146987" lon="34.960516971">
      <ele>1571.526</ele>
      <time>2021-10-12T19:17:19Z</time>
    </trkpt>
    <trkpt lat="38.57116702" lon="34.960500039">
      <ele>1571.804</ele>
      <time>2021-10-12T19:17:19Z</time>
    </trkpt>
    <trkpt lat="38.57120499" lon="34.960466009">
      <ele>1572.336</ele>
      <time>2021-10-12T19:17:21Z</time>
    </trkpt>
    <trkpt lat="38.571226029" lon="34.960447988">
      <ele>1572.628</ele>
      <time>2021-10-12T19:17:22Z</time>
    </trkpt>
    <trkpt lat="38.571243966" lon="34.960430972">
      <ele>1572.883</ele>
      <time>2021-10-12T19:17:23Z</time>
    </trkpt>
    <trkpt lat="38.571263999" lon="34.960415969">
      <ele>1573.154</ele>
      <time>2021-10-12T19:17:24Z</time>
    </trkpt>
    <trkpt lat="38.57128202" lon="34.960399959">
      <ele>1573.406</ele>
      <time>2021-10-12T19:17:25Z</time>
    </trkpt>
    <trkpt lat="38.571300041" lon="34.960385039">
      <ele>1573.654</ele>
      <time>2021-10-12T19:17:25Z</time>
    </trkpt>
    <trkpt lat="38.571318984" lon="34.960370036">
      <ele>1573.913</ele>
      <time>2021-10-12T19:17:26Z</time>
    </trkpt>
    <trkpt lat="38.571338011" lon="34.960355032">
      <ele>1574.172</ele>
      <time>2021-10-12T19:17:27Z</time>
    </trkpt>
    <trkpt lat="38.571356032" lon="34.960338017">
      <ele>1574.428</ele>
      <time>2021-10-12T19:17:28Z</time>
    </trkpt>
    <trkpt lat="38.571375981" lon="34.960322008">
      <ele>1574.701</ele>
      <time>2021-10-12T19:17:29Z</time>
    </trkpt>
    <trkpt lat="38.571395008" lon="34.960305998">
      <ele>1574.92</ele>
      <time>2021-10-12T19:17:30Z</time>
    </trkpt>
    <trkpt lat="38.571413029" lon="34.960289989">
      <ele>1575.043</ele>
      <time>2021-10-12T19:17:30Z</time>
    </trkpt>
    <trkpt lat="38.571433984" lon="34.960273979">
      <ele>1575.151</ele>
      <time>2021-10-12T19:17:31Z</time>
    </trkpt>
    <trkpt lat="38.571471032" lon="34.960252019">
      <ele>1575.23</ele>
      <time>2021-10-12T19:17:33Z</time>
    </trkpt>
    <trkpt lat="38.571489975" lon="34.96024196">
      <ele>1575.282</ele>
      <time>2021-10-12T19:17:34Z</time>
    </trkpt>
    <trkpt lat="38.571509002" lon="34.960232992">
      <ele>1575.341</ele>
      <time>2021-10-12T19:17:34Z</time>
    </trkpt>
    <trkpt lat="38.571554013" lon="34.960211031">
      <ele>1575.497</ele>
      <time>2021-10-12T19:17:36Z</time>
    </trkpt>
    <trkpt lat="38.571575973" lon="34.96020399">
      <ele>1575.587</ele>
      <time>2021-10-12T19:17:37Z</time>
    </trkpt>
    <trkpt lat="38.571600029" lon="34.960196028">
      <ele>1575.69</ele>
      <time>2021-10-12T19:17:38Z</time>
    </trkpt>
    <trkpt lat="38.571624001" lon="34.960184041">
      <ele>1575.795</ele>
      <time>2021-10-12T19:17:39Z</time>
    </trkpt>
    <trkpt lat="38.571646968" lon="34.960174989">
      <ele>1575.903</ele>
      <time>2021-10-12T19:17:40Z</time>
    </trkpt>
    <trkpt lat="38.571673036" lon="34.96016602">
      <ele>1575.977</ele>
      <time>2021-10-12T19:17:41Z</time>
    </trkpt>
    <trkpt lat="38.571701031" lon="34.96015898">
      <ele>1575.876</ele>
      <time>2021-10-12T19:17:42Z</time>
    </trkpt>
    <trkpt lat="38.571727015" lon="34.960149005">
      <ele>1575.783</ele>
      <time>2021-10-12T19:17:43Z</time>
    </trkpt>
    <trkpt lat="38.571754005" lon="34.960139031">
      <ele>1575.686</ele>
      <time>2021-10-12T19:17:44Z</time>
    </trkpt>
    <trkpt lat="38.571782" lon="34.96013199">
      <ele>1575.585</ele>
      <time>2021-10-12T19:17:45Z</time>
    </trkpt>
    <trkpt lat="38.57180899" lon="34.960126039">
      <ele>1575.488</ele>
      <time>2021-10-12T19:17:46Z</time>
    </trkpt>
    <trkpt lat="38.57183598" lon="34.960117992">
      <ele>1575.39</ele>
      <time>2021-10-12T19:17:47Z</time>
    </trkpt>
    <trkpt lat="38.571864981" lon="34.96011598">
      <ele>1575.286</ele>
      <time>2021-10-12T19:17:48Z</time>
    </trkpt>
    <trkpt lat="38.571893983" lon="34.960113969">
      <ele>1575.182</ele>
      <time>2021-10-12T19:17:49Z</time>
    </trkpt>
    <trkpt lat="38.571924996" lon="34.960106006">
      <ele>1575.07</ele>
      <time>2021-10-12T19:17:50Z</time>
    </trkpt>
    <trkpt lat="38.571952991" lon="34.960097959">
      <ele>1574.958</ele>
      <time>2021-10-12T19:17:51Z</time>
    </trkpt>
    <trkpt lat="38.571980987" lon="34.960088991">
      <ele>1574.826</ele>
      <time>2021-10-12T19:17:52Z</time>
    </trkpt>
    <trkpt lat="38.572009988" lon="34.96007801">
      <ele>1574.698</ele>
      <time>2021-10-12T19:17:53Z</time>
    </trkpt>
    <trkpt lat="38.57203899" lon="34.960069042">
      <ele>1574.575</ele>
      <time>2021-10-12T19:17:55Z</time>
    </trkpt>
    <trkpt lat="38.572067991" lon="34.960059989">
      <ele>1574.459</ele>
      <time>2021-10-12T19:17:56Z</time>
    </trkpt>
    <trkpt lat="38.572097998" lon="34.960049009">
      <ele>1574.35</ele>
      <time>2021-10-12T19:17:57Z</time>
    </trkpt>
    <trkpt lat="38.572125994" lon="34.96004004">
      <ele>1574.252</ele>
      <time>2021-10-12T19:17:58Z</time>
    </trkpt>
    <trkpt lat="38.572157007" lon="34.960028976">
      <ele>1574.155</ele>
      <time>2021-10-12T19:17:59Z</time>
    </trkpt>
    <trkpt lat="38.572187014" lon="34.960020008">
      <ele>1574.064</ele>
      <time>2021-10-12T19:18:00Z</time>
    </trkpt>
    <trkpt lat="38.572215009" lon="34.960011039">
      <ele>1573.987</ele>
      <time>2021-10-12T19:18:01Z</time>
    </trkpt>
    <trkpt lat="38.572241999" lon="34.960002992">
      <ele>1573.918</ele>
      <time>2021-10-12T19:18:02Z</time>
    </trkpt>
    <trkpt lat="38.572269995" lon="34.959995029">
      <ele>1573.846</ele>
      <time>2021-10-12T19:18:03Z</time>
    </trkpt>
    <trkpt lat="38.572303019" lon="34.959983965">
      <ele>1573.767</ele>
      <time>2021-10-12T19:18:05Z</time>
    </trkpt>
    <trkpt lat="38.572327998" lon="34.959976003">
      <ele>1573.706</ele>
      <time>2021-10-12T19:18:06Z</time>
    </trkpt>
    <trkpt lat="38.572353981" lon="34.959969968">
      <ele>1573.634</ele>
      <time>2021-10-12T19:18:07Z</time>
    </trkpt>
    <trkpt lat="38.572383989" lon="34.959962005">
      <ele>1573.554</ele>
      <time>2021-10-12T19:18:08Z</time>
    </trkpt>
    <trkpt lat="38.572411984" lon="34.959951025">
      <ele>1573.493</ele>
      <time>2021-10-12T19:18:09Z</time>
    </trkpt>
    <trkpt lat="38.572465964" lon="34.959921017">
      <ele>1573.407</ele>
      <time>2021-10-12T19:18:11Z</time>
    </trkpt>
    <trkpt lat="38.572493959" lon="34.959904002">
      <ele>1573.367</ele>
      <time>2021-10-12T19:18:12Z</time>
    </trkpt>
    <trkpt lat="38.572521033" lon="34.959882041">
      <ele>1573.425</ele>
      <time>2021-10-12T19:18:13Z</time>
    </trkpt>
    <trkpt lat="38.572543999" lon="34.959863015">
      <ele>1573.493</ele>
      <time>2021-10-12T19:18:14Z</time>
    </trkpt>
    <trkpt lat="38.572568977" lon="34.959843988">
      <ele>1573.562</ele>
      <time>2021-10-12T19:18:15Z</time>
    </trkpt>
    <trkpt lat="38.572596973" lon="34.959825967">
      <ele>1573.627</ele>
      <time>2021-10-12T19:18:17Z</time>
    </trkpt>
    <trkpt lat="38.572623963" lon="34.959806018">
      <ele>1573.698</ele>
      <time>2021-10-12T19:18:18Z</time>
    </trkpt>
    <trkpt lat="38.572651036" lon="34.959790008">
      <ele>1573.756</ele>
      <time>2021-10-12T19:18:19Z</time>
    </trkpt>
    <trkpt lat="38.572675008" lon="34.959775005">
      <ele>1573.81</ele>
      <time>2021-10-12T19:18:20Z</time>
    </trkpt>
    <trkpt lat="38.572699986" lon="34.959757989">
      <ele>1573.871</ele>
      <time>2021-10-12T19:18:21Z</time>
    </trkpt>
    <trkpt lat="38.57272597" lon="34.95974198">
      <ele>1573.929</ele>
      <time>2021-10-12T19:18:22Z</time>
    </trkpt>
    <trkpt lat="38.572749021" lon="34.95972597">
      <ele>1573.987</ele>
      <time>2021-10-12T19:18:23Z</time>
    </trkpt>
    <trkpt lat="38.572772993" lon="34.959706021">
      <ele>1574.058</ele>
      <time>2021-10-12T19:18:24Z</time>
    </trkpt>
    <trkpt lat="38.572795037" lon="34.959683977">
      <ele>1574.076</ele>
      <time>2021-10-12T19:18:25Z</time>
    </trkpt>
    <trkpt lat="38.572811969" lon="34.959658999">
      <ele>1574.105</ele>
      <time>2021-10-12T19:18:26Z</time>
    </trkpt>
    <trkpt lat="38.572832001" lon="34.959632009">
      <ele>1574.13</ele>
      <time>2021-10-12T19:18:27Z</time>
    </trkpt>
    <trkpt lat="38.572851028" lon="34.95960502">
      <ele>1574.158</ele>
      <time>2021-10-12T19:18:28Z</time>
    </trkpt>
    <trkpt lat="38.572871983" lon="34.959580963">
      <ele>1574.169</ele>
      <time>2021-10-12T19:18:29Z</time>
    </trkpt>
    <trkpt lat="38.572893022" lon="34.959553974">
      <ele>1574.191</ele>
      <time>2021-10-12T19:18:30Z</time>
    </trkpt>
    <trkpt lat="38.572911965" lon="34.959530002">
      <ele>1574.209</ele>
      <time>2021-10-12T19:18:31Z</time>
    </trkpt>
    <trkpt lat="38.572935015" lon="34.959502006">
      <ele>1574.227</ele>
      <time>2021-10-12T19:18:32Z</time>
    </trkpt>
    <trkpt lat="38.572958987" lon="34.959475016">
      <ele>1574.238</ele>
      <time>2021-10-12T19:18:34Z</time>
    </trkpt>
    <trkpt lat="38.572982959" lon="34.95945096">
      <ele>1574.238</ele>
      <time>2021-10-12T19:18:35Z</time>
    </trkpt>
    <trkpt lat="38.573009027" lon="34.959427994">
      <ele>1574.227</ele>
      <time>2021-10-12T19:18:36Z</time>
    </trkpt>
    <trkpt lat="38.573059989" lon="34.959386">
      <ele>1574.194</ele>
      <time>2021-10-12T19:18:38Z</time>
    </trkpt>
    <trkpt lat="38.573086979" lon="34.959363034">
      <ele>1574.18</ele>
      <time>2021-10-12T19:18:39Z</time>
    </trkpt>
    <trkpt lat="38.573111035" lon="34.95934099">
      <ele>1574.173</ele>
      <time>2021-10-12T19:18:40Z</time>
    </trkpt>
    <trkpt lat="38.573137019" lon="34.959320035">
      <ele>1574.155</ele>
      <time>2021-10-12T19:18:42Z</time>
    </trkpt>
    <trkpt lat="38.573164009" lon="34.959300002">
      <ele>1574.13</ele>
      <time>2021-10-12T19:18:43Z</time>
    </trkpt>
    <trkpt lat="38.573187981" lon="34.959281981">
      <ele>1574.108</ele>
      <time>2021-10-12T19:18:44Z</time>
    </trkpt>
    <trkpt lat="38.573213965" lon="34.959262032">
      <ele>1574.086</ele>
      <time>2021-10-12T19:18:45Z</time>
    </trkpt>
    <trkpt lat="38.573238021" lon="34.959239988">
      <ele>1574.079</ele>
      <time>2021-10-12T19:18:46Z</time>
    </trkpt>
    <trkpt lat="38.573261993" lon="34.959220039">
      <ele>1574.065</ele>
      <time>2021-10-12T19:18:47Z</time>
    </trkpt>
    <trkpt lat="38.573285965" lon="34.959196988">
      <ele>1574.061</ele>
      <time>2021-10-12T19:18:48Z</time>
    </trkpt>
    <trkpt lat="38.573309015" lon="34.95917704">
      <ele>1574.05</ele>
      <time>2021-10-12T19:18:49Z</time>
    </trkpt>
    <trkpt lat="38.573333994" lon="34.959154995">
      <ele>1573.998</ele>
      <time>2021-10-12T19:18:50Z</time>
    </trkpt>
    <trkpt lat="38.573357966" lon="34.959131023">
      <ele>1573.923</ele>
      <time>2021-10-12T19:18:51Z</time>
    </trkpt>
    <trkpt lat="38.573382022" lon="34.959107973">
      <ele>1573.862</ele>
      <time>2021-10-12T19:18:53Z</time>
    </trkpt>
    <trkpt lat="38.573408006" lon="34.959084">
      <ele>1573.811</ele>
      <time>2021-10-12T19:18:54Z</time>
    </trkpt>
    <trkpt lat="38.573431978" lon="34.959061034">
      <ele>1573.78</ele>
      <time>2021-10-12T19:18:55Z</time>
    </trkpt>
    <trkpt lat="38.573456034" lon="34.95903899">
      <ele>1573.761</ele>
      <time>2021-10-12T19:18:56Z</time>
    </trkpt>
    <trkpt lat="38.573482018" lon="34.959017029">
      <ele>1573.753</ele>
      <time>2021-10-12T19:18:57Z</time>
    </trkpt>
    <trkpt lat="38.57350599" lon="34.95899599">
      <ele>1573.76</ele>
      <time>2021-10-12T19:18:58Z</time>
    </trkpt>
    <trkpt lat="38.57353298" lon="34.95897403">
      <ele>1573.78</ele>
      <time>2021-10-12T19:18:59Z</time>
    </trkpt>
    <trkpt lat="38.573557036" lon="34.958949974">
      <ele>1573.823</ele>
      <time>2021-10-12T19:19:00Z</time>
    </trkpt>
    <trkpt lat="38.57358302" lon="34.958927007">
      <ele>1573.877</ele>
      <time>2021-10-12T19:19:02Z</time>
    </trkpt>
    <trkpt lat="38.573609004" lon="34.958904963">
      <ele>1573.943</ele>
      <time>2021-10-12T19:19:03Z</time>
    </trkpt>
    <trkpt lat="38.573633982" lon="34.958883002">
      <ele>1573.941</ele>
      <time>2021-10-12T19:19:04Z</time>
    </trkpt>
    <trkpt lat="38.573658038" lon="34.958861964">
      <ele>1573.944</ele>
      <time>2021-10-12T19:19:05Z</time>
    </trkpt>
    <trkpt lat="38.573685028" lon="34.958842015">
      <ele>1573.948</ele>
      <time>2021-10-12T19:19:06Z</time>
    </trkpt>
    <trkpt lat="38.573711012" lon="34.958822988">
      <ele>1573.963</ele>
      <time>2021-10-12T19:19:07Z</time>
    </trkpt>
    <trkpt lat="38.573739007" lon="34.958804967">
      <ele>1573.981</ele>
      <time>2021-10-12T19:19:08Z</time>
    </trkpt>
    <trkpt lat="38.573767003" lon="34.958790969">
      <ele>1573.989</ele>
      <time>2021-10-12T19:19:10Z</time>
    </trkpt>
    <trkpt lat="38.573792987" lon="34.958775965">
      <ele>1574.018</ele>
      <time>2021-10-12T19:19:11Z</time>
    </trkpt>
    <trkpt lat="38.573820982" lon="34.958761968">
      <ele>1574.047</ele>
      <time>2021-10-12T19:19:12Z</time>
    </trkpt>
    <trkpt lat="38.573875967" lon="34.958733972">
      <ele>1574.136</ele>
      <time>2021-10-12T19:19:14Z</time>
    </trkpt>
    <trkpt lat="38.573905975" lon="34.958719974">
      <ele>1574.093</ele>
      <time>2021-10-12T19:19:15Z</time>
    </trkpt>
    <trkpt lat="38.573932964" lon="34.958705977">
      <ele>1574.0</ele>
      <time>2021-10-12T19:19:16Z</time>
    </trkpt>
    <trkpt lat="38.573962972" lon="34.958691979">
      <ele>1573.884</ele>
      <time>2021-10-12T19:19:17Z</time>
    </trkpt>
    <trkpt lat="38.573991973" lon="34.958674964">
      <ele>1573.798</ele>
      <time>2021-10-12T19:19:19Z</time>
    </trkpt>
    <trkpt lat="38.574018963" lon="34.958660966">
      <ele>1573.705</ele>
      <time>2021-10-12T19:19:20Z</time>
    </trkpt>
    <trkpt lat="38.574047964" lon="34.958647974">
      <ele>1573.589</ele>
      <time>2021-10-12T19:19:21Z</time>
    </trkpt>
    <trkpt lat="38.574076965" lon="34.958634982">
      <ele>1573.474</ele>
      <time>2021-10-12T19:19:22Z</time>
    </trkpt>
    <trkpt lat="38.574104961" lon="34.958619978">
      <ele>1573.38</ele>
      <time>2021-10-12T19:19:23Z</time>
    </trkpt>
    <trkpt lat="38.574134968" lon="34.958603969">
      <ele>1573.277</ele>
      <time>2021-10-12T19:19:24Z</time>
    </trkpt>
    <trkpt lat="38.574165981" lon="34.958587037">
      <ele>1573.178</ele>
      <time>2021-10-12T19:19:25Z</time>
    </trkpt>
    <trkpt lat="38.574193977" lon="34.95856801">
      <ele>1573.295</ele>
      <time>2021-10-12T19:19:27Z</time>
    </trkpt>
    <trkpt lat="38.574220967" lon="34.958552001">
      <ele>1573.384</ele>
      <time>2021-10-12T19:19:28Z</time>
    </trkpt>
    <trkpt lat="38.574247034" lon="34.95853398">
      <ele>1573.475</ele>
      <time>2021-10-12T19:19:29Z</time>
    </trkpt>
    <trkpt lat="38.574273018" lon="34.958515037">
      <ele>1573.559</ele>
      <time>2021-10-12T19:19:30Z</time>
    </trkpt>
    <trkpt lat="38.574297996" lon="34.958495004">
      <ele>1573.638</ele>
      <time>2021-10-12T19:19:31Z</time>
    </trkpt>
    <trkpt lat="38.574322974" lon="34.958473966">
      <ele>1573.71</ele>
      <time>2021-10-12T19:19:32Z</time>
    </trkpt>
    <trkpt lat="38.574378965" lon="34.958441025">
      <ele>1573.757</ele>
      <time>2021-10-12T19:19:34Z</time>
    </trkpt>
    <trkpt lat="38.574406039" lon="34.958426021">
      <ele>1573.758</ele>
      <time>2021-10-12T19:19:36Z</time>
    </trkpt>
    <trkpt lat="38.574433029" lon="34.958413029">
      <ele>1573.742</ele>
      <time>2021-10-12T19:19:37Z</time>
    </trkpt>
    <trkpt lat="38.574459013" lon="34.958401965">
      <ele>1573.688</ele>
      <time>2021-10-12T19:19:38Z</time>
    </trkpt>
    <trkpt lat="38.57448902" lon="34.958390985">
      <ele>1573.599</ele>
      <time>2021-10-12T19:19:39Z</time>
    </trkpt>
    <trkpt lat="38.574518021" lon="34.958382016">
      <ele>1573.513</ele>
      <time>2021-10-12T19:19:40Z</time>
    </trkpt>
    <trkpt lat="38.574549034" lon="34.958372042">
      <ele>1573.432</ele>
      <time>2021-10-12T19:19:41Z</time>
    </trkpt>
    <trkpt lat="38.574581975" lon="34.958362989">
      <ele>1573.345</ele>
      <time>2021-10-12T19:19:42Z</time>
    </trkpt>
    <trkpt lat="38.574612988" lon="34.958351003">
      <ele>1573.291</ele>
      <time>2021-10-12T19:19:44Z</time>
    </trkpt>
    <trkpt lat="38.574644001" lon="34.958342034">
      <ele>1573.228</ele>
      <time>2021-10-12T19:19:45Z</time>
    </trkpt>
    <trkpt lat="38.574674008" lon="34.958335999">
      <ele>1573.156</ele>
      <time>2021-10-12T19:19:46Z</time>
    </trkpt>
    <trkpt lat="38.574704016" lon="34.958328959">
      <ele>1573.081</ele>
      <time>2021-10-12T19:19:47Z</time>
    </trkpt>
    <trkpt lat="38.574734023" lon="34.958326025">
      <ele>1572.941</ele>
      <time>2021-10-12T19:19:48Z</time>
    </trkpt>
    <trkpt lat="38.574765036" lon="34.958320996">
      <ele>1572.736</ele>
      <time>2021-10-12T19:19:49Z</time>
    </trkpt>
    <trkpt lat="38.574794037" lon="34.958313033">
      <ele>1572.556</ele>
      <time>2021-10-12T19:19:50Z</time>
    </trkpt>
    <trkpt lat="38.574823961" lon="34.958310015">
      <ele>1572.351</ele>
      <time>2021-10-12T19:19:51Z</time>
    </trkpt>
    <trkpt lat="38.57485598" lon="34.958303981">
      <ele>1572.143</ele>
      <time>2021-10-12T19:19:53Z</time>
    </trkpt>
    <trkpt lat="38.574883975" lon="34.958298029">
      <ele>1571.962</ele>
      <time>2021-10-12T19:19:54Z</time>
    </trkpt>
    <trkpt lat="38.574914988" lon="34.958287971">
      <ele>1571.775</ele>
      <time>2021-10-12T19:19:55Z</time>
    </trkpt>
    <trkpt lat="38.57494399" lon="34.958280008">
      <ele>1571.595</ele>
      <time>2021-10-12T19:19:56Z</time>
    </trkpt>
    <trkpt lat="38.574972991" lon="34.95827104">
      <ele>1571.419</ele>
      <time>2021-10-12T19:19:57Z</time>
    </trkpt>
    <trkpt lat="38.575000986" lon="34.958261987">
      <ele>1571.25</ele>
      <time>2021-10-12T19:19:58Z</time>
    </trkpt>
    <trkpt lat="38.575027976" lon="34.958251007">
      <ele>1571.095</ele>
      <time>2021-10-12T19:19:59Z</time>
    </trkpt>
    <trkpt lat="38.575055972" lon="34.958242038">
      <ele>1570.926</ele>
      <time>2021-10-12T19:20:00Z</time>
    </trkpt>
    <trkpt lat="38.575081034" lon="34.958232986">
      <ele>1570.778</ele>
      <time>2021-10-12T19:20:01Z</time>
    </trkpt>
    <trkpt lat="38.575108023" lon="34.958218988">
      <ele>1570.634</ele>
      <time>2021-10-12T19:20:02Z</time>
    </trkpt>
    <trkpt lat="38.575134007" lon="34.958205996">
      <ele>1570.494</ele>
      <time>2021-10-12T19:20:03Z</time>
    </trkpt>
    <trkpt lat="38.575158985" lon="34.958191998">
      <ele>1570.364</ele>
      <time>2021-10-12T19:20:04Z</time>
    </trkpt>
    <trkpt lat="38.575185975" lon="34.958178001">
      <ele>1570.22</ele>
      <time>2021-10-12T19:20:05Z</time>
    </trkpt>
    <trkpt lat="38.575211037" lon="34.958162997">
      <ele>1570.094</ele>
      <time>2021-10-12T19:20:06Z</time>
    </trkpt>
    <trkpt lat="38.575236015" lon="34.958150005">
      <ele>1569.961</ele>
      <time>2021-10-12T19:20:07Z</time>
    </trkpt>
    <trkpt lat="38.575263005" lon="34.958133996">
      <ele>1569.824</ele>
      <time>2021-10-12T19:20:09Z</time>
    </trkpt>
    <trkpt lat="38.575286977" lon="34.958118992">
      <ele>1569.772</ele>
      <time>2021-10-12T19:20:10Z</time>
    </trkpt>
    <trkpt lat="38.575312039" lon="34.958102982">
      <ele>1569.829</ele>
      <time>2021-10-12T19:20:11Z</time>
    </trkpt>
    <trkpt lat="38.575364007" lon="34.95806803">
      <ele>1569.955</ele>
      <time>2021-10-12T19:20:13Z</time>
    </trkpt>
    <trkpt lat="38.575392002" lon="34.958050009">
      <ele>1570.04</ele>
      <time>2021-10-12T19:20:14Z</time>
    </trkpt>
    <trkpt lat="38.575417986" lon="34.958032994">
      <ele>1570.162</ele>
      <time>2021-10-12T19:20:15Z</time>
    </trkpt>
    <trkpt lat="38.57544397" lon="34.958015978">
      <ele>1570.285</ele>
      <time>2021-10-12T19:20:16Z</time>
    </trkpt>
    <trkpt lat="38.575472971" lon="34.957999969">
      <ele>1570.4</ele>
      <time>2021-10-12T19:20:17Z</time>
    </trkpt>
    <trkpt lat="38.575499961" lon="34.957983959">
      <ele>1570.515</ele>
      <time>2021-10-12T19:20:18Z</time>
    </trkpt>
    <trkpt lat="38.575527035" lon="34.957967028">
      <ele>1570.637</ele>
      <time>2021-10-12T19:20:19Z</time>
    </trkpt>
    <trkpt lat="38.575556036" lon="34.957949007">
      <ele>1570.766</ele>
      <time>2021-10-12T19:20:21Z</time>
    </trkpt>
    <trkpt lat="38.57558202" lon="34.957931992">
      <ele>1570.847</ele>
      <time>2021-10-12T19:20:22Z</time>
    </trkpt>
    <trkpt lat="38.575610016" lon="34.957913971">
      <ele>1570.919</ele>
      <time>2021-10-12T19:20:23Z</time>
    </trkpt>
    <trkpt lat="38.575638011" lon="34.957896033">
      <ele>1570.978</ele>
      <time>2021-10-12T19:20:24Z</time>
    </trkpt>
    <trkpt lat="38.575665001" lon="34.957873989">
      <ele>1571.05</ele>
      <time>2021-10-12T19:20:25Z</time>
    </trkpt>
    <trkpt lat="38.575691991" lon="34.95785404">
      <ele>1571.095</ele>
      <time>2021-10-12T19:20:26Z</time>
    </trkpt>
    <trkpt lat="38.575717974" lon="34.957834007">
      <ele>1571.129</ele>
      <time>2021-10-12T19:20:27Z</time>
    </trkpt>
    <trkpt lat="38.575746976" lon="34.957815986">
      <ele>1571.131</ele>
      <time>2021-10-12T19:20:29Z</time>
    </trkpt>
    <trkpt lat="38.57577296" lon="34.957796959">
      <ele>1571.133</ele>
      <time>2021-10-12T19:20:30Z</time>
    </trkpt>
    <trkpt lat="38.575798022" lon="34.957779022">
      <ele>1571.122</ele>
      <time>2021-10-12T19:20:31Z</time>
    </trkpt>
    <trkpt lat="38.575850995" lon="34.957744991">
      <ele>1571.292</ele>
      <time>2021-10-12T19:20:33Z</time>
    </trkpt>
    <trkpt lat="38.575875973" lon="34.957724959">
      <ele>1571.505</ele>
      <time>2021-10-12T19:20:34Z</time>
    </trkpt>
    <trkpt lat="38.575902041" lon="34.957709033">
      <ele>1571.681</ele>
      <time>2021-10-12T19:20:35Z</time>
    </trkpt>
    <trkpt lat="38.575928025" lon="34.957692018">
      <ele>1571.853</ele>
      <time>2021-10-12T19:20:36Z</time>
    </trkpt>
    <trkpt lat="38.575951997" lon="34.957676008">
      <ele>1572.003</ele>
      <time>2021-10-12T19:20:37Z</time>
    </trkpt>
    <trkpt lat="38.575976975" lon="34.957657987">
      <ele>1572.157</ele>
      <time>2021-10-12T19:20:38Z</time>
    </trkpt>
    <trkpt lat="38.57599902" lon="34.95763896">
      <ele>1572.298</ele>
      <time>2021-10-12T19:20:39Z</time>
    </trkpt>
    <trkpt lat="38.576022992" lon="34.957617">
      <ele>1572.445</ele>
      <time>2021-10-12T19:20:40Z</time>
    </trkpt>
    <trkpt lat="38.576046964" lon="34.957594033">
      <ele>1572.583</ele>
      <time>2021-10-12T19:20:42Z</time>
    </trkpt>
    <trkpt lat="38.57607102" lon="34.957572995">
      <ele>1572.699</ele>
      <time>2021-10-12T19:20:43Z</time>
    </trkpt>
    <trkpt lat="38.576095998" lon="34.95755204">
      <ele>1572.802</ele>
      <time>2021-10-12T19:20:44Z</time>
    </trkpt>
    <trkpt lat="38.576120976" lon="34.957529996">
      <ele>1572.928</ele>
      <time>2021-10-12T19:20:45Z</time>
    </trkpt>
    <trkpt lat="38.576146038" lon="34.957511974">
      <ele>1573.083</ele>
      <time>2021-10-12T19:20:46Z</time>
    </trkpt>
    <trkpt lat="38.576172022" lon="34.957494037">
      <ele>1573.258</ele>
      <time>2021-10-12T19:20:47Z</time>
    </trkpt>
    <trkpt lat="38.576193983" lon="34.957472999">
      <ele>1573.464</ele>
      <time>2021-10-12T19:20:48Z</time>
    </trkpt>
    <trkpt lat="38.576219967" lon="34.957455983">
      <ele>1573.647</ele>
      <time>2021-10-12T19:20:49Z</time>
    </trkpt>
    <trkpt lat="38.576248968" lon="34.957437962">
      <ele>1573.832</ele>
      <time>2021-10-12T19:20:50Z</time>
    </trkpt>
    <trkpt lat="38.576276042" lon="34.957419019">
      <ele>1574.004</ele>
      <time>2021-10-12T19:20:51Z</time>
    </trkpt>
    <trkpt lat="38.576302025" lon="34.957399992">
      <ele>1574.16</ele>
      <time>2021-10-12T19:20:53Z</time>
    </trkpt>
    <trkpt lat="38.576325998" lon="34.957380965">
      <ele>1574.299</ele>
      <time>2021-10-12T19:20:54Z</time>
    </trkpt>
    <trkpt lat="38.576354999" lon="34.957359005">
      <ele>1574.448</ele>
      <time>2021-10-12T19:20:55Z</time>
    </trkpt>
    <trkpt lat="38.576382995" lon="34.957337966">
      <ele>1574.574</ele>
      <time>2021-10-12T19:20:56Z</time>
    </trkpt>
    <trkpt lat="38.576439992" lon="34.957296979">
      <ele>1574.547</ele>
      <time>2021-10-12T19:20:58Z</time>
    </trkpt>
    <trkpt lat="38.576468993" lon="34.957278036">
      <ele>1574.511</ele>
      <time>2021-10-12T19:21:00Z</time>
    </trkpt>
    <trkpt lat="38.576526996" lon="34.957242999">
      <ele>1574.428</ele>
      <time>2021-10-12T19:21:02Z</time>
    </trkpt>
    <trkpt lat="38.57655298" lon="34.957223972">
      <ele>1574.403</ele>
      <time>2021-10-12T19:21:03Z</time>
    </trkpt>
    <trkpt lat="38.576578964" lon="34.957205029">
      <ele>1574.316</ele>
      <time>2021-10-12T19:21:04Z</time>
    </trkpt>
    <trkpt lat="38.576605031" lon="34.957181979">
      <ele>1574.222</ele>
      <time>2021-10-12T19:21:05Z</time>
    </trkpt>
    <trkpt lat="38.576629004" lon="34.957159013">
      <ele>1574.136</ele>
      <time>2021-10-12T19:21:07Z</time>
    </trkpt>
    <trkpt lat="38.576652976" lon="34.957135962">
      <ele>1574.049</ele>
      <time>2021-10-12T19:21:08Z</time>
    </trkpt>
    <trkpt lat="38.576677032" lon="34.957112996">
      <ele>1573.948</ele>
      <time>2021-10-12T19:21:09Z</time>
    </trkpt>
    <trkpt lat="38.57670201" lon="34.957089024">
      <ele>1573.812</ele>
      <time>2021-10-12T19:21:10Z</time>
    </trkpt>
    <trkpt lat="38.576726988" lon="34.957066979">
      <ele>1573.661</ele>
      <time>2021-10-12T19:21:11Z</time>
    </trkpt>
    <trkpt lat="38.576750038" lon="34.957048036">
      <ele>1573.512</ele>
      <time>2021-10-12T19:21:12Z</time>
    </trkpt>
    <trkpt lat="38.576776022" lon="34.957028003">
      <ele>1573.331</ele>
      <time>2021-10-12T19:21:13Z</time>
    </trkpt>
    <trkpt lat="38.576799994" lon="34.957009982">
      <ele>1573.153</ele>
      <time>2021-10-12T19:21:14Z</time>
    </trkpt>
    <trkpt lat="38.576824972" lon="34.956991961">
      <ele>1572.958</ele>
      <time>2021-10-12T19:21:15Z</time>
    </trkpt>
    <trkpt lat="38.576852968" lon="34.95697503">
      <ele>1572.732</ele>
      <time>2021-10-12T19:21:16Z</time>
    </trkpt>
    <trkpt lat="38.57687803" lon="34.956958015">
      <ele>1572.515</ele>
      <time>2021-10-12T19:21:17Z</time>
    </trkpt>
    <trkpt lat="38.57690502" lon="34.956939993">
      <ele>1572.268</ele>
      <time>2021-10-12T19:21:19Z</time>
    </trkpt>
    <trkpt lat="38.576934021" lon="34.956921972">
      <ele>1571.994</ele>
      <time>2021-10-12T19:21:20Z</time>
    </trkpt>
    <trkpt lat="38.576960005" lon="34.956902023">
      <ele>1571.8</ele>
      <time>2021-10-12T19:21:21Z</time>
    </trkpt>
    <trkpt lat="38.576984983" lon="34.956879979">
      <ele>1571.656</ele>
      <time>2021-10-12T19:21:22Z</time>
    </trkpt>
    <trkpt lat="38.577010967" lon="34.956856007">
      <ele>1571.518</ele>
      <time>2021-10-12T19:21:23Z</time>
    </trkpt>
    <trkpt lat="38.577035023" lon="34.95683304">
      <ele>1571.404</ele>
      <time>2021-10-12T19:21:24Z</time>
    </trkpt>
    <trkpt lat="38.577062013" lon="34.956810996">
      <ele>1571.3</ele>
      <time>2021-10-12T19:21:26Z</time>
    </trkpt>
    <trkpt lat="38.577086991" lon="34.956790041">
      <ele>1571.216</ele>
      <time>2021-10-12T19:21:27Z</time>
    </trkpt>
    <trkpt lat="38.577112975" lon="34.956766991">
      <ele>1571.142</ele>
      <time>2021-10-12T19:21:28Z</time>
    </trkpt>
    <trkpt lat="38.57714097" lon="34.956746036">
      <ele>1571.084</ele>
      <time>2021-10-12T19:21:29Z</time>
    </trkpt>
    <trkpt lat="38.577168966" lon="34.956727009">
      <ele>1571.042</ele>
      <time>2021-10-12T19:21:30Z</time>
    </trkpt>
    <trkpt lat="38.577197967" lon="34.956708988">
      <ele>1571.013</ele>
      <time>2021-10-12T19:21:31Z</time>
    </trkpt>
    <trkpt lat="38.577226968" lon="34.956689039">
      <ele>1570.999</ele>
      <time>2021-10-12T19:21:33Z</time>
    </trkpt>
    <trkpt lat="38.57725597" lon="34.956671018">
      <ele>1570.998</ele>
      <time>2021-10-12T19:21:34Z</time>
    </trkpt>
    <trkpt lat="38.577286983" lon="34.956651991">
      <ele>1571.0</ele>
      <time>2021-10-12T19:21:35Z</time>
    </trkpt>
    <trkpt lat="38.57731699" lon="34.956634976">
      <ele>1571.0</ele>
      <time>2021-10-12T19:21:36Z</time>
    </trkpt>
    <trkpt lat="38.577346997" lon="34.956617961">
      <ele>1571.0</ele>
      <time>2021-10-12T19:21:38Z</time>
    </trkpt>
    <trkpt lat="38.57737801" lon="34.956605975">
      <ele>1571.0</ele>
      <time>2021-10-12T19:21:39Z</time>
    </trkpt>
    <trkpt lat="38.577407012" lon="34.956591977">
      <ele>1571.0</ele>
      <time>2021-10-12T19:21:40Z</time>
    </trkpt>
    <trkpt lat="38.577437019" lon="34.956575967">
      <ele>1571.0</ele>
      <time>2021-10-12T19:21:41Z</time>
    </trkpt>
    <trkpt lat="38.577468032" lon="34.95656197">
      <ele>1571.0</ele>
      <time>2021-10-12T19:21:42Z</time>
    </trkpt>
    <trkpt lat="38.577498039" lon="34.956549983">
      <ele>1571.0</ele>
      <time>2021-10-12T19:21:43Z</time>
    </trkpt>
    <trkpt lat="38.577531986" lon="34.956533974">
      <ele>1570.83</ele>
      <time>2021-10-12T19:21:45Z</time>
    </trkpt>
    <trkpt lat="38.577565011" lon="34.956520982">
      <ele>1570.643</ele>
      <time>2021-10-12T19:21:46Z</time>
    </trkpt>
    <trkpt lat="38.577598035" lon="34.956506984">
      <ele>1570.444</ele>
      <time>2021-10-12T19:21:47Z</time>
    </trkpt>
    <trkpt lat="38.577632988" lon="34.956496004">
      <ele>1570.227</ele>
      <time>2021-10-12T19:21:49Z</time>
    </trkpt>
    <trkpt lat="38.577664001" lon="34.956484018">
      <ele>1570.021</ele>
      <time>2021-10-12T19:21:50Z</time>
    </trkpt>
    <trkpt lat="38.577698031" lon="34.956474965">
      <ele>1569.795</ele>
      <time>2021-10-12T19:21:51Z</time>
    </trkpt>
    <trkpt lat="38.577729966" lon="34.956462979">
      <ele>1569.565</ele>
      <time>2021-10-12T19:21:52Z</time>
    </trkpt>
    <trkpt lat="38.577761985" lon="34.956449987">
      <ele>1569.321</ele>
      <time>2021-10-12T19:21:54Z</time>
    </trkpt>
    <trkpt lat="38.577796016" lon="34.956436995">
      <ele>1569.108</ele>
      <time>2021-10-12T19:21:55Z</time>
    </trkpt>
    <trkpt lat="38.577826023" lon="34.956425009">
      <ele>1568.956</ele>
      <time>2021-10-12T19:21:56Z</time>
    </trkpt>
    <trkpt lat="38.577888971" lon="34.95639802">
      <ele>1568.633</ele>
      <time>2021-10-12T19:21:59Z</time>
    </trkpt>
    <trkpt lat="38.577917973" lon="34.956385028">
      <ele>1568.474</ele>
      <time>2021-10-12T19:22:00Z</time>
    </trkpt>
    <trkpt lat="38.577949991" lon="34.95637103">
      <ele>1568.276</ele>
      <time>2021-10-12T19:22:01Z</time>
    </trkpt>
    <trkpt lat="38.57798201" lon="34.956358038">
      <ele>1568.072</ele>
      <time>2021-10-12T19:22:02Z</time>
    </trkpt>
    <trkpt lat="38.578014029" lon="34.956344962">
      <ele>1567.857</ele>
      <time>2021-10-12T19:22:03Z</time>
    </trkpt>
    <trkpt lat="38.57804697" lon="34.956332976">
      <ele>1567.635</ele>
      <time>2021-10-12T19:22:05Z</time>
    </trkpt>
    <trkpt lat="38.578075971" lon="34.956325013">
      <ele>1567.483</ele>
      <time>2021-10-12T19:22:06Z</time>
    </trkpt>
    <trkpt lat="38.578106984" lon="34.956315039">
      <ele>1567.332</ele>
      <time>2021-10-12T19:22:07Z</time>
    </trkpt>
    <trkpt lat="38.578136992" lon="34.956301963">
      <ele>1567.173</ele>
      <time>2021-10-12T19:22:08Z</time>
    </trkpt>
    <trkpt lat="38.578164987" lon="34.956287965">
      <ele>1567.023</ele>
      <time>2021-10-12T19:22:09Z</time>
    </trkpt>
    <trkpt lat="38.578193989" lon="34.956272962">
      <ele>1566.875</ele>
      <time>2021-10-12T19:22:10Z</time>
    </trkpt>
    <trkpt lat="38.578220978" lon="34.956258964">
      <ele>1566.748</ele>
      <time>2021-10-12T19:22:12Z</time>
    </trkpt>
    <trkpt lat="38.578246962" lon="34.956243038">
      <ele>1566.623</ele>
      <time>2021-10-12T19:22:13Z</time>
    </trkpt>
    <trkpt lat="38.578274036" lon="34.956227029">
      <ele>1566.506</ele>
      <time>2021-10-12T19:22:14Z</time>
    </trkpt>
    <trkpt lat="38.578299014" lon="34.956210013">
      <ele>1566.4</ele>
      <time>2021-10-12T19:22:15Z</time>
    </trkpt>
    <trkpt lat="38.578324998" lon="34.956192998">
      <ele>1566.304</ele>
      <time>2021-10-12T19:22:16Z</time>
    </trkpt>
    <trkpt lat="38.578350982" lon="34.956173971">
      <ele>1566.114</ele>
      <time>2021-10-12T19:22:17Z</time>
    </trkpt>
    <trkpt lat="38.578377971" lon="34.95615704">
      <ele>1565.871</ele>
      <time>2021-10-12T19:22:18Z</time>
    </trkpt>
    <trkpt lat="38.578405967" lon="34.956142036">
      <ele>1565.617</ele>
      <time>2021-10-12T19:22:19Z</time>
    </trkpt>
    <trkpt lat="38.578435974" lon="34.956127033">
      <ele>1565.339</ele>
      <time>2021-10-12T19:22:20Z</time>
    </trkpt>
    <trkpt lat="38.57846397" lon="34.956113035">
      <ele>1565.07</ele>
      <time>2021-10-12T19:22:21Z</time>
    </trkpt>
    <trkpt lat="38.578493977" lon="34.956098031">
      <ele>1564.749</ele>
      <time>2021-10-12T19:22:23Z</time>
    </trkpt>
    <trkpt lat="38.578518033" lon="34.956089985">
      <ele>1564.518</ele>
      <time>2021-10-12T19:22:24Z</time>
    </trkpt>
    <trkpt lat="38.578547034" lon="34.956077999">
      <ele>1564.223</ele>
      <time>2021-10-12T19:22:25Z</time>
    </trkpt>
    <trkpt lat="38.578578969" lon="34.956068024">
      <ele>1563.921</ele>
      <time>2021-10-12T19:22:26Z</time>
    </trkpt>
    <trkpt lat="38.578608977" lon="34.956058972">
      <ele>1563.64</ele>
      <time>2021-10-12T19:22:27Z</time>
    </trkpt>
    <trkpt lat="38.578643007" lon="34.956052015">
      <ele>1563.526</ele>
      <time>2021-10-12T19:22:28Z</time>
    </trkpt>
    <trkpt lat="38.578673014" lon="34.956039023">
      <ele>1563.365</ele>
      <time>2021-10-12T19:22:30Z</time>
    </trkpt>
    <trkpt lat="38.57870101" lon="34.956019996">
      <ele>1563.132</ele>
      <time>2021-10-12T19:22:31Z</time>
    </trkpt>
    <trkpt lat="38.578730011" lon="34.955997029">
      <ele>1562.827</ele>
      <time>2021-10-12T19:22:32Z</time>
    </trkpt>
    <trkpt lat="38.578778962" lon="34.955947995">
      <ele>1562.116</ele>
      <time>2021-10-12T19:22:34Z</time>
    </trkpt>
    <trkpt lat="38.578803018" lon="34.95592">
      <ele>1561.673</ele>
      <time>2021-10-12T19:22:35Z</time>
    </trkpt>
    <trkpt lat="38.578825984" lon="34.955889992">
      <ele>1561.176</ele>
      <time>2021-10-12T19:22:37Z</time>
    </trkpt>
    <trkpt lat="38.578848029" lon="34.955857974">
      <ele>1560.623</ele>
      <time>2021-10-12T19:22:38Z</time>
    </trkpt>
    <trkpt lat="38.578869989" lon="34.955825033">
      <ele>1560.076</ele>
      <time>2021-10-12T19:22:39Z</time>
    </trkpt>
    <trkpt lat="38.578889016" lon="34.955792008">
      <ele>1559.703</ele>
      <time>2021-10-12T19:22:40Z</time>
    </trkpt>
    <trkpt lat="38.578908965" lon="34.955764012">
      <ele>1559.555</ele>
      <time>2021-10-12T19:22:41Z</time>
    </trkpt>
    <trkpt lat="38.578928998" lon="34.955735011">
      <ele>1559.385</ele>
      <time>2021-10-12T19:22:43Z</time>
    </trkpt>
    <trkpt lat="38.57894903" lon="34.955707015">
      <ele>1559.209</ele>
      <time>2021-10-12T19:22:44Z</time>
    </trkpt>
    <trkpt lat="38.578969985" lon="34.955677008">
      <ele>1559.002</ele>
      <time>2021-10-12T19:22:45Z</time>
    </trkpt>
    <trkpt lat="38.578990018" lon="34.955644989">
      <ele>1558.761</ele>
      <time>2021-10-12T19:22:46Z</time>
    </trkpt>
    <trkpt lat="38.579012984" lon="34.955612971">
      <ele>1558.506</ele>
      <time>2021-10-12T19:22:47Z</time>
    </trkpt>
    <trkpt lat="38.579036035" lon="34.955582963">
      <ele>1558.25</ele>
      <time>2021-10-12T19:22:49Z</time>
    </trkpt>
    <trkpt lat="38.579059001" lon="34.955553962">
      <ele>1557.991</ele>
      <time>2021-10-12T19:22:50Z</time>
    </trkpt>
    <trkpt lat="38.579084985" lon="34.955528984">
      <ele>1557.837</ele>
      <time>2021-10-12T19:22:51Z</time>
    </trkpt>
    <trkpt lat="38.579105018" lon="34.955504006">
      <ele>1557.67</ele>
      <time>2021-10-12T19:22:52Z</time>
    </trkpt>
    <trkpt lat="38.579125972" lon="34.955472993">
      <ele>1557.449</ele>
      <time>2021-10-12T19:22:53Z</time>
    </trkpt>
    <trkpt lat="38.579151034" lon="34.955442986">
      <ele>1557.212</ele>
      <time>2021-10-12T19:22:54Z</time>
    </trkpt>
    <trkpt lat="38.579172995" lon="34.955413984">
      <ele>1556.957</ele>
      <time>2021-10-12T19:22:56Z</time>
    </trkpt>
    <trkpt lat="38.579198979" lon="34.955383977">
      <ele>1556.621</ele>
      <time>2021-10-12T19:22:57Z</time>
    </trkpt>
    <trkpt lat="38.579225969" lon="34.955356987">
      <ele>1556.265</ele>
      <time>2021-10-12T19:22:58Z</time>
    </trkpt>
    <trkpt lat="38.579252036" lon="34.955335027">
      <ele>1555.924</ele>
      <time>2021-10-12T19:22:59Z</time>
    </trkpt>
    <trkpt lat="38.579284977" lon="34.955318011">
      <ele>1555.561</ele>
      <time>2021-10-12T19:23:01Z</time>
    </trkpt>
    <trkpt lat="38.579312973" lon="34.955304014">
      <ele>1555.235</ele>
      <time>2021-10-12T19:23:02Z</time>
    </trkpt>
    <trkpt lat="38.57934298" lon="34.95528901">
      <ele>1554.863</ele>
      <time>2021-10-12T19:23:03Z</time>
    </trkpt>
    <trkpt lat="38.579373993" lon="34.955274006">
      <ele>1554.49</ele>
      <time>2021-10-12T19:23:04Z</time>
    </trkpt>
    <trkpt lat="38.579400983" lon="34.955259003">
      <ele>1554.235</ele>
      <time>2021-10-12T19:23:05Z</time>
    </trkpt>
    <trkpt lat="38.579442976" lon="34.955216004">
      <ele>1553.787</ele>
      <time>2021-10-12T19:23:07Z</time>
    </trkpt>
    <trkpt lat="38.57945798" lon="34.955184991">
      <ele>1553.617</ele>
      <time>2021-10-12T19:23:08Z</time>
    </trkpt>
    <trkpt lat="38.57946502" lon="34.955148026">
      <ele>1553.459</ele>
      <time>2021-10-12T19:23:09Z</time>
    </trkpt>
    <trkpt lat="38.579471977" lon="34.955104021">
      <ele>1553.275</ele>
      <time>2021-10-12T19:23:11Z</time>
    </trkpt>
    <trkpt lat="38.579477007" lon="34.955066973">
      <ele>1553.124</ele>
      <time>2021-10-12T19:23:12Z</time>
    </trkpt>
    <trkpt lat="38.579480024" lon="34.955027997">
      <ele>1552.973</ele>
      <time>2021-10-12T19:23:13Z</time>
    </trkpt>
    <trkpt lat="38.579482036" lon="34.954988016">
      <ele>1552.871</ele>
      <time>2021-10-12T19:23:14Z</time>
    </trkpt>
    <trkpt lat="38.579483042" lon="34.954911992">
      <ele>1552.905</ele>
      <time>2021-10-12T19:23:16Z</time>
    </trkpt>
    <trkpt lat="38.579468038" lon="34.954878967">
      <ele>1552.952</ele>
      <time>2021-10-12T19:23:17Z</time>
    </trkpt>
    <trkpt lat="38.579446999" lon="34.954857007">
      <ele>1552.996</ele>
      <time>2021-10-12T19:23:18Z</time>
    </trkpt>
    <trkpt lat="38.579424033" lon="34.954839991">
      <ele>1553.073</ele>
      <time>2021-10-12T19:23:19Z</time>
    </trkpt>
    <trkpt lat="38.579400983" lon="34.95482197">
      <ele>1553.156</ele>
      <time>2021-10-12T19:23:20Z</time>
    </trkpt>
    <trkpt lat="38.57937701" lon="34.954805961">
      <ele>1553.243</ele>
      <time>2021-10-12T19:23:21Z</time>
    </trkpt>
    <trkpt lat="38.579355972" lon="34.954777965">
      <ele>1553.319</ele>
      <time>2021-10-12T19:23:23Z</time>
    </trkpt>
    <trkpt lat="38.579338035" lon="34.95474603">
      <ele>1553.383</ele>
      <time>2021-10-12T19:23:24Z</time>
    </trkpt>
    <trkpt lat="38.579323031" lon="34.954706971">
      <ele>1553.523</ele>
      <time>2021-10-12T19:23:25Z</time>
    </trkpt>
    <trkpt lat="38.579307022" lon="34.954671012">
      <ele>1553.772</ele>
      <time>2021-10-12T19:23:26Z</time>
    </trkpt>
    <trkpt lat="38.579295035" lon="34.954633964">
      <ele>1554.002</ele>
      <time>2021-10-12T19:23:27Z</time>
    </trkpt>
    <trkpt lat="38.579285983" lon="34.954597">
      <ele>1554.215</ele>
      <time>2021-10-12T19:23:28Z</time>
    </trkpt>
    <trkpt lat="38.579280032" lon="34.954556013">
      <ele>1554.434</ele>
      <time>2021-10-12T19:23:30Z</time>
    </trkpt>
    <trkpt lat="38.579277014" lon="34.954513013">
      <ele>1554.655</ele>
      <time>2021-10-12T19:23:31Z</time>
    </trkpt>
    <trkpt lat="38.579277014" lon="34.954474038">
      <ele>1554.851</ele>
      <time>2021-10-12T19:23:32Z</time>
    </trkpt>
    <trkpt lat="38.579277014" lon="34.954437995">
      <ele>1555.023</ele>
      <time>2021-10-12T19:23:33Z</time>
    </trkpt>
    <trkpt lat="38.579281038" lon="34.954402959">
      <ele>1555.149</ele>
      <time>2021-10-12T19:23:34Z</time>
    </trkpt>
    <trkpt lat="38.579285983" lon="34.954371024">
      <ele>1555.264</ele>
      <time>2021-10-12T19:23:35Z</time>
    </trkpt>
    <trkpt lat="38.57929403" lon="34.954343028">
      <ele>1555.365</ele>
      <time>2021-10-12T19:23:36Z</time>
    </trkpt>
    <trkpt lat="38.579304004" lon="34.954317966">
      <ele>1555.455</ele>
      <time>2021-10-12T19:23:37Z</time>
    </trkpt>
    <trkpt lat="38.579321019" lon="34.954293994">
      <ele>1555.542</ele>
      <time>2021-10-12T19:23:38Z</time>
    </trkpt>
    <trkpt lat="38.579339962" lon="34.954273039">
      <ele>1555.617</ele>
      <time>2021-10-12T19:23:39Z</time>
    </trkpt>
    <trkpt lat="38.579362007" lon="34.954255018">
      <ele>1555.682</ele>
      <time>2021-10-12T19:23:40Z</time>
    </trkpt>
    <trkpt lat="38.579383967" lon="34.954240015">
      <ele>1555.736</ele>
      <time>2021-10-12T19:23:41Z</time>
    </trkpt>
    <trkpt lat="38.579406012" lon="34.954225011">
      <ele>1555.79</ele>
      <time>2021-10-12T19:23:41Z</time>
    </trkpt>
    <trkpt lat="38.57943099" lon="34.954211013">
      <ele>1555.84</ele>
      <time>2021-10-12T19:23:42Z</time>
    </trkpt>
    <trkpt lat="38.579455968" lon="34.954199027">
      <ele>1555.842</ele>
      <time>2021-10-12T19:23:43Z</time>
    </trkpt>
    <trkpt lat="38.579480024" lon="34.954185029">
      <ele>1555.806</ele>
      <time>2021-10-12T19:23:44Z</time>
    </trkpt>
    <trkpt lat="38.579505002" lon="34.95417296">
      <ele>1555.759</ele>
      <time>2021-10-12T19:23:45Z</time>
    </trkpt>
    <trkpt lat="38.579527969" lon="34.954158962">
      <ele>1555.727</ele>
      <time>2021-10-12T19:23:46Z</time>
    </trkpt>
    <trkpt lat="38.579554036" lon="34.954143958">
      <ele>1555.687</ele>
      <time>2021-10-12T19:23:47Z</time>
    </trkpt>
    <trkpt lat="38.579581026" lon="34.954131972">
      <ele>1555.633</ele>
      <time>2021-10-12T19:23:48Z</time>
    </trkpt>
    <trkpt lat="38.57960701" lon="34.954125015">
      <ele>1555.565</ele>
      <time>2021-10-12T19:23:49Z</time>
    </trkpt>
    <trkpt lat="38.579636011" lon="34.954119986">
      <ele>1555.478</ele>
      <time>2021-10-12T19:23:51Z</time>
    </trkpt>
    <trkpt lat="38.579663001" lon="34.954115963">
      <ele>1555.396</ele>
      <time>2021-10-12T19:23:52Z</time>
    </trkpt>
    <trkpt lat="38.579689991" lon="34.954114035">
      <ele>1555.306</ele>
      <time>2021-10-12T19:23:53Z</time>
    </trkpt>
    <trkpt lat="38.57971698" lon="34.954108">
      <ele>1555.23</ele>
      <time>2021-10-12T19:23:54Z</time>
    </trkpt>
    <trkpt lat="38.579745982" lon="34.954104982">
      <ele>1555.203</ele>
      <time>2021-10-12T19:23:55Z</time>
    </trkpt>
    <trkpt lat="38.579774983" lon="34.954100037">
      <ele>1555.194</ele>
      <time>2021-10-12T19:23:56Z</time>
    </trkpt>
    <trkpt lat="38.57980499" lon="34.954098025">
      <ele>1555.173</ele>
      <time>2021-10-12T19:23:57Z</time>
    </trkpt>
    <trkpt lat="38.579833992" lon="34.954098025">
      <ele>1555.148</ele>
      <time>2021-10-12T19:23:58Z</time>
    </trkpt>
    <trkpt lat="38.579862993" lon="34.954098025">
      <ele>1555.122</ele>
      <time>2021-10-12T19:23:59Z</time>
    </trkpt>
    <trkpt lat="38.579893" lon="34.954102971">
      <ele>1555.088</ele>
      <time>2021-10-12T19:24:00Z</time>
    </trkpt>
    <trkpt lat="38.579924013" lon="34.954102971">
      <ele>1555.063</ele>
      <time>2021-10-12T19:24:01Z</time>
    </trkpt>
    <trkpt lat="38.579954021" lon="34.954099031">
      <ele>1555.04</ele>
      <time>2021-10-12T19:24:02Z</time>
    </trkpt>
    <trkpt lat="38.579982016" lon="34.954089979">
      <ele>1555.018</ele>
      <time>2021-10-12T19:24:03Z</time>
    </trkpt>
    <trkpt lat="38.580010012" lon="34.954076987">
      <ele>1554.976</ele>
      <time>2021-10-12T19:24:05Z</time>
    </trkpt>
    <trkpt lat="38.580039013" lon="34.954063995">
      <ele>1554.911</ele>
      <time>2021-10-12T19:24:06Z</time>
    </trkpt>
    <trkpt lat="38.580093998" lon="34.954041028">
      <ele>1554.815</ele>
      <time>2021-10-12T19:24:08Z</time>
    </trkpt>
    <trkpt lat="38.580120988" lon="34.954032982">
      <ele>1554.774</ele>
      <time>2021-10-12T19:24:09Z</time>
    </trkpt>
    <trkpt lat="38.580150995" lon="34.954027031">
      <ele>1554.73</ele>
      <time>2021-10-12T19:24:10Z</time>
    </trkpt>
    <trkpt lat="38.580178991" lon="34.954024013">
      <ele>1554.687</ele>
      <time>2021-10-12T19:24:11Z</time>
    </trkpt>
    <trkpt lat="38.580206987" lon="34.954020996">
      <ele>1554.646</ele>
      <time>2021-10-12T19:24:12Z</time>
    </trkpt>
    <trkpt lat="38.580235988" lon="34.954014039">
      <ele>1554.617</ele>
      <time>2021-10-12T19:24:13Z</time>
    </trkpt>
    <trkpt lat="38.580261972" lon="34.954004986">
      <ele>1554.606</ele>
      <time>2021-10-12T19:24:14Z</time>
    </trkpt>
    <trkpt lat="38.58028804" lon="34.953993">
      <ele>1554.625</ele>
      <time>2021-10-12T19:24:15Z</time>
    </trkpt>
    <trkpt lat="38.580308994" lon="34.953974979">
      <ele>1554.69</ele>
      <time>2021-10-12T19:24:16Z</time>
    </trkpt>
    <trkpt lat="38.580333972" lon="34.953961987">
      <ele>1554.737</ele>
      <time>2021-10-12T19:24:17Z</time>
    </trkpt>
    <trkpt lat="38.580356017" lon="34.953945978">
      <ele>1554.794</ele>
      <time>2021-10-12T19:24:18Z</time>
    </trkpt>
    <trkpt lat="38.580379989" lon="34.953926029">
      <ele>1554.866</ele>
      <time>2021-10-12T19:24:19Z</time>
    </trkpt>
    <trkpt lat="38.580404967" lon="34.953907002">
      <ele>1554.935</ele>
      <time>2021-10-12T19:24:20Z</time>
    </trkpt>
    <trkpt lat="38.580430029" lon="34.95389401">
      <ele>1554.982</ele>
      <time>2021-10-12T19:24:21Z</time>
    </trkpt>
    <trkpt lat="38.580458025" lon="34.953881018">
      <ele>1555.01</ele>
      <time>2021-10-12T19:24:22Z</time>
    </trkpt>
    <trkpt lat="38.580515021" lon="34.953856962">
      <ele>1555.017</ele>
      <time>2021-10-12T19:24:24Z</time>
    </trkpt>
    <trkpt lat="38.580543017" lon="34.953845982">
      <ele>1555.007</ele>
      <time>2021-10-12T19:24:26Z</time>
    </trkpt>
    <trkpt lat="38.580570007" lon="34.953835001">
      <ele>1554.948</ele>
      <time>2021-10-12T19:24:27Z</time>
    </trkpt>
    <trkpt lat="38.580595991" lon="34.953822009">
      <ele>1554.854</ele>
      <time>2021-10-12T19:24:28Z</time>
    </trkpt>
    <trkpt lat="38.580619963" lon="34.953807006">
      <ele>1554.768</ele>
      <time>2021-10-12T19:24:29Z</time>
    </trkpt>
    <trkpt lat="38.580643013" lon="34.953792002">
      <ele>1554.685</ele>
      <time>2021-10-12T19:24:30Z</time>
    </trkpt>
    <trkpt lat="38.580670003" lon="34.953772975">
      <ele>1554.588</ele>
      <time>2021-10-12T19:24:31Z</time>
    </trkpt>
    <trkpt lat="38.580692969" lon="34.953754032">
      <ele>1554.505</ele>
      <time>2021-10-12T19:24:32Z</time>
    </trkpt>
    <trkpt lat="38.580719959" lon="34.953741962">
      <ele>1554.408</ele>
      <time>2021-10-12T19:24:33Z</time>
    </trkpt>
    <trkpt lat="38.580748038" lon="34.953735005">
      <ele>1554.307</ele>
      <time>2021-10-12T19:24:34Z</time>
    </trkpt>
    <trkpt lat="38.580776034" lon="34.953729976">
      <ele>1554.206</ele>
      <time>2021-10-12T19:24:35Z</time>
    </trkpt>
    <trkpt lat="38.580806041" lon="34.953726036">
      <ele>1554.098</ele>
      <time>2021-10-12T19:24:36Z</time>
    </trkpt>
    <trkpt lat="38.580835965" lon="34.953726036">
      <ele>1554.006</ele>
      <time>2021-10-12T19:24:37Z</time>
    </trkpt>
    <trkpt lat="38.580867983" lon="34.953726958">
      <ele>1554.073</ele>
      <time>2021-10-12T19:24:38Z</time>
    </trkpt>
    <trkpt lat="38.580896985" lon="34.953724025">
      <ele>1554.136</ele>
      <time>2021-10-12T19:24:39Z</time>
    </trkpt>
    <trkpt lat="38.58092498" lon="34.953718996">
      <ele>1554.202</ele>
      <time>2021-10-12T19:24:40Z</time>
    </trkpt>
    <trkpt lat="38.580955993" lon="34.953713967">
      <ele>1554.278</ele>
      <time>2021-10-12T19:24:42Z</time>
    </trkpt>
    <trkpt lat="38.580988012" lon="34.953706004">
      <ele>1554.367</ele>
      <time>2021-10-12T19:24:43Z</time>
    </trkpt>
    <trkpt lat="38.581017014" lon="34.953696029">
      <ele>1554.459</ele>
      <time>2021-10-12T19:24:44Z</time>
    </trkpt>
    <trkpt lat="38.581047021" lon="34.953685971">
      <ele>1554.562</ele>
      <time>2021-10-12T19:24:45Z</time>
    </trkpt>
    <trkpt lat="38.581074011" lon="34.953671973">
      <ele>1554.677</ele>
      <time>2021-10-12T19:24:46Z</time>
    </trkpt>
    <trkpt lat="38.581101" lon="34.95365697">
      <ele>1554.805</ele>
      <time>2021-10-12T19:24:47Z</time>
    </trkpt>
    <trkpt lat="38.581130002" lon="34.953640038">
      <ele>1554.889</ele>
      <time>2021-10-12T19:24:48Z</time>
    </trkpt>
    <trkpt lat="38.58115498" lon="34.953622017">
      <ele>1554.955</ele>
      <time>2021-10-12T19:24:49Z</time>
    </trkpt>
    <trkpt lat="38.581180042" lon="34.953601984">
      <ele>1555.008</ele>
      <time>2021-10-12T19:24:51Z</time>
    </trkpt>
    <trkpt lat="38.581207031" lon="34.953584969">
      <ele>1555.032</ele>
      <time>2021-10-12T19:24:52Z</time>
    </trkpt>
    <trkpt lat="38.581229998" lon="34.953568038">
      <ele>1555.066</ele>
      <time>2021-10-12T19:24:53Z</time>
    </trkpt>
    <trkpt lat="38.581254976" lon="34.953552028">
      <ele>1555.11</ele>
      <time>2021-10-12T19:24:54Z</time>
    </trkpt>
    <trkpt lat="38.581279032" lon="34.95353803">
      <ele>1555.159</ele>
      <time>2021-10-12T19:24:55Z</time>
    </trkpt>
    <trkpt lat="38.581301998" lon="34.953526966">
      <ele>1555.208</ele>
      <time>2021-10-12T19:24:56Z</time>
    </trkpt>
    <trkpt lat="38.581327982" lon="34.953511963">
      <ele>1555.279</ele>
      <time>2021-10-12T19:24:57Z</time>
    </trkpt>
    <trkpt lat="38.581353966" lon="34.953496037">
      <ele>1555.362</ele>
      <time>2021-10-12T19:24:58Z</time>
    </trkpt>
    <trkpt lat="38.581380034" lon="34.953479022">
      <ele>1555.46</ele>
      <time>2021-10-12T19:24:59Z</time>
    </trkpt>
    <trkpt lat="38.581407024" lon="34.953463012">
      <ele>1555.533</ele>
      <time>2021-10-12T19:25:00Z</time>
    </trkpt>
    <trkpt lat="38.581435019" lon="34.953444991">
      <ele>1555.598</ele>
      <time>2021-10-12T19:25:01Z</time>
    </trkpt>
    <trkpt lat="38.581461003" lon="34.953425964">
      <ele>1555.667</ele>
      <time>2021-10-12T19:25:02Z</time>
    </trkpt>
    <trkpt lat="38.581514983" lon="34.953398975">
      <ele>1555.764</ele>
      <time>2021-10-12T19:25:04Z</time>
    </trkpt>
    <trkpt lat="38.581543984" lon="34.953390006">
      <ele>1555.796</ele>
      <time>2021-10-12T19:25:05Z</time>
    </trkpt>
    <trkpt lat="38.581570974" lon="34.953380032">
      <ele>1555.832</ele>
      <time>2021-10-12T19:25:06Z</time>
    </trkpt>
    <trkpt lat="38.581598969" lon="34.953369973">
      <ele>1555.868</ele>
      <time>2021-10-12T19:25:08Z</time>
    </trkpt>
    <trkpt lat="38.581625959" lon="34.953358993">
      <ele>1555.908</ele>
      <time>2021-10-12T19:25:09Z</time>
    </trkpt>
    <trkpt lat="38.581654038" lon="34.953341978">
      <ele>1555.969</ele>
      <time>2021-10-12T19:25:10Z</time>
    </trkpt>
    <trkpt lat="38.581677005" lon="34.95332404">
      <ele>1555.997</ele>
      <time>2021-10-12T19:25:11Z</time>
    </trkpt>
    <trkpt lat="38.581700977" lon="34.953309037">
      <ele>1555.975</ele>
      <time>2021-10-12T19:25:12Z</time>
    </trkpt>
    <trkpt lat="38.581720004" lon="34.953294033">
      <ele>1555.977</ele>
      <time>2021-10-12T19:25:13Z</time>
    </trkpt>
    <trkpt lat="38.581743976" lon="34.953275006">
      <ele>1555.99</ele>
      <time>2021-10-12T19:25:14Z</time>
    </trkpt>
    <trkpt lat="38.581768032" lon="34.953253968">
      <ele>1556.025</ele>
      <time>2021-10-12T19:25:15Z</time>
    </trkpt>
    <trkpt lat="38.581795022" lon="34.953235025">
      <ele>1556.055</ele>
      <time>2021-10-12T19:25:16Z</time>
    </trkpt>
    <trkpt lat="38.581824023" lon="34.953220021">
      <ele>1556.073</ele>
      <time>2021-10-12T19:25:17Z</time>
    </trkpt>
    <trkpt lat="38.581853025" lon="34.953205017">
      <ele>1556.101</ele>
      <time>2021-10-12T19:25:18Z</time>
    </trkpt>
    <trkpt lat="38.581884038" lon="34.953196971">
      <ele>1556.093</ele>
      <time>2021-10-12T19:25:19Z</time>
    </trkpt>
    <trkpt lat="38.581915973" lon="34.953190014">
      <ele>1556.082</ele>
      <time>2021-10-12T19:25:20Z</time>
    </trkpt>
    <trkpt lat="38.581944974" lon="34.953182973">
      <ele>1556.079</ele>
      <time>2021-10-12T19:25:22Z</time>
    </trkpt>
    <trkpt lat="38.581976993" lon="34.953171993">
      <ele>1555.927</ele>
      <time>2021-10-12T19:25:23Z</time>
    </trkpt>
    <trkpt lat="38.582007" lon="34.953162018">
      <ele>1555.783</ele>
      <time>2021-10-12T19:25:24Z</time>
    </trkpt>
    <trkpt lat="38.582039019" lon="34.953153972">
      <ele>1555.61</ele>
      <time>2021-10-12T19:25:25Z</time>
    </trkpt>
    <trkpt lat="38.582070032" lon="34.953146009">
      <ele>1555.445</ele>
      <time>2021-10-12T19:25:26Z</time>
    </trkpt>
    <trkpt lat="38.582101967" lon="34.953138968">
      <ele>1555.265</ele>
      <time>2021-10-12T19:25:28Z</time>
    </trkpt>
    <trkpt lat="38.582164999" lon="34.953123964">
      <ele>1554.919</ele>
      <time>2021-10-12T19:25:30Z</time>
    </trkpt>
    <trkpt lat="38.582195006" lon="34.953111978">
      <ele>1554.79</ele>
      <time>2021-10-12T19:25:31Z</time>
    </trkpt>
    <trkpt lat="38.582225014" lon="34.953098986">
      <ele>1554.66</ele>
      <time>2021-10-12T19:25:32Z</time>
    </trkpt>
    <trkpt lat="38.582256027" lon="34.953084989">
      <ele>1554.449</ele>
      <time>2021-10-12T19:25:33Z</time>
    </trkpt>
    <trkpt lat="38.58228201" lon="34.953069985">
      <ele>1554.273</ele>
      <time>2021-10-12T19:25:35Z</time>
    </trkpt>
    <trkpt lat="38.582307994" lon="34.953051964">
      <ele>1554.1</ele>
      <time>2021-10-12T19:25:36Z</time>
    </trkpt>
    <trkpt lat="38.582330961" lon="34.953033021">
      <ele>1553.988</ele>
      <time>2021-10-12T19:25:37Z</time>
    </trkpt>
    <trkpt lat="38.582353005" lon="34.953007037">
      <ele>1553.937</ele>
      <time>2021-10-12T19:25:38Z</time>
    </trkpt>
    <trkpt lat="38.58237396" lon="34.952979963">
      <ele>1553.905</ele>
      <time>2021-10-12T19:25:39Z</time>
    </trkpt>
    <trkpt lat="38.582390975" lon="34.952954985">
      <ele>1553.902</ele>
      <time>2021-10-12T19:25:40Z</time>
    </trkpt>
    <trkpt lat="38.582410002" lon="34.952925984">
      <ele>1553.905</ele>
      <time>2021-10-12T19:25:41Z</time>
    </trkpt>
    <trkpt lat="38.582426012" lon="34.9529">
      <ele>1553.919</ele>
      <time>2021-10-12T19:25:42Z</time>
    </trkpt>
    <trkpt lat="38.582440009" lon="34.952874016">
      <ele>1553.955</ele>
      <time>2021-10-12T19:25:43Z</time>
    </trkpt>
    <trkpt lat="38.582457025" lon="34.952847026">
      <ele>1553.966</ele>
      <time>2021-10-12T19:25:44Z</time>
    </trkpt>
    <trkpt lat="38.58247404" lon="34.95282297">
      <ele>1553.955</ele>
      <time>2021-10-12T19:25:45Z</time>
    </trkpt>
    <trkpt lat="38.582491977" lon="34.952803021">
      <ele>1553.905</ele>
      <time>2021-10-12T19:25:46Z</time>
    </trkpt>
    <trkpt lat="38.582511004" lon="34.952777959">
      <ele>1553.959</ele>
      <time>2021-10-12T19:25:47Z</time>
    </trkpt>
    <trkpt lat="38.582527013" lon="34.952751976">
      <ele>1554.089</ele>
      <time>2021-10-12T19:25:48Z</time>
    </trkpt>
    <trkpt lat="38.582542017" lon="34.95272398">
      <ele>1554.236</ele>
      <time>2021-10-12T19:25:49Z</time>
    </trkpt>
    <trkpt lat="38.582558027" lon="34.95269699">
      <ele>1554.373</ele>
      <time>2021-10-12T19:25:50Z</time>
    </trkpt>
    <trkpt lat="38.582575964" lon="34.952667989">
      <ele>1554.517</ele>
      <time>2021-10-12T19:25:51Z</time>
    </trkpt>
    <trkpt lat="38.582595997" lon="34.952640999">
      <ele>1554.639</ele>
      <time>2021-10-12T19:25:52Z</time>
    </trkpt>
    <trkpt lat="38.582613012" lon="34.952620966">
      <ele>1554.722</ele>
      <time>2021-10-12T19:25:53Z</time>
    </trkpt>
    <trkpt lat="38.582632039" lon="34.952604035">
      <ele>1554.776</ele>
      <time>2021-10-12T19:25:53Z</time>
    </trkpt>
    <trkpt lat="38.582650982" lon="34.952585008">
      <ele>1554.844</ele>
      <time>2021-10-12T19:25:54Z</time>
    </trkpt>
    <trkpt lat="38.582673026" lon="34.952561036">
      <ele>1554.938</ele>
      <time>2021-10-12T19:25:55Z</time>
    </trkpt>
    <trkpt lat="38.582696998" lon="34.95253698">
      <ele>1555.025</ele>
      <time>2021-10-12T19:25:56Z</time>
    </trkpt>
    <trkpt lat="38.582721977" lon="34.952514013">
      <ele>1555.1</ele>
      <time>2021-10-12T19:25:58Z</time>
    </trkpt>
    <trkpt lat="38.582745027" lon="34.952490963">
      <ele>1555.122</ele>
      <time>2021-10-12T19:25:59Z</time>
    </trkpt>
    <trkpt lat="38.582768999" lon="34.952467997">
      <ele>1555.035</ele>
      <time>2021-10-12T19:26:00Z</time>
    </trkpt>
    <trkpt lat="38.582794983" lon="34.952443019">
      <ele>1554.925</ele>
      <time>2021-10-12T19:26:01Z</time>
    </trkpt>
    <trkpt lat="38.582818033" lon="34.952423992">
      <ele>1554.815</ele>
      <time>2021-10-12T19:26:02Z</time>
    </trkpt>
    <trkpt lat="38.582843011" lon="34.952400019">
      <ele>1554.681</ele>
      <time>2021-10-12T19:26:03Z</time>
    </trkpt>
    <trkpt lat="38.582865978" lon="34.952375963">
      <ele>1554.541</ele>
      <time>2021-10-12T19:26:04Z</time>
    </trkpt>
    <trkpt lat="38.582891962" lon="34.952352997">
      <ele>1554.371</ele>
      <time>2021-10-12T19:26:05Z</time>
    </trkpt>
    <trkpt lat="38.582919035" lon="34.952331036">
      <ele>1554.182</ele>
      <time>2021-10-12T19:26:07Z</time>
    </trkpt>
    <trkpt lat="38.582947031" lon="34.952313015">
      <ele>1553.981</ele>
      <time>2021-10-12T19:26:08Z</time>
    </trkpt>
    <trkpt lat="38.582977038" lon="34.952301029">
      <ele>1553.769</ele>
      <time>2021-10-12T19:26:09Z</time>
    </trkpt>
    <trkpt lat="38.583007967" lon="34.952293988">
      <ele>1553.557</ele>
      <time>2021-10-12T19:26:10Z</time>
    </trkpt>
    <trkpt lat="38.583036968" lon="34.952286026">
      <ele>1553.348</ele>
      <time>2021-10-12T19:26:11Z</time>
    </trkpt>
    <trkpt lat="38.58306597" lon="34.952283008">
      <ele>1553.098</ele>
      <time>2021-10-12T19:26:12Z</time>
    </trkpt>
    <trkpt lat="38.583094971" lon="34.952283008">
      <ele>1552.762</ele>
      <time>2021-10-12T19:26:13Z</time>
    </trkpt>
    <trkpt lat="38.583122967" lon="34.95228502">
      <ele>1552.443</ele>
      <time>2021-10-12T19:26:14Z</time>
    </trkpt>
    <trkpt lat="38.583149035" lon="34.952294994">
      <ele>1552.164</ele>
      <time>2021-10-12T19:26:15Z</time>
    </trkpt>
    <trkpt lat="38.583172001" lon="34.952304969">
      <ele>1551.915</ele>
      <time>2021-10-12T19:26:16Z</time>
    </trkpt>
    <trkpt lat="38.583196979" lon="34.952315027">
      <ele>1551.637</ele>
      <time>2021-10-12T19:26:17Z</time>
    </trkpt>
    <trkpt lat="38.583223969" lon="34.952321984">
      <ele>1551.323</ele>
      <time>2021-10-12T19:26:18Z</time>
    </trkpt>
    <trkpt lat="38.583254982" lon="34.952327013">
      <ele>1550.953</ele>
      <time>2021-10-12T19:26:19Z</time>
    </trkpt>
    <trkpt lat="38.583285995" lon="34.95232299">
      <ele>1550.573</ele>
      <time>2021-10-12T19:26:21Z</time>
    </trkpt>
    <trkpt lat="38.583318014" lon="34.952317039">
      <ele>1550.184</ele>
      <time>2021-10-12T19:26:22Z</time>
    </trkpt>
    <trkpt lat="38.583351038" lon="34.952304969">
      <ele>1549.835</ele>
      <time>2021-10-12T19:26:23Z</time>
    </trkpt>
    <trkpt lat="38.583381968" lon="34.952288959">
      <ele>1549.566</ele>
      <time>2021-10-12T19:26:24Z</time>
    </trkpt>
    <trkpt lat="38.583411975" lon="34.952272028">
      <ele>1549.332</ele>
      <time>2021-10-12T19:26:26Z</time>
    </trkpt>
    <trkpt lat="38.583438965" lon="34.952253001">
      <ele>1549.155</ele>
      <time>2021-10-12T19:26:27Z</time>
    </trkpt>
    <trkpt lat="38.58346696" lon="34.952233974">
      <ele>1548.997</ele>
      <time>2021-10-12T19:26:28Z</time>
    </trkpt>
    <trkpt lat="38.583495039" lon="34.952211007">
      <ele>1548.876</ele>
      <time>2021-10-12T19:26:29Z</time>
    </trkpt>
    <trkpt lat="38.583524041" lon="34.952190975">
      <ele>1548.739</ele>
      <time>2021-10-12T19:26:30Z</time>
    </trkpt>
    <trkpt lat="38.583555976" lon="34.952173037">
      <ele>1548.574</ele>
      <time>2021-10-12T19:26:32Z</time>
    </trkpt>
    <trkpt lat="38.583583971" lon="34.952149987">
      <ele>1548.455</ele>
      <time>2021-10-12T19:26:33Z</time>
    </trkpt>
    <trkpt lat="38.583610961" lon="34.952127021">
      <ele>1548.344</ele>
      <time>2021-10-12T19:26:34Z</time>
    </trkpt>
    <trkpt lat="38.583639963" lon="34.952106988">
      <ele>1547.999</ele>
      <time>2021-10-12T19:26:35Z</time>
    </trkpt>
    <trkpt lat="38.583698971" lon="34.952060971">
      <ele>1547.315</ele>
      <time>2021-10-12T19:26:38Z</time>
    </trkpt>
    <trkpt lat="38.583726967" lon="34.952034988">
      <ele>1547.006</ele>
      <time>2021-10-12T19:26:39Z</time>
    </trkpt>
    <trkpt lat="38.583755968" lon="34.952009004">
      <ele>1546.682</ele>
      <time>2021-10-12T19:26:40Z</time>
    </trkpt>
    <trkpt lat="38.583779018" lon="34.951986037">
      <ele>1546.432</ele>
      <time>2021-10-12T19:26:42Z</time>
    </trkpt>
    <trkpt lat="38.583805002" lon="34.951961981">
      <ele>1546.145</ele>
      <time>2021-10-12T19:26:43Z</time>
    </trkpt>
    <trkpt lat="38.583830986" lon="34.951933986">
      <ele>1545.893</ele>
      <time>2021-10-12T19:26:44Z</time>
    </trkpt>
    <trkpt lat="38.583855964" lon="34.951909008">
      <ele>1545.699</ele>
      <time>2021-10-12T19:26:45Z</time>
    </trkpt>
    <trkpt lat="38.583882032" lon="34.951883024">
      <ele>1545.53</ele>
      <time>2021-10-12T19:26:46Z</time>
    </trkpt>
    <trkpt lat="38.583903993" lon="34.951856034">
      <ele>1545.511</ele>
      <time>2021-10-12T19:26:47Z</time>
    </trkpt>
    <trkpt lat="38.583927965" lon="34.951831978">
      <ele>1545.471</ele>
      <time>2021-10-12T19:26:49Z</time>
    </trkpt>
    <trkpt lat="38.583953027" lon="34.951807">
      <ele>1545.414</ele>
      <time>2021-10-12T19:26:50Z</time>
    </trkpt>
    <trkpt lat="38.583980016" lon="34.951781016">
      <ele>1545.328</ele>
      <time>2021-10-12T19:26:51Z</time>
    </trkpt>
    <trkpt lat="38.584007006" lon="34.951757966">
      <ele>1545.207</ele>
      <time>2021-10-12T19:26:52Z</time>
    </trkpt>
    <trkpt lat="38.584036008" lon="34.951737011">
      <ele>1545.039</ele>
      <time>2021-10-12T19:26:53Z</time>
    </trkpt>
    <trkpt lat="38.584066015" lon="34.951713039">
      <ele>1544.86</ele>
      <time>2021-10-12T19:26:55Z</time>
    </trkpt>
    <trkpt lat="38.584096022" lon="34.951692">
      <ele>1544.649</ele>
      <time>2021-10-12T19:26:56Z</time>
    </trkpt>
    <trkpt lat="38.584126029" lon="34.951678002">
      <ele>1544.392</ele>
      <time>2021-10-12T19:26:57Z</time>
    </trkpt>
    <trkpt lat="38.584157964" lon="34.951671967">
      <ele>1544.074</ele>
      <time>2021-10-12T19:26:58Z</time>
    </trkpt>
    <trkpt lat="38.584190989" lon="34.951676996">
      <ele>1543.788</ele>
      <time>2021-10-12T19:27:00Z</time>
    </trkpt>
    <trkpt lat="38.584226025" lon="34.951682026">
      <ele>1543.517</ele>
      <time>2021-10-12T19:27:01Z</time>
    </trkpt>
    <trkpt lat="38.584261984" lon="34.951687977">
      <ele>1543.237</ele>
      <time>2021-10-12T19:27:02Z</time>
    </trkpt>
    <trkpt lat="38.584300037" lon="34.951701974">
      <ele>1542.913</ele>
      <time>2021-10-12T19:27:04Z</time>
    </trkpt>
    <trkpt lat="38.584332978" lon="34.951715972">
      <ele>1542.625</ele>
      <time>2021-10-12T19:27:05Z</time>
    </trkpt>
    <trkpt lat="38.584366003" lon="34.951728964">
      <ele>1542.341</ele>
      <time>2021-10-12T19:27:06Z</time>
    </trkpt>
    <trkpt lat="38.584397016" lon="34.95174204">
      <ele>1542.07</ele>
      <time>2021-10-12T19:27:08Z</time>
    </trkpt>
    <trkpt lat="38.584463987" lon="34.951761989">
      <ele>1541.516</ele>
      <time>2021-10-12T19:27:10Z</time>
    </trkpt>
    <trkpt lat="38.584496006" lon="34.951771963">
      <ele>1541.25</ele>
      <time>2021-10-12T19:27:11Z</time>
    </trkpt>
    <trkpt lat="38.584529031" lon="34.951782022">
      <ele>1540.976</ele>
      <time>2021-10-12T19:27:13Z</time>
    </trkpt>
    <trkpt lat="38.584562978" lon="34.951789984">
      <ele>1540.703</ele>
      <time>2021-10-12T19:27:14Z</time>
    </trkpt>
    <trkpt lat="38.584593991" lon="34.951799037">
      <ele>1540.447</ele>
      <time>2021-10-12T19:27:15Z</time>
    </trkpt>
    <trkpt lat="38.584628021" lon="34.951812029">
      <ele>1540.155</ele>
      <time>2021-10-12T19:27:16Z</time>
    </trkpt>
    <trkpt lat="38.584656017" lon="34.951827032">
      <ele>1539.899</ele>
      <time>2021-10-12T19:27:17Z</time>
    </trkpt>
    <trkpt lat="38.584686024" lon="34.951839019">
      <ele>1539.64</ele>
      <time>2021-10-12T19:27:19Z</time>
    </trkpt>
    <trkpt lat="38.584717959" lon="34.951847987">
      <ele>1539.378</ele>
      <time>2021-10-12T19:27:20Z</time>
    </trkpt>
    <trkpt lat="38.584747966" lon="34.951856034">
      <ele>1539.318</ele>
      <time>2021-10-12T19:27:21Z</time>
    </trkpt>
    <trkpt lat="38.584777974" lon="34.951859973">
      <ele>1539.304</ele>
      <time>2021-10-12T19:27:22Z</time>
    </trkpt>
    <trkpt lat="38.584805969" lon="34.951860979">
      <ele>1539.3</ele>
      <time>2021-10-12T19:27:23Z</time>
    </trkpt>
    <trkpt lat="38.584833965" lon="34.951860979">
      <ele>1539.3</ele>
      <time>2021-10-12T19:27:24Z</time>
    </trkpt>
    <trkpt lat="38.584864978" lon="34.951861985">
      <ele>1539.297</ele>
      <time>2021-10-12T19:27:25Z</time>
    </trkpt>
    <trkpt lat="38.584893979" lon="34.951859973">
      <ele>1539.304</ele>
      <time>2021-10-12T19:27:26Z</time>
    </trkpt>
    <trkpt lat="38.584923986" lon="34.951858968">
      <ele>1539.308</ele>
      <time>2021-10-12T19:27:27Z</time>
    </trkpt>
    <trkpt lat="38.584956005" lon="34.951857962">
      <ele>1539.311</ele>
      <time>2021-10-12T19:27:29Z</time>
    </trkpt>
    <trkpt lat="38.584984001" lon="34.951859973">
      <ele>1539.304</ele>
      <time>2021-10-12T19:27:30Z</time>
    </trkpt>
    <trkpt lat="38.585017025" lon="34.951860979">
      <ele>1539.239</ele>
      <time>2021-10-12T19:27:31Z</time>
    </trkpt>
    <trkpt lat="38.585048961" lon="34.951866008">
      <ele>1539.106</ele>
      <time>2021-10-12T19:27:32Z</time>
    </trkpt>
    <trkpt lat="38.585077962" lon="34.951866008">
      <ele>1539.002</ele>
      <time>2021-10-12T19:27:33Z</time>
    </trkpt>
    <trkpt lat="38.585110987" lon="34.951871959">
      <ele>1538.861</ele>
      <time>2021-10-12T19:27:34Z</time>
    </trkpt>
    <trkpt lat="38.585143005" lon="34.951881012">
      <ele>1538.714</ele>
      <time>2021-10-12T19:27:36Z</time>
    </trkpt>
    <trkpt lat="38.585175024" lon="34.951886963">
      <ele>1538.577</ele>
      <time>2021-10-12T19:27:37Z</time>
    </trkpt>
    <trkpt lat="38.585206959" lon="34.951894004">
      <ele>1538.437</ele>
      <time>2021-10-12T19:27:38Z</time>
    </trkpt>
    <trkpt lat="38.585235961" lon="34.951898027">
      <ele>1538.318</ele>
      <time>2021-10-12T19:27:39Z</time>
    </trkpt>
    <trkpt lat="38.585264962" lon="34.951898027">
      <ele>1538.213</ele>
      <time>2021-10-12T19:27:40Z</time>
    </trkpt>
    <trkpt lat="38.585293964" lon="34.951892998">
      <ele>1538.233</ele>
      <time>2021-10-12T19:27:41Z</time>
    </trkpt>
    <trkpt lat="38.585321037" lon="34.951881012">
      <ele>1538.349</ele>
      <time>2021-10-12T19:27:42Z</time>
    </trkpt>
    <trkpt lat="38.585347021" lon="34.95186802">
      <ele>1538.456</ele>
      <time>2021-10-12T19:27:43Z</time>
    </trkpt>
    <trkpt lat="38.585373005" lon="34.951855028">
      <ele>1538.554</ele>
      <time>2021-10-12T19:27:44Z</time>
    </trkpt>
    <trkpt lat="38.585397983" lon="34.95184497">
      <ele>1538.636</ele>
      <time>2021-10-12T19:27:45Z</time>
    </trkpt>
    <trkpt lat="38.585422961" lon="34.951830972">
      <ele>1538.718</ele>
      <time>2021-10-12T19:27:46Z</time>
    </trkpt>
    <trkpt lat="38.585445005" lon="34.95181798">
      <ele>1538.783</ele>
      <time>2021-10-12T19:27:47Z</time>
    </trkpt>
    <trkpt lat="38.585467972" lon="34.951801971">
      <ele>1538.846</ele>
      <time>2021-10-12T19:27:48Z</time>
    </trkpt>
    <trkpt lat="38.585491022" lon="34.951785039">
      <ele>1538.901</ele>
      <time>2021-10-12T19:27:49Z</time>
    </trkpt>
    <trkpt lat="38.585513989" lon="34.951771041">
      <ele>1538.944</ele>
      <time>2021-10-12T19:27:50Z</time>
    </trkpt>
    <trkpt lat="38.585537961" lon="34.951755032">
      <ele>1538.98</ele>
      <time>2021-10-12T19:27:51Z</time>
    </trkpt>
    <trkpt lat="38.585561011" lon="34.951741034">
      <ele>1539.039</ele>
      <time>2021-10-12T19:27:52Z</time>
    </trkpt>
    <trkpt lat="38.585585989" lon="34.951731982">
      <ele>1539.219</ele>
      <time>2021-10-12T19:27:53Z</time>
    </trkpt>
    <trkpt lat="38.585609961" lon="34.951722007">
      <ele>1539.392</ele>
      <time>2021-10-12T19:27:54Z</time>
    </trkpt>
    <trkpt lat="38.585633012" lon="34.951713039">
      <ele>1539.558</ele>
      <time>2021-10-12T19:27:55Z</time>
    </trkpt>
    <trkpt lat="38.585656984" lon="34.951700969">
      <ele>1539.73</ele>
      <time>2021-10-12T19:27:56Z</time>
    </trkpt>
    <trkpt lat="38.58568104" lon="34.951693006">
      <ele>1539.903</ele>
      <time>2021-10-12T19:27:57Z</time>
    </trkpt>
    <trkpt lat="38.585706018" lon="34.951684959">
      <ele>1540.083</ele>
      <time>2021-10-12T19:27:58Z</time>
    </trkpt>
    <trkpt lat="38.58575304" lon="34.951673979">
      <ele>1540.422</ele>
      <time>2021-10-12T19:28:00Z</time>
    </trkpt>
    <trkpt lat="38.585777013" lon="34.951673979">
      <ele>1540.594</ele>
      <time>2021-10-12T19:28:00Z</time>
    </trkpt>
    <trkpt lat="38.585800985" lon="34.951680014">
      <ele>1540.767</ele>
      <time>2021-10-12T19:28:01Z</time>
    </trkpt>
    <trkpt lat="38.585823029" lon="34.951686971">
      <ele>1540.926</ele>
      <time>2021-10-12T19:28:02Z</time>
    </trkpt>
    <trkpt lat="38.585847002" lon="34.951696023">
      <ele>1541.01</ele>
      <time>2021-10-12T19:28:03Z</time>
    </trkpt>
    <trkpt lat="38.585866028" lon="34.951705998">
      <ele>1541.033</ele>
      <time>2021-10-12T19:28:04Z</time>
    </trkpt>
    <trkpt lat="38.585885977" lon="34.951714966">
      <ele>1541.066</ele>
      <time>2021-10-12T19:28:05Z</time>
    </trkpt>
    <trkpt lat="38.585908022" lon="34.951724019">
      <ele>1541.111</ele>
      <time>2021-10-12T19:28:05Z</time>
    </trkpt>
    <trkpt lat="38.585933" lon="34.951731982">
      <ele>1541.169</ele>
      <time>2021-10-12T19:28:06Z</time>
    </trkpt>
    <trkpt lat="38.585954038" lon="34.951743968">
      <ele>1541.242</ele>
      <time>2021-10-12T19:28:07Z</time>
    </trkpt>
    <trkpt lat="38.585975999" lon="34.951751009">
      <ele>1541.312</ele>
      <time>2021-10-12T19:28:08Z</time>
    </trkpt>
    <trkpt lat="38.585999971" lon="34.951756038">
      <ele>1541.386</ele>
      <time>2021-10-12T19:28:09Z</time>
    </trkpt>
    <trkpt lat="38.586023021" lon="34.951760983">
      <ele>1541.464</ele>
      <time>2021-10-12T19:28:10Z</time>
    </trkpt>
    <trkpt lat="38.586045988" lon="34.951768024">
      <ele>1541.559</ele>
      <time>2021-10-12T19:28:11Z</time>
    </trkpt>
    <trkpt lat="38.586066021" lon="34.951771963">
      <ele>1541.635</ele>
      <time>2021-10-12T19:28:11Z</time>
    </trkpt>
    <trkpt lat="38.586087981" lon="34.951776993">
      <ele>1541.728</ele>
      <time>2021-10-12T19:28:12Z</time>
    </trkpt>
    <trkpt lat="38.586113965" lon="34.951785961">
      <ele>1541.874</ele>
      <time>2021-10-12T19:28:13Z</time>
    </trkpt>
    <trkpt lat="38.58613601" lon="34.951791996">
      <ele>1542.032</ele>
      <time>2021-10-12T19:28:14Z</time>
    </trkpt>
    <trkpt lat="38.586159982" lon="34.951798031">
      <ele>1542.205</ele>
      <time>2021-10-12T19:28:15Z</time>
    </trkpt>
    <trkpt lat="38.586184038" lon="34.951805994">
      <ele>1542.397</ele>
      <time>2021-10-12T19:28:16Z</time>
    </trkpt>
    <trkpt lat="38.58620801" lon="34.951812029">
      <ele>1542.578</ele>
      <time>2021-10-12T19:28:17Z</time>
    </trkpt>
    <trkpt lat="38.586232988" lon="34.951815968">
      <ele>1542.75</ele>
      <time>2021-10-12T19:28:18Z</time>
    </trkpt>
    <trkpt lat="38.586258972" lon="34.951814963">
      <ele>1542.884</ele>
      <time>2021-10-12T19:28:19Z</time>
    </trkpt>
    <trkpt lat="38.586280011" lon="34.951811023">
      <ele>1542.963</ele>
      <time>2021-10-12T19:28:20Z</time>
    </trkpt>
    <trkpt lat="38.586304989" lon="34.951805994">
      <ele>1543.051</ele>
      <time>2021-10-12T19:28:20Z</time>
    </trkpt>
    <trkpt lat="38.586329967" lon="34.951798031">
      <ele>1543.106</ele>
      <time>2021-10-12T19:28:21Z</time>
    </trkpt>
    <trkpt lat="38.586353017" lon="34.951791996">
      <ele>1543.166</ele>
      <time>2021-10-12T19:28:22Z</time>
    </trkpt>
    <trkpt lat="38.586381013" lon="34.951784033">
      <ele>1543.227</ele>
      <time>2021-10-12T19:28:23Z</time>
    </trkpt>
    <trkpt lat="38.586405991" lon="34.951773975">
      <ele>1543.159</ele>
      <time>2021-10-12T19:28:24Z</time>
    </trkpt>
    <trkpt lat="38.586430969" lon="34.951762995">
      <ele>1543.04</ele>
      <time>2021-10-12T19:28:25Z</time>
    </trkpt>
    <trkpt lat="38.586457958" lon="34.951757966">
      <ele>1542.986</ele>
      <time>2021-10-12T19:28:26Z</time>
    </trkpt>
    <trkpt lat="38.586485032" lon="34.951754026">
      <ele>1542.943</ele>
      <time>2021-10-12T19:28:27Z</time>
    </trkpt>
    <trkpt lat="38.586513028" lon="34.951750003">
      <ele>1542.9</ele>
      <time>2021-10-12T19:28:28Z</time>
    </trkpt>
    <trkpt lat="38.586540017" lon="34.951750003">
      <ele>1542.9</ele>
      <time>2021-10-12T19:28:29Z</time>
    </trkpt>
    <trkpt lat="38.586566001" lon="34.951751009">
      <ele>1542.911</ele>
      <time>2021-10-12T19:28:30Z</time>
    </trkpt>
    <trkpt lat="38.586592991" lon="34.951752014">
      <ele>1542.922</ele>
      <time>2021-10-12T19:28:31Z</time>
    </trkpt>
    <trkpt lat="38.586618975" lon="34.951756038">
      <ele>1542.965</ele>
      <time>2021-10-12T19:28:32Z</time>
    </trkpt>
    <trkpt lat="38.586644959" lon="34.951757966">
      <ele>1542.986</ele>
      <time>2021-10-12T19:28:33Z</time>
    </trkpt>
    <trkpt lat="38.586672032" lon="34.951761989">
      <ele>1543.01</ele>
      <time>2021-10-12T19:28:34Z</time>
    </trkpt>
    <trkpt lat="38.586699022" lon="34.951765006">
      <ele>1542.946</ele>
      <time>2021-10-12T19:28:35Z</time>
    </trkpt>
    <trkpt lat="38.586726012" lon="34.951768024">
      <ele>1542.881</ele>
      <time>2021-10-12T19:28:36Z</time>
    </trkpt>
    <trkpt lat="38.586754007" lon="34.951770036">
      <ele>1542.802</ele>
      <time>2021-10-12T19:28:37Z</time>
    </trkpt>
    <trkpt lat="38.586779991" lon="34.951770036">
      <ele>1542.708</ele>
      <time>2021-10-12T19:28:38Z</time>
    </trkpt>
    <trkpt lat="38.586808993" lon="34.951771041">
      <ele>1542.615</ele>
      <time>2021-10-12T19:28:39Z</time>
    </trkpt>
    <trkpt lat="38.586840006" lon="34.951775987">
      <ele>1542.557</ele>
      <time>2021-10-12T19:28:41Z</time>
    </trkpt>
    <trkpt lat="38.586869007" lon="34.951779004">
      <ele>1542.485</ele>
      <time>2021-10-12T19:28:42Z</time>
    </trkpt>
    <trkpt lat="38.586897003" lon="34.951785039">
      <ele>1542.449</ele>
      <time>2021-10-12T19:28:43Z</time>
    </trkpt>
    <trkpt lat="38.58692701" lon="34.95179099">
      <ele>1542.405</ele>
      <time>2021-10-12T19:28:44Z</time>
    </trkpt>
    <trkpt lat="38.586952994" lon="34.951791996">
      <ele>1542.337</ele>
      <time>2021-10-12T19:28:45Z</time>
    </trkpt>
    <trkpt lat="38.586978978" lon="34.951796019">
      <ele>1542.331</ele>
      <time>2021-10-12T19:28:46Z</time>
    </trkpt>
    <trkpt lat="38.587001022" lon="34.951802976">
      <ele>1542.368</ele>
      <time>2021-10-12T19:28:47Z</time>
    </trkpt>
    <trkpt lat="38.587023988" lon="34.951812029">
      <ele>1542.433</ele>
      <time>2021-10-12T19:28:47Z</time>
    </trkpt>
    <trkpt lat="38.587049972" lon="34.951819992">
      <ele>1542.486</ele>
      <time>2021-10-12T19:28:48Z</time>
    </trkpt>
    <trkpt lat="38.58707604" lon="34.951826027">
      <ele>1542.519</ele>
      <time>2021-10-12T19:28:49Z</time>
    </trkpt>
    <trkpt lat="38.587102024" lon="34.951827032">
      <ele>1542.492</ele>
      <time>2021-10-12T19:28:50Z</time>
    </trkpt>
    <trkpt lat="38.587132031" lon="34.951820998">
      <ele>1542.367</ele>
      <time>2021-10-12T19:28:51Z</time>
    </trkpt>
    <trkpt lat="38.587159021" lon="34.951812029">
      <ele>1542.202</ele>
      <time>2021-10-12T19:28:53Z</time>
    </trkpt>
    <trkpt lat="38.587185005" lon="34.951802976">
      <ele>1542.031</ele>
      <time>2021-10-12T19:28:54Z</time>
    </trkpt>
    <trkpt lat="38.587211994" lon="34.951794008">
      <ele>1541.854</ele>
      <time>2021-10-12T19:28:55Z</time>
    </trkpt>
    <trkpt lat="38.587236973" lon="34.951784033">
      <ele>1541.698</ele>
      <time>2021-10-12T19:28:56Z</time>
    </trkpt>
    <trkpt lat="38.587262034" lon="34.951767018">
      <ele>1541.485</ele>
      <time>2021-10-12T19:28:57Z</time>
    </trkpt>
    <trkpt lat="38.587289024" lon="34.95175302">
      <ele>1541.334</ele>
      <time>2021-10-12T19:28:58Z</time>
    </trkpt>
    <trkpt lat="38.587312996" lon="34.951737011">
      <ele>1541.174</ele>
      <time>2021-10-12T19:28:59Z</time>
    </trkpt>
    <trkpt lat="38.587345015" lon="34.951722007">
      <ele>1541.063</ele>
      <time>2021-10-12T19:29:00Z</time>
    </trkpt>
    <trkpt lat="38.587373011" lon="34.951712033">
      <ele>1541.019</ele>
      <time>2021-10-12T19:29:01Z</time>
    </trkpt>
    <trkpt lat="38.587402012" lon="34.951703986">
      <ele>1541.011</ele>
      <time>2021-10-12T19:29:02Z</time>
    </trkpt>
    <trkpt lat="38.587430008" lon="34.951700969">
      <ele>1541.057</ele>
      <time>2021-10-12T19:29:03Z</time>
    </trkpt>
    <trkpt lat="38.587458003" lon="34.951699963">
      <ele>1541.125</ele>
      <time>2021-10-12T19:29:04Z</time>
    </trkpt>
    <trkpt lat="38.587487005" lon="34.951695018">
      <ele>1541.167</ele>
      <time>2021-10-12T19:29:05Z</time>
    </trkpt>
    <trkpt lat="38.587545007" lon="34.951678002">
      <ele>1541.237</ele>
      <time>2021-10-12T19:29:07Z</time>
    </trkpt>
    <trkpt lat="38.587575015" lon="34.951669034">
      <ele>1541.285</ele>
      <time>2021-10-12T19:29:09Z</time>
    </trkpt>
    <trkpt lat="38.58760301" lon="34.951658975">
      <ele>1541.27</ele>
      <time>2021-10-12T19:29:10Z</time>
    </trkpt>
    <trkpt lat="38.58763" lon="34.951650007">
      <ele>1541.256</ele>
      <time>2021-10-12T19:29:11Z</time>
    </trkpt>
    <trkpt lat="38.587657996" lon="34.951640032">
      <ele>1541.24</ele>
      <time>2021-10-12T19:29:12Z</time>
    </trkpt>
    <trkpt lat="38.587684985" lon="34.951629974">
      <ele>1541.226</ele>
      <time>2021-10-12T19:29:13Z</time>
    </trkpt>
    <trkpt lat="38.587710969" lon="34.951618994">
      <ele>1541.203</ele>
      <time>2021-10-12T19:29:14Z</time>
    </trkpt>
    <trkpt lat="38.587736031" lon="34.951608013">
      <ele>1541.185</ele>
      <time>2021-10-12T19:29:15Z</time>
    </trkpt>
    <trkpt lat="38.587761009" lon="34.951595021">
      <ele>1541.15</ele>
      <time>2021-10-12T19:29:16Z</time>
    </trkpt>
    <trkpt lat="38.587786993" lon="34.951579012">
      <ele>1541.13</ele>
      <time>2021-10-12T19:29:17Z</time>
    </trkpt>
    <trkpt lat="38.587810965" lon="34.951557973">
      <ele>1541.112</ele>
      <time>2021-10-12T19:29:18Z</time>
    </trkpt>
    <trkpt lat="38.587829992" lon="34.951535007">
      <ele>1541.043</ele>
      <time>2021-10-12T19:29:19Z</time>
    </trkpt>
    <trkpt lat="38.587849019" lon="34.951511035">
      <ele>1540.976</ele>
      <time>2021-10-12T19:29:20Z</time>
    </trkpt>
    <trkpt lat="38.587868968" lon="34.951489996">
      <ele>1540.957</ele>
      <time>2021-10-12T19:29:21Z</time>
    </trkpt>
    <trkpt lat="38.587891012" lon="34.951470969">
      <ele>1540.989</ele>
      <time>2021-10-12T19:29:22Z</time>
    </trkpt>
    <trkpt lat="38.587919008" lon="34.951455966">
      <ele>1541.127</ele>
      <time>2021-10-12T19:29:23Z</time>
    </trkpt>
    <trkpt lat="38.587943986" lon="34.95144004">
      <ele>1541.237</ele>
      <time>2021-10-12T19:29:24Z</time>
    </trkpt>
    <trkpt lat="38.587970976" lon="34.951434005">
      <ele>1541.461</ele>
      <time>2021-10-12T19:29:25Z</time>
    </trkpt>
    <trkpt lat="38.58799696" lon="34.951435011">
      <ele>1541.734</ele>
      <time>2021-10-12T19:29:26Z</time>
    </trkpt>
    <trkpt lat="38.588024033" lon="34.951434005">
      <ele>1542.003</ele>
      <time>2021-10-12T19:29:27Z</time>
    </trkpt>
    <trkpt lat="38.588055968" lon="34.951434005">
      <ele>1542.328</ele>
      <time>2021-10-12T19:29:28Z</time>
    </trkpt>
    <trkpt lat="38.588087987" lon="34.951436017">
      <ele>1542.573</ele>
      <time>2021-10-12T19:29:29Z</time>
    </trkpt>
    <trkpt lat="38.588116989" lon="34.951438028">
      <ele>1542.796</ele>
      <time>2021-10-12T19:29:30Z</time>
    </trkpt>
    <trkpt lat="38.588146996" lon="34.951438028">
      <ele>1543.012</ele>
      <time>2021-10-12T19:29:32Z</time>
    </trkpt>
    <trkpt lat="38.588177003" lon="34.951438028">
      <ele>1543.228</ele>
      <time>2021-10-12T19:29:33Z</time>
    </trkpt>
    <trkpt lat="38.588234" lon="34.951431993">
      <ele>1543.595</ele>
      <time>2021-10-12T19:29:35Z</time>
    </trkpt>
    <trkpt lat="38.588263001" lon="34.951426964">
      <ele>1543.768</ele>
      <time>2021-10-12T19:29:36Z</time>
    </trkpt>
    <trkpt lat="38.588292003" lon="34.951420007">
      <ele>1543.926</ele>
      <time>2021-10-12T19:29:37Z</time>
    </trkpt>
    <trkpt lat="38.588321004" lon="34.951408021">
      <ele>1544.049</ele>
      <time>2021-10-12T19:29:38Z</time>
    </trkpt>
    <trkpt lat="38.588345982" lon="34.951394023">
      <ele>1544.082</ele>
      <time>2021-10-12T19:29:39Z</time>
    </trkpt>
    <trkpt lat="38.588371966" lon="34.95137902">
      <ele>1544.047</ele>
      <time>2021-10-12T19:29:40Z</time>
    </trkpt>
    <trkpt lat="38.588397028" lon="34.951359993">
      <ele>1543.989</ele>
      <time>2021-10-12T19:29:41Z</time>
    </trkpt>
    <trkpt lat="38.588417983" lon="34.951339038">
      <ele>1543.93</ele>
      <time>2021-10-12T19:29:42Z</time>
    </trkpt>
    <trkpt lat="38.588442039" lon="34.951319005">
      <ele>1543.932</ele>
      <time>2021-10-12T19:29:43Z</time>
    </trkpt>
    <trkpt lat="38.588465005" lon="34.951298973">
      <ele>1543.963</ele>
      <time>2021-10-12T19:29:44Z</time>
    </trkpt>
    <trkpt lat="38.58848596" lon="34.951280029">
      <ele>1544.02</ele>
      <time>2021-10-12T19:29:45Z</time>
    </trkpt>
    <trkpt lat="38.588510016" lon="34.951259997">
      <ele>1544.129</ele>
      <time>2021-10-12T19:29:46Z</time>
    </trkpt>
    <trkpt lat="38.588534994" lon="34.951241976">
      <ele>1544.291</ele>
      <time>2021-10-12T19:29:47Z</time>
    </trkpt>
    <trkpt lat="38.588560978" lon="34.951224038">
      <ele>1544.498</ele>
      <time>2021-10-12T19:29:48Z</time>
    </trkpt>
    <trkpt lat="38.588588974" lon="34.951208029">
      <ele>1544.765</ele>
      <time>2021-10-12T19:29:50Z</time>
    </trkpt>
    <trkpt lat="38.588615963" lon="34.951194031">
      <ele>1545.012</ele>
      <time>2021-10-12T19:29:51Z</time>
    </trkpt>
    <trkpt lat="38.588644965" lon="34.951178022">
      <ele>1545.093</ele>
      <time>2021-10-12T19:29:52Z</time>
    </trkpt>
    <trkpt lat="38.588673966" lon="34.951162012">
      <ele>1545.185</ele>
      <time>2021-10-12T19:29:53Z</time>
    </trkpt>
    <trkpt lat="38.588704979" lon="34.95114902">
      <ele>1545.292</ele>
      <time>2021-10-12T19:29:54Z</time>
    </trkpt>
    <trkpt lat="38.588735992" lon="34.951137034">
      <ele>1545.408</ele>
      <time>2021-10-12T19:29:55Z</time>
    </trkpt>
    <trkpt lat="38.588761976" lon="34.951123958">
      <ele>1545.518</ele>
      <time>2021-10-12T19:29:56Z</time>
    </trkpt>
    <trkpt lat="38.588789972" lon="34.951110967">
      <ele>1545.642</ele>
      <time>2021-10-12T19:29:58Z</time>
    </trkpt>
    <trkpt lat="38.588817967" lon="34.951101998">
      <ele>1545.646</ele>
      <time>2021-10-12T19:29:59Z</time>
    </trkpt>
    <trkpt lat="38.588845041" lon="34.951092023">
      <ele>1545.661</ele>
      <time>2021-10-12T19:30:00Z</time>
    </trkpt>
    <trkpt lat="38.58887203" lon="34.951081965">
      <ele>1545.704</ele>
      <time>2021-10-12T19:30:01Z</time>
    </trkpt>
    <trkpt lat="38.588898014" lon="34.951069979">
      <ele>1545.709</ele>
      <time>2021-10-12T19:30:02Z</time>
    </trkpt>
    <trkpt lat="38.58892601" lon="34.951052964">
      <ele>1545.609</ele>
      <time>2021-10-12T19:30:03Z</time>
    </trkpt>
    <trkpt lat="38.588953" lon="34.951034021">
      <ele>1545.509</ele>
      <time>2021-10-12T19:30:04Z</time>
    </trkpt>
    <trkpt lat="38.588978983" lon="34.951014994">
      <ele>1545.42</ele>
      <time>2021-10-12T19:30:05Z</time>
    </trkpt>
    <trkpt lat="38.589004967" lon="34.950993033">
      <ele>1545.327</ele>
      <time>2021-10-12T19:30:06Z</time>
    </trkpt>
    <trkpt lat="38.589030029" lon="34.950973">
      <ele>1545.258</ele>
      <time>2021-10-12T19:30:07Z</time>
    </trkpt>
    <trkpt lat="38.589054001" lon="34.950954979">
      <ele>1545.21</ele>
      <time>2021-10-12T19:30:08Z</time>
    </trkpt>
    <trkpt lat="38.589079985" lon="34.950936958">
      <ele>1545.177</ele>
      <time>2021-10-12T19:30:10Z</time>
    </trkpt>
    <trkpt lat="38.589105969" lon="34.950920027">
      <ele>1545.162</ele>
      <time>2021-10-12T19:30:11Z</time>
    </trkpt>
    <trkpt lat="38.589132037" lon="34.950905023">
      <ele>1545.166</ele>
      <time>2021-10-12T19:30:12Z</time>
    </trkpt>
    <trkpt lat="38.589160033" lon="34.950892031">
      <ele>1545.192</ele>
      <time>2021-10-12T19:30:13Z</time>
    </trkpt>
    <trkpt lat="38.589188028" lon="34.950877028">
      <ele>1545.157</ele>
      <time>2021-10-12T19:30:14Z</time>
    </trkpt>
    <trkpt lat="38.58921703" lon="34.95086303">
      <ele>1545.107</ele>
      <time>2021-10-12T19:30:15Z</time>
    </trkpt>
    <trkpt lat="38.589246031" lon="34.950851966">
      <ele>1545.067</ele>
      <time>2021-10-12T19:30:16Z</time>
    </trkpt>
    <trkpt lat="38.589272015" lon="34.95083998">
      <ele>1545.024</ele>
      <time>2021-10-12T19:30:17Z</time>
    </trkpt>
    <trkpt lat="38.589302022" lon="34.950826988">
      <ele>1544.874</ele>
      <time>2021-10-12T19:30:18Z</time>
    </trkpt>
    <trkpt lat="38.589332029" lon="34.95081299">
      <ele>1544.604</ele>
      <time>2021-10-12T19:30:20Z</time>
    </trkpt>
    <trkpt lat="38.589360025" lon="34.95080201">
      <ele>1544.402</ele>
      <time>2021-10-12T19:30:21Z</time>
    </trkpt>
    <trkpt lat="38.589390032" lon="34.950793041">
      <ele>1544.246</ele>
      <time>2021-10-12T19:30:22Z</time>
    </trkpt>
    <trkpt lat="38.589449963" lon="34.950780971">
      <ele>1544.057</ele>
      <time>2021-10-12T19:30:24Z</time>
    </trkpt>
    <trkpt lat="38.58947997" lon="34.950773008">
      <ele>1543.914</ele>
      <time>2021-10-12T19:30:25Z</time>
    </trkpt>
    <trkpt lat="38.589506038" lon="34.95076404">
      <ele>1543.753</ele>
      <time>2021-10-12T19:30:26Z</time>
    </trkpt>
    <trkpt lat="38.589534033" lon="34.950755993">
      <ele>1543.608</ele>
      <time>2021-10-12T19:30:27Z</time>
    </trkpt>
    <trkpt lat="38.58956404" lon="34.95074803">
      <ele>1543.465</ele>
      <time>2021-10-12T19:30:28Z</time>
    </trkpt>
    <trkpt lat="38.589593042" lon="34.950741995">
      <ele>1543.356</ele>
      <time>2021-10-12T19:30:29Z</time>
    </trkpt>
    <trkpt lat="38.589622965" lon="34.950738978">
      <ele>1543.302</ele>
      <time>2021-10-12T19:30:31Z</time>
    </trkpt>
    <trkpt lat="38.589653978" lon="34.950737972">
      <ele>1543.283</ele>
      <time>2021-10-12T19:30:32Z</time>
    </trkpt>
    <trkpt lat="38.589683985" lon="34.950732021">
      <ele>1543.176</ele>
      <time>2021-10-12T19:30:33Z</time>
    </trkpt>
    <trkpt lat="38.589712987" lon="34.950725986">
      <ele>1543.068</ele>
      <time>2021-10-12T19:30:34Z</time>
    </trkpt>
    <trkpt lat="38.589738971" lon="34.950722968">
      <ele>1542.977</ele>
      <time>2021-10-12T19:30:35Z</time>
    </trkpt>
    <trkpt lat="38.589767972" lon="34.950718023">
      <ele>1542.828</ele>
      <time>2021-10-12T19:30:36Z</time>
    </trkpt>
    <trkpt lat="38.589796973" lon="34.950706037">
      <ele>1542.563</ele>
      <time>2021-10-12T19:30:37Z</time>
    </trkpt>
    <trkpt lat="38.589822035" lon="34.950692039">
      <ele>1542.28</ele>
      <time>2021-10-12T19:30:38Z</time>
    </trkpt>
    <trkpt lat="38.589848019" lon="34.950677035">
      <ele>1541.989</ele>
      <time>2021-10-12T19:30:39Z</time>
    </trkpt>
    <trkpt lat="38.589876015" lon="34.950658008">
      <ele>1541.64</ele>
      <time>2021-10-12T19:30:40Z</time>
    </trkpt>
    <trkpt lat="38.589900993" lon="34.950640993">
      <ele>1541.34</ele>
      <time>2021-10-12T19:30:41Z</time>
    </trkpt>
    <trkpt lat="38.589926977" lon="34.950621966">
      <ele>1541.019</ele>
      <time>2021-10-12T19:30:42Z</time>
    </trkpt>
    <trkpt lat="38.589952961" lon="34.950604029">
      <ele>1540.728</ele>
      <time>2021-10-12T19:30:44Z</time>
    </trkpt>
    <trkpt lat="38.589976011" lon="34.95058802">
      <ele>1540.478</ele>
      <time>2021-10-12T19:30:45Z</time>
    </trkpt>
    <trkpt lat="38.590001995" lon="34.95057201">
      <ele>1540.229</ele>
      <time>2021-10-12T19:30:46Z</time>
    </trkpt>
    <trkpt lat="38.590024039" lon="34.950554995">
      <ele>1539.902</ele>
      <time>2021-10-12T19:30:47Z</time>
    </trkpt>
    <trkpt lat="38.590050023" lon="34.950538985">
      <ele>1539.494</ele>
      <time>2021-10-12T19:30:48Z</time>
    </trkpt>
    <trkpt lat="38.590078019" lon="34.950525993">
      <ele>1539.17</ele>
      <time>2021-10-12T19:30:49Z</time>
    </trkpt>
    <trkpt lat="38.590104003" lon="34.950517025">
      <ele>1538.949</ele>
      <time>2021-10-12T19:30:50Z</time>
    </trkpt>
    <trkpt lat="38.590128981" lon="34.95051099">
      <ele>1538.797</ele>
      <time>2021-10-12T19:30:51Z</time>
    </trkpt>
    <trkpt lat="38.590156976" lon="34.950505039">
      <ele>1538.652</ele>
      <time>2021-10-12T19:30:52Z</time>
    </trkpt>
    <trkpt lat="38.590185978" lon="34.95050001">
      <ele>1538.532</ele>
      <time>2021-10-12T19:30:53Z</time>
    </trkpt>
    <trkpt lat="38.590244986" lon="34.950486012">
      <ele>1538.278</ele>
      <time>2021-10-12T19:30:55Z</time>
    </trkpt>
    <trkpt lat="38.590271976" lon="34.950476959">
      <ele>1538.154</ele>
      <time>2021-10-12T19:30:56Z</time>
    </trkpt>
    <trkpt lat="38.590298966" lon="34.950467991">
      <ele>1538.026</ele>
      <time>2021-10-12T19:30:57Z</time>
    </trkpt>
    <trkpt lat="38.590318998" lon="34.950454999">
      <ele>1537.873</ele>
      <time>2021-10-12T19:30:58Z</time>
    </trkpt>
    <trkpt lat="38.590341965" lon="34.950433038">
      <ele>1537.65</ele>
      <time>2021-10-12T19:30:59Z</time>
    </trkpt>
    <trkpt lat="38.590363003" lon="34.950409988">
      <ele>1537.443</ele>
      <time>2021-10-12T19:31:00Z</time>
    </trkpt>
    <trkpt lat="38.590384964" lon="34.950386016">
      <ele>1537.254</ele>
      <time>2021-10-12T19:31:01Z</time>
    </trkpt>
    <trkpt lat="38.590411032" lon="34.95036196">
      <ele>1537.098</ele>
      <time>2021-10-12T19:31:02Z</time>
    </trkpt>
    <trkpt lat="38.59043601" lon="34.950335976">
      <ele>1536.959</ele>
      <time>2021-10-12T19:31:03Z</time>
    </trkpt>
    <trkpt lat="38.590459982" lon="34.950310998">
      <ele>1536.858</ele>
      <time>2021-10-12T19:31:05Z</time>
    </trkpt>
    <trkpt lat="38.590482026" lon="34.950284008">
      <ele>1536.77</ele>
      <time>2021-10-12T19:31:06Z</time>
    </trkpt>
    <trkpt lat="38.590505999" lon="34.950261964">
      <ele>1536.687</ele>
      <time>2021-10-12T19:31:07Z</time>
    </trkpt>
    <trkpt lat="38.590531982" lon="34.950237991">
      <ele>1536.604</ele>
      <time>2021-10-12T19:31:08Z</time>
    </trkpt>
    <trkpt lat="38.590556039" lon="34.95021997">
      <ele>1536.586</ele>
      <time>2021-10-12T19:31:09Z</time>
    </trkpt>
    <trkpt lat="38.590577999" lon="34.950202033">
      <ele>1536.579</ele>
      <time>2021-10-12T19:31:10Z</time>
    </trkpt>
    <trkpt lat="38.590599038" lon="34.950179989">
      <ele>1536.563</ele>
      <time>2021-10-12T19:31:11Z</time>
    </trkpt>
    <trkpt lat="38.590619992" lon="34.95016004">
      <ele>1536.581</ele>
      <time>2021-10-12T19:31:12Z</time>
    </trkpt>
    <trkpt lat="38.590642959" lon="34.950136989">
      <ele>1536.62</ele>
      <time>2021-10-12T19:31:13Z</time>
    </trkpt>
    <trkpt lat="38.590666009" lon="34.950113017">
      <ele>1536.683</ele>
      <time>2021-10-12T19:31:14Z</time>
    </trkpt>
    <trkpt lat="38.590688976" lon="34.950092984">
      <ele>1536.789</ele>
      <time>2021-10-12T19:31:15Z</time>
    </trkpt>
    <trkpt lat="38.590714959" lon="34.950068006">
      <ele>1536.93</ele>
      <time>2021-10-12T19:31:16Z</time>
    </trkpt>
    <trkpt lat="38.590742033" lon="34.95004504">
      <ele>1537.121</ele>
      <time>2021-10-12T19:31:18Z</time>
    </trkpt>
    <trkpt lat="38.590766005" lon="34.950025007">
      <ele>1537.316</ele>
      <time>2021-10-12T19:31:19Z</time>
    </trkpt>
    <trkpt lat="38.590790983" lon="34.950004974">
      <ele>1537.548</ele>
      <time>2021-10-12T19:31:20Z</time>
    </trkpt>
    <trkpt lat="38.590814034" lon="34.949983014">
      <ele>1537.482</ele>
      <time>2021-10-12T19:31:21Z</time>
    </trkpt>
    <trkpt lat="38.590841023" lon="34.949960969">
      <ele>1537.388</ele>
      <time>2021-10-12T19:31:22Z</time>
    </trkpt>
    <trkpt lat="38.590866001" lon="34.949940015">
      <ele>1537.324</ele>
      <time>2021-10-12T19:31:23Z</time>
    </trkpt>
    <trkpt lat="38.590892991" lon="34.949921994">
      <ele>1537.361</ele>
      <time>2021-10-12T19:31:24Z</time>
    </trkpt>
    <trkpt lat="38.590919981" lon="34.949903972">
      <ele>1537.423</ele>
      <time>2021-10-12T19:31:25Z</time>
    </trkpt>
    <trkpt lat="38.590946971" lon="34.949887041">
      <ele>1537.527</ele>
      <time>2021-10-12T19:31:26Z</time>
    </trkpt>
    <trkpt lat="38.59097396" lon="34.949868014">
      <ele>1537.624</ele>
      <time>2021-10-12T19:31:28Z</time>
    </trkpt>
    <trkpt lat="38.590999022" lon="34.949848987">
      <ele>1537.72</ele>
      <time>2021-10-12T19:31:29Z</time>
    </trkpt>
    <trkpt lat="38.591026012" lon="34.949833984">
      <ele>1537.922</ele>
      <time>2021-10-12T19:31:30Z</time>
    </trkpt>
    <trkpt lat="38.59105099" lon="34.949817974">
      <ele>1538.101</ele>
      <time>2021-10-12T19:31:31Z</time>
    </trkpt>
    <trkpt lat="38.59107404" lon="34.949802971">
      <ele>1538.282</ele>
      <time>2021-10-12T19:31:32Z</time>
    </trkpt>
    <trkpt lat="38.591100024" lon="34.949788973">
      <ele>1538.541</ele>
      <time>2021-10-12T19:31:33Z</time>
    </trkpt>
    <trkpt lat="38.591125002" lon="34.949775981">
      <ele>1538.542</ele>
      <time>2021-10-12T19:31:34Z</time>
    </trkpt>
    <trkpt lat="38.591146963" lon="34.949760977">
      <ele>1538.347</ele>
      <time>2021-10-12T19:31:35Z</time>
    </trkpt>
    <trkpt lat="38.591169007" lon="34.949740022">
      <ele>1538.139</ele>
      <time>2021-10-12T19:31:36Z</time>
    </trkpt>
    <trkpt lat="38.59118904" lon="34.949722001">
      <ele>1537.995</ele>
      <time>2021-10-12T19:31:37Z</time>
    </trkpt>
    <trkpt lat="38.591212006" lon="34.949698029">
      <ele>1537.43</ele>
      <time>2021-10-12T19:31:38Z</time>
    </trkpt>
    <trkpt lat="38.591234973" lon="34.949674979">
      <ele>1536.943</ele>
      <time>2021-10-12T19:31:39Z</time>
    </trkpt>
    <trkpt lat="38.591258023" lon="34.949650001">
      <ele>1536.47</ele>
      <time>2021-10-12T19:31:40Z</time>
    </trkpt>
    <trkpt lat="38.591281995" lon="34.949626029">
      <ele>1536.082</ele>
      <time>2021-10-12T19:31:41Z</time>
    </trkpt>
    <trkpt lat="38.591304962" lon="34.949603984">
      <ele>1535.783</ele>
      <time>2021-10-12T19:31:42Z</time>
    </trkpt>
    <trkpt lat="38.591328012" lon="34.949583029">
      <ele>1535.556</ele>
      <time>2021-10-12T19:31:43Z</time>
    </trkpt>
    <trkpt lat="38.591351984" lon="34.949561991">
      <ele>1535.386</ele>
      <time>2021-10-12T19:31:44Z</time>
    </trkpt>
    <trkpt lat="38.59137604" lon="34.949542964">
      <ele>1535.299</ele>
      <time>2021-10-12T19:31:45Z</time>
    </trkpt>
    <trkpt lat="38.591402024" lon="34.949530978">
      <ele>1535.045</ele>
      <time>2021-10-12T19:31:46Z</time>
    </trkpt>
    <trkpt lat="38.591431025" lon="34.949522009">
      <ele>1534.492</ele>
      <time>2021-10-12T19:31:47Z</time>
    </trkpt>
    <trkpt lat="38.591458015" lon="34.949513962">
      <ele>1534.005</ele>
      <time>2021-10-12T19:31:48Z</time>
    </trkpt>
    <trkpt lat="38.591487017" lon="34.949502982">
      <ele>1533.485</ele>
      <time>2021-10-12T19:31:50Z</time>
    </trkpt>
    <trkpt lat="38.591517024" lon="34.949496025">
      <ele>1533.016</ele>
      <time>2021-10-12T19:31:51Z</time>
    </trkpt>
    <trkpt lat="38.591545019" lon="34.949487979">
      <ele>1532.588</ele>
      <time>2021-10-12T19:31:52Z</time>
    </trkpt>
    <trkpt lat="38.591573015" lon="34.949476998">
      <ele>1532.169</ele>
      <time>2021-10-12T19:31:53Z</time>
    </trkpt>
    <trkpt lat="38.591598999" lon="34.949471969">
      <ele>1531.827</ele>
      <time>2021-10-12T19:31:54Z</time>
    </trkpt>
    <trkpt lat="38.591623977" lon="34.949469035">
      <ele>1531.515</ele>
      <time>2021-10-12T19:31:55Z</time>
    </trkpt>
    <trkpt lat="38.591648033" lon="34.949466018">
      <ele>1531.222</ele>
      <time>2021-10-12T19:31:56Z</time>
    </trkpt>
    <trkpt lat="38.59166597" lon="34.949459983">
      <ele>1531.008</ele>
      <time>2021-10-12T19:31:56Z</time>
    </trkpt>
    <trkpt lat="38.59169296" lon="34.949437017">
      <ele>1530.525</ele>
      <time>2021-10-12T19:31:58Z</time>
    </trkpt>
    <trkpt lat="38.591717016" lon="34.949412961">
      <ele>1529.904</ele>
      <time>2021-10-12T19:31:59Z</time>
    </trkpt>
    <trkpt lat="38.591734031" lon="34.949403992">
      <ele>1529.589</ele>
      <time>2021-10-12T19:31:59Z</time>
    </trkpt>
    <trkpt lat="38.591750963" lon="34.949392006">
      <ele>1529.26</ele>
      <time>2021-10-12T19:32:00Z</time>
    </trkpt>
    <trkpt lat="38.591765966" lon="34.949375996">
      <ele>1528.937</ele>
      <time>2021-10-12T19:32:01Z</time>
    </trkpt>
    <trkpt lat="38.591781976" lon="34.949357975">
      <ele>1528.611</ele>
      <time>2021-10-12T19:32:02Z</time>
    </trkpt>
    <trkpt lat="38.591797985" lon="34.949341966">
      <ele>1528.331</ele>
      <time>2021-10-12T19:32:02Z</time>
    </trkpt>
    <trkpt lat="38.591818018" lon="34.949325034">
      <ele>1528.038</ele>
      <time>2021-10-12T19:32:03Z</time>
    </trkpt>
    <trkpt lat="38.591862023" lon="34.949291004">
      <ele>1527.531</ele>
      <time>2021-10-12T19:32:05Z</time>
    </trkpt>
    <trkpt lat="38.59189203" lon="34.949278012">
      <ele>1527.303</ele>
      <time>2021-10-12T19:32:06Z</time>
    </trkpt>
    <trkpt lat="38.591918014" lon="34.949264014">
      <ele>1527.133</ele>
      <time>2021-10-12T19:32:07Z</time>
    </trkpt>
    <trkpt lat="38.591942992" lon="34.949250016">
      <ele>1527.006</ele>
      <time>2021-10-12T19:32:08Z</time>
    </trkpt>
    <trkpt lat="38.591971993" lon="34.949228978">
      <ele>1526.68</ele>
      <time>2021-10-12T19:32:10Z</time>
    </trkpt>
    <trkpt lat="38.591998983" lon="34.949211041">
      <ele>1526.38</ele>
      <time>2021-10-12T19:32:11Z</time>
    </trkpt>
    <trkpt lat="38.592027985" lon="34.949194025">
      <ele>1526.068</ele>
      <time>2021-10-12T19:32:12Z</time>
    </trkpt>
    <trkpt lat="38.592057992" lon="34.949178016">
      <ele>1525.757</ele>
      <time>2021-10-12T19:32:13Z</time>
    </trkpt>
    <trkpt lat="38.592081964" lon="34.949159995">
      <ele>1525.394</ele>
      <time>2021-10-12T19:32:14Z</time>
    </trkpt>
    <trkpt lat="38.592110965" lon="34.949140968">
      <ele>1524.794</ele>
      <time>2021-10-12T19:32:15Z</time>
    </trkpt>
    <trkpt lat="38.592138039" lon="34.949121019">
      <ele>1524.282</ele>
      <time>2021-10-12T19:32:17Z</time>
    </trkpt>
    <trkpt lat="38.592162011" lon="34.949097969">
      <ele>1523.834</ele>
      <time>2021-10-12T19:32:18Z</time>
    </trkpt>
    <trkpt lat="38.592185983" lon="34.949077014">
      <ele>1523.493</ele>
      <time>2021-10-12T19:32:19Z</time>
    </trkpt>
    <trkpt lat="38.592212973" lon="34.949058993">
      <ele>1523.247</ele>
      <time>2021-10-12T19:32:20Z</time>
    </trkpt>
    <trkpt lat="38.592239041" lon="34.949039966">
      <ele>1522.873</ele>
      <time>2021-10-12T19:32:21Z</time>
    </trkpt>
    <trkpt lat="38.592264019" lon="34.949023034">
      <ele>1522.442</ele>
      <time>2021-10-12T19:32:22Z</time>
    </trkpt>
    <trkpt lat="38.592294026" lon="34.949006019">
      <ele>1521.959</ele>
      <time>2021-10-12T19:32:23Z</time>
    </trkpt>
    <trkpt lat="38.592325039" lon="34.948995039">
      <ele>1521.512</ele>
      <time>2021-10-12T19:32:24Z</time>
    </trkpt>
    <trkpt lat="38.59235798" lon="34.948985986">
      <ele>1521.062</ele>
      <time>2021-10-12T19:32:26Z</time>
    </trkpt>
    <trkpt lat="38.592387987" lon="34.948978024">
      <ele>1520.66</ele>
      <time>2021-10-12T19:32:27Z</time>
    </trkpt>
    <trkpt lat="38.592420006" lon="34.948972994">
      <ele>1520.254</ele>
      <time>2021-10-12T19:32:28Z</time>
    </trkpt>
    <trkpt lat="38.592479015" lon="34.948949022">
      <ele>1519.459</ele>
      <time>2021-10-12T19:32:30Z</time>
    </trkpt>
    <trkpt lat="38.59250701" lon="34.948929995">
      <ele>1518.968</ele>
      <time>2021-10-12T19:32:31Z</time>
    </trkpt>
    <trkpt lat="38.592530983" lon="34.948911974">
      <ele>1518.293</ele>
      <time>2021-10-12T19:32:32Z</time>
    </trkpt>
    <trkpt lat="38.592555961" lon="34.948891019">
      <ele>1517.596</ele>
      <time>2021-10-12T19:32:34Z</time>
    </trkpt>
    <trkpt lat="38.592581023" lon="34.948871993">
      <ele>1516.596</ele>
      <time>2021-10-12T19:32:35Z</time>
    </trkpt>
    <trkpt lat="38.592604995" lon="34.948851038">
      <ele>1515.625</ele>
      <time>2021-10-12T19:32:36Z</time>
    </trkpt>
    <trkpt lat="38.592627961" lon="34.948831005">
      <ele>1514.78</ele>
      <time>2021-10-12T19:32:37Z</time>
    </trkpt>
    <trkpt lat="38.592651011" lon="34.948809966">
      <ele>1514.003</ele>
      <time>2021-10-12T19:32:38Z</time>
    </trkpt>
    <trkpt lat="38.592666015" lon="34.948793035">
      <ele>1513.499</ele>
      <time>2021-10-12T19:32:39Z</time>
    </trkpt>
    <trkpt lat="38.592688981" lon="34.948770991">
      <ele>1512.863</ele>
      <time>2021-10-12T19:32:40Z</time>
    </trkpt>
    <trkpt lat="38.592703985" lon="34.948755987">
      <ele>1512.491</ele>
      <time>2021-10-12T19:32:40Z</time>
    </trkpt>
    <trkpt lat="38.592721" lon="34.948744001">
      <ele>1512.163</ele>
      <time>2021-10-12T19:32:41Z</time>
    </trkpt>
    <trkpt lat="38.592740027" lon="34.948727991">
      <ele>1511.821</ele>
      <time>2021-10-12T19:32:42Z</time>
    </trkpt>
    <trkpt lat="38.59275897" lon="34.948716005">
      <ele>1511.557</ele>
      <time>2021-10-12T19:32:43Z</time>
    </trkpt>
    <trkpt lat="38.592781015" lon="34.948713994">
      <ele>1511.234</ele>
      <time>2021-10-12T19:32:43Z</time>
    </trkpt>
    <trkpt lat="38.592810016" lon="34.948724974">
      <ele>1510.038</ele>
      <time>2021-10-12T19:32:45Z</time>
    </trkpt>
    <trkpt lat="38.592840023" lon="34.948723968">
      <ele>1508.759</ele>
      <time>2021-10-12T19:32:46Z</time>
    </trkpt>
    <trkpt lat="38.592866007" lon="34.948717011">
      <ele>1507.645</ele>
      <time>2021-10-12T19:32:47Z</time>
    </trkpt>
    <trkpt lat="38.592887968" lon="34.948701002">
      <ele>1506.703</ele>
      <time>2021-10-12T19:32:48Z</time>
    </trkpt>
    <trkpt lat="38.592911018" lon="34.948693039">
      <ele>1505.736</ele>
      <time>2021-10-12T19:32:49Z</time>
    </trkpt>
    <trkpt lat="38.592929961" lon="34.948691027">
      <ele>1504.946</ele>
      <time>2021-10-12T19:32:49Z</time>
    </trkpt>
    <trkpt lat="38.592948988" lon="34.948691027">
      <ele>1504.153</ele>
      <time>2021-10-12T19:32:50Z</time>
    </trkpt>
    <trkpt lat="38.592975978" lon="34.948685998">
      <ele>1503.036</ele>
      <time>2021-10-12T19:32:51Z</time>
    </trkpt>
    <trkpt lat="38.59300104" lon="34.948663032">
      <ele>1502.045</ele>
      <time>2021-10-12T19:32:52Z</time>
    </trkpt>
    <trkpt lat="38.593018977" lon="34.948641993">
      <ele>1501.367</ele>
      <time>2021-10-12T19:32:53Z</time>
    </trkpt>
    <trkpt lat="38.593038004" lon="34.948625984">
      <ele>1500.648</ele>
      <time>2021-10-12T19:32:54Z</time>
    </trkpt>
    <trkpt lat="38.593063988" lon="34.948609974">
      <ele>1499.547</ele>
      <time>2021-10-12T19:32:55Z</time>
    </trkpt>
    <trkpt lat="38.59308796" lon="34.948592037">
      <ele>1497.942</ele>
      <time>2021-10-12T19:32:56Z</time>
    </trkpt>
    <trkpt lat="38.593116039" lon="34.94857301">
      <ele>1496.201</ele>
      <time>2021-10-12T19:32:57Z</time>
    </trkpt>
    <trkpt lat="38.593149986" lon="34.948535962">
      <ele>1493.991</ele>
      <time>2021-10-12T19:32:59Z</time>
    </trkpt>
    <trkpt lat="38.593157027" lon="34.948523976">
      <ele>1493.492</ele>
      <time>2021-10-12T19:32:59Z</time>
    </trkpt>
    <trkpt lat="38.593165996" lon="34.948491035">
      <ele>1492.611</ele>
      <time>2021-10-12T19:33:00Z</time>
    </trkpt>
    <trkpt lat="38.593180999" lon="34.948465973">
      <ele>1491.672</ele>
      <time>2021-10-12T19:33:01Z</time>
    </trkpt>
    <trkpt lat="38.593196003" lon="34.94845097">
      <ele>1490.926</ele>
      <time>2021-10-12T19:33:02Z</time>
    </trkpt>
    <trkpt lat="38.593217963" lon="34.948442001">
      <ele>1490.045</ele>
      <time>2021-10-12T19:33:03Z</time>
    </trkpt>
    <trkpt lat="38.593240008" lon="34.948472008">
      <ele>1489.526</ele>
      <time>2021-10-12T19:33:04Z</time>
    </trkpt>
    <trkpt lat="38.593258029" lon="34.948493969">
      <ele>1488.995</ele>
      <time>2021-10-12T19:33:05Z</time>
    </trkpt>
    <trkpt lat="38.593276972" lon="34.948492041">
      <ele>1488.232</ele>
      <time>2021-10-12T19:33:05Z</time>
    </trkpt>
    <trkpt lat="38.59328703" lon="34.948473014">
      <ele>1487.754</ele>
      <time>2021-10-12T19:33:06Z</time>
    </trkpt>
    <trkpt lat="38.593304968" lon="34.948453987">
      <ele>1487.025</ele>
      <time>2021-10-12T19:33:07Z</time>
    </trkpt>
    <trkpt lat="38.593329024" lon="34.948453987">
      <ele>1486.156</ele>
      <time>2021-10-12T19:33:08Z</time>
    </trkpt>
    <trkpt lat="38.593359031" lon="34.948454993">
      <ele>1485.075</ele>
      <time>2021-10-12T19:33:09Z</time>
    </trkpt>
    <trkpt lat="38.593388032" lon="34.948431021">
      <ele>1484.031</ele>
      <time>2021-10-12T19:33:10Z</time>
    </trkpt>
    <trkpt lat="38.593410999" lon="34.948417023">
      <ele>1483.204</ele>
      <time>2021-10-12T19:33:11Z</time>
    </trkpt>
    <trkpt lat="38.593435977" lon="34.94840797">
      <ele>1482.305</ele>
      <time>2021-10-12T19:33:12Z</time>
    </trkpt>
    <trkpt lat="38.593460033" lon="34.948405037">
      <ele>1481.439</ele>
      <time>2021-10-12T19:33:13Z</time>
    </trkpt>
    <trkpt lat="38.593481993" lon="34.948402019">
      <ele>1480.648</ele>
      <time>2021-10-12T19:33:14Z</time>
    </trkpt>
    <trkpt lat="38.593503032" lon="34.948399002">
      <ele>1479.891</ele>
      <time>2021-10-12T19:33:15Z</time>
    </trkpt>
    <trkpt lat="38.593519963" lon="34.948389027">
      <ele>1479.281</ele>
      <time>2021-10-12T19:33:15Z</time>
    </trkpt>
    <trkpt lat="38.593539996" lon="34.948381986">
      <ele>1478.56</ele>
      <time>2021-10-12T19:33:16Z</time>
    </trkpt>
    <trkpt lat="38.593558017" lon="34.948377963">
      <ele>1477.911</ele>
      <time>2021-10-12T19:33:17Z</time>
    </trkpt>
    <trkpt lat="38.59357696" lon="34.948378969">
      <ele>1477.229</ele>
      <time>2021-10-12T19:33:18Z</time>
    </trkpt>
    <trkpt lat="38.593595987" lon="34.948385004">
      <ele>1476.544</ele>
      <time>2021-10-12T19:33:18Z</time>
    </trkpt>
    <trkpt lat="38.593630018" lon="34.948402019">
      <ele>1475.37</ele>
      <time>2021-10-12T19:33:20Z</time>
    </trkpt>
    <trkpt lat="38.593648039" lon="34.948394978">
      <ele>1474.759</ele>
      <time>2021-10-12T19:33:20Z</time>
    </trkpt>
    <trkpt lat="38.593667988" lon="34.94836296">
      <ele>1474.018</ele>
      <time>2021-10-12T19:33:21Z</time>
    </trkpt>
    <trkpt lat="38.593692966" lon="34.948348962">
      <ele>1473.103</ele>
      <time>2021-10-12T19:33:22Z</time>
    </trkpt>
    <trkpt lat="38.593710987" lon="34.948342005">
      <ele>1472.438</ele>
      <time>2021-10-12T19:33:23Z</time>
    </trkpt>
    <trkpt lat="38.593730014" lon="34.94833203">
      <ele>1471.686</ele>
      <time>2021-10-12T19:33:24Z</time>
    </trkpt>
    <trkpt lat="38.593749963" lon="34.94833203">
      <ele>1470.969</ele>
      <time>2021-10-12T19:33:25Z</time>
    </trkpt>
    <trkpt lat="38.593761027" lon="34.948367989">
      <ele>1470.805</ele>
      <time>2021-10-12T19:33:26Z</time>
    </trkpt>
    <trkpt lat="38.593800003" lon="34.948375029">
      <ele>1469.506</ele>
      <time>2021-10-12T19:33:27Z</time>
    </trkpt>
    <trkpt lat="38.593823975" lon="34.948374024">
      <ele>1468.674</ele>
      <time>2021-10-12T19:33:28Z</time>
    </trkpt>
    <trkpt lat="38.593850965" lon="34.948368995">
      <ele>1467.698</ele>
      <time>2021-10-12T19:33:29Z</time>
    </trkpt>
    <trkpt lat="38.593878038" lon="34.948367989">
      <ele>1466.75</ele>
      <time>2021-10-12T19:33:30Z</time>
    </trkpt>
    <trkpt lat="38.593906034" lon="34.94837">
      <ele>1465.964</ele>
      <time>2021-10-12T19:33:31Z</time>
    </trkpt>
    <trkpt lat="38.593935035" lon="34.948374024">
      <ele>1465.277</ele>
      <time>2021-10-12T19:33:32Z</time>
    </trkpt>
    <trkpt lat="38.593965964" lon="34.94838601">
      <ele>1464.627</ele>
      <time>2021-10-12T19:33:33Z</time>
    </trkpt>
    <trkpt lat="38.59399396" lon="34.948399002">
      <ele>1464.061</ele>
      <time>2021-10-12T19:33:35Z</time>
    </trkpt>
    <trkpt lat="38.594020028" lon="34.948405037">
      <ele>1463.47</ele>
      <time>2021-10-12T19:33:36Z</time>
    </trkpt>
    <trkpt lat="38.594048023" lon="34.948417023">
      <ele>1462.894</ele>
      <time>2021-10-12T19:33:37Z</time>
    </trkpt>
    <trkpt lat="38.594071995" lon="34.948429009">
      <ele>1462.419</ele>
      <time>2021-10-12T19:33:38Z</time>
    </trkpt>
    <trkpt lat="38.594096974" lon="34.948436972">
      <ele>1461.876</ele>
      <time>2021-10-12T19:33:39Z</time>
    </trkpt>
    <trkpt lat="38.594120024" lon="34.948439989">
      <ele>1461.327</ele>
      <time>2021-10-12T19:33:39Z</time>
    </trkpt>
    <trkpt lat="38.594146008" lon="34.948439989">
      <ele>1460.672</ele>
      <time>2021-10-12T19:33:40Z</time>
    </trkpt>
    <trkpt lat="38.594171992" lon="34.948439989">
      <ele>1459.999</ele>
      <time>2021-10-12T19:33:41Z</time>
    </trkpt>
    <trkpt lat="38.594197975" lon="34.948444013">
      <ele>1459.294</ele>
      <time>2021-10-12T19:33:42Z</time>
    </trkpt>
    <trkpt lat="38.59422002" lon="34.948446024">
      <ele>1458.68</ele>
      <time>2021-10-12T19:33:43Z</time>
    </trkpt>
    <trkpt lat="38.59424198" lon="34.948446024">
      <ele>1458.048</ele>
      <time>2021-10-12T19:33:44Z</time>
    </trkpt>
    <trkpt lat="38.594266037" lon="34.948448036">
      <ele>1457.377</ele>
      <time>2021-10-12T19:33:45Z</time>
    </trkpt>
    <trkpt lat="38.594290009" lon="34.948452981">
      <ele>1456.74</ele>
      <time>2021-10-12T19:33:46Z</time>
    </trkpt>
    <trkpt lat="38.594314987" lon="34.948455999">
      <ele>1456.053</ele>
      <time>2021-10-12T19:33:47Z</time>
    </trkpt>
    <trkpt lat="38.594340971" lon="34.948463039">
      <ele>1455.381</ele>
      <time>2021-10-12T19:33:48Z</time>
    </trkpt>
    <trkpt lat="38.594364021" lon="34.948468991">
      <ele>1454.781</ele>
      <time>2021-10-12T19:33:49Z</time>
    </trkpt>
    <trkpt lat="38.594385982" lon="34.948472008">
      <ele>1454.181</ele>
      <time>2021-10-12T19:33:49Z</time>
    </trkpt>
    <trkpt lat="38.594409032" lon="34.948469996">
      <ele>1453.496</ele>
      <time>2021-10-12T19:33:50Z</time>
    </trkpt>
    <trkpt lat="38.594459994" lon="34.948475026">
      <ele>1452.193</ele>
      <time>2021-10-12T19:33:52Z</time>
    </trkpt>
    <trkpt lat="38.594486983" lon="34.948472008">
      <ele>1451.579</ele>
      <time>2021-10-12T19:33:53Z</time>
    </trkpt>
    <trkpt lat="38.594515985" lon="34.948468991">
      <ele>1450.926</ele>
      <time>2021-10-12T19:33:54Z</time>
    </trkpt>
    <trkpt lat="38.59454398" lon="34.948465973">
      <ele>1450.299</ele>
      <time>2021-10-12T19:33:55Z</time>
    </trkpt>
    <trkpt lat="38.594574993" lon="34.948466979">
      <ele>1449.641</ele>
      <time>2021-10-12T19:33:56Z</time>
    </trkpt>
    <trkpt lat="38.594601983" lon="34.948465973">
      <ele>1449.055</ele>
      <time>2021-10-12T19:33:57Z</time>
    </trkpt>
    <trkpt lat="38.59463199" lon="34.948463039">
      <ele>1448.394</ele>
      <time>2021-10-12T19:33:58Z</time>
    </trkpt>
    <trkpt lat="38.594666021" lon="34.948460022">
      <ele>1447.652</ele>
      <time>2021-10-12T19:34:00Z</time>
    </trkpt>
    <trkpt lat="38.594697034" lon="34.948457005">
      <ele>1446.979</ele>
      <time>2021-10-12T19:34:01Z</time>
    </trkpt>
    <trkpt lat="38.594732992" lon="34.948453987">
      <ele>1446.268</ele>
      <time>2021-10-12T19:34:02Z</time>
    </trkpt>
    <trkpt lat="38.594765011" lon="34.948452981">
      <ele>1445.77</ele>
      <time>2021-10-12T19:34:03Z</time>
    </trkpt>
    <trkpt lat="38.59479703" lon="34.948452981">
      <ele>1445.275</ele>
      <time>2021-10-12T19:34:05Z</time>
    </trkpt>
    <trkpt lat="38.594827959" lon="34.948452981">
      <ele>1444.797</ele>
      <time>2021-10-12T19:34:06Z</time>
    </trkpt>
    <trkpt lat="38.594856961" lon="34.948453987">
      <ele>1444.347</ele>
      <time>2021-10-12T19:34:07Z</time>
    </trkpt>
    <trkpt lat="38.594887974" lon="34.948459016">
      <ele>1443.852</ele>
      <time>2021-10-12T19:34:08Z</time>
    </trkpt>
    <trkpt lat="38.594917981" lon="34.948460022">
      <ele>1443.378</ele>
      <time>2021-10-12T19:34:09Z</time>
    </trkpt>
    <trkpt lat="38.594946982" lon="34.948459016">
      <ele>1442.927</ele>
      <time>2021-10-12T19:34:10Z</time>
    </trkpt>
    <trkpt lat="38.594971038" lon="34.948454993">
      <ele>1442.574</ele>
      <time>2021-10-12T19:34:11Z</time>
    </trkpt>
    <trkpt lat="38.594992999" lon="34.948449964">
      <ele>1442.268</ele>
      <time>2021-10-12T19:34:12Z</time>
    </trkpt>
    <trkpt lat="38.595015965" lon="34.948449964">
      <ele>1441.461</ele>
      <time>2021-10-12T19:34:13Z</time>
    </trkpt>
    <trkpt lat="38.595042033" lon="34.948453987">
      <ele>1440.296</ele>
      <time>2021-10-12T19:34:14Z</time>
    </trkpt>
    <trkpt lat="38.595068017" lon="34.948463039">
      <ele>1439.112</ele>
      <time>2021-10-12T19:34:15Z</time>
    </trkpt>
    <trkpt lat="38.595095007" lon="34.948466979">
      <ele>1437.921</ele>
      <time>2021-10-12T19:34:16Z</time>
    </trkpt>
    <trkpt lat="38.595123002" lon="34.948465973">
      <ele>1436.711</ele>
      <time>2021-10-12T19:34:17Z</time>
    </trkpt>
    <trkpt lat="38.595152004" lon="34.948465973">
      <ele>1435.454</ele>
      <time>2021-10-12T19:34:18Z</time>
    </trkpt>
    <trkpt lat="38.595177988" lon="34.948463961">
      <ele>1434.332</ele>
      <time>2021-10-12T19:34:19Z</time>
    </trkpt>
    <trkpt lat="38.59520196" lon="34.948463039">
      <ele>1433.293</ele>
      <time>2021-10-12T19:34:20Z</time>
    </trkpt>
    <trkpt lat="38.595226016" lon="34.948460022">
      <ele>1432.252</ele>
      <time>2021-10-12T19:34:21Z</time>
    </trkpt>
    <trkpt lat="38.595248982" lon="34.948454993">
      <ele>1431.257</ele>
      <time>2021-10-12T19:34:21Z</time>
    </trkpt>
    <trkpt lat="38.595272033" lon="34.948449042">
      <ele>1430.252</ele>
      <time>2021-10-12T19:34:22Z</time>
    </trkpt>
    <trkpt lat="38.595292987" lon="34.948443007">
      <ele>1429.365</ele>
      <time>2021-10-12T19:34:23Z</time>
    </trkpt>
    <trkpt lat="38.59531302" lon="34.948436972">
      <ele>1428.525</ele>
      <time>2021-10-12T19:34:24Z</time>
    </trkpt>
    <trkpt lat="38.595331963" lon="34.948430015">
      <ele>1427.727</ele>
      <time>2021-10-12T19:34:25Z</time>
    </trkpt>
    <trkpt lat="38.595353002" lon="34.948422974">
      <ele>1426.838</ele>
      <time>2021-10-12T19:34:25Z</time>
    </trkpt>
    <trkpt lat="38.595383009" lon="34.94840797">
      <ele>1425.556</ele>
      <time>2021-10-12T19:34:27Z</time>
    </trkpt>
    <trkpt lat="38.595409999" lon="34.948404031">
      <ele>1424.409</ele>
      <time>2021-10-12T19:34:28Z</time>
    </trkpt>
    <trkpt lat="38.595429026" lon="34.948405959">
      <ele>1423.608</ele>
      <time>2021-10-12T19:34:28Z</time>
    </trkpt>
    <trkpt lat="38.59542802" lon="34.948368995">
      <ele>1423.579</ele>
      <time>2021-10-12T19:34:29Z</time>
    </trkpt>
    <trkpt lat="38.595426008" lon="34.948337981">
      <ele>1423.605</ele>
      <time>2021-10-12T19:34:30Z</time>
    </trkpt>
    <trkpt lat="38.595431037" lon="34.948316021">
      <ele>1423.074</ele>
      <time>2021-10-12T19:34:31Z</time>
    </trkpt>
    <trkpt lat="38.595456015" lon="34.948328007">
      <ele>1422.21</ele>
      <time>2021-10-12T19:34:32Z</time>
    </trkpt>
    <trkpt lat="38.595480993" lon="34.948352985">
      <ele>1421.273</ele>
      <time>2021-10-12T19:34:33Z</time>
    </trkpt>
    <trkpt lat="38.59550396" lon="34.948361032">
      <ele>1420.31</ele>
      <time>2021-10-12T19:34:34Z</time>
    </trkpt>
    <trkpt lat="38.595518963" lon="34.948379975">
      <ele>1419.727</ele>
      <time>2021-10-12T19:34:35Z</time>
    </trkpt>
    <trkpt lat="38.595538996" lon="34.948393973">
      <ele>1418.921</ele>
      <time>2021-10-12T19:34:36Z</time>
    </trkpt>
    <trkpt lat="38.59556498" lon="34.948405959">
      <ele>1418.033</ele>
      <time>2021-10-12T19:34:37Z</time>
    </trkpt>
    <trkpt lat="38.595585013" lon="34.948410988">
      <ele>1417.567</ele>
      <time>2021-10-12T19:34:37Z</time>
    </trkpt>
    <trkpt lat="38.595606973" lon="34.948403025">
      <ele>1417.002</ele>
      <time>2021-10-12T19:34:38Z</time>
    </trkpt>
    <trkpt lat="38.595630024" lon="34.948410988">
      <ele>1416.478</ele>
      <time>2021-10-12T19:34:39Z</time>
    </trkpt>
    <trkpt lat="38.595648967" lon="34.948408976">
      <ele>1416.01</ele>
      <time>2021-10-12T19:34:40Z</time>
    </trkpt>
    <trkpt lat="38.595674029" lon="34.948404031">
      <ele>1415.378</ele>
      <time>2021-10-12T19:34:41Z</time>
    </trkpt>
    <trkpt lat="38.595701018" lon="34.948400008">
      <ele>1414.7</ele>
      <time>2021-10-12T19:34:42Z</time>
    </trkpt>
    <trkpt lat="38.595731026" lon="34.948393973">
      <ele>1413.934</ele>
      <time>2021-10-12T19:34:43Z</time>
    </trkpt>
    <trkpt lat="38.595762039" lon="34.948393973">
      <ele>1413.177</ele>
      <time>2021-10-12T19:34:44Z</time>
    </trkpt>
    <trkpt lat="38.595789028" lon="34.94839699">
      <ele>1412.538</ele>
      <time>2021-10-12T19:34:45Z</time>
    </trkpt>
    <trkpt lat="38.595814006" lon="34.948397996">
      <ele>1411.936</ele>
      <time>2021-10-12T19:34:46Z</time>
    </trkpt>
    <trkpt lat="38.595840996" lon="34.948397996">
      <ele>1411.287</ele>
      <time>2021-10-12T19:34:47Z</time>
    </trkpt>
    <trkpt lat="38.595864968" lon="34.948400008">
      <ele>1410.742</ele>
      <time>2021-10-12T19:34:48Z</time>
    </trkpt>
    <trkpt lat="38.595888019" lon="34.948409982">
      <ele>1410.262</ele>
      <time>2021-10-12T19:34:49Z</time>
    </trkpt>
    <trkpt lat="38.595916014" lon="34.948420962">
      <ele>1409.657</ele>
      <time>2021-10-12T19:34:50Z</time>
    </trkpt>
    <trkpt lat="38.595939986" lon="34.948429009">
      <ele>1409.121</ele>
      <time>2021-10-12T19:34:51Z</time>
    </trkpt>
    <trkpt lat="38.595963037" lon="34.948429009">
      <ele>1408.566</ele>
      <time>2021-10-12T19:34:52Z</time>
    </trkpt>
    <trkpt lat="38.595987009" lon="34.948432026">
      <ele>1407.998</ele>
      <time>2021-10-12T19:34:52Z</time>
    </trkpt>
    <trkpt lat="38.596010981" lon="34.948433032">
      <ele>1407.422</ele>
      <time>2021-10-12T19:34:53Z</time>
    </trkpt>
    <trkpt lat="38.596031014" lon="34.948432026">
      <ele>1406.935</ele>
      <time>2021-10-12T19:34:54Z</time>
    </trkpt>
    <trkpt lat="38.596052974" lon="34.948429009">
      <ele>1406.4</ele>
      <time>2021-10-12T19:34:55Z</time>
    </trkpt>
    <trkpt lat="38.596081976" lon="34.948429009">
      <ele>1405.702</ele>
      <time>2021-10-12T19:34:56Z</time>
    </trkpt>
    <trkpt lat="38.596109971" lon="34.948432026">
      <ele>1405.028</ele>
      <time>2021-10-12T19:34:57Z</time>
    </trkpt>
    <trkpt lat="38.596132016" lon="34.948434038">
      <ele>1404.494</ele>
      <time>2021-10-12T19:34:58Z</time>
    </trkpt>
    <trkpt lat="38.596152971" lon="34.948434038">
      <ele>1403.987</ele>
      <time>2021-10-12T19:34:59Z</time>
    </trkpt>
    <trkpt lat="38.596173003" lon="34.948426997">
      <ele>1403.513</ele>
      <time>2021-10-12T19:34:59Z</time>
    </trkpt>
    <trkpt lat="38.59619203" lon="34.948421968">
      <ele>1403.066</ele>
      <time>2021-10-12T19:35:00Z</time>
    </trkpt>
    <trkpt lat="38.596211979" lon="34.948424986">
      <ele>1402.582</ele>
      <time>2021-10-12T19:35:01Z</time>
    </trkpt>
    <trkpt lat="38.596234024" lon="34.948428003">
      <ele>1402.043</ele>
      <time>2021-10-12T19:35:02Z</time>
    </trkpt>
    <trkpt lat="38.596252967" lon="34.948428003">
      <ele>1401.588</ele>
      <time>2021-10-12T19:35:02Z</time>
    </trkpt>
    <trkpt lat="38.596271994" lon="34.948421968">
      <ele>1401.155</ele>
      <time>2021-10-12T19:35:03Z</time>
    </trkpt>
    <trkpt lat="38.596289009" lon="34.948409982">
      <ele>1400.804</ele>
      <time>2021-10-12T19:35:04Z</time>
    </trkpt>
    <trkpt lat="38.596304012" lon="34.948397996">
      <ele>1400.51</ele>
      <time>2021-10-12T19:35:04Z</time>
    </trkpt>
    <trkpt lat="38.596323961" lon="34.948377963">
      <ele>1400.156</ele>
      <time>2021-10-12T19:35:05Z</time>
    </trkpt>
    <trkpt lat="38.596341982" lon="34.94835902">
      <ele>1399.859</ele>
      <time>2021-10-12T19:35:06Z</time>
    </trkpt>
    <trkpt lat="38.596360004" lon="34.948342005">
      <ele>1399.568</ele>
      <time>2021-10-12T19:35:07Z</time>
    </trkpt>
    <trkpt lat="38.596376013" lon="34.948329013">
      <ele>1399.276</ele>
      <time>2021-10-12T19:35:08Z</time>
    </trkpt>
    <trkpt lat="38.59640602" lon="34.948301017">
      <ele>1398.699</ele>
      <time>2021-10-12T19:35:09Z</time>
    </trkpt>
    <trkpt lat="38.596424041" lon="34.948290037">
      <ele>1398.387</ele>
      <time>2021-10-12T19:35:10Z</time>
    </trkpt>
    <trkpt lat="38.596458994" lon="34.948249971">
      <ele>1397.814</ele>
      <time>2021-10-12T19:35:12Z</time>
    </trkpt>
    <trkpt lat="38.596475003" lon="34.948227005">
      <ele>1397.569</ele>
      <time>2021-10-12T19:35:13Z</time>
    </trkpt>
    <trkpt lat="38.596493024" lon="34.948206972">
      <ele>1397.296</ele>
      <time>2021-10-12T19:35:13Z</time>
    </trkpt>
    <trkpt lat="38.596512973" lon="34.948186018">
      <ele>1397.003</ele>
      <time>2021-10-12T19:35:14Z</time>
    </trkpt>
    <trkpt lat="38.596536024" lon="34.948163973">
      <ele>1396.675</ele>
      <time>2021-10-12T19:35:15Z</time>
    </trkpt>
    <trkpt lat="38.59655899" lon="34.948144024">
      <ele>1396.356</ele>
      <time>2021-10-12T19:35:16Z</time>
    </trkpt>
    <trkpt lat="38.596582962" lon="34.948127009">
      <ele>1396.026</ele>
      <time>2021-10-12T19:35:18Z</time>
    </trkpt>
    <trkpt lat="38.596604001" lon="34.948111">
      <ele>1395.748</ele>
      <time>2021-10-12T19:35:18Z</time>
    </trkpt>
    <trkpt lat="38.596625039" lon="34.948085016">
      <ele>1395.509</ele>
      <time>2021-10-12T19:35:19Z</time>
    </trkpt>
    <trkpt lat="38.596647" lon="34.948061965">
      <ele>1395.262</ele>
      <time>2021-10-12T19:35:21Z</time>
    </trkpt>
    <trkpt lat="38.596668961" lon="34.948046962">
      <ele>1394.866</ele>
      <time>2021-10-12T19:35:21Z</time>
    </trkpt>
    <trkpt lat="38.596695028" lon="34.948034976">
      <ele>1394.267</ele>
      <time>2021-10-12T19:35:22Z</time>
    </trkpt>
    <trkpt lat="38.596721012" lon="34.948031036">
      <ele>1393.757</ele>
      <time>2021-10-12T19:35:23Z</time>
    </trkpt>
    <trkpt lat="38.596749008" lon="34.948032964">
      <ele>1393.274</ele>
      <time>2021-10-12T19:35:24Z</time>
    </trkpt>
    <trkpt lat="38.596778009" lon="34.948037993">
      <ele>1392.806</ele>
      <time>2021-10-12T19:35:26Z</time>
    </trkpt>
    <trkpt lat="38.596808016" lon="34.948044028">
      <ele>1392.331</ele>
      <time>2021-10-12T19:35:27Z</time>
    </trkpt>
    <trkpt lat="38.596839029" lon="34.948055008">
      <ele>1391.892</ele>
      <time>2021-10-12T19:35:28Z</time>
    </trkpt>
    <trkpt lat="38.596896026" lon="34.948080992">
      <ele>1390.78</ele>
      <time>2021-10-12T19:35:30Z</time>
    </trkpt>
    <trkpt lat="38.59692201" lon="34.948090967">
      <ele>1390.276</ele>
      <time>2021-10-12T19:35:31Z</time>
    </trkpt>
    <trkpt lat="38.596947994" lon="34.948102031">
      <ele>1389.784</ele>
      <time>2021-10-12T19:35:32Z</time>
    </trkpt>
    <trkpt lat="38.596974984" lon="34.948109994">
      <ele>1389.386</ele>
      <time>2021-10-12T19:35:33Z</time>
    </trkpt>
    <trkpt lat="38.597003985" lon="34.94811804">
      <ele>1388.966</ele>
      <time>2021-10-12T19:35:34Z</time>
    </trkpt>
    <trkpt lat="38.597030975" lon="34.948129021">
      <ele>1388.572</ele>
      <time>2021-10-12T19:35:35Z</time>
    </trkpt>
    <trkpt lat="38.597059976" lon="34.948135978">
      <ele>1388.167</ele>
      <time>2021-10-12T19:35:36Z</time>
    </trkpt>
    <trkpt lat="38.597089984" lon="34.948143018">
      <ele>1387.754</ele>
      <time>2021-10-12T19:35:38Z</time>
    </trkpt>
    <trkpt lat="38.597123008" lon="34.948155005">
      <ele>1387.301</ele>
      <time>2021-10-12T19:35:39Z</time>
    </trkpt>
    <trkpt lat="38.597155027" lon="34.94816104">
      <ele>1386.876</ele>
      <time>2021-10-12T19:35:40Z</time>
    </trkpt>
    <trkpt lat="38.597186962" lon="34.948166991">
      <ele>1386.457</ele>
      <time>2021-10-12T19:35:41Z</time>
    </trkpt>
    <trkpt lat="38.597217975" lon="34.94817202">
      <ele>1386.055</ele>
      <time>2021-10-12T19:35:42Z</time>
    </trkpt>
    <trkpt lat="38.597246977" lon="34.948175037">
      <ele>1385.86</ele>
      <time>2021-10-12T19:35:43Z</time>
    </trkpt>
    <trkpt lat="38.597278995" lon="34.948177971">
      <ele>1385.681</ele>
      <time>2021-10-12T19:35:45Z</time>
    </trkpt>
    <trkpt lat="38.597309003" lon="34.948183">
      <ele>1385.519</ele>
      <time>2021-10-12T19:35:46Z</time>
    </trkpt>
    <trkpt lat="38.597341022" lon="34.948187023">
      <ele>1385.347</ele>
      <time>2021-10-12T19:35:47Z</time>
    </trkpt>
    <trkpt lat="38.59737304" lon="34.948194986">
      <ele>1385.187</ele>
      <time>2021-10-12T19:35:48Z</time>
    </trkpt>
    <trkpt lat="38.59740003" lon="34.948198004">
      <ele>1385.048</ele>
      <time>2021-10-12T19:35:49Z</time>
    </trkpt>
    <trkpt lat="38.597430037" lon="34.948208984">
      <ele>1384.917</ele>
      <time>2021-10-12T19:35:50Z</time>
    </trkpt>
    <trkpt lat="38.597461972" lon="34.948216025">
      <ele>1384.772</ele>
      <time>2021-10-12T19:35:52Z</time>
    </trkpt>
    <trkpt lat="38.597489968" lon="34.948218036">
      <ele>1384.636</ele>
      <time>2021-10-12T19:35:53Z</time>
    </trkpt>
    <trkpt lat="38.597517041" lon="34.948221976">
      <ele>1384.538</ele>
      <time>2021-10-12T19:35:54Z</time>
    </trkpt>
    <trkpt lat="38.59754202" lon="34.948224993">
      <ele>1384.459</ele>
      <time>2021-10-12T19:35:54Z</time>
    </trkpt>
    <trkpt lat="38.597570015" lon="34.948229017">
      <ele>1384.372</ele>
      <time>2021-10-12T19:35:56Z</time>
    </trkpt>
    <trkpt lat="38.597597005" lon="34.948235974">
      <ele>1384.3</ele>
      <time>2021-10-12T19:35:57Z</time>
    </trkpt>
    <trkpt lat="38.597817" lon="34.948399">
      <ele>1383.008</ele>
      <time>2021-10-12T19:36:06Z</time>
    </trkpt>
    <trkpt lat="38.598289" lon="34.9494">
      <ele>1362.12</ele>
      <time>2021-10-12T19:36:40Z</time>
    </trkpt>
    <trkpt lat="38.598509" lon="34.949776">
      <ele>1355.012</ele>
      <time>2021-10-12T19:36:53Z</time>
    </trkpt>
    <trkpt lat="38.598622" lon="34.949808">
      <ele>1353.917</ele>
      <time>2021-10-12T19:36:58Z</time>
    </trkpt>
    <trkpt lat="38.598679" lon="34.949904">
      <ele>1352.059</ele>
      <time>2021-10-12T19:37:01Z</time>
    </trkpt>
    <trkpt lat="38.598711" lon="34.950035">
      <ele>1350.103</ele>
      <time>2021-10-12T19:37:05Z</time>
    </trkpt>
    <trkpt lat="38.598715" lon="34.950199">
      <ele>1347.906</ele>
      <time>2021-10-12T19:37:10Z</time>
    </trkpt>
    <trkpt lat="38.598676" lon="34.95039">
      <ele>1346.276</ele>
      <time>2021-10-12T19:37:16Z</time>
    </trkpt>
    <trkpt lat="38.598722" lon="34.950522">
      <ele>1344.867</ele>
      <time>2021-10-12T19:37:20Z</time>
    </trkpt>
    <trkpt lat="38.598896" lon="34.950814">
      <ele>1344.907</ele>
      <time>2021-10-12T19:37:31Z</time>
    </trkpt>
    <trkpt lat="38.599024" lon="34.950918">
      <ele>1345.123</ele>
      <time>2021-10-12T19:37:36Z</time>
    </trkpt>
    <trkpt lat="38.59922" lon="34.951178">
      <ele>1345.857</ele>
      <time>2021-10-12T19:37:47Z</time>
    </trkpt>
    <trkpt lat="38.59975" lon="34.951719">
      <ele>1342.177</ele>
      <time>2021-10-12T19:38:12Z</time>
    </trkpt>
    <trkpt lat="38.600091" lon="34.951951">
      <ele>1341.08</ele>
      <time>2021-10-12T19:38:26Z</time>
    </trkpt>
    <trkpt lat="38.600251" lon="34.952138">
      <ele>1340.75</ele>
      <time>2021-10-12T19:38:34Z</time>
    </trkpt>
    <trkpt lat="38.600297" lon="34.952224">
      <ele>1340.723</ele>
      <time>2021-10-12T19:38:37Z</time>
    </trkpt>
    <trkpt lat="38.60045" lon="34.952411">
      <ele>1338.099</ele>
      <time>2021-10-12T19:38:45Z</time>
    </trkpt>
    <trkpt lat="38.600738" lon="34.952725">
      <ele>1332.438</ele>
      <time>2021-10-12T19:38:59Z</time>
    </trkpt>
    <trkpt lat="38.600838" lon="34.952752">
      <ele>1330.934</ele>
      <time>2021-10-12T19:39:03Z</time>
    </trkpt>
    <trkpt lat="38.600948" lon="34.952752">
      <ele>1329.387</ele>
      <time>2021-10-12T19:39:07Z</time>
    </trkpt>
    <trkpt lat="38.601026" lon="34.952784">
      <ele>1328.248</ele>
      <time>2021-10-12T19:39:10Z</time>
    </trkpt>
    <trkpt lat="38.601127" lon="34.952839">
      <ele>1327.081</ele>
      <time>2021-10-12T19:39:14Z</time>
    </trkpt>
    <trkpt lat="38.601332" lon="34.952875">
      <ele>1325.203</ele>
      <time>2021-10-12T19:39:22Z</time>
    </trkpt>
    <trkpt lat="38.601684" lon="34.95283">
      <ele>1322.875</ele>
      <time>2021-10-12T19:39:35Z</time>
    </trkpt>
    <trkpt lat="38.601857" lon="34.952807">
      <ele>1321.63</ele>
      <time>2021-10-12T19:39:41Z</time>
    </trkpt>
    <trkpt lat="38.601903" lon="34.952798">
      <ele>1321.298</ele>
      <time>2021-10-12T19:39:43Z</time>
    </trkpt>
    <trkpt lat="38.601933" lon="34.952772">
      <ele>1321.103</ele>
      <time>2021-10-12T19:39:44Z</time>
    </trkpt>
    <trkpt lat="38.601983" lon="34.952686">
      <ele>1321.146</ele>
      <time>2021-10-12T19:39:47Z</time>
    </trkpt>
    <trkpt lat="38.602046" lon="34.95257">
      <ele>1321.109</ele>
      <time>2021-10-12T19:39:51Z</time>
    </trkpt>
    <trkpt lat="38.602098" lon="34.952565">
      <ele>1320.79</ele>
      <time>2021-10-12T19:39:53Z</time>
    </trkpt>
    <trkpt lat="38.602142" lon="34.952621">
      <ele>1320.452</ele>
      <time>2021-10-12T19:39:56Z</time>
    </trkpt>
    <trkpt lat="38.602203" lon="34.952812">
      <ele>1320.069</ele>
      <time>2021-10-12T19:40:02Z</time>
    </trkpt>
    <trkpt lat="38.602228" lon="34.953034">
      <ele>1319.96</ele>
      <time>2021-10-12T19:40:08Z</time>
    </trkpt>
    <trkpt lat="38.602277" lon="34.953129">
      <ele>1319.393</ele>
      <time>2021-10-12T19:40:11Z</time>
    </trkpt>
    <trkpt lat="38.602289" lon="34.953153">
      <ele>1319.253</ele>
      <time>2021-10-12T19:40:12Z</time>
    </trkpt>
    <trkpt lat="38.602371" lon="34.9533">
      <ele>1318.52</ele>
      <time>2021-10-12T19:40:18Z</time>
    </trkpt>
    <trkpt lat="38.602422" lon="34.953387">
      <ele>1318.281</ele>
      <time>2021-10-12T19:40:21Z</time>
    </trkpt>
    <trkpt lat="38.602552" lon="34.953555">
      <ele>1318.187</ele>
      <time>2021-10-12T19:40:28Z</time>
    </trkpt>
    <trkpt lat="38.602945" lon="34.95401">
      <ele>1323.805</ele>
      <time>2021-10-12T19:40:47Z</time>
    </trkpt>
    <trkpt lat="38.603065" lon="34.95417">
      <ele>1328.16</ele>
      <time>2021-10-12T19:40:54Z</time>
    </trkpt>
    <trkpt lat="38.603065" lon="34.954246">
      <ele>1328.707</ele>
      <time>2021-10-12T19:40:56Z</time>
    </trkpt>
    <trkpt lat="38.602941" lon="34.954607">
      <ele>1329.762</ele>
      <time>2021-10-12T19:41:07Z</time>
    </trkpt>
    <trkpt lat="38.60291197" lon="34.954679981">
      <ele>1330.067</ele>
      <time>2021-10-12T19:41:10Z</time>
    </trkpt>
    <trkpt lat="38.602899984" lon="34.954701019">
      <ele>1330.124</ele>
      <time>2021-10-12T19:41:10Z</time>
    </trkpt>
    <trkpt lat="38.602883974" lon="34.954738989">
      <ele>1330.305</ele>
      <time>2021-10-12T19:41:12Z</time>
    </trkpt>
    <trkpt lat="38.602876011" lon="34.95476204">
      <ele>1330.44</ele>
      <time>2021-10-12T19:41:12Z</time>
    </trkpt>
    <trkpt lat="38.602853967" lon="34.954805039">
      <ele>1330.635</ele>
      <time>2021-10-12T19:41:14Z</time>
    </trkpt>
    <trkpt lat="38.602842987" lon="34.954828005">
      <ele>1330.757</ele>
      <time>2021-10-12T19:41:15Z</time>
    </trkpt>
    <trkpt lat="38.602825971" lon="34.954854995">
      <ele>1330.872</ele>
      <time>2021-10-12T19:41:16Z</time>
    </trkpt>
    <trkpt lat="38.602812979" lon="34.954881985">
      <ele>1331.033</ele>
      <time>2021-10-12T19:41:17Z</time>
    </trkpt>
    <trkpt lat="38.602801999" lon="34.954908974">
      <ele>1331.22</ele>
      <time>2021-10-12T19:41:17Z</time>
    </trkpt>
    <trkpt lat="38.602790013" lon="34.95493697">
      <ele>1331.417</ele>
      <time>2021-10-12T19:41:18Z</time>
    </trkpt>
    <trkpt lat="38.602754977" lon="34.954995979">
      <ele>1331.547</ele>
      <time>2021-10-12T19:41:21Z</time>
    </trkpt>
    <trkpt lat="38.60274299" lon="34.955026992">
      <ele>1331.508</ele>
      <time>2021-10-12T19:41:22Z</time>
    </trkpt>
    <trkpt lat="38.602728993" lon="34.955059011">
      <ele>1331.446</ele>
      <time>2021-10-12T19:41:23Z</time>
    </trkpt>
    <trkpt lat="38.602722036" lon="34.955088012">
      <ele>1331.504</ele>
      <time>2021-10-12T19:41:23Z</time>
    </trkpt>
    <trkpt lat="38.602709966" lon="34.955122964">
      <ele>1331.546</ele>
      <time>2021-10-12T19:41:25Z</time>
    </trkpt>
    <trkpt lat="38.602706026" lon="34.955151966">
      <ele>1331.679</ele>
      <time>2021-10-12T19:41:25Z</time>
    </trkpt>
    <trkpt lat="38.602696974" lon="34.955182979">
      <ele>1331.779</ele>
      <time>2021-10-12T19:41:26Z</time>
    </trkpt>
    <trkpt lat="38.602691023" lon="34.95521198">
      <ele>1331.917</ele>
      <time>2021-10-12T19:41:27Z</time>
    </trkpt>
    <trkpt lat="38.602685994" lon="34.955241987">
      <ele>1332.083</ele>
      <time>2021-10-12T19:41:28Z</time>
    </trkpt>
    <trkpt lat="38.602679959" lon="34.955275012">
      <ele>1332.275</ele>
      <time>2021-10-12T19:41:29Z</time>
    </trkpt>
    <trkpt lat="38.602677025" lon="34.955305019">
      <ele>1332.346</ele>
      <time>2021-10-12T19:41:30Z</time>
    </trkpt>
    <trkpt lat="38.602673002" lon="34.955329997">
      <ele>1332.387</ele>
      <time>2021-10-12T19:41:31Z</time>
    </trkpt>
    <trkpt lat="38.602671996" lon="34.955357993">
      <ele>1332.458</ele>
      <time>2021-10-12T19:41:32Z</time>
    </trkpt>
    <trkpt lat="38.602674007" lon="34.955382971">
      <ele>1332.536</ele>
      <time>2021-10-12T19:41:32Z</time>
    </trkpt>
    <trkpt lat="38.602674007" lon="34.955409961">
      <ele>1332.608</ele>
      <time>2021-10-12T19:41:33Z</time>
    </trkpt>
    <trkpt lat="38.602680964" lon="34.955433011">
      <ele>1332.692</ele>
      <time>2021-10-12T19:41:34Z</time>
    </trkpt>
    <trkpt lat="38.602683982" lon="34.955457989">
      <ele>1332.763</ele>
      <time>2021-10-12T19:41:35Z</time>
    </trkpt>
    <trkpt lat="38.602693034" lon="34.955481039">
      <ele>1332.836</ele>
      <time>2021-10-12T19:41:35Z</time>
    </trkpt>
    <trkpt lat="38.602778027" lon="34.955554968">
      <ele>1333.0</ele>
      <time>2021-10-12T19:41:39Z</time>
    </trkpt>
    <trkpt lat="38.602801999" lon="34.95556402">
      <ele>1332.997</ele>
      <time>2021-10-12T19:41:40Z</time>
    </trkpt>
    <trkpt lat="38.602826977" lon="34.955570977">
      <ele>1332.99</ele>
      <time>2021-10-12T19:41:41Z</time>
    </trkpt>
    <trkpt lat="38.602853967" lon="34.955578018">
      <ele>1332.978</ele>
      <time>2021-10-12T19:41:42Z</time>
    </trkpt>
    <trkpt lat="38.602881962" lon="34.955584975">
      <ele>1332.96</ele>
      <time>2021-10-12T19:41:43Z</time>
    </trkpt>
    <trkpt lat="38.602910042" lon="34.955592016">
      <ele>1332.938</ele>
      <time>2021-10-12T19:41:44Z</time>
    </trkpt>
    <trkpt lat="38.602936026" lon="34.955595033">
      <ele>1332.919</ele>
      <time>2021-10-12T19:41:45Z</time>
    </trkpt>
    <trkpt lat="38.602965027" lon="34.95560199">
      <ele>1332.887</ele>
      <time>2021-10-12T19:41:46Z</time>
    </trkpt>
    <trkpt lat="38.602992017" lon="34.955608025">
      <ele>1332.854</ele>
      <time>2021-10-12T19:41:47Z</time>
    </trkpt>
    <trkpt lat="38.603021018" lon="34.955613976">
      <ele>1332.816</ele>
      <time>2021-10-12T19:41:48Z</time>
    </trkpt>
    <trkpt lat="38.603049014" lon="34.955615988">
      <ele>1332.788</ele>
      <time>2021-10-12T19:41:49Z</time>
    </trkpt>
    <trkpt lat="38.603072986" lon="34.955622023">
      <ele>1332.871</ele>
      <time>2021-10-12T19:41:50Z</time>
    </trkpt>
    <trkpt lat="38.603100982" lon="34.955626968">
      <ele>1333.028</ele>
      <time>2021-10-12T19:41:51Z</time>
    </trkpt>
    <trkpt lat="38.603128977" lon="34.955631997">
      <ele>1333.181</ele>
      <time>2021-10-12T19:41:52Z</time>
    </trkpt>
    <trkpt lat="38.603187986" lon="34.955630992">
      <ele>1333.552</ele>
      <time>2021-10-12T19:41:54Z</time>
    </trkpt>
    <trkpt lat="38.603218999" lon="34.955627974">
      <ele>1333.763</ele>
      <time>2021-10-12T19:41:56Z</time>
    </trkpt>
    <trkpt lat="38.603249006" lon="34.95562504">
      <ele>1333.968</ele>
      <time>2021-10-12T19:41:57Z</time>
    </trkpt>
    <trkpt lat="38.603281025" lon="34.955621017">
      <ele>1334.196</ele>
      <time>2021-10-12T19:41:58Z</time>
    </trkpt>
    <trkpt lat="38.603310026" lon="34.955615988">
      <ele>1334.415</ele>
      <time>2021-10-12T19:41:59Z</time>
    </trkpt>
    <trkpt lat="38.603339028" lon="34.955610959">
      <ele>1334.618</ele>
      <time>2021-10-12T19:42:00Z</time>
    </trkpt>
    <trkpt lat="38.603370041" lon="34.955602996">
      <ele>1334.768</ele>
      <time>2021-10-12T19:42:01Z</time>
    </trkpt>
    <trkpt lat="38.603398036" lon="34.955595033">
      <ele>1334.916</ele>
      <time>2021-10-12T19:42:02Z</time>
    </trkpt>
    <trkpt lat="38.603426032" lon="34.955584975">
      <ele>1335.087</ele>
      <time>2021-10-12T19:42:03Z</time>
    </trkpt>
    <trkpt lat="38.603455033" lon="34.955575">
      <ele>1335.267</ele>
      <time>2021-10-12T19:42:05Z</time>
    </trkpt>
    <trkpt lat="38.603481017" lon="34.955565026">
      <ele>1335.445</ele>
      <time>2021-10-12T19:42:06Z</time>
    </trkpt>
    <trkpt lat="38.603508007" lon="34.955557985">
      <ele>1335.606</ele>
      <time>2021-10-12T19:42:07Z</time>
    </trkpt>
    <trkpt lat="38.603533991" lon="34.955549017">
      <ele>1335.763</ele>
      <time>2021-10-12T19:42:08Z</time>
    </trkpt>
    <trkpt lat="38.603559975" lon="34.955538036">
      <ele>1335.93</ele>
      <time>2021-10-12T19:42:09Z</time>
    </trkpt>
    <trkpt lat="38.603585958" lon="34.955527978">
      <ele>1336.099</ele>
      <time>2021-10-12T19:42:10Z</time>
    </trkpt>
    <trkpt lat="38.603609009" lon="34.955521021">
      <ele>1336.24</ele>
      <time>2021-10-12T19:42:10Z</time>
    </trkpt>
    <trkpt lat="38.603634993" lon="34.955507023">
      <ele>1336.263</ele>
      <time>2021-10-12T19:42:11Z</time>
    </trkpt>
    <trkpt lat="38.603660977" lon="34.955496965">
      <ele>1336.242</ele>
      <time>2021-10-12T19:42:12Z</time>
    </trkpt>
    <trkpt lat="38.603684027" lon="34.955483973">
      <ele>1336.253</ele>
      <time>2021-10-12T19:42:13Z</time>
    </trkpt>
    <trkpt lat="38.603710011" lon="34.955468969">
      <ele>1336.267</ele>
      <time>2021-10-12T19:42:14Z</time>
    </trkpt>
    <trkpt lat="38.603734989" lon="34.955451032">
      <ele>1336.307</ele>
      <time>2021-10-12T19:42:16Z</time>
    </trkpt>
    <trkpt lat="38.603759967" lon="34.955433011">
      <ele>1336.346</ele>
      <time>2021-10-12T19:42:17Z</time>
    </trkpt>
    <trkpt lat="38.60378704" lon="34.955415996">
      <ele>1336.371</ele>
      <time>2021-10-12T19:42:18Z</time>
    </trkpt>
    <trkpt lat="38.603813024" lon="34.955399986">
      <ele>1336.393</ele>
      <time>2021-10-12T19:42:19Z</time>
    </trkpt>
    <trkpt lat="38.603842026" lon="34.955386994">
      <ele>1336.382</ele>
      <time>2021-10-12T19:42:20Z</time>
    </trkpt>
    <trkpt lat="38.603871027" lon="34.955375008">
      <ele>1336.364</ele>
      <time>2021-10-12T19:42:21Z</time>
    </trkpt>
    <trkpt lat="38.603899023" lon="34.955363022">
      <ele>1336.277</ele>
      <time>2021-10-12T19:42:22Z</time>
    </trkpt>
    <trkpt lat="38.60392903" lon="34.955345001">
      <ele>1336.082</ele>
      <time>2021-10-12T19:42:23Z</time>
    </trkpt>
    <trkpt lat="38.603957025" lon="34.955325974">
      <ele>1335.917</ele>
      <time>2021-10-12T19:42:25Z</time>
    </trkpt>
    <trkpt lat="38.603985021" lon="34.955306025">
      <ele>1335.758</ele>
      <time>2021-10-12T19:42:26Z</time>
    </trkpt>
    <trkpt lat="38.604014022" lon="34.955282975">
      <ele>1335.611</ele>
      <time>2021-10-12T19:42:27Z</time>
    </trkpt>
    <trkpt lat="38.604040006" lon="34.955260009">
      <ele>1335.531</ele>
      <time>2021-10-12T19:42:28Z</time>
    </trkpt>
    <trkpt lat="38.60406599" lon="34.955237964">
      <ele>1335.465</ele>
      <time>2021-10-12T19:42:29Z</time>
    </trkpt>
    <trkpt lat="38.604094991" lon="34.955213992">
      <ele>1335.404</ele>
      <time>2021-10-12T19:42:31Z</time>
    </trkpt>
    <trkpt lat="38.604124999" lon="34.955192031">
      <ele>1335.33</ele>
      <time>2021-10-12T19:42:32Z</time>
    </trkpt>
    <trkpt lat="38.604154" lon="34.955173004">
      <ele>1335.251</ele>
      <time>2021-10-12T19:42:33Z</time>
    </trkpt>
    <trkpt lat="38.604184007" lon="34.955153977">
      <ele>1335.094</ele>
      <time>2021-10-12T19:42:34Z</time>
    </trkpt>
    <trkpt lat="38.604212003" lon="34.955137968">
      <ele>1334.856</ele>
      <time>2021-10-12T19:42:35Z</time>
    </trkpt>
    <trkpt lat="38.60424201" lon="34.955122964">
      <ele>1334.556</ele>
      <time>2021-10-12T19:42:37Z</time>
    </trkpt>
    <trkpt lat="38.604273023" lon="34.955107039">
      <ele>1334.225</ele>
      <time>2021-10-12T19:42:38Z</time>
    </trkpt>
    <trkpt lat="38.604304958" lon="34.955089018">
      <ele>1333.868</ele>
      <time>2021-10-12T19:42:39Z</time>
    </trkpt>
    <trkpt lat="38.604337983" lon="34.95507502">
      <ele>1333.439</ele>
      <time>2021-10-12T19:42:40Z</time>
    </trkpt>
    <trkpt lat="38.604371008" lon="34.955061022">
      <ele>1332.986</ele>
      <time>2021-10-12T19:42:42Z</time>
    </trkpt>
    <trkpt lat="38.604402021" lon="34.955047024">
      <ele>1332.543</ele>
      <time>2021-10-12T19:42:43Z</time>
    </trkpt>
    <trkpt lat="38.604437979" lon="34.955030009">
      <ele>1332.003</ele>
      <time>2021-10-12T19:42:44Z</time>
    </trkpt>
    <trkpt lat="38.604473015" lon="34.955014">
      <ele>1331.327</ele>
      <time>2021-10-12T19:42:46Z</time>
    </trkpt>
    <trkpt lat="38.604504028" lon="34.95499799">
      <ele>1330.729</ele>
      <time>2021-10-12T19:42:47Z</time>
    </trkpt>
    <trkpt lat="38.604536969" lon="34.954982987">
      <ele>1330.144</ele>
      <time>2021-10-12T19:42:48Z</time>
    </trkpt>
    <trkpt lat="38.604566976" lon="34.954968989">
      <ele>1329.626</ele>
      <time>2021-10-12T19:42:49Z</time>
    </trkpt>
    <trkpt lat="38.604601007" lon="34.954954991">
      <ele>1329.034</ele>
      <time>2021-10-12T19:42:51Z</time>
    </trkpt>
    <trkpt lat="38.60463202" lon="34.954937976">
      <ele>1328.546</ele>
      <time>2021-10-12T19:42:52Z</time>
    </trkpt>
    <trkpt lat="38.604664039" lon="34.954920961">
      <ele>1328.051</ele>
      <time>2021-10-12T19:42:53Z</time>
    </trkpt>
    <trkpt lat="38.604694968" lon="34.954899">
      <ele>1327.644</ele>
      <time>2021-10-12T19:42:55Z</time>
    </trkpt>
    <trkpt lat="38.604726987" lon="34.954876034">
      <ele>1327.253</ele>
      <time>2021-10-12T19:42:56Z</time>
    </trkpt>
    <trkpt lat="38.604759006" lon="34.954858012">
      <ele>1326.871</ele>
      <time>2021-10-12T19:42:57Z</time>
    </trkpt>
    <trkpt lat="38.604788007" lon="34.954842003">
      <ele>1326.522</ele>
      <time>2021-10-12T19:42:58Z</time>
    </trkpt>
    <trkpt lat="38.604822038" lon="34.954825994">
      <ele>1326.083</ele>
      <time>2021-10-12T19:43:00Z</time>
    </trkpt>
    <trkpt lat="38.604854979" lon="34.954813002">
      <ele>1325.63</ele>
      <time>2021-10-12T19:43:01Z</time>
    </trkpt>
    <trkpt lat="38.604888003" lon="34.954802021">
      <ele>1325.154</ele>
      <time>2021-10-12T19:43:02Z</time>
    </trkpt>
    <trkpt lat="38.604922034" lon="34.954794981">
      <ele>1324.618</ele>
      <time>2021-10-12T19:43:04Z</time>
    </trkpt>
    <trkpt lat="38.604954975" lon="34.954790035">
      <ele>1324.078</ele>
      <time>2021-10-12T19:43:05Z</time>
    </trkpt>
    <trkpt lat="38.604989005" lon="34.954785006">
      <ele>1323.52</ele>
      <time>2021-10-12T19:43:06Z</time>
    </trkpt>
    <trkpt lat="38.60502203" lon="34.954782994">
      <ele>1322.964</ele>
      <time>2021-10-12T19:43:07Z</time>
    </trkpt>
    <trkpt lat="38.605053965" lon="34.954780983">
      <ele>1322.435</ele>
      <time>2021-10-12T19:43:09Z</time>
    </trkpt>
    <trkpt lat="38.605087996" lon="34.954782994">
      <ele>1321.829</ele>
      <time>2021-10-12T19:43:10Z</time>
    </trkpt>
    <trkpt lat="38.605124038" lon="34.954786012">
      <ele>1321.181</ele>
      <time>2021-10-12T19:43:11Z</time>
    </trkpt>
    <trkpt lat="38.605157984" lon="34.954791041">
      <ele>1320.554</ele>
      <time>2021-10-12T19:43:12Z</time>
    </trkpt>
    <trkpt lat="38.605190003" lon="34.954802021">
      <ele>1319.915</ele>
      <time>2021-10-12T19:43:14Z</time>
    </trkpt>
    <trkpt lat="38.605220011" lon="34.954816019">
      <ele>1319.294</ele>
      <time>2021-10-12T19:43:15Z</time>
    </trkpt>
    <trkpt lat="38.605250018" lon="34.954832029">
      <ele>1318.67</ele>
      <time>2021-10-12T19:43:16Z</time>
    </trkpt>
    <trkpt lat="38.605279019" lon="34.954854995">
      <ele>1318.044</ele>
      <time>2021-10-12T19:43:17Z</time>
    </trkpt>
    <trkpt lat="38.605310032" lon="34.954886008">
      <ele>1317.821</ele>
      <time>2021-10-12T19:43:19Z</time>
    </trkpt>
    <trkpt lat="38.60533501" lon="34.954924984">
      <ele>1317.54</ele>
      <time>2021-10-12T19:43:20Z</time>
    </trkpt>
    <trkpt lat="38.605346996" lon="34.954972006">
      <ele>1317.202</ele>
      <time>2021-10-12T19:43:22Z</time>
    </trkpt>
    <trkpt lat="38.60535102" lon="34.955128999">
      <ele>1316.878</ele>
      <time>2021-10-12T19:43:26Z</time>
    </trkpt>
    <trkpt lat="38.605348002" lon="34.955176022">
      <ele>1316.84</ele>
      <time>2021-10-12T19:43:28Z</time>
    </trkpt>
    <trkpt lat="38.605340039" lon="34.955224972">
      <ele>1316.818</ele>
      <time>2021-10-12T19:43:29Z</time>
    </trkpt>
    <trkpt lat="38.605336016" lon="34.955269983">
      <ele>1316.796</ele>
      <time>2021-10-12T19:43:30Z</time>
    </trkpt>
    <trkpt lat="38.60533501" lon="34.955318011">
      <ele>1316.504</ele>
      <time>2021-10-12T19:43:32Z</time>
    </trkpt>
    <trkpt lat="38.605330987" lon="34.95536604">
      <ele>1316.173</ele>
      <time>2021-10-12T19:43:33Z</time>
    </trkpt>
    <trkpt lat="38.605326042" lon="34.955412978">
      <ele>1315.853</ele>
      <time>2021-10-12T19:43:34Z</time>
    </trkpt>
    <trkpt lat="38.605307015" lon="34.955505012">
      <ele>1315.259</ele>
      <time>2021-10-12T19:43:37Z</time>
    </trkpt>
    <trkpt lat="38.605305003" lon="34.955545999">
      <ele>1314.971</ele>
      <time>2021-10-12T19:43:38Z</time>
    </trkpt>
    <trkpt lat="38.605303997" lon="34.955585981">
      <ele>1314.577</ele>
      <time>2021-10-12T19:43:40Z</time>
    </trkpt>
    <trkpt lat="38.605303997" lon="34.955626968">
      <ele>1314.134</ele>
      <time>2021-10-12T19:43:41Z</time>
    </trkpt>
    <trkpt lat="38.605307015" lon="34.955668962">
      <ele>1313.67</ele>
      <time>2021-10-12T19:43:42Z</time>
    </trkpt>
    <trkpt lat="38.605306009" lon="34.955714978">
      <ele>1313.177</ele>
      <time>2021-10-12T19:43:43Z</time>
    </trkpt>
    <trkpt lat="38.605306009" lon="34.955755966">
      <ele>1312.734</ele>
      <time>2021-10-12T19:43:45Z</time>
    </trkpt>
    <trkpt lat="38.60530802" lon="34.955797037">
      <ele>1312.283</ele>
      <time>2021-10-12T19:43:46Z</time>
    </trkpt>
    <trkpt lat="38.605306009" lon="34.955840036">
      <ele>1311.85</ele>
      <time>2021-10-12T19:43:47Z</time>
    </trkpt>
    <trkpt lat="38.605307015" lon="34.95588203">
      <ele>1311.544</ele>
      <time>2021-10-12T19:43:48Z</time>
    </trkpt>
    <trkpt lat="38.60531196" lon="34.955922011">
      <ele>1311.238</ele>
      <time>2021-10-12T19:43:49Z</time>
    </trkpt>
    <trkpt lat="38.605311038" lon="34.955961993">
      <ele>1310.954</ele>
      <time>2021-10-12T19:43:51Z</time>
    </trkpt>
    <trkpt lat="38.605307015" lon="34.956004992">
      <ele>1310.659</ele>
      <time>2021-10-12T19:43:52Z</time>
    </trkpt>
    <trkpt lat="38.605307015" lon="34.956086967">
      <ele>1310.069</ele>
      <time>2021-10-12T19:43:54Z</time>
    </trkpt>
    <trkpt lat="38.605302991" lon="34.95612896">
      <ele>1309.851</ele>
      <time>2021-10-12T19:43:55Z</time>
    </trkpt>
    <trkpt lat="38.605301986" lon="34.95616802">
      <ele>1309.726</ele>
      <time>2021-10-12T19:43:57Z</time>
    </trkpt>
    <trkpt lat="38.605301986" lon="34.95620599">
      <ele>1309.601</ele>
      <time>2021-10-12T19:43:58Z</time>
    </trkpt>
    <trkpt lat="38.605306009" lon="34.956243038">
      <ele>1309.472</ele>
      <time>2021-10-12T19:43:59Z</time>
    </trkpt>
    <trkpt lat="38.605313972" lon="34.956358038">
      <ele>1309.097</ele>
      <time>2021-10-12T19:44:02Z</time>
    </trkpt>
    <trkpt lat="38.605323024" lon="34.956482006">
      <ele>1309.616</ele>
      <time>2021-10-12T19:44:06Z</time>
    </trkpt>
    <trkpt lat="38.605363006" lon="34.956603041">
      <ele>1310.305</ele>
      <time>2021-10-12T19:44:10Z</time>
    </trkpt>
    <trkpt lat="38.605414974" lon="34.956706977">
      <ele>1310.649</ele>
      <time>2021-10-12T19:44:13Z</time>
    </trkpt>
    <trkpt lat="38.605455961" lon="34.956770008">
      <ele>1310.836</ele>
      <time>2021-10-12T19:44:15Z</time>
    </trkpt>
    <trkpt lat="38.605473982" lon="34.956804961">
      <ele>1310.997</ele>
      <time>2021-10-12T19:44:17Z</time>
    </trkpt>
    <trkpt lat="38.605493009" lon="34.956835974">
      <ele>1311.17</ele>
      <time>2021-10-12T19:44:18Z</time>
    </trkpt>
    <trkpt lat="38.60551103" lon="34.956864975">
      <ele>1311.359</ele>
      <time>2021-10-12T19:44:19Z</time>
    </trkpt>
    <trkpt lat="38.605536008" lon="34.956894983">
      <ele>1311.599</ele>
      <time>2021-10-12T19:44:20Z</time>
    </trkpt>
    <trkpt lat="38.60555998" lon="34.95692499">
      <ele>1311.86</ele>
      <time>2021-10-12T19:44:21Z</time>
    </trkpt>
    <trkpt lat="38.605584959" lon="34.956954997">
      <ele>1312.038</ele>
      <time>2021-10-12T19:44:23Z</time>
    </trkpt>
    <trkpt lat="38.605608009" lon="34.956983998">
      <ele>1312.142</ele>
      <time>2021-10-12T19:44:24Z</time>
    </trkpt>
    <trkpt lat="38.605630975" lon="34.957006965">
      <ele>1312.225</ele>
      <time>2021-10-12T19:44:25Z</time>
    </trkpt>
    <trkpt lat="38.605654025" lon="34.957028003">
      <ele>1312.301</ele>
      <time>2021-10-12T19:44:26Z</time>
    </trkpt>
    <trkpt lat="38.605679004" lon="34.957049964">
      <ele>1312.38</ele>
      <time>2021-10-12T19:44:27Z</time>
    </trkpt>
    <trkpt lat="38.605711022" lon="34.957078965">
      <ele>1312.484</ele>
      <time>2021-10-12T19:44:29Z</time>
    </trkpt>
    <trkpt lat="38.605734995" lon="34.957103021">
      <ele>1312.571</ele>
      <time>2021-10-12T19:44:30Z</time>
    </trkpt>
    <trkpt lat="38.605758967" lon="34.957124982">
      <ele>1312.65</ele>
      <time>2021-10-12T19:44:31Z</time>
    </trkpt>
    <trkpt lat="38.605782017" lon="34.957147026">
      <ele>1312.729</ele>
      <time>2021-10-12T19:44:32Z</time>
    </trkpt>
    <trkpt lat="38.605802972" lon="34.95716597">
      <ele>1312.797</ele>
      <time>2021-10-12T19:44:33Z</time>
    </trkpt>
    <trkpt lat="38.605829962" lon="34.957184996">
      <ele>1312.866</ele>
      <time>2021-10-12T19:44:34Z</time>
    </trkpt>
    <trkpt lat="38.605854018" lon="34.957203018">
      <ele>1312.926</ele>
      <time>2021-10-12T19:44:35Z</time>
    </trkpt>
    <trkpt lat="38.605878996" lon="34.957221961">
      <ele>1312.999</ele>
      <time>2021-10-12T19:44:36Z</time>
    </trkpt>
    <trkpt lat="38.60590498" lon="34.957241993">
      <ele>1312.982</ele>
      <time>2021-10-12T19:44:37Z</time>
    </trkpt>
    <trkpt lat="38.605930042" lon="34.95726102">
      <ele>1312.951</ele>
      <time>2021-10-12T19:44:38Z</time>
    </trkpt>
    <trkpt lat="38.60595502" lon="34.957282981">
      <ele>1312.904</ele>
      <time>2021-10-12T19:44:39Z</time>
    </trkpt>
    <trkpt lat="38.605982009" lon="34.957307037">
      <ele>1312.837</ele>
      <time>2021-10-12T19:44:41Z</time>
    </trkpt>
    <trkpt lat="38.606008999" lon="34.957330003">
      <ele>1312.755</ele>
      <time>2021-10-12T19:44:42Z</time>
    </trkpt>
    <trkpt lat="38.606032971" lon="34.957350036">
      <ele>1312.669</ele>
      <time>2021-10-12T19:44:43Z</time>
    </trkpt>
    <trkpt lat="38.606059961" lon="34.957367973">
      <ele>1312.572</ele>
      <time>2021-10-12T19:44:44Z</time>
    </trkpt>
    <trkpt lat="38.606083011" lon="34.957387">
      <ele>1312.467</ele>
      <time>2021-10-12T19:44:45Z</time>
    </trkpt>
    <trkpt lat="38.606110001" lon="34.957407033">
      <ele>1312.337</ele>
      <time>2021-10-12T19:44:46Z</time>
    </trkpt>
    <trkpt lat="38.606132967" lon="34.957429999">
      <ele>1312.134</ele>
      <time>2021-10-12T19:44:47Z</time>
    </trkpt>
    <trkpt lat="38.606159035" lon="34.957452966">
      <ele>1311.938</ele>
      <time>2021-10-12T19:44:48Z</time>
    </trkpt>
    <trkpt lat="38.606205974" lon="34.957502">
      <ele>1311.656</ele>
      <time>2021-10-12T19:44:51Z</time>
    </trkpt>
    <trkpt lat="38.606235981" lon="34.957527984">
      <ele>1311.505</ele>
      <time>2021-10-12T19:44:52Z</time>
    </trkpt>
    <trkpt lat="38.606264982" lon="34.957554974">
      <ele>1311.336</ele>
      <time>2021-10-12T19:44:53Z</time>
    </trkpt>
    <trkpt lat="38.606290966" lon="34.957581963">
      <ele>1311.161</ele>
      <time>2021-10-12T19:44:55Z</time>
    </trkpt>
    <trkpt lat="38.606315022" lon="34.957610965">
      <ele>1310.973</ele>
      <time>2021-10-12T19:44:56Z</time>
    </trkpt>
    <trkpt lat="38.606344024" lon="34.957639966">
      <ele>1310.739</ele>
      <time>2021-10-12T19:44:57Z</time>
    </trkpt>
    <trkpt lat="38.606375037" lon="34.957671985">
      <ele>1310.462</ele>
      <time>2021-10-12T19:44:59Z</time>
    </trkpt>
    <trkpt lat="38.606402026" lon="34.957697969">
      <ele>1310.166</ele>
      <time>2021-10-12T19:45:00Z</time>
    </trkpt>
    <trkpt lat="38.606427005" lon="34.957724959">
      <ele>1309.864</ele>
      <time>2021-10-12T19:45:01Z</time>
    </trkpt>
    <trkpt lat="38.606456006" lon="34.957750021">
      <ele>1309.568</ele>
      <time>2021-10-12T19:45:02Z</time>
    </trkpt>
    <trkpt lat="38.606484002" lon="34.957778016">
      <ele>1309.315</ele>
      <time>2021-10-12T19:45:04Z</time>
    </trkpt>
    <trkpt lat="38.606510991" lon="34.957802994">
      <ele>1309.121</ele>
      <time>2021-10-12T19:45:05Z</time>
    </trkpt>
    <trkpt lat="38.606534963" lon="34.957827972">
      <ele>1308.948</ele>
      <time>2021-10-12T19:45:06Z</time>
    </trkpt>
    <trkpt lat="38.606557008" lon="34.957852028">
      <ele>1308.79</ele>
      <time>2021-10-12T19:45:07Z</time>
    </trkpt>
    <trkpt lat="38.606579974" lon="34.957879018">
      <ele>1308.624</ele>
      <time>2021-10-12T19:45:08Z</time>
    </trkpt>
    <trkpt lat="38.606603025" lon="34.957907014">
      <ele>1308.458</ele>
      <time>2021-10-12T19:45:10Z</time>
    </trkpt>
    <trkpt lat="38.606624985" lon="34.957936015">
      <ele>1308.3</ele>
      <time>2021-10-12T19:45:11Z</time>
    </trkpt>
    <trkpt lat="38.606649963" lon="34.957966022">
      <ele>1308.12</ele>
      <time>2021-10-12T19:45:12Z</time>
    </trkpt>
    <trkpt lat="38.606674019" lon="34.957996029">
      <ele>1307.894</ele>
      <time>2021-10-12T19:45:13Z</time>
    </trkpt>
    <trkpt lat="38.606696986" lon="34.958026959">
      <ele>1307.563</ele>
      <time>2021-10-12T19:45:14Z</time>
    </trkpt>
    <trkpt lat="38.606718024" lon="34.95805596">
      <ele>1307.262</ele>
      <time>2021-10-12T19:45:16Z</time>
    </trkpt>
    <trkpt lat="38.606740991" lon="34.958084039">
      <ele>1307.005</ele>
      <time>2021-10-12T19:45:17Z</time>
    </trkpt>
    <trkpt lat="38.606763035" lon="34.958113963">
      <ele>1306.75</ele>
      <time>2021-10-12T19:45:18Z</time>
    </trkpt>
    <trkpt lat="38.606782984" lon="34.958141036">
      <ele>1306.504</ele>
      <time>2021-10-12T19:45:19Z</time>
    </trkpt>
    <trkpt lat="38.606801005" lon="34.958170038">
      <ele>1306.278</ele>
      <time>2021-10-12T19:45:20Z</time>
    </trkpt>
    <trkpt lat="38.606817015" lon="34.95819401">
      <ele>1306.064</ele>
      <time>2021-10-12T19:45:21Z</time>
    </trkpt>
    <trkpt lat="38.606848028" lon="34.958243966">
      <ele>1305.624</ele>
      <time>2021-10-12T19:45:23Z</time>
    </trkpt>
    <trkpt lat="38.606884992" lon="34.958306998">
      <ele>1305.05</ele>
      <time>2021-10-12T19:45:25Z</time>
    </trkpt>
    <trkpt lat="38.606903013" lon="34.958342034">
      <ele>1304.719</ele>
      <time>2021-10-12T19:45:26Z</time>
    </trkpt>
    <trkpt lat="38.606921034" lon="34.958377993">
      <ele>1304.274</ele>
      <time>2021-10-12T19:45:28Z</time>
    </trkpt>
    <trkpt lat="38.606938971" lon="34.958416969">
      <ele>1303.803</ele>
      <time>2021-10-12T19:45:29Z</time>
    </trkpt>
    <trkpt lat="38.606953975" lon="34.958456028">
      <ele>1303.269</ele>
      <time>2021-10-12T19:45:30Z</time>
    </trkpt>
    <trkpt lat="38.606966967" lon="34.95849601">
      <ele>1302.718</ele>
      <time>2021-10-12T19:45:31Z</time>
    </trkpt>
    <trkpt lat="38.606980965" lon="34.958535992">
      <ele>1302.123</ele>
      <time>2021-10-12T19:45:33Z</time>
    </trkpt>
    <trkpt lat="38.606988005" lon="34.958576979">
      <ele>1301.731</ele>
      <time>2021-10-12T19:45:34Z</time>
    </trkpt>
    <trkpt lat="38.606992029" lon="34.958616961">
      <ele>1301.402</ele>
      <time>2021-10-12T19:45:35Z</time>
    </trkpt>
    <trkpt lat="38.606996974" lon="34.958659038">
      <ele>1300.846</ele>
      <time>2021-10-12T19:45:36Z</time>
    </trkpt>
    <trkpt lat="38.60699798" lon="34.958697008">
      <ele>1300.457</ele>
      <time>2021-10-12T19:45:37Z</time>
    </trkpt>
    <trkpt lat="38.606999991" lon="34.958735984">
      <ele>1300.031</ele>
      <time>2021-10-12T19:45:39Z</time>
    </trkpt>
    <trkpt lat="38.606995968" lon="34.958776971">
      <ele>1299.761</ele>
      <time>2021-10-12T19:45:40Z</time>
    </trkpt>
    <trkpt lat="38.606988005" lon="34.958817037">
      <ele>1299.597</ele>
      <time>2021-10-12T19:45:41Z</time>
    </trkpt>
    <trkpt lat="38.60698197" lon="34.958855007">
      <ele>1299.387</ele>
      <time>2021-10-12T19:45:42Z</time>
    </trkpt>
    <trkpt lat="38.606975013" lon="34.958892977">
      <ele>1299.186</ele>
      <time>2021-10-12T19:45:43Z</time>
    </trkpt>
    <trkpt lat="38.606973002" lon="34.958930025">
      <ele>1298.836</ele>
      <time>2021-10-12T19:45:44Z</time>
    </trkpt>
    <trkpt lat="38.606963027" lon="34.958969001">
      <ele>1298.667</ele>
      <time>2021-10-12T19:45:46Z</time>
    </trkpt>
    <trkpt lat="38.606955986" lon="34.959009988">
      <ele>1298.401</ele>
      <time>2021-10-12T19:45:47Z</time>
    </trkpt>
    <trkpt lat="38.606951963" lon="34.959047036">
      <ele>1298.103</ele>
      <time>2021-10-12T19:45:48Z</time>
    </trkpt>
    <trkpt lat="38.606947018" lon="34.959090035">
      <ele>1297.763</ele>
      <time>2021-10-12T19:45:49Z</time>
    </trkpt>
    <trkpt lat="38.606947018" lon="34.959130017">
      <ele>1297.331</ele>
      <time>2021-10-12T19:45:50Z</time>
    </trkpt>
    <trkpt lat="38.606946012" lon="34.959166981">
      <ele>1296.958</ele>
      <time>2021-10-12T19:45:51Z</time>
    </trkpt>
    <trkpt lat="38.606939977" lon="34.959206963">
      <ele>1296.832</ele>
      <time>2021-10-12T19:45:52Z</time>
    </trkpt>
    <trkpt lat="38.606942995" lon="34.959322968">
      <ele>1295.908</ele>
      <time>2021-10-12T19:45:56Z</time>
    </trkpt>
    <trkpt lat="38.606942995" lon="34.959444003">
      <ele>1295.029</ele>
      <time>2021-10-12T19:45:59Z</time>
    </trkpt>
    <trkpt lat="38.606939977" lon="34.95956202">
      <ele>1293.797</ele>
      <time>2021-10-12T19:46:03Z</time>
    </trkpt>
    <trkpt lat="38.60693696" lon="34.959604014">
      <ele>1293.38</ele>
      <time>2021-10-12T19:46:04Z</time>
    </trkpt>
    <trkpt lat="38.606934026" lon="34.959643995">
      <ele>1292.978</ele>
      <time>2021-10-12T19:46:05Z</time>
    </trkpt>
    <trkpt lat="38.60693696" lon="34.959682971">
      <ele>1292.512</ele>
      <time>2021-10-12T19:46:06Z</time>
    </trkpt>
    <trkpt lat="38.606934026" lon="34.95972597">
      <ele>1292.072</ele>
      <time>2021-10-12T19:46:08Z</time>
    </trkpt>
    <trkpt lat="38.606936038" lon="34.959767964">
      <ele>1291.597</ele>
      <time>2021-10-12T19:46:09Z</time>
    </trkpt>
    <trkpt lat="38.606926985" lon="34.959900985">
      <ele>1290.258</ele>
      <time>2021-10-12T19:46:13Z</time>
    </trkpt>
    <trkpt lat="38.606924973" lon="34.959943984">
      <ele>1289.815</ele>
      <time>2021-10-12T19:46:14Z</time>
    </trkpt>
    <trkpt lat="38.606921034" lon="34.959987989">
      <ele>1289.383</ele>
      <time>2021-10-12T19:46:15Z</time>
    </trkpt>
    <trkpt lat="38.606919022" lon="34.960028976">
      <ele>1288.962</ele>
      <time>2021-10-12T19:46:16Z</time>
    </trkpt>
    <trkpt lat="38.60692204" lon="34.960069964">
      <ele>1288.486</ele>
      <time>2021-10-12T19:46:18Z</time>
    </trkpt>
    <trkpt lat="38.60692204" lon="34.960112963">
      <ele>1288.022</ele>
      <time>2021-10-12T19:46:19Z</time>
    </trkpt>
    <trkpt lat="38.606917011" lon="34.960202985">
      <ele>1287.104</ele>
      <time>2021-10-12T19:46:21Z</time>
    </trkpt>
    <trkpt lat="38.60690997" lon="34.960328965">
      <ele>1285.981</ele>
      <time>2021-10-12T19:46:25Z</time>
    </trkpt>
    <trkpt lat="38.606890021" lon="34.960458968">
      <ele>1285.155</ele>
      <time>2021-10-12T19:46:29Z</time>
    </trkpt>
    <trkpt lat="38.606869988" lon="34.960590983">
      <ele>1284.374</ele>
      <time>2021-10-12T19:46:33Z</time>
    </trkpt>
    <trkpt lat="38.60685599" lon="34.960724004">
      <ele>1283.837</ele>
      <time>2021-10-12T19:46:37Z</time>
    </trkpt>
    <trkpt lat="38.606850039" lon="34.960772032">
      <ele>1283.636</ele>
      <time>2021-10-12T19:46:38Z</time>
    </trkpt>
    <trkpt lat="38.606837969" lon="34.960818971">
      <ele>1283.455</ele>
      <time>2021-10-12T19:46:40Z</time>
    </trkpt>
    <trkpt lat="38.606831012" lon="34.960863981">
      <ele>1283.388</ele>
      <time>2021-10-12T19:46:41Z</time>
    </trkpt>
    <trkpt lat="38.606822966" lon="34.960958026">
      <ele>1283.381</ele>
      <time>2021-10-12T19:46:44Z</time>
    </trkpt>
    <trkpt lat="38.606823971" lon="34.961005971">
      <ele>1283.351</ele>
      <time>2021-10-12T19:46:45Z</time>
    </trkpt>
    <trkpt lat="38.606831012" lon="34.961049976">
      <ele>1283.265</ele>
      <time>2021-10-12T19:46:46Z</time>
    </trkpt>
    <trkpt lat="38.606840987" lon="34.961182997">
      <ele>1282.6</ele>
      <time>2021-10-12T19:46:50Z</time>
    </trkpt>
    <trkpt lat="38.606841993" lon="34.96122499">
      <ele>1282.287</ele>
      <time>2021-10-12T19:46:52Z</time>
    </trkpt>
    <trkpt lat="38.606846016" lon="34.961270001">
      <ele>1281.919</ele>
      <time>2021-10-12T19:46:53Z</time>
    </trkpt>
    <trkpt lat="38.606863031" lon="34.961355999">
      <ele>1281.116</ele>
      <time>2021-10-12T19:46:55Z</time>
    </trkpt>
    <trkpt lat="38.606870994" lon="34.961397992">
      <ele>1280.743</ele>
      <time>2021-10-12T19:46:57Z</time>
    </trkpt>
    <trkpt lat="38.606876023" lon="34.961443003">
      <ele>1280.448</ele>
      <time>2021-10-12T19:46:58Z</time>
    </trkpt>
    <trkpt lat="38.606884992" lon="34.961486002">
      <ele>1280.143</ele>
      <time>2021-10-12T19:46:59Z</time>
    </trkpt>
    <trkpt lat="38.606895972" lon="34.961530007">
      <ele>1279.838</ele>
      <time>2021-10-12T19:47:01Z</time>
    </trkpt>
    <trkpt lat="38.606907958" lon="34.961570995">
      <ele>1279.566</ele>
      <time>2021-10-12T19:47:02Z</time>
    </trkpt>
    <trkpt lat="38.606919022" lon="34.961608965">
      <ele>1279.337</ele>
      <time>2021-10-12T19:47:03Z</time>
    </trkpt>
    <trkpt lat="38.606934026" lon="34.961647019">
      <ele>1279.114</ele>
      <time>2021-10-12T19:47:04Z</time>
    </trkpt>
    <trkpt lat="38.606975013" lon="34.96171399">
      <ele>1278.026</ele>
      <time>2021-10-12T19:47:07Z</time>
    </trkpt>
    <trkpt lat="38.60699798" lon="34.961748021">
      <ele>1277.363</ele>
      <time>2021-10-12T19:47:08Z</time>
    </trkpt>
    <trkpt lat="38.607022036" lon="34.961777022">
      <ele>1276.795</ele>
      <time>2021-10-12T19:47:09Z</time>
    </trkpt>
    <trkpt lat="38.607050031" lon="34.961803006">
      <ele>1276.27</ele>
      <time>2021-10-12T19:47:11Z</time>
    </trkpt>
    <trkpt lat="38.607077021" lon="34.961824967">
      <ele>1275.833</ele>
      <time>2021-10-12T19:47:12Z</time>
    </trkpt>
    <trkpt lat="38.607108034" lon="34.961851034">
      <ele>1275.36</ele>
      <time>2021-10-12T19:47:13Z</time>
    </trkpt>
    <trkpt lat="38.607139969" lon="34.961872995">
      <ele>1274.963</ele>
      <time>2021-10-12T19:47:14Z</time>
    </trkpt>
    <trkpt lat="38.607166959" lon="34.96189001">
      <ele>1274.669</ele>
      <time>2021-10-12T19:47:16Z</time>
    </trkpt>
    <trkpt lat="38.607196966" lon="34.961905014">
      <ele>1274.401</ele>
      <time>2021-10-12T19:47:17Z</time>
    </trkpt>
    <trkpt lat="38.607230997" lon="34.961920017">
      <ele>1274.142</ele>
      <time>2021-10-12T19:47:18Z</time>
    </trkpt>
    <trkpt lat="38.60726201" lon="34.961937033">
      <ele>1273.906</ele>
      <time>2021-10-12T19:47:19Z</time>
    </trkpt>
    <trkpt lat="38.607295034" lon="34.961955976">
      <ele>1273.696</ele>
      <time>2021-10-12T19:47:21Z</time>
    </trkpt>
    <trkpt lat="38.607324036" lon="34.96197802">
      <ele>1273.513</ele>
      <time>2021-10-12T19:47:22Z</time>
    </trkpt>
    <trkpt lat="38.607356977" lon="34.962002998">
      <ele>1273.304</ele>
      <time>2021-10-12T19:47:23Z</time>
    </trkpt>
    <trkpt lat="38.607390001" lon="34.96202697">
      <ele>1273.099</ele>
      <time>2021-10-12T19:47:25Z</time>
    </trkpt>
    <trkpt lat="38.607420009" lon="34.962049015">
      <ele>1272.912</ele>
      <time>2021-10-12T19:47:26Z</time>
    </trkpt>
    <trkpt lat="38.607453033" lon="34.962073993">
      <ele>1272.703</ele>
      <time>2021-10-12T19:47:27Z</time>
    </trkpt>
    <trkpt lat="38.607484968" lon="34.962100983">
      <ele>1272.491</ele>
      <time>2021-10-12T19:47:29Z</time>
    </trkpt>
    <trkpt lat="38.607515981" lon="34.962121015">
      <ele>1272.192</ele>
      <time>2021-10-12T19:47:30Z</time>
    </trkpt>
    <trkpt lat="38.607546994" lon="34.962139037">
      <ele>1271.792</ele>
      <time>2021-10-12T19:47:31Z</time>
    </trkpt>
    <trkpt lat="38.60757499" lon="34.962152028">
      <ele>1271.443</ele>
      <time>2021-10-12T19:47:33Z</time>
    </trkpt>
    <trkpt lat="38.607602986" lon="34.962160997">
      <ele>1271.108</ele>
      <time>2021-10-12T19:47:34Z</time>
    </trkpt>
    <trkpt lat="38.607627964" lon="34.962167032">
      <ele>1270.817</ele>
      <time>2021-10-12T19:47:35Z</time>
    </trkpt>
    <trkpt lat="38.607654031" lon="34.962171977">
      <ele>1270.517</ele>
      <time>2021-10-12T19:47:36Z</time>
    </trkpt>
    <trkpt lat="38.607684039" lon="34.96218103">
      <ele>1270.161</ele>
      <time>2021-10-12T19:47:37Z</time>
    </trkpt>
    <trkpt lat="38.607712034" lon="34.962189998">
      <ele>1269.826</ele>
      <time>2021-10-12T19:47:38Z</time>
    </trkpt>
    <trkpt lat="38.607742041" lon="34.962197961">
      <ele>1269.473</ele>
      <time>2021-10-12T19:47:39Z</time>
    </trkpt>
    <trkpt lat="38.607768025" lon="34.962211959">
      <ele>1269.142</ele>
      <time>2021-10-12T19:47:40Z</time>
    </trkpt>
    <trkpt lat="38.607796021" lon="34.962231992">
      <ele>1268.669</ele>
      <time>2021-10-12T19:47:41Z</time>
    </trkpt>
    <trkpt lat="38.607822005" lon="34.96225303">
      <ele>1268.159</ele>
      <time>2021-10-12T19:47:42Z</time>
    </trkpt>
    <trkpt lat="38.60785" lon="34.962277003">
      <ele>1267.617</ele>
      <time>2021-10-12T19:47:43Z</time>
    </trkpt>
    <trkpt lat="38.607875984" lon="34.962301981">
      <ele>1267.113</ele>
      <time>2021-10-12T19:47:45Z</time>
    </trkpt>
    <trkpt lat="38.60790398" lon="34.962331988">
      <ele>1266.572</ele>
      <time>2021-10-12T19:47:46Z</time>
    </trkpt>
    <trkpt lat="38.607951002" lon="34.962385967">
      <ele>1265.694</ele>
      <time>2021-10-12T19:47:48Z</time>
    </trkpt>
    <trkpt lat="38.607980004" lon="34.962406">
      <ele>1265.246</ele>
      <time>2021-10-12T19:47:50Z</time>
    </trkpt>
    <trkpt lat="38.608013028" lon="34.962424021">
      <ele>1264.775</ele>
      <time>2021-10-12T19:47:51Z</time>
    </trkpt>
    <trkpt lat="38.608044041" lon="34.962440031">
      <ele>1264.349</ele>
      <time>2021-10-12T19:47:52Z</time>
    </trkpt>
    <trkpt lat="38.608074971" lon="34.962452017">
      <ele>1263.893</ele>
      <time>2021-10-12T19:47:53Z</time>
    </trkpt>
    <trkpt lat="38.608107995" lon="34.962457968">
      <ele>1263.396</ele>
      <time>2021-10-12T19:47:55Z</time>
    </trkpt>
    <trkpt lat="38.608140014" lon="34.962458974">
      <ele>1262.931</ele>
      <time>2021-10-12T19:47:56Z</time>
    </trkpt>
    <trkpt lat="38.608173961" lon="34.962457968">
      <ele>1262.446</ele>
      <time>2021-10-12T19:47:57Z</time>
    </trkpt>
    <trkpt lat="38.608211009" lon="34.962455034">
      <ele>1261.923</ele>
      <time>2021-10-12T19:47:58Z</time>
    </trkpt>
    <trkpt lat="38.608245961" lon="34.962446988">
      <ele>1261.449</ele>
      <time>2021-10-12T19:48:00Z</time>
    </trkpt>
    <trkpt lat="38.608282004" lon="34.962436007">
      <ele>1260.97</ele>
      <time>2021-10-12T19:48:01Z</time>
    </trkpt>
    <trkpt lat="38.608317962" lon="34.962428967">
      <ele>1260.477</ele>
      <time>2021-10-12T19:48:02Z</time>
    </trkpt>
    <trkpt lat="38.608354004" lon="34.962423015">
      <ele>1260.033</ele>
      <time>2021-10-12T19:48:04Z</time>
    </trkpt>
    <trkpt lat="38.608390968" lon="34.962419998">
      <ele>1259.606</ele>
      <time>2021-10-12T19:48:05Z</time>
    </trkpt>
    <trkpt lat="38.608424999" lon="34.962418992">
      <ele>1259.205</ele>
      <time>2021-10-12T19:48:06Z</time>
    </trkpt>
    <trkpt lat="38.608459029" lon="34.96241698">
      <ele>1258.806</ele>
      <time>2021-10-12T19:48:08Z</time>
    </trkpt>
    <trkpt lat="38.608490964" lon="34.96241698">
      <ele>1258.427</ele>
      <time>2021-10-12T19:48:09Z</time>
    </trkpt>
    <trkpt lat="38.608526001" lon="34.962415975">
      <ele>1258.012</ele>
      <time>2021-10-12T19:48:10Z</time>
    </trkpt>
    <trkpt lat="38.608560031" lon="34.962417986">
      <ele>1257.606</ele>
      <time>2021-10-12T19:48:11Z</time>
    </trkpt>
    <trkpt lat="38.608591966" lon="34.962421004">
      <ele>1257.226</ele>
      <time>2021-10-12T19:48:13Z</time>
    </trkpt>
    <trkpt lat="38.608624991" lon="34.962428967">
      <ele>1256.887</ele>
      <time>2021-10-12T19:48:14Z</time>
    </trkpt>
    <trkpt lat="38.60865701" lon="34.962437013">
      <ele>1256.632</ele>
      <time>2021-10-12T19:48:15Z</time>
    </trkpt>
    <trkpt lat="38.608690035" lon="34.962446988">
      <ele>1256.378</ele>
      <time>2021-10-12T19:48:16Z</time>
    </trkpt>
    <trkpt lat="38.60872197" lon="34.96245604">
      <ele>1256.139</ele>
      <time>2021-10-12T19:48:18Z</time>
    </trkpt>
    <trkpt lat="38.608750971" lon="34.962466015">
      <ele>1255.931</ele>
      <time>2021-10-12T19:48:19Z</time>
    </trkpt>
    <trkpt lat="38.608787013" lon="34.962471966">
      <ele>1255.67</ele>
      <time>2021-10-12T19:48:20Z</time>
    </trkpt>
    <trkpt lat="38.608824983" lon="34.962474983">
      <ele>1255.391</ele>
      <time>2021-10-12T19:48:21Z</time>
    </trkpt>
    <trkpt lat="38.608863037" lon="34.962472972">
      <ele>1255.098</ele>
      <time>2021-10-12T19:48:23Z</time>
    </trkpt>
    <trkpt lat="38.608898995" lon="34.96246702">
      <ele>1254.776</ele>
      <time>2021-10-12T19:48:24Z</time>
    </trkpt>
    <trkpt lat="38.608931014" lon="34.962457968">
      <ele>1254.417</ele>
      <time>2021-10-12T19:48:25Z</time>
    </trkpt>
    <trkpt lat="38.608967979" lon="34.962445982">
      <ele>1254.007</ele>
      <time>2021-10-12T19:48:27Z</time>
    </trkpt>
    <trkpt lat="38.608998992" lon="34.962431984">
      <ele>1253.663</ele>
      <time>2021-10-12T19:48:28Z</time>
    </trkpt>
    <trkpt lat="38.609028999" lon="34.962413041">
      <ele>1253.332</ele>
      <time>2021-10-12T19:48:29Z</time>
    </trkpt>
    <trkpt lat="38.609058" lon="34.962394014">
      <ele>1253.024</ele>
      <time>2021-10-12T19:48:30Z</time>
    </trkpt>
    <trkpt lat="38.60908499" lon="34.962369036">
      <ele>1252.743</ele>
      <time>2021-10-12T19:48:32Z</time>
    </trkpt>
    <trkpt lat="38.60911198" lon="34.962343974">
      <ele>1252.48</ele>
      <time>2021-10-12T19:48:33Z</time>
    </trkpt>
    <trkpt lat="38.609136036" lon="34.962316984">
      <ele>1252.258</ele>
      <time>2021-10-12T19:48:34Z</time>
    </trkpt>
    <trkpt lat="38.609163025" lon="34.962286977">
      <ele>1252.029</ele>
      <time>2021-10-12T19:48:35Z</time>
    </trkpt>
    <trkpt lat="38.609194038" lon="34.962254958">
      <ele>1251.803</ele>
      <time>2021-10-12T19:48:37Z</time>
    </trkpt>
    <trkpt lat="38.609222034" lon="34.962224029">
      <ele>1251.601</ele>
      <time>2021-10-12T19:48:38Z</time>
    </trkpt>
    <trkpt lat="38.609252041" lon="34.962193016">
      <ele>1251.385</ele>
      <time>2021-10-12T19:48:40Z</time>
    </trkpt>
    <trkpt lat="38.609277019" lon="34.96216502">
      <ele>1251.205</ele>
      <time>2021-10-12T19:48:41Z</time>
    </trkpt>
    <trkpt lat="38.609303003" lon="34.962136019">
      <ele>1251.018</ele>
      <time>2021-10-12T19:48:42Z</time>
    </trkpt>
    <trkpt lat="38.609329993" lon="34.962105006">
      <ele>1250.824</ele>
      <time>2021-10-12T19:48:44Z</time>
    </trkpt>
    <trkpt lat="38.609355977" lon="34.962078016">
      <ele>1250.637</ele>
      <time>2021-10-12T19:48:45Z</time>
    </trkpt>
    <trkpt lat="38.609409034" lon="34.962019008">
      <ele>1250.255</ele>
      <time>2021-10-12T19:48:47Z</time>
    </trkpt>
    <trkpt lat="38.60943703" lon="34.961992018">
      <ele>1250.053</ele>
      <time>2021-10-12T19:48:49Z</time>
    </trkpt>
    <trkpt lat="38.609467959" lon="34.961963017">
      <ele>1249.994</ele>
      <time>2021-10-12T19:48:50Z</time>
    </trkpt>
    <trkpt lat="38.609496038" lon="34.961937033">
      <ele>1250.017</ele>
      <time>2021-10-12T19:48:51Z</time>
    </trkpt>
    <trkpt lat="38.609526968" lon="34.961910965">
      <ele>1250.049</ele>
      <time>2021-10-12T19:48:53Z</time>
    </trkpt>
    <trkpt lat="38.609554963" lon="34.961882969">
      <ele>1250.045</ele>
      <time>2021-10-12T19:48:54Z</time>
    </trkpt>
    <trkpt lat="38.60958497" lon="34.96185598">
      <ele>1249.996</ele>
      <time>2021-10-12T19:48:55Z</time>
    </trkpt>
    <trkpt lat="38.609612966" lon="34.961826978">
      <ele>1249.91</ele>
      <time>2021-10-12T19:48:57Z</time>
    </trkpt>
    <trkpt lat="38.609639034" lon="34.961803006">
      <ele>1249.796</ele>
      <time>2021-10-12T19:48:58Z</time>
    </trkpt>
    <trkpt lat="38.609666023" lon="34.961777022">
      <ele>1249.641</ele>
      <time>2021-10-12T19:48:59Z</time>
    </trkpt>
    <trkpt lat="38.609696031" lon="34.961750032">
      <ele>1249.432</ele>
      <time>2021-10-12T19:49:01Z</time>
    </trkpt>
    <trkpt lat="38.609725032" lon="34.961725976">
      <ele>1249.214</ele>
      <time>2021-10-12T19:49:02Z</time>
    </trkpt>
    <trkpt lat="38.609752022" lon="34.961700998">
      <ele>1249.124</ele>
      <time>2021-10-12T19:49:03Z</time>
    </trkpt>
    <trkpt lat="38.609780017" lon="34.961677026">
      <ele>1249.037</ele>
      <time>2021-10-12T19:49:04Z</time>
    </trkpt>
    <trkpt lat="38.60981103" lon="34.96165297">
      <ele>1248.935</ele>
      <time>2021-10-12T19:49:06Z</time>
    </trkpt>
    <trkpt lat="38.60984196" lon="34.961630004">
      <ele>1248.811</ele>
      <time>2021-10-12T19:49:07Z</time>
    </trkpt>
    <trkpt lat="38.609871967" lon="34.961605025">
      <ele>1248.658</ele>
      <time>2021-10-12T19:49:08Z</time>
    </trkpt>
    <trkpt lat="38.609903986" lon="34.961580969">
      <ele>1248.49</ele>
      <time>2021-10-12T19:49:10Z</time>
    </trkpt>
    <trkpt lat="38.609967583" lon="34.961565012">
      <ele>1248.311</ele>
      <time>2021-10-12T19:49:12Z</time>
    </trkpt>
    <trkpt lat="38.610036583" lon="34.96160333">
      <ele>1248.412</ele>
      <time>2021-10-12T19:49:15Z</time>
    </trkpt>
    <trkpt lat="38.610087914" lon="34.961732854">
      <ele>1248.997</ele>
      <time>2021-10-12T19:49:19Z</time>
    </trkpt>
    <trkpt lat="38.610159008" lon="34.961947045">
      <ele>1250.0</ele>
      <time>2021-10-12T19:49:26Z</time>
    </trkpt>
    <trkpt lat="38.61021492" lon="34.96207404">
      <ele>1250.0</ele>
      <time>2021-10-12T19:49:30Z</time>
    </trkpt>
    <trkpt lat="38.610315464" lon="34.962057625">
      <ele>1249.809</ele>
      <time>2021-10-12T19:49:34Z</time>
    </trkpt>
    <trkpt lat="38.610249839" lon="34.962129186">
      <ele>1250.0</ele>
      <time>2021-10-12T19:49:37Z</time>
    </trkpt>
    <trkpt lat="38.610292838" lon="34.962201786">
      <ele>1249.896</ele>
      <time>2021-10-12T19:49:40Z</time>
    </trkpt>
    <trkpt lat="38.610344522" lon="34.962277072">
      <ele>1249.125</ele>
      <time>2021-10-12T19:49:43Z</time>
    </trkpt>
    <trkpt lat="38.610415159" lon="34.962361816">
      <ele>1248.006</ele>
      <time>2021-10-12T19:49:46Z</time>
    </trkpt>
    <trkpt lat="38.610485942" lon="34.962410424">
      <ele>1247.146</ele>
      <time>2021-10-12T19:49:49Z</time>
    </trkpt>
    <trkpt lat="38.610555008" lon="34.962427039">
      <ele>1246.529</ele>
      <time>2021-10-12T19:49:52Z</time>
    </trkpt>
    <trkpt lat="38.610589961" lon="34.962435002">
      <ele>1246.344</ele>
      <time>2021-10-12T19:49:53Z</time>
    </trkpt>
    <trkpt lat="38.610627009" lon="34.96243299">
      <ele>1246.225</ele>
      <time>2021-10-12T19:49:54Z</time>
    </trkpt>
    <trkpt lat="38.610695992" lon="34.962428967">
      <ele>1246.006</ele>
      <time>2021-10-12T19:49:57Z</time>
    </trkpt>
    <trkpt lat="38.610724993" lon="34.962426033">
      <ele>1245.923</ele>
      <time>2021-10-12T19:49:58Z</time>
    </trkpt>
    <trkpt lat="38.610756006" lon="34.962425027">
      <ele>1245.818</ele>
      <time>2021-10-12T19:49:59Z</time>
    </trkpt>
    <trkpt lat="38.610786013" lon="34.962426033">
      <ele>1245.703</ele>
      <time>2021-10-12T19:50:00Z</time>
    </trkpt>
    <trkpt lat="38.610819038" lon="34.962427039">
      <ele>1245.577</ele>
      <time>2021-10-12T19:50:02Z</time>
    </trkpt>
    <trkpt lat="38.610851979" lon="34.962426033">
      <ele>1245.43</ele>
      <time>2021-10-12T19:50:03Z</time>
    </trkpt>
    <trkpt lat="38.610883998" lon="34.962424021">
      <ele>1245.265</ele>
      <time>2021-10-12T19:50:04Z</time>
    </trkpt>
    <trkpt lat="38.610916017" lon="34.962426033">
      <ele>1245.076</ele>
      <time>2021-10-12T19:50:05Z</time>
    </trkpt>
    <trkpt lat="38.610948035" lon="34.962427039">
      <ele>1244.895</ele>
      <time>2021-10-12T19:50:06Z</time>
    </trkpt>
    <trkpt lat="38.610982988" lon="34.962429972">
      <ele>1244.694</ele>
      <time>2021-10-12T19:50:08Z</time>
    </trkpt>
    <trkpt lat="38.611017019" lon="34.962436007">
      <ele>1244.495</ele>
      <time>2021-10-12T19:50:09Z</time>
    </trkpt>
    <trkpt lat="38.611048032" lon="34.962441958">
      <ele>1244.322</ele>
      <time>2021-10-12T19:50:10Z</time>
    </trkpt>
    <trkpt lat="38.611079967" lon="34.962446988">
      <ele>1244.155</ele>
      <time>2021-10-12T19:50:11Z</time>
    </trkpt>
    <trkpt lat="38.611113997" lon="34.962452017">
      <ele>1243.957</ele>
      <time>2021-10-12T19:50:13Z</time>
    </trkpt>
    <trkpt lat="38.611149034" lon="34.962456962">
      <ele>1243.433</ele>
      <time>2021-10-12T19:50:14Z</time>
    </trkpt>
    <trkpt lat="38.61118298" lon="34.962462997">
      <ele>1242.931</ele>
      <time>2021-10-12T19:50:15Z</time>
    </trkpt>
    <trkpt lat="38.611218017" lon="34.96247096">
      <ele>1242.42</ele>
      <time>2021-10-12T19:50:16Z</time>
    </trkpt>
    <trkpt lat="38.611253975" lon="34.962475989">
      <ele>1241.898</ele>
      <time>2021-10-12T19:50:18Z</time>
    </trkpt>
    <trkpt lat="38.611288005" lon="34.962481018">
      <ele>1241.409</ele>
      <time>2021-10-12T19:50:19Z</time>
    </trkpt>
    <trkpt lat="38.611319019" lon="34.962486969">
      <ele>1240.971</ele>
      <time>2021-10-12T19:50:20Z</time>
    </trkpt>
    <trkpt lat="38.611352965" lon="34.962493004">
      <ele>1240.495</ele>
      <time>2021-10-12T19:50:21Z</time>
    </trkpt>
    <trkpt lat="38.611386996" lon="34.962499961">
      <ele>1240.027</ele>
      <time>2021-10-12T19:50:23Z</time>
    </trkpt>
    <trkpt lat="38.611422032" lon="34.962508008">
      <ele>1239.378</ele>
      <time>2021-10-12T19:50:24Z</time>
    </trkpt>
    <trkpt lat="38.611458996" lon="34.962518988">
      <ele>1238.687</ele>
      <time>2021-10-12T19:50:25Z</time>
    </trkpt>
    <trkpt lat="38.611495038" lon="34.962528041">
      <ele>1238.027</ele>
      <time>2021-10-12T19:50:27Z</time>
    </trkpt>
    <trkpt lat="38.611529991" lon="34.962540027">
      <ele>1237.389</ele>
      <time>2021-10-12T19:50:28Z</time>
    </trkpt>
    <trkpt lat="38.611563016" lon="34.962553019">
      <ele>1236.794</ele>
      <time>2021-10-12T19:50:29Z</time>
    </trkpt>
    <trkpt lat="38.61159604" lon="34.962566011">
      <ele>1236.211</ele>
      <time>2021-10-12T19:50:31Z</time>
    </trkpt>
    <trkpt lat="38.611633005" lon="34.96258202">
      <ele>1235.57</ele>
      <time>2021-10-12T19:50:32Z</time>
    </trkpt>
    <trkpt lat="38.611665023" lon="34.962599035">
      <ele>1235.027</ele>
      <time>2021-10-12T19:50:33Z</time>
    </trkpt>
    <trkpt lat="38.611697964" lon="34.962617978">
      <ele>1234.324</ele>
      <time>2021-10-12T19:50:35Z</time>
    </trkpt>
    <trkpt lat="38.611730989" lon="34.962636">
      <ele>1233.611</ele>
      <time>2021-10-12T19:50:36Z</time>
    </trkpt>
    <trkpt lat="38.611763008" lon="34.962657038">
      <ele>1232.919</ele>
      <time>2021-10-12T19:50:37Z</time>
    </trkpt>
    <trkpt lat="38.611796033" lon="34.962674975">
      <ele>1232.206</ele>
      <time>2021-10-12T19:50:39Z</time>
    </trkpt>
    <trkpt lat="38.611829979" lon="34.962696014">
      <ele>1231.472</ele>
      <time>2021-10-12T19:50:40Z</time>
    </trkpt>
    <trkpt lat="38.611861998" lon="34.962715963">
      <ele>1230.781</ele>
      <time>2021-10-12T19:50:41Z</time>
    </trkpt>
    <trkpt lat="38.61189804" lon="34.962739013">
      <ele>1230.002</ele>
      <time>2021-10-12T19:50:43Z</time>
    </trkpt>
    <trkpt lat="38.611931987" lon="34.962766003">
      <ele>1229.269</ele>
      <time>2021-10-12T19:50:44Z</time>
    </trkpt>
    <trkpt lat="38.611965012" lon="34.962791987">
      <ele>1228.88</ele>
      <time>2021-10-12T19:50:46Z</time>
    </trkpt>
    <trkpt lat="38.611997031" lon="34.962815959">
      <ele>1228.707</ele>
      <time>2021-10-12T19:50:47Z</time>
    </trkpt>
    <trkpt lat="38.61202796" lon="34.962842027">
      <ele>1228.561</ele>
      <time>2021-10-12T19:50:49Z</time>
    </trkpt>
    <trkpt lat="38.612058973" lon="34.962865999">
      <ele>1228.398</ele>
      <time>2021-10-12T19:50:50Z</time>
    </trkpt>
    <trkpt lat="38.612118987" lon="34.962903969">
      <ele>1228.024</ele>
      <time>2021-10-12T19:50:52Z</time>
    </trkpt>
    <trkpt lat="38.612151006" lon="34.962922996">
      <ele>1227.815</ele>
      <time>2021-10-12T19:50:54Z</time>
    </trkpt>
    <trkpt lat="38.612183025" lon="34.962943029">
      <ele>1227.613</ele>
      <time>2021-10-12T19:50:55Z</time>
    </trkpt>
    <trkpt lat="38.612212026" lon="34.96295996">
      <ele>1227.422</ele>
      <time>2021-10-12T19:50:56Z</time>
    </trkpt>
    <trkpt lat="38.612245973" lon="34.962976975">
      <ele>1227.41</ele>
      <time>2021-10-12T19:50:58Z</time>
    </trkpt>
    <trkpt lat="38.612307999" lon="34.96301">
      <ele>1227.621</ele>
      <time>2021-10-12T19:51:00Z</time>
    </trkpt>
    <trkpt lat="38.612338006" lon="34.96302098">
      <ele>1227.699</ele>
      <time>2021-10-12T19:51:01Z</time>
    </trkpt>
    <trkpt lat="38.612372959" lon="34.963028021">
      <ele>1227.748</ele>
      <time>2021-10-12T19:51:03Z</time>
    </trkpt>
    <trkpt lat="38.612411013" lon="34.963031961">
      <ele>1227.772</ele>
      <time>2021-10-12T19:51:04Z</time>
    </trkpt>
    <trkpt lat="38.612444038" lon="34.963034978">
      <ele>1227.793</ele>
      <time>2021-10-12T19:51:05Z</time>
    </trkpt>
    <trkpt lat="38.612477984" lon="34.96303699">
      <ele>1227.805</ele>
      <time>2021-10-12T19:51:06Z</time>
    </trkpt>
    <trkpt lat="38.612514026" lon="34.963035984">
      <ele>1227.54</ele>
      <time>2021-10-12T19:51:08Z</time>
    </trkpt>
    <trkpt lat="38.612547973" lon="34.963032966">
      <ele>1226.907</ele>
      <time>2021-10-12T19:51:09Z</time>
    </trkpt>
    <trkpt lat="38.612580998" lon="34.963027015">
      <ele>1226.264</ele>
      <time>2021-10-12T19:51:10Z</time>
    </trkpt>
    <trkpt lat="38.612616034" lon="34.963015029">
      <ele>1225.535</ele>
      <time>2021-10-12T19:51:12Z</time>
    </trkpt>
    <trkpt lat="38.612649981" lon="34.963004971">
      <ele>1224.852</ele>
      <time>2021-10-12T19:51:13Z</time>
    </trkpt>
    <trkpt lat="38.612685017" lon="34.962992985">
      <ele>1224.144</ele>
      <time>2021-10-12T19:51:14Z</time>
    </trkpt>
    <trkpt lat="38.61271997" lon="34.962980999">
      <ele>1223.448</ele>
      <time>2021-10-12T19:51:16Z</time>
    </trkpt>
    <trkpt lat="38.612758024" lon="34.962970018">
      <ele>1222.718</ele>
      <time>2021-10-12T19:51:17Z</time>
    </trkpt>
    <trkpt lat="38.612794988" lon="34.962962978">
      <ele>1222.23</ele>
      <time>2021-10-12T19:51:18Z</time>
    </trkpt>
    <trkpt lat="38.612832036" lon="34.962958032">
      <ele>1221.976</ele>
      <time>2021-10-12T19:51:20Z</time>
    </trkpt>
    <trkpt lat="38.612871012" lon="34.962956021">
      <ele>1221.732</ele>
      <time>2021-10-12T19:51:21Z</time>
    </trkpt>
    <trkpt lat="38.612909988" lon="34.962957026">
      <ele>1221.508</ele>
      <time>2021-10-12T19:51:23Z</time>
    </trkpt>
    <trkpt lat="38.612948963" lon="34.96295996">
      <ele>1221.291</ele>
      <time>2021-10-12T19:51:24Z</time>
    </trkpt>
    <trkpt lat="38.612982994" lon="34.962965995">
      <ele>1221.116</ele>
      <time>2021-10-12T19:51:25Z</time>
    </trkpt>
    <trkpt lat="38.613016019" lon="34.962974964">
      <ele>1220.953</ele>
      <time>2021-10-12T19:51:27Z</time>
    </trkpt>
    <trkpt lat="38.613049965" lon="34.962987034">
      <ele>1220.789</ele>
      <time>2021-10-12T19:51:28Z</time>
    </trkpt>
    <trkpt lat="38.613083996" lon="34.962998014">
      <ele>1220.832</ele>
      <time>2021-10-12T19:51:29Z</time>
    </trkpt>
    <trkpt lat="38.613116015" lon="34.963006983">
      <ele>1220.929</ele>
      <time>2021-10-12T19:51:30Z</time>
    </trkpt>
    <trkpt lat="38.613146022" lon="34.963011006">
      <ele>1221.009</ele>
      <time>2021-10-12T19:51:32Z</time>
    </trkpt>
    <trkpt lat="38.613178041" lon="34.963017041">
      <ele>1221.119</ele>
      <time>2021-10-12T19:51:33Z</time>
    </trkpt>
    <trkpt lat="38.613212993" lon="34.963019975">
      <ele>1221.221</ele>
      <time>2021-10-12T19:51:34Z</time>
    </trkpt>
    <trkpt lat="38.613247024" lon="34.963026009">
      <ele>1221.363</ele>
      <time>2021-10-12T19:51:35Z</time>
    </trkpt>
    <trkpt lat="38.613278037" lon="34.963030033">
      <ele>1221.488</ele>
      <time>2021-10-12T19:51:36Z</time>
    </trkpt>
    <trkpt lat="38.613311984" lon="34.963031961">
      <ele>1221.603</ele>
      <time>2021-10-12T19:51:38Z</time>
    </trkpt>
    <trkpt lat="38.613340985" lon="34.963033972">
      <ele>1221.66</ele>
      <time>2021-10-12T19:51:39Z</time>
    </trkpt>
    <trkpt lat="38.613371998" lon="34.963032966">
      <ele>1221.524</ele>
      <time>2021-10-12T19:51:40Z</time>
    </trkpt>
    <trkpt lat="38.613405023" lon="34.963029027">
      <ele>1221.335</ele>
      <time>2021-10-12T19:51:41Z</time>
    </trkpt>
    <trkpt lat="38.613437964" lon="34.963022992">
      <ele>1221.11</ele>
      <time>2021-10-12T19:51:42Z</time>
    </trkpt>
    <trkpt lat="38.613471994" lon="34.963015029">
      <ele>1220.844</ele>
      <time>2021-10-12T19:51:44Z</time>
    </trkpt>
    <trkpt lat="38.613504013" lon="34.963005977">
      <ele>1220.562</ele>
      <time>2021-10-12T19:51:45Z</time>
    </trkpt>
    <trkpt lat="38.613538966" lon="34.962997008">
      <ele>1220.261</ele>
      <time>2021-10-12T19:51:46Z</time>
    </trkpt>
    <trkpt lat="38.613575008" lon="34.962987034">
      <ele>1219.929</ele>
      <time>2021-10-12T19:51:48Z</time>
    </trkpt>
    <trkpt lat="38.613609038" lon="34.962974964">
      <ele>1219.559</ele>
      <time>2021-10-12T19:51:49Z</time>
    </trkpt>
    <trkpt lat="38.613642985" lon="34.962965995">
      <ele>1219.118</ele>
      <time>2021-10-12T19:51:50Z</time>
    </trkpt>
    <trkpt lat="38.613673998" lon="34.962957026">
      <ele>1218.708</ele>
      <time>2021-10-12T19:51:51Z</time>
    </trkpt>
    <trkpt lat="38.613710962" lon="34.962945962">
      <ele>1218.233</ele>
      <time>2021-10-12T19:51:53Z</time>
    </trkpt>
    <trkpt lat="38.613744993" lon="34.962938">
      <ele>1217.846</ele>
      <time>2021-10-12T19:51:54Z</time>
    </trkpt>
    <trkpt lat="38.613782041" lon="34.962926013">
      <ele>1217.396</ele>
      <time>2021-10-12T19:51:55Z</time>
    </trkpt>
    <trkpt lat="38.613815987" lon="34.962914027">
      <ele>1216.991</ele>
      <time>2021-10-12T19:51:57Z</time>
    </trkpt>
    <trkpt lat="38.613845995" lon="34.962900029">
      <ele>1216.611</ele>
      <time>2021-10-12T19:51:58Z</time>
    </trkpt>
    <trkpt lat="38.61387399" lon="34.96288796">
      <ele>1216.286</ele>
      <time>2021-10-12T19:51:59Z</time>
    </trkpt>
    <trkpt lat="38.613903997" lon="34.962875973">
      <ele>1216.006</ele>
      <time>2021-10-12T19:52:00Z</time>
    </trkpt>
    <trkpt lat="38.613970969" lon="34.962852001">
      <ele>1215.506</ele>
      <time>2021-10-12T19:52:03Z</time>
    </trkpt>
    <trkpt lat="38.614003994" lon="34.962838003">
      <ele>1215.236</ele>
      <time>2021-10-12T19:52:04Z</time>
    </trkpt>
    <trkpt lat="38.614069037" lon="34.96280699">
      <ele>1214.667</ele>
      <time>2021-10-12T19:52:07Z</time>
    </trkpt>
    <trkpt lat="38.614102984" lon="34.962789975">
      <ele>1214.361</ele>
      <time>2021-10-12T19:52:08Z</time>
    </trkpt>
    <trkpt lat="38.614131985" lon="34.962772038">
      <ele>1214.04</ele>
      <time>2021-10-12T19:52:09Z</time>
    </trkpt>
    <trkpt lat="38.614157969" lon="34.962749993">
      <ele>1213.628</ele>
      <time>2021-10-12T19:52:10Z</time>
    </trkpt>
    <trkpt lat="38.614203986" lon="34.962700037">
      <ele>1212.612</ele>
      <time>2021-10-12T19:52:13Z</time>
    </trkpt>
    <trkpt lat="38.61422603" lon="34.962676987">
      <ele>1212.121</ele>
      <time>2021-10-12T19:52:14Z</time>
    </trkpt>
    <trkpt lat="38.614250002" lon="34.962652009">
      <ele>1211.589</ele>
      <time>2021-10-12T19:52:15Z</time>
    </trkpt>
    <trkpt lat="38.614270035" lon="34.962623008">
      <ele>1211.027</ele>
      <time>2021-10-12T19:52:16Z</time>
    </trkpt>
    <trkpt lat="38.614310017" lon="34.962562993">
      <ele>1209.875</ele>
      <time>2021-10-12T19:52:18Z</time>
    </trkpt>
    <trkpt lat="38.614330972" lon="34.962528963">
      <ele>1209.234</ele>
      <time>2021-10-12T19:52:19Z</time>
    </trkpt>
    <trkpt lat="38.614485168" lon="34.962403471">
      <ele>1205.182</ele>
      <time>2021-10-12T19:52:26Z</time>
    </trkpt>
    <trkpt lat="38.614361808" lon="34.962296408">
      <ele>1204.415</ele>
      <time>2021-10-12T19:52:32Z</time>
    </trkpt>
    <trkpt lat="38.614203854" lon="34.962214609">
      <ele>1204.414</ele>
      <time>2021-10-12T19:52:38Z</time>
    </trkpt>
    <trkpt lat="38.613966563" lon="34.962173949">
      <ele>1203.909</ele>
      <time>2021-10-12T19:52:47Z</time>
    </trkpt>
    <trkpt lat="38.613754123" lon="34.962096915">
      <ele>1203.701</ele>
      <time>2021-10-12T19:52:55Z</time>
    </trkpt>
    <trkpt lat="38.613520222" lon="34.961997483">
      <ele>1205.337</ele>
      <time>2021-10-12T19:53:04Z</time>
    </trkpt>
    <trkpt lat="38.61344106" lon="34.961828442">
      <ele>1205.226</ele>
      <time>2021-10-12T19:53:10Z</time>
    </trkpt>
    <trkpt lat="38.613363514" lon="34.961476737">
      <ele>1205.457</ele>
      <time>2021-10-12T19:53:21Z</time>
    </trkpt>
    <trkpt lat="38.613237912" lon="34.961109698">
      <ele>1206.024</ele>
      <time>2021-10-12T19:53:32Z</time>
    </trkpt>
    <trkpt lat="38.613008787" lon="34.960596362">
      <ele>1208.649</ele>
      <time>2021-10-12T19:53:49Z</time>
    </trkpt>
    <trkpt lat="38.612965956" lon="34.960210807">
      <ele>1207.935</ele>
      <time>2021-10-12T19:54:01Z</time>
    </trkpt>
    <trkpt lat="38.612910663" lon="34.960036693">
      <ele>1209.13</ele>
      <time>2021-10-12T19:54:06Z</time>
    </trkpt>
    <trkpt lat="38.612901044" lon="34.959658845">
      <ele>1210.882</ele>
      <time>2021-10-12T19:54:17Z</time>
    </trkpt>
    <trkpt lat="38.612866053" lon="34.959313847">
      <ele>1211.729</ele>
      <time>2021-10-12T19:54:27Z</time>
    </trkpt>
    <trkpt lat="38.612678982" lon="34.958417974">
      <ele>1217.601</ele>
      <time>2021-10-12T19:54:54Z</time>
    </trkpt>
    <trkpt lat="38.61266599" lon="34.958394002">
      <ele>1218.019</ele>
      <time>2021-10-12T19:54:55Z</time>
    </trkpt>
    <trkpt lat="38.612658028" lon="34.958368018">
      <ele>1218.417</ele>
      <time>2021-10-12T19:54:56Z</time>
    </trkpt>
    <trkpt lat="38.612650987" lon="34.958340023">
      <ele>1218.828</ele>
      <time>2021-10-12T19:54:57Z</time>
    </trkpt>
    <trkpt lat="38.61264403" lon="34.958315967">
      <ele>1219.178</ele>
      <time>2021-10-12T19:54:57Z</time>
    </trkpt>
    <trkpt lat="38.612635983" lon="34.958272967">
      <ele>1219.788</ele>
      <time>2021-10-12T19:54:59Z</time>
    </trkpt>
    <trkpt lat="38.612626009" lon="34.958229968">
      <ele>1220.447</ele>
      <time>2021-10-12T19:55:00Z</time>
    </trkpt>
    <trkpt lat="38.612616034" lon="34.958207002">
      <ele>1220.869</ele>
      <time>2021-10-12T19:55:01Z</time>
    </trkpt>
    <trkpt lat="38.612603964" lon="34.958185041">
      <ele>1221.321</ele>
      <time>2021-10-12T19:55:01Z</time>
    </trkpt>
    <trkpt lat="38.612594996" lon="34.958162997">
      <ele>1221.753</ele>
      <time>2021-10-12T19:55:02Z</time>
    </trkpt>
    <trkpt lat="38.612588039" lon="34.958140031">
      <ele>1222.184</ele>
      <time>2021-10-12T19:55:03Z</time>
    </trkpt>
    <trkpt lat="38.612580998" lon="34.95811698">
      <ele>1222.63</ele>
      <time>2021-10-12T19:55:04Z</time>
    </trkpt>
    <trkpt lat="38.612572029" lon="34.958094014">
      <ele>1223.119</ele>
      <time>2021-10-12T19:55:04Z</time>
    </trkpt>
    <trkpt lat="38.612563983" lon="34.958067024">
      <ele>1223.67</ele>
      <time>2021-10-12T19:55:05Z</time>
    </trkpt>
    <trkpt lat="38.612554008" lon="34.958041962">
      <ele>1224.126</ele>
      <time>2021-10-12T19:55:06Z</time>
    </trkpt>
    <trkpt lat="38.612543028" lon="34.958022013">
      <ele>1224.467</ele>
      <time>2021-10-12T19:55:07Z</time>
    </trkpt>
    <trkpt lat="38.612521989" lon="34.957998041">
      <ele>1225.018</ele>
      <time>2021-10-12T19:55:08Z</time>
    </trkpt>
    <trkpt lat="38.612503968" lon="34.957994018">
      <ele>1225.372</ele>
      <time>2021-10-12T19:55:08Z</time>
    </trkpt>
    <trkpt lat="38.612479996" lon="34.957994018">
      <ele>1225.619</ele>
      <time>2021-10-12T19:55:09Z</time>
    </trkpt>
    <trkpt lat="38.612458035" lon="34.957997035">
      <ele>1225.787</ele>
      <time>2021-10-12T19:55:10Z</time>
    </trkpt>
    <trkpt lat="38.612436997" lon="34.957998963">
      <ele>1225.954</ele>
      <time>2021-10-12T19:55:11Z</time>
    </trkpt>
    <trkpt lat="38.612415958" lon="34.958004998">
      <ele>1226.079</ele>
      <time>2021-10-12T19:55:12Z</time>
    </trkpt>
    <trkpt lat="38.612393998" lon="34.958012039">
      <ele>1226.196</ele>
      <time>2021-10-12T19:55:13Z</time>
    </trkpt>
    <trkpt lat="38.612375977" lon="34.958026037">
      <ele>1226.2</ele>
      <time>2021-10-12T19:55:13Z</time>
    </trkpt>
    <trkpt lat="38.612338006" lon="34.958037017">
      <ele>1226.378</ele>
      <time>2021-10-12T19:55:15Z</time>
    </trkpt>
    <trkpt lat="38.612310011" lon="34.958043974">
      <ele>1226.508</ele>
      <time>2021-10-12T19:55:16Z</time>
    </trkpt>
    <trkpt lat="38.612300036" lon="34.958054032">
      <ele>1226.459</ele>
      <time>2021-10-12T19:55:16Z</time>
    </trkpt>
    <trkpt lat="38.61227598" lon="34.958074987">
      <ele>1226.32</ele>
      <time>2021-10-12T19:55:17Z</time>
    </trkpt>
    <trkpt lat="38.612248991" lon="34.958093008">
      <ele>1226.255</ele>
      <time>2021-10-12T19:55:18Z</time>
    </trkpt>
    <trkpt lat="38.612217978" lon="34.958103988">
      <ele>1226.348</ele>
      <time>2021-10-12T19:55:20Z</time>
    </trkpt>
    <trkpt lat="38.612199035" lon="34.958108012">
      <ele>1226.495</ele>
      <time>2021-10-12T19:55:20Z</time>
    </trkpt>
    <trkpt lat="38.612175984" lon="34.958113963">
      <ele>1226.658</ele>
      <time>2021-10-12T19:55:21Z</time>
    </trkpt>
    <trkpt lat="38.612151006" lon="34.958118992">
      <ele>1226.856</ele>
      <time>2021-10-12T19:55:22Z</time>
    </trkpt>
    <trkpt lat="38.612128962" lon="34.958124021">
      <ele>1227.021</ele>
      <time>2021-10-12T19:55:23Z</time>
    </trkpt>
    <trkpt lat="38.612105995" lon="34.958127039">
      <ele>1227.226</ele>
      <time>2021-10-12T19:55:24Z</time>
    </trkpt>
    <trkpt lat="38.612082023" lon="34.958129972">
      <ele>1227.443</ele>
      <time>2021-10-12T19:55:25Z</time>
    </trkpt>
    <trkpt lat="38.612056961" lon="34.958129972">
      <ele>1227.713</ele>
      <time>2021-10-12T19:55:26Z</time>
    </trkpt>
    <trkpt lat="38.612029972" lon="34.958125027">
      <ele>1228.076</ele>
      <time>2021-10-12T19:55:27Z</time>
    </trkpt>
    <trkpt lat="38.612011028" lon="34.958118992">
      <ele>1228.367</ele>
      <time>2021-10-12T19:55:27Z</time>
    </trkpt>
    <trkpt lat="38.611990996" lon="34.958109017">
      <ele>1228.727</ele>
      <time>2021-10-12T19:55:28Z</time>
    </trkpt>
    <trkpt lat="38.611971969" lon="34.958098959">
      <ele>1229.078</ele>
      <time>2021-10-12T19:55:29Z</time>
    </trkpt>
    <trkpt lat="38.611953026" lon="34.958088985">
      <ele>1229.426</ele>
      <time>2021-10-12T19:55:30Z</time>
    </trkpt>
    <trkpt lat="38.611931987" lon="34.958081022">
      <ele>1229.894</ele>
      <time>2021-10-12T19:55:31Z</time>
    </trkpt>
    <trkpt lat="38.611910027" lon="34.958070964">
      <ele>1230.508</ele>
      <time>2021-10-12T19:55:31Z</time>
    </trkpt>
    <trkpt lat="38.611891" lon="34.958057972">
      <ele>1231.116</ele>
      <time>2021-10-12T19:55:32Z</time>
    </trkpt>
    <trkpt lat="38.611872979" lon="34.958050009">
      <ele>1231.629</ele>
      <time>2021-10-12T19:55:33Z</time>
    </trkpt>
    <trkpt lat="38.611855963" lon="34.95804104">
      <ele>1232.137</ele>
      <time>2021-10-12T19:55:34Z</time>
    </trkpt>
    <trkpt lat="38.611838026" lon="34.958033999">
      <ele>1232.639</ele>
      <time>2021-10-12T19:55:34Z</time>
    </trkpt>
    <trkpt lat="38.611807013" lon="34.958013967">
      <ele>1233.641</ele>
      <time>2021-10-12T19:55:36Z</time>
    </trkpt>
    <trkpt lat="38.611784969" lon="34.958004998">
      <ele>1234.277</ele>
      <time>2021-10-12T19:55:36Z</time>
    </trkpt>
    <trkpt lat="38.611766025" lon="34.957993012">
      <ele>1234.899</ele>
      <time>2021-10-12T19:55:37Z</time>
    </trkpt>
    <trkpt lat="38.611748004" lon="34.957981026">
      <ele>1235.506</ele>
      <time>2021-10-12T19:55:38Z</time>
    </trkpt>
    <trkpt lat="38.611731995" lon="34.957970968">
      <ele>1236.04</ele>
      <time>2021-10-12T19:55:39Z</time>
    </trkpt>
    <trkpt lat="38.611711962" lon="34.957959987">
      <ele>1236.686</ele>
      <time>2021-10-12T19:55:39Z</time>
    </trkpt>
    <trkpt lat="38.611696037" lon="34.957946995">
      <ele>1237.278</ele>
      <time>2021-10-12T19:55:40Z</time>
    </trkpt>
    <trkpt lat="38.611678015" lon="34.957939032">
      <ele>1237.835</ele>
      <time>2021-10-12T19:55:41Z</time>
    </trkpt>
    <trkpt lat="38.611645997" lon="34.957919">
      <ele>1238.682</ele>
      <time>2021-10-12T19:55:42Z</time>
    </trkpt>
    <trkpt lat="38.611627975" lon="34.957911037">
      <ele>1239.014</ele>
      <time>2021-10-12T19:55:43Z</time>
    </trkpt>
    <trkpt lat="38.611589" lon="34.957903996">
      <ele>1239.541</ele>
      <time>2021-10-12T19:55:44Z</time>
    </trkpt>
    <trkpt lat="38.611567961" lon="34.957901984">
      <ele>1239.793</ele>
      <time>2021-10-12T19:55:45Z</time>
    </trkpt>
    <trkpt lat="38.611547006" lon="34.957898967">
      <ele>1240.056</ele>
      <time>2021-10-12T19:55:46Z</time>
    </trkpt>
    <trkpt lat="38.61152404" lon="34.957898967">
      <ele>1240.294</ele>
      <time>2021-10-12T19:55:47Z</time>
    </trkpt>
    <trkpt lat="38.611501995" lon="34.957896033">
      <ele>1240.562</ele>
      <time>2021-10-12T19:55:48Z</time>
    </trkpt>
    <trkpt lat="38.611479029" lon="34.957893016">
      <ele>1240.837</ele>
      <time>2021-10-12T19:55:48Z</time>
    </trkpt>
    <trkpt lat="38.611456985" lon="34.957886981">
      <ele>1241.138</ele>
      <time>2021-10-12T19:55:49Z</time>
    </trkpt>
    <trkpt lat="38.611437036" lon="34.957879018">
      <ele>1241.434</ele>
      <time>2021-10-12T19:55:50Z</time>
    </trkpt>
    <trkpt lat="38.611415997" lon="34.957873989">
      <ele>1241.698</ele>
      <time>2021-10-12T19:55:51Z</time>
    </trkpt>
    <trkpt lat="38.611381967" lon="34.957859991">
      <ele>1242.162</ele>
      <time>2021-10-12T19:55:52Z</time>
    </trkpt>
    <trkpt lat="38.611364029" lon="34.957838031">
      <ele>1242.528</ele>
      <time>2021-10-12T19:55:53Z</time>
    </trkpt>
    <trkpt lat="38.611341985" lon="34.957822021">
      <ele>1242.86</ele>
      <time>2021-10-12T19:55:54Z</time>
    </trkpt>
    <trkpt lat="38.611320024" lon="34.957806012">
      <ele>1243.191</ele>
      <time>2021-10-12T19:55:55Z</time>
    </trkpt>
    <trkpt lat="38.611300997" lon="34.957788996">
      <ele>1243.512</ele>
      <time>2021-10-12T19:55:56Z</time>
    </trkpt>
    <trkpt lat="38.611273002" lon="34.957762007">
      <ele>1243.981</ele>
      <time>2021-10-12T19:55:57Z</time>
    </trkpt>
    <trkpt lat="38.611252969" lon="34.95774298">
      <ele>1244.293</ele>
      <time>2021-10-12T19:55:58Z</time>
    </trkpt>
    <trkpt lat="38.611242995" lon="34.957733005">
      <ele>1244.449</ele>
      <time>2021-10-12T19:55:58Z</time>
    </trkpt>
    <trkpt lat="38.611222962" lon="34.957704004">
      <ele>1244.833</ele>
      <time>2021-10-12T19:56:00Z</time>
    </trkpt>
    <trkpt lat="38.611204019" lon="34.957670979">
      <ele>1245.229</ele>
      <time>2021-10-12T19:56:01Z</time>
    </trkpt>
    <trkpt lat="38.611188009" lon="34.957639966">
      <ele>1245.576</ele>
      <time>2021-10-12T19:56:02Z</time>
    </trkpt>
    <trkpt lat="38.611170994" lon="34.957617">
      <ele>1245.851</ele>
      <time>2021-10-12T19:56:03Z</time>
    </trkpt>
    <trkpt lat="38.611153979" lon="34.957592022">
      <ele>1246.132</ele>
      <time>2021-10-12T19:56:04Z</time>
    </trkpt>
    <trkpt lat="38.611135036" lon="34.95756696">
      <ele>1246.411</ele>
      <time>2021-10-12T19:56:05Z</time>
    </trkpt>
    <trkpt lat="38.611116009" lon="34.957540976">
      <ele>1246.685</ele>
      <time>2021-10-12T19:56:06Z</time>
    </trkpt>
    <trkpt lat="38.61109497" lon="34.957511974">
      <ele>1247.033</ele>
      <time>2021-10-12T19:56:07Z</time>
    </trkpt>
    <trkpt lat="38.611079967" lon="34.957494959">
      <ele>1247.261</ele>
      <time>2021-10-12T19:56:08Z</time>
    </trkpt>
    <trkpt lat="38.611064041" lon="34.957478028">
      <ele>1247.497</ele>
      <time>2021-10-12T19:56:08Z</time>
    </trkpt>
    <trkpt lat="38.611043002" lon="34.957466042">
      <ele>1247.735</ele>
      <time>2021-10-12T19:56:09Z</time>
    </trkpt>
    <trkpt lat="38.611020036" lon="34.95745196">
      <ele>1248.002</ele>
      <time>2021-10-12T19:56:10Z</time>
    </trkpt>
    <trkpt lat="38.610997992" lon="34.957439974">
      <ele>1248.247</ele>
      <time>2021-10-12T19:56:11Z</time>
    </trkpt>
    <trkpt lat="38.610974019" lon="34.957426982">
      <ele>1248.513</ele>
      <time>2021-10-12T19:56:12Z</time>
    </trkpt>
    <trkpt lat="38.610950969" lon="34.957411978">
      <ele>1248.787</ele>
      <time>2021-10-12T19:56:13Z</time>
    </trkpt>
    <trkpt lat="38.610928003" lon="34.957396975">
      <ele>1249.06</ele>
      <time>2021-10-12T19:56:14Z</time>
    </trkpt>
    <trkpt lat="38.610908976" lon="34.957379038">
      <ele>1249.326</ele>
      <time>2021-10-12T19:56:15Z</time>
    </trkpt>
    <trkpt lat="38.610890033" lon="34.957351964">
      <ele>1249.658</ele>
      <time>2021-10-12T19:56:16Z</time>
    </trkpt>
    <trkpt lat="38.610874023" lon="34.957332015">
      <ele>1249.917</ele>
      <time>2021-10-12T19:56:17Z</time>
    </trkpt>
    <trkpt lat="38.610858014" lon="34.957311982">
      <ele>1250.176</ele>
      <time>2021-10-12T19:56:18Z</time>
    </trkpt>
    <trkpt lat="38.61084301" lon="34.957291028">
      <ele>1250.435</ele>
      <time>2021-10-12T19:56:18Z</time>
    </trkpt>
    <trkpt lat="38.610825995" lon="34.957268983">
      <ele>1250.747</ele>
      <time>2021-10-12T19:56:19Z</time>
    </trkpt>
    <trkpt lat="38.61080898" lon="34.957246017">
      <ele>1251.099</ele>
      <time>2021-10-12T19:56:20Z</time>
    </trkpt>
    <trkpt lat="38.610791964" lon="34.957229001">
      <ele>1251.402</ele>
      <time>2021-10-12T19:56:21Z</time>
    </trkpt>
    <trkpt lat="38.610774027" lon="34.957208969">
      <ele>1251.688</ele>
      <time>2021-10-12T19:56:22Z</time>
    </trkpt>
    <trkpt lat="38.610755" lon="34.957191031">
      <ele>1251.958</ele>
      <time>2021-10-12T19:56:23Z</time>
    </trkpt>
    <trkpt lat="38.610736979" lon="34.957170999">
      <ele>1252.225</ele>
      <time>2021-10-12T19:56:24Z</time>
    </trkpt>
    <trkpt lat="38.610722981" lon="34.957153983">
      <ele>1252.437</ele>
      <time>2021-10-12T19:56:24Z</time>
    </trkpt>
    <trkpt lat="38.610707978" lon="34.957139986">
      <ele>1252.65</ele>
      <time>2021-10-12T19:56:25Z</time>
    </trkpt>
    <trkpt lat="38.610691968" lon="34.957125988">
      <ele>1252.873</ele>
      <time>2021-10-12T19:56:26Z</time>
    </trkpt>
    <trkpt lat="38.610675037" lon="34.957110984">
      <ele>1253.11</ele>
      <time>2021-10-12T19:56:27Z</time>
    </trkpt>
    <trkpt lat="38.610660033" lon="34.957092963">
      <ele>1253.337</ele>
      <time>2021-10-12T19:56:27Z</time>
    </trkpt>
    <trkpt lat="38.610647041" lon="34.957072008">
      <ele>1253.553</ele>
      <time>2021-10-12T19:56:28Z</time>
    </trkpt>
    <trkpt lat="38.610626003" lon="34.957024986">
      <ele>1253.949</ele>
      <time>2021-10-12T19:56:30Z</time>
    </trkpt>
    <trkpt lat="38.61061804" lon="34.956977963">
      <ele>1254.204</ele>
      <time>2021-10-12T19:56:31Z</time>
    </trkpt>
    <trkpt lat="38.610614017" lon="34.956919961">
      <ele>1254.387</ele>
      <time>2021-10-12T19:56:33Z</time>
    </trkpt>
    <trkpt lat="38.610615022" lon="34.956885008">
      <ele>1254.404</ele>
      <time>2021-10-12T19:56:34Z</time>
    </trkpt>
    <trkpt lat="38.610612005" lon="34.956821976">
      <ele>1254.48</ele>
      <time>2021-10-12T19:56:36Z</time>
    </trkpt>
    <trkpt lat="38.610616028" lon="34.956790041">
      <ele>1254.468</ele>
      <time>2021-10-12T19:56:37Z</time>
    </trkpt>
    <trkpt lat="38.610616028" lon="34.956759028">
      <ele>1254.492</ele>
      <time>2021-10-12T19:56:37Z</time>
    </trkpt>
    <trkpt lat="38.61061804" lon="34.956727009">
      <ele>1254.501</ele>
      <time>2021-10-12T19:56:38Z</time>
    </trkpt>
    <trkpt lat="38.610619968" lon="34.956695996">
      <ele>1254.512</ele>
      <time>2021-10-12T19:56:39Z</time>
    </trkpt>
    <trkpt lat="38.610622985" lon="34.956662972">
      <ele>1254.528</ele>
      <time>2021-10-12T19:56:40Z</time>
    </trkpt>
    <trkpt lat="38.610628014" lon="34.956631036">
      <ele>1254.607</ele>
      <time>2021-10-12T19:56:41Z</time>
    </trkpt>
    <trkpt lat="38.610633966" lon="34.956599018">
      <ele>1254.679</ele>
      <time>2021-10-12T19:56:42Z</time>
    </trkpt>
    <trkpt lat="38.610642012" lon="34.956571022">
      <ele>1254.722</ele>
      <time>2021-10-12T19:56:43Z</time>
    </trkpt>
    <trkpt lat="38.610653998" lon="34.956542021">
      <ele>1254.74</ele>
      <time>2021-10-12T19:56:44Z</time>
    </trkpt>
    <trkpt lat="38.61066699" lon="34.956512013">
      <ele>1254.754</ele>
      <time>2021-10-12T19:56:45Z</time>
    </trkpt>
    <trkpt lat="38.610676965" lon="34.956482006">
      <ele>1254.791</ele>
      <time>2021-10-12T19:56:46Z</time>
    </trkpt>
    <trkpt lat="38.610690041" lon="34.956453005">
      <ele>1254.801</ele>
      <time>2021-10-12T19:56:47Z</time>
    </trkpt>
    <trkpt lat="38.61070496" lon="34.956426015">
      <ele>1254.791</ele>
      <time>2021-10-12T19:56:48Z</time>
    </trkpt>
    <trkpt lat="38.61072097" lon="34.95639802">
      <ele>1254.776</ele>
      <time>2021-10-12T19:56:49Z</time>
    </trkpt>
    <trkpt lat="38.610758018" lon="34.956342028">
      <ele>1254.419</ele>
      <time>2021-10-12T19:56:51Z</time>
    </trkpt>
    <trkpt lat="38.610776961" lon="34.956313027">
      <ele>1254.188</ele>
      <time>2021-10-12T19:56:52Z</time>
    </trkpt>
    <trkpt lat="38.610794982" lon="34.956282014">
      <ele>1253.945</ele>
      <time>2021-10-12T19:56:53Z</time>
    </trkpt>
    <trkpt lat="38.610815015" lon="34.956252007">
      <ele>1253.672</ele>
      <time>2021-10-12T19:56:54Z</time>
    </trkpt>
    <trkpt lat="38.610834964" lon="34.956219988">
      <ele>1253.374</ele>
      <time>2021-10-12T19:56:56Z</time>
    </trkpt>
    <trkpt lat="38.610857008" lon="34.956187969">
      <ele>1253.021</ele>
      <time>2021-10-12T19:56:57Z</time>
    </trkpt>
    <trkpt lat="38.610877963" lon="34.95615704">
      <ele>1252.683</ele>
      <time>2021-10-12T19:56:58Z</time>
    </trkpt>
    <trkpt lat="38.610897996" lon="34.956125021">
      <ele>1252.352</ele>
      <time>2021-10-12T19:56:59Z</time>
    </trkpt>
    <trkpt lat="38.610916017" lon="34.956094008">
      <ele>1252.021</ele>
      <time>2021-10-12T19:57:00Z</time>
    </trkpt>
    <trkpt lat="38.610937977" lon="34.956061989">
      <ele>1251.649</ele>
      <time>2021-10-12T19:57:01Z</time>
    </trkpt>
    <trkpt lat="38.610960022" lon="34.956034999">
      <ele>1251.334</ele>
      <time>2021-10-12T19:57:03Z</time>
    </trkpt>
    <trkpt lat="38.610987011" lon="34.95600801">
      <ele>1251.009</ele>
      <time>2021-10-12T19:57:04Z</time>
    </trkpt>
    <trkpt lat="38.611014001" lon="34.955983032">
      <ele>1250.726</ele>
      <time>2021-10-12T19:57:05Z</time>
    </trkpt>
    <trkpt lat="38.611040991" lon="34.95595797">
      <ele>1250.479</ele>
      <time>2021-10-12T19:57:06Z</time>
    </trkpt>
    <trkpt lat="38.611066975" lon="34.955935003">
      <ele>1250.275</ele>
      <time>2021-10-12T19:57:08Z</time>
    </trkpt>
    <trkpt lat="38.611096982" lon="34.955915976">
      <ele>1250.081</ele>
      <time>2021-10-12T19:57:09Z</time>
    </trkpt>
    <trkpt lat="38.611125983" lon="34.955898961">
      <ele>1250.0</ele>
      <time>2021-10-12T19:57:10Z</time>
    </trkpt>
    <trkpt lat="38.611158002" lon="34.955884041">
      <ele>1250.0</ele>
      <time>2021-10-12T19:57:11Z</time>
    </trkpt>
    <trkpt lat="38.611188009" lon="34.955873983">
      <ele>1250.0</ele>
      <time>2021-10-12T19:57:12Z</time>
    </trkpt>
    <trkpt lat="38.61122204" lon="34.955867026">
      <ele>1250.0</ele>
      <time>2021-10-12T19:57:14Z</time>
    </trkpt>
    <trkpt lat="38.611253975" lon="34.955865014">
      <ele>1250.0</ele>
      <time>2021-10-12T19:57:15Z</time>
    </trkpt>
    <trkpt lat="38.611285994" lon="34.95586602">
      <ele>1250.0</ele>
      <time>2021-10-12T19:57:16Z</time>
    </trkpt>
    <trkpt lat="38.61132103" lon="34.95586996">
      <ele>1250.0</ele>
      <time>2021-10-12T19:57:17Z</time>
    </trkpt>
    <trkpt lat="38.611355983" lon="34.955873983">
      <ele>1250.0</ele>
      <time>2021-10-12T19:57:19Z</time>
    </trkpt>
    <trkpt lat="38.611389007" lon="34.955875995">
      <ele>1250.0</ele>
      <time>2021-10-12T19:57:20Z</time>
    </trkpt>
    <trkpt lat="38.611424966" lon="34.955875995">
      <ele>1250.0</ele>
      <time>2021-10-12T19:57:21Z</time>
    </trkpt>
    <trkpt lat="38.611464025" lon="34.955872977">
      <ele>1250.0</ele>
      <time>2021-10-12T19:57:23Z</time>
    </trkpt>
    <trkpt lat="38.611499984" lon="34.95586602">
      <ele>1250.0</ele>
      <time>2021-10-12T19:57:24Z</time>
    </trkpt>
    <trkpt lat="38.611533009" lon="34.955854034">
      <ele>1250.0</ele>
      <time>2021-10-12T19:57:25Z</time>
    </trkpt>
    <trkpt lat="38.611564022" lon="34.955841964">
      <ele>1250.0</ele>
      <time>2021-10-12T19:57:26Z</time>
    </trkpt>
    <trkpt lat="38.611596962" lon="34.955827966">
      <ele>1250.0</ele>
      <time>2021-10-12T19:57:28Z</time>
    </trkpt>
    <trkpt lat="38.611631999" lon="34.955810029">
      <ele>1250.0</ele>
      <time>2021-10-12T19:57:29Z</time>
    </trkpt>
    <trkpt lat="38.611663012" lon="34.955792008">
      <ele>1250.0</ele>
      <time>2021-10-12T19:57:30Z</time>
    </trkpt>
    <trkpt lat="38.611695031" lon="34.955772981">
      <ele>1249.898</ele>
      <time>2021-10-12T19:57:32Z</time>
    </trkpt>
    <trkpt lat="38.611723026" lon="34.95575102">
      <ele>1249.797</ele>
      <time>2021-10-12T19:57:33Z</time>
    </trkpt>
    <trkpt lat="38.611751022" lon="34.955728976">
      <ele>1249.696</ele>
      <time>2021-10-12T19:57:34Z</time>
    </trkpt>
    <trkpt lat="38.611776" lon="34.955701986">
      <ele>1249.606</ele>
      <time>2021-10-12T19:57:35Z</time>
    </trkpt>
    <trkpt lat="38.61179796" lon="34.955674997">
      <ele>1249.527</ele>
      <time>2021-10-12T19:57:36Z</time>
    </trkpt>
    <trkpt lat="38.611822017" lon="34.955645995">
      <ele>1249.441</ele>
      <time>2021-10-12T19:57:38Z</time>
    </trkpt>
    <trkpt lat="38.611843977" lon="34.955613976">
      <ele>1249.362</ele>
      <time>2021-10-12T19:57:39Z</time>
    </trkpt>
    <trkpt lat="38.61187499" lon="34.955545999">
      <ele>1249.25</ele>
      <time>2021-10-12T19:57:41Z</time>
    </trkpt>
    <trkpt lat="38.611886976" lon="34.955511969">
      <ele>1249.207</ele>
      <time>2021-10-12T19:57:42Z</time>
    </trkpt>
    <trkpt lat="38.611896029" lon="34.955472993">
      <ele>1249.174</ele>
      <time>2021-10-12T19:57:43Z</time>
    </trkpt>
    <trkpt lat="38.611900974" lon="34.955435023">
      <ele>1249.156</ele>
      <time>2021-10-12T19:57:45Z</time>
    </trkpt>
    <trkpt lat="38.611900974" lon="34.955360005">
      <ele>1249.156</ele>
      <time>2021-10-12T19:57:47Z</time>
    </trkpt>
    <trkpt lat="38.611897035" lon="34.955328992">
      <ele>1249.171</ele>
      <time>2021-10-12T19:57:48Z</time>
    </trkpt>
    <trkpt lat="38.611888988" lon="34.955295967">
      <ele>1249.2</ele>
      <time>2021-10-12T19:57:49Z</time>
    </trkpt>
    <trkpt lat="38.611881025" lon="34.955265038">
      <ele>1249.264</ele>
      <time>2021-10-12T19:57:50Z</time>
    </trkpt>
    <trkpt lat="38.61187499" lon="34.955237964">
      <ele>1249.358</ele>
      <time>2021-10-12T19:57:50Z</time>
    </trkpt>
    <trkpt lat="38.611870967" lon="34.955207035">
      <ele>1249.452</ele>
      <time>2021-10-12T19:57:51Z</time>
    </trkpt>
    <trkpt lat="38.611868033" lon="34.955178034">
      <ele>1249.535</ele>
      <time>2021-10-12T19:57:52Z</time>
    </trkpt>
    <trkpt lat="38.611869961" lon="34.955146015">
      <ele>1249.615</ele>
      <time>2021-10-12T19:57:53Z</time>
    </trkpt>
    <trkpt lat="38.611871973" lon="34.955113996">
      <ele>1249.697</ele>
      <time>2021-10-12T19:57:54Z</time>
    </trkpt>
    <trkpt lat="38.61187499" lon="34.955082983">
      <ele>1249.776</ele>
      <time>2021-10-12T19:57:55Z</time>
    </trkpt>
    <trkpt lat="38.611878008" lon="34.955050964">
      <ele>1249.86</ele>
      <time>2021-10-12T19:57:56Z</time>
    </trkpt>
    <trkpt lat="38.611883037" lon="34.955022968">
      <ele>1249.936</ele>
      <time>2021-10-12T19:57:57Z</time>
    </trkpt>
    <trkpt lat="38.611887982" lon="34.954996984">
      <ele>1250.013</ele>
      <time>2021-10-12T19:57:57Z</time>
    </trkpt>
    <trkpt lat="38.611895023" lon="34.954971001">
      <ele>1250.123</ele>
      <time>2021-10-12T19:57:58Z</time>
    </trkpt>
    <trkpt lat="38.61190198" lon="34.954946022">
      <ele>1250.224</ele>
      <time>2021-10-12T19:57:59Z</time>
    </trkpt>
    <trkpt lat="38.611908015" lon="34.954920961">
      <ele>1250.322</ele>
      <time>2021-10-12T19:58:00Z</time>
    </trkpt>
    <trkpt lat="38.611915978" lon="34.954897994">
      <ele>1250.405</ele>
      <time>2021-10-12T19:58:01Z</time>
    </trkpt>
    <trkpt lat="38.61192503" lon="34.954876034">
      <ele>1250.477</ele>
      <time>2021-10-12T19:58:01Z</time>
    </trkpt>
    <trkpt lat="38.611932993" lon="34.954846026">
      <ele>1250.577</ele>
      <time>2021-10-12T19:58:02Z</time>
    </trkpt>
    <trkpt lat="38.611940034" lon="34.954818031">
      <ele>1250.665</ele>
      <time>2021-10-12T19:58:03Z</time>
    </trkpt>
    <trkpt lat="38.611947997" lon="34.954790035">
      <ele>1250.766</ele>
      <time>2021-10-12T19:58:04Z</time>
    </trkpt>
    <trkpt lat="38.611956965" lon="34.954757011">
      <ele>1250.914</ele>
      <time>2021-10-12T19:58:05Z</time>
    </trkpt>
    <trkpt lat="38.611964006" lon="34.954723986">
      <ele>1251.064</ele>
      <time>2021-10-12T19:58:06Z</time>
    </trkpt>
    <trkpt lat="38.61197398" lon="34.954690961">
      <ele>1251.432</ele>
      <time>2021-10-12T19:58:07Z</time>
    </trkpt>
    <trkpt lat="38.611981021" lon="34.954659026">
      <ele>1251.784</ele>
      <time>2021-10-12T19:58:08Z</time>
    </trkpt>
    <trkpt lat="38.611986972" lon="34.954627007">
      <ele>1252.129</ele>
      <time>2021-10-12T19:58:09Z</time>
    </trkpt>
    <trkpt lat="38.611994013" lon="34.954598006">
      <ele>1252.44</ele>
      <time>2021-10-12T19:58:10Z</time>
    </trkpt>
    <trkpt lat="38.61200097" lon="34.95457001">
      <ele>1252.736</ele>
      <time>2021-10-12T19:58:11Z</time>
    </trkpt>
    <trkpt lat="38.612010023" lon="34.954542015">
      <ele>1253.029</ele>
      <time>2021-10-12T19:58:11Z</time>
    </trkpt>
    <trkpt lat="38.612017985" lon="34.954514019">
      <ele>1253.315</ele>
      <time>2021-10-12T19:58:12Z</time>
    </trkpt>
    <trkpt lat="38.612025026" lon="34.954487029">
      <ele>1253.585</ele>
      <time>2021-10-12T19:58:13Z</time>
    </trkpt>
    <trkpt lat="38.612035001" lon="34.95446004">
      <ele>1253.85</ele>
      <time>2021-10-12T19:58:14Z</time>
    </trkpt>
    <trkpt lat="38.612043969" lon="34.954433972">
      <ele>1254.038</ele>
      <time>2021-10-12T19:58:15Z</time>
    </trkpt>
    <trkpt lat="38.612054028" lon="34.954405976">
      <ele>1254.138</ele>
      <time>2021-10-12T19:58:16Z</time>
    </trkpt>
    <trkpt lat="38.612065008" lon="34.954374963">
      <ele>1254.25</ele>
      <time>2021-10-12T19:58:17Z</time>
    </trkpt>
    <trkpt lat="38.612078" lon="34.954349985">
      <ele>1254.34</ele>
      <time>2021-10-12T19:58:18Z</time>
    </trkpt>
    <trkpt lat="38.612090992" lon="34.954322996">
      <ele>1254.437</ele>
      <time>2021-10-12T19:58:19Z</time>
    </trkpt>
    <trkpt lat="38.61210499" lon="34.954295">
      <ele>1254.538</ele>
      <time>2021-10-12T19:58:19Z</time>
    </trkpt>
    <trkpt lat="38.612122005" lon="34.95426801">
      <ele>1254.635</ele>
      <time>2021-10-12T19:58:20Z</time>
    </trkpt>
    <trkpt lat="38.612138014" lon="34.954244038">
      <ele>1254.721</ele>
      <time>2021-10-12T19:58:21Z</time>
    </trkpt>
    <trkpt lat="38.612152012" lon="34.954218976">
      <ele>1254.812</ele>
      <time>2021-10-12T19:58:22Z</time>
    </trkpt>
    <trkpt lat="38.612165004" lon="34.954193998">
      <ele>1254.902</ele>
      <time>2021-10-12T19:58:23Z</time>
    </trkpt>
    <trkpt lat="38.612175984" lon="34.954172038">
      <ele>1254.981</ele>
      <time>2021-10-12T19:58:24Z</time>
    </trkpt>
    <trkpt lat="38.612188976" lon="34.95413499">
      <ele>1255.342</ele>
      <time>2021-10-12T19:58:25Z</time>
    </trkpt>
    <trkpt lat="38.612202974" lon="34.954104982">
      <ele>1255.666</ele>
      <time>2021-10-12T19:58:26Z</time>
    </trkpt>
    <trkpt lat="38.612222001" lon="34.954063995">
      <ele>1256.109</ele>
      <time>2021-10-12T19:58:28Z</time>
    </trkpt>
    <trkpt lat="38.612232981" lon="34.954038011">
      <ele>1256.389</ele>
      <time>2021-10-12T19:58:28Z</time>
    </trkpt>
    <trkpt lat="38.612241028" lon="34.954025019">
      <ele>1256.53</ele>
      <time>2021-10-12T19:58:29Z</time>
    </trkpt>
    <trkpt lat="38.612255026" lon="34.953999035">
      <ele>1256.81</ele>
      <time>2021-10-12T19:58:30Z</time>
    </trkpt>
    <trkpt lat="38.612271035" lon="34.953970034">
      <ele>1257.124</ele>
      <time>2021-10-12T19:58:31Z</time>
    </trkpt>
    <trkpt lat="38.612283021" lon="34.953940026">
      <ele>1257.448</ele>
      <time>2021-10-12T19:58:32Z</time>
    </trkpt>
    <trkpt lat="38.612303976" lon="34.953896021">
      <ele>1257.923</ele>
      <time>2021-10-12T19:58:33Z</time>
    </trkpt>
    <trkpt lat="38.612311017" lon="34.953882024">
      <ele>1258.074</ele>
      <time>2021-10-12T19:58:34Z</time>
    </trkpt>
    <trkpt lat="38.61232602" lon="34.95385604">
      <ele>1258.355</ele>
      <time>2021-10-12T19:58:35Z</time>
    </trkpt>
    <trkpt lat="38.612341024" lon="34.953830978">
      <ele>1258.625</ele>
      <time>2021-10-12T19:58:36Z</time>
    </trkpt>
    <trkpt lat="38.612354016" lon="34.953807006">
      <ele>1258.884</ele>
      <time>2021-10-12T19:58:36Z</time>
    </trkpt>
    <trkpt lat="38.612362985" lon="34.953780016">
      <ele>1259.176</ele>
      <time>2021-10-12T19:58:37Z</time>
    </trkpt>
    <trkpt lat="38.612372037" lon="34.953749003">
      <ele>1259.511</ele>
      <time>2021-10-12T19:58:38Z</time>
    </trkpt>
    <trkpt lat="38.612376982" lon="34.953714972">
      <ele>1259.878</ele>
      <time>2021-10-12T19:58:39Z</time>
    </trkpt>
    <trkpt lat="38.612373965" lon="34.953681026">
      <ele>1260.245</ele>
      <time>2021-10-12T19:58:40Z</time>
    </trkpt>
    <trkpt lat="38.612368014" lon="34.953645989">
      <ele>1260.623</ele>
      <time>2021-10-12T19:58:41Z</time>
    </trkpt>
    <trkpt lat="38.612359967" lon="34.95361397">
      <ele>1260.969</ele>
      <time>2021-10-12T19:58:42Z</time>
    </trkpt>
    <trkpt lat="38.612349993" lon="34.953582035">
      <ele>1261.266</ele>
      <time>2021-10-12T19:58:43Z</time>
    </trkpt>
    <trkpt lat="38.612338006" lon="34.95354197">
      <ele>1261.643</ele>
      <time>2021-10-12T19:58:45Z</time>
    </trkpt>
    <trkpt lat="38.612332977" lon="34.953517998">
      <ele>1261.872</ele>
      <time>2021-10-12T19:58:45Z</time>
    </trkpt>
    <trkpt lat="38.61232996" lon="34.953490002">
      <ele>1262.139</ele>
      <time>2021-10-12T19:58:46Z</time>
    </trkpt>
    <trkpt lat="38.612330966" lon="34.953457983">
      <ele>1262.438</ele>
      <time>2021-10-12T19:58:47Z</time>
    </trkpt>
    <trkpt lat="38.612334989" lon="34.95342697">
      <ele>1262.72</ele>
      <time>2021-10-12T19:58:48Z</time>
    </trkpt>
    <trkpt lat="38.612341024" lon="34.953396041">
      <ele>1262.992</ele>
      <time>2021-10-12T19:58:49Z</time>
    </trkpt>
    <trkpt lat="38.612350998" lon="34.953365028">
      <ele>1263.247</ele>
      <time>2021-10-12T19:58:50Z</time>
    </trkpt>
    <trkpt lat="38.612358961" lon="34.953332003">
      <ele>1263.515</ele>
      <time>2021-10-12T19:58:51Z</time>
    </trkpt>
    <trkpt lat="38.612367008" lon="34.953295039">
      <ele>1263.688</ele>
      <time>2021-10-12T19:58:52Z</time>
    </trkpt>
    <trkpt lat="38.612375977" lon="34.953260003">
      <ele>1263.857</ele>
      <time>2021-10-12T19:58:53Z</time>
    </trkpt>
    <trkpt lat="38.612381006" lon="34.953220021">
      <ele>1264.069</ele>
      <time>2021-10-12T19:58:54Z</time>
    </trkpt>
    <trkpt lat="38.612388968" lon="34.953180039">
      <ele>1264.283</ele>
      <time>2021-10-12T19:58:55Z</time>
    </trkpt>
    <trkpt lat="38.612397015" lon="34.953146009">
      <ele>1264.469</ele>
      <time>2021-10-12T19:58:56Z</time>
    </trkpt>
    <trkpt lat="38.612405984" lon="34.953114996">
      <ele>1264.644</ele>
      <time>2021-10-12T19:58:57Z</time>
    </trkpt>
    <trkpt lat="38.612415958" lon="34.953084989">
      <ele>1264.82</ele>
      <time>2021-10-12T19:58:58Z</time>
    </trkpt>
    <trkpt lat="38.612424005" lon="34.953051042">
      <ele>1264.984</ele>
      <time>2021-10-12T19:58:59Z</time>
    </trkpt>
    <trkpt lat="38.612431968" lon="34.953015">
      <ele>1264.854</ele>
      <time>2021-10-12T19:59:00Z</time>
    </trkpt>
    <trkpt lat="38.612440014" lon="34.952979041">
      <ele>1264.725</ele>
      <time>2021-10-12T19:59:01Z</time>
    </trkpt>
    <trkpt lat="38.612446971" lon="34.952942999">
      <ele>1264.595</ele>
      <time>2021-10-12T19:59:03Z</time>
    </trkpt>
    <trkpt lat="38.612454012" lon="34.952909974">
      <ele>1264.476</ele>
      <time>2021-10-12T19:59:04Z</time>
    </trkpt>
    <trkpt lat="38.612459041" lon="34.952870999">
      <ele>1264.336</ele>
      <time>2021-10-12T19:59:05Z</time>
    </trkpt>
    <trkpt lat="38.612461975" lon="34.952830011">
      <ele>1264.188</ele>
      <time>2021-10-12T19:59:06Z</time>
    </trkpt>
    <trkpt lat="38.612469016" lon="34.952794975">
      <ele>1264.062</ele>
      <time>2021-10-12T19:59:07Z</time>
    </trkpt>
    <trkpt lat="38.612474967" lon="34.952761028">
      <ele>1263.945</ele>
      <time>2021-10-12T19:59:08Z</time>
    </trkpt>
    <trkpt lat="38.612484019" lon="34.952729009">
      <ele>1263.835</ele>
      <time>2021-10-12T19:59:09Z</time>
    </trkpt>
    <trkpt lat="38.612491982" lon="34.952695984">
      <ele>1263.714</ele>
      <time>2021-10-12T19:59:10Z</time>
    </trkpt>
    <trkpt lat="38.61250204" lon="34.952661032">
      <ele>1263.568</ele>
      <time>2021-10-12T19:59:11Z</time>
    </trkpt>
    <trkpt lat="38.612511009" lon="34.95262499">
      <ele>1263.392</ele>
      <time>2021-10-12T19:59:12Z</time>
    </trkpt>
    <trkpt lat="38.612515032" lon="34.952589031">
      <ele>1263.249</ele>
      <time>2021-10-12T19:59:13Z</time>
    </trkpt>
    <trkpt lat="38.612522995" lon="34.952552989">
      <ele>1263.092</ele>
      <time>2021-10-12T19:59:14Z</time>
    </trkpt>
    <trkpt lat="38.612528024" lon="34.952516025">
      <ele>1262.951</ele>
      <time>2021-10-12T19:59:15Z</time>
    </trkpt>
    <trkpt lat="38.612535987" lon="34.952481994">
      <ele>1262.87</ele>
      <time>2021-10-12T19:59:16Z</time>
    </trkpt>
    <trkpt lat="38.612543028" lon="34.95244897">
      <ele>1262.845</ele>
      <time>2021-10-12T19:59:17Z</time>
    </trkpt>
    <trkpt lat="38.612551996" lon="34.952417035">
      <ele>1262.813</ele>
      <time>2021-10-12T19:59:18Z</time>
    </trkpt>
    <trkpt lat="38.612559037" lon="34.952383004">
      <ele>1262.787</ele>
      <time>2021-10-12T19:59:19Z</time>
    </trkpt>
    <trkpt lat="38.612565994" lon="34.952346962">
      <ele>1262.762</ele>
      <time>2021-10-12T19:59:20Z</time>
    </trkpt>
    <trkpt lat="38.612574041" lon="34.952307986">
      <ele>1262.733</ele>
      <time>2021-10-12T19:59:22Z</time>
    </trkpt>
    <trkpt lat="38.612579992" lon="34.952274961">
      <ele>1262.712</ele>
      <time>2021-10-12T19:59:23Z</time>
    </trkpt>
    <trkpt lat="38.612585021" lon="34.952237997">
      <ele>1262.694</ele>
      <time>2021-10-12T19:59:24Z</time>
    </trkpt>
    <trkpt lat="38.612589967" lon="34.952202039">
      <ele>1262.676</ele>
      <time>2021-10-12T19:59:25Z</time>
    </trkpt>
    <trkpt lat="38.612594996" lon="34.952160968">
      <ele>1262.658</ele>
      <time>2021-10-12T19:59:26Z</time>
    </trkpt>
    <trkpt lat="38.612598013" lon="34.952121992">
      <ele>1262.647</ele>
      <time>2021-10-12T19:59:27Z</time>
    </trkpt>
    <trkpt lat="38.61260497" lon="34.952077987">
      <ele>1262.622</ele>
      <time>2021-10-12T19:59:28Z</time>
    </trkpt>
    <trkpt lat="38.612611005" lon="34.952040017">
      <ele>1262.6</ele>
      <time>2021-10-12T19:59:30Z</time>
    </trkpt>
    <trkpt lat="38.612614023" lon="34.952000035">
      <ele>1262.59</ele>
      <time>2021-10-12T19:59:31Z</time>
    </trkpt>
    <trkpt lat="38.612614023" lon="34.951960975">
      <ele>1262.59</ele>
      <time>2021-10-12T19:59:32Z</time>
    </trkpt>
    <trkpt lat="38.612616034" lon="34.951923005">
      <ele>1262.627</ele>
      <time>2021-10-12T19:59:33Z</time>
    </trkpt>
    <trkpt lat="38.612615028" lon="34.951882018">
      <ele>1262.718</ele>
      <time>2021-10-12T19:59:34Z</time>
    </trkpt>
    <trkpt lat="38.612613017" lon="34.951842958">
      <ele>1262.81</ele>
      <time>2021-10-12T19:59:35Z</time>
    </trkpt>
    <trkpt lat="38.612611005" lon="34.951802976">
      <ele>1262.906</ele>
      <time>2021-10-12T19:59:36Z</time>
    </trkpt>
    <trkpt lat="38.61261704" lon="34.951760983">
      <ele>1262.961</ele>
      <time>2021-10-12T19:59:38Z</time>
    </trkpt>
    <trkpt lat="38.612641012" lon="34.951731982">
      <ele>1262.869</ele>
      <time>2021-10-12T19:59:39Z</time>
    </trkpt>
    <trkpt lat="38.612736985" lon="34.951699963">
      <ele>1262.276</ele>
      <time>2021-10-12T19:59:43Z</time>
    </trkpt>
    <trkpt lat="38.612773027" lon="34.951712033">
      <ele>1262.031</ele>
      <time>2021-10-12T19:59:44Z</time>
    </trkpt>
    <trkpt lat="38.612804962" lon="34.951727958">
      <ele>1262.055</ele>
      <time>2021-10-12T19:59:45Z</time>
    </trkpt>
    <trkpt lat="38.612835975" lon="34.951743968">
      <ele>1262.093</ele>
      <time>2021-10-12T19:59:46Z</time>
    </trkpt>
    <trkpt lat="38.612861959" lon="34.951746985">
      <ele>1262.128</ele>
      <time>2021-10-12T19:59:47Z</time>
    </trkpt>
    <trkpt lat="38.612887021" lon="34.951748997">
      <ele>1262.16</ele>
      <time>2021-10-12T19:59:48Z</time>
    </trkpt>
    <trkpt lat="38.612909988" lon="34.95174204">
      <ele>1262.218</ele>
      <time>2021-10-12T19:59:49Z</time>
    </trkpt>
    <trkpt lat="38.612931026" lon="34.951727958">
      <ele>1262.308</ele>
      <time>2021-10-12T19:59:50Z</time>
    </trkpt>
    <trkpt lat="38.612949969" lon="34.951705998">
      <ele>1262.444</ele>
      <time>2021-10-12T19:59:51Z</time>
    </trkpt>
    <trkpt lat="38.612970002" lon="34.95168102">
      <ele>1262.62</ele>
      <time>2021-10-12T19:59:52Z</time>
    </trkpt>
    <trkpt lat="38.612990035" lon="34.951655036">
      <ele>1262.858</ele>
      <time>2021-10-12T19:59:53Z</time>
    </trkpt>
    <trkpt lat="38.613009984" lon="34.95163098">
      <ele>1263.114</ele>
      <time>2021-10-12T19:59:54Z</time>
    </trkpt>
    <trkpt lat="38.613029011" lon="34.951604996">
      <ele>1263.37</ele>
      <time>2021-10-12T19:59:55Z</time>
    </trkpt>
    <trkpt lat="38.61304502" lon="34.951571971">
      <ele>1263.657</ele>
      <time>2021-10-12T19:59:56Z</time>
    </trkpt>
    <trkpt lat="38.613064969" lon="34.951540036">
      <ele>1263.893</ele>
      <time>2021-10-12T19:59:58Z</time>
    </trkpt>
    <trkpt lat="38.613083996" lon="34.951509023">
      <ele>1264.091</ele>
      <time>2021-10-12T19:59:59Z</time>
    </trkpt>
    <trkpt lat="38.613102017" lon="34.951480022">
      <ele>1264.289</ele>
      <time>2021-10-12T20:00:00Z</time>
    </trkpt>
    <trkpt lat="38.613117021" lon="34.951449009">
      <ele>1264.519</ele>
      <time>2021-10-12T20:00:01Z</time>
    </trkpt>
    <trkpt lat="38.613135042" lon="34.951417996">
      <ele>1264.76</ele>
      <time>2021-10-12T20:00:02Z</time>
    </trkpt>
    <trkpt lat="38.613149961" lon="34.951391006">
      <ele>1264.982</ele>
      <time>2021-10-12T20:00:03Z</time>
    </trkpt>
    <trkpt lat="38.613166977" lon="34.95135597">
      <ele>1265.308</ele>
      <time>2021-10-12T20:00:04Z</time>
    </trkpt>
    <trkpt lat="38.61318198" lon="34.951318">
      <ele>1265.649</ele>
      <time>2021-10-12T20:00:05Z</time>
    </trkpt>
    <trkpt lat="38.613196984" lon="34.951286986">
      <ele>1265.914</ele>
      <time>2021-10-12T20:00:06Z</time>
    </trkpt>
    <trkpt lat="38.613213999" lon="34.951255973">
      <ele>1266.163</ele>
      <time>2021-10-12T20:00:07Z</time>
    </trkpt>
    <trkpt lat="38.613234032" lon="34.951227978">
      <ele>1266.366</ele>
      <time>2021-10-12T20:00:09Z</time>
    </trkpt>
    <trkpt lat="38.613255993" lon="34.951198976">
      <ele>1266.558</ele>
      <time>2021-10-12T20:00:10Z</time>
    </trkpt>
    <trkpt lat="38.613278037" lon="34.951172993">
      <ele>1266.709</ele>
      <time>2021-10-12T20:00:11Z</time>
    </trkpt>
    <trkpt lat="38.613302009" lon="34.951150026">
      <ele>1266.817</ele>
      <time>2021-10-12T20:00:12Z</time>
    </trkpt>
    <trkpt lat="38.613327993" lon="34.951126976">
      <ele>1266.904</ele>
      <time>2021-10-12T20:00:13Z</time>
    </trkpt>
    <trkpt lat="38.613363029" lon="34.95110401">
      <ele>1266.682</ele>
      <time>2021-10-12T20:00:15Z</time>
    </trkpt>
    <trkpt lat="38.613392031" lon="34.951082971">
      <ele>1266.387</ele>
      <time>2021-10-12T20:00:16Z</time>
    </trkpt>
    <trkpt lat="38.613420026" lon="34.951066962">
      <ele>1266.113</ele>
      <time>2021-10-12T20:00:17Z</time>
    </trkpt>
    <trkpt lat="38.613451039" lon="34.95105003">
      <ele>1265.822</ele>
      <time>2021-10-12T20:00:18Z</time>
    </trkpt>
    <trkpt lat="38.613479035" lon="34.951034021">
      <ele>1265.572</ele>
      <time>2021-10-12T20:00:19Z</time>
    </trkpt>
    <trkpt lat="38.613506025" lon="34.951018011">
      <ele>1265.343</ele>
      <time>2021-10-12T20:00:20Z</time>
    </trkpt>
    <trkpt lat="38.613533014" lon="34.95099999">
      <ele>1265.131</ele>
      <time>2021-10-12T20:00:22Z</time>
    </trkpt>
    <trkpt lat="38.613554975" lon="34.950977024">
      <ele>1264.991</ele>
      <time>2021-10-12T20:00:23Z</time>
    </trkpt>
    <trkpt lat="38.613569979" lon="34.950953973">
      <ele>1264.926</ele>
      <time>2021-10-12T20:00:23Z</time>
    </trkpt>
    <trkpt lat="38.613582971" lon="34.950925978">
      <ele>1264.903</ele>
      <time>2021-10-12T20:00:24Z</time>
    </trkpt>
    <trkpt lat="38.613594035" lon="34.950896977">
      <ele>1264.908</ele>
      <time>2021-10-12T20:00:25Z</time>
    </trkpt>
    <trkpt lat="38.613604009" lon="34.950865963">
      <ele>1264.937</ele>
      <time>2021-10-12T20:00:26Z</time>
    </trkpt>
    <trkpt lat="38.613611972" lon="34.950835034">
      <ele>1264.991</ele>
      <time>2021-10-12T20:00:27Z</time>
    </trkpt>
    <trkpt lat="38.613614989" lon="34.950807039">
      <ele>1265.175</ele>
      <time>2021-10-12T20:00:28Z</time>
    </trkpt>
    <trkpt lat="38.61362203" lon="34.950773008">
      <ele>1265.395</ele>
      <time>2021-10-12T20:00:29Z</time>
    </trkpt>
    <trkpt lat="38.613626976" lon="34.950744007">
      <ele>1265.586</ele>
      <time>2021-10-12T20:00:30Z</time>
    </trkpt>
    <trkpt lat="38.613636028" lon="34.950715005">
      <ele>1265.762</ele>
      <time>2021-10-12T20:00:31Z</time>
    </trkpt>
    <trkpt lat="38.613644997" lon="34.950692039">
      <ele>1265.895</ele>
      <time>2021-10-12T20:00:32Z</time>
    </trkpt>
    <trkpt lat="38.613656983" lon="34.95066396">
      <ele>1266.054</ele>
      <time>2021-10-12T20:00:33Z</time>
    </trkpt>
    <trkpt lat="38.613672992" lon="34.950647028">
      <ele>1266.119</ele>
      <time>2021-10-12T20:00:33Z</time>
    </trkpt>
    <trkpt lat="38.613693025" lon="34.950629007">
      <ele>1266.176</ele>
      <time>2021-10-12T20:00:34Z</time>
    </trkpt>
    <trkpt lat="38.613712974" lon="34.950616015">
      <ele>1266.198</ele>
      <time>2021-10-12T20:00:35Z</time>
    </trkpt>
    <trkpt lat="38.613738036" lon="34.950604029">
      <ele>1266.194</ele>
      <time>2021-10-12T20:00:36Z</time>
    </trkpt>
    <trkpt lat="38.613757985" lon="34.950601012">
      <ele>1266.144</ele>
      <time>2021-10-12T20:00:37Z</time>
    </trkpt>
    <trkpt lat="38.61378598" lon="34.950590031">
      <ele>1266.122</ele>
      <time>2021-10-12T20:00:38Z</time>
    </trkpt>
    <trkpt lat="38.613815987" lon="34.950580979">
      <ele>1266.079</ele>
      <time>2021-10-12T20:00:39Z</time>
    </trkpt>
    <trkpt lat="38.613841971" lon="34.950573016">
      <ele>1266.043</ele>
      <time>2021-10-12T20:00:40Z</time>
    </trkpt>
    <trkpt lat="38.613869967" lon="34.950559018">
      <ele>1266.043</ele>
      <time>2021-10-12T20:00:41Z</time>
    </trkpt>
    <trkpt lat="38.613898968" lon="34.950546026">
      <ele>1266.034</ele>
      <time>2021-10-12T20:00:42Z</time>
    </trkpt>
    <trkpt lat="38.613928976" lon="34.950534962">
      <ele>1266.015</ele>
      <time>2021-10-12T20:00:43Z</time>
    </trkpt>
    <trkpt lat="38.613956971" lon="34.950525993">
      <ele>1265.994</ele>
      <time>2021-10-12T20:00:44Z</time>
    </trkpt>
    <trkpt lat="38.613979015" lon="34.950516019">
      <ele>1266.006</ele>
      <time>2021-10-12T20:00:45Z</time>
    </trkpt>
    <trkpt lat="38.614003994" lon="34.950501015">
      <ele>1266.06</ele>
      <time>2021-10-12T20:00:46Z</time>
    </trkpt>
    <trkpt lat="38.614034001" lon="34.950492969">
      <ele>1266.046</ele>
      <time>2021-10-12T20:00:48Z</time>
    </trkpt>
    <trkpt lat="38.614057973" lon="34.950482994">
      <ele>1266.073</ele>
      <time>2021-10-12T20:00:48Z</time>
    </trkpt>
    <trkpt lat="38.614088986" lon="34.950480983">
      <ele>1266.01</ele>
      <time>2021-10-12T20:00:50Z</time>
    </trkpt>
    <trkpt lat="38.614115976" lon="34.950472014">
      <ele>1266.03</ele>
      <time>2021-10-12T20:00:51Z</time>
    </trkpt>
    <trkpt lat="38.614144977" lon="34.950467991">
      <ele>1265.999</ele>
      <time>2021-10-12T20:00:52Z</time>
    </trkpt>
    <trkpt lat="38.614171967" lon="34.950464973">
      <ele>1265.997</ele>
      <time>2021-10-12T20:00:53Z</time>
    </trkpt>
    <trkpt lat="38.614195017" lon="34.95046204">
      <ele>1266.112</ele>
      <time>2021-10-12T20:00:54Z</time>
    </trkpt>
    <trkpt lat="38.614219995" lon="34.95045701">
      <ele>1266.256</ele>
      <time>2021-10-12T20:00:54Z</time>
    </trkpt>
    <trkpt lat="38.614246985" lon="34.950447036">
      <ele>1266.461</ele>
      <time>2021-10-12T20:00:56Z</time>
    </trkpt>
    <trkpt lat="38.614271963" lon="34.950435972">
      <ele>1266.671</ele>
      <time>2021-10-12T20:00:57Z</time>
    </trkpt>
    <trkpt lat="38.614299037" lon="34.950428009">
      <ele>1266.854</ele>
      <time>2021-10-12T20:00:58Z</time>
    </trkpt>
    <trkpt lat="38.614326026" lon="34.95041904">
      <ele>1267.048</ele>
      <time>2021-10-12T20:00:59Z</time>
    </trkpt>
    <trkpt lat="38.614349999" lon="34.950410994">
      <ele>1267.221</ele>
      <time>2021-10-12T20:00:59Z</time>
    </trkpt>
    <trkpt lat="38.614373971" lon="34.950398002">
      <ele>1267.448</ele>
      <time>2021-10-12T20:01:00Z</time>
    </trkpt>
    <trkpt lat="38.614391992" lon="34.950386016">
      <ele>1267.642</ele>
      <time>2021-10-12T20:01:01Z</time>
    </trkpt>
    <trkpt lat="38.614396015" lon="34.950343017">
      <ele>1268.121</ele>
      <time>2021-10-12T20:01:02Z</time>
    </trkpt>
    <trkpt lat="38.614392998" lon="34.950317033">
      <ele>1268.391</ele>
      <time>2021-10-12T20:01:03Z</time>
    </trkpt>
    <trkpt lat="38.61438998" lon="34.950289959">
      <ele>1268.672</ele>
      <time>2021-10-12T20:01:04Z</time>
    </trkpt>
    <trkpt lat="38.614385035" lon="34.950262969">
      <ele>1268.893</ele>
      <time>2021-10-12T20:01:05Z</time>
    </trkpt>
    <trkpt lat="38.614380006" lon="34.950236985">
      <ele>1269.062</ele>
      <time>2021-10-12T20:01:06Z</time>
    </trkpt>
    <trkpt lat="38.614377994" lon="34.950212007">
      <ele>1269.234</ele>
      <time>2021-10-12T20:01:06Z</time>
    </trkpt>
    <trkpt lat="38.614374977" lon="34.950187029">
      <ele>1269.403</ele>
      <time>2021-10-12T20:01:07Z</time>
    </trkpt>
    <trkpt lat="38.61436802" lon="34.950163979">
      <ele>1269.544</ele>
      <time>2021-10-12T20:01:08Z</time>
    </trkpt>
    <trkpt lat="38.614358967" lon="34.950143024">
      <ele>1269.663</ele>
      <time>2021-10-12T20:01:08Z</time>
    </trkpt>
    <trkpt lat="38.614355028" lon="34.95010497">
      <ele>1269.922</ele>
      <time>2021-10-12T20:01:10Z</time>
    </trkpt>
    <trkpt lat="38.614360979" lon="34.950080998">
      <ele>1270.116</ele>
      <time>2021-10-12T20:01:10Z</time>
    </trkpt>
    <trkpt lat="38.614358967" lon="34.950051997">
      <ele>1270.318</ele>
      <time>2021-10-12T20:01:11Z</time>
    </trkpt>
    <trkpt lat="38.614353016" lon="34.950020984">
      <ele>1270.52</ele>
      <time>2021-10-12T20:01:12Z</time>
    </trkpt>
    <trkpt lat="38.614357961" lon="34.949995">
      <ele>1270.754</ele>
      <time>2021-10-12T20:01:13Z</time>
    </trkpt>
    <trkpt lat="38.614361985" lon="34.949965999">
      <ele>1271.143</ele>
      <time>2021-10-12T20:01:14Z</time>
    </trkpt>
    <trkpt lat="38.614366008" lon="34.949936997">
      <ele>1271.526</ele>
      <time>2021-10-12T20:01:15Z</time>
    </trkpt>
    <trkpt lat="38.614366008" lon="34.949907996">
      <ele>1271.898</ele>
      <time>2021-10-12T20:01:15Z</time>
    </trkpt>
    <trkpt lat="38.61436299" lon="34.949878994">
      <ele>1272.269</ele>
      <time>2021-10-12T20:01:16Z</time>
    </trkpt>
    <trkpt lat="38.614366008" lon="34.949847981">
      <ele>1272.668</ele>
      <time>2021-10-12T20:01:17Z</time>
    </trkpt>
    <trkpt lat="38.614371037" lon="34.949819986">
      <ele>1273.022</ele>
      <time>2021-10-12T20:01:18Z</time>
    </trkpt>
    <trkpt lat="38.614375982" lon="34.94979199">
      <ele>1273.369</ele>
      <time>2021-10-12T20:01:19Z</time>
    </trkpt>
    <trkpt lat="38.614387969" lon="34.949763995">
      <ele>1273.691</ele>
      <time>2021-10-12T20:01:20Z</time>
    </trkpt>
    <trkpt lat="38.614387969" lon="34.949739017">
      <ele>1273.997</ele>
      <time>2021-10-12T20:01:20Z</time>
    </trkpt>
    <trkpt lat="38.614394004" lon="34.949715966">
      <ele>1274.321</ele>
      <time>2021-10-12T20:01:21Z</time>
    </trkpt>
    <trkpt lat="38.614404984" lon="34.949685037">
      <ele>1274.964</ele>
      <time>2021-10-12T20:01:22Z</time>
    </trkpt>
    <trkpt lat="38.614415964" lon="34.949665004">
      <ele>1275.36</ele>
      <time>2021-10-12T20:01:23Z</time>
    </trkpt>
    <trkpt lat="38.614424011" lon="34.949637009">
      <ele>1275.937</ele>
      <time>2021-10-12T20:01:24Z</time>
    </trkpt>
    <trkpt lat="38.614433985" lon="34.949613959">
      <ele>1276.391</ele>
      <time>2021-10-12T20:01:25Z</time>
    </trkpt>
    <trkpt lat="38.61444002" lon="34.949588981">
      <ele>1276.902</ele>
      <time>2021-10-12T20:01:25Z</time>
    </trkpt>
    <trkpt lat="38.614448989" lon="34.949568026">
      <ele>1277.363</ele>
      <time>2021-10-12T20:01:26Z</time>
    </trkpt>
    <trkpt lat="38.614458041" lon="34.949545981">
      <ele>1277.905</ele>
      <time>2021-10-12T20:01:27Z</time>
    </trkpt>
    <trkpt lat="38.614474973" lon="34.949527038">
      <ele>1278.436</ele>
      <time>2021-10-12T20:01:28Z</time>
    </trkpt>
    <trkpt lat="38.614486959" lon="34.949509017">
      <ele>1278.911</ele>
      <time>2021-10-12T20:01:28Z</time>
    </trkpt>
    <trkpt lat="38.614498023" lon="34.949480016">
      <ele>1279.617</ele>
      <time>2021-10-12T20:01:29Z</time>
    </trkpt>
    <trkpt lat="38.614512021" lon="34.94945202">
      <ele>1280.323</ele>
      <time>2021-10-12T20:01:30Z</time>
    </trkpt>
    <trkpt lat="38.614529036" lon="34.949438022">
      <ele>1280.803</ele>
      <time>2021-10-12T20:01:31Z</time>
    </trkpt>
    <trkpt lat="38.614540016" lon="34.949415978">
      <ele>1281.54</ele>
      <time>2021-10-12T20:01:32Z</time>
    </trkpt>
    <trkpt lat="38.614552002" lon="34.949393012">
      <ele>1282.297</ele>
      <time>2021-10-12T20:01:32Z</time>
    </trkpt>
    <trkpt lat="38.614562983" lon="34.949369039">
      <ele>1283.065</ele>
      <time>2021-10-12T20:01:33Z</time>
    </trkpt>
    <trkpt lat="38.614583015" lon="34.949344983">
      <ele>1283.863</ele>
      <time>2021-10-12T20:01:34Z</time>
    </trkpt>
    <trkpt lat="38.614587039" lon="34.949315982">
      <ele>1284.714</ele>
      <time>2021-10-12T20:01:35Z</time>
    </trkpt>
    <trkpt lat="38.614596007" lon="34.949286981">
      <ele>1285.574</ele>
      <time>2021-10-12T20:01:36Z</time>
    </trkpt>
    <trkpt lat="38.614600031" lon="34.949263008">
      <ele>1286.267</ele>
      <time>2021-10-12T20:01:37Z</time>
    </trkpt>
    <trkpt lat="38.614607994" lon="34.94924197">
      <ele>1286.879</ele>
      <time>2021-10-12T20:01:37Z</time>
    </trkpt>
    <trkpt lat="38.61461604" lon="34.949212968">
      <ele>1287.706</ele>
      <time>2021-10-12T20:01:38Z</time>
    </trkpt>
    <trkpt lat="38.61461998" lon="34.949188996">
      <ele>1288.378</ele>
      <time>2021-10-12T20:01:39Z</time>
    </trkpt>
    <trkpt lat="38.614616962" lon="34.94916603">
      <ele>1289.017</ele>
      <time>2021-10-12T20:01:40Z</time>
    </trkpt>
    <trkpt lat="38.614615034" lon="34.949136022">
      <ele>1289.797</ele>
      <time>2021-10-12T20:01:41Z</time>
    </trkpt>
    <trkpt lat="38.614616962" lon="34.949111966">
      <ele>1290.426</ele>
      <time>2021-10-12T20:01:41Z</time>
    </trkpt>
    <trkpt lat="38.614620985" lon="34.949087994">
      <ele>1291.059</ele>
      <time>2021-10-12T20:01:42Z</time>
    </trkpt>
    <trkpt lat="38.614626015" lon="34.949065028">
      <ele>1291.674</ele>
      <time>2021-10-12T20:01:43Z</time>
    </trkpt>
    <trkpt lat="38.614625009" lon="34.949039966">
      <ele>1292.33</ele>
      <time>2021-10-12T20:01:43Z</time>
    </trkpt>
    <trkpt lat="38.614630038" lon="34.949007025">
      <ele>1293.216</ele>
      <time>2021-10-12T20:01:44Z</time>
    </trkpt>
    <trkpt lat="38.614631966" lon="34.948982969">
      <ele>1293.861</ele>
      <time>2021-10-12T20:01:45Z</time>
    </trkpt>
    <trkpt lat="38.614628026" lon="34.948961008">
      <ele>1294.421</ele>
      <time>2021-10-12T20:01:46Z</time>
    </trkpt>
    <trkpt lat="38.614633977" lon="34.948935024">
      <ele>1295.141</ele>
      <time>2021-10-12T20:01:47Z</time>
    </trkpt>
    <trkpt lat="38.614640012" lon="34.948904011">
      <ele>1296.005</ele>
      <time>2021-10-12T20:01:47Z</time>
    </trkpt>
    <trkpt lat="38.614651999" lon="34.948878027">
      <ele>1296.768</ele>
      <time>2021-10-12T20:01:48Z</time>
    </trkpt>
    <trkpt lat="38.614658033" lon="34.948852966">
      <ele>1297.443</ele>
      <time>2021-10-12T20:01:49Z</time>
    </trkpt>
    <trkpt lat="38.614667002" lon="34.948829999">
      <ele>1298.086</ele>
      <time>2021-10-12T20:01:50Z</time>
    </trkpt>
    <trkpt lat="38.614673959" lon="34.948800998">
      <ele>1298.867</ele>
      <time>2021-10-12T20:01:51Z</time>
    </trkpt>
    <trkpt lat="38.614674965" lon="34.94877602">
      <ele>1299.504</ele>
      <time>2021-10-12T20:01:51Z</time>
    </trkpt>
    <trkpt lat="38.614683012" lon="34.948751042">
      <ele>1300.191</ele>
      <time>2021-10-12T20:01:52Z</time>
    </trkpt>
    <trkpt lat="38.614688041" lon="34.948727991">
      <ele>1300.809</ele>
      <time>2021-10-12T20:01:53Z</time>
    </trkpt>
    <trkpt lat="38.614688963" lon="34.948703013">
      <ele>1301.445</ele>
      <time>2021-10-12T20:01:54Z</time>
    </trkpt>
    <trkpt lat="38.614684017" lon="34.948673006">
      <ele>1302.165</ele>
      <time>2021-10-12T20:01:55Z</time>
    </trkpt>
    <trkpt lat="38.614693992" lon="34.948653979">
      <ele>1302.716</ele>
      <time>2021-10-12T20:01:55Z</time>
    </trkpt>
    <trkpt lat="38.614698015" lon="34.948630007">
      <ele>1303.35</ele>
      <time>2021-10-12T20:01:56Z</time>
    </trkpt>
    <trkpt lat="38.614693992" lon="34.948604023">
      <ele>1303.901</ele>
      <time>2021-10-12T20:01:57Z</time>
    </trkpt>
    <trkpt lat="38.614700027" lon="34.948578961">
      <ele>1304.312</ele>
      <time>2021-10-12T20:01:57Z</time>
    </trkpt>
    <trkpt lat="38.614706984" lon="34.948557001">
      <ele>1304.68</ele>
      <time>2021-10-12T20:01:58Z</time>
    </trkpt>
    <trkpt lat="38.614719976" lon="34.94853504">
      <ele>1305.081</ele>
      <time>2021-10-12T20:01:59Z</time>
    </trkpt>
    <trkpt lat="38.614730034" lon="34.948510984">
      <ele>1305.393</ele>
      <time>2021-10-12T20:02:00Z</time>
    </trkpt>
    <trkpt lat="38.614741014" lon="34.948488018">
      <ele>1305.645</ele>
      <time>2021-10-12T20:02:00Z</time>
    </trkpt>
    <trkpt lat="38.614754006" lon="34.948465973">
      <ele>1305.856</ele>
      <time>2021-10-12T20:02:01Z</time>
    </trkpt>
    <trkpt lat="38.614772027" lon="34.948448036">
      <ele>1305.958</ele>
      <time>2021-10-12T20:02:02Z</time>
    </trkpt>
    <trkpt lat="38.614788959" lon="34.948432026">
      <ele>1306.029</ele>
      <time>2021-10-12T20:02:03Z</time>
    </trkpt>
    <trkpt lat="38.614804968" lon="34.948414005">
      <ele>1306.118</ele>
      <time>2021-10-12T20:02:04Z</time>
    </trkpt>
    <trkpt lat="38.614814021" lon="34.948390033">
      <ele>1306.327</ele>
      <time>2021-10-12T20:02:04Z</time>
    </trkpt>
    <trkpt lat="38.614831036" lon="34.94835902">
      <ele>1306.527</ele>
      <time>2021-10-12T20:02:06Z</time>
    </trkpt>
    <trkpt lat="38.614844028" lon="34.948327001">
      <ele>1306.679</ele>
      <time>2021-10-12T20:02:07Z</time>
    </trkpt>
    <trkpt lat="38.614860037" lon="34.94828702">
      <ele>1306.509</ele>
      <time>2021-10-12T20:02:08Z</time>
    </trkpt>
    <trkpt lat="38.614870012" lon="34.948263969">
      <ele>1306.436</ele>
      <time>2021-10-12T20:02:09Z</time>
    </trkpt>
    <trkpt lat="38.614885015" lon="34.948243015">
      <ele>1306.354</ele>
      <time>2021-10-12T20:02:10Z</time>
    </trkpt>
    <trkpt lat="38.614903959" lon="34.948221976">
      <ele>1306.285</ele>
      <time>2021-10-12T20:02:10Z</time>
    </trkpt>
    <trkpt lat="38.614923991" lon="34.948200015">
      <ele>1306.255</ele>
      <time>2021-10-12T20:02:11Z</time>
    </trkpt>
    <trkpt lat="38.614946036" lon="34.948179983">
      <ele>1306.258</ele>
      <time>2021-10-12T20:02:12Z</time>
    </trkpt>
    <trkpt lat="38.614963973" lon="34.948158022">
      <ele>1306.324</ele>
      <time>2021-10-12T20:02:13Z</time>
    </trkpt>
    <trkpt lat="38.614989035" lon="34.948135978">
      <ele>1306.427</ele>
      <time>2021-10-12T20:02:14Z</time>
    </trkpt>
    <trkpt lat="38.615010995" lon="34.948114017">
      <ele>1306.562</ele>
      <time>2021-10-12T20:02:15Z</time>
    </trkpt>
    <trkpt lat="38.615030022" lon="34.948098008">
      <ele>1306.661</ele>
      <time>2021-10-12T20:02:16Z</time>
    </trkpt>
    <trkpt lat="38.615051983" lon="34.948081998">
      <ele>1306.774</ele>
      <time>2021-10-12T20:02:17Z</time>
    </trkpt>
    <trkpt lat="38.615075033" lon="34.948066995">
      <ele>1306.895</ele>
      <time>2021-10-12T20:02:18Z</time>
    </trkpt>
    <trkpt lat="38.615098" lon="34.948049979">
      <ele>1306.961</ele>
      <time>2021-10-12T20:02:19Z</time>
    </trkpt>
    <trkpt lat="38.615120966" lon="34.948031958">
      <ele>1306.856</ele>
      <time>2021-10-12T20:02:20Z</time>
    </trkpt>
    <trkpt lat="38.615145022" lon="34.948013015">
      <ele>1306.78</ele>
      <time>2021-10-12T20:02:21Z</time>
    </trkpt>
    <trkpt lat="38.615168994" lon="34.947992982">
      <ele>1306.735</ele>
      <time>2021-10-12T20:02:22Z</time>
    </trkpt>
    <trkpt lat="38.615193972" lon="34.947973033">
      <ele>1306.731</ele>
      <time>2021-10-12T20:02:23Z</time>
    </trkpt>
    <trkpt lat="38.615221968" lon="34.947951995">
      <ele>1306.775</ele>
      <time>2021-10-12T20:02:25Z</time>
    </trkpt>
    <trkpt lat="38.615246024" lon="34.947930034">
      <ele>1306.845</ele>
      <time>2021-10-12T20:02:26Z</time>
    </trkpt>
    <trkpt lat="38.615273014" lon="34.947913019">
      <ele>1306.974</ele>
      <time>2021-10-12T20:02:27Z</time>
    </trkpt>
    <trkpt lat="38.615298998" lon="34.947900027">
      <ele>1306.966</ele>
      <time>2021-10-12T20:02:28Z</time>
    </trkpt>
    <trkpt lat="38.615324982" lon="34.947887035">
      <ele>1306.933</ele>
      <time>2021-10-12T20:02:29Z</time>
    </trkpt>
    <trkpt lat="38.615351971" lon="34.947876977">
      <ele>1306.905</ele>
      <time>2021-10-12T20:02:30Z</time>
    </trkpt>
    <trkpt lat="38.615378961" lon="34.94787002">
      <ele>1306.879</ele>
      <time>2021-10-12T20:02:31Z</time>
    </trkpt>
    <trkpt lat="38.615406035" lon="34.947863985">
      <ele>1306.857</ele>
      <time>2021-10-12T20:02:32Z</time>
    </trkpt>
    <trkpt lat="38.615431013" lon="34.947857028">
      <ele>1306.843</ele>
      <time>2021-10-12T20:02:33Z</time>
    </trkpt>
    <trkpt lat="38.615454985" lon="34.947845964">
      <ele>1306.843</ele>
      <time>2021-10-12T20:02:34Z</time>
    </trkpt>
    <trkpt lat="38.615478035" lon="34.947834983">
      <ele>1306.852</ele>
      <time>2021-10-12T20:02:35Z</time>
    </trkpt>
    <trkpt lat="38.615504019" lon="34.947825009">
      <ele>1306.862</ele>
      <time>2021-10-12T20:02:36Z</time>
    </trkpt>
    <trkpt lat="38.615530003" lon="34.94781998">
      <ele>1306.862</ele>
      <time>2021-10-12T20:02:37Z</time>
    </trkpt>
    <trkpt lat="38.615561016" lon="34.94781604">
      <ele>1306.879</ele>
      <time>2021-10-12T20:02:38Z</time>
    </trkpt>
    <trkpt lat="38.615590017" lon="34.947810005">
      <ele>1306.994</ele>
      <time>2021-10-12T20:02:39Z</time>
    </trkpt>
    <trkpt lat="38.615619019" lon="34.947800031">
      <ele>1307.13</ele>
      <time>2021-10-12T20:02:40Z</time>
    </trkpt>
    <trkpt lat="38.615650032" lon="34.947790978">
      <ele>1307.276</ele>
      <time>2021-10-12T20:02:41Z</time>
    </trkpt>
    <trkpt lat="38.615678027" lon="34.947779998">
      <ele>1307.429</ele>
      <time>2021-10-12T20:02:42Z</time>
    </trkpt>
    <trkpt lat="38.615707029" lon="34.94777103">
      <ele>1307.508</ele>
      <time>2021-10-12T20:02:43Z</time>
    </trkpt>
    <trkpt lat="38.615734018" lon="34.947760971">
      <ele>1307.543</ele>
      <time>2021-10-12T20:02:44Z</time>
    </trkpt>
    <trkpt lat="38.615761008" lon="34.947747979">
      <ele>1307.553</ele>
      <time>2021-10-12T20:02:46Z</time>
    </trkpt>
    <trkpt lat="38.615786992" lon="34.947732976">
      <ele>1307.538</ele>
      <time>2021-10-12T20:02:47Z</time>
    </trkpt>
    <trkpt lat="38.615810964" lon="34.947718978">
      <ele>1307.513</ele>
      <time>2021-10-12T20:02:48Z</time>
    </trkpt>
    <trkpt lat="38.615836026" lon="34.94770498">
      <ele>1307.474</ele>
      <time>2021-10-12T20:02:49Z</time>
    </trkpt>
    <trkpt lat="38.615863016" lon="34.947695006">
      <ele>1307.393</ele>
      <time>2021-10-12T20:02:50Z</time>
    </trkpt>
    <trkpt lat="38.615886988" lon="34.947685031">
      <ele>1307.333</ele>
      <time>2021-10-12T20:02:51Z</time>
    </trkpt>
    <trkpt lat="38.615912972" lon="34.947676985">
      <ele>1307.3</ele>
      <time>2021-10-12T20:02:52Z</time>
    </trkpt>
    <trkpt lat="38.615936022" lon="34.947674973">
      <ele>1307.301</ele>
      <time>2021-10-12T20:02:52Z</time>
    </trkpt>
    <trkpt lat="38.615957983" lon="34.947673967">
      <ele>1307.307</ele>
      <time>2021-10-12T20:02:53Z</time>
    </trkpt>
    <trkpt lat="38.615984973" lon="34.947671033">
      <ele>1307.315</ele>
      <time>2021-10-12T20:02:54Z</time>
    </trkpt>
    <trkpt lat="38.616010034" lon="34.947663993">
      <ele>1307.326</ele>
      <time>2021-10-12T20:02:55Z</time>
    </trkpt>
    <trkpt lat="38.616036018" lon="34.947658964">
      <ele>1307.351</ele>
      <time>2021-10-12T20:02:56Z</time>
    </trkpt>
    <trkpt lat="38.616062002" lon="34.94765603">
      <ele>1307.383</ele>
      <time>2021-10-12T20:02:57Z</time>
    </trkpt>
    <trkpt lat="38.61608698" lon="34.947652007">
      <ele>1307.422</ele>
      <time>2021-10-12T20:02:58Z</time>
    </trkpt>
    <trkpt lat="38.616110031" lon="34.947641026">
      <ele>1307.49</ele>
      <time>2021-10-12T20:02:59Z</time>
    </trkpt>
    <trkpt lat="38.616131991" lon="34.94763298">
      <ele>1307.819</ele>
      <time>2021-10-12T20:03:00Z</time>
    </trkpt>
    <trkpt lat="38.616151018" lon="34.947625017">
      <ele>1308.11</ele>
      <time>2021-10-12T20:03:01Z</time>
    </trkpt>
    <trkpt lat="38.616169961" lon="34.947618982">
      <ele>1308.389</ele>
      <time>2021-10-12T20:03:01Z</time>
    </trkpt>
    <trkpt lat="38.616189994" lon="34.947615964">
      <ele>1308.672</ele>
      <time>2021-10-12T20:03:02Z</time>
    </trkpt>
    <trkpt lat="38.616209021" lon="34.947608002">
      <ele>1308.943</ele>
      <time>2021-10-12T20:03:03Z</time>
    </trkpt>
    <trkpt lat="38.61622503" lon="34.947597021">
      <ele>1309.168</ele>
      <time>2021-10-12T20:03:03Z</time>
    </trkpt>
    <trkpt lat="38.616240034" lon="34.947584029">
      <ele>1309.371</ele>
      <time>2021-10-12T20:03:04Z</time>
    </trkpt>
    <trkpt lat="38.616268029" lon="34.947570032">
      <ele>1309.727</ele>
      <time>2021-10-12T20:03:05Z</time>
    </trkpt>
    <trkpt lat="38.616301976" lon="34.947570032">
      <ele>1310.156</ele>
      <time>2021-10-12T20:03:06Z</time>
    </trkpt>
    <trkpt lat="38.616319997" lon="34.947571037">
      <ele>1310.385</ele>
      <time>2021-10-12T20:03:07Z</time>
    </trkpt>
    <trkpt lat="38.61634003" lon="34.947573971">
      <ele>1310.645</ele>
      <time>2021-10-12T20:03:08Z</time>
    </trkpt>
    <trkpt lat="38.616359979" lon="34.947572965">
      <ele>1310.896</ele>
      <time>2021-10-12T20:03:09Z</time>
    </trkpt>
    <trkpt lat="38.616389986" lon="34.947556034">
      <ele>1311.219</ele>
      <time>2021-10-12T20:03:10Z</time>
    </trkpt>
    <trkpt lat="38.616407001" lon="34.94754103">
      <ele>1311.428</ele>
      <time>2021-10-12T20:03:11Z</time>
    </trkpt>
    <trkpt lat="38.616423011" lon="34.947523009">
      <ele>1311.595</ele>
      <time>2021-10-12T20:03:11Z</time>
    </trkpt>
    <trkpt lat="38.616441032" lon="34.947504988">
      <ele>1311.776</ele>
      <time>2021-10-12T20:03:12Z</time>
    </trkpt>
    <trkpt lat="38.616459975" lon="34.947485961">
      <ele>1311.733</ele>
      <time>2021-10-12T20:03:13Z</time>
    </trkpt>
    <trkpt lat="38.616480008" lon="34.947468024">
      <ele>1311.659</ele>
      <time>2021-10-12T20:03:14Z</time>
    </trkpt>
    <trkpt lat="38.616502974" lon="34.947450003">
      <ele>1311.637</ele>
      <time>2021-10-12T20:03:15Z</time>
    </trkpt>
    <trkpt lat="38.616528036" lon="34.947430976">
      <ele>1311.637</ele>
      <time>2021-10-12T20:03:16Z</time>
    </trkpt>
    <trkpt lat="38.616553014" lon="34.94741396">
      <ele>1311.688</ele>
      <time>2021-10-12T20:03:17Z</time>
    </trkpt>
    <trkpt lat="38.616580004" lon="34.947399963">
      <ele>1311.839</ele>
      <time>2021-10-12T20:03:18Z</time>
    </trkpt>
    <trkpt lat="38.616603976" lon="34.947384037">
      <ele>1311.916</ele>
      <time>2021-10-12T20:03:19Z</time>
    </trkpt>
    <trkpt lat="38.616626021" lon="34.947366016">
      <ele>1311.932</ele>
      <time>2021-10-12T20:03:20Z</time>
    </trkpt>
    <trkpt lat="38.616646975" lon="34.947347995">
      <ele>1311.942</ele>
      <time>2021-10-12T20:03:21Z</time>
    </trkpt>
    <trkpt lat="38.616666002" lon="34.947327962">
      <ele>1311.892</ele>
      <time>2021-10-12T20:03:22Z</time>
    </trkpt>
    <trkpt lat="38.616681006" lon="34.947311031">
      <ele>1312.065</ele>
      <time>2021-10-12T20:03:23Z</time>
    </trkpt>
    <trkpt lat="38.616701039" lon="34.94729301">
      <ele>1312.417</ele>
      <time>2021-10-12T20:03:24Z</time>
    </trkpt>
    <trkpt lat="38.616720987" lon="34.947278006">
      <ele>1312.842</ele>
      <time>2021-10-12T20:03:25Z</time>
    </trkpt>
    <trkpt lat="38.616740014" lon="34.947263002">
      <ele>1313.258</ele>
      <time>2021-10-12T20:03:25Z</time>
    </trkpt>
    <trkpt lat="38.616763987" lon="34.947252022">
      <ele>1313.927</ele>
      <time>2021-10-12T20:03:26Z</time>
    </trkpt>
    <trkpt lat="38.616784019" lon="34.947243975">
      <ele>1314.517</ele>
      <time>2021-10-12T20:03:27Z</time>
    </trkpt>
    <trkpt lat="38.616802962" lon="34.947241042">
      <ele>1315.146</ele>
      <time>2021-10-12T20:03:28Z</time>
    </trkpt>
    <trkpt lat="38.616820984" lon="34.947236013">
      <ele>1315.721</ele>
      <time>2021-10-12T20:03:29Z</time>
    </trkpt>
    <trkpt lat="38.616839005" lon="34.947224027">
      <ele>1316.225</ele>
      <time>2021-10-12T20:03:29Z</time>
    </trkpt>
    <trkpt lat="38.616853002" lon="34.947206005">
      <ele>1316.358</ele>
      <time>2021-10-12T20:03:30Z</time>
    </trkpt>
    <trkpt lat="38.616868006" lon="34.94718899">
      <ele>1316.53</ele>
      <time>2021-10-12T20:03:31Z</time>
    </trkpt>
    <trkpt lat="38.616885021" lon="34.947169963">
      <ele>1316.732</ele>
      <time>2021-10-12T20:03:32Z</time>
    </trkpt>
    <trkpt lat="38.616901031" lon="34.94715102">
      <ele>1316.899</ele>
      <time>2021-10-12T20:03:32Z</time>
    </trkpt>
    <trkpt lat="38.616918968" lon="34.947129982">
      <ele>1317.09</ele>
      <time>2021-10-12T20:03:33Z</time>
    </trkpt>
    <trkpt lat="38.616935983" lon="34.947114978">
      <ele>1317.379</ele>
      <time>2021-10-12T20:03:34Z</time>
    </trkpt>
    <trkpt lat="38.616956016" lon="34.947099974">
      <ele>1317.456</ele>
      <time>2021-10-12T20:03:35Z</time>
    </trkpt>
    <trkpt lat="38.616974037" lon="34.947084971">
      <ele>1317.3</ele>
      <time>2021-10-12T20:03:36Z</time>
    </trkpt>
    <trkpt lat="38.616989963" lon="34.947068039">
      <ele>1317.106</ele>
      <time>2021-10-12T20:03:36Z</time>
    </trkpt>
    <trkpt lat="38.617005972" lon="34.947048007">
      <ele>1316.875</ele>
      <time>2021-10-12T20:03:37Z</time>
    </trkpt>
    <trkpt lat="38.617021982" lon="34.947024034">
      <ele>1316.596</ele>
      <time>2021-10-12T20:03:38Z</time>
    </trkpt>
    <trkpt lat="38.617037991" lon="34.947000984">
      <ele>1316.363</ele>
      <time>2021-10-12T20:03:39Z</time>
    </trkpt>
    <trkpt lat="38.617052995" lon="34.946980029">
      <ele>1316.182</ele>
      <time>2021-10-12T20:03:40Z</time>
    </trkpt>
    <trkpt lat="38.617071016" lon="34.946957985">
      <ele>1316.048</ele>
      <time>2021-10-12T20:03:41Z</time>
    </trkpt>
    <trkpt lat="38.617089959" lon="34.946936024">
      <ele>1315.931</ele>
      <time>2021-10-12T20:03:42Z</time>
    </trkpt>
    <trkpt lat="38.617108986" lon="34.94691398">
      <ele>1315.797</ele>
      <time>2021-10-12T20:03:43Z</time>
    </trkpt>
    <trkpt lat="38.617124995" lon="34.946887996">
      <ele>1315.574</ele>
      <time>2021-10-12T20:03:44Z</time>
    </trkpt>
    <trkpt lat="38.617138993" lon="34.946858995">
      <ele>1315.295</ele>
      <time>2021-10-12T20:03:45Z</time>
    </trkpt>
    <trkpt lat="38.617157014" lon="34.946827982">
      <ele>1315.089</ele>
      <time>2021-10-12T20:03:46Z</time>
    </trkpt>
    <trkpt lat="38.617179981" lon="34.946800992">
      <ele>1315.09</ele>
      <time>2021-10-12T20:03:47Z</time>
    </trkpt>
    <trkpt lat="38.617194984" lon="34.94677702">
      <ele>1315.02</ele>
      <time>2021-10-12T20:03:48Z</time>
    </trkpt>
    <trkpt lat="38.617211999" lon="34.946751036">
      <ele>1314.991</ele>
      <time>2021-10-12T20:03:49Z</time>
    </trkpt>
    <trkpt lat="38.61723002" lon="34.946723962">
      <ele>1314.847</ele>
      <time>2021-10-12T20:03:50Z</time>
    </trkpt>
    <trkpt lat="38.617247036" lon="34.946696972">
      <ele>1314.516</ele>
      <time>2021-10-12T20:03:51Z</time>
    </trkpt>
    <trkpt lat="38.617265979" lon="34.946670989">
      <ele>1314.217</ele>
      <time>2021-10-12T20:03:52Z</time>
    </trkpt>
    <trkpt lat="38.617278971" lon="34.946643999">
      <ele>1313.895</ele>
      <time>2021-10-12T20:03:53Z</time>
    </trkpt>
    <trkpt lat="38.617289029" lon="34.946613992">
      <ele>1313.528</ele>
      <time>2021-10-12T20:03:54Z</time>
    </trkpt>
    <trkpt lat="38.617300009" lon="34.946579961">
      <ele>1313.119</ele>
      <time>2021-10-12T20:03:55Z</time>
    </trkpt>
    <trkpt lat="38.617313001" lon="34.946545009">
      <ele>1312.718</ele>
      <time>2021-10-12T20:03:56Z</time>
    </trkpt>
    <trkpt lat="38.617323982" lon="34.946507039">
      <ele>1312.278</ele>
      <time>2021-10-12T20:03:57Z</time>
    </trkpt>
    <trkpt lat="38.617335968" lon="34.946469991">
      <ele>1311.867</ele>
      <time>2021-10-12T20:03:58Z</time>
    </trkpt>
    <trkpt lat="38.617347032" lon="34.946431015">
      <ele>1311.437</ele>
      <time>2021-10-12T20:04:00Z</time>
    </trkpt>
    <trkpt lat="38.617356" lon="34.946390027">
      <ele>1310.978</ele>
      <time>2021-10-12T20:04:01Z</time>
    </trkpt>
    <trkpt lat="38.617367987" lon="34.946351973">
      <ele>1310.448</ele>
      <time>2021-10-12T20:04:02Z</time>
    </trkpt>
    <trkpt lat="38.617379973" lon="34.94632096">
      <ele>1310.019</ele>
      <time>2021-10-12T20:04:03Z</time>
    </trkpt>
    <trkpt lat="38.617391959" lon="34.946288019">
      <ele>1309.548</ele>
      <time>2021-10-12T20:04:04Z</time>
    </trkpt>
    <trkpt lat="38.617400005" lon="34.946250971">
      <ele>1308.976</ele>
      <time>2021-10-12T20:04:05Z</time>
    </trkpt>
    <trkpt lat="38.617408974" lon="34.946222976">
      <ele>1308.554</ele>
      <time>2021-10-12T20:04:06Z</time>
    </trkpt>
    <trkpt lat="38.61742096" lon="34.946197998">
      <ele>1308.19</ele>
      <time>2021-10-12T20:04:07Z</time>
    </trkpt>
    <trkpt lat="38.617434036" lon="34.946176037">
      <ele>1307.876</ele>
      <time>2021-10-12T20:04:08Z</time>
    </trkpt>
    <trkpt lat="38.617438981" lon="34.946138989">
      <ele>1307.26</ele>
      <time>2021-10-12T20:04:09Z</time>
    </trkpt>
    <trkpt lat="38.617450967" lon="34.946116023">
      <ele>1306.909</ele>
      <time>2021-10-12T20:04:10Z</time>
    </trkpt>
    <trkpt lat="38.617471" lon="34.946104037">
      <ele>1306.766</ele>
      <time>2021-10-12T20:04:10Z</time>
    </trkpt>
    <trkpt lat="38.617478041" lon="34.946077969">
      <ele>1306.315</ele>
      <time>2021-10-12T20:04:11Z</time>
    </trkpt>
    <trkpt lat="38.617488015" lon="34.946042011">
      <ele>1305.702</ele>
      <time>2021-10-12T20:04:12Z</time>
    </trkpt>
    <trkpt lat="38.617490027" lon="34.94601896">
      <ele>1305.293</ele>
      <time>2021-10-12T20:04:13Z</time>
    </trkpt>
    <trkpt lat="38.61748198" lon="34.945971016">
      <ele>1304.381</ele>
      <time>2021-10-12T20:04:14Z</time>
    </trkpt>
    <trkpt lat="38.61748198" lon="34.945944026">
      <ele>1303.889</ele>
      <time>2021-10-12T20:04:15Z</time>
    </trkpt>
    <trkpt lat="38.617482986" lon="34.945911001">
      <ele>1303.293</ele>
      <time>2021-10-12T20:04:16Z</time>
    </trkpt>
    <trkpt lat="38.617486004" lon="34.94587102">
      <ele>1302.584</ele>
      <time>2021-10-12T20:04:17Z</time>
    </trkpt>
    <trkpt lat="38.617492039" lon="34.945833972">
      <ele>1301.954</ele>
      <time>2021-10-12T20:04:18Z</time>
    </trkpt>
    <trkpt lat="38.617494972" lon="34.945792984">
      <ele>1301.663</ele>
      <time>2021-10-12T20:04:20Z</time>
    </trkpt>
    <trkpt lat="38.617502013" lon="34.945750991">
      <ele>1301.409</ele>
      <time>2021-10-12T20:04:21Z</time>
    </trkpt>
    <trkpt lat="38.617516011" lon="34.945708998">
      <ele>1301.131</ele>
      <time>2021-10-12T20:04:22Z</time>
    </trkpt>
    <trkpt lat="38.617530009" lon="34.945669016">
      <ele>1300.881</ele>
      <time>2021-10-12T20:04:23Z</time>
    </trkpt>
    <trkpt lat="38.617547024" lon="34.945626017">
      <ele>1300.634</ele>
      <time>2021-10-12T20:04:25Z</time>
    </trkpt>
    <trkpt lat="38.617560016" lon="34.945592992">
      <ele>1300.456</ele>
      <time>2021-10-12T20:04:26Z</time>
    </trkpt>
    <trkpt lat="38.617570996" lon="34.945558961">
      <ele>1300.277</ele>
      <time>2021-10-12T20:04:27Z</time>
    </trkpt>
    <trkpt lat="38.617583988" lon="34.945532978">
      <ele>1300.246</ele>
      <time>2021-10-12T20:04:28Z</time>
    </trkpt>
    <trkpt lat="38.617593041" lon="34.945505988">
      <ele>1300.216</ele>
      <time>2021-10-12T20:04:29Z</time>
    </trkpt>
    <trkpt lat="38.617602009" lon="34.945476986">
      <ele>1300.188</ele>
      <time>2021-10-12T20:04:30Z</time>
    </trkpt>
    <trkpt lat="38.617610978" lon="34.945445973">
      <ele>1300.163</ele>
      <time>2021-10-12T20:04:31Z</time>
    </trkpt>
    <trkpt lat="38.617613995" lon="34.945414038">
      <ele>1300.11</ele>
      <time>2021-10-12T20:04:31Z</time>
    </trkpt>
    <trkpt lat="38.617621036" lon="34.945381014">
      <ele>1300.081</ele>
      <time>2021-10-12T20:04:32Z</time>
    </trkpt>
    <trkpt lat="38.617630005" lon="34.945351006">
      <ele>1300.076</ele>
      <time>2021-10-12T20:04:33Z</time>
    </trkpt>
    <trkpt lat="38.617631011" lon="34.945317982">
      <ele>1300.02</ele>
      <time>2021-10-12T20:04:34Z</time>
    </trkpt>
    <trkpt lat="38.617633022" lon="34.945285041">
      <ele>1299.971</ele>
      <time>2021-10-12T20:04:35Z</time>
    </trkpt>
    <trkpt lat="38.61763604" lon="34.945254028">
      <ele>1299.938</ele>
      <time>2021-10-12T20:04:36Z</time>
    </trkpt>
    <trkpt lat="38.617638974" lon="34.945218991">
      <ele>1299.895</ele>
      <time>2021-10-12T20:04:37Z</time>
    </trkpt>
    <trkpt lat="38.617646014" lon="34.945187978">
      <ele>1299.881</ele>
      <time>2021-10-12T20:04:38Z</time>
    </trkpt>
    <trkpt lat="38.617650038" lon="34.945165012">
      <ele>1299.861</ele>
      <time>2021-10-12T20:04:39Z</time>
    </trkpt>
    <trkpt lat="38.617654983" lon="34.945135005">
      <ele>1299.829</ele>
      <time>2021-10-12T20:04:40Z</time>
    </trkpt>
    <trkpt lat="38.617668981" lon="34.945108015">
      <ele>1299.845</ele>
      <time>2021-10-12T20:04:41Z</time>
    </trkpt>
    <trkpt lat="38.61768499" lon="34.945083037">
      <ele>1299.865</ele>
      <time>2021-10-12T20:04:42Z</time>
    </trkpt>
    <trkpt lat="38.617693959" lon="34.945059987">
      <ele>1299.849</ele>
      <time>2021-10-12T20:04:42Z</time>
    </trkpt>
    <trkpt lat="38.617704017" lon="34.945040038">
      <ele>1299.84</ele>
      <time>2021-10-12T20:04:43Z</time>
    </trkpt>
    <trkpt lat="38.617709968" lon="34.945012964">
      <ele>1299.791</ele>
      <time>2021-10-12T20:04:44Z</time>
    </trkpt>
    <trkpt lat="38.617718015" lon="34.944982035">
      <ele>1299.656</ele>
      <time>2021-10-12T20:04:45Z</time>
    </trkpt>
    <trkpt lat="38.617725978" lon="34.94494901">
      <ele>1299.446</ele>
      <time>2021-10-12T20:04:46Z</time>
    </trkpt>
    <trkpt lat="38.617732013" lon="34.944912968">
      <ele>1299.209</ele>
      <time>2021-10-12T20:04:47Z</time>
    </trkpt>
    <trkpt lat="38.617745005" lon="34.944881033">
      <ele>1299.025</ele>
      <time>2021-10-12T20:04:48Z</time>
    </trkpt>
    <trkpt lat="38.617759002" lon="34.944853038">
      <ele>1298.874</ele>
      <time>2021-10-12T20:04:49Z</time>
    </trkpt>
    <trkpt lat="38.617779035" lon="34.94482303">
      <ele>1298.733</ele>
      <time>2021-10-12T20:04:50Z</time>
    </trkpt>
    <trkpt lat="38.617794961" lon="34.944790006">
      <ele>1298.597</ele>
      <time>2021-10-12T20:04:51Z</time>
    </trkpt>
    <trkpt lat="38.617813988" lon="34.944757987">
      <ele>1298.501</ele>
      <time>2021-10-12T20:04:52Z</time>
    </trkpt>
    <trkpt lat="38.617825974" lon="34.944726974">
      <ele>1298.378</ele>
      <time>2021-10-12T20:04:53Z</time>
    </trkpt>
    <trkpt lat="38.617836032" lon="34.944693027">
      <ele>1298.126</ele>
      <time>2021-10-12T20:04:54Z</time>
    </trkpt>
    <trkpt lat="38.617841983" lon="34.944666959">
      <ele>1297.911</ele>
      <time>2021-10-12T20:04:55Z</time>
    </trkpt>
    <trkpt lat="38.617848018" lon="34.944632007">
      <ele>1297.614</ele>
      <time>2021-10-12T20:04:56Z</time>
    </trkpt>
    <trkpt lat="38.617851036" lon="34.944597976">
      <ele>1297.304</ele>
      <time>2021-10-12T20:04:57Z</time>
    </trkpt>
    <trkpt lat="38.617860004" lon="34.944563024">
      <ele>1297.042</ele>
      <time>2021-10-12T20:04:58Z</time>
    </trkpt>
    <trkpt lat="38.617864028" lon="34.944538968">
      <ele>1296.847</ele>
      <time>2021-10-12T20:04:59Z</time>
    </trkpt>
    <trkpt lat="38.617868973" lon="34.944510972">
      <ele>1296.625</ele>
      <time>2021-10-12T20:05:00Z</time>
    </trkpt>
    <trkpt lat="38.617874002" lon="34.944484988">
      <ele>1296.427</ele>
      <time>2021-10-12T20:05:01Z</time>
    </trkpt>
    <trkpt lat="38.617881965" lon="34.944448024">
      <ele>1296.159</ele>
      <time>2021-10-12T20:05:02Z</time>
    </trkpt>
    <trkpt lat="38.617889006" lon="34.944419023">
      <ele>1295.707</ele>
      <time>2021-10-12T20:05:03Z</time>
    </trkpt>
    <trkpt lat="38.617895041" lon="34.944387004">
      <ele>1295.168</ele>
      <time>2021-10-12T20:05:04Z</time>
    </trkpt>
    <trkpt lat="38.617896968" lon="34.944354985">
      <ele>1294.586</ele>
      <time>2021-10-12T20:05:05Z</time>
    </trkpt>
    <trkpt lat="38.617895041" lon="34.944323972">
      <ele>1293.963</ele>
      <time>2021-10-12T20:05:05Z</time>
    </trkpt>
    <trkpt lat="38.617890012" lon="34.944298994">
      <ele>1293.393</ele>
      <time>2021-10-12T20:05:06Z</time>
    </trkpt>
    <trkpt lat="38.617885988" lon="34.944266975">
      <ele>1292.692</ele>
      <time>2021-10-12T20:05:07Z</time>
    </trkpt>
    <trkpt lat="38.617878025" lon="34.944244009">
      <ele>1292.073</ele>
      <time>2021-10-12T20:05:08Z</time>
    </trkpt>
    <trkpt lat="38.617856987" lon="34.944220958">
      <ele>1291.141</ele>
      <time>2021-10-12T20:05:09Z</time>
    </trkpt>
    <trkpt lat="38.617842989" lon="34.944185">
      <ele>1290.043</ele>
      <time>2021-10-12T20:05:10Z</time>
    </trkpt>
    <trkpt lat="38.617841983" lon="34.94414703">
      <ele>1288.965</ele>
      <time>2021-10-12T20:05:11Z</time>
    </trkpt>
    <trkpt lat="38.617848018" lon="34.944124985">
      <ele>1288.382</ele>
      <time>2021-10-12T20:05:12Z</time>
    </trkpt>
    <trkpt lat="38.617857993" lon="34.944090033">
      <ele>1287.459</ele>
      <time>2021-10-12T20:05:13Z</time>
    </trkpt>
    <trkpt lat="38.617879031" lon="34.94407">
      <ele>1287.293</ele>
      <time>2021-10-12T20:05:14Z</time>
    </trkpt>
    <trkpt lat="38.617917001" lon="34.944068994">
      <ele>1288.168</ele>
      <time>2021-10-12T20:05:15Z</time>
    </trkpt>
    <trkpt lat="38.617936028" lon="34.944062959">
      <ele>1288.415</ele>
      <time>2021-10-12T20:05:16Z</time>
    </trkpt>
    <trkpt lat="38.61795296" lon="34.944051979">
      <ele>1288.438</ele>
      <time>2021-10-12T20:05:17Z</time>
    </trkpt>
    <trkpt lat="38.617970981" lon="34.944034042">
      <ele>1288.24</ele>
      <time>2021-10-12T20:05:18Z</time>
    </trkpt>
    <trkpt lat="38.617990008" lon="34.944004035">
      <ele>1287.632</ele>
      <time>2021-10-12T20:05:19Z</time>
    </trkpt>
    <trkpt lat="38.618007023" lon="34.94398199">
      <ele>1287.245</ele>
      <time>2021-10-12T20:05:20Z</time>
    </trkpt>
    <trkpt lat="38.618028983" lon="34.943962963">
      <ele>1287.067</ele>
      <time>2021-10-12T20:05:21Z</time>
    </trkpt>
    <trkpt lat="38.618052034" lon="34.943947038">
      <ele>1287.015</ele>
      <time>2021-10-12T20:05:22Z</time>
    </trkpt>
    <trkpt lat="38.618070977" lon="34.943930022">
      <ele>1286.837</ele>
      <time>2021-10-12T20:05:22Z</time>
    </trkpt>
    <trkpt lat="38.618093021" lon="34.943912001">
      <ele>1286.731</ele>
      <time>2021-10-12T20:05:23Z</time>
    </trkpt>
    <trkpt lat="38.618114982" lon="34.943899009">
      <ele>1286.831</ele>
      <time>2021-10-12T20:05:24Z</time>
    </trkpt>
    <trkpt lat="38.61813602" lon="34.943885012">
      <ele>1286.916</ele>
      <time>2021-10-12T20:05:25Z</time>
    </trkpt>
    <trkpt lat="38.618157981" lon="34.943874031">
      <ele>1287.153</ele>
      <time>2021-10-12T20:05:26Z</time>
    </trkpt>
    <trkpt lat="38.618180025" lon="34.943860034">
      <ele>1287.306</ele>
      <time>2021-10-12T20:05:27Z</time>
    </trkpt>
    <trkpt lat="38.618198968" lon="34.943850981">
      <ele>1287.522</ele>
      <time>2021-10-12T20:05:28Z</time>
    </trkpt>
    <trkpt lat="38.618223025" lon="34.943840001">
      <ele>1287.812</ele>
      <time>2021-10-12T20:05:29Z</time>
    </trkpt>
    <trkpt lat="38.618244985" lon="34.943832038">
      <ele>1288.136</ele>
      <time>2021-10-12T20:05:29Z</time>
    </trkpt>
    <trkpt lat="38.618264012" lon="34.943824997">
      <ele>1288.413</ele>
      <time>2021-10-12T20:05:30Z</time>
    </trkpt>
    <trkpt lat="38.618286978" lon="34.943815023">
      <ele>1288.705</ele>
      <time>2021-10-12T20:05:31Z</time>
    </trkpt>
    <trkpt lat="38.618308017" lon="34.943806976">
      <ele>1289.003</ele>
      <time>2021-10-12T20:05:32Z</time>
    </trkpt>
    <trkpt lat="38.618327966" lon="34.943803959">
      <ele>1289.419</ele>
      <time>2021-10-12T20:05:33Z</time>
    </trkpt>
    <trkpt lat="38.618349005" lon="34.943798007">
      <ele>1289.607</ele>
      <time>2021-10-12T20:05:33Z</time>
    </trkpt>
    <trkpt lat="38.618336013" lon="34.943703962">
      <ele>1286.722</ele>
      <time>2021-10-12T20:05:36Z</time>
    </trkpt>
    <trkpt lat="38.618321009" lon="34.943691976">
      <ele>1286.018</ele>
      <time>2021-10-12T20:05:37Z</time>
    </trkpt>
    <trkpt lat="38.618302988" lon="34.943699017">
      <ele>1285.767</ele>
      <time>2021-10-12T20:05:38Z</time>
    </trkpt>
    <trkpt lat="38.618284967" lon="34.943704968">
      <ele>1285.484</ele>
      <time>2021-10-12T20:05:38Z</time>
    </trkpt>
    <trkpt lat="38.618265018" lon="34.943714021">
      <ele>1285.242</ele>
      <time>2021-10-12T20:05:39Z</time>
    </trkpt>
    <trkpt lat="38.618243979" lon="34.943723995">
      <ele>1284.999</ele>
      <time>2021-10-12T20:05:40Z</time>
    </trkpt>
    <trkpt lat="38.618222019" lon="34.94373397">
      <ele>1284.733</ele>
      <time>2021-10-12T20:05:41Z</time>
    </trkpt>
    <trkpt lat="38.61820098" lon="34.943743022">
      <ele>1284.464</ele>
      <time>2021-10-12T20:05:42Z</time>
    </trkpt>
    <trkpt lat="38.618181031" lon="34.943747967">
      <ele>1284.103</ele>
      <time>2021-10-12T20:05:42Z</time>
    </trkpt>
    <trkpt lat="38.618157981" lon="34.943752997">
      <ele>1283.667</ele>
      <time>2021-10-12T20:05:43Z</time>
    </trkpt>
    <trkpt lat="38.618134009" lon="34.943759032">
      <ele>1283.237</ele>
      <time>2021-10-12T20:05:44Z</time>
    </trkpt>
    <trkpt lat="38.618110036" lon="34.943766994">
      <ele>1282.862</ele>
      <time>2021-10-12T20:05:45Z</time>
    </trkpt>
    <trkpt lat="38.618087992" lon="34.943773029">
      <ele>1282.481</ele>
      <time>2021-10-12T20:05:46Z</time>
    </trkpt>
    <trkpt lat="38.618066031" lon="34.943776969">
      <ele>1282.041</ele>
      <time>2021-10-12T20:05:47Z</time>
    </trkpt>
    <trkpt lat="38.618044993" lon="34.943779986">
      <ele>1281.635</ele>
      <time>2021-10-12T20:05:47Z</time>
    </trkpt>
    <trkpt lat="38.618024038" lon="34.943781998">
      <ele>1281.241</ele>
      <time>2021-10-12T20:05:48Z</time>
    </trkpt>
    <trkpt lat="38.618005011" lon="34.943786021">
      <ele>1280.946</ele>
      <time>2021-10-12T20:05:49Z</time>
    </trkpt>
    <trkpt lat="38.617983973" lon="34.943791972">
      <ele>1280.663</ele>
      <time>2021-10-12T20:05:50Z</time>
    </trkpt>
    <trkpt lat="38.617963018" lon="34.943800019">
      <ele>1280.442</ele>
      <time>2021-10-12T20:05:51Z</time>
    </trkpt>
    <trkpt lat="38.617941979" lon="34.943807982">
      <ele>1280.217</ele>
      <time>2021-10-12T20:05:51Z</time>
    </trkpt>
    <trkpt lat="38.617903003" lon="34.943827009">
      <ele>1279.923</ele>
      <time>2021-10-12T20:05:53Z</time>
    </trkpt>
    <trkpt lat="38.617882971" lon="34.943837989">
      <ele>1279.806</ele>
      <time>2021-10-12T20:05:54Z</time>
    </trkpt>
    <trkpt lat="38.617858998" lon="34.943849975">
      <ele>1279.634</ele>
      <time>2021-10-12T20:05:55Z</time>
    </trkpt>
    <trkpt lat="38.61783402" lon="34.943862967">
      <ele>1279.468</ele>
      <time>2021-10-12T20:05:56Z</time>
    </trkpt>
    <trkpt lat="38.617809964" lon="34.943875959">
      <ele>1279.323</ele>
      <time>2021-10-12T20:05:57Z</time>
    </trkpt>
    <trkpt lat="38.617765037" lon="34.943896998">
      <ele>1278.943</ele>
      <time>2021-10-12T20:05:58Z</time>
    </trkpt>
    <trkpt lat="38.617739975" lon="34.943906972">
      <ele>1278.642</ele>
      <time>2021-10-12T20:05:59Z</time>
    </trkpt>
    <trkpt lat="38.617710974" lon="34.943916025">
      <ele>1278.219</ele>
      <time>2021-10-12T20:06:00Z</time>
    </trkpt>
    <trkpt lat="38.617679039" lon="34.943924993">
      <ele>1277.728</ele>
      <time>2021-10-12T20:06:02Z</time>
    </trkpt>
    <trkpt lat="38.617646014" lon="34.943932034">
      <ele>1277.151</ele>
      <time>2021-10-12T20:06:03Z</time>
    </trkpt>
    <trkpt lat="38.617615001" lon="34.943936979">
      <ele>1276.558</ele>
      <time>2021-10-12T20:06:04Z</time>
    </trkpt>
    <trkpt lat="38.617587006" lon="34.943939997">
      <ele>1275.975</ele>
      <time>2021-10-12T20:06:05Z</time>
    </trkpt>
    <trkpt lat="38.617561022" lon="34.943942009">
      <ele>1275.408</ele>
      <time>2021-10-12T20:06:06Z</time>
    </trkpt>
    <trkpt lat="38.617533026" lon="34.943945026">
      <ele>1274.829</ele>
      <time>2021-10-12T20:06:07Z</time>
    </trkpt>
    <trkpt lat="38.617505031" lon="34.943947038">
      <ele>1274.216</ele>
      <time>2021-10-12T20:06:08Z</time>
    </trkpt>
    <trkpt lat="38.617478963" lon="34.943946032">
      <ele>1273.754</ele>
      <time>2021-10-12T20:06:09Z</time>
    </trkpt>
    <trkpt lat="38.617455997" lon="34.943942009">
      <ele>1273.279</ele>
      <time>2021-10-12T20:06:10Z</time>
    </trkpt>
    <trkpt lat="38.617435042" lon="34.94393304">
      <ele>1272.654</ele>
      <time>2021-10-12T20:06:11Z</time>
    </trkpt>
    <trkpt lat="38.617412997" lon="34.943924993">
      <ele>1272.047</ele>
      <time>2021-10-12T20:06:12Z</time>
    </trkpt>
    <trkpt lat="38.617390031" lon="34.94391703">
      <ele>1271.43</ele>
      <time>2021-10-12T20:06:13Z</time>
    </trkpt>
    <trkpt lat="38.617366981" lon="34.94390999">
      <ele>1270.844</ele>
      <time>2021-10-12T20:06:13Z</time>
    </trkpt>
    <trkpt lat="38.617351977" lon="34.943905966">
      <ele>1270.483</ele>
      <time>2021-10-12T20:06:14Z</time>
    </trkpt>
    <trkpt lat="38.617331022" lon="34.943912001">
      <ele>1270.399</ele>
      <time>2021-10-12T20:06:15Z</time>
    </trkpt>
    <trkpt lat="38.617314007" lon="34.943907978">
      <ele>1270.009</ele>
      <time>2021-10-12T20:06:15Z</time>
    </trkpt>
    <trkpt lat="38.617291963" lon="34.943904039">
      <ele>1269.55</ele>
      <time>2021-10-12T20:06:16Z</time>
    </trkpt>
    <trkpt lat="38.617268996" lon="34.943896998">
      <ele>1268.965</ele>
      <time>2021-10-12T20:06:17Z</time>
    </trkpt>
    <trkpt lat="38.617215017" lon="34.943877971">
      <ele>1267.698</ele>
      <time>2021-10-12T20:06:19Z</time>
    </trkpt>
    <trkpt lat="38.617189033" lon="34.943866991">
      <ele>1267.319</ele>
      <time>2021-10-12T20:06:20Z</time>
    </trkpt>
    <trkpt lat="38.617165983" lon="34.94385601">
      <ele>1266.945</ele>
      <time>2021-10-12T20:06:21Z</time>
    </trkpt>
    <trkpt lat="38.617147962" lon="34.943844024">
      <ele>1266.559</ele>
      <time>2021-10-12T20:06:22Z</time>
    </trkpt>
    <trkpt lat="38.617133042" lon="34.943832038">
      <ele>1266.181</ele>
      <time>2021-10-12T20:06:22Z</time>
    </trkpt>
    <trkpt lat="38.617119966" lon="34.943820974">
      <ele>1265.83</ele>
      <time>2021-10-12T20:06:23Z</time>
    </trkpt>
    <trkpt lat="38.617098005" lon="34.943795996">
      <ele>1265.062</ele>
      <time>2021-10-12T20:06:24Z</time>
    </trkpt>
    <trkpt lat="38.617088031" lon="34.943781998">
      <ele>1264.637</ele>
      <time>2021-10-12T20:06:25Z</time>
    </trkpt>
    <trkpt lat="38.617078979" lon="34.943769006">
      <ele>1264.241</ele>
      <time>2021-10-12T20:06:25Z</time>
    </trkpt>
    <trkpt lat="38.617067998" lon="34.94375702">
      <ele>1263.858</ele>
      <time>2021-10-12T20:06:26Z</time>
    </trkpt>
    <trkpt lat="38.617056012" lon="34.943745034">
      <ele>1263.467</ele>
      <time>2021-10-12T20:06:26Z</time>
    </trkpt>
    <trkpt lat="38.617031034" lon="34.943721984">
      <ele>1262.692</ele>
      <time>2021-10-12T20:06:27Z</time>
    </trkpt>
    <trkpt lat="38.617017958" lon="34.943709997">
      <ele>1262.283</ele>
      <time>2021-10-12T20:06:28Z</time>
    </trkpt>
    <trkpt lat="38.617004966" lon="34.943694994">
      <ele>1261.786</ele>
      <time>2021-10-12T20:06:29Z</time>
    </trkpt>
    <trkpt lat="38.616997004" lon="34.943682002">
      <ele>1261.372</ele>
      <time>2021-10-12T20:06:29Z</time>
    </trkpt>
    <trkpt lat="38.616989963" lon="34.943671022">
      <ele>1261.018</ele>
      <time>2021-10-12T20:06:30Z</time>
    </trkpt>
    <trkpt lat="38.616983006" lon="34.943660963">
      <ele>1260.688</ele>
      <time>2021-10-12T20:06:30Z</time>
    </trkpt>
    <trkpt lat="38.61697102" lon="34.943641014">
      <ele>1260.042</ele>
      <time>2021-10-12T20:06:31Z</time>
    </trkpt>
    <trkpt lat="38.616963979" lon="34.943625005">
      <ele>1259.537</ele>
      <time>2021-10-12T20:06:31Z</time>
    </trkpt>
    <trkpt lat="38.616958028" lon="34.943608996">
      <ele>1259.038</ele>
      <time>2021-10-12T20:06:32Z</time>
    </trkpt>
    <trkpt lat="38.616952999" lon="34.94359198">
      <ele>1258.517</ele>
      <time>2021-10-12T20:06:32Z</time>
    </trkpt>
    <trkpt lat="38.616947969" lon="34.943571026">
      <ele>1257.876</ele>
      <time>2021-10-12T20:06:33Z</time>
    </trkpt>
    <trkpt lat="38.616943024" lon="34.943546969">
      <ele>1257.127</ele>
      <time>2021-10-12T20:06:34Z</time>
    </trkpt>
    <trkpt lat="38.616941012" lon="34.943521991">
      <ele>1256.372</ele>
      <time>2021-10-12T20:06:34Z</time>
    </trkpt>
    <trkpt lat="38.616941012" lon="34.943501037">
      <ele>1255.768</ele>
      <time>2021-10-12T20:06:35Z</time>
    </trkpt>
    <trkpt lat="38.616940007" lon="34.943483016">
      <ele>1255.231</ele>
      <time>2021-10-12T20:06:35Z</time>
    </trkpt>
    <trkpt lat="38.616939001" lon="34.943463989">
      <ele>1254.665</ele>
      <time>2021-10-12T20:06:36Z</time>
    </trkpt>
    <trkpt lat="38.616939001" lon="34.943447979">
      <ele>1254.204</ele>
      <time>2021-10-12T20:06:37Z</time>
    </trkpt>
    <trkpt lat="38.616939001" lon="34.943432976">
      <ele>1253.772</ele>
      <time>2021-10-12T20:06:37Z</time>
    </trkpt>
    <trkpt lat="38.616939001" lon="34.943415038">
      <ele>1253.255</ele>
      <time>2021-10-12T20:06:37Z</time>
    </trkpt>
    <trkpt lat="38.616939001" lon="34.943396011">
      <ele>1252.707</ele>
      <time>2021-10-12T20:06:38Z</time>
    </trkpt>
    <trkpt lat="38.616942018" lon="34.943348989">
      <ele>1251.407</ele>
      <time>2021-10-12T20:06:39Z</time>
    </trkpt>
    <trkpt lat="38.616946042" lon="34.943325017">
      <ele>1250.879</ele>
      <time>2021-10-12T20:06:40Z</time>
    </trkpt>
    <trkpt lat="38.616951993" lon="34.943299033">
      <ele>1250.508</ele>
      <time>2021-10-12T20:06:41Z</time>
    </trkpt>
    <trkpt lat="38.616958028" lon="34.943277994">
      <ele>1250.219</ele>
      <time>2021-10-12T20:06:42Z</time>
    </trkpt>
    <trkpt lat="38.616960961" lon="34.943259973">
      <ele>1249.93</ele>
      <time>2021-10-12T20:06:42Z</time>
    </trkpt>
    <trkpt lat="38.616962973" lon="34.943239018">
      <ele>1249.568</ele>
      <time>2021-10-12T20:06:43Z</time>
    </trkpt>
    <trkpt lat="38.616964985" lon="34.94321798">
      <ele>1249.201</ele>
      <time>2021-10-12T20:06:43Z</time>
    </trkpt>
    <trkpt lat="38.616964985" lon="34.943197025">
      <ele>1248.807</ele>
      <time>2021-10-12T20:06:44Z</time>
    </trkpt>
    <trkpt lat="38.616966996" lon="34.943174981">
      <ele>1248.417</ele>
      <time>2021-10-12T20:06:45Z</time>
    </trkpt>
    <trkpt lat="38.616969008" lon="34.94315302">
      <ele>1248.024</ele>
      <time>2021-10-12T20:06:45Z</time>
    </trkpt>
    <trkpt lat="38.616968002" lon="34.943128964">
      <ele>1247.558</ele>
      <time>2021-10-12T20:06:46Z</time>
    </trkpt>
    <trkpt lat="38.616965991" lon="34.943105998">
      <ele>1247.105</ele>
      <time>2021-10-12T20:06:47Z</time>
    </trkpt>
    <trkpt lat="38.616957022" lon="34.943055036">
      <ele>1246.079</ele>
      <time>2021-10-12T20:06:48Z</time>
    </trkpt>
    <trkpt lat="38.616956016" lon="34.943032991">
      <ele>1245.593</ele>
      <time>2021-10-12T20:06:49Z</time>
    </trkpt>
    <trkpt lat="38.616956016" lon="34.943013964">
      <ele>1245.179</ele>
      <time>2021-10-12T20:06:49Z</time>
    </trkpt>
    <trkpt lat="38.616956016" lon="34.942994015">
      <ele>1244.745</ele>
      <time>2021-10-12T20:06:50Z</time>
    </trkpt>
    <trkpt lat="38.616956016" lon="34.942973983">
      <ele>1244.309</ele>
      <time>2021-10-12T20:06:50Z</time>
    </trkpt>
    <trkpt lat="38.616957022" lon="34.942931989">
      <ele>1243.401</ele>
      <time>2021-10-12T20:06:52Z</time>
    </trkpt>
    <trkpt lat="38.616958028" lon="34.94291204">
      <ele>1242.973</ele>
      <time>2021-10-12T20:06:52Z</time>
    </trkpt>
    <trkpt lat="38.616959034" lon="34.942887984">
      <ele>1242.454</ele>
      <time>2021-10-12T20:06:53Z</time>
    </trkpt>
    <trkpt lat="38.616958028" lon="34.942864012">
      <ele>1241.927</ele>
      <time>2021-10-12T20:06:54Z</time>
    </trkpt>
    <trkpt lat="38.616949981" lon="34.942813972">
      <ele>1240.804</ele>
      <time>2021-10-12T20:06:55Z</time>
    </trkpt>
    <trkpt lat="38.616945036" lon="34.94279">
      <ele>1240.266</ele>
      <time>2021-10-12T20:06:56Z</time>
    </trkpt>
    <trkpt lat="38.616941012" lon="34.942768961">
      <ele>1239.818</ele>
      <time>2021-10-12T20:06:56Z</time>
    </trkpt>
    <trkpt lat="38.616934977" lon="34.942750018">
      <ele>1239.442</ele>
      <time>2021-10-12T20:06:57Z</time>
    </trkpt>
    <trkpt lat="38.616923997" lon="34.942717999">
      <ele>1238.824</ele>
      <time>2021-10-12T20:06:58Z</time>
    </trkpt>
    <trkpt lat="38.616917962" lon="34.942700984">
      <ele>1238.506</ele>
      <time>2021-10-12T20:06:59Z</time>
    </trkpt>
    <trkpt lat="38.616914023" lon="34.942683969">
      <ele>1238.203</ele>
      <time>2021-10-12T20:06:59Z</time>
    </trkpt>
    <trkpt lat="38.616907988" lon="34.942667959">
      <ele>1237.916</ele>
      <time>2021-10-12T20:07:00Z</time>
    </trkpt>
    <trkpt lat="38.616902037" lon="34.942652034">
      <ele>1237.639</ele>
      <time>2021-10-12T20:07:00Z</time>
    </trkpt>
    <trkpt lat="38.616888961" lon="34.942620015">
      <ele>1237.101</ele>
      <time>2021-10-12T20:07:01Z</time>
    </trkpt>
    <trkpt lat="38.616875969" lon="34.942591013">
      <ele>1236.642</ele>
      <time>2021-10-12T20:07:02Z</time>
    </trkpt>
    <trkpt lat="38.616869012" lon="34.942577016">
      <ele>1236.432</ele>
      <time>2021-10-12T20:07:03Z</time>
    </trkpt>
    <trkpt lat="38.616860965" lon="34.942564024">
      <ele>1236.245</ele>
      <time>2021-10-12T20:07:03Z</time>
    </trkpt>
    <trkpt lat="38.616841016" lon="34.942537034">
      <ele>1235.89</ele>
      <time>2021-10-12T20:07:04Z</time>
    </trkpt>
    <trkpt lat="38.61682903" lon="34.942523958">
      <ele>1235.739</ele>
      <time>2021-10-12T20:07:05Z</time>
    </trkpt>
    <trkpt lat="38.616815032" lon="34.942510966">
      <ele>1235.608</ele>
      <time>2021-10-12T20:07:05Z</time>
    </trkpt>
    <trkpt lat="38.616799023" lon="34.942496968">
      <ele>1235.469</ele>
      <time>2021-10-12T20:07:06Z</time>
    </trkpt>
    <trkpt lat="38.616784019" lon="34.942481965">
      <ele>1235.263</ele>
      <time>2021-10-12T20:07:07Z</time>
    </trkpt>
    <trkpt lat="38.616773961" lon="34.942468973">
      <ele>1235.081</ele>
      <time>2021-10-12T20:07:07Z</time>
    </trkpt>
    <trkpt lat="38.616762981" lon="34.942455981">
      <ele>1234.91</ele>
      <time>2021-10-12T20:07:08Z</time>
    </trkpt>
    <trkpt lat="38.616750995" lon="34.942441983">
      <ele>1234.734</ele>
      <time>2021-10-12T20:07:09Z</time>
    </trkpt>
    <trkpt lat="38.616722999" lon="34.942418011">
      <ele>1234.497</ele>
      <time>2021-10-12T20:07:10Z</time>
    </trkpt>
    <trkpt lat="38.61670699" lon="34.942407031">
      <ele>1234.419</ele>
      <time>2021-10-12T20:07:10Z</time>
    </trkpt>
    <trkpt lat="38.616688969" lon="34.942393033">
      <ele>1234.318</ele>
      <time>2021-10-12T20:07:11Z</time>
    </trkpt>
    <trkpt lat="38.616667008" lon="34.942375012">
      <ele>1234.198</ele>
      <time>2021-10-12T20:07:12Z</time>
    </trkpt>
    <trkpt lat="38.616624009" lon="34.942334024">
      <ele>1232.872</ele>
      <time>2021-10-12T20:07:14Z</time>
    </trkpt>
    <trkpt lat="38.616600959" lon="34.94231198">
      <ele>1232.193</ele>
      <time>2021-10-12T20:07:15Z</time>
    </trkpt>
    <trkpt lat="38.616576986" lon="34.942289013">
      <ele>1231.515</ele>
      <time>2021-10-12T20:07:16Z</time>
    </trkpt>
    <trkpt lat="38.616529042" lon="34.942248026">
      <ele>1230.298</ele>
      <time>2021-10-12T20:07:19Z</time>
    </trkpt>
    <trkpt lat="38.61650398" lon="34.942228999">
      <ele>1229.726</ele>
      <time>2021-10-12T20:07:20Z</time>
    </trkpt>
    <trkpt lat="38.616456036" lon="34.942184994">
      <ele>1228.435</ele>
      <time>2021-10-12T20:07:22Z</time>
    </trkpt>
    <trkpt lat="38.616413036" lon="34.942145012">
      <ele>1227.417</ele>
      <time>2021-10-12T20:07:24Z</time>
    </trkpt>
    <trkpt lat="38.616372971" lon="34.942107964">
      <ele>1226.412</ele>
      <time>2021-10-12T20:07:26Z</time>
    </trkpt>
    <trkpt lat="38.616356039" lon="34.942089021">
      <ele>1225.847</ele>
      <time>2021-10-12T20:07:26Z</time>
    </trkpt>
    <trkpt lat="38.616342042" lon="34.942066977">
      <ele>1225.331</ele>
      <time>2021-10-12T20:07:27Z</time>
    </trkpt>
    <trkpt lat="38.616329972" lon="34.94204401">
      <ele>1224.863</ele>
      <time>2021-10-12T20:07:28Z</time>
    </trkpt>
    <trkpt lat="38.616321003" lon="34.942023978">
      <ele>1224.497</ele>
      <time>2021-10-12T20:07:29Z</time>
    </trkpt>
    <trkpt lat="38.616315974" lon="34.942011992">
      <ele>1224.289</ele>
      <time>2021-10-12T20:07:29Z</time>
    </trkpt>
    <trkpt lat="38.61631304" lon="34.941991037">
      <ele>1224.046</ele>
      <time>2021-10-12T20:07:30Z</time>
    </trkpt>
    <trkpt lat="38.616310023" lon="34.941977039">
      <ele>1223.866</ele>
      <time>2021-10-12T20:07:30Z</time>
    </trkpt>
    <trkpt lat="38.616308011" lon="34.941963041">
      <ele>1223.706</ele>
      <time>2021-10-12T20:07:31Z</time>
    </trkpt>
    <trkpt lat="38.616305999" lon="34.941938985">
      <ele>1223.48</ele>
      <time>2021-10-12T20:07:31Z</time>
    </trkpt>
    <trkpt lat="38.616304994" lon="34.941925993">
      <ele>1223.397</ele>
      <time>2021-10-12T20:07:32Z</time>
    </trkpt>
    <trkpt lat="38.616302982" lon="34.941914007">
      <ele>1223.302</ele>
      <time>2021-10-12T20:07:32Z</time>
    </trkpt>
    <trkpt lat="38.616298037" lon="34.941872014">
      <ele>1223.014</ele>
      <time>2021-10-12T20:07:33Z</time>
    </trkpt>
    <trkpt lat="38.61630097" lon="34.941850975">
      <ele>1222.957</ele>
      <time>2021-10-12T20:07:34Z</time>
    </trkpt>
    <trkpt lat="38.616305999" lon="34.941827003">
      <ele>1222.915</ele>
      <time>2021-10-12T20:07:35Z</time>
    </trkpt>
    <trkpt lat="38.61631304" lon="34.941803031">
      <ele>1222.895</ele>
      <time>2021-10-12T20:07:35Z</time>
    </trkpt>
    <trkpt lat="38.61632796" lon="34.941759026">
      <ele>1222.861</ele>
      <time>2021-10-12T20:07:37Z</time>
    </trkpt>
    <trkpt lat="38.616335001" lon="34.94173497">
      <ele>1222.814</ele>
      <time>2021-10-12T20:07:37Z</time>
    </trkpt>
    <trkpt lat="38.616347993" lon="34.941679984">
      <ele>1222.64</ele>
      <time>2021-10-12T20:07:39Z</time>
    </trkpt>
    <trkpt lat="38.616353022" lon="34.941649977">
      <ele>1222.351</ele>
      <time>2021-10-12T20:07:40Z</time>
    </trkpt>
    <trkpt lat="38.616359979" lon="34.941618964">
      <ele>1221.918</ele>
      <time>2021-10-12T20:07:41Z</time>
    </trkpt>
    <trkpt lat="38.616364002" lon="34.941587029">
      <ele>1221.426</ele>
      <time>2021-10-12T20:07:42Z</time>
    </trkpt>
    <trkpt lat="38.616366014" lon="34.941552998">
      <ele>1220.875</ele>
      <time>2021-10-12T20:07:43Z</time>
    </trkpt>
    <trkpt lat="38.616365008" lon="34.941489967">
      <ele>1219.835</ele>
      <time>2021-10-12T20:07:45Z</time>
    </trkpt>
    <trkpt lat="38.616362996" lon="34.941421989">
      <ele>1218.727</ele>
      <time>2021-10-12T20:07:47Z</time>
    </trkpt>
    <trkpt lat="38.616360985" lon="34.941385025">
      <ele>1218.108</ele>
      <time>2021-10-12T20:07:48Z</time>
    </trkpt>
    <trkpt lat="38.616359979" lon="34.941345965">
      <ele>1217.175</ele>
      <time>2021-10-12T20:07:49Z</time>
    </trkpt>
    <trkpt lat="38.616358973" lon="34.941312019">
      <ele>1216.368</ele>
      <time>2021-10-12T20:07:50Z</time>
    </trkpt>
    <trkpt lat="38.616357967" lon="34.941282012">
      <ele>1215.658</ele>
      <time>2021-10-12T20:07:51Z</time>
    </trkpt>
    <trkpt lat="38.616355034" lon="34.941224009">
      <ele>1214.306</ele>
      <time>2021-10-12T20:07:52Z</time>
    </trkpt>
    <trkpt lat="38.616355034" lon="34.941195007">
      <ele>1213.613</ele>
      <time>2021-10-12T20:07:53Z</time>
    </trkpt>
    <trkpt lat="38.616355034" lon="34.941166006">
      <ele>1212.92</ele>
      <time>2021-10-12T20:07:54Z</time>
    </trkpt>
    <trkpt lat="38.616355034" lon="34.941140022">
      <ele>1212.3</ele>
      <time>2021-10-12T20:07:55Z</time>
    </trkpt>
    <trkpt lat="38.616356039" lon="34.941111021">
      <ele>1211.59</ele>
      <time>2021-10-12T20:07:56Z</time>
    </trkpt>
    <trkpt lat="38.616356961" lon="34.941081014">
      <ele>1211.308</ele>
      <time>2021-10-12T20:07:57Z</time>
    </trkpt>
    <trkpt lat="38.616358973" lon="34.94101597">
      <ele>1210.706</ele>
      <time>2021-10-12T20:07:58Z</time>
    </trkpt>
    <trkpt lat="38.616356039" lon="34.940985963">
      <ele>1210.477</ele>
      <time>2021-10-12T20:07:59Z</time>
    </trkpt>
    <trkpt lat="38.616350004" lon="34.940956961">
      <ele>1210.279</ele>
      <time>2021-10-12T20:08:00Z</time>
    </trkpt>
    <trkpt lat="38.61634003" lon="34.94092796">
      <ele>1210.097</ele>
      <time>2021-10-12T20:08:01Z</time>
    </trkpt>
    <trkpt lat="38.616325026" lon="34.94090097">
      <ele>1209.941</ele>
      <time>2021-10-12T20:08:02Z</time>
    </trkpt>
    <trkpt lat="38.616308011" lon="34.940875992">
      <ele>1209.777</ele>
      <time>2021-10-12T20:08:03Z</time>
    </trkpt>
    <trkpt lat="38.616288984" lon="34.940853026">
      <ele>1209.603</ele>
      <time>2021-10-12T20:08:04Z</time>
    </trkpt>
    <trkpt lat="38.616268029" lon="34.940829976">
      <ele>1209.35</ele>
      <time>2021-10-12T20:08:05Z</time>
    </trkpt>
    <trkpt lat="38.616226036" lon="34.940783959">
      <ele>1208.342</ele>
      <time>2021-10-12T20:08:07Z</time>
    </trkpt>
    <trkpt lat="38.616206003" lon="34.940761998">
      <ele>1207.861</ele>
      <time>2021-10-12T20:08:08Z</time>
    </trkpt>
    <trkpt lat="38.616167028" lon="34.94072604">
      <ele>1207.095</ele>
      <time>2021-10-12T20:08:10Z</time>
    </trkpt>
    <trkpt lat="38.616152024" lon="34.940711036">
      <ele>1206.771</ele>
      <time>2021-10-12T20:08:11Z</time>
    </trkpt>
    <trkpt lat="38.61613702" lon="34.940694021">
      <ele>1206.396</ele>
      <time>2021-10-12T20:08:11Z</time>
    </trkpt>
    <trkpt lat="38.616109025" lon="34.940657979">
      <ele>1205.586</ele>
      <time>2021-10-12T20:08:13Z</time>
    </trkpt>
    <trkpt lat="38.616095027" lon="34.940641969">
      <ele>1205.218</ele>
      <time>2021-10-12T20:08:13Z</time>
    </trkpt>
    <trkpt lat="38.616068037" lon="34.940615986">
      <ele>1204.644</ele>
      <time>2021-10-12T20:08:15Z</time>
    </trkpt>
    <trkpt lat="38.616054961" lon="34.940603999">
      <ele>1204.388</ele>
      <time>2021-10-12T20:08:15Z</time>
    </trkpt>
    <trkpt lat="38.616040964" lon="34.940592013">
      <ele>1204.138</ele>
      <time>2021-10-12T20:08:16Z</time>
    </trkpt>
    <trkpt lat="38.616011962" lon="34.940566029">
      <ele>1203.607</ele>
      <time>2021-10-12T20:08:17Z</time>
    </trkpt>
    <trkpt lat="38.615999976" lon="34.940552032">
      <ele>1203.294</ele>
      <time>2021-10-12T20:08:18Z</time>
    </trkpt>
    <trkpt lat="38.615986984" lon="34.940536022">
      <ele>1202.853</ele>
      <time>2021-10-12T20:08:19Z</time>
    </trkpt>
    <trkpt lat="38.615974998" lon="34.940521019">
      <ele>1202.434</ele>
      <time>2021-10-12T20:08:19Z</time>
    </trkpt>
    <trkpt lat="38.615965024" lon="34.940505009">
      <ele>1201.974</ele>
      <time>2021-10-12T20:08:20Z</time>
    </trkpt>
    <trkpt lat="38.615955971" lon="34.940490006">
      <ele>1201.539</ele>
      <time>2021-10-12T20:08:20Z</time>
    </trkpt>
    <trkpt lat="38.615947003" lon="34.940477014">
      <ele>1201.162</ele>
      <time>2021-10-12T20:08:21Z</time>
    </trkpt>
    <trkpt lat="38.615924036" lon="34.940450024">
      <ele>1200.378</ele>
      <time>2021-10-12T20:08:22Z</time>
    </trkpt>
    <trkpt lat="38.615907021" lon="34.940433009">
      <ele>1199.881</ele>
      <time>2021-10-12T20:08:23Z</time>
    </trkpt>
    <trkpt lat="38.615870979" lon="34.940391015">
      <ele>1198.614</ele>
      <time>2021-10-12T20:08:25Z</time>
    </trkpt>
    <trkpt lat="38.615838038" lon="34.940350028">
      <ele>1197.336</ele>
      <time>2021-10-12T20:08:26Z</time>
    </trkpt>
    <trkpt lat="38.615822028" lon="34.940328989">
      <ele>1196.659</ele>
      <time>2021-10-12T20:08:27Z</time>
    </trkpt>
    <trkpt lat="38.615805013" lon="34.940308034">
      <ele>1195.98</ele>
      <time>2021-10-12T20:08:28Z</time>
    </trkpt>
    <trkpt lat="38.615785986" lon="34.94028599">
      <ele>1195.266</ele>
      <time>2021-10-12T20:08:29Z</time>
    </trkpt>
    <trkpt lat="38.615766037" lon="34.940266041">
      <ele>1194.672</ele>
      <time>2021-10-12T20:08:30Z</time>
    </trkpt>
    <trkpt lat="38.615729995" lon="34.940240979">
      <ele>1193.989</ele>
      <time>2021-10-12T20:08:31Z</time>
    </trkpt>
    <trkpt lat="38.615717003" lon="34.940236034">
      <ele>1193.861</ele>
      <time>2021-10-12T20:08:32Z</time>
    </trkpt>
    <trkpt lat="38.615706023" lon="34.940231005">
      <ele>1193.73</ele>
      <time>2021-10-12T20:08:32Z</time>
    </trkpt>
    <trkpt lat="38.615680961" lon="34.940219019">
      <ele>1193.424</ele>
      <time>2021-10-12T20:08:33Z</time>
    </trkpt>
    <trkpt lat="38.615666963" lon="34.940210972">
      <ele>1193.22</ele>
      <time>2021-10-12T20:08:34Z</time>
    </trkpt>
    <trkpt lat="38.615654977" lon="34.940203009">
      <ele>1193.019</ele>
      <time>2021-10-12T20:08:34Z</time>
    </trkpt>
    <trkpt lat="38.615643997" lon="34.940196974">
      <ele>1192.871</ele>
      <time>2021-10-12T20:08:35Z</time>
    </trkpt>
    <trkpt lat="38.615634022" lon="34.940192029">
      <ele>1192.752</ele>
      <time>2021-10-12T20:08:35Z</time>
    </trkpt>
    <trkpt lat="38.615622036" lon="34.940191023">
      <ele>1192.739</ele>
      <time>2021-10-12T20:08:36Z</time>
    </trkpt>
    <trkpt lat="38.61560896" lon="34.940190017">
      <ele>1192.728</ele>
      <time>2021-10-12T20:08:36Z</time>
    </trkpt>
    <trkpt lat="38.615594963" lon="34.940187">
      <ele>1192.666</ele>
      <time>2021-10-12T20:08:37Z</time>
    </trkpt>
    <trkpt lat="38.615578031" lon="34.940182976">
      <ele>1192.583</ele>
      <time>2021-10-12T20:08:37Z</time>
    </trkpt>
    <trkpt lat="38.615540983" lon="34.940165961">
      <ele>1192.077</ele>
      <time>2021-10-12T20:08:39Z</time>
    </trkpt>
    <trkpt lat="38.61552204" lon="34.940156993">
      <ele>1191.715</ele>
      <time>2021-10-12T20:08:40Z</time>
    </trkpt>
    <trkpt lat="38.615503013" lon="34.940147018">
      <ele>1191.327</ele>
      <time>2021-10-12T20:08:40Z</time>
    </trkpt>
    <trkpt lat="38.61548298" lon="34.94013696">
      <ele>1190.929</ele>
      <time>2021-10-12T20:08:41Z</time>
    </trkpt>
    <trkpt lat="38.615462026" lon="34.940126985">
      <ele>1190.527</ele>
      <time>2021-10-12T20:08:42Z</time>
    </trkpt>
    <trkpt lat="38.615440987" lon="34.940116005">
      <ele>1190.098</ele>
      <time>2021-10-12T20:08:43Z</time>
    </trkpt>
    <trkpt lat="38.615420032" lon="34.940106031">
      <ele>1189.696</ele>
      <time>2021-10-12T20:08:44Z</time>
    </trkpt>
    <trkpt lat="38.615377033" lon="34.940083986">
      <ele>1188.831</ele>
      <time>2021-10-12T20:08:45Z</time>
    </trkpt>
    <trkpt lat="38.615355995" lon="34.940072">
      <ele>1188.378</ele>
      <time>2021-10-12T20:08:46Z</time>
    </trkpt>
    <trkpt lat="38.615316013" lon="34.940048028">
      <ele>1187.486</ele>
      <time>2021-10-12T20:08:48Z</time>
    </trkpt>
    <trkpt lat="38.615298998" lon="34.940037969">
      <ele>1187.11</ele>
      <time>2021-10-12T20:08:48Z</time>
    </trkpt>
    <trkpt lat="38.615281982" lon="34.940025983">
      <ele>1186.685</ele>
      <time>2021-10-12T20:08:49Z</time>
    </trkpt>
    <trkpt lat="38.615263961" lon="34.940011986">
      <ele>1186.045</ele>
      <time>2021-10-12T20:08:50Z</time>
    </trkpt>
    <trkpt lat="38.61524703" lon="34.939996982">
      <ele>1185.386</ele>
      <time>2021-10-12T20:08:51Z</time>
    </trkpt>
    <trkpt lat="38.615232026" lon="34.939979967">
      <ele>1184.791</ele>
      <time>2021-10-12T20:08:51Z</time>
    </trkpt>
    <trkpt lat="38.61522004" lon="34.939965969">
      <ele>1184.328</ele>
      <time>2021-10-12T20:08:52Z</time>
    </trkpt>
    <trkpt lat="38.615209982" lon="34.939952977">
      <ele>1183.929</ele>
      <time>2021-10-12T20:08:53Z</time>
    </trkpt>
    <trkpt lat="38.615200007" lon="34.939938979">
      <ele>1183.528</ele>
      <time>2021-10-12T20:08:53Z</time>
    </trkpt>
    <trkpt lat="38.615188021" lon="34.939920958">
      <ele>1183.045</ele>
      <time>2021-10-12T20:08:54Z</time>
    </trkpt>
    <trkpt lat="38.615162037" lon="34.939879971">
      <ele>1182.044</ele>
      <time>2021-10-12T20:08:55Z</time>
    </trkpt>
    <trkpt lat="38.615150973" lon="34.93985801">
      <ele>1181.584</ele>
      <time>2021-10-12T20:08:56Z</time>
    </trkpt>
    <trkpt lat="38.615140999" lon="34.93983496">
      <ele>1181.143</ele>
      <time>2021-10-12T20:08:57Z</time>
    </trkpt>
    <trkpt lat="38.615133036" lon="34.939809982">
      <ele>1180.716</ele>
      <time>2021-10-12T20:08:58Z</time>
    </trkpt>
    <trkpt lat="38.615127001" lon="34.939783998">
      <ele>1180.309</ele>
      <time>2021-10-12T20:08:58Z</time>
    </trkpt>
    <trkpt lat="38.615123983" lon="34.93975902">
      <ele>1179.948</ele>
      <time>2021-10-12T20:08:59Z</time>
    </trkpt>
    <trkpt lat="38.615122978" lon="34.939733036">
      <ele>1179.59</ele>
      <time>2021-10-12T20:09:00Z</time>
    </trkpt>
    <trkpt lat="38.615121972" lon="34.939706968">
      <ele>1179.25</ele>
      <time>2021-10-12T20:09:01Z</time>
    </trkpt>
    <trkpt lat="38.615121972" lon="34.93968199">
      <ele>1178.941</ele>
      <time>2021-10-12T20:09:01Z</time>
    </trkpt>
    <trkpt lat="38.615121972" lon="34.939657012">
      <ele>1178.632</ele>
      <time>2021-10-12T20:09:02Z</time>
    </trkpt>
    <trkpt lat="38.615122978" lon="34.939604038">
      <ele>1177.978</ele>
      <time>2021-10-12T20:09:04Z</time>
    </trkpt>
    <trkpt lat="38.615123983" lon="34.939578976">
      <ele>1177.669</ele>
      <time>2021-10-12T20:09:04Z</time>
    </trkpt>
    <trkpt lat="38.615124989" lon="34.939552993">
      <ele>1177.348</ele>
      <time>2021-10-12T20:09:05Z</time>
    </trkpt>
    <trkpt lat="38.615125995" lon="34.939527009">
      <ele>1177.027</ele>
      <time>2021-10-12T20:09:06Z</time>
    </trkpt>
    <trkpt lat="38.615127001" lon="34.939502031">
      <ele>1176.717</ele>
      <time>2021-10-12T20:09:07Z</time>
    </trkpt>
    <trkpt lat="38.615128007" lon="34.939485015">
      <ele>1176.505</ele>
      <time>2021-10-12T20:09:07Z</time>
    </trkpt>
    <trkpt lat="38.615130018" lon="34.939473029">
      <ele>1176.357</ele>
      <time>2021-10-12T20:09:08Z</time>
    </trkpt>
    <trkpt lat="38.61513597" lon="34.939461965">
      <ele>1176.22</ele>
      <time>2021-10-12T20:09:08Z</time>
    </trkpt>
    <trkpt lat="38.615149967" lon="34.939434975">
      <ele>1175.84</ele>
      <time>2021-10-12T20:09:09Z</time>
    </trkpt>
    <trkpt lat="38.615156002" lon="34.939423995">
      <ele>1175.646</ele>
      <time>2021-10-12T20:09:09Z</time>
    </trkpt>
    <trkpt lat="38.615166983" lon="34.93940304">
      <ele>1175.254</ele>
      <time>2021-10-12T20:09:10Z</time>
    </trkpt>
    <trkpt lat="38.615183998" lon="34.939374039">
      <ele>1174.654</ele>
      <time>2021-10-12T20:09:11Z</time>
    </trkpt>
    <trkpt lat="38.615204031" lon="34.939337997">
      <ele>1173.826</ele>
      <time>2021-10-12T20:09:12Z</time>
    </trkpt>
    <trkpt lat="38.615215011" lon="34.93931503">
      <ele>1173.265</ele>
      <time>2021-10-12T20:09:13Z</time>
    </trkpt>
    <trkpt lat="38.615222974" lon="34.939292986">
      <ele>1172.721</ele>
      <time>2021-10-12T20:09:14Z</time>
    </trkpt>
    <trkpt lat="38.615228003" lon="34.939273037">
      <ele>1172.233</ele>
      <time>2021-10-12T20:09:14Z</time>
    </trkpt>
    <trkpt lat="38.615233032" lon="34.93925401">
      <ele>1171.753</ele>
      <time>2021-10-12T20:09:15Z</time>
    </trkpt>
    <trkpt lat="38.615239989" lon="34.93923096">
      <ele>1171.143</ele>
      <time>2021-10-12T20:09:16Z</time>
    </trkpt>
    <trkpt lat="38.615257004" lon="34.939178992">
      <ele>1169.668</ele>
      <time>2021-10-12T20:09:17Z</time>
    </trkpt>
    <trkpt lat="38.615262033" lon="34.939157031">
      <ele>1169.108</ele>
      <time>2021-10-12T20:09:18Z</time>
    </trkpt>
    <trkpt lat="38.615266979" lon="34.939133981">
      <ele>1168.601</ele>
      <time>2021-10-12T20:09:19Z</time>
    </trkpt>
    <trkpt lat="38.61526899" lon="34.939107997">
      <ele>1168.095</ele>
      <time>2021-10-12T20:09:19Z</time>
    </trkpt>
    <trkpt lat="38.615273014" lon="34.939051">
      <ele>1166.997</ele>
      <time>2021-10-12T20:09:21Z</time>
    </trkpt>
    <trkpt lat="38.61527402" lon="34.939024011">
      <ele>1166.493</ele>
      <time>2021-10-12T20:09:22Z</time>
    </trkpt>
    <trkpt lat="38.615275025" lon="34.938997021">
      <ele>1165.99</ele>
      <time>2021-10-12T20:09:23Z</time>
    </trkpt>
    <trkpt lat="38.615280977" lon="34.938948993">
      <ele>1165.056</ele>
      <time>2021-10-12T20:09:24Z</time>
    </trkpt>
    <trkpt lat="38.615286006" lon="34.93892896">
      <ele>1164.658</ele>
      <time>2021-10-12T20:09:25Z</time>
    </trkpt>
    <trkpt lat="38.615292041" lon="34.938908005">
      <ele>1164.238</ele>
      <time>2021-10-12T20:09:25Z</time>
    </trkpt>
    <trkpt lat="38.615301009" lon="34.938866012">
      <ele>1163.421</ele>
      <time>2021-10-12T20:09:27Z</time>
    </trkpt>
    <trkpt lat="38.615303021" lon="34.938843967">
      <ele>1163.01</ele>
      <time>2021-10-12T20:09:27Z</time>
    </trkpt>
    <trkpt lat="38.615303021" lon="34.938831981">
      <ele>1162.794</ele>
      <time>2021-10-12T20:09:28Z</time>
    </trkpt>
    <trkpt lat="38.615306038" lon="34.938781019">
      <ele>1161.855</ele>
      <time>2021-10-12T20:09:29Z</time>
    </trkpt>
    <trkpt lat="38.615306038" lon="34.938743971">
      <ele>1161.188</ele>
      <time>2021-10-12T20:09:30Z</time>
    </trkpt>
    <trkpt lat="38.615305033" lon="34.93870399">
      <ele>1160.476</ele>
      <time>2021-10-12T20:09:31Z</time>
    </trkpt>
    <trkpt lat="38.615305033" lon="34.938665014">
      <ele>1159.774</ele>
      <time>2021-10-12T20:09:32Z</time>
    </trkpt>
    <trkpt lat="38.615305033" lon="34.938630983">
      <ele>1159.161</ele>
      <time>2021-10-12T20:09:33Z</time>
    </trkpt>
    <trkpt lat="38.615304027" lon="34.938596031">
      <ele>1158.584</ele>
      <time>2021-10-12T20:09:34Z</time>
    </trkpt>
    <trkpt lat="38.615302015" lon="34.938559989">
      <ele>1158.057</ele>
      <time>2021-10-12T20:09:36Z</time>
    </trkpt>
    <trkpt lat="38.615298998" lon="34.938523024">
      <ele>1157.53</ele>
      <time>2021-10-12T20:09:37Z</time>
    </trkpt>
    <trkpt lat="38.615292963" lon="34.938483965">
      <ele>1157.01</ele>
      <time>2021-10-12T20:09:38Z</time>
    </trkpt>
    <trkpt lat="38.615288017" lon="34.938447">
      <ele>1156.52</ele>
      <time>2021-10-12T20:09:39Z</time>
    </trkpt>
    <trkpt lat="38.615276031" lon="34.938375">
      <ele>1155.608</ele>
      <time>2021-10-12T20:09:41Z</time>
    </trkpt>
    <trkpt lat="38.615269996" lon="34.938336024">
      <ele>1155.067</ele>
      <time>2021-10-12T20:09:42Z</time>
    </trkpt>
    <trkpt lat="38.615263039" lon="34.938295037">
      <ele>1154.77</ele>
      <time>2021-10-12T20:09:43Z</time>
    </trkpt>
    <trkpt lat="38.615254993" lon="34.938219013">
      <ele>1154.225</ele>
      <time>2021-10-12T20:09:46Z</time>
    </trkpt>
    <trkpt lat="38.615251975" lon="34.938186994">
      <ele>1153.99</ele>
      <time>2021-10-12T20:09:47Z</time>
    </trkpt>
    <trkpt lat="38.615250969" lon="34.938111976">
      <ele>1153.426</ele>
      <time>2021-10-12T20:09:49Z</time>
    </trkpt>
    <trkpt lat="38.615253987" lon="34.938068977">
      <ele>1153.101</ele>
      <time>2021-10-12T20:09:50Z</time>
    </trkpt>
    <trkpt lat="38.615259016" lon="34.938023966">
      <ele>1152.667</ele>
      <time>2021-10-12T20:09:51Z</time>
    </trkpt>
    <trkpt lat="38.615264967" lon="34.937978033">
      <ele>1152.176</ele>
      <time>2021-10-12T20:09:53Z</time>
    </trkpt>
    <trkpt lat="38.615272008" lon="34.937934028">
      <ele>1151.697</ele>
      <time>2021-10-12T20:09:54Z</time>
    </trkpt>
    <trkpt lat="38.615277959" lon="34.937894968">
      <ele>1151.262</ele>
      <time>2021-10-12T20:09:55Z</time>
    </trkpt>
    <trkpt lat="38.615282988" lon="34.937858004">
      <ele>1150.775</ele>
      <time>2021-10-12T20:09:56Z</time>
    </trkpt>
    <trkpt lat="38.61529598" lon="34.937783992">
      <ele>1149.801</ele>
      <time>2021-10-12T20:09:58Z</time>
    </trkpt>
    <trkpt lat="38.615303021" lon="34.937747028">
      <ele>1149.314</ele>
      <time>2021-10-12T20:09:59Z</time>
    </trkpt>
    <trkpt lat="38.615314001" lon="34.93770998">
      <ele>1148.778</ele>
      <time>2021-10-12T20:10:01Z</time>
    </trkpt>
    <trkpt lat="38.615326993" lon="34.937674021">
      <ele>1148.237</ele>
      <time>2021-10-12T20:10:02Z</time>
    </trkpt>
    <trkpt lat="38.615360018" lon="34.937604032">
      <ele>1147.124</ele>
      <time>2021-10-12T20:10:04Z</time>
    </trkpt>
    <trkpt lat="38.6154" lon="34.937531026">
      <ele>1145.966</ele>
      <time>2021-10-12T20:10:07Z</time>
    </trkpt>
    <trkpt lat="38.61542196" lon="34.937491966">
      <ele>1145.371</ele>
      <time>2021-10-12T20:10:08Z</time>
    </trkpt>
    <trkpt lat="38.615442999" lon="34.937453996">
      <ele>1144.817</ele>
      <time>2021-10-12T20:10:09Z</time>
    </trkpt>
    <trkpt lat="38.615477029" lon="34.937385013">
      <ele>1143.903</ele>
      <time>2021-10-12T20:10:12Z</time>
    </trkpt>
    <trkpt lat="38.615491027" lon="34.937356012">
      <ele>1143.54</ele>
      <time>2021-10-12T20:10:13Z</time>
    </trkpt>
    <trkpt lat="38.615505025" lon="34.937330028">
      <ele>1143.211</ele>
      <time>2021-10-12T20:10:14Z</time>
    </trkpt>
    <trkpt lat="38.615519023" lon="34.937304966">
      <ele>1142.898</ele>
      <time>2021-10-12T20:10:15Z</time>
    </trkpt>
    <trkpt lat="38.615532015" lon="34.937279988">
      <ele>1142.603</ele>
      <time>2021-10-12T20:10:15Z</time>
    </trkpt>
    <trkpt lat="38.615546012" lon="34.937254004">
      <ele>1142.301</ele>
      <time>2021-10-12T20:10:16Z</time>
    </trkpt>
    <trkpt lat="38.61557099" lon="34.937202036">
      <ele>1141.795</ele>
      <time>2021-10-12T20:10:18Z</time>
    </trkpt>
    <trkpt lat="38.615599992" lon="34.937148979">
      <ele>1141.27</ele>
      <time>2021-10-12T20:10:20Z</time>
    </trkpt>
    <trkpt lat="38.61561399" lon="34.937124001">
      <ele>1141.008</ele>
      <time>2021-10-12T20:10:21Z</time>
    </trkpt>
    <trkpt lat="38.615632011" lon="34.937075973">
      <ele>1140.527</ele>
      <time>2021-10-12T20:10:22Z</time>
    </trkpt>
    <trkpt lat="38.615636034" lon="34.937054012">
      <ele>1140.324</ele>
      <time>2021-10-12T20:10:23Z</time>
    </trkpt>
    <trkpt lat="38.615641985" lon="34.937029034">
      <ele>1140.082</ele>
      <time>2021-10-12T20:10:24Z</time>
    </trkpt>
    <trkpt lat="38.61565196" lon="34.937001038">
      <ele>1139.784</ele>
      <time>2021-10-12T20:10:25Z</time>
    </trkpt>
    <trkpt lat="38.615663024" lon="34.936975976">
      <ele>1139.497</ele>
      <time>2021-10-12T20:10:26Z</time>
    </trkpt>
    <trkpt lat="38.615674004" lon="34.936946975">
      <ele>1139.169</ele>
      <time>2021-10-12T20:10:27Z</time>
    </trkpt>
    <trkpt lat="38.615694959" lon="34.936882015">
      <ele>1138.434</ele>
      <time>2021-10-12T20:10:29Z</time>
    </trkpt>
    <trkpt lat="38.615714991" lon="34.936816972">
      <ele>1137.671</ele>
      <time>2021-10-12T20:10:31Z</time>
    </trkpt>
    <trkpt lat="38.615722032" lon="34.936789982">
      <ele>1137.356</ele>
      <time>2021-10-12T20:10:31Z</time>
    </trkpt>
    <trkpt lat="38.615726978" lon="34.936763998">
      <ele>1137.066</ele>
      <time>2021-10-12T20:10:32Z</time>
    </trkpt>
    <trkpt lat="38.615729995" lon="34.936734997">
      <ele>1136.763</ele>
      <time>2021-10-12T20:10:33Z</time>
    </trkpt>
    <trkpt lat="38.615728989" lon="34.936673976">
      <ele>1136.196</ele>
      <time>2021-10-12T20:10:35Z</time>
    </trkpt>
    <trkpt lat="38.615728989" lon="34.936645981">
      <ele>1135.969</ele>
      <time>2021-10-12T20:10:36Z</time>
    </trkpt>
    <trkpt lat="38.615731001" lon="34.936596025">
      <ele>1135.57</ele>
      <time>2021-10-12T20:10:37Z</time>
    </trkpt>
    <trkpt lat="38.615734018" lon="34.936572975">
      <ele>1135.374</ele>
      <time>2021-10-12T20:10:38Z</time>
    </trkpt>
    <trkpt lat="38.615738964" lon="34.936546991">
      <ele>1135.149</ele>
      <time>2021-10-12T20:10:39Z</time>
    </trkpt>
    <trkpt lat="38.615761008" lon="34.936494017">
      <ele>1134.674</ele>
      <time>2021-10-12T20:10:40Z</time>
    </trkpt>
    <trkpt lat="38.615795961" lon="34.936434003">
      <ele>1134.228</ele>
      <time>2021-10-12T20:10:42Z</time>
    </trkpt>
    <trkpt lat="38.615809036" lon="34.936409025">
      <ele>1134.092</ele>
      <time>2021-10-12T20:10:43Z</time>
    </trkpt>
    <trkpt lat="38.615815993" lon="34.936393015">
      <ele>1134.018</ele>
      <time>2021-10-12T20:10:44Z</time>
    </trkpt>
    <trkpt lat="38.615824962" lon="34.936368037">
      <ele>1134.071</ele>
      <time>2021-10-12T20:10:45Z</time>
    </trkpt>
    <trkpt lat="38.615824962" lon="34.936328977">
      <ele>1134.203</ele>
      <time>2021-10-12T20:10:46Z</time>
    </trkpt>
    <trkpt lat="38.615823034" lon="34.936309028">
      <ele>1134.266</ele>
      <time>2021-10-12T20:10:46Z</time>
    </trkpt>
    <trkpt lat="38.615818005" lon="34.936288996">
      <ele>1134.32</ele>
      <time>2021-10-12T20:10:47Z</time>
    </trkpt>
    <trkpt lat="38.61581197" lon="34.93627198">
      <ele>1134.356</ele>
      <time>2021-10-12T20:10:48Z</time>
    </trkpt>
    <trkpt lat="38.615790009" lon="34.936243985">
      <ele>1134.359</ele>
      <time>2021-10-12T20:10:49Z</time>
    </trkpt>
    <trkpt lat="38.615771988" lon="34.936227975">
      <ele>1134.323</ele>
      <time>2021-10-12T20:10:50Z</time>
    </trkpt>
    <trkpt lat="38.615726978" lon="34.936190005">
      <ele>1134.168</ele>
      <time>2021-10-12T20:10:52Z</time>
    </trkpt>
    <trkpt lat="38.615699988" lon="34.936166033">
      <ele>1134.032</ele>
      <time>2021-10-12T20:10:53Z</time>
    </trkpt>
    <trkpt lat="38.615672998" lon="34.936140971">
      <ele>1133.862</ele>
      <time>2021-10-12T20:10:54Z</time>
    </trkpt>
    <trkpt lat="38.61564802" lon="34.936114987">
      <ele>1133.67</ele>
      <time>2021-10-12T20:10:55Z</time>
    </trkpt>
    <trkpt lat="38.615604015" lon="34.936065031">
      <ele>1133.631</ele>
      <time>2021-10-12T20:10:57Z</time>
    </trkpt>
    <trkpt lat="38.615561016" lon="34.936013985">
      <ele>1133.416</ele>
      <time>2021-10-12T20:11:00Z</time>
    </trkpt>
    <trkpt lat="38.61553696" lon="34.935986996">
      <ele>1133.216</ele>
      <time>2021-10-12T20:11:01Z</time>
    </trkpt>
    <trkpt lat="38.615513993" lon="34.935961012">
      <ele>1133.011</ele>
      <time>2021-10-12T20:11:02Z</time>
    </trkpt>
    <trkpt lat="38.615490021" lon="34.935935028">
      <ele>1132.777</ele>
      <time>2021-10-12T20:11:03Z</time>
    </trkpt>
    <trkpt lat="38.615466971" lon="34.935908038">
      <ele>1132.541</ele>
      <time>2021-10-12T20:11:04Z</time>
    </trkpt>
    <trkpt lat="38.615446016" lon="34.935879959">
      <ele>1132.321</ele>
      <time>2021-10-12T20:11:05Z</time>
    </trkpt>
    <trkpt lat="38.615430007" lon="34.935851041">
      <ele>1132.157</ele>
      <time>2021-10-12T20:11:06Z</time>
    </trkpt>
    <trkpt lat="38.615420032" lon="34.93582204">
      <ele>1132.131</ele>
      <time>2021-10-12T20:11:07Z</time>
    </trkpt>
    <trkpt lat="38.61541098" lon="34.935793038">
      <ele>1132.202</ele>
      <time>2021-10-12T20:11:08Z</time>
    </trkpt>
    <trkpt lat="38.615404023" lon="34.935764959">
      <ele>1132.288</ele>
      <time>2021-10-12T20:11:09Z</time>
    </trkpt>
    <trkpt lat="38.615395976" lon="34.935735036">
      <ele>1132.357</ele>
      <time>2021-10-12T20:11:10Z</time>
    </trkpt>
    <trkpt lat="38.615382984" lon="34.935653983">
      <ele>1132.65</ele>
      <time>2021-10-12T20:11:12Z</time>
    </trkpt>
    <trkpt lat="38.61537301" lon="34.935607966">
      <ele>1132.739</ele>
      <time>2021-10-12T20:11:14Z</time>
    </trkpt>
    <trkpt lat="38.615359012" lon="34.935561027">
      <ele>1132.723</ele>
      <time>2021-10-12T20:11:15Z</time>
    </trkpt>
    <trkpt lat="38.615341997" lon="34.935511993">
      <ele>1132.508</ele>
      <time>2021-10-12T20:11:17Z</time>
    </trkpt>
    <trkpt lat="38.615325987" lon="34.935463965">
      <ele>1132.314</ele>
      <time>2021-10-12T20:11:18Z</time>
    </trkpt>
    <trkpt lat="38.615309978" lon="34.935379978">
      <ele>1132.254</ele>
      <time>2021-10-12T20:11:21Z</time>
    </trkpt>
    <trkpt lat="38.615325987" lon="34.935330022">
      <ele>1132.712</ele>
      <time>2021-10-12T20:11:22Z</time>
    </trkpt>
    <trkpt lat="38.615324982" lon="34.935265984">
      <ele>1132.878</ele>
      <time>2021-10-12T20:11:24Z</time>
    </trkpt>
    <trkpt lat="38.615323976" lon="34.935199013">
      <ele>1133.021</ele>
      <time>2021-10-12T20:11:26Z</time>
    </trkpt>
    <trkpt lat="38.615323976" lon="34.935126007">
      <ele>1133.196</ele>
      <time>2021-10-12T20:11:28Z</time>
    </trkpt>
    <trkpt lat="38.61531903" lon="34.935055012">
      <ele>1133.306</ele>
      <time>2021-10-12T20:11:30Z</time>
    </trkpt>
    <trkpt lat="38.615310984" lon="34.934917968">
      <ele>1133.323</ele>
      <time>2021-10-12T20:11:34Z</time>
    </trkpt>
    <trkpt lat="38.615308972" lon="34.934854014">
      <ele>1133.278</ele>
      <time>2021-10-12T20:11:36Z</time>
    </trkpt>
    <trkpt lat="38.615320036" lon="34.934783019">
      <ele>1133.338</ele>
      <time>2021-10-12T20:11:38Z</time>
    </trkpt>
    <trkpt lat="38.615326993" lon="34.93471303">
      <ele>1133.366</ele>
      <time>2021-10-12T20:11:40Z</time>
    </trkpt>
    <trkpt lat="38.615340991" lon="34.934618985">
      <ele>1133.624</ele>
      <time>2021-10-12T20:11:43Z</time>
    </trkpt>
    <trkpt lat="38.615360018" lon="34.934528964">
      <ele>1134.004</ele>
      <time>2021-10-12T20:11:46Z</time>
    </trkpt>
    <trkpt lat="38.615364041" lon="34.934381023">
      <ele>1134.313</ele>
      <time>2021-10-12T20:11:50Z</time>
    </trkpt>
    <trkpt lat="38.615392037" lon="34.934298964">
      <ele>1134.861</ele>
      <time>2021-10-12T20:11:53Z</time>
    </trkpt>
    <trkpt lat="38.61541098" lon="34.93425102">
      <ele>1135.252</ele>
      <time>2021-10-12T20:11:54Z</time>
    </trkpt>
    <trkpt lat="38.61543797" lon="34.934205003">
      <ele>1135.804</ele>
      <time>2021-10-12T20:11:56Z</time>
    </trkpt>
    <trkpt lat="38.615489015" lon="34.934107019">
      <ele>1136.476</ele>
      <time>2021-10-12T20:11:59Z</time>
    </trkpt>
    <trkpt lat="38.615564033" lon="34.934012974">
      <ele>1136.988</ele>
      <time>2021-10-12T20:12:03Z</time>
    </trkpt>
    <trkpt lat="38.615593035" lon="34.933968969">
      <ele>1137.038</ele>
      <time>2021-10-12T20:12:05Z</time>
    </trkpt>
    <trkpt lat="38.615628993" lon="34.93393301">
      <ele>1137.291</ele>
      <time>2021-10-12T20:12:07Z</time>
    </trkpt>
    <trkpt lat="38.615661012" lon="34.933901997">
      <ele>1137.577</ele>
      <time>2021-10-12T20:12:08Z</time>
    </trkpt>
    <trkpt lat="38.615694037" lon="34.933857992">
      <ele>1137.438</ele>
      <time>2021-10-12T20:12:10Z</time>
    </trkpt>
    <trkpt lat="38.615758996" lon="34.933781968">
      <ele>1136.826</ele>
      <time>2021-10-12T20:12:13Z</time>
    </trkpt>
    <trkpt lat="38.615785986" lon="34.933745004">
      <ele>1136.387</ele>
      <time>2021-10-12T20:12:15Z</time>
    </trkpt>
    <trkpt lat="38.615819011" lon="34.93371198">
      <ele>1136.038</ele>
      <time>2021-10-12T20:12:16Z</time>
    </trkpt>
    <trkpt lat="38.615843989" lon="34.933683984">
      <ele>1135.707</ele>
      <time>2021-10-12T20:12:17Z</time>
    </trkpt>
    <trkpt lat="38.615904003" lon="34.933611983">
      <ele>1135.035</ele>
      <time>2021-10-12T20:12:20Z</time>
    </trkpt>
    <trkpt lat="38.615934011" lon="34.933578959">
      <ele>1134.987</ele>
      <time>2021-10-12T20:12:22Z</time>
    </trkpt>
    <trkpt lat="38.615969969" lon="34.933545012">
      <ele>1135.016</ele>
      <time>2021-10-12T20:12:24Z</time>
    </trkpt>
    <trkpt lat="38.615997965" lon="34.933515005">
      <ele>1134.987</ele>
      <time>2021-10-12T20:12:25Z</time>
    </trkpt>
    <trkpt lat="38.616033001" lon="34.933478963">
      <ele>1134.972</ele>
      <time>2021-10-12T20:12:27Z</time>
    </trkpt>
    <trkpt lat="38.616099972" lon="34.933416015">
      <ele>1135.03</ele>
      <time>2021-10-12T20:12:30Z</time>
    </trkpt>
    <trkpt lat="38.616141966" lon="34.933379972">
      <ele>1135.542</ele>
      <time>2021-10-12T20:12:31Z</time>
    </trkpt>
    <trkpt lat="38.616151018" lon="34.93333404">
      <ele>1135.159</ele>
      <time>2021-10-12T20:12:33Z</time>
    </trkpt>
    <trkpt lat="38.61615303" lon="34.933274025">
      <ele>1135.207</ele>
      <time>2021-10-12T20:12:35Z</time>
    </trkpt>
    <trkpt lat="38.616132997" lon="34.933228008">
      <ele>1134.63</ele>
      <time>2021-10-12T20:12:36Z</time>
    </trkpt>
    <trkpt lat="38.616091004" lon="34.933196995">
      <ele>1133.675</ele>
      <time>2021-10-12T20:12:38Z</time>
    </trkpt>
    <trkpt lat="38.616054039" lon="34.933161037">
      <ele>1133.051</ele>
      <time>2021-10-12T20:12:40Z</time>
    </trkpt>
    <trkpt lat="38.616013974" lon="34.933108985">
      <ele>1132.319</ele>
      <time>2021-10-12T20:12:42Z</time>
    </trkpt>
    <trkpt lat="38.615935016" lon="34.933007983">
      <ele>1131.236</ele>
      <time>2021-10-12T20:12:46Z</time>
    </trkpt>
    <trkpt lat="38.615837032" lon="34.93292802">
      <ele>1129.991</ele>
      <time>2021-10-12T20:12:50Z</time>
    </trkpt>
    <trkpt lat="38.615776012" lon="34.932847973">
      <ele>1129.361</ele>
      <time>2021-10-12T20:12:53Z</time>
    </trkpt>
    <trkpt lat="38.615751034" lon="34.932794999">
      <ele>1129.135</ele>
      <time>2021-10-12T20:12:55Z</time>
    </trkpt>
    <trkpt lat="38.615722032" lon="34.932667008">
      <ele>1129.154</ele>
      <time>2021-10-12T20:12:59Z</time>
    </trkpt>
    <trkpt lat="38.615707029" lon="34.932610011">
      <ele>1129.15</ele>
      <time>2021-10-12T20:13:01Z</time>
    </trkpt>
    <trkpt lat="38.615681967" lon="34.93251496">
      <ele>1129.192</ele>
      <time>2021-10-12T20:13:04Z</time>
    </trkpt>
    <trkpt lat="38.615674004" lon="34.93246098">
      <ele>1129.273</ele>
      <time>2021-10-12T20:13:05Z</time>
    </trkpt>
    <trkpt lat="38.615692025" lon="34.932328966">
      <ele>1130.072</ele>
      <time>2021-10-12T20:13:09Z</time>
    </trkpt>
    <trkpt lat="38.615692025" lon="34.932271969">
      <ele>1130.277</ele>
      <time>2021-10-12T20:13:11Z</time>
    </trkpt>
    <trkpt lat="38.615703005" lon="34.93220902">
      <ele>1130.676</ele>
      <time>2021-10-12T20:13:13Z</time>
    </trkpt>
    <trkpt lat="38.615719015" lon="34.932066025">
      <ele>1131.174</ele>
      <time>2021-10-12T20:13:17Z</time>
    </trkpt>
    <trkpt lat="38.615718009" lon="34.931993019">
      <ele>1131.267</ele>
      <time>2021-10-12T20:13:19Z</time>
    </trkpt>
    <trkpt lat="38.615714991" lon="34.931927975">
      <ele>1131.33</ele>
      <time>2021-10-12T20:13:21Z</time>
    </trkpt>
    <trkpt lat="38.615694037" lon="34.931793027">
      <ele>1131.266</ele>
      <time>2021-10-12T20:13:25Z</time>
    </trkpt>
    <trkpt lat="38.615676016" lon="34.931726977">
      <ele>1131.074</ele>
      <time>2021-10-12T20:13:27Z</time>
    </trkpt>
    <trkpt lat="38.615638968" lon="34.931594962">
      <ele>1130.76</ele>
      <time>2021-10-12T20:13:31Z</time>
    </trkpt>
    <trkpt lat="38.615617007" lon="34.931469988">
      <ele>1130.814</ele>
      <time>2021-10-12T20:13:35Z</time>
    </trkpt>
    <trkpt lat="38.615591023" lon="34.931318024">
      <ele>1130.861</ele>
      <time>2021-10-12T20:13:39Z</time>
    </trkpt>
    <trkpt lat="38.615589011" lon="34.931242">
      <ele>1131.067</ele>
      <time>2021-10-12T20:13:42Z</time>
    </trkpt>
    <trkpt lat="38.615594041" lon="34.931167988">
      <ele>1131.378</ele>
      <time>2021-10-12T20:13:44Z</time>
    </trkpt>
    <trkpt lat="38.615573002" lon="34.931002026">
      <ele>1131.227</ele>
      <time>2021-10-12T20:13:49Z</time>
    </trkpt>
    <trkpt lat="38.615569985" lon="34.930921979">
      <ele>1131.172</ele>
      <time>2021-10-12T20:13:51Z</time>
    </trkpt>
    <trkpt lat="38.615561016" lon="34.930768004">
      <ele>1130.589</ele>
      <time>2021-10-12T20:13:55Z</time>
    </trkpt>
    <trkpt lat="38.61557099" lon="34.93061604">
      <ele>1129.602</ele>
      <time>2021-10-12T20:14:00Z</time>
    </trkpt>
    <trkpt lat="38.615583982" lon="34.930471033">
      <ele>1128.698</ele>
      <time>2021-10-12T20:14:04Z</time>
    </trkpt>
    <trkpt lat="38.615582976" lon="34.930406995">
      <ele>1128.227</ele>
      <time>2021-10-12T20:14:06Z</time>
    </trkpt>
    <trkpt lat="38.615594963" lon="34.930275986">
      <ele>1127.419</ele>
      <time>2021-10-12T20:14:10Z</time>
    </trkpt>
    <trkpt lat="38.615608038" lon="34.930129973">
      <ele>1127.035</ele>
      <time>2021-10-12T20:14:14Z</time>
    </trkpt>
    <trkpt lat="38.615620025" lon="34.929989995">
      <ele>1126.624</ele>
      <time>2021-10-12T20:14:18Z</time>
    </trkpt>
    <trkpt lat="38.615646008" lon="34.929829985">
      <ele>1125.753</ele>
      <time>2021-10-12T20:14:23Z</time>
    </trkpt>
    <trkpt lat="38.61567501" lon="34.929696964">
      <ele>1125.005</ele>
      <time>2021-10-12T20:14:27Z</time>
    </trkpt>
    <trkpt lat="38.615693031" lon="34.929636028">
      <ele>1124.551</ele>
      <time>2021-10-12T20:14:29Z</time>
    </trkpt>
    <trkpt lat="38.615720021" lon="34.929528991">
      <ele>1123.817</ele>
      <time>2021-10-12T20:14:32Z</time>
    </trkpt>
    <trkpt lat="38.615737036" lon="34.929478029">
      <ele>1123.592</ele>
      <time>2021-10-12T20:14:34Z</time>
    </trkpt>
    <trkpt lat="38.615740975" lon="34.929450033">
      <ele>1123.391</ele>
      <time>2021-10-12T20:14:34Z</time>
    </trkpt>
    <trkpt lat="38.615752961" lon="34.929451039">
      <ele>1123.615</ele>
      <time>2021-10-12T20:14:35Z</time>
    </trkpt>
    <trkpt lat="38.615764026" lon="34.929414997">
      <ele>1123.328</ele>
      <time>2021-10-12T20:14:36Z</time>
    </trkpt>
    <trkpt lat="38.615755979" lon="34.929382978">
      <ele>1122.723</ele>
      <time>2021-10-12T20:14:37Z</time>
    </trkpt>
    <trkpt lat="38.615766037" lon="34.929350037">
      <ele>1122.429</ele>
      <time>2021-10-12T20:14:38Z</time>
    </trkpt>
    <trkpt lat="38.615772994" lon="34.929332016">
      <ele>1122.295</ele>
      <time>2021-10-12T20:14:39Z</time>
    </trkpt>
    <trkpt lat="38.615789004" lon="34.929284994">
      <ele>1121.906</ele>
      <time>2021-10-12T20:14:40Z</time>
    </trkpt>
    <trkpt lat="38.615796966" lon="34.92925901">
      <ele>1121.675</ele>
      <time>2021-10-12T20:14:41Z</time>
    </trkpt>
    <trkpt lat="38.615805013" lon="34.929235959">
      <ele>1121.488</ele>
      <time>2021-10-12T20:14:42Z</time>
    </trkpt>
    <trkpt lat="38.615809958" lon="34.929213999">
      <ele>1121.261</ele>
      <time>2021-10-12T20:14:42Z</time>
    </trkpt>
    <trkpt lat="38.615816999" lon="34.929189021">
      <ele>1121.028</ele>
      <time>2021-10-12T20:14:43Z</time>
    </trkpt>
    <trkpt lat="38.615825968" lon="34.929160019">
      <ele>1120.772</ele>
      <time>2021-10-12T20:14:44Z</time>
    </trkpt>
    <trkpt lat="38.615838038" lon="34.929123977">
      <ele>1120.439</ele>
      <time>2021-10-12T20:14:45Z</time>
    </trkpt>
    <trkpt lat="38.615848012" lon="34.929086007">
      <ele>1120.012</ele>
      <time>2021-10-12T20:14:46Z</time>
    </trkpt>
    <trkpt lat="38.615864022" lon="34.929006966">
      <ele>1119.095</ele>
      <time>2021-10-12T20:14:49Z</time>
    </trkpt>
    <trkpt lat="38.615873996" lon="34.928966984">
      <ele>1118.669</ele>
      <time>2021-10-12T20:14:50Z</time>
    </trkpt>
    <trkpt lat="38.615881959" lon="34.928927002">
      <ele>1118.225</ele>
      <time>2021-10-12T20:14:51Z</time>
    </trkpt>
    <trkpt lat="38.615890006" lon="34.928889032">
      <ele>1117.818</ele>
      <time>2021-10-12T20:14:52Z</time>
    </trkpt>
    <trkpt lat="38.615896963" lon="34.928848967">
      <ele>1117.485</ele>
      <time>2021-10-12T20:14:53Z</time>
    </trkpt>
    <trkpt lat="38.615902998" lon="34.928812003">
      <ele>1117.173</ele>
      <time>2021-10-12T20:14:54Z</time>
    </trkpt>
    <trkpt lat="38.615910038" lon="34.928772021">
      <ele>1116.842</ele>
      <time>2021-10-12T20:14:56Z</time>
    </trkpt>
    <trkpt lat="38.615921019" lon="34.928733967">
      <ele>1116.59</ele>
      <time>2021-10-12T20:14:57Z</time>
    </trkpt>
    <trkpt lat="38.615934011" lon="34.928698009">
      <ele>1116.388</ele>
      <time>2021-10-12T20:14:58Z</time>
    </trkpt>
    <trkpt lat="38.615948008" lon="34.92866599">
      <ele>1116.244</ele>
      <time>2021-10-12T20:14:59Z</time>
    </trkpt>
    <trkpt lat="38.615962006" lon="34.928636989">
      <ele>1116.132</ele>
      <time>2021-10-12T20:15:00Z</time>
    </trkpt>
    <trkpt lat="38.615981033" lon="34.928608993">
      <ele>1116.116</ele>
      <time>2021-10-12T20:15:01Z</time>
    </trkpt>
    <trkpt lat="38.616024032" lon="34.928556019">
      <ele>1116.486</ele>
      <time>2021-10-12T20:15:03Z</time>
    </trkpt>
    <trkpt lat="38.616060996" lon="34.928488964">
      <ele>1116.759</ele>
      <time>2021-10-12T20:15:06Z</time>
    </trkpt>
    <trkpt lat="38.616072983" lon="34.928450994">
      <ele>1116.795</ele>
      <time>2021-10-12T20:15:07Z</time>
    </trkpt>
    <trkpt lat="38.616083963" lon="34.928410007">
      <ele>1116.814</ele>
      <time>2021-10-12T20:15:08Z</time>
    </trkpt>
    <trkpt lat="38.616108019" lon="34.928323003">
      <ele>1116.944</ele>
      <time>2021-10-12T20:15:11Z</time>
    </trkpt>
    <trkpt lat="38.616119921" lon="34.928283691">
      <ele>1117.058</ele>
      <time>2021-10-12T20:15:12Z</time>
    </trkpt>
    <trkpt lat="38.616136014" lon="34.928214038">
      <ele>1117.141</ele>
      <time>2021-10-12T20:15:14Z</time>
    </trkpt>
    <trkpt lat="38.616130985" lon="34.928171039">
      <ele>1117.101</ele>
      <time>2021-10-12T20:15:15Z</time>
    </trkpt>
    <trkpt lat="38.616127968" lon="34.928130973">
      <ele>1117.077</ele>
      <time>2021-10-12T20:15:17Z</time>
    </trkpt>
    <trkpt lat="38.616130985" lon="34.92808898">
      <ele>1117.08</ele>
      <time>2021-10-12T20:15:18Z</time>
    </trkpt>
    <trkpt lat="38.616135009" lon="34.928043969">
      <ele>1117.048</ele>
      <time>2021-10-12T20:15:19Z</time>
    </trkpt>
    <trkpt lat="38.616139032" lon="34.928001976">
      <ele>1116.927</ele>
      <time>2021-10-12T20:15:20Z</time>
    </trkpt>
    <trkpt lat="38.616143977" lon="34.927958976">
      <ele>1116.812</ele>
      <time>2021-10-12T20:15:22Z</time>
    </trkpt>
    <trkpt lat="38.61615303" lon="34.927913966">
      <ele>1116.718</ele>
      <time>2021-10-12T20:15:23Z</time>
    </trkpt>
    <trkpt lat="38.61616401" lon="34.927872978">
      <ele>1116.658</ele>
      <time>2021-10-12T20:15:24Z</time>
    </trkpt>
    <trkpt lat="38.616178008" lon="34.927831991">
      <ele>1116.63</ele>
      <time>2021-10-12T20:15:26Z</time>
    </trkpt>
    <trkpt lat="38.616188988" lon="34.927788991">
      <ele>1116.59</ele>
      <time>2021-10-12T20:15:27Z</time>
    </trkpt>
    <trkpt lat="38.616198963" lon="34.927748004">
      <ele>1116.525</ele>
      <time>2021-10-12T20:15:28Z</time>
    </trkpt>
    <trkpt lat="38.616213966" lon="34.927709028">
      <ele>1116.493</ele>
      <time>2021-10-12T20:15:29Z</time>
    </trkpt>
    <trkpt lat="38.616227964" lon="34.927670974">
      <ele>1116.457</ele>
      <time>2021-10-12T20:15:31Z</time>
    </trkpt>
    <trkpt lat="38.616246991" lon="34.92763401">
      <ele>1116.461</ele>
      <time>2021-10-12T20:15:32Z</time>
    </trkpt>
    <trkpt lat="38.616264006" lon="34.927595034">
      <ele>1116.443</ele>
      <time>2021-10-12T20:15:33Z</time>
    </trkpt>
    <trkpt lat="38.616283033" lon="34.927559998">
      <ele>1116.454</ele>
      <time>2021-10-12T20:15:34Z</time>
    </trkpt>
    <trkpt lat="38.616305999" lon="34.927526973">
      <ele>1116.5</ele>
      <time>2021-10-12T20:15:36Z</time>
    </trkpt>
    <trkpt lat="38.616324021" lon="34.927493026">
      <ele>1116.508</ele>
      <time>2021-10-12T20:15:37Z</time>
    </trkpt>
    <trkpt lat="38.616341036" lon="34.927453967">
      <ele>1116.49</ele>
      <time>2021-10-12T20:15:38Z</time>
    </trkpt>
    <trkpt lat="38.616356961" lon="34.927417003">
      <ele>1116.471</ele>
      <time>2021-10-12T20:15:39Z</time>
    </trkpt>
    <trkpt lat="38.616373977" lon="34.92738096">
      <ele>1116.464</ele>
      <time>2021-10-12T20:15:41Z</time>
    </trkpt>
    <trkpt lat="38.616394009" lon="34.92734299">
      <ele>1116.398</ele>
      <time>2021-10-12T20:15:42Z</time>
    </trkpt>
    <trkpt lat="38.616413036" lon="34.92730502">
      <ele>1116.124</ele>
      <time>2021-10-12T20:15:43Z</time>
    </trkpt>
    <trkpt lat="38.616430974" lon="34.92727099">
      <ele>1115.873</ele>
      <time>2021-10-12T20:15:44Z</time>
    </trkpt>
    <trkpt lat="38.616450001" lon="34.927236037">
      <ele>1115.61</ele>
      <time>2021-10-12T20:15:46Z</time>
    </trkpt>
    <trkpt lat="38.616469027" lon="34.927205024">
      <ele>1115.397</ele>
      <time>2021-10-12T20:15:47Z</time>
    </trkpt>
    <trkpt lat="38.616490988" lon="34.927173005">
      <ele>1115.218</ele>
      <time>2021-10-12T20:15:48Z</time>
    </trkpt>
    <trkpt lat="38.616512027" lon="34.927141992">
      <ele>1115.081</ele>
      <time>2021-10-12T20:15:49Z</time>
    </trkpt>
    <trkpt lat="38.616532981" lon="34.927113997">
      <ele>1114.977</ele>
      <time>2021-10-12T20:15:50Z</time>
    </trkpt>
    <trkpt lat="38.61655402" lon="34.927079966">
      <ele>1114.908</ele>
      <time>2021-10-12T20:15:52Z</time>
    </trkpt>
    <trkpt lat="38.616572963" lon="34.927048031">
      <ele>1114.879</ele>
      <time>2021-10-12T20:15:53Z</time>
    </trkpt>
    <trkpt lat="38.616594002" lon="34.927018024">
      <ele>1114.874</ele>
      <time>2021-10-12T20:15:54Z</time>
    </trkpt>
    <trkpt lat="38.616614034" lon="34.926986005">
      <ele>1114.907</ele>
      <time>2021-10-12T20:15:55Z</time>
    </trkpt>
    <trkpt lat="38.616631972" lon="34.92695298">
      <ele>1114.977</ele>
      <time>2021-10-12T20:15:56Z</time>
    </trkpt>
    <trkpt lat="38.61665301" lon="34.926918028">
      <ele>1114.995</ele>
      <time>2021-10-12T20:15:58Z</time>
    </trkpt>
    <trkpt lat="38.616672959" lon="34.926882992">
      <ele>1114.942</ele>
      <time>2021-10-12T20:15:59Z</time>
    </trkpt>
    <trkpt lat="38.616692992" lon="34.926850973">
      <ele>1114.779</ele>
      <time>2021-10-12T20:16:00Z</time>
    </trkpt>
    <trkpt lat="38.616715036" lon="34.926818032">
      <ele>1114.636</ele>
      <time>2021-10-12T20:16:01Z</time>
    </trkpt>
    <trkpt lat="38.616735991" lon="34.926788025">
      <ele>1114.532</ele>
      <time>2021-10-12T20:16:02Z</time>
    </trkpt>
    <trkpt lat="38.616756024" lon="34.926756006">
      <ele>1114.471</ele>
      <time>2021-10-12T20:16:04Z</time>
    </trkpt>
    <trkpt lat="38.61677899" lon="34.926724993">
      <ele>1114.426</ele>
      <time>2021-10-12T20:16:05Z</time>
    </trkpt>
    <trkpt lat="38.61680204" lon="34.92669398">
      <ele>1114.417</ele>
      <time>2021-10-12T20:16:06Z</time>
    </trkpt>
    <trkpt lat="38.616825007" lon="34.926661039">
      <ele>1114.43</ele>
      <time>2021-10-12T20:16:07Z</time>
    </trkpt>
    <trkpt lat="38.616848979" lon="34.92662902">
      <ele>1114.344</ele>
      <time>2021-10-12T20:16:09Z</time>
    </trkpt>
    <trkpt lat="38.616871024" lon="34.926599013">
      <ele>1114.264</ele>
      <time>2021-10-12T20:16:10Z</time>
    </trkpt>
    <trkpt lat="38.61689399" lon="34.926568">
      <ele>1114.182</ele>
      <time>2021-10-12T20:16:11Z</time>
    </trkpt>
    <trkpt lat="38.616915029" lon="34.926538998">
      <ele>1114.106</ele>
      <time>2021-10-12T20:16:12Z</time>
    </trkpt>
    <trkpt lat="38.616936989" lon="34.926508991">
      <ele>1114.027</ele>
      <time>2021-10-12T20:16:13Z</time>
    </trkpt>
    <trkpt lat="38.616960961" lon="34.92647999">
      <ele>1113.822</ele>
      <time>2021-10-12T20:16:15Z</time>
    </trkpt>
    <trkpt lat="38.616983006" lon="34.926453">
      <ele>1113.584</ele>
      <time>2021-10-12T20:16:16Z</time>
    </trkpt>
    <trkpt lat="38.617006978" lon="34.926423999">
      <ele>1113.325</ele>
      <time>2021-10-12T20:16:17Z</time>
    </trkpt>
    <trkpt lat="38.617030028" lon="34.926396003">
      <ele>1113.076</ele>
      <time>2021-10-12T20:16:18Z</time>
    </trkpt>
    <trkpt lat="38.617051989" lon="34.926370019">
      <ele>1112.933</ele>
      <time>2021-10-12T20:16:19Z</time>
    </trkpt>
    <trkpt lat="38.617074033" lon="34.926345041">
      <ele>1112.832</ele>
      <time>2021-10-12T20:16:20Z</time>
    </trkpt>
    <trkpt lat="38.617090965" lon="34.926317967">
      <ele>1112.808</ele>
      <time>2021-10-12T20:16:21Z</time>
    </trkpt>
    <trkpt lat="38.617109992" lon="34.92628796">
      <ele>1112.792</ele>
      <time>2021-10-12T20:16:22Z</time>
    </trkpt>
    <trkpt lat="38.617124995" lon="34.926257031">
      <ele>1112.833</ele>
      <time>2021-10-12T20:16:24Z</time>
    </trkpt>
    <trkpt lat="38.61714201" lon="34.926229035">
      <ele>1112.851</ele>
      <time>2021-10-12T20:16:25Z</time>
    </trkpt>
    <trkpt lat="38.617163971" lon="34.926197017">
      <ele>1112.866</ele>
      <time>2021-10-12T20:16:26Z</time>
    </trkpt>
    <trkpt lat="38.617187021" lon="34.926168015">
      <ele>1112.87</ele>
      <time>2021-10-12T20:16:27Z</time>
    </trkpt>
    <trkpt lat="38.617207976" lon="34.926138008">
      <ele>1112.914</ele>
      <time>2021-10-12T20:16:28Z</time>
    </trkpt>
    <trkpt lat="38.617232032" lon="34.926105989">
      <ele>1112.913</ele>
      <time>2021-10-12T20:16:29Z</time>
    </trkpt>
    <trkpt lat="38.617254999" lon="34.926075982">
      <ele>1112.787</ele>
      <time>2021-10-12T20:16:31Z</time>
    </trkpt>
    <trkpt lat="38.617276037" lon="34.926043041">
      <ele>1112.711</ele>
      <time>2021-10-12T20:16:32Z</time>
    </trkpt>
    <trkpt lat="38.617299004" lon="34.926009011">
      <ele>1112.64</ele>
      <time>2021-10-12T20:16:33Z</time>
    </trkpt>
    <trkpt lat="38.617319036" lon="34.925971963">
      <ele>1112.63</ele>
      <time>2021-10-12T20:16:35Z</time>
    </trkpt>
    <trkpt lat="38.617342003" lon="34.925939022">
      <ele>1112.593</ele>
      <time>2021-10-12T20:16:36Z</time>
    </trkpt>
    <trkpt lat="38.617363963" lon="34.925908009">
      <ele>1112.573</ele>
      <time>2021-10-12T20:16:37Z</time>
    </trkpt>
    <trkpt lat="38.617385002" lon="34.925874984">
      <ele>1112.59</ele>
      <time>2021-10-12T20:16:38Z</time>
    </trkpt>
    <trkpt lat="38.617407968" lon="34.925841037">
      <ele>1112.616</ele>
      <time>2021-10-12T20:16:40Z</time>
    </trkpt>
    <trkpt lat="38.617431019" lon="34.925808012">
      <ele>1112.543</ele>
      <time>2021-10-12T20:16:41Z</time>
    </trkpt>
    <trkpt lat="38.617453985" lon="34.925778005">
      <ele>1112.464</ele>
      <time>2021-10-12T20:16:42Z</time>
    </trkpt>
    <trkpt lat="38.617478963" lon="34.925749004">
      <ele>1112.409</ele>
      <time>2021-10-12T20:16:43Z</time>
    </trkpt>
    <trkpt lat="38.617506037" lon="34.925726037">
      <ele>1112.299</ele>
      <time>2021-10-12T20:16:45Z</time>
    </trkpt>
    <trkpt lat="38.617533026" lon="34.925700976">
      <ele>1112.001</ele>
      <time>2021-10-12T20:16:46Z</time>
    </trkpt>
    <trkpt lat="38.617564961" lon="34.925677003">
      <ele>1111.627</ele>
      <time>2021-10-12T20:16:47Z</time>
    </trkpt>
    <trkpt lat="38.617593041" lon="34.925652025">
      <ele>1111.313</ele>
      <time>2021-10-12T20:16:48Z</time>
    </trkpt>
    <trkpt lat="38.617621036" lon="34.925626041">
      <ele>1111.003</ele>
      <time>2021-10-12T20:16:50Z</time>
    </trkpt>
    <trkpt lat="38.617650038" lon="34.92559704">
      <ele>1110.69</ele>
      <time>2021-10-12T20:16:51Z</time>
    </trkpt>
    <trkpt lat="38.617676022" lon="34.925565021">
      <ele>1110.431</ele>
      <time>2021-10-12T20:16:52Z</time>
    </trkpt>
    <trkpt lat="38.617701" lon="34.925534008">
      <ele>1110.063</ele>
      <time>2021-10-12T20:16:54Z</time>
    </trkpt>
    <trkpt lat="38.617725978" lon="34.925506013">
      <ele>1109.679</ele>
      <time>2021-10-12T20:16:55Z</time>
    </trkpt>
    <trkpt lat="38.617753973" lon="34.925477011">
      <ele>1109.294</ele>
      <time>2021-10-12T20:16:56Z</time>
    </trkpt>
    <trkpt lat="38.617780041" lon="34.92544801">
      <ele>1108.954</ele>
      <time>2021-10-12T20:16:58Z</time>
    </trkpt>
    <trkpt lat="38.617804013" lon="34.925420014">
      <ele>1108.479</ele>
      <time>2021-10-12T20:16:59Z</time>
    </trkpt>
    <trkpt lat="38.617825974" lon="34.925390007">
      <ele>1108.062</ele>
      <time>2021-10-12T20:17:00Z</time>
    </trkpt>
    <trkpt lat="38.617852964" lon="34.925362011">
      <ele>1107.565</ele>
      <time>2021-10-12T20:17:01Z</time>
    </trkpt>
    <trkpt lat="38.617882971" lon="34.925332004">
      <ele>1107.033</ele>
      <time>2021-10-12T20:17:03Z</time>
    </trkpt>
    <trkpt lat="38.617911972" lon="34.925305014">
      <ele>1106.537</ele>
      <time>2021-10-12T20:17:04Z</time>
    </trkpt>
    <trkpt lat="38.617942985" lon="34.925278025">
      <ele>1106.026</ele>
      <time>2021-10-12T20:17:05Z</time>
    </trkpt>
    <trkpt lat="38.617973998" lon="34.925249023">
      <ele>1105.584</ele>
      <time>2021-10-12T20:17:07Z</time>
    </trkpt>
    <trkpt lat="38.618000988" lon="34.925220022">
      <ele>1105.276</ele>
      <time>2021-10-12T20:17:08Z</time>
    </trkpt>
    <trkpt lat="38.618027978" lon="34.925190015">
      <ele>1105.034</ele>
      <time>2021-10-12T20:17:09Z</time>
    </trkpt>
    <trkpt lat="38.618051028" lon="34.925157996">
      <ele>1104.923</ele>
      <time>2021-10-12T20:17:11Z</time>
    </trkpt>
    <trkpt lat="38.618076006" lon="34.925126983">
      <ele>1104.831</ele>
      <time>2021-10-12T20:17:12Z</time>
    </trkpt>
    <trkpt lat="38.618102996" lon="34.925097981">
      <ele>1104.722</ele>
      <time>2021-10-12T20:17:13Z</time>
    </trkpt>
    <trkpt lat="38.61812898" lon="34.92506898">
      <ele>1104.645</ele>
      <time>2021-10-12T20:17:15Z</time>
    </trkpt>
    <trkpt lat="38.618157981" lon="34.925040985">
      <ele>1104.544</ele>
      <time>2021-10-12T20:17:16Z</time>
    </trkpt>
    <trkpt lat="38.618188994" lon="34.925016006">
      <ele>1104.416</ele>
      <time>2021-10-12T20:17:17Z</time>
    </trkpt>
    <trkpt lat="38.618217995" lon="34.924989017">
      <ele>1104.269</ele>
      <time>2021-10-12T20:17:19Z</time>
    </trkpt>
    <trkpt lat="38.618248003" lon="34.924966972">
      <ele>1104.004</ele>
      <time>2021-10-12T20:17:20Z</time>
    </trkpt>
    <trkpt lat="38.618274992" lon="34.924938977">
      <ele>1103.804</ele>
      <time>2021-10-12T20:17:21Z</time>
    </trkpt>
    <trkpt lat="38.618300976" lon="34.92490897">
      <ele>1103.639</ele>
      <time>2021-10-12T20:17:22Z</time>
    </trkpt>
    <trkpt lat="38.618326038" lon="34.924878962">
      <ele>1103.503</ele>
      <time>2021-10-12T20:17:24Z</time>
    </trkpt>
    <trkpt lat="38.618352022" lon="34.924849961">
      <ele>1103.24</ele>
      <time>2021-10-12T20:17:25Z</time>
    </trkpt>
    <trkpt lat="38.618378006" lon="34.92482096">
      <ele>1102.944</ele>
      <time>2021-10-12T20:17:26Z</time>
    </trkpt>
    <trkpt lat="38.618402984" lon="34.92479397">
      <ele>1102.674</ele>
      <time>2021-10-12T20:17:27Z</time>
    </trkpt>
    <trkpt lat="38.618429974" lon="34.92476698">
      <ele>1102.391</ele>
      <time>2021-10-12T20:17:29Z</time>
    </trkpt>
    <trkpt lat="38.618457969" lon="34.924742002">
      <ele>1102.102</ele>
      <time>2021-10-12T20:17:30Z</time>
    </trkpt>
    <trkpt lat="38.618484959" lon="34.924716018">
      <ele>1101.829</ele>
      <time>2021-10-12T20:17:31Z</time>
    </trkpt>
    <trkpt lat="38.618511027" lon="34.924689028">
      <ele>1101.518</ele>
      <time>2021-10-12T20:17:32Z</time>
    </trkpt>
    <trkpt lat="38.618540028" lon="34.924662039">
      <ele>1101.185</ele>
      <time>2021-10-12T20:17:34Z</time>
    </trkpt>
    <trkpt lat="38.618567018" lon="34.924633037">
      <ele>1100.905</ele>
      <time>2021-10-12T20:17:35Z</time>
    </trkpt>
    <trkpt lat="38.618594008" lon="34.924605042">
      <ele>1100.642</ele>
      <time>2021-10-12T20:17:36Z</time>
    </trkpt>
    <trkpt lat="38.618622003" lon="34.924576962">
      <ele>1100.327</ele>
      <time>2021-10-12T20:17:38Z</time>
    </trkpt>
    <trkpt lat="38.618645975" lon="34.924548967">
      <ele>1099.996</ele>
      <time>2021-10-12T20:17:39Z</time>
    </trkpt>
    <trkpt lat="38.618672965" lon="34.924518038">
      <ele>1099.622</ele>
      <time>2021-10-12T20:17:40Z</time>
    </trkpt>
    <trkpt lat="38.618696015" lon="34.924487025">
      <ele>1099.318</ele>
      <time>2021-10-12T20:17:41Z</time>
    </trkpt>
    <trkpt lat="38.618725017" lon="34.924457017">
      <ele>1098.904</ele>
      <time>2021-10-12T20:17:43Z</time>
    </trkpt>
    <trkpt lat="38.618749995" lon="34.924426004">
      <ele>1098.5</ele>
      <time>2021-10-12T20:17:44Z</time>
    </trkpt>
    <trkpt lat="38.618768016" lon="34.924398009">
      <ele>1098.197</ele>
      <time>2021-10-12T20:17:45Z</time>
    </trkpt>
    <trkpt lat="38.618785031" lon="34.924366996">
      <ele>1097.94</ele>
      <time>2021-10-12T20:17:46Z</time>
    </trkpt>
    <trkpt lat="38.618805986" lon="34.924334977">
      <ele>1097.651</ele>
      <time>2021-10-12T20:17:48Z</time>
    </trkpt>
    <trkpt lat="38.618826019" lon="34.924303964">
      <ele>1097.408</ele>
      <time>2021-10-12T20:17:49Z</time>
    </trkpt>
    <trkpt lat="38.618847979" lon="34.924272029">
      <ele>1097.174</ele>
      <time>2021-10-12T20:17:50Z</time>
    </trkpt>
    <trkpt lat="38.618871029" lon="34.924241016">
      <ele>1096.96</ele>
      <time>2021-10-12T20:17:51Z</time>
    </trkpt>
    <trkpt lat="38.618896008" lon="34.924208997">
      <ele>1096.741</ele>
      <time>2021-10-12T20:17:52Z</time>
    </trkpt>
    <trkpt lat="38.618922997" lon="34.924176978">
      <ele>1096.467</ele>
      <time>2021-10-12T20:17:54Z</time>
    </trkpt>
    <trkpt lat="38.618944036" lon="34.924147977">
      <ele>1096.287</ele>
      <time>2021-10-12T20:17:55Z</time>
    </trkpt>
    <trkpt lat="38.618964991" lon="34.924119981">
      <ele>1096.118</ele>
      <time>2021-10-12T20:17:56Z</time>
    </trkpt>
    <trkpt lat="38.618990975" lon="34.924089974">
      <ele>1095.908</ele>
      <time>2021-10-12T20:17:57Z</time>
    </trkpt>
    <trkpt lat="38.619015031" lon="34.924058961">
      <ele>1095.747</ele>
      <time>2021-10-12T20:17:59Z</time>
    </trkpt>
    <trkpt lat="38.61904202" lon="34.924029959">
      <ele>1095.558</ele>
      <time>2021-10-12T20:18:00Z</time>
    </trkpt>
    <trkpt lat="38.61906901" lon="34.923998024">
      <ele>1095.407</ele>
      <time>2021-10-12T20:18:01Z</time>
    </trkpt>
    <trkpt lat="38.619092982" lon="34.923966005">
      <ele>1095.314</ele>
      <time>2021-10-12T20:18:03Z</time>
    </trkpt>
    <trkpt lat="38.619121984" lon="34.923935998">
      <ele>1095.171</ele>
      <time>2021-10-12T20:18:04Z</time>
    </trkpt>
    <trkpt lat="38.619148973" lon="34.923906997">
      <ele>1095.065</ele>
      <time>2021-10-12T20:18:05Z</time>
    </trkpt>
    <trkpt lat="38.619178981" lon="34.923879001">
      <ele>1094.855</ele>
      <time>2021-10-12T20:18:07Z</time>
    </trkpt>
    <trkpt lat="38.619207982" lon="34.923854023">
      <ele>1094.493</ele>
      <time>2021-10-12T20:18:08Z</time>
    </trkpt>
    <trkpt lat="38.619235978" lon="34.923828039">
      <ele>1094.112</ele>
      <time>2021-10-12T20:18:09Z</time>
    </trkpt>
    <trkpt lat="38.619267996" lon="34.923801972">
      <ele>1093.625</ele>
      <time>2021-10-12T20:18:11Z</time>
    </trkpt>
    <trkpt lat="38.619292974" lon="34.923776994">
      <ele>1093.218</ele>
      <time>2021-10-12T20:18:12Z</time>
    </trkpt>
    <trkpt lat="38.619321976" lon="34.923755033">
      <ele>1092.707</ele>
      <time>2021-10-12T20:18:13Z</time>
    </trkpt>
    <trkpt lat="38.619351983" lon="34.923733994">
      <ele>1092.145</ele>
      <time>2021-10-12T20:18:14Z</time>
    </trkpt>
    <trkpt lat="38.619379979" lon="34.923714967">
      <ele>1091.593</ele>
      <time>2021-10-12T20:18:16Z</time>
    </trkpt>
    <trkpt lat="38.61940898" lon="34.92369703">
      <ele>1090.996</ele>
      <time>2021-10-12T20:18:17Z</time>
    </trkpt>
    <trkpt lat="38.61943597" lon="34.923676997">
      <ele>1090.406</ele>
      <time>2021-10-12T20:18:18Z</time>
    </trkpt>
    <trkpt lat="38.619460026" lon="34.923655959">
      <ele>1090.031</ele>
      <time>2021-10-12T20:18:19Z</time>
    </trkpt>
    <trkpt lat="38.619485004" lon="34.923633998">
      <ele>1089.766</ele>
      <time>2021-10-12T20:18:20Z</time>
    </trkpt>
    <trkpt lat="38.619508976" lon="34.923612038">
      <ele>1089.537</ele>
      <time>2021-10-12T20:18:21Z</time>
    </trkpt>
    <trkpt lat="38.619532026" lon="34.923586976">
      <ele>1089.283</ele>
      <time>2021-10-12T20:18:22Z</time>
    </trkpt>
    <trkpt lat="38.61955801" lon="34.923559986">
      <ele>1088.998</ele>
      <time>2021-10-12T20:18:24Z</time>
    </trkpt>
    <trkpt lat="38.619586006" lon="34.923534002">
      <ele>1088.703</ele>
      <time>2021-10-12T20:18:25Z</time>
    </trkpt>
    <trkpt lat="38.619612996" lon="34.92351003">
      <ele>1088.423</ele>
      <time>2021-10-12T20:18:26Z</time>
    </trkpt>
    <trkpt lat="38.619636968" lon="34.92348304">
      <ele>1088.153</ele>
      <time>2021-10-12T20:18:27Z</time>
    </trkpt>
    <trkpt lat="38.619661024" lon="34.923453033">
      <ele>1087.872</ele>
      <time>2021-10-12T20:18:28Z</time>
    </trkpt>
    <trkpt lat="38.619689019" lon="34.923421014">
      <ele>1087.555</ele>
      <time>2021-10-12T20:18:30Z</time>
    </trkpt>
    <trkpt lat="38.619709974" lon="34.923390001">
      <ele>1087.292</ele>
      <time>2021-10-12T20:18:31Z</time>
    </trkpt>
    <trkpt lat="38.619735036" lon="34.923363011">
      <ele>1086.959</ele>
      <time>2021-10-12T20:18:32Z</time>
    </trkpt>
    <trkpt lat="38.619760014" lon="34.923335016">
      <ele>1086.596</ele>
      <time>2021-10-12T20:18:33Z</time>
    </trkpt>
    <trkpt lat="38.619779963" lon="34.923306014">
      <ele>1086.2</ele>
      <time>2021-10-12T20:18:35Z</time>
    </trkpt>
    <trkpt lat="38.619799996" lon="34.923276007">
      <ele>1085.805</ele>
      <time>2021-10-12T20:18:36Z</time>
    </trkpt>
    <trkpt lat="38.619818017" lon="34.923246">
      <ele>1085.445</ele>
      <time>2021-10-12T20:18:37Z</time>
    </trkpt>
    <trkpt lat="38.61983696" lon="34.923215993">
      <ele>1085.09</ele>
      <time>2021-10-12T20:18:38Z</time>
    </trkpt>
    <trkpt lat="38.619857999" lon="34.923187997">
      <ele>1084.743</ele>
      <time>2021-10-12T20:18:39Z</time>
    </trkpt>
    <trkpt lat="38.619881971" lon="34.92315799">
      <ele>1084.375</ele>
      <time>2021-10-12T20:18:40Z</time>
    </trkpt>
    <trkpt lat="38.619909966" lon="34.923125971">
      <ele>1083.984</ele>
      <time>2021-10-12T20:18:42Z</time>
    </trkpt>
    <trkpt lat="38.619935028" lon="34.923097976">
      <ele>1083.656</ele>
      <time>2021-10-12T20:18:43Z</time>
    </trkpt>
    <trkpt lat="38.619965035" lon="34.923078027">
      <ele>1083.343</ele>
      <time>2021-10-12T20:18:44Z</time>
    </trkpt>
    <trkpt lat="38.619996971" lon="34.923060006">
      <ele>1083.038</ele>
      <time>2021-10-12T20:18:46Z</time>
    </trkpt>
    <trkpt lat="38.620025972" lon="34.92304299">
      <ele>1082.727</ele>
      <time>2021-10-12T20:18:47Z</time>
    </trkpt>
    <trkpt lat="38.620052962" lon="34.923023963">
      <ele>1082.413</ele>
      <time>2021-10-12T20:18:48Z</time>
    </trkpt>
    <trkpt lat="38.620080035" lon="34.923000997">
      <ele>1082.088</ele>
      <time>2021-10-12T20:18:49Z</time>
    </trkpt>
    <trkpt lat="38.620108031" lon="34.922979958">
      <ele>1081.784</ele>
      <time>2021-10-12T20:18:50Z</time>
    </trkpt>
    <trkpt lat="38.620141977" lon="34.922960009">
      <ele>1081.466</ele>
      <time>2021-10-12T20:18:52Z</time>
    </trkpt>
    <trkpt lat="38.620171985" lon="34.922937965">
      <ele>1081.177</ele>
      <time>2021-10-12T20:18:53Z</time>
    </trkpt>
    <trkpt lat="38.620200986" lon="34.922918016">
      <ele>1080.921</ele>
      <time>2021-10-12T20:18:54Z</time>
    </trkpt>
    <trkpt lat="38.620227976" lon="34.922896978">
      <ele>1080.685</ele>
      <time>2021-10-12T20:18:55Z</time>
    </trkpt>
    <trkpt lat="38.620253038" lon="34.922870994">
      <ele>1080.455</ele>
      <time>2021-10-12T20:18:56Z</time>
    </trkpt>
    <trkpt lat="38.620279022" lon="34.92284501">
      <ele>1080.236</ele>
      <time>2021-10-12T20:18:58Z</time>
    </trkpt>
    <trkpt lat="38.620307017" lon="34.92281802">
      <ele>1080.024</ele>
      <time>2021-10-12T20:18:59Z</time>
    </trkpt>
    <trkpt lat="38.620339036" lon="34.922790024">
      <ele>1079.814</ele>
      <time>2021-10-12T20:19:00Z</time>
    </trkpt>
    <trkpt lat="38.620368959" lon="34.922762029">
      <ele>1079.558</ele>
      <time>2021-10-12T20:19:02Z</time>
    </trkpt>
    <trkpt lat="38.620399972" lon="34.92274099">
      <ele>1079.295</ele>
      <time>2021-10-12T20:19:03Z</time>
    </trkpt>
    <trkpt lat="38.620431991" lon="34.922718024">
      <ele>1079.015</ele>
      <time>2021-10-12T20:19:04Z</time>
    </trkpt>
    <trkpt lat="38.620463004" lon="34.922694974">
      <ele>1078.737</ele>
      <time>2021-10-12T20:19:06Z</time>
    </trkpt>
    <trkpt lat="38.620498963" lon="34.92266899">
      <ele>1078.42</ele>
      <time>2021-10-12T20:19:07Z</time>
    </trkpt>
    <trkpt lat="38.620530982" lon="34.922640994">
      <ele>1078.104</ele>
      <time>2021-10-12T20:19:09Z</time>
    </trkpt>
    <trkpt lat="38.620557971" lon="34.922609981">
      <ele>1077.785</ele>
      <time>2021-10-12T20:19:10Z</time>
    </trkpt>
    <trkpt lat="38.620581022" lon="34.92258098">
      <ele>1077.53</ele>
      <time>2021-10-12T20:19:11Z</time>
    </trkpt>
    <trkpt lat="38.620610023" lon="34.922558013">
      <ele>1077.336</ele>
      <time>2021-10-12T20:19:13Z</time>
    </trkpt>
    <trkpt lat="38.620632989" lon="34.922533035">
      <ele>1077.172</ele>
      <time>2021-10-12T20:19:14Z</time>
    </trkpt>
    <trkpt lat="38.620658973" lon="34.922507973">
      <ele>1077.036</ele>
      <time>2021-10-12T20:19:15Z</time>
    </trkpt>
    <trkpt lat="38.620681018" lon="34.922477966">
      <ele>1076.798</ele>
      <time>2021-10-12T20:19:16Z</time>
    </trkpt>
    <trkpt lat="38.620703984" lon="34.922449971">
      <ele>1076.556</ele>
      <time>2021-10-12T20:19:17Z</time>
    </trkpt>
    <trkpt lat="38.620726028" lon="34.922422981">
      <ele>1076.338</ele>
      <time>2021-10-12T20:19:18Z</time>
    </trkpt>
    <trkpt lat="38.620754024" lon="34.922394985">
      <ele>1076.136</ele>
      <time>2021-10-12T20:19:20Z</time>
    </trkpt>
    <trkpt lat="38.620777996" lon="34.922365984">
      <ele>1075.939</ele>
      <time>2021-10-12T20:19:21Z</time>
    </trkpt>
    <trkpt lat="38.620802974" lon="34.922337988">
      <ele>1075.77</ele>
      <time>2021-10-12T20:19:22Z</time>
    </trkpt>
    <trkpt lat="38.620826025" lon="34.92230597">
      <ele>1075.585</ele>
      <time>2021-10-12T20:19:23Z</time>
    </trkpt>
    <trkpt lat="38.620849997" lon="34.92227504">
      <ele>1075.309</ele>
      <time>2021-10-12T20:19:25Z</time>
    </trkpt>
    <trkpt lat="38.620871035" lon="34.922243021">
      <ele>1075.004</ele>
      <time>2021-10-12T20:19:26Z</time>
    </trkpt>
    <trkpt lat="38.620894002" lon="34.922211003">
      <ele>1074.669</ele>
      <time>2021-10-12T20:19:27Z</time>
    </trkpt>
    <trkpt lat="38.620915962" lon="34.922182001">
      <ele>1074.311</ele>
      <time>2021-10-12T20:19:28Z</time>
    </trkpt>
    <trkpt lat="38.620935995" lon="34.922149982">
      <ele>1073.946</ele>
      <time>2021-10-12T20:19:30Z</time>
    </trkpt>
    <trkpt lat="38.620954016" lon="34.922117041">
      <ele>1073.594</ele>
      <time>2021-10-12T20:19:31Z</time>
    </trkpt>
    <trkpt lat="38.620978994" lon="34.922087034">
      <ele>1073.271</ele>
      <time>2021-10-12T20:19:32Z</time>
    </trkpt>
    <trkpt lat="38.621004978" lon="34.922057027">
      <ele>1072.965</ele>
      <time>2021-10-12T20:19:33Z</time>
    </trkpt>
    <trkpt lat="38.621026017" lon="34.92202702">
      <ele>1072.686</ele>
      <time>2021-10-12T20:19:34Z</time>
    </trkpt>
    <trkpt lat="38.621049989" lon="34.92200003">
      <ele>1072.444</ele>
      <time>2021-10-12T20:19:36Z</time>
    </trkpt>
    <trkpt lat="38.621074967" lon="34.92197304">
      <ele>1072.219</ele>
      <time>2021-10-12T20:19:37Z</time>
    </trkpt>
    <trkpt lat="38.621102041" lon="34.921943033">
      <ele>1071.99</ele>
      <time>2021-10-12T20:19:38Z</time>
    </trkpt>
    <trkpt lat="38.621130036" lon="34.92191202">
      <ele>1071.706</ele>
      <time>2021-10-12T20:19:40Z</time>
    </trkpt>
    <trkpt lat="38.62115996" lon="34.921878995">
      <ele>1071.394</ele>
      <time>2021-10-12T20:19:41Z</time>
    </trkpt>
    <trkpt lat="38.621190973" lon="34.921848988">
      <ele>1071.124</ele>
      <time>2021-10-12T20:19:42Z</time>
    </trkpt>
    <trkpt lat="38.621222991" lon="34.921821998">
      <ele>1070.893</ele>
      <time>2021-10-12T20:19:44Z</time>
    </trkpt>
    <trkpt lat="38.621251993" lon="34.921794003">
      <ele>1070.684</ele>
      <time>2021-10-12T20:19:45Z</time>
    </trkpt>
    <trkpt lat="38.621277977" lon="34.921765001">
      <ele>1070.495</ele>
      <time>2021-10-12T20:19:46Z</time>
    </trkpt>
    <trkpt lat="38.621303039" lon="34.921732983">
      <ele>1070.313</ele>
      <time>2021-10-12T20:19:48Z</time>
    </trkpt>
    <trkpt lat="38.621329023" lon="34.92170901">
      <ele>1070.185</ele>
      <time>2021-10-12T20:19:49Z</time>
    </trkpt>
    <trkpt lat="38.621351989" lon="34.921673974">
      <ele>1070.03</ele>
      <time>2021-10-12T20:19:50Z</time>
    </trkpt>
    <trkpt lat="38.621375961" lon="34.921642961">
      <ele>1070.0</ele>
      <time>2021-10-12T20:19:52Z</time>
    </trkpt>
    <trkpt lat="38.621399011" lon="34.921615971">
      <ele>1069.964</ele>
      <time>2021-10-12T20:19:53Z</time>
    </trkpt>
    <trkpt lat="38.62141896" lon="34.92158303">
      <ele>1069.892</ele>
      <time>2021-10-12T20:19:54Z</time>
    </trkpt>
    <trkpt lat="38.621437987" lon="34.921556963">
      <ele>1069.823</ele>
      <time>2021-10-12T20:19:55Z</time>
    </trkpt>
    <trkpt lat="38.621453997" lon="34.921517987">
      <ele>1069.766</ele>
      <time>2021-10-12T20:19:56Z</time>
    </trkpt>
    <trkpt lat="38.621470006" lon="34.921479011">
      <ele>1069.708</ele>
      <time>2021-10-12T20:19:58Z</time>
    </trkpt>
    <trkpt lat="38.621488027" lon="34.921438023">
      <ele>1069.643</ele>
      <time>2021-10-12T20:19:59Z</time>
    </trkpt>
    <trkpt lat="38.621507976" lon="34.921398042">
      <ele>1069.571</ele>
      <time>2021-10-12T20:20:00Z</time>
    </trkpt>
    <trkpt lat="38.621533038" lon="34.921354959">
      <ele>1069.359</ele>
      <time>2021-10-12T20:20:02Z</time>
    </trkpt>
    <trkpt lat="38.621558016" lon="34.921314977">
      <ele>1069.125</ele>
      <time>2021-10-12T20:20:03Z</time>
    </trkpt>
    <trkpt lat="38.621581988" lon="34.92127399">
      <ele>1068.891</ele>
      <time>2021-10-12T20:20:05Z</time>
    </trkpt>
    <trkpt lat="38.621603027" lon="34.921234008">
      <ele>1068.672</ele>
      <time>2021-10-12T20:20:06Z</time>
    </trkpt>
    <trkpt lat="38.621620964" lon="34.92119696">
      <ele>1068.474</ele>
      <time>2021-10-12T20:20:07Z</time>
    </trkpt>
    <trkpt lat="38.621638985" lon="34.921164019">
      <ele>1068.29</ele>
      <time>2021-10-12T20:20:09Z</time>
    </trkpt>
    <trkpt lat="38.621656001" lon="34.921127977">
      <ele>1068.099</ele>
      <time>2021-10-12T20:20:10Z</time>
    </trkpt>
    <trkpt lat="38.621675028" lon="34.921089001">
      <ele>1067.676</ele>
      <time>2021-10-12T20:20:11Z</time>
    </trkpt>
    <trkpt lat="38.621695982" lon="34.921052037">
      <ele>1067.09</ele>
      <time>2021-10-12T20:20:12Z</time>
    </trkpt>
    <trkpt lat="38.621717021" lon="34.921010965">
      <ele>1066.505</ele>
      <time>2021-10-12T20:20:14Z</time>
    </trkpt>
    <trkpt lat="38.62173697" lon="34.920977019">
      <ele>1066.037</ele>
      <time>2021-10-12T20:20:15Z</time>
    </trkpt>
    <trkpt lat="38.621754991" lon="34.920942988">
      <ele>1065.615</ele>
      <time>2021-10-12T20:20:16Z</time>
    </trkpt>
    <trkpt lat="38.621775024" lon="34.920909964">
      <ele>1065.222</ele>
      <time>2021-10-12T20:20:18Z</time>
    </trkpt>
    <trkpt lat="38.621793967" lon="34.920871994">
      <ele>1064.832</ele>
      <time>2021-10-12T20:20:19Z</time>
    </trkpt>
    <trkpt lat="38.621812994" lon="34.920832012">
      <ele>1064.461</ele>
      <time>2021-10-12T20:20:20Z</time>
    </trkpt>
    <trkpt lat="38.621830009" lon="34.920793036">
      <ele>1064.062</ele>
      <time>2021-10-12T20:20:22Z</time>
    </trkpt>
    <trkpt lat="38.62184803" lon="34.920761017">
      <ele>1063.736</ele>
      <time>2021-10-12T20:20:23Z</time>
    </trkpt>
    <trkpt lat="38.621864039" lon="34.920732016">
      <ele>1063.454</ele>
      <time>2021-10-12T20:20:24Z</time>
    </trkpt>
    <trkpt lat="38.621879965" lon="34.920699997">
      <ele>1063.161</ele>
      <time>2021-10-12T20:20:25Z</time>
    </trkpt>
    <trkpt lat="38.621892035" lon="34.920661021">
      <ele>1062.831</ele>
      <time>2021-10-12T20:20:26Z</time>
    </trkpt>
    <trkpt lat="38.621908966" lon="34.920627996">
      <ele>1062.555</ele>
      <time>2021-10-12T20:20:27Z</time>
    </trkpt>
    <trkpt lat="38.621921958" lon="34.920592038">
      <ele>1062.273</ele>
      <time>2021-10-12T20:20:28Z</time>
    </trkpt>
    <trkpt lat="38.621935034" lon="34.920551972">
      <ele>1061.962</ele>
      <time>2021-10-12T20:20:30Z</time>
    </trkpt>
    <trkpt lat="38.621949032" lon="34.920514002">
      <ele>1061.502</ele>
      <time>2021-10-12T20:20:31Z</time>
    </trkpt>
    <trkpt lat="38.621964036" lon="34.920473015">
      <ele>1060.897</ele>
      <time>2021-10-12T20:20:32Z</time>
    </trkpt>
    <trkpt lat="38.621980967" lon="34.920434039">
      <ele>1060.293</ele>
      <time>2021-10-12T20:20:33Z</time>
    </trkpt>
    <trkpt lat="38.621999994" lon="34.920392968">
      <ele>1059.644</ele>
      <time>2021-10-12T20:20:35Z</time>
    </trkpt>
    <trkpt lat="38.622018015" lon="34.920350974">
      <ele>1058.996</ele>
      <time>2021-10-12T20:20:36Z</time>
    </trkpt>
    <trkpt lat="38.622036036" lon="34.920307975">
      <ele>1058.337</ele>
      <time>2021-10-12T20:20:38Z</time>
    </trkpt>
    <trkpt lat="38.622057997" lon="34.92026397">
      <ele>1057.645</ele>
      <time>2021-10-12T20:20:39Z</time>
    </trkpt>
    <trkpt lat="38.622074006" lon="34.920218037">
      <ele>1057.056</ele>
      <time>2021-10-12T20:20:41Z</time>
    </trkpt>
    <trkpt lat="38.622094039" lon="34.920175038">
      <ele>1056.474</ele>
      <time>2021-10-12T20:20:42Z</time>
    </trkpt>
    <trkpt lat="38.622108037" lon="34.920129022">
      <ele>1055.942</ele>
      <time>2021-10-12T20:20:43Z</time>
    </trkpt>
    <trkpt lat="38.622135026" lon="34.920088034">
      <ele>1055.361</ele>
      <time>2021-10-12T20:20:45Z</time>
    </trkpt>
    <trkpt lat="38.622152964" lon="34.920044029">
      <ele>1054.855</ele>
      <time>2021-10-12T20:20:46Z</time>
    </trkpt>
    <trkpt lat="38.622174002" lon="34.92000103">
      <ele>1054.355</ele>
      <time>2021-10-12T20:20:48Z</time>
    </trkpt>
    <trkpt lat="38.622194035" lon="34.91996197">
      <ele>1054.052</ele>
      <time>2021-10-12T20:20:49Z</time>
    </trkpt>
    <trkpt lat="38.622210966" lon="34.919922994">
      <ele>1053.793</ele>
      <time>2021-10-12T20:20:51Z</time>
    </trkpt>
    <trkpt lat="38.622228988" lon="34.919885024">
      <ele>1053.586</ele>
      <time>2021-10-12T20:20:52Z</time>
    </trkpt>
    <trkpt lat="38.622240974" lon="34.919844959">
      <ele>1053.442</ele>
      <time>2021-10-12T20:20:53Z</time>
    </trkpt>
    <trkpt lat="38.62225296" lon="34.919803971">
      <ele>1053.294</ele>
      <time>2021-10-12T20:20:54Z</time>
    </trkpt>
    <trkpt lat="38.62226503" lon="34.919767007">
      <ele>1053.161</ele>
      <time>2021-10-12T20:20:56Z</time>
    </trkpt>
    <trkpt lat="38.622278022" lon="34.919729037">
      <ele>1053.025</ele>
      <time>2021-10-12T20:20:57Z</time>
    </trkpt>
    <trkpt lat="38.622284979" lon="34.919690983">
      <ele>1053.0</ele>
      <time>2021-10-12T20:20:58Z</time>
    </trkpt>
    <trkpt lat="38.622285984" lon="34.919654019">
      <ele>1053.0</ele>
      <time>2021-10-12T20:20:59Z</time>
    </trkpt>
    <trkpt lat="38.622291014" lon="34.919617977">
      <ele>1053.0</ele>
      <time>2021-10-12T20:21:00Z</time>
    </trkpt>
    <trkpt lat="38.622295037" lon="34.919579001">
      <ele>1053.0</ele>
      <time>2021-10-12T20:21:01Z</time>
    </trkpt>
    <trkpt lat="38.622299982" lon="34.919540025">
      <ele>1053.0</ele>
      <time>2021-10-12T20:21:02Z</time>
    </trkpt>
    <trkpt lat="38.622306017" lon="34.919499038">
      <ele>1053.0</ele>
      <time>2021-10-12T20:21:03Z</time>
    </trkpt>
    <trkpt lat="38.622310963" lon="34.919458972">
      <ele>1053.0</ele>
      <time>2021-10-12T20:21:05Z</time>
    </trkpt>
    <trkpt lat="38.622315992" lon="34.919421002">
      <ele>1053.0</ele>
      <time>2021-10-12T20:21:06Z</time>
    </trkpt>
    <trkpt lat="38.622318003" lon="34.919383032">
      <ele>1053.0</ele>
      <time>2021-10-12T20:21:07Z</time>
    </trkpt>
    <trkpt lat="38.622320015" lon="34.919341039">
      <ele>1053.0</ele>
      <time>2021-10-12T20:21:08Z</time>
    </trkpt>
    <trkpt lat="38.622320015" lon="34.919296028">
      <ele>1053.0</ele>
      <time>2021-10-12T20:21:09Z</time>
    </trkpt>
    <trkpt lat="38.622324038" lon="34.919251017">
      <ele>1053.0</ele>
      <time>2021-10-12T20:21:11Z</time>
    </trkpt>
    <trkpt lat="38.622325966" lon="34.919206006">
      <ele>1053.0</ele>
      <time>2021-10-12T20:21:12Z</time>
    </trkpt>
    <trkpt lat="38.62232496" lon="34.919166025">
      <ele>1052.999</ele>
      <time>2021-10-12T20:21:13Z</time>
    </trkpt>
    <trkpt lat="38.622325966" lon="34.919126965">
      <ele>1052.91</ele>
      <time>2021-10-12T20:21:14Z</time>
    </trkpt>
    <trkpt lat="38.622325966" lon="34.919085978">
      <ele>1052.818</ele>
      <time>2021-10-12T20:21:16Z</time>
    </trkpt>
    <trkpt lat="38.62232496" lon="34.919052031">
      <ele>1052.74</ele>
      <time>2021-10-12T20:21:16Z</time>
    </trkpt>
    <trkpt lat="38.622326972" lon="34.919014983">
      <ele>1052.66</ele>
      <time>2021-10-12T20:21:18Z</time>
    </trkpt>
    <trkpt lat="38.622330995" lon="34.918978019">
      <ele>1052.587</ele>
      <time>2021-10-12T20:21:19Z</time>
    </trkpt>
    <trkpt lat="38.622334013" lon="34.918941977">
      <ele>1052.517</ele>
      <time>2021-10-12T20:21:20Z</time>
    </trkpt>
    <trkpt lat="38.622334013" lon="34.918901995">
      <ele>1052.431</ele>
      <time>2021-10-12T20:21:21Z</time>
    </trkpt>
    <trkpt lat="38.62233703" lon="34.918861007">
      <ele>1052.413</ele>
      <time>2021-10-12T20:21:22Z</time>
    </trkpt>
    <trkpt lat="38.62233703" lon="34.918819014">
      <ele>1052.413</ele>
      <time>2021-10-12T20:21:23Z</time>
    </trkpt>
    <trkpt lat="38.622334013" lon="34.918776015">
      <ele>1052.402</ele>
      <time>2021-10-12T20:21:25Z</time>
    </trkpt>
    <trkpt lat="38.622334013" lon="34.91873201">
      <ele>1052.402</ele>
      <time>2021-10-12T20:21:26Z</time>
    </trkpt>
    <trkpt lat="38.622336024" lon="34.918691022">
      <ele>1052.41</ele>
      <time>2021-10-12T20:21:27Z</time>
    </trkpt>
    <trkpt lat="38.622336024" lon="34.918647017">
      <ele>1052.41</ele>
      <time>2021-10-12T20:21:28Z</time>
    </trkpt>
    <trkpt lat="38.622338036" lon="34.918603012">
      <ele>1052.434</ele>
      <time>2021-10-12T20:21:30Z</time>
    </trkpt>
    <trkpt lat="38.622339042" lon="34.918563031">
      <ele>1052.521</ele>
      <time>2021-10-12T20:21:31Z</time>
    </trkpt>
    <trkpt lat="38.622339042" lon="34.918520031">
      <ele>1052.611</ele>
      <time>2021-10-12T20:21:32Z</time>
    </trkpt>
    <trkpt lat="38.622339964" lon="34.918479966">
      <ele>1052.696</ele>
      <time>2021-10-12T20:21:33Z</time>
    </trkpt>
    <trkpt lat="38.622341976" lon="34.918439984">
      <ele>1052.782</ele>
      <time>2021-10-12T20:21:34Z</time>
    </trkpt>
    <trkpt lat="38.622342981" lon="34.918398997">
      <ele>1052.866</ele>
      <time>2021-10-12T20:21:35Z</time>
    </trkpt>
    <trkpt lat="38.622342981" lon="34.918362033">
      <ele>1052.942</ele>
      <time>2021-10-12T20:21:37Z</time>
    </trkpt>
    <trkpt lat="38.622343987" lon="34.918322973">
      <ele>1053.021</ele>
      <time>2021-10-12T20:21:38Z</time>
    </trkpt>
    <trkpt lat="38.622349016" lon="34.918289026">
      <ele>1053.087</ele>
      <time>2021-10-12T20:21:39Z</time>
    </trkpt>
    <trkpt lat="38.622350022" lon="34.918250972">
      <ele>1053.16</ele>
      <time>2021-10-12T20:21:40Z</time>
    </trkpt>
    <trkpt lat="38.622350022" lon="34.918213002">
      <ele>1053.234</ele>
      <time>2021-10-12T20:21:41Z</time>
    </trkpt>
    <trkpt lat="38.622350022" lon="34.918179978">
      <ele>1053.298</ele>
      <time>2021-10-12T20:21:42Z</time>
    </trkpt>
    <trkpt lat="38.622350022" lon="34.918143013">
      <ele>1053.37</ele>
      <time>2021-10-12T20:21:43Z</time>
    </trkpt>
    <trkpt lat="38.622351028" lon="34.918109989">
      <ele>1053.431</ele>
      <time>2021-10-12T20:21:44Z</time>
    </trkpt>
    <trkpt lat="38.622352034" lon="34.918076964">
      <ele>1053.492</ele>
      <time>2021-10-12T20:21:45Z</time>
    </trkpt>
    <trkpt lat="38.622350022" lon="34.918041006">
      <ele>1053.516</ele>
      <time>2021-10-12T20:21:46Z</time>
    </trkpt>
    <trkpt lat="38.622348011" lon="34.918004964">
      <ele>1053.465</ele>
      <time>2021-10-12T20:21:47Z</time>
    </trkpt>
    <trkpt lat="38.62235304" lon="34.917965988">
      <ele>1053.377</ele>
      <time>2021-10-12T20:21:48Z</time>
    </trkpt>
    <trkpt lat="38.622354968" lon="34.917929024">
      <ele>1053.304</ele>
      <time>2021-10-12T20:21:49Z</time>
    </trkpt>
    <trkpt lat="38.62235304" lon="34.917891975">
      <ele>1053.252</ele>
      <time>2021-10-12T20:21:50Z</time>
    </trkpt>
    <trkpt lat="38.622352034" lon="34.917853">
      <ele>1053.192</ele>
      <time>2021-10-12T20:21:51Z</time>
    </trkpt>
    <trkpt lat="38.622354968" lon="34.917816035">
      <ele>1053.11</ele>
      <time>2021-10-12T20:21:52Z</time>
    </trkpt>
    <trkpt lat="38.622354968" lon="34.91777597">
      <ele>1053.051</ele>
      <time>2021-10-12T20:21:54Z</time>
    </trkpt>
    <trkpt lat="38.622356979" lon="34.917740012">
      <ele>1053.166</ele>
      <time>2021-10-12T20:21:55Z</time>
    </trkpt>
    <trkpt lat="38.622355973" lon="34.917705981">
      <ele>1053.295</ele>
      <time>2021-10-12T20:21:56Z</time>
    </trkpt>
    <trkpt lat="38.622356979" lon="34.917671029">
      <ele>1053.414</ele>
      <time>2021-10-12T20:21:57Z</time>
    </trkpt>
    <trkpt lat="38.622355973" lon="34.917636998">
      <ele>1053.544</ele>
      <time>2021-10-12T20:21:58Z</time>
    </trkpt>
    <trkpt lat="38.622355973" lon="34.917599028">
      <ele>1053.68</ele>
      <time>2021-10-12T20:21:59Z</time>
    </trkpt>
    <trkpt lat="38.622354968" lon="34.91756198">
      <ele>1053.821</ele>
      <time>2021-10-12T20:22:00Z</time>
    </trkpt>
    <trkpt lat="38.622354968" lon="34.917526022">
      <ele>1053.951</ele>
      <time>2021-10-12T20:22:01Z</time>
    </trkpt>
    <trkpt lat="38.622355973" lon="34.917487968">
      <ele>1054.122</ele>
      <time>2021-10-12T20:22:02Z</time>
    </trkpt>
    <trkpt lat="38.622355973" lon="34.917452009">
      <ele>1054.376</ele>
      <time>2021-10-12T20:22:03Z</time>
    </trkpt>
    <trkpt lat="38.622358991" lon="34.917414961">
      <ele>1054.623</ele>
      <time>2021-10-12T20:22:04Z</time>
    </trkpt>
    <trkpt lat="38.622359997" lon="34.917377997">
      <ele>1054.883</ele>
      <time>2021-10-12T20:22:05Z</time>
    </trkpt>
    <trkpt lat="38.622359997" lon="34.917344972">
      <ele>1055.12</ele>
      <time>2021-10-12T20:22:06Z</time>
    </trkpt>
    <trkpt lat="38.622357985" lon="34.91731002">
      <ele>1055.375</ele>
      <time>2021-10-12T20:22:07Z</time>
    </trkpt>
    <trkpt lat="38.622356979" lon="34.917275989">
      <ele>1055.619</ele>
      <time>2021-10-12T20:22:08Z</time>
    </trkpt>
    <trkpt lat="38.622355973" lon="34.917238019">
      <ele>1055.888</ele>
      <time>2021-10-12T20:22:09Z</time>
    </trkpt>
    <trkpt lat="38.622355973" lon="34.917200971">
      <ele>1056.153</ele>
      <time>2021-10-12T20:22:10Z</time>
    </trkpt>
    <trkpt lat="38.622353962" lon="34.917164007">
      <ele>1056.419</ele>
      <time>2021-10-12T20:22:11Z</time>
    </trkpt>
    <trkpt lat="38.622354968" lon="34.917126037">
      <ele>1056.693</ele>
      <time>2021-10-12T20:22:13Z</time>
    </trkpt>
    <trkpt lat="38.62235304" lon="34.917087983">
      <ele>1056.967</ele>
      <time>2021-10-12T20:22:14Z</time>
    </trkpt>
    <trkpt lat="38.622355973" lon="34.917049007">
      <ele>1057.247</ele>
      <time>2021-10-12T20:22:15Z</time>
    </trkpt>
    <trkpt lat="38.622359997" lon="34.91700802">
      <ele>1057.542</ele>
      <time>2021-10-12T20:22:16Z</time>
    </trkpt>
    <trkpt lat="38.622359997" lon="34.916968038">
      <ele>1057.83</ele>
      <time>2021-10-12T20:22:17Z</time>
    </trkpt>
    <trkpt lat="38.622359997" lon="34.916928979">
      <ele>1058.028</ele>
      <time>2021-10-12T20:22:18Z</time>
    </trkpt>
    <trkpt lat="38.622359997" lon="34.916892014">
      <ele>1058.094</ele>
      <time>2021-10-12T20:22:19Z</time>
    </trkpt>
    <trkpt lat="38.622359997" lon="34.916853961">
      <ele>1058.162</ele>
      <time>2021-10-12T20:22:20Z</time>
    </trkpt>
    <trkpt lat="38.622359997" lon="34.916813979">
      <ele>1058.233</ele>
      <time>2021-10-12T20:22:22Z</time>
    </trkpt>
    <trkpt lat="38.622362008" lon="34.916781038">
      <ele>1058.296</ele>
      <time>2021-10-12T20:22:23Z</time>
    </trkpt>
    <trkpt lat="38.622363014" lon="34.916744996">
      <ele>1058.364</ele>
      <time>2021-10-12T20:22:24Z</time>
    </trkpt>
    <trkpt lat="38.62236402" lon="34.91670996">
      <ele>1058.431</ele>
      <time>2021-10-12T20:22:25Z</time>
    </trkpt>
    <trkpt lat="38.622363014" lon="34.916676013">
      <ele>1058.49</ele>
      <time>2021-10-12T20:22:26Z</time>
    </trkpt>
    <trkpt lat="38.622363014" lon="34.916636031">
      <ele>1058.507</ele>
      <time>2021-10-12T20:22:27Z</time>
    </trkpt>
    <trkpt lat="38.622363014" lon="34.916597977">
      <ele>1058.507</ele>
      <time>2021-10-12T20:22:28Z</time>
    </trkpt>
    <trkpt lat="38.622363014" lon="34.916560007">
      <ele>1058.507</ele>
      <time>2021-10-12T20:22:29Z</time>
    </trkpt>
    <trkpt lat="38.622362008" lon="34.916522037">
      <ele>1058.503</ele>
      <time>2021-10-12T20:22:30Z</time>
    </trkpt>
    <trkpt lat="38.622362008" lon="34.916484989">
      <ele>1058.503</ele>
      <time>2021-10-12T20:22:31Z</time>
    </trkpt>
    <trkpt lat="38.62236402" lon="34.916451965">
      <ele>1058.51</ele>
      <time>2021-10-12T20:22:32Z</time>
    </trkpt>
    <trkpt lat="38.622365026" lon="34.916418018">
      <ele>1058.514</ele>
      <time>2021-10-12T20:22:33Z</time>
    </trkpt>
    <trkpt lat="38.622365026" lon="34.916384993">
      <ele>1058.521</ele>
      <time>2021-10-12T20:22:34Z</time>
    </trkpt>
    <trkpt lat="38.622367959" lon="34.916348029">
      <ele>1058.602</ele>
      <time>2021-10-12T20:22:35Z</time>
    </trkpt>
    <trkpt lat="38.622367037" lon="34.916313998">
      <ele>1058.662</ele>
      <time>2021-10-12T20:22:36Z</time>
    </trkpt>
    <trkpt lat="38.622367037" lon="34.916278962">
      <ele>1058.728</ele>
      <time>2021-10-12T20:22:37Z</time>
    </trkpt>
    <trkpt lat="38.622366032" lon="34.916240992">
      <ele>1058.793</ele>
      <time>2021-10-12T20:22:38Z</time>
    </trkpt>
    <trkpt lat="38.622365026" lon="34.916206961">
      <ele>1058.851</ele>
      <time>2021-10-12T20:22:39Z</time>
    </trkpt>
    <trkpt lat="38.622362008" lon="34.916167986">
      <ele>1058.903</ele>
      <time>2021-10-12T20:22:40Z</time>
    </trkpt>
    <trkpt lat="38.622358991" lon="34.916128004">
      <ele>1058.955</ele>
      <time>2021-10-12T20:22:42Z</time>
    </trkpt>
    <trkpt lat="38.622359997" lon="34.916090034">
      <ele>1059.068</ele>
      <time>2021-10-12T20:22:43Z</time>
    </trkpt>
    <trkpt lat="38.622361002" lon="34.916047035">
      <ele>1059.23</ele>
      <time>2021-10-12T20:22:44Z</time>
    </trkpt>
    <trkpt lat="38.622361002" lon="34.916005041">
      <ele>1059.381</ele>
      <time>2021-10-12T20:22:45Z</time>
    </trkpt>
    <trkpt lat="38.622362008" lon="34.915961958">
      <ele>1059.54</ele>
      <time>2021-10-12T20:22:46Z</time>
    </trkpt>
    <trkpt lat="38.622362008" lon="34.915921977">
      <ele>1059.683</ele>
      <time>2021-10-12T20:22:48Z</time>
    </trkpt>
    <trkpt lat="38.622365026" lon="34.915876966">
      <ele>1059.847</ele>
      <time>2021-10-12T20:22:49Z</time>
    </trkpt>
    <trkpt lat="38.622366032" lon="34.915833967">
      <ele>1059.998</ele>
      <time>2021-10-12T20:22:50Z</time>
    </trkpt>
    <trkpt lat="38.62236402" lon="34.915793985">
      <ele>1060.069</ele>
      <time>2021-10-12T20:22:51Z</time>
    </trkpt>
    <trkpt lat="38.62236402" lon="34.915751992">
      <ele>1060.143</ele>
      <time>2021-10-12T20:22:52Z</time>
    </trkpt>
    <trkpt lat="38.622365026" lon="34.915713016">
      <ele>1060.21</ele>
      <time>2021-10-12T20:22:54Z</time>
    </trkpt>
    <trkpt lat="38.622365026" lon="34.915671023">
      <ele>1060.284</ele>
      <time>2021-10-12T20:22:55Z</time>
    </trkpt>
    <trkpt lat="38.622366032" lon="34.915629029">
      <ele>1060.355</ele>
      <time>2021-10-12T20:22:56Z</time>
    </trkpt>
    <trkpt lat="38.622363014" lon="34.915591981">
      <ele>1060.428</ele>
      <time>2021-10-12T20:22:57Z</time>
    </trkpt>
    <trkpt lat="38.62236402" lon="34.915554011">
      <ele>1060.492</ele>
      <time>2021-10-12T20:22:58Z</time>
    </trkpt>
    <trkpt lat="38.622363014" lon="34.915517969">
      <ele>1060.562</ele>
      <time>2021-10-12T20:22:59Z</time>
    </trkpt>
    <trkpt lat="38.622362008" lon="34.915481005">
      <ele>1060.632</ele>
      <time>2021-10-12T20:23:00Z</time>
    </trkpt>
    <trkpt lat="38.62236402" lon="34.915444963">
      <ele>1060.693</ele>
      <time>2021-10-12T20:23:01Z</time>
    </trkpt>
    <trkpt lat="38.62236402" lon="34.915412022">
      <ele>1060.753</ele>
      <time>2021-10-12T20:23:02Z</time>
    </trkpt>
    <trkpt lat="38.622366032" lon="34.915377991">
      <ele>1060.813</ele>
      <time>2021-10-12T20:23:03Z</time>
    </trkpt>
    <trkpt lat="38.622366032" lon="34.915342033">
      <ele>1060.88</ele>
      <time>2021-10-12T20:23:04Z</time>
    </trkpt>
    <trkpt lat="38.622367959" lon="34.915305991">
      <ele>1060.947</ele>
      <time>2021-10-12T20:23:05Z</time>
    </trkpt>
    <trkpt lat="38.622369971" lon="34.915271038">
      <ele>1061.047</ele>
      <time>2021-10-12T20:23:06Z</time>
    </trkpt>
    <trkpt lat="38.622369971" lon="34.915238013">
      <ele>1061.277</ele>
      <time>2021-10-12T20:23:07Z</time>
    </trkpt>
    <trkpt lat="38.622371983" lon="34.915203983">
      <ele>1061.511</ele>
      <time>2021-10-12T20:23:08Z</time>
    </trkpt>
    <trkpt lat="38.622371983" lon="34.91516903">
      <ele>1061.752</ele>
      <time>2021-10-12T20:23:09Z</time>
    </trkpt>
    <trkpt lat="38.622372989" lon="34.915136006">
      <ele>1061.977</ele>
      <time>2021-10-12T20:23:10Z</time>
    </trkpt>
    <trkpt lat="38.622371983" lon="34.915100969">
      <ele>1062.223</ele>
      <time>2021-10-12T20:23:11Z</time>
    </trkpt>
    <trkpt lat="38.622373994" lon="34.915067023">
      <ele>1062.447</ele>
      <time>2021-10-12T20:23:12Z</time>
    </trkpt>
    <trkpt lat="38.622375" lon="34.915032992">
      <ele>1062.674</ele>
      <time>2021-10-12T20:23:13Z</time>
    </trkpt>
    <trkpt lat="38.622377012" lon="34.914999967">
      <ele>1062.886</ele>
      <time>2021-10-12T20:23:14Z</time>
    </trkpt>
    <trkpt lat="38.622376006" lon="34.914971972">
      <ele>1062.994</ele>
      <time>2021-10-12T20:23:15Z</time>
    </trkpt>
    <trkpt lat="38.622378018" lon="34.914939031">
      <ele>1063.098</ele>
      <time>2021-10-12T20:23:16Z</time>
    </trkpt>
    <trkpt lat="38.622381035" lon="34.914907012">
      <ele>1063.191</ele>
      <time>2021-10-12T20:23:17Z</time>
    </trkpt>
    <trkpt lat="38.622382041" lon="34.914877005">
      <ele>1063.292</ele>
      <time>2021-10-12T20:23:18Z</time>
    </trkpt>
    <trkpt lat="38.622384975" lon="34.91484398">
      <ele>1063.39</ele>
      <time>2021-10-12T20:23:19Z</time>
    </trkpt>
    <trkpt lat="38.622388998" lon="34.914811961">
      <ele>1063.476</ele>
      <time>2021-10-12T20:23:20Z</time>
    </trkpt>
    <trkpt lat="38.622392016" lon="34.914777009">
      <ele>1063.58</ele>
      <time>2021-10-12T20:23:21Z</time>
    </trkpt>
    <trkpt lat="38.622394027" lon="34.914745996">
      <ele>1063.677</ele>
      <time>2021-10-12T20:23:22Z</time>
    </trkpt>
    <trkpt lat="38.622394027" lon="34.914719006">
      <ele>1063.782</ele>
      <time>2021-10-12T20:23:23Z</time>
    </trkpt>
    <trkpt lat="38.622396039" lon="34.914684976">
      <ele>1063.967</ele>
      <time>2021-10-12T20:23:23Z</time>
    </trkpt>
    <trkpt lat="38.622396961" lon="34.914655974">
      <ele>1064.13</ele>
      <time>2021-10-12T20:23:24Z</time>
    </trkpt>
    <trkpt lat="38.622397967" lon="34.914624961">
      <ele>1064.306</ele>
      <time>2021-10-12T20:23:25Z</time>
    </trkpt>
    <trkpt lat="38.622398973" lon="34.914595038">
      <ele>1064.477</ele>
      <time>2021-10-12T20:23:26Z</time>
    </trkpt>
    <trkpt lat="38.622398973" lon="34.91456503">
      <ele>1064.653</ele>
      <time>2021-10-12T20:23:27Z</time>
    </trkpt>
    <trkpt lat="38.622402996" lon="34.914528988">
      <ele>1064.847</ele>
      <time>2021-10-12T20:23:28Z</time>
    </trkpt>
    <trkpt lat="38.622406013" lon="34.914492024">
      <ele>1065.054</ele>
      <time>2021-10-12T20:23:29Z</time>
    </trkpt>
    <trkpt lat="38.622413976" lon="34.914457994">
      <ele>1065.227</ele>
      <time>2021-10-12T20:23:30Z</time>
    </trkpt>
    <trkpt lat="38.62242504" lon="34.914421029">
      <ele>1065.377</ele>
      <time>2021-10-12T20:23:31Z</time>
    </trkpt>
    <trkpt lat="38.622441972" lon="34.914389011">
      <ele>1065.45</ele>
      <time>2021-10-12T20:23:32Z</time>
    </trkpt>
    <trkpt lat="38.622465022" lon="34.914363027">
      <ele>1065.456</ele>
      <time>2021-10-12T20:23:34Z</time>
    </trkpt>
    <trkpt lat="38.622492012" lon="34.914340982">
      <ele>1065.412</ele>
      <time>2021-10-12T20:23:35Z</time>
    </trkpt>
    <trkpt lat="38.622521013" lon="34.914321033">
      <ele>1065.369</ele>
      <time>2021-10-12T20:23:36Z</time>
    </trkpt>
    <trkpt lat="38.622550014" lon="34.914304018">
      <ele>1065.325</ele>
      <time>2021-10-12T20:23:37Z</time>
    </trkpt>
    <trkpt lat="38.622582033" lon="34.914292032">
      <ele>1065.253</ele>
      <time>2021-10-12T20:23:38Z</time>
    </trkpt>
    <trkpt lat="38.622617992" lon="34.914281974">
      <ele>1065.16</ele>
      <time>2021-10-12T20:23:40Z</time>
    </trkpt>
    <trkpt lat="38.622653028" lon="34.914274011">
      <ele>1065.063</ele>
      <time>2021-10-12T20:23:41Z</time>
    </trkpt>
    <trkpt lat="38.622685969" lon="34.914263031">
      <ele>1064.984</ele>
      <time>2021-10-12T20:23:42Z</time>
    </trkpt>
    <trkpt lat="38.622722011" lon="34.914250961">
      <ele>1064.897</ele>
      <time>2021-10-12T20:23:44Z</time>
    </trkpt>
    <trkpt lat="38.622756042" lon="34.914248027">
      <ele>1064.785</ele>
      <time>2021-10-12T20:23:45Z</time>
    </trkpt>
    <trkpt lat="38.622790994" lon="34.914244004">
      <ele>1064.735</ele>
      <time>2021-10-12T20:23:46Z</time>
    </trkpt>
    <trkpt lat="38.62282603" lon="34.914245009">
      <ele>1064.767</ele>
      <time>2021-10-12T20:23:48Z</time>
    </trkpt>
    <trkpt lat="38.622856038" lon="34.914246015">
      <ele>1064.795</ele>
      <time>2021-10-12T20:23:49Z</time>
    </trkpt>
    <trkpt lat="38.62289099" lon="34.914251966">
      <ele>1064.818</ele>
      <time>2021-10-12T20:23:50Z</time>
    </trkpt>
    <trkpt lat="38.622923009" lon="34.914256996">
      <ele>1064.845</ele>
      <time>2021-10-12T20:23:51Z</time>
    </trkpt>
    <trkpt lat="38.622956034" lon="34.914260013">
      <ele>1064.88</ele>
      <time>2021-10-12T20:23:52Z</time>
    </trkpt>
    <trkpt lat="38.622987969" lon="34.914265964">
      <ele>1064.913</ele>
      <time>2021-10-12T20:23:54Z</time>
    </trkpt>
    <trkpt lat="38.623019988" lon="34.914267976">
      <ele>1064.953</ele>
      <time>2021-10-12T20:23:55Z</time>
    </trkpt>
    <trkpt lat="38.623051001" lon="34.914274011">
      <ele>1064.994</ele>
      <time>2021-10-12T20:23:56Z</time>
    </trkpt>
    <trkpt lat="38.623081008" lon="34.914277028">
      <ele>1065.036</ele>
      <time>2021-10-12T20:23:57Z</time>
    </trkpt>
    <trkpt lat="38.623111015" lon="34.914280968">
      <ele>1065.082</ele>
      <time>2021-10-12T20:23:58Z</time>
    </trkpt>
    <trkpt lat="38.623141022" lon="34.914284991">
      <ele>1065.131</ele>
      <time>2021-10-12T20:23:59Z</time>
    </trkpt>
    <trkpt lat="38.623170024" lon="34.914287003">
      <ele>1065.179</ele>
      <time>2021-10-12T20:24:00Z</time>
    </trkpt>
    <trkpt lat="38.62320397" lon="34.914294966">
      <ele>1065.247</ele>
      <time>2021-10-12T20:24:02Z</time>
    </trkpt>
    <trkpt lat="38.623240013" lon="34.914301001">
      <ele>1065.321</ele>
      <time>2021-10-12T20:24:03Z</time>
    </trkpt>
    <trkpt lat="38.623274965" lon="34.914309969">
      <ele>1065.407</ele>
      <time>2021-10-12T20:24:04Z</time>
    </trkpt>
    <trkpt lat="38.623308996" lon="34.914318016">
      <ele>1065.497</ele>
      <time>2021-10-12T20:24:06Z</time>
    </trkpt>
    <trkpt lat="38.623344032" lon="34.914322961">
      <ele>1065.58</ele>
      <time>2021-10-12T20:24:07Z</time>
    </trkpt>
    <trkpt lat="38.623375967" lon="34.914323967">
      <ele>1065.633</ele>
      <time>2021-10-12T20:24:08Z</time>
    </trkpt>
    <trkpt lat="38.623407986" lon="34.914323967">
      <ele>1065.683</ele>
      <time>2021-10-12T20:24:09Z</time>
    </trkpt>
    <trkpt lat="38.62343003" lon="34.914316004">
      <ele>1065.699</ele>
      <time>2021-10-12T20:24:10Z</time>
    </trkpt>
    <trkpt lat="38.623452997" lon="34.914307036">
      <ele>1065.718</ele>
      <time>2021-10-12T20:24:11Z</time>
    </trkpt>
    <trkpt lat="38.623474035" lon="34.914291026">
      <ele>1065.727</ele>
      <time>2021-10-12T20:24:12Z</time>
    </trkpt>
    <trkpt lat="38.623498008" lon="34.914270993">
      <ele>1065.746</ele>
      <time>2021-10-12T20:24:13Z</time>
    </trkpt>
    <trkpt lat="38.62352198" lon="34.914234029">
      <ele>1065.757</ele>
      <time>2021-10-12T20:24:14Z</time>
    </trkpt>
    <trkpt lat="38.623547964" lon="34.914207039">
      <ele>1065.806</ele>
      <time>2021-10-12T20:24:16Z</time>
    </trkpt>
    <trkpt lat="38.623575037" lon="34.914176026">
      <ele>1065.875</ele>
      <time>2021-10-12T20:24:17Z</time>
    </trkpt>
    <trkpt lat="38.623601021" lon="34.914147025">
      <ele>1065.966</ele>
      <time>2021-10-12T20:24:18Z</time>
    </trkpt>
    <trkpt lat="38.623625999" lon="34.914110983">
      <ele>1066.011</ele>
      <time>2021-10-12T20:24:20Z</time>
    </trkpt>
    <trkpt lat="38.623650977" lon="34.914081981">
      <ele>1066.044</ele>
      <time>2021-10-12T20:24:21Z</time>
    </trkpt>
    <trkpt lat="38.623673022" lon="34.914050968">
      <ele>1066.093</ele>
      <time>2021-10-12T20:24:22Z</time>
    </trkpt>
    <trkpt lat="38.623698" lon="34.914021967">
      <ele>1066.163</ele>
      <time>2021-10-12T20:24:23Z</time>
    </trkpt>
    <trkpt lat="38.62371996" lon="34.913992966">
      <ele>1066.245</ele>
      <time>2021-10-12T20:24:24Z</time>
    </trkpt>
    <trkpt lat="38.623738987" lon="34.913963964">
      <ele>1066.336</ele>
      <time>2021-10-12T20:24:26Z</time>
    </trkpt>
    <trkpt lat="38.623753991" lon="34.913933035">
      <ele>1066.433</ele>
      <time>2021-10-12T20:24:27Z</time>
    </trkpt>
    <trkpt lat="38.623766983" lon="34.913896993">
      <ele>1066.545</ele>
      <time>2021-10-12T20:24:28Z</time>
    </trkpt>
    <trkpt lat="38.623785004" lon="34.913864974">
      <ele>1066.744</ele>
      <time>2021-10-12T20:24:29Z</time>
    </trkpt>
    <trkpt lat="38.623802019" lon="34.913831027">
      <ele>1066.961</ele>
      <time>2021-10-12T20:24:30Z</time>
    </trkpt>
    <trkpt lat="38.623817023" lon="34.913802026">
      <ele>1067.135</ele>
      <time>2021-10-12T20:24:31Z</time>
    </trkpt>
    <trkpt lat="38.623833032" lon="34.91377403">
      <ele>1067.296</ele>
      <time>2021-10-12T20:24:32Z</time>
    </trkpt>
    <trkpt lat="38.623849964" lon="34.913745029">
      <ele>1067.45</ele>
      <time>2021-10-12T20:24:33Z</time>
    </trkpt>
    <trkpt lat="38.623867985" lon="34.913718039">
      <ele>1067.586</ele>
      <time>2021-10-12T20:24:34Z</time>
    </trkpt>
    <trkpt lat="38.623889023" lon="34.91368602">
      <ele>1067.731</ele>
      <time>2021-10-12T20:24:35Z</time>
    </trkpt>
    <trkpt lat="38.623909978" lon="34.913658025">
      <ele>1067.907</ele>
      <time>2021-10-12T20:24:37Z</time>
    </trkpt>
    <trkpt lat="38.623926993" lon="34.913630029">
      <ele>1068.069</ele>
      <time>2021-10-12T20:24:38Z</time>
    </trkpt>
    <trkpt lat="38.623947026" lon="34.913597004">
      <ele>1068.26</ele>
      <time>2021-10-12T20:24:39Z</time>
    </trkpt>
    <trkpt lat="38.623964041" lon="34.913566997">
      <ele>1068.429</ele>
      <time>2021-10-12T20:24:40Z</time>
    </trkpt>
    <trkpt lat="38.62398399" lon="34.913539002">
      <ele>1068.602</ele>
      <time>2021-10-12T20:24:41Z</time>
    </trkpt>
    <trkpt lat="38.624002011" lon="34.913512012">
      <ele>1068.764</ele>
      <time>2021-10-12T20:24:42Z</time>
    </trkpt>
    <trkpt lat="38.624020033" lon="34.913487034">
      <ele>1068.919</ele>
      <time>2021-10-12T20:24:43Z</time>
    </trkpt>
    <trkpt lat="38.624035958" lon="34.91345996">
      <ele>1069.074</ele>
      <time>2021-10-12T20:24:44Z</time>
    </trkpt>
    <trkpt lat="38.624053979" lon="34.913434982">
      <ele>1069.228</ele>
      <time>2021-10-12T20:24:45Z</time>
    </trkpt>
    <trkpt lat="38.624069989" lon="34.913404975">
      <ele>1069.394</ele>
      <time>2021-10-12T20:24:46Z</time>
    </trkpt>
    <trkpt lat="38.624087004" lon="34.913373962">
      <ele>1069.567</ele>
      <time>2021-10-12T20:24:47Z</time>
    </trkpt>
    <trkpt lat="38.624105025" lon="34.913345966">
      <ele>1069.733</ele>
      <time>2021-10-12T20:24:48Z</time>
    </trkpt>
    <trkpt lat="38.62412204" lon="34.913315959">
      <ele>1069.902</ele>
      <time>2021-10-12T20:24:49Z</time>
    </trkpt>
    <trkpt lat="38.624137966" lon="34.913287042">
      <ele>1070.063</ele>
      <time>2021-10-12T20:24:50Z</time>
    </trkpt>
    <trkpt lat="38.624157999" lon="34.913260974">
      <ele>1070.229</ele>
      <time>2021-10-12T20:24:51Z</time>
    </trkpt>
    <trkpt lat="38.624178031" lon="34.913229039">
      <ele>1070.375</ele>
      <time>2021-10-12T20:24:52Z</time>
    </trkpt>
    <trkpt lat="38.62419798" lon="34.91319702">
      <ele>1070.491</ele>
      <time>2021-10-12T20:24:54Z</time>
    </trkpt>
    <trkpt lat="38.624219019" lon="34.91317003">
      <ele>1070.588</ele>
      <time>2021-10-12T20:24:55Z</time>
    </trkpt>
    <trkpt lat="38.624237962" lon="34.913140023">
      <ele>1070.696</ele>
      <time>2021-10-12T20:24:56Z</time>
    </trkpt>
    <trkpt lat="38.624254977" lon="34.913105993">
      <ele>1070.818</ele>
      <time>2021-10-12T20:24:57Z</time>
    </trkpt>
    <trkpt lat="38.62427501" lon="34.913072968">
      <ele>1070.937</ele>
      <time>2021-10-12T20:24:58Z</time>
    </trkpt>
    <trkpt lat="38.624294959" lon="34.913043967">
      <ele>1071.0</ele>
      <time>2021-10-12T20:24:59Z</time>
    </trkpt>
    <trkpt lat="38.624318009" lon="34.913015971">
      <ele>1071.0</ele>
      <time>2021-10-12T20:25:01Z</time>
    </trkpt>
    <trkpt lat="38.624341981" lon="34.91298697">
      <ele>1071.0</ele>
      <time>2021-10-12T20:25:02Z</time>
    </trkpt>
    <trkpt lat="38.62436302" lon="34.912956962">
      <ele>1071.0</ele>
      <time>2021-10-12T20:25:03Z</time>
    </trkpt>
    <trkpt lat="38.624387998" lon="34.912929973">
      <ele>1071.0</ele>
      <time>2021-10-12T20:25:04Z</time>
    </trkpt>
    <trkpt lat="38.624415994" lon="34.912904995">
      <ele>1071.0</ele>
      <time>2021-10-12T20:25:05Z</time>
    </trkpt>
    <trkpt lat="38.62443896" lon="34.912880016">
      <ele>1071.0</ele>
      <time>2021-10-12T20:25:07Z</time>
    </trkpt>
    <trkpt lat="38.624463016" lon="34.912855038">
      <ele>1071.048</ele>
      <time>2021-10-12T20:25:08Z</time>
    </trkpt>
    <trkpt lat="38.624485983" lon="34.912831988">
      <ele>1071.12</ele>
      <time>2021-10-12T20:25:09Z</time>
    </trkpt>
    <trkpt lat="38.624510961" lon="34.912809022">
      <ele>1071.213</ele>
      <time>2021-10-12T20:25:10Z</time>
    </trkpt>
    <trkpt lat="38.624537028" lon="34.912787983">
      <ele>1071.321</ele>
      <time>2021-10-12T20:25:11Z</time>
    </trkpt>
    <trkpt lat="38.624562006" lon="34.912767028">
      <ele>1071.446</ele>
      <time>2021-10-12T20:25:12Z</time>
    </trkpt>
    <trkpt lat="38.624593019" lon="34.91274599">
      <ele>1071.588</ele>
      <time>2021-10-12T20:25:13Z</time>
    </trkpt>
    <trkpt lat="38.624617998" lon="34.912721012">
      <ele>1071.701</ele>
      <time>2021-10-12T20:25:15Z</time>
    </trkpt>
    <trkpt lat="38.624642976" lon="34.912695028">
      <ele>1071.8</ele>
      <time>2021-10-12T20:25:16Z</time>
    </trkpt>
    <trkpt lat="38.624671977" lon="34.912668038">
      <ele>1071.891</ele>
      <time>2021-10-12T20:25:17Z</time>
    </trkpt>
    <trkpt lat="38.624698967" lon="34.912639037">
      <ele>1071.958</ele>
      <time>2021-10-12T20:25:18Z</time>
    </trkpt>
    <trkpt lat="38.624722017" lon="34.912605006">
      <ele>1072.0</ele>
      <time>2021-10-12T20:25:20Z</time>
    </trkpt>
    <trkpt lat="38.624738026" lon="34.912568964">
      <ele>1072.0</ele>
      <time>2021-10-12T20:25:21Z</time>
    </trkpt>
    <trkpt lat="38.624748001" lon="34.912528982">
      <ele>1072.0</ele>
      <time>2021-10-12T20:25:22Z</time>
    </trkpt>
    <trkpt lat="38.624760993" lon="34.912487995">
      <ele>1072.0</ele>
      <time>2021-10-12T20:25:23Z</time>
    </trkpt>
    <trkpt lat="38.624771973" lon="34.912448013">
      <ele>1072.0</ele>
      <time>2021-10-12T20:25:25Z</time>
    </trkpt>
    <trkpt lat="38.624783959" lon="34.912410965">
      <ele>1072.0</ele>
      <time>2021-10-12T20:25:26Z</time>
    </trkpt>
    <trkpt lat="38.624792006" lon="34.912371989">
      <ele>1072.0</ele>
      <time>2021-10-12T20:25:27Z</time>
    </trkpt>
    <trkpt lat="38.624798963" lon="34.912336031">
      <ele>1072.0</ele>
      <time>2021-10-12T20:25:28Z</time>
    </trkpt>
    <trkpt lat="38.624809021" lon="34.912298983">
      <ele>1072.0</ele>
      <time>2021-10-12T20:25:29Z</time>
    </trkpt>
    <trkpt lat="38.624818996" lon="34.912262019">
      <ele>1072.0</ele>
      <time>2021-10-12T20:25:30Z</time>
    </trkpt>
    <trkpt lat="38.62482897" lon="34.912223965">
      <ele>1072.0</ele>
      <time>2021-10-12T20:25:32Z</time>
    </trkpt>
    <trkpt lat="38.624840034" lon="34.912188007">
      <ele>1071.806</ele>
      <time>2021-10-12T20:25:33Z</time>
    </trkpt>
    <trkpt lat="38.624851014" lon="34.912150037">
      <ele>1071.601</ele>
      <time>2021-10-12T20:25:34Z</time>
    </trkpt>
    <trkpt lat="38.624864006" lon="34.912109971">
      <ele>1071.398</ele>
      <time>2021-10-12T20:25:35Z</time>
    </trkpt>
    <trkpt lat="38.624872975" lon="34.912073007">
      <ele>1071.217</ele>
      <time>2021-10-12T20:25:36Z</time>
    </trkpt>
    <trkpt lat="38.624884039" lon="34.912035037">
      <ele>1071.045</ele>
      <time>2021-10-12T20:25:37Z</time>
    </trkpt>
    <trkpt lat="38.624892002" lon="34.911998995">
      <ele>1070.884</ele>
      <time>2021-10-12T20:25:38Z</time>
    </trkpt>
    <trkpt lat="38.624896025" lon="34.911963958">
      <ele>1070.722</ele>
      <time>2021-10-12T20:25:40Z</time>
    </trkpt>
    <trkpt lat="38.624895019" lon="34.911924982">
      <ele>1070.666</ele>
      <time>2021-10-12T20:25:41Z</time>
    </trkpt>
    <trkpt lat="38.624892002" lon="34.911887012">
      <ele>1070.738</ele>
      <time>2021-10-12T20:25:42Z</time>
    </trkpt>
    <trkpt lat="38.624886973" lon="34.911846025">
      <ele>1070.803</ele>
      <time>2021-10-12T20:25:43Z</time>
    </trkpt>
    <trkpt lat="38.624881022" lon="34.911806965">
      <ele>1070.855</ele>
      <time>2021-10-12T20:25:44Z</time>
    </trkpt>
    <trkpt lat="38.624874987" lon="34.911767989">
      <ele>1070.899</ele>
      <time>2021-10-12T20:25:45Z</time>
    </trkpt>
    <trkpt lat="38.624871969" lon="34.911728008">
      <ele>1070.959</ele>
      <time>2021-10-12T20:25:46Z</time>
    </trkpt>
    <trkpt lat="38.624870041" lon="34.911688026">
      <ele>1071.023</ele>
      <time>2021-10-12T20:25:48Z</time>
    </trkpt>
    <trkpt lat="38.624870963" lon="34.911647039">
      <ele>1071.071</ele>
      <time>2021-10-12T20:25:49Z</time>
    </trkpt>
    <trkpt lat="38.624871969" lon="34.911603034">
      <ele>1071.078</ele>
      <time>2021-10-12T20:25:50Z</time>
    </trkpt>
    <trkpt lat="38.624874987" lon="34.911561962">
      <ele>1071.1</ele>
      <time>2021-10-12T20:25:51Z</time>
    </trkpt>
    <trkpt lat="38.62487901" lon="34.911518041">
      <ele>1071.129</ele>
      <time>2021-10-12T20:25:53Z</time>
    </trkpt>
    <trkpt lat="38.624883033" lon="34.911477976">
      <ele>1071.158</ele>
      <time>2021-10-12T20:25:54Z</time>
    </trkpt>
    <trkpt lat="38.624892002" lon="34.911439">
      <ele>1071.222</ele>
      <time>2021-10-12T20:25:55Z</time>
    </trkpt>
    <trkpt lat="38.624909017" lon="34.911404969">
      <ele>1071.345</ele>
      <time>2021-10-12T20:25:56Z</time>
    </trkpt>
    <trkpt lat="38.62491698" lon="34.911370017">
      <ele>1071.402</ele>
      <time>2021-10-12T20:25:57Z</time>
    </trkpt>
    <trkpt lat="38.624927038" lon="34.911333974">
      <ele>1071.475</ele>
      <time>2021-10-12T20:25:58Z</time>
    </trkpt>
    <trkpt lat="38.624933995" lon="34.91129701">
      <ele>1071.525</ele>
      <time>2021-10-12T20:25:59Z</time>
    </trkpt>
    <trkpt lat="38.624941036" lon="34.911255017">
      <ele>1071.575</ele>
      <time>2021-10-12T20:26:01Z</time>
    </trkpt>
    <trkpt lat="38.624950005" lon="34.911213024">
      <ele>1071.64</ele>
      <time>2021-10-12T20:26:02Z</time>
    </trkpt>
    <trkpt lat="38.624956962" lon="34.911170024">
      <ele>1071.69</ele>
      <time>2021-10-12T20:26:03Z</time>
    </trkpt>
    <trkpt lat="38.624962997" lon="34.911132976">
      <ele>1071.734</ele>
      <time>2021-10-12T20:26:04Z</time>
    </trkpt>
    <trkpt lat="38.624971965" lon="34.911091989">
      <ele>1071.805</ele>
      <time>2021-10-12T20:26:05Z</time>
    </trkpt>
    <trkpt lat="38.624979006" lon="34.911049996">
      <ele>1071.865</ele>
      <time>2021-10-12T20:26:07Z</time>
    </trkpt>
    <trkpt lat="38.624986969" lon="34.911015965">
      <ele>1071.922</ele>
      <time>2021-10-12T20:26:08Z</time>
    </trkpt>
    <trkpt lat="38.624998033" lon="34.910979001">
      <ele>1071.989</ele>
      <time>2021-10-12T20:26:09Z</time>
    </trkpt>
    <trkpt lat="38.625005996" lon="34.910941031">
      <ele>1072.022</ele>
      <time>2021-10-12T20:26:10Z</time>
    </trkpt>
    <trkpt lat="38.625013959" lon="34.910902977">
      <ele>1072.05</ele>
      <time>2021-10-12T20:26:11Z</time>
    </trkpt>
    <trkpt lat="38.625019994" lon="34.910866013">
      <ele>1072.072</ele>
      <time>2021-10-12T20:26:12Z</time>
    </trkpt>
    <trkpt lat="38.625027034" lon="34.910831982">
      <ele>1072.097</ele>
      <time>2021-10-12T20:26:13Z</time>
    </trkpt>
    <trkpt lat="38.625034997" lon="34.910798036">
      <ele>1072.11</ele>
      <time>2021-10-12T20:26:14Z</time>
    </trkpt>
    <trkpt lat="38.625040026" lon="34.910761993">
      <ele>1072.107</ele>
      <time>2021-10-12T20:26:15Z</time>
    </trkpt>
    <trkpt lat="38.625042038" lon="34.910727963">
      <ele>1072.094</ele>
      <time>2021-10-12T20:26:16Z</time>
    </trkpt>
    <trkpt lat="38.625048995" lon="34.91068597">
      <ele>1072.083</ele>
      <time>2021-10-12T20:26:18Z</time>
    </trkpt>
    <trkpt lat="38.625053018" lon="34.910645988">
      <ele>1072.062</ele>
      <time>2021-10-12T20:26:19Z</time>
    </trkpt>
    <trkpt lat="38.62505503" lon="34.910609024">
      <ele>1072.038</ele>
      <time>2021-10-12T20:26:20Z</time>
    </trkpt>
    <trkpt lat="38.625057042" lon="34.910574993">
      <ele>1072.014</ele>
      <time>2021-10-12T20:26:21Z</time>
    </trkpt>
    <trkpt lat="38.625057042" lon="34.910536017">
      <ele>1072.0</ele>
      <time>2021-10-12T20:26:22Z</time>
    </trkpt>
    <trkpt lat="38.625062993" lon="34.910505004">
      <ele>1072.0</ele>
      <time>2021-10-12T20:26:23Z</time>
    </trkpt>
    <trkpt lat="38.625062993" lon="34.910430992">
      <ele>1072.0</ele>
      <time>2021-10-12T20:26:25Z</time>
    </trkpt>
    <trkpt lat="38.625065004" lon="34.910398973">
      <ele>1072.0</ele>
      <time>2021-10-12T20:26:26Z</time>
    </trkpt>
    <trkpt lat="38.625067016" lon="34.910367038">
      <ele>1072.0</ele>
      <time>2021-10-12T20:26:27Z</time>
    </trkpt>
    <trkpt lat="38.625068022" lon="34.910330996">
      <ele>1072.0</ele>
      <time>2021-10-12T20:26:28Z</time>
    </trkpt>
    <trkpt lat="38.625072967" lon="34.910294032">
      <ele>1072.0</ele>
      <time>2021-10-12T20:26:29Z</time>
    </trkpt>
    <trkpt lat="38.625077996" lon="34.910260001">
      <ele>1072.0</ele>
      <time>2021-10-12T20:26:30Z</time>
    </trkpt>
    <trkpt lat="38.625083026" lon="34.910222031">
      <ele>1072.0</ele>
      <time>2021-10-12T20:26:31Z</time>
    </trkpt>
    <trkpt lat="38.625088977" lon="34.910182972">
      <ele>1072.0</ele>
      <time>2021-10-12T20:26:32Z</time>
    </trkpt>
    <trkpt lat="38.625097023" lon="34.910145001">
      <ele>1072.0</ele>
      <time>2021-10-12T20:26:33Z</time>
    </trkpt>
    <trkpt lat="38.625102974" lon="34.910102002">
      <ele>1072.0</ele>
      <time>2021-10-12T20:26:35Z</time>
    </trkpt>
    <trkpt lat="38.625108004" lon="34.910063026">
      <ele>1072.0</ele>
      <time>2021-10-12T20:26:36Z</time>
    </trkpt>
    <trkpt lat="38.625114039" lon="34.910024973">
      <ele>1072.0</ele>
      <time>2021-10-12T20:26:37Z</time>
    </trkpt>
    <trkpt lat="38.625118984" lon="34.909987003">
      <ele>1072.027</ele>
      <time>2021-10-12T20:26:38Z</time>
    </trkpt>
    <trkpt lat="38.625118984" lon="34.909951966">
      <ele>1072.099</ele>
      <time>2021-10-12T20:26:39Z</time>
    </trkpt>
    <trkpt lat="38.625116972" lon="34.909916008">
      <ele>1072.175</ele>
      <time>2021-10-12T20:26:40Z</time>
    </trkpt>
    <trkpt lat="38.625115966" lon="34.909878038">
      <ele>1072.256</ele>
      <time>2021-10-12T20:26:41Z</time>
    </trkpt>
    <trkpt lat="38.625116972" lon="34.909839984">
      <ele>1072.333</ele>
      <time>2021-10-12T20:26:42Z</time>
    </trkpt>
    <trkpt lat="38.625120996" lon="34.909800002">
      <ele>1072.406</ele>
      <time>2021-10-12T20:26:44Z</time>
    </trkpt>
    <trkpt lat="38.625117978" lon="34.90976396">
      <ele>1072.489</ele>
      <time>2021-10-12T20:26:45Z</time>
    </trkpt>
    <trkpt lat="38.625113033" lon="34.909726996">
      <ele>1072.583</ele>
      <time>2021-10-12T20:26:46Z</time>
    </trkpt>
    <trkpt lat="38.625108004" lon="34.90969196">
      <ele>1072.678</ele>
      <time>2021-10-12T20:26:47Z</time>
    </trkpt>
    <trkpt lat="38.62510398" lon="34.909659019">
      <ele>1072.768</ele>
      <time>2021-10-12T20:26:48Z</time>
    </trkpt>
    <trkpt lat="38.625098029" lon="34.909624988">
      <ele>1072.874</ele>
      <time>2021-10-12T20:26:49Z</time>
    </trkpt>
    <trkpt lat="38.625096017" lon="34.909586012">
      <ele>1072.975</ele>
      <time>2021-10-12T20:26:50Z</time>
    </trkpt>
    <trkpt lat="38.625094006" lon="34.90954997">
      <ele>1073.072</ele>
      <time>2021-10-12T20:26:51Z</time>
    </trkpt>
    <trkpt lat="38.625091994" lon="34.909510994">
      <ele>1073.177</ele>
      <time>2021-10-12T20:26:52Z</time>
    </trkpt>
    <trkpt lat="38.625088977" lon="34.909475036">
      <ele>1073.285</ele>
      <time>2021-10-12T20:26:53Z</time>
    </trkpt>
    <trkpt lat="38.625089983" lon="34.90944">
      <ele>1073.357</ele>
      <time>2021-10-12T20:26:54Z</time>
    </trkpt>
    <trkpt lat="38.625088977" lon="34.909415022">
      <ele>1073.393</ele>
      <time>2021-10-12T20:26:55Z</time>
    </trkpt>
    <trkpt lat="38.625087971" lon="34.909381997">
      <ele>1073.438</ele>
      <time>2021-10-12T20:26:56Z</time>
    </trkpt>
    <trkpt lat="38.625089983" lon="34.909344027">
      <ele>1073.469</ele>
      <time>2021-10-12T20:26:57Z</time>
    </trkpt>
    <trkpt lat="38.625090988" lon="34.909307985">
      <ele>1073.506</ele>
      <time>2021-10-12T20:26:58Z</time>
    </trkpt>
    <trkpt lat="38.625100041" lon="34.909269009">
      <ele>1073.507</ele>
      <time>2021-10-12T20:26:59Z</time>
    </trkpt>
    <trkpt lat="38.625102974" lon="34.909231961">
      <ele>1073.542</ele>
      <time>2021-10-12T20:27:00Z</time>
    </trkpt>
    <trkpt lat="38.625106998" lon="34.909190973">
      <ele>1073.581</ele>
      <time>2021-10-12T20:27:01Z</time>
    </trkpt>
    <trkpt lat="38.625110015" lon="34.909150992">
      <ele>1073.626</ele>
      <time>2021-10-12T20:27:03Z</time>
    </trkpt>
    <trkpt lat="38.625111021" lon="34.909115033">
      <ele>1073.675</ele>
      <time>2021-10-12T20:27:04Z</time>
    </trkpt>
    <trkpt lat="38.625114039" lon="34.909077985">
      <ele>1073.721</ele>
      <time>2021-10-12T20:27:05Z</time>
    </trkpt>
    <trkpt lat="38.625114961" lon="34.909043033">
      <ele>1073.77</ele>
      <time>2021-10-12T20:27:06Z</time>
    </trkpt>
    <trkpt lat="38.625114961" lon="34.909009002">
      <ele>1073.821</ele>
      <time>2021-10-12T20:27:07Z</time>
    </trkpt>
    <trkpt lat="38.625117978" lon="34.908974972">
      <ele>1073.868</ele>
      <time>2021-10-12T20:27:08Z</time>
    </trkpt>
    <trkpt lat="38.625124013" lon="34.908940019">
      <ele>1073.918</ele>
      <time>2021-10-12T20:27:09Z</time>
    </trkpt>
    <trkpt lat="38.62513097" lon="34.908904983">
      <ele>1073.973</ele>
      <time>2021-10-12T20:27:10Z</time>
    </trkpt>
    <trkpt lat="38.625138011" lon="34.908872042">
      <ele>1074.091</ele>
      <time>2021-10-12T20:27:11Z</time>
    </trkpt>
    <trkpt lat="38.625143962" lon="34.908838011">
      <ele>1074.278</ele>
      <time>2021-10-12T20:27:12Z</time>
    </trkpt>
    <trkpt lat="38.625156032" lon="34.908801969">
      <ele>1074.489</ele>
      <time>2021-10-12T20:27:13Z</time>
    </trkpt>
    <trkpt lat="38.625168018" lon="34.908767017">
      <ele>1074.704</ele>
      <time>2021-10-12T20:27:14Z</time>
    </trkpt>
    <trkpt lat="38.625182016" lon="34.908730974">
      <ele>1074.941</ele>
      <time>2021-10-12T20:27:15Z</time>
    </trkpt>
    <trkpt lat="38.625198025" lon="34.908699961">
      <ele>1075.165</ele>
      <time>2021-10-12T20:27:16Z</time>
    </trkpt>
    <trkpt lat="38.625215041" lon="34.908671966">
      <ele>1075.385</ele>
      <time>2021-10-12T20:27:17Z</time>
    </trkpt>
    <trkpt lat="38.625233984" lon="34.908638019">
      <ele>1075.664</ele>
      <time>2021-10-12T20:27:19Z</time>
    </trkpt>
    <trkpt lat="38.625256028" lon="34.908604994">
      <ele>1075.944</ele>
      <time>2021-10-12T20:27:20Z</time>
    </trkpt>
    <trkpt lat="38.625278994" lon="34.908575993">
      <ele>1076.13</ele>
      <time>2021-10-12T20:27:21Z</time>
    </trkpt>
    <trkpt lat="38.625301039" lon="34.908549003">
      <ele>1076.289</ele>
      <time>2021-10-12T20:27:22Z</time>
    </trkpt>
    <trkpt lat="38.625322999" lon="34.908520002">
      <ele>1076.437</ele>
      <time>2021-10-12T20:27:23Z</time>
    </trkpt>
    <trkpt lat="38.62534496" lon="34.908492006">
      <ele>1076.567</ele>
      <time>2021-10-12T20:27:24Z</time>
    </trkpt>
    <trkpt lat="38.625364993" lon="34.908463005">
      <ele>1076.68</ele>
      <time>2021-10-12T20:27:26Z</time>
    </trkpt>
    <trkpt lat="38.625385026" lon="34.908438027">
      <ele>1076.769</ele>
      <time>2021-10-12T20:27:27Z</time>
    </trkpt>
    <trkpt lat="38.62540598" lon="34.908413971">
      <ele>1076.844</ele>
      <time>2021-10-12T20:27:28Z</time>
    </trkpt>
    <trkpt lat="38.625427019" lon="34.908391004">
      <ele>1076.904</ele>
      <time>2021-10-12T20:27:29Z</time>
    </trkpt>
    <trkpt lat="38.625447974" lon="34.908367032">
      <ele>1076.953</ele>
      <time>2021-10-12T20:27:30Z</time>
    </trkpt>
    <trkpt lat="38.625470018" lon="34.908346999">
      <ele>1076.985</ele>
      <time>2021-10-12T20:27:31Z</time>
    </trkpt>
    <trkpt lat="38.625487033" lon="34.908334007">
      <ele>1076.999</ele>
      <time>2021-10-12T20:27:31Z</time>
    </trkpt>
    <trkpt lat="38.625506982" lon="34.908317998">
      <ele>1077.0</ele>
      <time>2021-10-12T20:27:32Z</time>
    </trkpt>
    <trkpt lat="38.625525003" lon="34.908297965">
      <ele>1077.0</ele>
      <time>2021-10-12T20:27:33Z</time>
    </trkpt>
    <trkpt lat="38.625545036" lon="34.908279022">
      <ele>1077.0</ele>
      <time>2021-10-12T20:27:34Z</time>
    </trkpt>
    <trkpt lat="38.625565991" lon="34.908257984">
      <ele>1077.01</ele>
      <time>2021-10-12T20:27:35Z</time>
    </trkpt>
    <trkpt lat="38.625584012" lon="34.908234011">
      <ele>1077.037</ele>
      <time>2021-10-12T20:27:36Z</time>
    </trkpt>
    <trkpt lat="38.625604967" lon="34.908210961">
      <ele>1077.078</ele>
      <time>2021-10-12T20:27:37Z</time>
    </trkpt>
    <trkpt lat="38.625628017" lon="34.90818196">
      <ele>1077.142</ele>
      <time>2021-10-12T20:27:38Z</time>
    </trkpt>
    <trkpt lat="38.625649977" lon="34.908151031">
      <ele>1077.223</ele>
      <time>2021-10-12T20:27:39Z</time>
    </trkpt>
    <trkpt lat="38.625672022" lon="34.908119012">
      <ele>1077.323</ele>
      <time>2021-10-12T20:27:41Z</time>
    </trkpt>
    <trkpt lat="38.625690965" lon="34.908081964">
      <ele>1077.441</ele>
      <time>2021-10-12T20:27:42Z</time>
    </trkpt>
    <trkpt lat="38.625712004" lon="34.908047011">
      <ele>1077.607</ele>
      <time>2021-10-12T20:27:43Z</time>
    </trkpt>
    <trkpt lat="38.625728013" lon="34.90801801">
      <ele>1077.807</ele>
      <time>2021-10-12T20:27:44Z</time>
    </trkpt>
    <trkpt lat="38.625742011" lon="34.907983979">
      <ele>1078.014</ele>
      <time>2021-10-12T20:27:45Z</time>
    </trkpt>
    <trkpt lat="38.625757014" lon="34.90795196">
      <ele>1078.201</ele>
      <time>2021-10-12T20:27:47Z</time>
    </trkpt>
    <trkpt lat="38.625769001" lon="34.907916002">
      <ele>1078.387</ele>
      <time>2021-10-12T20:27:48Z</time>
    </trkpt>
    <trkpt lat="38.625780987" lon="34.907877026">
      <ele>1078.575</ele>
      <time>2021-10-12T20:27:49Z</time>
    </trkpt>
    <trkpt lat="38.625794984" lon="34.907846013">
      <ele>1078.72</ele>
      <time>2021-10-12T20:27:50Z</time>
    </trkpt>
    <trkpt lat="38.625809988" lon="34.907813994">
      <ele>1078.859</ele>
      <time>2021-10-12T20:27:51Z</time>
    </trkpt>
    <trkpt lat="38.625825997" lon="34.907781975">
      <ele>1078.984</ele>
      <time>2021-10-12T20:27:52Z</time>
    </trkpt>
    <trkpt lat="38.625839995" lon="34.907749034">
      <ele>1079.125</ele>
      <time>2021-10-12T20:27:53Z</time>
    </trkpt>
    <trkpt lat="38.625863967" lon="34.907718021">
      <ele>1079.302</ele>
      <time>2021-10-12T20:27:54Z</time>
    </trkpt>
    <trkpt lat="38.625885006" lon="34.907691032">
      <ele>1079.44</ele>
      <time>2021-10-12T20:27:56Z</time>
    </trkpt>
    <trkpt lat="38.625903027" lon="34.907669993">
      <ele>1079.542</ele>
      <time>2021-10-12T20:27:56Z</time>
    </trkpt>
    <trkpt lat="38.625919037" lon="34.907644009">
      <ele>1079.642</ele>
      <time>2021-10-12T20:27:57Z</time>
    </trkpt>
    <trkpt lat="38.625935968" lon="34.907617019">
      <ele>1079.734</ele>
      <time>2021-10-12T20:27:58Z</time>
    </trkpt>
    <trkpt lat="38.625954995" lon="34.907592963">
      <ele>1079.812</ele>
      <time>2021-10-12T20:27:59Z</time>
    </trkpt>
    <trkpt lat="38.625968993" lon="34.907562034">
      <ele>1079.886</ele>
      <time>2021-10-12T20:28:00Z</time>
    </trkpt>
    <trkpt lat="38.62598802" lon="34.907535966">
      <ele>1079.943</ele>
      <time>2021-10-12T20:28:01Z</time>
    </trkpt>
    <trkpt lat="38.626005035" lon="34.907505959">
      <ele>1079.992</ele>
      <time>2021-10-12T20:28:03Z</time>
    </trkpt>
    <trkpt lat="38.626016015" lon="34.907477042">
      <ele>1080.028</ele>
      <time>2021-10-12T20:28:03Z</time>
    </trkpt>
    <trkpt lat="38.626031019" lon="34.907448962">
      <ele>1080.053</ele>
      <time>2021-10-12T20:28:04Z</time>
    </trkpt>
    <trkpt lat="38.626043005" lon="34.907422978">
      <ele>1080.068</ele>
      <time>2021-10-12T20:28:05Z</time>
    </trkpt>
    <trkpt lat="38.626057003" lon="34.907393977">
      <ele>1080.074</ele>
      <time>2021-10-12T20:28:06Z</time>
    </trkpt>
    <trkpt lat="38.626072006" lon="34.90736397">
      <ele>1080.069</ele>
      <time>2021-10-12T20:28:07Z</time>
    </trkpt>
    <trkpt lat="38.626090027" lon="34.907330023">
      <ele>1080.046</ele>
      <time>2021-10-12T20:28:09Z</time>
    </trkpt>
    <trkpt lat="38.626109976" lon="34.907302028">
      <ele>1080.003</ele>
      <time>2021-10-12T20:28:10Z</time>
    </trkpt>
    <trkpt lat="38.626129003" lon="34.907273026">
      <ele>1080.129</ele>
      <time>2021-10-12T20:28:11Z</time>
    </trkpt>
    <trkpt lat="38.626144007" lon="34.907241007">
      <ele>1080.237</ele>
      <time>2021-10-12T20:28:12Z</time>
    </trkpt>
    <trkpt lat="38.62616404" lon="34.907212006">
      <ele>1080.411</ele>
      <time>2021-10-12T20:28:13Z</time>
    </trkpt>
    <trkpt lat="38.626182983" lon="34.907183005">
      <ele>1080.622</ele>
      <time>2021-10-12T20:28:14Z</time>
    </trkpt>
    <trkpt lat="38.626199998" lon="34.907147968">
      <ele>1080.822</ele>
      <time>2021-10-12T20:28:15Z</time>
    </trkpt>
    <trkpt lat="38.626211984" lon="34.90711201">
      <ele>1080.979</ele>
      <time>2021-10-12T20:28:16Z</time>
    </trkpt>
    <trkpt lat="38.62622397" lon="34.907076973">
      <ele>1081.123</ele>
      <time>2021-10-12T20:28:17Z</time>
    </trkpt>
    <trkpt lat="38.626228999" lon="34.907042021">
      <ele>1081.222</ele>
      <time>2021-10-12T20:28:19Z</time>
    </trkpt>
    <trkpt lat="38.626230005" lon="34.907002961">
      <ele>1081.308</ele>
      <time>2021-10-12T20:28:20Z</time>
    </trkpt>
    <trkpt lat="38.626234028" lon="34.906961974">
      <ele>1081.407</ele>
      <time>2021-10-12T20:28:21Z</time>
    </trkpt>
    <trkpt lat="38.626237968" lon="34.906924004">
      <ele>1081.57</ele>
      <time>2021-10-12T20:28:22Z</time>
    </trkpt>
    <trkpt lat="38.626244003" lon="34.906883016">
      <ele>1081.815</ele>
      <time>2021-10-12T20:28:23Z</time>
    </trkpt>
    <trkpt lat="38.626248026" lon="34.90684404">
      <ele>1082.038</ele>
      <time>2021-10-12T20:28:24Z</time>
    </trkpt>
    <trkpt lat="38.62624702" lon="34.906805987">
      <ele>1082.242</ele>
      <time>2021-10-12T20:28:25Z</time>
    </trkpt>
    <trkpt lat="38.626246015" lon="34.906776985">
      <ele>1082.399</ele>
      <time>2021-10-12T20:28:26Z</time>
    </trkpt>
    <trkpt lat="38.626245009" lon="34.906742033">
      <ele>1082.588</ele>
      <time>2021-10-12T20:28:27Z</time>
    </trkpt>
    <trkpt lat="38.626250038" lon="34.906710014">
      <ele>1082.766</ele>
      <time>2021-10-12T20:28:28Z</time>
    </trkpt>
    <trkpt lat="38.626254983" lon="34.906671038">
      <ele>1082.977</ele>
      <time>2021-10-12T20:28:29Z</time>
    </trkpt>
    <trkpt lat="38.626265042" lon="34.906636002">
      <ele>1083.319</ele>
      <time>2021-10-12T20:28:30Z</time>
    </trkpt>
    <trkpt lat="38.626276022" lon="34.906604989">
      <ele>1083.625</ele>
      <time>2021-10-12T20:28:31Z</time>
    </trkpt>
    <trkpt lat="38.626291025" lon="34.90657297">
      <ele>1083.912</ele>
      <time>2021-10-12T20:28:33Z</time>
    </trkpt>
    <trkpt lat="38.626307035" lon="34.906540029">
      <ele>1084.18</ele>
      <time>2021-10-12T20:28:34Z</time>
    </trkpt>
    <trkpt lat="38.62632296" lon="34.906511027">
      <ele>1084.387</ele>
      <time>2021-10-12T20:28:35Z</time>
    </trkpt>
    <trkpt lat="38.626336958" lon="34.906483032">
      <ele>1084.569</ele>
      <time>2021-10-12T20:28:36Z</time>
    </trkpt>
    <trkpt lat="38.626348022" lon="34.906455036">
      <ele>1084.748</ele>
      <time>2021-10-12T20:28:37Z</time>
    </trkpt>
    <trkpt lat="38.62636202" lon="34.906424023">
      <ele>1084.916</ele>
      <time>2021-10-12T20:28:38Z</time>
    </trkpt>
    <trkpt lat="38.626381969" lon="34.906399967">
      <ele>1084.968</ele>
      <time>2021-10-12T20:28:39Z</time>
    </trkpt>
    <trkpt lat="38.626400996" lon="34.906381024">
      <ele>1085.127</ele>
      <time>2021-10-12T20:28:40Z</time>
    </trkpt>
    <trkpt lat="38.626417005" lon="34.906364009">
      <ele>1085.361</ele>
      <time>2021-10-12T20:28:40Z</time>
    </trkpt>
    <trkpt lat="38.626432009" lon="34.906346994">
      <ele>1085.584</ele>
      <time>2021-10-12T20:28:41Z</time>
    </trkpt>
    <trkpt lat="38.626446007" lon="34.906326961">
      <ele>1085.829</ele>
      <time>2021-10-12T20:28:42Z</time>
    </trkpt>
    <trkpt lat="38.626467967" lon="34.906307012">
      <ele>1086.085</ele>
      <time>2021-10-12T20:28:43Z</time>
    </trkpt>
    <trkpt lat="38.626485988" lon="34.906283962">
      <ele>1086.351</ele>
      <time>2021-10-12T20:28:44Z</time>
    </trkpt>
    <trkpt lat="38.626507027" lon="34.906268036">
      <ele>1086.545</ele>
      <time>2021-10-12T20:28:45Z</time>
    </trkpt>
    <trkpt lat="38.626532005" lon="34.90624398">
      <ele>1086.811</ele>
      <time>2021-10-12T20:28:46Z</time>
    </trkpt>
    <trkpt lat="38.626555977" lon="34.906223025">
      <ele>1087.034</ele>
      <time>2021-10-12T20:28:47Z</time>
    </trkpt>
    <trkpt lat="38.626581961" lon="34.906199975">
      <ele>1087.263</ele>
      <time>2021-10-12T20:28:48Z</time>
    </trkpt>
    <trkpt lat="38.626607023" lon="34.906173991">
      <ele>1087.499</ele>
      <time>2021-10-12T20:28:49Z</time>
    </trkpt>
    <trkpt lat="38.62662496" lon="34.906148007">
      <ele>1087.714</ele>
      <time>2021-10-12T20:28:50Z</time>
    </trkpt>
    <trkpt lat="38.626641976" lon="34.906123029">
      <ele>1087.91</ele>
      <time>2021-10-12T20:28:51Z</time>
    </trkpt>
    <trkpt lat="38.626657985" lon="34.906109031">
      <ele>1088.022</ele>
      <time>2021-10-12T20:28:52Z</time>
    </trkpt>
    <trkpt lat="38.62668003" lon="34.906094028">
      <ele>1088.085</ele>
      <time>2021-10-12T20:28:53Z</time>
    </trkpt>
    <trkpt lat="38.626700984" lon="34.906077012">
      <ele>1088.106</ele>
      <time>2021-10-12T20:28:54Z</time>
    </trkpt>
    <trkpt lat="38.626729986" lon="34.90605698">
      <ele>1088.084</ele>
      <time>2021-10-12T20:28:55Z</time>
    </trkpt>
    <trkpt lat="38.626753036" lon="34.906037031">
      <ele>1088.095</ele>
      <time>2021-10-12T20:28:56Z</time>
    </trkpt>
    <trkpt lat="38.626778014" lon="34.906021021">
      <ele>1088.041</ele>
      <time>2021-10-12T20:28:57Z</time>
    </trkpt>
    <trkpt lat="38.626802992" lon="34.906003">
      <ele>1087.995</ele>
      <time>2021-10-12T20:28:58Z</time>
    </trkpt>
    <trkpt lat="38.626829982" lon="34.905987997">
      <ele>1087.893</ele>
      <time>2021-10-12T20:28:59Z</time>
    </trkpt>
    <trkpt lat="38.626863007" lon="34.905980034">
      <ele>1087.668</ele>
      <time>2021-10-12T20:29:00Z</time>
    </trkpt>
    <trkpt lat="38.626893014" lon="34.905966036">
      <ele>1087.512</ele>
      <time>2021-10-12T20:29:02Z</time>
    </trkpt>
    <trkpt lat="38.626924027" lon="34.905949021">
      <ele>1087.357</ele>
      <time>2021-10-12T20:29:03Z</time>
    </trkpt>
    <trkpt lat="38.626951016" lon="34.905934017">
      <ele>1087.245</ele>
      <time>2021-10-12T20:29:04Z</time>
    </trkpt>
    <trkpt lat="38.626979012" lon="34.905918008">
      <ele>1087.217</ele>
      <time>2021-10-12T20:29:05Z</time>
    </trkpt>
    <trkpt lat="38.627012959" lon="34.905901998">
      <ele>1087.134</ele>
      <time>2021-10-12T20:29:06Z</time>
    </trkpt>
    <trkpt lat="38.62704196" lon="34.905886995">
      <ele>1087.047</ele>
      <time>2021-10-12T20:29:08Z</time>
    </trkpt>
    <trkpt lat="38.627069034" lon="34.905875009">
      <ele>1086.937</ele>
      <time>2021-10-12T20:29:09Z</time>
    </trkpt>
    <trkpt lat="38.627097029" lon="34.905862017">
      <ele>1086.808</ele>
      <time>2021-10-12T20:29:10Z</time>
    </trkpt>
    <trkpt lat="38.627124019" lon="34.905846007">
      <ele>1086.675</ele>
      <time>2021-10-12T20:29:11Z</time>
    </trkpt>
    <trkpt lat="38.627150003" lon="34.905829998">
      <ele>1086.526</ele>
      <time>2021-10-12T20:29:12Z</time>
    </trkpt>
    <trkpt lat="38.627172969" lon="34.905812982">
      <ele>1086.381</ele>
      <time>2021-10-12T20:29:13Z</time>
    </trkpt>
    <trkpt lat="38.627193002" lon="34.905795967">
      <ele>1086.239</ele>
      <time>2021-10-12T20:29:14Z</time>
    </trkpt>
    <trkpt lat="38.627209011" lon="34.90577803">
      <ele>1086.114</ele>
      <time>2021-10-12T20:29:15Z</time>
    </trkpt>
    <trkpt lat="38.627231978" lon="34.905764032">
      <ele>1086.035</ele>
      <time>2021-10-12T20:29:16Z</time>
    </trkpt>
    <trkpt lat="38.62725704" lon="34.905751962">
      <ele>1086.125</ele>
      <time>2021-10-12T20:29:17Z</time>
    </trkpt>
    <trkpt lat="38.627277995" lon="34.905739976">
      <ele>1086.201</ele>
      <time>2021-10-12T20:29:17Z</time>
    </trkpt>
    <trkpt lat="38.627300961" lon="34.905730002">
      <ele>1086.283</ele>
      <time>2021-10-12T20:29:18Z</time>
    </trkpt>
    <trkpt lat="38.627326023" lon="34.905723967">
      <ele>1086.374</ele>
      <time>2021-10-12T20:29:19Z</time>
    </trkpt>
    <trkpt lat="38.627352007" lon="34.905719021">
      <ele>1086.467</ele>
      <time>2021-10-12T20:29:20Z</time>
    </trkpt>
    <trkpt lat="38.627377991" lon="34.905709969">
      <ele>1086.561</ele>
      <time>2021-10-12T20:29:21Z</time>
    </trkpt>
    <trkpt lat="38.627401963" lon="34.905697983">
      <ele>1086.647</ele>
      <time>2021-10-12T20:29:22Z</time>
    </trkpt>
    <trkpt lat="38.627424007" lon="34.905688008">
      <ele>1086.726</ele>
      <time>2021-10-12T20:29:23Z</time>
    </trkpt>
    <trkpt lat="38.627449991" lon="34.905678034">
      <ele>1086.82</ele>
      <time>2021-10-12T20:29:24Z</time>
    </trkpt>
    <trkpt lat="38.627476981" lon="34.905665042">
      <ele>1086.917</ele>
      <time>2021-10-12T20:29:25Z</time>
    </trkpt>
    <trkpt lat="38.627502965" lon="34.905656995">
      <ele>1087.011</ele>
      <time>2021-10-12T20:29:26Z</time>
    </trkpt>
    <trkpt lat="38.627532972" lon="34.905648027">
      <ele>1087.119</ele>
      <time>2021-10-12T20:29:27Z</time>
    </trkpt>
    <trkpt lat="38.627561973" lon="34.90563998">
      <ele>1087.223</ele>
      <time>2021-10-12T20:29:28Z</time>
    </trkpt>
    <trkpt lat="38.627591981" lon="34.905632017">
      <ele>1087.331</ele>
      <time>2021-10-12T20:29:29Z</time>
    </trkpt>
    <trkpt lat="38.627617965" lon="34.905625982">
      <ele>1087.425</ele>
      <time>2021-10-12T20:29:30Z</time>
    </trkpt>
    <trkpt lat="38.627646966" lon="34.905617014">
      <ele>1087.529</ele>
      <time>2021-10-12T20:29:32Z</time>
    </trkpt>
    <trkpt lat="38.627674961" lon="34.905603016">
      <ele>1087.63</ele>
      <time>2021-10-12T20:29:33Z</time>
    </trkpt>
    <trkpt lat="38.627703041" lon="34.905588012">
      <ele>1087.731</ele>
      <time>2021-10-12T20:29:34Z</time>
    </trkpt>
    <trkpt lat="38.627729025" lon="34.905570997">
      <ele>1087.824</ele>
      <time>2021-10-12T20:29:35Z</time>
    </trkpt>
    <trkpt lat="38.627758026" lon="34.905558005">
      <ele>1087.929</ele>
      <time>2021-10-12T20:29:36Z</time>
    </trkpt>
    <trkpt lat="38.627781998" lon="34.905539984">
      <ele>1088.071</ele>
      <time>2021-10-12T20:29:37Z</time>
    </trkpt>
    <trkpt lat="38.627806976" lon="34.905520035">
      <ele>1088.233</ele>
      <time>2021-10-12T20:29:38Z</time>
    </trkpt>
    <trkpt lat="38.627833966" lon="34.905504026">
      <ele>1088.388</ele>
      <time>2021-10-12T20:29:39Z</time>
    </trkpt>
    <trkpt lat="38.627864979" lon="34.905494973">
      <ele>1088.532</ele>
      <time>2021-10-12T20:29:40Z</time>
    </trkpt>
    <trkpt lat="38.627894986" lon="34.905482987">
      <ele>1088.683</ele>
      <time>2021-10-12T20:29:42Z</time>
    </trkpt>
    <trkpt lat="38.62792097" lon="34.905469995">
      <ele>1088.824</ele>
      <time>2021-10-12T20:29:43Z</time>
    </trkpt>
    <trkpt lat="38.627951983" lon="34.905460021">
      <ele>1088.971</ele>
      <time>2021-10-12T20:29:44Z</time>
    </trkpt>
    <trkpt lat="38.627977967" lon="34.905446023">
      <ele>1089.115</ele>
      <time>2021-10-12T20:29:45Z</time>
    </trkpt>
    <trkpt lat="38.628000012" lon="34.905433031">
      <ele>1089.241</ele>
      <time>2021-10-12T20:29:46Z</time>
    </trkpt>
    <trkpt lat="38.628021972" lon="34.905420039">
      <ele>1089.367</ele>
      <time>2021-10-12T20:29:47Z</time>
    </trkpt>
    <trkpt lat="38.628045022" lon="34.905405035">
      <ele>1089.504</ele>
      <time>2021-10-12T20:29:48Z</time>
    </trkpt>
    <trkpt lat="38.628074024" lon="34.905393971">
      <ele>1089.61</ele>
      <time>2021-10-12T20:29:49Z</time>
    </trkpt>
    <trkpt lat="38.628102019" lon="34.905382991">
      <ele>1089.685</ele>
      <time>2021-10-12T20:29:50Z</time>
    </trkpt>
    <trkpt lat="38.628134038" lon="34.905380979">
      <ele>1089.733</ele>
      <time>2021-10-12T20:29:51Z</time>
    </trkpt>
    <trkpt lat="38.628162034" lon="34.905382991">
      <ele>1089.766</ele>
      <time>2021-10-12T20:29:52Z</time>
    </trkpt>
    <trkpt lat="38.628190029" lon="34.905396989">
      <ele>1089.779</ele>
      <time>2021-10-12T20:29:53Z</time>
    </trkpt>
    <trkpt lat="38.628219031" lon="34.905428002">
      <ele>1089.777</ele>
      <time>2021-10-12T20:29:55Z</time>
    </trkpt>
    <trkpt lat="38.628239986" lon="34.905459015">
      <ele>1089.781</ele>
      <time>2021-10-12T20:29:56Z</time>
    </trkpt>
    <trkpt lat="38.628259012" lon="34.905489022">
      <ele>1089.797</ele>
      <time>2021-10-12T20:29:57Z</time>
    </trkpt>
    <trkpt lat="38.628278961" lon="34.905518023">
      <ele>1089.831</ele>
      <time>2021-10-12T20:29:58Z</time>
    </trkpt>
    <trkpt lat="38.628296982" lon="34.905546019">
      <ele>1089.874</ele>
      <time>2021-10-12T20:29:59Z</time>
    </trkpt>
    <trkpt lat="38.628313998" lon="34.90557502">
      <ele>1089.935</ele>
      <time>2021-10-12T20:30:00Z</time>
    </trkpt>
    <trkpt lat="38.628330007" lon="34.905597987">
      <ele>1089.99</ele>
      <time>2021-10-12T20:30:01Z</time>
    </trkpt>
    <trkpt lat="38.628346017" lon="34.905618019">
      <ele>1090.046</ele>
      <time>2021-10-12T20:30:02Z</time>
    </trkpt>
    <trkpt lat="38.628364038" lon="34.905640986">
      <ele>1090.111</ele>
      <time>2021-10-12T20:30:03Z</time>
    </trkpt>
    <trkpt lat="38.628384992" lon="34.905664036">
      <ele>1090.186</ele>
      <time>2021-10-12T20:30:04Z</time>
    </trkpt>
    <trkpt lat="38.628404019" lon="34.905689014">
      <ele>1090.254</ele>
      <time>2021-10-12T20:30:05Z</time>
    </trkpt>
    <trkpt lat="38.628416006" lon="34.905709969">
      <ele>1090.298</ele>
      <time>2021-10-12T20:30:05Z</time>
    </trkpt>
    <trkpt lat="38.628434027" lon="34.905731007">
      <ele>1090.362</ele>
      <time>2021-10-12T20:30:06Z</time>
    </trkpt>
    <trkpt lat="38.62844903" lon="34.905749029">
      <ele>1090.417</ele>
      <time>2021-10-12T20:30:07Z</time>
    </trkpt>
    <trkpt lat="38.628463028" lon="34.905764032">
      <ele>1090.467</ele>
      <time>2021-10-12T20:30:08Z</time>
    </trkpt>
    <trkpt lat="38.628481971" lon="34.905781969">
      <ele>1090.535</ele>
      <time>2021-10-12T20:30:09Z</time>
    </trkpt>
    <trkpt lat="38.628498986" lon="34.905796973">
      <ele>1090.596</ele>
      <time>2021-10-12T20:30:09Z</time>
    </trkpt>
    <trkpt lat="38.628518013" lon="34.905812982">
      <ele>1090.665</ele>
      <time>2021-10-12T20:30:10Z</time>
    </trkpt>
    <trkpt lat="38.628536034" lon="34.905832009">
      <ele>1090.73</ele>
      <time>2021-10-12T20:30:11Z</time>
    </trkpt>
    <trkpt lat="38.628554977" lon="34.90585397">
      <ele>1090.887</ele>
      <time>2021-10-12T20:30:12Z</time>
    </trkpt>
    <trkpt lat="38.628570987" lon="34.90587702">
      <ele>1091.036</ele>
      <time>2021-10-12T20:30:13Z</time>
    </trkpt>
    <trkpt lat="38.628594959" lon="34.905891018">
      <ele>1091.162</ele>
      <time>2021-10-12T20:30:14Z</time>
    </trkpt>
    <trkpt lat="38.628621027" lon="34.905905016">
      <ele>1091.294</ele>
      <time>2021-10-12T20:30:15Z</time>
    </trkpt>
    <trkpt lat="38.628642987" lon="34.905918008">
      <ele>1091.42</ele>
      <time>2021-10-12T20:30:16Z</time>
    </trkpt>
    <trkpt lat="38.628665032" lon="34.905935023">
      <ele>1091.56</ele>
      <time>2021-10-12T20:30:17Z</time>
    </trkpt>
    <trkpt lat="38.628681041" lon="34.905953966">
      <ele>1091.686</ele>
      <time>2021-10-12T20:30:18Z</time>
    </trkpt>
    <trkpt lat="38.62870099" lon="34.90597601">
      <ele>1091.837</ele>
      <time>2021-10-12T20:30:19Z</time>
    </trkpt>
    <trkpt lat="38.628733009" lon="34.90598104">
      <ele>1091.971</ele>
      <time>2021-10-12T20:30:20Z</time>
    </trkpt>
    <trkpt lat="38.628755976" lon="34.905982967">
      <ele>1092.06</ele>
      <time>2021-10-12T20:30:21Z</time>
    </trkpt>
    <trkpt lat="38.628776008" lon="34.905978022">
      <ele>1092.115</ele>
      <time>2021-10-12T20:30:21Z</time>
    </trkpt>
    <trkpt lat="38.628795035" lon="34.905964024">
      <ele>1092.133</ele>
      <time>2021-10-12T20:30:22Z</time>
    </trkpt>
    <trkpt lat="38.628813978" lon="34.90594198">
      <ele>1092.121</ele>
      <time>2021-10-12T20:30:23Z</time>
    </trkpt>
    <trkpt lat="38.628834011" lon="34.905924965">
      <ele>1092.132</ele>
      <time>2021-10-12T20:30:24Z</time>
    </trkpt>
    <trkpt lat="38.628854966" lon="34.905894035">
      <ele>1092.096</ele>
      <time>2021-10-12T20:30:25Z</time>
    </trkpt>
    <trkpt lat="38.628869969" lon="34.90587702">
      <ele>1092.089</ele>
      <time>2021-10-12T20:30:26Z</time>
    </trkpt>
    <trkpt lat="38.628885979" lon="34.905857993">
      <ele>1092.078</ele>
      <time>2021-10-12T20:30:27Z</time>
    </trkpt>
    <trkpt lat="38.628899977" lon="34.905837961">
      <ele>1092.094</ele>
      <time>2021-10-12T20:30:28Z</time>
    </trkpt>
    <trkpt lat="38.628909029" lon="34.905816">
      <ele>1092.207</ele>
      <time>2021-10-12T20:30:28Z</time>
    </trkpt>
    <trkpt lat="38.628922021" lon="34.905796973">
      <ele>1092.369</ele>
      <time>2021-10-12T20:30:29Z</time>
    </trkpt>
    <trkpt lat="38.628927972" lon="34.905771995">
      <ele>1092.502</ele>
      <time>2021-10-12T20:30:30Z</time>
    </trkpt>
    <trkpt lat="38.628937025" lon="34.905746011">
      <ele>1092.661</ele>
      <time>2021-10-12T20:30:31Z</time>
    </trkpt>
    <trkpt lat="38.628946999" lon="34.905714998">
      <ele>1092.844</ele>
      <time>2021-10-12T20:30:32Z</time>
    </trkpt>
    <trkpt lat="38.628955968" lon="34.905680967">
      <ele>1093.031</ele>
      <time>2021-10-12T20:30:33Z</time>
    </trkpt>
    <trkpt lat="38.628968038" lon="34.905644003">
      <ele>1093.251</ele>
      <time>2021-10-12T20:30:34Z</time>
    </trkpt>
    <trkpt lat="38.628978012" lon="34.905609973">
      <ele>1093.446</ele>
      <time>2021-10-12T20:30:35Z</time>
    </trkpt>
    <trkpt lat="38.628987987" lon="34.905573009">
      <ele>1093.651</ele>
      <time>2021-10-12T20:30:36Z</time>
    </trkpt>
    <trkpt lat="38.628998967" lon="34.905538978">
      <ele>1093.793</ele>
      <time>2021-10-12T20:30:37Z</time>
    </trkpt>
    <trkpt lat="38.629010031" lon="34.905505031">
      <ele>1093.872</ele>
      <time>2021-10-12T20:30:38Z</time>
    </trkpt>
    <trkpt lat="38.629020005" lon="34.905459015">
      <ele>1093.944</ele>
      <time>2021-10-12T20:30:40Z</time>
    </trkpt>
    <trkpt lat="38.62902998" lon="34.905421967">
      <ele>1094.016</ele>
      <time>2021-10-12T20:30:41Z</time>
    </trkpt>
    <trkpt lat="38.629042972" lon="34.90537704">
      <ele>1094.109</ele>
      <time>2021-10-12T20:30:42Z</time>
    </trkpt>
    <trkpt lat="38.62905303" lon="34.90533798">
      <ele>1094.182</ele>
      <time>2021-10-12T20:30:43Z</time>
    </trkpt>
    <trkpt lat="38.629063005" lon="34.905296993">
      <ele>1094.254</ele>
      <time>2021-10-12T20:30:45Z</time>
    </trkpt>
    <trkpt lat="38.629075997" lon="34.905265979">
      <ele>1094.305</ele>
      <time>2021-10-12T20:30:46Z</time>
    </trkpt>
    <trkpt lat="38.629089994" lon="34.905228009">
      <ele>1094.269</ele>
      <time>2021-10-12T20:30:47Z</time>
    </trkpt>
    <trkpt lat="38.62910198" lon="34.905189034">
      <ele>1094.215</ele>
      <time>2021-10-12T20:30:48Z</time>
    </trkpt>
    <trkpt lat="38.629113967" lon="34.905147962">
      <ele>1094.153</ele>
      <time>2021-10-12T20:30:49Z</time>
    </trkpt>
    <trkpt lat="38.629126959" lon="34.905114016">
      <ele>1094.125</ele>
      <time>2021-10-12T20:30:50Z</time>
    </trkpt>
    <trkpt lat="38.62914498" lon="34.905085014">
      <ele>1094.15</ele>
      <time>2021-10-12T20:30:51Z</time>
    </trkpt>
    <trkpt lat="38.62915596" lon="34.905055007">
      <ele>1094.121</ele>
      <time>2021-10-12T20:30:52Z</time>
    </trkpt>
    <trkpt lat="38.629161995" lon="34.905018965">
      <ele>1094.035</ele>
      <time>2021-10-12T20:30:53Z</time>
    </trkpt>
    <trkpt lat="38.629169036" lon="34.904983006">
      <ele>1093.956</ele>
      <time>2021-10-12T20:30:55Z</time>
    </trkpt>
    <trkpt lat="38.629173981" lon="34.90494797">
      <ele>1093.865</ele>
      <time>2021-10-12T20:30:56Z</time>
    </trkpt>
    <trkpt lat="38.629178004" lon="34.904912012">
      <ele>1093.765</ele>
      <time>2021-10-12T20:30:57Z</time>
    </trkpt>
    <trkpt lat="38.629187979" lon="34.90487597">
      <ele>1093.707</ele>
      <time>2021-10-12T20:30:58Z</time>
    </trkpt>
    <trkpt lat="38.629201977" lon="34.904834982">
      <ele>1093.66</ele>
      <time>2021-10-12T20:30:59Z</time>
    </trkpt>
    <trkpt lat="38.629215974" lon="34.904797012">
      <ele>1093.624</ele>
      <time>2021-10-12T20:31:00Z</time>
    </trkpt>
    <trkpt lat="38.629235001" lon="34.904765999">
      <ele>1093.65</ele>
      <time>2021-10-12T20:31:01Z</time>
    </trkpt>
    <trkpt lat="38.62925604" lon="34.904730963">
      <ele>1093.675</ele>
      <time>2021-10-12T20:31:03Z</time>
    </trkpt>
    <trkpt lat="38.629282024" lon="34.904707996">
      <ele>1093.831</ele>
      <time>2021-10-12T20:31:04Z</time>
    </trkpt>
    <trkpt lat="38.629308008" lon="34.90468503">
      <ele>1094.018</ele>
      <time>2021-10-12T20:31:05Z</time>
    </trkpt>
    <trkpt lat="38.629332986" lon="34.904664997">
      <ele>1094.197</ele>
      <time>2021-10-12T20:31:06Z</time>
    </trkpt>
    <trkpt lat="38.629356036" lon="34.90464597">
      <ele>1094.363</ele>
      <time>2021-10-12T20:31:07Z</time>
    </trkpt>
    <trkpt lat="38.62938202" lon="34.904629039">
      <ele>1094.551</ele>
      <time>2021-10-12T20:31:08Z</time>
    </trkpt>
    <trkpt lat="38.629408004" lon="34.904616969">
      <ele>1094.738</ele>
      <time>2021-10-12T20:31:09Z</time>
    </trkpt>
    <trkpt lat="38.629435999" lon="34.904609006">
      <ele>1094.939</ele>
      <time>2021-10-12T20:31:10Z</time>
    </trkpt>
    <trkpt lat="38.629461983" lon="34.904600037">
      <ele>1095.343</ele>
      <time>2021-10-12T20:31:11Z</time>
    </trkpt>
    <trkpt lat="38.629483022" lon="34.904591991">
      <ele>1095.76</ele>
      <time>2021-10-12T20:31:12Z</time>
    </trkpt>
    <trkpt lat="38.629503977" lon="34.904585034">
      <ele>1096.177</ele>
      <time>2021-10-12T20:31:13Z</time>
    </trkpt>
    <trkpt lat="38.629526021" lon="34.904574975">
      <ele>1096.624</ele>
      <time>2021-10-12T20:31:14Z</time>
    </trkpt>
    <trkpt lat="38.629546976" lon="34.904563995">
      <ele>1097.056</ele>
      <time>2021-10-12T20:31:15Z</time>
    </trkpt>
    <trkpt lat="38.62957296" lon="34.904553015">
      <ele>1097.595</ele>
      <time>2021-10-12T20:31:16Z</time>
    </trkpt>
    <trkpt lat="38.629593998" lon="34.904541029">
      <ele>1098.043</ele>
      <time>2021-10-12T20:31:16Z</time>
    </trkpt>
    <trkpt lat="38.629614031" lon="34.904523008">
      <ele>1098.49</ele>
      <time>2021-10-12T20:31:17Z</time>
    </trkpt>
    <trkpt lat="38.629630962" lon="34.904503981">
      <ele>1098.885</ele>
      <time>2021-10-12T20:31:18Z</time>
    </trkpt>
    <trkpt lat="38.629644038" lon="34.904484032">
      <ele>1099.209</ele>
      <time>2021-10-12T20:31:19Z</time>
    </trkpt>
    <trkpt lat="38.629658036" lon="34.904462993">
      <ele>1099.562</ele>
      <time>2021-10-12T20:31:20Z</time>
    </trkpt>
    <trkpt lat="38.629667005" lon="34.90444296">
      <ele>1099.808</ele>
      <time>2021-10-12T20:31:20Z</time>
    </trkpt>
    <trkpt lat="38.629673962" lon="34.904417982">
      <ele>1099.974</ele>
      <time>2021-10-12T20:31:21Z</time>
    </trkpt>
    <trkpt lat="38.629679997" lon="34.904391998">
      <ele>1100.117</ele>
      <time>2021-10-12T20:31:22Z</time>
    </trkpt>
    <trkpt lat="38.629685026" lon="34.904360985">
      <ele>1100.237</ele>
      <time>2021-10-12T20:31:23Z</time>
    </trkpt>
    <trkpt lat="38.629686031" lon="34.904331984">
      <ele>1100.271</ele>
      <time>2021-10-12T20:31:24Z</time>
    </trkpt>
    <trkpt lat="38.629687037" lon="34.904298037">
      <ele>1100.307</ele>
      <time>2021-10-12T20:31:25Z</time>
    </trkpt>
    <trkpt lat="38.629687037" lon="34.90427197">
      <ele>1100.319</ele>
      <time>2021-10-12T20:31:25Z</time>
    </trkpt>
    <trkpt lat="38.629683014" lon="34.904245986">
      <ele>1100.254</ele>
      <time>2021-10-12T20:31:26Z</time>
    </trkpt>
    <trkpt lat="38.629678991" lon="34.904222013">
      <ele>1100.191</ele>
      <time>2021-10-12T20:31:27Z</time>
    </trkpt>
    <trkpt lat="38.629678991" lon="34.90419603">
      <ele>1100.205</ele>
      <time>2021-10-12T20:31:28Z</time>
    </trkpt>
    <trkpt lat="38.629677985" lon="34.90416904">
      <ele>1100.202</ele>
      <time>2021-10-12T20:31:29Z</time>
    </trkpt>
    <trkpt lat="38.629681002" lon="34.904138027">
      <ele>1100.361</ele>
      <time>2021-10-12T20:31:29Z</time>
    </trkpt>
    <trkpt lat="38.629682008" lon="34.904109025">
      <ele>1100.484</ele>
      <time>2021-10-12T20:31:30Z</time>
    </trkpt>
    <trkpt lat="38.629683014" lon="34.904077007">
      <ele>1100.617</ele>
      <time>2021-10-12T20:31:31Z</time>
    </trkpt>
    <trkpt lat="38.62968402" lon="34.904044988">
      <ele>1100.75</ele>
      <time>2021-10-12T20:31:32Z</time>
    </trkpt>
    <trkpt lat="38.629686031" lon="34.904009029">
      <ele>1100.916</ele>
      <time>2021-10-12T20:31:33Z</time>
    </trkpt>
    <trkpt lat="38.629688965" lon="34.903979022">
      <ele>1101.077</ele>
      <time>2021-10-12T20:31:34Z</time>
    </trkpt>
    <trkpt lat="38.629690977" lon="34.903944992">
      <ele>1101.236</ele>
      <time>2021-10-12T20:31:35Z</time>
    </trkpt>
    <trkpt lat="38.629697012" lon="34.903910961">
      <ele>1101.467</ele>
      <time>2021-10-12T20:31:36Z</time>
    </trkpt>
    <trkpt lat="38.629710004" lon="34.903872991">
      <ele>1101.845</ele>
      <time>2021-10-12T20:31:37Z</time>
    </trkpt>
    <trkpt lat="38.629728025" lon="34.903840972">
      <ele>1102.26</ele>
      <time>2021-10-12T20:31:38Z</time>
    </trkpt>
    <trkpt lat="38.629747974" lon="34.903817">
      <ele>1102.654</ele>
      <time>2021-10-12T20:31:39Z</time>
    </trkpt>
    <trkpt lat="38.629774963" lon="34.903797973">
      <ele>1103.149</ele>
      <time>2021-10-12T20:31:41Z</time>
    </trkpt>
    <trkpt lat="38.62979902" lon="34.903780036">
      <ele>1103.606</ele>
      <time>2021-10-12T20:31:42Z</time>
    </trkpt>
    <trkpt lat="38.629818968" lon="34.90376302">
      <ele>1104.004</ele>
      <time>2021-10-12T20:31:42Z</time>
    </trkpt>
    <trkpt lat="38.629839001" lon="34.903749023">
      <ele>1104.397</ele>
      <time>2021-10-12T20:31:43Z</time>
    </trkpt>
    <trkpt lat="38.629864985" lon="34.903734019">
      <ele>1104.9</ele>
      <time>2021-10-12T20:31:44Z</time>
    </trkpt>
    <trkpt lat="38.629883006" lon="34.903719015">
      <ele>1105.281</ele>
      <time>2021-10-12T20:31:45Z</time>
    </trkpt>
    <trkpt lat="38.629895998" lon="34.903697977">
      <ele>1105.62</ele>
      <time>2021-10-12T20:31:46Z</time>
    </trkpt>
    <trkpt lat="38.629906978" lon="34.903677022">
      <ele>1105.931</ele>
      <time>2021-10-12T20:31:47Z</time>
    </trkpt>
    <trkpt lat="38.629967999" lon="34.903589012">
      <ele>1107.663</ele>
      <time>2021-10-12T20:31:50Z</time>
    </trkpt>
    <trkpt lat="38.630029019" lon="34.903490022">
      <ele>1110.13</ele>
      <time>2021-10-12T20:31:54Z</time>
    </trkpt>
    <trkpt lat="38.630032958" lon="34.903353984">
      <ele>1111.827</ele>
      <time>2021-10-12T20:31:58Z</time>
    </trkpt>
    <trkpt lat="38.630018961" lon="34.903222974">
      <ele>1113.601</ele>
      <time>2021-10-12T20:32:02Z</time>
    </trkpt>
    <trkpt lat="38.630027007" lon="34.903133959">
      <ele>1115.464</ele>
      <time>2021-10-12T20:32:04Z</time>
    </trkpt>
    <trkpt lat="38.630008986" lon="34.903095989">
      <ele>1115.563</ele>
      <time>2021-10-12T20:32:05Z</time>
    </trkpt>
    <trkpt lat="38.629992977" lon="34.903074028">
      <ele>1115.494</ele>
      <time>2021-10-12T20:32:06Z</time>
    </trkpt>
    <trkpt lat="38.629967999" lon="34.903020971">
      <ele>1115.553</ele>
      <time>2021-10-12T20:32:08Z</time>
    </trkpt>
    <trkpt lat="38.62997001" lon="34.902974032">
      <ele>1116.093</ele>
      <time>2021-10-12T20:32:09Z</time>
    </trkpt>
    <trkpt lat="38.629987026" lon="34.902960034">
      <ele>1116.689</ele>
      <time>2021-10-12T20:32:10Z</time>
    </trkpt>
    <trkpt lat="38.629988031" lon="34.902931033">
      <ele>1117.024</ele>
      <time>2021-10-12T20:32:11Z</time>
    </trkpt>
    <trkpt lat="38.629987026" lon="34.902905971">
      <ele>1117.263</ele>
      <time>2021-10-12T20:32:12Z</time>
    </trkpt>
    <trkpt lat="38.629985014" lon="34.902879987">
      <ele>1117.484</ele>
      <time>2021-10-12T20:32:13Z</time>
    </trkpt>
    <trkpt lat="38.629987026" lon="34.902856015">
      <ele>1117.795</ele>
      <time>2021-10-12T20:32:13Z</time>
    </trkpt>
    <trkpt lat="38.629987026" lon="34.902827013">
      <ele>1118.103</ele>
      <time>2021-10-12T20:32:14Z</time>
    </trkpt>
    <trkpt lat="38.629990965" lon="34.902800024">
      <ele>1118.502</ele>
      <time>2021-10-12T20:32:15Z</time>
    </trkpt>
    <trkpt lat="38.630004041" lon="34.902769011">
      <ele>1119.177</ele>
      <time>2021-10-12T20:32:16Z</time>
    </trkpt>
    <trkpt lat="38.630016027" lon="34.902750989">
      <ele>1119.668</ele>
      <time>2021-10-12T20:32:17Z</time>
    </trkpt>
    <trkpt lat="38.630032036" lon="34.902731963">
      <ele>1120.299</ele>
      <time>2021-10-12T20:32:17Z</time>
    </trkpt>
    <trkpt lat="38.630048968" lon="34.902711008">
      <ele>1120.961</ele>
      <time>2021-10-12T20:32:18Z</time>
    </trkpt>
    <trkpt lat="38.630066989" lon="34.902688963">
      <ele>1121.654</ele>
      <time>2021-10-12T20:32:19Z</time>
    </trkpt>
    <trkpt lat="38.630087022" lon="34.90268603">
      <ele>1122.36</ele>
      <time>2021-10-12T20:32:20Z</time>
    </trkpt>
    <trkpt lat="38.630112" lon="34.902692987">
      <ele>1123.214</ele>
      <time>2021-10-12T20:32:21Z</time>
    </trkpt>
    <trkpt lat="38.63013899" lon="34.902700027">
      <ele>1124.143</ele>
      <time>2021-10-12T20:32:22Z</time>
    </trkpt>
    <trkpt lat="38.630152987" lon="34.902726011">
      <ele>1124.591</ele>
      <time>2021-10-12T20:32:23Z</time>
    </trkpt>
    <trkpt lat="38.630165979" lon="34.902760042">
      <ele>1125.001</ele>
      <time>2021-10-12T20:32:24Z</time>
    </trkpt>
    <trkpt lat="38.630176038" lon="34.902787032">
      <ele>1125.216</ele>
      <time>2021-10-12T20:32:25Z</time>
    </trkpt>
    <trkpt lat="38.630182995" lon="34.902819972">
      <ele>1125.032</ele>
      <time>2021-10-12T20:32:26Z</time>
    </trkpt>
    <trkpt lat="38.630189029" lon="34.902847968">
      <ele>1124.875</ele>
      <time>2021-10-12T20:32:27Z</time>
    </trkpt>
    <trkpt lat="38.630199004" lon="34.902875042">
      <ele>1124.863</ele>
      <time>2021-10-12T20:32:27Z</time>
    </trkpt>
    <trkpt lat="38.630217025" lon="34.902899014">
      <ele>1125.163</ele>
      <time>2021-10-12T20:32:28Z</time>
    </trkpt>
    <trkpt lat="38.630234962" lon="34.902916029">
      <ele>1125.545</ele>
      <time>2021-10-12T20:32:29Z</time>
    </trkpt>
    <trkpt lat="38.630250972" lon="34.902935978">
      <ele>1125.812</ele>
      <time>2021-10-12T20:32:30Z</time>
    </trkpt>
    <trkpt lat="38.630265975" lon="34.902951987">
      <ele>1126.093</ele>
      <time>2021-10-12T20:32:31Z</time>
    </trkpt>
    <trkpt lat="38.630286008" lon="34.90297596">
      <ele>1126.468</ele>
      <time>2021-10-12T20:32:32Z</time>
    </trkpt>
    <trkpt lat="38.630301012" lon="34.902989035">
      <ele>1126.881</ele>
      <time>2021-10-12T20:32:33Z</time>
    </trkpt>
    <trkpt lat="38.630319033" lon="34.903004961">
      <ele>1127.403</ele>
      <time>2021-10-12T20:32:33Z</time>
    </trkpt>
    <trkpt lat="38.630334958" lon="34.903016025">
      <ele>1127.922</ele>
      <time>2021-10-12T20:32:34Z</time>
    </trkpt>
    <trkpt lat="38.630354991" lon="34.90303698">
      <ele>1128.529</ele>
      <time>2021-10-12T20:32:35Z</time>
    </trkpt>
    <trkpt lat="38.630367983" lon="34.903059024">
      <ele>1128.834</ele>
      <time>2021-10-12T20:32:36Z</time>
    </trkpt>
    <trkpt lat="38.630380975" lon="34.903076962">
      <ele>1129.073</ele>
      <time>2021-10-12T20:32:36Z</time>
    </trkpt>
    <trkpt lat="38.630400002" lon="34.903100012">
      <ele>1129.48</ele>
      <time>2021-10-12T20:32:37Z</time>
    </trkpt>
    <trkpt lat="38.630416011" lon="34.903118033">
      <ele>1129.847</ele>
      <time>2021-10-12T20:32:38Z</time>
    </trkpt>
    <trkpt lat="38.630430009" lon="34.903139994">
      <ele>1130.057</ele>
      <time>2021-10-12T20:32:39Z</time>
    </trkpt>
    <trkpt lat="38.630436966" lon="34.903174024">
      <ele>1129.745</ele>
      <time>2021-10-12T20:32:40Z</time>
    </trkpt>
    <trkpt lat="38.63044099" lon="34.903206965">
      <ele>1129.325</ele>
      <time>2021-10-12T20:32:41Z</time>
    </trkpt>
    <trkpt lat="38.63045197" lon="34.903234039">
      <ele>1129.312</ele>
      <time>2021-10-12T20:32:42Z</time>
    </trkpt>
    <trkpt lat="38.630461022" lon="34.903271003">
      <ele>1129.038</ele>
      <time>2021-10-12T20:32:43Z</time>
    </trkpt>
    <trkpt lat="38.630473008" lon="34.903304027">
      <ele>1128.961</ele>
      <time>2021-10-12T20:32:44Z</time>
    </trkpt>
    <trkpt lat="38.630480971" lon="34.903324982">
      <ele>1128.928</ele>
      <time>2021-10-12T20:32:45Z</time>
    </trkpt>
    <trkpt lat="38.630488012" lon="34.903349038">
      <ele>1128.799</ele>
      <time>2021-10-12T20:32:46Z</time>
    </trkpt>
    <trkpt lat="38.630496981" lon="34.90337804">
      <ele>1128.665</ele>
      <time>2021-10-12T20:32:46Z</time>
    </trkpt>
    <trkpt lat="38.630504021" lon="34.903405029">
      <ele>1128.483</ele>
      <time>2021-10-12T20:32:47Z</time>
    </trkpt>
    <trkpt lat="38.630510978" lon="34.903431013">
      <ele>1128.316</ele>
      <time>2021-10-12T20:32:48Z</time>
    </trkpt>
    <trkpt lat="38.630521037" lon="34.90345398">
      <ele>1128.337</ele>
      <time>2021-10-12T20:32:49Z</time>
    </trkpt>
    <trkpt lat="38.630534029" lon="34.903470995">
      <ele>1128.592</ele>
      <time>2021-10-12T20:32:49Z</time>
    </trkpt>
    <trkpt lat="38.630544003" lon="34.903490022">
      <ele>1128.681</ele>
      <time>2021-10-12T20:32:50Z</time>
    </trkpt>
    <trkpt lat="38.630555989" lon="34.903516006">
      <ele>1128.724</ele>
      <time>2021-10-12T20:32:51Z</time>
    </trkpt>
    <trkpt lat="38.630569987" lon="34.903550036">
      <ele>1128.515</ele>
      <time>2021-10-12T20:32:52Z</time>
    </trkpt>
    <trkpt lat="38.630579039" lon="34.903590018">
      <ele>1128.056</ele>
      <time>2021-10-12T20:32:53Z</time>
    </trkpt>
    <trkpt lat="38.630597983" lon="34.903623965">
      <ele>1128.176</ele>
      <time>2021-10-12T20:32:55Z</time>
    </trkpt>
    <trkpt lat="38.630622039" lon="34.903635029">
      <ele>1128.829</ele>
      <time>2021-10-12T20:32:56Z</time>
    </trkpt>
    <trkpt lat="38.630649028" lon="34.903637962">
      <ele>1129.595</ele>
      <time>2021-10-12T20:32:57Z</time>
    </trkpt>
    <trkpt lat="38.630671995" lon="34.903639974">
      <ele>1130.25</ele>
      <time>2021-10-12T20:32:57Z</time>
    </trkpt>
    <trkpt lat="38.630695967" lon="34.903638968">
      <ele>1130.944</ele>
      <time>2021-10-12T20:32:58Z</time>
    </trkpt>
    <trkpt lat="38.630722035" lon="34.903638968">
      <ele>1131.694</ele>
      <time>2021-10-12T20:32:59Z</time>
    </trkpt>
    <trkpt lat="38.630748019" lon="34.903641986">
      <ele>1132.432</ele>
      <time>2021-10-12T20:33:00Z</time>
    </trkpt>
    <trkpt lat="38.630771991" lon="34.903637962">
      <ele>1133.137</ele>
      <time>2021-10-12T20:33:01Z</time>
    </trkpt>
    <trkpt lat="38.630795041" lon="34.903634023">
      <ele>1133.815</ele>
      <time>2021-10-12T20:33:02Z</time>
    </trkpt>
    <trkpt lat="38.630820019" lon="34.90362497">
      <ele>1134.567</ele>
      <time>2021-10-12T20:33:03Z</time>
    </trkpt>
    <trkpt lat="38.630844997" lon="34.903608039">
      <ele>1135.097</ele>
      <time>2021-10-12T20:33:04Z</time>
    </trkpt>
    <trkpt lat="38.630868969" lon="34.903588006">
      <ele>1135.534</ele>
      <time>2021-10-12T20:33:05Z</time>
    </trkpt>
    <trkpt lat="38.630893026" lon="34.903565962">
      <ele>1135.993</ele>
      <time>2021-10-12T20:33:06Z</time>
    </trkpt>
    <trkpt lat="38.630912974" lon="34.903536038">
      <ele>1136.561</ele>
      <time>2021-10-12T20:33:07Z</time>
    </trkpt>
    <trkpt lat="38.630935019" lon="34.903507959">
      <ele>1137.087</ele>
      <time>2021-10-12T20:33:08Z</time>
    </trkpt>
    <trkpt lat="38.630955974" lon="34.903482981">
      <ele>1137.544</ele>
      <time>2021-10-12T20:33:09Z</time>
    </trkpt>
    <trkpt lat="38.630971983" lon="34.903458003">
      <ele>1137.98</ele>
      <time>2021-10-12T20:33:10Z</time>
    </trkpt>
    <trkpt lat="38.630993022" lon="34.903432019">
      <ele>1138.428</ele>
      <time>2021-10-12T20:33:11Z</time>
    </trkpt>
    <trkpt lat="38.631014982" lon="34.903404023">
      <ele>1138.894</ele>
      <time>2021-10-12T20:33:13Z</time>
    </trkpt>
    <trkpt lat="38.631040966" lon="34.903377034">
      <ele>1139.331</ele>
      <time>2021-10-12T20:33:14Z</time>
    </trkpt>
    <trkpt lat="38.631066028" lon="34.903358007">
      <ele>1139.63</ele>
      <time>2021-10-12T20:33:15Z</time>
    </trkpt>
    <trkpt lat="38.631091006" lon="34.903339986">
      <ele>1139.902</ele>
      <time>2021-10-12T20:33:16Z</time>
    </trkpt>
    <trkpt lat="38.631119002" lon="34.903333029">
      <ele>1139.946</ele>
      <time>2021-10-12T20:33:17Z</time>
    </trkpt>
    <trkpt lat="38.631145991" lon="34.903324982">
      <ele>1139.835</ele>
      <time>2021-10-12T20:33:18Z</time>
    </trkpt>
    <trkpt lat="38.631171975" lon="34.903316014">
      <ele>1139.735</ele>
      <time>2021-10-12T20:33:19Z</time>
    </trkpt>
    <trkpt lat="38.631200977" lon="34.903306039">
      <ele>1139.616</ele>
      <time>2021-10-12T20:33:20Z</time>
    </trkpt>
    <trkpt lat="38.631230984" lon="34.903292041">
      <ele>1139.519</ele>
      <time>2021-10-12T20:33:21Z</time>
    </trkpt>
    <trkpt lat="38.631256968" lon="34.90327796">
      <ele>1139.443</ele>
      <time>2021-10-12T20:33:22Z</time>
    </trkpt>
    <trkpt lat="38.631288987" lon="34.903259017">
      <ele>1139.351</ele>
      <time>2021-10-12T20:33:24Z</time>
    </trkpt>
    <trkpt lat="38.631318994" lon="34.903233033">
      <ele>1139.316</ele>
      <time>2021-10-12T20:33:25Z</time>
    </trkpt>
    <trkpt lat="38.631346989" lon="34.903205037">
      <ele>1139.295</ele>
      <time>2021-10-12T20:33:26Z</time>
    </trkpt>
    <trkpt lat="38.631372973" lon="34.903177964">
      <ele>1139.265</ele>
      <time>2021-10-12T20:33:28Z</time>
    </trkpt>
    <trkpt lat="38.631397029" lon="34.90314804">
      <ele>1139.295</ele>
      <time>2021-10-12T20:33:29Z</time>
    </trkpt>
    <trkpt lat="38.631417984" lon="34.903115015">
      <ele>1139.445</ele>
      <time>2021-10-12T20:33:30Z</time>
    </trkpt>
    <trkpt lat="38.631438017" lon="34.903086014">
      <ele>1139.584</ele>
      <time>2021-10-12T20:33:31Z</time>
    </trkpt>
    <trkpt lat="38.631461989" lon="34.903059024">
      <ele>1139.709</ele>
      <time>2021-10-12T20:33:32Z</time>
    </trkpt>
    <trkpt lat="38.631485961" lon="34.903032035">
      <ele>1139.849</ele>
      <time>2021-10-12T20:33:34Z</time>
    </trkpt>
    <trkpt lat="38.631512029" lon="34.903006973">
      <ele>1139.984</ele>
      <time>2021-10-12T20:33:35Z</time>
    </trkpt>
    <trkpt lat="38.631534996" lon="34.902979983">
      <ele>1140.161</ele>
      <time>2021-10-12T20:33:36Z</time>
    </trkpt>
    <trkpt lat="38.631561985" lon="34.902952993">
      <ele>1140.345</ele>
      <time>2021-10-12T20:33:37Z</time>
    </trkpt>
    <trkpt lat="38.631586041" lon="34.902931033">
      <ele>1140.505</ele>
      <time>2021-10-12T20:33:38Z</time>
    </trkpt>
    <trkpt lat="38.631613031" lon="34.902914017">
      <ele>1140.623</ele>
      <time>2021-10-12T20:33:39Z</time>
    </trkpt>
    <trkpt lat="38.631637003" lon="34.902895996">
      <ele>1140.769</ele>
      <time>2021-10-12T20:33:40Z</time>
    </trkpt>
    <trkpt lat="38.631663993" lon="34.902877975">
      <ele>1140.921</ele>
      <time>2021-10-12T20:33:42Z</time>
    </trkpt>
    <trkpt lat="38.631689977" lon="34.90286096">
      <ele>1140.959</ele>
      <time>2021-10-12T20:33:43Z</time>
    </trkpt>
    <trkpt lat="38.631715039" lon="34.90284604">
      <ele>1140.957</ele>
      <time>2021-10-12T20:33:44Z</time>
    </trkpt>
    <trkpt lat="38.631741023" lon="34.902832964">
      <ele>1140.922</ele>
      <time>2021-10-12T20:33:45Z</time>
    </trkpt>
    <trkpt lat="38.631769018" lon="34.902820978">
      <ele>1140.854</ele>
      <time>2021-10-12T20:33:46Z</time>
    </trkpt>
    <trkpt lat="38.631801959" lon="34.90281201">
      <ele>1140.716</ele>
      <time>2021-10-12T20:33:47Z</time>
    </trkpt>
    <trkpt lat="38.631833978" lon="34.902806981">
      <ele>1140.543</ele>
      <time>2021-10-12T20:33:48Z</time>
    </trkpt>
    <trkpt lat="38.631867003" lon="34.902803963">
      <ele>1140.343</ele>
      <time>2021-10-12T20:33:49Z</time>
    </trkpt>
    <trkpt lat="38.631901033" lon="34.902801029">
      <ele>1140.132</ele>
      <time>2021-10-12T20:33:51Z</time>
    </trkpt>
    <trkpt lat="38.631935986" lon="34.902801029">
      <ele>1139.891</ele>
      <time>2021-10-12T20:33:52Z</time>
    </trkpt>
    <trkpt lat="38.631972028" lon="34.902806981">
      <ele>1139.602</ele>
      <time>2021-10-12T20:33:53Z</time>
    </trkpt>
    <trkpt lat="38.632013015" lon="34.902818967">
      <ele>1139.246</ele>
      <time>2021-10-12T20:33:55Z</time>
    </trkpt>
    <trkpt lat="38.632050985" lon="34.902830031">
      <ele>1138.929</ele>
      <time>2021-10-12T20:33:56Z</time>
    </trkpt>
    <trkpt lat="38.632088033" lon="34.902843023">
      <ele>1138.618</ele>
      <time>2021-10-12T20:33:58Z</time>
    </trkpt>
    <trkpt lat="38.632124998" lon="34.90285702">
      <ele>1138.315</ele>
      <time>2021-10-12T20:33:59Z</time>
    </trkpt>
    <trkpt lat="38.632158022" lon="34.902865989">
      <ele>1138.071</ele>
      <time>2021-10-12T20:34:00Z</time>
    </trkpt>
    <trkpt lat="38.632190963" lon="34.902871018">
      <ele>1137.852</ele>
      <time>2021-10-12T20:34:02Z</time>
    </trkpt>
    <trkpt lat="38.632227005" lon="34.902876969">
      <ele>1137.66</ele>
      <time>2021-10-12T20:34:03Z</time>
    </trkpt>
    <trkpt lat="38.632264975" lon="34.902887028">
      <ele>1137.761</ele>
      <time>2021-10-12T20:34:04Z</time>
    </trkpt>
    <trkpt lat="38.632300012" lon="34.902891973">
      <ele>1137.869</ele>
      <time>2021-10-12T20:34:06Z</time>
    </trkpt>
    <trkpt lat="38.632333037" lon="34.902897002">
      <ele>1137.97</ele>
      <time>2021-10-12T20:34:07Z</time>
    </trkpt>
    <trkpt lat="38.632365977" lon="34.902903959">
      <ele>1138.063</ele>
      <time>2021-10-12T20:34:08Z</time>
    </trkpt>
    <trkpt lat="38.632401014" lon="34.902906977">
      <ele>1138.179</ele>
      <time>2021-10-12T20:34:10Z</time>
    </trkpt>
    <trkpt lat="38.632435966" lon="34.902914017">
      <ele>1138.279</ele>
      <time>2021-10-12T20:34:11Z</time>
    </trkpt>
    <trkpt lat="38.632469997" lon="34.902919969">
      <ele>1138.38</ele>
      <time>2021-10-12T20:34:12Z</time>
    </trkpt>
    <trkpt lat="38.632497992" lon="34.902928015">
      <ele>1138.452</ele>
      <time>2021-10-12T20:34:13Z</time>
    </trkpt>
    <trkpt lat="38.632531017" lon="34.902935978">
      <ele>1138.382</ele>
      <time>2021-10-12T20:34:14Z</time>
    </trkpt>
    <trkpt lat="38.632564042" lon="34.902942013">
      <ele>1138.315</ele>
      <time>2021-10-12T20:34:16Z</time>
    </trkpt>
    <trkpt lat="38.632596983" lon="34.902947964">
      <ele>1138.252</ele>
      <time>2021-10-12T20:34:17Z</time>
    </trkpt>
    <trkpt lat="38.632631013" lon="34.902951987">
      <ele>1138.197</ele>
      <time>2021-10-12T20:34:18Z</time>
    </trkpt>
    <trkpt lat="38.632664038" lon="34.902957017">
      <ele>1138.145</ele>
      <time>2021-10-12T20:34:19Z</time>
    </trkpt>
    <trkpt lat="38.632695973" lon="34.90296104">
      <ele>1138.1</ele>
      <time>2021-10-12T20:34:21Z</time>
    </trkpt>
    <trkpt lat="38.632732015" lon="34.902969003">
      <ele>1138.051</ele>
      <time>2021-10-12T20:34:22Z</time>
    </trkpt>
    <trkpt lat="38.632763028" lon="34.902976966">
      <ele>1138.015</ele>
      <time>2021-10-12T20:34:23Z</time>
    </trkpt>
    <trkpt lat="38.63279203" lon="34.902981995">
      <ele>1138.065</ele>
      <time>2021-10-12T20:34:24Z</time>
    </trkpt>
    <trkpt lat="38.632821031" lon="34.902985012">
      <ele>1138.195</ele>
      <time>2021-10-12T20:34:25Z</time>
    </trkpt>
    <trkpt lat="38.632854978" lon="34.902992975">
      <ele>1138.341</ele>
      <time>2021-10-12T20:34:27Z</time>
    </trkpt>
    <trkpt lat="38.632888002" lon="34.90299901">
      <ele>1138.478</ele>
      <time>2021-10-12T20:34:28Z</time>
    </trkpt>
    <trkpt lat="38.632919015" lon="34.903002027">
      <ele>1138.606</ele>
      <time>2021-10-12T20:34:29Z</time>
    </trkpt>
    <trkpt lat="38.632952962" lon="34.903008984">
      <ele>1138.736</ele>
      <time>2021-10-12T20:34:30Z</time>
    </trkpt>
    <trkpt lat="38.632985987" lon="34.903017031">
      <ele>1138.854</ele>
      <time>2021-10-12T20:34:31Z</time>
    </trkpt>
    <trkpt lat="38.633015994" lon="34.903022982">
      <ele>1138.958</ele>
      <time>2021-10-12T20:34:33Z</time>
    </trkpt>
    <trkpt lat="38.633048013" lon="34.903030023">
      <ele>1139.062</ele>
      <time>2021-10-12T20:34:34Z</time>
    </trkpt>
    <trkpt lat="38.633079026" lon="34.903037986">
      <ele>1139.311</ele>
      <time>2021-10-12T20:34:35Z</time>
    </trkpt>
    <trkpt lat="38.63310501" lon="34.903048966">
      <ele>1139.554</ele>
      <time>2021-10-12T20:34:36Z</time>
    </trkpt>
    <trkpt lat="38.633125965" lon="34.903075034">
      <ele>1139.62</ele>
      <time>2021-10-12T20:34:37Z</time>
    </trkpt>
    <trkpt lat="38.633135017" lon="34.903110992">
      <ele>1139.459</ele>
      <time>2021-10-12T20:34:38Z</time>
    </trkpt>
    <trkpt lat="38.633137029" lon="34.90314804">
      <ele>1139.214</ele>
      <time>2021-10-12T20:34:39Z</time>
    </trkpt>
    <trkpt lat="38.633132" lon="34.90318601">
      <ele>1138.886</ele>
      <time>2021-10-12T20:34:40Z</time>
    </trkpt>
    <trkpt lat="38.633125965" lon="34.903230015">
      <ele>1138.504</ele>
      <time>2021-10-12T20:34:42Z</time>
    </trkpt>
    <trkpt lat="38.633120013" lon="34.903280977">
      <ele>1138.073</ele>
      <time>2021-10-12T20:34:43Z</time>
    </trkpt>
    <trkpt lat="38.633086146" lon="34.903555888">
      <ele>1135.64</ele>
      <time>2021-10-12T20:34:51Z</time>
    </trkpt>
    <trkpt lat="38.633024248" lon="34.90399001">
      <ele>1134.072</ele>
      <time>2021-10-12T20:35:04Z</time>
    </trkpt>
    <trkpt lat="38.632975782" lon="34.904391561">
      <ele>1134.233</ele>
      <time>2021-10-12T20:35:16Z</time>
    </trkpt>
    <trkpt lat="38.632966024" lon="34.904687734">
      <ele>1132.571</ele>
      <time>2021-10-12T20:35:24Z</time>
    </trkpt>
    <trkpt lat="38.633022793" lon="34.90491616">
      <ele>1129.941</ele>
      <time>2021-10-12T20:35:31Z</time>
    </trkpt>
    <trkpt lat="38.633019011" lon="34.905050984">
      <ele>1128.266</ele>
      <time>2021-10-12T20:35:35Z</time>
    </trkpt>
    <trkpt lat="38.633005014" lon="34.90508996">
      <ele>1127.705</ele>
      <time>2021-10-12T20:35:37Z</time>
    </trkpt>
    <trkpt lat="38.632981041" lon="34.905124996">
      <ele>1127.2</ele>
      <time>2021-10-12T20:35:38Z</time>
    </trkpt>
    <trkpt lat="38.632956985" lon="34.905155003">
      <ele>1126.768</ele>
      <time>2021-10-12T20:35:39Z</time>
    </trkpt>
    <trkpt lat="38.632936031" lon="34.905190039">
      <ele>1126.263</ele>
      <time>2021-10-12T20:35:40Z</time>
    </trkpt>
    <trkpt lat="38.63291801" lon="34.905224992">
      <ele>1125.76</ele>
      <time>2021-10-12T20:35:42Z</time>
    </trkpt>
    <trkpt lat="38.632905018" lon="34.905264974">
      <ele>1125.184</ele>
      <time>2021-10-12T20:35:43Z</time>
    </trkpt>
    <trkpt lat="38.632894037" lon="34.905304033">
      <ele>1124.607</ele>
      <time>2021-10-12T20:35:44Z</time>
    </trkpt>
    <trkpt lat="38.632885991" lon="34.90534896">
      <ele>1123.918</ele>
      <time>2021-10-12T20:35:45Z</time>
    </trkpt>
    <trkpt lat="38.632879034" lon="34.905391959">
      <ele>1123.244</ele>
      <time>2021-10-12T20:35:47Z</time>
    </trkpt>
    <trkpt lat="38.632876016" lon="34.905434037">
      <ele>1122.585</ele>
      <time>2021-10-12T20:35:48Z</time>
    </trkpt>
    <trkpt lat="38.632874005" lon="34.905478042">
      <ele>1121.895</ele>
      <time>2021-10-12T20:35:49Z</time>
    </trkpt>
    <trkpt lat="38.632876016" lon="34.905519029">
      <ele>1121.272</ele>
      <time>2021-10-12T20:35:50Z</time>
    </trkpt>
    <trkpt lat="38.632878028" lon="34.905562028">
      <ele>1120.629</ele>
      <time>2021-10-12T20:35:52Z</time>
    </trkpt>
    <trkpt lat="38.632876016" lon="34.905599998">
      <ele>1120.067</ele>
      <time>2021-10-12T20:35:53Z</time>
    </trkpt>
    <trkpt lat="38.632882973" lon="34.905640986">
      <ele>1119.527</ele>
      <time>2021-10-12T20:35:54Z</time>
    </trkpt>
    <trkpt lat="38.632900994" lon="34.905679962">
      <ele>1119.096</ele>
      <time>2021-10-12T20:35:55Z</time>
    </trkpt>
    <trkpt lat="38.632913986" lon="34.905710975">
      <ele>1118.743</ele>
      <time>2021-10-12T20:35:56Z</time>
    </trkpt>
    <trkpt lat="38.632927984" lon="34.905746011">
      <ele>1118.339</ele>
      <time>2021-10-12T20:35:57Z</time>
    </trkpt>
    <trkpt lat="38.632942988" lon="34.905781969">
      <ele>1117.929</ele>
      <time>2021-10-12T20:35:59Z</time>
    </trkpt>
    <trkpt lat="38.632958997" lon="34.905817006">
      <ele>1117.54</ele>
      <time>2021-10-12T20:36:00Z</time>
    </trkpt>
    <trkpt lat="38.632969977" lon="34.905852964">
      <ele>1117.15</ele>
      <time>2021-10-12T20:36:01Z</time>
    </trkpt>
    <trkpt lat="38.632984981" lon="34.905889006">
      <ele>1116.84</ele>
      <time>2021-10-12T20:36:02Z</time>
    </trkpt>
    <trkpt lat="38.632997973" lon="34.905925971">
      <ele>1116.516</ele>
      <time>2021-10-12T20:36:03Z</time>
    </trkpt>
    <trkpt lat="38.633005014" lon="34.905972993">
      <ele>1116.036</ele>
      <time>2021-10-12T20:36:05Z</time>
    </trkpt>
    <trkpt lat="38.633009959" lon="34.90601901">
      <ele>1115.557</ele>
      <time>2021-10-12T20:36:06Z</time>
    </trkpt>
    <trkpt lat="38.632956" lon="34.906306">
      <ele>1111.82</ele>
      <time>2021-10-12T20:36:15Z</time>
    </trkpt>
    <trkpt lat="38.632881" lon="34.906503">
      <ele>1110.009</ele>
      <time>2021-10-12T20:36:21Z</time>
    </trkpt>
    <trkpt lat="38.632836" lon="34.906739">
      <ele>1109.103</ele>
      <time>2021-10-12T20:36:28Z</time>
    </trkpt>
    <trkpt lat="38.632599" lon="34.906614">
      <ele>1107.912</ele>
      <time>2021-10-12T20:36:37Z</time>
    </trkpt>
    <trkpt lat="38.632516" lon="34.906623">
      <ele>1107.659</ele>
      <time>2021-10-12T20:36:41Z</time>
    </trkpt>
    <trkpt lat="38.632463" lon="34.906665">
      <ele>1107.424</ele>
      <time>2021-10-12T20:36:43Z</time>
    </trkpt>
    <trkpt lat="38.632162" lon="34.907132">
      <ele>1104.619</ele>
      <time>2021-10-12T20:37:00Z</time>
    </trkpt>
    <trkpt lat="38.632137" lon="34.907419">
      <ele>1102.036</ele>
      <time>2021-10-12T20:37:09Z</time>
    </trkpt>
    <trkpt lat="38.632088" lon="34.907569">
      <ele>1100.425</ele>
      <time>2021-10-12T20:37:14Z</time>
    </trkpt>
    <trkpt lat="38.632004" lon="34.907725">
      <ele>1097.71</ele>
      <time>2021-10-12T20:37:19Z</time>
    </trkpt>
    <trkpt lat="38.631906" lon="34.90773">
      <ele>1096.573</ele>
      <time>2021-10-12T20:37:23Z</time>
    </trkpt>
    <trkpt lat="38.631713" lon="34.907778">
      <ele>1095.165</ele>
      <time>2021-10-12T20:37:30Z</time>
    </trkpt>
    <trkpt lat="38.631714" lon="34.907828">
      <ele>1094.751</ele>
      <time>2021-10-12T20:37:31Z</time>
    </trkpt>
    <trkpt lat="38.631622" lon="34.908175">
      <ele>1091.953</ele>
      <time>2021-10-12T20:37:42Z</time>
    </trkpt>
    <trkpt lat="38.63148" lon="34.90854">
      <ele>1089.156</ele>
      <time>2021-10-12T20:37:54Z</time>
    </trkpt>
    <trkpt lat="38.631347" lon="34.909066">
      <ele>1081.6</ele>
      <time>2021-10-12T20:38:10Z</time>
    </trkpt>
    <trkpt lat="38.631256639" lon="34.909279202">
      <ele>1080.901</ele>
      <time>2021-10-12T20:38:17Z</time>
    </trkpt>
    <trkpt lat="38.631052436" lon="34.909583287">
      <ele>1082.471</ele>
      <time>2021-10-12T20:38:29Z</time>
    </trkpt>
  </trkseg>
</trk>
</gpx>
